<?xml version="1.0" encoding="UTF-8"?>
<gpx version="1.1" creator="https://www.youtrack.es" xsi:schemaLocation="http://www.topografix.com/GPX/1/1 http://www.topografix.com/GPX/1/1/gpx.xsd http://www.garmin.com/xmlschemas/GpxExtensions/v3 http://www.garmin.com/xmlschemas/GpxExtensionsv3.xsd http://www.garmin.com/xmlschemas/TrackPointExtension/v1 http://www.garmin.com/xmlschemas/TrackPointExtensionv1.xsd" xmlns:gpxtpx="http://www.garmin.com/xmlschemas/TrackPointExtension/v1" xmlns:gpxx="http://www.garmin.com/xmlschemas/GpxExtensions/v3" xmlns:xsi="http://www.w3.org/2001/XMLSchema-instance">
  <metadata>
    <link href="https://www.youtrack.es">
      <text>YouTrack.es</text>
    </link>
    <time>2026-05-08T02:41:27Z</time>
  </metadata>
  <trk>
    <src>https://www.youtrack.es</src>
    <link href="https://www.youtrack.es/ruta/24351-camino-de-santiago-camino-del-norte--10-etapas-en-mtb">
      <text>YouTrack.es</text>
    </link>
    <trkseg>
      <trkpt lat="43.4612820" lon="-3.8074570">
        <ele>31.0</ele>
        <time>2021-07-17T06:49:49Z</time>
      </trkpt>
      <trkpt lat="43.4612820" lon="-3.8074570">
        <ele>31.0</ele>
        <time>2021-07-17T06:49:50Z</time>
      </trkpt>
      <trkpt lat="43.4612800" lon="-3.8075390">
        <ele>31.2</ele>
        <time>2021-07-17T06:51:18Z</time>
      </trkpt>
      <trkpt lat="43.4612850" lon="-3.8075640">
        <ele>31.2</ele>
        <time>2021-07-17T06:51:19Z</time>
      </trkpt>
      <trkpt lat="43.4612880" lon="-3.8075870">
        <ele>31.2</ele>
        <time>2021-07-17T06:51:20Z</time>
      </trkpt>
      <trkpt lat="43.4613090" lon="-3.8076470">
        <ele>31.2</ele>
        <time>2021-07-17T06:51:23Z</time>
      </trkpt>
      <trkpt lat="43.4613220" lon="-3.8076650">
        <ele>31.2</ele>
        <time>2021-07-17T06:51:24Z</time>
      </trkpt>
      <trkpt lat="43.4613410" lon="-3.8076890">
        <ele>31.2</ele>
        <time>2021-07-17T06:51:26Z</time>
      </trkpt>
      <trkpt lat="43.4613460" lon="-3.8077000">
        <ele>31.2</ele>
        <time>2021-07-17T06:51:28Z</time>
      </trkpt>
      <trkpt lat="43.4613710" lon="-3.8077420">
        <ele>31.2</ele>
        <time>2021-07-17T06:51:40Z</time>
      </trkpt>
      <trkpt lat="43.4613870" lon="-3.8077570">
        <ele>31.2</ele>
        <time>2021-07-17T06:51:41Z</time>
      </trkpt>
      <trkpt lat="43.4614670" lon="-3.8078820">
        <ele>31.2</ele>
        <time>2021-07-17T06:51:47Z</time>
      </trkpt>
      <trkpt lat="43.4614750" lon="-3.8079140">
        <ele>31.2</ele>
        <time>2021-07-17T06:51:48Z</time>
      </trkpt>
      <trkpt lat="43.4614920" lon="-3.8081070">
        <ele>31.2</ele>
        <time>2021-07-17T06:51:55Z</time>
      </trkpt>
      <trkpt lat="43.4615140" lon="-3.8083170">
        <ele>31.2</ele>
        <time>2021-07-17T06:52:00Z</time>
      </trkpt>
      <trkpt lat="43.4615100" lon="-3.8083520">
        <ele>31.2</ele>
        <time>2021-07-17T06:52:01Z</time>
      </trkpt>
      <trkpt lat="43.4614740" lon="-3.8085080">
        <ele>31.2</ele>
        <time>2021-07-17T06:52:06Z</time>
      </trkpt>
      <trkpt lat="43.4615120" lon="-3.8088100">
        <ele>31.2</ele>
        <time>2021-07-17T06:52:13Z</time>
      </trkpt>
      <trkpt lat="43.4615070" lon="-3.8088750">
        <ele>31.2</ele>
        <time>2021-07-17T06:52:16Z</time>
      </trkpt>
      <trkpt lat="43.4615410" lon="-3.8090400">
        <ele>31.2</ele>
        <time>2021-07-17T06:53:00Z</time>
      </trkpt>
      <trkpt lat="43.4615580" lon="-3.8090740">
        <ele>31.2</ele>
        <time>2021-07-17T06:53:02Z</time>
      </trkpt>
      <trkpt lat="43.4615770" lon="-3.8091450">
        <ele>31.2</ele>
        <time>2021-07-17T06:53:05Z</time>
      </trkpt>
      <trkpt lat="43.4615850" lon="-3.8092170">
        <ele>31.2</ele>
        <time>2021-07-17T06:53:08Z</time>
      </trkpt>
      <trkpt lat="43.4614840" lon="-3.8093900">
        <ele>31.2</ele>
        <time>2021-07-17T06:53:13Z</time>
      </trkpt>
      <trkpt lat="43.4614590" lon="-3.8094620">
        <ele>31.2</ele>
        <time>2021-07-17T06:53:15Z</time>
      </trkpt>
      <trkpt lat="43.4614300" lon="-3.8095500">
        <ele>31.2</ele>
        <time>2021-07-17T06:53:18Z</time>
      </trkpt>
      <trkpt lat="43.4614720" lon="-3.8097000">
        <ele>31.2</ele>
        <time>2021-07-17T06:53:23Z</time>
      </trkpt>
      <trkpt lat="43.4615320" lon="-3.8098840">
        <ele>31.2</ele>
        <time>2021-07-17T06:53:28Z</time>
      </trkpt>
      <trkpt lat="43.4615740" lon="-3.8099480">
        <ele>31.2</ele>
        <time>2021-07-17T06:53:30Z</time>
      </trkpt>
      <trkpt lat="43.4615910" lon="-3.8101800">
        <ele>31.2</ele>
        <time>2021-07-17T06:53:35Z</time>
      </trkpt>
      <trkpt lat="43.4615970" lon="-3.8102650">
        <ele>31.2</ele>
        <time>2021-07-17T06:53:37Z</time>
      </trkpt>
      <trkpt lat="43.4616070" lon="-3.8104230">
        <ele>31.2</ele>
        <time>2021-07-17T06:53:41Z</time>
      </trkpt>
      <trkpt lat="43.4616640" lon="-3.8106670">
        <ele>31.2</ele>
        <time>2021-07-17T06:53:47Z</time>
      </trkpt>
      <trkpt lat="43.4617490" lon="-3.8109070">
        <ele>31.2</ele>
        <time>2021-07-17T06:53:54Z</time>
      </trkpt>
      <trkpt lat="43.4617700" lon="-3.8110040">
        <ele>31.2</ele>
        <time>2021-07-17T06:53:57Z</time>
      </trkpt>
      <trkpt lat="43.4617880" lon="-3.8110900">
        <ele>31.2</ele>
        <time>2021-07-17T06:54:00Z</time>
      </trkpt>
      <trkpt lat="43.4618910" lon="-3.8113350">
        <ele>31.2</ele>
        <time>2021-07-17T06:54:07Z</time>
      </trkpt>
      <trkpt lat="43.4620430" lon="-3.8115930">
        <ele>31.2</ele>
        <time>2021-07-17T06:54:15Z</time>
      </trkpt>
      <trkpt lat="43.4620640" lon="-3.8116600">
        <ele>31.2</ele>
        <time>2021-07-17T06:54:18Z</time>
      </trkpt>
      <trkpt lat="43.4620630" lon="-3.8116810">
        <ele>31.2</ele>
        <time>2021-07-17T06:54:20Z</time>
      </trkpt>
      <trkpt lat="43.4620130" lon="-3.8118710">
        <ele>31.2</ele>
        <time>2021-07-17T06:54:48Z</time>
      </trkpt>
      <trkpt lat="43.4620190" lon="-3.8119050">
        <ele>31.2</ele>
        <time>2021-07-17T06:54:49Z</time>
      </trkpt>
      <trkpt lat="43.4620530" lon="-3.8120700">
        <ele>31.2</ele>
        <time>2021-07-17T06:54:54Z</time>
      </trkpt>
      <trkpt lat="43.4621020" lon="-3.8121870">
        <ele>31.2</ele>
        <time>2021-07-17T06:55:00Z</time>
      </trkpt>
      <trkpt lat="43.4621370" lon="-3.8122770">
        <ele>31.2</ele>
        <time>2021-07-17T06:55:04Z</time>
      </trkpt>
      <trkpt lat="43.4621470" lon="-3.8123240">
        <ele>31.2</ele>
        <time>2021-07-17T06:55:07Z</time>
      </trkpt>
      <trkpt lat="43.4621450" lon="-3.8123800">
        <ele>31.2</ele>
        <time>2021-07-17T06:55:10Z</time>
      </trkpt>
      <trkpt lat="43.4621080" lon="-3.8124430">
        <ele>31.2</ele>
        <time>2021-07-17T06:55:12Z</time>
      </trkpt>
      <trkpt lat="43.4620810" lon="-3.8124660">
        <ele>31.2</ele>
        <time>2021-07-17T06:55:13Z</time>
      </trkpt>
      <trkpt lat="43.4620700" lon="-3.8124830">
        <ele>31.2</ele>
        <time>2021-07-17T06:55:14Z</time>
      </trkpt>
      <trkpt lat="43.4619170" lon="-3.8125730">
        <ele>31.2</ele>
        <time>2021-07-17T06:55:17Z</time>
      </trkpt>
      <trkpt lat="43.4618740" lon="-3.8125980">
        <ele>31.2</ele>
        <time>2021-07-17T06:55:18Z</time>
      </trkpt>
      <trkpt lat="43.4618250" lon="-3.8126980">
        <ele>31.2</ele>
        <time>2021-07-17T06:55:21Z</time>
      </trkpt>
      <trkpt lat="43.4618610" lon="-3.8128850">
        <ele>31.2</ele>
        <time>2021-07-17T06:55:28Z</time>
      </trkpt>
      <trkpt lat="43.4618670" lon="-3.8129280">
        <ele>31.2</ele>
        <time>2021-07-17T06:55:30Z</time>
      </trkpt>
      <trkpt lat="43.4618370" lon="-3.8129920">
        <ele>31.2</ele>
        <time>2021-07-17T06:55:32Z</time>
      </trkpt>
      <trkpt lat="43.4618060" lon="-3.8131130">
        <ele>31.2</ele>
        <time>2021-07-17T06:55:35Z</time>
      </trkpt>
      <trkpt lat="43.4618020" lon="-3.8132600">
        <ele>31.2</ele>
        <time>2021-07-17T06:55:38Z</time>
      </trkpt>
      <trkpt lat="43.4617790" lon="-3.8134930">
        <ele>31.2</ele>
        <time>2021-07-17T06:55:43Z</time>
      </trkpt>
      <trkpt lat="43.4617890" lon="-3.8136580">
        <ele>31.2</ele>
        <time>2021-07-17T06:55:47Z</time>
      </trkpt>
      <trkpt lat="43.4617270" lon="-3.8138340">
        <ele>31.2</ele>
        <time>2021-07-17T06:55:51Z</time>
      </trkpt>
      <trkpt lat="43.4616890" lon="-3.8138380">
        <ele>31.2</ele>
        <time>2021-07-17T06:55:52Z</time>
      </trkpt>
      <trkpt lat="43.4617140" lon="-3.8139510">
        <ele>31.2</ele>
        <time>2021-07-17T06:55:55Z</time>
      </trkpt>
      <trkpt lat="43.4617280" lon="-3.8140370">
        <ele>31.2</ele>
        <time>2021-07-17T06:55:57Z</time>
      </trkpt>
      <trkpt lat="43.4617230" lon="-3.8142740">
        <ele>31.2</ele>
        <time>2021-07-17T06:56:03Z</time>
      </trkpt>
      <trkpt lat="43.4616660" lon="-3.8146010">
        <ele>31.2</ele>
        <time>2021-07-17T06:56:11Z</time>
      </trkpt>
      <trkpt lat="43.4616230" lon="-3.8148680">
        <ele>31.6</ele>
        <time>2021-07-17T06:56:17Z</time>
      </trkpt>
      <trkpt lat="43.4616180" lon="-3.8149120">
        <ele>32.0</ele>
        <time>2021-07-17T06:56:18Z</time>
      </trkpt>
      <trkpt lat="43.4616140" lon="-3.8149540">
        <ele>32.4</ele>
        <time>2021-07-17T06:56:19Z</time>
      </trkpt>
      <trkpt lat="43.4616090" lon="-3.8150060">
        <ele>33.2</ele>
        <time>2021-07-17T06:56:20Z</time>
      </trkpt>
      <trkpt lat="43.4615850" lon="-3.8152130">
        <ele>33.2</ele>
        <time>2021-07-17T06:56:25Z</time>
      </trkpt>
      <trkpt lat="43.4615840" lon="-3.8153260">
        <ele>33.2</ele>
        <time>2021-07-17T06:56:28Z</time>
      </trkpt>
      <trkpt lat="43.4615710" lon="-3.8154450">
        <ele>33.2</ele>
        <time>2021-07-17T06:56:31Z</time>
      </trkpt>
      <trkpt lat="43.4615460" lon="-3.8156600">
        <ele>33.2</ele>
        <time>2021-07-17T06:56:36Z</time>
      </trkpt>
      <trkpt lat="43.4613300" lon="-3.8160190">
        <ele>33.6</ele>
        <time>2021-07-17T06:56:44Z</time>
      </trkpt>
      <trkpt lat="43.4613140" lon="-3.8160630">
        <ele>34.0</ele>
        <time>2021-07-17T06:56:45Z</time>
      </trkpt>
      <trkpt lat="43.4612970" lon="-3.8160990">
        <ele>34.4</ele>
        <time>2021-07-17T06:56:46Z</time>
      </trkpt>
      <trkpt lat="43.4612750" lon="-3.8161490">
        <ele>34.8</ele>
        <time>2021-07-17T06:56:47Z</time>
      </trkpt>
      <trkpt lat="43.4612550" lon="-3.8161890">
        <ele>35.4</ele>
        <time>2021-07-17T06:56:48Z</time>
      </trkpt>
      <trkpt lat="43.4611830" lon="-3.8163100">
        <ele>35.4</ele>
        <time>2021-07-17T06:56:51Z</time>
      </trkpt>
      <trkpt lat="43.4611190" lon="-3.8165230">
        <ele>35.4</ele>
        <time>2021-07-17T06:56:57Z</time>
      </trkpt>
      <trkpt lat="43.4610430" lon="-3.8167430">
        <ele>35.4</ele>
        <time>2021-07-17T06:57:03Z</time>
      </trkpt>
      <trkpt lat="43.4609890" lon="-3.8169010">
        <ele>35.8</ele>
        <time>2021-07-17T06:57:07Z</time>
      </trkpt>
      <trkpt lat="43.4609730" lon="-3.8169450">
        <ele>36.2</ele>
        <time>2021-07-17T06:57:08Z</time>
      </trkpt>
      <trkpt lat="43.4609660" lon="-3.8169870">
        <ele>37.0</ele>
        <time>2021-07-17T06:57:09Z</time>
      </trkpt>
      <trkpt lat="43.4609600" lon="-3.8170180">
        <ele>37.4</ele>
        <time>2021-07-17T06:57:10Z</time>
      </trkpt>
      <trkpt lat="43.4609020" lon="-3.8171810">
        <ele>37.4</ele>
        <time>2021-07-17T06:57:15Z</time>
      </trkpt>
      <trkpt lat="43.4608600" lon="-3.8173620">
        <ele>37.4</ele>
        <time>2021-07-17T06:57:20Z</time>
      </trkpt>
      <trkpt lat="43.4608140" lon="-3.8175080">
        <ele>37.4</ele>
        <time>2021-07-17T06:57:25Z</time>
      </trkpt>
      <trkpt lat="43.4607700" lon="-3.8177370">
        <ele>37.4</ele>
        <time>2021-07-17T06:57:31Z</time>
      </trkpt>
      <trkpt lat="43.4606880" lon="-3.8179800">
        <ele>37.8</ele>
        <time>2021-07-17T06:57:37Z</time>
      </trkpt>
      <trkpt lat="43.4606790" lon="-3.8180170">
        <ele>38.2</ele>
        <time>2021-07-17T06:57:38Z</time>
      </trkpt>
      <trkpt lat="43.4606680" lon="-3.8180510">
        <ele>38.6</ele>
        <time>2021-07-17T06:57:39Z</time>
      </trkpt>
      <trkpt lat="43.4606550" lon="-3.8180860">
        <ele>39.0</ele>
        <time>2021-07-17T06:57:40Z</time>
      </trkpt>
      <trkpt lat="43.4606420" lon="-3.8181170">
        <ele>39.4</ele>
        <time>2021-07-17T06:57:41Z</time>
      </trkpt>
      <trkpt lat="43.4606240" lon="-3.8181880">
        <ele>39.4</ele>
        <time>2021-07-17T06:57:43Z</time>
      </trkpt>
      <trkpt lat="43.4605680" lon="-3.8184300">
        <ele>39.4</ele>
        <time>2021-07-17T06:57:49Z</time>
      </trkpt>
      <trkpt lat="43.4605090" lon="-3.8187440">
        <ele>39.4</ele>
        <time>2021-07-17T06:57:57Z</time>
      </trkpt>
      <trkpt lat="43.4604900" lon="-3.8188680">
        <ele>39.8</ele>
        <time>2021-07-17T06:58:00Z</time>
      </trkpt>
      <trkpt lat="43.4604800" lon="-3.8189090">
        <ele>40.2</ele>
        <time>2021-07-17T06:58:01Z</time>
      </trkpt>
      <trkpt lat="43.4604610" lon="-3.8189520">
        <ele>40.6</ele>
        <time>2021-07-17T06:58:02Z</time>
      </trkpt>
      <trkpt lat="43.4604320" lon="-3.8189970">
        <ele>41.0</ele>
        <time>2021-07-17T06:58:03Z</time>
      </trkpt>
      <trkpt lat="43.4604120" lon="-3.8190270">
        <ele>41.4</ele>
        <time>2021-07-17T06:58:04Z</time>
      </trkpt>
      <trkpt lat="43.4603650" lon="-3.8192060">
        <ele>41.4</ele>
        <time>2021-07-17T06:58:09Z</time>
      </trkpt>
      <trkpt lat="43.4603360" lon="-3.8193430">
        <ele>41.4</ele>
        <time>2021-07-17T06:58:13Z</time>
      </trkpt>
      <trkpt lat="43.4603250" lon="-3.8194180">
        <ele>41.4</ele>
        <time>2021-07-17T06:58:15Z</time>
      </trkpt>
      <trkpt lat="43.4602610" lon="-3.8196340">
        <ele>41.4</ele>
        <time>2021-07-17T06:58:21Z</time>
      </trkpt>
      <trkpt lat="43.4602310" lon="-3.8198450">
        <ele>41.4</ele>
        <time>2021-07-17T06:58:27Z</time>
      </trkpt>
      <trkpt lat="43.4602040" lon="-3.8199410">
        <ele>41.8</ele>
        <time>2021-07-17T06:58:30Z</time>
      </trkpt>
      <trkpt lat="43.4601900" lon="-3.8199850">
        <ele>42.2</ele>
        <time>2021-07-17T06:58:31Z</time>
      </trkpt>
      <trkpt lat="43.4601680" lon="-3.8200240">
        <ele>42.8</ele>
        <time>2021-07-17T06:58:32Z</time>
      </trkpt>
      <trkpt lat="43.4601520" lon="-3.8200720">
        <ele>43.2</ele>
        <time>2021-07-17T06:58:33Z</time>
      </trkpt>
      <trkpt lat="43.4601380" lon="-3.8201150">
        <ele>43.6</ele>
        <time>2021-07-17T06:58:34Z</time>
      </trkpt>
      <trkpt lat="43.4600630" lon="-3.8204350">
        <ele>43.6</ele>
        <time>2021-07-17T06:58:41Z</time>
      </trkpt>
      <trkpt lat="43.4600410" lon="-3.8204840">
        <ele>43.6</ele>
        <time>2021-07-17T06:58:42Z</time>
      </trkpt>
      <trkpt lat="43.4599850" lon="-3.8206860">
        <ele>43.6</ele>
        <time>2021-07-17T06:58:46Z</time>
      </trkpt>
      <trkpt lat="43.4599530" lon="-3.8207310">
        <ele>43.6</ele>
        <time>2021-07-17T06:58:48Z</time>
      </trkpt>
      <trkpt lat="43.4599130" lon="-3.8208240">
        <ele>43.6</ele>
        <time>2021-07-17T06:58:51Z</time>
      </trkpt>
      <trkpt lat="43.4598810" lon="-3.8210360">
        <ele>43.6</ele>
        <time>2021-07-17T06:58:56Z</time>
      </trkpt>
      <trkpt lat="43.4598500" lon="-3.8211720">
        <ele>43.6</ele>
        <time>2021-07-17T06:59:01Z</time>
      </trkpt>
      <trkpt lat="43.4598240" lon="-3.8212760">
        <ele>44.0</ele>
        <time>2021-07-17T06:59:04Z</time>
      </trkpt>
      <trkpt lat="43.4598200" lon="-3.8213050">
        <ele>44.4</ele>
        <time>2021-07-17T06:59:05Z</time>
      </trkpt>
      <trkpt lat="43.4598190" lon="-3.8213390">
        <ele>44.8</ele>
        <time>2021-07-17T06:59:06Z</time>
      </trkpt>
      <trkpt lat="43.4598160" lon="-3.8213720">
        <ele>45.2</ele>
        <time>2021-07-17T06:59:07Z</time>
      </trkpt>
      <trkpt lat="43.4598190" lon="-3.8214120">
        <ele>45.6</ele>
        <time>2021-07-17T06:59:08Z</time>
      </trkpt>
      <trkpt lat="43.4597780" lon="-3.8215760">
        <ele>45.6</ele>
        <time>2021-07-17T06:59:12Z</time>
      </trkpt>
      <trkpt lat="43.4596250" lon="-3.8218140">
        <ele>45.6</ele>
        <time>2021-07-17T06:59:18Z</time>
      </trkpt>
      <trkpt lat="43.4595720" lon="-3.8220290">
        <ele>45.6</ele>
        <time>2021-07-17T06:59:24Z</time>
      </trkpt>
      <trkpt lat="43.4595510" lon="-3.8222520">
        <ele>45.6</ele>
        <time>2021-07-17T06:59:30Z</time>
      </trkpt>
      <trkpt lat="43.4595420" lon="-3.8222830">
        <ele>46.0</ele>
        <time>2021-07-17T06:59:31Z</time>
      </trkpt>
      <trkpt lat="43.4595290" lon="-3.8223110">
        <ele>46.4</ele>
        <time>2021-07-17T06:59:32Z</time>
      </trkpt>
      <trkpt lat="43.4595200" lon="-3.8223400">
        <ele>46.8</ele>
        <time>2021-07-17T06:59:33Z</time>
      </trkpt>
      <trkpt lat="43.4595090" lon="-3.8223710">
        <ele>47.2</ele>
        <time>2021-07-17T06:59:34Z</time>
      </trkpt>
      <trkpt lat="43.4595000" lon="-3.8223940">
        <ele>47.6</ele>
        <time>2021-07-17T06:59:35Z</time>
      </trkpt>
      <trkpt lat="43.4594820" lon="-3.8224470">
        <ele>47.6</ele>
        <time>2021-07-17T06:59:37Z</time>
      </trkpt>
      <trkpt lat="43.4594270" lon="-3.8226020">
        <ele>47.6</ele>
        <time>2021-07-17T06:59:43Z</time>
      </trkpt>
      <trkpt lat="43.4593730" lon="-3.8227900">
        <ele>47.6</ele>
        <time>2021-07-17T06:59:50Z</time>
      </trkpt>
      <trkpt lat="43.4593670" lon="-3.8229380">
        <ele>48.0</ele>
        <time>2021-07-17T06:59:53Z</time>
      </trkpt>
      <trkpt lat="43.4593660" lon="-3.8229960">
        <ele>48.4</ele>
        <time>2021-07-17T06:59:54Z</time>
      </trkpt>
      <trkpt lat="43.4593480" lon="-3.8230460">
        <ele>48.8</ele>
        <time>2021-07-17T06:59:55Z</time>
      </trkpt>
      <trkpt lat="43.4593290" lon="-3.8230920">
        <ele>49.4</ele>
        <time>2021-07-17T06:59:56Z</time>
      </trkpt>
      <trkpt lat="43.4593170" lon="-3.8231390">
        <ele>49.8</ele>
        <time>2021-07-17T06:59:57Z</time>
      </trkpt>
      <trkpt lat="43.4592490" lon="-3.8233240">
        <ele>49.8</ele>
        <time>2021-07-17T07:00:00Z</time>
      </trkpt>
      <trkpt lat="43.4591990" lon="-3.8235300">
        <ele>49.8</ele>
        <time>2021-07-17T07:00:05Z</time>
      </trkpt>
      <trkpt lat="43.4591540" lon="-3.8236970">
        <ele>49.8</ele>
        <time>2021-07-17T07:00:10Z</time>
      </trkpt>
      <trkpt lat="43.4590930" lon="-3.8239210">
        <ele>49.8</ele>
        <time>2021-07-17T07:00:16Z</time>
      </trkpt>
      <trkpt lat="43.4590580" lon="-3.8240350">
        <ele>50.2</ele>
        <time>2021-07-17T07:00:19Z</time>
      </trkpt>
      <trkpt lat="43.4590410" lon="-3.8240770">
        <ele>50.6</ele>
        <time>2021-07-17T07:00:20Z</time>
      </trkpt>
      <trkpt lat="43.4590310" lon="-3.8241260">
        <ele>51.0</ele>
        <time>2021-07-17T07:00:21Z</time>
      </trkpt>
      <trkpt lat="43.4590230" lon="-3.8241860">
        <ele>51.4</ele>
        <time>2021-07-17T07:00:22Z</time>
      </trkpt>
      <trkpt lat="43.4590110" lon="-3.8242430">
        <ele>51.8</ele>
        <time>2021-07-17T07:00:23Z</time>
      </trkpt>
      <trkpt lat="43.4589470" lon="-3.8244270">
        <ele>51.8</ele>
        <time>2021-07-17T07:00:28Z</time>
      </trkpt>
      <trkpt lat="43.4589010" lon="-3.8246620">
        <ele>51.8</ele>
        <time>2021-07-17T07:00:34Z</time>
      </trkpt>
      <trkpt lat="43.4588580" lon="-3.8248620">
        <ele>52.2</ele>
        <time>2021-07-17T07:00:40Z</time>
      </trkpt>
      <trkpt lat="43.4588480" lon="-3.8248980">
        <ele>52.8</ele>
        <time>2021-07-17T07:00:41Z</time>
      </trkpt>
      <trkpt lat="43.4588360" lon="-3.8249440">
        <ele>53.2</ele>
        <time>2021-07-17T07:00:42Z</time>
      </trkpt>
      <trkpt lat="43.4588240" lon="-3.8249920">
        <ele>53.6</ele>
        <time>2021-07-17T07:00:43Z</time>
      </trkpt>
      <trkpt lat="43.4588100" lon="-3.8250340">
        <ele>54.0</ele>
        <time>2021-07-17T07:00:44Z</time>
      </trkpt>
      <trkpt lat="43.4587830" lon="-3.8251130">
        <ele>54.0</ele>
        <time>2021-07-17T07:00:46Z</time>
      </trkpt>
      <trkpt lat="43.4586970" lon="-3.8253180">
        <ele>54.0</ele>
        <time>2021-07-17T07:00:52Z</time>
      </trkpt>
      <trkpt lat="43.4586410" lon="-3.8255070">
        <ele>54.0</ele>
        <time>2021-07-17T07:00:58Z</time>
      </trkpt>
      <trkpt lat="43.4585510" lon="-3.8257320">
        <ele>54.0</ele>
        <time>2021-07-17T07:01:04Z</time>
      </trkpt>
      <trkpt lat="43.4585150" lon="-3.8257660">
        <ele>54.0</ele>
        <time>2021-07-17T07:01:07Z</time>
      </trkpt>
      <trkpt lat="43.4585050" lon="-3.8257740">
        <ele>54.0</ele>
        <time>2021-07-17T07:01:08Z</time>
      </trkpt>
      <trkpt lat="43.4584590" lon="-3.8258060">
        <ele>54.0</ele>
        <time>2021-07-17T07:01:37Z</time>
      </trkpt>
      <trkpt lat="43.4584360" lon="-3.8258210">
        <ele>54.0</ele>
        <time>2021-07-17T07:01:38Z</time>
      </trkpt>
      <trkpt lat="43.4583950" lon="-3.8258490">
        <ele>54.0</ele>
        <time>2021-07-17T07:01:40Z</time>
      </trkpt>
      <trkpt lat="43.4583580" lon="-3.8258610">
        <ele>54.4</ele>
        <time>2021-07-17T07:01:42Z</time>
      </trkpt>
      <trkpt lat="43.4583460" lon="-3.8258610">
        <ele>54.8</ele>
        <time>2021-07-17T07:01:43Z</time>
      </trkpt>
      <trkpt lat="43.4583380" lon="-3.8258620">
        <ele>55.2</ele>
        <time>2021-07-17T07:01:44Z</time>
      </trkpt>
      <trkpt lat="43.4583290" lon="-3.8258620">
        <ele>55.6</ele>
        <time>2021-07-17T07:01:45Z</time>
      </trkpt>
      <trkpt lat="43.4583300" lon="-3.8258630">
        <ele>56.0</ele>
        <time>2021-07-17T07:01:46Z</time>
      </trkpt>
      <trkpt lat="43.4583230" lon="-3.8258660">
        <ele>56.0</ele>
        <time>2021-07-17T07:01:47Z</time>
      </trkpt>
      <trkpt lat="43.4582960" lon="-3.8258860">
        <ele>56.0</ele>
        <time>2021-07-17T07:01:49Z</time>
      </trkpt>
      <trkpt lat="43.4582810" lon="-3.8259030">
        <ele>56.0</ele>
        <time>2021-07-17T07:01:50Z</time>
      </trkpt>
      <trkpt lat="43.4582710" lon="-3.8259420">
        <ele>56.0</ele>
        <time>2021-07-17T07:01:52Z</time>
      </trkpt>
      <trkpt lat="43.4582740" lon="-3.8260080">
        <ele>56.0</ele>
        <time>2021-07-17T07:01:55Z</time>
      </trkpt>
      <trkpt lat="43.4582720" lon="-3.8260690">
        <ele>56.0</ele>
        <time>2021-07-17T07:01:57Z</time>
      </trkpt>
      <trkpt lat="43.4582490" lon="-3.8261400">
        <ele>56.0</ele>
        <time>2021-07-17T07:02:00Z</time>
      </trkpt>
      <trkpt lat="43.4582110" lon="-3.8261770">
        <ele>56.0</ele>
        <time>2021-07-17T07:02:02Z</time>
      </trkpt>
      <trkpt lat="43.4581310" lon="-3.8262300">
        <ele>56.0</ele>
        <time>2021-07-17T07:02:07Z</time>
      </trkpt>
      <trkpt lat="43.4581280" lon="-3.8262460">
        <ele>56.0</ele>
        <time>2021-07-17T07:02:08Z</time>
      </trkpt>
      <trkpt lat="43.4581220" lon="-3.8262740">
        <ele>56.0</ele>
        <time>2021-07-17T07:02:09Z</time>
      </trkpt>
      <trkpt lat="43.4581180" lon="-3.8262910">
        <ele>56.0</ele>
        <time>2021-07-17T07:02:11Z</time>
      </trkpt>
      <trkpt lat="43.4581240" lon="-3.8263550">
        <ele>56.0</ele>
        <time>2021-07-17T07:02:44Z</time>
      </trkpt>
      <trkpt lat="43.4581280" lon="-3.8263760">
        <ele>56.0</ele>
        <time>2021-07-17T07:02:45Z</time>
      </trkpt>
      <trkpt lat="43.4581590" lon="-3.8264300">
        <ele>56.0</ele>
        <time>2021-07-17T07:02:48Z</time>
      </trkpt>
      <trkpt lat="43.4581750" lon="-3.8264300">
        <ele>56.0</ele>
        <time>2021-07-17T07:02:49Z</time>
      </trkpt>
      <trkpt lat="43.4582750" lon="-3.8264660">
        <ele>56.0</ele>
        <time>2021-07-17T07:02:54Z</time>
      </trkpt>
      <trkpt lat="43.4583150" lon="-3.8266170">
        <ele>56.0</ele>
        <time>2021-07-17T07:02:58Z</time>
      </trkpt>
      <trkpt lat="43.4583190" lon="-3.8267380">
        <ele>56.0</ele>
        <time>2021-07-17T07:03:02Z</time>
      </trkpt>
      <trkpt lat="43.4583150" lon="-3.8267710">
        <ele>56.0</ele>
        <time>2021-07-17T07:03:03Z</time>
      </trkpt>
      <trkpt lat="43.4582880" lon="-3.8269640">
        <ele>56.0</ele>
        <time>2021-07-17T07:03:08Z</time>
      </trkpt>
      <trkpt lat="43.4582720" lon="-3.8270030">
        <ele>56.0</ele>
        <time>2021-07-17T07:03:09Z</time>
      </trkpt>
      <trkpt lat="43.4582300" lon="-3.8271330">
        <ele>56.0</ele>
        <time>2021-07-17T07:03:12Z</time>
      </trkpt>
      <trkpt lat="43.4581540" lon="-3.8274160">
        <ele>56.0</ele>
        <time>2021-07-17T07:03:18Z</time>
      </trkpt>
      <trkpt lat="43.4581100" lon="-3.8275690">
        <ele>56.0</ele>
        <time>2021-07-17T07:03:21Z</time>
      </trkpt>
      <trkpt lat="43.4580860" lon="-3.8276710">
        <ele>55.6</ele>
        <time>2021-07-17T07:03:23Z</time>
      </trkpt>
      <trkpt lat="43.4580770" lon="-3.8277140">
        <ele>55.2</ele>
        <time>2021-07-17T07:03:24Z</time>
      </trkpt>
      <trkpt lat="43.4580700" lon="-3.8277640">
        <ele>54.8</ele>
        <time>2021-07-17T07:03:25Z</time>
      </trkpt>
      <trkpt lat="43.4580690" lon="-3.8278190">
        <ele>54.4</ele>
        <time>2021-07-17T07:03:26Z</time>
      </trkpt>
      <trkpt lat="43.4580720" lon="-3.8278670">
        <ele>54.0</ele>
        <time>2021-07-17T07:03:27Z</time>
      </trkpt>
      <trkpt lat="43.4580700" lon="-3.8280070">
        <ele>54.0</ele>
        <time>2021-07-17T07:03:30Z</time>
      </trkpt>
      <trkpt lat="43.4580680" lon="-3.8280940">
        <ele>53.6</ele>
        <time>2021-07-17T07:03:33Z</time>
      </trkpt>
      <trkpt lat="43.4580520" lon="-3.8281170">
        <ele>53.2</ele>
        <time>2021-07-17T07:03:34Z</time>
      </trkpt>
      <trkpt lat="43.4580320" lon="-3.8281470">
        <ele>52.8</ele>
        <time>2021-07-17T07:03:35Z</time>
      </trkpt>
      <trkpt lat="43.4580160" lon="-3.8281740">
        <ele>52.4</ele>
        <time>2021-07-17T07:03:36Z</time>
      </trkpt>
      <trkpt lat="43.4580060" lon="-3.8282140">
        <ele>52.0</ele>
        <time>2021-07-17T07:03:37Z</time>
      </trkpt>
      <trkpt lat="43.4579880" lon="-3.8283360">
        <ele>52.0</ele>
        <time>2021-07-17T07:03:40Z</time>
      </trkpt>
      <trkpt lat="43.4579580" lon="-3.8286590">
        <ele>52.0</ele>
        <time>2021-07-17T07:03:46Z</time>
      </trkpt>
      <trkpt lat="43.4579660" lon="-3.8289650">
        <ele>51.6</ele>
        <time>2021-07-17T07:03:52Z</time>
      </trkpt>
      <trkpt lat="43.4579690" lon="-3.8290040">
        <ele>51.0</ele>
        <time>2021-07-17T07:03:53Z</time>
      </trkpt>
      <trkpt lat="43.4579770" lon="-3.8290420">
        <ele>50.6</ele>
        <time>2021-07-17T07:03:54Z</time>
      </trkpt>
      <trkpt lat="43.4579800" lon="-3.8290750">
        <ele>50.2</ele>
        <time>2021-07-17T07:03:55Z</time>
      </trkpt>
      <trkpt lat="43.4579420" lon="-3.8290990">
        <ele>49.8</ele>
        <time>2021-07-17T07:03:56Z</time>
      </trkpt>
      <trkpt lat="43.4577690" lon="-3.8291850">
        <ele>49.8</ele>
        <time>2021-07-17T07:03:59Z</time>
      </trkpt>
      <trkpt lat="43.4576890" lon="-3.8293600">
        <ele>49.4</ele>
        <time>2021-07-17T07:04:05Z</time>
      </trkpt>
      <trkpt lat="43.4576690" lon="-3.8293800">
        <ele>49.0</ele>
        <time>2021-07-17T07:04:06Z</time>
      </trkpt>
      <trkpt lat="43.4576480" lon="-3.8293880">
        <ele>48.6</ele>
        <time>2021-07-17T07:04:07Z</time>
      </trkpt>
      <trkpt lat="43.4576430" lon="-3.8293950">
        <ele>48.2</ele>
        <time>2021-07-17T07:04:08Z</time>
      </trkpt>
      <trkpt lat="43.4576330" lon="-3.8293990">
        <ele>47.8</ele>
        <time>2021-07-17T07:04:09Z</time>
      </trkpt>
      <trkpt lat="43.4576310" lon="-3.8294080">
        <ele>47.8</ele>
        <time>2021-07-17T07:04:11Z</time>
      </trkpt>
      <trkpt lat="43.4576190" lon="-3.8294510">
        <ele>47.8</ele>
        <time>2021-07-17T07:04:19Z</time>
      </trkpt>
      <trkpt lat="43.4576090" lon="-3.8294860">
        <ele>47.8</ele>
        <time>2021-07-17T07:04:20Z</time>
      </trkpt>
      <trkpt lat="43.4575400" lon="-3.8296080">
        <ele>47.8</ele>
        <time>2021-07-17T07:04:25Z</time>
      </trkpt>
      <trkpt lat="43.4575270" lon="-3.8296410">
        <ele>47.8</ele>
        <time>2021-07-17T07:04:26Z</time>
      </trkpt>
      <trkpt lat="43.4574850" lon="-3.8297370">
        <ele>47.8</ele>
        <time>2021-07-17T07:04:29Z</time>
      </trkpt>
      <trkpt lat="43.4574240" lon="-3.8299000">
        <ele>47.8</ele>
        <time>2021-07-17T07:04:34Z</time>
      </trkpt>
      <trkpt lat="43.4574040" lon="-3.8299140">
        <ele>47.8</ele>
        <time>2021-07-17T07:04:35Z</time>
      </trkpt>
      <trkpt lat="43.4573600" lon="-3.8299670">
        <ele>47.8</ele>
        <time>2021-07-17T07:04:38Z</time>
      </trkpt>
      <trkpt lat="43.4573500" lon="-3.8300790">
        <ele>47.8</ele>
        <time>2021-07-17T07:04:41Z</time>
      </trkpt>
      <trkpt lat="43.4573470" lon="-3.8301550">
        <ele>47.8</ele>
        <time>2021-07-17T07:04:43Z</time>
      </trkpt>
      <trkpt lat="43.4572770" lon="-3.8303480">
        <ele>47.8</ele>
        <time>2021-07-17T07:04:49Z</time>
      </trkpt>
      <trkpt lat="43.4572130" lon="-3.8305200">
        <ele>47.8</ele>
        <time>2021-07-17T07:04:54Z</time>
      </trkpt>
      <trkpt lat="43.4571970" lon="-3.8305380">
        <ele>47.8</ele>
        <time>2021-07-17T07:04:55Z</time>
      </trkpt>
      <trkpt lat="43.4570880" lon="-3.8306440">
        <ele>47.8</ele>
        <time>2021-07-17T07:05:00Z</time>
      </trkpt>
      <trkpt lat="43.4570170" lon="-3.8307610">
        <ele>47.8</ele>
        <time>2021-07-17T07:05:04Z</time>
      </trkpt>
      <trkpt lat="43.4569980" lon="-3.8307910">
        <ele>47.8</ele>
        <time>2021-07-17T07:05:05Z</time>
      </trkpt>
      <trkpt lat="43.4569600" lon="-3.8308530">
        <ele>47.8</ele>
        <time>2021-07-17T07:05:07Z</time>
      </trkpt>
      <trkpt lat="43.4569160" lon="-3.8309640">
        <ele>47.8</ele>
        <time>2021-07-17T07:05:10Z</time>
      </trkpt>
      <trkpt lat="43.4568870" lon="-3.8310310">
        <ele>47.8</ele>
        <time>2021-07-17T07:05:12Z</time>
      </trkpt>
      <trkpt lat="43.4567480" lon="-3.8311930">
        <ele>47.8</ele>
        <time>2021-07-17T07:05:18Z</time>
      </trkpt>
      <trkpt lat="43.4565620" lon="-3.8314170">
        <ele>47.8</ele>
        <time>2021-07-17T07:05:26Z</time>
      </trkpt>
      <trkpt lat="43.4564940" lon="-3.8314980">
        <ele>47.8</ele>
        <time>2021-07-17T07:05:29Z</time>
      </trkpt>
      <trkpt lat="43.4564390" lon="-3.8315600">
        <ele>47.8</ele>
        <time>2021-07-17T07:05:32Z</time>
      </trkpt>
      <trkpt lat="43.4564130" lon="-3.8315850">
        <ele>47.8</ele>
        <time>2021-07-17T07:05:33Z</time>
      </trkpt>
      <trkpt lat="43.4562470" lon="-3.8317460">
        <ele>47.8</ele>
        <time>2021-07-17T07:05:39Z</time>
      </trkpt>
      <trkpt lat="43.4561680" lon="-3.8317800">
        <ele>47.8</ele>
        <time>2021-07-17T07:05:42Z</time>
      </trkpt>
      <trkpt lat="43.4560710" lon="-3.8318070">
        <ele>47.8</ele>
        <time>2021-07-17T07:05:45Z</time>
      </trkpt>
      <trkpt lat="43.4559890" lon="-3.8318200">
        <ele>47.8</ele>
        <time>2021-07-17T07:05:49Z</time>
      </trkpt>
      <trkpt lat="43.4559870" lon="-3.8318340">
        <ele>47.8</ele>
        <time>2021-07-17T07:05:50Z</time>
      </trkpt>
      <trkpt lat="43.4559910" lon="-3.8318320">
        <ele>47.8</ele>
        <time>2021-07-17T07:05:51Z</time>
      </trkpt>
      <trkpt lat="43.4559760" lon="-3.8318700">
        <ele>47.8</ele>
        <time>2021-07-17T07:05:54Z</time>
      </trkpt>
      <trkpt lat="43.4559630" lon="-3.8319000">
        <ele>47.8</ele>
        <time>2021-07-17T07:05:55Z</time>
      </trkpt>
      <trkpt lat="43.4559180" lon="-3.8319710">
        <ele>47.8</ele>
        <time>2021-07-17T07:05:58Z</time>
      </trkpt>
      <trkpt lat="43.4558520" lon="-3.8320720">
        <ele>47.8</ele>
        <time>2021-07-17T07:06:02Z</time>
      </trkpt>
      <trkpt lat="43.4558370" lon="-3.8320790">
        <ele>47.2</ele>
        <time>2021-07-17T07:06:03Z</time>
      </trkpt>
      <trkpt lat="43.4558230" lon="-3.8320760">
        <ele>46.8</ele>
        <time>2021-07-17T07:06:04Z</time>
      </trkpt>
      <trkpt lat="43.4558090" lon="-3.8320680">
        <ele>46.4</ele>
        <time>2021-07-17T07:06:05Z</time>
      </trkpt>
      <trkpt lat="43.4557920" lon="-3.8320490">
        <ele>46.0</ele>
        <time>2021-07-17T07:06:06Z</time>
      </trkpt>
      <trkpt lat="43.4557690" lon="-3.8320230">
        <ele>45.6</ele>
        <time>2021-07-17T07:06:07Z</time>
      </trkpt>
      <trkpt lat="43.4556940" lon="-3.8319500">
        <ele>45.6</ele>
        <time>2021-07-17T07:06:11Z</time>
      </trkpt>
      <trkpt lat="43.4556830" lon="-3.8319480">
        <ele>45.6</ele>
        <time>2021-07-17T07:06:12Z</time>
      </trkpt>
      <trkpt lat="43.4556740" lon="-3.8319540">
        <ele>45.6</ele>
        <time>2021-07-17T07:06:15Z</time>
      </trkpt>
      <trkpt lat="43.4556660" lon="-3.8319700">
        <ele>45.6</ele>
        <time>2021-07-17T07:06:19Z</time>
      </trkpt>
      <trkpt lat="43.4556590" lon="-3.8320240">
        <ele>45.6</ele>
        <time>2021-07-17T07:06:21Z</time>
      </trkpt>
      <trkpt lat="43.4556750" lon="-3.8320540">
        <ele>45.6</ele>
        <time>2021-07-17T07:06:23Z</time>
      </trkpt>
      <trkpt lat="43.4556980" lon="-3.8320750">
        <ele>45.6</ele>
        <time>2021-07-17T07:06:25Z</time>
      </trkpt>
      <trkpt lat="43.4557190" lon="-3.8321250">
        <ele>45.6</ele>
        <time>2021-07-17T07:06:28Z</time>
      </trkpt>
      <trkpt lat="43.4557250" lon="-3.8321480">
        <ele>45.6</ele>
        <time>2021-07-17T07:06:29Z</time>
      </trkpt>
      <trkpt lat="43.4557280" lon="-3.8322050">
        <ele>45.6</ele>
        <time>2021-07-17T07:06:31Z</time>
      </trkpt>
      <trkpt lat="43.4557150" lon="-3.8322740">
        <ele>45.6</ele>
        <time>2021-07-17T07:06:33Z</time>
      </trkpt>
      <trkpt lat="43.4556990" lon="-3.8323040">
        <ele>45.6</ele>
        <time>2021-07-17T07:06:34Z</time>
      </trkpt>
      <trkpt lat="43.4555590" lon="-3.8324220">
        <ele>45.6</ele>
        <time>2021-07-17T07:06:39Z</time>
      </trkpt>
      <trkpt lat="43.4555300" lon="-3.8324500">
        <ele>45.2</ele>
        <time>2021-07-17T07:06:40Z</time>
      </trkpt>
      <trkpt lat="43.4555090" lon="-3.8324690">
        <ele>44.8</ele>
        <time>2021-07-17T07:06:41Z</time>
      </trkpt>
      <trkpt lat="43.4554860" lon="-3.8324830">
        <ele>44.4</ele>
        <time>2021-07-17T07:06:42Z</time>
      </trkpt>
      <trkpt lat="43.4554630" lon="-3.8325030">
        <ele>44.0</ele>
        <time>2021-07-17T07:06:43Z</time>
      </trkpt>
      <trkpt lat="43.4554380" lon="-3.8325250">
        <ele>43.6</ele>
        <time>2021-07-17T07:06:44Z</time>
      </trkpt>
      <trkpt lat="43.4552680" lon="-3.8327030">
        <ele>43.2</ele>
        <time>2021-07-17T07:06:51Z</time>
      </trkpt>
      <trkpt lat="43.4552540" lon="-3.8327380">
        <ele>42.8</ele>
        <time>2021-07-17T07:06:52Z</time>
      </trkpt>
      <trkpt lat="43.4552400" lon="-3.8327770">
        <ele>42.4</ele>
        <time>2021-07-17T07:06:53Z</time>
      </trkpt>
      <trkpt lat="43.4552270" lon="-3.8328150">
        <ele>42.0</ele>
        <time>2021-07-17T07:06:54Z</time>
      </trkpt>
      <trkpt lat="43.4552060" lon="-3.8328580">
        <ele>41.6</ele>
        <time>2021-07-17T07:06:55Z</time>
      </trkpt>
      <trkpt lat="43.4551750" lon="-3.8329700">
        <ele>41.6</ele>
        <time>2021-07-17T07:06:58Z</time>
      </trkpt>
      <trkpt lat="43.4551380" lon="-3.8331120">
        <ele>41.0</ele>
        <time>2021-07-17T07:07:01Z</time>
      </trkpt>
      <trkpt lat="43.4551260" lon="-3.8331580">
        <ele>40.6</ele>
        <time>2021-07-17T07:07:02Z</time>
      </trkpt>
      <trkpt lat="43.4551130" lon="-3.8332010">
        <ele>40.2</ele>
        <time>2021-07-17T07:07:03Z</time>
      </trkpt>
      <trkpt lat="43.4551010" lon="-3.8332430">
        <ele>39.8</ele>
        <time>2021-07-17T07:07:04Z</time>
      </trkpt>
      <trkpt lat="43.4550890" lon="-3.8332820">
        <ele>39.2</ele>
        <time>2021-07-17T07:07:05Z</time>
      </trkpt>
      <trkpt lat="43.4549990" lon="-3.8335420">
        <ele>38.8</ele>
        <time>2021-07-17T07:07:11Z</time>
      </trkpt>
      <trkpt lat="43.4549880" lon="-3.8335840">
        <ele>38.4</ele>
        <time>2021-07-17T07:07:12Z</time>
      </trkpt>
      <trkpt lat="43.4549760" lon="-3.8336250">
        <ele>38.0</ele>
        <time>2021-07-17T07:07:13Z</time>
      </trkpt>
      <trkpt lat="43.4549660" lon="-3.8336620">
        <ele>37.6</ele>
        <time>2021-07-17T07:07:14Z</time>
      </trkpt>
      <trkpt lat="43.4549550" lon="-3.8336990">
        <ele>37.2</ele>
        <time>2021-07-17T07:07:15Z</time>
      </trkpt>
      <trkpt lat="43.4549160" lon="-3.8338350">
        <ele>37.2</ele>
        <time>2021-07-17T07:07:19Z</time>
      </trkpt>
      <trkpt lat="43.4548990" lon="-3.8338710">
        <ele>36.8</ele>
        <time>2021-07-17T07:07:20Z</time>
      </trkpt>
      <trkpt lat="43.4548830" lon="-3.8339110">
        <ele>36.2</ele>
        <time>2021-07-17T07:07:21Z</time>
      </trkpt>
      <trkpt lat="43.4548720" lon="-3.8339530">
        <ele>35.8</ele>
        <time>2021-07-17T07:07:22Z</time>
      </trkpt>
      <trkpt lat="43.4548600" lon="-3.8339990">
        <ele>35.4</ele>
        <time>2021-07-17T07:07:23Z</time>
      </trkpt>
      <trkpt lat="43.4548500" lon="-3.8340400">
        <ele>35.0</ele>
        <time>2021-07-17T07:07:24Z</time>
      </trkpt>
      <trkpt lat="43.4548100" lon="-3.8341960">
        <ele>35.0</ele>
        <time>2021-07-17T07:07:28Z</time>
      </trkpt>
      <trkpt lat="43.4547950" lon="-3.8342570">
        <ele>34.6</ele>
        <time>2021-07-17T07:07:30Z</time>
      </trkpt>
      <trkpt lat="43.4547860" lon="-3.8342890">
        <ele>34.2</ele>
        <time>2021-07-17T07:07:31Z</time>
      </trkpt>
      <trkpt lat="43.4547740" lon="-3.8343200">
        <ele>33.8</ele>
        <time>2021-07-17T07:07:32Z</time>
      </trkpt>
      <trkpt lat="43.4547590" lon="-3.8343480">
        <ele>33.2</ele>
        <time>2021-07-17T07:07:33Z</time>
      </trkpt>
      <trkpt lat="43.4547470" lon="-3.8343760">
        <ele>32.8</ele>
        <time>2021-07-17T07:07:34Z</time>
      </trkpt>
      <trkpt lat="43.4547430" lon="-3.8344040">
        <ele>32.8</ele>
        <time>2021-07-17T07:07:35Z</time>
      </trkpt>
      <trkpt lat="43.4547340" lon="-3.8344540">
        <ele>32.8</ele>
        <time>2021-07-17T07:07:37Z</time>
      </trkpt>
      <trkpt lat="43.4547190" lon="-3.8345150">
        <ele>32.8</ele>
        <time>2021-07-17T07:07:40Z</time>
      </trkpt>
      <trkpt lat="43.4547440" lon="-3.8345440">
        <ele>32.8</ele>
        <time>2021-07-17T07:08:06Z</time>
      </trkpt>
      <trkpt lat="43.4547650" lon="-3.8346420">
        <ele>32.8</ele>
        <time>2021-07-17T07:08:10Z</time>
      </trkpt>
      <trkpt lat="43.4547620" lon="-3.8346790">
        <ele>32.8</ele>
        <time>2021-07-17T07:08:11Z</time>
      </trkpt>
      <trkpt lat="43.4547250" lon="-3.8348240">
        <ele>32.4</ele>
        <time>2021-07-17T07:08:15Z</time>
      </trkpt>
      <trkpt lat="43.4547150" lon="-3.8348660">
        <ele>32.0</ele>
        <time>2021-07-17T07:08:16Z</time>
      </trkpt>
      <trkpt lat="43.4547060" lon="-3.8349060">
        <ele>31.6</ele>
        <time>2021-07-17T07:08:17Z</time>
      </trkpt>
      <trkpt lat="43.4546950" lon="-3.8349480">
        <ele>31.2</ele>
        <time>2021-07-17T07:08:18Z</time>
      </trkpt>
      <trkpt lat="43.4546850" lon="-3.8349850">
        <ele>30.8</ele>
        <time>2021-07-17T07:08:19Z</time>
      </trkpt>
      <trkpt lat="43.4546510" lon="-3.8351380">
        <ele>30.8</ele>
        <time>2021-07-17T07:08:23Z</time>
      </trkpt>
      <trkpt lat="43.4546390" lon="-3.8351790">
        <ele>30.8</ele>
        <time>2021-07-17T07:08:24Z</time>
      </trkpt>
      <trkpt lat="43.4545680" lon="-3.8354220">
        <ele>30.8</ele>
        <time>2021-07-17T07:08:30Z</time>
      </trkpt>
      <trkpt lat="43.4544930" lon="-3.8356480">
        <ele>30.8</ele>
        <time>2021-07-17T07:08:36Z</time>
      </trkpt>
      <trkpt lat="43.4544000" lon="-3.8359460">
        <ele>30.8</ele>
        <time>2021-07-17T07:08:42Z</time>
      </trkpt>
      <trkpt lat="43.4543850" lon="-3.8360020">
        <ele>30.8</ele>
        <time>2021-07-17T07:08:43Z</time>
      </trkpt>
      <trkpt lat="43.4543060" lon="-3.8363680">
        <ele>30.8</ele>
        <time>2021-07-17T07:08:50Z</time>
      </trkpt>
      <trkpt lat="43.4543040" lon="-3.8364220">
        <ele>30.4</ele>
        <time>2021-07-17T07:08:51Z</time>
      </trkpt>
      <trkpt lat="43.4543040" lon="-3.8364710">
        <ele>30.0</ele>
        <time>2021-07-17T07:08:52Z</time>
      </trkpt>
      <trkpt lat="43.4543050" lon="-3.8365120">
        <ele>29.6</ele>
        <time>2021-07-17T07:08:53Z</time>
      </trkpt>
      <trkpt lat="43.4543070" lon="-3.8365490">
        <ele>29.0</ele>
        <time>2021-07-17T07:08:54Z</time>
      </trkpt>
      <trkpt lat="43.4543060" lon="-3.8365890">
        <ele>28.6</ele>
        <time>2021-07-17T07:08:55Z</time>
      </trkpt>
      <trkpt lat="43.4542980" lon="-3.8366750">
        <ele>28.6</ele>
        <time>2021-07-17T07:08:57Z</time>
      </trkpt>
      <trkpt lat="43.4542830" lon="-3.8367650">
        <ele>28.6</ele>
        <time>2021-07-17T07:08:59Z</time>
      </trkpt>
      <trkpt lat="43.4542750" lon="-3.8368160">
        <ele>28.6</ele>
        <time>2021-07-17T07:09:00Z</time>
      </trkpt>
      <trkpt lat="43.4542630" lon="-3.8369210">
        <ele>28.6</ele>
        <time>2021-07-17T07:09:02Z</time>
      </trkpt>
      <trkpt lat="43.4542520" lon="-3.8370770">
        <ele>28.6</ele>
        <time>2021-07-17T07:09:05Z</time>
      </trkpt>
      <trkpt lat="43.4542460" lon="-3.8371750">
        <ele>28.6</ele>
        <time>2021-07-17T07:09:07Z</time>
      </trkpt>
      <trkpt lat="43.4542350" lon="-3.8373940">
        <ele>28.6</ele>
        <time>2021-07-17T07:09:12Z</time>
      </trkpt>
      <trkpt lat="43.4542360" lon="-3.8374760">
        <ele>28.6</ele>
        <time>2021-07-17T07:09:14Z</time>
      </trkpt>
      <trkpt lat="43.4542490" lon="-3.8376410">
        <ele>28.6</ele>
        <time>2021-07-17T07:09:18Z</time>
      </trkpt>
      <trkpt lat="43.4542600" lon="-3.8377110">
        <ele>28.6</ele>
        <time>2021-07-17T07:09:20Z</time>
      </trkpt>
      <trkpt lat="43.4542680" lon="-3.8380380">
        <ele>28.6</ele>
        <time>2021-07-17T07:09:27Z</time>
      </trkpt>
      <trkpt lat="43.4542730" lon="-3.8380880">
        <ele>29.0</ele>
        <time>2021-07-17T07:09:28Z</time>
      </trkpt>
      <trkpt lat="43.4542770" lon="-3.8381480">
        <ele>29.4</ele>
        <time>2021-07-17T07:09:29Z</time>
      </trkpt>
      <trkpt lat="43.4542760" lon="-3.8382080">
        <ele>30.2</ele>
        <time>2021-07-17T07:09:30Z</time>
      </trkpt>
      <trkpt lat="43.4542750" lon="-3.8382660">
        <ele>30.6</ele>
        <time>2021-07-17T07:09:31Z</time>
      </trkpt>
      <trkpt lat="43.4542680" lon="-3.8383720">
        <ele>30.6</ele>
        <time>2021-07-17T07:09:33Z</time>
      </trkpt>
      <trkpt lat="43.4542580" lon="-3.8385300">
        <ele>30.6</ele>
        <time>2021-07-17T07:09:37Z</time>
      </trkpt>
      <trkpt lat="43.4542630" lon="-3.8386090">
        <ele>30.6</ele>
        <time>2021-07-17T07:09:39Z</time>
      </trkpt>
      <trkpt lat="43.4542980" lon="-3.8388990">
        <ele>30.6</ele>
        <time>2021-07-17T07:09:45Z</time>
      </trkpt>
      <trkpt lat="43.4543440" lon="-3.8390650">
        <ele>30.6</ele>
        <time>2021-07-17T07:09:48Z</time>
      </trkpt>
      <trkpt lat="43.4543780" lon="-3.8391770">
        <ele>30.6</ele>
        <time>2021-07-17T07:09:50Z</time>
      </trkpt>
      <trkpt lat="43.4544060" lon="-3.8392930">
        <ele>30.6</ele>
        <time>2021-07-17T07:09:52Z</time>
      </trkpt>
      <trkpt lat="43.4544530" lon="-3.8394840">
        <ele>30.6</ele>
        <time>2021-07-17T07:09:55Z</time>
      </trkpt>
      <trkpt lat="43.4544870" lon="-3.8396260">
        <ele>30.2</ele>
        <time>2021-07-17T07:09:57Z</time>
      </trkpt>
      <trkpt lat="43.4545030" lon="-3.8396950">
        <ele>29.8</ele>
        <time>2021-07-17T07:09:58Z</time>
      </trkpt>
      <trkpt lat="43.4545200" lon="-3.8397620">
        <ele>29.4</ele>
        <time>2021-07-17T07:09:59Z</time>
      </trkpt>
      <trkpt lat="43.4545370" lon="-3.8398290">
        <ele>29.0</ele>
        <time>2021-07-17T07:10:00Z</time>
      </trkpt>
      <trkpt lat="43.4545530" lon="-3.8398950">
        <ele>28.6</ele>
        <time>2021-07-17T07:10:01Z</time>
      </trkpt>
      <trkpt lat="43.4546020" lon="-3.8400890">
        <ele>28.6</ele>
        <time>2021-07-17T07:10:04Z</time>
      </trkpt>
      <trkpt lat="43.4546310" lon="-3.8401920">
        <ele>28.6</ele>
        <time>2021-07-17T07:10:06Z</time>
      </trkpt>
      <trkpt lat="43.4546720" lon="-3.8404030">
        <ele>28.2</ele>
        <time>2021-07-17T07:10:11Z</time>
      </trkpt>
      <trkpt lat="43.4546820" lon="-3.8404470">
        <ele>27.8</ele>
        <time>2021-07-17T07:10:12Z</time>
      </trkpt>
      <trkpt lat="43.4546940" lon="-3.8404950">
        <ele>27.4</ele>
        <time>2021-07-17T07:10:13Z</time>
      </trkpt>
      <trkpt lat="43.4547050" lon="-3.8405410">
        <ele>27.0</ele>
        <time>2021-07-17T07:10:14Z</time>
      </trkpt>
      <trkpt lat="43.4547190" lon="-3.8405860">
        <ele>26.6</ele>
        <time>2021-07-17T07:10:15Z</time>
      </trkpt>
      <trkpt lat="43.4547490" lon="-3.8406730">
        <ele>26.6</ele>
        <time>2021-07-17T07:10:17Z</time>
      </trkpt>
      <trkpt lat="43.4547690" lon="-3.8407670">
        <ele>26.6</ele>
        <time>2021-07-17T07:10:19Z</time>
      </trkpt>
      <trkpt lat="43.4547820" lon="-3.8409120">
        <ele>26.6</ele>
        <time>2021-07-17T07:10:22Z</time>
      </trkpt>
      <trkpt lat="43.4547860" lon="-3.8409560">
        <ele>26.6</ele>
        <time>2021-07-17T07:10:23Z</time>
      </trkpt>
      <trkpt lat="43.4548000" lon="-3.8410980">
        <ele>26.6</ele>
        <time>2021-07-17T07:10:26Z</time>
      </trkpt>
      <trkpt lat="43.4548130" lon="-3.8411910">
        <ele>26.6</ele>
        <time>2021-07-17T07:10:28Z</time>
      </trkpt>
      <trkpt lat="43.4548460" lon="-3.8413220">
        <ele>26.6</ele>
        <time>2021-07-17T07:10:31Z</time>
      </trkpt>
      <trkpt lat="43.4548990" lon="-3.8414920">
        <ele>26.6</ele>
        <time>2021-07-17T07:10:35Z</time>
      </trkpt>
      <trkpt lat="43.4548900" lon="-3.8416340">
        <ele>26.6</ele>
        <time>2021-07-17T07:10:38Z</time>
      </trkpt>
      <trkpt lat="43.4548810" lon="-3.8416810">
        <ele>27.0</ele>
        <time>2021-07-17T07:10:39Z</time>
      </trkpt>
      <trkpt lat="43.4548740" lon="-3.8417220">
        <ele>27.4</ele>
        <time>2021-07-17T07:10:40Z</time>
      </trkpt>
      <trkpt lat="43.4548720" lon="-3.8417610">
        <ele>27.8</ele>
        <time>2021-07-17T07:10:41Z</time>
      </trkpt>
      <trkpt lat="43.4548550" lon="-3.8418010">
        <ele>28.2</ele>
        <time>2021-07-17T07:10:42Z</time>
      </trkpt>
      <trkpt lat="43.4548410" lon="-3.8418440">
        <ele>28.6</ele>
        <time>2021-07-17T07:10:43Z</time>
      </trkpt>
      <trkpt lat="43.4548280" lon="-3.8418880">
        <ele>28.6</ele>
        <time>2021-07-17T07:10:44Z</time>
      </trkpt>
      <trkpt lat="43.4547310" lon="-3.8422340">
        <ele>28.6</ele>
        <time>2021-07-17T07:10:51Z</time>
      </trkpt>
      <trkpt lat="43.4546610" lon="-3.8424740">
        <ele>28.6</ele>
        <time>2021-07-17T07:10:56Z</time>
      </trkpt>
      <trkpt lat="43.4545850" lon="-3.8427810">
        <ele>28.6</ele>
        <time>2021-07-17T07:11:03Z</time>
      </trkpt>
      <trkpt lat="43.4545120" lon="-3.8431680">
        <ele>28.6</ele>
        <time>2021-07-17T07:11:11Z</time>
      </trkpt>
      <trkpt lat="43.4544130" lon="-3.8436220">
        <ele>28.6</ele>
        <time>2021-07-17T07:11:20Z</time>
      </trkpt>
      <trkpt lat="43.4543260" lon="-3.8440560">
        <ele>28.6</ele>
        <time>2021-07-17T07:11:29Z</time>
      </trkpt>
      <trkpt lat="43.4542580" lon="-3.8443150">
        <ele>28.6</ele>
        <time>2021-07-17T07:11:35Z</time>
      </trkpt>
      <trkpt lat="43.4542160" lon="-3.8445440">
        <ele>28.6</ele>
        <time>2021-07-17T07:11:40Z</time>
      </trkpt>
      <trkpt lat="43.4541890" lon="-3.8446860">
        <ele>28.6</ele>
        <time>2021-07-17T07:11:43Z</time>
      </trkpt>
      <trkpt lat="43.4541260" lon="-3.8450180">
        <ele>28.6</ele>
        <time>2021-07-17T07:11:50Z</time>
      </trkpt>
      <trkpt lat="43.4540960" lon="-3.8451590">
        <ele>29.0</ele>
        <time>2021-07-17T07:11:53Z</time>
      </trkpt>
      <trkpt lat="43.4540870" lon="-3.8452020">
        <ele>29.4</ele>
        <time>2021-07-17T07:11:54Z</time>
      </trkpt>
      <trkpt lat="43.4540810" lon="-3.8452460">
        <ele>29.8</ele>
        <time>2021-07-17T07:11:55Z</time>
      </trkpt>
      <trkpt lat="43.4540750" lon="-3.8452910">
        <ele>30.4</ele>
        <time>2021-07-17T07:11:56Z</time>
      </trkpt>
      <trkpt lat="43.4540680" lon="-3.8453360">
        <ele>30.8</ele>
        <time>2021-07-17T07:11:57Z</time>
      </trkpt>
      <trkpt lat="43.4540440" lon="-3.8454730">
        <ele>30.8</ele>
        <time>2021-07-17T07:12:00Z</time>
      </trkpt>
      <trkpt lat="43.4540000" lon="-3.8457880">
        <ele>30.8</ele>
        <time>2021-07-17T07:12:07Z</time>
      </trkpt>
      <trkpt lat="43.4539600" lon="-3.8460080">
        <ele>30.8</ele>
        <time>2021-07-17T07:12:13Z</time>
      </trkpt>
      <trkpt lat="43.4539400" lon="-3.8461390">
        <ele>30.8</ele>
        <time>2021-07-17T07:12:17Z</time>
      </trkpt>
      <trkpt lat="43.4539310" lon="-3.8462350">
        <ele>30.8</ele>
        <time>2021-07-17T07:12:20Z</time>
      </trkpt>
      <trkpt lat="43.4538710" lon="-3.8465220">
        <ele>30.8</ele>
        <time>2021-07-17T07:12:28Z</time>
      </trkpt>
      <trkpt lat="43.4538780" lon="-3.8465610">
        <ele>30.8</ele>
        <time>2021-07-17T07:12:30Z</time>
      </trkpt>
      <trkpt lat="43.4539120" lon="-3.8465940">
        <ele>30.8</ele>
        <time>2021-07-17T07:12:32Z</time>
      </trkpt>
      <trkpt lat="43.4539410" lon="-3.8466310">
        <ele>31.2</ele>
        <time>2021-07-17T07:12:34Z</time>
      </trkpt>
      <trkpt lat="43.4539550" lon="-3.8466470">
        <ele>31.6</ele>
        <time>2021-07-17T07:12:35Z</time>
      </trkpt>
      <trkpt lat="43.4539700" lon="-3.8466630">
        <ele>32.0</ele>
        <time>2021-07-17T07:12:36Z</time>
      </trkpt>
      <trkpt lat="43.4539880" lon="-3.8466830">
        <ele>32.4</ele>
        <time>2021-07-17T07:12:37Z</time>
      </trkpt>
      <trkpt lat="43.4540040" lon="-3.8467030">
        <ele>32.8</ele>
        <time>2021-07-17T07:12:38Z</time>
      </trkpt>
      <trkpt lat="43.4540230" lon="-3.8467210">
        <ele>32.8</ele>
        <time>2021-07-17T07:12:39Z</time>
      </trkpt>
      <trkpt lat="43.4541030" lon="-3.8468010">
        <ele>32.8</ele>
        <time>2021-07-17T07:12:43Z</time>
      </trkpt>
      <trkpt lat="43.4541700" lon="-3.8469030">
        <ele>33.2</ele>
        <time>2021-07-17T07:12:47Z</time>
      </trkpt>
      <trkpt lat="43.4541890" lon="-3.8469260">
        <ele>33.6</ele>
        <time>2021-07-17T07:12:48Z</time>
      </trkpt>
      <trkpt lat="43.4542090" lon="-3.8469520">
        <ele>34.0</ele>
        <time>2021-07-17T07:12:49Z</time>
      </trkpt>
      <trkpt lat="43.4542300" lon="-3.8469760">
        <ele>34.4</ele>
        <time>2021-07-17T07:12:50Z</time>
      </trkpt>
      <trkpt lat="43.4542500" lon="-3.8469990">
        <ele>34.8</ele>
        <time>2021-07-17T07:12:51Z</time>
      </trkpt>
      <trkpt lat="43.4543500" lon="-3.8471170">
        <ele>34.8</ele>
        <time>2021-07-17T07:12:56Z</time>
      </trkpt>
      <trkpt lat="43.4544440" lon="-3.8472330">
        <ele>35.2</ele>
        <time>2021-07-17T07:13:01Z</time>
      </trkpt>
      <trkpt lat="43.4544660" lon="-3.8472540">
        <ele>35.6</ele>
        <time>2021-07-17T07:13:02Z</time>
      </trkpt>
      <trkpt lat="43.4544870" lon="-3.8472730">
        <ele>36.0</ele>
        <time>2021-07-17T07:13:03Z</time>
      </trkpt>
      <trkpt lat="43.4545080" lon="-3.8472920">
        <ele>36.4</ele>
        <time>2021-07-17T07:13:04Z</time>
      </trkpt>
      <trkpt lat="43.4545260" lon="-3.8473140">
        <ele>37.0</ele>
        <time>2021-07-17T07:13:05Z</time>
      </trkpt>
      <trkpt lat="43.4546130" lon="-3.8474220">
        <ele>37.0</ele>
        <time>2021-07-17T07:13:10Z</time>
      </trkpt>
      <trkpt lat="43.4546280" lon="-3.8474440">
        <ele>37.4</ele>
        <time>2021-07-17T07:13:11Z</time>
      </trkpt>
      <trkpt lat="43.4546440" lon="-3.8474650">
        <ele>37.8</ele>
        <time>2021-07-17T07:13:12Z</time>
      </trkpt>
      <trkpt lat="43.4546600" lon="-3.8474890">
        <ele>38.2</ele>
        <time>2021-07-17T07:13:13Z</time>
      </trkpt>
      <trkpt lat="43.4546770" lon="-3.8475160">
        <ele>38.6</ele>
        <time>2021-07-17T07:13:14Z</time>
      </trkpt>
      <trkpt lat="43.4546910" lon="-3.8475390">
        <ele>39.0</ele>
        <time>2021-07-17T07:13:15Z</time>
      </trkpt>
      <trkpt lat="43.4547100" lon="-3.8476000">
        <ele>39.0</ele>
        <time>2021-07-17T07:13:17Z</time>
      </trkpt>
      <trkpt lat="43.4547000" lon="-3.8477580">
        <ele>39.0</ele>
        <time>2021-07-17T07:13:23Z</time>
      </trkpt>
      <trkpt lat="43.4546710" lon="-3.8477780">
        <ele>39.0</ele>
        <time>2021-07-17T07:13:24Z</time>
      </trkpt>
      <trkpt lat="43.4545990" lon="-3.8477950">
        <ele>39.0</ele>
        <time>2021-07-17T07:13:26Z</time>
      </trkpt>
      <trkpt lat="43.4544590" lon="-3.8477070">
        <ele>39.0</ele>
        <time>2021-07-17T07:13:30Z</time>
      </trkpt>
      <trkpt lat="43.4544270" lon="-3.8476720">
        <ele>39.0</ele>
        <time>2021-07-17T07:13:31Z</time>
      </trkpt>
      <trkpt lat="43.4543310" lon="-3.8475680">
        <ele>39.0</ele>
        <time>2021-07-17T07:13:34Z</time>
      </trkpt>
      <trkpt lat="43.4542730" lon="-3.8474970">
        <ele>39.0</ele>
        <time>2021-07-17T07:13:36Z</time>
      </trkpt>
      <trkpt lat="43.4542110" lon="-3.8474520">
        <ele>39.0</ele>
        <time>2021-07-17T07:13:38Z</time>
      </trkpt>
      <trkpt lat="43.4541460" lon="-3.8474180">
        <ele>39.0</ele>
        <time>2021-07-17T07:13:40Z</time>
      </trkpt>
      <trkpt lat="43.4540900" lon="-3.8473820">
        <ele>38.4</ele>
        <time>2021-07-17T07:13:42Z</time>
      </trkpt>
      <trkpt lat="43.4540670" lon="-3.8473660">
        <ele>38.0</ele>
        <time>2021-07-17T07:13:43Z</time>
      </trkpt>
      <trkpt lat="43.4540500" lon="-3.8473480">
        <ele>37.6</ele>
        <time>2021-07-17T07:13:44Z</time>
      </trkpt>
      <trkpt lat="43.4540330" lon="-3.8473270">
        <ele>37.0</ele>
        <time>2021-07-17T07:13:45Z</time>
      </trkpt>
      <trkpt lat="43.4540210" lon="-3.8473070">
        <ele>36.6</ele>
        <time>2021-07-17T07:13:46Z</time>
      </trkpt>
      <trkpt lat="43.4539850" lon="-3.8471940">
        <ele>36.6</ele>
        <time>2021-07-17T07:13:50Z</time>
      </trkpt>
      <trkpt lat="43.4539510" lon="-3.8471410">
        <ele>36.6</ele>
        <time>2021-07-17T07:13:52Z</time>
      </trkpt>
      <trkpt lat="43.4538920" lon="-3.8471400">
        <ele>36.6</ele>
        <time>2021-07-17T07:13:54Z</time>
      </trkpt>
      <trkpt lat="43.4538640" lon="-3.8471500">
        <ele>36.2</ele>
        <time>2021-07-17T07:13:55Z</time>
      </trkpt>
      <trkpt lat="43.4538320" lon="-3.8471670">
        <ele>35.8</ele>
        <time>2021-07-17T07:13:56Z</time>
      </trkpt>
      <trkpt lat="43.4538060" lon="-3.8471940">
        <ele>35.4</ele>
        <time>2021-07-17T07:13:57Z</time>
      </trkpt>
      <trkpt lat="43.4537850" lon="-3.8472300">
        <ele>35.0</ele>
        <time>2021-07-17T07:13:58Z</time>
      </trkpt>
      <trkpt lat="43.4537700" lon="-3.8472630">
        <ele>34.6</ele>
        <time>2021-07-17T07:13:59Z</time>
      </trkpt>
      <trkpt lat="43.4537590" lon="-3.8473440">
        <ele>34.6</ele>
        <time>2021-07-17T07:14:02Z</time>
      </trkpt>
      <trkpt lat="43.4537320" lon="-3.8474760">
        <ele>34.6</ele>
        <time>2021-07-17T07:14:06Z</time>
      </trkpt>
      <trkpt lat="43.4537220" lon="-3.8475200">
        <ele>34.6</ele>
        <time>2021-07-17T07:14:07Z</time>
      </trkpt>
      <trkpt lat="43.4537120" lon="-3.8475610">
        <ele>34.6</ele>
        <time>2021-07-17T07:14:08Z</time>
      </trkpt>
      <trkpt lat="43.4537040" lon="-3.8475990">
        <ele>34.6</ele>
        <time>2021-07-17T07:14:09Z</time>
      </trkpt>
      <trkpt lat="43.4536630" lon="-3.8478690">
        <ele>34.6</ele>
        <time>2021-07-17T07:14:15Z</time>
      </trkpt>
      <trkpt lat="43.4536120" lon="-3.8481340">
        <ele>34.6</ele>
        <time>2021-07-17T07:14:21Z</time>
      </trkpt>
      <trkpt lat="43.4535740" lon="-3.8483260">
        <ele>34.6</ele>
        <time>2021-07-17T07:14:27Z</time>
      </trkpt>
      <trkpt lat="43.4535700" lon="-3.8483310">
        <ele>34.6</ele>
        <time>2021-07-17T07:14:28Z</time>
      </trkpt>
      <trkpt lat="43.4535720" lon="-3.8483550">
        <ele>34.6</ele>
        <time>2021-07-17T07:14:34Z</time>
      </trkpt>
      <trkpt lat="43.4535600" lon="-3.8483990">
        <ele>34.6</ele>
        <time>2021-07-17T07:14:36Z</time>
      </trkpt>
      <trkpt lat="43.4535320" lon="-3.8485380">
        <ele>34.6</ele>
        <time>2021-07-17T07:14:40Z</time>
      </trkpt>
      <trkpt lat="43.4535140" lon="-3.8486190">
        <ele>34.6</ele>
        <time>2021-07-17T07:14:42Z</time>
      </trkpt>
      <trkpt lat="43.4534330" lon="-3.8490110">
        <ele>34.6</ele>
        <time>2021-07-17T07:14:51Z</time>
      </trkpt>
      <trkpt lat="43.4533980" lon="-3.8492420">
        <ele>34.6</ele>
        <time>2021-07-17T07:14:57Z</time>
      </trkpt>
      <trkpt lat="43.4533880" lon="-3.8492780">
        <ele>34.6</ele>
        <time>2021-07-17T07:14:58Z</time>
      </trkpt>
      <trkpt lat="43.4533650" lon="-3.8493820">
        <ele>34.6</ele>
        <time>2021-07-17T07:15:01Z</time>
      </trkpt>
      <trkpt lat="43.4533470" lon="-3.8494820">
        <ele>34.6</ele>
        <time>2021-07-17T07:15:04Z</time>
      </trkpt>
      <trkpt lat="43.4533290" lon="-3.8495790">
        <ele>34.6</ele>
        <time>2021-07-17T07:15:07Z</time>
      </trkpt>
      <trkpt lat="43.4533240" lon="-3.8496110">
        <ele>35.0</ele>
        <time>2021-07-17T07:15:08Z</time>
      </trkpt>
      <trkpt lat="43.4533200" lon="-3.8496420">
        <ele>35.4</ele>
        <time>2021-07-17T07:15:09Z</time>
      </trkpt>
      <trkpt lat="43.4533170" lon="-3.8496770">
        <ele>35.8</ele>
        <time>2021-07-17T07:15:10Z</time>
      </trkpt>
      <trkpt lat="43.4533150" lon="-3.8497090">
        <ele>36.2</ele>
        <time>2021-07-17T07:15:11Z</time>
      </trkpt>
      <trkpt lat="43.4533140" lon="-3.8497390">
        <ele>36.6</ele>
        <time>2021-07-17T07:15:12Z</time>
      </trkpt>
      <trkpt lat="43.4533000" lon="-3.8497900">
        <ele>36.6</ele>
        <time>2021-07-17T07:15:14Z</time>
      </trkpt>
      <trkpt lat="43.4532880" lon="-3.8498680">
        <ele>37.2</ele>
        <time>2021-07-17T07:15:17Z</time>
      </trkpt>
      <trkpt lat="43.4532850" lon="-3.8498970">
        <ele>37.6</ele>
        <time>2021-07-17T07:15:18Z</time>
      </trkpt>
      <trkpt lat="43.4532770" lon="-3.8499270">
        <ele>38.0</ele>
        <time>2021-07-17T07:15:19Z</time>
      </trkpt>
      <trkpt lat="43.4532680" lon="-3.8499550">
        <ele>38.4</ele>
        <time>2021-07-17T07:15:20Z</time>
      </trkpt>
      <trkpt lat="43.4532610" lon="-3.8499850">
        <ele>38.8</ele>
        <time>2021-07-17T07:15:21Z</time>
      </trkpt>
      <trkpt lat="43.4532410" lon="-3.8500940">
        <ele>38.8</ele>
        <time>2021-07-17T07:15:25Z</time>
      </trkpt>
      <trkpt lat="43.4532330" lon="-3.8501770">
        <ele>39.2</ele>
        <time>2021-07-17T07:15:28Z</time>
      </trkpt>
      <trkpt lat="43.4532310" lon="-3.8502040">
        <ele>39.6</ele>
        <time>2021-07-17T07:15:29Z</time>
      </trkpt>
      <trkpt lat="43.4532290" lon="-3.8502340">
        <ele>40.0</ele>
        <time>2021-07-17T07:15:30Z</time>
      </trkpt>
      <trkpt lat="43.4532240" lon="-3.8502630">
        <ele>40.4</ele>
        <time>2021-07-17T07:15:31Z</time>
      </trkpt>
      <trkpt lat="43.4532200" lon="-3.8502940">
        <ele>41.0</ele>
        <time>2021-07-17T07:15:32Z</time>
      </trkpt>
      <trkpt lat="43.4532010" lon="-3.8504120">
        <ele>41.0</ele>
        <time>2021-07-17T07:15:36Z</time>
      </trkpt>
      <trkpt lat="43.4531920" lon="-3.8504690">
        <ele>41.4</ele>
        <time>2021-07-17T07:15:38Z</time>
      </trkpt>
      <trkpt lat="43.4531870" lon="-3.8504990">
        <ele>42.2</ele>
        <time>2021-07-17T07:15:39Z</time>
      </trkpt>
      <trkpt lat="43.4531830" lon="-3.8505300">
        <ele>42.6</ele>
        <time>2021-07-17T07:15:40Z</time>
      </trkpt>
      <trkpt lat="43.4531780" lon="-3.8505560">
        <ele>43.0</ele>
        <time>2021-07-17T07:15:41Z</time>
      </trkpt>
      <trkpt lat="43.4531580" lon="-3.8506680">
        <ele>43.4</ele>
        <time>2021-07-17T07:15:45Z</time>
      </trkpt>
      <trkpt lat="43.4531540" lon="-3.8506970">
        <ele>43.8</ele>
        <time>2021-07-17T07:15:46Z</time>
      </trkpt>
      <trkpt lat="43.4531510" lon="-3.8507260">
        <ele>44.2</ele>
        <time>2021-07-17T07:15:47Z</time>
      </trkpt>
      <trkpt lat="43.4531470" lon="-3.8507550">
        <ele>44.6</ele>
        <time>2021-07-17T07:15:48Z</time>
      </trkpt>
      <trkpt lat="43.4531410" lon="-3.8507850">
        <ele>45.0</ele>
        <time>2021-07-17T07:15:49Z</time>
      </trkpt>
      <trkpt lat="43.4531310" lon="-3.8508980">
        <ele>45.4</ele>
        <time>2021-07-17T07:15:53Z</time>
      </trkpt>
      <trkpt lat="43.4531260" lon="-3.8509270">
        <ele>45.8</ele>
        <time>2021-07-17T07:15:54Z</time>
      </trkpt>
      <trkpt lat="43.4531200" lon="-3.8509550">
        <ele>46.4</ele>
        <time>2021-07-17T07:15:55Z</time>
      </trkpt>
      <trkpt lat="43.4531170" lon="-3.8509830">
        <ele>46.8</ele>
        <time>2021-07-17T07:15:56Z</time>
      </trkpt>
      <trkpt lat="43.4531120" lon="-3.8510080">
        <ele>47.2</ele>
        <time>2021-07-17T07:15:57Z</time>
      </trkpt>
      <trkpt lat="43.4530960" lon="-3.8511590">
        <ele>47.6</ele>
        <time>2021-07-17T07:16:02Z</time>
      </trkpt>
      <trkpt lat="43.4530930" lon="-3.8511870">
        <ele>48.0</ele>
        <time>2021-07-17T07:16:03Z</time>
      </trkpt>
      <trkpt lat="43.4530890" lon="-3.8512150">
        <ele>48.8</ele>
        <time>2021-07-17T07:16:04Z</time>
      </trkpt>
      <trkpt lat="43.4530860" lon="-3.8512430">
        <ele>49.2</ele>
        <time>2021-07-17T07:16:05Z</time>
      </trkpt>
      <trkpt lat="43.4530670" lon="-3.8514060">
        <ele>49.2</ele>
        <time>2021-07-17T07:16:11Z</time>
      </trkpt>
      <trkpt lat="43.4530560" lon="-3.8514620">
        <ele>49.6</ele>
        <time>2021-07-17T07:16:13Z</time>
      </trkpt>
      <trkpt lat="43.4530530" lon="-3.8514910">
        <ele>50.0</ele>
        <time>2021-07-17T07:16:14Z</time>
      </trkpt>
      <trkpt lat="43.4530520" lon="-3.8515210">
        <ele>50.4</ele>
        <time>2021-07-17T07:16:15Z</time>
      </trkpt>
      <trkpt lat="43.4530520" lon="-3.8515530">
        <ele>50.8</ele>
        <time>2021-07-17T07:16:16Z</time>
      </trkpt>
      <trkpt lat="43.4530500" lon="-3.8515860">
        <ele>51.2</ele>
        <time>2021-07-17T07:16:17Z</time>
      </trkpt>
      <trkpt lat="43.4530470" lon="-3.8516170">
        <ele>51.2</ele>
        <time>2021-07-17T07:16:18Z</time>
      </trkpt>
      <trkpt lat="43.4530030" lon="-3.8519280">
        <ele>51.2</ele>
        <time>2021-07-17T07:16:27Z</time>
      </trkpt>
      <trkpt lat="43.4529720" lon="-3.8521520">
        <ele>51.2</ele>
        <time>2021-07-17T07:16:34Z</time>
      </trkpt>
      <trkpt lat="43.4529590" lon="-3.8522130">
        <ele>51.2</ele>
        <time>2021-07-17T07:16:36Z</time>
      </trkpt>
      <trkpt lat="43.4529200" lon="-3.8523610">
        <ele>51.2</ele>
        <time>2021-07-17T07:16:40Z</time>
      </trkpt>
      <trkpt lat="43.4529030" lon="-3.8524520">
        <ele>51.2</ele>
        <time>2021-07-17T07:16:42Z</time>
      </trkpt>
      <trkpt lat="43.4528740" lon="-3.8526090">
        <ele>51.2</ele>
        <time>2021-07-17T07:16:45Z</time>
      </trkpt>
      <trkpt lat="43.4528270" lon="-3.8527900">
        <ele>51.2</ele>
        <time>2021-07-17T07:16:48Z</time>
      </trkpt>
      <trkpt lat="43.4527930" lon="-3.8529250">
        <ele>51.2</ele>
        <time>2021-07-17T07:16:50Z</time>
      </trkpt>
      <trkpt lat="43.4527560" lon="-3.8530730">
        <ele>51.2</ele>
        <time>2021-07-17T07:16:52Z</time>
      </trkpt>
      <trkpt lat="43.4527360" lon="-3.8531520">
        <ele>51.2</ele>
        <time>2021-07-17T07:16:53Z</time>
      </trkpt>
      <trkpt lat="43.4527130" lon="-3.8532350">
        <ele>51.2</ele>
        <time>2021-07-17T07:16:54Z</time>
      </trkpt>
      <trkpt lat="43.4526900" lon="-3.8533270">
        <ele>51.2</ele>
        <time>2021-07-17T07:16:55Z</time>
      </trkpt>
      <trkpt lat="43.4526410" lon="-3.8535060">
        <ele>51.2</ele>
        <time>2021-07-17T07:16:57Z</time>
      </trkpt>
      <trkpt lat="43.4525850" lon="-3.8536970">
        <ele>50.8</ele>
        <time>2021-07-17T07:16:59Z</time>
      </trkpt>
      <trkpt lat="43.4525550" lon="-3.8537930">
        <ele>50.4</ele>
        <time>2021-07-17T07:17:00Z</time>
      </trkpt>
      <trkpt lat="43.4525260" lon="-3.8538860">
        <ele>49.8</ele>
        <time>2021-07-17T07:17:01Z</time>
      </trkpt>
      <trkpt lat="43.4524950" lon="-3.8539770">
        <ele>49.4</ele>
        <time>2021-07-17T07:17:02Z</time>
      </trkpt>
      <trkpt lat="43.4524640" lon="-3.8540710">
        <ele>49.0</ele>
        <time>2021-07-17T07:17:03Z</time>
      </trkpt>
      <trkpt lat="43.4523550" lon="-3.8544070">
        <ele>49.0</ele>
        <time>2021-07-17T07:17:07Z</time>
      </trkpt>
      <trkpt lat="43.4521970" lon="-3.8549850">
        <ele>48.6</ele>
        <time>2021-07-17T07:17:14Z</time>
      </trkpt>
      <trkpt lat="43.4521730" lon="-3.8550650">
        <ele>48.0</ele>
        <time>2021-07-17T07:17:15Z</time>
      </trkpt>
      <trkpt lat="43.4521500" lon="-3.8551460">
        <ele>47.6</ele>
        <time>2021-07-17T07:17:16Z</time>
      </trkpt>
      <trkpt lat="43.4521280" lon="-3.8552300">
        <ele>47.2</ele>
        <time>2021-07-17T07:17:17Z</time>
      </trkpt>
      <trkpt lat="43.4521050" lon="-3.8553180">
        <ele>46.8</ele>
        <time>2021-07-17T07:17:18Z</time>
      </trkpt>
      <trkpt lat="43.4520360" lon="-3.8555710">
        <ele>46.8</ele>
        <time>2021-07-17T07:17:21Z</time>
      </trkpt>
      <trkpt lat="43.4519770" lon="-3.8558110">
        <ele>46.8</ele>
        <time>2021-07-17T07:17:24Z</time>
      </trkpt>
      <trkpt lat="43.4519560" lon="-3.8558890">
        <ele>46.8</ele>
        <time>2021-07-17T07:17:25Z</time>
      </trkpt>
      <trkpt lat="43.4518990" lon="-3.8560900">
        <ele>46.8</ele>
        <time>2021-07-17T07:17:28Z</time>
      </trkpt>
      <trkpt lat="43.4518320" lon="-3.8563250">
        <ele>46.8</ele>
        <time>2021-07-17T07:17:32Z</time>
      </trkpt>
      <trkpt lat="43.4517360" lon="-3.8566830">
        <ele>46.8</ele>
        <time>2021-07-17T07:17:39Z</time>
      </trkpt>
      <trkpt lat="43.4516220" lon="-3.8570970">
        <ele>46.8</ele>
        <time>2021-07-17T07:17:47Z</time>
      </trkpt>
      <trkpt lat="43.4515420" lon="-3.8573710">
        <ele>46.8</ele>
        <time>2021-07-17T07:17:52Z</time>
      </trkpt>
      <trkpt lat="43.4514360" lon="-3.8576900">
        <ele>46.8</ele>
        <time>2021-07-17T07:17:58Z</time>
      </trkpt>
      <trkpt lat="43.4513130" lon="-3.8580480">
        <ele>46.8</ele>
        <time>2021-07-17T07:18:05Z</time>
      </trkpt>
      <trkpt lat="43.4511620" lon="-3.8584560">
        <ele>46.8</ele>
        <time>2021-07-17T07:18:13Z</time>
      </trkpt>
      <trkpt lat="43.4510390" lon="-3.8587920">
        <ele>46.8</ele>
        <time>2021-07-17T07:18:20Z</time>
      </trkpt>
      <trkpt lat="43.4510030" lon="-3.8588910">
        <ele>46.8</ele>
        <time>2021-07-17T07:18:22Z</time>
      </trkpt>
      <trkpt lat="43.4509210" lon="-3.8591430">
        <ele>46.8</ele>
        <time>2021-07-17T07:18:27Z</time>
      </trkpt>
      <trkpt lat="43.4508790" lon="-3.8592800">
        <ele>46.8</ele>
        <time>2021-07-17T07:18:30Z</time>
      </trkpt>
      <trkpt lat="43.4507760" lon="-3.8595930">
        <ele>46.8</ele>
        <time>2021-07-17T07:18:37Z</time>
      </trkpt>
      <trkpt lat="43.4507570" lon="-3.8596350">
        <ele>46.8</ele>
        <time>2021-07-17T07:18:38Z</time>
      </trkpt>
      <trkpt lat="43.4506380" lon="-3.8598920">
        <ele>46.8</ele>
        <time>2021-07-17T07:18:44Z</time>
      </trkpt>
      <trkpt lat="43.4505950" lon="-3.8599860">
        <ele>46.8</ele>
        <time>2021-07-17T07:18:46Z</time>
      </trkpt>
      <trkpt lat="43.4504960" lon="-3.8602190">
        <ele>46.8</ele>
        <time>2021-07-17T07:18:51Z</time>
      </trkpt>
      <trkpt lat="43.4503670" lon="-3.8605680">
        <ele>46.8</ele>
        <time>2021-07-17T07:18:58Z</time>
      </trkpt>
      <trkpt lat="43.4502390" lon="-3.8609150">
        <ele>46.8</ele>
        <time>2021-07-17T07:19:05Z</time>
      </trkpt>
      <trkpt lat="43.4502200" lon="-3.8609610">
        <ele>46.8</ele>
        <time>2021-07-17T07:19:06Z</time>
      </trkpt>
      <trkpt lat="43.4500770" lon="-3.8613470">
        <ele>46.8</ele>
        <time>2021-07-17T07:19:14Z</time>
      </trkpt>
      <trkpt lat="43.4500380" lon="-3.8614360">
        <ele>46.8</ele>
        <time>2021-07-17T07:19:16Z</time>
      </trkpt>
      <trkpt lat="43.4498900" lon="-3.8617900">
        <ele>46.8</ele>
        <time>2021-07-17T07:19:24Z</time>
      </trkpt>
      <trkpt lat="43.4497520" lon="-3.8621030">
        <ele>47.2</ele>
        <time>2021-07-17T07:19:32Z</time>
      </trkpt>
      <trkpt lat="43.4497360" lon="-3.8621400">
        <ele>47.6</ele>
        <time>2021-07-17T07:19:33Z</time>
      </trkpt>
      <trkpt lat="43.4497200" lon="-3.8621740">
        <ele>48.0</ele>
        <time>2021-07-17T07:19:34Z</time>
      </trkpt>
      <trkpt lat="43.4497020" lon="-3.8622070">
        <ele>48.4</ele>
        <time>2021-07-17T07:19:35Z</time>
      </trkpt>
      <trkpt lat="43.4496870" lon="-3.8622400">
        <ele>48.8</ele>
        <time>2021-07-17T07:19:36Z</time>
      </trkpt>
      <trkpt lat="43.4496520" lon="-3.8623080">
        <ele>48.8</ele>
        <time>2021-07-17T07:19:38Z</time>
      </trkpt>
      <trkpt lat="43.4496000" lon="-3.8624040">
        <ele>48.8</ele>
        <time>2021-07-17T07:19:41Z</time>
      </trkpt>
      <trkpt lat="43.4495180" lon="-3.8625610">
        <ele>49.2</ele>
        <time>2021-07-17T07:19:46Z</time>
      </trkpt>
      <trkpt lat="43.4495010" lon="-3.8625930">
        <ele>50.0</ele>
        <time>2021-07-17T07:19:47Z</time>
      </trkpt>
      <trkpt lat="43.4494840" lon="-3.8626240">
        <ele>50.4</ele>
        <time>2021-07-17T07:19:48Z</time>
      </trkpt>
      <trkpt lat="43.4494670" lon="-3.8626540">
        <ele>51.0</ele>
        <time>2021-07-17T07:19:49Z</time>
      </trkpt>
      <trkpt lat="43.4493590" lon="-3.8628350">
        <ele>51.0</ele>
        <time>2021-07-17T07:19:55Z</time>
      </trkpt>
      <trkpt lat="43.4493420" lon="-3.8628650">
        <ele>51.0</ele>
        <time>2021-07-17T07:19:56Z</time>
      </trkpt>
      <trkpt lat="43.4493270" lon="-3.8628950">
        <ele>51.4</ele>
        <time>2021-07-17T07:19:57Z</time>
      </trkpt>
      <trkpt lat="43.4493120" lon="-3.8629250">
        <ele>51.8</ele>
        <time>2021-07-17T07:19:58Z</time>
      </trkpt>
      <trkpt lat="43.4492950" lon="-3.8629560">
        <ele>52.2</ele>
        <time>2021-07-17T07:19:59Z</time>
      </trkpt>
      <trkpt lat="43.4492790" lon="-3.8629860">
        <ele>52.6</ele>
        <time>2021-07-17T07:20:00Z</time>
      </trkpt>
      <trkpt lat="43.4492590" lon="-3.8630150">
        <ele>53.0</ele>
        <time>2021-07-17T07:20:01Z</time>
      </trkpt>
      <trkpt lat="43.4492220" lon="-3.8630720">
        <ele>53.0</ele>
        <time>2021-07-17T07:20:03Z</time>
      </trkpt>
      <trkpt lat="43.4490820" lon="-3.8633180">
        <ele>53.4</ele>
        <time>2021-07-17T07:20:11Z</time>
      </trkpt>
      <trkpt lat="43.4490650" lon="-3.8633470">
        <ele>53.8</ele>
        <time>2021-07-17T07:20:12Z</time>
      </trkpt>
      <trkpt lat="43.4490520" lon="-3.8633770">
        <ele>54.2</ele>
        <time>2021-07-17T07:20:13Z</time>
      </trkpt>
      <trkpt lat="43.4490330" lon="-3.8634020">
        <ele>54.8</ele>
        <time>2021-07-17T07:20:14Z</time>
      </trkpt>
      <trkpt lat="43.4490170" lon="-3.8634300">
        <ele>55.2</ele>
        <time>2021-07-17T07:20:15Z</time>
      </trkpt>
      <trkpt lat="43.4489720" lon="-3.8635190">
        <ele>55.2</ele>
        <time>2021-07-17T07:20:18Z</time>
      </trkpt>
      <trkpt lat="43.4488340" lon="-3.8637450">
        <ele>55.6</ele>
        <time>2021-07-17T07:20:26Z</time>
      </trkpt>
      <trkpt lat="43.4488180" lon="-3.8637740">
        <ele>56.0</ele>
        <time>2021-07-17T07:20:27Z</time>
      </trkpt>
      <trkpt lat="43.4488030" lon="-3.8638010">
        <ele>56.4</ele>
        <time>2021-07-17T07:20:28Z</time>
      </trkpt>
      <trkpt lat="43.4487940" lon="-3.8638300">
        <ele>56.8</ele>
        <time>2021-07-17T07:20:29Z</time>
      </trkpt>
      <trkpt lat="43.4487840" lon="-3.8638620">
        <ele>57.2</ele>
        <time>2021-07-17T07:20:30Z</time>
      </trkpt>
      <trkpt lat="43.4487800" lon="-3.8639780">
        <ele>57.2</ele>
        <time>2021-07-17T07:20:33Z</time>
      </trkpt>
      <trkpt lat="43.4488310" lon="-3.8641600">
        <ele>57.2</ele>
        <time>2021-07-17T07:20:39Z</time>
      </trkpt>
      <trkpt lat="43.4488920" lon="-3.8643080">
        <ele>57.6</ele>
        <time>2021-07-17T07:20:44Z</time>
      </trkpt>
      <trkpt lat="43.4489160" lon="-3.8643360">
        <ele>58.0</ele>
        <time>2021-07-17T07:20:45Z</time>
      </trkpt>
      <trkpt lat="43.4489400" lon="-3.8643640">
        <ele>58.4</ele>
        <time>2021-07-17T07:20:46Z</time>
      </trkpt>
      <trkpt lat="43.4489690" lon="-3.8643950">
        <ele>58.8</ele>
        <time>2021-07-17T07:20:47Z</time>
      </trkpt>
      <trkpt lat="43.4489970" lon="-3.8644200">
        <ele>59.2</ele>
        <time>2021-07-17T07:20:48Z</time>
      </trkpt>
      <trkpt lat="43.4491400" lon="-3.8645490">
        <ele>59.2</ele>
        <time>2021-07-17T07:20:53Z</time>
      </trkpt>
      <trkpt lat="43.4492870" lon="-3.8646930">
        <ele>59.2</ele>
        <time>2021-07-17T07:20:58Z</time>
      </trkpt>
      <trkpt lat="43.4493750" lon="-3.8647520">
        <ele>59.2</ele>
        <time>2021-07-17T07:21:01Z</time>
      </trkpt>
      <trkpt lat="43.4495090" lon="-3.8648350">
        <ele>59.2</ele>
        <time>2021-07-17T07:21:06Z</time>
      </trkpt>
      <trkpt lat="43.4495400" lon="-3.8648470">
        <ele>59.2</ele>
        <time>2021-07-17T07:21:07Z</time>
      </trkpt>
      <trkpt lat="43.4496820" lon="-3.8648910">
        <ele>59.6</ele>
        <time>2021-07-17T07:21:12Z</time>
      </trkpt>
      <trkpt lat="43.4497100" lon="-3.8649040">
        <ele>60.0</ele>
        <time>2021-07-17T07:21:13Z</time>
      </trkpt>
      <trkpt lat="43.4497400" lon="-3.8649150">
        <ele>60.6</ele>
        <time>2021-07-17T07:21:14Z</time>
      </trkpt>
      <trkpt lat="43.4497690" lon="-3.8649320">
        <ele>61.0</ele>
        <time>2021-07-17T07:21:15Z</time>
      </trkpt>
      <trkpt lat="43.4498010" lon="-3.8649420">
        <ele>61.4</ele>
        <time>2021-07-17T07:21:16Z</time>
      </trkpt>
      <trkpt lat="43.4499680" lon="-3.8650260">
        <ele>61.4</ele>
        <time>2021-07-17T07:21:22Z</time>
      </trkpt>
      <trkpt lat="43.4501080" lon="-3.8651140">
        <ele>61.4</ele>
        <time>2021-07-17T07:21:29Z</time>
      </trkpt>
      <trkpt lat="43.4501590" lon="-3.8651410">
        <ele>61.8</ele>
        <time>2021-07-17T07:21:31Z</time>
      </trkpt>
      <trkpt lat="43.4501840" lon="-3.8651590">
        <ele>62.2</ele>
        <time>2021-07-17T07:21:32Z</time>
      </trkpt>
      <trkpt lat="43.4502050" lon="-3.8651800">
        <ele>62.6</ele>
        <time>2021-07-17T07:21:33Z</time>
      </trkpt>
      <trkpt lat="43.4502190" lon="-3.8652090">
        <ele>63.0</ele>
        <time>2021-07-17T07:21:34Z</time>
      </trkpt>
      <trkpt lat="43.4502240" lon="-3.8652390">
        <ele>63.4</ele>
        <time>2021-07-17T07:21:35Z</time>
      </trkpt>
      <trkpt lat="43.4501810" lon="-3.8653750">
        <ele>63.4</ele>
        <time>2021-07-17T07:21:39Z</time>
      </trkpt>
      <trkpt lat="43.4500710" lon="-3.8656390">
        <ele>63.4</ele>
        <time>2021-07-17T07:21:45Z</time>
      </trkpt>
      <trkpt lat="43.4500490" lon="-3.8656850">
        <ele>63.4</ele>
        <time>2021-07-17T07:21:46Z</time>
      </trkpt>
      <trkpt lat="43.4500260" lon="-3.8657300">
        <ele>63.4</ele>
        <time>2021-07-17T07:21:47Z</time>
      </trkpt>
      <trkpt lat="43.4499430" lon="-3.8659140">
        <ele>63.4</ele>
        <time>2021-07-17T07:21:51Z</time>
      </trkpt>
      <trkpt lat="43.4499060" lon="-3.8660070">
        <ele>63.4</ele>
        <time>2021-07-17T07:21:53Z</time>
      </trkpt>
      <trkpt lat="43.4498910" lon="-3.8660510">
        <ele>63.4</ele>
        <time>2021-07-17T07:21:54Z</time>
      </trkpt>
      <trkpt lat="43.4498490" lon="-3.8661680">
        <ele>63.4</ele>
        <time>2021-07-17T07:21:57Z</time>
      </trkpt>
      <trkpt lat="43.4498170" lon="-3.8662430">
        <ele>63.4</ele>
        <time>2021-07-17T07:21:59Z</time>
      </trkpt>
      <trkpt lat="43.4497890" lon="-3.8663220">
        <ele>63.4</ele>
        <time>2021-07-17T07:22:01Z</time>
      </trkpt>
      <trkpt lat="43.4497620" lon="-3.8663920">
        <ele>63.4</ele>
        <time>2021-07-17T07:22:03Z</time>
      </trkpt>
      <trkpt lat="43.4497140" lon="-3.8665290">
        <ele>63.4</ele>
        <time>2021-07-17T07:22:07Z</time>
      </trkpt>
      <trkpt lat="43.4496330" lon="-3.8667170">
        <ele>63.0</ele>
        <time>2021-07-17T07:22:12Z</time>
      </trkpt>
      <trkpt lat="43.4496170" lon="-3.8667530">
        <ele>62.6</ele>
        <time>2021-07-17T07:22:13Z</time>
      </trkpt>
      <trkpt lat="43.4496000" lon="-3.8667910">
        <ele>62.2</ele>
        <time>2021-07-17T07:22:14Z</time>
      </trkpt>
      <trkpt lat="43.4495860" lon="-3.8668320">
        <ele>61.6</ele>
        <time>2021-07-17T07:22:15Z</time>
      </trkpt>
      <trkpt lat="43.4495740" lon="-3.8668730">
        <ele>61.2</ele>
        <time>2021-07-17T07:22:16Z</time>
      </trkpt>
      <trkpt lat="43.4494580" lon="-3.8671680">
        <ele>61.2</ele>
        <time>2021-07-17T07:22:23Z</time>
      </trkpt>
      <trkpt lat="43.4494440" lon="-3.8672120">
        <ele>61.2</ele>
        <time>2021-07-17T07:22:24Z</time>
      </trkpt>
      <trkpt lat="43.4494080" lon="-3.8673380">
        <ele>61.2</ele>
        <time>2021-07-17T07:22:27Z</time>
      </trkpt>
      <trkpt lat="43.4493810" lon="-3.8674190">
        <ele>61.2</ele>
        <time>2021-07-17T07:22:30Z</time>
      </trkpt>
      <trkpt lat="43.4493290" lon="-3.8674590">
        <ele>61.2</ele>
        <time>2021-07-17T07:22:35Z</time>
      </trkpt>
      <trkpt lat="43.4493280" lon="-3.8674580">
        <ele>61.2</ele>
        <time>2021-07-17T07:22:36Z</time>
      </trkpt>
      <trkpt lat="43.4492890" lon="-3.8675550">
        <ele>60.4</ele>
        <time>2021-07-17T07:22:48Z</time>
      </trkpt>
      <trkpt lat="43.4492850" lon="-3.8675720">
        <ele>60.0</ele>
        <time>2021-07-17T07:22:49Z</time>
      </trkpt>
      <trkpt lat="43.4492800" lon="-3.8675920">
        <ele>59.6</ele>
        <time>2021-07-17T07:22:50Z</time>
      </trkpt>
      <trkpt lat="43.4492690" lon="-3.8676250">
        <ele>59.2</ele>
        <time>2021-07-17T07:22:51Z</time>
      </trkpt>
      <trkpt lat="43.4492470" lon="-3.8676810">
        <ele>59.2</ele>
        <time>2021-07-17T07:22:54Z</time>
      </trkpt>
      <trkpt lat="43.4492700" lon="-3.8677690">
        <ele>59.2</ele>
        <time>2021-07-17T07:23:09Z</time>
      </trkpt>
      <trkpt lat="43.4492630" lon="-3.8677950">
        <ele>59.2</ele>
        <time>2021-07-17T07:23:10Z</time>
      </trkpt>
      <trkpt lat="43.4492140" lon="-3.8679360">
        <ele>59.2</ele>
        <time>2021-07-17T07:23:15Z</time>
      </trkpt>
      <trkpt lat="43.4491860" lon="-3.8680070">
        <ele>59.2</ele>
        <time>2021-07-17T07:23:17Z</time>
      </trkpt>
      <trkpt lat="43.4491280" lon="-3.8681280">
        <ele>59.2</ele>
        <time>2021-07-17T07:23:21Z</time>
      </trkpt>
      <trkpt lat="43.4491080" lon="-3.8681830">
        <ele>59.2</ele>
        <time>2021-07-17T07:23:23Z</time>
      </trkpt>
      <trkpt lat="43.4491000" lon="-3.8682090">
        <ele>59.2</ele>
        <time>2021-07-17T07:23:24Z</time>
      </trkpt>
      <trkpt lat="43.4490280" lon="-3.8684000">
        <ele>59.2</ele>
        <time>2021-07-17T07:23:30Z</time>
      </trkpt>
      <trkpt lat="43.4489880" lon="-3.8684890">
        <ele>59.2</ele>
        <time>2021-07-17T07:23:33Z</time>
      </trkpt>
      <trkpt lat="43.4489480" lon="-3.8685540">
        <ele>59.2</ele>
        <time>2021-07-17T07:23:36Z</time>
      </trkpt>
      <trkpt lat="43.4489100" lon="-3.8686360">
        <ele>59.2</ele>
        <time>2021-07-17T07:23:39Z</time>
      </trkpt>
      <trkpt lat="43.4488700" lon="-3.8687280">
        <ele>59.2</ele>
        <time>2021-07-17T07:23:42Z</time>
      </trkpt>
      <trkpt lat="43.4488250" lon="-3.8688460">
        <ele>59.2</ele>
        <time>2021-07-17T07:23:46Z</time>
      </trkpt>
      <trkpt lat="43.4488160" lon="-3.8688670">
        <ele>58.8</ele>
        <time>2021-07-17T07:23:47Z</time>
      </trkpt>
      <trkpt lat="43.4488090" lon="-3.8688930">
        <ele>58.4</ele>
        <time>2021-07-17T07:23:48Z</time>
      </trkpt>
      <trkpt lat="43.4488060" lon="-3.8689130">
        <ele>58.0</ele>
        <time>2021-07-17T07:23:49Z</time>
      </trkpt>
      <trkpt lat="43.4488080" lon="-3.8689190">
        <ele>57.6</ele>
        <time>2021-07-17T07:23:50Z</time>
      </trkpt>
      <trkpt lat="43.4488100" lon="-3.8689170">
        <ele>57.2</ele>
        <time>2021-07-17T07:23:51Z</time>
      </trkpt>
      <trkpt lat="43.4488290" lon="-3.8689280">
        <ele>57.2</ele>
        <time>2021-07-17T07:24:00Z</time>
      </trkpt>
      <trkpt lat="43.4488470" lon="-3.8689330">
        <ele>57.2</ele>
        <time>2021-07-17T07:24:01Z</time>
      </trkpt>
      <trkpt lat="43.4489490" lon="-3.8690010">
        <ele>57.2</ele>
        <time>2021-07-17T07:24:06Z</time>
      </trkpt>
      <trkpt lat="43.4489590" lon="-3.8690300">
        <ele>57.2</ele>
        <time>2021-07-17T07:24:07Z</time>
      </trkpt>
      <trkpt lat="43.4490240" lon="-3.8692640">
        <ele>57.2</ele>
        <time>2021-07-17T07:24:14Z</time>
      </trkpt>
      <trkpt lat="43.4490250" lon="-3.8693760">
        <ele>57.2</ele>
        <time>2021-07-17T07:24:17Z</time>
      </trkpt>
      <trkpt lat="43.4490150" lon="-3.8695000">
        <ele>57.2</ele>
        <time>2021-07-17T07:24:20Z</time>
      </trkpt>
      <trkpt lat="43.4489920" lon="-3.8696510">
        <ele>57.2</ele>
        <time>2021-07-17T07:24:24Z</time>
      </trkpt>
      <trkpt lat="43.4489660" lon="-3.8697560">
        <ele>57.6</ele>
        <time>2021-07-17T07:24:27Z</time>
      </trkpt>
      <trkpt lat="43.4489580" lon="-3.8697910">
        <ele>58.0</ele>
        <time>2021-07-17T07:24:28Z</time>
      </trkpt>
      <trkpt lat="43.4489460" lon="-3.8698240">
        <ele>58.4</ele>
        <time>2021-07-17T07:24:29Z</time>
      </trkpt>
      <trkpt lat="43.4489350" lon="-3.8698610">
        <ele>58.8</ele>
        <time>2021-07-17T07:24:30Z</time>
      </trkpt>
      <trkpt lat="43.4489240" lon="-3.8698950">
        <ele>59.2</ele>
        <time>2021-07-17T07:24:31Z</time>
      </trkpt>
      <trkpt lat="43.4488840" lon="-3.8700300">
        <ele>59.2</ele>
        <time>2021-07-17T07:24:35Z</time>
      </trkpt>
      <trkpt lat="43.4488630" lon="-3.8700970">
        <ele>59.2</ele>
        <time>2021-07-17T07:24:37Z</time>
      </trkpt>
      <trkpt lat="43.4488040" lon="-3.8703000">
        <ele>59.2</ele>
        <time>2021-07-17T07:24:43Z</time>
      </trkpt>
      <trkpt lat="43.4487940" lon="-3.8703750">
        <ele>59.2</ele>
        <time>2021-07-17T07:24:45Z</time>
      </trkpt>
      <trkpt lat="43.4487920" lon="-3.8704120">
        <ele>59.6</ele>
        <time>2021-07-17T07:24:46Z</time>
      </trkpt>
      <trkpt lat="43.4487890" lon="-3.8704500">
        <ele>60.2</ele>
        <time>2021-07-17T07:24:47Z</time>
      </trkpt>
      <trkpt lat="43.4487870" lon="-3.8704810">
        <ele>60.6</ele>
        <time>2021-07-17T07:24:48Z</time>
      </trkpt>
      <trkpt lat="43.4487850" lon="-3.8705150">
        <ele>61.0</ele>
        <time>2021-07-17T07:24:49Z</time>
      </trkpt>
      <trkpt lat="43.4487820" lon="-3.8705490">
        <ele>61.4</ele>
        <time>2021-07-17T07:24:50Z</time>
      </trkpt>
      <trkpt lat="43.4487930" lon="-3.8706380">
        <ele>61.4</ele>
        <time>2021-07-17T07:24:53Z</time>
      </trkpt>
      <trkpt lat="43.4488050" lon="-3.8707570">
        <ele>61.8</ele>
        <time>2021-07-17T07:24:57Z</time>
      </trkpt>
      <trkpt lat="43.4488080" lon="-3.8707850">
        <ele>62.2</ele>
        <time>2021-07-17T07:24:58Z</time>
      </trkpt>
      <trkpt lat="43.4488060" lon="-3.8708130">
        <ele>62.6</ele>
        <time>2021-07-17T07:24:59Z</time>
      </trkpt>
      <trkpt lat="43.4488090" lon="-3.8708440">
        <ele>63.0</ele>
        <time>2021-07-17T07:25:00Z</time>
      </trkpt>
      <trkpt lat="43.4488120" lon="-3.8708710">
        <ele>63.4</ele>
        <time>2021-07-17T07:25:01Z</time>
      </trkpt>
      <trkpt lat="43.4488210" lon="-3.8709520">
        <ele>63.8</ele>
        <time>2021-07-17T07:25:04Z</time>
      </trkpt>
      <trkpt lat="43.4488260" lon="-3.8709830">
        <ele>64.2</ele>
        <time>2021-07-17T07:25:05Z</time>
      </trkpt>
      <trkpt lat="43.4488270" lon="-3.8710160">
        <ele>64.6</ele>
        <time>2021-07-17T07:25:06Z</time>
      </trkpt>
      <trkpt lat="43.4488290" lon="-3.8710490">
        <ele>65.0</ele>
        <time>2021-07-17T07:25:07Z</time>
      </trkpt>
      <trkpt lat="43.4488320" lon="-3.8710810">
        <ele>65.4</ele>
        <time>2021-07-17T07:25:08Z</time>
      </trkpt>
      <trkpt lat="43.4488300" lon="-3.8711500">
        <ele>65.4</ele>
        <time>2021-07-17T07:25:10Z</time>
      </trkpt>
      <trkpt lat="43.4488300" lon="-3.8712150">
        <ele>66.0</ele>
        <time>2021-07-17T07:25:12Z</time>
      </trkpt>
      <trkpt lat="43.4488300" lon="-3.8712460">
        <ele>66.4</ele>
        <time>2021-07-17T07:25:13Z</time>
      </trkpt>
      <trkpt lat="43.4488280" lon="-3.8712760">
        <ele>66.8</ele>
        <time>2021-07-17T07:25:14Z</time>
      </trkpt>
      <trkpt lat="43.4488250" lon="-3.8713020">
        <ele>67.2</ele>
        <time>2021-07-17T07:25:15Z</time>
      </trkpt>
      <trkpt lat="43.4488220" lon="-3.8713330">
        <ele>67.6</ele>
        <time>2021-07-17T07:25:16Z</time>
      </trkpt>
      <trkpt lat="43.4488080" lon="-3.8714330">
        <ele>67.6</ele>
        <time>2021-07-17T07:25:19Z</time>
      </trkpt>
      <trkpt lat="43.4487740" lon="-3.8717240">
        <ele>67.6</ele>
        <time>2021-07-17T07:25:27Z</time>
      </trkpt>
      <trkpt lat="43.4487200" lon="-3.8719930">
        <ele>67.6</ele>
        <time>2021-07-17T07:25:34Z</time>
      </trkpt>
      <trkpt lat="43.4486790" lon="-3.8721720">
        <ele>68.0</ele>
        <time>2021-07-17T07:25:39Z</time>
      </trkpt>
      <trkpt lat="43.4486680" lon="-3.8722070">
        <ele>68.4</ele>
        <time>2021-07-17T07:25:40Z</time>
      </trkpt>
      <trkpt lat="43.4486610" lon="-3.8722460">
        <ele>68.8</ele>
        <time>2021-07-17T07:25:41Z</time>
      </trkpt>
      <trkpt lat="43.4486600" lon="-3.8722860">
        <ele>69.2</ele>
        <time>2021-07-17T07:25:42Z</time>
      </trkpt>
      <trkpt lat="43.4486580" lon="-3.8723230">
        <ele>69.8</ele>
        <time>2021-07-17T07:25:43Z</time>
      </trkpt>
      <trkpt lat="43.4486690" lon="-3.8724210">
        <ele>69.8</ele>
        <time>2021-07-17T07:25:46Z</time>
      </trkpt>
      <trkpt lat="43.4487170" lon="-3.8725250">
        <ele>69.8</ele>
        <time>2021-07-17T07:25:50Z</time>
      </trkpt>
      <trkpt lat="43.4487450" lon="-3.8725800">
        <ele>69.8</ele>
        <time>2021-07-17T07:25:52Z</time>
      </trkpt>
      <trkpt lat="43.4487890" lon="-3.8726560">
        <ele>70.2</ele>
        <time>2021-07-17T07:25:55Z</time>
      </trkpt>
      <trkpt lat="43.4488000" lon="-3.8726820">
        <ele>70.6</ele>
        <time>2021-07-17T07:25:56Z</time>
      </trkpt>
      <trkpt lat="43.4488050" lon="-3.8727140">
        <ele>71.0</ele>
        <time>2021-07-17T07:25:57Z</time>
      </trkpt>
      <trkpt lat="43.4488090" lon="-3.8727410">
        <ele>71.8</ele>
        <time>2021-07-17T07:25:58Z</time>
      </trkpt>
      <trkpt lat="43.4488040" lon="-3.8727770">
        <ele>71.8</ele>
        <time>2021-07-17T07:25:59Z</time>
      </trkpt>
      <trkpt lat="43.4487790" lon="-3.8730630">
        <ele>71.8</ele>
        <time>2021-07-17T07:26:07Z</time>
      </trkpt>
      <trkpt lat="43.4487650" lon="-3.8732170">
        <ele>71.8</ele>
        <time>2021-07-17T07:26:11Z</time>
      </trkpt>
      <trkpt lat="43.4487520" lon="-3.8733540">
        <ele>71.8</ele>
        <time>2021-07-17T07:26:14Z</time>
      </trkpt>
      <trkpt lat="43.4487440" lon="-3.8734010">
        <ele>71.8</ele>
        <time>2021-07-17T07:26:15Z</time>
      </trkpt>
      <trkpt lat="43.4487400" lon="-3.8735830">
        <ele>71.8</ele>
        <time>2021-07-17T07:26:19Z</time>
      </trkpt>
      <trkpt lat="43.4487410" lon="-3.8736640">
        <ele>71.8</ele>
        <time>2021-07-17T07:26:21Z</time>
      </trkpt>
      <trkpt lat="43.4487090" lon="-3.8739090">
        <ele>71.8</ele>
        <time>2021-07-17T07:26:26Z</time>
      </trkpt>
      <trkpt lat="43.4486970" lon="-3.8739560">
        <ele>71.8</ele>
        <time>2021-07-17T07:26:27Z</time>
      </trkpt>
      <trkpt lat="43.4486740" lon="-3.8740530">
        <ele>71.8</ele>
        <time>2021-07-17T07:26:29Z</time>
      </trkpt>
      <trkpt lat="43.4486430" lon="-3.8741540">
        <ele>71.8</ele>
        <time>2021-07-17T07:26:31Z</time>
      </trkpt>
      <trkpt lat="43.4486000" lon="-3.8742620">
        <ele>71.8</ele>
        <time>2021-07-17T07:26:33Z</time>
      </trkpt>
      <trkpt lat="43.4485760" lon="-3.8743220">
        <ele>71.8</ele>
        <time>2021-07-17T07:26:34Z</time>
      </trkpt>
      <trkpt lat="43.4485540" lon="-3.8743840">
        <ele>71.8</ele>
        <time>2021-07-17T07:26:35Z</time>
      </trkpt>
      <trkpt lat="43.4485040" lon="-3.8745760">
        <ele>71.8</ele>
        <time>2021-07-17T07:26:38Z</time>
      </trkpt>
      <trkpt lat="43.4484890" lon="-3.8746380">
        <ele>71.8</ele>
        <time>2021-07-17T07:26:39Z</time>
      </trkpt>
      <trkpt lat="43.4484690" lon="-3.8746940">
        <ele>71.8</ele>
        <time>2021-07-17T07:26:40Z</time>
      </trkpt>
      <trkpt lat="43.4484500" lon="-3.8747520">
        <ele>71.2</ele>
        <time>2021-07-17T07:26:41Z</time>
      </trkpt>
      <trkpt lat="43.4484320" lon="-3.8748070">
        <ele>70.8</ele>
        <time>2021-07-17T07:26:42Z</time>
      </trkpt>
      <trkpt lat="43.4484120" lon="-3.8748630">
        <ele>70.2</ele>
        <time>2021-07-17T07:26:43Z</time>
      </trkpt>
      <trkpt lat="43.4484000" lon="-3.8749200">
        <ele>69.8</ele>
        <time>2021-07-17T07:26:44Z</time>
      </trkpt>
      <trkpt lat="43.4483890" lon="-3.8749730">
        <ele>69.4</ele>
        <time>2021-07-17T07:26:45Z</time>
      </trkpt>
      <trkpt lat="43.4483750" lon="-3.8750270">
        <ele>68.8</ele>
        <time>2021-07-17T07:26:46Z</time>
      </trkpt>
      <trkpt lat="43.4483650" lon="-3.8750790">
        <ele>68.4</ele>
        <time>2021-07-17T07:26:47Z</time>
      </trkpt>
      <trkpt lat="43.4483520" lon="-3.8751250">
        <ele>67.4</ele>
        <time>2021-07-17T07:26:48Z</time>
      </trkpt>
      <trkpt lat="43.4483350" lon="-3.8751920">
        <ele>66.8</ele>
        <time>2021-07-17T07:26:50Z</time>
      </trkpt>
      <trkpt lat="43.4483240" lon="-3.8752170">
        <ele>66.4</ele>
        <time>2021-07-17T07:26:51Z</time>
      </trkpt>
      <trkpt lat="43.4483150" lon="-3.8752410">
        <ele>65.8</ele>
        <time>2021-07-17T07:26:52Z</time>
      </trkpt>
      <trkpt lat="43.4483110" lon="-3.8752550">
        <ele>65.4</ele>
        <time>2021-07-17T07:26:53Z</time>
      </trkpt>
      <trkpt lat="43.4483080" lon="-3.8752610">
        <ele>64.8</ele>
        <time>2021-07-17T07:26:54Z</time>
      </trkpt>
      <trkpt lat="43.4482880" lon="-3.8752860">
        <ele>64.8</ele>
        <time>2021-07-17T07:26:56Z</time>
      </trkpt>
      <trkpt lat="43.4482680" lon="-3.8752960">
        <ele>64.8</ele>
        <time>2021-07-17T07:26:57Z</time>
      </trkpt>
      <trkpt lat="43.4482410" lon="-3.8752910">
        <ele>64.8</ele>
        <time>2021-07-17T07:26:58Z</time>
      </trkpt>
      <trkpt lat="43.4481400" lon="-3.8752760">
        <ele>64.8</ele>
        <time>2021-07-17T07:27:01Z</time>
      </trkpt>
      <trkpt lat="43.4480810" lon="-3.8752890">
        <ele>64.4</ele>
        <time>2021-07-17T07:27:03Z</time>
      </trkpt>
      <trkpt lat="43.4480480" lon="-3.8752980">
        <ele>64.0</ele>
        <time>2021-07-17T07:27:04Z</time>
      </trkpt>
      <trkpt lat="43.4480170" lon="-3.8753090">
        <ele>63.4</ele>
        <time>2021-07-17T07:27:05Z</time>
      </trkpt>
      <trkpt lat="43.4479790" lon="-3.8753190">
        <ele>63.0</ele>
        <time>2021-07-17T07:27:06Z</time>
      </trkpt>
      <trkpt lat="43.4479400" lon="-3.8753300">
        <ele>62.6</ele>
        <time>2021-07-17T07:27:07Z</time>
      </trkpt>
      <trkpt lat="43.4479010" lon="-3.8753470">
        <ele>62.2</ele>
        <time>2021-07-17T07:27:08Z</time>
      </trkpt>
      <trkpt lat="43.4478610" lon="-3.8753600">
        <ele>61.8</ele>
        <time>2021-07-17T07:27:09Z</time>
      </trkpt>
      <trkpt lat="43.4478210" lon="-3.8753800">
        <ele>61.4</ele>
        <time>2021-07-17T07:27:10Z</time>
      </trkpt>
      <trkpt lat="43.4477810" lon="-3.8754020">
        <ele>60.8</ele>
        <time>2021-07-17T07:27:11Z</time>
      </trkpt>
      <trkpt lat="43.4477410" lon="-3.8754280">
        <ele>59.8</ele>
        <time>2021-07-17T07:27:12Z</time>
      </trkpt>
      <trkpt lat="43.4477020" lon="-3.8754580">
        <ele>59.4</ele>
        <time>2021-07-17T07:27:13Z</time>
      </trkpt>
      <trkpt lat="43.4476650" lon="-3.8754970">
        <ele>58.8</ele>
        <time>2021-07-17T07:27:14Z</time>
      </trkpt>
      <trkpt lat="43.4476290" lon="-3.8755430">
        <ele>58.2</ele>
        <time>2021-07-17T07:27:15Z</time>
      </trkpt>
      <trkpt lat="43.4476000" lon="-3.8755950">
        <ele>57.6</ele>
        <time>2021-07-17T07:27:16Z</time>
      </trkpt>
      <trkpt lat="43.4475700" lon="-3.8756440">
        <ele>57.0</ele>
        <time>2021-07-17T07:27:17Z</time>
      </trkpt>
      <trkpt lat="43.4475450" lon="-3.8756950">
        <ele>56.4</ele>
        <time>2021-07-17T07:27:18Z</time>
      </trkpt>
      <trkpt lat="43.4475210" lon="-3.8757450">
        <ele>55.8</ele>
        <time>2021-07-17T07:27:19Z</time>
      </trkpt>
      <trkpt lat="43.4475000" lon="-3.8757880">
        <ele>55.0</ele>
        <time>2021-07-17T07:27:20Z</time>
      </trkpt>
      <trkpt lat="43.4474840" lon="-3.8758330">
        <ele>54.4</ele>
        <time>2021-07-17T07:27:21Z</time>
      </trkpt>
      <trkpt lat="43.4474700" lon="-3.8758760">
        <ele>53.6</ele>
        <time>2021-07-17T07:27:22Z</time>
      </trkpt>
      <trkpt lat="43.4474430" lon="-3.8759560">
        <ele>53.2</ele>
        <time>2021-07-17T07:27:24Z</time>
      </trkpt>
      <trkpt lat="43.4474240" lon="-3.8760000">
        <ele>52.8</ele>
        <time>2021-07-17T07:27:25Z</time>
      </trkpt>
      <trkpt lat="43.4474050" lon="-3.8760520">
        <ele>52.2</ele>
        <time>2021-07-17T07:27:26Z</time>
      </trkpt>
      <trkpt lat="43.4473920" lon="-3.8761140">
        <ele>51.8</ele>
        <time>2021-07-17T07:27:27Z</time>
      </trkpt>
      <trkpt lat="43.4473810" lon="-3.8761770">
        <ele>51.4</ele>
        <time>2021-07-17T07:27:28Z</time>
      </trkpt>
      <trkpt lat="43.4473750" lon="-3.8762410">
        <ele>51.4</ele>
        <time>2021-07-17T07:27:29Z</time>
      </trkpt>
      <trkpt lat="43.4473760" lon="-3.8765620">
        <ele>51.4</ele>
        <time>2021-07-17T07:27:34Z</time>
      </trkpt>
      <trkpt lat="43.4474510" lon="-3.8768390">
        <ele>51.4</ele>
        <time>2021-07-17T07:27:38Z</time>
      </trkpt>
      <trkpt lat="43.4474540" lon="-3.8769130">
        <ele>51.0</ele>
        <time>2021-07-17T07:27:39Z</time>
      </trkpt>
      <trkpt lat="43.4474470" lon="-3.8769790">
        <ele>50.6</ele>
        <time>2021-07-17T07:27:40Z</time>
      </trkpt>
      <trkpt lat="43.4474390" lon="-3.8770370">
        <ele>50.2</ele>
        <time>2021-07-17T07:27:41Z</time>
      </trkpt>
      <trkpt lat="43.4474320" lon="-3.8770940">
        <ele>49.8</ele>
        <time>2021-07-17T07:27:42Z</time>
      </trkpt>
      <trkpt lat="43.4474320" lon="-3.8771490">
        <ele>49.4</ele>
        <time>2021-07-17T07:27:43Z</time>
      </trkpt>
      <trkpt lat="43.4474510" lon="-3.8774130">
        <ele>49.4</ele>
        <time>2021-07-17T07:27:48Z</time>
      </trkpt>
      <trkpt lat="43.4475580" lon="-3.8777290">
        <ele>49.4</ele>
        <time>2021-07-17T07:27:55Z</time>
      </trkpt>
      <trkpt lat="43.4476370" lon="-3.8779280">
        <ele>49.4</ele>
        <time>2021-07-17T07:27:59Z</time>
      </trkpt>
      <trkpt lat="43.4476650" lon="-3.8780590">
        <ele>49.4</ele>
        <time>2021-07-17T07:28:01Z</time>
      </trkpt>
      <trkpt lat="43.4477070" lon="-3.8782530">
        <ele>49.4</ele>
        <time>2021-07-17T07:28:04Z</time>
      </trkpt>
      <trkpt lat="43.4477600" lon="-3.8786070">
        <ele>49.4</ele>
        <time>2021-07-17T07:28:09Z</time>
      </trkpt>
      <trkpt lat="43.4477940" lon="-3.8787490">
        <ele>48.8</ele>
        <time>2021-07-17T07:28:11Z</time>
      </trkpt>
      <trkpt lat="43.4478110" lon="-3.8788190">
        <ele>48.4</ele>
        <time>2021-07-17T07:28:12Z</time>
      </trkpt>
      <trkpt lat="43.4478310" lon="-3.8788870">
        <ele>48.0</ele>
        <time>2021-07-17T07:28:13Z</time>
      </trkpt>
      <trkpt lat="43.4478530" lon="-3.8789540">
        <ele>47.6</ele>
        <time>2021-07-17T07:28:14Z</time>
      </trkpt>
      <trkpt lat="43.4478740" lon="-3.8790250">
        <ele>47.2</ele>
        <time>2021-07-17T07:28:15Z</time>
      </trkpt>
      <trkpt lat="43.4480000" lon="-3.8795510">
        <ele>47.2</ele>
        <time>2021-07-17T07:28:23Z</time>
      </trkpt>
      <trkpt lat="43.4480660" lon="-3.8800940">
        <ele>47.2</ele>
        <time>2021-07-17T07:28:31Z</time>
      </trkpt>
      <trkpt lat="43.4480610" lon="-3.8803170">
        <ele>47.2</ele>
        <time>2021-07-17T07:28:35Z</time>
      </trkpt>
      <trkpt lat="43.4480570" lon="-3.8803440">
        <ele>47.2</ele>
        <time>2021-07-17T07:28:36Z</time>
      </trkpt>
      <trkpt lat="43.4480480" lon="-3.8803590">
        <ele>47.2</ele>
        <time>2021-07-17T07:28:37Z</time>
      </trkpt>
      <trkpt lat="43.4479790" lon="-3.8803640">
        <ele>47.2</ele>
        <time>2021-07-17T07:28:40Z</time>
      </trkpt>
      <trkpt lat="43.4478200" lon="-3.8802900">
        <ele>47.2</ele>
        <time>2021-07-17T07:28:43Z</time>
      </trkpt>
      <trkpt lat="43.4474760" lon="-3.8801200">
        <ele>47.2</ele>
        <time>2021-07-17T07:28:48Z</time>
      </trkpt>
      <trkpt lat="43.4474180" lon="-3.8801030">
        <ele>46.2</ele>
        <time>2021-07-17T07:28:49Z</time>
      </trkpt>
      <trkpt lat="43.4473600" lon="-3.8800950">
        <ele>45.4</ele>
        <time>2021-07-17T07:28:50Z</time>
      </trkpt>
      <trkpt lat="43.4473060" lon="-3.8801190">
        <ele>44.6</ele>
        <time>2021-07-17T07:28:51Z</time>
      </trkpt>
      <trkpt lat="43.4472580" lon="-3.8801610">
        <ele>44.0</ele>
        <time>2021-07-17T07:28:52Z</time>
      </trkpt>
      <trkpt lat="43.4472090" lon="-3.8802130">
        <ele>43.2</ele>
        <time>2021-07-17T07:28:53Z</time>
      </trkpt>
      <trkpt lat="43.4471730" lon="-3.8802740">
        <ele>42.6</ele>
        <time>2021-07-17T07:28:54Z</time>
      </trkpt>
      <trkpt lat="43.4471470" lon="-3.8803420">
        <ele>42.0</ele>
        <time>2021-07-17T07:28:55Z</time>
      </trkpt>
      <trkpt lat="43.4471330" lon="-3.8804140">
        <ele>41.4</ele>
        <time>2021-07-17T07:28:56Z</time>
      </trkpt>
      <trkpt lat="43.4471220" lon="-3.8804830">
        <ele>41.0</ele>
        <time>2021-07-17T07:28:57Z</time>
      </trkpt>
      <trkpt lat="43.4471100" lon="-3.8805420">
        <ele>40.4</ele>
        <time>2021-07-17T07:28:58Z</time>
      </trkpt>
      <trkpt lat="43.4471040" lon="-3.8806760">
        <ele>40.4</ele>
        <time>2021-07-17T07:29:00Z</time>
      </trkpt>
      <trkpt lat="43.4471050" lon="-3.8807470">
        <ele>40.4</ele>
        <time>2021-07-17T07:29:01Z</time>
      </trkpt>
      <trkpt lat="43.4471080" lon="-3.8809440">
        <ele>40.4</ele>
        <time>2021-07-17T07:29:04Z</time>
      </trkpt>
      <trkpt lat="43.4471060" lon="-3.8811440">
        <ele>40.4</ele>
        <time>2021-07-17T07:29:07Z</time>
      </trkpt>
      <trkpt lat="43.4471080" lon="-3.8812850">
        <ele>40.4</ele>
        <time>2021-07-17T07:29:09Z</time>
      </trkpt>
      <trkpt lat="43.4471130" lon="-3.8815640">
        <ele>40.4</ele>
        <time>2021-07-17T07:29:13Z</time>
      </trkpt>
      <trkpt lat="43.4471070" lon="-3.8818170">
        <ele>40.4</ele>
        <time>2021-07-17T07:29:17Z</time>
      </trkpt>
      <trkpt lat="43.4471210" lon="-3.8821850">
        <ele>40.4</ele>
        <time>2021-07-17T07:29:23Z</time>
      </trkpt>
      <trkpt lat="43.4471280" lon="-3.8822420">
        <ele>40.4</ele>
        <time>2021-07-17T07:29:24Z</time>
      </trkpt>
      <trkpt lat="43.4471550" lon="-3.8824630">
        <ele>40.4</ele>
        <time>2021-07-17T07:29:29Z</time>
      </trkpt>
      <trkpt lat="43.4471530" lon="-3.8824940">
        <ele>40.4</ele>
        <time>2021-07-17T07:29:30Z</time>
      </trkpt>
      <trkpt lat="43.4472090" lon="-3.8826880">
        <ele>40.4</ele>
        <time>2021-07-17T07:29:36Z</time>
      </trkpt>
      <trkpt lat="43.4472860" lon="-3.8827450">
        <ele>40.4</ele>
        <time>2021-07-17T07:29:38Z</time>
      </trkpt>
      <trkpt lat="43.4473900" lon="-3.8828050">
        <ele>40.4</ele>
        <time>2021-07-17T07:29:40Z</time>
      </trkpt>
      <trkpt lat="43.4475380" lon="-3.8830500">
        <ele>40.4</ele>
        <time>2021-07-17T07:29:44Z</time>
      </trkpt>
      <trkpt lat="43.4475460" lon="-3.8833280">
        <ele>40.4</ele>
        <time>2021-07-17T07:29:48Z</time>
      </trkpt>
      <trkpt lat="43.4475680" lon="-3.8835280">
        <ele>40.4</ele>
        <time>2021-07-17T07:29:51Z</time>
      </trkpt>
      <trkpt lat="43.4476190" lon="-3.8836650">
        <ele>40.0</ele>
        <time>2021-07-17T07:29:53Z</time>
      </trkpt>
      <trkpt lat="43.4476520" lon="-3.8837250">
        <ele>39.6</ele>
        <time>2021-07-17T07:29:54Z</time>
      </trkpt>
      <trkpt lat="43.4476880" lon="-3.8837760">
        <ele>39.2</ele>
        <time>2021-07-17T07:29:55Z</time>
      </trkpt>
      <trkpt lat="43.4477350" lon="-3.8838100">
        <ele>38.8</ele>
        <time>2021-07-17T07:29:56Z</time>
      </trkpt>
      <trkpt lat="43.4477790" lon="-3.8838440">
        <ele>38.4</ele>
        <time>2021-07-17T07:29:57Z</time>
      </trkpt>
      <trkpt lat="43.4479120" lon="-3.8839460">
        <ele>38.4</ele>
        <time>2021-07-17T07:30:00Z</time>
      </trkpt>
      <trkpt lat="43.4479330" lon="-3.8839770">
        <ele>38.4</ele>
        <time>2021-07-17T07:30:02Z</time>
      </trkpt>
      <trkpt lat="43.4479550" lon="-3.8840090">
        <ele>38.4</ele>
        <time>2021-07-17T07:30:03Z</time>
      </trkpt>
      <trkpt lat="43.4479760" lon="-3.8840400">
        <ele>38.4</ele>
        <time>2021-07-17T07:30:04Z</time>
      </trkpt>
      <trkpt lat="43.4481030" lon="-3.8842270">
        <ele>38.4</ele>
        <time>2021-07-17T07:30:06Z</time>
      </trkpt>
      <trkpt lat="43.4481310" lon="-3.8844140">
        <ele>38.4</ele>
        <time>2021-07-17T07:30:10Z</time>
      </trkpt>
      <trkpt lat="43.4481370" lon="-3.8844460">
        <ele>38.4</ele>
        <time>2021-07-17T07:30:11Z</time>
      </trkpt>
      <trkpt lat="43.4481370" lon="-3.8845920">
        <ele>38.8</ele>
        <time>2021-07-17T07:30:15Z</time>
      </trkpt>
      <trkpt lat="43.4481350" lon="-3.8846440">
        <ele>39.2</ele>
        <time>2021-07-17T07:30:16Z</time>
      </trkpt>
      <trkpt lat="43.4481310" lon="-3.8846960">
        <ele>39.6</ele>
        <time>2021-07-17T07:30:17Z</time>
      </trkpt>
      <trkpt lat="43.4481270" lon="-3.8847500">
        <ele>40.0</ele>
        <time>2021-07-17T07:30:18Z</time>
      </trkpt>
      <trkpt lat="43.4481220" lon="-3.8848000">
        <ele>40.4</ele>
        <time>2021-07-17T07:30:19Z</time>
      </trkpt>
      <trkpt lat="43.4481140" lon="-3.8849090">
        <ele>40.4</ele>
        <time>2021-07-17T07:30:21Z</time>
      </trkpt>
      <trkpt lat="43.4481060" lon="-3.8849640">
        <ele>40.4</ele>
        <time>2021-07-17T07:30:22Z</time>
      </trkpt>
      <trkpt lat="43.4480990" lon="-3.8850230">
        <ele>40.4</ele>
        <time>2021-07-17T07:30:23Z</time>
      </trkpt>
      <trkpt lat="43.4481000" lon="-3.8850790">
        <ele>40.4</ele>
        <time>2021-07-17T07:30:24Z</time>
      </trkpt>
      <trkpt lat="43.4480810" lon="-3.8852520">
        <ele>40.4</ele>
        <time>2021-07-17T07:30:27Z</time>
      </trkpt>
      <trkpt lat="43.4480740" lon="-3.8853110">
        <ele>40.4</ele>
        <time>2021-07-17T07:30:28Z</time>
      </trkpt>
      <trkpt lat="43.4480130" lon="-3.8857090">
        <ele>40.4</ele>
        <time>2021-07-17T07:30:35Z</time>
      </trkpt>
      <trkpt lat="43.4480040" lon="-3.8858280">
        <ele>40.4</ele>
        <time>2021-07-17T07:30:37Z</time>
      </trkpt>
      <trkpt lat="43.4479660" lon="-3.8861240">
        <ele>40.4</ele>
        <time>2021-07-17T07:30:42Z</time>
      </trkpt>
      <trkpt lat="43.4479480" lon="-3.8863630">
        <ele>40.4</ele>
        <time>2021-07-17T07:30:46Z</time>
      </trkpt>
      <trkpt lat="43.4478980" lon="-3.8867190">
        <ele>40.8</ele>
        <time>2021-07-17T07:30:52Z</time>
      </trkpt>
      <trkpt lat="43.4478870" lon="-3.8867780">
        <ele>41.8</ele>
        <time>2021-07-17T07:30:53Z</time>
      </trkpt>
      <trkpt lat="43.4478800" lon="-3.8868370">
        <ele>42.2</ele>
        <time>2021-07-17T07:30:54Z</time>
      </trkpt>
      <trkpt lat="43.4478720" lon="-3.8868960">
        <ele>42.6</ele>
        <time>2021-07-17T07:30:55Z</time>
      </trkpt>
      <trkpt lat="43.4478490" lon="-3.8870680">
        <ele>42.6</ele>
        <time>2021-07-17T07:30:58Z</time>
      </trkpt>
      <trkpt lat="43.4478180" lon="-3.8872490">
        <ele>42.6</ele>
        <time>2021-07-17T07:31:01Z</time>
      </trkpt>
      <trkpt lat="43.4477470" lon="-3.8876560">
        <ele>42.6</ele>
        <time>2021-07-17T07:31:08Z</time>
      </trkpt>
      <trkpt lat="43.4476950" lon="-3.8881600">
        <ele>42.6</ele>
        <time>2021-07-17T07:31:17Z</time>
      </trkpt>
      <trkpt lat="43.4476410" lon="-3.8886060">
        <ele>42.6</ele>
        <time>2021-07-17T07:31:26Z</time>
      </trkpt>
      <trkpt lat="43.4477160" lon="-3.8887550">
        <ele>42.6</ele>
        <time>2021-07-17T07:31:30Z</time>
      </trkpt>
      <trkpt lat="43.4477470" lon="-3.8887660">
        <ele>43.0</ele>
        <time>2021-07-17T07:31:31Z</time>
      </trkpt>
      <trkpt lat="43.4477820" lon="-3.8887620">
        <ele>43.4</ele>
        <time>2021-07-17T07:31:32Z</time>
      </trkpt>
      <trkpt lat="43.4478140" lon="-3.8887620">
        <ele>43.8</ele>
        <time>2021-07-17T07:31:33Z</time>
      </trkpt>
      <trkpt lat="43.4478440" lon="-3.8887610">
        <ele>44.2</ele>
        <time>2021-07-17T07:31:34Z</time>
      </trkpt>
      <trkpt lat="43.4478740" lon="-3.8887560">
        <ele>44.8</ele>
        <time>2021-07-17T07:31:35Z</time>
      </trkpt>
      <trkpt lat="43.4480260" lon="-3.8887690">
        <ele>44.8</ele>
        <time>2021-07-17T07:31:41Z</time>
      </trkpt>
      <trkpt lat="43.4481130" lon="-3.8888790">
        <ele>44.8</ele>
        <time>2021-07-17T07:31:46Z</time>
      </trkpt>
      <trkpt lat="43.4481060" lon="-3.8889130">
        <ele>44.8</ele>
        <time>2021-07-17T07:31:47Z</time>
      </trkpt>
      <trkpt lat="43.4480810" lon="-3.8889670">
        <ele>45.2</ele>
        <time>2021-07-17T07:31:49Z</time>
      </trkpt>
      <trkpt lat="43.4480600" lon="-3.8889950">
        <ele>45.6</ele>
        <time>2021-07-17T07:31:50Z</time>
      </trkpt>
      <trkpt lat="43.4480410" lon="-3.8890290">
        <ele>46.0</ele>
        <time>2021-07-17T07:31:51Z</time>
      </trkpt>
      <trkpt lat="43.4480230" lon="-3.8890690">
        <ele>46.4</ele>
        <time>2021-07-17T07:31:52Z</time>
      </trkpt>
      <trkpt lat="43.4480050" lon="-3.8891120">
        <ele>46.8</ele>
        <time>2021-07-17T07:31:53Z</time>
      </trkpt>
      <trkpt lat="43.4479890" lon="-3.8891550">
        <ele>46.8</ele>
        <time>2021-07-17T07:31:54Z</time>
      </trkpt>
      <trkpt lat="43.4479520" lon="-3.8892440">
        <ele>46.8</ele>
        <time>2021-07-17T07:31:56Z</time>
      </trkpt>
      <trkpt lat="43.4477840" lon="-3.8895870">
        <ele>46.8</ele>
        <time>2021-07-17T07:32:04Z</time>
      </trkpt>
      <trkpt lat="43.4476570" lon="-3.8898450">
        <ele>46.8</ele>
        <time>2021-07-17T07:32:10Z</time>
      </trkpt>
      <trkpt lat="43.4475470" lon="-3.8901170">
        <ele>46.8</ele>
        <time>2021-07-17T07:32:16Z</time>
      </trkpt>
      <trkpt lat="43.4474370" lon="-3.8904030">
        <ele>46.8</ele>
        <time>2021-07-17T07:32:22Z</time>
      </trkpt>
      <trkpt lat="43.4473550" lon="-3.8906000">
        <ele>47.2</ele>
        <time>2021-07-17T07:32:26Z</time>
      </trkpt>
      <trkpt lat="43.4473340" lon="-3.8906510">
        <ele>47.6</ele>
        <time>2021-07-17T07:32:27Z</time>
      </trkpt>
      <trkpt lat="43.4473160" lon="-3.8907020">
        <ele>48.0</ele>
        <time>2021-07-17T07:32:28Z</time>
      </trkpt>
      <trkpt lat="43.4472940" lon="-3.8907480">
        <ele>48.4</ele>
        <time>2021-07-17T07:32:29Z</time>
      </trkpt>
      <trkpt lat="43.4472730" lon="-3.8907960">
        <ele>48.8</ele>
        <time>2021-07-17T07:32:30Z</time>
      </trkpt>
      <trkpt lat="43.4471020" lon="-3.8911920">
        <ele>48.8</ele>
        <time>2021-07-17T07:32:39Z</time>
      </trkpt>
      <trkpt lat="43.4468680" lon="-3.8914900">
        <ele>48.8</ele>
        <time>2021-07-17T07:32:47Z</time>
      </trkpt>
      <trkpt lat="43.4466980" lon="-3.8917110">
        <ele>48.8</ele>
        <time>2021-07-17T07:32:53Z</time>
      </trkpt>
      <trkpt lat="43.4466600" lon="-3.8919030">
        <ele>48.8</ele>
        <time>2021-07-17T07:32:57Z</time>
      </trkpt>
      <trkpt lat="43.4466030" lon="-3.8920980">
        <ele>49.4</ele>
        <time>2021-07-17T07:33:02Z</time>
      </trkpt>
      <trkpt lat="43.4465900" lon="-3.8921320">
        <ele>49.8</ele>
        <time>2021-07-17T07:33:03Z</time>
      </trkpt>
      <trkpt lat="43.4465780" lon="-3.8921660">
        <ele>50.2</ele>
        <time>2021-07-17T07:33:04Z</time>
      </trkpt>
      <trkpt lat="43.4465700" lon="-3.8921980">
        <ele>50.6</ele>
        <time>2021-07-17T07:33:05Z</time>
      </trkpt>
      <trkpt lat="43.4465570" lon="-3.8922300">
        <ele>51.0</ele>
        <time>2021-07-17T07:33:06Z</time>
      </trkpt>
      <trkpt lat="43.4465220" lon="-3.8923770">
        <ele>51.4</ele>
        <time>2021-07-17T07:33:10Z</time>
      </trkpt>
      <trkpt lat="43.4465130" lon="-3.8924140">
        <ele>51.8</ele>
        <time>2021-07-17T07:33:11Z</time>
      </trkpt>
      <trkpt lat="43.4464960" lon="-3.8924460">
        <ele>52.2</ele>
        <time>2021-07-17T07:33:12Z</time>
      </trkpt>
      <trkpt lat="43.4464810" lon="-3.8924830">
        <ele>52.6</ele>
        <time>2021-07-17T07:33:13Z</time>
      </trkpt>
      <trkpt lat="43.4464660" lon="-3.8925180">
        <ele>53.0</ele>
        <time>2021-07-17T07:33:14Z</time>
      </trkpt>
      <trkpt lat="43.4464380" lon="-3.8925980">
        <ele>53.0</ele>
        <time>2021-07-17T07:33:16Z</time>
      </trkpt>
      <trkpt lat="43.4464030" lon="-3.8928270">
        <ele>53.0</ele>
        <time>2021-07-17T07:33:22Z</time>
      </trkpt>
      <trkpt lat="43.4465080" lon="-3.8929320">
        <ele>53.0</ele>
        <time>2021-07-17T07:33:26Z</time>
      </trkpt>
      <trkpt lat="43.4466750" lon="-3.8930660">
        <ele>53.0</ele>
        <time>2021-07-17T07:33:31Z</time>
      </trkpt>
      <trkpt lat="43.4467210" lon="-3.8930960">
        <ele>53.0</ele>
        <time>2021-07-17T07:33:33Z</time>
      </trkpt>
      <trkpt lat="43.4467630" lon="-3.8931630">
        <ele>53.0</ele>
        <time>2021-07-17T07:33:36Z</time>
      </trkpt>
      <trkpt lat="43.4467660" lon="-3.8932160">
        <ele>53.0</ele>
        <time>2021-07-17T07:33:38Z</time>
      </trkpt>
      <trkpt lat="43.4467410" lon="-3.8933110">
        <ele>53.0</ele>
        <time>2021-07-17T07:33:41Z</time>
      </trkpt>
      <trkpt lat="43.4467120" lon="-3.8933680">
        <ele>53.0</ele>
        <time>2021-07-17T07:33:43Z</time>
      </trkpt>
      <trkpt lat="43.4466810" lon="-3.8934180">
        <ele>53.0</ele>
        <time>2021-07-17T07:33:46Z</time>
      </trkpt>
      <trkpt lat="43.4466630" lon="-3.8934750">
        <ele>53.0</ele>
        <time>2021-07-17T07:33:48Z</time>
      </trkpt>
      <trkpt lat="43.4466520" lon="-3.8935740">
        <ele>53.0</ele>
        <time>2021-07-17T07:33:51Z</time>
      </trkpt>
      <trkpt lat="43.4466560" lon="-3.8936670">
        <ele>53.0</ele>
        <time>2021-07-17T07:33:53Z</time>
      </trkpt>
      <trkpt lat="43.4465840" lon="-3.8938490">
        <ele>53.0</ele>
        <time>2021-07-17T07:33:57Z</time>
      </trkpt>
      <trkpt lat="43.4463920" lon="-3.8943030">
        <ele>53.0</ele>
        <time>2021-07-17T07:34:06Z</time>
      </trkpt>
      <trkpt lat="43.4463700" lon="-3.8943550">
        <ele>53.0</ele>
        <time>2021-07-17T07:34:07Z</time>
      </trkpt>
      <trkpt lat="43.4462280" lon="-3.8947130">
        <ele>53.0</ele>
        <time>2021-07-17T07:34:14Z</time>
      </trkpt>
      <trkpt lat="43.4461110" lon="-3.8950220">
        <ele>53.0</ele>
        <time>2021-07-17T07:34:20Z</time>
      </trkpt>
      <trkpt lat="43.4460290" lon="-3.8952350">
        <ele>53.0</ele>
        <time>2021-07-17T07:34:24Z</time>
      </trkpt>
      <trkpt lat="43.4459140" lon="-3.8955490">
        <ele>53.0</ele>
        <time>2021-07-17T07:34:30Z</time>
      </trkpt>
      <trkpt lat="43.4458540" lon="-3.8957010">
        <ele>53.0</ele>
        <time>2021-07-17T07:34:33Z</time>
      </trkpt>
      <trkpt lat="43.4456440" lon="-3.8961060">
        <ele>53.0</ele>
        <time>2021-07-17T07:34:42Z</time>
      </trkpt>
      <trkpt lat="43.4455510" lon="-3.8961760">
        <ele>53.6</ele>
        <time>2021-07-17T07:34:45Z</time>
      </trkpt>
      <trkpt lat="43.4455210" lon="-3.8961920">
        <ele>54.0</ele>
        <time>2021-07-17T07:34:46Z</time>
      </trkpt>
      <trkpt lat="43.4454910" lon="-3.8962040">
        <ele>54.4</ele>
        <time>2021-07-17T07:34:47Z</time>
      </trkpt>
      <trkpt lat="43.4454610" lon="-3.8962130">
        <ele>54.8</ele>
        <time>2021-07-17T07:34:48Z</time>
      </trkpt>
      <trkpt lat="43.4454320" lon="-3.8962200">
        <ele>55.2</ele>
        <time>2021-07-17T07:34:49Z</time>
      </trkpt>
      <trkpt lat="43.4453240" lon="-3.8962800">
        <ele>55.2</ele>
        <time>2021-07-17T07:34:53Z</time>
      </trkpt>
      <trkpt lat="43.4452970" lon="-3.8963030">
        <ele>55.2</ele>
        <time>2021-07-17T07:34:54Z</time>
      </trkpt>
      <trkpt lat="43.4451790" lon="-3.8964850">
        <ele>56.0</ele>
        <time>2021-07-17T07:35:00Z</time>
      </trkpt>
      <trkpt lat="43.4451640" lon="-3.8965260">
        <ele>56.6</ele>
        <time>2021-07-17T07:35:01Z</time>
      </trkpt>
      <trkpt lat="43.4451560" lon="-3.8965680">
        <ele>57.0</ele>
        <time>2021-07-17T07:35:02Z</time>
      </trkpt>
      <trkpt lat="43.4451430" lon="-3.8966050">
        <ele>57.4</ele>
        <time>2021-07-17T07:35:03Z</time>
      </trkpt>
      <trkpt lat="43.4451140" lon="-3.8967320">
        <ele>57.4</ele>
        <time>2021-07-17T07:35:06Z</time>
      </trkpt>
      <trkpt lat="43.4450230" lon="-3.8969630">
        <ele>57.4</ele>
        <time>2021-07-17T07:35:12Z</time>
      </trkpt>
      <trkpt lat="43.4450060" lon="-3.8970020">
        <ele>57.4</ele>
        <time>2021-07-17T07:35:13Z</time>
      </trkpt>
      <trkpt lat="43.4448450" lon="-3.8973610">
        <ele>57.4</ele>
        <time>2021-07-17T07:35:21Z</time>
      </trkpt>
      <trkpt lat="43.4447710" lon="-3.8976730">
        <ele>57.4</ele>
        <time>2021-07-17T07:35:27Z</time>
      </trkpt>
      <trkpt lat="43.4447110" lon="-3.8979260">
        <ele>57.4</ele>
        <time>2021-07-17T07:35:32Z</time>
      </trkpt>
      <trkpt lat="43.4446690" lon="-3.8980730">
        <ele>57.4</ele>
        <time>2021-07-17T07:35:35Z</time>
      </trkpt>
      <trkpt lat="43.4445610" lon="-3.8983590">
        <ele>57.4</ele>
        <time>2021-07-17T07:35:41Z</time>
      </trkpt>
      <trkpt lat="43.4445400" lon="-3.8984010">
        <ele>57.8</ele>
        <time>2021-07-17T07:35:42Z</time>
      </trkpt>
      <trkpt lat="43.4445210" lon="-3.8984440">
        <ele>58.2</ele>
        <time>2021-07-17T07:35:43Z</time>
      </trkpt>
      <trkpt lat="43.4444980" lon="-3.8984890">
        <ele>58.6</ele>
        <time>2021-07-17T07:35:44Z</time>
      </trkpt>
      <trkpt lat="43.4444770" lon="-3.8985310">
        <ele>59.0</ele>
        <time>2021-07-17T07:35:45Z</time>
      </trkpt>
      <trkpt lat="43.4444580" lon="-3.8985720">
        <ele>59.4</ele>
        <time>2021-07-17T07:35:46Z</time>
      </trkpt>
      <trkpt lat="43.4443750" lon="-3.8987510">
        <ele>59.4</ele>
        <time>2021-07-17T07:35:50Z</time>
      </trkpt>
      <trkpt lat="43.4442320" lon="-3.8991730">
        <ele>59.4</ele>
        <time>2021-07-17T07:35:59Z</time>
      </trkpt>
      <trkpt lat="43.4441880" lon="-3.8994940">
        <ele>59.4</ele>
        <time>2021-07-17T07:36:06Z</time>
      </trkpt>
      <trkpt lat="43.4440770" lon="-3.8997480">
        <ele>59.4</ele>
        <time>2021-07-17T07:36:12Z</time>
      </trkpt>
      <trkpt lat="43.4438940" lon="-3.8998630">
        <ele>59.4</ele>
        <time>2021-07-17T07:36:17Z</time>
      </trkpt>
      <trkpt lat="43.4437260" lon="-3.9000110">
        <ele>59.8</ele>
        <time>2021-07-17T07:36:22Z</time>
      </trkpt>
      <trkpt lat="43.4436950" lon="-3.9000490">
        <ele>60.2</ele>
        <time>2021-07-17T07:36:23Z</time>
      </trkpt>
      <trkpt lat="43.4436680" lon="-3.9000840">
        <ele>60.6</ele>
        <time>2021-07-17T07:36:24Z</time>
      </trkpt>
      <trkpt lat="43.4436400" lon="-3.9001250">
        <ele>61.2</ele>
        <time>2021-07-17T07:36:25Z</time>
      </trkpt>
      <trkpt lat="43.4436130" lon="-3.9001680">
        <ele>61.6</ele>
        <time>2021-07-17T07:36:26Z</time>
      </trkpt>
      <trkpt lat="43.4434880" lon="-3.9004180">
        <ele>61.6</ele>
        <time>2021-07-17T07:36:32Z</time>
      </trkpt>
      <trkpt lat="43.4433970" lon="-3.9006680">
        <ele>61.6</ele>
        <time>2021-07-17T07:36:37Z</time>
      </trkpt>
      <trkpt lat="43.4433470" lon="-3.9008150">
        <ele>61.6</ele>
        <time>2021-07-17T07:36:40Z</time>
      </trkpt>
      <trkpt lat="43.4432140" lon="-3.9011810">
        <ele>61.6</ele>
        <time>2021-07-17T07:36:47Z</time>
      </trkpt>
      <trkpt lat="43.4431310" lon="-3.9014100">
        <ele>61.6</ele>
        <time>2021-07-17T07:36:51Z</time>
      </trkpt>
      <trkpt lat="43.4430110" lon="-3.9017240">
        <ele>61.6</ele>
        <time>2021-07-17T07:36:56Z</time>
      </trkpt>
      <trkpt lat="43.4428910" lon="-3.9019750">
        <ele>61.6</ele>
        <time>2021-07-17T07:37:00Z</time>
      </trkpt>
      <trkpt lat="43.4428390" lon="-3.9020930">
        <ele>61.6</ele>
        <time>2021-07-17T07:37:02Z</time>
      </trkpt>
      <trkpt lat="43.4428120" lon="-3.9021550">
        <ele>61.0</ele>
        <time>2021-07-17T07:37:03Z</time>
      </trkpt>
      <trkpt lat="43.4427880" lon="-3.9022230">
        <ele>60.6</ele>
        <time>2021-07-17T07:37:04Z</time>
      </trkpt>
      <trkpt lat="43.4427690" lon="-3.9022870">
        <ele>60.2</ele>
        <time>2021-07-17T07:37:05Z</time>
      </trkpt>
      <trkpt lat="43.4427540" lon="-3.9023560">
        <ele>59.8</ele>
        <time>2021-07-17T07:37:06Z</time>
      </trkpt>
      <trkpt lat="43.4427450" lon="-3.9024180">
        <ele>59.4</ele>
        <time>2021-07-17T07:37:07Z</time>
      </trkpt>
      <trkpt lat="43.4427350" lon="-3.9024800">
        <ele>59.4</ele>
        <time>2021-07-17T07:37:08Z</time>
      </trkpt>
      <trkpt lat="43.4427250" lon="-3.9026720">
        <ele>59.4</ele>
        <time>2021-07-17T07:37:11Z</time>
      </trkpt>
      <trkpt lat="43.4427290" lon="-3.9028700">
        <ele>59.4</ele>
        <time>2021-07-17T07:37:14Z</time>
      </trkpt>
      <trkpt lat="43.4427450" lon="-3.9032070">
        <ele>59.4</ele>
        <time>2021-07-17T07:37:19Z</time>
      </trkpt>
      <trkpt lat="43.4427620" lon="-3.9034200">
        <ele>59.4</ele>
        <time>2021-07-17T07:37:22Z</time>
      </trkpt>
      <trkpt lat="43.4427770" lon="-3.9037040">
        <ele>58.8</ele>
        <time>2021-07-17T07:37:26Z</time>
      </trkpt>
      <trkpt lat="43.4427830" lon="-3.9037760">
        <ele>58.0</ele>
        <time>2021-07-17T07:37:27Z</time>
      </trkpt>
      <trkpt lat="43.4427890" lon="-3.9038510">
        <ele>57.6</ele>
        <time>2021-07-17T07:37:28Z</time>
      </trkpt>
      <trkpt lat="43.4427920" lon="-3.9039220">
        <ele>57.2</ele>
        <time>2021-07-17T07:37:29Z</time>
      </trkpt>
      <trkpt lat="43.4427960" lon="-3.9039940">
        <ele>57.2</ele>
        <time>2021-07-17T07:37:30Z</time>
      </trkpt>
      <trkpt lat="43.4428240" lon="-3.9044400">
        <ele>57.2</ele>
        <time>2021-07-17T07:37:37Z</time>
      </trkpt>
      <trkpt lat="43.4428450" lon="-3.9046260">
        <ele>57.2</ele>
        <time>2021-07-17T07:37:42Z</time>
      </trkpt>
      <trkpt lat="43.4428820" lon="-3.9046890">
        <ele>56.8</ele>
        <time>2021-07-17T07:37:47Z</time>
      </trkpt>
      <trkpt lat="43.4428820" lon="-3.9046890">
        <ele>56.4</ele>
        <time>2021-07-17T07:37:48Z</time>
      </trkpt>
      <trkpt lat="43.4428970" lon="-3.9046980">
        <ele>55.2</ele>
        <time>2021-07-17T07:37:57Z</time>
      </trkpt>
      <trkpt lat="43.4428940" lon="-3.9047450">
        <ele>55.2</ele>
        <time>2021-07-17T07:37:59Z</time>
      </trkpt>
      <trkpt lat="43.4428870" lon="-3.9048310">
        <ele>55.2</ele>
        <time>2021-07-17T07:38:04Z</time>
      </trkpt>
      <trkpt lat="43.4429160" lon="-3.9048210">
        <ele>55.2</ele>
        <time>2021-07-17T07:39:11Z</time>
      </trkpt>
      <trkpt lat="43.4429210" lon="-3.9049890">
        <ele>55.2</ele>
        <time>2021-07-17T07:39:16Z</time>
      </trkpt>
      <trkpt lat="43.4429380" lon="-3.9052270">
        <ele>55.2</ele>
        <time>2021-07-17T07:39:21Z</time>
      </trkpt>
      <trkpt lat="43.4429490" lon="-3.9053440">
        <ele>55.2</ele>
        <time>2021-07-17T07:39:23Z</time>
      </trkpt>
      <trkpt lat="43.4429970" lon="-3.9058280">
        <ele>55.2</ele>
        <time>2021-07-17T07:39:31Z</time>
      </trkpt>
      <trkpt lat="43.4430560" lon="-3.9062410">
        <ele>55.2</ele>
        <time>2021-07-17T07:39:37Z</time>
      </trkpt>
      <trkpt lat="43.4430740" lon="-3.9065950">
        <ele>55.2</ele>
        <time>2021-07-17T07:39:42Z</time>
      </trkpt>
      <trkpt lat="43.4430630" lon="-3.9066580">
        <ele>55.2</ele>
        <time>2021-07-17T07:39:43Z</time>
      </trkpt>
      <trkpt lat="43.4429980" lon="-3.9069240">
        <ele>55.2</ele>
        <time>2021-07-17T07:39:48Z</time>
      </trkpt>
      <trkpt lat="43.4429490" lon="-3.9070810">
        <ele>55.2</ele>
        <time>2021-07-17T07:39:52Z</time>
      </trkpt>
      <trkpt lat="43.4429360" lon="-3.9071630">
        <ele>55.2</ele>
        <time>2021-07-17T07:39:54Z</time>
      </trkpt>
      <trkpt lat="43.4429330" lon="-3.9072060">
        <ele>55.2</ele>
        <time>2021-07-17T07:39:55Z</time>
      </trkpt>
      <trkpt lat="43.4429290" lon="-3.9073810">
        <ele>55.2</ele>
        <time>2021-07-17T07:39:59Z</time>
      </trkpt>
      <trkpt lat="43.4429430" lon="-3.9075070">
        <ele>55.2</ele>
        <time>2021-07-17T07:40:02Z</time>
      </trkpt>
      <trkpt lat="43.4430120" lon="-3.9077710">
        <ele>55.2</ele>
        <time>2021-07-17T07:40:09Z</time>
      </trkpt>
      <trkpt lat="43.4431050" lon="-3.9079700">
        <ele>55.2</ele>
        <time>2021-07-17T07:40:15Z</time>
      </trkpt>
      <trkpt lat="43.4431240" lon="-3.9080350">
        <ele>55.2</ele>
        <time>2021-07-17T07:40:17Z</time>
      </trkpt>
      <trkpt lat="43.4431410" lon="-3.9081410">
        <ele>56.0</ele>
        <time>2021-07-17T07:40:20Z</time>
      </trkpt>
      <trkpt lat="43.4431390" lon="-3.9081800">
        <ele>56.4</ele>
        <time>2021-07-17T07:40:21Z</time>
      </trkpt>
      <trkpt lat="43.4431370" lon="-3.9082210">
        <ele>56.8</ele>
        <time>2021-07-17T07:40:22Z</time>
      </trkpt>
      <trkpt lat="43.4431380" lon="-3.9082630">
        <ele>57.2</ele>
        <time>2021-07-17T07:40:23Z</time>
      </trkpt>
      <trkpt lat="43.4431830" lon="-3.9084430">
        <ele>57.2</ele>
        <time>2021-07-17T07:40:27Z</time>
      </trkpt>
      <trkpt lat="43.4432550" lon="-3.9087210">
        <ele>57.2</ele>
        <time>2021-07-17T07:40:32Z</time>
      </trkpt>
      <trkpt lat="43.4432880" lon="-3.9088400">
        <ele>57.2</ele>
        <time>2021-07-17T07:40:34Z</time>
      </trkpt>
      <trkpt lat="43.4433570" lon="-3.9090810">
        <ele>57.2</ele>
        <time>2021-07-17T07:40:38Z</time>
      </trkpt>
      <trkpt lat="43.4433920" lon="-3.9091980">
        <ele>57.2</ele>
        <time>2021-07-17T07:40:40Z</time>
      </trkpt>
      <trkpt lat="43.4434520" lon="-3.9093740">
        <ele>57.2</ele>
        <time>2021-07-17T07:40:43Z</time>
      </trkpt>
      <trkpt lat="43.4435610" lon="-3.9097470">
        <ele>57.2</ele>
        <time>2021-07-17T07:40:50Z</time>
      </trkpt>
      <trkpt lat="43.4435840" lon="-3.9098540">
        <ele>57.2</ele>
        <time>2021-07-17T07:40:52Z</time>
      </trkpt>
      <trkpt lat="43.4435940" lon="-3.9101850">
        <ele>57.2</ele>
        <time>2021-07-17T07:40:58Z</time>
      </trkpt>
      <trkpt lat="43.4436050" lon="-3.9103490">
        <ele>57.2</ele>
        <time>2021-07-17T07:41:01Z</time>
      </trkpt>
      <trkpt lat="43.4436180" lon="-3.9104660">
        <ele>57.2</ele>
        <time>2021-07-17T07:41:03Z</time>
      </trkpt>
      <trkpt lat="43.4436490" lon="-3.9105790">
        <ele>57.2</ele>
        <time>2021-07-17T07:41:05Z</time>
      </trkpt>
      <trkpt lat="43.4437600" lon="-3.9107500">
        <ele>57.2</ele>
        <time>2021-07-17T07:41:09Z</time>
      </trkpt>
      <trkpt lat="43.4437940" lon="-3.9107810">
        <ele>57.2</ele>
        <time>2021-07-17T07:41:10Z</time>
      </trkpt>
      <trkpt lat="43.4438280" lon="-3.9108120">
        <ele>57.2</ele>
        <time>2021-07-17T07:41:11Z</time>
      </trkpt>
      <trkpt lat="43.4439510" lon="-3.9109530">
        <ele>57.2</ele>
        <time>2021-07-17T07:41:15Z</time>
      </trkpt>
      <trkpt lat="43.4440000" lon="-3.9110400">
        <ele>57.2</ele>
        <time>2021-07-17T07:41:17Z</time>
      </trkpt>
      <trkpt lat="43.4440220" lon="-3.9110900">
        <ele>57.2</ele>
        <time>2021-07-17T07:41:18Z</time>
      </trkpt>
      <trkpt lat="43.4440610" lon="-3.9112010">
        <ele>57.2</ele>
        <time>2021-07-17T07:41:20Z</time>
      </trkpt>
      <trkpt lat="43.4441030" lon="-3.9114260">
        <ele>57.2</ele>
        <time>2021-07-17T07:41:24Z</time>
      </trkpt>
      <trkpt lat="43.4441120" lon="-3.9114810">
        <ele>57.2</ele>
        <time>2021-07-17T07:41:25Z</time>
      </trkpt>
      <trkpt lat="43.4441180" lon="-3.9115380">
        <ele>57.2</ele>
        <time>2021-07-17T07:41:26Z</time>
      </trkpt>
      <trkpt lat="43.4441330" lon="-3.9117170">
        <ele>57.2</ele>
        <time>2021-07-17T07:41:29Z</time>
      </trkpt>
      <trkpt lat="43.4441320" lon="-3.9117760">
        <ele>57.2</ele>
        <time>2021-07-17T07:41:30Z</time>
      </trkpt>
      <trkpt lat="43.4440640" lon="-3.9120440">
        <ele>57.2</ele>
        <time>2021-07-17T07:41:35Z</time>
      </trkpt>
      <trkpt lat="43.4440410" lon="-3.9120950">
        <ele>57.2</ele>
        <time>2021-07-17T07:41:36Z</time>
      </trkpt>
      <trkpt lat="43.4439030" lon="-3.9124050">
        <ele>57.2</ele>
        <time>2021-07-17T07:41:42Z</time>
      </trkpt>
      <trkpt lat="43.4436850" lon="-3.9128360">
        <ele>57.2</ele>
        <time>2021-07-17T07:41:51Z</time>
      </trkpt>
      <trkpt lat="43.4436040" lon="-3.9129670">
        <ele>57.2</ele>
        <time>2021-07-17T07:41:54Z</time>
      </trkpt>
      <trkpt lat="43.4434760" lon="-3.9131270">
        <ele>57.2</ele>
        <time>2021-07-17T07:41:58Z</time>
      </trkpt>
      <trkpt lat="43.4434410" lon="-3.9131640">
        <ele>58.0</ele>
        <time>2021-07-17T07:41:59Z</time>
      </trkpt>
      <trkpt lat="43.4434070" lon="-3.9131960">
        <ele>58.4</ele>
        <time>2021-07-17T07:42:00Z</time>
      </trkpt>
      <trkpt lat="43.4433700" lon="-3.9132240">
        <ele>58.8</ele>
        <time>2021-07-17T07:42:01Z</time>
      </trkpt>
      <trkpt lat="43.4433330" lon="-3.9132480">
        <ele>59.2</ele>
        <time>2021-07-17T07:42:02Z</time>
      </trkpt>
      <trkpt lat="43.4432540" lon="-3.9132920">
        <ele>59.2</ele>
        <time>2021-07-17T07:42:04Z</time>
      </trkpt>
      <trkpt lat="43.4429600" lon="-3.9134670">
        <ele>59.2</ele>
        <time>2021-07-17T07:42:12Z</time>
      </trkpt>
      <trkpt lat="43.4426470" lon="-3.9136400">
        <ele>59.2</ele>
        <time>2021-07-17T07:42:21Z</time>
      </trkpt>
      <trkpt lat="43.4425320" lon="-3.9137190">
        <ele>59.8</ele>
        <time>2021-07-17T07:42:25Z</time>
      </trkpt>
      <trkpt lat="43.4425030" lon="-3.9137370">
        <ele>60.2</ele>
        <time>2021-07-17T07:42:26Z</time>
      </trkpt>
      <trkpt lat="43.4424740" lon="-3.9137580">
        <ele>60.6</ele>
        <time>2021-07-17T07:42:27Z</time>
      </trkpt>
      <trkpt lat="43.4424470" lon="-3.9137790">
        <ele>61.0</ele>
        <time>2021-07-17T07:42:28Z</time>
      </trkpt>
      <trkpt lat="43.4424210" lon="-3.9138030">
        <ele>61.4</ele>
        <time>2021-07-17T07:42:29Z</time>
      </trkpt>
      <trkpt lat="43.4422920" lon="-3.9139830">
        <ele>61.4</ele>
        <time>2021-07-17T07:42:35Z</time>
      </trkpt>
      <trkpt lat="43.4422720" lon="-3.9140110">
        <ele>61.4</ele>
        <time>2021-07-17T07:42:36Z</time>
      </trkpt>
      <trkpt lat="43.4421610" lon="-3.9141960">
        <ele>61.4</ele>
        <time>2021-07-17T07:42:42Z</time>
      </trkpt>
      <trkpt lat="43.4421470" lon="-3.9142260">
        <ele>61.8</ele>
        <time>2021-07-17T07:42:43Z</time>
      </trkpt>
      <trkpt lat="43.4421350" lon="-3.9142560">
        <ele>62.2</ele>
        <time>2021-07-17T07:42:44Z</time>
      </trkpt>
      <trkpt lat="43.4421220" lon="-3.9142850">
        <ele>62.6</ele>
        <time>2021-07-17T07:42:45Z</time>
      </trkpt>
      <trkpt lat="43.4421050" lon="-3.9143140">
        <ele>63.0</ele>
        <time>2021-07-17T07:42:46Z</time>
      </trkpt>
      <trkpt lat="43.4420880" lon="-3.9143420">
        <ele>63.4</ele>
        <time>2021-07-17T07:42:47Z</time>
      </trkpt>
      <trkpt lat="43.4420320" lon="-3.9144630">
        <ele>63.4</ele>
        <time>2021-07-17T07:42:51Z</time>
      </trkpt>
      <trkpt lat="43.4419850" lon="-3.9145500">
        <ele>63.8</ele>
        <time>2021-07-17T07:42:54Z</time>
      </trkpt>
      <trkpt lat="43.4419720" lon="-3.9145800">
        <ele>64.4</ele>
        <time>2021-07-17T07:42:55Z</time>
      </trkpt>
      <trkpt lat="43.4419580" lon="-3.9146120">
        <ele>64.8</ele>
        <time>2021-07-17T07:42:56Z</time>
      </trkpt>
      <trkpt lat="43.4419480" lon="-3.9146430">
        <ele>65.2</ele>
        <time>2021-07-17T07:42:57Z</time>
      </trkpt>
      <trkpt lat="43.4419380" lon="-3.9146730">
        <ele>65.6</ele>
        <time>2021-07-17T07:42:58Z</time>
      </trkpt>
      <trkpt lat="43.4418810" lon="-3.9148580">
        <ele>65.6</ele>
        <time>2021-07-17T07:43:04Z</time>
      </trkpt>
      <trkpt lat="43.4418720" lon="-3.9148890">
        <ele>65.6</ele>
        <time>2021-07-17T07:43:05Z</time>
      </trkpt>
      <trkpt lat="43.4418600" lon="-3.9149200">
        <ele>66.0</ele>
        <time>2021-07-17T07:43:06Z</time>
      </trkpt>
      <trkpt lat="43.4418510" lon="-3.9149530">
        <ele>66.4</ele>
        <time>2021-07-17T07:43:07Z</time>
      </trkpt>
      <trkpt lat="43.4418410" lon="-3.9149870">
        <ele>66.8</ele>
        <time>2021-07-17T07:43:08Z</time>
      </trkpt>
      <trkpt lat="43.4418320" lon="-3.9150210">
        <ele>67.2</ele>
        <time>2021-07-17T07:43:09Z</time>
      </trkpt>
      <trkpt lat="43.4418240" lon="-3.9150570">
        <ele>67.6</ele>
        <time>2021-07-17T07:43:10Z</time>
      </trkpt>
      <trkpt lat="43.4417860" lon="-3.9151990">
        <ele>67.6</ele>
        <time>2021-07-17T07:43:14Z</time>
      </trkpt>
      <trkpt lat="43.4416990" lon="-3.9154510">
        <ele>67.6</ele>
        <time>2021-07-17T07:43:21Z</time>
      </trkpt>
      <trkpt lat="43.4416840" lon="-3.9154870">
        <ele>68.2</ele>
        <time>2021-07-17T07:43:22Z</time>
      </trkpt>
      <trkpt lat="43.4416700" lon="-3.9155210">
        <ele>68.6</ele>
        <time>2021-07-17T07:43:23Z</time>
      </trkpt>
      <trkpt lat="43.4416560" lon="-3.9155520">
        <ele>69.0</ele>
        <time>2021-07-17T07:43:24Z</time>
      </trkpt>
      <trkpt lat="43.4416420" lon="-3.9155830">
        <ele>69.4</ele>
        <time>2021-07-17T07:43:25Z</time>
      </trkpt>
      <trkpt lat="43.4416270" lon="-3.9156090">
        <ele>69.8</ele>
        <time>2021-07-17T07:43:26Z</time>
      </trkpt>
      <trkpt lat="43.4415950" lon="-3.9156610">
        <ele>69.8</ele>
        <time>2021-07-17T07:43:28Z</time>
      </trkpt>
      <trkpt lat="43.4414870" lon="-3.9158830">
        <ele>69.8</ele>
        <time>2021-07-17T07:43:36Z</time>
      </trkpt>
      <trkpt lat="43.4414750" lon="-3.9159090">
        <ele>70.2</ele>
        <time>2021-07-17T07:43:37Z</time>
      </trkpt>
      <trkpt lat="43.4414640" lon="-3.9159360">
        <ele>71.2</ele>
        <time>2021-07-17T07:43:38Z</time>
      </trkpt>
      <trkpt lat="43.4414510" lon="-3.9159620">
        <ele>71.6</ele>
        <time>2021-07-17T07:43:39Z</time>
      </trkpt>
      <trkpt lat="43.4414380" lon="-3.9159900">
        <ele>72.0</ele>
        <time>2021-07-17T07:43:40Z</time>
      </trkpt>
      <trkpt lat="43.4413900" lon="-3.9161030">
        <ele>72.0</ele>
        <time>2021-07-17T07:43:44Z</time>
      </trkpt>
      <trkpt lat="43.4413060" lon="-3.9162910">
        <ele>72.4</ele>
        <time>2021-07-17T07:43:51Z</time>
      </trkpt>
      <trkpt lat="43.4412970" lon="-3.9163210">
        <ele>72.8</ele>
        <time>2021-07-17T07:43:52Z</time>
      </trkpt>
      <trkpt lat="43.4412880" lon="-3.9163540">
        <ele>73.2</ele>
        <time>2021-07-17T07:43:53Z</time>
      </trkpt>
      <trkpt lat="43.4412780" lon="-3.9163870">
        <ele>73.6</ele>
        <time>2021-07-17T07:43:54Z</time>
      </trkpt>
      <trkpt lat="43.4412670" lon="-3.9164210">
        <ele>74.0</ele>
        <time>2021-07-17T07:43:55Z</time>
      </trkpt>
      <trkpt lat="43.4412060" lon="-3.9165880">
        <ele>74.0</ele>
        <time>2021-07-17T07:44:00Z</time>
      </trkpt>
      <trkpt lat="43.4411570" lon="-3.9166880">
        <ele>74.0</ele>
        <time>2021-07-17T07:44:03Z</time>
      </trkpt>
      <trkpt lat="43.4410720" lon="-3.9168800">
        <ele>74.0</ele>
        <time>2021-07-17T07:44:09Z</time>
      </trkpt>
      <trkpt lat="43.4410370" lon="-3.9169660">
        <ele>74.4</ele>
        <time>2021-07-17T07:44:12Z</time>
      </trkpt>
      <trkpt lat="43.4410240" lon="-3.9169960">
        <ele>75.0</ele>
        <time>2021-07-17T07:44:13Z</time>
      </trkpt>
      <trkpt lat="43.4410120" lon="-3.9170250">
        <ele>75.4</ele>
        <time>2021-07-17T07:44:14Z</time>
      </trkpt>
      <trkpt lat="43.4410020" lon="-3.9170560">
        <ele>75.8</ele>
        <time>2021-07-17T07:44:15Z</time>
      </trkpt>
      <trkpt lat="43.4409930" lon="-3.9170880">
        <ele>76.2</ele>
        <time>2021-07-17T07:44:16Z</time>
      </trkpt>
      <trkpt lat="43.4409820" lon="-3.9171210">
        <ele>76.2</ele>
        <time>2021-07-17T07:44:17Z</time>
      </trkpt>
      <trkpt lat="43.4408950" lon="-3.9173290">
        <ele>76.2</ele>
        <time>2021-07-17T07:44:24Z</time>
      </trkpt>
      <trkpt lat="43.4408590" lon="-3.9174260">
        <ele>76.6</ele>
        <time>2021-07-17T07:44:27Z</time>
      </trkpt>
      <trkpt lat="43.4408460" lon="-3.9174580">
        <ele>77.0</ele>
        <time>2021-07-17T07:44:28Z</time>
      </trkpt>
      <trkpt lat="43.4408320" lon="-3.9174890">
        <ele>77.4</ele>
        <time>2021-07-17T07:44:29Z</time>
      </trkpt>
      <trkpt lat="43.4408180" lon="-3.9175180">
        <ele>78.0</ele>
        <time>2021-07-17T07:44:30Z</time>
      </trkpt>
      <trkpt lat="43.4408090" lon="-3.9175480">
        <ele>78.4</ele>
        <time>2021-07-17T07:44:31Z</time>
      </trkpt>
      <trkpt lat="43.4407320" lon="-3.9177750">
        <ele>78.4</ele>
        <time>2021-07-17T07:44:38Z</time>
      </trkpt>
      <trkpt lat="43.4406890" lon="-3.9179270">
        <ele>78.8</ele>
        <time>2021-07-17T07:44:43Z</time>
      </trkpt>
      <trkpt lat="43.4406800" lon="-3.9179540">
        <ele>79.2</ele>
        <time>2021-07-17T07:44:44Z</time>
      </trkpt>
      <trkpt lat="43.4406720" lon="-3.9179810">
        <ele>79.6</ele>
        <time>2021-07-17T07:44:45Z</time>
      </trkpt>
      <trkpt lat="43.4406620" lon="-3.9180070">
        <ele>80.0</ele>
        <time>2021-07-17T07:44:46Z</time>
      </trkpt>
      <trkpt lat="43.4406520" lon="-3.9180330">
        <ele>80.4</ele>
        <time>2021-07-17T07:44:47Z</time>
      </trkpt>
      <trkpt lat="43.4405870" lon="-3.9182430">
        <ele>80.8</ele>
        <time>2021-07-17T07:44:55Z</time>
      </trkpt>
      <trkpt lat="43.4405810" lon="-3.9182660">
        <ele>81.2</ele>
        <time>2021-07-17T07:44:56Z</time>
      </trkpt>
      <trkpt lat="43.4405740" lon="-3.9182930">
        <ele>81.6</ele>
        <time>2021-07-17T07:44:57Z</time>
      </trkpt>
      <trkpt lat="43.4405670" lon="-3.9183140">
        <ele>82.0</ele>
        <time>2021-07-17T07:44:58Z</time>
      </trkpt>
      <trkpt lat="43.4405600" lon="-3.9183350">
        <ele>82.4</ele>
        <time>2021-07-17T07:44:59Z</time>
      </trkpt>
      <trkpt lat="43.4405490" lon="-3.9184000">
        <ele>82.4</ele>
        <time>2021-07-17T07:45:02Z</time>
      </trkpt>
      <trkpt lat="43.4405350" lon="-3.9185120">
        <ele>82.4</ele>
        <time>2021-07-17T07:45:07Z</time>
      </trkpt>
      <trkpt lat="43.4405290" lon="-3.9185620">
        <ele>82.4</ele>
        <time>2021-07-17T07:45:09Z</time>
      </trkpt>
      <trkpt lat="43.4405320" lon="-3.9185890">
        <ele>82.4</ele>
        <time>2021-07-17T07:45:10Z</time>
      </trkpt>
      <trkpt lat="43.4405370" lon="-3.9186170">
        <ele>82.8</ele>
        <time>2021-07-17T07:45:11Z</time>
      </trkpt>
      <trkpt lat="43.4405410" lon="-3.9186470">
        <ele>83.2</ele>
        <time>2021-07-17T07:45:12Z</time>
      </trkpt>
      <trkpt lat="43.4405440" lon="-3.9186710">
        <ele>83.6</ele>
        <time>2021-07-17T07:45:13Z</time>
      </trkpt>
      <trkpt lat="43.4405460" lon="-3.9186930">
        <ele>84.0</ele>
        <time>2021-07-17T07:45:14Z</time>
      </trkpt>
      <trkpt lat="43.4405390" lon="-3.9187120">
        <ele>84.4</ele>
        <time>2021-07-17T07:45:15Z</time>
      </trkpt>
      <trkpt lat="43.4405310" lon="-3.9187340">
        <ele>84.4</ele>
        <time>2021-07-17T07:45:16Z</time>
      </trkpt>
      <trkpt lat="43.4404630" lon="-3.9189340">
        <ele>84.4</ele>
        <time>2021-07-17T07:45:25Z</time>
      </trkpt>
      <trkpt lat="43.4403880" lon="-3.9191260">
        <ele>84.4</ele>
        <time>2021-07-17T07:45:32Z</time>
      </trkpt>
      <trkpt lat="43.4403670" lon="-3.9192150">
        <ele>84.8</ele>
        <time>2021-07-17T07:45:35Z</time>
      </trkpt>
      <trkpt lat="43.4403610" lon="-3.9192420">
        <ele>85.2</ele>
        <time>2021-07-17T07:45:36Z</time>
      </trkpt>
      <trkpt lat="43.4403540" lon="-3.9192680">
        <ele>85.6</ele>
        <time>2021-07-17T07:45:37Z</time>
      </trkpt>
      <trkpt lat="43.4403440" lon="-3.9192970">
        <ele>86.0</ele>
        <time>2021-07-17T07:45:38Z</time>
      </trkpt>
      <trkpt lat="43.4403330" lon="-3.9193250">
        <ele>86.4</ele>
        <time>2021-07-17T07:45:39Z</time>
      </trkpt>
      <trkpt lat="43.4402700" lon="-3.9195200">
        <ele>86.4</ele>
        <time>2021-07-17T07:45:46Z</time>
      </trkpt>
      <trkpt lat="43.4402390" lon="-3.9195970">
        <ele>87.0</ele>
        <time>2021-07-17T07:45:49Z</time>
      </trkpt>
      <trkpt lat="43.4402270" lon="-3.9196210">
        <ele>87.4</ele>
        <time>2021-07-17T07:45:50Z</time>
      </trkpt>
      <trkpt lat="43.4402170" lon="-3.9196440">
        <ele>87.8</ele>
        <time>2021-07-17T07:45:51Z</time>
      </trkpt>
      <trkpt lat="43.4402040" lon="-3.9196670">
        <ele>88.2</ele>
        <time>2021-07-17T07:45:52Z</time>
      </trkpt>
      <trkpt lat="43.4401900" lon="-3.9196860">
        <ele>88.6</ele>
        <time>2021-07-17T07:45:53Z</time>
      </trkpt>
      <trkpt lat="43.4401730" lon="-3.9197060">
        <ele>88.6</ele>
        <time>2021-07-17T07:45:54Z</time>
      </trkpt>
      <trkpt lat="43.4401210" lon="-3.9198170">
        <ele>88.6</ele>
        <time>2021-07-17T07:45:58Z</time>
      </trkpt>
      <trkpt lat="43.4400950" lon="-3.9198790">
        <ele>88.6</ele>
        <time>2021-07-17T07:46:00Z</time>
      </trkpt>
      <trkpt lat="43.4399840" lon="-3.9201370">
        <ele>88.6</ele>
        <time>2021-07-17T07:46:07Z</time>
      </trkpt>
      <trkpt lat="43.4399280" lon="-3.9202780">
        <ele>88.6</ele>
        <time>2021-07-17T07:46:10Z</time>
      </trkpt>
      <trkpt lat="43.4398530" lon="-3.9204570">
        <ele>88.6</ele>
        <time>2021-07-17T07:46:14Z</time>
      </trkpt>
      <trkpt lat="43.4397990" lon="-3.9205970">
        <ele>88.6</ele>
        <time>2021-07-17T07:46:17Z</time>
      </trkpt>
      <trkpt lat="43.4397410" lon="-3.9207330">
        <ele>88.6</ele>
        <time>2021-07-17T07:46:20Z</time>
      </trkpt>
      <trkpt lat="43.4397030" lon="-3.9208140">
        <ele>88.6</ele>
        <time>2021-07-17T07:46:22Z</time>
      </trkpt>
      <trkpt lat="43.4396850" lon="-3.9208560">
        <ele>88.6</ele>
        <time>2021-07-17T07:46:23Z</time>
      </trkpt>
      <trkpt lat="43.4396660" lon="-3.9208980">
        <ele>88.6</ele>
        <time>2021-07-17T07:46:24Z</time>
      </trkpt>
      <trkpt lat="43.4395620" lon="-3.9211310">
        <ele>88.6</ele>
        <time>2021-07-17T07:46:30Z</time>
      </trkpt>
      <trkpt lat="43.4394870" lon="-3.9212500">
        <ele>88.6</ele>
        <time>2021-07-17T07:46:36Z</time>
      </trkpt>
      <trkpt lat="43.4394610" lon="-3.9212670">
        <ele>89.0</ele>
        <time>2021-07-17T07:46:38Z</time>
      </trkpt>
      <trkpt lat="43.4394420" lon="-3.9212710">
        <ele>89.4</ele>
        <time>2021-07-17T07:46:39Z</time>
      </trkpt>
      <trkpt lat="43.4394170" lon="-3.9212690">
        <ele>89.8</ele>
        <time>2021-07-17T07:46:40Z</time>
      </trkpt>
      <trkpt lat="43.4393880" lon="-3.9212560">
        <ele>90.2</ele>
        <time>2021-07-17T07:46:41Z</time>
      </trkpt>
      <trkpt lat="43.4393550" lon="-3.9212360">
        <ele>90.6</ele>
        <time>2021-07-17T07:46:42Z</time>
      </trkpt>
      <trkpt lat="43.4393180" lon="-3.9212070">
        <ele>90.6</ele>
        <time>2021-07-17T07:46:43Z</time>
      </trkpt>
      <trkpt lat="43.4391900" lon="-3.9211220">
        <ele>90.6</ele>
        <time>2021-07-17T07:46:46Z</time>
      </trkpt>
      <trkpt lat="43.4390420" lon="-3.9210540">
        <ele>90.6</ele>
        <time>2021-07-17T07:46:49Z</time>
      </trkpt>
      <trkpt lat="43.4388750" lon="-3.9209910">
        <ele>90.2</ele>
        <time>2021-07-17T07:46:52Z</time>
      </trkpt>
      <trkpt lat="43.4388200" lon="-3.9209680">
        <ele>89.6</ele>
        <time>2021-07-17T07:46:53Z</time>
      </trkpt>
      <trkpt lat="43.4387590" lon="-3.9209440">
        <ele>89.2</ele>
        <time>2021-07-17T07:46:54Z</time>
      </trkpt>
      <trkpt lat="43.4386990" lon="-3.9209240">
        <ele>88.8</ele>
        <time>2021-07-17T07:46:55Z</time>
      </trkpt>
      <trkpt lat="43.4386370" lon="-3.9209030">
        <ele>88.4</ele>
        <time>2021-07-17T07:46:56Z</time>
      </trkpt>
      <trkpt lat="43.4385000" lon="-3.9208500">
        <ele>88.0</ele>
        <time>2021-07-17T07:46:58Z</time>
      </trkpt>
      <trkpt lat="43.4384270" lon="-3.9208200">
        <ele>87.6</ele>
        <time>2021-07-17T07:46:59Z</time>
      </trkpt>
      <trkpt lat="43.4383510" lon="-3.9207870">
        <ele>87.2</ele>
        <time>2021-07-17T07:47:00Z</time>
      </trkpt>
      <trkpt lat="43.4382750" lon="-3.9207530">
        <ele>86.8</ele>
        <time>2021-07-17T07:47:01Z</time>
      </trkpt>
      <trkpt lat="43.4381980" lon="-3.9207190">
        <ele>86.4</ele>
        <time>2021-07-17T07:47:02Z</time>
      </trkpt>
      <trkpt lat="43.4380430" lon="-3.9206420">
        <ele>86.4</ele>
        <time>2021-07-17T07:47:04Z</time>
      </trkpt>
      <trkpt lat="43.4378820" lon="-3.9205530">
        <ele>86.4</ele>
        <time>2021-07-17T07:47:06Z</time>
      </trkpt>
      <trkpt lat="43.4376560" lon="-3.9203940">
        <ele>85.8</ele>
        <time>2021-07-17T07:47:09Z</time>
      </trkpt>
      <trkpt lat="43.4375800" lon="-3.9203340">
        <ele>85.0</ele>
        <time>2021-07-17T07:47:10Z</time>
      </trkpt>
      <trkpt lat="43.4375030" lon="-3.9202730">
        <ele>84.4</ele>
        <time>2021-07-17T07:47:11Z</time>
      </trkpt>
      <trkpt lat="43.4374210" lon="-3.9202120">
        <ele>83.8</ele>
        <time>2021-07-17T07:47:12Z</time>
      </trkpt>
      <trkpt lat="43.4373430" lon="-3.9201550">
        <ele>83.2</ele>
        <time>2021-07-17T07:47:13Z</time>
      </trkpt>
      <trkpt lat="43.4371860" lon="-3.9200410">
        <ele>82.6</ele>
        <time>2021-07-17T07:47:15Z</time>
      </trkpt>
      <trkpt lat="43.4371070" lon="-3.9199820">
        <ele>82.2</ele>
        <time>2021-07-17T07:47:16Z</time>
      </trkpt>
      <trkpt lat="43.4370280" lon="-3.9199250">
        <ele>81.8</ele>
        <time>2021-07-17T07:47:17Z</time>
      </trkpt>
      <trkpt lat="43.4369500" lon="-3.9198670">
        <ele>81.4</ele>
        <time>2021-07-17T07:47:18Z</time>
      </trkpt>
      <trkpt lat="43.4368730" lon="-3.9198060">
        <ele>81.0</ele>
        <time>2021-07-17T07:47:19Z</time>
      </trkpt>
      <trkpt lat="43.4364190" lon="-3.9194620">
        <ele>80.4</ele>
        <time>2021-07-17T07:47:25Z</time>
      </trkpt>
      <trkpt lat="43.4363440" lon="-3.9194050">
        <ele>79.8</ele>
        <time>2021-07-17T07:47:26Z</time>
      </trkpt>
      <trkpt lat="43.4362640" lon="-3.9193500">
        <ele>79.2</ele>
        <time>2021-07-17T07:47:27Z</time>
      </trkpt>
      <trkpt lat="43.4361880" lon="-3.9192930">
        <ele>78.6</ele>
        <time>2021-07-17T07:47:28Z</time>
      </trkpt>
      <trkpt lat="43.4361140" lon="-3.9192340">
        <ele>78.0</ele>
        <time>2021-07-17T07:47:29Z</time>
      </trkpt>
      <trkpt lat="43.4359670" lon="-3.9191250">
        <ele>77.6</ele>
        <time>2021-07-17T07:47:31Z</time>
      </trkpt>
      <trkpt lat="43.4358960" lon="-3.9190680">
        <ele>77.2</ele>
        <time>2021-07-17T07:47:32Z</time>
      </trkpt>
      <trkpt lat="43.4358250" lon="-3.9190140">
        <ele>76.8</ele>
        <time>2021-07-17T07:47:33Z</time>
      </trkpt>
      <trkpt lat="43.4357560" lon="-3.9189640">
        <ele>76.4</ele>
        <time>2021-07-17T07:47:34Z</time>
      </trkpt>
      <trkpt lat="43.4356880" lon="-3.9189140">
        <ele>76.0</ele>
        <time>2021-07-17T07:47:35Z</time>
      </trkpt>
      <trkpt lat="43.4355270" lon="-3.9187990">
        <ele>76.0</ele>
        <time>2021-07-17T07:47:38Z</time>
      </trkpt>
      <trkpt lat="43.4354210" lon="-3.9187180">
        <ele>76.0</ele>
        <time>2021-07-17T07:47:41Z</time>
      </trkpt>
      <trkpt lat="43.4353890" lon="-3.9186980">
        <ele>76.0</ele>
        <time>2021-07-17T07:47:42Z</time>
      </trkpt>
      <trkpt lat="43.4353600" lon="-3.9186770">
        <ele>76.0</ele>
        <time>2021-07-17T07:47:43Z</time>
      </trkpt>
      <trkpt lat="43.4353060" lon="-3.9186390">
        <ele>76.0</ele>
        <time>2021-07-17T07:47:45Z</time>
      </trkpt>
      <trkpt lat="43.4352530" lon="-3.9185990">
        <ele>76.0</ele>
        <time>2021-07-17T07:47:47Z</time>
      </trkpt>
      <trkpt lat="43.4352030" lon="-3.9185630">
        <ele>76.0</ele>
        <time>2021-07-17T07:47:49Z</time>
      </trkpt>
      <trkpt lat="43.4351300" lon="-3.9185000">
        <ele>76.0</ele>
        <time>2021-07-17T07:47:52Z</time>
      </trkpt>
      <trkpt lat="43.4349230" lon="-3.9183490">
        <ele>76.0</ele>
        <time>2021-07-17T07:47:59Z</time>
      </trkpt>
      <trkpt lat="43.4347400" lon="-3.9182100">
        <ele>76.0</ele>
        <time>2021-07-17T07:48:04Z</time>
      </trkpt>
      <trkpt lat="43.4346510" lon="-3.9181560">
        <ele>76.0</ele>
        <time>2021-07-17T07:48:06Z</time>
      </trkpt>
      <trkpt lat="43.4344760" lon="-3.9180690">
        <ele>75.0</ele>
        <time>2021-07-17T07:48:10Z</time>
      </trkpt>
      <trkpt lat="43.4344360" lon="-3.9180520">
        <ele>74.6</ele>
        <time>2021-07-17T07:48:11Z</time>
      </trkpt>
      <trkpt lat="43.4343960" lon="-3.9180360">
        <ele>74.2</ele>
        <time>2021-07-17T07:48:12Z</time>
      </trkpt>
      <trkpt lat="43.4343610" lon="-3.9180220">
        <ele>73.6</ele>
        <time>2021-07-17T07:48:13Z</time>
      </trkpt>
      <trkpt lat="43.4343310" lon="-3.9180180">
        <ele>73.2</ele>
        <time>2021-07-17T07:48:14Z</time>
      </trkpt>
      <trkpt lat="43.4343030" lon="-3.9180190">
        <ele>72.6</ele>
        <time>2021-07-17T07:48:15Z</time>
      </trkpt>
      <trkpt lat="43.4342750" lon="-3.9180180">
        <ele>72.0</ele>
        <time>2021-07-17T07:48:16Z</time>
      </trkpt>
      <trkpt lat="43.4342490" lon="-3.9180150">
        <ele>71.6</ele>
        <time>2021-07-17T07:48:17Z</time>
      </trkpt>
      <trkpt lat="43.4341180" lon="-3.9180020">
        <ele>71.6</ele>
        <time>2021-07-17T07:48:21Z</time>
      </trkpt>
      <trkpt lat="43.4340890" lon="-3.9180080">
        <ele>71.6</ele>
        <time>2021-07-17T07:48:22Z</time>
      </trkpt>
      <trkpt lat="43.4339890" lon="-3.9181170">
        <ele>71.6</ele>
        <time>2021-07-17T07:48:27Z</time>
      </trkpt>
      <trkpt lat="43.4339860" lon="-3.9182410">
        <ele>71.6</ele>
        <time>2021-07-17T07:48:32Z</time>
      </trkpt>
      <trkpt lat="43.4339870" lon="-3.9182420">
        <ele>71.6</ele>
        <time>2021-07-17T07:48:33Z</time>
      </trkpt>
      <trkpt lat="43.4339780" lon="-3.9182840">
        <ele>71.6</ele>
        <time>2021-07-17T07:50:19Z</time>
      </trkpt>
      <trkpt lat="43.4339530" lon="-3.9183160">
        <ele>71.6</ele>
        <time>2021-07-17T07:50:21Z</time>
      </trkpt>
      <trkpt lat="43.4338850" lon="-3.9183170">
        <ele>71.6</ele>
        <time>2021-07-17T07:50:25Z</time>
      </trkpt>
      <trkpt lat="43.4337800" lon="-3.9183660">
        <ele>71.6</ele>
        <time>2021-07-17T07:50:30Z</time>
      </trkpt>
      <trkpt lat="43.4337170" lon="-3.9185050">
        <ele>71.6</ele>
        <time>2021-07-17T07:50:35Z</time>
      </trkpt>
      <trkpt lat="43.4336680" lon="-3.9186630">
        <ele>71.6</ele>
        <time>2021-07-17T07:50:39Z</time>
      </trkpt>
      <trkpt lat="43.4336420" lon="-3.9187880">
        <ele>71.6</ele>
        <time>2021-07-17T07:50:43Z</time>
      </trkpt>
      <trkpt lat="43.4336240" lon="-3.9189790">
        <ele>71.6</ele>
        <time>2021-07-17T07:50:48Z</time>
      </trkpt>
      <trkpt lat="43.4335720" lon="-3.9192550">
        <ele>71.6</ele>
        <time>2021-07-17T07:50:55Z</time>
      </trkpt>
      <trkpt lat="43.4335400" lon="-3.9195480">
        <ele>71.6</ele>
        <time>2021-07-17T07:51:01Z</time>
      </trkpt>
      <trkpt lat="43.4334850" lon="-3.9198690">
        <ele>71.6</ele>
        <time>2021-07-17T07:51:07Z</time>
      </trkpt>
      <trkpt lat="43.4334680" lon="-3.9199770">
        <ele>71.6</ele>
        <time>2021-07-17T07:51:09Z</time>
      </trkpt>
      <trkpt lat="43.4333760" lon="-3.9204960">
        <ele>71.6</ele>
        <time>2021-07-17T07:51:18Z</time>
      </trkpt>
      <trkpt lat="43.4332210" lon="-3.9210100">
        <ele>71.6</ele>
        <time>2021-07-17T07:51:27Z</time>
      </trkpt>
      <trkpt lat="43.4331290" lon="-3.9212990">
        <ele>72.0</ele>
        <time>2021-07-17T07:51:32Z</time>
      </trkpt>
      <trkpt lat="43.4331110" lon="-3.9213570">
        <ele>72.4</ele>
        <time>2021-07-17T07:51:33Z</time>
      </trkpt>
      <trkpt lat="43.4330920" lon="-3.9214150">
        <ele>72.8</ele>
        <time>2021-07-17T07:51:34Z</time>
      </trkpt>
      <trkpt lat="43.4330750" lon="-3.9214740">
        <ele>73.2</ele>
        <time>2021-07-17T07:51:35Z</time>
      </trkpt>
      <trkpt lat="43.4330550" lon="-3.9215310">
        <ele>73.6</ele>
        <time>2021-07-17T07:51:36Z</time>
      </trkpt>
      <trkpt lat="43.4330350" lon="-3.9215870">
        <ele>73.6</ele>
        <time>2021-07-17T07:51:37Z</time>
      </trkpt>
      <trkpt lat="43.4328270" lon="-3.9221450">
        <ele>73.6</ele>
        <time>2021-07-17T07:51:47Z</time>
      </trkpt>
      <trkpt lat="43.4327690" lon="-3.9223240">
        <ele>73.6</ele>
        <time>2021-07-17T07:51:50Z</time>
      </trkpt>
      <trkpt lat="43.4326810" lon="-3.9225470">
        <ele>73.6</ele>
        <time>2021-07-17T07:51:54Z</time>
      </trkpt>
      <trkpt lat="43.4325940" lon="-3.9226850">
        <ele>73.6</ele>
        <time>2021-07-17T07:51:57Z</time>
      </trkpt>
      <trkpt lat="43.4325730" lon="-3.9227330">
        <ele>73.6</ele>
        <time>2021-07-17T07:51:58Z</time>
      </trkpt>
      <trkpt lat="43.4325400" lon="-3.9228310">
        <ele>73.6</ele>
        <time>2021-07-17T07:52:00Z</time>
      </trkpt>
      <trkpt lat="43.4324650" lon="-3.9230810">
        <ele>73.6</ele>
        <time>2021-07-17T07:52:05Z</time>
      </trkpt>
      <trkpt lat="43.4323890" lon="-3.9233070">
        <ele>73.6</ele>
        <time>2021-07-17T07:52:09Z</time>
      </trkpt>
      <trkpt lat="43.4322890" lon="-3.9236020">
        <ele>73.6</ele>
        <time>2021-07-17T07:52:14Z</time>
      </trkpt>
      <trkpt lat="43.4321630" lon="-3.9240010">
        <ele>73.6</ele>
        <time>2021-07-17T07:52:21Z</time>
      </trkpt>
      <trkpt lat="43.4321270" lon="-3.9241110">
        <ele>73.6</ele>
        <time>2021-07-17T07:52:23Z</time>
      </trkpt>
      <trkpt lat="43.4319720" lon="-3.9246820">
        <ele>73.6</ele>
        <time>2021-07-17T07:52:33Z</time>
      </trkpt>
      <trkpt lat="43.4319440" lon="-3.9248030">
        <ele>73.6</ele>
        <time>2021-07-17T07:52:35Z</time>
      </trkpt>
      <trkpt lat="43.4318920" lon="-3.9250640">
        <ele>73.6</ele>
        <time>2021-07-17T07:52:39Z</time>
      </trkpt>
      <trkpt lat="43.4318800" lon="-3.9251330">
        <ele>73.6</ele>
        <time>2021-07-17T07:52:40Z</time>
      </trkpt>
      <trkpt lat="43.4318470" lon="-3.9253500">
        <ele>73.6</ele>
        <time>2021-07-17T07:52:43Z</time>
      </trkpt>
      <trkpt lat="43.4318260" lon="-3.9254960">
        <ele>73.6</ele>
        <time>2021-07-17T07:52:45Z</time>
      </trkpt>
      <trkpt lat="43.4318140" lon="-3.9256260">
        <ele>73.2</ele>
        <time>2021-07-17T07:52:47Z</time>
      </trkpt>
      <trkpt lat="43.4318090" lon="-3.9256960">
        <ele>72.8</ele>
        <time>2021-07-17T07:52:48Z</time>
      </trkpt>
      <trkpt lat="43.4318000" lon="-3.9257670">
        <ele>72.2</ele>
        <time>2021-07-17T07:52:49Z</time>
      </trkpt>
      <trkpt lat="43.4317840" lon="-3.9258360">
        <ele>71.8</ele>
        <time>2021-07-17T07:52:50Z</time>
      </trkpt>
      <trkpt lat="43.4317680" lon="-3.9259080">
        <ele>71.4</ele>
        <time>2021-07-17T07:52:51Z</time>
      </trkpt>
      <trkpt lat="43.4317560" lon="-3.9259860">
        <ele>71.4</ele>
        <time>2021-07-17T07:52:52Z</time>
      </trkpt>
      <trkpt lat="43.4317120" lon="-3.9263360">
        <ele>71.4</ele>
        <time>2021-07-17T07:52:56Z</time>
      </trkpt>
      <trkpt lat="43.4316890" lon="-3.9265270">
        <ele>71.0</ele>
        <time>2021-07-17T07:52:58Z</time>
      </trkpt>
      <trkpt lat="43.4316750" lon="-3.9266260">
        <ele>70.6</ele>
        <time>2021-07-17T07:52:59Z</time>
      </trkpt>
      <trkpt lat="43.4316630" lon="-3.9267280">
        <ele>70.2</ele>
        <time>2021-07-17T07:53:00Z</time>
      </trkpt>
      <trkpt lat="43.4316480" lon="-3.9268300">
        <ele>69.6</ele>
        <time>2021-07-17T07:53:01Z</time>
      </trkpt>
      <trkpt lat="43.4316310" lon="-3.9269410">
        <ele>69.2</ele>
        <time>2021-07-17T07:53:02Z</time>
      </trkpt>
      <trkpt lat="43.4315720" lon="-3.9273820">
        <ele>69.2</ele>
        <time>2021-07-17T07:53:06Z</time>
      </trkpt>
      <trkpt lat="43.4315550" lon="-3.9274970">
        <ele>68.8</ele>
        <time>2021-07-17T07:53:07Z</time>
      </trkpt>
      <trkpt lat="43.4315380" lon="-3.9276180">
        <ele>68.4</ele>
        <time>2021-07-17T07:53:08Z</time>
      </trkpt>
      <trkpt lat="43.4315220" lon="-3.9277380">
        <ele>68.0</ele>
        <time>2021-07-17T07:53:09Z</time>
      </trkpt>
      <trkpt lat="43.4315040" lon="-3.9278590">
        <ele>67.6</ele>
        <time>2021-07-17T07:53:10Z</time>
      </trkpt>
      <trkpt lat="43.4314860" lon="-3.9279810">
        <ele>67.2</ele>
        <time>2021-07-17T07:53:11Z</time>
      </trkpt>
      <trkpt lat="43.4314650" lon="-3.9281030">
        <ele>66.8</ele>
        <time>2021-07-17T07:53:12Z</time>
      </trkpt>
      <trkpt lat="43.4314430" lon="-3.9282230">
        <ele>66.4</ele>
        <time>2021-07-17T07:53:13Z</time>
      </trkpt>
      <trkpt lat="43.4314190" lon="-3.9283430">
        <ele>65.8</ele>
        <time>2021-07-17T07:53:14Z</time>
      </trkpt>
      <trkpt lat="43.4313940" lon="-3.9284600">
        <ele>65.4</ele>
        <time>2021-07-17T07:53:15Z</time>
      </trkpt>
      <trkpt lat="43.4313660" lon="-3.9285750">
        <ele>65.0</ele>
        <time>2021-07-17T07:53:16Z</time>
      </trkpt>
      <trkpt lat="43.4312720" lon="-3.9289000">
        <ele>65.0</ele>
        <time>2021-07-17T07:53:19Z</time>
      </trkpt>
      <trkpt lat="43.4311160" lon="-3.9293300">
        <ele>65.0</ele>
        <time>2021-07-17T07:53:24Z</time>
      </trkpt>
      <trkpt lat="43.4309680" lon="-3.9297120">
        <ele>65.0</ele>
        <time>2021-07-17T07:53:31Z</time>
      </trkpt>
      <trkpt lat="43.4309240" lon="-3.9298270">
        <ele>65.0</ele>
        <time>2021-07-17T07:53:33Z</time>
      </trkpt>
      <trkpt lat="43.4309020" lon="-3.9298810">
        <ele>65.0</ele>
        <time>2021-07-17T07:53:34Z</time>
      </trkpt>
      <trkpt lat="43.4308560" lon="-3.9299880">
        <ele>65.0</ele>
        <time>2021-07-17T07:53:36Z</time>
      </trkpt>
      <trkpt lat="43.4308170" lon="-3.9300970">
        <ele>65.0</ele>
        <time>2021-07-17T07:53:38Z</time>
      </trkpt>
      <trkpt lat="43.4307980" lon="-3.9301510">
        <ele>65.0</ele>
        <time>2021-07-17T07:53:39Z</time>
      </trkpt>
      <trkpt lat="43.4306940" lon="-3.9304150">
        <ele>65.0</ele>
        <time>2021-07-17T07:53:44Z</time>
      </trkpt>
      <trkpt lat="43.4305950" lon="-3.9306840">
        <ele>65.0</ele>
        <time>2021-07-17T07:53:49Z</time>
      </trkpt>
      <trkpt lat="43.4305360" lon="-3.9308470">
        <ele>65.0</ele>
        <time>2021-07-17T07:53:52Z</time>
      </trkpt>
      <trkpt lat="43.4303940" lon="-3.9311730">
        <ele>65.0</ele>
        <time>2021-07-17T07:53:58Z</time>
      </trkpt>
      <trkpt lat="43.4302340" lon="-3.9314270">
        <ele>65.0</ele>
        <time>2021-07-17T07:54:04Z</time>
      </trkpt>
      <trkpt lat="43.4300440" lon="-3.9316460">
        <ele>65.0</ele>
        <time>2021-07-17T07:54:11Z</time>
      </trkpt>
      <trkpt lat="43.4300120" lon="-3.9316750">
        <ele>65.0</ele>
        <time>2021-07-17T07:54:12Z</time>
      </trkpt>
      <trkpt lat="43.4299160" lon="-3.9317420">
        <ele>65.4</ele>
        <time>2021-07-17T07:54:15Z</time>
      </trkpt>
      <trkpt lat="43.4298840" lon="-3.9317640">
        <ele>65.8</ele>
        <time>2021-07-17T07:54:16Z</time>
      </trkpt>
      <trkpt lat="43.4298540" lon="-3.9317850">
        <ele>66.2</ele>
        <time>2021-07-17T07:54:17Z</time>
      </trkpt>
      <trkpt lat="43.4298210" lon="-3.9318040">
        <ele>66.6</ele>
        <time>2021-07-17T07:54:18Z</time>
      </trkpt>
      <trkpt lat="43.4297890" lon="-3.9318190">
        <ele>67.2</ele>
        <time>2021-07-17T07:54:19Z</time>
      </trkpt>
      <trkpt lat="43.4296660" lon="-3.9318710">
        <ele>67.2</ele>
        <time>2021-07-17T07:54:23Z</time>
      </trkpt>
      <trkpt lat="43.4295710" lon="-3.9318940">
        <ele>67.2</ele>
        <time>2021-07-17T07:54:26Z</time>
      </trkpt>
      <trkpt lat="43.4294580" lon="-3.9319230">
        <ele>67.6</ele>
        <time>2021-07-17T07:54:30Z</time>
      </trkpt>
      <trkpt lat="43.4294350" lon="-3.9319330">
        <ele>68.0</ele>
        <time>2021-07-17T07:54:31Z</time>
      </trkpt>
      <trkpt lat="43.4294100" lon="-3.9319420">
        <ele>68.4</ele>
        <time>2021-07-17T07:54:32Z</time>
      </trkpt>
      <trkpt lat="43.4293900" lon="-3.9319470">
        <ele>68.8</ele>
        <time>2021-07-17T07:54:33Z</time>
      </trkpt>
      <trkpt lat="43.4293730" lon="-3.9319520">
        <ele>69.2</ele>
        <time>2021-07-17T07:54:34Z</time>
      </trkpt>
      <trkpt lat="43.4293520" lon="-3.9319550">
        <ele>69.2</ele>
        <time>2021-07-17T07:54:35Z</time>
      </trkpt>
      <trkpt lat="43.4291750" lon="-3.9319810">
        <ele>69.2</ele>
        <time>2021-07-17T07:54:41Z</time>
      </trkpt>
      <trkpt lat="43.4289160" lon="-3.9320410">
        <ele>69.2</ele>
        <time>2021-07-17T07:54:48Z</time>
      </trkpt>
      <trkpt lat="43.4286080" lon="-3.9321710">
        <ele>69.2</ele>
        <time>2021-07-17T07:54:56Z</time>
      </trkpt>
      <trkpt lat="43.4284830" lon="-3.9322180">
        <ele>69.2</ele>
        <time>2021-07-17T07:54:59Z</time>
      </trkpt>
      <trkpt lat="43.4284030" lon="-3.9322370">
        <ele>69.2</ele>
        <time>2021-07-17T07:55:01Z</time>
      </trkpt>
      <trkpt lat="43.4283270" lon="-3.9322510">
        <ele>69.2</ele>
        <time>2021-07-17T07:55:03Z</time>
      </trkpt>
      <trkpt lat="43.4282130" lon="-3.9322780">
        <ele>69.2</ele>
        <time>2021-07-17T07:55:06Z</time>
      </trkpt>
      <trkpt lat="43.4280950" lon="-3.9323050">
        <ele>69.2</ele>
        <time>2021-07-17T07:55:09Z</time>
      </trkpt>
      <trkpt lat="43.4280180" lon="-3.9323430">
        <ele>69.2</ele>
        <time>2021-07-17T07:55:11Z</time>
      </trkpt>
      <trkpt lat="43.4279570" lon="-3.9323980">
        <ele>69.2</ele>
        <time>2021-07-17T07:55:13Z</time>
      </trkpt>
      <trkpt lat="43.4279280" lon="-3.9324320">
        <ele>69.2</ele>
        <time>2021-07-17T07:55:14Z</time>
      </trkpt>
      <trkpt lat="43.4278210" lon="-3.9327070">
        <ele>69.2</ele>
        <time>2021-07-17T07:55:20Z</time>
      </trkpt>
      <trkpt lat="43.4278140" lon="-3.9330020">
        <ele>69.2</ele>
        <time>2021-07-17T07:55:26Z</time>
      </trkpt>
      <trkpt lat="43.4278200" lon="-3.9332430">
        <ele>69.2</ele>
        <time>2021-07-17T07:55:31Z</time>
      </trkpt>
      <trkpt lat="43.4278040" lon="-3.9333670">
        <ele>69.2</ele>
        <time>2021-07-17T07:55:34Z</time>
      </trkpt>
      <trkpt lat="43.4277950" lon="-3.9334060">
        <ele>69.6</ele>
        <time>2021-07-17T07:55:35Z</time>
      </trkpt>
      <trkpt lat="43.4277840" lon="-3.9334410">
        <ele>70.2</ele>
        <time>2021-07-17T07:55:36Z</time>
      </trkpt>
      <trkpt lat="43.4277730" lon="-3.9334760">
        <ele>70.6</ele>
        <time>2021-07-17T07:55:37Z</time>
      </trkpt>
      <trkpt lat="43.4277600" lon="-3.9335120">
        <ele>71.0</ele>
        <time>2021-07-17T07:55:38Z</time>
      </trkpt>
      <trkpt lat="43.4277490" lon="-3.9335450">
        <ele>71.4</ele>
        <time>2021-07-17T07:55:39Z</time>
      </trkpt>
      <trkpt lat="43.4277270" lon="-3.9336120">
        <ele>71.4</ele>
        <time>2021-07-17T07:55:41Z</time>
      </trkpt>
      <trkpt lat="43.4276360" lon="-3.9338880">
        <ele>71.4</ele>
        <time>2021-07-17T07:55:49Z</time>
      </trkpt>
      <trkpt lat="43.4276130" lon="-3.9341380">
        <ele>71.4</ele>
        <time>2021-07-17T07:55:55Z</time>
      </trkpt>
      <trkpt lat="43.4276140" lon="-3.9341940">
        <ele>71.4</ele>
        <time>2021-07-17T07:55:56Z</time>
      </trkpt>
      <trkpt lat="43.4276060" lon="-3.9343250">
        <ele>71.4</ele>
        <time>2021-07-17T07:55:58Z</time>
      </trkpt>
      <trkpt lat="43.4275960" lon="-3.9343980">
        <ele>71.4</ele>
        <time>2021-07-17T07:55:59Z</time>
      </trkpt>
      <trkpt lat="43.4275710" lon="-3.9345530">
        <ele>71.4</ele>
        <time>2021-07-17T07:56:01Z</time>
      </trkpt>
      <trkpt lat="43.4275600" lon="-3.9346310">
        <ele>71.4</ele>
        <time>2021-07-17T07:56:02Z</time>
      </trkpt>
      <trkpt lat="43.4275480" lon="-3.9347150">
        <ele>71.0</ele>
        <time>2021-07-17T07:56:03Z</time>
      </trkpt>
      <trkpt lat="43.4275370" lon="-3.9347970">
        <ele>70.4</ele>
        <time>2021-07-17T07:56:04Z</time>
      </trkpt>
      <trkpt lat="43.4275280" lon="-3.9348810">
        <ele>70.0</ele>
        <time>2021-07-17T07:56:05Z</time>
      </trkpt>
      <trkpt lat="43.4275180" lon="-3.9349680">
        <ele>69.4</ele>
        <time>2021-07-17T07:56:06Z</time>
      </trkpt>
      <trkpt lat="43.4275090" lon="-3.9350550">
        <ele>69.0</ele>
        <time>2021-07-17T07:56:07Z</time>
      </trkpt>
      <trkpt lat="43.4274840" lon="-3.9352300">
        <ele>69.0</ele>
        <time>2021-07-17T07:56:09Z</time>
      </trkpt>
      <trkpt lat="43.4274420" lon="-3.9353970">
        <ele>68.6</ele>
        <time>2021-07-17T07:56:11Z</time>
      </trkpt>
      <trkpt lat="43.4274090" lon="-3.9354690">
        <ele>68.2</ele>
        <time>2021-07-17T07:56:12Z</time>
      </trkpt>
      <trkpt lat="43.4273640" lon="-3.9355340">
        <ele>67.6</ele>
        <time>2021-07-17T07:56:13Z</time>
      </trkpt>
      <trkpt lat="43.4273150" lon="-3.9355890">
        <ele>67.2</ele>
        <time>2021-07-17T07:56:14Z</time>
      </trkpt>
      <trkpt lat="43.4272640" lon="-3.9356420">
        <ele>66.8</ele>
        <time>2021-07-17T07:56:15Z</time>
      </trkpt>
      <trkpt lat="43.4272060" lon="-3.9356920">
        <ele>66.8</ele>
        <time>2021-07-17T07:56:16Z</time>
      </trkpt>
      <trkpt lat="43.4271520" lon="-3.9357400">
        <ele>66.8</ele>
        <time>2021-07-17T07:56:17Z</time>
      </trkpt>
      <trkpt lat="43.4269910" lon="-3.9358980">
        <ele>66.2</ele>
        <time>2021-07-17T07:56:20Z</time>
      </trkpt>
      <trkpt lat="43.4269390" lon="-3.9359550">
        <ele>65.8</ele>
        <time>2021-07-17T07:56:21Z</time>
      </trkpt>
      <trkpt lat="43.4268930" lon="-3.9360190">
        <ele>65.2</ele>
        <time>2021-07-17T07:56:22Z</time>
      </trkpt>
      <trkpt lat="43.4268580" lon="-3.9360890">
        <ele>64.6</ele>
        <time>2021-07-17T07:56:23Z</time>
      </trkpt>
      <trkpt lat="43.4268340" lon="-3.9361590">
        <ele>63.4</ele>
        <time>2021-07-17T07:56:24Z</time>
      </trkpt>
      <trkpt lat="43.4268210" lon="-3.9362140">
        <ele>62.8</ele>
        <time>2021-07-17T07:56:25Z</time>
      </trkpt>
      <trkpt lat="43.4268230" lon="-3.9362470">
        <ele>62.2</ele>
        <time>2021-07-17T07:56:26Z</time>
      </trkpt>
      <trkpt lat="43.4268270" lon="-3.9362700">
        <ele>61.6</ele>
        <time>2021-07-17T07:56:27Z</time>
      </trkpt>
      <trkpt lat="43.4268300" lon="-3.9362870">
        <ele>61.2</ele>
        <time>2021-07-17T07:56:28Z</time>
      </trkpt>
      <trkpt lat="43.4268330" lon="-3.9363050">
        <ele>60.6</ele>
        <time>2021-07-17T07:56:29Z</time>
      </trkpt>
      <trkpt lat="43.4268310" lon="-3.9363320">
        <ele>60.0</ele>
        <time>2021-07-17T07:56:30Z</time>
      </trkpt>
      <trkpt lat="43.4268290" lon="-3.9363660">
        <ele>60.0</ele>
        <time>2021-07-17T07:56:31Z</time>
      </trkpt>
      <trkpt lat="43.4268320" lon="-3.9364080">
        <ele>60.0</ele>
        <time>2021-07-17T07:56:32Z</time>
      </trkpt>
      <trkpt lat="43.4268340" lon="-3.9365080">
        <ele>60.0</ele>
        <time>2021-07-17T07:56:34Z</time>
      </trkpt>
      <trkpt lat="43.4268350" lon="-3.9366110">
        <ele>60.0</ele>
        <time>2021-07-17T07:56:36Z</time>
      </trkpt>
      <trkpt lat="43.4268120" lon="-3.9368170">
        <ele>60.0</ele>
        <time>2021-07-17T07:56:40Z</time>
      </trkpt>
      <trkpt lat="43.4268040" lon="-3.9368710">
        <ele>60.0</ele>
        <time>2021-07-17T07:56:41Z</time>
      </trkpt>
      <trkpt lat="43.4267970" lon="-3.9369320">
        <ele>59.6</ele>
        <time>2021-07-17T07:56:42Z</time>
      </trkpt>
      <trkpt lat="43.4267910" lon="-3.9369990">
        <ele>59.2</ele>
        <time>2021-07-17T07:56:43Z</time>
      </trkpt>
      <trkpt lat="43.4267820" lon="-3.9370700">
        <ele>58.8</ele>
        <time>2021-07-17T07:56:44Z</time>
      </trkpt>
      <trkpt lat="43.4267730" lon="-3.9371440">
        <ele>58.4</ele>
        <time>2021-07-17T07:56:45Z</time>
      </trkpt>
      <trkpt lat="43.4267640" lon="-3.9372270">
        <ele>58.0</ele>
        <time>2021-07-17T07:56:46Z</time>
      </trkpt>
      <trkpt lat="43.4266780" lon="-3.9377560">
        <ele>57.6</ele>
        <time>2021-07-17T07:56:52Z</time>
      </trkpt>
      <trkpt lat="43.4266620" lon="-3.9378520">
        <ele>57.2</ele>
        <time>2021-07-17T07:56:53Z</time>
      </trkpt>
      <trkpt lat="43.4266470" lon="-3.9379570">
        <ele>56.8</ele>
        <time>2021-07-17T07:56:54Z</time>
      </trkpt>
      <trkpt lat="43.4266300" lon="-3.9380600">
        <ele>56.2</ele>
        <time>2021-07-17T07:56:55Z</time>
      </trkpt>
      <trkpt lat="43.4266130" lon="-3.9381620">
        <ele>55.8</ele>
        <time>2021-07-17T07:56:56Z</time>
      </trkpt>
      <trkpt lat="43.4265460" lon="-3.9385840">
        <ele>55.8</ele>
        <time>2021-07-17T07:57:00Z</time>
      </trkpt>
      <trkpt lat="43.4265200" lon="-3.9387780">
        <ele>55.4</ele>
        <time>2021-07-17T07:57:02Z</time>
      </trkpt>
      <trkpt lat="43.4265100" lon="-3.9388440">
        <ele>55.0</ele>
        <time>2021-07-17T07:57:03Z</time>
      </trkpt>
      <trkpt lat="43.4265040" lon="-3.9388900">
        <ele>54.4</ele>
        <time>2021-07-17T07:57:04Z</time>
      </trkpt>
      <trkpt lat="43.4265010" lon="-3.9389290">
        <ele>54.0</ele>
        <time>2021-07-17T07:57:05Z</time>
      </trkpt>
      <trkpt lat="43.4264980" lon="-3.9389590">
        <ele>53.6</ele>
        <time>2021-07-17T07:57:06Z</time>
      </trkpt>
      <trkpt lat="43.4264880" lon="-3.9390350">
        <ele>53.6</ele>
        <time>2021-07-17T07:57:08Z</time>
      </trkpt>
      <trkpt lat="43.4264900" lon="-3.9391400">
        <ele>53.6</ele>
        <time>2021-07-17T07:57:10Z</time>
      </trkpt>
      <trkpt lat="43.4264810" lon="-3.9392530">
        <ele>53.6</ele>
        <time>2021-07-17T07:57:12Z</time>
      </trkpt>
      <trkpt lat="43.4264740" lon="-3.9393740">
        <ele>53.6</ele>
        <time>2021-07-17T07:57:14Z</time>
      </trkpt>
      <trkpt lat="43.4264420" lon="-3.9397450">
        <ele>53.6</ele>
        <time>2021-07-17T07:57:20Z</time>
      </trkpt>
      <trkpt lat="43.4264320" lon="-3.9398680">
        <ele>53.0</ele>
        <time>2021-07-17T07:57:22Z</time>
      </trkpt>
      <trkpt lat="43.4264290" lon="-3.9399260">
        <ele>52.6</ele>
        <time>2021-07-17T07:57:23Z</time>
      </trkpt>
      <trkpt lat="43.4264230" lon="-3.9399870">
        <ele>52.2</ele>
        <time>2021-07-17T07:57:24Z</time>
      </trkpt>
      <trkpt lat="43.4264170" lon="-3.9400470">
        <ele>51.8</ele>
        <time>2021-07-17T07:57:25Z</time>
      </trkpt>
      <trkpt lat="43.4264160" lon="-3.9401060">
        <ele>51.4</ele>
        <time>2021-07-17T07:57:26Z</time>
      </trkpt>
      <trkpt lat="43.4264250" lon="-3.9402180">
        <ele>51.4</ele>
        <time>2021-07-17T07:57:28Z</time>
      </trkpt>
      <trkpt lat="43.4264410" lon="-3.9403670">
        <ele>51.4</ele>
        <time>2021-07-17T07:57:32Z</time>
      </trkpt>
      <trkpt lat="43.4264500" lon="-3.9404300">
        <ele>51.4</ele>
        <time>2021-07-17T07:57:35Z</time>
      </trkpt>
      <trkpt lat="43.4264240" lon="-3.9404840">
        <ele>51.4</ele>
        <time>2021-07-17T07:57:37Z</time>
      </trkpt>
      <trkpt lat="43.4263810" lon="-3.9405260">
        <ele>51.4</ele>
        <time>2021-07-17T07:57:39Z</time>
      </trkpt>
      <trkpt lat="43.4263480" lon="-3.9405880">
        <ele>51.4</ele>
        <time>2021-07-17T07:57:41Z</time>
      </trkpt>
      <trkpt lat="43.4263170" lon="-3.9406630">
        <ele>51.4</ele>
        <time>2021-07-17T07:57:43Z</time>
      </trkpt>
      <trkpt lat="43.4261630" lon="-3.9408800">
        <ele>51.4</ele>
        <time>2021-07-17T07:57:49Z</time>
      </trkpt>
      <trkpt lat="43.4259180" lon="-3.9411220">
        <ele>51.4</ele>
        <time>2021-07-17T07:57:55Z</time>
      </trkpt>
      <trkpt lat="43.4258480" lon="-3.9412140">
        <ele>51.4</ele>
        <time>2021-07-17T07:57:57Z</time>
      </trkpt>
      <trkpt lat="43.4258230" lon="-3.9412720">
        <ele>50.8</ele>
        <time>2021-07-17T07:57:58Z</time>
      </trkpt>
      <trkpt lat="43.4258050" lon="-3.9413350">
        <ele>50.4</ele>
        <time>2021-07-17T07:57:59Z</time>
      </trkpt>
      <trkpt lat="43.4257920" lon="-3.9414020">
        <ele>50.0</ele>
        <time>2021-07-17T07:58:00Z</time>
      </trkpt>
      <trkpt lat="43.4257860" lon="-3.9414680">
        <ele>49.6</ele>
        <time>2021-07-17T07:58:01Z</time>
      </trkpt>
      <trkpt lat="43.4257880" lon="-3.9415370">
        <ele>49.0</ele>
        <time>2021-07-17T07:58:02Z</time>
      </trkpt>
      <trkpt lat="43.4257970" lon="-3.9416040">
        <ele>49.0</ele>
        <time>2021-07-17T07:58:03Z</time>
      </trkpt>
      <trkpt lat="43.4258060" lon="-3.9416740">
        <ele>49.0</ele>
        <time>2021-07-17T07:58:04Z</time>
      </trkpt>
      <trkpt lat="43.4258170" lon="-3.9418110">
        <ele>49.0</ele>
        <time>2021-07-17T07:58:06Z</time>
      </trkpt>
      <trkpt lat="43.4258000" lon="-3.9420310">
        <ele>49.0</ele>
        <time>2021-07-17T07:58:09Z</time>
      </trkpt>
      <trkpt lat="43.4257270" lon="-3.9423130">
        <ele>48.6</ele>
        <time>2021-07-17T07:58:13Z</time>
      </trkpt>
      <trkpt lat="43.4257040" lon="-3.9423780">
        <ele>48.2</ele>
        <time>2021-07-17T07:58:14Z</time>
      </trkpt>
      <trkpt lat="43.4256800" lon="-3.9424390">
        <ele>47.8</ele>
        <time>2021-07-17T07:58:15Z</time>
      </trkpt>
      <trkpt lat="43.4256580" lon="-3.9425040">
        <ele>47.4</ele>
        <time>2021-07-17T07:58:16Z</time>
      </trkpt>
      <trkpt lat="43.4256350" lon="-3.9425690">
        <ele>47.0</ele>
        <time>2021-07-17T07:58:17Z</time>
      </trkpt>
      <trkpt lat="43.4255730" lon="-3.9427460">
        <ele>47.0</ele>
        <time>2021-07-17T07:58:20Z</time>
      </trkpt>
      <trkpt lat="43.4255280" lon="-3.9428870">
        <ele>47.0</ele>
        <time>2021-07-17T07:58:24Z</time>
      </trkpt>
      <trkpt lat="43.4255570" lon="-3.9429800">
        <ele>47.0</ele>
        <time>2021-07-17T07:58:29Z</time>
      </trkpt>
      <trkpt lat="43.4255710" lon="-3.9429870">
        <ele>47.0</ele>
        <time>2021-07-17T07:58:30Z</time>
      </trkpt>
      <trkpt lat="43.4256140" lon="-3.9429910">
        <ele>47.0</ele>
        <time>2021-07-17T07:58:33Z</time>
      </trkpt>
      <trkpt lat="43.4256280" lon="-3.9429940">
        <ele>47.0</ele>
        <time>2021-07-17T07:58:35Z</time>
      </trkpt>
      <trkpt lat="43.4256310" lon="-3.9429980">
        <ele>47.0</ele>
        <time>2021-07-17T07:58:36Z</time>
      </trkpt>
      <trkpt lat="43.4255860" lon="-3.9430000">
        <ele>45.0</ele>
        <time>2021-07-17T08:01:18Z</time>
      </trkpt>
      <trkpt lat="43.4255700" lon="-3.9430000">
        <ele>45.0</ele>
        <time>2021-07-17T08:01:20Z</time>
      </trkpt>
      <trkpt lat="43.4255580" lon="-3.9429980">
        <ele>45.0</ele>
        <time>2021-07-17T08:01:23Z</time>
      </trkpt>
      <trkpt lat="43.4255460" lon="-3.9429920">
        <ele>51.0</ele>
        <time>2021-07-17T08:20:51Z</time>
      </trkpt>
      <trkpt lat="43.4255270" lon="-3.9429880">
        <ele>51.0</ele>
        <time>2021-07-17T08:20:52Z</time>
      </trkpt>
      <trkpt lat="43.4254250" lon="-3.9430170">
        <ele>51.0</ele>
        <time>2021-07-17T08:20:57Z</time>
      </trkpt>
      <trkpt lat="43.4253430" lon="-3.9431460">
        <ele>51.0</ele>
        <time>2021-07-17T08:21:01Z</time>
      </trkpt>
      <trkpt lat="43.4252780" lon="-3.9432520">
        <ele>50.6</ele>
        <time>2021-07-17T08:21:04Z</time>
      </trkpt>
      <trkpt lat="43.4252490" lon="-3.9432890">
        <ele>50.2</ele>
        <time>2021-07-17T08:21:05Z</time>
      </trkpt>
      <trkpt lat="43.4252220" lon="-3.9433320">
        <ele>49.4</ele>
        <time>2021-07-17T08:21:06Z</time>
      </trkpt>
      <trkpt lat="43.4252010" lon="-3.9433760">
        <ele>49.0</ele>
        <time>2021-07-17T08:21:07Z</time>
      </trkpt>
      <trkpt lat="43.4251740" lon="-3.9434120">
        <ele>49.0</ele>
        <time>2021-07-17T08:21:08Z</time>
      </trkpt>
      <trkpt lat="43.4250960" lon="-3.9435320">
        <ele>49.0</ele>
        <time>2021-07-17T08:21:11Z</time>
      </trkpt>
      <trkpt lat="43.4250610" lon="-3.9436130">
        <ele>48.6</ele>
        <time>2021-07-17T08:21:13Z</time>
      </trkpt>
      <trkpt lat="43.4250390" lon="-3.9436460">
        <ele>48.2</ele>
        <time>2021-07-17T08:21:14Z</time>
      </trkpt>
      <trkpt lat="43.4250140" lon="-3.9436710">
        <ele>47.8</ele>
        <time>2021-07-17T08:21:15Z</time>
      </trkpt>
      <trkpt lat="43.4249890" lon="-3.9436870">
        <ele>47.4</ele>
        <time>2021-07-17T08:21:16Z</time>
      </trkpt>
      <trkpt lat="43.4249650" lon="-3.9436980">
        <ele>47.0</ele>
        <time>2021-07-17T08:21:17Z</time>
      </trkpt>
      <trkpt lat="43.4248630" lon="-3.9437110">
        <ele>47.0</ele>
        <time>2021-07-17T08:21:23Z</time>
      </trkpt>
      <trkpt lat="43.4248550" lon="-3.9437070">
        <ele>47.0</ele>
        <time>2021-07-17T08:21:25Z</time>
      </trkpt>
      <trkpt lat="43.4248410" lon="-3.9437170">
        <ele>45.0</ele>
        <time>2021-07-17T08:21:31Z</time>
      </trkpt>
      <trkpt lat="43.4248280" lon="-3.9437340">
        <ele>45.0</ele>
        <time>2021-07-17T08:21:32Z</time>
      </trkpt>
      <trkpt lat="43.4247920" lon="-3.9438100">
        <ele>45.0</ele>
        <time>2021-07-17T08:21:35Z</time>
      </trkpt>
      <trkpt lat="43.4247470" lon="-3.9439460">
        <ele>45.0</ele>
        <time>2021-07-17T08:21:38Z</time>
      </trkpt>
      <trkpt lat="43.4246990" lon="-3.9441170">
        <ele>45.0</ele>
        <time>2021-07-17T08:21:41Z</time>
      </trkpt>
      <trkpt lat="43.4246750" lon="-3.9442810">
        <ele>45.0</ele>
        <time>2021-07-17T08:21:44Z</time>
      </trkpt>
      <trkpt lat="43.4245960" lon="-3.9446310">
        <ele>45.0</ele>
        <time>2021-07-17T08:21:51Z</time>
      </trkpt>
      <trkpt lat="43.4244640" lon="-3.9450270">
        <ele>45.0</ele>
        <time>2021-07-17T08:21:59Z</time>
      </trkpt>
      <trkpt lat="43.4243160" lon="-3.9453820">
        <ele>45.0</ele>
        <time>2021-07-17T08:22:06Z</time>
      </trkpt>
      <trkpt lat="43.4241360" lon="-3.9457050">
        <ele>45.0</ele>
        <time>2021-07-17T08:22:13Z</time>
      </trkpt>
      <trkpt lat="43.4240530" lon="-3.9458310">
        <ele>45.0</ele>
        <time>2021-07-17T08:22:16Z</time>
      </trkpt>
      <trkpt lat="43.4239710" lon="-3.9459460">
        <ele>45.0</ele>
        <time>2021-07-17T08:22:19Z</time>
      </trkpt>
      <trkpt lat="43.4239420" lon="-3.9459810">
        <ele>45.0</ele>
        <time>2021-07-17T08:22:20Z</time>
      </trkpt>
      <trkpt lat="43.4238000" lon="-3.9461840">
        <ele>45.0</ele>
        <time>2021-07-17T08:22:26Z</time>
      </trkpt>
      <trkpt lat="43.4237760" lon="-3.9462160">
        <ele>45.0</ele>
        <time>2021-07-17T08:22:27Z</time>
      </trkpt>
      <trkpt lat="43.4236990" lon="-3.9463360">
        <ele>45.0</ele>
        <time>2021-07-17T08:22:31Z</time>
      </trkpt>
      <trkpt lat="43.4236620" lon="-3.9463910">
        <ele>45.0</ele>
        <time>2021-07-17T08:22:33Z</time>
      </trkpt>
      <trkpt lat="43.4236130" lon="-3.9464840">
        <ele>45.4</ele>
        <time>2021-07-17T08:22:36Z</time>
      </trkpt>
      <trkpt lat="43.4235960" lon="-3.9465140">
        <ele>45.8</ele>
        <time>2021-07-17T08:22:37Z</time>
      </trkpt>
      <trkpt lat="43.4235790" lon="-3.9465430">
        <ele>46.2</ele>
        <time>2021-07-17T08:22:38Z</time>
      </trkpt>
      <trkpt lat="43.4235630" lon="-3.9465750">
        <ele>46.6</ele>
        <time>2021-07-17T08:22:39Z</time>
      </trkpt>
      <trkpt lat="43.4235510" lon="-3.9466020">
        <ele>47.0</ele>
        <time>2021-07-17T08:22:40Z</time>
      </trkpt>
      <trkpt lat="43.4235240" lon="-3.9466510">
        <ele>47.0</ele>
        <time>2021-07-17T08:22:42Z</time>
      </trkpt>
      <trkpt lat="43.4234720" lon="-3.9467530">
        <ele>47.4</ele>
        <time>2021-07-17T08:22:46Z</time>
      </trkpt>
      <trkpt lat="43.4234600" lon="-3.9467820">
        <ele>47.8</ele>
        <time>2021-07-17T08:22:47Z</time>
      </trkpt>
      <trkpt lat="43.4234480" lon="-3.9468120">
        <ele>48.2</ele>
        <time>2021-07-17T08:22:48Z</time>
      </trkpt>
      <trkpt lat="43.4234370" lon="-3.9468390">
        <ele>48.6</ele>
        <time>2021-07-17T08:22:49Z</time>
      </trkpt>
      <trkpt lat="43.4234250" lon="-3.9468690">
        <ele>49.0</ele>
        <time>2021-07-17T08:22:50Z</time>
      </trkpt>
      <trkpt lat="43.4233880" lon="-3.9469500">
        <ele>49.0</ele>
        <time>2021-07-17T08:22:53Z</time>
      </trkpt>
      <trkpt lat="43.4233370" lon="-3.9470470">
        <ele>49.4</ele>
        <time>2021-07-17T08:22:57Z</time>
      </trkpt>
      <trkpt lat="43.4233250" lon="-3.9470720">
        <ele>49.8</ele>
        <time>2021-07-17T08:22:58Z</time>
      </trkpt>
      <trkpt lat="43.4233150" lon="-3.9470970">
        <ele>50.2</ele>
        <time>2021-07-17T08:22:59Z</time>
      </trkpt>
      <trkpt lat="43.4233030" lon="-3.9471230">
        <ele>50.6</ele>
        <time>2021-07-17T08:23:00Z</time>
      </trkpt>
      <trkpt lat="43.4232920" lon="-3.9471490">
        <ele>51.0</ele>
        <time>2021-07-17T08:23:01Z</time>
      </trkpt>
      <trkpt lat="43.4232480" lon="-3.9472490">
        <ele>51.0</ele>
        <time>2021-07-17T08:23:05Z</time>
      </trkpt>
      <trkpt lat="43.4231830" lon="-3.9473760">
        <ele>51.8</ele>
        <time>2021-07-17T08:23:10Z</time>
      </trkpt>
      <trkpt lat="43.4231700" lon="-3.9474030">
        <ele>52.2</ele>
        <time>2021-07-17T08:23:11Z</time>
      </trkpt>
      <trkpt lat="43.4231590" lon="-3.9474320">
        <ele>52.8</ele>
        <time>2021-07-17T08:23:12Z</time>
      </trkpt>
      <trkpt lat="43.4231490" lon="-3.9474620">
        <ele>53.2</ele>
        <time>2021-07-17T08:23:13Z</time>
      </trkpt>
      <trkpt lat="43.4231300" lon="-3.9475210">
        <ele>53.2</ele>
        <time>2021-07-17T08:23:15Z</time>
      </trkpt>
      <trkpt lat="43.4230840" lon="-3.9477100">
        <ele>53.6</ele>
        <time>2021-07-17T08:23:21Z</time>
      </trkpt>
      <trkpt lat="43.4230780" lon="-3.9477410">
        <ele>54.0</ele>
        <time>2021-07-17T08:23:22Z</time>
      </trkpt>
      <trkpt lat="43.4230720" lon="-3.9477750">
        <ele>54.4</ele>
        <time>2021-07-17T08:23:23Z</time>
      </trkpt>
      <trkpt lat="43.4230660" lon="-3.9478120">
        <ele>54.8</ele>
        <time>2021-07-17T08:23:24Z</time>
      </trkpt>
      <trkpt lat="43.4230620" lon="-3.9478460">
        <ele>55.2</ele>
        <time>2021-07-17T08:23:25Z</time>
      </trkpt>
      <trkpt lat="43.4230660" lon="-3.9480420">
        <ele>55.2</ele>
        <time>2021-07-17T08:23:31Z</time>
      </trkpt>
      <trkpt lat="43.4230850" lon="-3.9482120">
        <ele>55.6</ele>
        <time>2021-07-17T08:23:37Z</time>
      </trkpt>
      <trkpt lat="43.4230820" lon="-3.9482370">
        <ele>56.0</ele>
        <time>2021-07-17T08:23:38Z</time>
      </trkpt>
      <trkpt lat="43.4230720" lon="-3.9482590">
        <ele>56.4</ele>
        <time>2021-07-17T08:23:39Z</time>
      </trkpt>
      <trkpt lat="43.4230580" lon="-3.9482770">
        <ele>56.8</ele>
        <time>2021-07-17T08:23:40Z</time>
      </trkpt>
      <trkpt lat="43.4230390" lon="-3.9482940">
        <ele>57.2</ele>
        <time>2021-07-17T08:23:41Z</time>
      </trkpt>
      <trkpt lat="43.4229960" lon="-3.9483200">
        <ele>57.2</ele>
        <time>2021-07-17T08:23:43Z</time>
      </trkpt>
      <trkpt lat="43.4228710" lon="-3.9483240">
        <ele>57.2</ele>
        <time>2021-07-17T08:23:47Z</time>
      </trkpt>
      <trkpt lat="43.4228330" lon="-3.9483210">
        <ele>57.2</ele>
        <time>2021-07-17T08:23:48Z</time>
      </trkpt>
      <trkpt lat="43.4227890" lon="-3.9483280">
        <ele>57.2</ele>
        <time>2021-07-17T08:23:49Z</time>
      </trkpt>
      <trkpt lat="43.4227030" lon="-3.9483680">
        <ele>57.2</ele>
        <time>2021-07-17T08:23:52Z</time>
      </trkpt>
      <trkpt lat="43.4226590" lon="-3.9484100">
        <ele>57.2</ele>
        <time>2021-07-17T08:23:54Z</time>
      </trkpt>
      <trkpt lat="43.4226350" lon="-3.9484400">
        <ele>56.8</ele>
        <time>2021-07-17T08:23:55Z</time>
      </trkpt>
      <trkpt lat="43.4226060" lon="-3.9484790">
        <ele>56.4</ele>
        <time>2021-07-17T08:23:56Z</time>
      </trkpt>
      <trkpt lat="43.4225750" lon="-3.9485280">
        <ele>56.0</ele>
        <time>2021-07-17T08:23:57Z</time>
      </trkpt>
      <trkpt lat="43.4225420" lon="-3.9485860">
        <ele>55.4</ele>
        <time>2021-07-17T08:23:58Z</time>
      </trkpt>
      <trkpt lat="43.4225110" lon="-3.9486450">
        <ele>55.0</ele>
        <time>2021-07-17T08:23:59Z</time>
      </trkpt>
      <trkpt lat="43.4224790" lon="-3.9487080">
        <ele>54.6</ele>
        <time>2021-07-17T08:24:00Z</time>
      </trkpt>
      <trkpt lat="43.4224420" lon="-3.9487720">
        <ele>54.2</ele>
        <time>2021-07-17T08:24:01Z</time>
      </trkpt>
      <trkpt lat="43.4224010" lon="-3.9488360">
        <ele>53.8</ele>
        <time>2021-07-17T08:24:02Z</time>
      </trkpt>
      <trkpt lat="43.4223610" lon="-3.9489060">
        <ele>53.4</ele>
        <time>2021-07-17T08:24:03Z</time>
      </trkpt>
      <trkpt lat="43.4223210" lon="-3.9489820">
        <ele>53.0</ele>
        <time>2021-07-17T08:24:04Z</time>
      </trkpt>
      <trkpt lat="43.4222840" lon="-3.9490650">
        <ele>52.4</ele>
        <time>2021-07-17T08:24:05Z</time>
      </trkpt>
      <trkpt lat="43.4222520" lon="-3.9491500">
        <ele>51.8</ele>
        <time>2021-07-17T08:24:06Z</time>
      </trkpt>
      <trkpt lat="43.4222230" lon="-3.9492350">
        <ele>51.4</ele>
        <time>2021-07-17T08:24:07Z</time>
      </trkpt>
      <trkpt lat="43.4221960" lon="-3.9493180">
        <ele>50.8</ele>
        <time>2021-07-17T08:24:08Z</time>
      </trkpt>
      <trkpt lat="43.4221700" lon="-3.9494010">
        <ele>50.2</ele>
        <time>2021-07-17T08:24:09Z</time>
      </trkpt>
      <trkpt lat="43.4221470" lon="-3.9494750">
        <ele>49.6</ele>
        <time>2021-07-17T08:24:10Z</time>
      </trkpt>
      <trkpt lat="43.4221300" lon="-3.9495500">
        <ele>49.0</ele>
        <time>2021-07-17T08:24:11Z</time>
      </trkpt>
      <trkpt lat="43.4221170" lon="-3.9496210">
        <ele>48.4</ele>
        <time>2021-07-17T08:24:12Z</time>
      </trkpt>
      <trkpt lat="43.4221030" lon="-3.9496900">
        <ele>48.0</ele>
        <time>2021-07-17T08:24:13Z</time>
      </trkpt>
      <trkpt lat="43.4220890" lon="-3.9497540">
        <ele>47.4</ele>
        <time>2021-07-17T08:24:14Z</time>
      </trkpt>
      <trkpt lat="43.4220750" lon="-3.9498130">
        <ele>47.0</ele>
        <time>2021-07-17T08:24:15Z</time>
      </trkpt>
      <trkpt lat="43.4220610" lon="-3.9498700">
        <ele>46.6</ele>
        <time>2021-07-17T08:24:16Z</time>
      </trkpt>
      <trkpt lat="43.4220450" lon="-3.9499200">
        <ele>46.2</ele>
        <time>2021-07-17T08:24:17Z</time>
      </trkpt>
      <trkpt lat="43.4220170" lon="-3.9499760">
        <ele>46.2</ele>
        <time>2021-07-17T08:24:19Z</time>
      </trkpt>
      <trkpt lat="43.4219880" lon="-3.9500290">
        <ele>45.8</ele>
        <time>2021-07-17T08:24:22Z</time>
      </trkpt>
      <trkpt lat="43.4219750" lon="-3.9500610">
        <ele>45.4</ele>
        <time>2021-07-17T08:24:23Z</time>
      </trkpt>
      <trkpt lat="43.4219600" lon="-3.9501040">
        <ele>44.6</ele>
        <time>2021-07-17T08:24:24Z</time>
      </trkpt>
      <trkpt lat="43.4219420" lon="-3.9501460">
        <ele>44.2</ele>
        <time>2021-07-17T08:24:25Z</time>
      </trkpt>
      <trkpt lat="43.4218780" lon="-3.9502870">
        <ele>43.6</ele>
        <time>2021-07-17T08:24:28Z</time>
      </trkpt>
      <trkpt lat="43.4218550" lon="-3.9503380">
        <ele>43.2</ele>
        <time>2021-07-17T08:24:29Z</time>
      </trkpt>
      <trkpt lat="43.4218350" lon="-3.9503850">
        <ele>42.8</ele>
        <time>2021-07-17T08:24:30Z</time>
      </trkpt>
      <trkpt lat="43.4218140" lon="-3.9504340">
        <ele>42.4</ele>
        <time>2021-07-17T08:24:31Z</time>
      </trkpt>
      <trkpt lat="43.4217970" lon="-3.9504860">
        <ele>42.0</ele>
        <time>2021-07-17T08:24:32Z</time>
      </trkpt>
      <trkpt lat="43.4217590" lon="-3.9506010">
        <ele>41.6</ele>
        <time>2021-07-17T08:24:34Z</time>
      </trkpt>
      <trkpt lat="43.4217410" lon="-3.9506680">
        <ele>41.0</ele>
        <time>2021-07-17T08:24:35Z</time>
      </trkpt>
      <trkpt lat="43.4217240" lon="-3.9507380">
        <ele>40.6</ele>
        <time>2021-07-17T08:24:36Z</time>
      </trkpt>
      <trkpt lat="43.4217050" lon="-3.9508090">
        <ele>40.2</ele>
        <time>2021-07-17T08:24:37Z</time>
      </trkpt>
      <trkpt lat="43.4216800" lon="-3.9508810">
        <ele>39.8</ele>
        <time>2021-07-17T08:24:38Z</time>
      </trkpt>
      <trkpt lat="43.4216490" lon="-3.9509540">
        <ele>39.8</ele>
        <time>2021-07-17T08:24:39Z</time>
      </trkpt>
      <trkpt lat="43.4215920" lon="-3.9510830">
        <ele>39.8</ele>
        <time>2021-07-17T08:24:41Z</time>
      </trkpt>
      <trkpt lat="43.4214870" lon="-3.9513210">
        <ele>39.8</ele>
        <time>2021-07-17T08:24:45Z</time>
      </trkpt>
      <trkpt lat="43.4214610" lon="-3.9513910">
        <ele>39.4</ele>
        <time>2021-07-17T08:24:46Z</time>
      </trkpt>
      <trkpt lat="43.4214350" lon="-3.9514570">
        <ele>38.8</ele>
        <time>2021-07-17T08:24:47Z</time>
      </trkpt>
      <trkpt lat="43.4214060" lon="-3.9515260">
        <ele>38.4</ele>
        <time>2021-07-17T08:24:48Z</time>
      </trkpt>
      <trkpt lat="43.4213740" lon="-3.9515960">
        <ele>37.6</ele>
        <time>2021-07-17T08:24:49Z</time>
      </trkpt>
      <trkpt lat="43.4212410" lon="-3.9518860">
        <ele>37.6</ele>
        <time>2021-07-17T08:24:54Z</time>
      </trkpt>
      <trkpt lat="43.4212080" lon="-3.9519500">
        <ele>37.2</ele>
        <time>2021-07-17T08:24:55Z</time>
      </trkpt>
      <trkpt lat="43.4211760" lon="-3.9520120">
        <ele>36.8</ele>
        <time>2021-07-17T08:24:56Z</time>
      </trkpt>
      <trkpt lat="43.4211450" lon="-3.9520760">
        <ele>36.4</ele>
        <time>2021-07-17T08:24:57Z</time>
      </trkpt>
      <trkpt lat="43.4211140" lon="-3.9521390">
        <ele>35.8</ele>
        <time>2021-07-17T08:24:58Z</time>
      </trkpt>
      <trkpt lat="43.4210820" lon="-3.9522020">
        <ele>35.4</ele>
        <time>2021-07-17T08:24:59Z</time>
      </trkpt>
      <trkpt lat="43.4209520" lon="-3.9524730">
        <ele>35.0</ele>
        <time>2021-07-17T08:25:03Z</time>
      </trkpt>
      <trkpt lat="43.4209180" lon="-3.9525450">
        <ele>34.6</ele>
        <time>2021-07-17T08:25:04Z</time>
      </trkpt>
      <trkpt lat="43.4208810" lon="-3.9526170">
        <ele>34.0</ele>
        <time>2021-07-17T08:25:05Z</time>
      </trkpt>
      <trkpt lat="43.4208420" lon="-3.9526890">
        <ele>33.6</ele>
        <time>2021-07-17T08:25:06Z</time>
      </trkpt>
      <trkpt lat="43.4208060" lon="-3.9527630">
        <ele>33.2</ele>
        <time>2021-07-17T08:25:07Z</time>
      </trkpt>
      <trkpt lat="43.4206310" lon="-3.9531250">
        <ele>33.2</ele>
        <time>2021-07-17T08:25:12Z</time>
      </trkpt>
      <trkpt lat="43.4206000" lon="-3.9531970">
        <ele>32.8</ele>
        <time>2021-07-17T08:25:13Z</time>
      </trkpt>
      <trkpt lat="43.4205740" lon="-3.9532710">
        <ele>32.2</ele>
        <time>2021-07-17T08:25:14Z</time>
      </trkpt>
      <trkpt lat="43.4205470" lon="-3.9533440">
        <ele>31.4</ele>
        <time>2021-07-17T08:25:15Z</time>
      </trkpt>
      <trkpt lat="43.4205140" lon="-3.9534190">
        <ele>30.8</ele>
        <time>2021-07-17T08:25:16Z</time>
      </trkpt>
      <trkpt lat="43.4204810" lon="-3.9534860">
        <ele>30.8</ele>
        <time>2021-07-17T08:25:17Z</time>
      </trkpt>
      <trkpt lat="43.4204570" lon="-3.9535540">
        <ele>30.8</ele>
        <time>2021-07-17T08:25:18Z</time>
      </trkpt>
      <trkpt lat="43.4203760" lon="-3.9538160">
        <ele>30.8</ele>
        <time>2021-07-17T08:25:22Z</time>
      </trkpt>
      <trkpt lat="43.4203380" lon="-3.9539420">
        <ele>30.8</ele>
        <time>2021-07-17T08:25:24Z</time>
      </trkpt>
      <trkpt lat="43.4202680" lon="-3.9541740">
        <ele>30.8</ele>
        <time>2021-07-17T08:25:28Z</time>
      </trkpt>
      <trkpt lat="43.4202360" lon="-3.9542810">
        <ele>30.8</ele>
        <time>2021-07-17T08:25:30Z</time>
      </trkpt>
      <trkpt lat="43.4201900" lon="-3.9544830">
        <ele>30.8</ele>
        <time>2021-07-17T08:25:34Z</time>
      </trkpt>
      <trkpt lat="43.4201190" lon="-3.9547540">
        <ele>30.8</ele>
        <time>2021-07-17T08:25:40Z</time>
      </trkpt>
      <trkpt lat="43.4200690" lon="-3.9549170">
        <ele>30.8</ele>
        <time>2021-07-17T08:25:43Z</time>
      </trkpt>
      <trkpt lat="43.4200030" lon="-3.9551270">
        <ele>30.4</ele>
        <time>2021-07-17T08:25:47Z</time>
      </trkpt>
      <trkpt lat="43.4199910" lon="-3.9551680">
        <ele>30.0</ele>
        <time>2021-07-17T08:25:48Z</time>
      </trkpt>
      <trkpt lat="43.4199770" lon="-3.9552030">
        <ele>29.6</ele>
        <time>2021-07-17T08:25:49Z</time>
      </trkpt>
      <trkpt lat="43.4199620" lon="-3.9552420">
        <ele>29.2</ele>
        <time>2021-07-17T08:25:50Z</time>
      </trkpt>
      <trkpt lat="43.4199530" lon="-3.9552870">
        <ele>28.8</ele>
        <time>2021-07-17T08:25:51Z</time>
      </trkpt>
      <trkpt lat="43.4199390" lon="-3.9553790">
        <ele>28.4</ele>
        <time>2021-07-17T08:25:53Z</time>
      </trkpt>
      <trkpt lat="43.4199310" lon="-3.9554240">
        <ele>27.8</ele>
        <time>2021-07-17T08:25:54Z</time>
      </trkpt>
      <trkpt lat="43.4199260" lon="-3.9554530">
        <ele>27.4</ele>
        <time>2021-07-17T08:25:55Z</time>
      </trkpt>
      <trkpt lat="43.4199210" lon="-3.9554750">
        <ele>27.0</ele>
        <time>2021-07-17T08:25:56Z</time>
      </trkpt>
      <trkpt lat="43.4199180" lon="-3.9554960">
        <ele>26.4</ele>
        <time>2021-07-17T08:25:57Z</time>
      </trkpt>
      <trkpt lat="43.4199250" lon="-3.9555110">
        <ele>26.4</ele>
        <time>2021-07-17T08:26:00Z</time>
      </trkpt>
      <trkpt lat="43.4199130" lon="-3.9555530">
        <ele>24.4</ele>
        <time>2021-07-17T08:28:10Z</time>
      </trkpt>
      <trkpt lat="43.4199280" lon="-3.9558010">
        <ele>24.0</ele>
        <time>2021-07-17T08:28:15Z</time>
      </trkpt>
      <trkpt lat="43.4199280" lon="-3.9558600">
        <ele>23.6</ele>
        <time>2021-07-17T08:28:16Z</time>
      </trkpt>
      <trkpt lat="43.4199220" lon="-3.9559200">
        <ele>23.0</ele>
        <time>2021-07-17T08:28:17Z</time>
      </trkpt>
      <trkpt lat="43.4199140" lon="-3.9559860">
        <ele>22.6</ele>
        <time>2021-07-17T08:28:18Z</time>
      </trkpt>
      <trkpt lat="43.4199080" lon="-3.9560460">
        <ele>22.2</ele>
        <time>2021-07-17T08:28:19Z</time>
      </trkpt>
      <trkpt lat="43.4198990" lon="-3.9561100">
        <ele>21.6</ele>
        <time>2021-07-17T08:28:20Z</time>
      </trkpt>
      <trkpt lat="43.4198920" lon="-3.9561740">
        <ele>21.2</ele>
        <time>2021-07-17T08:28:21Z</time>
      </trkpt>
      <trkpt lat="43.4198850" lon="-3.9562430">
        <ele>20.8</ele>
        <time>2021-07-17T08:28:22Z</time>
      </trkpt>
      <trkpt lat="43.4198760" lon="-3.9563150">
        <ele>20.2</ele>
        <time>2021-07-17T08:28:23Z</time>
      </trkpt>
      <trkpt lat="43.4198590" lon="-3.9563810">
        <ele>19.8</ele>
        <time>2021-07-17T08:28:24Z</time>
      </trkpt>
      <trkpt lat="43.4197780" lon="-3.9565320">
        <ele>19.8</ele>
        <time>2021-07-17T08:28:27Z</time>
      </trkpt>
      <trkpt lat="43.4197050" lon="-3.9566190">
        <ele>19.8</ele>
        <time>2021-07-17T08:28:30Z</time>
      </trkpt>
      <trkpt lat="43.4196580" lon="-3.9566450">
        <ele>19.8</ele>
        <time>2021-07-17T08:28:32Z</time>
      </trkpt>
      <trkpt lat="43.4195600" lon="-3.9566960">
        <ele>19.4</ele>
        <time>2021-07-17T08:28:36Z</time>
      </trkpt>
      <trkpt lat="43.4195180" lon="-3.9566870">
        <ele>19.0</ele>
        <time>2021-07-17T08:28:37Z</time>
      </trkpt>
      <trkpt lat="43.4194650" lon="-3.9566780">
        <ele>18.4</ele>
        <time>2021-07-17T08:28:38Z</time>
      </trkpt>
      <trkpt lat="43.4194040" lon="-3.9566720">
        <ele>18.0</ele>
        <time>2021-07-17T08:28:39Z</time>
      </trkpt>
      <trkpt lat="43.4193510" lon="-3.9566820">
        <ele>17.6</ele>
        <time>2021-07-17T08:28:40Z</time>
      </trkpt>
      <trkpt lat="43.4192610" lon="-3.9567130">
        <ele>17.6</ele>
        <time>2021-07-17T08:28:42Z</time>
      </trkpt>
      <trkpt lat="43.4191490" lon="-3.9567440">
        <ele>17.6</ele>
        <time>2021-07-17T08:28:45Z</time>
      </trkpt>
      <trkpt lat="43.4189910" lon="-3.9568180">
        <ele>17.6</ele>
        <time>2021-07-17T08:28:50Z</time>
      </trkpt>
      <trkpt lat="43.4187690" lon="-3.9568870">
        <ele>17.6</ele>
        <time>2021-07-17T08:28:57Z</time>
      </trkpt>
      <trkpt lat="43.4185240" lon="-3.9569750">
        <ele>17.6</ele>
        <time>2021-07-17T08:29:04Z</time>
      </trkpt>
      <trkpt lat="43.4184150" lon="-3.9570360">
        <ele>17.6</ele>
        <time>2021-07-17T08:29:07Z</time>
      </trkpt>
      <trkpt lat="43.4183370" lon="-3.9570880">
        <ele>17.6</ele>
        <time>2021-07-17T08:29:09Z</time>
      </trkpt>
      <trkpt lat="43.4182910" lon="-3.9571130">
        <ele>17.6</ele>
        <time>2021-07-17T08:29:10Z</time>
      </trkpt>
      <trkpt lat="43.4178070" lon="-3.9573390">
        <ele>17.6</ele>
        <time>2021-07-17T08:29:20Z</time>
      </trkpt>
      <trkpt lat="43.4174380" lon="-3.9574850">
        <ele>17.6</ele>
        <time>2021-07-17T08:29:28Z</time>
      </trkpt>
      <trkpt lat="43.4171660" lon="-3.9575780">
        <ele>17.6</ele>
        <time>2021-07-17T08:29:34Z</time>
      </trkpt>
      <trkpt lat="43.4167980" lon="-3.9576430">
        <ele>17.6</ele>
        <time>2021-07-17T08:29:42Z</time>
      </trkpt>
      <trkpt lat="43.4164300" lon="-3.9576990">
        <ele>17.6</ele>
        <time>2021-07-17T08:29:50Z</time>
      </trkpt>
      <trkpt lat="43.4161100" lon="-3.9577410">
        <ele>17.6</ele>
        <time>2021-07-17T08:29:57Z</time>
      </trkpt>
      <trkpt lat="43.4159240" lon="-3.9577550">
        <ele>17.6</ele>
        <time>2021-07-17T08:30:01Z</time>
      </trkpt>
      <trkpt lat="43.4156910" lon="-3.9577630">
        <ele>17.6</ele>
        <time>2021-07-17T08:30:06Z</time>
      </trkpt>
      <trkpt lat="43.4156460" lon="-3.9577690">
        <ele>17.6</ele>
        <time>2021-07-17T08:30:07Z</time>
      </trkpt>
      <trkpt lat="43.4152460" lon="-3.9577830">
        <ele>17.6</ele>
        <time>2021-07-17T08:30:16Z</time>
      </trkpt>
      <trkpt lat="43.4148840" lon="-3.9577920">
        <ele>17.6</ele>
        <time>2021-07-17T08:30:24Z</time>
      </trkpt>
      <trkpt lat="43.4145090" lon="-3.9577960">
        <ele>17.6</ele>
        <time>2021-07-17T08:30:32Z</time>
      </trkpt>
      <trkpt lat="43.4141460" lon="-3.9578250">
        <ele>17.6</ele>
        <time>2021-07-17T08:30:40Z</time>
      </trkpt>
      <trkpt lat="43.4139330" lon="-3.9578480">
        <ele>17.6</ele>
        <time>2021-07-17T08:30:45Z</time>
      </trkpt>
      <trkpt lat="43.4138040" lon="-3.9578540">
        <ele>17.6</ele>
        <time>2021-07-17T08:30:48Z</time>
      </trkpt>
      <trkpt lat="43.4135400" lon="-3.9578870">
        <ele>17.6</ele>
        <time>2021-07-17T08:30:54Z</time>
      </trkpt>
      <trkpt lat="43.4131670" lon="-3.9579070">
        <ele>17.6</ele>
        <time>2021-07-17T08:31:02Z</time>
      </trkpt>
      <trkpt lat="43.4130630" lon="-3.9578620">
        <ele>17.6</ele>
        <time>2021-07-17T08:31:05Z</time>
      </trkpt>
      <trkpt lat="43.4130440" lon="-3.9578170">
        <ele>17.6</ele>
        <time>2021-07-17T08:31:06Z</time>
      </trkpt>
      <trkpt lat="43.4130470" lon="-3.9575910">
        <ele>17.6</ele>
        <time>2021-07-17T08:31:10Z</time>
      </trkpt>
      <trkpt lat="43.4130750" lon="-3.9574690">
        <ele>17.6</ele>
        <time>2021-07-17T08:31:12Z</time>
      </trkpt>
      <trkpt lat="43.4131320" lon="-3.9571620">
        <ele>17.6</ele>
        <time>2021-07-17T08:31:17Z</time>
      </trkpt>
      <trkpt lat="43.4132220" lon="-3.9567050">
        <ele>17.6</ele>
        <time>2021-07-17T08:31:25Z</time>
      </trkpt>
      <trkpt lat="43.4132540" lon="-3.9564990">
        <ele>17.6</ele>
        <time>2021-07-17T08:31:29Z</time>
      </trkpt>
      <trkpt lat="43.4132820" lon="-3.9563690">
        <ele>17.6</ele>
        <time>2021-07-17T08:31:32Z</time>
      </trkpt>
      <trkpt lat="43.4133050" lon="-3.9562430">
        <ele>18.0</ele>
        <time>2021-07-17T08:31:35Z</time>
      </trkpt>
      <trkpt lat="43.4133120" lon="-3.9561990">
        <ele>18.4</ele>
        <time>2021-07-17T08:31:36Z</time>
      </trkpt>
      <trkpt lat="43.4133170" lon="-3.9561590">
        <ele>18.8</ele>
        <time>2021-07-17T08:31:37Z</time>
      </trkpt>
      <trkpt lat="43.4133230" lon="-3.9561200">
        <ele>19.2</ele>
        <time>2021-07-17T08:31:38Z</time>
      </trkpt>
      <trkpt lat="43.4133330" lon="-3.9560810">
        <ele>19.6</ele>
        <time>2021-07-17T08:31:39Z</time>
      </trkpt>
      <trkpt lat="43.4133850" lon="-3.9558370">
        <ele>19.6</ele>
        <time>2021-07-17T08:31:45Z</time>
      </trkpt>
      <trkpt lat="43.4134090" lon="-3.9557140">
        <ele>19.6</ele>
        <time>2021-07-17T08:31:48Z</time>
      </trkpt>
      <trkpt lat="43.4134320" lon="-3.9556230">
        <ele>20.4</ele>
        <time>2021-07-17T08:31:50Z</time>
      </trkpt>
      <trkpt lat="43.4134420" lon="-3.9555810">
        <ele>20.8</ele>
        <time>2021-07-17T08:31:51Z</time>
      </trkpt>
      <trkpt lat="43.4134500" lon="-3.9555380">
        <ele>21.4</ele>
        <time>2021-07-17T08:31:52Z</time>
      </trkpt>
      <trkpt lat="43.4134620" lon="-3.9554960">
        <ele>21.8</ele>
        <time>2021-07-17T08:31:53Z</time>
      </trkpt>
      <trkpt lat="43.4134850" lon="-3.9554080">
        <ele>21.8</ele>
        <time>2021-07-17T08:31:55Z</time>
      </trkpt>
      <trkpt lat="43.4135730" lon="-3.9550260">
        <ele>21.8</ele>
        <time>2021-07-17T08:32:02Z</time>
      </trkpt>
      <trkpt lat="43.4136390" lon="-3.9547680">
        <ele>21.8</ele>
        <time>2021-07-17T08:32:06Z</time>
      </trkpt>
      <trkpt lat="43.4136740" lon="-3.9546410">
        <ele>21.8</ele>
        <time>2021-07-17T08:32:08Z</time>
      </trkpt>
      <trkpt lat="43.4137120" lon="-3.9544520">
        <ele>21.8</ele>
        <time>2021-07-17T08:32:11Z</time>
      </trkpt>
      <trkpt lat="43.4138190" lon="-3.9539730">
        <ele>21.8</ele>
        <time>2021-07-17T08:32:19Z</time>
      </trkpt>
      <trkpt lat="43.4139160" lon="-3.9535150">
        <ele>21.8</ele>
        <time>2021-07-17T08:32:27Z</time>
      </trkpt>
      <trkpt lat="43.4140370" lon="-3.9530180">
        <ele>21.8</ele>
        <time>2021-07-17T08:32:37Z</time>
      </trkpt>
      <trkpt lat="43.4141310" lon="-3.9526010">
        <ele>21.8</ele>
        <time>2021-07-17T08:32:45Z</time>
      </trkpt>
      <trkpt lat="43.4142330" lon="-3.9521620">
        <ele>21.8</ele>
        <time>2021-07-17T08:32:53Z</time>
      </trkpt>
      <trkpt lat="43.4143170" lon="-3.9518370">
        <ele>21.8</ele>
        <time>2021-07-17T08:32:59Z</time>
      </trkpt>
      <trkpt lat="43.4143370" lon="-3.9517480">
        <ele>21.8</ele>
        <time>2021-07-17T08:33:01Z</time>
      </trkpt>
      <trkpt lat="43.4143790" lon="-3.9515120">
        <ele>21.8</ele>
        <time>2021-07-17T08:33:06Z</time>
      </trkpt>
      <trkpt lat="43.4144010" lon="-3.9514250">
        <ele>21.8</ele>
        <time>2021-07-17T08:33:08Z</time>
      </trkpt>
      <trkpt lat="43.4144440" lon="-3.9512240">
        <ele>21.8</ele>
        <time>2021-07-17T08:33:13Z</time>
      </trkpt>
      <trkpt lat="43.4144640" lon="-3.9511130">
        <ele>21.8</ele>
        <time>2021-07-17T08:33:16Z</time>
      </trkpt>
      <trkpt lat="43.4144760" lon="-3.9510360">
        <ele>21.8</ele>
        <time>2021-07-17T08:33:18Z</time>
      </trkpt>
      <trkpt lat="43.4144960" lon="-3.9509330">
        <ele>21.8</ele>
        <time>2021-07-17T08:33:21Z</time>
      </trkpt>
      <trkpt lat="43.4145150" lon="-3.9508240">
        <ele>22.2</ele>
        <time>2021-07-17T08:33:24Z</time>
      </trkpt>
      <trkpt lat="43.4145240" lon="-3.9507910">
        <ele>22.6</ele>
        <time>2021-07-17T08:33:25Z</time>
      </trkpt>
      <trkpt lat="43.4145350" lon="-3.9507560">
        <ele>23.0</ele>
        <time>2021-07-17T08:33:26Z</time>
      </trkpt>
      <trkpt lat="43.4145480" lon="-3.9507210">
        <ele>23.6</ele>
        <time>2021-07-17T08:33:27Z</time>
      </trkpt>
      <trkpt lat="43.4145620" lon="-3.9506910">
        <ele>24.0</ele>
        <time>2021-07-17T08:33:28Z</time>
      </trkpt>
      <trkpt lat="43.4146020" lon="-3.9506010">
        <ele>24.0</ele>
        <time>2021-07-17T08:33:31Z</time>
      </trkpt>
      <trkpt lat="43.4147350" lon="-3.9503640">
        <ele>24.0</ele>
        <time>2021-07-17T08:33:39Z</time>
      </trkpt>
      <trkpt lat="43.4147960" lon="-3.9502790">
        <ele>24.4</ele>
        <time>2021-07-17T08:33:43Z</time>
      </trkpt>
      <trkpt lat="43.4148130" lon="-3.9502680">
        <ele>24.8</ele>
        <time>2021-07-17T08:33:44Z</time>
      </trkpt>
      <trkpt lat="43.4148310" lon="-3.9502540">
        <ele>25.2</ele>
        <time>2021-07-17T08:33:45Z</time>
      </trkpt>
      <trkpt lat="43.4148450" lon="-3.9502370">
        <ele>25.6</ele>
        <time>2021-07-17T08:33:46Z</time>
      </trkpt>
      <trkpt lat="43.4148600" lon="-3.9502170">
        <ele>26.0</ele>
        <time>2021-07-17T08:33:47Z</time>
      </trkpt>
      <trkpt lat="43.4149440" lon="-3.9500910">
        <ele>26.0</ele>
        <time>2021-07-17T08:33:53Z</time>
      </trkpt>
      <trkpt lat="43.4150340" lon="-3.9498600">
        <ele>26.0</ele>
        <time>2021-07-17T08:33:58Z</time>
      </trkpt>
      <trkpt lat="43.4151220" lon="-3.9496330">
        <ele>26.0</ele>
        <time>2021-07-17T08:34:02Z</time>
      </trkpt>
      <trkpt lat="43.4151380" lon="-3.9494890">
        <ele>26.0</ele>
        <time>2021-07-17T08:34:04Z</time>
      </trkpt>
      <trkpt lat="43.4151110" lon="-3.9492750">
        <ele>26.0</ele>
        <time>2021-07-17T08:34:07Z</time>
      </trkpt>
      <trkpt lat="43.4150950" lon="-3.9492080">
        <ele>26.0</ele>
        <time>2021-07-17T08:34:08Z</time>
      </trkpt>
      <trkpt lat="43.4150810" lon="-3.9491390">
        <ele>26.0</ele>
        <time>2021-07-17T08:34:09Z</time>
      </trkpt>
      <trkpt lat="43.4150460" lon="-3.9489500">
        <ele>26.0</ele>
        <time>2021-07-17T08:34:12Z</time>
      </trkpt>
      <trkpt lat="43.4150150" lon="-3.9487820">
        <ele>26.0</ele>
        <time>2021-07-17T08:34:15Z</time>
      </trkpt>
      <trkpt lat="43.4149190" lon="-3.9483360">
        <ele>26.0</ele>
        <time>2021-07-17T08:34:23Z</time>
      </trkpt>
      <trkpt lat="43.4148490" lon="-3.9481680">
        <ele>26.0</ele>
        <time>2021-07-17T08:34:27Z</time>
      </trkpt>
      <trkpt lat="43.4148260" lon="-3.9480910">
        <ele>26.0</ele>
        <time>2021-07-17T08:34:29Z</time>
      </trkpt>
      <trkpt lat="43.4147220" lon="-3.9477390">
        <ele>26.0</ele>
        <time>2021-07-17T08:34:37Z</time>
      </trkpt>
      <trkpt lat="43.4146890" lon="-3.9474010">
        <ele>26.0</ele>
        <time>2021-07-17T08:34:44Z</time>
      </trkpt>
      <trkpt lat="43.4146750" lon="-3.9471260">
        <ele>26.0</ele>
        <time>2021-07-17T08:34:50Z</time>
      </trkpt>
      <trkpt lat="43.4146620" lon="-3.9470400">
        <ele>26.0</ele>
        <time>2021-07-17T08:34:52Z</time>
      </trkpt>
      <trkpt lat="43.4145970" lon="-3.9467930">
        <ele>26.0</ele>
        <time>2021-07-17T08:34:58Z</time>
      </trkpt>
      <trkpt lat="43.4145780" lon="-3.9467090">
        <ele>26.0</ele>
        <time>2021-07-17T08:35:00Z</time>
      </trkpt>
      <trkpt lat="43.4145350" lon="-3.9464580">
        <ele>26.0</ele>
        <time>2021-07-17T08:35:06Z</time>
      </trkpt>
      <trkpt lat="43.4145080" lon="-3.9462400">
        <ele>26.6</ele>
        <time>2021-07-17T08:35:11Z</time>
      </trkpt>
      <trkpt lat="43.4145070" lon="-3.9461950">
        <ele>27.0</ele>
        <time>2021-07-17T08:35:12Z</time>
      </trkpt>
      <trkpt lat="43.4145050" lon="-3.9461520">
        <ele>27.4</ele>
        <time>2021-07-17T08:35:13Z</time>
      </trkpt>
      <trkpt lat="43.4145050" lon="-3.9461100">
        <ele>27.8</ele>
        <time>2021-07-17T08:35:14Z</time>
      </trkpt>
      <trkpt lat="43.4145030" lon="-3.9460670">
        <ele>28.2</ele>
        <time>2021-07-17T08:35:15Z</time>
      </trkpt>
      <trkpt lat="43.4144870" lon="-3.9458110">
        <ele>28.2</ele>
        <time>2021-07-17T08:35:21Z</time>
      </trkpt>
      <trkpt lat="43.4144130" lon="-3.9455630">
        <ele>28.2</ele>
        <time>2021-07-17T08:35:27Z</time>
      </trkpt>
      <trkpt lat="43.4143040" lon="-3.9452070">
        <ele>28.2</ele>
        <time>2021-07-17T08:35:36Z</time>
      </trkpt>
      <trkpt lat="43.4141560" lon="-3.9449040">
        <ele>28.2</ele>
        <time>2021-07-17T08:35:45Z</time>
      </trkpt>
      <trkpt lat="43.4139710" lon="-3.9447720">
        <ele>28.2</ele>
        <time>2021-07-17T08:35:51Z</time>
      </trkpt>
      <trkpt lat="43.4138000" lon="-3.9447420">
        <ele>28.2</ele>
        <time>2021-07-17T08:35:55Z</time>
      </trkpt>
      <trkpt lat="43.4137160" lon="-3.9447260">
        <ele>28.2</ele>
        <time>2021-07-17T08:35:57Z</time>
      </trkpt>
      <trkpt lat="43.4136320" lon="-3.9447180">
        <ele>28.2</ele>
        <time>2021-07-17T08:35:59Z</time>
      </trkpt>
      <trkpt lat="43.4135630" lon="-3.9447030">
        <ele>28.2</ele>
        <time>2021-07-17T08:36:01Z</time>
      </trkpt>
      <trkpt lat="43.4135090" lon="-3.9446940">
        <ele>28.2</ele>
        <time>2021-07-17T08:36:03Z</time>
      </trkpt>
      <trkpt lat="43.4134620" lon="-3.9446670">
        <ele>28.2</ele>
        <time>2021-07-17T08:36:05Z</time>
      </trkpt>
      <trkpt lat="43.4134320" lon="-3.9446510">
        <ele>28.2</ele>
        <time>2021-07-17T08:36:07Z</time>
      </trkpt>
      <trkpt lat="43.4134200" lon="-3.9446740">
        <ele>28.2</ele>
        <time>2021-07-17T08:36:08Z</time>
      </trkpt>
      <trkpt lat="43.4134200" lon="-3.9448020">
        <ele>27.8</ele>
        <time>2021-07-17T08:36:11Z</time>
      </trkpt>
      <trkpt lat="43.4134290" lon="-3.9448480">
        <ele>27.4</ele>
        <time>2021-07-17T08:36:12Z</time>
      </trkpt>
      <trkpt lat="43.4134360" lon="-3.9448910">
        <ele>27.0</ele>
        <time>2021-07-17T08:36:13Z</time>
      </trkpt>
      <trkpt lat="43.4134460" lon="-3.9449270">
        <ele>26.6</ele>
        <time>2021-07-17T08:36:14Z</time>
      </trkpt>
      <trkpt lat="43.4134550" lon="-3.9449590">
        <ele>26.2</ele>
        <time>2021-07-17T08:36:15Z</time>
      </trkpt>
      <trkpt lat="43.4134680" lon="-3.9450150">
        <ele>26.2</ele>
        <time>2021-07-17T08:36:17Z</time>
      </trkpt>
      <trkpt lat="43.4134560" lon="-3.9450900">
        <ele>26.2</ele>
        <time>2021-07-17T08:36:22Z</time>
      </trkpt>
      <trkpt lat="43.4134850" lon="-3.9452000">
        <ele>25.6</ele>
        <time>2021-07-17T08:36:27Z</time>
      </trkpt>
      <trkpt lat="43.4134840" lon="-3.9452270">
        <ele>25.2</ele>
        <time>2021-07-17T08:36:28Z</time>
      </trkpt>
      <trkpt lat="43.4134770" lon="-3.9452600">
        <ele>24.8</ele>
        <time>2021-07-17T08:36:29Z</time>
      </trkpt>
      <trkpt lat="43.4134770" lon="-3.9452950">
        <ele>24.4</ele>
        <time>2021-07-17T08:36:30Z</time>
      </trkpt>
      <trkpt lat="43.4134890" lon="-3.9453250">
        <ele>24.0</ele>
        <time>2021-07-17T08:36:31Z</time>
      </trkpt>
      <trkpt lat="43.4135300" lon="-3.9453580">
        <ele>24.0</ele>
        <time>2021-07-17T08:36:33Z</time>
      </trkpt>
      <trkpt lat="43.4135520" lon="-3.9453780">
        <ele>24.0</ele>
        <time>2021-07-17T08:36:34Z</time>
      </trkpt>
      <trkpt lat="43.4135750" lon="-3.9453990">
        <ele>24.0</ele>
        <time>2021-07-17T08:36:35Z</time>
      </trkpt>
      <trkpt lat="43.4136390" lon="-3.9454660">
        <ele>24.0</ele>
        <time>2021-07-17T08:36:40Z</time>
      </trkpt>
      <trkpt lat="43.4136380" lon="-3.9454720">
        <ele>24.0</ele>
        <time>2021-07-17T08:36:41Z</time>
      </trkpt>
      <trkpt lat="43.4136020" lon="-3.9454400">
        <ele>24.0</ele>
        <time>2021-07-17T08:39:00Z</time>
      </trkpt>
      <trkpt lat="43.4135660" lon="-3.9454020">
        <ele>24.0</ele>
        <time>2021-07-17T08:39:02Z</time>
      </trkpt>
      <trkpt lat="43.4135080" lon="-3.9453210">
        <ele>24.0</ele>
        <time>2021-07-17T08:39:06Z</time>
      </trkpt>
      <trkpt lat="43.4134950" lon="-3.9452660">
        <ele>24.0</ele>
        <time>2021-07-17T08:39:08Z</time>
      </trkpt>
      <trkpt lat="43.4134500" lon="-3.9451320">
        <ele>24.0</ele>
        <time>2021-07-17T08:39:13Z</time>
      </trkpt>
      <trkpt lat="43.4134350" lon="-3.9451050">
        <ele>24.0</ele>
        <time>2021-07-17T08:39:14Z</time>
      </trkpt>
      <trkpt lat="43.4134100" lon="-3.9450160">
        <ele>24.0</ele>
        <time>2021-07-17T08:39:18Z</time>
      </trkpt>
      <trkpt lat="43.4134110" lon="-3.9450180">
        <ele>24.0</ele>
        <time>2021-07-17T08:39:19Z</time>
      </trkpt>
      <trkpt lat="43.4134120" lon="-3.9450120">
        <ele>24.0</ele>
        <time>2021-07-17T08:39:20Z</time>
      </trkpt>
      <trkpt lat="43.4134080" lon="-3.9449790">
        <ele>24.0</ele>
        <time>2021-07-17T08:39:41Z</time>
      </trkpt>
      <trkpt lat="43.4134010" lon="-3.9449230">
        <ele>24.0</ele>
        <time>2021-07-17T08:39:43Z</time>
      </trkpt>
      <trkpt lat="43.4133710" lon="-3.9447570">
        <ele>24.4</ele>
        <time>2021-07-17T08:39:50Z</time>
      </trkpt>
      <trkpt lat="43.4133660" lon="-3.9447330">
        <ele>24.8</ele>
        <time>2021-07-17T08:39:51Z</time>
      </trkpt>
      <trkpt lat="43.4133640" lon="-3.9447110">
        <ele>25.2</ele>
        <time>2021-07-17T08:39:52Z</time>
      </trkpt>
      <trkpt lat="43.4133580" lon="-3.9446920">
        <ele>25.6</ele>
        <time>2021-07-17T08:39:53Z</time>
      </trkpt>
      <trkpt lat="43.4133540" lon="-3.9446830">
        <ele>26.0</ele>
        <time>2021-07-17T08:39:54Z</time>
      </trkpt>
      <trkpt lat="43.4133530" lon="-3.9446750">
        <ele>26.0</ele>
        <time>2021-07-17T08:39:56Z</time>
      </trkpt>
      <trkpt lat="43.4133510" lon="-3.9446260">
        <ele>26.0</ele>
        <time>2021-07-17T08:40:25Z</time>
      </trkpt>
      <trkpt lat="43.4133460" lon="-3.9446040">
        <ele>26.0</ele>
        <time>2021-07-17T08:40:26Z</time>
      </trkpt>
      <trkpt lat="43.4132880" lon="-3.9444910">
        <ele>26.0</ele>
        <time>2021-07-17T08:40:31Z</time>
      </trkpt>
      <trkpt lat="43.4132680" lon="-3.9444580">
        <ele>26.0</ele>
        <time>2021-07-17T08:40:32Z</time>
      </trkpt>
      <trkpt lat="43.4131270" lon="-3.9441520">
        <ele>26.0</ele>
        <time>2021-07-17T08:40:39Z</time>
      </trkpt>
      <trkpt lat="43.4130800" lon="-3.9440290">
        <ele>26.0</ele>
        <time>2021-07-17T08:40:41Z</time>
      </trkpt>
      <trkpt lat="43.4130200" lon="-3.9438560">
        <ele>26.0</ele>
        <time>2021-07-17T08:40:44Z</time>
      </trkpt>
      <trkpt lat="43.4129810" lon="-3.9437600">
        <ele>25.6</ele>
        <time>2021-07-17T08:40:47Z</time>
      </trkpt>
      <trkpt lat="43.4129730" lon="-3.9437370">
        <ele>25.2</ele>
        <time>2021-07-17T08:40:48Z</time>
      </trkpt>
      <trkpt lat="43.4129670" lon="-3.9437140">
        <ele>24.8</ele>
        <time>2021-07-17T08:40:49Z</time>
      </trkpt>
      <trkpt lat="43.4129590" lon="-3.9436900">
        <ele>24.4</ele>
        <time>2021-07-17T08:40:50Z</time>
      </trkpt>
      <trkpt lat="43.4129490" lon="-3.9436650">
        <ele>24.0</ele>
        <time>2021-07-17T08:40:51Z</time>
      </trkpt>
      <trkpt lat="43.4129180" lon="-3.9436180">
        <ele>24.0</ele>
        <time>2021-07-17T08:40:53Z</time>
      </trkpt>
      <trkpt lat="43.4127800" lon="-3.9435100">
        <ele>24.0</ele>
        <time>2021-07-17T08:40:59Z</time>
      </trkpt>
      <trkpt lat="43.4126630" lon="-3.9434440">
        <ele>23.6</ele>
        <time>2021-07-17T08:41:02Z</time>
      </trkpt>
      <trkpt lat="43.4126210" lon="-3.9434220">
        <ele>23.0</ele>
        <time>2021-07-17T08:41:03Z</time>
      </trkpt>
      <trkpt lat="43.4125780" lon="-3.9433980">
        <ele>22.6</ele>
        <time>2021-07-17T08:41:04Z</time>
      </trkpt>
      <trkpt lat="43.4125380" lon="-3.9433730">
        <ele>22.2</ele>
        <time>2021-07-17T08:41:05Z</time>
      </trkpt>
      <trkpt lat="43.4124980" lon="-3.9433480">
        <ele>21.6</ele>
        <time>2021-07-17T08:41:06Z</time>
      </trkpt>
      <trkpt lat="43.4123190" lon="-3.9432160">
        <ele>21.2</ele>
        <time>2021-07-17T08:41:11Z</time>
      </trkpt>
      <trkpt lat="43.4122860" lon="-3.9431920">
        <ele>20.8</ele>
        <time>2021-07-17T08:41:12Z</time>
      </trkpt>
      <trkpt lat="43.4122520" lon="-3.9431710">
        <ele>20.4</ele>
        <time>2021-07-17T08:41:13Z</time>
      </trkpt>
      <trkpt lat="43.4122160" lon="-3.9431480">
        <ele>20.0</ele>
        <time>2021-07-17T08:41:14Z</time>
      </trkpt>
      <trkpt lat="43.4121790" lon="-3.9431210">
        <ele>19.6</ele>
        <time>2021-07-17T08:41:15Z</time>
      </trkpt>
      <trkpt lat="43.4120990" lon="-3.9430710">
        <ele>19.6</ele>
        <time>2021-07-17T08:41:17Z</time>
      </trkpt>
      <trkpt lat="43.4120180" lon="-3.9430270">
        <ele>19.6</ele>
        <time>2021-07-17T08:41:19Z</time>
      </trkpt>
      <trkpt lat="43.4117710" lon="-3.9428650">
        <ele>19.6</ele>
        <time>2021-07-17T08:41:26Z</time>
      </trkpt>
      <trkpt lat="43.4115090" lon="-3.9426630">
        <ele>19.6</ele>
        <time>2021-07-17T08:41:34Z</time>
      </trkpt>
      <trkpt lat="43.4112710" lon="-3.9424310">
        <ele>19.6</ele>
        <time>2021-07-17T08:41:41Z</time>
      </trkpt>
      <trkpt lat="43.4111950" lon="-3.9423690">
        <ele>19.6</ele>
        <time>2021-07-17T08:41:43Z</time>
      </trkpt>
      <trkpt lat="43.4110220" lon="-3.9422870">
        <ele>19.6</ele>
        <time>2021-07-17T08:41:47Z</time>
      </trkpt>
      <trkpt lat="43.4108880" lon="-3.9422740">
        <ele>19.6</ele>
        <time>2021-07-17T08:41:50Z</time>
      </trkpt>
      <trkpt lat="43.4107490" lon="-3.9422630">
        <ele>19.6</ele>
        <time>2021-07-17T08:41:53Z</time>
      </trkpt>
      <trkpt lat="43.4107080" lon="-3.9422580">
        <ele>19.2</ele>
        <time>2021-07-17T08:41:54Z</time>
      </trkpt>
      <trkpt lat="43.4106750" lon="-3.9422530">
        <ele>18.8</ele>
        <time>2021-07-17T08:41:55Z</time>
      </trkpt>
      <trkpt lat="43.4106440" lon="-3.9422480">
        <ele>18.2</ele>
        <time>2021-07-17T08:41:56Z</time>
      </trkpt>
      <trkpt lat="43.4106190" lon="-3.9422460">
        <ele>17.8</ele>
        <time>2021-07-17T08:41:57Z</time>
      </trkpt>
      <trkpt lat="43.4105970" lon="-3.9422470">
        <ele>17.2</ele>
        <time>2021-07-17T08:41:58Z</time>
      </trkpt>
      <trkpt lat="43.4105080" lon="-3.9422480">
        <ele>17.2</ele>
        <time>2021-07-17T08:42:03Z</time>
      </trkpt>
      <trkpt lat="43.4104110" lon="-3.9422510">
        <ele>16.8</ele>
        <time>2021-07-17T08:42:10Z</time>
      </trkpt>
      <trkpt lat="43.4104020" lon="-3.9422540">
        <ele>16.4</ele>
        <time>2021-07-17T08:42:11Z</time>
      </trkpt>
      <trkpt lat="43.4103930" lon="-3.9422600">
        <ele>16.0</ele>
        <time>2021-07-17T08:42:12Z</time>
      </trkpt>
      <trkpt lat="43.4103880" lon="-3.9422620">
        <ele>15.6</ele>
        <time>2021-07-17T08:42:13Z</time>
      </trkpt>
      <trkpt lat="43.4103760" lon="-3.9422690">
        <ele>15.2</ele>
        <time>2021-07-17T08:42:14Z</time>
      </trkpt>
      <trkpt lat="43.4103520" lon="-3.9422850">
        <ele>15.2</ele>
        <time>2021-07-17T08:42:16Z</time>
      </trkpt>
      <trkpt lat="43.4103300" lon="-3.9422990">
        <ele>15.2</ele>
        <time>2021-07-17T08:42:17Z</time>
      </trkpt>
      <trkpt lat="43.4103010" lon="-3.9423040">
        <ele>15.2</ele>
        <time>2021-07-17T08:42:18Z</time>
      </trkpt>
      <trkpt lat="43.4102780" lon="-3.9423060">
        <ele>15.2</ele>
        <time>2021-07-17T08:42:19Z</time>
      </trkpt>
      <trkpt lat="43.4102260" lon="-3.9423060">
        <ele>15.2</ele>
        <time>2021-07-17T08:42:21Z</time>
      </trkpt>
      <trkpt lat="43.4101690" lon="-3.9423080">
        <ele>15.2</ele>
        <time>2021-07-17T08:42:23Z</time>
      </trkpt>
      <trkpt lat="43.4101130" lon="-3.9423090">
        <ele>15.2</ele>
        <time>2021-07-17T08:42:25Z</time>
      </trkpt>
      <trkpt lat="43.4100710" lon="-3.9423130">
        <ele>15.6</ele>
        <time>2021-07-17T08:42:27Z</time>
      </trkpt>
      <trkpt lat="43.4100490" lon="-3.9423170">
        <ele>16.2</ele>
        <time>2021-07-17T08:42:28Z</time>
      </trkpt>
      <trkpt lat="43.4100240" lon="-3.9423210">
        <ele>16.6</ele>
        <time>2021-07-17T08:42:29Z</time>
      </trkpt>
      <trkpt lat="43.4099970" lon="-3.9423240">
        <ele>17.0</ele>
        <time>2021-07-17T08:42:30Z</time>
      </trkpt>
      <trkpt lat="43.4099660" lon="-3.9423280">
        <ele>17.4</ele>
        <time>2021-07-17T08:42:31Z</time>
      </trkpt>
      <trkpt lat="43.4099010" lon="-3.9423390">
        <ele>17.4</ele>
        <time>2021-07-17T08:42:33Z</time>
      </trkpt>
      <trkpt lat="43.4098460" lon="-3.9423430">
        <ele>17.4</ele>
        <time>2021-07-17T08:42:35Z</time>
      </trkpt>
      <trkpt lat="43.4097790" lon="-3.9423730">
        <ele>17.4</ele>
        <time>2021-07-17T08:42:39Z</time>
      </trkpt>
      <trkpt lat="43.4097570" lon="-3.9424160">
        <ele>17.4</ele>
        <time>2021-07-17T08:42:41Z</time>
      </trkpt>
      <trkpt lat="43.4097560" lon="-3.9426310">
        <ele>17.4</ele>
        <time>2021-07-17T08:42:47Z</time>
      </trkpt>
      <trkpt lat="43.4097560" lon="-3.9426690">
        <ele>17.8</ele>
        <time>2021-07-17T08:42:48Z</time>
      </trkpt>
      <trkpt lat="43.4097570" lon="-3.9427100">
        <ele>18.2</ele>
        <time>2021-07-17T08:42:49Z</time>
      </trkpt>
      <trkpt lat="43.4097520" lon="-3.9427530">
        <ele>19.0</ele>
        <time>2021-07-17T08:42:50Z</time>
      </trkpt>
      <trkpt lat="43.4097480" lon="-3.9427950">
        <ele>19.4</ele>
        <time>2021-07-17T08:42:51Z</time>
      </trkpt>
      <trkpt lat="43.4097400" lon="-3.9429160">
        <ele>19.4</ele>
        <time>2021-07-17T08:42:54Z</time>
      </trkpt>
      <trkpt lat="43.4097460" lon="-3.9430280">
        <ele>19.4</ele>
        <time>2021-07-17T08:42:57Z</time>
      </trkpt>
      <trkpt lat="43.4097740" lon="-3.9431830">
        <ele>19.4</ele>
        <time>2021-07-17T08:43:01Z</time>
      </trkpt>
      <trkpt lat="43.4097810" lon="-3.9432220">
        <ele>19.4</ele>
        <time>2021-07-17T08:43:02Z</time>
      </trkpt>
      <trkpt lat="43.4098310" lon="-3.9434410">
        <ele>19.8</ele>
        <time>2021-07-17T08:43:08Z</time>
      </trkpt>
      <trkpt lat="43.4098390" lon="-3.9434770">
        <ele>20.2</ele>
        <time>2021-07-17T08:43:09Z</time>
      </trkpt>
      <trkpt lat="43.4098470" lon="-3.9435140">
        <ele>20.6</ele>
        <time>2021-07-17T08:43:10Z</time>
      </trkpt>
      <trkpt lat="43.4098550" lon="-3.9435490">
        <ele>21.0</ele>
        <time>2021-07-17T08:43:11Z</time>
      </trkpt>
      <trkpt lat="43.4098640" lon="-3.9435850">
        <ele>21.4</ele>
        <time>2021-07-17T08:43:12Z</time>
      </trkpt>
      <trkpt lat="43.4099060" lon="-3.9438050">
        <ele>21.4</ele>
        <time>2021-07-17T08:43:18Z</time>
      </trkpt>
      <trkpt lat="43.4099160" lon="-3.9439510">
        <ele>21.8</ele>
        <time>2021-07-17T08:43:22Z</time>
      </trkpt>
      <trkpt lat="43.4099170" lon="-3.9439920">
        <ele>22.4</ele>
        <time>2021-07-17T08:43:23Z</time>
      </trkpt>
      <trkpt lat="43.4099170" lon="-3.9440340">
        <ele>22.8</ele>
        <time>2021-07-17T08:43:24Z</time>
      </trkpt>
      <trkpt lat="43.4099150" lon="-3.9440740">
        <ele>23.2</ele>
        <time>2021-07-17T08:43:25Z</time>
      </trkpt>
      <trkpt lat="43.4099110" lon="-3.9441160">
        <ele>23.6</ele>
        <time>2021-07-17T08:43:26Z</time>
      </trkpt>
      <trkpt lat="43.4098320" lon="-3.9444550">
        <ele>23.6</ele>
        <time>2021-07-17T08:43:34Z</time>
      </trkpt>
      <trkpt lat="43.4096870" lon="-3.9448410">
        <ele>23.6</ele>
        <time>2021-07-17T08:43:43Z</time>
      </trkpt>
      <trkpt lat="43.4095200" lon="-3.9451570">
        <ele>23.6</ele>
        <time>2021-07-17T08:43:49Z</time>
      </trkpt>
      <trkpt lat="43.4093960" lon="-3.9453190">
        <ele>23.6</ele>
        <time>2021-07-17T08:43:52Z</time>
      </trkpt>
      <trkpt lat="43.4092850" lon="-3.9454320">
        <ele>23.6</ele>
        <time>2021-07-17T08:43:54Z</time>
      </trkpt>
      <trkpt lat="43.4091580" lon="-3.9455440">
        <ele>23.6</ele>
        <time>2021-07-17T08:43:56Z</time>
      </trkpt>
      <trkpt lat="43.4090180" lon="-3.9456640">
        <ele>23.0</ele>
        <time>2021-07-17T08:43:58Z</time>
      </trkpt>
      <trkpt lat="43.4089440" lon="-3.9457290">
        <ele>22.6</ele>
        <time>2021-07-17T08:43:59Z</time>
      </trkpt>
      <trkpt lat="43.4088670" lon="-3.9457930">
        <ele>22.2</ele>
        <time>2021-07-17T08:44:00Z</time>
      </trkpt>
      <trkpt lat="43.4087870" lon="-3.9458590">
        <ele>21.8</ele>
        <time>2021-07-17T08:44:01Z</time>
      </trkpt>
      <trkpt lat="43.4087110" lon="-3.9459200">
        <ele>21.2</ele>
        <time>2021-07-17T08:44:02Z</time>
      </trkpt>
      <trkpt lat="43.4086370" lon="-3.9459790">
        <ele>21.2</ele>
        <time>2021-07-17T08:44:03Z</time>
      </trkpt>
      <trkpt lat="43.4084950" lon="-3.9460930">
        <ele>21.2</ele>
        <time>2021-07-17T08:44:05Z</time>
      </trkpt>
      <trkpt lat="43.4084280" lon="-3.9461490">
        <ele>21.2</ele>
        <time>2021-07-17T08:44:06Z</time>
      </trkpt>
      <trkpt lat="43.4083640" lon="-3.9462030">
        <ele>21.2</ele>
        <time>2021-07-17T08:44:07Z</time>
      </trkpt>
      <trkpt lat="43.4082390" lon="-3.9463080">
        <ele>21.2</ele>
        <time>2021-07-17T08:44:09Z</time>
      </trkpt>
      <trkpt lat="43.4081210" lon="-3.9464070">
        <ele>21.2</ele>
        <time>2021-07-17T08:44:11Z</time>
      </trkpt>
      <trkpt lat="43.4080070" lon="-3.9464980">
        <ele>21.2</ele>
        <time>2021-07-17T08:44:13Z</time>
      </trkpt>
      <trkpt lat="43.4079510" lon="-3.9465420">
        <ele>21.2</ele>
        <time>2021-07-17T08:44:14Z</time>
      </trkpt>
      <trkpt lat="43.4078420" lon="-3.9466320">
        <ele>20.8</ele>
        <time>2021-07-17T08:44:16Z</time>
      </trkpt>
      <trkpt lat="43.4077900" lon="-3.9466780">
        <ele>20.4</ele>
        <time>2021-07-17T08:44:17Z</time>
      </trkpt>
      <trkpt lat="43.4077380" lon="-3.9467220">
        <ele>20.0</ele>
        <time>2021-07-17T08:44:18Z</time>
      </trkpt>
      <trkpt lat="43.4076840" lon="-3.9467650">
        <ele>19.6</ele>
        <time>2021-07-17T08:44:19Z</time>
      </trkpt>
      <trkpt lat="43.4076320" lon="-3.9468070">
        <ele>19.2</ele>
        <time>2021-07-17T08:44:20Z</time>
      </trkpt>
      <trkpt lat="43.4075350" lon="-3.9468900">
        <ele>19.2</ele>
        <time>2021-07-17T08:44:22Z</time>
      </trkpt>
      <trkpt lat="43.4073150" lon="-3.9470720">
        <ele>19.2</ele>
        <time>2021-07-17T08:44:27Z</time>
      </trkpt>
      <trkpt lat="43.4072410" lon="-3.9471350">
        <ele>19.2</ele>
        <time>2021-07-17T08:44:29Z</time>
      </trkpt>
      <trkpt lat="43.4072030" lon="-3.9471660">
        <ele>19.2</ele>
        <time>2021-07-17T08:44:30Z</time>
      </trkpt>
      <trkpt lat="43.4071230" lon="-3.9472270">
        <ele>19.2</ele>
        <time>2021-07-17T08:44:32Z</time>
      </trkpt>
      <trkpt lat="43.4070870" lon="-3.9472600">
        <ele>19.2</ele>
        <time>2021-07-17T08:44:33Z</time>
      </trkpt>
      <trkpt lat="43.4070100" lon="-3.9473250">
        <ele>19.2</ele>
        <time>2021-07-17T08:44:35Z</time>
      </trkpt>
      <trkpt lat="43.4069360" lon="-3.9473880">
        <ele>19.2</ele>
        <time>2021-07-17T08:44:37Z</time>
      </trkpt>
      <trkpt lat="43.4066480" lon="-3.9476390">
        <ele>19.2</ele>
        <time>2021-07-17T08:44:45Z</time>
      </trkpt>
      <trkpt lat="43.4063100" lon="-3.9479230">
        <ele>19.2</ele>
        <time>2021-07-17T08:44:54Z</time>
      </trkpt>
      <trkpt lat="43.4060510" lon="-3.9481290">
        <ele>19.2</ele>
        <time>2021-07-17T08:45:01Z</time>
      </trkpt>
      <trkpt lat="43.4060140" lon="-3.9481580">
        <ele>19.2</ele>
        <time>2021-07-17T08:45:02Z</time>
      </trkpt>
      <trkpt lat="43.4056710" lon="-3.9484400">
        <ele>19.2</ele>
        <time>2021-07-17T08:45:12Z</time>
      </trkpt>
      <trkpt lat="43.4055240" lon="-3.9485870">
        <ele>19.2</ele>
        <time>2021-07-17T08:45:17Z</time>
      </trkpt>
      <trkpt lat="43.4054510" lon="-3.9486300">
        <ele>19.2</ele>
        <time>2021-07-17T08:45:20Z</time>
      </trkpt>
      <trkpt lat="43.4054010" lon="-3.9486310">
        <ele>19.2</ele>
        <time>2021-07-17T08:45:22Z</time>
      </trkpt>
      <trkpt lat="43.4052330" lon="-3.9485780">
        <ele>19.2</ele>
        <time>2021-07-17T08:45:27Z</time>
      </trkpt>
      <trkpt lat="43.4051140" lon="-3.9484950">
        <ele>19.2</ele>
        <time>2021-07-17T08:45:31Z</time>
      </trkpt>
      <trkpt lat="43.4050620" lon="-3.9484430">
        <ele>19.2</ele>
        <time>2021-07-17T08:45:33Z</time>
      </trkpt>
      <trkpt lat="43.4049680" lon="-3.9483310">
        <ele>19.6</ele>
        <time>2021-07-17T08:45:37Z</time>
      </trkpt>
      <trkpt lat="43.4049420" lon="-3.9483000">
        <ele>20.0</ele>
        <time>2021-07-17T08:45:38Z</time>
      </trkpt>
      <trkpt lat="43.4049180" lon="-3.9482710">
        <ele>20.6</ele>
        <time>2021-07-17T08:45:39Z</time>
      </trkpt>
      <trkpt lat="43.4048910" lon="-3.9482410">
        <ele>21.0</ele>
        <time>2021-07-17T08:45:40Z</time>
      </trkpt>
      <trkpt lat="43.4048660" lon="-3.9482120">
        <ele>21.4</ele>
        <time>2021-07-17T08:45:41Z</time>
      </trkpt>
      <trkpt lat="43.4048110" lon="-3.9481590">
        <ele>21.4</ele>
        <time>2021-07-17T08:45:43Z</time>
      </trkpt>
      <trkpt lat="43.4046010" lon="-3.9478980">
        <ele>21.4</ele>
        <time>2021-07-17T08:45:52Z</time>
      </trkpt>
      <trkpt lat="43.4044800" lon="-3.9477510">
        <ele>21.8</ele>
        <time>2021-07-17T08:45:57Z</time>
      </trkpt>
      <trkpt lat="43.4044580" lon="-3.9477200">
        <ele>22.2</ele>
        <time>2021-07-17T08:45:58Z</time>
      </trkpt>
      <trkpt lat="43.4044360" lon="-3.9476900">
        <ele>22.6</ele>
        <time>2021-07-17T08:45:59Z</time>
      </trkpt>
      <trkpt lat="43.4044140" lon="-3.9476600">
        <ele>23.0</ele>
        <time>2021-07-17T08:46:00Z</time>
      </trkpt>
      <trkpt lat="43.4043890" lon="-3.9476290">
        <ele>23.4</ele>
        <time>2021-07-17T08:46:01Z</time>
      </trkpt>
      <trkpt lat="43.4042740" lon="-3.9474790">
        <ele>23.4</ele>
        <time>2021-07-17T08:46:06Z</time>
      </trkpt>
      <trkpt lat="43.4042510" lon="-3.9474520">
        <ele>23.4</ele>
        <time>2021-07-17T08:46:07Z</time>
      </trkpt>
      <trkpt lat="43.4040960" lon="-3.9472650">
        <ele>23.4</ele>
        <time>2021-07-17T08:46:13Z</time>
      </trkpt>
      <trkpt lat="43.4039470" lon="-3.9470960">
        <ele>23.4</ele>
        <time>2021-07-17T08:46:18Z</time>
      </trkpt>
      <trkpt lat="43.4038970" lon="-3.9470350">
        <ele>23.4</ele>
        <time>2021-07-17T08:46:20Z</time>
      </trkpt>
      <trkpt lat="43.4038440" lon="-3.9469950">
        <ele>23.4</ele>
        <time>2021-07-17T08:46:22Z</time>
      </trkpt>
      <trkpt lat="43.4037800" lon="-3.9469950">
        <ele>23.4</ele>
        <time>2021-07-17T08:46:24Z</time>
      </trkpt>
      <trkpt lat="43.4036880" lon="-3.9470510">
        <ele>23.4</ele>
        <time>2021-07-17T08:46:27Z</time>
      </trkpt>
      <trkpt lat="43.4036100" lon="-3.9470860">
        <ele>23.4</ele>
        <time>2021-07-17T08:46:29Z</time>
      </trkpt>
      <trkpt lat="43.4033910" lon="-3.9471810">
        <ele>23.4</ele>
        <time>2021-07-17T08:46:35Z</time>
      </trkpt>
      <trkpt lat="43.4032950" lon="-3.9472410">
        <ele>23.4</ele>
        <time>2021-07-17T08:46:38Z</time>
      </trkpt>
      <trkpt lat="43.4031250" lon="-3.9473480">
        <ele>23.4</ele>
        <time>2021-07-17T08:46:46Z</time>
      </trkpt>
      <trkpt lat="43.4031170" lon="-3.9473920">
        <ele>23.4</ele>
        <time>2021-07-17T08:46:51Z</time>
      </trkpt>
      <trkpt lat="43.4030730" lon="-3.9473950">
        <ele>23.4</ele>
        <time>2021-07-17T08:47:09Z</time>
      </trkpt>
      <trkpt lat="43.4030210" lon="-3.9474330">
        <ele>23.4</ele>
        <time>2021-07-17T08:47:12Z</time>
      </trkpt>
      <trkpt lat="43.4028550" lon="-3.9475430">
        <ele>23.4</ele>
        <time>2021-07-17T08:47:17Z</time>
      </trkpt>
      <trkpt lat="43.4027830" lon="-3.9475950">
        <ele>23.4</ele>
        <time>2021-07-17T08:47:19Z</time>
      </trkpt>
      <trkpt lat="43.4027150" lon="-3.9476370">
        <ele>23.4</ele>
        <time>2021-07-17T08:47:21Z</time>
      </trkpt>
      <trkpt lat="43.4026840" lon="-3.9476600">
        <ele>23.4</ele>
        <time>2021-07-17T08:47:22Z</time>
      </trkpt>
      <trkpt lat="43.4026540" lon="-3.9476780">
        <ele>22.6</ele>
        <time>2021-07-17T08:47:23Z</time>
      </trkpt>
      <trkpt lat="43.4026270" lon="-3.9476970">
        <ele>22.2</ele>
        <time>2021-07-17T08:47:24Z</time>
      </trkpt>
      <trkpt lat="43.4026000" lon="-3.9477150">
        <ele>21.6</ele>
        <time>2021-07-17T08:47:25Z</time>
      </trkpt>
      <trkpt lat="43.4025720" lon="-3.9477350">
        <ele>21.2</ele>
        <time>2021-07-17T08:47:26Z</time>
      </trkpt>
      <trkpt lat="43.4024780" lon="-3.9478550">
        <ele>21.2</ele>
        <time>2021-07-17T08:47:30Z</time>
      </trkpt>
      <trkpt lat="43.4024660" lon="-3.9479010">
        <ele>20.8</ele>
        <time>2021-07-17T08:47:31Z</time>
      </trkpt>
      <trkpt lat="43.4024550" lon="-3.9479470">
        <ele>20.4</ele>
        <time>2021-07-17T08:47:32Z</time>
      </trkpt>
      <trkpt lat="43.4024470" lon="-3.9479940">
        <ele>20.0</ele>
        <time>2021-07-17T08:47:33Z</time>
      </trkpt>
      <trkpt lat="43.4024430" lon="-3.9480400">
        <ele>19.4</ele>
        <time>2021-07-17T08:47:34Z</time>
      </trkpt>
      <trkpt lat="43.4024420" lon="-3.9480870">
        <ele>19.0</ele>
        <time>2021-07-17T08:47:35Z</time>
      </trkpt>
      <trkpt lat="43.4024610" lon="-3.9484630">
        <ele>19.0</ele>
        <time>2021-07-17T08:47:42Z</time>
      </trkpt>
      <trkpt lat="43.4024670" lon="-3.9486340">
        <ele>18.6</ele>
        <time>2021-07-17T08:47:46Z</time>
      </trkpt>
      <trkpt lat="43.4024700" lon="-3.9486660">
        <ele>17.8</ele>
        <time>2021-07-17T08:47:47Z</time>
      </trkpt>
      <trkpt lat="43.4024760" lon="-3.9486980">
        <ele>17.4</ele>
        <time>2021-07-17T08:47:48Z</time>
      </trkpt>
      <trkpt lat="43.4024810" lon="-3.9487280">
        <ele>17.0</ele>
        <time>2021-07-17T08:47:49Z</time>
      </trkpt>
      <trkpt lat="43.4024950" lon="-3.9488260">
        <ele>17.0</ele>
        <time>2021-07-17T08:47:52Z</time>
      </trkpt>
      <trkpt lat="43.4025200" lon="-3.9488910">
        <ele>17.0</ele>
        <time>2021-07-17T08:47:54Z</time>
      </trkpt>
      <trkpt lat="43.4025260" lon="-3.9490870">
        <ele>17.0</ele>
        <time>2021-07-17T08:48:01Z</time>
      </trkpt>
      <trkpt lat="43.4025250" lon="-3.9491090">
        <ele>17.0</ele>
        <time>2021-07-17T08:48:02Z</time>
      </trkpt>
      <trkpt lat="43.4025250" lon="-3.9491490">
        <ele>17.0</ele>
        <time>2021-07-17T08:48:05Z</time>
      </trkpt>
      <trkpt lat="43.4025450" lon="-3.9491490">
        <ele>17.0</ele>
        <time>2021-07-17T08:48:13Z</time>
      </trkpt>
      <trkpt lat="43.4025600" lon="-3.9491390">
        <ele>17.0</ele>
        <time>2021-07-17T08:48:14Z</time>
      </trkpt>
      <trkpt lat="43.4026180" lon="-3.9490740">
        <ele>17.0</ele>
        <time>2021-07-17T08:48:18Z</time>
      </trkpt>
      <trkpt lat="43.4026300" lon="-3.9490520">
        <ele>17.0</ele>
        <time>2021-07-17T08:48:19Z</time>
      </trkpt>
      <trkpt lat="43.4027070" lon="-3.9489910">
        <ele>17.0</ele>
        <time>2021-07-17T08:48:24Z</time>
      </trkpt>
      <trkpt lat="43.4027210" lon="-3.9489650">
        <ele>17.0</ele>
        <time>2021-07-17T08:48:27Z</time>
      </trkpt>
      <trkpt lat="43.4029870" lon="-3.9493120">
        <ele>17.0</ele>
        <time>2021-07-17T08:49:57Z</time>
      </trkpt>
      <trkpt lat="43.4029780" lon="-3.9492980">
        <ele>17.0</ele>
        <time>2021-07-17T08:49:58Z</time>
      </trkpt>
      <trkpt lat="43.4029330" lon="-3.9492040">
        <ele>17.0</ele>
        <time>2021-07-17T08:50:03Z</time>
      </trkpt>
      <trkpt lat="43.4028730" lon="-3.9491350">
        <ele>17.0</ele>
        <time>2021-07-17T08:50:06Z</time>
      </trkpt>
      <trkpt lat="43.4028000" lon="-3.9490510">
        <ele>17.0</ele>
        <time>2021-07-17T08:50:09Z</time>
      </trkpt>
      <trkpt lat="43.4027380" lon="-3.9490000">
        <ele>17.0</ele>
        <time>2021-07-17T08:50:14Z</time>
      </trkpt>
      <trkpt lat="43.4027000" lon="-3.9489980">
        <ele>17.0</ele>
        <time>2021-07-17T08:50:17Z</time>
      </trkpt>
      <trkpt lat="43.4026790" lon="-3.9490300">
        <ele>17.0</ele>
        <time>2021-07-17T08:50:19Z</time>
      </trkpt>
      <trkpt lat="43.4026450" lon="-3.9491070">
        <ele>17.0</ele>
        <time>2021-07-17T08:50:22Z</time>
      </trkpt>
      <trkpt lat="43.4025660" lon="-3.9492180">
        <ele>17.0</ele>
        <time>2021-07-17T08:50:26Z</time>
      </trkpt>
      <trkpt lat="43.4025030" lon="-3.9492390">
        <ele>17.0</ele>
        <time>2021-07-17T08:50:30Z</time>
      </trkpt>
      <trkpt lat="43.4024890" lon="-3.9492360">
        <ele>17.0</ele>
        <time>2021-07-17T08:50:31Z</time>
      </trkpt>
      <trkpt lat="43.4024000" lon="-3.9491380">
        <ele>17.0</ele>
        <time>2021-07-17T08:50:36Z</time>
      </trkpt>
      <trkpt lat="43.4024070" lon="-3.9489520">
        <ele>17.0</ele>
        <time>2021-07-17T08:50:41Z</time>
      </trkpt>
      <trkpt lat="43.4024290" lon="-3.9486670">
        <ele>17.0</ele>
        <time>2021-07-17T08:50:47Z</time>
      </trkpt>
      <trkpt lat="43.4024250" lon="-3.9483360">
        <ele>17.0</ele>
        <time>2021-07-17T08:50:54Z</time>
      </trkpt>
      <trkpt lat="43.4024180" lon="-3.9481080">
        <ele>17.0</ele>
        <time>2021-07-17T08:51:00Z</time>
      </trkpt>
      <trkpt lat="43.4024300" lon="-3.9481010">
        <ele>17.0</ele>
        <time>2021-07-17T08:51:01Z</time>
      </trkpt>
      <trkpt lat="43.4024530" lon="-3.9481760">
        <ele>17.0</ele>
        <time>2021-07-17T08:51:04Z</time>
      </trkpt>
      <trkpt lat="43.4024700" lon="-3.9483420">
        <ele>17.0</ele>
        <time>2021-07-17T08:51:10Z</time>
      </trkpt>
      <trkpt lat="43.4024980" lon="-3.9482980">
        <ele>17.0</ele>
        <time>2021-07-17T08:51:13Z</time>
      </trkpt>
      <trkpt lat="43.4025030" lon="-3.9482240">
        <ele>17.0</ele>
        <time>2021-07-17T08:51:15Z</time>
      </trkpt>
      <trkpt lat="43.4025270" lon="-3.9481010">
        <ele>17.0</ele>
        <time>2021-07-17T08:51:18Z</time>
      </trkpt>
      <trkpt lat="43.4025890" lon="-3.9479540">
        <ele>17.0</ele>
        <time>2021-07-17T08:51:23Z</time>
      </trkpt>
      <trkpt lat="43.4026070" lon="-3.9479200">
        <ele>17.0</ele>
        <time>2021-07-17T08:51:25Z</time>
      </trkpt>
      <trkpt lat="43.4026200" lon="-3.9479010">
        <ele>17.0</ele>
        <time>2021-07-17T08:51:28Z</time>
      </trkpt>
      <trkpt lat="43.4025770" lon="-3.9479240">
        <ele>17.0</ele>
        <time>2021-07-17T08:54:02Z</time>
      </trkpt>
      <trkpt lat="43.4025530" lon="-3.9480050">
        <ele>17.0</ele>
        <time>2021-07-17T08:54:05Z</time>
      </trkpt>
      <trkpt lat="43.4025340" lon="-3.9481190">
        <ele>17.0</ele>
        <time>2021-07-17T08:54:08Z</time>
      </trkpt>
      <trkpt lat="43.4025040" lon="-3.9482800">
        <ele>17.0</ele>
        <time>2021-07-17T08:54:12Z</time>
      </trkpt>
      <trkpt lat="43.4024810" lon="-3.9483640">
        <ele>17.0</ele>
        <time>2021-07-17T08:54:15Z</time>
      </trkpt>
      <trkpt lat="43.4024840" lon="-3.9485720">
        <ele>17.0</ele>
        <time>2021-07-17T08:54:21Z</time>
      </trkpt>
      <trkpt lat="43.4024950" lon="-3.9487250">
        <ele>17.0</ele>
        <time>2021-07-17T08:54:25Z</time>
      </trkpt>
      <trkpt lat="43.4025160" lon="-3.9488510">
        <ele>17.0</ele>
        <time>2021-07-17T08:54:29Z</time>
      </trkpt>
      <trkpt lat="43.4025300" lon="-3.9490320">
        <ele>17.0</ele>
        <time>2021-07-17T08:54:35Z</time>
      </trkpt>
      <trkpt lat="43.4025170" lon="-3.9492480">
        <ele>17.0</ele>
        <time>2021-07-17T08:54:40Z</time>
      </trkpt>
      <trkpt lat="43.4025360" lon="-3.9495180">
        <ele>17.0</ele>
        <time>2021-07-17T08:54:45Z</time>
      </trkpt>
      <trkpt lat="43.4025380" lon="-3.9495710">
        <ele>17.0</ele>
        <time>2021-07-17T08:54:46Z</time>
      </trkpt>
      <trkpt lat="43.4025700" lon="-3.9499630">
        <ele>17.0</ele>
        <time>2021-07-17T08:54:53Z</time>
      </trkpt>
      <trkpt lat="43.4025810" lon="-3.9502400">
        <ele>17.0</ele>
        <time>2021-07-17T08:54:58Z</time>
      </trkpt>
      <trkpt lat="43.4025960" lon="-3.9504030">
        <ele>17.0</ele>
        <time>2021-07-17T08:55:01Z</time>
      </trkpt>
      <trkpt lat="43.4026340" lon="-3.9507870">
        <ele>17.0</ele>
        <time>2021-07-17T08:55:08Z</time>
      </trkpt>
      <trkpt lat="43.4026440" lon="-3.9511760">
        <ele>17.0</ele>
        <time>2021-07-17T08:55:16Z</time>
      </trkpt>
      <trkpt lat="43.4026980" lon="-3.9512630">
        <ele>17.0</ele>
        <time>2021-07-17T08:55:19Z</time>
      </trkpt>
      <trkpt lat="43.4027270" lon="-3.9512650">
        <ele>17.0</ele>
        <time>2021-07-17T08:55:20Z</time>
      </trkpt>
      <trkpt lat="43.4028190" lon="-3.9512460">
        <ele>17.0</ele>
        <time>2021-07-17T08:55:25Z</time>
      </trkpt>
      <trkpt lat="43.4028360" lon="-3.9512350">
        <ele>17.0</ele>
        <time>2021-07-17T08:55:27Z</time>
      </trkpt>
      <trkpt lat="43.4028370" lon="-3.9512360">
        <ele>17.0</ele>
        <time>2021-07-17T08:55:28Z</time>
      </trkpt>
      <trkpt lat="43.4028630" lon="-3.9511590">
        <ele>17.0</ele>
        <time>2021-07-17T08:55:52Z</time>
      </trkpt>
      <trkpt lat="43.4028680" lon="-3.9511400">
        <ele>17.0</ele>
        <time>2021-07-17T08:55:53Z</time>
      </trkpt>
      <trkpt lat="43.4028730" lon="-3.9511290">
        <ele>17.0</ele>
        <time>2021-07-17T08:55:55Z</time>
      </trkpt>
      <trkpt lat="43.4028750" lon="-3.9511840">
        <ele>17.0</ele>
        <time>2021-07-17T08:56:54Z</time>
      </trkpt>
      <trkpt lat="43.4028610" lon="-3.9511990">
        <ele>17.0</ele>
        <time>2021-07-17T08:56:55Z</time>
      </trkpt>
      <trkpt lat="43.4027990" lon="-3.9512430">
        <ele>17.0</ele>
        <time>2021-07-17T08:57:00Z</time>
      </trkpt>
      <trkpt lat="43.4027020" lon="-3.9513270">
        <ele>17.0</ele>
        <time>2021-07-17T08:57:06Z</time>
      </trkpt>
      <trkpt lat="43.4026760" lon="-3.9513820">
        <ele>17.0</ele>
        <time>2021-07-17T08:57:08Z</time>
      </trkpt>
      <trkpt lat="43.4026660" lon="-3.9514070">
        <ele>17.0</ele>
        <time>2021-07-17T08:57:09Z</time>
      </trkpt>
      <trkpt lat="43.4026330" lon="-3.9515100">
        <ele>17.0</ele>
        <time>2021-07-17T08:57:12Z</time>
      </trkpt>
      <trkpt lat="43.4026290" lon="-3.9516800">
        <ele>17.0</ele>
        <time>2021-07-17T08:57:16Z</time>
      </trkpt>
      <trkpt lat="43.4026320" lon="-3.9517150">
        <ele>17.0</ele>
        <time>2021-07-17T08:57:17Z</time>
      </trkpt>
      <trkpt lat="43.4026530" lon="-3.9518930">
        <ele>17.0</ele>
        <time>2021-07-17T08:57:22Z</time>
      </trkpt>
      <trkpt lat="43.4026530" lon="-3.9519500">
        <ele>17.0</ele>
        <time>2021-07-17T08:57:24Z</time>
      </trkpt>
      <trkpt lat="43.4026530" lon="-3.9520560">
        <ele>17.0</ele>
        <time>2021-07-17T08:57:26Z</time>
      </trkpt>
      <trkpt lat="43.4026530" lon="-3.9520560">
        <ele>17.0</ele>
        <time>2021-07-17T08:57:27Z</time>
      </trkpt>
      <trkpt lat="43.4026540" lon="-3.9521350">
        <ele>17.0</ele>
        <time>2021-07-17T08:57:29Z</time>
      </trkpt>
      <trkpt lat="43.4026620" lon="-3.9522180">
        <ele>17.0</ele>
        <time>2021-07-17T08:57:31Z</time>
      </trkpt>
      <trkpt lat="43.4026580" lon="-3.9523120">
        <ele>17.0</ele>
        <time>2021-07-17T08:57:33Z</time>
      </trkpt>
      <trkpt lat="43.4026580" lon="-3.9524620">
        <ele>17.4</ele>
        <time>2021-07-17T08:57:36Z</time>
      </trkpt>
      <trkpt lat="43.4026580" lon="-3.9525090">
        <ele>17.8</ele>
        <time>2021-07-17T08:57:37Z</time>
      </trkpt>
      <trkpt lat="43.4026630" lon="-3.9525510">
        <ele>18.2</ele>
        <time>2021-07-17T08:57:38Z</time>
      </trkpt>
      <trkpt lat="43.4026680" lon="-3.9525920">
        <ele>18.6</ele>
        <time>2021-07-17T08:57:39Z</time>
      </trkpt>
      <trkpt lat="43.4026710" lon="-3.9526350">
        <ele>19.0</ele>
        <time>2021-07-17T08:57:40Z</time>
      </trkpt>
      <trkpt lat="43.4027080" lon="-3.9529440">
        <ele>19.0</ele>
        <time>2021-07-17T08:57:47Z</time>
      </trkpt>
      <trkpt lat="43.4027220" lon="-3.9531230">
        <ele>19.0</ele>
        <time>2021-07-17T08:57:52Z</time>
      </trkpt>
      <trkpt lat="43.4027290" lon="-3.9531540">
        <ele>19.0</ele>
        <time>2021-07-17T08:57:53Z</time>
      </trkpt>
      <trkpt lat="43.4027360" lon="-3.9532370">
        <ele>19.0</ele>
        <time>2021-07-17T08:57:56Z</time>
      </trkpt>
      <trkpt lat="43.4027020" lon="-3.9533090">
        <ele>19.0</ele>
        <time>2021-07-17T08:57:59Z</time>
      </trkpt>
      <trkpt lat="43.4026340" lon="-3.9534090">
        <ele>19.0</ele>
        <time>2021-07-17T08:58:02Z</time>
      </trkpt>
      <trkpt lat="43.4025860" lon="-3.9534720">
        <ele>19.0</ele>
        <time>2021-07-17T08:58:04Z</time>
      </trkpt>
      <trkpt lat="43.4025080" lon="-3.9535770">
        <ele>19.0</ele>
        <time>2021-07-17T08:58:07Z</time>
      </trkpt>
      <trkpt lat="43.4024730" lon="-3.9536890">
        <ele>19.0</ele>
        <time>2021-07-17T08:58:09Z</time>
      </trkpt>
      <trkpt lat="43.4024270" lon="-3.9539580">
        <ele>19.0</ele>
        <time>2021-07-17T08:58:14Z</time>
      </trkpt>
      <trkpt lat="43.4024000" lon="-3.9542160">
        <ele>19.0</ele>
        <time>2021-07-17T08:58:19Z</time>
      </trkpt>
      <trkpt lat="43.4023840" lon="-3.9543210">
        <ele>19.0</ele>
        <time>2021-07-17T08:58:21Z</time>
      </trkpt>
      <trkpt lat="43.4023260" lon="-3.9547230">
        <ele>19.0</ele>
        <time>2021-07-17T08:58:29Z</time>
      </trkpt>
      <trkpt lat="43.4022950" lon="-3.9549700">
        <ele>19.0</ele>
        <time>2021-07-17T08:58:34Z</time>
      </trkpt>
      <trkpt lat="43.4022680" lon="-3.9551260">
        <ele>19.0</ele>
        <time>2021-07-17T08:58:37Z</time>
      </trkpt>
      <trkpt lat="43.4022580" lon="-3.9551770">
        <ele>19.0</ele>
        <time>2021-07-17T08:58:38Z</time>
      </trkpt>
      <trkpt lat="43.4022370" lon="-3.9553280">
        <ele>19.0</ele>
        <time>2021-07-17T08:58:41Z</time>
      </trkpt>
      <trkpt lat="43.4022200" lon="-3.9555860">
        <ele>19.0</ele>
        <time>2021-07-17T08:58:46Z</time>
      </trkpt>
      <trkpt lat="43.4022460" lon="-3.9557900">
        <ele>19.0</ele>
        <time>2021-07-17T08:58:50Z</time>
      </trkpt>
      <trkpt lat="43.4022650" lon="-3.9558890">
        <ele>19.0</ele>
        <time>2021-07-17T08:58:52Z</time>
      </trkpt>
      <trkpt lat="43.4022760" lon="-3.9559370">
        <ele>19.0</ele>
        <time>2021-07-17T08:58:53Z</time>
      </trkpt>
      <trkpt lat="43.4023310" lon="-3.9561200">
        <ele>19.0</ele>
        <time>2021-07-17T08:58:57Z</time>
      </trkpt>
      <trkpt lat="43.4023870" lon="-3.9563040">
        <ele>19.0</ele>
        <time>2021-07-17T08:59:01Z</time>
      </trkpt>
      <trkpt lat="43.4025270" lon="-3.9567350">
        <ele>19.0</ele>
        <time>2021-07-17T08:59:10Z</time>
      </trkpt>
      <trkpt lat="43.4025440" lon="-3.9567820">
        <ele>19.0</ele>
        <time>2021-07-17T08:59:11Z</time>
      </trkpt>
      <trkpt lat="43.4027130" lon="-3.9572110">
        <ele>19.0</ele>
        <time>2021-07-17T08:59:20Z</time>
      </trkpt>
      <trkpt lat="43.4029130" lon="-3.9577120">
        <ele>19.0</ele>
        <time>2021-07-17T08:59:30Z</time>
      </trkpt>
      <trkpt lat="43.4029500" lon="-3.9578190">
        <ele>19.4</ele>
        <time>2021-07-17T08:59:32Z</time>
      </trkpt>
      <trkpt lat="43.4029670" lon="-3.9578700">
        <ele>19.8</ele>
        <time>2021-07-17T08:59:33Z</time>
      </trkpt>
      <trkpt lat="43.4029860" lon="-3.9579190">
        <ele>20.2</ele>
        <time>2021-07-17T08:59:34Z</time>
      </trkpt>
      <trkpt lat="43.4030070" lon="-3.9579740">
        <ele>20.6</ele>
        <time>2021-07-17T08:59:35Z</time>
      </trkpt>
      <trkpt lat="43.4030270" lon="-3.9580250">
        <ele>21.0</ele>
        <time>2021-07-17T08:59:36Z</time>
      </trkpt>
      <trkpt lat="43.4030640" lon="-3.9581390">
        <ele>21.0</ele>
        <time>2021-07-17T08:59:38Z</time>
      </trkpt>
      <trkpt lat="43.4032060" lon="-3.9586110">
        <ele>21.0</ele>
        <time>2021-07-17T08:59:46Z</time>
      </trkpt>
      <trkpt lat="43.4032440" lon="-3.9588520">
        <ele>21.0</ele>
        <time>2021-07-17T08:59:50Z</time>
      </trkpt>
      <trkpt lat="43.4032730" lon="-3.9590350">
        <ele>21.0</ele>
        <time>2021-07-17T08:59:53Z</time>
      </trkpt>
      <trkpt lat="43.4033520" lon="-3.9595230">
        <ele>21.0</ele>
        <time>2021-07-17T09:00:01Z</time>
      </trkpt>
      <trkpt lat="43.4034490" lon="-3.9599740">
        <ele>21.0</ele>
        <time>2021-07-17T09:00:09Z</time>
      </trkpt>
      <trkpt lat="43.4035230" lon="-3.9603610">
        <ele>21.0</ele>
        <time>2021-07-17T09:00:16Z</time>
      </trkpt>
      <trkpt lat="43.4036490" lon="-3.9609830">
        <ele>21.0</ele>
        <time>2021-07-17T09:00:27Z</time>
      </trkpt>
      <trkpt lat="43.4037250" lon="-3.9613620">
        <ele>21.6</ele>
        <time>2021-07-17T09:00:34Z</time>
      </trkpt>
      <trkpt lat="43.4037380" lon="-3.9614070">
        <ele>22.4</ele>
        <time>2021-07-17T09:00:35Z</time>
      </trkpt>
      <trkpt lat="43.4037450" lon="-3.9614530">
        <ele>22.8</ele>
        <time>2021-07-17T09:00:36Z</time>
      </trkpt>
      <trkpt lat="43.4037570" lon="-3.9614960">
        <ele>23.2</ele>
        <time>2021-07-17T09:00:37Z</time>
      </trkpt>
      <trkpt lat="43.4038030" lon="-3.9616580">
        <ele>23.2</ele>
        <time>2021-07-17T09:00:41Z</time>
      </trkpt>
      <trkpt lat="43.4038410" lon="-3.9617830">
        <ele>23.6</ele>
        <time>2021-07-17T09:00:45Z</time>
      </trkpt>
      <trkpt lat="43.4038500" lon="-3.9618120">
        <ele>24.0</ele>
        <time>2021-07-17T09:00:46Z</time>
      </trkpt>
      <trkpt lat="43.4038580" lon="-3.9618330">
        <ele>24.4</ele>
        <time>2021-07-17T09:00:47Z</time>
      </trkpt>
      <trkpt lat="43.4038700" lon="-3.9618550">
        <ele>24.8</ele>
        <time>2021-07-17T09:00:48Z</time>
      </trkpt>
      <trkpt lat="43.4038830" lon="-3.9618840">
        <ele>25.4</ele>
        <time>2021-07-17T09:00:49Z</time>
      </trkpt>
      <trkpt lat="43.4039570" lon="-3.9619330">
        <ele>25.4</ele>
        <time>2021-07-17T09:00:53Z</time>
      </trkpt>
      <trkpt lat="43.4040030" lon="-3.9619410">
        <ele>25.8</ele>
        <time>2021-07-17T09:00:55Z</time>
      </trkpt>
      <trkpt lat="43.4040210" lon="-3.9619410">
        <ele>26.2</ele>
        <time>2021-07-17T09:00:56Z</time>
      </trkpt>
      <trkpt lat="43.4040420" lon="-3.9619450">
        <ele>26.6</ele>
        <time>2021-07-17T09:00:57Z</time>
      </trkpt>
      <trkpt lat="43.4040630" lon="-3.9619490">
        <ele>27.0</ele>
        <time>2021-07-17T09:00:58Z</time>
      </trkpt>
      <trkpt lat="43.4040850" lon="-3.9619520">
        <ele>27.4</ele>
        <time>2021-07-17T09:00:59Z</time>
      </trkpt>
      <trkpt lat="43.4041310" lon="-3.9619650">
        <ele>27.4</ele>
        <time>2021-07-17T09:01:01Z</time>
      </trkpt>
      <trkpt lat="43.4041690" lon="-3.9619920">
        <ele>27.4</ele>
        <time>2021-07-17T09:01:03Z</time>
      </trkpt>
      <trkpt lat="43.4041990" lon="-3.9620320">
        <ele>28.0</ele>
        <time>2021-07-17T09:01:05Z</time>
      </trkpt>
      <trkpt lat="43.4042080" lon="-3.9620500">
        <ele>28.4</ele>
        <time>2021-07-17T09:01:06Z</time>
      </trkpt>
      <trkpt lat="43.4042220" lon="-3.9620720">
        <ele>28.8</ele>
        <time>2021-07-17T09:01:07Z</time>
      </trkpt>
      <trkpt lat="43.4042370" lon="-3.9620990">
        <ele>29.2</ele>
        <time>2021-07-17T09:01:08Z</time>
      </trkpt>
      <trkpt lat="43.4042450" lon="-3.9621290">
        <ele>29.8</ele>
        <time>2021-07-17T09:01:09Z</time>
      </trkpt>
      <trkpt lat="43.4042780" lon="-3.9622490">
        <ele>29.8</ele>
        <time>2021-07-17T09:01:13Z</time>
      </trkpt>
      <trkpt lat="43.4042970" lon="-3.9623990">
        <ele>30.2</ele>
        <time>2021-07-17T09:01:18Z</time>
      </trkpt>
      <trkpt lat="43.4043030" lon="-3.9624260">
        <ele>30.6</ele>
        <time>2021-07-17T09:01:19Z</time>
      </trkpt>
      <trkpt lat="43.4043070" lon="-3.9624590">
        <ele>31.0</ele>
        <time>2021-07-17T09:01:20Z</time>
      </trkpt>
      <trkpt lat="43.4043100" lon="-3.9624870">
        <ele>31.4</ele>
        <time>2021-07-17T09:01:21Z</time>
      </trkpt>
      <trkpt lat="43.4043150" lon="-3.9625140">
        <ele>31.8</ele>
        <time>2021-07-17T09:01:22Z</time>
      </trkpt>
      <trkpt lat="43.4043270" lon="-3.9626630">
        <ele>31.8</ele>
        <time>2021-07-17T09:01:28Z</time>
      </trkpt>
      <trkpt lat="43.4043280" lon="-3.9626890">
        <ele>32.4</ele>
        <time>2021-07-17T09:01:29Z</time>
      </trkpt>
      <trkpt lat="43.4043300" lon="-3.9627120">
        <ele>32.8</ele>
        <time>2021-07-17T09:01:30Z</time>
      </trkpt>
      <trkpt lat="43.4043340" lon="-3.9627340">
        <ele>33.2</ele>
        <time>2021-07-17T09:01:31Z</time>
      </trkpt>
      <trkpt lat="43.4043380" lon="-3.9627590">
        <ele>33.6</ele>
        <time>2021-07-17T09:01:32Z</time>
      </trkpt>
      <trkpt lat="43.4043440" lon="-3.9627860">
        <ele>34.0</ele>
        <time>2021-07-17T09:01:33Z</time>
      </trkpt>
      <trkpt lat="43.4043540" lon="-3.9628650">
        <ele>34.0</ele>
        <time>2021-07-17T09:01:36Z</time>
      </trkpt>
      <trkpt lat="43.4043750" lon="-3.9630490">
        <ele>34.4</ele>
        <time>2021-07-17T09:01:43Z</time>
      </trkpt>
      <trkpt lat="43.4043760" lon="-3.9630680">
        <ele>34.8</ele>
        <time>2021-07-17T09:01:44Z</time>
      </trkpt>
      <trkpt lat="43.4043800" lon="-3.9630960">
        <ele>35.2</ele>
        <time>2021-07-17T09:01:45Z</time>
      </trkpt>
      <trkpt lat="43.4043860" lon="-3.9631240">
        <ele>35.6</ele>
        <time>2021-07-17T09:01:46Z</time>
      </trkpt>
      <trkpt lat="43.4043880" lon="-3.9631490">
        <ele>36.0</ele>
        <time>2021-07-17T09:01:47Z</time>
      </trkpt>
      <trkpt lat="43.4044070" lon="-3.9632450">
        <ele>36.0</ele>
        <time>2021-07-17T09:01:51Z</time>
      </trkpt>
      <trkpt lat="43.4044310" lon="-3.9633500">
        <ele>36.4</ele>
        <time>2021-07-17T09:01:55Z</time>
      </trkpt>
      <trkpt lat="43.4044360" lon="-3.9633770">
        <ele>36.8</ele>
        <time>2021-07-17T09:01:56Z</time>
      </trkpt>
      <trkpt lat="43.4044410" lon="-3.9634030">
        <ele>37.2</ele>
        <time>2021-07-17T09:01:57Z</time>
      </trkpt>
      <trkpt lat="43.4044420" lon="-3.9634310">
        <ele>37.8</ele>
        <time>2021-07-17T09:01:58Z</time>
      </trkpt>
      <trkpt lat="43.4044430" lon="-3.9634580">
        <ele>38.2</ele>
        <time>2021-07-17T09:01:59Z</time>
      </trkpt>
      <trkpt lat="43.4044550" lon="-3.9635120">
        <ele>38.2</ele>
        <time>2021-07-17T09:02:01Z</time>
      </trkpt>
      <trkpt lat="43.4044800" lon="-3.9637230">
        <ele>38.6</ele>
        <time>2021-07-17T09:02:09Z</time>
      </trkpt>
      <trkpt lat="43.4044770" lon="-3.9637490">
        <ele>39.0</ele>
        <time>2021-07-17T09:02:10Z</time>
      </trkpt>
      <trkpt lat="43.4044790" lon="-3.9637780">
        <ele>39.4</ele>
        <time>2021-07-17T09:02:11Z</time>
      </trkpt>
      <trkpt lat="43.4044840" lon="-3.9638030">
        <ele>39.8</ele>
        <time>2021-07-17T09:02:12Z</time>
      </trkpt>
      <trkpt lat="43.4044900" lon="-3.9638330">
        <ele>40.2</ele>
        <time>2021-07-17T09:02:13Z</time>
      </trkpt>
      <trkpt lat="43.4044990" lon="-3.9639230">
        <ele>40.2</ele>
        <time>2021-07-17T09:02:16Z</time>
      </trkpt>
      <trkpt lat="43.4045030" lon="-3.9641170">
        <ele>40.2</ele>
        <time>2021-07-17T09:02:23Z</time>
      </trkpt>
      <trkpt lat="43.4045090" lon="-3.9641610">
        <ele>40.6</ele>
        <time>2021-07-17T09:02:25Z</time>
      </trkpt>
      <trkpt lat="43.4045170" lon="-3.9641810">
        <ele>41.0</ele>
        <time>2021-07-17T09:02:26Z</time>
      </trkpt>
      <trkpt lat="43.4045190" lon="-3.9642050">
        <ele>41.4</ele>
        <time>2021-07-17T09:02:27Z</time>
      </trkpt>
      <trkpt lat="43.4045220" lon="-3.9642260">
        <ele>41.8</ele>
        <time>2021-07-17T09:02:28Z</time>
      </trkpt>
      <trkpt lat="43.4045230" lon="-3.9642440">
        <ele>42.2</ele>
        <time>2021-07-17T09:02:29Z</time>
      </trkpt>
      <trkpt lat="43.4045260" lon="-3.9642600">
        <ele>42.2</ele>
        <time>2021-07-17T09:02:30Z</time>
      </trkpt>
      <trkpt lat="43.4045490" lon="-3.9644320">
        <ele>42.6</ele>
        <time>2021-07-17T09:02:38Z</time>
      </trkpt>
      <trkpt lat="43.4045560" lon="-3.9644510">
        <ele>43.4</ele>
        <time>2021-07-17T09:02:39Z</time>
      </trkpt>
      <trkpt lat="43.4045610" lon="-3.9644710">
        <ele>43.8</ele>
        <time>2021-07-17T09:02:40Z</time>
      </trkpt>
      <trkpt lat="43.4045620" lon="-3.9644920">
        <ele>44.2</ele>
        <time>2021-07-17T09:02:41Z</time>
      </trkpt>
      <trkpt lat="43.4045690" lon="-3.9645730">
        <ele>44.2</ele>
        <time>2021-07-17T09:02:45Z</time>
      </trkpt>
      <trkpt lat="43.4045890" lon="-3.9646170">
        <ele>44.6</ele>
        <time>2021-07-17T09:02:48Z</time>
      </trkpt>
      <trkpt lat="43.4045920" lon="-3.9646360">
        <ele>45.0</ele>
        <time>2021-07-17T09:02:49Z</time>
      </trkpt>
      <trkpt lat="43.4045930" lon="-3.9646580">
        <ele>45.4</ele>
        <time>2021-07-17T09:02:50Z</time>
      </trkpt>
      <trkpt lat="43.4045960" lon="-3.9646750">
        <ele>46.0</ele>
        <time>2021-07-17T09:02:51Z</time>
      </trkpt>
      <trkpt lat="43.4045990" lon="-3.9646960">
        <ele>46.4</ele>
        <time>2021-07-17T09:02:52Z</time>
      </trkpt>
      <trkpt lat="43.4046010" lon="-3.9647160">
        <ele>46.4</ele>
        <time>2021-07-17T09:02:53Z</time>
      </trkpt>
      <trkpt lat="43.4046140" lon="-3.9648630">
        <ele>46.8</ele>
        <time>2021-07-17T09:02:59Z</time>
      </trkpt>
      <trkpt lat="43.4046180" lon="-3.9648870">
        <ele>47.2</ele>
        <time>2021-07-17T09:03:00Z</time>
      </trkpt>
      <trkpt lat="43.4046210" lon="-3.9649170">
        <ele>47.6</ele>
        <time>2021-07-17T09:03:01Z</time>
      </trkpt>
      <trkpt lat="43.4046200" lon="-3.9649430">
        <ele>48.0</ele>
        <time>2021-07-17T09:03:02Z</time>
      </trkpt>
      <trkpt lat="43.4046220" lon="-3.9649670">
        <ele>48.4</ele>
        <time>2021-07-17T09:03:03Z</time>
      </trkpt>
      <trkpt lat="43.4046420" lon="-3.9650660">
        <ele>48.4</ele>
        <time>2021-07-17T09:03:08Z</time>
      </trkpt>
      <trkpt lat="43.4046540" lon="-3.9651750">
        <ele>48.8</ele>
        <time>2021-07-17T09:03:13Z</time>
      </trkpt>
      <trkpt lat="43.4046540" lon="-3.9651950">
        <ele>49.2</ele>
        <time>2021-07-17T09:03:14Z</time>
      </trkpt>
      <trkpt lat="43.4046590" lon="-3.9652150">
        <ele>49.6</ele>
        <time>2021-07-17T09:03:15Z</time>
      </trkpt>
      <trkpt lat="43.4046640" lon="-3.9652360">
        <ele>50.2</ele>
        <time>2021-07-17T09:03:16Z</time>
      </trkpt>
      <trkpt lat="43.4046680" lon="-3.9652560">
        <ele>50.6</ele>
        <time>2021-07-17T09:03:17Z</time>
      </trkpt>
      <trkpt lat="43.4046760" lon="-3.9653550">
        <ele>50.6</ele>
        <time>2021-07-17T09:03:22Z</time>
      </trkpt>
      <trkpt lat="43.4046900" lon="-3.9654320">
        <ele>51.0</ele>
        <time>2021-07-17T09:03:26Z</time>
      </trkpt>
      <trkpt lat="43.4046970" lon="-3.9654490">
        <ele>51.4</ele>
        <time>2021-07-17T09:03:27Z</time>
      </trkpt>
      <trkpt lat="43.4046990" lon="-3.9654690">
        <ele>52.2</ele>
        <time>2021-07-17T09:03:28Z</time>
      </trkpt>
      <trkpt lat="43.4046990" lon="-3.9654900">
        <ele>52.6</ele>
        <time>2021-07-17T09:03:29Z</time>
      </trkpt>
      <trkpt lat="43.4047040" lon="-3.9655080">
        <ele>52.6</ele>
        <time>2021-07-17T09:03:30Z</time>
      </trkpt>
      <trkpt lat="43.4047210" lon="-3.9656790">
        <ele>52.6</ele>
        <time>2021-07-17T09:03:39Z</time>
      </trkpt>
      <trkpt lat="43.4047260" lon="-3.9656940">
        <ele>53.0</ele>
        <time>2021-07-17T09:03:40Z</time>
      </trkpt>
      <trkpt lat="43.4047320" lon="-3.9657100">
        <ele>53.4</ele>
        <time>2021-07-17T09:03:41Z</time>
      </trkpt>
      <trkpt lat="43.4047350" lon="-3.9657270">
        <ele>53.8</ele>
        <time>2021-07-17T09:03:42Z</time>
      </trkpt>
      <trkpt lat="43.4047370" lon="-3.9657440">
        <ele>54.2</ele>
        <time>2021-07-17T09:03:43Z</time>
      </trkpt>
      <trkpt lat="43.4047370" lon="-3.9657570">
        <ele>54.6</ele>
        <time>2021-07-17T09:03:44Z</time>
      </trkpt>
      <trkpt lat="43.4047450" lon="-3.9658280">
        <ele>54.6</ele>
        <time>2021-07-17T09:03:48Z</time>
      </trkpt>
      <trkpt lat="43.4047510" lon="-3.9659100">
        <ele>55.4</ele>
        <time>2021-07-17T09:03:52Z</time>
      </trkpt>
      <trkpt lat="43.4047540" lon="-3.9659300">
        <ele>55.8</ele>
        <time>2021-07-17T09:03:53Z</time>
      </trkpt>
      <trkpt lat="43.4047600" lon="-3.9659490">
        <ele>56.2</ele>
        <time>2021-07-17T09:03:54Z</time>
      </trkpt>
      <trkpt lat="43.4047650" lon="-3.9659670">
        <ele>56.6</ele>
        <time>2021-07-17T09:03:55Z</time>
      </trkpt>
      <trkpt lat="43.4047780" lon="-3.9660240">
        <ele>56.6</ele>
        <time>2021-07-17T09:03:58Z</time>
      </trkpt>
      <trkpt lat="43.4047900" lon="-3.9661530">
        <ele>57.0</ele>
        <time>2021-07-17T09:04:04Z</time>
      </trkpt>
      <trkpt lat="43.4047950" lon="-3.9661720">
        <ele>57.6</ele>
        <time>2021-07-17T09:04:05Z</time>
      </trkpt>
      <trkpt lat="43.4047980" lon="-3.9661910">
        <ele>58.0</ele>
        <time>2021-07-17T09:04:06Z</time>
      </trkpt>
      <trkpt lat="43.4048010" lon="-3.9662130">
        <ele>58.4</ele>
        <time>2021-07-17T09:04:07Z</time>
      </trkpt>
      <trkpt lat="43.4048020" lon="-3.9662270">
        <ele>58.8</ele>
        <time>2021-07-17T09:04:08Z</time>
      </trkpt>
      <trkpt lat="43.4048310" lon="-3.9663410">
        <ele>58.8</ele>
        <time>2021-07-17T09:04:14Z</time>
      </trkpt>
      <trkpt lat="43.4048330" lon="-3.9664020">
        <ele>59.6</ele>
        <time>2021-07-17T09:04:17Z</time>
      </trkpt>
      <trkpt lat="43.4048360" lon="-3.9664220">
        <ele>60.0</ele>
        <time>2021-07-17T09:04:18Z</time>
      </trkpt>
      <trkpt lat="43.4048390" lon="-3.9664410">
        <ele>60.4</ele>
        <time>2021-07-17T09:04:19Z</time>
      </trkpt>
      <trkpt lat="43.4048410" lon="-3.9664600">
        <ele>60.8</ele>
        <time>2021-07-17T09:04:20Z</time>
      </trkpt>
      <trkpt lat="43.4048460" lon="-3.9665030">
        <ele>60.8</ele>
        <time>2021-07-17T09:04:22Z</time>
      </trkpt>
      <trkpt lat="43.4048580" lon="-3.9666600">
        <ele>60.8</ele>
        <time>2021-07-17T09:04:30Z</time>
      </trkpt>
      <trkpt lat="43.4048620" lon="-3.9666800">
        <ele>61.2</ele>
        <time>2021-07-17T09:04:31Z</time>
      </trkpt>
      <trkpt lat="43.4048680" lon="-3.9667000">
        <ele>61.6</ele>
        <time>2021-07-17T09:04:32Z</time>
      </trkpt>
      <trkpt lat="43.4048750" lon="-3.9667190">
        <ele>62.0</ele>
        <time>2021-07-17T09:04:33Z</time>
      </trkpt>
      <trkpt lat="43.4048810" lon="-3.9667390">
        <ele>62.4</ele>
        <time>2021-07-17T09:04:34Z</time>
      </trkpt>
      <trkpt lat="43.4048860" lon="-3.9667620">
        <ele>62.8</ele>
        <time>2021-07-17T09:04:35Z</time>
      </trkpt>
      <trkpt lat="43.4049040" lon="-3.9668500">
        <ele>62.8</ele>
        <time>2021-07-17T09:04:39Z</time>
      </trkpt>
      <trkpt lat="43.4049380" lon="-3.9670080">
        <ele>63.2</ele>
        <time>2021-07-17T09:04:46Z</time>
      </trkpt>
      <trkpt lat="43.4049420" lon="-3.9670310">
        <ele>63.6</ele>
        <time>2021-07-17T09:04:47Z</time>
      </trkpt>
      <trkpt lat="43.4049440" lon="-3.9670590">
        <ele>64.0</ele>
        <time>2021-07-17T09:04:48Z</time>
      </trkpt>
      <trkpt lat="43.4049470" lon="-3.9670810">
        <ele>64.4</ele>
        <time>2021-07-17T09:04:49Z</time>
      </trkpt>
      <trkpt lat="43.4049490" lon="-3.9671050">
        <ele>64.8</ele>
        <time>2021-07-17T09:04:50Z</time>
      </trkpt>
      <trkpt lat="43.4049860" lon="-3.9673140">
        <ele>64.8</ele>
        <time>2021-07-17T09:04:58Z</time>
      </trkpt>
      <trkpt lat="43.4049970" lon="-3.9673720">
        <ele>64.8</ele>
        <time>2021-07-17T09:05:00Z</time>
      </trkpt>
      <trkpt lat="43.4050590" lon="-3.9676400">
        <ele>64.8</ele>
        <time>2021-07-17T09:05:09Z</time>
      </trkpt>
      <trkpt lat="43.4050720" lon="-3.9676700">
        <ele>65.2</ele>
        <time>2021-07-17T09:05:10Z</time>
      </trkpt>
      <trkpt lat="43.4050830" lon="-3.9677010">
        <ele>65.6</ele>
        <time>2021-07-17T09:05:11Z</time>
      </trkpt>
      <trkpt lat="43.4050930" lon="-3.9677320">
        <ele>66.0</ele>
        <time>2021-07-17T09:05:12Z</time>
      </trkpt>
      <trkpt lat="43.4051040" lon="-3.9677660">
        <ele>66.4</ele>
        <time>2021-07-17T09:05:13Z</time>
      </trkpt>
      <trkpt lat="43.4051140" lon="-3.9677990">
        <ele>66.8</ele>
        <time>2021-07-17T09:05:14Z</time>
      </trkpt>
      <trkpt lat="43.4051660" lon="-3.9679770">
        <ele>66.8</ele>
        <time>2021-07-17T09:05:19Z</time>
      </trkpt>
      <trkpt lat="43.4051720" lon="-3.9682200">
        <ele>66.8</ele>
        <time>2021-07-17T09:05:26Z</time>
      </trkpt>
      <trkpt lat="43.4051560" lon="-3.9683440">
        <ele>66.8</ele>
        <time>2021-07-17T09:05:30Z</time>
      </trkpt>
      <trkpt lat="43.4051680" lon="-3.9683620">
        <ele>66.8</ele>
        <time>2021-07-17T09:05:31Z</time>
      </trkpt>
      <trkpt lat="43.4053100" lon="-3.9684100">
        <ele>67.2</ele>
        <time>2021-07-17T09:05:38Z</time>
      </trkpt>
      <trkpt lat="43.4053410" lon="-3.9683980">
        <ele>67.6</ele>
        <time>2021-07-17T09:05:39Z</time>
      </trkpt>
      <trkpt lat="43.4053650" lon="-3.9683880">
        <ele>68.0</ele>
        <time>2021-07-17T09:05:40Z</time>
      </trkpt>
      <trkpt lat="43.4053870" lon="-3.9683760">
        <ele>68.6</ele>
        <time>2021-07-17T09:05:41Z</time>
      </trkpt>
      <trkpt lat="43.4054110" lon="-3.9683690">
        <ele>69.0</ele>
        <time>2021-07-17T09:05:42Z</time>
      </trkpt>
      <trkpt lat="43.4054780" lon="-3.9683530">
        <ele>69.0</ele>
        <time>2021-07-17T09:05:45Z</time>
      </trkpt>
      <trkpt lat="43.4055210" lon="-3.9683710">
        <ele>69.0</ele>
        <time>2021-07-17T09:05:47Z</time>
      </trkpt>
      <trkpt lat="43.4055370" lon="-3.9683960">
        <ele>69.0</ele>
        <time>2021-07-17T09:05:48Z</time>
      </trkpt>
      <trkpt lat="43.4055810" lon="-3.9686020">
        <ele>69.0</ele>
        <time>2021-07-17T09:05:55Z</time>
      </trkpt>
      <trkpt lat="43.4055230" lon="-3.9688000">
        <ele>69.0</ele>
        <time>2021-07-17T09:06:00Z</time>
      </trkpt>
      <trkpt lat="43.4055060" lon="-3.9688490">
        <ele>69.0</ele>
        <time>2021-07-17T09:06:01Z</time>
      </trkpt>
      <trkpt lat="43.4054830" lon="-3.9689060">
        <ele>69.0</ele>
        <time>2021-07-17T09:06:02Z</time>
      </trkpt>
      <trkpt lat="43.4054010" lon="-3.9691320">
        <ele>69.0</ele>
        <time>2021-07-17T09:06:06Z</time>
      </trkpt>
      <trkpt lat="43.4052660" lon="-3.9694170">
        <ele>69.0</ele>
        <time>2021-07-17T09:06:12Z</time>
      </trkpt>
      <trkpt lat="43.4052220" lon="-3.9695040">
        <ele>69.0</ele>
        <time>2021-07-17T09:06:14Z</time>
      </trkpt>
      <trkpt lat="43.4050850" lon="-3.9697650">
        <ele>69.0</ele>
        <time>2021-07-17T09:06:20Z</time>
      </trkpt>
      <trkpt lat="43.4049760" lon="-3.9699680">
        <ele>69.0</ele>
        <time>2021-07-17T09:06:25Z</time>
      </trkpt>
      <trkpt lat="43.4048970" lon="-3.9700970">
        <ele>69.0</ele>
        <time>2021-07-17T09:06:28Z</time>
      </trkpt>
      <trkpt lat="43.4048430" lon="-3.9701840">
        <ele>69.0</ele>
        <time>2021-07-17T09:06:30Z</time>
      </trkpt>
      <trkpt lat="43.4047490" lon="-3.9702950">
        <ele>69.0</ele>
        <time>2021-07-17T09:06:33Z</time>
      </trkpt>
      <trkpt lat="43.4046840" lon="-3.9703670">
        <ele>69.0</ele>
        <time>2021-07-17T09:06:35Z</time>
      </trkpt>
      <trkpt lat="43.4046050" lon="-3.9704290">
        <ele>69.0</ele>
        <time>2021-07-17T09:06:37Z</time>
      </trkpt>
      <trkpt lat="43.4044690" lon="-3.9704920">
        <ele>69.0</ele>
        <time>2021-07-17T09:06:40Z</time>
      </trkpt>
      <trkpt lat="43.4043530" lon="-3.9705310">
        <ele>69.0</ele>
        <time>2021-07-17T09:06:43Z</time>
      </trkpt>
      <trkpt lat="43.4042200" lon="-3.9706210">
        <ele>69.0</ele>
        <time>2021-07-17T09:06:47Z</time>
      </trkpt>
      <trkpt lat="43.4040880" lon="-3.9707800">
        <ele>69.0</ele>
        <time>2021-07-17T09:06:52Z</time>
      </trkpt>
      <trkpt lat="43.4040620" lon="-3.9708290">
        <ele>69.0</ele>
        <time>2021-07-17T09:06:53Z</time>
      </trkpt>
      <trkpt lat="43.4039210" lon="-3.9711860">
        <ele>69.0</ele>
        <time>2021-07-17T09:06:58Z</time>
      </trkpt>
      <trkpt lat="43.4038780" lon="-3.9713680">
        <ele>69.0</ele>
        <time>2021-07-17T09:07:00Z</time>
      </trkpt>
      <trkpt lat="43.4038650" lon="-3.9714670">
        <ele>68.4</ele>
        <time>2021-07-17T09:07:01Z</time>
      </trkpt>
      <trkpt lat="43.4038600" lon="-3.9715730">
        <ele>68.0</ele>
        <time>2021-07-17T09:07:02Z</time>
      </trkpt>
      <trkpt lat="43.4038590" lon="-3.9716960">
        <ele>67.4</ele>
        <time>2021-07-17T09:07:03Z</time>
      </trkpt>
      <trkpt lat="43.4038590" lon="-3.9718270">
        <ele>67.0</ele>
        <time>2021-07-17T09:07:04Z</time>
      </trkpt>
      <trkpt lat="43.4038650" lon="-3.9719650">
        <ele>66.4</ele>
        <time>2021-07-17T09:07:05Z</time>
      </trkpt>
      <trkpt lat="43.4038770" lon="-3.9721060">
        <ele>66.0</ele>
        <time>2021-07-17T09:07:06Z</time>
      </trkpt>
      <trkpt lat="43.4038950" lon="-3.9722460">
        <ele>65.4</ele>
        <time>2021-07-17T09:07:07Z</time>
      </trkpt>
      <trkpt lat="43.4039200" lon="-3.9723840">
        <ele>65.0</ele>
        <time>2021-07-17T09:07:08Z</time>
      </trkpt>
      <trkpt lat="43.4039460" lon="-3.9725330">
        <ele>64.4</ele>
        <time>2021-07-17T09:07:09Z</time>
      </trkpt>
      <trkpt lat="43.4039770" lon="-3.9728140">
        <ele>64.0</ele>
        <time>2021-07-17T09:07:11Z</time>
      </trkpt>
      <trkpt lat="43.4039810" lon="-3.9729520">
        <ele>63.4</ele>
        <time>2021-07-17T09:07:12Z</time>
      </trkpt>
      <trkpt lat="43.4039790" lon="-3.9730880">
        <ele>63.0</ele>
        <time>2021-07-17T09:07:13Z</time>
      </trkpt>
      <trkpt lat="43.4039680" lon="-3.9732230">
        <ele>62.6</ele>
        <time>2021-07-17T09:07:14Z</time>
      </trkpt>
      <trkpt lat="43.4039500" lon="-3.9733500">
        <ele>62.0</ele>
        <time>2021-07-17T09:07:15Z</time>
      </trkpt>
      <trkpt lat="43.4039080" lon="-3.9735960">
        <ele>61.6</ele>
        <time>2021-07-17T09:07:17Z</time>
      </trkpt>
      <trkpt lat="43.4038920" lon="-3.9737100">
        <ele>61.0</ele>
        <time>2021-07-17T09:07:18Z</time>
      </trkpt>
      <trkpt lat="43.4038820" lon="-3.9738200">
        <ele>60.4</ele>
        <time>2021-07-17T09:07:19Z</time>
      </trkpt>
      <trkpt lat="43.4038810" lon="-3.9739230">
        <ele>60.0</ele>
        <time>2021-07-17T09:07:20Z</time>
      </trkpt>
      <trkpt lat="43.4038910" lon="-3.9740230">
        <ele>59.4</ele>
        <time>2021-07-17T09:07:21Z</time>
      </trkpt>
      <trkpt lat="43.4039310" lon="-3.9741860">
        <ele>59.4</ele>
        <time>2021-07-17T09:07:23Z</time>
      </trkpt>
      <trkpt lat="43.4039530" lon="-3.9742530">
        <ele>59.4</ele>
        <time>2021-07-17T09:07:24Z</time>
      </trkpt>
      <trkpt lat="43.4039820" lon="-3.9743540">
        <ele>59.4</ele>
        <time>2021-07-17T09:07:26Z</time>
      </trkpt>
      <trkpt lat="43.4039820" lon="-3.9743910">
        <ele>59.4</ele>
        <time>2021-07-17T09:07:27Z</time>
      </trkpt>
      <trkpt lat="43.4039610" lon="-3.9744330">
        <ele>59.4</ele>
        <time>2021-07-17T09:07:29Z</time>
      </trkpt>
      <trkpt lat="43.4039390" lon="-3.9744840">
        <ele>59.4</ele>
        <time>2021-07-17T09:07:31Z</time>
      </trkpt>
      <trkpt lat="43.4039310" lon="-3.9745050">
        <ele>59.8</ele>
        <time>2021-07-17T09:07:32Z</time>
      </trkpt>
      <trkpt lat="43.4039250" lon="-3.9745280">
        <ele>60.2</ele>
        <time>2021-07-17T09:07:33Z</time>
      </trkpt>
      <trkpt lat="43.4039220" lon="-3.9745540">
        <ele>60.6</ele>
        <time>2021-07-17T09:07:34Z</time>
      </trkpt>
      <trkpt lat="43.4039180" lon="-3.9745810">
        <ele>61.6</ele>
        <time>2021-07-17T09:07:35Z</time>
      </trkpt>
      <trkpt lat="43.4038970" lon="-3.9746590">
        <ele>61.6</ele>
        <time>2021-07-17T09:07:38Z</time>
      </trkpt>
      <trkpt lat="43.4038890" lon="-3.9746880">
        <ele>61.6</ele>
        <time>2021-07-17T09:07:39Z</time>
      </trkpt>
      <trkpt lat="43.4038750" lon="-3.9747360">
        <ele>62.0</ele>
        <time>2021-07-17T09:07:41Z</time>
      </trkpt>
      <trkpt lat="43.4038670" lon="-3.9747570">
        <ele>62.4</ele>
        <time>2021-07-17T09:07:42Z</time>
      </trkpt>
      <trkpt lat="43.4038600" lon="-3.9747780">
        <ele>62.8</ele>
        <time>2021-07-17T09:07:43Z</time>
      </trkpt>
      <trkpt lat="43.4038530" lon="-3.9747980">
        <ele>63.2</ele>
        <time>2021-07-17T09:07:44Z</time>
      </trkpt>
      <trkpt lat="43.4038470" lon="-3.9748210">
        <ele>63.6</ele>
        <time>2021-07-17T09:07:45Z</time>
      </trkpt>
      <trkpt lat="43.4038330" lon="-3.9748640">
        <ele>63.6</ele>
        <time>2021-07-17T09:07:47Z</time>
      </trkpt>
      <trkpt lat="43.4038250" lon="-3.9748830">
        <ele>64.0</ele>
        <time>2021-07-17T09:07:48Z</time>
      </trkpt>
      <trkpt lat="43.4038170" lon="-3.9749020">
        <ele>64.4</ele>
        <time>2021-07-17T09:07:49Z</time>
      </trkpt>
      <trkpt lat="43.4038080" lon="-3.9749210">
        <ele>64.8</ele>
        <time>2021-07-17T09:07:50Z</time>
      </trkpt>
      <trkpt lat="43.4037960" lon="-3.9749380">
        <ele>65.2</ele>
        <time>2021-07-17T09:07:51Z</time>
      </trkpt>
      <trkpt lat="43.4037840" lon="-3.9749580">
        <ele>65.6</ele>
        <time>2021-07-17T09:07:52Z</time>
      </trkpt>
      <trkpt lat="43.4037370" lon="-3.9750350">
        <ele>65.6</ele>
        <time>2021-07-17T09:07:56Z</time>
      </trkpt>
      <trkpt lat="43.4037010" lon="-3.9750990">
        <ele>66.0</ele>
        <time>2021-07-17T09:07:59Z</time>
      </trkpt>
      <trkpt lat="43.4036870" lon="-3.9751230">
        <ele>66.8</ele>
        <time>2021-07-17T09:08:00Z</time>
      </trkpt>
      <trkpt lat="43.4036700" lon="-3.9751520">
        <ele>67.2</ele>
        <time>2021-07-17T09:08:01Z</time>
      </trkpt>
      <trkpt lat="43.4036520" lon="-3.9751810">
        <ele>67.6</ele>
        <time>2021-07-17T09:08:02Z</time>
      </trkpt>
      <trkpt lat="43.4036140" lon="-3.9752320">
        <ele>67.6</ele>
        <time>2021-07-17T09:08:04Z</time>
      </trkpt>
      <trkpt lat="43.4035560" lon="-3.9753090">
        <ele>67.6</ele>
        <time>2021-07-17T09:08:07Z</time>
      </trkpt>
      <trkpt lat="43.4034800" lon="-3.9754200">
        <ele>67.6</ele>
        <time>2021-07-17T09:08:11Z</time>
      </trkpt>
      <trkpt lat="43.4033530" lon="-3.9756320">
        <ele>67.6</ele>
        <time>2021-07-17T09:08:16Z</time>
      </trkpt>
      <trkpt lat="43.4031440" lon="-3.9758770">
        <ele>67.6</ele>
        <time>2021-07-17T09:08:22Z</time>
      </trkpt>
      <trkpt lat="43.4030240" lon="-3.9761060">
        <ele>67.6</ele>
        <time>2021-07-17T09:08:27Z</time>
      </trkpt>
      <trkpt lat="43.4030070" lon="-3.9761600">
        <ele>67.6</ele>
        <time>2021-07-17T09:08:28Z</time>
      </trkpt>
      <trkpt lat="43.4029620" lon="-3.9763590">
        <ele>67.6</ele>
        <time>2021-07-17T09:08:32Z</time>
      </trkpt>
      <trkpt lat="43.4029180" lon="-3.9765150">
        <ele>67.6</ele>
        <time>2021-07-17T09:08:36Z</time>
      </trkpt>
      <trkpt lat="43.4028730" lon="-3.9766280">
        <ele>67.6</ele>
        <time>2021-07-17T09:08:39Z</time>
      </trkpt>
      <trkpt lat="43.4028370" lon="-3.9767020">
        <ele>68.0</ele>
        <time>2021-07-17T09:08:41Z</time>
      </trkpt>
      <trkpt lat="43.4028200" lon="-3.9767390">
        <ele>68.6</ele>
        <time>2021-07-17T09:08:42Z</time>
      </trkpt>
      <trkpt lat="43.4028010" lon="-3.9767780">
        <ele>69.0</ele>
        <time>2021-07-17T09:08:43Z</time>
      </trkpt>
      <trkpt lat="43.4027840" lon="-3.9768180">
        <ele>69.4</ele>
        <time>2021-07-17T09:08:44Z</time>
      </trkpt>
      <trkpt lat="43.4027670" lon="-3.9768590">
        <ele>69.8</ele>
        <time>2021-07-17T09:08:45Z</time>
      </trkpt>
      <trkpt lat="43.4027150" lon="-3.9769830">
        <ele>69.8</ele>
        <time>2021-07-17T09:08:48Z</time>
      </trkpt>
      <trkpt lat="43.4026100" lon="-3.9772320">
        <ele>69.8</ele>
        <time>2021-07-17T09:08:54Z</time>
      </trkpt>
      <trkpt lat="43.4024820" lon="-3.9774590">
        <ele>69.8</ele>
        <time>2021-07-17T09:09:02Z</time>
      </trkpt>
      <trkpt lat="43.4024690" lon="-3.9774830">
        <ele>70.2</ele>
        <time>2021-07-17T09:09:03Z</time>
      </trkpt>
      <trkpt lat="43.4024550" lon="-3.9775090">
        <ele>70.6</ele>
        <time>2021-07-17T09:09:04Z</time>
      </trkpt>
      <trkpt lat="43.4024420" lon="-3.9775310">
        <ele>71.0</ele>
        <time>2021-07-17T09:09:05Z</time>
      </trkpt>
      <trkpt lat="43.4024300" lon="-3.9775560">
        <ele>71.4</ele>
        <time>2021-07-17T09:09:06Z</time>
      </trkpt>
      <trkpt lat="43.4024160" lon="-3.9775790">
        <ele>72.0</ele>
        <time>2021-07-17T09:09:07Z</time>
      </trkpt>
      <trkpt lat="43.4023860" lon="-3.9776290">
        <ele>72.0</ele>
        <time>2021-07-17T09:09:09Z</time>
      </trkpt>
      <trkpt lat="43.4023280" lon="-3.9777400">
        <ele>72.4</ele>
        <time>2021-07-17T09:09:13Z</time>
      </trkpt>
      <trkpt lat="43.4023130" lon="-3.9777690">
        <ele>73.2</ele>
        <time>2021-07-17T09:09:14Z</time>
      </trkpt>
      <trkpt lat="43.4022960" lon="-3.9777970">
        <ele>73.6</ele>
        <time>2021-07-17T09:09:15Z</time>
      </trkpt>
      <trkpt lat="43.4022800" lon="-3.9778270">
        <ele>74.0</ele>
        <time>2021-07-17T09:09:16Z</time>
      </trkpt>
      <trkpt lat="43.4021810" lon="-3.9780360">
        <ele>74.0</ele>
        <time>2021-07-17T09:09:23Z</time>
      </trkpt>
      <trkpt lat="43.4021700" lon="-3.9780710">
        <ele>74.0</ele>
        <time>2021-07-17T09:09:24Z</time>
      </trkpt>
      <trkpt lat="43.4021600" lon="-3.9781050">
        <ele>74.4</ele>
        <time>2021-07-17T09:09:25Z</time>
      </trkpt>
      <trkpt lat="43.4021480" lon="-3.9781400">
        <ele>75.0</ele>
        <time>2021-07-17T09:09:26Z</time>
      </trkpt>
      <trkpt lat="43.4021370" lon="-3.9781740">
        <ele>75.4</ele>
        <time>2021-07-17T09:09:27Z</time>
      </trkpt>
      <trkpt lat="43.4021240" lon="-3.9782060">
        <ele>75.8</ele>
        <time>2021-07-17T09:09:28Z</time>
      </trkpt>
      <trkpt lat="43.4021100" lon="-3.9782410">
        <ele>76.2</ele>
        <time>2021-07-17T09:09:29Z</time>
      </trkpt>
      <trkpt lat="43.4020870" lon="-3.9783170">
        <ele>76.2</ele>
        <time>2021-07-17T09:09:31Z</time>
      </trkpt>
      <trkpt lat="43.4019720" lon="-3.9786260">
        <ele>76.2</ele>
        <time>2021-07-17T09:09:39Z</time>
      </trkpt>
      <trkpt lat="43.4019000" lon="-3.9788680">
        <ele>76.2</ele>
        <time>2021-07-17T09:09:46Z</time>
      </trkpt>
      <trkpt lat="43.4018870" lon="-3.9789010">
        <ele>76.6</ele>
        <time>2021-07-17T09:09:47Z</time>
      </trkpt>
      <trkpt lat="43.4018740" lon="-3.9789310">
        <ele>77.0</ele>
        <time>2021-07-17T09:09:48Z</time>
      </trkpt>
      <trkpt lat="43.4018600" lon="-3.9789600">
        <ele>77.4</ele>
        <time>2021-07-17T09:09:49Z</time>
      </trkpt>
      <trkpt lat="43.4018500" lon="-3.9789860">
        <ele>77.8</ele>
        <time>2021-07-17T09:09:50Z</time>
      </trkpt>
      <trkpt lat="43.4018400" lon="-3.9790090">
        <ele>78.4</ele>
        <time>2021-07-17T09:09:51Z</time>
      </trkpt>
      <trkpt lat="43.4018110" lon="-3.9790660">
        <ele>78.4</ele>
        <time>2021-07-17T09:09:54Z</time>
      </trkpt>
      <trkpt lat="43.4017680" lon="-3.9791260">
        <ele>78.8</ele>
        <time>2021-07-17T09:09:58Z</time>
      </trkpt>
      <trkpt lat="43.4017580" lon="-3.9791410">
        <ele>79.2</ele>
        <time>2021-07-17T09:09:59Z</time>
      </trkpt>
      <trkpt lat="43.4017470" lon="-3.9791550">
        <ele>79.6</ele>
        <time>2021-07-17T09:10:00Z</time>
      </trkpt>
      <trkpt lat="43.4017340" lon="-3.9791740">
        <ele>80.0</ele>
        <time>2021-07-17T09:10:01Z</time>
      </trkpt>
      <trkpt lat="43.4017220" lon="-3.9791850">
        <ele>80.4</ele>
        <time>2021-07-17T09:10:02Z</time>
      </trkpt>
      <trkpt lat="43.4016260" lon="-3.9792940">
        <ele>80.8</ele>
        <time>2021-07-17T09:10:09Z</time>
      </trkpt>
      <trkpt lat="43.4016060" lon="-3.9793100">
        <ele>81.2</ele>
        <time>2021-07-17T09:10:10Z</time>
      </trkpt>
      <trkpt lat="43.4015940" lon="-3.9793240">
        <ele>81.6</ele>
        <time>2021-07-17T09:10:11Z</time>
      </trkpt>
      <trkpt lat="43.4015790" lon="-3.9793380">
        <ele>82.0</ele>
        <time>2021-07-17T09:10:12Z</time>
      </trkpt>
      <trkpt lat="43.4015610" lon="-3.9793540">
        <ele>82.4</ele>
        <time>2021-07-17T09:10:13Z</time>
      </trkpt>
      <trkpt lat="43.4015440" lon="-3.9793720">
        <ele>82.4</ele>
        <time>2021-07-17T09:10:14Z</time>
      </trkpt>
      <trkpt lat="43.4014750" lon="-3.9794300">
        <ele>83.0</ele>
        <time>2021-07-17T09:10:19Z</time>
      </trkpt>
      <trkpt lat="43.4014610" lon="-3.9794440">
        <ele>83.4</ele>
        <time>2021-07-17T09:10:20Z</time>
      </trkpt>
      <trkpt lat="43.4014470" lon="-3.9794620">
        <ele>83.8</ele>
        <time>2021-07-17T09:10:21Z</time>
      </trkpt>
      <trkpt lat="43.4014320" lon="-3.9794800">
        <ele>84.2</ele>
        <time>2021-07-17T09:10:22Z</time>
      </trkpt>
      <trkpt lat="43.4014140" lon="-3.9794950">
        <ele>84.6</ele>
        <time>2021-07-17T09:10:23Z</time>
      </trkpt>
      <trkpt lat="43.4012750" lon="-3.9795700">
        <ele>84.6</ele>
        <time>2021-07-17T09:10:29Z</time>
      </trkpt>
      <trkpt lat="43.4011670" lon="-3.9795510">
        <ele>84.6</ele>
        <time>2021-07-17T09:10:34Z</time>
      </trkpt>
      <trkpt lat="43.4010580" lon="-3.9796000">
        <ele>84.6</ele>
        <time>2021-07-17T09:10:40Z</time>
      </trkpt>
      <trkpt lat="43.4010440" lon="-3.9796190">
        <ele>85.0</ele>
        <time>2021-07-17T09:10:41Z</time>
      </trkpt>
      <trkpt lat="43.4010310" lon="-3.9796370">
        <ele>85.4</ele>
        <time>2021-07-17T09:10:42Z</time>
      </trkpt>
      <trkpt lat="43.4010160" lon="-3.9796570">
        <ele>85.8</ele>
        <time>2021-07-17T09:10:43Z</time>
      </trkpt>
      <trkpt lat="43.4010010" lon="-3.9796780">
        <ele>86.4</ele>
        <time>2021-07-17T09:10:44Z</time>
      </trkpt>
      <trkpt lat="43.4009840" lon="-3.9797000">
        <ele>86.8</ele>
        <time>2021-07-17T09:10:45Z</time>
      </trkpt>
      <trkpt lat="43.4009520" lon="-3.9797410">
        <ele>86.8</ele>
        <time>2021-07-17T09:10:47Z</time>
      </trkpt>
      <trkpt lat="43.4008510" lon="-3.9799380">
        <ele>86.8</ele>
        <time>2021-07-17T09:10:55Z</time>
      </trkpt>
      <trkpt lat="43.4008340" lon="-3.9800260">
        <ele>87.2</ele>
        <time>2021-07-17T09:10:58Z</time>
      </trkpt>
      <trkpt lat="43.4008330" lon="-3.9800550">
        <ele>87.6</ele>
        <time>2021-07-17T09:10:59Z</time>
      </trkpt>
      <trkpt lat="43.4008340" lon="-3.9800860">
        <ele>88.0</ele>
        <time>2021-07-17T09:11:00Z</time>
      </trkpt>
      <trkpt lat="43.4008370" lon="-3.9801210">
        <ele>88.4</ele>
        <time>2021-07-17T09:11:01Z</time>
      </trkpt>
      <trkpt lat="43.4008360" lon="-3.9801530">
        <ele>88.8</ele>
        <time>2021-07-17T09:11:02Z</time>
      </trkpt>
      <trkpt lat="43.4008370" lon="-3.9801860">
        <ele>88.8</ele>
        <time>2021-07-17T09:11:03Z</time>
      </trkpt>
      <trkpt lat="43.4008220" lon="-3.9804190">
        <ele>88.8</ele>
        <time>2021-07-17T09:11:10Z</time>
      </trkpt>
      <trkpt lat="43.4007970" lon="-3.9805410">
        <ele>88.8</ele>
        <time>2021-07-17T09:11:13Z</time>
      </trkpt>
      <trkpt lat="43.4007670" lon="-3.9806670">
        <ele>88.8</ele>
        <time>2021-07-17T09:11:16Z</time>
      </trkpt>
      <trkpt lat="43.4007140" lon="-3.9808480">
        <ele>88.8</ele>
        <time>2021-07-17T09:11:21Z</time>
      </trkpt>
      <trkpt lat="43.4007010" lon="-3.9808870">
        <ele>88.8</ele>
        <time>2021-07-17T09:11:22Z</time>
      </trkpt>
      <trkpt lat="43.4006730" lon="-3.9809660">
        <ele>88.8</ele>
        <time>2021-07-17T09:11:24Z</time>
      </trkpt>
      <trkpt lat="43.4006470" lon="-3.9810470">
        <ele>88.8</ele>
        <time>2021-07-17T09:11:26Z</time>
      </trkpt>
      <trkpt lat="43.4006200" lon="-3.9811350">
        <ele>88.8</ele>
        <time>2021-07-17T09:11:28Z</time>
      </trkpt>
      <trkpt lat="43.4005890" lon="-3.9813760">
        <ele>88.8</ele>
        <time>2021-07-17T09:11:33Z</time>
      </trkpt>
      <trkpt lat="43.4005880" lon="-3.9814660">
        <ele>88.8</ele>
        <time>2021-07-17T09:11:35Z</time>
      </trkpt>
      <trkpt lat="43.4005830" lon="-3.9815610">
        <ele>88.8</ele>
        <time>2021-07-17T09:11:38Z</time>
      </trkpt>
      <trkpt lat="43.4005870" lon="-3.9816130">
        <ele>88.8</ele>
        <time>2021-07-17T09:11:40Z</time>
      </trkpt>
      <trkpt lat="43.4006010" lon="-3.9816940">
        <ele>89.2</ele>
        <time>2021-07-17T09:11:44Z</time>
      </trkpt>
      <trkpt lat="43.4006090" lon="-3.9817130">
        <ele>89.6</ele>
        <time>2021-07-17T09:11:45Z</time>
      </trkpt>
      <trkpt lat="43.4006170" lon="-3.9817330">
        <ele>90.2</ele>
        <time>2021-07-17T09:11:46Z</time>
      </trkpt>
      <trkpt lat="43.4006200" lon="-3.9817530">
        <ele>90.6</ele>
        <time>2021-07-17T09:11:47Z</time>
      </trkpt>
      <trkpt lat="43.4006220" lon="-3.9817760">
        <ele>91.0</ele>
        <time>2021-07-17T09:11:48Z</time>
      </trkpt>
      <trkpt lat="43.4006260" lon="-3.9818670">
        <ele>91.0</ele>
        <time>2021-07-17T09:11:52Z</time>
      </trkpt>
      <trkpt lat="43.4006340" lon="-3.9819110">
        <ele>91.0</ele>
        <time>2021-07-17T09:11:54Z</time>
      </trkpt>
      <trkpt lat="43.4006480" lon="-3.9819760">
        <ele>91.4</ele>
        <time>2021-07-17T09:11:57Z</time>
      </trkpt>
      <trkpt lat="43.4006520" lon="-3.9819970">
        <ele>91.8</ele>
        <time>2021-07-17T09:11:58Z</time>
      </trkpt>
      <trkpt lat="43.4006550" lon="-3.9820200">
        <ele>92.2</ele>
        <time>2021-07-17T09:11:59Z</time>
      </trkpt>
      <trkpt lat="43.4006580" lon="-3.9820430">
        <ele>92.6</ele>
        <time>2021-07-17T09:12:00Z</time>
      </trkpt>
      <trkpt lat="43.4006630" lon="-3.9820660">
        <ele>93.0</ele>
        <time>2021-07-17T09:12:01Z</time>
      </trkpt>
      <trkpt lat="43.4006670" lon="-3.9820870">
        <ele>93.0</ele>
        <time>2021-07-17T09:12:02Z</time>
      </trkpt>
      <trkpt lat="43.4006780" lon="-3.9821950">
        <ele>93.6</ele>
        <time>2021-07-17T09:12:07Z</time>
      </trkpt>
      <trkpt lat="43.4006790" lon="-3.9822180">
        <ele>94.0</ele>
        <time>2021-07-17T09:12:08Z</time>
      </trkpt>
      <trkpt lat="43.4006800" lon="-3.9822410">
        <ele>94.4</ele>
        <time>2021-07-17T09:12:09Z</time>
      </trkpt>
      <trkpt lat="43.4006800" lon="-3.9822600">
        <ele>94.8</ele>
        <time>2021-07-17T09:12:10Z</time>
      </trkpt>
      <trkpt lat="43.4006790" lon="-3.9822800">
        <ele>95.2</ele>
        <time>2021-07-17T09:12:11Z</time>
      </trkpt>
      <trkpt lat="43.4006790" lon="-3.9823840">
        <ele>95.2</ele>
        <time>2021-07-17T09:12:17Z</time>
      </trkpt>
      <trkpt lat="43.4006810" lon="-3.9824290">
        <ele>95.6</ele>
        <time>2021-07-17T09:12:19Z</time>
      </trkpt>
      <trkpt lat="43.4006830" lon="-3.9824500">
        <ele>96.0</ele>
        <time>2021-07-17T09:12:20Z</time>
      </trkpt>
      <trkpt lat="43.4006880" lon="-3.9824690">
        <ele>96.4</ele>
        <time>2021-07-17T09:12:21Z</time>
      </trkpt>
      <trkpt lat="43.4006900" lon="-3.9824870">
        <ele>96.8</ele>
        <time>2021-07-17T09:12:22Z</time>
      </trkpt>
      <trkpt lat="43.4006940" lon="-3.9825030">
        <ele>97.4</ele>
        <time>2021-07-17T09:12:23Z</time>
      </trkpt>
      <trkpt lat="43.4007280" lon="-3.9826290">
        <ele>97.4</ele>
        <time>2021-07-17T09:12:30Z</time>
      </trkpt>
      <trkpt lat="43.4007520" lon="-3.9828160">
        <ele>97.4</ele>
        <time>2021-07-17T09:12:37Z</time>
      </trkpt>
      <trkpt lat="43.4006660" lon="-3.9830210">
        <ele>97.4</ele>
        <time>2021-07-17T09:12:43Z</time>
      </trkpt>
      <trkpt lat="43.4005700" lon="-3.9832650">
        <ele>97.4</ele>
        <time>2021-07-17T09:12:49Z</time>
      </trkpt>
      <trkpt lat="43.4005290" lon="-3.9833590">
        <ele>97.8</ele>
        <time>2021-07-17T09:12:51Z</time>
      </trkpt>
      <trkpt lat="43.4005070" lon="-3.9834040">
        <ele>98.2</ele>
        <time>2021-07-17T09:12:52Z</time>
      </trkpt>
      <trkpt lat="43.4004840" lon="-3.9834460">
        <ele>98.6</ele>
        <time>2021-07-17T09:12:53Z</time>
      </trkpt>
      <trkpt lat="43.4004610" lon="-3.9834890">
        <ele>99.0</ele>
        <time>2021-07-17T09:12:54Z</time>
      </trkpt>
      <trkpt lat="43.4004400" lon="-3.9835290">
        <ele>99.4</ele>
        <time>2021-07-17T09:12:55Z</time>
      </trkpt>
      <trkpt lat="43.4003780" lon="-3.9836460">
        <ele>99.4</ele>
        <time>2021-07-17T09:12:58Z</time>
      </trkpt>
      <trkpt lat="43.4003200" lon="-3.9837730">
        <ele>99.4</ele>
        <time>2021-07-17T09:13:01Z</time>
      </trkpt>
      <trkpt lat="43.4002630" lon="-3.9838920">
        <ele>99.4</ele>
        <time>2021-07-17T09:13:04Z</time>
      </trkpt>
      <trkpt lat="43.4002300" lon="-3.9839690">
        <ele>99.4</ele>
        <time>2021-07-17T09:13:06Z</time>
      </trkpt>
      <trkpt lat="43.4002010" lon="-3.9840460">
        <ele>99.4</ele>
        <time>2021-07-17T09:13:08Z</time>
      </trkpt>
      <trkpt lat="43.4001540" lon="-3.9841720">
        <ele>99.4</ele>
        <time>2021-07-17T09:13:11Z</time>
      </trkpt>
      <trkpt lat="43.4001120" lon="-3.9843130">
        <ele>99.4</ele>
        <time>2021-07-17T09:13:14Z</time>
      </trkpt>
      <trkpt lat="43.4000680" lon="-3.9845220">
        <ele>99.4</ele>
        <time>2021-07-17T09:13:18Z</time>
      </trkpt>
      <trkpt lat="43.4000430" lon="-3.9846310">
        <ele>99.4</ele>
        <time>2021-07-17T09:13:20Z</time>
      </trkpt>
      <trkpt lat="43.4000030" lon="-3.9848600">
        <ele>99.4</ele>
        <time>2021-07-17T09:13:24Z</time>
      </trkpt>
      <trkpt lat="43.3999640" lon="-3.9850440">
        <ele>99.4</ele>
        <time>2021-07-17T09:13:27Z</time>
      </trkpt>
      <trkpt lat="43.3999250" lon="-3.9852740">
        <ele>99.4</ele>
        <time>2021-07-17T09:13:31Z</time>
      </trkpt>
      <trkpt lat="43.3998670" lon="-3.9856480">
        <ele>99.4</ele>
        <time>2021-07-17T09:13:38Z</time>
      </trkpt>
      <trkpt lat="43.3998100" lon="-3.9859950">
        <ele>99.4</ele>
        <time>2021-07-17T09:13:44Z</time>
      </trkpt>
      <trkpt lat="43.3997900" lon="-3.9861140">
        <ele>99.4</ele>
        <time>2021-07-17T09:13:46Z</time>
      </trkpt>
      <trkpt lat="43.3997210" lon="-3.9865090">
        <ele>99.4</ele>
        <time>2021-07-17T09:13:53Z</time>
      </trkpt>
      <trkpt lat="43.3995810" lon="-3.9868950">
        <ele>99.4</ele>
        <time>2021-07-17T09:14:00Z</time>
      </trkpt>
      <trkpt lat="43.3994830" lon="-3.9871030">
        <ele>99.4</ele>
        <time>2021-07-17T09:14:04Z</time>
      </trkpt>
      <trkpt lat="43.3994400" lon="-3.9871980">
        <ele>99.4</ele>
        <time>2021-07-17T09:14:06Z</time>
      </trkpt>
      <trkpt lat="43.3994170" lon="-3.9872420">
        <ele>99.4</ele>
        <time>2021-07-17T09:14:07Z</time>
      </trkpt>
      <trkpt lat="43.3993150" lon="-3.9875070">
        <ele>99.4</ele>
        <time>2021-07-17T09:14:13Z</time>
      </trkpt>
      <trkpt lat="43.3993680" lon="-3.9876700">
        <ele>99.4</ele>
        <time>2021-07-17T09:14:17Z</time>
      </trkpt>
      <trkpt lat="43.3995140" lon="-3.9877590">
        <ele>99.4</ele>
        <time>2021-07-17T09:14:22Z</time>
      </trkpt>
      <trkpt lat="43.3996170" lon="-3.9878720">
        <ele>99.4</ele>
        <time>2021-07-17T09:14:26Z</time>
      </trkpt>
      <trkpt lat="43.3996650" lon="-3.9879310">
        <ele>99.4</ele>
        <time>2021-07-17T09:14:28Z</time>
      </trkpt>
      <trkpt lat="43.3996900" lon="-3.9879640">
        <ele>99.4</ele>
        <time>2021-07-17T09:14:29Z</time>
      </trkpt>
      <trkpt lat="43.3998530" lon="-3.9881620">
        <ele>99.4</ele>
        <time>2021-07-17T09:14:36Z</time>
      </trkpt>
      <trkpt lat="43.3999940" lon="-3.9883680">
        <ele>99.4</ele>
        <time>2021-07-17T09:14:43Z</time>
      </trkpt>
      <trkpt lat="43.4000380" lon="-3.9884440">
        <ele>99.0</ele>
        <time>2021-07-17T09:14:45Z</time>
      </trkpt>
      <trkpt lat="43.4000590" lon="-3.9884840">
        <ele>98.6</ele>
        <time>2021-07-17T09:14:46Z</time>
      </trkpt>
      <trkpt lat="43.4000800" lon="-3.9885250">
        <ele>98.2</ele>
        <time>2021-07-17T09:14:47Z</time>
      </trkpt>
      <trkpt lat="43.4001010" lon="-3.9885670">
        <ele>97.6</ele>
        <time>2021-07-17T09:14:48Z</time>
      </trkpt>
      <trkpt lat="43.4001220" lon="-3.9886110">
        <ele>97.2</ele>
        <time>2021-07-17T09:14:49Z</time>
      </trkpt>
      <trkpt lat="43.4001580" lon="-3.9887110">
        <ele>96.8</ele>
        <time>2021-07-17T09:14:51Z</time>
      </trkpt>
      <trkpt lat="43.4001720" lon="-3.9887600">
        <ele>96.4</ele>
        <time>2021-07-17T09:14:52Z</time>
      </trkpt>
      <trkpt lat="43.4001870" lon="-3.9888100">
        <ele>96.0</ele>
        <time>2021-07-17T09:14:53Z</time>
      </trkpt>
      <trkpt lat="43.4002000" lon="-3.9888620">
        <ele>95.4</ele>
        <time>2021-07-17T09:14:54Z</time>
      </trkpt>
      <trkpt lat="43.4002120" lon="-3.9889130">
        <ele>95.0</ele>
        <time>2021-07-17T09:14:55Z</time>
      </trkpt>
      <trkpt lat="43.4002230" lon="-3.9889700">
        <ele>94.4</ele>
        <time>2021-07-17T09:14:56Z</time>
      </trkpt>
      <trkpt lat="43.4002330" lon="-3.9890310">
        <ele>93.8</ele>
        <time>2021-07-17T09:14:57Z</time>
      </trkpt>
      <trkpt lat="43.4002400" lon="-3.9890970">
        <ele>93.4</ele>
        <time>2021-07-17T09:14:58Z</time>
      </trkpt>
      <trkpt lat="43.4002430" lon="-3.9891670">
        <ele>92.8</ele>
        <time>2021-07-17T09:14:59Z</time>
      </trkpt>
      <trkpt lat="43.4002460" lon="-3.9892380">
        <ele>92.0</ele>
        <time>2021-07-17T09:15:00Z</time>
      </trkpt>
      <trkpt lat="43.4002430" lon="-3.9893050">
        <ele>91.6</ele>
        <time>2021-07-17T09:15:01Z</time>
      </trkpt>
      <trkpt lat="43.4002360" lon="-3.9893670">
        <ele>91.2</ele>
        <time>2021-07-17T09:15:02Z</time>
      </trkpt>
      <trkpt lat="43.4002310" lon="-3.9894300">
        <ele>90.8</ele>
        <time>2021-07-17T09:15:03Z</time>
      </trkpt>
      <trkpt lat="43.4002200" lon="-3.9895660">
        <ele>90.8</ele>
        <time>2021-07-17T09:15:05Z</time>
      </trkpt>
      <trkpt lat="43.4002170" lon="-3.9896350">
        <ele>90.2</ele>
        <time>2021-07-17T09:15:06Z</time>
      </trkpt>
      <trkpt lat="43.4002160" lon="-3.9897070">
        <ele>89.8</ele>
        <time>2021-07-17T09:15:07Z</time>
      </trkpt>
      <trkpt lat="43.4002140" lon="-3.9897730">
        <ele>89.4</ele>
        <time>2021-07-17T09:15:08Z</time>
      </trkpt>
      <trkpt lat="43.4002130" lon="-3.9898340">
        <ele>88.8</ele>
        <time>2021-07-17T09:15:09Z</time>
      </trkpt>
      <trkpt lat="43.4002130" lon="-3.9898910">
        <ele>88.4</ele>
        <time>2021-07-17T09:15:10Z</time>
      </trkpt>
      <trkpt lat="43.4002200" lon="-3.9899930">
        <ele>88.0</ele>
        <time>2021-07-17T09:15:12Z</time>
      </trkpt>
      <trkpt lat="43.4002260" lon="-3.9900430">
        <ele>87.4</ele>
        <time>2021-07-17T09:15:13Z</time>
      </trkpt>
      <trkpt lat="43.4002350" lon="-3.9900970">
        <ele>87.0</ele>
        <time>2021-07-17T09:15:14Z</time>
      </trkpt>
      <trkpt lat="43.4002470" lon="-3.9901580">
        <ele>86.6</ele>
        <time>2021-07-17T09:15:15Z</time>
      </trkpt>
      <trkpt lat="43.4002640" lon="-3.9902210">
        <ele>86.0</ele>
        <time>2021-07-17T09:15:16Z</time>
      </trkpt>
      <trkpt lat="43.4002830" lon="-3.9902830">
        <ele>86.0</ele>
        <time>2021-07-17T09:15:17Z</time>
      </trkpt>
      <trkpt lat="43.4003040" lon="-3.9903420">
        <ele>85.6</ele>
        <time>2021-07-17T09:15:18Z</time>
      </trkpt>
      <trkpt lat="43.4003250" lon="-3.9903990">
        <ele>85.2</ele>
        <time>2021-07-17T09:15:19Z</time>
      </trkpt>
      <trkpt lat="43.4003410" lon="-3.9904530">
        <ele>84.6</ele>
        <time>2021-07-17T09:15:20Z</time>
      </trkpt>
      <trkpt lat="43.4003530" lon="-3.9905080">
        <ele>84.0</ele>
        <time>2021-07-17T09:15:21Z</time>
      </trkpt>
      <trkpt lat="43.4003610" lon="-3.9905700">
        <ele>83.2</ele>
        <time>2021-07-17T09:15:22Z</time>
      </trkpt>
      <trkpt lat="43.4003670" lon="-3.9906290">
        <ele>82.6</ele>
        <time>2021-07-17T09:15:23Z</time>
      </trkpt>
      <trkpt lat="43.4003690" lon="-3.9906860">
        <ele>81.2</ele>
        <time>2021-07-17T09:15:24Z</time>
      </trkpt>
      <trkpt lat="43.4003700" lon="-3.9907410">
        <ele>80.6</ele>
        <time>2021-07-17T09:15:25Z</time>
      </trkpt>
      <trkpt lat="43.4003700" lon="-3.9907980">
        <ele>79.8</ele>
        <time>2021-07-17T09:15:26Z</time>
      </trkpt>
      <trkpt lat="43.4003710" lon="-3.9908560">
        <ele>79.2</ele>
        <time>2021-07-17T09:15:27Z</time>
      </trkpt>
      <trkpt lat="43.4003700" lon="-3.9909120">
        <ele>78.6</ele>
        <time>2021-07-17T09:15:28Z</time>
      </trkpt>
      <trkpt lat="43.4003690" lon="-3.9909660">
        <ele>78.0</ele>
        <time>2021-07-17T09:15:29Z</time>
      </trkpt>
      <trkpt lat="43.4003640" lon="-3.9910220">
        <ele>77.4</ele>
        <time>2021-07-17T09:15:30Z</time>
      </trkpt>
      <trkpt lat="43.4003550" lon="-3.9910750">
        <ele>76.8</ele>
        <time>2021-07-17T09:15:31Z</time>
      </trkpt>
      <trkpt lat="43.4003430" lon="-3.9911320">
        <ele>76.2</ele>
        <time>2021-07-17T09:15:32Z</time>
      </trkpt>
      <trkpt lat="43.4003250" lon="-3.9911900">
        <ele>75.6</ele>
        <time>2021-07-17T09:15:33Z</time>
      </trkpt>
      <trkpt lat="43.4003040" lon="-3.9912460">
        <ele>75.0</ele>
        <time>2021-07-17T09:15:34Z</time>
      </trkpt>
      <trkpt lat="43.4002820" lon="-3.9912990">
        <ele>74.4</ele>
        <time>2021-07-17T09:15:35Z</time>
      </trkpt>
      <trkpt lat="43.4002570" lon="-3.9913480">
        <ele>73.8</ele>
        <time>2021-07-17T09:15:36Z</time>
      </trkpt>
      <trkpt lat="43.4002340" lon="-3.9913970">
        <ele>73.4</ele>
        <time>2021-07-17T09:15:37Z</time>
      </trkpt>
      <trkpt lat="43.4002170" lon="-3.9914400">
        <ele>72.8</ele>
        <time>2021-07-17T09:15:38Z</time>
      </trkpt>
      <trkpt lat="43.4002020" lon="-3.9914820">
        <ele>72.4</ele>
        <time>2021-07-17T09:15:39Z</time>
      </trkpt>
      <trkpt lat="43.4001910" lon="-3.9915230">
        <ele>71.8</ele>
        <time>2021-07-17T09:15:40Z</time>
      </trkpt>
      <trkpt lat="43.4001820" lon="-3.9915630">
        <ele>71.2</ele>
        <time>2021-07-17T09:15:41Z</time>
      </trkpt>
      <trkpt lat="43.4001760" lon="-3.9916060">
        <ele>70.6</ele>
        <time>2021-07-17T09:15:42Z</time>
      </trkpt>
      <trkpt lat="43.4001730" lon="-3.9916490">
        <ele>69.8</ele>
        <time>2021-07-17T09:15:43Z</time>
      </trkpt>
      <trkpt lat="43.4001760" lon="-3.9916980">
        <ele>69.2</ele>
        <time>2021-07-17T09:15:44Z</time>
      </trkpt>
      <trkpt lat="43.4001840" lon="-3.9917470">
        <ele>68.6</ele>
        <time>2021-07-17T09:15:45Z</time>
      </trkpt>
      <trkpt lat="43.4001980" lon="-3.9917980">
        <ele>67.8</ele>
        <time>2021-07-17T09:15:46Z</time>
      </trkpt>
      <trkpt lat="43.4002170" lon="-3.9918500">
        <ele>67.2</ele>
        <time>2021-07-17T09:15:47Z</time>
      </trkpt>
      <trkpt lat="43.4002400" lon="-3.9918960">
        <ele>66.2</ele>
        <time>2021-07-17T09:15:48Z</time>
      </trkpt>
      <trkpt lat="43.4002690" lon="-3.9919410">
        <ele>65.6</ele>
        <time>2021-07-17T09:15:49Z</time>
      </trkpt>
      <trkpt lat="43.4003020" lon="-3.9919860">
        <ele>65.0</ele>
        <time>2021-07-17T09:15:50Z</time>
      </trkpt>
      <trkpt lat="43.4003350" lon="-3.9920280">
        <ele>64.4</ele>
        <time>2021-07-17T09:15:51Z</time>
      </trkpt>
      <trkpt lat="43.4003690" lon="-3.9920710">
        <ele>63.8</ele>
        <time>2021-07-17T09:15:52Z</time>
      </trkpt>
      <trkpt lat="43.4004020" lon="-3.9921090">
        <ele>63.0</ele>
        <time>2021-07-17T09:15:53Z</time>
      </trkpt>
      <trkpt lat="43.4004350" lon="-3.9921460">
        <ele>62.4</ele>
        <time>2021-07-17T09:15:54Z</time>
      </trkpt>
      <trkpt lat="43.4004740" lon="-3.9921820">
        <ele>61.6</ele>
        <time>2021-07-17T09:15:55Z</time>
      </trkpt>
      <trkpt lat="43.4005100" lon="-3.9922120">
        <ele>61.0</ele>
        <time>2021-07-17T09:15:56Z</time>
      </trkpt>
      <trkpt lat="43.4005490" lon="-3.9922320">
        <ele>60.2</ele>
        <time>2021-07-17T09:15:57Z</time>
      </trkpt>
      <trkpt lat="43.4005920" lon="-3.9922470">
        <ele>59.4</ele>
        <time>2021-07-17T09:15:58Z</time>
      </trkpt>
      <trkpt lat="43.4006380" lon="-3.9922560">
        <ele>58.6</ele>
        <time>2021-07-17T09:15:59Z</time>
      </trkpt>
      <trkpt lat="43.4006830" lon="-3.9922580">
        <ele>58.0</ele>
        <time>2021-07-17T09:16:00Z</time>
      </trkpt>
      <trkpt lat="43.4007280" lon="-3.9922540">
        <ele>57.4</ele>
        <time>2021-07-17T09:16:01Z</time>
      </trkpt>
      <trkpt lat="43.4007750" lon="-3.9922450">
        <ele>56.8</ele>
        <time>2021-07-17T09:16:02Z</time>
      </trkpt>
      <trkpt lat="43.4008220" lon="-3.9922240">
        <ele>56.2</ele>
        <time>2021-07-17T09:16:03Z</time>
      </trkpt>
      <trkpt lat="43.4008670" lon="-3.9921970">
        <ele>55.4</ele>
        <time>2021-07-17T09:16:04Z</time>
      </trkpt>
      <trkpt lat="43.4009120" lon="-3.9921670">
        <ele>54.8</ele>
        <time>2021-07-17T09:16:05Z</time>
      </trkpt>
      <trkpt lat="43.4009540" lon="-3.9921400">
        <ele>54.2</ele>
        <time>2021-07-17T09:16:06Z</time>
      </trkpt>
      <trkpt lat="43.4009940" lon="-3.9921150">
        <ele>53.4</ele>
        <time>2021-07-17T09:16:07Z</time>
      </trkpt>
      <trkpt lat="43.4010290" lon="-3.9920910">
        <ele>52.8</ele>
        <time>2021-07-17T09:16:08Z</time>
      </trkpt>
      <trkpt lat="43.4010570" lon="-3.9920780">
        <ele>52.0</ele>
        <time>2021-07-17T09:16:09Z</time>
      </trkpt>
      <trkpt lat="43.4010810" lon="-3.9920680">
        <ele>51.4</ele>
        <time>2021-07-17T09:16:10Z</time>
      </trkpt>
      <trkpt lat="43.4010990" lon="-3.9920680">
        <ele>50.8</ele>
        <time>2021-07-17T09:16:11Z</time>
      </trkpt>
      <trkpt lat="43.4011170" lon="-3.9920820">
        <ele>50.2</ele>
        <time>2021-07-17T09:16:12Z</time>
      </trkpt>
      <trkpt lat="43.4011340" lon="-3.9921020">
        <ele>49.0</ele>
        <time>2021-07-17T09:16:13Z</time>
      </trkpt>
      <trkpt lat="43.4011410" lon="-3.9922060">
        <ele>48.4</ele>
        <time>2021-07-17T09:16:17Z</time>
      </trkpt>
      <trkpt lat="43.4011170" lon="-3.9922460">
        <ele>48.0</ele>
        <time>2021-07-17T09:16:18Z</time>
      </trkpt>
      <trkpt lat="43.4010900" lon="-3.9922830">
        <ele>47.6</ele>
        <time>2021-07-17T09:16:19Z</time>
      </trkpt>
      <trkpt lat="43.4010690" lon="-3.9923200">
        <ele>47.2</ele>
        <time>2021-07-17T09:16:20Z</time>
      </trkpt>
      <trkpt lat="43.4010480" lon="-3.9923590">
        <ele>46.8</ele>
        <time>2021-07-17T09:16:21Z</time>
      </trkpt>
      <trkpt lat="43.4010250" lon="-3.9923990">
        <ele>46.8</ele>
        <time>2021-07-17T09:16:22Z</time>
      </trkpt>
      <trkpt lat="43.4009550" lon="-3.9925100">
        <ele>46.8</ele>
        <time>2021-07-17T09:16:25Z</time>
      </trkpt>
      <trkpt lat="43.4008810" lon="-3.9926440">
        <ele>46.8</ele>
        <time>2021-07-17T09:16:28Z</time>
      </trkpt>
      <trkpt lat="43.4008180" lon="-3.9927980">
        <ele>46.4</ele>
        <time>2021-07-17T09:16:31Z</time>
      </trkpt>
      <trkpt lat="43.4007960" lon="-3.9928540">
        <ele>46.0</ele>
        <time>2021-07-17T09:16:32Z</time>
      </trkpt>
      <trkpt lat="43.4007740" lon="-3.9929140">
        <ele>45.4</ele>
        <time>2021-07-17T09:16:33Z</time>
      </trkpt>
      <trkpt lat="43.4007540" lon="-3.9929770">
        <ele>45.0</ele>
        <time>2021-07-17T09:16:34Z</time>
      </trkpt>
      <trkpt lat="43.4007320" lon="-3.9930420">
        <ele>44.6</ele>
        <time>2021-07-17T09:16:35Z</time>
      </trkpt>
      <trkpt lat="43.4007060" lon="-3.9931090">
        <ele>44.2</ele>
        <time>2021-07-17T09:16:36Z</time>
      </trkpt>
      <trkpt lat="43.4006820" lon="-3.9931730">
        <ele>43.6</ele>
        <time>2021-07-17T09:16:37Z</time>
      </trkpt>
      <trkpt lat="43.4006520" lon="-3.9932430">
        <ele>42.8</ele>
        <time>2021-07-17T09:16:38Z</time>
      </trkpt>
      <trkpt lat="43.4006280" lon="-3.9933100">
        <ele>42.2</ele>
        <time>2021-07-17T09:16:39Z</time>
      </trkpt>
      <trkpt lat="43.4006010" lon="-3.9933780">
        <ele>41.6</ele>
        <time>2021-07-17T09:16:40Z</time>
      </trkpt>
      <trkpt lat="43.4005710" lon="-3.9934460">
        <ele>41.2</ele>
        <time>2021-07-17T09:16:41Z</time>
      </trkpt>
      <trkpt lat="43.4005350" lon="-3.9935060">
        <ele>40.6</ele>
        <time>2021-07-17T09:16:42Z</time>
      </trkpt>
      <trkpt lat="43.4004970" lon="-3.9935560">
        <ele>39.8</ele>
        <time>2021-07-17T09:16:43Z</time>
      </trkpt>
      <trkpt lat="43.4004560" lon="-3.9935950">
        <ele>39.2</ele>
        <time>2021-07-17T09:16:44Z</time>
      </trkpt>
      <trkpt lat="43.4004190" lon="-3.9936270">
        <ele>38.6</ele>
        <time>2021-07-17T09:16:45Z</time>
      </trkpt>
      <trkpt lat="43.4003890" lon="-3.9936520">
        <ele>37.8</ele>
        <time>2021-07-17T09:16:46Z</time>
      </trkpt>
      <trkpt lat="43.4003630" lon="-3.9936740">
        <ele>37.2</ele>
        <time>2021-07-17T09:16:47Z</time>
      </trkpt>
      <trkpt lat="43.4003140" lon="-3.9937080">
        <ele>36.8</ele>
        <time>2021-07-17T09:16:49Z</time>
      </trkpt>
      <trkpt lat="43.4002840" lon="-3.9937180">
        <ele>36.4</ele>
        <time>2021-07-17T09:16:50Z</time>
      </trkpt>
      <trkpt lat="43.4002570" lon="-3.9937220">
        <ele>35.8</ele>
        <time>2021-07-17T09:16:51Z</time>
      </trkpt>
      <trkpt lat="43.4002370" lon="-3.9937240">
        <ele>35.4</ele>
        <time>2021-07-17T09:16:52Z</time>
      </trkpt>
      <trkpt lat="43.4002180" lon="-3.9937230">
        <ele>35.0</ele>
        <time>2021-07-17T09:16:53Z</time>
      </trkpt>
      <trkpt lat="43.4001800" lon="-3.9937270">
        <ele>35.0</ele>
        <time>2021-07-17T09:16:55Z</time>
      </trkpt>
      <trkpt lat="43.4001420" lon="-3.9937380">
        <ele>35.0</ele>
        <time>2021-07-17T09:16:57Z</time>
      </trkpt>
      <trkpt lat="43.4001110" lon="-3.9937690">
        <ele>35.0</ele>
        <time>2021-07-17T09:16:59Z</time>
      </trkpt>
      <trkpt lat="43.4000950" lon="-3.9938150">
        <ele>35.0</ele>
        <time>2021-07-17T09:17:01Z</time>
      </trkpt>
      <trkpt lat="43.4000720" lon="-3.9938840">
        <ele>35.0</ele>
        <time>2021-07-17T09:17:04Z</time>
      </trkpt>
      <trkpt lat="43.4000660" lon="-3.9939080">
        <ele>35.0</ele>
        <time>2021-07-17T09:17:05Z</time>
      </trkpt>
      <trkpt lat="43.4000510" lon="-3.9939730">
        <ele>35.0</ele>
        <time>2021-07-17T09:17:08Z</time>
      </trkpt>
      <trkpt lat="43.4000410" lon="-3.9940120">
        <ele>35.0</ele>
        <time>2021-07-17T09:17:10Z</time>
      </trkpt>
      <trkpt lat="43.4000390" lon="-3.9940310">
        <ele>35.4</ele>
        <time>2021-07-17T09:17:11Z</time>
      </trkpt>
      <trkpt lat="43.4000340" lon="-3.9940490">
        <ele>35.8</ele>
        <time>2021-07-17T09:17:12Z</time>
      </trkpt>
      <trkpt lat="43.4000270" lon="-3.9940660">
        <ele>36.2</ele>
        <time>2021-07-17T09:17:13Z</time>
      </trkpt>
      <trkpt lat="43.4000190" lon="-3.9940860">
        <ele>36.6</ele>
        <time>2021-07-17T09:17:14Z</time>
      </trkpt>
      <trkpt lat="43.4000110" lon="-3.9941050">
        <ele>37.2</ele>
        <time>2021-07-17T09:17:15Z</time>
      </trkpt>
      <trkpt lat="43.3999850" lon="-3.9941610">
        <ele>37.2</ele>
        <time>2021-07-17T09:17:18Z</time>
      </trkpt>
      <trkpt lat="43.3999550" lon="-3.9942180">
        <ele>37.6</ele>
        <time>2021-07-17T09:17:21Z</time>
      </trkpt>
      <trkpt lat="43.3999430" lon="-3.9942390">
        <ele>38.0</ele>
        <time>2021-07-17T09:17:22Z</time>
      </trkpt>
      <trkpt lat="43.3999330" lon="-3.9942610">
        <ele>38.4</ele>
        <time>2021-07-17T09:17:23Z</time>
      </trkpt>
      <trkpt lat="43.3999260" lon="-3.9942790">
        <ele>38.8</ele>
        <time>2021-07-17T09:17:24Z</time>
      </trkpt>
      <trkpt lat="43.3999170" lon="-3.9942940">
        <ele>39.2</ele>
        <time>2021-07-17T09:17:25Z</time>
      </trkpt>
      <trkpt lat="43.3998950" lon="-3.9943310">
        <ele>39.2</ele>
        <time>2021-07-17T09:17:27Z</time>
      </trkpt>
      <trkpt lat="43.3998250" lon="-3.9943800">
        <ele>39.2</ele>
        <time>2021-07-17T09:17:31Z</time>
      </trkpt>
      <trkpt lat="43.3997520" lon="-3.9944060">
        <ele>39.2</ele>
        <time>2021-07-17T09:17:34Z</time>
      </trkpt>
      <trkpt lat="43.3997290" lon="-3.9944110">
        <ele>39.6</ele>
        <time>2021-07-17T09:17:35Z</time>
      </trkpt>
      <trkpt lat="43.3997060" lon="-3.9944160">
        <ele>40.0</ele>
        <time>2021-07-17T09:17:36Z</time>
      </trkpt>
      <trkpt lat="43.3996820" lon="-3.9944250">
        <ele>40.4</ele>
        <time>2021-07-17T09:17:37Z</time>
      </trkpt>
      <trkpt lat="43.3996570" lon="-3.9944340">
        <ele>40.8</ele>
        <time>2021-07-17T09:17:38Z</time>
      </trkpt>
      <trkpt lat="43.3996300" lon="-3.9944440">
        <ele>41.2</ele>
        <time>2021-07-17T09:17:39Z</time>
      </trkpt>
      <trkpt lat="43.3995520" lon="-3.9944640">
        <ele>41.2</ele>
        <time>2021-07-17T09:17:42Z</time>
      </trkpt>
      <trkpt lat="43.3994080" lon="-3.9945270">
        <ele>41.2</ele>
        <time>2021-07-17T09:17:49Z</time>
      </trkpt>
      <trkpt lat="43.3993630" lon="-3.9945460">
        <ele>41.2</ele>
        <time>2021-07-17T09:17:53Z</time>
      </trkpt>
      <trkpt lat="43.3992390" lon="-3.9945840">
        <ele>43.4</ele>
        <time>2021-07-17T09:18:05Z</time>
      </trkpt>
      <trkpt lat="43.3991160" lon="-3.9946170">
        <ele>43.4</ele>
        <time>2021-07-17T09:18:14Z</time>
      </trkpt>
      <trkpt lat="43.3990650" lon="-3.9946200">
        <ele>43.8</ele>
        <time>2021-07-17T09:18:18Z</time>
      </trkpt>
      <trkpt lat="43.3990520" lon="-3.9946210">
        <ele>44.2</ele>
        <time>2021-07-17T09:18:19Z</time>
      </trkpt>
      <trkpt lat="43.3990380" lon="-3.9946230">
        <ele>44.6</ele>
        <time>2021-07-17T09:18:20Z</time>
      </trkpt>
      <trkpt lat="43.3990230" lon="-3.9946250">
        <ele>45.0</ele>
        <time>2021-07-17T09:18:21Z</time>
      </trkpt>
      <trkpt lat="43.3990080" lon="-3.9946300">
        <ele>45.4</ele>
        <time>2021-07-17T09:18:22Z</time>
      </trkpt>
      <trkpt lat="43.3989240" lon="-3.9946320">
        <ele>45.4</ele>
        <time>2021-07-17T09:18:29Z</time>
      </trkpt>
      <trkpt lat="43.3988650" lon="-3.9946140">
        <ele>45.8</ele>
        <time>2021-07-17T09:18:35Z</time>
      </trkpt>
      <trkpt lat="43.3988560" lon="-3.9946130">
        <ele>46.2</ele>
        <time>2021-07-17T09:18:36Z</time>
      </trkpt>
      <trkpt lat="43.3988450" lon="-3.9946110">
        <ele>46.6</ele>
        <time>2021-07-17T09:18:37Z</time>
      </trkpt>
      <trkpt lat="43.3988350" lon="-3.9946090">
        <ele>47.2</ele>
        <time>2021-07-17T09:18:38Z</time>
      </trkpt>
      <trkpt lat="43.3988270" lon="-3.9946040">
        <ele>47.6</ele>
        <time>2021-07-17T09:18:39Z</time>
      </trkpt>
      <trkpt lat="43.3988190" lon="-3.9945970">
        <ele>47.6</ele>
        <time>2021-07-17T09:18:40Z</time>
      </trkpt>
      <trkpt lat="43.3987780" lon="-3.9945790">
        <ele>47.6</ele>
        <time>2021-07-17T09:18:44Z</time>
      </trkpt>
      <trkpt lat="43.3987770" lon="-3.9945780">
        <ele>47.6</ele>
        <time>2021-07-17T09:18:45Z</time>
      </trkpt>
      <trkpt lat="43.3987540" lon="-3.9945600">
        <ele>47.6</ele>
        <time>2021-07-17T09:18:54Z</time>
      </trkpt>
      <trkpt lat="43.3987410" lon="-3.9945500">
        <ele>47.6</ele>
        <time>2021-07-17T09:18:55Z</time>
      </trkpt>
      <trkpt lat="43.3987320" lon="-3.9945390">
        <ele>47.6</ele>
        <time>2021-07-17T09:18:56Z</time>
      </trkpt>
      <trkpt lat="43.3986990" lon="-3.9945030">
        <ele>48.0</ele>
        <time>2021-07-17T09:18:59Z</time>
      </trkpt>
      <trkpt lat="43.3986870" lon="-3.9944910">
        <ele>48.4</ele>
        <time>2021-07-17T09:19:00Z</time>
      </trkpt>
      <trkpt lat="43.3986750" lon="-3.9944740">
        <ele>48.8</ele>
        <time>2021-07-17T09:19:01Z</time>
      </trkpt>
      <trkpt lat="43.3986620" lon="-3.9944580">
        <ele>49.2</ele>
        <time>2021-07-17T09:19:02Z</time>
      </trkpt>
      <trkpt lat="43.3986460" lon="-3.9944390">
        <ele>49.6</ele>
        <time>2021-07-17T09:19:03Z</time>
      </trkpt>
      <trkpt lat="43.3984970" lon="-3.9943000">
        <ele>49.6</ele>
        <time>2021-07-17T09:19:11Z</time>
      </trkpt>
      <trkpt lat="43.3983680" lon="-3.9941320">
        <ele>49.6</ele>
        <time>2021-07-17T09:19:18Z</time>
      </trkpt>
      <trkpt lat="43.3982540" lon="-3.9939250">
        <ele>49.6</ele>
        <time>2021-07-17T09:19:24Z</time>
      </trkpt>
      <trkpt lat="43.3980870" lon="-3.9937890">
        <ele>49.6</ele>
        <time>2021-07-17T09:19:30Z</time>
      </trkpt>
      <trkpt lat="43.3979190" lon="-3.9937480">
        <ele>49.6</ele>
        <time>2021-07-17T09:19:35Z</time>
      </trkpt>
      <trkpt lat="43.3978520" lon="-3.9937490">
        <ele>49.6</ele>
        <time>2021-07-17T09:19:37Z</time>
      </trkpt>
      <trkpt lat="43.3977360" lon="-3.9938060">
        <ele>49.6</ele>
        <time>2021-07-17T09:19:41Z</time>
      </trkpt>
      <trkpt lat="43.3977090" lon="-3.9938170">
        <ele>49.6</ele>
        <time>2021-07-17T09:19:42Z</time>
      </trkpt>
      <trkpt lat="43.3975570" lon="-3.9938480">
        <ele>49.6</ele>
        <time>2021-07-17T09:19:48Z</time>
      </trkpt>
      <trkpt lat="43.3975340" lon="-3.9938490">
        <ele>50.0</ele>
        <time>2021-07-17T09:19:49Z</time>
      </trkpt>
      <trkpt lat="43.3975150" lon="-3.9938450">
        <ele>50.4</ele>
        <time>2021-07-17T09:19:50Z</time>
      </trkpt>
      <trkpt lat="43.3974930" lon="-3.9938420">
        <ele>50.8</ele>
        <time>2021-07-17T09:19:51Z</time>
      </trkpt>
      <trkpt lat="43.3974730" lon="-3.9938380">
        <ele>51.2</ele>
        <time>2021-07-17T09:19:52Z</time>
      </trkpt>
      <trkpt lat="43.3974560" lon="-3.9938290">
        <ele>51.6</ele>
        <time>2021-07-17T09:19:53Z</time>
      </trkpt>
      <trkpt lat="43.3974380" lon="-3.9938190">
        <ele>51.6</ele>
        <time>2021-07-17T09:19:54Z</time>
      </trkpt>
      <trkpt lat="43.3974040" lon="-3.9937940">
        <ele>52.4</ele>
        <time>2021-07-17T09:19:56Z</time>
      </trkpt>
      <trkpt lat="43.3973870" lon="-3.9937830">
        <ele>53.0</ele>
        <time>2021-07-17T09:19:57Z</time>
      </trkpt>
      <trkpt lat="43.3973670" lon="-3.9937750">
        <ele>53.4</ele>
        <time>2021-07-17T09:19:58Z</time>
      </trkpt>
      <trkpt lat="43.3973480" lon="-3.9937680">
        <ele>53.8</ele>
        <time>2021-07-17T09:19:59Z</time>
      </trkpt>
      <trkpt lat="43.3973010" lon="-3.9937370">
        <ele>53.8</ele>
        <time>2021-07-17T09:20:02Z</time>
      </trkpt>
      <trkpt lat="43.3972850" lon="-3.9937310">
        <ele>53.8</ele>
        <time>2021-07-17T09:20:03Z</time>
      </trkpt>
      <trkpt lat="43.3972070" lon="-3.9937560">
        <ele>53.8</ele>
        <time>2021-07-17T09:20:07Z</time>
      </trkpt>
      <trkpt lat="43.3971240" lon="-3.9939180">
        <ele>53.8</ele>
        <time>2021-07-17T09:20:12Z</time>
      </trkpt>
      <trkpt lat="43.3969570" lon="-3.9942240">
        <ele>53.8</ele>
        <time>2021-07-17T09:20:19Z</time>
      </trkpt>
      <trkpt lat="43.3967580" lon="-3.9945230">
        <ele>53.8</ele>
        <time>2021-07-17T09:20:24Z</time>
      </trkpt>
      <trkpt lat="43.3967110" lon="-3.9945980">
        <ele>53.4</ele>
        <time>2021-07-17T09:20:25Z</time>
      </trkpt>
      <trkpt lat="43.3966640" lon="-3.9946770">
        <ele>53.0</ele>
        <time>2021-07-17T09:20:26Z</time>
      </trkpt>
      <trkpt lat="43.3966180" lon="-3.9947640">
        <ele>52.6</ele>
        <time>2021-07-17T09:20:27Z</time>
      </trkpt>
      <trkpt lat="43.3965730" lon="-3.9948580">
        <ele>52.2</ele>
        <time>2021-07-17T09:20:28Z</time>
      </trkpt>
      <trkpt lat="43.3965270" lon="-3.9949610">
        <ele>51.6</ele>
        <time>2021-07-17T09:20:29Z</time>
      </trkpt>
      <trkpt lat="43.3964820" lon="-3.9950810">
        <ele>51.2</ele>
        <time>2021-07-17T09:20:31Z</time>
      </trkpt>
      <trkpt lat="43.3964370" lon="-3.9952030">
        <ele>50.6</ele>
        <time>2021-07-17T09:20:32Z</time>
      </trkpt>
      <trkpt lat="43.3963900" lon="-3.9953300">
        <ele>50.2</ele>
        <time>2021-07-17T09:20:33Z</time>
      </trkpt>
      <trkpt lat="43.3963440" lon="-3.9954570">
        <ele>49.6</ele>
        <time>2021-07-17T09:20:34Z</time>
      </trkpt>
      <trkpt lat="43.3962990" lon="-3.9955840">
        <ele>49.2</ele>
        <time>2021-07-17T09:20:35Z</time>
      </trkpt>
      <trkpt lat="43.3962510" lon="-3.9957100">
        <ele>48.6</ele>
        <time>2021-07-17T09:20:36Z</time>
      </trkpt>
      <trkpt lat="43.3962050" lon="-3.9958380">
        <ele>48.0</ele>
        <time>2021-07-17T09:20:37Z</time>
      </trkpt>
      <trkpt lat="43.3961620" lon="-3.9959660">
        <ele>47.2</ele>
        <time>2021-07-17T09:20:38Z</time>
      </trkpt>
      <trkpt lat="43.3961160" lon="-3.9960990">
        <ele>46.6</ele>
        <time>2021-07-17T09:20:39Z</time>
      </trkpt>
      <trkpt lat="43.3960740" lon="-3.9962200">
        <ele>45.8</ele>
        <time>2021-07-17T09:20:40Z</time>
      </trkpt>
      <trkpt lat="43.3960330" lon="-3.9963410">
        <ele>45.0</ele>
        <time>2021-07-17T09:20:41Z</time>
      </trkpt>
      <trkpt lat="43.3959940" lon="-3.9964600">
        <ele>44.2</ele>
        <time>2021-07-17T09:20:42Z</time>
      </trkpt>
      <trkpt lat="43.3959560" lon="-3.9965760">
        <ele>43.4</ele>
        <time>2021-07-17T09:20:43Z</time>
      </trkpt>
      <trkpt lat="43.3959170" lon="-3.9966880">
        <ele>42.6</ele>
        <time>2021-07-17T09:20:44Z</time>
      </trkpt>
      <trkpt lat="43.3958800" lon="-3.9967950">
        <ele>41.8</ele>
        <time>2021-07-17T09:20:45Z</time>
      </trkpt>
      <trkpt lat="43.3958420" lon="-3.9969040">
        <ele>40.4</ele>
        <time>2021-07-17T09:20:46Z</time>
      </trkpt>
      <trkpt lat="43.3958050" lon="-3.9970020">
        <ele>39.8</ele>
        <time>2021-07-17T09:20:47Z</time>
      </trkpt>
      <trkpt lat="43.3957700" lon="-3.9971000">
        <ele>39.0</ele>
        <time>2021-07-17T09:20:48Z</time>
      </trkpt>
      <trkpt lat="43.3957360" lon="-3.9971960">
        <ele>38.4</ele>
        <time>2021-07-17T09:20:49Z</time>
      </trkpt>
      <trkpt lat="43.3957010" lon="-3.9972900">
        <ele>37.8</ele>
        <time>2021-07-17T09:20:50Z</time>
      </trkpt>
      <trkpt lat="43.3956680" lon="-3.9973870">
        <ele>37.2</ele>
        <time>2021-07-17T09:20:51Z</time>
      </trkpt>
      <trkpt lat="43.3956350" lon="-3.9974870">
        <ele>36.8</ele>
        <time>2021-07-17T09:20:52Z</time>
      </trkpt>
      <trkpt lat="43.3956030" lon="-3.9975880">
        <ele>36.4</ele>
        <time>2021-07-17T09:20:53Z</time>
      </trkpt>
      <trkpt lat="43.3955700" lon="-3.9976950">
        <ele>35.8</ele>
        <time>2021-07-17T09:20:54Z</time>
      </trkpt>
      <trkpt lat="43.3955370" lon="-3.9977930">
        <ele>35.2</ele>
        <time>2021-07-17T09:20:55Z</time>
      </trkpt>
      <trkpt lat="43.3955050" lon="-3.9978850">
        <ele>34.6</ele>
        <time>2021-07-17T09:20:56Z</time>
      </trkpt>
      <trkpt lat="43.3954750" lon="-3.9979700">
        <ele>34.0</ele>
        <time>2021-07-17T09:20:57Z</time>
      </trkpt>
      <trkpt lat="43.3954470" lon="-3.9980510">
        <ele>33.4</ele>
        <time>2021-07-17T09:20:58Z</time>
      </trkpt>
      <trkpt lat="43.3954210" lon="-3.9981280">
        <ele>33.0</ele>
        <time>2021-07-17T09:20:59Z</time>
      </trkpt>
      <trkpt lat="43.3953970" lon="-3.9982010">
        <ele>32.4</ele>
        <time>2021-07-17T09:21:00Z</time>
      </trkpt>
      <trkpt lat="43.3953720" lon="-3.9982740">
        <ele>32.0</ele>
        <time>2021-07-17T09:21:01Z</time>
      </trkpt>
      <trkpt lat="43.3953500" lon="-3.9983380">
        <ele>31.4</ele>
        <time>2021-07-17T09:21:02Z</time>
      </trkpt>
      <trkpt lat="43.3953280" lon="-3.9983980">
        <ele>31.0</ele>
        <time>2021-07-17T09:21:03Z</time>
      </trkpt>
      <trkpt lat="43.3952720" lon="-3.9985560">
        <ele>30.4</ele>
        <time>2021-07-17T09:21:06Z</time>
      </trkpt>
      <trkpt lat="43.3952570" lon="-3.9985980">
        <ele>30.0</ele>
        <time>2021-07-17T09:21:07Z</time>
      </trkpt>
      <trkpt lat="43.3952420" lon="-3.9986330">
        <ele>29.6</ele>
        <time>2021-07-17T09:21:08Z</time>
      </trkpt>
      <trkpt lat="43.3952310" lon="-3.9986650">
        <ele>29.2</ele>
        <time>2021-07-17T09:21:09Z</time>
      </trkpt>
      <trkpt lat="43.3952200" lon="-3.9986990">
        <ele>28.8</ele>
        <time>2021-07-17T09:21:10Z</time>
      </trkpt>
      <trkpt lat="43.3952070" lon="-3.9987730">
        <ele>28.8</ele>
        <time>2021-07-17T09:21:12Z</time>
      </trkpt>
      <trkpt lat="43.3951430" lon="-3.9990000">
        <ele>28.8</ele>
        <time>2021-07-17T09:21:17Z</time>
      </trkpt>
      <trkpt lat="43.3951010" lon="-3.9991100">
        <ele>28.4</ele>
        <time>2021-07-17T09:21:19Z</time>
      </trkpt>
      <trkpt lat="43.3950790" lon="-3.9991690">
        <ele>28.0</ele>
        <time>2021-07-17T09:21:20Z</time>
      </trkpt>
      <trkpt lat="43.3950580" lon="-3.9992290">
        <ele>27.6</ele>
        <time>2021-07-17T09:21:21Z</time>
      </trkpt>
      <trkpt lat="43.3950390" lon="-3.9992900">
        <ele>27.0</ele>
        <time>2021-07-17T09:21:22Z</time>
      </trkpt>
      <trkpt lat="43.3950190" lon="-3.9993540">
        <ele>26.6</ele>
        <time>2021-07-17T09:21:23Z</time>
      </trkpt>
      <trkpt lat="43.3949580" lon="-3.9995510">
        <ele>26.2</ele>
        <time>2021-07-17T09:21:26Z</time>
      </trkpt>
      <trkpt lat="43.3949360" lon="-3.9996190">
        <ele>25.8</ele>
        <time>2021-07-17T09:21:27Z</time>
      </trkpt>
      <trkpt lat="43.3949130" lon="-3.9996890">
        <ele>25.4</ele>
        <time>2021-07-17T09:21:28Z</time>
      </trkpt>
      <trkpt lat="43.3948900" lon="-3.9997610">
        <ele>25.0</ele>
        <time>2021-07-17T09:21:29Z</time>
      </trkpt>
      <trkpt lat="43.3948650" lon="-3.9998340">
        <ele>24.6</ele>
        <time>2021-07-17T09:21:30Z</time>
      </trkpt>
      <trkpt lat="43.3948390" lon="-3.9999120">
        <ele>24.6</ele>
        <time>2021-07-17T09:21:31Z</time>
      </trkpt>
      <trkpt lat="43.3946540" lon="-4.0004790">
        <ele>24.2</ele>
        <time>2021-07-17T09:21:39Z</time>
      </trkpt>
      <trkpt lat="43.3946330" lon="-4.0005360">
        <ele>23.8</ele>
        <time>2021-07-17T09:21:40Z</time>
      </trkpt>
      <trkpt lat="43.3946130" lon="-4.0005910">
        <ele>23.4</ele>
        <time>2021-07-17T09:21:41Z</time>
      </trkpt>
      <trkpt lat="43.3945980" lon="-4.0006400">
        <ele>23.0</ele>
        <time>2021-07-17T09:21:42Z</time>
      </trkpt>
      <trkpt lat="43.3945890" lon="-4.0006920">
        <ele>22.6</ele>
        <time>2021-07-17T09:21:43Z</time>
      </trkpt>
      <trkpt lat="43.3945820" lon="-4.0007390">
        <ele>22.6</ele>
        <time>2021-07-17T09:21:44Z</time>
      </trkpt>
      <trkpt lat="43.3945660" lon="-4.0009160">
        <ele>22.6</ele>
        <time>2021-07-17T09:21:49Z</time>
      </trkpt>
      <trkpt lat="43.3945630" lon="-4.0009160">
        <ele>22.6</ele>
        <time>2021-07-17T09:21:50Z</time>
      </trkpt>
      <trkpt lat="43.3945330" lon="-4.0009180">
        <ele>22.6</ele>
        <time>2021-07-17T09:22:01Z</time>
      </trkpt>
      <trkpt lat="43.3945180" lon="-4.0009110">
        <ele>22.6</ele>
        <time>2021-07-17T09:22:02Z</time>
      </trkpt>
      <trkpt lat="43.3945040" lon="-4.0009080">
        <ele>22.6</ele>
        <time>2021-07-17T09:22:03Z</time>
      </trkpt>
      <trkpt lat="43.3944670" lon="-4.0008650">
        <ele>22.6</ele>
        <time>2021-07-17T09:22:06Z</time>
      </trkpt>
      <trkpt lat="43.3944440" lon="-4.0008210">
        <ele>22.6</ele>
        <time>2021-07-17T09:22:08Z</time>
      </trkpt>
      <trkpt lat="43.3944400" lon="-4.0007940">
        <ele>22.6</ele>
        <time>2021-07-17T09:22:09Z</time>
      </trkpt>
      <trkpt lat="43.3944410" lon="-4.0007290">
        <ele>22.6</ele>
        <time>2021-07-17T09:22:13Z</time>
      </trkpt>
      <trkpt lat="43.3944430" lon="-4.0007270">
        <ele>22.6</ele>
        <time>2021-07-17T09:22:14Z</time>
      </trkpt>
      <trkpt lat="43.3944730" lon="-4.0007440">
        <ele>22.6</ele>
        <time>2021-07-17T09:25:43Z</time>
      </trkpt>
      <trkpt lat="43.3944960" lon="-4.0008010">
        <ele>22.6</ele>
        <time>2021-07-17T09:25:45Z</time>
      </trkpt>
      <trkpt lat="43.3945470" lon="-4.0010020">
        <ele>22.6</ele>
        <time>2021-07-17T09:25:49Z</time>
      </trkpt>
      <trkpt lat="43.3945360" lon="-4.0013440">
        <ele>22.6</ele>
        <time>2021-07-17T09:25:56Z</time>
      </trkpt>
      <trkpt lat="43.3945550" lon="-4.0015670">
        <ele>22.6</ele>
        <time>2021-07-17T09:26:01Z</time>
      </trkpt>
      <trkpt lat="43.3945610" lon="-4.0016120">
        <ele>22.6</ele>
        <time>2021-07-17T09:26:02Z</time>
      </trkpt>
      <trkpt lat="43.3945740" lon="-4.0017380">
        <ele>22.6</ele>
        <time>2021-07-17T09:26:05Z</time>
      </trkpt>
      <trkpt lat="43.3945860" lon="-4.0018500">
        <ele>22.6</ele>
        <time>2021-07-17T09:26:08Z</time>
      </trkpt>
      <trkpt lat="43.3945930" lon="-4.0018870">
        <ele>22.6</ele>
        <time>2021-07-17T09:26:09Z</time>
      </trkpt>
      <trkpt lat="43.3946130" lon="-4.0020450">
        <ele>23.0</ele>
        <time>2021-07-17T09:26:13Z</time>
      </trkpt>
      <trkpt lat="43.3946190" lon="-4.0020850">
        <ele>23.4</ele>
        <time>2021-07-17T09:26:14Z</time>
      </trkpt>
      <trkpt lat="43.3946310" lon="-4.0021170">
        <ele>24.0</ele>
        <time>2021-07-17T09:26:15Z</time>
      </trkpt>
      <trkpt lat="43.3946460" lon="-4.0021500">
        <ele>24.4</ele>
        <time>2021-07-17T09:26:16Z</time>
      </trkpt>
      <trkpt lat="43.3946590" lon="-4.0021840">
        <ele>24.8</ele>
        <time>2021-07-17T09:26:17Z</time>
      </trkpt>
      <trkpt lat="43.3947090" lon="-4.0022690">
        <ele>24.8</ele>
        <time>2021-07-17T09:26:20Z</time>
      </trkpt>
      <trkpt lat="43.3947540" lon="-4.0023180">
        <ele>24.8</ele>
        <time>2021-07-17T09:26:22Z</time>
      </trkpt>
      <trkpt lat="43.3948060" lon="-4.0023530">
        <ele>25.2</ele>
        <time>2021-07-17T09:26:24Z</time>
      </trkpt>
      <trkpt lat="43.3948360" lon="-4.0023650">
        <ele>25.6</ele>
        <time>2021-07-17T09:26:25Z</time>
      </trkpt>
      <trkpt lat="43.3948660" lon="-4.0023710">
        <ele>26.0</ele>
        <time>2021-07-17T09:26:26Z</time>
      </trkpt>
      <trkpt lat="43.3948950" lon="-4.0023770">
        <ele>26.4</ele>
        <time>2021-07-17T09:26:27Z</time>
      </trkpt>
      <trkpt lat="43.3949220" lon="-4.0023890">
        <ele>26.8</ele>
        <time>2021-07-17T09:26:28Z</time>
      </trkpt>
      <trkpt lat="43.3950380" lon="-4.0024200">
        <ele>26.8</ele>
        <time>2021-07-17T09:26:32Z</time>
      </trkpt>
      <trkpt lat="43.3951240" lon="-4.0024470">
        <ele>26.8</ele>
        <time>2021-07-17T09:26:35Z</time>
      </trkpt>
      <trkpt lat="43.3951830" lon="-4.0024620">
        <ele>27.2</ele>
        <time>2021-07-17T09:26:37Z</time>
      </trkpt>
      <trkpt lat="43.3952090" lon="-4.0024740">
        <ele>27.6</ele>
        <time>2021-07-17T09:26:38Z</time>
      </trkpt>
      <trkpt lat="43.3952350" lon="-4.0024840">
        <ele>28.0</ele>
        <time>2021-07-17T09:26:39Z</time>
      </trkpt>
      <trkpt lat="43.3952600" lon="-4.0024940">
        <ele>28.4</ele>
        <time>2021-07-17T09:26:40Z</time>
      </trkpt>
      <trkpt lat="43.3952830" lon="-4.0025080">
        <ele>28.8</ele>
        <time>2021-07-17T09:26:41Z</time>
      </trkpt>
      <trkpt lat="43.3953280" lon="-4.0025410">
        <ele>28.8</ele>
        <time>2021-07-17T09:26:43Z</time>
      </trkpt>
      <trkpt lat="43.3954800" lon="-4.0026680">
        <ele>28.8</ele>
        <time>2021-07-17T09:26:49Z</time>
      </trkpt>
      <trkpt lat="43.3955830" lon="-4.0029190">
        <ele>28.8</ele>
        <time>2021-07-17T09:26:55Z</time>
      </trkpt>
      <trkpt lat="43.3956770" lon="-4.0033420">
        <ele>28.8</ele>
        <time>2021-07-17T09:27:03Z</time>
      </trkpt>
      <trkpt lat="43.3958330" lon="-4.0038310">
        <ele>29.4</ele>
        <time>2021-07-17T09:27:12Z</time>
      </trkpt>
      <trkpt lat="43.3958630" lon="-4.0038720">
        <ele>29.8</ele>
        <time>2021-07-17T09:27:13Z</time>
      </trkpt>
      <trkpt lat="43.3958960" lon="-4.0039120">
        <ele>30.2</ele>
        <time>2021-07-17T09:27:14Z</time>
      </trkpt>
      <trkpt lat="43.3959290" lon="-4.0039480">
        <ele>30.6</ele>
        <time>2021-07-17T09:27:15Z</time>
      </trkpt>
      <trkpt lat="43.3959590" lon="-4.0039820">
        <ele>31.0</ele>
        <time>2021-07-17T09:27:16Z</time>
      </trkpt>
      <trkpt lat="43.3960180" lon="-4.0040450">
        <ele>31.0</ele>
        <time>2021-07-17T09:27:18Z</time>
      </trkpt>
      <trkpt lat="43.3962010" lon="-4.0042540">
        <ele>31.0</ele>
        <time>2021-07-17T09:27:24Z</time>
      </trkpt>
      <trkpt lat="43.3962670" lon="-4.0043180">
        <ele>31.0</ele>
        <time>2021-07-17T09:27:26Z</time>
      </trkpt>
      <trkpt lat="43.3965190" lon="-4.0045770">
        <ele>31.0</ele>
        <time>2021-07-17T09:27:34Z</time>
      </trkpt>
      <trkpt lat="43.3966810" lon="-4.0047980">
        <ele>31.4</ele>
        <time>2021-07-17T09:27:40Z</time>
      </trkpt>
      <trkpt lat="43.3967000" lon="-4.0048410">
        <ele>31.8</ele>
        <time>2021-07-17T09:27:41Z</time>
      </trkpt>
      <trkpt lat="43.3967160" lon="-4.0048820">
        <ele>32.4</ele>
        <time>2021-07-17T09:27:42Z</time>
      </trkpt>
      <trkpt lat="43.3967270" lon="-4.0049310">
        <ele>32.8</ele>
        <time>2021-07-17T09:27:43Z</time>
      </trkpt>
      <trkpt lat="43.3967360" lon="-4.0049820">
        <ele>33.2</ele>
        <time>2021-07-17T09:27:44Z</time>
      </trkpt>
      <trkpt lat="43.3967380" lon="-4.0051340">
        <ele>33.2</ele>
        <time>2021-07-17T09:27:47Z</time>
      </trkpt>
      <trkpt lat="43.3967070" lon="-4.0055090">
        <ele>33.2</ele>
        <time>2021-07-17T09:27:55Z</time>
      </trkpt>
      <trkpt lat="43.3966950" lon="-4.0055980">
        <ele>33.6</ele>
        <time>2021-07-17T09:27:57Z</time>
      </trkpt>
      <trkpt lat="43.3966890" lon="-4.0056410">
        <ele>34.0</ele>
        <time>2021-07-17T09:27:58Z</time>
      </trkpt>
      <trkpt lat="43.3966800" lon="-4.0056800">
        <ele>34.4</ele>
        <time>2021-07-17T09:27:59Z</time>
      </trkpt>
      <trkpt lat="43.3966710" lon="-4.0057170">
        <ele>35.0</ele>
        <time>2021-07-17T09:28:00Z</time>
      </trkpt>
      <trkpt lat="43.3966560" lon="-4.0057570">
        <ele>35.4</ele>
        <time>2021-07-17T09:28:01Z</time>
      </trkpt>
      <trkpt lat="43.3965380" lon="-4.0059970">
        <ele>35.4</ele>
        <time>2021-07-17T09:28:08Z</time>
      </trkpt>
      <trkpt lat="43.3964840" lon="-4.0061090">
        <ele>35.8</ele>
        <time>2021-07-17T09:28:11Z</time>
      </trkpt>
      <trkpt lat="43.3964680" lon="-4.0061480">
        <ele>36.2</ele>
        <time>2021-07-17T09:28:12Z</time>
      </trkpt>
      <trkpt lat="43.3964510" lon="-4.0061820">
        <ele>36.6</ele>
        <time>2021-07-17T09:28:13Z</time>
      </trkpt>
      <trkpt lat="43.3964310" lon="-4.0062160">
        <ele>37.0</ele>
        <time>2021-07-17T09:28:14Z</time>
      </trkpt>
      <trkpt lat="43.3964130" lon="-4.0062480">
        <ele>37.4</ele>
        <time>2021-07-17T09:28:15Z</time>
      </trkpt>
      <trkpt lat="43.3963570" lon="-4.0063480">
        <ele>37.4</ele>
        <time>2021-07-17T09:28:18Z</time>
      </trkpt>
      <trkpt lat="43.3962220" lon="-4.0065710">
        <ele>37.8</ele>
        <time>2021-07-17T09:28:25Z</time>
      </trkpt>
      <trkpt lat="43.3961970" lon="-4.0066000">
        <ele>38.2</ele>
        <time>2021-07-17T09:28:26Z</time>
      </trkpt>
      <trkpt lat="43.3961740" lon="-4.0066260">
        <ele>38.6</ele>
        <time>2021-07-17T09:28:27Z</time>
      </trkpt>
      <trkpt lat="43.3961520" lon="-4.0066540">
        <ele>39.0</ele>
        <time>2021-07-17T09:28:28Z</time>
      </trkpt>
      <trkpt lat="43.3961310" lon="-4.0066820">
        <ele>39.4</ele>
        <time>2021-07-17T09:28:29Z</time>
      </trkpt>
      <trkpt lat="43.3959850" lon="-4.0068410">
        <ele>39.4</ele>
        <time>2021-07-17T09:28:35Z</time>
      </trkpt>
      <trkpt lat="43.3958630" lon="-4.0069640">
        <ele>39.8</ele>
        <time>2021-07-17T09:28:40Z</time>
      </trkpt>
      <trkpt lat="43.3958360" lon="-4.0069870">
        <ele>40.4</ele>
        <time>2021-07-17T09:28:41Z</time>
      </trkpt>
      <trkpt lat="43.3958120" lon="-4.0070150">
        <ele>40.8</ele>
        <time>2021-07-17T09:28:42Z</time>
      </trkpt>
      <trkpt lat="43.3957870" lon="-4.0070390">
        <ele>41.2</ele>
        <time>2021-07-17T09:28:43Z</time>
      </trkpt>
      <trkpt lat="43.3957610" lon="-4.0070650">
        <ele>41.6</ele>
        <time>2021-07-17T09:28:44Z</time>
      </trkpt>
      <trkpt lat="43.3955520" lon="-4.0072460">
        <ele>41.6</ele>
        <time>2021-07-17T09:28:52Z</time>
      </trkpt>
      <trkpt lat="43.3953660" lon="-4.0074180">
        <ele>41.6</ele>
        <time>2021-07-17T09:28:59Z</time>
      </trkpt>
      <trkpt lat="43.3953400" lon="-4.0074450">
        <ele>42.0</ele>
        <time>2021-07-17T09:29:00Z</time>
      </trkpt>
      <trkpt lat="43.3953140" lon="-4.0074750">
        <ele>42.8</ele>
        <time>2021-07-17T09:29:01Z</time>
      </trkpt>
      <trkpt lat="43.3952870" lon="-4.0075110">
        <ele>43.2</ele>
        <time>2021-07-17T09:29:02Z</time>
      </trkpt>
      <trkpt lat="43.3952710" lon="-4.0075470">
        <ele>43.6</ele>
        <time>2021-07-17T09:29:03Z</time>
      </trkpt>
      <trkpt lat="43.3952400" lon="-4.0076360">
        <ele>43.6</ele>
        <time>2021-07-17T09:29:05Z</time>
      </trkpt>
      <trkpt lat="43.3951770" lon="-4.0079880">
        <ele>43.6</ele>
        <time>2021-07-17T09:29:12Z</time>
      </trkpt>
      <trkpt lat="43.3950740" lon="-4.0085980">
        <ele>43.6</ele>
        <time>2021-07-17T09:29:23Z</time>
      </trkpt>
      <trkpt lat="43.3950350" lon="-4.0088230">
        <ele>43.6</ele>
        <time>2021-07-17T09:29:27Z</time>
      </trkpt>
      <trkpt lat="43.3949990" lon="-4.0090480">
        <ele>43.6</ele>
        <time>2021-07-17T09:29:31Z</time>
      </trkpt>
      <trkpt lat="43.3949540" lon="-4.0093080">
        <ele>44.0</ele>
        <time>2021-07-17T09:29:36Z</time>
      </trkpt>
      <trkpt lat="43.3949420" lon="-4.0093550">
        <ele>44.4</ele>
        <time>2021-07-17T09:29:37Z</time>
      </trkpt>
      <trkpt lat="43.3949280" lon="-4.0094050">
        <ele>44.8</ele>
        <time>2021-07-17T09:29:38Z</time>
      </trkpt>
      <trkpt lat="43.3949170" lon="-4.0094530">
        <ele>45.2</ele>
        <time>2021-07-17T09:29:39Z</time>
      </trkpt>
      <trkpt lat="43.3949040" lon="-4.0094990">
        <ele>45.6</ele>
        <time>2021-07-17T09:29:40Z</time>
      </trkpt>
      <trkpt lat="43.3948420" lon="-4.0097450">
        <ele>45.6</ele>
        <time>2021-07-17T09:29:45Z</time>
      </trkpt>
      <trkpt lat="43.3947320" lon="-4.0101010">
        <ele>45.6</ele>
        <time>2021-07-17T09:29:52Z</time>
      </trkpt>
      <trkpt lat="43.3947210" lon="-4.0101560">
        <ele>45.6</ele>
        <time>2021-07-17T09:29:53Z</time>
      </trkpt>
      <trkpt lat="43.3946670" lon="-4.0103290">
        <ele>45.6</ele>
        <time>2021-07-17T09:29:56Z</time>
      </trkpt>
      <trkpt lat="43.3946180" lon="-4.0104430">
        <ele>45.6</ele>
        <time>2021-07-17T09:29:58Z</time>
      </trkpt>
      <trkpt lat="43.3945900" lon="-4.0105030">
        <ele>45.6</ele>
        <time>2021-07-17T09:29:59Z</time>
      </trkpt>
      <trkpt lat="43.3944780" lon="-4.0107960">
        <ele>45.6</ele>
        <time>2021-07-17T09:30:03Z</time>
      </trkpt>
      <trkpt lat="43.3944200" lon="-4.0109470">
        <ele>45.6</ele>
        <time>2021-07-17T09:30:05Z</time>
      </trkpt>
      <trkpt lat="43.3943600" lon="-4.0111020">
        <ele>45.2</ele>
        <time>2021-07-17T09:30:07Z</time>
      </trkpt>
      <trkpt lat="43.3943280" lon="-4.0111820">
        <ele>44.8</ele>
        <time>2021-07-17T09:30:08Z</time>
      </trkpt>
      <trkpt lat="43.3942940" lon="-4.0112630">
        <ele>44.4</ele>
        <time>2021-07-17T09:30:09Z</time>
      </trkpt>
      <trkpt lat="43.3942590" lon="-4.0113400">
        <ele>44.0</ele>
        <time>2021-07-17T09:30:10Z</time>
      </trkpt>
      <trkpt lat="43.3942230" lon="-4.0114130">
        <ele>43.6</ele>
        <time>2021-07-17T09:30:11Z</time>
      </trkpt>
      <trkpt lat="43.3941370" lon="-4.0115590">
        <ele>43.6</ele>
        <time>2021-07-17T09:30:13Z</time>
      </trkpt>
      <trkpt lat="43.3940890" lon="-4.0116290">
        <ele>43.2</ele>
        <time>2021-07-17T09:30:14Z</time>
      </trkpt>
      <trkpt lat="43.3940330" lon="-4.0116960">
        <ele>42.6</ele>
        <time>2021-07-17T09:30:15Z</time>
      </trkpt>
      <trkpt lat="43.3939710" lon="-4.0117620">
        <ele>42.2</ele>
        <time>2021-07-17T09:30:16Z</time>
      </trkpt>
      <trkpt lat="43.3939030" lon="-4.0118330">
        <ele>41.8</ele>
        <time>2021-07-17T09:30:17Z</time>
      </trkpt>
      <trkpt lat="43.3938390" lon="-4.0119020">
        <ele>41.2</ele>
        <time>2021-07-17T09:30:18Z</time>
      </trkpt>
      <trkpt lat="43.3937720" lon="-4.0119680">
        <ele>40.6</ele>
        <time>2021-07-17T09:30:19Z</time>
      </trkpt>
      <trkpt lat="43.3937050" lon="-4.0120330">
        <ele>40.2</ele>
        <time>2021-07-17T09:30:20Z</time>
      </trkpt>
      <trkpt lat="43.3936390" lon="-4.0121020">
        <ele>39.6</ele>
        <time>2021-07-17T09:30:21Z</time>
      </trkpt>
      <trkpt lat="43.3935710" lon="-4.0121780">
        <ele>39.2</ele>
        <time>2021-07-17T09:30:22Z</time>
      </trkpt>
      <trkpt lat="43.3935060" lon="-4.0122630">
        <ele>38.6</ele>
        <time>2021-07-17T09:30:23Z</time>
      </trkpt>
      <trkpt lat="43.3934540" lon="-4.0123510">
        <ele>38.2</ele>
        <time>2021-07-17T09:30:24Z</time>
      </trkpt>
      <trkpt lat="43.3934090" lon="-4.0124440">
        <ele>37.6</ele>
        <time>2021-07-17T09:30:25Z</time>
      </trkpt>
      <trkpt lat="43.3933720" lon="-4.0125400">
        <ele>37.0</ele>
        <time>2021-07-17T09:30:26Z</time>
      </trkpt>
      <trkpt lat="43.3933400" lon="-4.0126310">
        <ele>36.6</ele>
        <time>2021-07-17T09:30:27Z</time>
      </trkpt>
      <trkpt lat="43.3933120" lon="-4.0127220">
        <ele>36.2</ele>
        <time>2021-07-17T09:30:28Z</time>
      </trkpt>
      <trkpt lat="43.3932910" lon="-4.0128130">
        <ele>35.4</ele>
        <time>2021-07-17T09:30:29Z</time>
      </trkpt>
      <trkpt lat="43.3932750" lon="-4.0129020">
        <ele>34.8</ele>
        <time>2021-07-17T09:30:30Z</time>
      </trkpt>
      <trkpt lat="43.3932630" lon="-4.0129980">
        <ele>34.0</ele>
        <time>2021-07-17T09:30:31Z</time>
      </trkpt>
      <trkpt lat="43.3932550" lon="-4.0130910">
        <ele>33.4</ele>
        <time>2021-07-17T09:30:32Z</time>
      </trkpt>
      <trkpt lat="43.3932530" lon="-4.0131880">
        <ele>32.6</ele>
        <time>2021-07-17T09:30:33Z</time>
      </trkpt>
      <trkpt lat="43.3932630" lon="-4.0133750">
        <ele>32.6</ele>
        <time>2021-07-17T09:30:35Z</time>
      </trkpt>
      <trkpt lat="43.3932750" lon="-4.0134690">
        <ele>32.2</ele>
        <time>2021-07-17T09:30:36Z</time>
      </trkpt>
      <trkpt lat="43.3932910" lon="-4.0135580">
        <ele>31.8</ele>
        <time>2021-07-17T09:30:37Z</time>
      </trkpt>
      <trkpt lat="43.3933100" lon="-4.0136450">
        <ele>31.4</ele>
        <time>2021-07-17T09:30:38Z</time>
      </trkpt>
      <trkpt lat="43.3933330" lon="-4.0137320">
        <ele>30.4</ele>
        <time>2021-07-17T09:30:39Z</time>
      </trkpt>
      <trkpt lat="43.3933590" lon="-4.0138110">
        <ele>29.8</ele>
        <time>2021-07-17T09:30:40Z</time>
      </trkpt>
      <trkpt lat="43.3933930" lon="-4.0138890">
        <ele>29.4</ele>
        <time>2021-07-17T09:30:41Z</time>
      </trkpt>
      <trkpt lat="43.3934310" lon="-4.0139650">
        <ele>28.8</ele>
        <time>2021-07-17T09:30:42Z</time>
      </trkpt>
      <trkpt lat="43.3934730" lon="-4.0140380">
        <ele>28.2</ele>
        <time>2021-07-17T09:30:43Z</time>
      </trkpt>
      <trkpt lat="43.3935170" lon="-4.0141090">
        <ele>27.8</ele>
        <time>2021-07-17T09:30:44Z</time>
      </trkpt>
      <trkpt lat="43.3935600" lon="-4.0141680">
        <ele>27.4</ele>
        <time>2021-07-17T09:30:45Z</time>
      </trkpt>
      <trkpt lat="43.3936030" lon="-4.0142310">
        <ele>27.0</ele>
        <time>2021-07-17T09:30:46Z</time>
      </trkpt>
      <trkpt lat="43.3936500" lon="-4.0143040">
        <ele>26.4</ele>
        <time>2021-07-17T09:30:47Z</time>
      </trkpt>
      <trkpt lat="43.3936950" lon="-4.0143760">
        <ele>26.0</ele>
        <time>2021-07-17T09:30:48Z</time>
      </trkpt>
      <trkpt lat="43.3937420" lon="-4.0144450">
        <ele>25.4</ele>
        <time>2021-07-17T09:30:49Z</time>
      </trkpt>
      <trkpt lat="43.3937870" lon="-4.0145070">
        <ele>24.8</ele>
        <time>2021-07-17T09:30:50Z</time>
      </trkpt>
      <trkpt lat="43.3938300" lon="-4.0145690">
        <ele>24.4</ele>
        <time>2021-07-17T09:30:51Z</time>
      </trkpt>
      <trkpt lat="43.3938710" lon="-4.0146320">
        <ele>23.8</ele>
        <time>2021-07-17T09:30:52Z</time>
      </trkpt>
      <trkpt lat="43.3939550" lon="-4.0147530">
        <ele>23.4</ele>
        <time>2021-07-17T09:30:54Z</time>
      </trkpt>
      <trkpt lat="43.3939920" lon="-4.0148080">
        <ele>23.0</ele>
        <time>2021-07-17T09:30:55Z</time>
      </trkpt>
      <trkpt lat="43.3940280" lon="-4.0148600">
        <ele>22.6</ele>
        <time>2021-07-17T09:30:56Z</time>
      </trkpt>
      <trkpt lat="43.3940610" lon="-4.0149130">
        <ele>22.2</ele>
        <time>2021-07-17T09:30:57Z</time>
      </trkpt>
      <trkpt lat="43.3940940" lon="-4.0149630">
        <ele>21.8</ele>
        <time>2021-07-17T09:30:58Z</time>
      </trkpt>
      <trkpt lat="43.3941830" lon="-4.0150950">
        <ele>21.8</ele>
        <time>2021-07-17T09:31:01Z</time>
      </trkpt>
      <trkpt lat="43.3942400" lon="-4.0151830">
        <ele>21.4</ele>
        <time>2021-07-17T09:31:03Z</time>
      </trkpt>
      <trkpt lat="43.3942670" lon="-4.0152280">
        <ele>20.4</ele>
        <time>2021-07-17T09:31:04Z</time>
      </trkpt>
      <trkpt lat="43.3942910" lon="-4.0152610">
        <ele>20.0</ele>
        <time>2021-07-17T09:31:05Z</time>
      </trkpt>
      <trkpt lat="43.3943060" lon="-4.0152870">
        <ele>19.6</ele>
        <time>2021-07-17T09:31:06Z</time>
      </trkpt>
      <trkpt lat="43.3943120" lon="-4.0153120">
        <ele>19.6</ele>
        <time>2021-07-17T09:31:07Z</time>
      </trkpt>
      <trkpt lat="43.3942840" lon="-4.0154930">
        <ele>19.6</ele>
        <time>2021-07-17T09:31:12Z</time>
      </trkpt>
      <trkpt lat="43.3942590" lon="-4.0155440">
        <ele>19.6</ele>
        <time>2021-07-17T09:31:13Z</time>
      </trkpt>
      <trkpt lat="43.3941910" lon="-4.0156670">
        <ele>19.2</ele>
        <time>2021-07-17T09:31:15Z</time>
      </trkpt>
      <trkpt lat="43.3941550" lon="-4.0157400">
        <ele>18.8</ele>
        <time>2021-07-17T09:31:16Z</time>
      </trkpt>
      <trkpt lat="43.3941160" lon="-4.0158220">
        <ele>18.4</ele>
        <time>2021-07-17T09:31:17Z</time>
      </trkpt>
      <trkpt lat="43.3940780" lon="-4.0159020">
        <ele>17.8</ele>
        <time>2021-07-17T09:31:18Z</time>
      </trkpt>
      <trkpt lat="43.3940420" lon="-4.0159870">
        <ele>17.4</ele>
        <time>2021-07-17T09:31:19Z</time>
      </trkpt>
      <trkpt lat="43.3940020" lon="-4.0160750">
        <ele>17.0</ele>
        <time>2021-07-17T09:31:20Z</time>
      </trkpt>
      <trkpt lat="43.3939640" lon="-4.0161630">
        <ele>16.6</ele>
        <time>2021-07-17T09:31:21Z</time>
      </trkpt>
      <trkpt lat="43.3939220" lon="-4.0162530">
        <ele>16.2</ele>
        <time>2021-07-17T09:31:22Z</time>
      </trkpt>
      <trkpt lat="43.3938820" lon="-4.0163390">
        <ele>15.8</ele>
        <time>2021-07-17T09:31:23Z</time>
      </trkpt>
      <trkpt lat="43.3938400" lon="-4.0164290">
        <ele>15.2</ele>
        <time>2021-07-17T09:31:24Z</time>
      </trkpt>
      <trkpt lat="43.3937250" lon="-4.0167690">
        <ele>15.2</ele>
        <time>2021-07-17T09:31:28Z</time>
      </trkpt>
      <trkpt lat="43.3936390" lon="-4.0171310">
        <ele>15.2</ele>
        <time>2021-07-17T09:31:33Z</time>
      </trkpt>
      <trkpt lat="43.3936160" lon="-4.0172440">
        <ele>15.2</ele>
        <time>2021-07-17T09:31:35Z</time>
      </trkpt>
      <trkpt lat="43.3935870" lon="-4.0173470">
        <ele>15.2</ele>
        <time>2021-07-17T09:31:37Z</time>
      </trkpt>
      <trkpt lat="43.3935460" lon="-4.0174510">
        <ele>15.2</ele>
        <time>2021-07-17T09:31:39Z</time>
      </trkpt>
      <trkpt lat="43.3934750" lon="-4.0175880">
        <ele>15.2</ele>
        <time>2021-07-17T09:31:42Z</time>
      </trkpt>
      <trkpt lat="43.3933940" lon="-4.0177200">
        <ele>15.2</ele>
        <time>2021-07-17T09:31:45Z</time>
      </trkpt>
      <trkpt lat="43.3932910" lon="-4.0178980">
        <ele>15.2</ele>
        <time>2021-07-17T09:31:49Z</time>
      </trkpt>
      <trkpt lat="43.3932420" lon="-4.0179880">
        <ele>15.2</ele>
        <time>2021-07-17T09:31:51Z</time>
      </trkpt>
      <trkpt lat="43.3932150" lon="-4.0180330">
        <ele>15.6</ele>
        <time>2021-07-17T09:31:52Z</time>
      </trkpt>
      <trkpt lat="43.3931850" lon="-4.0180820">
        <ele>16.0</ele>
        <time>2021-07-17T09:31:53Z</time>
      </trkpt>
      <trkpt lat="43.3931540" lon="-4.0181340">
        <ele>17.0</ele>
        <time>2021-07-17T09:31:54Z</time>
      </trkpt>
      <trkpt lat="43.3931200" lon="-4.0181890">
        <ele>17.4</ele>
        <time>2021-07-17T09:31:55Z</time>
      </trkpt>
      <trkpt lat="43.3929370" lon="-4.0184890">
        <ele>17.4</ele>
        <time>2021-07-17T09:32:01Z</time>
      </trkpt>
      <trkpt lat="43.3928830" lon="-4.0185850">
        <ele>17.4</ele>
        <time>2021-07-17T09:32:03Z</time>
      </trkpt>
      <trkpt lat="43.3928000" lon="-4.0187210">
        <ele>17.4</ele>
        <time>2021-07-17T09:32:06Z</time>
      </trkpt>
      <trkpt lat="43.3926120" lon="-4.0190170">
        <ele>17.4</ele>
        <time>2021-07-17T09:32:13Z</time>
      </trkpt>
      <trkpt lat="43.3924880" lon="-4.0192170">
        <ele>17.8</ele>
        <time>2021-07-17T09:32:18Z</time>
      </trkpt>
      <trkpt lat="43.3924650" lon="-4.0192560">
        <ele>18.6</ele>
        <time>2021-07-17T09:32:19Z</time>
      </trkpt>
      <trkpt lat="43.3924370" lon="-4.0192990">
        <ele>19.0</ele>
        <time>2021-07-17T09:32:20Z</time>
      </trkpt>
      <trkpt lat="43.3924130" lon="-4.0193410">
        <ele>19.4</ele>
        <time>2021-07-17T09:32:21Z</time>
      </trkpt>
      <trkpt lat="43.3922350" lon="-4.0196330">
        <ele>19.4</ele>
        <time>2021-07-17T09:32:28Z</time>
      </trkpt>
      <trkpt lat="43.3922090" lon="-4.0196780">
        <ele>19.4</ele>
        <time>2021-07-17T09:32:29Z</time>
      </trkpt>
      <trkpt lat="43.3921060" lon="-4.0198560">
        <ele>19.8</ele>
        <time>2021-07-17T09:32:33Z</time>
      </trkpt>
      <trkpt lat="43.3920830" lon="-4.0198950">
        <ele>20.2</ele>
        <time>2021-07-17T09:32:34Z</time>
      </trkpt>
      <trkpt lat="43.3920600" lon="-4.0199380">
        <ele>20.6</ele>
        <time>2021-07-17T09:32:35Z</time>
      </trkpt>
      <trkpt lat="43.3920380" lon="-4.0199770">
        <ele>21.0</ele>
        <time>2021-07-17T09:32:36Z</time>
      </trkpt>
      <trkpt lat="43.3920120" lon="-4.0200130">
        <ele>21.4</ele>
        <time>2021-07-17T09:32:37Z</time>
      </trkpt>
      <trkpt lat="43.3919880" lon="-4.0200560">
        <ele>21.4</ele>
        <time>2021-07-17T09:32:38Z</time>
      </trkpt>
      <trkpt lat="43.3918000" lon="-4.0204150">
        <ele>21.4</ele>
        <time>2021-07-17T09:32:46Z</time>
      </trkpt>
      <trkpt lat="43.3916820" lon="-4.0207600">
        <ele>21.8</ele>
        <time>2021-07-17T09:32:53Z</time>
      </trkpt>
      <trkpt lat="43.3916700" lon="-4.0208160">
        <ele>22.2</ele>
        <time>2021-07-17T09:32:54Z</time>
      </trkpt>
      <trkpt lat="43.3916610" lon="-4.0208720">
        <ele>22.6</ele>
        <time>2021-07-17T09:32:55Z</time>
      </trkpt>
      <trkpt lat="43.3916490" lon="-4.0209260">
        <ele>23.0</ele>
        <time>2021-07-17T09:32:56Z</time>
      </trkpt>
      <trkpt lat="43.3916410" lon="-4.0209790">
        <ele>23.6</ele>
        <time>2021-07-17T09:32:57Z</time>
      </trkpt>
      <trkpt lat="43.3916060" lon="-4.0211240">
        <ele>23.6</ele>
        <time>2021-07-17T09:33:00Z</time>
      </trkpt>
      <trkpt lat="43.3915560" lon="-4.0213430">
        <ele>23.6</ele>
        <time>2021-07-17T09:33:05Z</time>
      </trkpt>
      <trkpt lat="43.3915390" lon="-4.0214230">
        <ele>23.6</ele>
        <time>2021-07-17T09:33:07Z</time>
      </trkpt>
      <trkpt lat="43.3915080" lon="-4.0215150">
        <ele>23.6</ele>
        <time>2021-07-17T09:33:10Z</time>
      </trkpt>
      <trkpt lat="43.3914850" lon="-4.0215900">
        <ele>23.6</ele>
        <time>2021-07-17T09:33:13Z</time>
      </trkpt>
      <trkpt lat="43.3914880" lon="-4.0216110">
        <ele>23.6</ele>
        <time>2021-07-17T09:33:14Z</time>
      </trkpt>
      <trkpt lat="43.3915130" lon="-4.0216500">
        <ele>23.6</ele>
        <time>2021-07-17T09:33:16Z</time>
      </trkpt>
      <trkpt lat="43.3915220" lon="-4.0216650">
        <ele>23.6</ele>
        <time>2021-07-17T09:33:17Z</time>
      </trkpt>
      <trkpt lat="43.3915230" lon="-4.0216860">
        <ele>23.6</ele>
        <time>2021-07-17T09:33:18Z</time>
      </trkpt>
      <trkpt lat="43.3915200" lon="-4.0217100">
        <ele>23.6</ele>
        <time>2021-07-17T09:33:21Z</time>
      </trkpt>
      <trkpt lat="43.3915150" lon="-4.0217850">
        <ele>23.6</ele>
        <time>2021-07-17T09:33:50Z</time>
      </trkpt>
      <trkpt lat="43.3914870" lon="-4.0218490">
        <ele>23.6</ele>
        <time>2021-07-17T09:33:52Z</time>
      </trkpt>
      <trkpt lat="43.3914600" lon="-4.0219120">
        <ele>23.6</ele>
        <time>2021-07-17T09:33:54Z</time>
      </trkpt>
      <trkpt lat="43.3914320" lon="-4.0220550">
        <ele>23.6</ele>
        <time>2021-07-17T09:33:57Z</time>
      </trkpt>
      <trkpt lat="43.3913960" lon="-4.0222140">
        <ele>23.6</ele>
        <time>2021-07-17T09:34:00Z</time>
      </trkpt>
      <trkpt lat="43.3913650" lon="-4.0224120">
        <ele>23.6</ele>
        <time>2021-07-17T09:34:03Z</time>
      </trkpt>
      <trkpt lat="43.3913120" lon="-4.0226930">
        <ele>23.6</ele>
        <time>2021-07-17T09:34:07Z</time>
      </trkpt>
      <trkpt lat="43.3912860" lon="-4.0228400">
        <ele>23.2</ele>
        <time>2021-07-17T09:34:09Z</time>
      </trkpt>
      <trkpt lat="43.3912760" lon="-4.0229010">
        <ele>22.6</ele>
        <time>2021-07-17T09:34:10Z</time>
      </trkpt>
      <trkpt lat="43.3912660" lon="-4.0229670">
        <ele>22.2</ele>
        <time>2021-07-17T09:34:11Z</time>
      </trkpt>
      <trkpt lat="43.3912550" lon="-4.0230360">
        <ele>21.8</ele>
        <time>2021-07-17T09:34:12Z</time>
      </trkpt>
      <trkpt lat="43.3912430" lon="-4.0231030">
        <ele>21.4</ele>
        <time>2021-07-17T09:34:13Z</time>
      </trkpt>
      <trkpt lat="43.3911780" lon="-4.0234900">
        <ele>21.4</ele>
        <time>2021-07-17T09:34:19Z</time>
      </trkpt>
      <trkpt lat="43.3911250" lon="-4.0238260">
        <ele>21.4</ele>
        <time>2021-07-17T09:34:24Z</time>
      </trkpt>
      <trkpt lat="43.3911110" lon="-4.0239010">
        <ele>21.4</ele>
        <time>2021-07-17T09:34:25Z</time>
      </trkpt>
      <trkpt lat="43.3909920" lon="-4.0245450">
        <ele>21.4</ele>
        <time>2021-07-17T09:34:33Z</time>
      </trkpt>
      <trkpt lat="43.3909590" lon="-4.0247200">
        <ele>21.0</ele>
        <time>2021-07-17T09:34:35Z</time>
      </trkpt>
      <trkpt lat="43.3909430" lon="-4.0248120">
        <ele>20.6</ele>
        <time>2021-07-17T09:34:36Z</time>
      </trkpt>
      <trkpt lat="43.3909250" lon="-4.0249060">
        <ele>20.2</ele>
        <time>2021-07-17T09:34:37Z</time>
      </trkpt>
      <trkpt lat="43.3909110" lon="-4.0250100">
        <ele>19.8</ele>
        <time>2021-07-17T09:34:38Z</time>
      </trkpt>
      <trkpt lat="43.3908930" lon="-4.0251130">
        <ele>19.4</ele>
        <time>2021-07-17T09:34:39Z</time>
      </trkpt>
      <trkpt lat="43.3908770" lon="-4.0252130">
        <ele>19.4</ele>
        <time>2021-07-17T09:34:40Z</time>
      </trkpt>
      <trkpt lat="43.3908230" lon="-4.0255080">
        <ele>19.4</ele>
        <time>2021-07-17T09:34:43Z</time>
      </trkpt>
      <trkpt lat="43.3907840" lon="-4.0256970">
        <ele>19.4</ele>
        <time>2021-07-17T09:34:45Z</time>
      </trkpt>
      <trkpt lat="43.3907650" lon="-4.0257850">
        <ele>19.0</ele>
        <time>2021-07-17T09:34:46Z</time>
      </trkpt>
      <trkpt lat="43.3907430" lon="-4.0258720">
        <ele>18.0</ele>
        <time>2021-07-17T09:34:47Z</time>
      </trkpt>
      <trkpt lat="43.3907200" lon="-4.0259550">
        <ele>17.6</ele>
        <time>2021-07-17T09:34:48Z</time>
      </trkpt>
      <trkpt lat="43.3906950" lon="-4.0260340">
        <ele>17.2</ele>
        <time>2021-07-17T09:34:49Z</time>
      </trkpt>
      <trkpt lat="43.3905910" lon="-4.0262780">
        <ele>17.2</ele>
        <time>2021-07-17T09:34:53Z</time>
      </trkpt>
      <trkpt lat="43.3905150" lon="-4.0263990">
        <ele>17.2</ele>
        <time>2021-07-17T09:34:56Z</time>
      </trkpt>
      <trkpt lat="43.3904630" lon="-4.0264830">
        <ele>17.2</ele>
        <time>2021-07-17T09:34:58Z</time>
      </trkpt>
      <trkpt lat="43.3904380" lon="-4.0265250">
        <ele>17.2</ele>
        <time>2021-07-17T09:34:59Z</time>
      </trkpt>
      <trkpt lat="43.3903880" lon="-4.0265930">
        <ele>17.2</ele>
        <time>2021-07-17T09:35:01Z</time>
      </trkpt>
      <trkpt lat="43.3903450" lon="-4.0266670">
        <ele>17.2</ele>
        <time>2021-07-17T09:35:03Z</time>
      </trkpt>
      <trkpt lat="43.3903060" lon="-4.0267410">
        <ele>17.2</ele>
        <time>2021-07-17T09:35:05Z</time>
      </trkpt>
      <trkpt lat="43.3902340" lon="-4.0268430">
        <ele>17.6</ele>
        <time>2021-07-17T09:35:08Z</time>
      </trkpt>
      <trkpt lat="43.3902100" lon="-4.0268660">
        <ele>18.0</ele>
        <time>2021-07-17T09:35:09Z</time>
      </trkpt>
      <trkpt lat="43.3901900" lon="-4.0269010">
        <ele>18.4</ele>
        <time>2021-07-17T09:35:10Z</time>
      </trkpt>
      <trkpt lat="43.3901720" lon="-4.0269390">
        <ele>19.2</ele>
        <time>2021-07-17T09:35:11Z</time>
      </trkpt>
      <trkpt lat="43.3901240" lon="-4.0270320">
        <ele>19.2</ele>
        <time>2021-07-17T09:35:14Z</time>
      </trkpt>
      <trkpt lat="43.3900860" lon="-4.0270990">
        <ele>19.2</ele>
        <time>2021-07-17T09:35:16Z</time>
      </trkpt>
      <trkpt lat="43.3900440" lon="-4.0271650">
        <ele>19.2</ele>
        <time>2021-07-17T09:35:18Z</time>
      </trkpt>
      <trkpt lat="43.3900260" lon="-4.0271980">
        <ele>19.6</ele>
        <time>2021-07-17T09:35:19Z</time>
      </trkpt>
      <trkpt lat="43.3900060" lon="-4.0272290">
        <ele>20.2</ele>
        <time>2021-07-17T09:35:20Z</time>
      </trkpt>
      <trkpt lat="43.3899900" lon="-4.0272550">
        <ele>20.6</ele>
        <time>2021-07-17T09:35:21Z</time>
      </trkpt>
      <trkpt lat="43.3899800" lon="-4.0272790">
        <ele>21.0</ele>
        <time>2021-07-17T09:35:22Z</time>
      </trkpt>
      <trkpt lat="43.3899690" lon="-4.0273010">
        <ele>21.4</ele>
        <time>2021-07-17T09:35:23Z</time>
      </trkpt>
      <trkpt lat="43.3899570" lon="-4.0273240">
        <ele>21.4</ele>
        <time>2021-07-17T09:35:25Z</time>
      </trkpt>
      <trkpt lat="43.3899580" lon="-4.0273200">
        <ele>21.4</ele>
        <time>2021-07-17T09:35:26Z</time>
      </trkpt>
      <trkpt lat="43.3899400" lon="-4.0273390">
        <ele>21.4</ele>
        <time>2021-07-17T09:35:30Z</time>
      </trkpt>
      <trkpt lat="43.3899210" lon="-4.0273670">
        <ele>21.4</ele>
        <time>2021-07-17T09:35:32Z</time>
      </trkpt>
      <trkpt lat="43.3898230" lon="-4.0275170">
        <ele>21.4</ele>
        <time>2021-07-17T09:35:38Z</time>
      </trkpt>
      <trkpt lat="43.3897350" lon="-4.0276550">
        <ele>21.4</ele>
        <time>2021-07-17T09:35:42Z</time>
      </trkpt>
      <trkpt lat="43.3896460" lon="-4.0277980">
        <ele>21.4</ele>
        <time>2021-07-17T09:35:46Z</time>
      </trkpt>
      <trkpt lat="43.3896040" lon="-4.0278670">
        <ele>21.8</ele>
        <time>2021-07-17T09:35:48Z</time>
      </trkpt>
      <trkpt lat="43.3895800" lon="-4.0279030">
        <ele>22.2</ele>
        <time>2021-07-17T09:35:49Z</time>
      </trkpt>
      <trkpt lat="43.3895540" lon="-4.0279370">
        <ele>22.6</ele>
        <time>2021-07-17T09:35:50Z</time>
      </trkpt>
      <trkpt lat="43.3895280" lon="-4.0279660">
        <ele>23.0</ele>
        <time>2021-07-17T09:35:51Z</time>
      </trkpt>
      <trkpt lat="43.3895020" lon="-4.0279970">
        <ele>23.6</ele>
        <time>2021-07-17T09:35:52Z</time>
      </trkpt>
      <trkpt lat="43.3893860" lon="-4.0281040">
        <ele>23.6</ele>
        <time>2021-07-17T09:35:56Z</time>
      </trkpt>
      <trkpt lat="43.3891720" lon="-4.0282800">
        <ele>23.6</ele>
        <time>2021-07-17T09:36:03Z</time>
      </trkpt>
      <trkpt lat="43.3890630" lon="-4.0283840">
        <ele>24.0</ele>
        <time>2021-07-17T09:36:07Z</time>
      </trkpt>
      <trkpt lat="43.3890330" lon="-4.0284100">
        <ele>24.4</ele>
        <time>2021-07-17T09:36:08Z</time>
      </trkpt>
      <trkpt lat="43.3890010" lon="-4.0284350">
        <ele>24.8</ele>
        <time>2021-07-17T09:36:09Z</time>
      </trkpt>
      <trkpt lat="43.3889750" lon="-4.0284570">
        <ele>25.2</ele>
        <time>2021-07-17T09:36:10Z</time>
      </trkpt>
      <trkpt lat="43.3889450" lon="-4.0284780">
        <ele>25.6</ele>
        <time>2021-07-17T09:36:11Z</time>
      </trkpt>
      <trkpt lat="43.3888040" lon="-4.0285920">
        <ele>25.6</ele>
        <time>2021-07-17T09:36:16Z</time>
      </trkpt>
      <trkpt lat="43.3885700" lon="-4.0287690">
        <ele>26.0</ele>
        <time>2021-07-17T09:36:24Z</time>
      </trkpt>
      <trkpt lat="43.3885410" lon="-4.0287950">
        <ele>26.4</ele>
        <time>2021-07-17T09:36:25Z</time>
      </trkpt>
      <trkpt lat="43.3885140" lon="-4.0288190">
        <ele>27.2</ele>
        <time>2021-07-17T09:36:26Z</time>
      </trkpt>
      <trkpt lat="43.3884820" lon="-4.0288400">
        <ele>27.6</ele>
        <time>2021-07-17T09:36:27Z</time>
      </trkpt>
      <trkpt lat="43.3883220" lon="-4.0289560">
        <ele>27.6</ele>
        <time>2021-07-17T09:36:32Z</time>
      </trkpt>
      <trkpt lat="43.3881810" lon="-4.0290640">
        <ele>27.6</ele>
        <time>2021-07-17T09:36:37Z</time>
      </trkpt>
      <trkpt lat="43.3880950" lon="-4.0291300">
        <ele>27.6</ele>
        <time>2021-07-17T09:36:40Z</time>
      </trkpt>
      <trkpt lat="43.3880700" lon="-4.0291530">
        <ele>28.0</ele>
        <time>2021-07-17T09:36:41Z</time>
      </trkpt>
      <trkpt lat="43.3880460" lon="-4.0291740">
        <ele>28.4</ele>
        <time>2021-07-17T09:36:42Z</time>
      </trkpt>
      <trkpt lat="43.3880230" lon="-4.0291950">
        <ele>28.8</ele>
        <time>2021-07-17T09:36:43Z</time>
      </trkpt>
      <trkpt lat="43.3879980" lon="-4.0292200">
        <ele>29.2</ele>
        <time>2021-07-17T09:36:44Z</time>
      </trkpt>
      <trkpt lat="43.3879740" lon="-4.0292460">
        <ele>29.6</ele>
        <time>2021-07-17T09:36:45Z</time>
      </trkpt>
      <trkpt lat="43.3879240" lon="-4.0293050">
        <ele>29.6</ele>
        <time>2021-07-17T09:36:47Z</time>
      </trkpt>
      <trkpt lat="43.3878130" lon="-4.0295330">
        <ele>29.6</ele>
        <time>2021-07-17T09:36:53Z</time>
      </trkpt>
      <trkpt lat="43.3876480" lon="-4.0299780">
        <ele>29.6</ele>
        <time>2021-07-17T09:37:02Z</time>
      </trkpt>
      <trkpt lat="43.3874910" lon="-4.0304010">
        <ele>29.6</ele>
        <time>2021-07-17T09:37:10Z</time>
      </trkpt>
      <trkpt lat="43.3873050" lon="-4.0308900">
        <ele>29.6</ele>
        <time>2021-07-17T09:37:19Z</time>
      </trkpt>
      <trkpt lat="43.3872840" lon="-4.0309440">
        <ele>29.6</ele>
        <time>2021-07-17T09:37:20Z</time>
      </trkpt>
      <trkpt lat="43.3872170" lon="-4.0311130">
        <ele>30.0</ele>
        <time>2021-07-17T09:37:23Z</time>
      </trkpt>
      <trkpt lat="43.3871940" lon="-4.0311680">
        <ele>30.4</ele>
        <time>2021-07-17T09:37:24Z</time>
      </trkpt>
      <trkpt lat="43.3871720" lon="-4.0312230">
        <ele>31.0</ele>
        <time>2021-07-17T09:37:25Z</time>
      </trkpt>
      <trkpt lat="43.3871500" lon="-4.0312780">
        <ele>31.4</ele>
        <time>2021-07-17T09:37:26Z</time>
      </trkpt>
      <trkpt lat="43.3871290" lon="-4.0313320">
        <ele>31.8</ele>
        <time>2021-07-17T09:37:27Z</time>
      </trkpt>
      <trkpt lat="43.3871090" lon="-4.0313870">
        <ele>31.8</ele>
        <time>2021-07-17T09:37:28Z</time>
      </trkpt>
      <trkpt lat="43.3869280" lon="-4.0318810">
        <ele>31.8</ele>
        <time>2021-07-17T09:37:37Z</time>
      </trkpt>
      <trkpt lat="43.3867210" lon="-4.0322410">
        <ele>31.8</ele>
        <time>2021-07-17T09:37:45Z</time>
      </trkpt>
      <trkpt lat="43.3864870" lon="-4.0325040">
        <ele>31.8</ele>
        <time>2021-07-17T09:37:52Z</time>
      </trkpt>
      <trkpt lat="43.3862820" lon="-4.0326640">
        <ele>31.8</ele>
        <time>2021-07-17T09:37:57Z</time>
      </trkpt>
      <trkpt lat="43.3862400" lon="-4.0326870">
        <ele>31.8</ele>
        <time>2021-07-17T09:37:58Z</time>
      </trkpt>
      <trkpt lat="43.3861550" lon="-4.0327200">
        <ele>31.8</ele>
        <time>2021-07-17T09:38:00Z</time>
      </trkpt>
      <trkpt lat="43.3858210" lon="-4.0327870">
        <ele>31.8</ele>
        <time>2021-07-17T09:38:07Z</time>
      </trkpt>
      <trkpt lat="43.3854060" lon="-4.0328310">
        <ele>31.8</ele>
        <time>2021-07-17T09:38:16Z</time>
      </trkpt>
      <trkpt lat="43.3852090" lon="-4.0328430">
        <ele>31.8</ele>
        <time>2021-07-17T09:38:20Z</time>
      </trkpt>
      <trkpt lat="43.3849430" lon="-4.0328600">
        <ele>31.8</ele>
        <time>2021-07-17T09:38:25Z</time>
      </trkpt>
      <trkpt lat="43.3846480" lon="-4.0328780">
        <ele>31.8</ele>
        <time>2021-07-17T09:38:30Z</time>
      </trkpt>
      <trkpt lat="43.3844530" lon="-4.0329090">
        <ele>31.8</ele>
        <time>2021-07-17T09:38:33Z</time>
      </trkpt>
      <trkpt lat="43.3843160" lon="-4.0329690">
        <ele>31.8</ele>
        <time>2021-07-17T09:38:35Z</time>
      </trkpt>
      <trkpt lat="43.3841890" lon="-4.0330670">
        <ele>31.8</ele>
        <time>2021-07-17T09:38:37Z</time>
      </trkpt>
      <trkpt lat="43.3841260" lon="-4.0331260">
        <ele>31.4</ele>
        <time>2021-07-17T09:38:38Z</time>
      </trkpt>
      <trkpt lat="43.3840640" lon="-4.0331890">
        <ele>31.0</ele>
        <time>2021-07-17T09:38:39Z</time>
      </trkpt>
      <trkpt lat="43.3840050" lon="-4.0332580">
        <ele>30.4</ele>
        <time>2021-07-17T09:38:40Z</time>
      </trkpt>
      <trkpt lat="43.3839450" lon="-4.0333250">
        <ele>30.0</ele>
        <time>2021-07-17T09:38:41Z</time>
      </trkpt>
      <trkpt lat="43.3838870" lon="-4.0333900">
        <ele>29.6</ele>
        <time>2021-07-17T09:38:42Z</time>
      </trkpt>
      <trkpt lat="43.3837670" lon="-4.0335210">
        <ele>29.6</ele>
        <time>2021-07-17T09:38:44Z</time>
      </trkpt>
      <trkpt lat="43.3834810" lon="-4.0338270">
        <ele>29.2</ele>
        <time>2021-07-17T09:38:49Z</time>
      </trkpt>
      <trkpt lat="43.3834250" lon="-4.0338870">
        <ele>28.6</ele>
        <time>2021-07-17T09:38:50Z</time>
      </trkpt>
      <trkpt lat="43.3833670" lon="-4.0339510">
        <ele>28.2</ele>
        <time>2021-07-17T09:38:51Z</time>
      </trkpt>
      <trkpt lat="43.3833160" lon="-4.0340120">
        <ele>27.8</ele>
        <time>2021-07-17T09:38:52Z</time>
      </trkpt>
      <trkpt lat="43.3832630" lon="-4.0340740">
        <ele>27.4</ele>
        <time>2021-07-17T09:38:53Z</time>
      </trkpt>
      <trkpt lat="43.3832090" lon="-4.0341320">
        <ele>27.4</ele>
        <time>2021-07-17T09:38:54Z</time>
      </trkpt>
      <trkpt lat="43.3827990" lon="-4.0345870">
        <ele>27.4</ele>
        <time>2021-07-17T09:39:02Z</time>
      </trkpt>
      <trkpt lat="43.3827000" lon="-4.0346930">
        <ele>27.4</ele>
        <time>2021-07-17T09:39:04Z</time>
      </trkpt>
      <trkpt lat="43.3825610" lon="-4.0348500">
        <ele>27.0</ele>
        <time>2021-07-17T09:39:07Z</time>
      </trkpt>
      <trkpt lat="43.3825160" lon="-4.0349000">
        <ele>26.6</ele>
        <time>2021-07-17T09:39:08Z</time>
      </trkpt>
      <trkpt lat="43.3824700" lon="-4.0349520">
        <ele>26.0</ele>
        <time>2021-07-17T09:39:09Z</time>
      </trkpt>
      <trkpt lat="43.3824260" lon="-4.0350030">
        <ele>25.6</ele>
        <time>2021-07-17T09:39:10Z</time>
      </trkpt>
      <trkpt lat="43.3823820" lon="-4.0350540">
        <ele>25.2</ele>
        <time>2021-07-17T09:39:11Z</time>
      </trkpt>
      <trkpt lat="43.3822960" lon="-4.0351590">
        <ele>25.2</ele>
        <time>2021-07-17T09:39:13Z</time>
      </trkpt>
      <trkpt lat="43.3819750" lon="-4.0355490">
        <ele>24.8</ele>
        <time>2021-07-17T09:39:20Z</time>
      </trkpt>
      <trkpt lat="43.3819270" lon="-4.0356130">
        <ele>24.4</ele>
        <time>2021-07-17T09:39:21Z</time>
      </trkpt>
      <trkpt lat="43.3818810" lon="-4.0356750">
        <ele>24.0</ele>
        <time>2021-07-17T09:39:22Z</time>
      </trkpt>
      <trkpt lat="43.3818370" lon="-4.0357390">
        <ele>23.4</ele>
        <time>2021-07-17T09:39:23Z</time>
      </trkpt>
      <trkpt lat="43.3817920" lon="-4.0358030">
        <ele>23.0</ele>
        <time>2021-07-17T09:39:24Z</time>
      </trkpt>
      <trkpt lat="43.3815290" lon="-4.0362130">
        <ele>23.0</ele>
        <time>2021-07-17T09:39:30Z</time>
      </trkpt>
      <trkpt lat="43.3813210" lon="-4.0365460">
        <ele>22.6</ele>
        <time>2021-07-17T09:39:35Z</time>
      </trkpt>
      <trkpt lat="43.3812810" lon="-4.0366100">
        <ele>22.2</ele>
        <time>2021-07-17T09:39:36Z</time>
      </trkpt>
      <trkpt lat="43.3812410" lon="-4.0366740">
        <ele>21.6</ele>
        <time>2021-07-17T09:39:37Z</time>
      </trkpt>
      <trkpt lat="43.3812010" lon="-4.0367370">
        <ele>21.2</ele>
        <time>2021-07-17T09:39:38Z</time>
      </trkpt>
      <trkpt lat="43.3811600" lon="-4.0368030">
        <ele>20.8</ele>
        <time>2021-07-17T09:39:39Z</time>
      </trkpt>
      <trkpt lat="43.3810030" lon="-4.0370490">
        <ele>20.4</ele>
        <time>2021-07-17T09:39:43Z</time>
      </trkpt>
      <trkpt lat="43.3809700" lon="-4.0371100">
        <ele>20.0</ele>
        <time>2021-07-17T09:39:44Z</time>
      </trkpt>
      <trkpt lat="43.3809410" lon="-4.0371720">
        <ele>19.6</ele>
        <time>2021-07-17T09:39:45Z</time>
      </trkpt>
      <trkpt lat="43.3809140" lon="-4.0372330">
        <ele>19.2</ele>
        <time>2021-07-17T09:39:46Z</time>
      </trkpt>
      <trkpt lat="43.3808890" lon="-4.0372960">
        <ele>18.6</ele>
        <time>2021-07-17T09:39:47Z</time>
      </trkpt>
      <trkpt lat="43.3808470" lon="-4.0374260">
        <ele>18.6</ele>
        <time>2021-07-17T09:39:49Z</time>
      </trkpt>
      <trkpt lat="43.3808190" lon="-4.0375630">
        <ele>18.6</ele>
        <time>2021-07-17T09:39:51Z</time>
      </trkpt>
      <trkpt lat="43.3808010" lon="-4.0376230">
        <ele>18.6</ele>
        <time>2021-07-17T09:39:52Z</time>
      </trkpt>
      <trkpt lat="43.3807420" lon="-4.0377270">
        <ele>18.6</ele>
        <time>2021-07-17T09:39:54Z</time>
      </trkpt>
      <trkpt lat="43.3805730" lon="-4.0378170">
        <ele>18.6</ele>
        <time>2021-07-17T09:39:58Z</time>
      </trkpt>
      <trkpt lat="43.3804850" lon="-4.0378430">
        <ele>18.6</ele>
        <time>2021-07-17T09:40:00Z</time>
      </trkpt>
      <trkpt lat="43.3803990" lon="-4.0378930">
        <ele>18.6</ele>
        <time>2021-07-17T09:40:02Z</time>
      </trkpt>
      <trkpt lat="43.3803550" lon="-4.0379290">
        <ele>18.6</ele>
        <time>2021-07-17T09:40:03Z</time>
      </trkpt>
      <trkpt lat="43.3802180" lon="-4.0380370">
        <ele>18.6</ele>
        <time>2021-07-17T09:40:06Z</time>
      </trkpt>
      <trkpt lat="43.3799710" lon="-4.0381820">
        <ele>18.6</ele>
        <time>2021-07-17T09:40:11Z</time>
      </trkpt>
      <trkpt lat="43.3799170" lon="-4.0382070">
        <ele>18.6</ele>
        <time>2021-07-17T09:40:12Z</time>
      </trkpt>
      <trkpt lat="43.3797070" lon="-4.0383030">
        <ele>18.6</ele>
        <time>2021-07-17T09:40:16Z</time>
      </trkpt>
      <trkpt lat="43.3795570" lon="-4.0383670">
        <ele>18.6</ele>
        <time>2021-07-17T09:40:19Z</time>
      </trkpt>
      <trkpt lat="43.3792750" lon="-4.0384950">
        <ele>18.6</ele>
        <time>2021-07-17T09:40:25Z</time>
      </trkpt>
      <trkpt lat="43.3789050" lon="-4.0386560">
        <ele>18.6</ele>
        <time>2021-07-17T09:40:33Z</time>
      </trkpt>
      <trkpt lat="43.3786680" lon="-4.0387370">
        <ele>18.6</ele>
        <time>2021-07-17T09:40:39Z</time>
      </trkpt>
      <trkpt lat="43.3784850" lon="-4.0388370">
        <ele>18.6</ele>
        <time>2021-07-17T09:40:45Z</time>
      </trkpt>
      <trkpt lat="43.3784760" lon="-4.0388570">
        <ele>18.6</ele>
        <time>2021-07-17T09:40:46Z</time>
      </trkpt>
      <trkpt lat="43.3784750" lon="-4.0388810">
        <ele>18.6</ele>
        <time>2021-07-17T09:40:48Z</time>
      </trkpt>
      <trkpt lat="43.3784560" lon="-4.0388950">
        <ele>18.6</ele>
        <time>2021-07-17T09:41:12Z</time>
      </trkpt>
      <trkpt lat="43.3784190" lon="-4.0388790">
        <ele>18.6</ele>
        <time>2021-07-17T09:41:15Z</time>
      </trkpt>
      <trkpt lat="43.3783950" lon="-4.0388830">
        <ele>18.6</ele>
        <time>2021-07-17T09:41:17Z</time>
      </trkpt>
      <trkpt lat="43.3783520" lon="-4.0389050">
        <ele>18.6</ele>
        <time>2021-07-17T09:41:19Z</time>
      </trkpt>
      <trkpt lat="43.3782280" lon="-4.0389600">
        <ele>18.6</ele>
        <time>2021-07-17T09:41:23Z</time>
      </trkpt>
      <trkpt lat="43.3781540" lon="-4.0389930">
        <ele>18.6</ele>
        <time>2021-07-17T09:41:25Z</time>
      </trkpt>
      <trkpt lat="43.3777840" lon="-4.0391460">
        <ele>18.6</ele>
        <time>2021-07-17T09:41:34Z</time>
      </trkpt>
      <trkpt lat="43.3774280" lon="-4.0392940">
        <ele>18.6</ele>
        <time>2021-07-17T09:41:42Z</time>
      </trkpt>
      <trkpt lat="43.3771140" lon="-4.0394180">
        <ele>18.6</ele>
        <time>2021-07-17T09:41:49Z</time>
      </trkpt>
      <trkpt lat="43.3766880" lon="-4.0395930">
        <ele>18.6</ele>
        <time>2021-07-17T09:41:58Z</time>
      </trkpt>
      <trkpt lat="43.3766450" lon="-4.0396150">
        <ele>18.6</ele>
        <time>2021-07-17T09:41:59Z</time>
      </trkpt>
      <trkpt lat="43.3764240" lon="-4.0397180">
        <ele>18.6</ele>
        <time>2021-07-17T09:42:04Z</time>
      </trkpt>
      <trkpt lat="43.3760890" lon="-4.0398460">
        <ele>18.6</ele>
        <time>2021-07-17T09:42:11Z</time>
      </trkpt>
      <trkpt lat="43.3757190" lon="-4.0400130">
        <ele>18.6</ele>
        <time>2021-07-17T09:42:19Z</time>
      </trkpt>
      <trkpt lat="43.3756730" lon="-4.0400350">
        <ele>18.6</ele>
        <time>2021-07-17T09:42:20Z</time>
      </trkpt>
      <trkpt lat="43.3754340" lon="-4.0401360">
        <ele>18.6</ele>
        <time>2021-07-17T09:42:25Z</time>
      </trkpt>
      <trkpt lat="43.3751170" lon="-4.0402810">
        <ele>18.6</ele>
        <time>2021-07-17T09:42:32Z</time>
      </trkpt>
      <trkpt lat="43.3749250" lon="-4.0403630">
        <ele>18.6</ele>
        <time>2021-07-17T09:42:36Z</time>
      </trkpt>
      <trkpt lat="43.3747900" lon="-4.0404250">
        <ele>18.6</ele>
        <time>2021-07-17T09:42:39Z</time>
      </trkpt>
      <trkpt lat="43.3746620" lon="-4.0404760">
        <ele>18.6</ele>
        <time>2021-07-17T09:42:42Z</time>
      </trkpt>
      <trkpt lat="43.3746190" lon="-4.0404940">
        <ele>18.6</ele>
        <time>2021-07-17T09:42:43Z</time>
      </trkpt>
      <trkpt lat="43.3744930" lon="-4.0405490">
        <ele>18.6</ele>
        <time>2021-07-17T09:42:46Z</time>
      </trkpt>
      <trkpt lat="43.3742300" lon="-4.0406540">
        <ele>18.6</ele>
        <time>2021-07-17T09:42:53Z</time>
      </trkpt>
      <trkpt lat="43.3739640" lon="-4.0407610">
        <ele>18.6</ele>
        <time>2021-07-17T09:43:00Z</time>
      </trkpt>
      <trkpt lat="43.3738170" lon="-4.0408290">
        <ele>18.6</ele>
        <time>2021-07-17T09:43:04Z</time>
      </trkpt>
      <trkpt lat="43.3736690" lon="-4.0408850">
        <ele>18.6</ele>
        <time>2021-07-17T09:43:08Z</time>
      </trkpt>
      <trkpt lat="43.3735010" lon="-4.0409550">
        <ele>18.6</ele>
        <time>2021-07-17T09:43:13Z</time>
      </trkpt>
      <trkpt lat="43.3734410" lon="-4.0410010">
        <ele>18.6</ele>
        <time>2021-07-17T09:43:15Z</time>
      </trkpt>
      <trkpt lat="43.3733500" lon="-4.0411520">
        <ele>18.6</ele>
        <time>2021-07-17T09:43:19Z</time>
      </trkpt>
      <trkpt lat="43.3733340" lon="-4.0412030">
        <ele>18.6</ele>
        <time>2021-07-17T09:43:20Z</time>
      </trkpt>
      <trkpt lat="43.3733090" lon="-4.0413610">
        <ele>19.2</ele>
        <time>2021-07-17T09:43:23Z</time>
      </trkpt>
      <trkpt lat="43.3733060" lon="-4.0414140">
        <ele>19.6</ele>
        <time>2021-07-17T09:43:24Z</time>
      </trkpt>
      <trkpt lat="43.3733040" lon="-4.0414640">
        <ele>20.4</ele>
        <time>2021-07-17T09:43:25Z</time>
      </trkpt>
      <trkpt lat="43.3733080" lon="-4.0415130">
        <ele>21.0</ele>
        <time>2021-07-17T09:43:26Z</time>
      </trkpt>
      <trkpt lat="43.3733360" lon="-4.0416430">
        <ele>21.0</ele>
        <time>2021-07-17T09:43:29Z</time>
      </trkpt>
      <trkpt lat="43.3733470" lon="-4.0416840">
        <ele>21.0</ele>
        <time>2021-07-17T09:43:30Z</time>
      </trkpt>
      <trkpt lat="43.3733800" lon="-4.0418060">
        <ele>21.4</ele>
        <time>2021-07-17T09:43:33Z</time>
      </trkpt>
      <trkpt lat="43.3733910" lon="-4.0418480">
        <ele>21.8</ele>
        <time>2021-07-17T09:43:34Z</time>
      </trkpt>
      <trkpt lat="43.3734020" lon="-4.0418890">
        <ele>22.2</ele>
        <time>2021-07-17T09:43:35Z</time>
      </trkpt>
      <trkpt lat="43.3734150" lon="-4.0419340">
        <ele>22.6</ele>
        <time>2021-07-17T09:43:36Z</time>
      </trkpt>
      <trkpt lat="43.3734280" lon="-4.0419760">
        <ele>23.0</ele>
        <time>2021-07-17T09:43:37Z</time>
      </trkpt>
      <trkpt lat="43.3734390" lon="-4.0420200">
        <ele>23.0</ele>
        <time>2021-07-17T09:43:38Z</time>
      </trkpt>
      <trkpt lat="43.3734930" lon="-4.0422190">
        <ele>23.0</ele>
        <time>2021-07-17T09:43:43Z</time>
      </trkpt>
      <trkpt lat="43.3735150" lon="-4.0422970">
        <ele>23.4</ele>
        <time>2021-07-17T09:43:45Z</time>
      </trkpt>
      <trkpt lat="43.3735250" lon="-4.0423360">
        <ele>23.8</ele>
        <time>2021-07-17T09:43:46Z</time>
      </trkpt>
      <trkpt lat="43.3735370" lon="-4.0423800">
        <ele>24.2</ele>
        <time>2021-07-17T09:43:47Z</time>
      </trkpt>
      <trkpt lat="43.3735490" lon="-4.0424240">
        <ele>24.6</ele>
        <time>2021-07-17T09:43:48Z</time>
      </trkpt>
      <trkpt lat="43.3735630" lon="-4.0424710">
        <ele>25.0</ele>
        <time>2021-07-17T09:43:49Z</time>
      </trkpt>
      <trkpt lat="43.3736300" lon="-4.0426960">
        <ele>25.0</ele>
        <time>2021-07-17T09:43:54Z</time>
      </trkpt>
      <trkpt lat="43.3737380" lon="-4.0429440">
        <ele>25.0</ele>
        <time>2021-07-17T09:43:59Z</time>
      </trkpt>
      <trkpt lat="43.3737710" lon="-4.0429910">
        <ele>25.0</ele>
        <time>2021-07-17T09:44:00Z</time>
      </trkpt>
      <trkpt lat="43.3738990" lon="-4.0431060">
        <ele>25.0</ele>
        <time>2021-07-17T09:44:03Z</time>
      </trkpt>
      <trkpt lat="43.3739980" lon="-4.0431630">
        <ele>25.0</ele>
        <time>2021-07-17T09:44:05Z</time>
      </trkpt>
      <trkpt lat="43.3741780" lon="-4.0431980">
        <ele>25.0</ele>
        <time>2021-07-17T09:44:08Z</time>
      </trkpt>
      <trkpt lat="43.3742410" lon="-4.0432060">
        <ele>25.0</ele>
        <time>2021-07-17T09:44:09Z</time>
      </trkpt>
      <trkpt lat="43.3743080" lon="-4.0432180">
        <ele>25.0</ele>
        <time>2021-07-17T09:44:10Z</time>
      </trkpt>
      <trkpt lat="43.3744340" lon="-4.0432420">
        <ele>25.0</ele>
        <time>2021-07-17T09:44:12Z</time>
      </trkpt>
      <trkpt lat="43.3745610" lon="-4.0432660">
        <ele>25.0</ele>
        <time>2021-07-17T09:44:14Z</time>
      </trkpt>
      <trkpt lat="43.3746850" lon="-4.0432920">
        <ele>24.4</ele>
        <time>2021-07-17T09:44:16Z</time>
      </trkpt>
      <trkpt lat="43.3747440" lon="-4.0433060">
        <ele>24.0</ele>
        <time>2021-07-17T09:44:17Z</time>
      </trkpt>
      <trkpt lat="43.3748030" lon="-4.0433210">
        <ele>23.6</ele>
        <time>2021-07-17T09:44:18Z</time>
      </trkpt>
      <trkpt lat="43.3748630" lon="-4.0433340">
        <ele>23.0</ele>
        <time>2021-07-17T09:44:19Z</time>
      </trkpt>
      <trkpt lat="43.3749240" lon="-4.0433460">
        <ele>22.6</ele>
        <time>2021-07-17T09:44:20Z</time>
      </trkpt>
      <trkpt lat="43.3750410" lon="-4.0433720">
        <ele>22.6</ele>
        <time>2021-07-17T09:44:22Z</time>
      </trkpt>
      <trkpt lat="43.3750950" lon="-4.0433860">
        <ele>22.6</ele>
        <time>2021-07-17T09:44:23Z</time>
      </trkpt>
      <trkpt lat="43.3751920" lon="-4.0434130">
        <ele>22.6</ele>
        <time>2021-07-17T09:44:25Z</time>
      </trkpt>
      <trkpt lat="43.3753580" lon="-4.0434720">
        <ele>22.6</ele>
        <time>2021-07-17T09:44:29Z</time>
      </trkpt>
      <trkpt lat="43.3753950" lon="-4.0434910">
        <ele>22.6</ele>
        <time>2021-07-17T09:44:30Z</time>
      </trkpt>
      <trkpt lat="43.3754670" lon="-4.0435350">
        <ele>22.6</ele>
        <time>2021-07-17T09:44:32Z</time>
      </trkpt>
      <trkpt lat="43.3754990" lon="-4.0435520">
        <ele>22.6</ele>
        <time>2021-07-17T09:44:33Z</time>
      </trkpt>
      <trkpt lat="43.3755280" lon="-4.0435710">
        <ele>22.6</ele>
        <time>2021-07-17T09:44:34Z</time>
      </trkpt>
      <trkpt lat="43.3756890" lon="-4.0437640">
        <ele>22.6</ele>
        <time>2021-07-17T09:44:40Z</time>
      </trkpt>
      <trkpt lat="43.3758210" lon="-4.0440050">
        <ele>22.6</ele>
        <time>2021-07-17T09:44:45Z</time>
      </trkpt>
      <trkpt lat="43.3758930" lon="-4.0441570">
        <ele>22.6</ele>
        <time>2021-07-17T09:44:48Z</time>
      </trkpt>
      <trkpt lat="43.3759900" lon="-4.0443640">
        <ele>22.6</ele>
        <time>2021-07-17T09:44:52Z</time>
      </trkpt>
      <trkpt lat="43.3760900" lon="-4.0445790">
        <ele>22.6</ele>
        <time>2021-07-17T09:44:56Z</time>
      </trkpt>
      <trkpt lat="43.3763700" lon="-4.0451580">
        <ele>22.6</ele>
        <time>2021-07-17T09:45:07Z</time>
      </trkpt>
      <trkpt lat="43.3766200" lon="-4.0456250">
        <ele>22.6</ele>
        <time>2021-07-17T09:45:16Z</time>
      </trkpt>
      <trkpt lat="43.3767860" lon="-4.0459560">
        <ele>22.6</ele>
        <time>2021-07-17T09:45:23Z</time>
      </trkpt>
      <trkpt lat="43.3769340" lon="-4.0462590">
        <ele>22.6</ele>
        <time>2021-07-17T09:45:30Z</time>
      </trkpt>
      <trkpt lat="43.3770730" lon="-4.0465400">
        <ele>22.6</ele>
        <time>2021-07-17T09:45:36Z</time>
      </trkpt>
      <trkpt lat="43.3771200" lon="-4.0466230">
        <ele>22.6</ele>
        <time>2021-07-17T09:45:38Z</time>
      </trkpt>
      <trkpt lat="43.3772190" lon="-4.0468270">
        <ele>22.6</ele>
        <time>2021-07-17T09:45:43Z</time>
      </trkpt>
      <trkpt lat="43.3773170" lon="-4.0470430">
        <ele>22.6</ele>
        <time>2021-07-17T09:45:48Z</time>
      </trkpt>
      <trkpt lat="43.3774460" lon="-4.0473110">
        <ele>22.6</ele>
        <time>2021-07-17T09:45:54Z</time>
      </trkpt>
      <trkpt lat="43.3775190" lon="-4.0474460">
        <ele>22.6</ele>
        <time>2021-07-17T09:45:57Z</time>
      </trkpt>
      <trkpt lat="43.3777020" lon="-4.0477620">
        <ele>23.0</ele>
        <time>2021-07-17T09:46:04Z</time>
      </trkpt>
      <trkpt lat="43.3777230" lon="-4.0477980">
        <ele>23.4</ele>
        <time>2021-07-17T09:46:05Z</time>
      </trkpt>
      <trkpt lat="43.3777430" lon="-4.0478340">
        <ele>23.8</ele>
        <time>2021-07-17T09:46:06Z</time>
      </trkpt>
      <trkpt lat="43.3777610" lon="-4.0478710">
        <ele>24.4</ele>
        <time>2021-07-17T09:46:07Z</time>
      </trkpt>
      <trkpt lat="43.3777800" lon="-4.0479080">
        <ele>24.8</ele>
        <time>2021-07-17T09:46:08Z</time>
      </trkpt>
      <trkpt lat="43.3778580" lon="-4.0480490">
        <ele>24.8</ele>
        <time>2021-07-17T09:46:12Z</time>
      </trkpt>
      <trkpt lat="43.3778970" lon="-4.0481140">
        <ele>24.8</ele>
        <time>2021-07-17T09:46:14Z</time>
      </trkpt>
      <trkpt lat="43.3780550" lon="-4.0482500">
        <ele>24.8</ele>
        <time>2021-07-17T09:46:20Z</time>
      </trkpt>
      <trkpt lat="43.3781890" lon="-4.0483700">
        <ele>24.8</ele>
        <time>2021-07-17T09:46:26Z</time>
      </trkpt>
      <trkpt lat="43.3781910" lon="-4.0483760">
        <ele>24.8</ele>
        <time>2021-07-17T09:46:27Z</time>
      </trkpt>
      <trkpt lat="43.3782210" lon="-4.0483600">
        <ele>26.8</ele>
        <time>2021-07-17T09:48:44Z</time>
      </trkpt>
      <trkpt lat="43.3782370" lon="-4.0483610">
        <ele>26.8</ele>
        <time>2021-07-17T09:48:45Z</time>
      </trkpt>
      <trkpt lat="43.3783040" lon="-4.0483810">
        <ele>26.8</ele>
        <time>2021-07-17T09:48:48Z</time>
      </trkpt>
      <trkpt lat="43.3783610" lon="-4.0483890">
        <ele>26.8</ele>
        <time>2021-07-17T09:48:50Z</time>
      </trkpt>
      <trkpt lat="43.3784210" lon="-4.0483910">
        <ele>26.8</ele>
        <time>2021-07-17T09:48:52Z</time>
      </trkpt>
      <trkpt lat="43.3784740" lon="-4.0483810">
        <ele>26.8</ele>
        <time>2021-07-17T09:48:54Z</time>
      </trkpt>
      <trkpt lat="43.3785250" lon="-4.0483650">
        <ele>26.8</ele>
        <time>2021-07-17T09:48:56Z</time>
      </trkpt>
      <trkpt lat="43.3786070" lon="-4.0483330">
        <ele>27.4</ele>
        <time>2021-07-17T09:48:59Z</time>
      </trkpt>
      <trkpt lat="43.3786330" lon="-4.0483170">
        <ele>27.8</ele>
        <time>2021-07-17T09:49:00Z</time>
      </trkpt>
      <trkpt lat="43.3786610" lon="-4.0483030">
        <ele>28.2</ele>
        <time>2021-07-17T09:49:01Z</time>
      </trkpt>
      <trkpt lat="43.3786870" lon="-4.0482860">
        <ele>28.8</ele>
        <time>2021-07-17T09:49:02Z</time>
      </trkpt>
      <trkpt lat="43.3787140" lon="-4.0482700">
        <ele>29.2</ele>
        <time>2021-07-17T09:49:03Z</time>
      </trkpt>
      <trkpt lat="43.3788240" lon="-4.0482130">
        <ele>29.2</ele>
        <time>2021-07-17T09:49:07Z</time>
      </trkpt>
      <trkpt lat="43.3789040" lon="-4.0481820">
        <ele>29.2</ele>
        <time>2021-07-17T09:49:10Z</time>
      </trkpt>
      <trkpt lat="43.3789790" lon="-4.0481480">
        <ele>29.2</ele>
        <time>2021-07-17T09:49:13Z</time>
      </trkpt>
      <trkpt lat="43.3790560" lon="-4.0481170">
        <ele>29.6</ele>
        <time>2021-07-17T09:49:16Z</time>
      </trkpt>
      <trkpt lat="43.3790780" lon="-4.0481100">
        <ele>30.0</ele>
        <time>2021-07-17T09:49:17Z</time>
      </trkpt>
      <trkpt lat="43.3791010" lon="-4.0481000">
        <ele>30.4</ele>
        <time>2021-07-17T09:49:18Z</time>
      </trkpt>
      <trkpt lat="43.3791220" lon="-4.0480920">
        <ele>30.8</ele>
        <time>2021-07-17T09:49:19Z</time>
      </trkpt>
      <trkpt lat="43.3791440" lon="-4.0480840">
        <ele>31.2</ele>
        <time>2021-07-17T09:49:20Z</time>
      </trkpt>
      <trkpt lat="43.3792190" lon="-4.0480600">
        <ele>31.2</ele>
        <time>2021-07-17T09:49:23Z</time>
      </trkpt>
      <trkpt lat="43.3793320" lon="-4.0480300">
        <ele>31.6</ele>
        <time>2021-07-17T09:49:27Z</time>
      </trkpt>
      <trkpt lat="43.3793610" lon="-4.0480260">
        <ele>32.2</ele>
        <time>2021-07-17T09:49:28Z</time>
      </trkpt>
      <trkpt lat="43.3793910" lon="-4.0480240">
        <ele>32.6</ele>
        <time>2021-07-17T09:49:29Z</time>
      </trkpt>
      <trkpt lat="43.3794200" lon="-4.0480230">
        <ele>33.0</ele>
        <time>2021-07-17T09:49:30Z</time>
      </trkpt>
      <trkpt lat="43.3794490" lon="-4.0480240">
        <ele>33.4</ele>
        <time>2021-07-17T09:49:31Z</time>
      </trkpt>
      <trkpt lat="43.3795930" lon="-4.0480380">
        <ele>33.8</ele>
        <time>2021-07-17T09:49:36Z</time>
      </trkpt>
      <trkpt lat="43.3796230" lon="-4.0480440">
        <ele>34.2</ele>
        <time>2021-07-17T09:49:37Z</time>
      </trkpt>
      <trkpt lat="43.3796540" lon="-4.0480520">
        <ele>34.6</ele>
        <time>2021-07-17T09:49:38Z</time>
      </trkpt>
      <trkpt lat="43.3796870" lon="-4.0480650">
        <ele>35.0</ele>
        <time>2021-07-17T09:49:39Z</time>
      </trkpt>
      <trkpt lat="43.3797170" lon="-4.0480780">
        <ele>35.4</ele>
        <time>2021-07-17T09:49:40Z</time>
      </trkpt>
      <trkpt lat="43.3798920" lon="-4.0481730">
        <ele>35.4</ele>
        <time>2021-07-17T09:49:46Z</time>
      </trkpt>
      <trkpt lat="43.3799210" lon="-4.0481890">
        <ele>35.4</ele>
        <time>2021-07-17T09:49:47Z</time>
      </trkpt>
      <trkpt lat="43.3799520" lon="-4.0482080">
        <ele>36.0</ele>
        <time>2021-07-17T09:49:48Z</time>
      </trkpt>
      <trkpt lat="43.3799840" lon="-4.0482240">
        <ele>36.4</ele>
        <time>2021-07-17T09:49:49Z</time>
      </trkpt>
      <trkpt lat="43.3800150" lon="-4.0482430">
        <ele>36.8</ele>
        <time>2021-07-17T09:49:50Z</time>
      </trkpt>
      <trkpt lat="43.3800470" lon="-4.0482630">
        <ele>37.2</ele>
        <time>2021-07-17T09:49:51Z</time>
      </trkpt>
      <trkpt lat="43.3800800" lon="-4.0482830">
        <ele>37.6</ele>
        <time>2021-07-17T09:49:52Z</time>
      </trkpt>
      <trkpt lat="43.3802160" lon="-4.0483670">
        <ele>37.6</ele>
        <time>2021-07-17T09:49:56Z</time>
      </trkpt>
      <trkpt lat="43.3804750" lon="-4.0485190">
        <ele>37.6</ele>
        <time>2021-07-17T09:50:03Z</time>
      </trkpt>
      <trkpt lat="43.3806620" lon="-4.0486220">
        <ele>37.6</ele>
        <time>2021-07-17T09:50:07Z</time>
      </trkpt>
      <trkpt lat="43.3807760" lon="-4.0486830">
        <ele>37.6</ele>
        <time>2021-07-17T09:50:09Z</time>
      </trkpt>
      <trkpt lat="43.3809500" lon="-4.0487890">
        <ele>37.6</ele>
        <time>2021-07-17T09:50:12Z</time>
      </trkpt>
      <trkpt lat="43.3810690" lon="-4.0488620">
        <ele>37.6</ele>
        <time>2021-07-17T09:50:14Z</time>
      </trkpt>
      <trkpt lat="43.3811280" lon="-4.0488940">
        <ele>37.2</ele>
        <time>2021-07-17T09:50:15Z</time>
      </trkpt>
      <trkpt lat="43.3811880" lon="-4.0489280">
        <ele>36.8</ele>
        <time>2021-07-17T09:50:16Z</time>
      </trkpt>
      <trkpt lat="43.3812430" lon="-4.0489600">
        <ele>36.4</ele>
        <time>2021-07-17T09:50:17Z</time>
      </trkpt>
      <trkpt lat="43.3812980" lon="-4.0489880">
        <ele>36.0</ele>
        <time>2021-07-17T09:50:18Z</time>
      </trkpt>
      <trkpt lat="43.3813530" lon="-4.0490160">
        <ele>35.6</ele>
        <time>2021-07-17T09:50:19Z</time>
      </trkpt>
      <trkpt lat="43.3814540" lon="-4.0490760">
        <ele>35.6</ele>
        <time>2021-07-17T09:50:21Z</time>
      </trkpt>
      <trkpt lat="43.3815590" lon="-4.0491320">
        <ele>35.6</ele>
        <time>2021-07-17T09:50:23Z</time>
      </trkpt>
      <trkpt lat="43.3816130" lon="-4.0491540">
        <ele>35.6</ele>
        <time>2021-07-17T09:50:24Z</time>
      </trkpt>
      <trkpt lat="43.3817220" lon="-4.0491780">
        <ele>35.6</ele>
        <time>2021-07-17T09:50:26Z</time>
      </trkpt>
      <trkpt lat="43.3818850" lon="-4.0491700">
        <ele>35.6</ele>
        <time>2021-07-17T09:50:29Z</time>
      </trkpt>
      <trkpt lat="43.3820370" lon="-4.0491250">
        <ele>35.6</ele>
        <time>2021-07-17T09:50:32Z</time>
      </trkpt>
      <trkpt lat="43.3821230" lon="-4.0490890">
        <ele>35.6</ele>
        <time>2021-07-17T09:50:34Z</time>
      </trkpt>
      <trkpt lat="43.3821650" lon="-4.0490710">
        <ele>35.6</ele>
        <time>2021-07-17T09:50:35Z</time>
      </trkpt>
      <trkpt lat="43.3822410" lon="-4.0490260">
        <ele>35.6</ele>
        <time>2021-07-17T09:50:37Z</time>
      </trkpt>
      <trkpt lat="43.3823720" lon="-4.0489410">
        <ele>35.6</ele>
        <time>2021-07-17T09:50:41Z</time>
      </trkpt>
      <trkpt lat="43.3825300" lon="-4.0488240">
        <ele>35.6</ele>
        <time>2021-07-17T09:50:46Z</time>
      </trkpt>
      <trkpt lat="43.3825600" lon="-4.0488030">
        <ele>35.6</ele>
        <time>2021-07-17T09:50:47Z</time>
      </trkpt>
      <trkpt lat="43.3826230" lon="-4.0487620">
        <ele>35.6</ele>
        <time>2021-07-17T09:50:49Z</time>
      </trkpt>
      <trkpt lat="43.3826520" lon="-4.0487380">
        <ele>36.0</ele>
        <time>2021-07-17T09:50:50Z</time>
      </trkpt>
      <trkpt lat="43.3826840" lon="-4.0487150">
        <ele>36.4</ele>
        <time>2021-07-17T09:50:51Z</time>
      </trkpt>
      <trkpt lat="43.3827150" lon="-4.0486930">
        <ele>36.8</ele>
        <time>2021-07-17T09:50:52Z</time>
      </trkpt>
      <trkpt lat="43.3827480" lon="-4.0486690">
        <ele>37.2</ele>
        <time>2021-07-17T09:50:53Z</time>
      </trkpt>
      <trkpt lat="43.3827780" lon="-4.0486480">
        <ele>37.6</ele>
        <time>2021-07-17T09:50:54Z</time>
      </trkpt>
      <trkpt lat="43.3828110" lon="-4.0486230">
        <ele>37.6</ele>
        <time>2021-07-17T09:50:55Z</time>
      </trkpt>
      <trkpt lat="43.3830840" lon="-4.0484230">
        <ele>37.6</ele>
        <time>2021-07-17T09:51:03Z</time>
      </trkpt>
      <trkpt lat="43.3831600" lon="-4.0483640">
        <ele>37.6</ele>
        <time>2021-07-17T09:51:05Z</time>
      </trkpt>
      <trkpt lat="43.3833480" lon="-4.0482120">
        <ele>37.6</ele>
        <time>2021-07-17T09:51:10Z</time>
      </trkpt>
      <trkpt lat="43.3835920" lon="-4.0480310">
        <ele>37.6</ele>
        <time>2021-07-17T09:51:16Z</time>
      </trkpt>
      <trkpt lat="43.3836720" lon="-4.0479760">
        <ele>37.6</ele>
        <time>2021-07-17T09:51:18Z</time>
      </trkpt>
      <trkpt lat="43.3838780" lon="-4.0478300">
        <ele>37.6</ele>
        <time>2021-07-17T09:51:23Z</time>
      </trkpt>
      <trkpt lat="43.3840090" lon="-4.0477370">
        <ele>37.6</ele>
        <time>2021-07-17T09:51:26Z</time>
      </trkpt>
      <trkpt lat="43.3843780" lon="-4.0474650">
        <ele>37.6</ele>
        <time>2021-07-17T09:51:34Z</time>
      </trkpt>
      <trkpt lat="43.3845110" lon="-4.0473680">
        <ele>37.6</ele>
        <time>2021-07-17T09:51:37Z</time>
      </trkpt>
      <trkpt lat="43.3846450" lon="-4.0472650">
        <ele>37.6</ele>
        <time>2021-07-17T09:51:40Z</time>
      </trkpt>
      <trkpt lat="43.3846860" lon="-4.0472330">
        <ele>37.6</ele>
        <time>2021-07-17T09:51:41Z</time>
      </trkpt>
      <trkpt lat="43.3847990" lon="-4.0471510">
        <ele>37.6</ele>
        <time>2021-07-17T09:51:44Z</time>
      </trkpt>
      <trkpt lat="43.3849070" lon="-4.0470660">
        <ele>37.6</ele>
        <time>2021-07-17T09:51:47Z</time>
      </trkpt>
      <trkpt lat="43.3849800" lon="-4.0470180">
        <ele>37.6</ele>
        <time>2021-07-17T09:51:49Z</time>
      </trkpt>
      <trkpt lat="43.3851890" lon="-4.0468880">
        <ele>37.6</ele>
        <time>2021-07-17T09:51:55Z</time>
      </trkpt>
      <trkpt lat="43.3854870" lon="-4.0467650">
        <ele>37.6</ele>
        <time>2021-07-17T09:52:01Z</time>
      </trkpt>
      <trkpt lat="43.3857440" lon="-4.0466840">
        <ele>37.6</ele>
        <time>2021-07-17T09:52:06Z</time>
      </trkpt>
      <trkpt lat="43.3859540" lon="-4.0466230">
        <ele>37.6</ele>
        <time>2021-07-17T09:52:10Z</time>
      </trkpt>
      <trkpt lat="43.3860980" lon="-4.0465890">
        <ele>37.6</ele>
        <time>2021-07-17T09:52:13Z</time>
      </trkpt>
      <trkpt lat="43.3861950" lon="-4.0465610">
        <ele>37.6</ele>
        <time>2021-07-17T09:52:15Z</time>
      </trkpt>
      <trkpt lat="43.3862910" lon="-4.0465340">
        <ele>37.6</ele>
        <time>2021-07-17T09:52:17Z</time>
      </trkpt>
      <trkpt lat="43.3864370" lon="-4.0464960">
        <ele>37.6</ele>
        <time>2021-07-17T09:52:20Z</time>
      </trkpt>
      <trkpt lat="43.3866810" lon="-4.0464340">
        <ele>37.6</ele>
        <time>2021-07-17T09:52:25Z</time>
      </trkpt>
      <trkpt lat="43.3871230" lon="-4.0463180">
        <ele>37.6</ele>
        <time>2021-07-17T09:52:34Z</time>
      </trkpt>
      <trkpt lat="43.3875150" lon="-4.0462220">
        <ele>37.6</ele>
        <time>2021-07-17T09:52:42Z</time>
      </trkpt>
      <trkpt lat="43.3877650" lon="-4.0461370">
        <ele>37.6</ele>
        <time>2021-07-17T09:52:47Z</time>
      </trkpt>
      <trkpt lat="43.3878610" lon="-4.0461110">
        <ele>37.6</ele>
        <time>2021-07-17T09:52:49Z</time>
      </trkpt>
      <trkpt lat="43.3882580" lon="-4.0460060">
        <ele>37.6</ele>
        <time>2021-07-17T09:52:57Z</time>
      </trkpt>
      <trkpt lat="43.3883880" lon="-4.0459690">
        <ele>37.6</ele>
        <time>2021-07-17T09:53:00Z</time>
      </trkpt>
      <trkpt lat="43.3885820" lon="-4.0459260">
        <ele>37.6</ele>
        <time>2021-07-17T09:53:05Z</time>
      </trkpt>
      <trkpt lat="43.3887990" lon="-4.0459080">
        <ele>37.6</ele>
        <time>2021-07-17T09:53:10Z</time>
      </trkpt>
      <trkpt lat="43.3888970" lon="-4.0459210">
        <ele>36.6</ele>
        <time>2021-07-17T09:53:12Z</time>
      </trkpt>
      <trkpt lat="43.3889520" lon="-4.0459270">
        <ele>36.2</ele>
        <time>2021-07-17T09:53:13Z</time>
      </trkpt>
      <trkpt lat="43.3890060" lon="-4.0459420">
        <ele>35.6</ele>
        <time>2021-07-17T09:53:14Z</time>
      </trkpt>
      <trkpt lat="43.3890590" lon="-4.0459630">
        <ele>35.2</ele>
        <time>2021-07-17T09:53:15Z</time>
      </trkpt>
      <trkpt lat="43.3892280" lon="-4.0460520">
        <ele>35.2</ele>
        <time>2021-07-17T09:53:18Z</time>
      </trkpt>
      <trkpt lat="43.3893440" lon="-4.0461420">
        <ele>34.8</ele>
        <time>2021-07-17T09:53:20Z</time>
      </trkpt>
      <trkpt lat="43.3894060" lon="-4.0461940">
        <ele>34.4</ele>
        <time>2021-07-17T09:53:21Z</time>
      </trkpt>
      <trkpt lat="43.3894690" lon="-4.0462520">
        <ele>33.8</ele>
        <time>2021-07-17T09:53:22Z</time>
      </trkpt>
      <trkpt lat="43.3895350" lon="-4.0463160">
        <ele>33.4</ele>
        <time>2021-07-17T09:53:23Z</time>
      </trkpt>
      <trkpt lat="43.3895960" lon="-4.0463790">
        <ele>33.0</ele>
        <time>2021-07-17T09:53:24Z</time>
      </trkpt>
      <trkpt lat="43.3897250" lon="-4.0465160">
        <ele>32.6</ele>
        <time>2021-07-17T09:53:26Z</time>
      </trkpt>
      <trkpt lat="43.3897910" lon="-4.0465890">
        <ele>32.2</ele>
        <time>2021-07-17T09:53:27Z</time>
      </trkpt>
      <trkpt lat="43.3898610" lon="-4.0466600">
        <ele>31.6</ele>
        <time>2021-07-17T09:53:28Z</time>
      </trkpt>
      <trkpt lat="43.3899270" lon="-4.0467270">
        <ele>31.2</ele>
        <time>2021-07-17T09:53:29Z</time>
      </trkpt>
      <trkpt lat="43.3899970" lon="-4.0467990">
        <ele>30.8</ele>
        <time>2021-07-17T09:53:30Z</time>
      </trkpt>
      <trkpt lat="43.3901730" lon="-4.0469820">
        <ele>30.2</ele>
        <time>2021-07-17T09:53:33Z</time>
      </trkpt>
      <trkpt lat="43.3902260" lon="-4.0470360">
        <ele>29.8</ele>
        <time>2021-07-17T09:53:34Z</time>
      </trkpt>
      <trkpt lat="43.3902780" lon="-4.0470890">
        <ele>29.2</ele>
        <time>2021-07-17T09:53:35Z</time>
      </trkpt>
      <trkpt lat="43.3903240" lon="-4.0471380">
        <ele>28.6</ele>
        <time>2021-07-17T09:53:36Z</time>
      </trkpt>
      <trkpt lat="43.3903660" lon="-4.0471820">
        <ele>27.2</ele>
        <time>2021-07-17T09:53:37Z</time>
      </trkpt>
      <trkpt lat="43.3904100" lon="-4.0472340">
        <ele>26.6</ele>
        <time>2021-07-17T09:53:38Z</time>
      </trkpt>
      <trkpt lat="43.3904530" lon="-4.0472850">
        <ele>25.8</ele>
        <time>2021-07-17T09:53:39Z</time>
      </trkpt>
      <trkpt lat="43.3905010" lon="-4.0473370">
        <ele>25.8</ele>
        <time>2021-07-17T09:53:40Z</time>
      </trkpt>
      <trkpt lat="43.3905980" lon="-4.0474460">
        <ele>25.4</ele>
        <time>2021-07-17T09:53:42Z</time>
      </trkpt>
      <trkpt lat="43.3906500" lon="-4.0475020">
        <ele>25.0</ele>
        <time>2021-07-17T09:53:43Z</time>
      </trkpt>
      <trkpt lat="43.3907000" lon="-4.0475610">
        <ele>24.6</ele>
        <time>2021-07-17T09:53:44Z</time>
      </trkpt>
      <trkpt lat="43.3907500" lon="-4.0476250">
        <ele>24.2</ele>
        <time>2021-07-17T09:53:45Z</time>
      </trkpt>
      <trkpt lat="43.3907940" lon="-4.0476870">
        <ele>23.8</ele>
        <time>2021-07-17T09:53:46Z</time>
      </trkpt>
      <trkpt lat="43.3909280" lon="-4.0478790">
        <ele>23.8</ele>
        <time>2021-07-17T09:53:49Z</time>
      </trkpt>
      <trkpt lat="43.3910630" lon="-4.0480810">
        <ele>23.8</ele>
        <time>2021-07-17T09:53:52Z</time>
      </trkpt>
      <trkpt lat="43.3912370" lon="-4.0484850">
        <ele>23.8</ele>
        <time>2021-07-17T09:53:58Z</time>
      </trkpt>
      <trkpt lat="43.3913290" lon="-4.0487200">
        <ele>23.8</ele>
        <time>2021-07-17T09:54:02Z</time>
      </trkpt>
      <trkpt lat="43.3913520" lon="-4.0487770">
        <ele>23.4</ele>
        <time>2021-07-17T09:54:03Z</time>
      </trkpt>
      <trkpt lat="43.3913740" lon="-4.0488330">
        <ele>23.0</ele>
        <time>2021-07-17T09:54:04Z</time>
      </trkpt>
      <trkpt lat="43.3913970" lon="-4.0488910">
        <ele>22.6</ele>
        <time>2021-07-17T09:54:05Z</time>
      </trkpt>
      <trkpt lat="43.3914210" lon="-4.0489480">
        <ele>22.2</ele>
        <time>2021-07-17T09:54:06Z</time>
      </trkpt>
      <trkpt lat="43.3914470" lon="-4.0489990">
        <ele>21.8</ele>
        <time>2021-07-17T09:54:07Z</time>
      </trkpt>
      <trkpt lat="43.3914960" lon="-4.0490950">
        <ele>21.8</ele>
        <time>2021-07-17T09:54:09Z</time>
      </trkpt>
      <trkpt lat="43.3915700" lon="-4.0492290">
        <ele>21.8</ele>
        <time>2021-07-17T09:54:12Z</time>
      </trkpt>
      <trkpt lat="43.3916480" lon="-4.0493500">
        <ele>21.8</ele>
        <time>2021-07-17T09:54:15Z</time>
      </trkpt>
      <trkpt lat="43.3917550" lon="-4.0494780">
        <ele>21.8</ele>
        <time>2021-07-17T09:54:19Z</time>
      </trkpt>
      <trkpt lat="43.3917840" lon="-4.0495100">
        <ele>21.8</ele>
        <time>2021-07-17T09:54:20Z</time>
      </trkpt>
      <trkpt lat="43.3918130" lon="-4.0495420">
        <ele>22.2</ele>
        <time>2021-07-17T09:54:21Z</time>
      </trkpt>
      <trkpt lat="43.3918440" lon="-4.0495660">
        <ele>22.6</ele>
        <time>2021-07-17T09:54:22Z</time>
      </trkpt>
      <trkpt lat="43.3918730" lon="-4.0495900">
        <ele>23.2</ele>
        <time>2021-07-17T09:54:23Z</time>
      </trkpt>
      <trkpt lat="43.3919020" lon="-4.0496130">
        <ele>23.6</ele>
        <time>2021-07-17T09:54:24Z</time>
      </trkpt>
      <trkpt lat="43.3919310" lon="-4.0496310">
        <ele>24.0</ele>
        <time>2021-07-17T09:54:25Z</time>
      </trkpt>
      <trkpt lat="43.3920260" lon="-4.0496870">
        <ele>24.0</ele>
        <time>2021-07-17T09:54:28Z</time>
      </trkpt>
      <trkpt lat="43.3921620" lon="-4.0497330">
        <ele>24.0</ele>
        <time>2021-07-17T09:54:32Z</time>
      </trkpt>
      <trkpt lat="43.3922250" lon="-4.0497460">
        <ele>24.4</ele>
        <time>2021-07-17T09:54:34Z</time>
      </trkpt>
      <trkpt lat="43.3922600" lon="-4.0497470">
        <ele>24.8</ele>
        <time>2021-07-17T09:54:35Z</time>
      </trkpt>
      <trkpt lat="43.3922950" lon="-4.0497530">
        <ele>25.2</ele>
        <time>2021-07-17T09:54:36Z</time>
      </trkpt>
      <trkpt lat="43.3923300" lon="-4.0497560">
        <ele>25.6</ele>
        <time>2021-07-17T09:54:37Z</time>
      </trkpt>
      <trkpt lat="43.3923650" lon="-4.0497580">
        <ele>26.0</ele>
        <time>2021-07-17T09:54:38Z</time>
      </trkpt>
      <trkpt lat="43.3925870" lon="-4.0497240">
        <ele>26.0</ele>
        <time>2021-07-17T09:54:44Z</time>
      </trkpt>
      <trkpt lat="43.3928150" lon="-4.0496520">
        <ele>26.0</ele>
        <time>2021-07-17T09:54:50Z</time>
      </trkpt>
      <trkpt lat="43.3928860" lon="-4.0496220">
        <ele>26.0</ele>
        <time>2021-07-17T09:54:52Z</time>
      </trkpt>
      <trkpt lat="43.3932080" lon="-4.0494970">
        <ele>26.0</ele>
        <time>2021-07-17T09:55:00Z</time>
      </trkpt>
      <trkpt lat="43.3935310" lon="-4.0493630">
        <ele>26.0</ele>
        <time>2021-07-17T09:55:08Z</time>
      </trkpt>
      <trkpt lat="43.3937160" lon="-4.0492940">
        <ele>26.4</ele>
        <time>2021-07-17T09:55:13Z</time>
      </trkpt>
      <trkpt lat="43.3937540" lon="-4.0492720">
        <ele>26.8</ele>
        <time>2021-07-17T09:55:14Z</time>
      </trkpt>
      <trkpt lat="43.3937890" lon="-4.0492580">
        <ele>27.2</ele>
        <time>2021-07-17T09:55:15Z</time>
      </trkpt>
      <trkpt lat="43.3938240" lon="-4.0492450">
        <ele>28.0</ele>
        <time>2021-07-17T09:55:16Z</time>
      </trkpt>
      <trkpt lat="43.3938610" lon="-4.0492320">
        <ele>28.0</ele>
        <time>2021-07-17T09:55:17Z</time>
      </trkpt>
      <trkpt lat="43.3941710" lon="-4.0491040">
        <ele>28.0</ele>
        <time>2021-07-17T09:55:26Z</time>
      </trkpt>
      <trkpt lat="43.3942040" lon="-4.0490860">
        <ele>28.4</ele>
        <time>2021-07-17T09:55:27Z</time>
      </trkpt>
      <trkpt lat="43.3942400" lon="-4.0490750">
        <ele>28.8</ele>
        <time>2021-07-17T09:55:28Z</time>
      </trkpt>
      <trkpt lat="43.3942740" lon="-4.0490600">
        <ele>29.4</ele>
        <time>2021-07-17T09:55:29Z</time>
      </trkpt>
      <trkpt lat="43.3943090" lon="-4.0490460">
        <ele>29.8</ele>
        <time>2021-07-17T09:55:30Z</time>
      </trkpt>
      <trkpt lat="43.3943440" lon="-4.0490320">
        <ele>30.2</ele>
        <time>2021-07-17T09:55:31Z</time>
      </trkpt>
      <trkpt lat="43.3944470" lon="-4.0489890">
        <ele>30.2</ele>
        <time>2021-07-17T09:55:34Z</time>
      </trkpt>
      <trkpt lat="43.3945770" lon="-4.0489400">
        <ele>30.6</ele>
        <time>2021-07-17T09:55:38Z</time>
      </trkpt>
      <trkpt lat="43.3946090" lon="-4.0489290">
        <ele>31.0</ele>
        <time>2021-07-17T09:55:39Z</time>
      </trkpt>
      <trkpt lat="43.3946400" lon="-4.0489170">
        <ele>31.4</ele>
        <time>2021-07-17T09:55:40Z</time>
      </trkpt>
      <trkpt lat="43.3946720" lon="-4.0489060">
        <ele>32.4</ele>
        <time>2021-07-17T09:55:41Z</time>
      </trkpt>
      <trkpt lat="43.3947410" lon="-4.0488850">
        <ele>32.4</ele>
        <time>2021-07-17T09:55:43Z</time>
      </trkpt>
      <trkpt lat="43.3950790" lon="-4.0488260">
        <ele>32.4</ele>
        <time>2021-07-17T09:55:53Z</time>
      </trkpt>
      <trkpt lat="43.3951480" lon="-4.0488230">
        <ele>32.8</ele>
        <time>2021-07-17T09:55:55Z</time>
      </trkpt>
      <trkpt lat="43.3951800" lon="-4.0488270">
        <ele>33.2</ele>
        <time>2021-07-17T09:55:56Z</time>
      </trkpt>
      <trkpt lat="43.3952120" lon="-4.0488290">
        <ele>33.6</ele>
        <time>2021-07-17T09:55:57Z</time>
      </trkpt>
      <trkpt lat="43.3952420" lon="-4.0488350">
        <ele>34.2</ele>
        <time>2021-07-17T09:55:58Z</time>
      </trkpt>
      <trkpt lat="43.3952730" lon="-4.0488420">
        <ele>34.6</ele>
        <time>2021-07-17T09:55:59Z</time>
      </trkpt>
      <trkpt lat="43.3953370" lon="-4.0488610">
        <ele>34.6</ele>
        <time>2021-07-17T09:56:01Z</time>
      </trkpt>
      <trkpt lat="43.3955220" lon="-4.0489340">
        <ele>35.0</ele>
        <time>2021-07-17T09:56:07Z</time>
      </trkpt>
      <trkpt lat="43.3955520" lon="-4.0489520">
        <ele>35.4</ele>
        <time>2021-07-17T09:56:08Z</time>
      </trkpt>
      <trkpt lat="43.3955830" lon="-4.0489650">
        <ele>35.8</ele>
        <time>2021-07-17T09:56:09Z</time>
      </trkpt>
      <trkpt lat="43.3956140" lon="-4.0489800">
        <ele>36.4</ele>
        <time>2021-07-17T09:56:10Z</time>
      </trkpt>
      <trkpt lat="43.3956430" lon="-4.0489930">
        <ele>36.8</ele>
        <time>2021-07-17T09:56:11Z</time>
      </trkpt>
      <trkpt lat="43.3958700" lon="-4.0491030">
        <ele>37.2</ele>
        <time>2021-07-17T09:56:19Z</time>
      </trkpt>
      <trkpt lat="43.3958990" lon="-4.0491160">
        <ele>37.6</ele>
        <time>2021-07-17T09:56:20Z</time>
      </trkpt>
      <trkpt lat="43.3959280" lon="-4.0491340">
        <ele>38.0</ele>
        <time>2021-07-17T09:56:21Z</time>
      </trkpt>
      <trkpt lat="43.3959600" lon="-4.0491490">
        <ele>38.4</ele>
        <time>2021-07-17T09:56:22Z</time>
      </trkpt>
      <trkpt lat="43.3959890" lon="-4.0491630">
        <ele>39.0</ele>
        <time>2021-07-17T09:56:23Z</time>
      </trkpt>
      <trkpt lat="43.3961000" lon="-4.0492220">
        <ele>39.0</ele>
        <time>2021-07-17T09:56:27Z</time>
      </trkpt>
      <trkpt lat="43.3961870" lon="-4.0492670">
        <ele>39.8</ele>
        <time>2021-07-17T09:56:30Z</time>
      </trkpt>
      <trkpt lat="43.3962160" lon="-4.0492870">
        <ele>40.2</ele>
        <time>2021-07-17T09:56:31Z</time>
      </trkpt>
      <trkpt lat="43.3962450" lon="-4.0493050">
        <ele>40.6</ele>
        <time>2021-07-17T09:56:32Z</time>
      </trkpt>
      <trkpt lat="43.3962730" lon="-4.0493220">
        <ele>41.0</ele>
        <time>2021-07-17T09:56:33Z</time>
      </trkpt>
      <trkpt lat="43.3963270" lon="-4.0493520">
        <ele>41.0</ele>
        <time>2021-07-17T09:56:35Z</time>
      </trkpt>
      <trkpt lat="43.3965010" lon="-4.0494400">
        <ele>41.4</ele>
        <time>2021-07-17T09:56:41Z</time>
      </trkpt>
      <trkpt lat="43.3965290" lon="-4.0494510">
        <ele>41.8</ele>
        <time>2021-07-17T09:56:42Z</time>
      </trkpt>
      <trkpt lat="43.3965570" lon="-4.0494670">
        <ele>42.2</ele>
        <time>2021-07-17T09:56:43Z</time>
      </trkpt>
      <trkpt lat="43.3965870" lon="-4.0494850">
        <ele>42.6</ele>
        <time>2021-07-17T09:56:44Z</time>
      </trkpt>
      <trkpt lat="43.3966150" lon="-4.0494940">
        <ele>43.0</ele>
        <time>2021-07-17T09:56:45Z</time>
      </trkpt>
      <trkpt lat="43.3967720" lon="-4.0495610">
        <ele>43.0</ele>
        <time>2021-07-17T09:56:50Z</time>
      </trkpt>
      <trkpt lat="43.3970460" lon="-4.0495610">
        <ele>43.0</ele>
        <time>2021-07-17T09:56:57Z</time>
      </trkpt>
      <trkpt lat="43.3972990" lon="-4.0494960">
        <ele>43.6</ele>
        <time>2021-07-17T09:57:03Z</time>
      </trkpt>
      <trkpt lat="43.3973400" lon="-4.0494790">
        <ele>44.0</ele>
        <time>2021-07-17T09:57:04Z</time>
      </trkpt>
      <trkpt lat="43.3973800" lon="-4.0494600">
        <ele>44.4</ele>
        <time>2021-07-17T09:57:05Z</time>
      </trkpt>
      <trkpt lat="43.3974190" lon="-4.0494370">
        <ele>44.8</ele>
        <time>2021-07-17T09:57:06Z</time>
      </trkpt>
      <trkpt lat="43.3974590" lon="-4.0494130">
        <ele>45.2</ele>
        <time>2021-07-17T09:57:07Z</time>
      </trkpt>
      <trkpt lat="43.3976420" lon="-4.0493290">
        <ele>45.2</ele>
        <time>2021-07-17T09:57:12Z</time>
      </trkpt>
      <trkpt lat="43.3979420" lon="-4.0491780">
        <ele>45.2</ele>
        <time>2021-07-17T09:57:20Z</time>
      </trkpt>
      <trkpt lat="43.3982240" lon="-4.0490180">
        <ele>45.2</ele>
        <time>2021-07-17T09:57:28Z</time>
      </trkpt>
      <trkpt lat="43.3984150" lon="-4.0489030">
        <ele>45.2</ele>
        <time>2021-07-17T09:57:34Z</time>
      </trkpt>
      <trkpt lat="43.3984790" lon="-4.0488690">
        <ele>45.2</ele>
        <time>2021-07-17T09:57:36Z</time>
      </trkpt>
      <trkpt lat="43.3985080" lon="-4.0488550">
        <ele>45.6</ele>
        <time>2021-07-17T09:57:37Z</time>
      </trkpt>
      <trkpt lat="43.3985380" lon="-4.0488420">
        <ele>46.0</ele>
        <time>2021-07-17T09:57:38Z</time>
      </trkpt>
      <trkpt lat="43.3985660" lon="-4.0488260">
        <ele>46.4</ele>
        <time>2021-07-17T09:57:39Z</time>
      </trkpt>
      <trkpt lat="43.3985950" lon="-4.0488110">
        <ele>46.8</ele>
        <time>2021-07-17T09:57:40Z</time>
      </trkpt>
      <trkpt lat="43.3986240" lon="-4.0487940">
        <ele>47.2</ele>
        <time>2021-07-17T09:57:41Z</time>
      </trkpt>
      <trkpt lat="43.3987140" lon="-4.0487470">
        <ele>47.2</ele>
        <time>2021-07-17T09:57:44Z</time>
      </trkpt>
      <trkpt lat="43.3988780" lon="-4.0486630">
        <ele>47.6</ele>
        <time>2021-07-17T09:57:50Z</time>
      </trkpt>
      <trkpt lat="43.3989060" lon="-4.0486460">
        <ele>48.2</ele>
        <time>2021-07-17T09:57:51Z</time>
      </trkpt>
      <trkpt lat="43.3989330" lon="-4.0486290">
        <ele>48.6</ele>
        <time>2021-07-17T09:57:52Z</time>
      </trkpt>
      <trkpt lat="43.3989600" lon="-4.0486160">
        <ele>49.0</ele>
        <time>2021-07-17T09:57:53Z</time>
      </trkpt>
      <trkpt lat="43.3989870" lon="-4.0486030">
        <ele>49.4</ele>
        <time>2021-07-17T09:57:54Z</time>
      </trkpt>
      <trkpt lat="43.3991580" lon="-4.0485100">
        <ele>49.4</ele>
        <time>2021-07-17T09:58:00Z</time>
      </trkpt>
      <trkpt lat="43.3992650" lon="-4.0484560">
        <ele>49.8</ele>
        <time>2021-07-17T09:58:04Z</time>
      </trkpt>
      <trkpt lat="43.3992930" lon="-4.0484430">
        <ele>50.2</ele>
        <time>2021-07-17T09:58:05Z</time>
      </trkpt>
      <trkpt lat="43.3993220" lon="-4.0484310">
        <ele>50.6</ele>
        <time>2021-07-17T09:58:06Z</time>
      </trkpt>
      <trkpt lat="43.3993480" lon="-4.0484200">
        <ele>51.0</ele>
        <time>2021-07-17T09:58:07Z</time>
      </trkpt>
      <trkpt lat="43.3993790" lon="-4.0484040">
        <ele>51.4</ele>
        <time>2021-07-17T09:58:08Z</time>
      </trkpt>
      <trkpt lat="43.3994110" lon="-4.0483910">
        <ele>51.4</ele>
        <time>2021-07-17T09:58:09Z</time>
      </trkpt>
      <trkpt lat="43.3996170" lon="-4.0482910">
        <ele>51.8</ele>
        <time>2021-07-17T09:58:16Z</time>
      </trkpt>
      <trkpt lat="43.3996440" lon="-4.0482820">
        <ele>52.2</ele>
        <time>2021-07-17T09:58:17Z</time>
      </trkpt>
      <trkpt lat="43.3996710" lon="-4.0482700">
        <ele>52.6</ele>
        <time>2021-07-17T09:58:18Z</time>
      </trkpt>
      <trkpt lat="43.3997010" lon="-4.0482620">
        <ele>53.0</ele>
        <time>2021-07-17T09:58:19Z</time>
      </trkpt>
      <trkpt lat="43.3997290" lon="-4.0482530">
        <ele>53.4</ele>
        <time>2021-07-17T09:58:20Z</time>
      </trkpt>
      <trkpt lat="43.3998210" lon="-4.0482370">
        <ele>53.4</ele>
        <time>2021-07-17T09:58:23Z</time>
      </trkpt>
      <trkpt lat="43.4000690" lon="-4.0482020">
        <ele>53.4</ele>
        <time>2021-07-17T09:58:31Z</time>
      </trkpt>
      <trkpt lat="43.4000980" lon="-4.0481940">
        <ele>53.8</ele>
        <time>2021-07-17T09:58:32Z</time>
      </trkpt>
      <trkpt lat="43.4001280" lon="-4.0481950">
        <ele>54.2</ele>
        <time>2021-07-17T09:58:33Z</time>
      </trkpt>
      <trkpt lat="43.4001570" lon="-4.0481910">
        <ele>55.0</ele>
        <time>2021-07-17T09:58:34Z</time>
      </trkpt>
      <trkpt lat="43.4001900" lon="-4.0481840">
        <ele>55.4</ele>
        <time>2021-07-17T09:58:35Z</time>
      </trkpt>
      <trkpt lat="43.4002470" lon="-4.0481830">
        <ele>55.4</ele>
        <time>2021-07-17T09:58:37Z</time>
      </trkpt>
      <trkpt lat="43.4004950" lon="-4.0481600">
        <ele>56.0</ele>
        <time>2021-07-17T09:58:46Z</time>
      </trkpt>
      <trkpt lat="43.4005230" lon="-4.0481550">
        <ele>56.4</ele>
        <time>2021-07-17T09:58:47Z</time>
      </trkpt>
      <trkpt lat="43.4005500" lon="-4.0481520">
        <ele>56.8</ele>
        <time>2021-07-17T09:58:48Z</time>
      </trkpt>
      <trkpt lat="43.4005800" lon="-4.0481480">
        <ele>57.2</ele>
        <time>2021-07-17T09:58:49Z</time>
      </trkpt>
      <trkpt lat="43.4006100" lon="-4.0481440">
        <ele>57.6</ele>
        <time>2021-07-17T09:58:50Z</time>
      </trkpt>
      <trkpt lat="43.4007760" lon="-4.0481270">
        <ele>57.6</ele>
        <time>2021-07-17T09:58:56Z</time>
      </trkpt>
      <trkpt lat="43.4008890" lon="-4.0481070">
        <ele>58.0</ele>
        <time>2021-07-17T09:59:00Z</time>
      </trkpt>
      <trkpt lat="43.4009190" lon="-4.0481040">
        <ele>58.4</ele>
        <time>2021-07-17T09:59:01Z</time>
      </trkpt>
      <trkpt lat="43.4009460" lon="-4.0481040">
        <ele>58.8</ele>
        <time>2021-07-17T09:59:02Z</time>
      </trkpt>
      <trkpt lat="43.4009750" lon="-4.0481030">
        <ele>59.4</ele>
        <time>2021-07-17T09:59:03Z</time>
      </trkpt>
      <trkpt lat="43.4010020" lon="-4.0480990">
        <ele>59.8</ele>
        <time>2021-07-17T09:59:04Z</time>
      </trkpt>
      <trkpt lat="43.4011990" lon="-4.0480790">
        <ele>60.2</ele>
        <time>2021-07-17T09:59:11Z</time>
      </trkpt>
      <trkpt lat="43.4012270" lon="-4.0480770">
        <ele>60.6</ele>
        <time>2021-07-17T09:59:12Z</time>
      </trkpt>
      <trkpt lat="43.4012550" lon="-4.0480750">
        <ele>61.0</ele>
        <time>2021-07-17T09:59:13Z</time>
      </trkpt>
      <trkpt lat="43.4012820" lon="-4.0480740">
        <ele>61.4</ele>
        <time>2021-07-17T09:59:14Z</time>
      </trkpt>
      <trkpt lat="43.4013090" lon="-4.0480700">
        <ele>61.8</ele>
        <time>2021-07-17T09:59:15Z</time>
      </trkpt>
      <trkpt lat="43.4014660" lon="-4.0480560">
        <ele>61.8</ele>
        <time>2021-07-17T09:59:21Z</time>
      </trkpt>
      <trkpt lat="43.4017200" lon="-4.0480280">
        <ele>61.8</ele>
        <time>2021-07-17T09:59:30Z</time>
      </trkpt>
      <trkpt lat="43.4017470" lon="-4.0480250">
        <ele>62.2</ele>
        <time>2021-07-17T09:59:31Z</time>
      </trkpt>
      <trkpt lat="43.4017750" lon="-4.0480280">
        <ele>62.6</ele>
        <time>2021-07-17T09:59:32Z</time>
      </trkpt>
      <trkpt lat="43.4018030" lon="-4.0480240">
        <ele>63.0</ele>
        <time>2021-07-17T09:59:33Z</time>
      </trkpt>
      <trkpt lat="43.4018310" lon="-4.0480210">
        <ele>63.4</ele>
        <time>2021-07-17T09:59:34Z</time>
      </trkpt>
      <trkpt lat="43.4018550" lon="-4.0480210">
        <ele>63.8</ele>
        <time>2021-07-17T09:59:35Z</time>
      </trkpt>
      <trkpt lat="43.4019350" lon="-4.0480190">
        <ele>63.8</ele>
        <time>2021-07-17T09:59:38Z</time>
      </trkpt>
      <trkpt lat="43.4020500" lon="-4.0480080">
        <ele>64.2</ele>
        <time>2021-07-17T09:59:42Z</time>
      </trkpt>
      <trkpt lat="43.4020800" lon="-4.0480080">
        <ele>64.6</ele>
        <time>2021-07-17T09:59:43Z</time>
      </trkpt>
      <trkpt lat="43.4021080" lon="-4.0480080">
        <ele>65.0</ele>
        <time>2021-07-17T09:59:44Z</time>
      </trkpt>
      <trkpt lat="43.4021340" lon="-4.0480080">
        <ele>65.4</ele>
        <time>2021-07-17T09:59:45Z</time>
      </trkpt>
      <trkpt lat="43.4021610" lon="-4.0480070">
        <ele>65.8</ele>
        <time>2021-07-17T09:59:46Z</time>
      </trkpt>
      <trkpt lat="43.4024680" lon="-4.0479680">
        <ele>66.2</ele>
        <time>2021-07-17T09:59:57Z</time>
      </trkpt>
      <trkpt lat="43.4024980" lon="-4.0479640">
        <ele>66.6</ele>
        <time>2021-07-17T09:59:58Z</time>
      </trkpt>
      <trkpt lat="43.4025270" lon="-4.0479640">
        <ele>67.0</ele>
        <time>2021-07-17T09:59:59Z</time>
      </trkpt>
      <trkpt lat="43.4025530" lon="-4.0479570">
        <ele>67.4</ele>
        <time>2021-07-17T10:00:00Z</time>
      </trkpt>
      <trkpt lat="43.4025810" lon="-4.0479480">
        <ele>67.8</ele>
        <time>2021-07-17T10:00:01Z</time>
      </trkpt>
      <trkpt lat="43.4026730" lon="-4.0479280">
        <ele>67.8</ele>
        <time>2021-07-17T10:00:04Z</time>
      </trkpt>
      <trkpt lat="43.4028640" lon="-4.0479160">
        <ele>68.2</ele>
        <time>2021-07-17T10:00:11Z</time>
      </trkpt>
      <trkpt lat="43.4028950" lon="-4.0479150">
        <ele>68.6</ele>
        <time>2021-07-17T10:00:12Z</time>
      </trkpt>
      <trkpt lat="43.4029240" lon="-4.0479120">
        <ele>69.4</ele>
        <time>2021-07-17T10:00:13Z</time>
      </trkpt>
      <trkpt lat="43.4029520" lon="-4.0479090">
        <ele>69.8</ele>
        <time>2021-07-17T10:00:14Z</time>
      </trkpt>
      <trkpt lat="43.4029800" lon="-4.0479030">
        <ele>69.8</ele>
        <time>2021-07-17T10:00:15Z</time>
      </trkpt>
      <trkpt lat="43.4032180" lon="-4.0478860">
        <ele>69.8</ele>
        <time>2021-07-17T10:00:23Z</time>
      </trkpt>
      <trkpt lat="43.4032470" lon="-4.0478820">
        <ele>70.2</ele>
        <time>2021-07-17T10:00:24Z</time>
      </trkpt>
      <trkpt lat="43.4032780" lon="-4.0478810">
        <ele>70.8</ele>
        <time>2021-07-17T10:00:25Z</time>
      </trkpt>
      <trkpt lat="43.4033080" lon="-4.0478780">
        <ele>71.2</ele>
        <time>2021-07-17T10:00:26Z</time>
      </trkpt>
      <trkpt lat="43.4033360" lon="-4.0478760">
        <ele>71.6</ele>
        <time>2021-07-17T10:00:27Z</time>
      </trkpt>
      <trkpt lat="43.4033650" lon="-4.0478740">
        <ele>72.0</ele>
        <time>2021-07-17T10:00:28Z</time>
      </trkpt>
      <trkpt lat="43.4034460" lon="-4.0478640">
        <ele>72.0</ele>
        <time>2021-07-17T10:00:31Z</time>
      </trkpt>
      <trkpt lat="43.4035820" lon="-4.0478540">
        <ele>72.4</ele>
        <time>2021-07-17T10:00:36Z</time>
      </trkpt>
      <trkpt lat="43.4036100" lon="-4.0478490">
        <ele>73.2</ele>
        <time>2021-07-17T10:00:37Z</time>
      </trkpt>
      <trkpt lat="43.4036370" lon="-4.0478440">
        <ele>73.6</ele>
        <time>2021-07-17T10:00:38Z</time>
      </trkpt>
      <trkpt lat="43.4036640" lon="-4.0478390">
        <ele>74.0</ele>
        <time>2021-07-17T10:00:39Z</time>
      </trkpt>
      <trkpt lat="43.4037760" lon="-4.0478180">
        <ele>74.0</ele>
        <time>2021-07-17T10:00:43Z</time>
      </trkpt>
      <trkpt lat="43.4038810" lon="-4.0477830">
        <ele>74.4</ele>
        <time>2021-07-17T10:00:47Z</time>
      </trkpt>
      <trkpt lat="43.4039070" lon="-4.0477730">
        <ele>74.8</ele>
        <time>2021-07-17T10:00:48Z</time>
      </trkpt>
      <trkpt lat="43.4039320" lon="-4.0477590">
        <ele>75.2</ele>
        <time>2021-07-17T10:00:49Z</time>
      </trkpt>
      <trkpt lat="43.4039570" lon="-4.0477450">
        <ele>75.6</ele>
        <time>2021-07-17T10:00:50Z</time>
      </trkpt>
      <trkpt lat="43.4039810" lon="-4.0477300">
        <ele>76.0</ele>
        <time>2021-07-17T10:00:51Z</time>
      </trkpt>
      <trkpt lat="43.4040050" lon="-4.0477150">
        <ele>76.0</ele>
        <time>2021-07-17T10:00:52Z</time>
      </trkpt>
      <trkpt lat="43.4041370" lon="-4.0476200">
        <ele>76.4</ele>
        <time>2021-07-17T10:00:57Z</time>
      </trkpt>
      <trkpt lat="43.4041600" lon="-4.0475970">
        <ele>77.0</ele>
        <time>2021-07-17T10:00:58Z</time>
      </trkpt>
      <trkpt lat="43.4041830" lon="-4.0475710">
        <ele>77.4</ele>
        <time>2021-07-17T10:00:59Z</time>
      </trkpt>
      <trkpt lat="43.4042060" lon="-4.0475450">
        <ele>77.8</ele>
        <time>2021-07-17T10:01:00Z</time>
      </trkpt>
      <trkpt lat="43.4042280" lon="-4.0475210">
        <ele>78.4</ele>
        <time>2021-07-17T10:01:01Z</time>
      </trkpt>
      <trkpt lat="43.4044060" lon="-4.0472930">
        <ele>78.4</ele>
        <time>2021-07-17T10:01:09Z</time>
      </trkpt>
      <trkpt lat="43.4044880" lon="-4.0471690">
        <ele>78.8</ele>
        <time>2021-07-17T10:01:13Z</time>
      </trkpt>
      <trkpt lat="43.4045100" lon="-4.0471370">
        <ele>79.2</ele>
        <time>2021-07-17T10:01:14Z</time>
      </trkpt>
      <trkpt lat="43.4045320" lon="-4.0471040">
        <ele>79.6</ele>
        <time>2021-07-17T10:01:15Z</time>
      </trkpt>
      <trkpt lat="43.4045540" lon="-4.0470700">
        <ele>80.0</ele>
        <time>2021-07-17T10:01:16Z</time>
      </trkpt>
      <trkpt lat="43.4045780" lon="-4.0470350">
        <ele>80.4</ele>
        <time>2021-07-17T10:01:17Z</time>
      </trkpt>
      <trkpt lat="43.4047170" lon="-4.0468190">
        <ele>80.4</ele>
        <time>2021-07-17T10:01:23Z</time>
      </trkpt>
      <trkpt lat="43.4049200" lon="-4.0465040">
        <ele>80.4</ele>
        <time>2021-07-17T10:01:31Z</time>
      </trkpt>
      <trkpt lat="43.4050700" lon="-4.0462250">
        <ele>80.4</ele>
        <time>2021-07-17T10:01:37Z</time>
      </trkpt>
      <trkpt lat="43.4050950" lon="-4.0461720">
        <ele>80.4</ele>
        <time>2021-07-17T10:01:38Z</time>
      </trkpt>
      <trkpt lat="43.4051230" lon="-4.0461200">
        <ele>80.4</ele>
        <time>2021-07-17T10:01:39Z</time>
      </trkpt>
      <trkpt lat="43.4052440" lon="-4.0459020">
        <ele>80.4</ele>
        <time>2021-07-17T10:01:43Z</time>
      </trkpt>
      <trkpt lat="43.4052740" lon="-4.0458440">
        <ele>80.4</ele>
        <time>2021-07-17T10:01:44Z</time>
      </trkpt>
      <trkpt lat="43.4053320" lon="-4.0457150">
        <ele>80.4</ele>
        <time>2021-07-17T10:01:46Z</time>
      </trkpt>
      <trkpt lat="43.4054300" lon="-4.0455070">
        <ele>80.4</ele>
        <time>2021-07-17T10:01:49Z</time>
      </trkpt>
      <trkpt lat="43.4054970" lon="-4.0453550">
        <ele>80.4</ele>
        <time>2021-07-17T10:01:51Z</time>
      </trkpt>
      <trkpt lat="43.4055280" lon="-4.0452770">
        <ele>80.0</ele>
        <time>2021-07-17T10:01:52Z</time>
      </trkpt>
      <trkpt lat="43.4055590" lon="-4.0452000">
        <ele>79.6</ele>
        <time>2021-07-17T10:01:53Z</time>
      </trkpt>
      <trkpt lat="43.4055890" lon="-4.0451240">
        <ele>79.2</ele>
        <time>2021-07-17T10:01:54Z</time>
      </trkpt>
      <trkpt lat="43.4056190" lon="-4.0450480">
        <ele>78.8</ele>
        <time>2021-07-17T10:01:55Z</time>
      </trkpt>
      <trkpt lat="43.4056480" lon="-4.0449740">
        <ele>78.4</ele>
        <time>2021-07-17T10:01:56Z</time>
      </trkpt>
      <trkpt lat="43.4057050" lon="-4.0448360">
        <ele>78.4</ele>
        <time>2021-07-17T10:01:58Z</time>
      </trkpt>
      <trkpt lat="43.4057540" lon="-4.0447120">
        <ele>78.4</ele>
        <time>2021-07-17T10:02:00Z</time>
      </trkpt>
      <trkpt lat="43.4057760" lon="-4.0446530">
        <ele>78.4</ele>
        <time>2021-07-17T10:02:01Z</time>
      </trkpt>
      <trkpt lat="43.4058520" lon="-4.0444340">
        <ele>78.4</ele>
        <time>2021-07-17T10:02:05Z</time>
      </trkpt>
      <trkpt lat="43.4059060" lon="-4.0443020">
        <ele>78.4</ele>
        <time>2021-07-17T10:02:08Z</time>
      </trkpt>
      <trkpt lat="43.4059240" lon="-4.0442630">
        <ele>78.0</ele>
        <time>2021-07-17T10:02:09Z</time>
      </trkpt>
      <trkpt lat="43.4059380" lon="-4.0442220">
        <ele>77.6</ele>
        <time>2021-07-17T10:02:10Z</time>
      </trkpt>
      <trkpt lat="43.4059500" lon="-4.0441800">
        <ele>77.2</ele>
        <time>2021-07-17T10:02:11Z</time>
      </trkpt>
      <trkpt lat="43.4059630" lon="-4.0441320">
        <ele>76.8</ele>
        <time>2021-07-17T10:02:12Z</time>
      </trkpt>
      <trkpt lat="43.4059740" lon="-4.0440840">
        <ele>76.2</ele>
        <time>2021-07-17T10:02:13Z</time>
      </trkpt>
      <trkpt lat="43.4059880" lon="-4.0440370">
        <ele>76.2</ele>
        <time>2021-07-17T10:02:14Z</time>
      </trkpt>
      <trkpt lat="43.4061140" lon="-4.0437260">
        <ele>76.2</ele>
        <time>2021-07-17T10:02:20Z</time>
      </trkpt>
      <trkpt lat="43.4062710" lon="-4.0434090">
        <ele>75.8</ele>
        <time>2021-07-17T10:02:25Z</time>
      </trkpt>
      <trkpt lat="43.4063120" lon="-4.0433440">
        <ele>75.4</ele>
        <time>2021-07-17T10:02:26Z</time>
      </trkpt>
      <trkpt lat="43.4063560" lon="-4.0432780">
        <ele>75.0</ele>
        <time>2021-07-17T10:02:27Z</time>
      </trkpt>
      <trkpt lat="43.4064030" lon="-4.0432120">
        <ele>74.6</ele>
        <time>2021-07-17T10:02:28Z</time>
      </trkpt>
      <trkpt lat="43.4064520" lon="-4.0431530">
        <ele>74.2</ele>
        <time>2021-07-17T10:02:29Z</time>
      </trkpt>
      <trkpt lat="43.4065420" lon="-4.0430590">
        <ele>74.2</ele>
        <time>2021-07-17T10:02:31Z</time>
      </trkpt>
      <trkpt lat="43.4065810" lon="-4.0430200">
        <ele>73.6</ele>
        <time>2021-07-17T10:02:32Z</time>
      </trkpt>
      <trkpt lat="43.4066160" lon="-4.0429850">
        <ele>73.2</ele>
        <time>2021-07-17T10:02:33Z</time>
      </trkpt>
      <trkpt lat="43.4066500" lon="-4.0429530">
        <ele>72.8</ele>
        <time>2021-07-17T10:02:34Z</time>
      </trkpt>
      <trkpt lat="43.4066870" lon="-4.0429230">
        <ele>72.2</ele>
        <time>2021-07-17T10:02:35Z</time>
      </trkpt>
      <trkpt lat="43.4067260" lon="-4.0428940">
        <ele>71.6</ele>
        <time>2021-07-17T10:02:36Z</time>
      </trkpt>
      <trkpt lat="43.4067680" lon="-4.0428680">
        <ele>71.2</ele>
        <time>2021-07-17T10:02:37Z</time>
      </trkpt>
      <trkpt lat="43.4068100" lon="-4.0428460">
        <ele>70.6</ele>
        <time>2021-07-17T10:02:38Z</time>
      </trkpt>
      <trkpt lat="43.4068550" lon="-4.0428230">
        <ele>70.2</ele>
        <time>2021-07-17T10:02:39Z</time>
      </trkpt>
      <trkpt lat="43.4069020" lon="-4.0427990">
        <ele>69.6</ele>
        <time>2021-07-17T10:02:40Z</time>
      </trkpt>
      <trkpt lat="43.4069990" lon="-4.0427490">
        <ele>69.6</ele>
        <time>2021-07-17T10:02:42Z</time>
      </trkpt>
      <trkpt lat="43.4071770" lon="-4.0426780">
        <ele>69.6</ele>
        <time>2021-07-17T10:02:46Z</time>
      </trkpt>
      <trkpt lat="43.4072190" lon="-4.0426660">
        <ele>69.6</ele>
        <time>2021-07-17T10:02:47Z</time>
      </trkpt>
      <trkpt lat="43.4073080" lon="-4.0426440">
        <ele>69.6</ele>
        <time>2021-07-17T10:02:49Z</time>
      </trkpt>
      <trkpt lat="43.4075900" lon="-4.0425700">
        <ele>69.6</ele>
        <time>2021-07-17T10:02:56Z</time>
      </trkpt>
      <trkpt lat="43.4077490" lon="-4.0425440">
        <ele>69.6</ele>
        <time>2021-07-17T10:03:00Z</time>
      </trkpt>
      <trkpt lat="43.4078220" lon="-4.0425240">
        <ele>69.6</ele>
        <time>2021-07-17T10:03:02Z</time>
      </trkpt>
      <trkpt lat="43.4079270" lon="-4.0425080">
        <ele>69.6</ele>
        <time>2021-07-17T10:03:05Z</time>
      </trkpt>
      <trkpt lat="43.4080190" lon="-4.0424870">
        <ele>69.6</ele>
        <time>2021-07-17T10:03:08Z</time>
      </trkpt>
      <trkpt lat="43.4081680" lon="-4.0424550">
        <ele>69.6</ele>
        <time>2021-07-17T10:03:13Z</time>
      </trkpt>
      <trkpt lat="43.4083370" lon="-4.0424310">
        <ele>69.6</ele>
        <time>2021-07-17T10:03:18Z</time>
      </trkpt>
      <trkpt lat="43.4084410" lon="-4.0424070">
        <ele>69.6</ele>
        <time>2021-07-17T10:03:21Z</time>
      </trkpt>
      <trkpt lat="43.4085450" lon="-4.0423820">
        <ele>69.6</ele>
        <time>2021-07-17T10:03:24Z</time>
      </trkpt>
      <trkpt lat="43.4086440" lon="-4.0423510">
        <ele>69.6</ele>
        <time>2021-07-17T10:03:27Z</time>
      </trkpt>
      <trkpt lat="43.4087380" lon="-4.0423130">
        <ele>70.0</ele>
        <time>2021-07-17T10:03:30Z</time>
      </trkpt>
      <trkpt lat="43.4087690" lon="-4.0422980">
        <ele>70.8</ele>
        <time>2021-07-17T10:03:31Z</time>
      </trkpt>
      <trkpt lat="43.4088010" lon="-4.0422830">
        <ele>71.2</ele>
        <time>2021-07-17T10:03:32Z</time>
      </trkpt>
      <trkpt lat="43.4088330" lon="-4.0422670">
        <ele>71.6</ele>
        <time>2021-07-17T10:03:33Z</time>
      </trkpt>
      <trkpt lat="43.4088670" lon="-4.0422510">
        <ele>71.6</ele>
        <time>2021-07-17T10:03:34Z</time>
      </trkpt>
      <trkpt lat="43.4090560" lon="-4.0421520">
        <ele>71.6</ele>
        <time>2021-07-17T10:03:40Z</time>
      </trkpt>
      <trkpt lat="43.4091400" lon="-4.0421020">
        <ele>71.6</ele>
        <time>2021-07-17T10:03:43Z</time>
      </trkpt>
      <trkpt lat="43.4092320" lon="-4.0420550">
        <ele>72.2</ele>
        <time>2021-07-17T10:03:46Z</time>
      </trkpt>
      <trkpt lat="43.4092610" lon="-4.0420400">
        <ele>72.6</ele>
        <time>2021-07-17T10:03:47Z</time>
      </trkpt>
      <trkpt lat="43.4092900" lon="-4.0420260">
        <ele>73.0</ele>
        <time>2021-07-17T10:03:48Z</time>
      </trkpt>
      <trkpt lat="43.4093160" lon="-4.0420110">
        <ele>73.6</ele>
        <time>2021-07-17T10:03:49Z</time>
      </trkpt>
      <trkpt lat="43.4093440" lon="-4.0419960">
        <ele>74.0</ele>
        <time>2021-07-17T10:03:50Z</time>
      </trkpt>
      <trkpt lat="43.4094430" lon="-4.0419370">
        <ele>74.0</ele>
        <time>2021-07-17T10:03:54Z</time>
      </trkpt>
      <trkpt lat="43.4096610" lon="-4.0418360">
        <ele>74.0</ele>
        <time>2021-07-17T10:04:02Z</time>
      </trkpt>
      <trkpt lat="43.4097180" lon="-4.0418120">
        <ele>74.4</ele>
        <time>2021-07-17T10:04:04Z</time>
      </trkpt>
      <trkpt lat="43.4097480" lon="-4.0418000">
        <ele>74.8</ele>
        <time>2021-07-17T10:04:05Z</time>
      </trkpt>
      <trkpt lat="43.4097750" lon="-4.0417910">
        <ele>75.4</ele>
        <time>2021-07-17T10:04:06Z</time>
      </trkpt>
      <trkpt lat="43.4098010" lon="-4.0417840">
        <ele>75.8</ele>
        <time>2021-07-17T10:04:07Z</time>
      </trkpt>
      <trkpt lat="43.4098290" lon="-4.0417760">
        <ele>76.2</ele>
        <time>2021-07-17T10:04:08Z</time>
      </trkpt>
      <trkpt lat="43.4098560" lon="-4.0417680">
        <ele>76.2</ele>
        <time>2021-07-17T10:04:09Z</time>
      </trkpt>
      <trkpt lat="43.4101070" lon="-4.0417000">
        <ele>76.2</ele>
        <time>2021-07-17T10:04:18Z</time>
      </trkpt>
      <trkpt lat="43.4103430" lon="-4.0416510">
        <ele>76.6</ele>
        <time>2021-07-17T10:04:26Z</time>
      </trkpt>
      <trkpt lat="43.4103760" lon="-4.0416450">
        <ele>77.0</ele>
        <time>2021-07-17T10:04:27Z</time>
      </trkpt>
      <trkpt lat="43.4104070" lon="-4.0416380">
        <ele>77.6</ele>
        <time>2021-07-17T10:04:28Z</time>
      </trkpt>
      <trkpt lat="43.4104360" lon="-4.0416290">
        <ele>78.0</ele>
        <time>2021-07-17T10:04:29Z</time>
      </trkpt>
      <trkpt lat="43.4104670" lon="-4.0416220">
        <ele>78.4</ele>
        <time>2021-07-17T10:04:30Z</time>
      </trkpt>
      <trkpt lat="43.4106150" lon="-4.0415870">
        <ele>78.4</ele>
        <time>2021-07-17T10:04:35Z</time>
      </trkpt>
      <trkpt lat="43.4108090" lon="-4.0414940">
        <ele>78.8</ele>
        <time>2021-07-17T10:04:42Z</time>
      </trkpt>
      <trkpt lat="43.4108360" lon="-4.0414770">
        <ele>79.2</ele>
        <time>2021-07-17T10:04:43Z</time>
      </trkpt>
      <trkpt lat="43.4108610" lon="-4.0414600">
        <ele>79.8</ele>
        <time>2021-07-17T10:04:44Z</time>
      </trkpt>
      <trkpt lat="43.4108880" lon="-4.0414420">
        <ele>80.6</ele>
        <time>2021-07-17T10:04:45Z</time>
      </trkpt>
      <trkpt lat="43.4110270" lon="-4.0413190">
        <ele>81.0</ele>
        <time>2021-07-17T10:04:51Z</time>
      </trkpt>
      <trkpt lat="43.4110480" lon="-4.0412960">
        <ele>81.4</ele>
        <time>2021-07-17T10:04:52Z</time>
      </trkpt>
      <trkpt lat="43.4110680" lon="-4.0412740">
        <ele>81.8</ele>
        <time>2021-07-17T10:04:53Z</time>
      </trkpt>
      <trkpt lat="43.4110870" lon="-4.0412520">
        <ele>82.2</ele>
        <time>2021-07-17T10:04:54Z</time>
      </trkpt>
      <trkpt lat="43.4111040" lon="-4.0412280">
        <ele>82.8</ele>
        <time>2021-07-17T10:04:55Z</time>
      </trkpt>
      <trkpt lat="43.4111630" lon="-4.0411590">
        <ele>82.8</ele>
        <time>2021-07-17T10:04:58Z</time>
      </trkpt>
      <trkpt lat="43.4112930" lon="-4.0409630">
        <ele>82.8</ele>
        <time>2021-07-17T10:05:06Z</time>
      </trkpt>
      <trkpt lat="43.4113260" lon="-4.0409180">
        <ele>83.2</ele>
        <time>2021-07-17T10:05:08Z</time>
      </trkpt>
      <trkpt lat="43.4113420" lon="-4.0408970">
        <ele>84.0</ele>
        <time>2021-07-17T10:05:09Z</time>
      </trkpt>
      <trkpt lat="43.4113580" lon="-4.0408780">
        <ele>84.4</ele>
        <time>2021-07-17T10:05:10Z</time>
      </trkpt>
      <trkpt lat="43.4113760" lon="-4.0408560">
        <ele>84.8</ele>
        <time>2021-07-17T10:05:11Z</time>
      </trkpt>
      <trkpt lat="43.4114230" lon="-4.0407840">
        <ele>84.8</ele>
        <time>2021-07-17T10:05:14Z</time>
      </trkpt>
      <trkpt lat="43.4115380" lon="-4.0406360">
        <ele>84.8</ele>
        <time>2021-07-17T10:05:21Z</time>
      </trkpt>
      <trkpt lat="43.4115700" lon="-4.0405930">
        <ele>85.2</ele>
        <time>2021-07-17T10:05:23Z</time>
      </trkpt>
      <trkpt lat="43.4115840" lon="-4.0405720">
        <ele>85.6</ele>
        <time>2021-07-17T10:05:24Z</time>
      </trkpt>
      <trkpt lat="43.4115960" lon="-4.0405500">
        <ele>86.0</ele>
        <time>2021-07-17T10:05:25Z</time>
      </trkpt>
      <trkpt lat="43.4116120" lon="-4.0405290">
        <ele>86.4</ele>
        <time>2021-07-17T10:05:26Z</time>
      </trkpt>
      <trkpt lat="43.4116300" lon="-4.0405110">
        <ele>86.8</ele>
        <time>2021-07-17T10:05:27Z</time>
      </trkpt>
      <trkpt lat="43.4116640" lon="-4.0404770">
        <ele>86.8</ele>
        <time>2021-07-17T10:05:29Z</time>
      </trkpt>
      <trkpt lat="43.4117400" lon="-4.0403820">
        <ele>87.4</ele>
        <time>2021-07-17T10:05:34Z</time>
      </trkpt>
      <trkpt lat="43.4117560" lon="-4.0403620">
        <ele>87.8</ele>
        <time>2021-07-17T10:05:35Z</time>
      </trkpt>
      <trkpt lat="43.4117730" lon="-4.0403420">
        <ele>88.2</ele>
        <time>2021-07-17T10:05:36Z</time>
      </trkpt>
      <trkpt lat="43.4117880" lon="-4.0403240">
        <ele>88.6</ele>
        <time>2021-07-17T10:05:37Z</time>
      </trkpt>
      <trkpt lat="43.4118060" lon="-4.0403070">
        <ele>89.0</ele>
        <time>2021-07-17T10:05:38Z</time>
      </trkpt>
      <trkpt lat="43.4119540" lon="-4.0401890">
        <ele>89.4</ele>
        <time>2021-07-17T10:05:46Z</time>
      </trkpt>
      <trkpt lat="43.4119690" lon="-4.0401700">
        <ele>89.8</ele>
        <time>2021-07-17T10:05:47Z</time>
      </trkpt>
      <trkpt lat="43.4119850" lon="-4.0401530">
        <ele>90.2</ele>
        <time>2021-07-17T10:05:48Z</time>
      </trkpt>
      <trkpt lat="43.4120010" lon="-4.0401370">
        <ele>90.6</ele>
        <time>2021-07-17T10:05:49Z</time>
      </trkpt>
      <trkpt lat="43.4120190" lon="-4.0401230">
        <ele>91.0</ele>
        <time>2021-07-17T10:05:50Z</time>
      </trkpt>
      <trkpt lat="43.4120730" lon="-4.0400960">
        <ele>91.0</ele>
        <time>2021-07-17T10:05:53Z</time>
      </trkpt>
      <trkpt lat="43.4121770" lon="-4.0400520">
        <ele>91.4</ele>
        <time>2021-07-17T10:05:58Z</time>
      </trkpt>
      <trkpt lat="43.4121980" lon="-4.0400420">
        <ele>92.4</ele>
        <time>2021-07-17T10:05:59Z</time>
      </trkpt>
      <trkpt lat="43.4122180" lon="-4.0400350">
        <ele>92.8</ele>
        <time>2021-07-17T10:06:00Z</time>
      </trkpt>
      <trkpt lat="43.4122400" lon="-4.0400280">
        <ele>93.2</ele>
        <time>2021-07-17T10:06:01Z</time>
      </trkpt>
      <trkpt lat="43.4123870" lon="-4.0399850">
        <ele>93.2</ele>
        <time>2021-07-17T10:06:07Z</time>
      </trkpt>
      <trkpt lat="43.4125840" lon="-4.0399250">
        <ele>93.2</ele>
        <time>2021-07-17T10:06:14Z</time>
      </trkpt>
      <trkpt lat="43.4126830" lon="-4.0399020">
        <ele>93.6</ele>
        <time>2021-07-17T10:06:17Z</time>
      </trkpt>
      <trkpt lat="43.4127160" lon="-4.0398920">
        <ele>94.0</ele>
        <time>2021-07-17T10:06:18Z</time>
      </trkpt>
      <trkpt lat="43.4127500" lon="-4.0398830">
        <ele>94.6</ele>
        <time>2021-07-17T10:06:19Z</time>
      </trkpt>
      <trkpt lat="43.4127830" lon="-4.0398730">
        <ele>95.0</ele>
        <time>2021-07-17T10:06:20Z</time>
      </trkpt>
      <trkpt lat="43.4128160" lon="-4.0398650">
        <ele>95.6</ele>
        <time>2021-07-17T10:06:21Z</time>
      </trkpt>
      <trkpt lat="43.4128500" lon="-4.0398570">
        <ele>95.6</ele>
        <time>2021-07-17T10:06:22Z</time>
      </trkpt>
      <trkpt lat="43.4130540" lon="-4.0398070">
        <ele>95.6</ele>
        <time>2021-07-17T10:06:28Z</time>
      </trkpt>
      <trkpt lat="43.4132170" lon="-4.0397610">
        <ele>95.6</ele>
        <time>2021-07-17T10:06:33Z</time>
      </trkpt>
      <trkpt lat="43.4132800" lon="-4.0397410">
        <ele>95.6</ele>
        <time>2021-07-17T10:06:35Z</time>
      </trkpt>
      <trkpt lat="43.4134400" lon="-4.0397120">
        <ele>95.6</ele>
        <time>2021-07-17T10:06:40Z</time>
      </trkpt>
      <trkpt lat="43.4135610" lon="-4.0397230">
        <ele>95.6</ele>
        <time>2021-07-17T10:06:44Z</time>
      </trkpt>
      <trkpt lat="43.4136480" lon="-4.0397400">
        <ele>95.6</ele>
        <time>2021-07-17T10:06:47Z</time>
      </trkpt>
      <trkpt lat="43.4137240" lon="-4.0397320">
        <ele>95.6</ele>
        <time>2021-07-17T10:06:50Z</time>
      </trkpt>
      <trkpt lat="43.4137470" lon="-4.0397340">
        <ele>95.6</ele>
        <time>2021-07-17T10:06:51Z</time>
      </trkpt>
      <trkpt lat="43.4138500" lon="-4.0397530">
        <ele>95.6</ele>
        <time>2021-07-17T10:06:55Z</time>
      </trkpt>
      <trkpt lat="43.4139210" lon="-4.0397630">
        <ele>95.6</ele>
        <time>2021-07-17T10:06:57Z</time>
      </trkpt>
      <trkpt lat="43.4140780" lon="-4.0397850">
        <ele>95.6</ele>
        <time>2021-07-17T10:07:01Z</time>
      </trkpt>
      <trkpt lat="43.4141890" lon="-4.0397980">
        <ele>95.6</ele>
        <time>2021-07-17T10:07:04Z</time>
      </trkpt>
      <trkpt lat="43.4143430" lon="-4.0397810">
        <ele>95.6</ele>
        <time>2021-07-17T10:07:09Z</time>
      </trkpt>
      <trkpt lat="43.4143720" lon="-4.0397590">
        <ele>95.6</ele>
        <time>2021-07-17T10:07:10Z</time>
      </trkpt>
      <trkpt lat="43.4145220" lon="-4.0396150">
        <ele>95.6</ele>
        <time>2021-07-17T10:07:16Z</time>
      </trkpt>
      <trkpt lat="43.4146540" lon="-4.0395020">
        <ele>95.6</ele>
        <time>2021-07-17T10:07:22Z</time>
      </trkpt>
      <trkpt lat="43.4147540" lon="-4.0393910">
        <ele>95.6</ele>
        <time>2021-07-17T10:07:28Z</time>
      </trkpt>
      <trkpt lat="43.4147690" lon="-4.0393670">
        <ele>95.6</ele>
        <time>2021-07-17T10:07:31Z</time>
      </trkpt>
      <trkpt lat="43.4145390" lon="-4.0395910">
        <ele>95.6</ele>
        <time>2021-07-17T10:15:37Z</time>
      </trkpt>
      <trkpt lat="43.4145230" lon="-4.0396060">
        <ele>95.6</ele>
        <time>2021-07-17T10:15:38Z</time>
      </trkpt>
      <trkpt lat="43.4144610" lon="-4.0396710">
        <ele>95.6</ele>
        <time>2021-07-17T10:15:41Z</time>
      </trkpt>
      <trkpt lat="43.4144040" lon="-4.0397290">
        <ele>95.6</ele>
        <time>2021-07-17T10:15:43Z</time>
      </trkpt>
      <trkpt lat="43.4142620" lon="-4.0398040">
        <ele>95.6</ele>
        <time>2021-07-17T10:15:47Z</time>
      </trkpt>
      <trkpt lat="43.4142180" lon="-4.0397970">
        <ele>95.6</ele>
        <time>2021-07-17T10:15:48Z</time>
      </trkpt>
      <trkpt lat="43.4138560" lon="-4.0397530">
        <ele>95.6</ele>
        <time>2021-07-17T10:15:57Z</time>
      </trkpt>
      <trkpt lat="43.4136200" lon="-4.0397210">
        <ele>95.6</ele>
        <time>2021-07-17T10:16:04Z</time>
      </trkpt>
      <trkpt lat="43.4133960" lon="-4.0396990">
        <ele>95.6</ele>
        <time>2021-07-17T10:16:12Z</time>
      </trkpt>
      <trkpt lat="43.4133870" lon="-4.0396810">
        <ele>95.6</ele>
        <time>2021-07-17T10:16:14Z</time>
      </trkpt>
      <trkpt lat="43.4133840" lon="-4.0396830">
        <ele>95.6</ele>
        <time>2021-07-17T10:16:16Z</time>
      </trkpt>
      <trkpt lat="43.4134270" lon="-4.0395390">
        <ele>93.2</ele>
        <time>2021-07-17T10:16:41Z</time>
      </trkpt>
      <trkpt lat="43.4134450" lon="-4.0395430">
        <ele>93.2</ele>
        <time>2021-07-17T10:16:42Z</time>
      </trkpt>
      <trkpt lat="43.4135080" lon="-4.0395550">
        <ele>93.2</ele>
        <time>2021-07-17T10:16:45Z</time>
      </trkpt>
      <trkpt lat="43.4135500" lon="-4.0395610">
        <ele>93.2</ele>
        <time>2021-07-17T10:16:47Z</time>
      </trkpt>
      <trkpt lat="43.4135550" lon="-4.0395580">
        <ele>93.2</ele>
        <time>2021-07-17T10:16:49Z</time>
      </trkpt>
      <trkpt lat="43.4135760" lon="-4.0395640">
        <ele>93.2</ele>
        <time>2021-07-17T10:17:02Z</time>
      </trkpt>
      <trkpt lat="43.4135950" lon="-4.0395720">
        <ele>93.2</ele>
        <time>2021-07-17T10:17:03Z</time>
      </trkpt>
      <trkpt lat="43.4137300" lon="-4.0396310">
        <ele>93.2</ele>
        <time>2021-07-17T10:17:08Z</time>
      </trkpt>
      <trkpt lat="43.4137670" lon="-4.0396440">
        <ele>93.2</ele>
        <time>2021-07-17T10:17:09Z</time>
      </trkpt>
      <trkpt lat="43.4139260" lon="-4.0396850">
        <ele>92.8</ele>
        <time>2021-07-17T10:17:13Z</time>
      </trkpt>
      <trkpt lat="43.4139680" lon="-4.0396840">
        <ele>92.4</ele>
        <time>2021-07-17T10:17:14Z</time>
      </trkpt>
      <trkpt lat="43.4140110" lon="-4.0396840">
        <ele>92.0</ele>
        <time>2021-07-17T10:17:15Z</time>
      </trkpt>
      <trkpt lat="43.4140560" lon="-4.0396890">
        <ele>91.6</ele>
        <time>2021-07-17T10:17:16Z</time>
      </trkpt>
      <trkpt lat="43.4141000" lon="-4.0396900">
        <ele>91.0</ele>
        <time>2021-07-17T10:17:17Z</time>
      </trkpt>
      <trkpt lat="43.4142820" lon="-4.0396380">
        <ele>91.0</ele>
        <time>2021-07-17T10:17:21Z</time>
      </trkpt>
      <trkpt lat="43.4143590" lon="-4.0395810">
        <ele>91.0</ele>
        <time>2021-07-17T10:17:23Z</time>
      </trkpt>
      <trkpt lat="43.4144680" lon="-4.0394800">
        <ele>91.0</ele>
        <time>2021-07-17T10:17:26Z</time>
      </trkpt>
      <trkpt lat="43.4146360" lon="-4.0392690">
        <ele>91.0</ele>
        <time>2021-07-17T10:17:32Z</time>
      </trkpt>
      <trkpt lat="43.4146660" lon="-4.0392330">
        <ele>91.0</ele>
        <time>2021-07-17T10:17:33Z</time>
      </trkpt>
      <trkpt lat="43.4147320" lon="-4.0391140">
        <ele>91.0</ele>
        <time>2021-07-17T10:17:36Z</time>
      </trkpt>
      <trkpt lat="43.4147630" lon="-4.0390220">
        <ele>91.0</ele>
        <time>2021-07-17T10:17:38Z</time>
      </trkpt>
      <trkpt lat="43.4148200" lon="-4.0388260">
        <ele>91.0</ele>
        <time>2021-07-17T10:17:42Z</time>
      </trkpt>
      <trkpt lat="43.4148740" lon="-4.0386440">
        <ele>91.0</ele>
        <time>2021-07-17T10:17:46Z</time>
      </trkpt>
      <trkpt lat="43.4150170" lon="-4.0384300">
        <ele>91.0</ele>
        <time>2021-07-17T10:17:51Z</time>
      </trkpt>
      <trkpt lat="43.4151800" lon="-4.0382730">
        <ele>91.0</ele>
        <time>2021-07-17T10:17:55Z</time>
      </trkpt>
      <trkpt lat="43.4152980" lon="-4.0381690">
        <ele>91.0</ele>
        <time>2021-07-17T10:17:58Z</time>
      </trkpt>
      <trkpt lat="43.4153980" lon="-4.0380660">
        <ele>91.0</ele>
        <time>2021-07-17T10:18:01Z</time>
      </trkpt>
      <trkpt lat="43.4155640" lon="-4.0379240">
        <ele>91.0</ele>
        <time>2021-07-17T10:18:06Z</time>
      </trkpt>
      <trkpt lat="43.4158110" lon="-4.0376960">
        <ele>91.0</ele>
        <time>2021-07-17T10:18:13Z</time>
      </trkpt>
      <trkpt lat="43.4158500" lon="-4.0376620">
        <ele>90.6</ele>
        <time>2021-07-17T10:18:14Z</time>
      </trkpt>
      <trkpt lat="43.4158880" lon="-4.0376290">
        <ele>90.2</ele>
        <time>2021-07-17T10:18:15Z</time>
      </trkpt>
      <trkpt lat="43.4159250" lon="-4.0376020">
        <ele>89.4</ele>
        <time>2021-07-17T10:18:16Z</time>
      </trkpt>
      <trkpt lat="43.4159630" lon="-4.0375730">
        <ele>89.0</ele>
        <time>2021-07-17T10:18:17Z</time>
      </trkpt>
      <trkpt lat="43.4161120" lon="-4.0374370">
        <ele>89.0</ele>
        <time>2021-07-17T10:18:21Z</time>
      </trkpt>
      <trkpt lat="43.4161960" lon="-4.0373720">
        <ele>89.0</ele>
        <time>2021-07-17T10:18:23Z</time>
      </trkpt>
      <trkpt lat="43.4163430" lon="-4.0372250">
        <ele>89.0</ele>
        <time>2021-07-17T10:18:27Z</time>
      </trkpt>
      <trkpt lat="43.4163810" lon="-4.0371960">
        <ele>89.0</ele>
        <time>2021-07-17T10:18:28Z</time>
      </trkpt>
      <trkpt lat="43.4164910" lon="-4.0371100">
        <ele>89.0</ele>
        <time>2021-07-17T10:18:31Z</time>
      </trkpt>
      <trkpt lat="43.4165600" lon="-4.0370470">
        <ele>89.0</ele>
        <time>2021-07-17T10:18:33Z</time>
      </trkpt>
      <trkpt lat="43.4167190" lon="-4.0369180">
        <ele>89.0</ele>
        <time>2021-07-17T10:18:38Z</time>
      </trkpt>
      <trkpt lat="43.4167800" lon="-4.0368640">
        <ele>89.0</ele>
        <time>2021-07-17T10:18:40Z</time>
      </trkpt>
      <trkpt lat="43.4169360" lon="-4.0367250">
        <ele>89.0</ele>
        <time>2021-07-17T10:18:45Z</time>
      </trkpt>
      <trkpt lat="43.4170390" lon="-4.0366350">
        <ele>89.0</ele>
        <time>2021-07-17T10:18:48Z</time>
      </trkpt>
      <trkpt lat="43.4170760" lon="-4.0365970">
        <ele>89.4</ele>
        <time>2021-07-17T10:18:49Z</time>
      </trkpt>
      <trkpt lat="43.4171110" lon="-4.0365620">
        <ele>89.8</ele>
        <time>2021-07-17T10:18:50Z</time>
      </trkpt>
      <trkpt lat="43.4171480" lon="-4.0365300">
        <ele>90.2</ele>
        <time>2021-07-17T10:18:51Z</time>
      </trkpt>
      <trkpt lat="43.4171870" lon="-4.0364990">
        <ele>90.6</ele>
        <time>2021-07-17T10:18:52Z</time>
      </trkpt>
      <trkpt lat="43.4172230" lon="-4.0364600">
        <ele>91.0</ele>
        <time>2021-07-17T10:18:53Z</time>
      </trkpt>
      <trkpt lat="43.4172580" lon="-4.0364200">
        <ele>91.0</ele>
        <time>2021-07-17T10:18:54Z</time>
      </trkpt>
      <trkpt lat="43.4175100" lon="-4.0361600">
        <ele>91.0</ele>
        <time>2021-07-17T10:19:01Z</time>
      </trkpt>
      <trkpt lat="43.4176970" lon="-4.0360300">
        <ele>91.0</ele>
        <time>2021-07-17T10:19:06Z</time>
      </trkpt>
      <trkpt lat="43.4178550" lon="-4.0358780">
        <ele>91.0</ele>
        <time>2021-07-17T10:19:12Z</time>
      </trkpt>
      <trkpt lat="43.4180420" lon="-4.0356230">
        <ele>91.0</ele>
        <time>2021-07-17T10:19:19Z</time>
      </trkpt>
      <trkpt lat="43.4183160" lon="-4.0353750">
        <ele>91.0</ele>
        <time>2021-07-17T10:19:26Z</time>
      </trkpt>
      <trkpt lat="43.4183570" lon="-4.0353580">
        <ele>91.0</ele>
        <time>2021-07-17T10:19:27Z</time>
      </trkpt>
      <trkpt lat="43.4185300" lon="-4.0353290">
        <ele>91.0</ele>
        <time>2021-07-17T10:19:31Z</time>
      </trkpt>
      <trkpt lat="43.4186190" lon="-4.0353280">
        <ele>91.0</ele>
        <time>2021-07-17T10:19:33Z</time>
      </trkpt>
      <trkpt lat="43.4187730" lon="-4.0353190">
        <ele>91.0</ele>
        <time>2021-07-17T10:19:37Z</time>
      </trkpt>
      <trkpt lat="43.4189710" lon="-4.0352690">
        <ele>91.0</ele>
        <time>2021-07-17T10:19:41Z</time>
      </trkpt>
      <trkpt lat="43.4190360" lon="-4.0352460">
        <ele>91.0</ele>
        <time>2021-07-17T10:19:42Z</time>
      </trkpt>
      <trkpt lat="43.4191640" lon="-4.0351710">
        <ele>90.6</ele>
        <time>2021-07-17T10:19:44Z</time>
      </trkpt>
      <trkpt lat="43.4192200" lon="-4.0351270">
        <ele>90.2</ele>
        <time>2021-07-17T10:19:45Z</time>
      </trkpt>
      <trkpt lat="43.4192640" lon="-4.0350770">
        <ele>89.8</ele>
        <time>2021-07-17T10:19:46Z</time>
      </trkpt>
      <trkpt lat="43.4192970" lon="-4.0350340">
        <ele>89.4</ele>
        <time>2021-07-17T10:19:47Z</time>
      </trkpt>
      <trkpt lat="43.4193290" lon="-4.0349850">
        <ele>89.0</ele>
        <time>2021-07-17T10:19:48Z</time>
      </trkpt>
      <trkpt lat="43.4193620" lon="-4.0349380">
        <ele>88.4</ele>
        <time>2021-07-17T10:19:49Z</time>
      </trkpt>
      <trkpt lat="43.4193910" lon="-4.0348890">
        <ele>88.0</ele>
        <time>2021-07-17T10:19:50Z</time>
      </trkpt>
      <trkpt lat="43.4194170" lon="-4.0348480">
        <ele>87.4</ele>
        <time>2021-07-17T10:19:51Z</time>
      </trkpt>
      <trkpt lat="43.4194390" lon="-4.0348150">
        <ele>87.0</ele>
        <time>2021-07-17T10:19:52Z</time>
      </trkpt>
      <trkpt lat="43.4194610" lon="-4.0347810">
        <ele>86.4</ele>
        <time>2021-07-17T10:19:53Z</time>
      </trkpt>
      <trkpt lat="43.4195040" lon="-4.0347200">
        <ele>86.0</ele>
        <time>2021-07-17T10:19:55Z</time>
      </trkpt>
      <trkpt lat="43.4195310" lon="-4.0346860">
        <ele>85.6</ele>
        <time>2021-07-17T10:19:56Z</time>
      </trkpt>
      <trkpt lat="43.4195480" lon="-4.0346630">
        <ele>85.2</ele>
        <time>2021-07-17T10:19:57Z</time>
      </trkpt>
      <trkpt lat="43.4195730" lon="-4.0346310">
        <ele>84.6</ele>
        <time>2021-07-17T10:19:58Z</time>
      </trkpt>
      <trkpt lat="43.4196010" lon="-4.0345970">
        <ele>84.2</ele>
        <time>2021-07-17T10:19:59Z</time>
      </trkpt>
      <trkpt lat="43.4196370" lon="-4.0345610">
        <ele>83.8</ele>
        <time>2021-07-17T10:20:00Z</time>
      </trkpt>
      <trkpt lat="43.4196780" lon="-4.0345290">
        <ele>83.4</ele>
        <time>2021-07-17T10:20:01Z</time>
      </trkpt>
      <trkpt lat="43.4197200" lon="-4.0345030">
        <ele>83.0</ele>
        <time>2021-07-17T10:20:02Z</time>
      </trkpt>
      <trkpt lat="43.4197660" lon="-4.0344770">
        <ele>82.6</ele>
        <time>2021-07-17T10:20:03Z</time>
      </trkpt>
      <trkpt lat="43.4198070" lon="-4.0344600">
        <ele>82.0</ele>
        <time>2021-07-17T10:20:04Z</time>
      </trkpt>
      <trkpt lat="43.4198560" lon="-4.0344470">
        <ele>81.6</ele>
        <time>2021-07-17T10:20:05Z</time>
      </trkpt>
      <trkpt lat="43.4199120" lon="-4.0344270">
        <ele>81.0</ele>
        <time>2021-07-17T10:20:06Z</time>
      </trkpt>
      <trkpt lat="43.4199700" lon="-4.0344130">
        <ele>80.6</ele>
        <time>2021-07-17T10:20:07Z</time>
      </trkpt>
      <trkpt lat="43.4200290" lon="-4.0343930">
        <ele>80.0</ele>
        <time>2021-07-17T10:20:08Z</time>
      </trkpt>
      <trkpt lat="43.4200940" lon="-4.0343690">
        <ele>79.4</ele>
        <time>2021-07-17T10:20:09Z</time>
      </trkpt>
      <trkpt lat="43.4201600" lon="-4.0343450">
        <ele>78.8</ele>
        <time>2021-07-17T10:20:10Z</time>
      </trkpt>
      <trkpt lat="43.4202330" lon="-4.0343150">
        <ele>78.2</ele>
        <time>2021-07-17T10:20:11Z</time>
      </trkpt>
      <trkpt lat="43.4203110" lon="-4.0342840">
        <ele>77.4</ele>
        <time>2021-07-17T10:20:12Z</time>
      </trkpt>
      <trkpt lat="43.4203960" lon="-4.0342640">
        <ele>76.4</ele>
        <time>2021-07-17T10:20:13Z</time>
      </trkpt>
      <trkpt lat="43.4204840" lon="-4.0342460">
        <ele>75.4</ele>
        <time>2021-07-17T10:20:14Z</time>
      </trkpt>
      <trkpt lat="43.4205700" lon="-4.0342240">
        <ele>74.4</ele>
        <time>2021-07-17T10:20:15Z</time>
      </trkpt>
      <trkpt lat="43.4206490" lon="-4.0342040">
        <ele>73.4</ele>
        <time>2021-07-17T10:20:16Z</time>
      </trkpt>
      <trkpt lat="43.4207200" lon="-4.0341860">
        <ele>72.4</ele>
        <time>2021-07-17T10:20:17Z</time>
      </trkpt>
      <trkpt lat="43.4207790" lon="-4.0341710">
        <ele>71.2</ele>
        <time>2021-07-17T10:20:18Z</time>
      </trkpt>
      <trkpt lat="43.4208310" lon="-4.0341570">
        <ele>70.8</ele>
        <time>2021-07-17T10:20:19Z</time>
      </trkpt>
      <trkpt lat="43.4208710" lon="-4.0341460">
        <ele>70.4</ele>
        <time>2021-07-17T10:20:20Z</time>
      </trkpt>
      <trkpt lat="43.4209050" lon="-4.0341310">
        <ele>69.8</ele>
        <time>2021-07-17T10:20:21Z</time>
      </trkpt>
      <trkpt lat="43.4209320" lon="-4.0341160">
        <ele>69.2</ele>
        <time>2021-07-17T10:20:22Z</time>
      </trkpt>
      <trkpt lat="43.4209620" lon="-4.0341030">
        <ele>68.4</ele>
        <time>2021-07-17T10:20:23Z</time>
      </trkpt>
      <trkpt lat="43.4209890" lon="-4.0340830">
        <ele>67.8</ele>
        <time>2021-07-17T10:20:24Z</time>
      </trkpt>
      <trkpt lat="43.4210240" lon="-4.0340720">
        <ele>67.2</ele>
        <time>2021-07-17T10:20:25Z</time>
      </trkpt>
      <trkpt lat="43.4210570" lon="-4.0340380">
        <ele>66.4</ele>
        <time>2021-07-17T10:20:26Z</time>
      </trkpt>
      <trkpt lat="43.4210910" lon="-4.0339890">
        <ele>66.4</ele>
        <time>2021-07-17T10:20:27Z</time>
      </trkpt>
      <trkpt lat="43.4211400" lon="-4.0337470">
        <ele>66.4</ele>
        <time>2021-07-17T10:20:31Z</time>
      </trkpt>
      <trkpt lat="43.4211430" lon="-4.0336830">
        <ele>66.4</ele>
        <time>2021-07-17T10:20:32Z</time>
      </trkpt>
      <trkpt lat="43.4211450" lon="-4.0336150">
        <ele>66.4</ele>
        <time>2021-07-17T10:20:33Z</time>
      </trkpt>
      <trkpt lat="43.4211570" lon="-4.0334790">
        <ele>66.4</ele>
        <time>2021-07-17T10:20:35Z</time>
      </trkpt>
      <trkpt lat="43.4211690" lon="-4.0333400">
        <ele>66.4</ele>
        <time>2021-07-17T10:20:37Z</time>
      </trkpt>
      <trkpt lat="43.4211840" lon="-4.0332030">
        <ele>66.4</ele>
        <time>2021-07-17T10:20:39Z</time>
      </trkpt>
      <trkpt lat="43.4211920" lon="-4.0331320">
        <ele>66.4</ele>
        <time>2021-07-17T10:20:40Z</time>
      </trkpt>
      <trkpt lat="43.4212220" lon="-4.0326830">
        <ele>66.4</ele>
        <time>2021-07-17T10:20:47Z</time>
      </trkpt>
      <trkpt lat="43.4212440" lon="-4.0323050">
        <ele>66.4</ele>
        <time>2021-07-17T10:20:53Z</time>
      </trkpt>
      <trkpt lat="43.4212530" lon="-4.0322430">
        <ele>66.0</ele>
        <time>2021-07-17T10:20:54Z</time>
      </trkpt>
      <trkpt lat="43.4212580" lon="-4.0321750">
        <ele>65.6</ele>
        <time>2021-07-17T10:20:55Z</time>
      </trkpt>
      <trkpt lat="43.4212630" lon="-4.0321090">
        <ele>65.2</ele>
        <time>2021-07-17T10:20:56Z</time>
      </trkpt>
      <trkpt lat="43.4212700" lon="-4.0320480">
        <ele>64.8</ele>
        <time>2021-07-17T10:20:57Z</time>
      </trkpt>
      <trkpt lat="43.4212760" lon="-4.0319900">
        <ele>64.4</ele>
        <time>2021-07-17T10:20:58Z</time>
      </trkpt>
      <trkpt lat="43.4212950" lon="-4.0318240">
        <ele>64.4</ele>
        <time>2021-07-17T10:21:02Z</time>
      </trkpt>
      <trkpt lat="43.4213020" lon="-4.0317900">
        <ele>64.0</ele>
        <time>2021-07-17T10:21:03Z</time>
      </trkpt>
      <trkpt lat="43.4213120" lon="-4.0317530">
        <ele>63.6</ele>
        <time>2021-07-17T10:21:04Z</time>
      </trkpt>
      <trkpt lat="43.4213260" lon="-4.0317230">
        <ele>63.2</ele>
        <time>2021-07-17T10:21:05Z</time>
      </trkpt>
      <trkpt lat="43.4213420" lon="-4.0317080">
        <ele>62.6</ele>
        <time>2021-07-17T10:21:06Z</time>
      </trkpt>
      <trkpt lat="43.4213570" lon="-4.0316870">
        <ele>62.2</ele>
        <time>2021-07-17T10:21:07Z</time>
      </trkpt>
      <trkpt lat="43.4214310" lon="-4.0316220">
        <ele>62.2</ele>
        <time>2021-07-17T10:21:11Z</time>
      </trkpt>
      <trkpt lat="43.4214720" lon="-4.0316050">
        <ele>62.2</ele>
        <time>2021-07-17T10:21:13Z</time>
      </trkpt>
      <trkpt lat="43.4214930" lon="-4.0315950">
        <ele>62.2</ele>
        <time>2021-07-17T10:21:14Z</time>
      </trkpt>
      <trkpt lat="43.4215130" lon="-4.0315870">
        <ele>62.8</ele>
        <time>2021-07-17T10:21:15Z</time>
      </trkpt>
      <trkpt lat="43.4215320" lon="-4.0315820">
        <ele>63.2</ele>
        <time>2021-07-17T10:21:16Z</time>
      </trkpt>
      <trkpt lat="43.4215510" lon="-4.0315730">
        <ele>63.6</ele>
        <time>2021-07-17T10:21:17Z</time>
      </trkpt>
      <trkpt lat="43.4215710" lon="-4.0315690">
        <ele>64.0</ele>
        <time>2021-07-17T10:21:18Z</time>
      </trkpt>
      <trkpt lat="43.4215870" lon="-4.0315640">
        <ele>64.4</ele>
        <time>2021-07-17T10:21:19Z</time>
      </trkpt>
      <trkpt lat="43.4216400" lon="-4.0315680">
        <ele>64.4</ele>
        <time>2021-07-17T10:21:22Z</time>
      </trkpt>
      <trkpt lat="43.4216880" lon="-4.0315490">
        <ele>64.4</ele>
        <time>2021-07-17T10:21:25Z</time>
      </trkpt>
      <trkpt lat="43.4216680" lon="-4.0315300">
        <ele>64.4</ele>
        <time>2021-07-17T10:21:27Z</time>
      </trkpt>
      <trkpt lat="43.4215820" lon="-4.0315610">
        <ele>64.4</ele>
        <time>2021-07-17T10:21:32Z</time>
      </trkpt>
      <trkpt lat="43.4215280" lon="-4.0316890">
        <ele>64.4</ele>
        <time>2021-07-17T10:21:38Z</time>
      </trkpt>
      <trkpt lat="43.4215310" lon="-4.0317070">
        <ele>64.4</ele>
        <time>2021-07-17T10:21:39Z</time>
      </trkpt>
      <trkpt lat="43.4215440" lon="-4.0317230">
        <ele>64.4</ele>
        <time>2021-07-17T10:21:40Z</time>
      </trkpt>
      <trkpt lat="43.4215630" lon="-4.0317330">
        <ele>64.4</ele>
        <time>2021-07-17T10:21:42Z</time>
      </trkpt>
      <trkpt lat="43.4215830" lon="-4.0317240">
        <ele>64.4</ele>
        <time>2021-07-17T10:21:43Z</time>
      </trkpt>
      <trkpt lat="43.4216340" lon="-4.0317100">
        <ele>65.0</ele>
        <time>2021-07-17T10:21:46Z</time>
      </trkpt>
      <trkpt lat="43.4216530" lon="-4.0317030">
        <ele>65.4</ele>
        <time>2021-07-17T10:21:47Z</time>
      </trkpt>
      <trkpt lat="43.4216750" lon="-4.0316960">
        <ele>65.8</ele>
        <time>2021-07-17T10:21:48Z</time>
      </trkpt>
      <trkpt lat="43.4216940" lon="-4.0316870">
        <ele>66.2</ele>
        <time>2021-07-17T10:21:49Z</time>
      </trkpt>
      <trkpt lat="43.4217140" lon="-4.0316820">
        <ele>66.8</ele>
        <time>2021-07-17T10:21:50Z</time>
      </trkpt>
      <trkpt lat="43.4217710" lon="-4.0316660">
        <ele>67.2</ele>
        <time>2021-07-17T10:21:53Z</time>
      </trkpt>
      <trkpt lat="43.4217850" lon="-4.0316570">
        <ele>67.6</ele>
        <time>2021-07-17T10:21:54Z</time>
      </trkpt>
      <trkpt lat="43.4218040" lon="-4.0316490">
        <ele>68.0</ele>
        <time>2021-07-17T10:21:55Z</time>
      </trkpt>
      <trkpt lat="43.4218260" lon="-4.0316470">
        <ele>68.4</ele>
        <time>2021-07-17T10:21:56Z</time>
      </trkpt>
      <trkpt lat="43.4218470" lon="-4.0316430">
        <ele>68.8</ele>
        <time>2021-07-17T10:21:57Z</time>
      </trkpt>
      <trkpt lat="43.4219330" lon="-4.0316380">
        <ele>69.2</ele>
        <time>2021-07-17T10:22:01Z</time>
      </trkpt>
      <trkpt lat="43.4219540" lon="-4.0316340">
        <ele>69.6</ele>
        <time>2021-07-17T10:22:02Z</time>
      </trkpt>
      <trkpt lat="43.4219730" lon="-4.0316320">
        <ele>70.0</ele>
        <time>2021-07-17T10:22:03Z</time>
      </trkpt>
      <trkpt lat="43.4219930" lon="-4.0316300">
        <ele>70.4</ele>
        <time>2021-07-17T10:22:04Z</time>
      </trkpt>
      <trkpt lat="43.4220110" lon="-4.0316250">
        <ele>70.8</ele>
        <time>2021-07-17T10:22:05Z</time>
      </trkpt>
      <trkpt lat="43.4220850" lon="-4.0316190">
        <ele>71.2</ele>
        <time>2021-07-17T10:22:09Z</time>
      </trkpt>
      <trkpt lat="43.4221050" lon="-4.0316210">
        <ele>71.8</ele>
        <time>2021-07-17T10:22:10Z</time>
      </trkpt>
      <trkpt lat="43.4221210" lon="-4.0316180">
        <ele>72.2</ele>
        <time>2021-07-17T10:22:11Z</time>
      </trkpt>
      <trkpt lat="43.4221440" lon="-4.0316170">
        <ele>72.6</ele>
        <time>2021-07-17T10:22:12Z</time>
      </trkpt>
      <trkpt lat="43.4221660" lon="-4.0316140">
        <ele>73.0</ele>
        <time>2021-07-17T10:22:13Z</time>
      </trkpt>
      <trkpt lat="43.4222010" lon="-4.0316170">
        <ele>73.4</ele>
        <time>2021-07-17T10:22:15Z</time>
      </trkpt>
      <trkpt lat="43.4222210" lon="-4.0316200">
        <ele>74.0</ele>
        <time>2021-07-17T10:22:16Z</time>
      </trkpt>
      <trkpt lat="43.4222390" lon="-4.0316210">
        <ele>74.4</ele>
        <time>2021-07-17T10:22:17Z</time>
      </trkpt>
      <trkpt lat="43.4222590" lon="-4.0316200">
        <ele>74.8</ele>
        <time>2021-07-17T10:22:18Z</time>
      </trkpt>
      <trkpt lat="43.4222770" lon="-4.0316160">
        <ele>75.2</ele>
        <time>2021-07-17T10:22:19Z</time>
      </trkpt>
      <trkpt lat="43.4222980" lon="-4.0316150">
        <ele>75.2</ele>
        <time>2021-07-17T10:22:20Z</time>
      </trkpt>
      <trkpt lat="43.4224270" lon="-4.0315840">
        <ele>75.6</ele>
        <time>2021-07-17T10:22:27Z</time>
      </trkpt>
      <trkpt lat="43.4224440" lon="-4.0315800">
        <ele>76.0</ele>
        <time>2021-07-17T10:22:28Z</time>
      </trkpt>
      <trkpt lat="43.4224590" lon="-4.0315760">
        <ele>76.6</ele>
        <time>2021-07-17T10:22:29Z</time>
      </trkpt>
      <trkpt lat="43.4224730" lon="-4.0315780">
        <ele>77.0</ele>
        <time>2021-07-17T10:22:30Z</time>
      </trkpt>
      <trkpt lat="43.4224900" lon="-4.0315790">
        <ele>77.4</ele>
        <time>2021-07-17T10:22:31Z</time>
      </trkpt>
      <trkpt lat="43.4225510" lon="-4.0315880">
        <ele>77.4</ele>
        <time>2021-07-17T10:22:35Z</time>
      </trkpt>
      <trkpt lat="43.4226100" lon="-4.0316010">
        <ele>77.8</ele>
        <time>2021-07-17T10:22:39Z</time>
      </trkpt>
      <trkpt lat="43.4226240" lon="-4.0316010">
        <ele>78.2</ele>
        <time>2021-07-17T10:22:40Z</time>
      </trkpt>
      <trkpt lat="43.4226390" lon="-4.0316030">
        <ele>78.6</ele>
        <time>2021-07-17T10:22:41Z</time>
      </trkpt>
      <trkpt lat="43.4226570" lon="-4.0316070">
        <ele>79.0</ele>
        <time>2021-07-17T10:22:42Z</time>
      </trkpt>
      <trkpt lat="43.4226720" lon="-4.0316100">
        <ele>79.4</ele>
        <time>2021-07-17T10:22:43Z</time>
      </trkpt>
      <trkpt lat="43.4227460" lon="-4.0316360">
        <ele>79.8</ele>
        <time>2021-07-17T10:22:46Z</time>
      </trkpt>
      <trkpt lat="43.4227670" lon="-4.0316490">
        <ele>80.4</ele>
        <time>2021-07-17T10:22:47Z</time>
      </trkpt>
      <trkpt lat="43.4227850" lon="-4.0316620">
        <ele>80.8</ele>
        <time>2021-07-17T10:22:48Z</time>
      </trkpt>
      <trkpt lat="43.4228000" lon="-4.0316750">
        <ele>81.2</ele>
        <time>2021-07-17T10:22:49Z</time>
      </trkpt>
      <trkpt lat="43.4228110" lon="-4.0316910">
        <ele>81.6</ele>
        <time>2021-07-17T10:22:50Z</time>
      </trkpt>
      <trkpt lat="43.4228160" lon="-4.0317090">
        <ele>81.6</ele>
        <time>2021-07-17T10:22:51Z</time>
      </trkpt>
      <trkpt lat="43.4228280" lon="-4.0318470">
        <ele>81.6</ele>
        <time>2021-07-17T10:22:56Z</time>
      </trkpt>
      <trkpt lat="43.4228270" lon="-4.0320340">
        <ele>81.6</ele>
        <time>2021-07-17T10:23:03Z</time>
      </trkpt>
      <trkpt lat="43.4228490" lon="-4.0322160">
        <ele>82.0</ele>
        <time>2021-07-17T10:23:10Z</time>
      </trkpt>
      <trkpt lat="43.4228520" lon="-4.0322360">
        <ele>82.4</ele>
        <time>2021-07-17T10:23:11Z</time>
      </trkpt>
      <trkpt lat="43.4228540" lon="-4.0322510">
        <ele>82.8</ele>
        <time>2021-07-17T10:23:12Z</time>
      </trkpt>
      <trkpt lat="43.4228560" lon="-4.0322640">
        <ele>83.4</ele>
        <time>2021-07-17T10:23:13Z</time>
      </trkpt>
      <trkpt lat="43.4228610" lon="-4.0322720">
        <ele>83.8</ele>
        <time>2021-07-17T10:23:14Z</time>
      </trkpt>
      <trkpt lat="43.4228880" lon="-4.0322790">
        <ele>83.8</ele>
        <time>2021-07-17T10:23:18Z</time>
      </trkpt>
      <trkpt lat="43.4228960" lon="-4.0322820">
        <ele>83.8</ele>
        <time>2021-07-17T10:23:20Z</time>
      </trkpt>
      <trkpt lat="43.4228950" lon="-4.0322910">
        <ele>83.8</ele>
        <time>2021-07-17T10:24:23Z</time>
      </trkpt>
      <trkpt lat="43.4228920" lon="-4.0323110">
        <ele>83.8</ele>
        <time>2021-07-17T10:24:24Z</time>
      </trkpt>
      <trkpt lat="43.4228890" lon="-4.0323320">
        <ele>83.8</ele>
        <time>2021-07-17T10:24:25Z</time>
      </trkpt>
      <trkpt lat="43.4228840" lon="-4.0323890">
        <ele>83.8</ele>
        <time>2021-07-17T10:24:28Z</time>
      </trkpt>
      <trkpt lat="43.4228880" lon="-4.0324540">
        <ele>83.8</ele>
        <time>2021-07-17T10:24:32Z</time>
      </trkpt>
      <trkpt lat="43.4228880" lon="-4.0324720">
        <ele>83.8</ele>
        <time>2021-07-17T10:24:33Z</time>
      </trkpt>
      <trkpt lat="43.4228980" lon="-4.0325720">
        <ele>84.2</ele>
        <time>2021-07-17T10:24:39Z</time>
      </trkpt>
      <trkpt lat="43.4228970" lon="-4.0325890">
        <ele>84.6</ele>
        <time>2021-07-17T10:24:40Z</time>
      </trkpt>
      <trkpt lat="43.4228960" lon="-4.0326060">
        <ele>85.0</ele>
        <time>2021-07-17T10:24:41Z</time>
      </trkpt>
      <trkpt lat="43.4228950" lon="-4.0326230">
        <ele>85.4</ele>
        <time>2021-07-17T10:24:42Z</time>
      </trkpt>
      <trkpt lat="43.4228940" lon="-4.0326410">
        <ele>85.8</ele>
        <time>2021-07-17T10:24:43Z</time>
      </trkpt>
      <trkpt lat="43.4228950" lon="-4.0326890">
        <ele>85.8</ele>
        <time>2021-07-17T10:24:46Z</time>
      </trkpt>
      <trkpt lat="43.4228830" lon="-4.0327720">
        <ele>85.8</ele>
        <time>2021-07-17T10:24:51Z</time>
      </trkpt>
      <trkpt lat="43.4228800" lon="-4.0327880">
        <ele>86.2</ele>
        <time>2021-07-17T10:24:52Z</time>
      </trkpt>
      <trkpt lat="43.4228740" lon="-4.0328040">
        <ele>86.8</ele>
        <time>2021-07-17T10:24:53Z</time>
      </trkpt>
      <trkpt lat="43.4228690" lon="-4.0328200">
        <ele>87.2</ele>
        <time>2021-07-17T10:24:54Z</time>
      </trkpt>
      <trkpt lat="43.4228640" lon="-4.0328370">
        <ele>87.6</ele>
        <time>2021-07-17T10:24:55Z</time>
      </trkpt>
      <trkpt lat="43.4228570" lon="-4.0328540">
        <ele>88.0</ele>
        <time>2021-07-17T10:24:56Z</time>
      </trkpt>
      <trkpt lat="43.4228290" lon="-4.0329420">
        <ele>88.0</ele>
        <time>2021-07-17T10:25:01Z</time>
      </trkpt>
      <trkpt lat="43.4228240" lon="-4.0329620">
        <ele>88.0</ele>
        <time>2021-07-17T10:25:02Z</time>
      </trkpt>
      <trkpt lat="43.4228120" lon="-4.0330020">
        <ele>88.4</ele>
        <time>2021-07-17T10:25:04Z</time>
      </trkpt>
      <trkpt lat="43.4228090" lon="-4.0330220">
        <ele>88.8</ele>
        <time>2021-07-17T10:25:05Z</time>
      </trkpt>
      <trkpt lat="43.4228050" lon="-4.0330400">
        <ele>89.2</ele>
        <time>2021-07-17T10:25:06Z</time>
      </trkpt>
      <trkpt lat="43.4228020" lon="-4.0330570">
        <ele>89.8</ele>
        <time>2021-07-17T10:25:07Z</time>
      </trkpt>
      <trkpt lat="43.4227980" lon="-4.0330730">
        <ele>90.2</ele>
        <time>2021-07-17T10:25:08Z</time>
      </trkpt>
      <trkpt lat="43.4227850" lon="-4.0331270">
        <ele>90.2</ele>
        <time>2021-07-17T10:25:11Z</time>
      </trkpt>
      <trkpt lat="43.4227720" lon="-4.0332600">
        <ele>90.6</ele>
        <time>2021-07-17T10:25:18Z</time>
      </trkpt>
      <trkpt lat="43.4227750" lon="-4.0332790">
        <ele>91.0</ele>
        <time>2021-07-17T10:25:19Z</time>
      </trkpt>
      <trkpt lat="43.4227780" lon="-4.0332980">
        <ele>91.4</ele>
        <time>2021-07-17T10:25:20Z</time>
      </trkpt>
      <trkpt lat="43.4227820" lon="-4.0333170">
        <ele>91.8</ele>
        <time>2021-07-17T10:25:21Z</time>
      </trkpt>
      <trkpt lat="43.4227850" lon="-4.0333370">
        <ele>92.2</ele>
        <time>2021-07-17T10:25:22Z</time>
      </trkpt>
      <trkpt lat="43.4228010" lon="-4.0334700">
        <ele>92.2</ele>
        <time>2021-07-17T10:25:29Z</time>
      </trkpt>
      <trkpt lat="43.4228260" lon="-4.0335780">
        <ele>92.6</ele>
        <time>2021-07-17T10:25:35Z</time>
      </trkpt>
      <trkpt lat="43.4228320" lon="-4.0335970">
        <ele>93.0</ele>
        <time>2021-07-17T10:25:36Z</time>
      </trkpt>
      <trkpt lat="43.4228360" lon="-4.0336170">
        <ele>93.4</ele>
        <time>2021-07-17T10:25:37Z</time>
      </trkpt>
      <trkpt lat="43.4228400" lon="-4.0336340">
        <ele>94.0</ele>
        <time>2021-07-17T10:25:38Z</time>
      </trkpt>
      <trkpt lat="43.4228440" lon="-4.0336510">
        <ele>94.4</ele>
        <time>2021-07-17T10:25:39Z</time>
      </trkpt>
      <trkpt lat="43.4228510" lon="-4.0336830">
        <ele>94.4</ele>
        <time>2021-07-17T10:25:42Z</time>
      </trkpt>
      <trkpt lat="43.4228530" lon="-4.0337020">
        <ele>94.4</ele>
        <time>2021-07-17T10:25:50Z</time>
      </trkpt>
      <trkpt lat="43.4228670" lon="-4.0338560">
        <ele>94.4</ele>
        <time>2021-07-17T10:25:57Z</time>
      </trkpt>
      <trkpt lat="43.4228810" lon="-4.0340160">
        <ele>94.4</ele>
        <time>2021-07-17T10:26:02Z</time>
      </trkpt>
      <trkpt lat="43.4228920" lon="-4.0341250">
        <ele>94.4</ele>
        <time>2021-07-17T10:26:05Z</time>
      </trkpt>
      <trkpt lat="43.4229050" lon="-4.0343980">
        <ele>94.4</ele>
        <time>2021-07-17T10:26:12Z</time>
      </trkpt>
      <trkpt lat="43.4229130" lon="-4.0345910">
        <ele>94.4</ele>
        <time>2021-07-17T10:26:18Z</time>
      </trkpt>
      <trkpt lat="43.4229350" lon="-4.0347710">
        <ele>94.8</ele>
        <time>2021-07-17T10:26:23Z</time>
      </trkpt>
      <trkpt lat="43.4229410" lon="-4.0348030">
        <ele>95.2</ele>
        <time>2021-07-17T10:26:24Z</time>
      </trkpt>
      <trkpt lat="43.4229450" lon="-4.0348350">
        <ele>95.6</ele>
        <time>2021-07-17T10:26:25Z</time>
      </trkpt>
      <trkpt lat="43.4229500" lon="-4.0348670">
        <ele>96.0</ele>
        <time>2021-07-17T10:26:26Z</time>
      </trkpt>
      <trkpt lat="43.4229570" lon="-4.0348980">
        <ele>96.4</ele>
        <time>2021-07-17T10:26:27Z</time>
      </trkpt>
      <trkpt lat="43.4229820" lon="-4.0349840">
        <ele>96.8</ele>
        <time>2021-07-17T10:26:30Z</time>
      </trkpt>
      <trkpt lat="43.4229900" lon="-4.0350150">
        <ele>97.2</ele>
        <time>2021-07-17T10:26:31Z</time>
      </trkpt>
      <trkpt lat="43.4229960" lon="-4.0350490">
        <ele>97.6</ele>
        <time>2021-07-17T10:26:32Z</time>
      </trkpt>
      <trkpt lat="43.4230020" lon="-4.0350800">
        <ele>98.0</ele>
        <time>2021-07-17T10:26:33Z</time>
      </trkpt>
      <trkpt lat="43.4230090" lon="-4.0351080">
        <ele>98.4</ele>
        <time>2021-07-17T10:26:34Z</time>
      </trkpt>
      <trkpt lat="43.4230490" lon="-4.0352080">
        <ele>98.4</ele>
        <time>2021-07-17T10:26:39Z</time>
      </trkpt>
      <trkpt lat="43.4230500" lon="-4.0352120">
        <ele>98.4</ele>
        <time>2021-07-17T10:26:40Z</time>
      </trkpt>
      <trkpt lat="43.4230500" lon="-4.0352130">
        <ele>98.4</ele>
        <time>2021-07-17T10:26:58Z</time>
      </trkpt>
      <trkpt lat="43.4230700" lon="-4.0352730">
        <ele>98.4</ele>
        <time>2021-07-17T10:27:00Z</time>
      </trkpt>
      <trkpt lat="43.4231870" lon="-4.0354470">
        <ele>98.4</ele>
        <time>2021-07-17T10:27:04Z</time>
      </trkpt>
      <trkpt lat="43.4232620" lon="-4.0355460">
        <ele>98.4</ele>
        <time>2021-07-17T10:27:06Z</time>
      </trkpt>
      <trkpt lat="43.4233300" lon="-4.0356660">
        <ele>98.0</ele>
        <time>2021-07-17T10:27:08Z</time>
      </trkpt>
      <trkpt lat="43.4233610" lon="-4.0357280">
        <ele>97.6</ele>
        <time>2021-07-17T10:27:09Z</time>
      </trkpt>
      <trkpt lat="43.4233880" lon="-4.0357930">
        <ele>97.2</ele>
        <time>2021-07-17T10:27:10Z</time>
      </trkpt>
      <trkpt lat="43.4234150" lon="-4.0358600">
        <ele>96.8</ele>
        <time>2021-07-17T10:27:11Z</time>
      </trkpt>
      <trkpt lat="43.4234470" lon="-4.0359260">
        <ele>96.4</ele>
        <time>2021-07-17T10:27:12Z</time>
      </trkpt>
      <trkpt lat="43.4234820" lon="-4.0359920">
        <ele>96.0</ele>
        <time>2021-07-17T10:27:13Z</time>
      </trkpt>
      <trkpt lat="43.4235220" lon="-4.0360560">
        <ele>95.6</ele>
        <time>2021-07-17T10:27:14Z</time>
      </trkpt>
      <trkpt lat="43.4235670" lon="-4.0361210">
        <ele>95.2</ele>
        <time>2021-07-17T10:27:15Z</time>
      </trkpt>
      <trkpt lat="43.4236130" lon="-4.0361930">
        <ele>94.8</ele>
        <time>2021-07-17T10:27:16Z</time>
      </trkpt>
      <trkpt lat="43.4236550" lon="-4.0362640">
        <ele>94.4</ele>
        <time>2021-07-17T10:27:17Z</time>
      </trkpt>
      <trkpt lat="43.4237280" lon="-4.0364140">
        <ele>94.4</ele>
        <time>2021-07-17T10:27:19Z</time>
      </trkpt>
      <trkpt lat="43.4237890" lon="-4.0365620">
        <ele>94.4</ele>
        <time>2021-07-17T10:27:21Z</time>
      </trkpt>
      <trkpt lat="43.4238700" lon="-4.0367750">
        <ele>94.4</ele>
        <time>2021-07-17T10:27:24Z</time>
      </trkpt>
      <trkpt lat="43.4238970" lon="-4.0368380">
        <ele>94.4</ele>
        <time>2021-07-17T10:27:25Z</time>
      </trkpt>
      <trkpt lat="43.4239520" lon="-4.0369600">
        <ele>94.4</ele>
        <time>2021-07-17T10:27:27Z</time>
      </trkpt>
      <trkpt lat="43.4240250" lon="-4.0371100">
        <ele>94.4</ele>
        <time>2021-07-17T10:27:30Z</time>
      </trkpt>
      <trkpt lat="43.4240590" lon="-4.0371630">
        <ele>94.4</ele>
        <time>2021-07-17T10:27:32Z</time>
      </trkpt>
      <trkpt lat="43.4240730" lon="-4.0371710">
        <ele>94.4</ele>
        <time>2021-07-17T10:27:33Z</time>
      </trkpt>
      <trkpt lat="43.4241280" lon="-4.0372120">
        <ele>94.4</ele>
        <time>2021-07-17T10:27:38Z</time>
      </trkpt>
      <trkpt lat="43.4241340" lon="-4.0372490">
        <ele>94.4</ele>
        <time>2021-07-17T10:28:15Z</time>
      </trkpt>
      <trkpt lat="43.4241380" lon="-4.0372630">
        <ele>94.4</ele>
        <time>2021-07-17T10:28:16Z</time>
      </trkpt>
      <trkpt lat="43.4241410" lon="-4.0372720">
        <ele>94.4</ele>
        <time>2021-07-17T10:28:18Z</time>
      </trkpt>
      <trkpt lat="43.4241520" lon="-4.0372850">
        <ele>94.4</ele>
        <time>2021-07-17T10:28:24Z</time>
      </trkpt>
      <trkpt lat="43.4241810" lon="-4.0373090">
        <ele>94.0</ele>
        <time>2021-07-17T10:28:27Z</time>
      </trkpt>
      <trkpt lat="43.4241890" lon="-4.0373110">
        <ele>93.6</ele>
        <time>2021-07-17T10:28:28Z</time>
      </trkpt>
      <trkpt lat="43.4241880" lon="-4.0373110">
        <ele>93.2</ele>
        <time>2021-07-17T10:28:29Z</time>
      </trkpt>
      <trkpt lat="43.4242100" lon="-4.0373200">
        <ele>92.4</ele>
        <time>2021-07-17T10:29:01Z</time>
      </trkpt>
      <trkpt lat="43.4242340" lon="-4.0373280">
        <ele>92.4</ele>
        <time>2021-07-17T10:29:02Z</time>
      </trkpt>
      <trkpt lat="43.4243330" lon="-4.0373610">
        <ele>91.8</ele>
        <time>2021-07-17T10:29:05Z</time>
      </trkpt>
      <trkpt lat="43.4243750" lon="-4.0373760">
        <ele>91.4</ele>
        <time>2021-07-17T10:29:06Z</time>
      </trkpt>
      <trkpt lat="43.4244170" lon="-4.0373900">
        <ele>90.8</ele>
        <time>2021-07-17T10:29:07Z</time>
      </trkpt>
      <trkpt lat="43.4244600" lon="-4.0374110">
        <ele>90.4</ele>
        <time>2021-07-17T10:29:08Z</time>
      </trkpt>
      <trkpt lat="43.4245060" lon="-4.0374390">
        <ele>89.8</ele>
        <time>2021-07-17T10:29:09Z</time>
      </trkpt>
      <trkpt lat="43.4245870" lon="-4.0375140">
        <ele>89.8</ele>
        <time>2021-07-17T10:29:11Z</time>
      </trkpt>
      <trkpt lat="43.4246240" lon="-4.0375550">
        <ele>89.8</ele>
        <time>2021-07-17T10:29:12Z</time>
      </trkpt>
      <trkpt lat="43.4246590" lon="-4.0376020">
        <ele>89.8</ele>
        <time>2021-07-17T10:29:13Z</time>
      </trkpt>
      <trkpt lat="43.4247240" lon="-4.0377050">
        <ele>89.2</ele>
        <time>2021-07-17T10:29:15Z</time>
      </trkpt>
      <trkpt lat="43.4247600" lon="-4.0377580">
        <ele>88.8</ele>
        <time>2021-07-17T10:29:16Z</time>
      </trkpt>
      <trkpt lat="43.4247970" lon="-4.0378040">
        <ele>88.2</ele>
        <time>2021-07-17T10:29:17Z</time>
      </trkpt>
      <trkpt lat="43.4248380" lon="-4.0378460">
        <ele>87.6</ele>
        <time>2021-07-17T10:29:18Z</time>
      </trkpt>
      <trkpt lat="43.4248780" lon="-4.0378840">
        <ele>87.2</ele>
        <time>2021-07-17T10:29:19Z</time>
      </trkpt>
      <trkpt lat="43.4249610" lon="-4.0379610">
        <ele>87.2</ele>
        <time>2021-07-17T10:29:21Z</time>
      </trkpt>
      <trkpt lat="43.4250000" lon="-4.0379980">
        <ele>87.2</ele>
        <time>2021-07-17T10:29:22Z</time>
      </trkpt>
      <trkpt lat="43.4250720" lon="-4.0380700">
        <ele>87.2</ele>
        <time>2021-07-17T10:29:24Z</time>
      </trkpt>
      <trkpt lat="43.4251500" lon="-4.0381540">
        <ele>87.2</ele>
        <time>2021-07-17T10:29:27Z</time>
      </trkpt>
      <trkpt lat="43.4251790" lon="-4.0381840">
        <ele>87.2</ele>
        <time>2021-07-17T10:29:29Z</time>
      </trkpt>
      <trkpt lat="43.4252160" lon="-4.0381960">
        <ele>87.2</ele>
        <time>2021-07-17T10:29:33Z</time>
      </trkpt>
      <trkpt lat="43.4252200" lon="-4.0381880">
        <ele>87.2</ele>
        <time>2021-07-17T10:29:34Z</time>
      </trkpt>
      <trkpt lat="43.4252010" lon="-4.0381680">
        <ele>87.2</ele>
        <time>2021-07-17T10:29:36Z</time>
      </trkpt>
      <trkpt lat="43.4251860" lon="-4.0381610">
        <ele>87.2</ele>
        <time>2021-07-17T10:29:37Z</time>
      </trkpt>
      <trkpt lat="43.4251690" lon="-4.0381530">
        <ele>87.2</ele>
        <time>2021-07-17T10:29:38Z</time>
      </trkpt>
      <trkpt lat="43.4251330" lon="-4.0381250">
        <ele>87.2</ele>
        <time>2021-07-17T10:29:40Z</time>
      </trkpt>
      <trkpt lat="43.4250850" lon="-4.0380750">
        <ele>87.2</ele>
        <time>2021-07-17T10:29:42Z</time>
      </trkpt>
      <trkpt lat="43.4250570" lon="-4.0380510">
        <ele>87.2</ele>
        <time>2021-07-17T10:29:43Z</time>
      </trkpt>
      <trkpt lat="43.4249510" lon="-4.0379500">
        <ele>87.2</ele>
        <time>2021-07-17T10:29:47Z</time>
      </trkpt>
      <trkpt lat="43.4248450" lon="-4.0378400">
        <ele>87.2</ele>
        <time>2021-07-17T10:29:51Z</time>
      </trkpt>
      <trkpt lat="43.4247250" lon="-4.0376760">
        <ele>87.2</ele>
        <time>2021-07-17T10:29:56Z</time>
      </trkpt>
      <trkpt lat="43.4246860" lon="-4.0376070">
        <ele>87.2</ele>
        <time>2021-07-17T10:29:58Z</time>
      </trkpt>
      <trkpt lat="43.4246140" lon="-4.0375280">
        <ele>87.2</ele>
        <time>2021-07-17T10:30:01Z</time>
      </trkpt>
      <trkpt lat="43.4245350" lon="-4.0374600">
        <ele>87.2</ele>
        <time>2021-07-17T10:30:04Z</time>
      </trkpt>
      <trkpt lat="43.4245100" lon="-4.0374410">
        <ele>87.2</ele>
        <time>2021-07-17T10:30:05Z</time>
      </trkpt>
      <trkpt lat="43.4244320" lon="-4.0373970">
        <ele>87.2</ele>
        <time>2021-07-17T10:30:08Z</time>
      </trkpt>
      <trkpt lat="43.4243380" lon="-4.0373550">
        <ele>87.2</ele>
        <time>2021-07-17T10:30:12Z</time>
      </trkpt>
      <trkpt lat="43.4242920" lon="-4.0373340">
        <ele>87.6</ele>
        <time>2021-07-17T10:30:14Z</time>
      </trkpt>
      <trkpt lat="43.4242680" lon="-4.0373290">
        <ele>88.0</ele>
        <time>2021-07-17T10:30:15Z</time>
      </trkpt>
      <trkpt lat="43.4242480" lon="-4.0373260">
        <ele>88.4</ele>
        <time>2021-07-17T10:30:16Z</time>
      </trkpt>
      <trkpt lat="43.4242290" lon="-4.0373260">
        <ele>88.8</ele>
        <time>2021-07-17T10:30:17Z</time>
      </trkpt>
      <trkpt lat="43.4242120" lon="-4.0373290">
        <ele>89.4</ele>
        <time>2021-07-17T10:30:18Z</time>
      </trkpt>
      <trkpt lat="43.4241950" lon="-4.0373370">
        <ele>90.2</ele>
        <time>2021-07-17T10:30:19Z</time>
      </trkpt>
      <trkpt lat="43.4241840" lon="-4.0373510">
        <ele>90.8</ele>
        <time>2021-07-17T10:30:20Z</time>
      </trkpt>
      <trkpt lat="43.4241830" lon="-4.0373700">
        <ele>91.4</ele>
        <time>2021-07-17T10:30:21Z</time>
      </trkpt>
      <trkpt lat="43.4241890" lon="-4.0373910">
        <ele>92.0</ele>
        <time>2021-07-17T10:30:22Z</time>
      </trkpt>
      <trkpt lat="43.4242310" lon="-4.0374520">
        <ele>92.0</ele>
        <time>2021-07-17T10:30:25Z</time>
      </trkpt>
      <trkpt lat="43.4242690" lon="-4.0375040">
        <ele>92.0</ele>
        <time>2021-07-17T10:30:27Z</time>
      </trkpt>
      <trkpt lat="43.4242890" lon="-4.0375330">
        <ele>92.4</ele>
        <time>2021-07-17T10:30:28Z</time>
      </trkpt>
      <trkpt lat="43.4243070" lon="-4.0375650">
        <ele>93.0</ele>
        <time>2021-07-17T10:30:29Z</time>
      </trkpt>
      <trkpt lat="43.4243270" lon="-4.0375970">
        <ele>93.4</ele>
        <time>2021-07-17T10:30:30Z</time>
      </trkpt>
      <trkpt lat="43.4243490" lon="-4.0376260">
        <ele>93.8</ele>
        <time>2021-07-17T10:30:31Z</time>
      </trkpt>
      <trkpt lat="43.4243650" lon="-4.0376600">
        <ele>94.4</ele>
        <time>2021-07-17T10:30:32Z</time>
      </trkpt>
      <trkpt lat="43.4243790" lon="-4.0376910">
        <ele>94.4</ele>
        <time>2021-07-17T10:30:33Z</time>
      </trkpt>
      <trkpt lat="43.4244430" lon="-4.0378160">
        <ele>94.4</ele>
        <time>2021-07-17T10:30:37Z</time>
      </trkpt>
      <trkpt lat="43.4245280" lon="-4.0379590">
        <ele>94.4</ele>
        <time>2021-07-17T10:30:42Z</time>
      </trkpt>
      <trkpt lat="43.4246690" lon="-4.0382690">
        <ele>94.8</ele>
        <time>2021-07-17T10:30:51Z</time>
      </trkpt>
      <trkpt lat="43.4246870" lon="-4.0383000">
        <ele>95.2</ele>
        <time>2021-07-17T10:30:52Z</time>
      </trkpt>
      <trkpt lat="43.4247030" lon="-4.0383320">
        <ele>95.6</ele>
        <time>2021-07-17T10:30:53Z</time>
      </trkpt>
      <trkpt lat="43.4247200" lon="-4.0383660">
        <ele>96.0</ele>
        <time>2021-07-17T10:30:54Z</time>
      </trkpt>
      <trkpt lat="43.4247360" lon="-4.0383990">
        <ele>96.4</ele>
        <time>2021-07-17T10:30:55Z</time>
      </trkpt>
      <trkpt lat="43.4248070" lon="-4.0385260">
        <ele>96.4</ele>
        <time>2021-07-17T10:30:59Z</time>
      </trkpt>
      <trkpt lat="43.4249340" lon="-4.0387560">
        <ele>96.4</ele>
        <time>2021-07-17T10:31:06Z</time>
      </trkpt>
      <trkpt lat="43.4250810" lon="-4.0390180">
        <ele>96.4</ele>
        <time>2021-07-17T10:31:14Z</time>
      </trkpt>
      <trkpt lat="43.4252070" lon="-4.0392340">
        <ele>96.4</ele>
        <time>2021-07-17T10:31:21Z</time>
      </trkpt>
      <trkpt lat="43.4252980" lon="-4.0393990">
        <ele>96.4</ele>
        <time>2021-07-17T10:31:26Z</time>
      </trkpt>
      <trkpt lat="43.4253460" lon="-4.0395200">
        <ele>96.4</ele>
        <time>2021-07-17T10:31:29Z</time>
      </trkpt>
      <trkpt lat="43.4254580" lon="-4.0397450">
        <ele>96.4</ele>
        <time>2021-07-17T10:31:36Z</time>
      </trkpt>
      <trkpt lat="43.4255110" lon="-4.0399200">
        <ele>96.4</ele>
        <time>2021-07-17T10:31:42Z</time>
      </trkpt>
      <trkpt lat="43.4255510" lon="-4.0400780">
        <ele>96.8</ele>
        <time>2021-07-17T10:31:49Z</time>
      </trkpt>
      <trkpt lat="43.4255510" lon="-4.0400840">
        <ele>97.2</ele>
        <time>2021-07-17T10:31:50Z</time>
      </trkpt>
      <trkpt lat="43.4255550" lon="-4.0401250">
        <ele>98.6</ele>
        <time>2021-07-17T10:31:55Z</time>
      </trkpt>
      <trkpt lat="43.4255610" lon="-4.0401630">
        <ele>98.6</ele>
        <time>2021-07-17T10:31:57Z</time>
      </trkpt>
      <trkpt lat="43.4255710" lon="-4.0401810">
        <ele>98.6</ele>
        <time>2021-07-17T10:31:58Z</time>
      </trkpt>
      <trkpt lat="43.4256220" lon="-4.0402130">
        <ele>98.6</ele>
        <time>2021-07-17T10:32:01Z</time>
      </trkpt>
      <trkpt lat="43.4256900" lon="-4.0402050">
        <ele>98.6</ele>
        <time>2021-07-17T10:32:04Z</time>
      </trkpt>
      <trkpt lat="43.4257620" lon="-4.0402040">
        <ele>98.6</ele>
        <time>2021-07-17T10:32:07Z</time>
      </trkpt>
      <trkpt lat="43.4258720" lon="-4.0402090">
        <ele>98.6</ele>
        <time>2021-07-17T10:32:11Z</time>
      </trkpt>
      <trkpt lat="43.4259250" lon="-4.0401870">
        <ele>98.6</ele>
        <time>2021-07-17T10:32:13Z</time>
      </trkpt>
      <trkpt lat="43.4259860" lon="-4.0401680">
        <ele>98.6</ele>
        <time>2021-07-17T10:32:15Z</time>
      </trkpt>
      <trkpt lat="43.4260450" lon="-4.0401880">
        <ele>98.6</ele>
        <time>2021-07-17T10:32:17Z</time>
      </trkpt>
      <trkpt lat="43.4261210" lon="-4.0401740">
        <ele>98.2</ele>
        <time>2021-07-17T10:32:20Z</time>
      </trkpt>
      <trkpt lat="43.4261380" lon="-4.0401710">
        <ele>97.8</ele>
        <time>2021-07-17T10:32:21Z</time>
      </trkpt>
      <trkpt lat="43.4261490" lon="-4.0401690">
        <ele>97.4</ele>
        <time>2021-07-17T10:32:22Z</time>
      </trkpt>
      <trkpt lat="43.4261610" lon="-4.0401660">
        <ele>97.0</ele>
        <time>2021-07-17T10:32:23Z</time>
      </trkpt>
      <trkpt lat="43.4261690" lon="-4.0401640">
        <ele>96.4</ele>
        <time>2021-07-17T10:32:24Z</time>
      </trkpt>
      <trkpt lat="43.4262030" lon="-4.0401580">
        <ele>96.4</ele>
        <time>2021-07-17T10:33:43Z</time>
      </trkpt>
      <trkpt lat="43.4262350" lon="-4.0401550">
        <ele>96.4</ele>
        <time>2021-07-17T10:33:44Z</time>
      </trkpt>
      <trkpt lat="43.4263430" lon="-4.0402450">
        <ele>96.4</ele>
        <time>2021-07-17T10:33:48Z</time>
      </trkpt>
      <trkpt lat="43.4265340" lon="-4.0405280">
        <ele>96.4</ele>
        <time>2021-07-17T10:33:55Z</time>
      </trkpt>
      <trkpt lat="43.4266130" lon="-4.0406430">
        <ele>96.4</ele>
        <time>2021-07-17T10:33:58Z</time>
      </trkpt>
      <trkpt lat="43.4266620" lon="-4.0407240">
        <ele>96.4</ele>
        <time>2021-07-17T10:34:00Z</time>
      </trkpt>
      <trkpt lat="43.4266880" lon="-4.0407640">
        <ele>96.4</ele>
        <time>2021-07-17T10:34:01Z</time>
      </trkpt>
      <trkpt lat="43.4267150" lon="-4.0408030">
        <ele>96.0</ele>
        <time>2021-07-17T10:34:02Z</time>
      </trkpt>
      <trkpt lat="43.4267420" lon="-4.0408460">
        <ele>95.6</ele>
        <time>2021-07-17T10:34:03Z</time>
      </trkpt>
      <trkpt lat="43.4267680" lon="-4.0408870">
        <ele>95.2</ele>
        <time>2021-07-17T10:34:04Z</time>
      </trkpt>
      <trkpt lat="43.4267930" lon="-4.0409280">
        <ele>94.8</ele>
        <time>2021-07-17T10:34:05Z</time>
      </trkpt>
      <trkpt lat="43.4268140" lon="-4.0409730">
        <ele>94.4</ele>
        <time>2021-07-17T10:34:06Z</time>
      </trkpt>
      <trkpt lat="43.4268960" lon="-4.0411080">
        <ele>94.4</ele>
        <time>2021-07-17T10:34:09Z</time>
      </trkpt>
      <trkpt lat="43.4269880" lon="-4.0412560">
        <ele>94.4</ele>
        <time>2021-07-17T10:34:12Z</time>
      </trkpt>
      <trkpt lat="43.4270940" lon="-4.0414220">
        <ele>94.4</ele>
        <time>2021-07-17T10:34:16Z</time>
      </trkpt>
      <trkpt lat="43.4271670" lon="-4.0415110">
        <ele>94.4</ele>
        <time>2021-07-17T10:34:19Z</time>
      </trkpt>
      <trkpt lat="43.4271980" lon="-4.0415160">
        <ele>94.4</ele>
        <time>2021-07-17T10:34:20Z</time>
      </trkpt>
      <trkpt lat="43.4273100" lon="-4.0415540">
        <ele>94.4</ele>
        <time>2021-07-17T10:34:23Z</time>
      </trkpt>
      <trkpt lat="43.4273500" lon="-4.0415810">
        <ele>93.8</ele>
        <time>2021-07-17T10:34:24Z</time>
      </trkpt>
      <trkpt lat="43.4273860" lon="-4.0416230">
        <ele>93.4</ele>
        <time>2021-07-17T10:34:25Z</time>
      </trkpt>
      <trkpt lat="43.4274200" lon="-4.0416680">
        <ele>93.0</ele>
        <time>2021-07-17T10:34:26Z</time>
      </trkpt>
      <trkpt lat="43.4274540" lon="-4.0417140">
        <ele>92.4</ele>
        <time>2021-07-17T10:34:27Z</time>
      </trkpt>
      <trkpt lat="43.4274890" lon="-4.0417640">
        <ele>91.6</ele>
        <time>2021-07-17T10:34:28Z</time>
      </trkpt>
      <trkpt lat="43.4275240" lon="-4.0418060">
        <ele>91.0</ele>
        <time>2021-07-17T10:34:29Z</time>
      </trkpt>
      <trkpt lat="43.4275590" lon="-4.0418430">
        <ele>90.4</ele>
        <time>2021-07-17T10:34:30Z</time>
      </trkpt>
      <trkpt lat="43.4275970" lon="-4.0418860">
        <ele>89.8</ele>
        <time>2021-07-17T10:34:31Z</time>
      </trkpt>
      <trkpt lat="43.4276360" lon="-4.0419320">
        <ele>89.2</ele>
        <time>2021-07-17T10:34:32Z</time>
      </trkpt>
      <trkpt lat="43.4276740" lon="-4.0419810">
        <ele>88.6</ele>
        <time>2021-07-17T10:34:33Z</time>
      </trkpt>
      <trkpt lat="43.4277110" lon="-4.0420330">
        <ele>88.0</ele>
        <time>2021-07-17T10:34:34Z</time>
      </trkpt>
      <trkpt lat="43.4277460" lon="-4.0420900">
        <ele>87.4</ele>
        <time>2021-07-17T10:34:35Z</time>
      </trkpt>
      <trkpt lat="43.4278170" lon="-4.0421980">
        <ele>87.0</ele>
        <time>2021-07-17T10:34:37Z</time>
      </trkpt>
      <trkpt lat="43.4278580" lon="-4.0422580">
        <ele>86.6</ele>
        <time>2021-07-17T10:34:38Z</time>
      </trkpt>
      <trkpt lat="43.4278990" lon="-4.0423260">
        <ele>86.2</ele>
        <time>2021-07-17T10:34:39Z</time>
      </trkpt>
      <trkpt lat="43.4279400" lon="-4.0423950">
        <ele>85.4</ele>
        <time>2021-07-17T10:34:40Z</time>
      </trkpt>
      <trkpt lat="43.4279820" lon="-4.0424590">
        <ele>84.8</ele>
        <time>2021-07-17T10:34:41Z</time>
      </trkpt>
      <trkpt lat="43.4280260" lon="-4.0425260">
        <ele>83.2</ele>
        <time>2021-07-17T10:34:42Z</time>
      </trkpt>
      <trkpt lat="43.4280690" lon="-4.0425940">
        <ele>82.4</ele>
        <time>2021-07-17T10:34:43Z</time>
      </trkpt>
      <trkpt lat="43.4281110" lon="-4.0426590">
        <ele>81.8</ele>
        <time>2021-07-17T10:34:44Z</time>
      </trkpt>
      <trkpt lat="43.4281540" lon="-4.0427170">
        <ele>81.0</ele>
        <time>2021-07-17T10:34:45Z</time>
      </trkpt>
      <trkpt lat="43.4281920" lon="-4.0427690">
        <ele>80.2</ele>
        <time>2021-07-17T10:34:46Z</time>
      </trkpt>
      <trkpt lat="43.4282310" lon="-4.0428260">
        <ele>79.4</ele>
        <time>2021-07-17T10:34:47Z</time>
      </trkpt>
      <trkpt lat="43.4282690" lon="-4.0428860">
        <ele>78.6</ele>
        <time>2021-07-17T10:34:48Z</time>
      </trkpt>
      <trkpt lat="43.4283090" lon="-4.0429520">
        <ele>78.0</ele>
        <time>2021-07-17T10:34:49Z</time>
      </trkpt>
      <trkpt lat="43.4283910" lon="-4.0430930">
        <ele>77.4</ele>
        <time>2021-07-17T10:34:51Z</time>
      </trkpt>
      <trkpt lat="43.4284290" lon="-4.0431650">
        <ele>77.0</ele>
        <time>2021-07-17T10:34:52Z</time>
      </trkpt>
      <trkpt lat="43.4284590" lon="-4.0432370">
        <ele>76.6</ele>
        <time>2021-07-17T10:34:53Z</time>
      </trkpt>
      <trkpt lat="43.4284810" lon="-4.0432960">
        <ele>76.2</ele>
        <time>2021-07-17T10:34:54Z</time>
      </trkpt>
      <trkpt lat="43.4284970" lon="-4.0433500">
        <ele>75.6</ele>
        <time>2021-07-17T10:34:55Z</time>
      </trkpt>
      <trkpt lat="43.4286070" lon="-4.0435910">
        <ele>75.6</ele>
        <time>2021-07-17T10:35:01Z</time>
      </trkpt>
      <trkpt lat="43.4286440" lon="-4.0436660">
        <ele>75.6</ele>
        <time>2021-07-17T10:35:03Z</time>
      </trkpt>
      <trkpt lat="43.4287160" lon="-4.0438070">
        <ele>75.6</ele>
        <time>2021-07-17T10:35:07Z</time>
      </trkpt>
      <trkpt lat="43.4288070" lon="-4.0439360">
        <ele>75.6</ele>
        <time>2021-07-17T10:35:11Z</time>
      </trkpt>
      <trkpt lat="43.4288640" lon="-4.0439960">
        <ele>75.6</ele>
        <time>2021-07-17T10:35:13Z</time>
      </trkpt>
      <trkpt lat="43.4289660" lon="-4.0441340">
        <ele>75.6</ele>
        <time>2021-07-17T10:35:18Z</time>
      </trkpt>
      <trkpt lat="43.4290650" lon="-4.0442830">
        <ele>75.6</ele>
        <time>2021-07-17T10:35:23Z</time>
      </trkpt>
      <trkpt lat="43.4292770" lon="-4.0444600">
        <ele>75.6</ele>
        <time>2021-07-17T10:35:28Z</time>
      </trkpt>
      <trkpt lat="43.4295820" lon="-4.0447160">
        <ele>75.6</ele>
        <time>2021-07-17T10:35:34Z</time>
      </trkpt>
      <trkpt lat="43.4296260" lon="-4.0447440">
        <ele>75.2</ele>
        <time>2021-07-17T10:35:35Z</time>
      </trkpt>
      <trkpt lat="43.4296670" lon="-4.0447710">
        <ele>74.8</ele>
        <time>2021-07-17T10:35:36Z</time>
      </trkpt>
      <trkpt lat="43.4297060" lon="-4.0447920">
        <ele>74.2</ele>
        <time>2021-07-17T10:35:37Z</time>
      </trkpt>
      <trkpt lat="43.4297520" lon="-4.0448010">
        <ele>73.8</ele>
        <time>2021-07-17T10:35:38Z</time>
      </trkpt>
      <trkpt lat="43.4297930" lon="-4.0447910">
        <ele>73.2</ele>
        <time>2021-07-17T10:35:39Z</time>
      </trkpt>
      <trkpt lat="43.4298310" lon="-4.0447590">
        <ele>72.6</ele>
        <time>2021-07-17T10:35:40Z</time>
      </trkpt>
      <trkpt lat="43.4298630" lon="-4.0446960">
        <ele>72.2</ele>
        <time>2021-07-17T10:35:41Z</time>
      </trkpt>
      <trkpt lat="43.4298900" lon="-4.0446220">
        <ele>71.6</ele>
        <time>2021-07-17T10:35:42Z</time>
      </trkpt>
      <trkpt lat="43.4299120" lon="-4.0445470">
        <ele>71.0</ele>
        <time>2021-07-17T10:35:43Z</time>
      </trkpt>
      <trkpt lat="43.4299350" lon="-4.0444680">
        <ele>71.0</ele>
        <time>2021-07-17T10:35:44Z</time>
      </trkpt>
      <trkpt lat="43.4299630" lon="-4.0443870">
        <ele>70.6</ele>
        <time>2021-07-17T10:35:45Z</time>
      </trkpt>
      <trkpt lat="43.4299860" lon="-4.0443040">
        <ele>70.2</ele>
        <time>2021-07-17T10:35:46Z</time>
      </trkpt>
      <trkpt lat="43.4300060" lon="-4.0442200">
        <ele>69.8</ele>
        <time>2021-07-17T10:35:47Z</time>
      </trkpt>
      <trkpt lat="43.4300280" lon="-4.0441370">
        <ele>69.4</ele>
        <time>2021-07-17T10:35:48Z</time>
      </trkpt>
      <trkpt lat="43.4300480" lon="-4.0440580">
        <ele>68.8</ele>
        <time>2021-07-17T10:35:49Z</time>
      </trkpt>
      <trkpt lat="43.4300670" lon="-4.0439800">
        <ele>68.4</ele>
        <time>2021-07-17T10:35:50Z</time>
      </trkpt>
      <trkpt lat="43.4300840" lon="-4.0439040">
        <ele>67.8</ele>
        <time>2021-07-17T10:35:51Z</time>
      </trkpt>
      <trkpt lat="43.4300980" lon="-4.0438200">
        <ele>67.2</ele>
        <time>2021-07-17T10:35:52Z</time>
      </trkpt>
      <trkpt lat="43.4301030" lon="-4.0437380">
        <ele>66.6</ele>
        <time>2021-07-17T10:35:53Z</time>
      </trkpt>
      <trkpt lat="43.4301020" lon="-4.0436590">
        <ele>66.0</ele>
        <time>2021-07-17T10:35:54Z</time>
      </trkpt>
      <trkpt lat="43.4301020" lon="-4.0435860">
        <ele>65.4</ele>
        <time>2021-07-17T10:35:55Z</time>
      </trkpt>
      <trkpt lat="43.4301040" lon="-4.0435160">
        <ele>64.2</ele>
        <time>2021-07-17T10:35:56Z</time>
      </trkpt>
      <trkpt lat="43.4301070" lon="-4.0434480">
        <ele>63.6</ele>
        <time>2021-07-17T10:35:57Z</time>
      </trkpt>
      <trkpt lat="43.4301150" lon="-4.0433830">
        <ele>63.0</ele>
        <time>2021-07-17T10:35:58Z</time>
      </trkpt>
      <trkpt lat="43.4301320" lon="-4.0433200">
        <ele>62.4</ele>
        <time>2021-07-17T10:35:59Z</time>
      </trkpt>
      <trkpt lat="43.4301610" lon="-4.0432610">
        <ele>61.8</ele>
        <time>2021-07-17T10:36:00Z</time>
      </trkpt>
      <trkpt lat="43.4301980" lon="-4.0432110">
        <ele>61.4</ele>
        <time>2021-07-17T10:36:01Z</time>
      </trkpt>
      <trkpt lat="43.4302400" lon="-4.0431720">
        <ele>60.8</ele>
        <time>2021-07-17T10:36:02Z</time>
      </trkpt>
      <trkpt lat="43.4302870" lon="-4.0431420">
        <ele>60.2</ele>
        <time>2021-07-17T10:36:03Z</time>
      </trkpt>
      <trkpt lat="43.4303380" lon="-4.0431180">
        <ele>59.8</ele>
        <time>2021-07-17T10:36:04Z</time>
      </trkpt>
      <trkpt lat="43.4303900" lon="-4.0431020">
        <ele>59.2</ele>
        <time>2021-07-17T10:36:05Z</time>
      </trkpt>
      <trkpt lat="43.4304430" lon="-4.0430900">
        <ele>58.6</ele>
        <time>2021-07-17T10:36:06Z</time>
      </trkpt>
      <trkpt lat="43.4304950" lon="-4.0430800">
        <ele>58.0</ele>
        <time>2021-07-17T10:36:07Z</time>
      </trkpt>
      <trkpt lat="43.4305450" lon="-4.0430650">
        <ele>57.4</ele>
        <time>2021-07-17T10:36:08Z</time>
      </trkpt>
      <trkpt lat="43.4305910" lon="-4.0430470">
        <ele>56.6</ele>
        <time>2021-07-17T10:36:09Z</time>
      </trkpt>
      <trkpt lat="43.4306340" lon="-4.0430130">
        <ele>56.0</ele>
        <time>2021-07-17T10:36:10Z</time>
      </trkpt>
      <trkpt lat="43.4306750" lon="-4.0429590">
        <ele>55.4</ele>
        <time>2021-07-17T10:36:11Z</time>
      </trkpt>
      <trkpt lat="43.4307700" lon="-4.0427450">
        <ele>55.4</ele>
        <time>2021-07-17T10:36:14Z</time>
      </trkpt>
      <trkpt lat="43.4307960" lon="-4.0426650">
        <ele>55.4</ele>
        <time>2021-07-17T10:36:15Z</time>
      </trkpt>
      <trkpt lat="43.4308210" lon="-4.0425820">
        <ele>54.8</ele>
        <time>2021-07-17T10:36:16Z</time>
      </trkpt>
      <trkpt lat="43.4308470" lon="-4.0424960">
        <ele>54.4</ele>
        <time>2021-07-17T10:36:17Z</time>
      </trkpt>
      <trkpt lat="43.4308740" lon="-4.0424070">
        <ele>53.8</ele>
        <time>2021-07-17T10:36:18Z</time>
      </trkpt>
      <trkpt lat="43.4309020" lon="-4.0423170">
        <ele>53.4</ele>
        <time>2021-07-17T10:36:19Z</time>
      </trkpt>
      <trkpt lat="43.4309310" lon="-4.0422290">
        <ele>52.8</ele>
        <time>2021-07-17T10:36:20Z</time>
      </trkpt>
      <trkpt lat="43.4309640" lon="-4.0421430">
        <ele>51.8</ele>
        <time>2021-07-17T10:36:21Z</time>
      </trkpt>
      <trkpt lat="43.4310010" lon="-4.0420550">
        <ele>51.4</ele>
        <time>2021-07-17T10:36:22Z</time>
      </trkpt>
      <trkpt lat="43.4310390" lon="-4.0419760">
        <ele>50.8</ele>
        <time>2021-07-17T10:36:23Z</time>
      </trkpt>
      <trkpt lat="43.4310840" lon="-4.0419060">
        <ele>50.4</ele>
        <time>2021-07-17T10:36:24Z</time>
      </trkpt>
      <trkpt lat="43.4311340" lon="-4.0418470">
        <ele>50.0</ele>
        <time>2021-07-17T10:36:25Z</time>
      </trkpt>
      <trkpt lat="43.4311880" lon="-4.0417970">
        <ele>49.4</ele>
        <time>2021-07-17T10:36:26Z</time>
      </trkpt>
      <trkpt lat="43.4312460" lon="-4.0417560">
        <ele>49.0</ele>
        <time>2021-07-17T10:36:27Z</time>
      </trkpt>
      <trkpt lat="43.4313060" lon="-4.0417330">
        <ele>48.4</ele>
        <time>2021-07-17T10:36:28Z</time>
      </trkpt>
      <trkpt lat="43.4313660" lon="-4.0417130">
        <ele>48.0</ele>
        <time>2021-07-17T10:36:29Z</time>
      </trkpt>
      <trkpt lat="43.4314240" lon="-4.0416960">
        <ele>48.0</ele>
        <time>2021-07-17T10:36:30Z</time>
      </trkpt>
      <trkpt lat="43.4315420" lon="-4.0416580">
        <ele>47.6</ele>
        <time>2021-07-17T10:36:32Z</time>
      </trkpt>
      <trkpt lat="43.4315990" lon="-4.0416290">
        <ele>47.2</ele>
        <time>2021-07-17T10:36:33Z</time>
      </trkpt>
      <trkpt lat="43.4316510" lon="-4.0415810">
        <ele>46.8</ele>
        <time>2021-07-17T10:36:34Z</time>
      </trkpt>
      <trkpt lat="43.4316980" lon="-4.0415190">
        <ele>46.4</ele>
        <time>2021-07-17T10:36:35Z</time>
      </trkpt>
      <trkpt lat="43.4317420" lon="-4.0414460">
        <ele>46.0</ele>
        <time>2021-07-17T10:36:36Z</time>
      </trkpt>
      <trkpt lat="43.4317870" lon="-4.0413620">
        <ele>46.0</ele>
        <time>2021-07-17T10:36:37Z</time>
      </trkpt>
      <trkpt lat="43.4318600" lon="-4.0411930">
        <ele>45.4</ele>
        <time>2021-07-17T10:36:39Z</time>
      </trkpt>
      <trkpt lat="43.4318980" lon="-4.0411070">
        <ele>45.0</ele>
        <time>2021-07-17T10:36:40Z</time>
      </trkpt>
      <trkpt lat="43.4319350" lon="-4.0410240">
        <ele>44.6</ele>
        <time>2021-07-17T10:36:41Z</time>
      </trkpt>
      <trkpt lat="43.4319680" lon="-4.0409440">
        <ele>44.2</ele>
        <time>2021-07-17T10:36:42Z</time>
      </trkpt>
      <trkpt lat="43.4320010" lon="-4.0408630">
        <ele>43.8</ele>
        <time>2021-07-17T10:36:43Z</time>
      </trkpt>
      <trkpt lat="43.4320660" lon="-4.0407130">
        <ele>43.4</ele>
        <time>2021-07-17T10:36:45Z</time>
      </trkpt>
      <trkpt lat="43.4320970" lon="-4.0406400">
        <ele>42.8</ele>
        <time>2021-07-17T10:36:46Z</time>
      </trkpt>
      <trkpt lat="43.4321250" lon="-4.0405680">
        <ele>42.4</ele>
        <time>2021-07-17T10:36:47Z</time>
      </trkpt>
      <trkpt lat="43.4321530" lon="-4.0404970">
        <ele>42.0</ele>
        <time>2021-07-17T10:36:48Z</time>
      </trkpt>
      <trkpt lat="43.4321820" lon="-4.0404270">
        <ele>41.6</ele>
        <time>2021-07-17T10:36:49Z</time>
      </trkpt>
      <trkpt lat="43.4322410" lon="-4.0402880">
        <ele>41.6</ele>
        <time>2021-07-17T10:36:51Z</time>
      </trkpt>
      <trkpt lat="43.4322760" lon="-4.0402300">
        <ele>41.6</ele>
        <time>2021-07-17T10:36:52Z</time>
      </trkpt>
      <trkpt lat="43.4323950" lon="-4.0400690">
        <ele>41.6</ele>
        <time>2021-07-17T10:36:55Z</time>
      </trkpt>
      <trkpt lat="43.4325090" lon="-4.0399160">
        <ele>41.6</ele>
        <time>2021-07-17T10:36:58Z</time>
      </trkpt>
      <trkpt lat="43.4325470" lon="-4.0398650">
        <ele>41.6</ele>
        <time>2021-07-17T10:36:59Z</time>
      </trkpt>
      <trkpt lat="43.4326460" lon="-4.0397280">
        <ele>41.6</ele>
        <time>2021-07-17T10:37:02Z</time>
      </trkpt>
      <trkpt lat="43.4327590" lon="-4.0396270">
        <ele>41.6</ele>
        <time>2021-07-17T10:37:05Z</time>
      </trkpt>
      <trkpt lat="43.4328650" lon="-4.0395770">
        <ele>41.0</ele>
        <time>2021-07-17T10:37:08Z</time>
      </trkpt>
      <trkpt lat="43.4329000" lon="-4.0395670">
        <ele>40.2</ele>
        <time>2021-07-17T10:37:09Z</time>
      </trkpt>
      <trkpt lat="43.4329310" lon="-4.0395670">
        <ele>39.6</ele>
        <time>2021-07-17T10:37:10Z</time>
      </trkpt>
      <trkpt lat="43.4329660" lon="-4.0395700">
        <ele>39.2</ele>
        <time>2021-07-17T10:37:11Z</time>
      </trkpt>
      <trkpt lat="43.4330480" lon="-4.0395900">
        <ele>38.8</ele>
        <time>2021-07-17T10:37:13Z</time>
      </trkpt>
      <trkpt lat="43.4330930" lon="-4.0396130">
        <ele>38.4</ele>
        <time>2021-07-17T10:37:14Z</time>
      </trkpt>
      <trkpt lat="43.4331380" lon="-4.0396480">
        <ele>38.0</ele>
        <time>2021-07-17T10:37:15Z</time>
      </trkpt>
      <trkpt lat="43.4331810" lon="-4.0396940">
        <ele>37.6</ele>
        <time>2021-07-17T10:37:16Z</time>
      </trkpt>
      <trkpt lat="43.4332210" lon="-4.0397490">
        <ele>37.2</ele>
        <time>2021-07-17T10:37:17Z</time>
      </trkpt>
      <trkpt lat="43.4332560" lon="-4.0398180">
        <ele>36.8</ele>
        <time>2021-07-17T10:37:18Z</time>
      </trkpt>
      <trkpt lat="43.4332820" lon="-4.0398940">
        <ele>36.4</ele>
        <time>2021-07-17T10:37:19Z</time>
      </trkpt>
      <trkpt lat="43.4333010" lon="-4.0399750">
        <ele>36.0</ele>
        <time>2021-07-17T10:37:20Z</time>
      </trkpt>
      <trkpt lat="43.4333160" lon="-4.0400670">
        <ele>35.6</ele>
        <time>2021-07-17T10:37:21Z</time>
      </trkpt>
      <trkpt lat="43.4333210" lon="-4.0401560">
        <ele>35.0</ele>
        <time>2021-07-17T10:37:22Z</time>
      </trkpt>
      <trkpt lat="43.4333220" lon="-4.0402440">
        <ele>34.6</ele>
        <time>2021-07-17T10:37:23Z</time>
      </trkpt>
      <trkpt lat="43.4333160" lon="-4.0403320">
        <ele>34.0</ele>
        <time>2021-07-17T10:37:24Z</time>
      </trkpt>
      <trkpt lat="43.4333080" lon="-4.0404200">
        <ele>33.4</ele>
        <time>2021-07-17T10:37:25Z</time>
      </trkpt>
      <trkpt lat="43.4333010" lon="-4.0405130">
        <ele>33.0</ele>
        <time>2021-07-17T10:37:26Z</time>
      </trkpt>
      <trkpt lat="43.4332930" lon="-4.0406020">
        <ele>32.4</ele>
        <time>2021-07-17T10:37:27Z</time>
      </trkpt>
      <trkpt lat="43.4332840" lon="-4.0406900">
        <ele>32.0</ele>
        <time>2021-07-17T10:37:28Z</time>
      </trkpt>
      <trkpt lat="43.4332740" lon="-4.0407740">
        <ele>31.6</ele>
        <time>2021-07-17T10:37:29Z</time>
      </trkpt>
      <trkpt lat="43.4332620" lon="-4.0408550">
        <ele>31.0</ele>
        <time>2021-07-17T10:37:30Z</time>
      </trkpt>
      <trkpt lat="43.4332470" lon="-4.0409340">
        <ele>30.6</ele>
        <time>2021-07-17T10:37:31Z</time>
      </trkpt>
      <trkpt lat="43.4332290" lon="-4.0410070">
        <ele>30.6</ele>
        <time>2021-07-17T10:37:32Z</time>
      </trkpt>
      <trkpt lat="43.4331700" lon="-4.0411510">
        <ele>29.6</ele>
        <time>2021-07-17T10:37:34Z</time>
      </trkpt>
      <trkpt lat="43.4331280" lon="-4.0412270">
        <ele>29.0</ele>
        <time>2021-07-17T10:37:35Z</time>
      </trkpt>
      <trkpt lat="43.4330870" lon="-4.0412980">
        <ele>28.6</ele>
        <time>2021-07-17T10:37:36Z</time>
      </trkpt>
      <trkpt lat="43.4330530" lon="-4.0413720">
        <ele>28.0</ele>
        <time>2021-07-17T10:37:37Z</time>
      </trkpt>
      <trkpt lat="43.4330230" lon="-4.0414550">
        <ele>27.4</ele>
        <time>2021-07-17T10:37:38Z</time>
      </trkpt>
      <trkpt lat="43.4330010" lon="-4.0415460">
        <ele>26.8</ele>
        <time>2021-07-17T10:37:39Z</time>
      </trkpt>
      <trkpt lat="43.4329890" lon="-4.0416430">
        <ele>26.2</ele>
        <time>2021-07-17T10:37:40Z</time>
      </trkpt>
      <trkpt lat="43.4329850" lon="-4.0417430">
        <ele>25.6</ele>
        <time>2021-07-17T10:37:41Z</time>
      </trkpt>
      <trkpt lat="43.4329870" lon="-4.0418430">
        <ele>25.0</ele>
        <time>2021-07-17T10:37:42Z</time>
      </trkpt>
      <trkpt lat="43.4329920" lon="-4.0419460">
        <ele>24.2</ele>
        <time>2021-07-17T10:37:43Z</time>
      </trkpt>
      <trkpt lat="43.4329970" lon="-4.0420400">
        <ele>23.6</ele>
        <time>2021-07-17T10:37:44Z</time>
      </trkpt>
      <trkpt lat="43.4330070" lon="-4.0421340">
        <ele>23.0</ele>
        <time>2021-07-17T10:37:45Z</time>
      </trkpt>
      <trkpt lat="43.4330140" lon="-4.0422320">
        <ele>22.4</ele>
        <time>2021-07-17T10:37:46Z</time>
      </trkpt>
      <trkpt lat="43.4330220" lon="-4.0423290">
        <ele>21.8</ele>
        <time>2021-07-17T10:37:47Z</time>
      </trkpt>
      <trkpt lat="43.4330320" lon="-4.0424220">
        <ele>21.2</ele>
        <time>2021-07-17T10:37:48Z</time>
      </trkpt>
      <trkpt lat="43.4330430" lon="-4.0425140">
        <ele>20.6</ele>
        <time>2021-07-17T10:37:49Z</time>
      </trkpt>
      <trkpt lat="43.4330680" lon="-4.0426940">
        <ele>20.0</ele>
        <time>2021-07-17T10:37:51Z</time>
      </trkpt>
      <trkpt lat="43.4330830" lon="-4.0427830">
        <ele>19.6</ele>
        <time>2021-07-17T10:37:52Z</time>
      </trkpt>
      <trkpt lat="43.4330970" lon="-4.0428710">
        <ele>19.0</ele>
        <time>2021-07-17T10:37:53Z</time>
      </trkpt>
      <trkpt lat="43.4331090" lon="-4.0429610">
        <ele>18.6</ele>
        <time>2021-07-17T10:37:54Z</time>
      </trkpt>
      <trkpt lat="43.4331200" lon="-4.0430500">
        <ele>18.2</ele>
        <time>2021-07-17T10:37:55Z</time>
      </trkpt>
      <trkpt lat="43.4331750" lon="-4.0433890">
        <ele>17.6</ele>
        <time>2021-07-17T10:37:59Z</time>
      </trkpt>
      <trkpt lat="43.4331880" lon="-4.0434670">
        <ele>17.2</ele>
        <time>2021-07-17T10:38:00Z</time>
      </trkpt>
      <trkpt lat="43.4332050" lon="-4.0435420">
        <ele>16.8</ele>
        <time>2021-07-17T10:38:01Z</time>
      </trkpt>
      <trkpt lat="43.4332190" lon="-4.0436160">
        <ele>16.4</ele>
        <time>2021-07-17T10:38:02Z</time>
      </trkpt>
      <trkpt lat="43.4332340" lon="-4.0436870">
        <ele>16.0</ele>
        <time>2021-07-17T10:38:03Z</time>
      </trkpt>
      <trkpt lat="43.4332650" lon="-4.0438260">
        <ele>16.0</ele>
        <time>2021-07-17T10:38:05Z</time>
      </trkpt>
      <trkpt lat="43.4332880" lon="-4.0439670">
        <ele>16.0</ele>
        <time>2021-07-17T10:38:07Z</time>
      </trkpt>
      <trkpt lat="43.4333010" lon="-4.0440350">
        <ele>16.0</ele>
        <time>2021-07-17T10:38:08Z</time>
      </trkpt>
      <trkpt lat="43.4333240" lon="-4.0441670">
        <ele>16.0</ele>
        <time>2021-07-17T10:38:10Z</time>
      </trkpt>
      <trkpt lat="43.4333730" lon="-4.0444450">
        <ele>16.0</ele>
        <time>2021-07-17T10:38:15Z</time>
      </trkpt>
      <trkpt lat="43.4334030" lon="-4.0445590">
        <ele>16.0</ele>
        <time>2021-07-17T10:38:18Z</time>
      </trkpt>
      <trkpt lat="43.4334180" lon="-4.0446350">
        <ele>16.0</ele>
        <time>2021-07-17T10:38:20Z</time>
      </trkpt>
      <trkpt lat="43.4334450" lon="-4.0447550">
        <ele>16.0</ele>
        <time>2021-07-17T10:38:23Z</time>
      </trkpt>
      <trkpt lat="43.4334820" lon="-4.0448790">
        <ele>16.0</ele>
        <time>2021-07-17T10:38:26Z</time>
      </trkpt>
      <trkpt lat="43.4335020" lon="-4.0449730">
        <ele>16.0</ele>
        <time>2021-07-17T10:38:28Z</time>
      </trkpt>
      <trkpt lat="43.4335220" lon="-4.0450670">
        <ele>16.0</ele>
        <time>2021-07-17T10:38:30Z</time>
      </trkpt>
      <trkpt lat="43.4335330" lon="-4.0451110">
        <ele>16.4</ele>
        <time>2021-07-17T10:38:31Z</time>
      </trkpt>
      <trkpt lat="43.4335430" lon="-4.0451570">
        <ele>16.8</ele>
        <time>2021-07-17T10:38:32Z</time>
      </trkpt>
      <trkpt lat="43.4335530" lon="-4.0452060">
        <ele>17.2</ele>
        <time>2021-07-17T10:38:33Z</time>
      </trkpt>
      <trkpt lat="43.4335630" lon="-4.0452550">
        <ele>17.8</ele>
        <time>2021-07-17T10:38:34Z</time>
      </trkpt>
      <trkpt lat="43.4335720" lon="-4.0453010">
        <ele>18.2</ele>
        <time>2021-07-17T10:38:35Z</time>
      </trkpt>
      <trkpt lat="43.4335920" lon="-4.0453920">
        <ele>18.2</ele>
        <time>2021-07-17T10:38:37Z</time>
      </trkpt>
      <trkpt lat="43.4336160" lon="-4.0454800">
        <ele>18.6</ele>
        <time>2021-07-17T10:38:39Z</time>
      </trkpt>
      <trkpt lat="43.4336280" lon="-4.0455210">
        <ele>19.0</ele>
        <time>2021-07-17T10:38:40Z</time>
      </trkpt>
      <trkpt lat="43.4336390" lon="-4.0455630">
        <ele>19.4</ele>
        <time>2021-07-17T10:38:41Z</time>
      </trkpt>
      <trkpt lat="43.4336510" lon="-4.0456030">
        <ele>19.8</ele>
        <time>2021-07-17T10:38:42Z</time>
      </trkpt>
      <trkpt lat="43.4336590" lon="-4.0456460">
        <ele>20.2</ele>
        <time>2021-07-17T10:38:43Z</time>
      </trkpt>
      <trkpt lat="43.4337100" lon="-4.0458050">
        <ele>20.6</ele>
        <time>2021-07-17T10:38:47Z</time>
      </trkpt>
      <trkpt lat="43.4337250" lon="-4.0458410">
        <ele>21.0</ele>
        <time>2021-07-17T10:38:48Z</time>
      </trkpt>
      <trkpt lat="43.4337350" lon="-4.0458800">
        <ele>21.4</ele>
        <time>2021-07-17T10:38:49Z</time>
      </trkpt>
      <trkpt lat="43.4337470" lon="-4.0459200">
        <ele>21.8</ele>
        <time>2021-07-17T10:38:50Z</time>
      </trkpt>
      <trkpt lat="43.4337610" lon="-4.0459590">
        <ele>22.2</ele>
        <time>2021-07-17T10:38:51Z</time>
      </trkpt>
      <trkpt lat="43.4337950" lon="-4.0460280">
        <ele>22.8</ele>
        <time>2021-07-17T10:38:53Z</time>
      </trkpt>
      <trkpt lat="43.4338140" lon="-4.0460540">
        <ele>23.2</ele>
        <time>2021-07-17T10:38:54Z</time>
      </trkpt>
      <trkpt lat="43.4338390" lon="-4.0460770">
        <ele>23.6</ele>
        <time>2021-07-17T10:38:55Z</time>
      </trkpt>
      <trkpt lat="43.4338640" lon="-4.0461030">
        <ele>24.0</ele>
        <time>2021-07-17T10:38:56Z</time>
      </trkpt>
      <trkpt lat="43.4338880" lon="-4.0461270">
        <ele>24.4</ele>
        <time>2021-07-17T10:38:57Z</time>
      </trkpt>
      <trkpt lat="43.4339430" lon="-4.0461610">
        <ele>24.4</ele>
        <time>2021-07-17T10:38:59Z</time>
      </trkpt>
      <trkpt lat="43.4340240" lon="-4.0462060">
        <ele>24.8</ele>
        <time>2021-07-17T10:39:02Z</time>
      </trkpt>
      <trkpt lat="43.4340510" lon="-4.0462130">
        <ele>25.2</ele>
        <time>2021-07-17T10:39:03Z</time>
      </trkpt>
      <trkpt lat="43.4340760" lon="-4.0462180">
        <ele>25.6</ele>
        <time>2021-07-17T10:39:04Z</time>
      </trkpt>
      <trkpt lat="43.4341060" lon="-4.0462160">
        <ele>26.0</ele>
        <time>2021-07-17T10:39:05Z</time>
      </trkpt>
      <trkpt lat="43.4341290" lon="-4.0462150">
        <ele>26.4</ele>
        <time>2021-07-17T10:39:06Z</time>
      </trkpt>
      <trkpt lat="43.4342080" lon="-4.0461990">
        <ele>26.8</ele>
        <time>2021-07-17T10:39:09Z</time>
      </trkpt>
      <trkpt lat="43.4342320" lon="-4.0461930">
        <ele>27.4</ele>
        <time>2021-07-17T10:39:10Z</time>
      </trkpt>
      <trkpt lat="43.4342620" lon="-4.0461830">
        <ele>28.2</ele>
        <time>2021-07-17T10:39:11Z</time>
      </trkpt>
      <trkpt lat="43.4342930" lon="-4.0461650">
        <ele>28.6</ele>
        <time>2021-07-17T10:39:12Z</time>
      </trkpt>
      <trkpt lat="43.4343960" lon="-4.0460960">
        <ele>29.0</ele>
        <time>2021-07-17T10:39:17Z</time>
      </trkpt>
      <trkpt lat="43.4344200" lon="-4.0460800">
        <ele>29.4</ele>
        <time>2021-07-17T10:39:18Z</time>
      </trkpt>
      <trkpt lat="43.4344430" lon="-4.0460640">
        <ele>30.0</ele>
        <time>2021-07-17T10:39:19Z</time>
      </trkpt>
      <trkpt lat="43.4344650" lon="-4.0460510">
        <ele>30.4</ele>
        <time>2021-07-17T10:39:20Z</time>
      </trkpt>
      <trkpt lat="43.4344890" lon="-4.0460360">
        <ele>31.0</ele>
        <time>2021-07-17T10:39:21Z</time>
      </trkpt>
      <trkpt lat="43.4346680" lon="-4.0459090">
        <ele>31.0</ele>
        <time>2021-07-17T10:39:29Z</time>
      </trkpt>
      <trkpt lat="43.4347380" lon="-4.0458550">
        <ele>31.4</ele>
        <time>2021-07-17T10:39:32Z</time>
      </trkpt>
      <trkpt lat="43.4347640" lon="-4.0458450">
        <ele>31.8</ele>
        <time>2021-07-17T10:39:33Z</time>
      </trkpt>
      <trkpt lat="43.4347880" lon="-4.0458260">
        <ele>32.2</ele>
        <time>2021-07-17T10:39:34Z</time>
      </trkpt>
      <trkpt lat="43.4348140" lon="-4.0458090">
        <ele>32.6</ele>
        <time>2021-07-17T10:39:35Z</time>
      </trkpt>
      <trkpt lat="43.4348410" lon="-4.0457910">
        <ele>33.0</ele>
        <time>2021-07-17T10:39:36Z</time>
      </trkpt>
      <trkpt lat="43.4350180" lon="-4.0456840">
        <ele>33.0</ele>
        <time>2021-07-17T10:39:43Z</time>
      </trkpt>
      <trkpt lat="43.4350710" lon="-4.0456720">
        <ele>33.4</ele>
        <time>2021-07-17T10:39:45Z</time>
      </trkpt>
      <trkpt lat="43.4350980" lon="-4.0456730">
        <ele>33.8</ele>
        <time>2021-07-17T10:39:46Z</time>
      </trkpt>
      <trkpt lat="43.4351260" lon="-4.0456730">
        <ele>34.2</ele>
        <time>2021-07-17T10:39:47Z</time>
      </trkpt>
      <trkpt lat="43.4351530" lon="-4.0456710">
        <ele>34.6</ele>
        <time>2021-07-17T10:39:48Z</time>
      </trkpt>
      <trkpt lat="43.4351810" lon="-4.0456710">
        <ele>35.2</ele>
        <time>2021-07-17T10:39:49Z</time>
      </trkpt>
      <trkpt lat="43.4352070" lon="-4.0456730">
        <ele>35.2</ele>
        <time>2021-07-17T10:39:50Z</time>
      </trkpt>
      <trkpt lat="43.4352890" lon="-4.0456800">
        <ele>35.6</ele>
        <time>2021-07-17T10:39:54Z</time>
      </trkpt>
      <trkpt lat="43.4353020" lon="-4.0456770">
        <ele>36.0</ele>
        <time>2021-07-17T10:39:55Z</time>
      </trkpt>
      <trkpt lat="43.4353210" lon="-4.0456850">
        <ele>36.4</ele>
        <time>2021-07-17T10:39:56Z</time>
      </trkpt>
      <trkpt lat="43.4353410" lon="-4.0456930">
        <ele>36.8</ele>
        <time>2021-07-17T10:39:57Z</time>
      </trkpt>
      <trkpt lat="43.4353670" lon="-4.0457050">
        <ele>37.2</ele>
        <time>2021-07-17T10:39:58Z</time>
      </trkpt>
      <trkpt lat="43.4354200" lon="-4.0457470">
        <ele>37.2</ele>
        <time>2021-07-17T10:40:00Z</time>
      </trkpt>
      <trkpt lat="43.4354710" lon="-4.0458030">
        <ele>37.2</ele>
        <time>2021-07-17T10:40:02Z</time>
      </trkpt>
      <trkpt lat="43.4356090" lon="-4.0460260">
        <ele>37.2</ele>
        <time>2021-07-17T10:40:09Z</time>
      </trkpt>
      <trkpt lat="43.4356630" lon="-4.0461200">
        <ele>37.6</ele>
        <time>2021-07-17T10:40:12Z</time>
      </trkpt>
      <trkpt lat="43.4356830" lon="-4.0461440">
        <ele>38.0</ele>
        <time>2021-07-17T10:40:13Z</time>
      </trkpt>
      <trkpt lat="43.4357020" lon="-4.0461690">
        <ele>38.4</ele>
        <time>2021-07-17T10:40:14Z</time>
      </trkpt>
      <trkpt lat="43.4357220" lon="-4.0461900">
        <ele>38.8</ele>
        <time>2021-07-17T10:40:15Z</time>
      </trkpt>
      <trkpt lat="43.4357420" lon="-4.0462050">
        <ele>39.2</ele>
        <time>2021-07-17T10:40:16Z</time>
      </trkpt>
      <trkpt lat="43.4357650" lon="-4.0462090">
        <ele>39.2</ele>
        <time>2021-07-17T10:40:17Z</time>
      </trkpt>
      <trkpt lat="43.4358190" lon="-4.0461980">
        <ele>39.6</ele>
        <time>2021-07-17T10:40:19Z</time>
      </trkpt>
      <trkpt lat="43.4358480" lon="-4.0461800">
        <ele>40.0</ele>
        <time>2021-07-17T10:40:20Z</time>
      </trkpt>
      <trkpt lat="43.4358750" lon="-4.0461580">
        <ele>40.4</ele>
        <time>2021-07-17T10:40:21Z</time>
      </trkpt>
      <trkpt lat="43.4359060" lon="-4.0461430">
        <ele>40.8</ele>
        <time>2021-07-17T10:40:22Z</time>
      </trkpt>
      <trkpt lat="43.4359340" lon="-4.0461200">
        <ele>41.2</ele>
        <time>2021-07-17T10:40:23Z</time>
      </trkpt>
      <trkpt lat="43.4359730" lon="-4.0460750">
        <ele>41.2</ele>
        <time>2021-07-17T10:40:25Z</time>
      </trkpt>
      <trkpt lat="43.4360480" lon="-4.0460120">
        <ele>41.2</ele>
        <time>2021-07-17T10:40:29Z</time>
      </trkpt>
      <trkpt lat="43.4360720" lon="-4.0459950">
        <ele>41.6</ele>
        <time>2021-07-17T10:40:30Z</time>
      </trkpt>
      <trkpt lat="43.4360960" lon="-4.0459750">
        <ele>42.2</ele>
        <time>2021-07-17T10:40:31Z</time>
      </trkpt>
      <trkpt lat="43.4361240" lon="-4.0459570">
        <ele>42.6</ele>
        <time>2021-07-17T10:40:32Z</time>
      </trkpt>
      <trkpt lat="43.4361510" lon="-4.0459400">
        <ele>43.2</ele>
        <time>2021-07-17T10:40:33Z</time>
      </trkpt>
      <trkpt lat="43.4361810" lon="-4.0459280">
        <ele>43.6</ele>
        <time>2021-07-17T10:40:34Z</time>
      </trkpt>
      <trkpt lat="43.4362070" lon="-4.0459180">
        <ele>43.6</ele>
        <time>2021-07-17T10:40:35Z</time>
      </trkpt>
      <trkpt lat="43.4362540" lon="-4.0459090">
        <ele>44.2</ele>
        <time>2021-07-17T10:40:37Z</time>
      </trkpt>
      <trkpt lat="43.4362760" lon="-4.0459070">
        <ele>44.8</ele>
        <time>2021-07-17T10:40:38Z</time>
      </trkpt>
      <trkpt lat="43.4363000" lon="-4.0459070">
        <ele>45.6</ele>
        <time>2021-07-17T10:40:39Z</time>
      </trkpt>
      <trkpt lat="43.4363230" lon="-4.0459060">
        <ele>46.6</ele>
        <time>2021-07-17T10:40:40Z</time>
      </trkpt>
      <trkpt lat="43.4363440" lon="-4.0459060">
        <ele>47.4</ele>
        <time>2021-07-17T10:40:41Z</time>
      </trkpt>
      <trkpt lat="43.4363660" lon="-4.0459110">
        <ele>48.2</ele>
        <time>2021-07-17T10:40:42Z</time>
      </trkpt>
      <trkpt lat="43.4363890" lon="-4.0459070">
        <ele>49.0</ele>
        <time>2021-07-17T10:40:43Z</time>
      </trkpt>
      <trkpt lat="43.4364570" lon="-4.0458990">
        <ele>48.6</ele>
        <time>2021-07-17T10:40:46Z</time>
      </trkpt>
      <trkpt lat="43.4364760" lon="-4.0458930">
        <ele>48.2</ele>
        <time>2021-07-17T10:40:47Z</time>
      </trkpt>
      <trkpt lat="43.4364880" lon="-4.0458850">
        <ele>47.8</ele>
        <time>2021-07-17T10:40:48Z</time>
      </trkpt>
      <trkpt lat="43.4364970" lon="-4.0458780">
        <ele>47.4</ele>
        <time>2021-07-17T10:40:49Z</time>
      </trkpt>
      <trkpt lat="43.4364960" lon="-4.0458780">
        <ele>47.0</ele>
        <time>2021-07-17T10:40:50Z</time>
      </trkpt>
      <trkpt lat="43.4365260" lon="-4.0458890">
        <ele>45.0</ele>
        <time>2021-07-17T10:41:17Z</time>
      </trkpt>
      <trkpt lat="43.4365890" lon="-4.0458680">
        <ele>45.0</ele>
        <time>2021-07-17T10:41:20Z</time>
      </trkpt>
      <trkpt lat="43.4366480" lon="-4.0458540">
        <ele>45.0</ele>
        <time>2021-07-17T10:41:22Z</time>
      </trkpt>
      <trkpt lat="43.4366750" lon="-4.0458470">
        <ele>45.6</ele>
        <time>2021-07-17T10:41:23Z</time>
      </trkpt>
      <trkpt lat="43.4367060" lon="-4.0458510">
        <ele>46.2</ele>
        <time>2021-07-17T10:41:24Z</time>
      </trkpt>
      <trkpt lat="43.4367350" lon="-4.0458540">
        <ele>46.6</ele>
        <time>2021-07-17T10:41:25Z</time>
      </trkpt>
      <trkpt lat="43.4367630" lon="-4.0458560">
        <ele>47.2</ele>
        <time>2021-07-17T10:41:26Z</time>
      </trkpt>
      <trkpt lat="43.4367900" lon="-4.0458630">
        <ele>47.8</ele>
        <time>2021-07-17T10:41:27Z</time>
      </trkpt>
      <trkpt lat="43.4368190" lon="-4.0458660">
        <ele>47.8</ele>
        <time>2021-07-17T10:41:28Z</time>
      </trkpt>
      <trkpt lat="43.4370220" lon="-4.0459020">
        <ele>47.8</ele>
        <time>2021-07-17T10:41:35Z</time>
      </trkpt>
      <trkpt lat="43.4372440" lon="-4.0458750">
        <ele>47.8</ele>
        <time>2021-07-17T10:41:41Z</time>
      </trkpt>
      <trkpt lat="43.4373870" lon="-4.0458500">
        <ele>47.8</ele>
        <time>2021-07-17T10:41:45Z</time>
      </trkpt>
      <trkpt lat="43.4375350" lon="-4.0458350">
        <ele>47.8</ele>
        <time>2021-07-17T10:41:49Z</time>
      </trkpt>
      <trkpt lat="43.4376100" lon="-4.0458120">
        <ele>47.8</ele>
        <time>2021-07-17T10:41:51Z</time>
      </trkpt>
      <trkpt lat="43.4378200" lon="-4.0457600">
        <ele>47.8</ele>
        <time>2021-07-17T10:41:56Z</time>
      </trkpt>
      <trkpt lat="43.4379360" lon="-4.0457210">
        <ele>47.8</ele>
        <time>2021-07-17T10:41:59Z</time>
      </trkpt>
      <trkpt lat="43.4380750" lon="-4.0456380">
        <ele>47.8</ele>
        <time>2021-07-17T10:42:03Z</time>
      </trkpt>
      <trkpt lat="43.4381120" lon="-4.0456140">
        <ele>47.4</ele>
        <time>2021-07-17T10:42:04Z</time>
      </trkpt>
      <trkpt lat="43.4381500" lon="-4.0455860">
        <ele>46.8</ele>
        <time>2021-07-17T10:42:05Z</time>
      </trkpt>
      <trkpt lat="43.4381900" lon="-4.0455550">
        <ele>46.0</ele>
        <time>2021-07-17T10:42:06Z</time>
      </trkpt>
      <trkpt lat="43.4382280" lon="-4.0455260">
        <ele>45.6</ele>
        <time>2021-07-17T10:42:07Z</time>
      </trkpt>
      <trkpt lat="43.4383340" lon="-4.0454520">
        <ele>45.6</ele>
        <time>2021-07-17T10:42:10Z</time>
      </trkpt>
      <trkpt lat="43.4385160" lon="-4.0453270">
        <ele>45.6</ele>
        <time>2021-07-17T10:42:16Z</time>
      </trkpt>
      <trkpt lat="43.4387710" lon="-4.0452280">
        <ele>45.6</ele>
        <time>2021-07-17T10:42:23Z</time>
      </trkpt>
      <trkpt lat="43.4388780" lon="-4.0451840">
        <ele>46.0</ele>
        <time>2021-07-17T10:42:26Z</time>
      </trkpt>
      <trkpt lat="43.4389110" lon="-4.0451670">
        <ele>46.4</ele>
        <time>2021-07-17T10:42:27Z</time>
      </trkpt>
      <trkpt lat="43.4389470" lon="-4.0451530">
        <ele>46.8</ele>
        <time>2021-07-17T10:42:28Z</time>
      </trkpt>
      <trkpt lat="43.4389800" lon="-4.0451370">
        <ele>47.2</ele>
        <time>2021-07-17T10:42:29Z</time>
      </trkpt>
      <trkpt lat="43.4390140" lon="-4.0451270">
        <ele>47.6</ele>
        <time>2021-07-17T10:42:30Z</time>
      </trkpt>
      <trkpt lat="43.4391800" lon="-4.0450640">
        <ele>47.6</ele>
        <time>2021-07-17T10:42:35Z</time>
      </trkpt>
      <trkpt lat="43.4394590" lon="-4.0449600">
        <ele>47.6</ele>
        <time>2021-07-17T10:42:42Z</time>
      </trkpt>
      <trkpt lat="43.4397450" lon="-4.0448150">
        <ele>47.6</ele>
        <time>2021-07-17T10:42:48Z</time>
      </trkpt>
      <trkpt lat="43.4398320" lon="-4.0447550">
        <ele>47.6</ele>
        <time>2021-07-17T10:42:50Z</time>
      </trkpt>
      <trkpt lat="43.4399170" lon="-4.0447040">
        <ele>47.6</ele>
        <time>2021-07-17T10:42:52Z</time>
      </trkpt>
      <trkpt lat="43.4399870" lon="-4.0446530">
        <ele>47.6</ele>
        <time>2021-07-17T10:42:54Z</time>
      </trkpt>
      <trkpt lat="43.4400200" lon="-4.0446250">
        <ele>46.8</ele>
        <time>2021-07-17T10:42:55Z</time>
      </trkpt>
      <trkpt lat="43.4400540" lon="-4.0446020">
        <ele>46.4</ele>
        <time>2021-07-17T10:42:56Z</time>
      </trkpt>
      <trkpt lat="43.4400880" lon="-4.0445780">
        <ele>46.0</ele>
        <time>2021-07-17T10:42:57Z</time>
      </trkpt>
      <trkpt lat="43.4401280" lon="-4.0445540">
        <ele>45.6</ele>
        <time>2021-07-17T10:42:58Z</time>
      </trkpt>
      <trkpt lat="43.4402380" lon="-4.0444790">
        <ele>45.6</ele>
        <time>2021-07-17T10:43:01Z</time>
      </trkpt>
      <trkpt lat="43.4403140" lon="-4.0444250">
        <ele>45.2</ele>
        <time>2021-07-17T10:43:03Z</time>
      </trkpt>
      <trkpt lat="43.4403520" lon="-4.0443970">
        <ele>44.8</ele>
        <time>2021-07-17T10:43:04Z</time>
      </trkpt>
      <trkpt lat="43.4403900" lon="-4.0443720">
        <ele>44.4</ele>
        <time>2021-07-17T10:43:05Z</time>
      </trkpt>
      <trkpt lat="43.4404290" lon="-4.0443460">
        <ele>44.0</ele>
        <time>2021-07-17T10:43:06Z</time>
      </trkpt>
      <trkpt lat="43.4404650" lon="-4.0443180">
        <ele>43.4</ele>
        <time>2021-07-17T10:43:07Z</time>
      </trkpt>
      <trkpt lat="43.4405710" lon="-4.0442360">
        <ele>43.4</ele>
        <time>2021-07-17T10:43:10Z</time>
      </trkpt>
      <trkpt lat="43.4406430" lon="-4.0441890">
        <ele>43.4</ele>
        <time>2021-07-17T10:43:12Z</time>
      </trkpt>
      <trkpt lat="43.4407550" lon="-4.0441090">
        <ele>43.4</ele>
        <time>2021-07-17T10:43:15Z</time>
      </trkpt>
      <trkpt lat="43.4408310" lon="-4.0440600">
        <ele>43.4</ele>
        <time>2021-07-17T10:43:17Z</time>
      </trkpt>
      <trkpt lat="43.4408700" lon="-4.0440340">
        <ele>43.4</ele>
        <time>2021-07-17T10:43:18Z</time>
      </trkpt>
      <trkpt lat="43.4411200" lon="-4.0438690">
        <ele>43.4</ele>
        <time>2021-07-17T10:43:25Z</time>
      </trkpt>
      <trkpt lat="43.4412050" lon="-4.0438000">
        <ele>43.4</ele>
        <time>2021-07-17T10:43:28Z</time>
      </trkpt>
      <trkpt lat="43.4412940" lon="-4.0437250">
        <ele>43.4</ele>
        <time>2021-07-17T10:43:31Z</time>
      </trkpt>
      <trkpt lat="43.4413500" lon="-4.0436820">
        <ele>43.4</ele>
        <time>2021-07-17T10:43:33Z</time>
      </trkpt>
      <trkpt lat="43.4414210" lon="-4.0435530">
        <ele>43.4</ele>
        <time>2021-07-17T10:43:37Z</time>
      </trkpt>
      <trkpt lat="43.4415270" lon="-4.0434900">
        <ele>43.4</ele>
        <time>2021-07-17T10:43:42Z</time>
      </trkpt>
      <trkpt lat="43.4416920" lon="-4.0434490">
        <ele>43.4</ele>
        <time>2021-07-17T10:43:47Z</time>
      </trkpt>
      <trkpt lat="43.4418440" lon="-4.0434680">
        <ele>43.0</ele>
        <time>2021-07-17T10:43:52Z</time>
      </trkpt>
      <trkpt lat="43.4418590" lon="-4.0434750">
        <ele>42.6</ele>
        <time>2021-07-17T10:43:53Z</time>
      </trkpt>
      <trkpt lat="43.4418720" lon="-4.0434910">
        <ele>42.2</ele>
        <time>2021-07-17T10:43:54Z</time>
      </trkpt>
      <trkpt lat="43.4418850" lon="-4.0435160">
        <ele>41.8</ele>
        <time>2021-07-17T10:43:55Z</time>
      </trkpt>
      <trkpt lat="43.4418920" lon="-4.0435390">
        <ele>41.4</ele>
        <time>2021-07-17T10:43:56Z</time>
      </trkpt>
      <trkpt lat="43.4419010" lon="-4.0435540">
        <ele>41.0</ele>
        <time>2021-07-17T10:43:57Z</time>
      </trkpt>
      <trkpt lat="43.4419080" lon="-4.0435650">
        <ele>40.6</ele>
        <time>2021-07-17T10:43:58Z</time>
      </trkpt>
      <trkpt lat="43.4419180" lon="-4.0435750">
        <ele>40.2</ele>
        <time>2021-07-17T10:43:59Z</time>
      </trkpt>
      <trkpt lat="43.4419270" lon="-4.0435790">
        <ele>39.8</ele>
        <time>2021-07-17T10:44:00Z</time>
      </trkpt>
      <trkpt lat="43.4419310" lon="-4.0435770">
        <ele>39.4</ele>
        <time>2021-07-17T10:44:01Z</time>
      </trkpt>
      <trkpt lat="43.4419310" lon="-4.0435780">
        <ele>39.4</ele>
        <time>2021-07-17T10:44:02Z</time>
      </trkpt>
      <trkpt lat="43.4418510" lon="-4.0435400">
        <ele>39.4</ele>
        <time>2021-07-17T10:54:00Z</time>
      </trkpt>
      <trkpt lat="43.4418200" lon="-4.0435260">
        <ele>39.4</ele>
        <time>2021-07-17T10:54:02Z</time>
      </trkpt>
      <trkpt lat="43.4417540" lon="-4.0434620">
        <ele>39.4</ele>
        <time>2021-07-17T10:54:05Z</time>
      </trkpt>
      <trkpt lat="43.4416900" lon="-4.0434640">
        <ele>39.4</ele>
        <time>2021-07-17T10:54:07Z</time>
      </trkpt>
      <trkpt lat="43.4415890" lon="-4.0434650">
        <ele>39.4</ele>
        <time>2021-07-17T10:54:11Z</time>
      </trkpt>
      <trkpt lat="43.4415460" lon="-4.0434670">
        <ele>39.4</ele>
        <time>2021-07-17T10:54:13Z</time>
      </trkpt>
      <trkpt lat="43.4415160" lon="-4.0434920">
        <ele>39.8</ele>
        <time>2021-07-17T10:54:15Z</time>
      </trkpt>
      <trkpt lat="43.4415070" lon="-4.0435110">
        <ele>40.2</ele>
        <time>2021-07-17T10:54:16Z</time>
      </trkpt>
      <trkpt lat="43.4415020" lon="-4.0435340">
        <ele>40.6</ele>
        <time>2021-07-17T10:54:17Z</time>
      </trkpt>
      <trkpt lat="43.4415070" lon="-4.0435480">
        <ele>41.0</ele>
        <time>2021-07-17T10:54:18Z</time>
      </trkpt>
      <trkpt lat="43.4415180" lon="-4.0435480">
        <ele>41.4</ele>
        <time>2021-07-17T10:54:19Z</time>
      </trkpt>
      <trkpt lat="43.4415450" lon="-4.0435360">
        <ele>41.4</ele>
        <time>2021-07-17T10:54:22Z</time>
      </trkpt>
      <trkpt lat="43.4415550" lon="-4.0435410">
        <ele>41.4</ele>
        <time>2021-07-17T10:54:23Z</time>
      </trkpt>
      <trkpt lat="43.4415840" lon="-4.0436170">
        <ele>41.4</ele>
        <time>2021-07-17T10:54:26Z</time>
      </trkpt>
      <trkpt lat="43.4416210" lon="-4.0437040">
        <ele>41.4</ele>
        <time>2021-07-17T10:54:29Z</time>
      </trkpt>
      <trkpt lat="43.4416500" lon="-4.0437870">
        <ele>41.4</ele>
        <time>2021-07-17T10:54:31Z</time>
      </trkpt>
      <trkpt lat="43.4416650" lon="-4.0438260">
        <ele>41.4</ele>
        <time>2021-07-17T10:54:32Z</time>
      </trkpt>
      <trkpt lat="43.4416830" lon="-4.0438730">
        <ele>41.0</ele>
        <time>2021-07-17T10:54:33Z</time>
      </trkpt>
      <trkpt lat="43.4416980" lon="-4.0439140">
        <ele>40.6</ele>
        <time>2021-07-17T10:54:34Z</time>
      </trkpt>
      <trkpt lat="43.4417120" lon="-4.0439460">
        <ele>40.0</ele>
        <time>2021-07-17T10:54:35Z</time>
      </trkpt>
      <trkpt lat="43.4417220" lon="-4.0439760">
        <ele>39.6</ele>
        <time>2021-07-17T10:54:36Z</time>
      </trkpt>
      <trkpt lat="43.4417340" lon="-4.0440070">
        <ele>39.2</ele>
        <time>2021-07-17T10:54:37Z</time>
      </trkpt>
      <trkpt lat="43.4417430" lon="-4.0440460">
        <ele>39.2</ele>
        <time>2021-07-17T10:54:38Z</time>
      </trkpt>
      <trkpt lat="43.4417530" lon="-4.0441870">
        <ele>39.2</ele>
        <time>2021-07-17T10:54:42Z</time>
      </trkpt>
      <trkpt lat="43.4417380" lon="-4.0442150">
        <ele>39.2</ele>
        <time>2021-07-17T10:54:43Z</time>
      </trkpt>
      <trkpt lat="43.4417200" lon="-4.0442400">
        <ele>39.2</ele>
        <time>2021-07-17T10:54:44Z</time>
      </trkpt>
      <trkpt lat="43.4416730" lon="-4.0442560">
        <ele>39.2</ele>
        <time>2021-07-17T10:54:46Z</time>
      </trkpt>
      <trkpt lat="43.4416480" lon="-4.0442670">
        <ele>39.2</ele>
        <time>2021-07-17T10:54:47Z</time>
      </trkpt>
      <trkpt lat="43.4416200" lon="-4.0442870">
        <ele>39.2</ele>
        <time>2021-07-17T10:54:48Z</time>
      </trkpt>
      <trkpt lat="43.4415560" lon="-4.0443350">
        <ele>38.6</ele>
        <time>2021-07-17T10:54:50Z</time>
      </trkpt>
      <trkpt lat="43.4415230" lon="-4.0443600">
        <ele>37.8</ele>
        <time>2021-07-17T10:54:51Z</time>
      </trkpt>
      <trkpt lat="43.4414870" lon="-4.0443850">
        <ele>37.2</ele>
        <time>2021-07-17T10:54:52Z</time>
      </trkpt>
      <trkpt lat="43.4414520" lon="-4.0444100">
        <ele>36.8</ele>
        <time>2021-07-17T10:54:53Z</time>
      </trkpt>
      <trkpt lat="43.4413780" lon="-4.0444610">
        <ele>36.8</ele>
        <time>2021-07-17T10:54:55Z</time>
      </trkpt>
      <trkpt lat="43.4413140" lon="-4.0445350">
        <ele>36.8</ele>
        <time>2021-07-17T10:54:58Z</time>
      </trkpt>
      <trkpt lat="43.4413120" lon="-4.0445760">
        <ele>36.8</ele>
        <time>2021-07-17T10:54:59Z</time>
      </trkpt>
      <trkpt lat="43.4413610" lon="-4.0446900">
        <ele>36.8</ele>
        <time>2021-07-17T10:55:02Z</time>
      </trkpt>
      <trkpt lat="43.4413720" lon="-4.0447270">
        <ele>36.8</ele>
        <time>2021-07-17T10:55:03Z</time>
      </trkpt>
      <trkpt lat="43.4413760" lon="-4.0448920">
        <ele>36.8</ele>
        <time>2021-07-17T10:55:07Z</time>
      </trkpt>
      <trkpt lat="43.4413640" lon="-4.0449250">
        <ele>36.8</ele>
        <time>2021-07-17T10:55:08Z</time>
      </trkpt>
      <trkpt lat="43.4413400" lon="-4.0449710">
        <ele>36.8</ele>
        <time>2021-07-17T10:55:10Z</time>
      </trkpt>
      <trkpt lat="43.4413330" lon="-4.0449800">
        <ele>36.8</ele>
        <time>2021-07-17T10:55:12Z</time>
      </trkpt>
      <trkpt lat="43.4413140" lon="-4.0449960">
        <ele>36.8</ele>
        <time>2021-07-17T10:55:15Z</time>
      </trkpt>
      <trkpt lat="43.4412990" lon="-4.0450370">
        <ele>36.8</ele>
        <time>2021-07-17T10:55:17Z</time>
      </trkpt>
      <trkpt lat="43.4413080" lon="-4.0450950">
        <ele>36.8</ele>
        <time>2021-07-17T10:55:19Z</time>
      </trkpt>
      <trkpt lat="43.4413440" lon="-4.0452100">
        <ele>36.8</ele>
        <time>2021-07-17T10:55:22Z</time>
      </trkpt>
      <trkpt lat="43.4413660" lon="-4.0453050">
        <ele>36.8</ele>
        <time>2021-07-17T10:55:24Z</time>
      </trkpt>
      <trkpt lat="43.4414770" lon="-4.0456180">
        <ele>36.8</ele>
        <time>2021-07-17T10:55:31Z</time>
      </trkpt>
      <trkpt lat="43.4415480" lon="-4.0457910">
        <ele>36.8</ele>
        <time>2021-07-17T10:55:36Z</time>
      </trkpt>
      <trkpt lat="43.4415650" lon="-4.0458130">
        <ele>36.8</ele>
        <time>2021-07-17T10:55:37Z</time>
      </trkpt>
      <trkpt lat="43.4415820" lon="-4.0458070">
        <ele>36.8</ele>
        <time>2021-07-17T10:55:38Z</time>
      </trkpt>
      <trkpt lat="43.4416140" lon="-4.0457980">
        <ele>36.8</ele>
        <time>2021-07-17T10:55:40Z</time>
      </trkpt>
      <trkpt lat="43.4417000" lon="-4.0457840">
        <ele>36.8</ele>
        <time>2021-07-17T10:55:46Z</time>
      </trkpt>
      <trkpt lat="43.4417140" lon="-4.0458000">
        <ele>36.8</ele>
        <time>2021-07-17T10:55:47Z</time>
      </trkpt>
      <trkpt lat="43.4417300" lon="-4.0458830">
        <ele>36.8</ele>
        <time>2021-07-17T10:55:50Z</time>
      </trkpt>
      <trkpt lat="43.4417300" lon="-4.0459110">
        <ele>36.8</ele>
        <time>2021-07-17T10:55:51Z</time>
      </trkpt>
      <trkpt lat="43.4417330" lon="-4.0459680">
        <ele>36.8</ele>
        <time>2021-07-17T10:55:53Z</time>
      </trkpt>
      <trkpt lat="43.4417670" lon="-4.0460490">
        <ele>36.8</ele>
        <time>2021-07-17T10:55:57Z</time>
      </trkpt>
      <trkpt lat="43.4417850" lon="-4.0460600">
        <ele>36.8</ele>
        <time>2021-07-17T10:55:59Z</time>
      </trkpt>
      <trkpt lat="43.4418130" lon="-4.0460930">
        <ele>36.8</ele>
        <time>2021-07-17T10:56:09Z</time>
      </trkpt>
      <trkpt lat="43.4418200" lon="-4.0461060">
        <ele>36.8</ele>
        <time>2021-07-17T10:56:10Z</time>
      </trkpt>
      <trkpt lat="43.4418270" lon="-4.0461320">
        <ele>36.8</ele>
        <time>2021-07-17T10:56:12Z</time>
      </trkpt>
      <trkpt lat="43.4418300" lon="-4.0461410">
        <ele>36.8</ele>
        <time>2021-07-17T10:56:14Z</time>
      </trkpt>
      <trkpt lat="43.4418390" lon="-4.0461140">
        <ele>36.8</ele>
        <time>2021-07-17T10:56:24Z</time>
      </trkpt>
      <trkpt lat="43.4418500" lon="-4.0461020">
        <ele>36.8</ele>
        <time>2021-07-17T10:56:25Z</time>
      </trkpt>
      <trkpt lat="43.4418930" lon="-4.0460950">
        <ele>36.8</ele>
        <time>2021-07-17T10:56:28Z</time>
      </trkpt>
      <trkpt lat="43.4419540" lon="-4.0460810">
        <ele>36.8</ele>
        <time>2021-07-17T10:56:32Z</time>
      </trkpt>
      <trkpt lat="43.4419960" lon="-4.0460760">
        <ele>36.8</ele>
        <time>2021-07-17T10:56:37Z</time>
      </trkpt>
      <trkpt lat="43.4420180" lon="-4.0460800">
        <ele>36.8</ele>
        <time>2021-07-17T10:56:42Z</time>
      </trkpt>
      <trkpt lat="43.4420760" lon="-4.0460970">
        <ele>36.8</ele>
        <time>2021-07-17T10:56:45Z</time>
      </trkpt>
      <trkpt lat="43.4421560" lon="-4.0461160">
        <ele>36.8</ele>
        <time>2021-07-17T10:56:48Z</time>
      </trkpt>
      <trkpt lat="43.4421860" lon="-4.0461210">
        <ele>36.8</ele>
        <time>2021-07-17T10:56:49Z</time>
      </trkpt>
      <trkpt lat="43.4423870" lon="-4.0461130">
        <ele>36.8</ele>
        <time>2021-07-17T10:56:54Z</time>
      </trkpt>
      <trkpt lat="43.4425030" lon="-4.0461050">
        <ele>36.4</ele>
        <time>2021-07-17T10:56:57Z</time>
      </trkpt>
      <trkpt lat="43.4425370" lon="-4.0461020">
        <ele>35.8</ele>
        <time>2021-07-17T10:56:58Z</time>
      </trkpt>
      <trkpt lat="43.4425710" lon="-4.0461050">
        <ele>35.4</ele>
        <time>2021-07-17T10:56:59Z</time>
      </trkpt>
      <trkpt lat="43.4426030" lon="-4.0461110">
        <ele>35.0</ele>
        <time>2021-07-17T10:57:00Z</time>
      </trkpt>
      <trkpt lat="43.4426340" lon="-4.0461160">
        <ele>34.4</ele>
        <time>2021-07-17T10:57:01Z</time>
      </trkpt>
      <trkpt lat="43.4427360" lon="-4.0461990">
        <ele>34.4</ele>
        <time>2021-07-17T10:57:06Z</time>
      </trkpt>
      <trkpt lat="43.4427900" lon="-4.0463570">
        <ele>34.4</ele>
        <time>2021-07-17T10:57:13Z</time>
      </trkpt>
      <trkpt lat="43.4427890" lon="-4.0464890">
        <ele>34.4</ele>
        <time>2021-07-17T10:57:18Z</time>
      </trkpt>
      <trkpt lat="43.4427560" lon="-4.0466770">
        <ele>34.4</ele>
        <time>2021-07-17T10:57:25Z</time>
      </trkpt>
      <trkpt lat="43.4427270" lon="-4.0467620">
        <ele>34.4</ele>
        <time>2021-07-17T10:57:29Z</time>
      </trkpt>
      <trkpt lat="43.4427190" lon="-4.0467780">
        <ele>35.0</ele>
        <time>2021-07-17T10:57:30Z</time>
      </trkpt>
      <trkpt lat="43.4427140" lon="-4.0467900">
        <ele>35.4</ele>
        <time>2021-07-17T10:57:31Z</time>
      </trkpt>
      <trkpt lat="43.4427120" lon="-4.0467940">
        <ele>35.8</ele>
        <time>2021-07-17T10:57:32Z</time>
      </trkpt>
      <trkpt lat="43.4426880" lon="-4.0468140">
        <ele>36.6</ele>
        <time>2021-07-17T10:57:40Z</time>
      </trkpt>
      <trkpt lat="43.4426710" lon="-4.0468420">
        <ele>36.6</ele>
        <time>2021-07-17T10:57:42Z</time>
      </trkpt>
      <trkpt lat="43.4426610" lon="-4.0468770">
        <ele>37.0</ele>
        <time>2021-07-17T10:57:44Z</time>
      </trkpt>
      <trkpt lat="43.4426570" lon="-4.0468940">
        <ele>37.4</ele>
        <time>2021-07-17T10:57:45Z</time>
      </trkpt>
      <trkpt lat="43.4426520" lon="-4.0469150">
        <ele>38.0</ele>
        <time>2021-07-17T10:57:46Z</time>
      </trkpt>
      <trkpt lat="43.4426490" lon="-4.0469360">
        <ele>38.4</ele>
        <time>2021-07-17T10:57:47Z</time>
      </trkpt>
      <trkpt lat="43.4426450" lon="-4.0469550">
        <ele>38.8</ele>
        <time>2021-07-17T10:57:48Z</time>
      </trkpt>
      <trkpt lat="43.4426370" lon="-4.0469860">
        <ele>38.8</ele>
        <time>2021-07-17T10:57:50Z</time>
      </trkpt>
      <trkpt lat="43.4426360" lon="-4.0469920">
        <ele>38.8</ele>
        <time>2021-07-17T10:57:51Z</time>
      </trkpt>
      <trkpt lat="43.4426320" lon="-4.0470120">
        <ele>38.8</ele>
        <time>2021-07-17T10:58:00Z</time>
      </trkpt>
      <trkpt lat="43.4426310" lon="-4.0470500">
        <ele>38.8</ele>
        <time>2021-07-17T10:58:02Z</time>
      </trkpt>
      <trkpt lat="43.4426270" lon="-4.0470870">
        <ele>39.2</ele>
        <time>2021-07-17T10:58:04Z</time>
      </trkpt>
      <trkpt lat="43.4426250" lon="-4.0471060">
        <ele>39.6</ele>
        <time>2021-07-17T10:58:05Z</time>
      </trkpt>
      <trkpt lat="43.4426220" lon="-4.0471230">
        <ele>40.0</ele>
        <time>2021-07-17T10:58:06Z</time>
      </trkpt>
      <trkpt lat="43.4426210" lon="-4.0471400">
        <ele>40.4</ele>
        <time>2021-07-17T10:58:07Z</time>
      </trkpt>
      <trkpt lat="43.4426200" lon="-4.0471580">
        <ele>40.8</ele>
        <time>2021-07-17T10:58:08Z</time>
      </trkpt>
      <trkpt lat="43.4426200" lon="-4.0471790">
        <ele>40.8</ele>
        <time>2021-07-17T10:58:09Z</time>
      </trkpt>
      <trkpt lat="43.4426200" lon="-4.0472180">
        <ele>41.2</ele>
        <time>2021-07-17T10:58:11Z</time>
      </trkpt>
      <trkpt lat="43.4426210" lon="-4.0472350">
        <ele>41.6</ele>
        <time>2021-07-17T10:58:12Z</time>
      </trkpt>
      <trkpt lat="43.4426230" lon="-4.0472510">
        <ele>42.0</ele>
        <time>2021-07-17T10:58:13Z</time>
      </trkpt>
      <trkpt lat="43.4426250" lon="-4.0472670">
        <ele>42.4</ele>
        <time>2021-07-17T10:58:14Z</time>
      </trkpt>
      <trkpt lat="43.4426250" lon="-4.0472840">
        <ele>42.8</ele>
        <time>2021-07-17T10:58:15Z</time>
      </trkpt>
      <trkpt lat="43.4426220" lon="-4.0473360">
        <ele>42.8</ele>
        <time>2021-07-17T10:58:18Z</time>
      </trkpt>
      <trkpt lat="43.4426220" lon="-4.0474270">
        <ele>43.2</ele>
        <time>2021-07-17T10:58:23Z</time>
      </trkpt>
      <trkpt lat="43.4426210" lon="-4.0474460">
        <ele>43.6</ele>
        <time>2021-07-17T10:58:24Z</time>
      </trkpt>
      <trkpt lat="43.4426220" lon="-4.0474630">
        <ele>44.2</ele>
        <time>2021-07-17T10:58:25Z</time>
      </trkpt>
      <trkpt lat="43.4426220" lon="-4.0474800">
        <ele>44.6</ele>
        <time>2021-07-17T10:58:26Z</time>
      </trkpt>
      <trkpt lat="43.4426190" lon="-4.0474980">
        <ele>45.0</ele>
        <time>2021-07-17T10:58:27Z</time>
      </trkpt>
      <trkpt lat="43.4425970" lon="-4.0476210">
        <ele>45.4</ele>
        <time>2021-07-17T10:58:34Z</time>
      </trkpt>
      <trkpt lat="43.4425940" lon="-4.0476380">
        <ele>46.0</ele>
        <time>2021-07-17T10:58:35Z</time>
      </trkpt>
      <trkpt lat="43.4425930" lon="-4.0476540">
        <ele>46.4</ele>
        <time>2021-07-17T10:58:36Z</time>
      </trkpt>
      <trkpt lat="43.4425930" lon="-4.0476700">
        <ele>46.8</ele>
        <time>2021-07-17T10:58:37Z</time>
      </trkpt>
      <trkpt lat="43.4425930" lon="-4.0476870">
        <ele>47.4</ele>
        <time>2021-07-17T10:58:38Z</time>
      </trkpt>
      <trkpt lat="43.4425920" lon="-4.0477390">
        <ele>47.8</ele>
        <time>2021-07-17T10:58:41Z</time>
      </trkpt>
      <trkpt lat="43.4425940" lon="-4.0477550">
        <ele>48.2</ele>
        <time>2021-07-17T10:58:42Z</time>
      </trkpt>
      <trkpt lat="43.4425930" lon="-4.0477710">
        <ele>48.6</ele>
        <time>2021-07-17T10:58:43Z</time>
      </trkpt>
      <trkpt lat="43.4425930" lon="-4.0477860">
        <ele>49.0</ele>
        <time>2021-07-17T10:58:44Z</time>
      </trkpt>
      <trkpt lat="43.4425940" lon="-4.0478000">
        <ele>49.4</ele>
        <time>2021-07-17T10:58:45Z</time>
      </trkpt>
      <trkpt lat="43.4426010" lon="-4.0478220">
        <ele>49.8</ele>
        <time>2021-07-17T10:58:47Z</time>
      </trkpt>
      <trkpt lat="43.4426040" lon="-4.0478240">
        <ele>50.2</ele>
        <time>2021-07-17T10:58:48Z</time>
      </trkpt>
      <trkpt lat="43.4426680" lon="-4.0478370">
        <ele>51.4</ele>
        <time>2021-07-17T10:59:12Z</time>
      </trkpt>
      <trkpt lat="43.4426820" lon="-4.0478410">
        <ele>51.4</ele>
        <time>2021-07-17T10:59:13Z</time>
      </trkpt>
      <trkpt lat="43.4427160" lon="-4.0478540">
        <ele>52.0</ele>
        <time>2021-07-17T10:59:16Z</time>
      </trkpt>
      <trkpt lat="43.4427270" lon="-4.0478600">
        <ele>52.6</ele>
        <time>2021-07-17T10:59:17Z</time>
      </trkpt>
      <trkpt lat="43.4427370" lon="-4.0478680">
        <ele>53.0</ele>
        <time>2021-07-17T10:59:18Z</time>
      </trkpt>
      <trkpt lat="43.4427450" lon="-4.0478750">
        <ele>53.6</ele>
        <time>2021-07-17T10:59:19Z</time>
      </trkpt>
      <trkpt lat="43.4427540" lon="-4.0478830">
        <ele>54.2</ele>
        <time>2021-07-17T10:59:20Z</time>
      </trkpt>
      <trkpt lat="43.4427650" lon="-4.0478900">
        <ele>54.2</ele>
        <time>2021-07-17T10:59:21Z</time>
      </trkpt>
      <trkpt lat="43.4427750" lon="-4.0478960">
        <ele>54.2</ele>
        <time>2021-07-17T10:59:22Z</time>
      </trkpt>
      <trkpt lat="43.4427960" lon="-4.0479080">
        <ele>54.2</ele>
        <time>2021-07-17T10:59:24Z</time>
      </trkpt>
      <trkpt lat="43.4428220" lon="-4.0479220">
        <ele>54.2</ele>
        <time>2021-07-17T10:59:26Z</time>
      </trkpt>
      <trkpt lat="43.4428810" lon="-4.0479570">
        <ele>54.2</ele>
        <time>2021-07-17T10:59:31Z</time>
      </trkpt>
      <trkpt lat="43.4429420" lon="-4.0479750">
        <ele>54.2</ele>
        <time>2021-07-17T10:59:39Z</time>
      </trkpt>
      <trkpt lat="43.4429440" lon="-4.0479760">
        <ele>54.6</ele>
        <time>2021-07-17T10:59:40Z</time>
      </trkpt>
      <trkpt lat="43.4428700" lon="-4.0479300">
        <ele>54.4</ele>
        <time>2021-07-17T11:05:11Z</time>
      </trkpt>
      <trkpt lat="43.4428550" lon="-4.0479240">
        <ele>54.0</ele>
        <time>2021-07-17T11:05:12Z</time>
      </trkpt>
      <trkpt lat="43.4428400" lon="-4.0479170">
        <ele>53.4</ele>
        <time>2021-07-17T11:05:13Z</time>
      </trkpt>
      <trkpt lat="43.4428100" lon="-4.0479020">
        <ele>53.4</ele>
        <time>2021-07-17T11:05:15Z</time>
      </trkpt>
      <trkpt lat="43.4427210" lon="-4.0478520">
        <ele>53.4</ele>
        <time>2021-07-17T11:05:21Z</time>
      </trkpt>
      <trkpt lat="43.4426740" lon="-4.0478420">
        <ele>53.4</ele>
        <time>2021-07-17T11:05:24Z</time>
      </trkpt>
      <trkpt lat="43.4426280" lon="-4.0478500">
        <ele>53.4</ele>
        <time>2021-07-17T11:05:28Z</time>
      </trkpt>
      <trkpt lat="43.4426240" lon="-4.0478550">
        <ele>53.4</ele>
        <time>2021-07-17T11:05:29Z</time>
      </trkpt>
      <trkpt lat="43.4425990" lon="-4.0478750">
        <ele>51.4</ele>
        <time>2021-07-17T11:05:42Z</time>
      </trkpt>
      <trkpt lat="43.4425810" lon="-4.0478750">
        <ele>51.4</ele>
        <time>2021-07-17T11:05:43Z</time>
      </trkpt>
      <trkpt lat="43.4425680" lon="-4.0478680">
        <ele>51.4</ele>
        <time>2021-07-17T11:05:44Z</time>
      </trkpt>
      <trkpt lat="43.4425270" lon="-4.0478600">
        <ele>51.4</ele>
        <time>2021-07-17T11:05:49Z</time>
      </trkpt>
      <trkpt lat="43.4425000" lon="-4.0478580">
        <ele>51.4</ele>
        <time>2021-07-17T11:05:53Z</time>
      </trkpt>
      <trkpt lat="43.4423900" lon="-4.0475970">
        <ele>49.2</ele>
        <time>2021-07-17T11:07:21Z</time>
      </trkpt>
      <trkpt lat="43.4423850" lon="-4.0475770">
        <ele>49.6</ele>
        <time>2021-07-17T11:07:22Z</time>
      </trkpt>
      <trkpt lat="43.4423790" lon="-4.0475620">
        <ele>50.2</ele>
        <time>2021-07-17T11:07:23Z</time>
      </trkpt>
      <trkpt lat="43.4423750" lon="-4.0475470">
        <ele>49.8</ele>
        <time>2021-07-17T11:07:24Z</time>
      </trkpt>
      <trkpt lat="43.4423750" lon="-4.0475370">
        <ele>49.4</ele>
        <time>2021-07-17T11:07:25Z</time>
      </trkpt>
      <trkpt lat="43.4423790" lon="-4.0475290">
        <ele>49.0</ele>
        <time>2021-07-17T11:07:26Z</time>
      </trkpt>
      <trkpt lat="43.4423810" lon="-4.0475170">
        <ele>48.6</ele>
        <time>2021-07-17T11:07:27Z</time>
      </trkpt>
      <trkpt lat="43.4423810" lon="-4.0475070">
        <ele>48.2</ele>
        <time>2021-07-17T11:07:28Z</time>
      </trkpt>
      <trkpt lat="43.4423810" lon="-4.0475040">
        <ele>47.8</ele>
        <time>2021-07-17T11:07:29Z</time>
      </trkpt>
      <trkpt lat="43.4423680" lon="-4.0474860">
        <ele>46.0</ele>
        <time>2021-07-17T11:07:34Z</time>
      </trkpt>
      <trkpt lat="43.4423420" lon="-4.0474330">
        <ele>46.0</ele>
        <time>2021-07-17T11:07:36Z</time>
      </trkpt>
      <trkpt lat="43.4423230" lon="-4.0474000">
        <ele>45.6</ele>
        <time>2021-07-17T11:07:37Z</time>
      </trkpt>
      <trkpt lat="43.4423000" lon="-4.0473670">
        <ele>45.0</ele>
        <time>2021-07-17T11:07:38Z</time>
      </trkpt>
      <trkpt lat="43.4422740" lon="-4.0473370">
        <ele>44.6</ele>
        <time>2021-07-17T11:07:39Z</time>
      </trkpt>
      <trkpt lat="43.4422480" lon="-4.0473120">
        <ele>44.0</ele>
        <time>2021-07-17T11:07:40Z</time>
      </trkpt>
      <trkpt lat="43.4422290" lon="-4.0472930">
        <ele>43.6</ele>
        <time>2021-07-17T11:07:41Z</time>
      </trkpt>
      <trkpt lat="43.4422160" lon="-4.0472820">
        <ele>43.6</ele>
        <time>2021-07-17T11:07:43Z</time>
      </trkpt>
      <trkpt lat="43.4422000" lon="-4.0472640">
        <ele>43.6</ele>
        <time>2021-07-17T11:07:59Z</time>
      </trkpt>
      <trkpt lat="43.4421700" lon="-4.0472290">
        <ele>43.6</ele>
        <time>2021-07-17T11:08:01Z</time>
      </trkpt>
      <trkpt lat="43.4421350" lon="-4.0472000">
        <ele>43.6</ele>
        <time>2021-07-17T11:08:03Z</time>
      </trkpt>
      <trkpt lat="43.4421210" lon="-4.0471900">
        <ele>43.2</ele>
        <time>2021-07-17T11:08:05Z</time>
      </trkpt>
      <trkpt lat="43.4421050" lon="-4.0471650">
        <ele>41.4</ele>
        <time>2021-07-17T11:08:23Z</time>
      </trkpt>
      <trkpt lat="43.4420770" lon="-4.0471370">
        <ele>41.4</ele>
        <time>2021-07-17T11:08:25Z</time>
      </trkpt>
      <trkpt lat="43.4420640" lon="-4.0471290">
        <ele>41.4</ele>
        <time>2021-07-17T11:08:26Z</time>
      </trkpt>
      <trkpt lat="43.4420120" lon="-4.0470930">
        <ele>41.4</ele>
        <time>2021-07-17T11:08:29Z</time>
      </trkpt>
      <trkpt lat="43.4419550" lon="-4.0470460">
        <ele>41.4</ele>
        <time>2021-07-17T11:08:32Z</time>
      </trkpt>
      <trkpt lat="43.4419410" lon="-4.0470400">
        <ele>41.4</ele>
        <time>2021-07-17T11:08:33Z</time>
      </trkpt>
      <trkpt lat="43.4419290" lon="-4.0470430">
        <ele>41.4</ele>
        <time>2021-07-17T11:08:35Z</time>
      </trkpt>
      <trkpt lat="43.4418650" lon="-4.0469980">
        <ele>41.4</ele>
        <time>2021-07-17T11:08:51Z</time>
      </trkpt>
      <trkpt lat="43.4417890" lon="-4.0469330">
        <ele>41.4</ele>
        <time>2021-07-17T11:08:56Z</time>
      </trkpt>
      <trkpt lat="43.4417670" lon="-4.0468850">
        <ele>41.4</ele>
        <time>2021-07-17T11:08:58Z</time>
      </trkpt>
      <trkpt lat="43.4417200" lon="-4.0467740">
        <ele>41.4</ele>
        <time>2021-07-17T11:09:02Z</time>
      </trkpt>
      <trkpt lat="43.4416440" lon="-4.0465820">
        <ele>41.4</ele>
        <time>2021-07-17T11:09:09Z</time>
      </trkpt>
      <trkpt lat="43.4415580" lon="-4.0463450">
        <ele>41.4</ele>
        <time>2021-07-17T11:09:15Z</time>
      </trkpt>
      <trkpt lat="43.4415420" lon="-4.0462910">
        <ele>41.0</ele>
        <time>2021-07-17T11:09:16Z</time>
      </trkpt>
      <trkpt lat="43.4415240" lon="-4.0462420">
        <ele>40.6</ele>
        <time>2021-07-17T11:09:17Z</time>
      </trkpt>
      <trkpt lat="43.4415060" lon="-4.0462000">
        <ele>40.2</ele>
        <time>2021-07-17T11:09:18Z</time>
      </trkpt>
      <trkpt lat="43.4414900" lon="-4.0461620">
        <ele>39.6</ele>
        <time>2021-07-17T11:09:19Z</time>
      </trkpt>
      <trkpt lat="43.4414730" lon="-4.0461230">
        <ele>39.2</ele>
        <time>2021-07-17T11:09:20Z</time>
      </trkpt>
      <trkpt lat="43.4414570" lon="-4.0460850">
        <ele>38.6</ele>
        <time>2021-07-17T11:09:21Z</time>
      </trkpt>
      <trkpt lat="43.4414410" lon="-4.0460430">
        <ele>38.2</ele>
        <time>2021-07-17T11:09:22Z</time>
      </trkpt>
      <trkpt lat="43.4414230" lon="-4.0460050">
        <ele>37.6</ele>
        <time>2021-07-17T11:09:23Z</time>
      </trkpt>
      <trkpt lat="43.4414100" lon="-4.0459640">
        <ele>37.0</ele>
        <time>2021-07-17T11:09:24Z</time>
      </trkpt>
      <trkpt lat="43.4413800" lon="-4.0458720">
        <ele>37.0</ele>
        <time>2021-07-17T11:09:26Z</time>
      </trkpt>
      <trkpt lat="43.4413680" lon="-4.0458250">
        <ele>37.0</ele>
        <time>2021-07-17T11:09:27Z</time>
      </trkpt>
      <trkpt lat="43.4412960" lon="-4.0456440">
        <ele>37.0</ele>
        <time>2021-07-17T11:09:32Z</time>
      </trkpt>
      <trkpt lat="43.4412310" lon="-4.0454730">
        <ele>37.0</ele>
        <time>2021-07-17T11:09:37Z</time>
      </trkpt>
      <trkpt lat="43.4412040" lon="-4.0453960">
        <ele>36.6</ele>
        <time>2021-07-17T11:09:39Z</time>
      </trkpt>
      <trkpt lat="43.4411950" lon="-4.0453580">
        <ele>36.2</ele>
        <time>2021-07-17T11:09:40Z</time>
      </trkpt>
      <trkpt lat="43.4411850" lon="-4.0453250">
        <ele>35.8</ele>
        <time>2021-07-17T11:09:41Z</time>
      </trkpt>
      <trkpt lat="43.4411720" lon="-4.0452920">
        <ele>35.4</ele>
        <time>2021-07-17T11:09:42Z</time>
      </trkpt>
      <trkpt lat="43.4411620" lon="-4.0452600">
        <ele>34.8</ele>
        <time>2021-07-17T11:09:43Z</time>
      </trkpt>
      <trkpt lat="43.4411420" lon="-4.0451540">
        <ele>34.8</ele>
        <time>2021-07-17T11:09:46Z</time>
      </trkpt>
      <trkpt lat="43.4412080" lon="-4.0450450">
        <ele>34.8</ele>
        <time>2021-07-17T11:09:50Z</time>
      </trkpt>
      <trkpt lat="43.4412290" lon="-4.0449180">
        <ele>34.8</ele>
        <time>2021-07-17T11:09:54Z</time>
      </trkpt>
      <trkpt lat="43.4412480" lon="-4.0447960">
        <ele>34.8</ele>
        <time>2021-07-17T11:09:58Z</time>
      </trkpt>
      <trkpt lat="43.4412710" lon="-4.0447690">
        <ele>34.8</ele>
        <time>2021-07-17T11:09:59Z</time>
      </trkpt>
      <trkpt lat="43.4413010" lon="-4.0447020">
        <ele>34.8</ele>
        <time>2021-07-17T11:10:01Z</time>
      </trkpt>
      <trkpt lat="43.4412970" lon="-4.0446640">
        <ele>34.8</ele>
        <time>2021-07-17T11:10:02Z</time>
      </trkpt>
      <trkpt lat="43.4412250" lon="-4.0444880">
        <ele>34.8</ele>
        <time>2021-07-17T11:10:06Z</time>
      </trkpt>
      <trkpt lat="43.4411940" lon="-4.0443920">
        <ele>34.8</ele>
        <time>2021-07-17T11:10:08Z</time>
      </trkpt>
      <trkpt lat="43.4411650" lon="-4.0443040">
        <ele>34.8</ele>
        <time>2021-07-17T11:10:10Z</time>
      </trkpt>
      <trkpt lat="43.4411190" lon="-4.0441810">
        <ele>34.8</ele>
        <time>2021-07-17T11:10:13Z</time>
      </trkpt>
      <trkpt lat="43.4410930" lon="-4.0441000">
        <ele>34.8</ele>
        <time>2021-07-17T11:10:15Z</time>
      </trkpt>
      <trkpt lat="43.4410690" lon="-4.0440320">
        <ele>35.4</ele>
        <time>2021-07-17T11:10:17Z</time>
      </trkpt>
      <trkpt lat="43.4410580" lon="-4.0440050">
        <ele>35.8</ele>
        <time>2021-07-17T11:10:18Z</time>
      </trkpt>
      <trkpt lat="43.4410450" lon="-4.0439820">
        <ele>36.2</ele>
        <time>2021-07-17T11:10:19Z</time>
      </trkpt>
      <trkpt lat="43.4410270" lon="-4.0439690">
        <ele>36.8</ele>
        <time>2021-07-17T11:10:20Z</time>
      </trkpt>
      <trkpt lat="43.4410070" lon="-4.0439740">
        <ele>37.2</ele>
        <time>2021-07-17T11:10:21Z</time>
      </trkpt>
      <trkpt lat="43.4409490" lon="-4.0439960">
        <ele>37.2</ele>
        <time>2021-07-17T11:10:23Z</time>
      </trkpt>
      <trkpt lat="43.4407750" lon="-4.0441150">
        <ele>37.2</ele>
        <time>2021-07-17T11:10:30Z</time>
      </trkpt>
      <trkpt lat="43.4406690" lon="-4.0442080">
        <ele>37.2</ele>
        <time>2021-07-17T11:10:37Z</time>
      </trkpt>
      <trkpt lat="43.4405820" lon="-4.0442880">
        <ele>37.2</ele>
        <time>2021-07-17T11:10:43Z</time>
      </trkpt>
      <trkpt lat="43.4405060" lon="-4.0443450">
        <ele>37.8</ele>
        <time>2021-07-17T11:10:46Z</time>
      </trkpt>
      <trkpt lat="43.4404790" lon="-4.0443620">
        <ele>38.2</ele>
        <time>2021-07-17T11:10:47Z</time>
      </trkpt>
      <trkpt lat="43.4404500" lon="-4.0443770">
        <ele>38.6</ele>
        <time>2021-07-17T11:10:48Z</time>
      </trkpt>
      <trkpt lat="43.4404190" lon="-4.0443960">
        <ele>39.0</ele>
        <time>2021-07-17T11:10:49Z</time>
      </trkpt>
      <trkpt lat="43.4403860" lon="-4.0444160">
        <ele>39.4</ele>
        <time>2021-07-17T11:10:50Z</time>
      </trkpt>
      <trkpt lat="43.4401960" lon="-4.0445460">
        <ele>39.4</ele>
        <time>2021-07-17T11:10:56Z</time>
      </trkpt>
      <trkpt lat="43.4399230" lon="-4.0447390">
        <ele>39.4</ele>
        <time>2021-07-17T11:11:06Z</time>
      </trkpt>
      <trkpt lat="43.4398290" lon="-4.0448000">
        <ele>40.0</ele>
        <time>2021-07-17T11:11:09Z</time>
      </trkpt>
      <trkpt lat="43.4397960" lon="-4.0448180">
        <ele>40.4</ele>
        <time>2021-07-17T11:11:10Z</time>
      </trkpt>
      <trkpt lat="43.4397620" lon="-4.0448390">
        <ele>40.8</ele>
        <time>2021-07-17T11:11:11Z</time>
      </trkpt>
      <trkpt lat="43.4397280" lon="-4.0448610">
        <ele>41.2</ele>
        <time>2021-07-17T11:11:12Z</time>
      </trkpt>
      <trkpt lat="43.4396960" lon="-4.0448830">
        <ele>41.6</ele>
        <time>2021-07-17T11:11:13Z</time>
      </trkpt>
      <trkpt lat="43.4396640" lon="-4.0449040">
        <ele>41.6</ele>
        <time>2021-07-17T11:11:14Z</time>
      </trkpt>
      <trkpt lat="43.4395960" lon="-4.0449460">
        <ele>42.0</ele>
        <time>2021-07-17T11:11:16Z</time>
      </trkpt>
      <trkpt lat="43.4395650" lon="-4.0449580">
        <ele>42.4</ele>
        <time>2021-07-17T11:11:17Z</time>
      </trkpt>
      <trkpt lat="43.4395320" lon="-4.0449730">
        <ele>42.8</ele>
        <time>2021-07-17T11:11:18Z</time>
      </trkpt>
      <trkpt lat="43.4394980" lon="-4.0449840">
        <ele>43.2</ele>
        <time>2021-07-17T11:11:19Z</time>
      </trkpt>
      <trkpt lat="43.4394580" lon="-4.0449950">
        <ele>43.6</ele>
        <time>2021-07-17T11:11:20Z</time>
      </trkpt>
      <trkpt lat="43.4391920" lon="-4.0450900">
        <ele>43.6</ele>
        <time>2021-07-17T11:11:28Z</time>
      </trkpt>
      <trkpt lat="43.4391270" lon="-4.0451140">
        <ele>43.6</ele>
        <time>2021-07-17T11:11:30Z</time>
      </trkpt>
      <trkpt lat="43.4389220" lon="-4.0451850">
        <ele>43.6</ele>
        <time>2021-07-17T11:11:36Z</time>
      </trkpt>
      <trkpt lat="43.4387320" lon="-4.0452600">
        <ele>43.6</ele>
        <time>2021-07-17T11:11:41Z</time>
      </trkpt>
      <trkpt lat="43.4386500" lon="-4.0452860">
        <ele>43.6</ele>
        <time>2021-07-17T11:11:43Z</time>
      </trkpt>
      <trkpt lat="43.4384510" lon="-4.0453870">
        <ele>43.6</ele>
        <time>2021-07-17T11:11:48Z</time>
      </trkpt>
      <trkpt lat="43.4383740" lon="-4.0454450">
        <ele>43.6</ele>
        <time>2021-07-17T11:11:50Z</time>
      </trkpt>
      <trkpt lat="43.4382100" lon="-4.0455650">
        <ele>43.6</ele>
        <time>2021-07-17T11:11:54Z</time>
      </trkpt>
      <trkpt lat="43.4381260" lon="-4.0456210">
        <ele>43.6</ele>
        <time>2021-07-17T11:11:56Z</time>
      </trkpt>
      <trkpt lat="43.4380860" lon="-4.0456490">
        <ele>43.6</ele>
        <time>2021-07-17T11:11:57Z</time>
      </trkpt>
      <trkpt lat="43.4380460" lon="-4.0456750">
        <ele>43.2</ele>
        <time>2021-07-17T11:11:58Z</time>
      </trkpt>
      <trkpt lat="43.4380080" lon="-4.0457040">
        <ele>42.8</ele>
        <time>2021-07-17T11:11:59Z</time>
      </trkpt>
      <trkpt lat="43.4379730" lon="-4.0457320">
        <ele>42.4</ele>
        <time>2021-07-17T11:12:00Z</time>
      </trkpt>
      <trkpt lat="43.4379380" lon="-4.0457530">
        <ele>42.0</ele>
        <time>2021-07-17T11:12:01Z</time>
      </trkpt>
      <trkpt lat="43.4379000" lon="-4.0457670">
        <ele>41.6</ele>
        <time>2021-07-17T11:12:02Z</time>
      </trkpt>
      <trkpt lat="43.4378620" lon="-4.0457790">
        <ele>41.6</ele>
        <time>2021-07-17T11:12:03Z</time>
      </trkpt>
      <trkpt lat="43.4377810" lon="-4.0457980">
        <ele>41.6</ele>
        <time>2021-07-17T11:12:05Z</time>
      </trkpt>
      <trkpt lat="43.4377000" lon="-4.0458190">
        <ele>41.6</ele>
        <time>2021-07-17T11:12:07Z</time>
      </trkpt>
      <trkpt lat="43.4375070" lon="-4.0458630">
        <ele>41.6</ele>
        <time>2021-07-17T11:12:12Z</time>
      </trkpt>
      <trkpt lat="43.4374680" lon="-4.0458690">
        <ele>42.0</ele>
        <time>2021-07-17T11:12:13Z</time>
      </trkpt>
      <trkpt lat="43.4374300" lon="-4.0458720">
        <ele>42.4</ele>
        <time>2021-07-17T11:12:14Z</time>
      </trkpt>
      <trkpt lat="43.4373940" lon="-4.0458780">
        <ele>42.8</ele>
        <time>2021-07-17T11:12:15Z</time>
      </trkpt>
      <trkpt lat="43.4373590" lon="-4.0458930">
        <ele>43.2</ele>
        <time>2021-07-17T11:12:16Z</time>
      </trkpt>
      <trkpt lat="43.4373220" lon="-4.0459080">
        <ele>43.6</ele>
        <time>2021-07-17T11:12:17Z</time>
      </trkpt>
      <trkpt lat="43.4372470" lon="-4.0459270">
        <ele>43.6</ele>
        <time>2021-07-17T11:12:19Z</time>
      </trkpt>
      <trkpt lat="43.4369800" lon="-4.0459450">
        <ele>43.6</ele>
        <time>2021-07-17T11:12:27Z</time>
      </trkpt>
      <trkpt lat="43.4367120" lon="-4.0459130">
        <ele>43.6</ele>
        <time>2021-07-17T11:12:34Z</time>
      </trkpt>
      <trkpt lat="43.4364140" lon="-4.0459400">
        <ele>43.6</ele>
        <time>2021-07-17T11:12:40Z</time>
      </trkpt>
      <trkpt lat="43.4363160" lon="-4.0459450">
        <ele>43.6</ele>
        <time>2021-07-17T11:12:42Z</time>
      </trkpt>
      <trkpt lat="43.4362150" lon="-4.0459650">
        <ele>43.6</ele>
        <time>2021-07-17T11:12:44Z</time>
      </trkpt>
      <trkpt lat="43.4361190" lon="-4.0460200">
        <ele>43.6</ele>
        <time>2021-07-17T11:12:46Z</time>
      </trkpt>
      <trkpt lat="43.4360730" lon="-4.0460580">
        <ele>43.2</ele>
        <time>2021-07-17T11:12:47Z</time>
      </trkpt>
      <trkpt lat="43.4360300" lon="-4.0460990">
        <ele>42.8</ele>
        <time>2021-07-17T11:12:48Z</time>
      </trkpt>
      <trkpt lat="43.4359900" lon="-4.0461390">
        <ele>42.4</ele>
        <time>2021-07-17T11:12:49Z</time>
      </trkpt>
      <trkpt lat="43.4359490" lon="-4.0461750">
        <ele>42.0</ele>
        <time>2021-07-17T11:12:50Z</time>
      </trkpt>
      <trkpt lat="43.4359080" lon="-4.0462110">
        <ele>41.4</ele>
        <time>2021-07-17T11:12:51Z</time>
      </trkpt>
      <trkpt lat="43.4358690" lon="-4.0462410">
        <ele>41.0</ele>
        <time>2021-07-17T11:12:52Z</time>
      </trkpt>
      <trkpt lat="43.4358280" lon="-4.0462560">
        <ele>40.4</ele>
        <time>2021-07-17T11:12:53Z</time>
      </trkpt>
      <trkpt lat="43.4357850" lon="-4.0462510">
        <ele>39.8</ele>
        <time>2021-07-17T11:12:54Z</time>
      </trkpt>
      <trkpt lat="43.4357460" lon="-4.0462340">
        <ele>39.2</ele>
        <time>2021-07-17T11:12:55Z</time>
      </trkpt>
      <trkpt lat="43.4355800" lon="-4.0460400">
        <ele>39.2</ele>
        <time>2021-07-17T11:12:59Z</time>
      </trkpt>
      <trkpt lat="43.4355040" lon="-4.0459000">
        <ele>39.2</ele>
        <time>2021-07-17T11:13:01Z</time>
      </trkpt>
      <trkpt lat="43.4354130" lon="-4.0457930">
        <ele>38.8</ele>
        <time>2021-07-17T11:13:03Z</time>
      </trkpt>
      <trkpt lat="43.4353510" lon="-4.0457600">
        <ele>38.2</ele>
        <time>2021-07-17T11:13:04Z</time>
      </trkpt>
      <trkpt lat="43.4352840" lon="-4.0457430">
        <ele>37.8</ele>
        <time>2021-07-17T11:13:05Z</time>
      </trkpt>
      <trkpt lat="43.4352170" lon="-4.0457330">
        <ele>37.2</ele>
        <time>2021-07-17T11:13:06Z</time>
      </trkpt>
      <trkpt lat="43.4351430" lon="-4.0457290">
        <ele>36.6</ele>
        <time>2021-07-17T11:13:07Z</time>
      </trkpt>
      <trkpt lat="43.4350730" lon="-4.0457350">
        <ele>36.0</ele>
        <time>2021-07-17T11:13:08Z</time>
      </trkpt>
      <trkpt lat="43.4350110" lon="-4.0457520">
        <ele>35.4</ele>
        <time>2021-07-17T11:13:09Z</time>
      </trkpt>
      <trkpt lat="43.4349500" lon="-4.0457760">
        <ele>34.8</ele>
        <time>2021-07-17T11:13:10Z</time>
      </trkpt>
      <trkpt lat="43.4348500" lon="-4.0458300">
        <ele>34.4</ele>
        <time>2021-07-17T11:13:12Z</time>
      </trkpt>
      <trkpt lat="43.4348090" lon="-4.0458610">
        <ele>34.0</ele>
        <time>2021-07-17T11:13:13Z</time>
      </trkpt>
      <trkpt lat="43.4347720" lon="-4.0459010">
        <ele>33.6</ele>
        <time>2021-07-17T11:13:14Z</time>
      </trkpt>
      <trkpt lat="43.4347440" lon="-4.0459580">
        <ele>33.2</ele>
        <time>2021-07-17T11:13:15Z</time>
      </trkpt>
      <trkpt lat="43.4347250" lon="-4.0460140">
        <ele>32.6</ele>
        <time>2021-07-17T11:13:16Z</time>
      </trkpt>
      <trkpt lat="43.4346990" lon="-4.0462080">
        <ele>32.6</ele>
        <time>2021-07-17T11:13:20Z</time>
      </trkpt>
      <trkpt lat="43.4347020" lon="-4.0463810">
        <ele>32.6</ele>
        <time>2021-07-17T11:13:24Z</time>
      </trkpt>
      <trkpt lat="43.4347060" lon="-4.0464220">
        <ele>32.6</ele>
        <time>2021-07-17T11:13:25Z</time>
      </trkpt>
      <trkpt lat="43.4347110" lon="-4.0465040">
        <ele>32.6</ele>
        <time>2021-07-17T11:13:27Z</time>
      </trkpt>
      <trkpt lat="43.4347130" lon="-4.0465460">
        <ele>32.6</ele>
        <time>2021-07-17T11:13:28Z</time>
      </trkpt>
      <trkpt lat="43.4347160" lon="-4.0465900">
        <ele>32.6</ele>
        <time>2021-07-17T11:13:29Z</time>
      </trkpt>
      <trkpt lat="43.4347240" lon="-4.0466310">
        <ele>32.6</ele>
        <time>2021-07-17T11:13:30Z</time>
      </trkpt>
      <trkpt lat="43.4347320" lon="-4.0466670">
        <ele>32.6</ele>
        <time>2021-07-17T11:13:31Z</time>
      </trkpt>
      <trkpt lat="43.4347330" lon="-4.0467050">
        <ele>32.6</ele>
        <time>2021-07-17T11:13:32Z</time>
      </trkpt>
      <trkpt lat="43.4347370" lon="-4.0467470">
        <ele>32.6</ele>
        <time>2021-07-17T11:13:33Z</time>
      </trkpt>
      <trkpt lat="43.4347340" lon="-4.0468180">
        <ele>32.6</ele>
        <time>2021-07-17T11:13:35Z</time>
      </trkpt>
      <trkpt lat="43.4347260" lon="-4.0468970">
        <ele>32.6</ele>
        <time>2021-07-17T11:13:37Z</time>
      </trkpt>
      <trkpt lat="43.4347230" lon="-4.0469390">
        <ele>32.6</ele>
        <time>2021-07-17T11:13:38Z</time>
      </trkpt>
      <trkpt lat="43.4347190" lon="-4.0469820">
        <ele>33.2</ele>
        <time>2021-07-17T11:13:39Z</time>
      </trkpt>
      <trkpt lat="43.4347150" lon="-4.0470210">
        <ele>33.6</ele>
        <time>2021-07-17T11:13:40Z</time>
      </trkpt>
      <trkpt lat="43.4347100" lon="-4.0470630">
        <ele>34.0</ele>
        <time>2021-07-17T11:13:41Z</time>
      </trkpt>
      <trkpt lat="43.4347030" lon="-4.0470980">
        <ele>34.4</ele>
        <time>2021-07-17T11:13:42Z</time>
      </trkpt>
      <trkpt lat="43.4347000" lon="-4.0471380">
        <ele>34.8</ele>
        <time>2021-07-17T11:13:43Z</time>
      </trkpt>
      <trkpt lat="43.4346870" lon="-4.0472130">
        <ele>34.8</ele>
        <time>2021-07-17T11:13:45Z</time>
      </trkpt>
      <trkpt lat="43.4346560" lon="-4.0473900">
        <ele>35.2</ele>
        <time>2021-07-17T11:13:50Z</time>
      </trkpt>
      <trkpt lat="43.4346520" lon="-4.0474280">
        <ele>35.6</ele>
        <time>2021-07-17T11:13:51Z</time>
      </trkpt>
      <trkpt lat="43.4346480" lon="-4.0474680">
        <ele>36.0</ele>
        <time>2021-07-17T11:13:52Z</time>
      </trkpt>
      <trkpt lat="43.4346400" lon="-4.0475070">
        <ele>36.4</ele>
        <time>2021-07-17T11:13:53Z</time>
      </trkpt>
      <trkpt lat="43.4346310" lon="-4.0475450">
        <ele>36.8</ele>
        <time>2021-07-17T11:13:54Z</time>
      </trkpt>
      <trkpt lat="43.4346070" lon="-4.0476560">
        <ele>36.8</ele>
        <time>2021-07-17T11:13:57Z</time>
      </trkpt>
      <trkpt lat="43.4345720" lon="-4.0478820">
        <ele>36.8</ele>
        <time>2021-07-17T11:14:03Z</time>
      </trkpt>
      <trkpt lat="43.4345680" lon="-4.0479150">
        <ele>37.2</ele>
        <time>2021-07-17T11:14:04Z</time>
      </trkpt>
      <trkpt lat="43.4345660" lon="-4.0479510">
        <ele>37.8</ele>
        <time>2021-07-17T11:14:05Z</time>
      </trkpt>
      <trkpt lat="43.4345630" lon="-4.0479940">
        <ele>38.2</ele>
        <time>2021-07-17T11:14:06Z</time>
      </trkpt>
      <trkpt lat="43.4345620" lon="-4.0480340">
        <ele>38.6</ele>
        <time>2021-07-17T11:14:07Z</time>
      </trkpt>
      <trkpt lat="43.4345620" lon="-4.0480700">
        <ele>39.0</ele>
        <time>2021-07-17T11:14:08Z</time>
      </trkpt>
      <trkpt lat="43.4345650" lon="-4.0481110">
        <ele>39.0</ele>
        <time>2021-07-17T11:14:09Z</time>
      </trkpt>
      <trkpt lat="43.4345660" lon="-4.0482730">
        <ele>39.0</ele>
        <time>2021-07-17T11:14:13Z</time>
      </trkpt>
      <trkpt lat="43.4345650" lon="-4.0483940">
        <ele>39.0</ele>
        <time>2021-07-17T11:14:16Z</time>
      </trkpt>
      <trkpt lat="43.4345640" lon="-4.0484710">
        <ele>39.4</ele>
        <time>2021-07-17T11:14:18Z</time>
      </trkpt>
      <trkpt lat="43.4345610" lon="-4.0485090">
        <ele>40.0</ele>
        <time>2021-07-17T11:14:19Z</time>
      </trkpt>
      <trkpt lat="43.4345620" lon="-4.0485460">
        <ele>40.4</ele>
        <time>2021-07-17T11:14:20Z</time>
      </trkpt>
      <trkpt lat="43.4345640" lon="-4.0485810">
        <ele>40.8</ele>
        <time>2021-07-17T11:14:21Z</time>
      </trkpt>
      <trkpt lat="43.4345640" lon="-4.0486170">
        <ele>41.4</ele>
        <time>2021-07-17T11:14:22Z</time>
      </trkpt>
      <trkpt lat="43.4345580" lon="-4.0487340">
        <ele>41.4</ele>
        <time>2021-07-17T11:14:25Z</time>
      </trkpt>
      <trkpt lat="43.4345600" lon="-4.0489260">
        <ele>41.8</ele>
        <time>2021-07-17T11:14:30Z</time>
      </trkpt>
      <trkpt lat="43.4345610" lon="-4.0489620">
        <ele>42.2</ele>
        <time>2021-07-17T11:14:31Z</time>
      </trkpt>
      <trkpt lat="43.4345590" lon="-4.0489970">
        <ele>42.6</ele>
        <time>2021-07-17T11:14:32Z</time>
      </trkpt>
      <trkpt lat="43.4345570" lon="-4.0490320">
        <ele>43.0</ele>
        <time>2021-07-17T11:14:33Z</time>
      </trkpt>
      <trkpt lat="43.4345560" lon="-4.0490680">
        <ele>43.4</ele>
        <time>2021-07-17T11:14:34Z</time>
      </trkpt>
      <trkpt lat="43.4345340" lon="-4.0494580">
        <ele>43.8</ele>
        <time>2021-07-17T11:14:44Z</time>
      </trkpt>
      <trkpt lat="43.4345350" lon="-4.0494970">
        <ele>44.2</ele>
        <time>2021-07-17T11:14:45Z</time>
      </trkpt>
      <trkpt lat="43.4345350" lon="-4.0495360">
        <ele>44.6</ele>
        <time>2021-07-17T11:14:46Z</time>
      </trkpt>
      <trkpt lat="43.4345320" lon="-4.0495730">
        <ele>45.0</ele>
        <time>2021-07-17T11:14:47Z</time>
      </trkpt>
      <trkpt lat="43.4345290" lon="-4.0496110">
        <ele>45.4</ele>
        <time>2021-07-17T11:14:48Z</time>
      </trkpt>
      <trkpt lat="43.4345230" lon="-4.0497980">
        <ele>45.4</ele>
        <time>2021-07-17T11:14:53Z</time>
      </trkpt>
      <trkpt lat="43.4345170" lon="-4.0501330">
        <ele>45.4</ele>
        <time>2021-07-17T11:15:02Z</time>
      </trkpt>
      <trkpt lat="43.4345270" lon="-4.0503260">
        <ele>45.8</ele>
        <time>2021-07-17T11:15:07Z</time>
      </trkpt>
      <trkpt lat="43.4345280" lon="-4.0503580">
        <ele>46.4</ele>
        <time>2021-07-17T11:15:08Z</time>
      </trkpt>
      <trkpt lat="43.4345300" lon="-4.0503940">
        <ele>46.8</ele>
        <time>2021-07-17T11:15:09Z</time>
      </trkpt>
      <trkpt lat="43.4345320" lon="-4.0504260">
        <ele>47.2</ele>
        <time>2021-07-17T11:15:10Z</time>
      </trkpt>
      <trkpt lat="43.4345310" lon="-4.0504620">
        <ele>47.6</ele>
        <time>2021-07-17T11:15:11Z</time>
      </trkpt>
      <trkpt lat="43.4345530" lon="-4.0506900">
        <ele>47.6</ele>
        <time>2021-07-17T11:15:17Z</time>
      </trkpt>
      <trkpt lat="43.4345340" lon="-4.0510060">
        <ele>47.6</ele>
        <time>2021-07-17T11:15:25Z</time>
      </trkpt>
      <trkpt lat="43.4344470" lon="-4.0512730">
        <ele>47.6</ele>
        <time>2021-07-17T11:15:31Z</time>
      </trkpt>
      <trkpt lat="43.4344250" lon="-4.0513240">
        <ele>47.6</ele>
        <time>2021-07-17T11:15:32Z</time>
      </trkpt>
      <trkpt lat="43.4343570" lon="-4.0514850">
        <ele>47.6</ele>
        <time>2021-07-17T11:15:35Z</time>
      </trkpt>
      <trkpt lat="43.4343160" lon="-4.0515940">
        <ele>47.6</ele>
        <time>2021-07-17T11:15:37Z</time>
      </trkpt>
      <trkpt lat="43.4342390" lon="-4.0517770">
        <ele>47.6</ele>
        <time>2021-07-17T11:15:40Z</time>
      </trkpt>
      <trkpt lat="43.4341530" lon="-4.0519900">
        <ele>47.6</ele>
        <time>2021-07-17T11:15:43Z</time>
      </trkpt>
      <trkpt lat="43.4341250" lon="-4.0520670">
        <ele>47.6</ele>
        <time>2021-07-17T11:15:44Z</time>
      </trkpt>
      <trkpt lat="43.4340640" lon="-4.0522230">
        <ele>47.6</ele>
        <time>2021-07-17T11:15:46Z</time>
      </trkpt>
      <trkpt lat="43.4339800" lon="-4.0524260">
        <ele>47.2</ele>
        <time>2021-07-17T11:15:49Z</time>
      </trkpt>
      <trkpt lat="43.4339520" lon="-4.0524970">
        <ele>46.8</ele>
        <time>2021-07-17T11:15:50Z</time>
      </trkpt>
      <trkpt lat="43.4339240" lon="-4.0525690">
        <ele>46.0</ele>
        <time>2021-07-17T11:15:51Z</time>
      </trkpt>
      <trkpt lat="43.4338950" lon="-4.0526410">
        <ele>45.6</ele>
        <time>2021-07-17T11:15:52Z</time>
      </trkpt>
      <trkpt lat="43.4338680" lon="-4.0527170">
        <ele>45.6</ele>
        <time>2021-07-17T11:15:53Z</time>
      </trkpt>
      <trkpt lat="43.4338130" lon="-4.0528660">
        <ele>45.6</ele>
        <time>2021-07-17T11:15:55Z</time>
      </trkpt>
      <trkpt lat="43.4337830" lon="-4.0529290">
        <ele>45.6</ele>
        <time>2021-07-17T11:15:56Z</time>
      </trkpt>
      <trkpt lat="43.4337120" lon="-4.0530510">
        <ele>45.6</ele>
        <time>2021-07-17T11:15:58Z</time>
      </trkpt>
      <trkpt lat="43.4336300" lon="-4.0531500">
        <ele>45.2</ele>
        <time>2021-07-17T11:16:00Z</time>
      </trkpt>
      <trkpt lat="43.4335890" lon="-4.0531950">
        <ele>44.6</ele>
        <time>2021-07-17T11:16:01Z</time>
      </trkpt>
      <trkpt lat="43.4335500" lon="-4.0532470">
        <ele>44.2</ele>
        <time>2021-07-17T11:16:02Z</time>
      </trkpt>
      <trkpt lat="43.4335180" lon="-4.0533100">
        <ele>43.8</ele>
        <time>2021-07-17T11:16:03Z</time>
      </trkpt>
      <trkpt lat="43.4334870" lon="-4.0533760">
        <ele>43.4</ele>
        <time>2021-07-17T11:16:04Z</time>
      </trkpt>
      <trkpt lat="43.4334360" lon="-4.0535170">
        <ele>43.4</ele>
        <time>2021-07-17T11:16:06Z</time>
      </trkpt>
      <trkpt lat="43.4333970" lon="-4.0536670">
        <ele>43.4</ele>
        <time>2021-07-17T11:16:08Z</time>
      </trkpt>
      <trkpt lat="43.4333780" lon="-4.0537460">
        <ele>43.4</ele>
        <time>2021-07-17T11:16:09Z</time>
      </trkpt>
      <trkpt lat="43.4332930" lon="-4.0540410">
        <ele>43.4</ele>
        <time>2021-07-17T11:16:14Z</time>
      </trkpt>
      <trkpt lat="43.4332640" lon="-4.0541280">
        <ele>43.4</ele>
        <time>2021-07-17T11:16:16Z</time>
      </trkpt>
      <trkpt lat="43.4332500" lon="-4.0541680">
        <ele>43.0</ele>
        <time>2021-07-17T11:16:17Z</time>
      </trkpt>
      <trkpt lat="43.4332410" lon="-4.0541950">
        <ele>42.6</ele>
        <time>2021-07-17T11:16:18Z</time>
      </trkpt>
      <trkpt lat="43.4332350" lon="-4.0542150">
        <ele>42.0</ele>
        <time>2021-07-17T11:16:19Z</time>
      </trkpt>
      <trkpt lat="43.4332260" lon="-4.0542380">
        <ele>41.6</ele>
        <time>2021-07-17T11:16:20Z</time>
      </trkpt>
      <trkpt lat="43.4332140" lon="-4.0542700">
        <ele>41.2</ele>
        <time>2021-07-17T11:16:21Z</time>
      </trkpt>
      <trkpt lat="43.4331980" lon="-4.0544010">
        <ele>41.2</ele>
        <time>2021-07-17T11:16:24Z</time>
      </trkpt>
      <trkpt lat="43.4331930" lon="-4.0544480">
        <ele>41.2</ele>
        <time>2021-07-17T11:16:25Z</time>
      </trkpt>
      <trkpt lat="43.4331880" lon="-4.0544950">
        <ele>41.2</ele>
        <time>2021-07-17T11:16:26Z</time>
      </trkpt>
      <trkpt lat="43.4331920" lon="-4.0546020">
        <ele>41.2</ele>
        <time>2021-07-17T11:16:28Z</time>
      </trkpt>
      <trkpt lat="43.4332050" lon="-4.0547050">
        <ele>41.2</ele>
        <time>2021-07-17T11:16:30Z</time>
      </trkpt>
      <trkpt lat="43.4332250" lon="-4.0547980">
        <ele>41.2</ele>
        <time>2021-07-17T11:16:32Z</time>
      </trkpt>
      <trkpt lat="43.4332440" lon="-4.0549230">
        <ele>41.2</ele>
        <time>2021-07-17T11:16:35Z</time>
      </trkpt>
      <trkpt lat="43.4332470" lon="-4.0550100">
        <ele>41.2</ele>
        <time>2021-07-17T11:16:37Z</time>
      </trkpt>
      <trkpt lat="43.4332470" lon="-4.0550520">
        <ele>41.6</ele>
        <time>2021-07-17T11:16:38Z</time>
      </trkpt>
      <trkpt lat="43.4332490" lon="-4.0550950">
        <ele>42.2</ele>
        <time>2021-07-17T11:16:39Z</time>
      </trkpt>
      <trkpt lat="43.4332490" lon="-4.0551370">
        <ele>43.0</ele>
        <time>2021-07-17T11:16:40Z</time>
      </trkpt>
      <trkpt lat="43.4332520" lon="-4.0551770">
        <ele>43.6</ele>
        <time>2021-07-17T11:16:41Z</time>
      </trkpt>
      <trkpt lat="43.4332490" lon="-4.0553350">
        <ele>43.6</ele>
        <time>2021-07-17T11:16:45Z</time>
      </trkpt>
      <trkpt lat="43.4332460" lon="-4.0553770">
        <ele>43.6</ele>
        <time>2021-07-17T11:16:46Z</time>
      </trkpt>
      <trkpt lat="43.4332210" lon="-4.0555340">
        <ele>43.6</ele>
        <time>2021-07-17T11:16:50Z</time>
      </trkpt>
      <trkpt lat="43.4331940" lon="-4.0556520">
        <ele>44.0</ele>
        <time>2021-07-17T11:16:53Z</time>
      </trkpt>
      <trkpt lat="43.4331840" lon="-4.0556930">
        <ele>44.4</ele>
        <time>2021-07-17T11:16:54Z</time>
      </trkpt>
      <trkpt lat="43.4331740" lon="-4.0557350">
        <ele>44.8</ele>
        <time>2021-07-17T11:16:55Z</time>
      </trkpt>
      <trkpt lat="43.4331660" lon="-4.0557740">
        <ele>45.2</ele>
        <time>2021-07-17T11:16:56Z</time>
      </trkpt>
      <trkpt lat="43.4331590" lon="-4.0558130">
        <ele>45.6</ele>
        <time>2021-07-17T11:16:57Z</time>
      </trkpt>
      <trkpt lat="43.4331310" lon="-4.0559220">
        <ele>45.6</ele>
        <time>2021-07-17T11:17:00Z</time>
      </trkpt>
      <trkpt lat="43.4331090" lon="-4.0559840">
        <ele>45.6</ele>
        <time>2021-07-17T11:17:02Z</time>
      </trkpt>
      <trkpt lat="43.4330720" lon="-4.0560540">
        <ele>46.0</ele>
        <time>2021-07-17T11:17:05Z</time>
      </trkpt>
      <trkpt lat="43.4330570" lon="-4.0560880">
        <ele>46.8</ele>
        <time>2021-07-17T11:17:06Z</time>
      </trkpt>
      <trkpt lat="43.4330410" lon="-4.0561220">
        <ele>47.2</ele>
        <time>2021-07-17T11:17:07Z</time>
      </trkpt>
      <trkpt lat="43.4330210" lon="-4.0561580">
        <ele>47.6</ele>
        <time>2021-07-17T11:17:08Z</time>
      </trkpt>
      <trkpt lat="43.4329070" lon="-4.0564530">
        <ele>47.6</ele>
        <time>2021-07-17T11:17:16Z</time>
      </trkpt>
      <trkpt lat="43.4328880" lon="-4.0564900">
        <ele>48.2</ele>
        <time>2021-07-17T11:17:17Z</time>
      </trkpt>
      <trkpt lat="43.4328680" lon="-4.0565260">
        <ele>48.6</ele>
        <time>2021-07-17T11:17:18Z</time>
      </trkpt>
      <trkpt lat="43.4328480" lon="-4.0565600">
        <ele>49.0</ele>
        <time>2021-07-17T11:17:19Z</time>
      </trkpt>
      <trkpt lat="43.4328340" lon="-4.0565940">
        <ele>49.4</ele>
        <time>2021-07-17T11:17:20Z</time>
      </trkpt>
      <trkpt lat="43.4328200" lon="-4.0566300">
        <ele>50.0</ele>
        <time>2021-07-17T11:17:21Z</time>
      </trkpt>
      <trkpt lat="43.4327530" lon="-4.0567630">
        <ele>50.0</ele>
        <time>2021-07-17T11:17:25Z</time>
      </trkpt>
      <trkpt lat="43.4326040" lon="-4.0570200">
        <ele>50.0</ele>
        <time>2021-07-17T11:17:33Z</time>
      </trkpt>
      <trkpt lat="43.4324760" lon="-4.0572000">
        <ele>50.4</ele>
        <time>2021-07-17T11:17:39Z</time>
      </trkpt>
      <trkpt lat="43.4324540" lon="-4.0572310">
        <ele>50.8</ele>
        <time>2021-07-17T11:17:40Z</time>
      </trkpt>
      <trkpt lat="43.4324320" lon="-4.0572600">
        <ele>51.2</ele>
        <time>2021-07-17T11:17:41Z</time>
      </trkpt>
      <trkpt lat="43.4324120" lon="-4.0572880">
        <ele>51.6</ele>
        <time>2021-07-17T11:17:42Z</time>
      </trkpt>
      <trkpt lat="43.4323910" lon="-4.0573160">
        <ele>52.0</ele>
        <time>2021-07-17T11:17:43Z</time>
      </trkpt>
      <trkpt lat="43.4322520" lon="-4.0575040">
        <ele>52.0</ele>
        <time>2021-07-17T11:17:49Z</time>
      </trkpt>
      <trkpt lat="43.4320460" lon="-4.0577380">
        <ele>52.0</ele>
        <time>2021-07-17T11:17:56Z</time>
      </trkpt>
      <trkpt lat="43.4318830" lon="-4.0578990">
        <ele>52.4</ele>
        <time>2021-07-17T11:18:01Z</time>
      </trkpt>
      <trkpt lat="43.4318530" lon="-4.0579280">
        <ele>52.8</ele>
        <time>2021-07-17T11:18:02Z</time>
      </trkpt>
      <trkpt lat="43.4318230" lon="-4.0579520">
        <ele>53.2</ele>
        <time>2021-07-17T11:18:03Z</time>
      </trkpt>
      <trkpt lat="43.4317930" lon="-4.0579800">
        <ele>53.6</ele>
        <time>2021-07-17T11:18:04Z</time>
      </trkpt>
      <trkpt lat="43.4317630" lon="-4.0580050">
        <ele>54.0</ele>
        <time>2021-07-17T11:18:05Z</time>
      </trkpt>
      <trkpt lat="43.4315310" lon="-4.0581620">
        <ele>54.0</ele>
        <time>2021-07-17T11:18:12Z</time>
      </trkpt>
      <trkpt lat="43.4312960" lon="-4.0583100">
        <ele>54.0</ele>
        <time>2021-07-17T11:18:19Z</time>
      </trkpt>
      <trkpt lat="43.4312620" lon="-4.0583310">
        <ele>54.0</ele>
        <time>2021-07-17T11:18:20Z</time>
      </trkpt>
      <trkpt lat="43.4310600" lon="-4.0584730">
        <ele>54.0</ele>
        <time>2021-07-17T11:18:26Z</time>
      </trkpt>
      <trkpt lat="43.4310050" lon="-4.0585380">
        <ele>54.4</ele>
        <time>2021-07-17T11:18:28Z</time>
      </trkpt>
      <trkpt lat="43.4309790" lon="-4.0585780">
        <ele>54.8</ele>
        <time>2021-07-17T11:18:29Z</time>
      </trkpt>
      <trkpt lat="43.4309520" lon="-4.0586180">
        <ele>55.2</ele>
        <time>2021-07-17T11:18:30Z</time>
      </trkpt>
      <trkpt lat="43.4309290" lon="-4.0586640">
        <ele>55.6</ele>
        <time>2021-07-17T11:18:31Z</time>
      </trkpt>
      <trkpt lat="43.4309090" lon="-4.0587100">
        <ele>56.0</ele>
        <time>2021-07-17T11:18:32Z</time>
      </trkpt>
      <trkpt lat="43.4308720" lon="-4.0588120">
        <ele>56.0</ele>
        <time>2021-07-17T11:18:34Z</time>
      </trkpt>
      <trkpt lat="43.4307260" lon="-4.0591390">
        <ele>56.0</ele>
        <time>2021-07-17T11:18:41Z</time>
      </trkpt>
      <trkpt lat="43.4306020" lon="-4.0593480">
        <ele>56.0</ele>
        <time>2021-07-17T11:18:46Z</time>
      </trkpt>
      <trkpt lat="43.4305610" lon="-4.0594170">
        <ele>56.0</ele>
        <time>2021-07-17T11:18:48Z</time>
      </trkpt>
      <trkpt lat="43.4305380" lon="-4.0594460">
        <ele>56.0</ele>
        <time>2021-07-17T11:18:51Z</time>
      </trkpt>
      <trkpt lat="43.4305110" lon="-4.0594710">
        <ele>56.0</ele>
        <time>2021-07-17T11:19:00Z</time>
      </trkpt>
      <trkpt lat="43.4304420" lon="-4.0595370">
        <ele>56.0</ele>
        <time>2021-07-17T11:19:03Z</time>
      </trkpt>
      <trkpt lat="43.4303820" lon="-4.0595880">
        <ele>56.0</ele>
        <time>2021-07-17T11:19:05Z</time>
      </trkpt>
      <trkpt lat="43.4302080" lon="-4.0597310">
        <ele>56.0</ele>
        <time>2021-07-17T11:19:10Z</time>
      </trkpt>
      <trkpt lat="43.4300940" lon="-4.0598220">
        <ele>56.0</ele>
        <time>2021-07-17T11:19:13Z</time>
      </trkpt>
      <trkpt lat="43.4300150" lon="-4.0598920">
        <ele>56.0</ele>
        <time>2021-07-17T11:19:15Z</time>
      </trkpt>
      <trkpt lat="43.4299250" lon="-4.0600460">
        <ele>56.0</ele>
        <time>2021-07-17T11:19:18Z</time>
      </trkpt>
      <trkpt lat="43.4298940" lon="-4.0601800">
        <ele>56.0</ele>
        <time>2021-07-17T11:19:20Z</time>
      </trkpt>
      <trkpt lat="43.4298900" lon="-4.0603240">
        <ele>56.0</ele>
        <time>2021-07-17T11:19:22Z</time>
      </trkpt>
      <trkpt lat="43.4299010" lon="-4.0604670">
        <ele>56.0</ele>
        <time>2021-07-17T11:19:24Z</time>
      </trkpt>
      <trkpt lat="43.4299230" lon="-4.0607630">
        <ele>56.0</ele>
        <time>2021-07-17T11:19:28Z</time>
      </trkpt>
      <trkpt lat="43.4299680" lon="-4.0612920">
        <ele>56.0</ele>
        <time>2021-07-17T11:19:35Z</time>
      </trkpt>
      <trkpt lat="43.4299800" lon="-4.0614340">
        <ele>56.0</ele>
        <time>2021-07-17T11:19:37Z</time>
      </trkpt>
      <trkpt lat="43.4299940" lon="-4.0615830">
        <ele>56.0</ele>
        <time>2021-07-17T11:19:39Z</time>
      </trkpt>
      <trkpt lat="43.4300540" lon="-4.0622610">
        <ele>56.0</ele>
        <time>2021-07-17T11:19:48Z</time>
      </trkpt>
      <trkpt lat="43.4300610" lon="-4.0623370">
        <ele>56.0</ele>
        <time>2021-07-17T11:19:49Z</time>
      </trkpt>
      <trkpt lat="43.4300670" lon="-4.0624130">
        <ele>56.0</ele>
        <time>2021-07-17T11:19:50Z</time>
      </trkpt>
      <trkpt lat="43.4300730" lon="-4.0624930">
        <ele>56.0</ele>
        <time>2021-07-17T11:19:51Z</time>
      </trkpt>
      <trkpt lat="43.4300850" lon="-4.0626420">
        <ele>56.0</ele>
        <time>2021-07-17T11:19:53Z</time>
      </trkpt>
      <trkpt lat="43.4301010" lon="-4.0628610">
        <ele>56.0</ele>
        <time>2021-07-17T11:19:56Z</time>
      </trkpt>
      <trkpt lat="43.4301030" lon="-4.0630040">
        <ele>56.0</ele>
        <time>2021-07-17T11:19:58Z</time>
      </trkpt>
      <trkpt lat="43.4300940" lon="-4.0630680">
        <ele>56.0</ele>
        <time>2021-07-17T11:19:59Z</time>
      </trkpt>
      <trkpt lat="43.4300540" lon="-4.0632450">
        <ele>56.0</ele>
        <time>2021-07-17T11:20:02Z</time>
      </trkpt>
      <trkpt lat="43.4300370" lon="-4.0632980">
        <ele>56.0</ele>
        <time>2021-07-17T11:20:03Z</time>
      </trkpt>
      <trkpt lat="43.4299970" lon="-4.0633930">
        <ele>56.0</ele>
        <time>2021-07-17T11:20:05Z</time>
      </trkpt>
      <trkpt lat="43.4298940" lon="-4.0635660">
        <ele>56.6</ele>
        <time>2021-07-17T11:20:09Z</time>
      </trkpt>
      <trkpt lat="43.4298700" lon="-4.0636080">
        <ele>57.0</ele>
        <time>2021-07-17T11:20:10Z</time>
      </trkpt>
      <trkpt lat="43.4298440" lon="-4.0636490">
        <ele>57.4</ele>
        <time>2021-07-17T11:20:11Z</time>
      </trkpt>
      <trkpt lat="43.4298190" lon="-4.0636840">
        <ele>57.8</ele>
        <time>2021-07-17T11:20:12Z</time>
      </trkpt>
      <trkpt lat="43.4297900" lon="-4.0637230">
        <ele>58.2</ele>
        <time>2021-07-17T11:20:13Z</time>
      </trkpt>
      <trkpt lat="43.4296930" lon="-4.0638730">
        <ele>58.2</ele>
        <time>2021-07-17T11:20:17Z</time>
      </trkpt>
      <trkpt lat="43.4296450" lon="-4.0639520">
        <ele>58.8</ele>
        <time>2021-07-17T11:20:19Z</time>
      </trkpt>
      <trkpt lat="43.4296200" lon="-4.0639930">
        <ele>59.2</ele>
        <time>2021-07-17T11:20:20Z</time>
      </trkpt>
      <trkpt lat="43.4295970" lon="-4.0640300">
        <ele>59.8</ele>
        <time>2021-07-17T11:20:21Z</time>
      </trkpt>
      <trkpt lat="43.4295740" lon="-4.0640660">
        <ele>60.2</ele>
        <time>2021-07-17T11:20:22Z</time>
      </trkpt>
      <trkpt lat="43.4295490" lon="-4.0641010">
        <ele>60.8</ele>
        <time>2021-07-17T11:20:23Z</time>
      </trkpt>
      <trkpt lat="43.4295010" lon="-4.0641650">
        <ele>60.8</ele>
        <time>2021-07-17T11:20:25Z</time>
      </trkpt>
      <trkpt lat="43.4294770" lon="-4.0641980">
        <ele>61.2</ele>
        <time>2021-07-17T11:20:26Z</time>
      </trkpt>
      <trkpt lat="43.4294510" lon="-4.0642300">
        <ele>61.6</ele>
        <time>2021-07-17T11:20:27Z</time>
      </trkpt>
      <trkpt lat="43.4294240" lon="-4.0642640">
        <ele>62.0</ele>
        <time>2021-07-17T11:20:28Z</time>
      </trkpt>
      <trkpt lat="43.4293970" lon="-4.0642950">
        <ele>62.4</ele>
        <time>2021-07-17T11:20:29Z</time>
      </trkpt>
      <trkpt lat="43.4293680" lon="-4.0643230">
        <ele>62.8</ele>
        <time>2021-07-17T11:20:30Z</time>
      </trkpt>
      <trkpt lat="43.4293390" lon="-4.0643510">
        <ele>62.8</ele>
        <time>2021-07-17T11:20:31Z</time>
      </trkpt>
      <trkpt lat="43.4291920" lon="-4.0644880">
        <ele>62.8</ele>
        <time>2021-07-17T11:20:36Z</time>
      </trkpt>
      <trkpt lat="43.4291000" lon="-4.0645630">
        <ele>63.2</ele>
        <time>2021-07-17T11:20:39Z</time>
      </trkpt>
      <trkpt lat="43.4290680" lon="-4.0645900">
        <ele>63.6</ele>
        <time>2021-07-17T11:20:40Z</time>
      </trkpt>
      <trkpt lat="43.4290370" lon="-4.0646170">
        <ele>64.0</ele>
        <time>2021-07-17T11:20:41Z</time>
      </trkpt>
      <trkpt lat="43.4290060" lon="-4.0646440">
        <ele>64.4</ele>
        <time>2021-07-17T11:20:42Z</time>
      </trkpt>
      <trkpt lat="43.4289730" lon="-4.0646690">
        <ele>64.8</ele>
        <time>2021-07-17T11:20:43Z</time>
      </trkpt>
      <trkpt lat="43.4287930" lon="-4.0648240">
        <ele>65.4</ele>
        <time>2021-07-17T11:20:49Z</time>
      </trkpt>
      <trkpt lat="43.4287640" lon="-4.0648450">
        <ele>65.8</ele>
        <time>2021-07-17T11:20:50Z</time>
      </trkpt>
      <trkpt lat="43.4287360" lon="-4.0648700">
        <ele>66.2</ele>
        <time>2021-07-17T11:20:51Z</time>
      </trkpt>
      <trkpt lat="43.4287070" lon="-4.0648910">
        <ele>66.6</ele>
        <time>2021-07-17T11:20:52Z</time>
      </trkpt>
      <trkpt lat="43.4286770" lon="-4.0649130">
        <ele>67.0</ele>
        <time>2021-07-17T11:20:53Z</time>
      </trkpt>
      <trkpt lat="43.4285400" lon="-4.0650290">
        <ele>67.0</ele>
        <time>2021-07-17T11:20:58Z</time>
      </trkpt>
      <trkpt lat="43.4284590" lon="-4.0650850">
        <ele>67.4</ele>
        <time>2021-07-17T11:21:01Z</time>
      </trkpt>
      <trkpt lat="43.4284310" lon="-4.0651100">
        <ele>68.0</ele>
        <time>2021-07-17T11:21:02Z</time>
      </trkpt>
      <trkpt lat="43.4284020" lon="-4.0651340">
        <ele>68.4</ele>
        <time>2021-07-17T11:21:03Z</time>
      </trkpt>
      <trkpt lat="43.4283730" lon="-4.0651540">
        <ele>68.8</ele>
        <time>2021-07-17T11:21:04Z</time>
      </trkpt>
      <trkpt lat="43.4283430" lon="-4.0651800">
        <ele>69.2</ele>
        <time>2021-07-17T11:21:05Z</time>
      </trkpt>
      <trkpt lat="43.4281540" lon="-4.0653390">
        <ele>69.6</ele>
        <time>2021-07-17T11:21:12Z</time>
      </trkpt>
      <trkpt lat="43.4281270" lon="-4.0653640">
        <ele>70.4</ele>
        <time>2021-07-17T11:21:13Z</time>
      </trkpt>
      <trkpt lat="43.4281010" lon="-4.0653860">
        <ele>70.8</ele>
        <time>2021-07-17T11:21:14Z</time>
      </trkpt>
      <trkpt lat="43.4280730" lon="-4.0654090">
        <ele>71.2</ele>
        <time>2021-07-17T11:21:15Z</time>
      </trkpt>
      <trkpt lat="43.4278840" lon="-4.0655720">
        <ele>71.2</ele>
        <time>2021-07-17T11:21:22Z</time>
      </trkpt>
      <trkpt lat="43.4278380" lon="-4.0656190">
        <ele>71.6</ele>
        <time>2021-07-17T11:21:24Z</time>
      </trkpt>
      <trkpt lat="43.4278110" lon="-4.0656450">
        <ele>72.2</ele>
        <time>2021-07-17T11:21:25Z</time>
      </trkpt>
      <trkpt lat="43.4277880" lon="-4.0656750">
        <ele>72.6</ele>
        <time>2021-07-17T11:21:26Z</time>
      </trkpt>
      <trkpt lat="43.4277650" lon="-4.0657090">
        <ele>73.0</ele>
        <time>2021-07-17T11:21:27Z</time>
      </trkpt>
      <trkpt lat="43.4277430" lon="-4.0657430">
        <ele>73.4</ele>
        <time>2021-07-17T11:21:28Z</time>
      </trkpt>
      <trkpt lat="43.4277240" lon="-4.0657760">
        <ele>73.4</ele>
        <time>2021-07-17T11:21:29Z</time>
      </trkpt>
      <trkpt lat="43.4276140" lon="-4.0660470">
        <ele>73.4</ele>
        <time>2021-07-17T11:21:36Z</time>
      </trkpt>
      <trkpt lat="43.4276000" lon="-4.0660870">
        <ele>73.8</ele>
        <time>2021-07-17T11:21:37Z</time>
      </trkpt>
      <trkpt lat="43.4275850" lon="-4.0661290">
        <ele>74.8</ele>
        <time>2021-07-17T11:21:38Z</time>
      </trkpt>
      <trkpt lat="43.4275770" lon="-4.0661700">
        <ele>75.2</ele>
        <time>2021-07-17T11:21:39Z</time>
      </trkpt>
      <trkpt lat="43.4275650" lon="-4.0662120">
        <ele>75.6</ele>
        <time>2021-07-17T11:21:40Z</time>
      </trkpt>
      <trkpt lat="43.4275300" lon="-4.0663390">
        <ele>75.6</ele>
        <time>2021-07-17T11:21:43Z</time>
      </trkpt>
      <trkpt lat="43.4274280" lon="-4.0666330">
        <ele>75.6</ele>
        <time>2021-07-17T11:21:50Z</time>
      </trkpt>
      <trkpt lat="43.4273720" lon="-4.0668480">
        <ele>76.0</ele>
        <time>2021-07-17T11:21:55Z</time>
      </trkpt>
      <trkpt lat="43.4273600" lon="-4.0668920">
        <ele>76.4</ele>
        <time>2021-07-17T11:21:56Z</time>
      </trkpt>
      <trkpt lat="43.4273480" lon="-4.0669340">
        <ele>76.8</ele>
        <time>2021-07-17T11:21:57Z</time>
      </trkpt>
      <trkpt lat="43.4273330" lon="-4.0669780">
        <ele>77.2</ele>
        <time>2021-07-17T11:21:58Z</time>
      </trkpt>
      <trkpt lat="43.4273250" lon="-4.0670230">
        <ele>77.6</ele>
        <time>2021-07-17T11:21:59Z</time>
      </trkpt>
      <trkpt lat="43.4272750" lon="-4.0673910">
        <ele>78.0</ele>
        <time>2021-07-17T11:22:07Z</time>
      </trkpt>
      <trkpt lat="43.4272720" lon="-4.0674400">
        <ele>78.4</ele>
        <time>2021-07-17T11:22:08Z</time>
      </trkpt>
      <trkpt lat="43.4272720" lon="-4.0674910">
        <ele>78.8</ele>
        <time>2021-07-17T11:22:09Z</time>
      </trkpt>
      <trkpt lat="43.4272690" lon="-4.0675440">
        <ele>79.2</ele>
        <time>2021-07-17T11:22:10Z</time>
      </trkpt>
      <trkpt lat="43.4272670" lon="-4.0675970">
        <ele>79.6</ele>
        <time>2021-07-17T11:22:11Z</time>
      </trkpt>
      <trkpt lat="43.4272650" lon="-4.0677530">
        <ele>79.6</ele>
        <time>2021-07-17T11:22:14Z</time>
      </trkpt>
      <trkpt lat="43.4272600" lon="-4.0679790">
        <ele>79.6</ele>
        <time>2021-07-17T11:22:18Z</time>
      </trkpt>
      <trkpt lat="43.4272530" lon="-4.0681100">
        <ele>79.6</ele>
        <time>2021-07-17T11:22:20Z</time>
      </trkpt>
      <trkpt lat="43.4272440" lon="-4.0684510">
        <ele>79.6</ele>
        <time>2021-07-17T11:22:25Z</time>
      </trkpt>
      <trkpt lat="43.4272390" lon="-4.0686040">
        <ele>79.6</ele>
        <time>2021-07-17T11:22:27Z</time>
      </trkpt>
      <trkpt lat="43.4272350" lon="-4.0686810">
        <ele>79.6</ele>
        <time>2021-07-17T11:22:28Z</time>
      </trkpt>
      <trkpt lat="43.4272190" lon="-4.0690060">
        <ele>79.6</ele>
        <time>2021-07-17T11:22:32Z</time>
      </trkpt>
      <trkpt lat="43.4272140" lon="-4.0690880">
        <ele>79.2</ele>
        <time>2021-07-17T11:22:33Z</time>
      </trkpt>
      <trkpt lat="43.4272050" lon="-4.0691710">
        <ele>78.8</ele>
        <time>2021-07-17T11:22:34Z</time>
      </trkpt>
      <trkpt lat="43.4271880" lon="-4.0692560">
        <ele>78.4</ele>
        <time>2021-07-17T11:22:35Z</time>
      </trkpt>
      <trkpt lat="43.4271660" lon="-4.0693330">
        <ele>77.8</ele>
        <time>2021-07-17T11:22:36Z</time>
      </trkpt>
      <trkpt lat="43.4271400" lon="-4.0694110">
        <ele>77.4</ele>
        <time>2021-07-17T11:22:37Z</time>
      </trkpt>
      <trkpt lat="43.4270840" lon="-4.0695700">
        <ele>77.4</ele>
        <time>2021-07-17T11:22:39Z</time>
      </trkpt>
      <trkpt lat="43.4269870" lon="-4.0698110">
        <ele>77.4</ele>
        <time>2021-07-17T11:22:42Z</time>
      </trkpt>
      <trkpt lat="43.4269260" lon="-4.0699640">
        <ele>77.4</ele>
        <time>2021-07-17T11:22:44Z</time>
      </trkpt>
      <trkpt lat="43.4268940" lon="-4.0700350">
        <ele>77.4</ele>
        <time>2021-07-17T11:22:45Z</time>
      </trkpt>
      <trkpt lat="43.4268300" lon="-4.0701680">
        <ele>77.4</ele>
        <time>2021-07-17T11:22:47Z</time>
      </trkpt>
      <trkpt lat="43.4268020" lon="-4.0702280">
        <ele>77.4</ele>
        <time>2021-07-17T11:22:48Z</time>
      </trkpt>
      <trkpt lat="43.4267740" lon="-4.0702890">
        <ele>77.4</ele>
        <time>2021-07-17T11:22:49Z</time>
      </trkpt>
      <trkpt lat="43.4266580" lon="-4.0706270">
        <ele>77.4</ele>
        <time>2021-07-17T11:22:55Z</time>
      </trkpt>
      <trkpt lat="43.4265500" lon="-4.0708800">
        <ele>77.4</ele>
        <time>2021-07-17T11:23:00Z</time>
      </trkpt>
      <trkpt lat="43.4265280" lon="-4.0709270">
        <ele>77.4</ele>
        <time>2021-07-17T11:23:01Z</time>
      </trkpt>
      <trkpt lat="43.4265060" lon="-4.0709690">
        <ele>77.4</ele>
        <time>2021-07-17T11:23:02Z</time>
      </trkpt>
      <trkpt lat="43.4264860" lon="-4.0710100">
        <ele>77.4</ele>
        <time>2021-07-17T11:23:03Z</time>
      </trkpt>
      <trkpt lat="43.4264440" lon="-4.0710860">
        <ele>77.4</ele>
        <time>2021-07-17T11:23:05Z</time>
      </trkpt>
      <trkpt lat="43.4264000" lon="-4.0711510">
        <ele>77.4</ele>
        <time>2021-07-17T11:23:07Z</time>
      </trkpt>
      <trkpt lat="43.4263780" lon="-4.0711810">
        <ele>77.8</ele>
        <time>2021-07-17T11:23:08Z</time>
      </trkpt>
      <trkpt lat="43.4263530" lon="-4.0712090">
        <ele>78.4</ele>
        <time>2021-07-17T11:23:09Z</time>
      </trkpt>
      <trkpt lat="43.4263340" lon="-4.0712360">
        <ele>78.8</ele>
        <time>2021-07-17T11:23:10Z</time>
      </trkpt>
      <trkpt lat="43.4263090" lon="-4.0712630">
        <ele>79.2</ele>
        <time>2021-07-17T11:23:11Z</time>
      </trkpt>
      <trkpt lat="43.4262850" lon="-4.0712920">
        <ele>79.6</ele>
        <time>2021-07-17T11:23:12Z</time>
      </trkpt>
      <trkpt lat="43.4261850" lon="-4.0713910">
        <ele>80.4</ele>
        <time>2021-07-17T11:23:16Z</time>
      </trkpt>
      <trkpt lat="43.4261590" lon="-4.0714190">
        <ele>81.0</ele>
        <time>2021-07-17T11:23:17Z</time>
      </trkpt>
      <trkpt lat="43.4261350" lon="-4.0714410">
        <ele>81.4</ele>
        <time>2021-07-17T11:23:18Z</time>
      </trkpt>
      <trkpt lat="43.4261110" lon="-4.0714680">
        <ele>81.8</ele>
        <time>2021-07-17T11:23:19Z</time>
      </trkpt>
      <trkpt lat="43.4260160" lon="-4.0715670">
        <ele>81.8</ele>
        <time>2021-07-17T11:23:23Z</time>
      </trkpt>
      <trkpt lat="43.4259930" lon="-4.0715860">
        <ele>82.2</ele>
        <time>2021-07-17T11:23:24Z</time>
      </trkpt>
      <trkpt lat="43.4259680" lon="-4.0716090">
        <ele>82.6</ele>
        <time>2021-07-17T11:23:25Z</time>
      </trkpt>
      <trkpt lat="43.4259440" lon="-4.0716350">
        <ele>83.0</ele>
        <time>2021-07-17T11:23:26Z</time>
      </trkpt>
      <trkpt lat="43.4259210" lon="-4.0716620">
        <ele>83.4</ele>
        <time>2021-07-17T11:23:27Z</time>
      </trkpt>
      <trkpt lat="43.4258970" lon="-4.0716880">
        <ele>83.8</ele>
        <time>2021-07-17T11:23:28Z</time>
      </trkpt>
      <trkpt lat="43.4258280" lon="-4.0717670">
        <ele>83.8</ele>
        <time>2021-07-17T11:23:31Z</time>
      </trkpt>
      <trkpt lat="43.4257850" lon="-4.0718210">
        <ele>84.2</ele>
        <time>2021-07-17T11:23:33Z</time>
      </trkpt>
      <trkpt lat="43.4257640" lon="-4.0718480">
        <ele>84.6</ele>
        <time>2021-07-17T11:23:34Z</time>
      </trkpt>
      <trkpt lat="43.4257410" lon="-4.0718720">
        <ele>85.0</ele>
        <time>2021-07-17T11:23:35Z</time>
      </trkpt>
      <trkpt lat="43.4257200" lon="-4.0719020">
        <ele>85.4</ele>
        <time>2021-07-17T11:23:36Z</time>
      </trkpt>
      <trkpt lat="43.4256970" lon="-4.0719300">
        <ele>85.8</ele>
        <time>2021-07-17T11:23:37Z</time>
      </trkpt>
      <trkpt lat="43.4255940" lon="-4.0720490">
        <ele>85.8</ele>
        <time>2021-07-17T11:23:42Z</time>
      </trkpt>
      <trkpt lat="43.4255740" lon="-4.0720730">
        <ele>86.2</ele>
        <time>2021-07-17T11:23:43Z</time>
      </trkpt>
      <trkpt lat="43.4255550" lon="-4.0720970">
        <ele>86.6</ele>
        <time>2021-07-17T11:23:44Z</time>
      </trkpt>
      <trkpt lat="43.4255350" lon="-4.0721180">
        <ele>87.0</ele>
        <time>2021-07-17T11:23:45Z</time>
      </trkpt>
      <trkpt lat="43.4255160" lon="-4.0721400">
        <ele>87.4</ele>
        <time>2021-07-17T11:23:46Z</time>
      </trkpt>
      <trkpt lat="43.4254980" lon="-4.0721650">
        <ele>88.0</ele>
        <time>2021-07-17T11:23:47Z</time>
      </trkpt>
      <trkpt lat="43.4253820" lon="-4.0723210">
        <ele>88.4</ele>
        <time>2021-07-17T11:23:53Z</time>
      </trkpt>
      <trkpt lat="43.4253670" lon="-4.0723480">
        <ele>88.8</ele>
        <time>2021-07-17T11:23:54Z</time>
      </trkpt>
      <trkpt lat="43.4253520" lon="-4.0723730">
        <ele>89.2</ele>
        <time>2021-07-17T11:23:55Z</time>
      </trkpt>
      <trkpt lat="43.4253390" lon="-4.0724040">
        <ele>89.6</ele>
        <time>2021-07-17T11:23:56Z</time>
      </trkpt>
      <trkpt lat="43.4253250" lon="-4.0724380">
        <ele>90.0</ele>
        <time>2021-07-17T11:23:57Z</time>
      </trkpt>
      <trkpt lat="43.4252830" lon="-4.0725720">
        <ele>90.0</ele>
        <time>2021-07-17T11:24:01Z</time>
      </trkpt>
      <trkpt lat="43.4252830" lon="-4.0726050">
        <ele>90.4</ele>
        <time>2021-07-17T11:24:02Z</time>
      </trkpt>
      <trkpt lat="43.4252770" lon="-4.0726430">
        <ele>90.8</ele>
        <time>2021-07-17T11:24:03Z</time>
      </trkpt>
      <trkpt lat="43.4252740" lon="-4.0726750">
        <ele>91.4</ele>
        <time>2021-07-17T11:24:04Z</time>
      </trkpt>
      <trkpt lat="43.4252680" lon="-4.0727120">
        <ele>91.8</ele>
        <time>2021-07-17T11:24:05Z</time>
      </trkpt>
      <trkpt lat="43.4252640" lon="-4.0727510">
        <ele>92.2</ele>
        <time>2021-07-17T11:24:06Z</time>
      </trkpt>
      <trkpt lat="43.4252540" lon="-4.0728600">
        <ele>92.2</ele>
        <time>2021-07-17T11:24:09Z</time>
      </trkpt>
      <trkpt lat="43.4252500" lon="-4.0728930">
        <ele>92.6</ele>
        <time>2021-07-17T11:24:10Z</time>
      </trkpt>
      <trkpt lat="43.4252480" lon="-4.0729350">
        <ele>93.0</ele>
        <time>2021-07-17T11:24:11Z</time>
      </trkpt>
      <trkpt lat="43.4252500" lon="-4.0729740">
        <ele>93.4</ele>
        <time>2021-07-17T11:24:12Z</time>
      </trkpt>
      <trkpt lat="43.4252480" lon="-4.0730130">
        <ele>93.8</ele>
        <time>2021-07-17T11:24:13Z</time>
      </trkpt>
      <trkpt lat="43.4252510" lon="-4.0730520">
        <ele>94.2</ele>
        <time>2021-07-17T11:24:14Z</time>
      </trkpt>
      <trkpt lat="43.4252440" lon="-4.0731340">
        <ele>94.2</ele>
        <time>2021-07-17T11:24:16Z</time>
      </trkpt>
      <trkpt lat="43.4252160" lon="-4.0733940">
        <ele>94.2</ele>
        <time>2021-07-17T11:24:22Z</time>
      </trkpt>
      <trkpt lat="43.4251360" lon="-4.0737320">
        <ele>94.2</ele>
        <time>2021-07-17T11:24:28Z</time>
      </trkpt>
      <trkpt lat="43.4250720" lon="-4.0741180">
        <ele>94.2</ele>
        <time>2021-07-17T11:24:33Z</time>
      </trkpt>
      <trkpt lat="43.4250710" lon="-4.0741980">
        <ele>94.2</ele>
        <time>2021-07-17T11:24:34Z</time>
      </trkpt>
      <trkpt lat="43.4250690" lon="-4.0744580">
        <ele>93.8</ele>
        <time>2021-07-17T11:24:37Z</time>
      </trkpt>
      <trkpt lat="43.4250650" lon="-4.0745520">
        <ele>93.4</ele>
        <time>2021-07-17T11:24:38Z</time>
      </trkpt>
      <trkpt lat="43.4250620" lon="-4.0746480">
        <ele>93.0</ele>
        <time>2021-07-17T11:24:39Z</time>
      </trkpt>
      <trkpt lat="43.4250560" lon="-4.0747440">
        <ele>92.6</ele>
        <time>2021-07-17T11:24:40Z</time>
      </trkpt>
      <trkpt lat="43.4250490" lon="-4.0748440">
        <ele>92.2</ele>
        <time>2021-07-17T11:24:41Z</time>
      </trkpt>
      <trkpt lat="43.4250360" lon="-4.0750270">
        <ele>92.2</ele>
        <time>2021-07-17T11:24:43Z</time>
      </trkpt>
      <trkpt lat="43.4250270" lon="-4.0751970">
        <ele>92.2</ele>
        <time>2021-07-17T11:24:45Z</time>
      </trkpt>
      <trkpt lat="43.4250210" lon="-4.0752820">
        <ele>91.8</ele>
        <time>2021-07-17T11:24:46Z</time>
      </trkpt>
      <trkpt lat="43.4250160" lon="-4.0753710">
        <ele>91.4</ele>
        <time>2021-07-17T11:24:47Z</time>
      </trkpt>
      <trkpt lat="43.4250090" lon="-4.0754640">
        <ele>90.8</ele>
        <time>2021-07-17T11:24:48Z</time>
      </trkpt>
      <trkpt lat="43.4250000" lon="-4.0755500">
        <ele>90.4</ele>
        <time>2021-07-17T11:24:49Z</time>
      </trkpt>
      <trkpt lat="43.4249940" lon="-4.0756360">
        <ele>90.0</ele>
        <time>2021-07-17T11:24:50Z</time>
      </trkpt>
      <trkpt lat="43.4249810" lon="-4.0757170">
        <ele>89.6</ele>
        <time>2021-07-17T11:24:51Z</time>
      </trkpt>
      <trkpt lat="43.4249620" lon="-4.0757970">
        <ele>89.2</ele>
        <time>2021-07-17T11:24:52Z</time>
      </trkpt>
      <trkpt lat="43.4249370" lon="-4.0758740">
        <ele>88.6</ele>
        <time>2021-07-17T11:24:53Z</time>
      </trkpt>
      <trkpt lat="43.4249070" lon="-4.0759520">
        <ele>88.2</ele>
        <time>2021-07-17T11:24:54Z</time>
      </trkpt>
      <trkpt lat="43.4248700" lon="-4.0760360">
        <ele>87.8</ele>
        <time>2021-07-17T11:24:55Z</time>
      </trkpt>
      <trkpt lat="43.4248260" lon="-4.0761110">
        <ele>87.4</ele>
        <time>2021-07-17T11:24:56Z</time>
      </trkpt>
      <trkpt lat="43.4247770" lon="-4.0761830">
        <ele>86.8</ele>
        <time>2021-07-17T11:24:57Z</time>
      </trkpt>
      <trkpt lat="43.4247270" lon="-4.0762530">
        <ele>86.4</ele>
        <time>2021-07-17T11:24:58Z</time>
      </trkpt>
      <trkpt lat="43.4246740" lon="-4.0763250">
        <ele>86.0</ele>
        <time>2021-07-17T11:24:59Z</time>
      </trkpt>
      <trkpt lat="43.4246220" lon="-4.0763980">
        <ele>85.6</ele>
        <time>2021-07-17T11:25:00Z</time>
      </trkpt>
      <trkpt lat="43.4245700" lon="-4.0764840">
        <ele>85.6</ele>
        <time>2021-07-17T11:25:01Z</time>
      </trkpt>
      <trkpt lat="43.4244970" lon="-4.0766420">
        <ele>85.6</ele>
        <time>2021-07-17T11:25:03Z</time>
      </trkpt>
      <trkpt lat="43.4244560" lon="-4.0767850">
        <ele>85.6</ele>
        <time>2021-07-17T11:25:05Z</time>
      </trkpt>
      <trkpt lat="43.4244290" lon="-4.0768920">
        <ele>85.6</ele>
        <time>2021-07-17T11:25:07Z</time>
      </trkpt>
      <trkpt lat="43.4243880" lon="-4.0770500">
        <ele>85.6</ele>
        <time>2021-07-17T11:25:10Z</time>
      </trkpt>
      <trkpt lat="43.4243530" lon="-4.0771470">
        <ele>85.6</ele>
        <time>2021-07-17T11:25:12Z</time>
      </trkpt>
      <trkpt lat="43.4243050" lon="-4.0772280">
        <ele>85.6</ele>
        <time>2021-07-17T11:25:14Z</time>
      </trkpt>
      <trkpt lat="43.4242340" lon="-4.0773610">
        <ele>85.6</ele>
        <time>2021-07-17T11:25:17Z</time>
      </trkpt>
      <trkpt lat="43.4241020" lon="-4.0776670">
        <ele>85.2</ele>
        <time>2021-07-17T11:25:23Z</time>
      </trkpt>
      <trkpt lat="43.4240780" lon="-4.0777360">
        <ele>84.8</ele>
        <time>2021-07-17T11:25:24Z</time>
      </trkpt>
      <trkpt lat="43.4240560" lon="-4.0777980">
        <ele>84.4</ele>
        <time>2021-07-17T11:25:25Z</time>
      </trkpt>
      <trkpt lat="43.4240350" lon="-4.0778630">
        <ele>84.0</ele>
        <time>2021-07-17T11:25:26Z</time>
      </trkpt>
      <trkpt lat="43.4240140" lon="-4.0779230">
        <ele>83.6</ele>
        <time>2021-07-17T11:25:27Z</time>
      </trkpt>
      <trkpt lat="43.4239740" lon="-4.0780430">
        <ele>83.2</ele>
        <time>2021-07-17T11:25:29Z</time>
      </trkpt>
      <trkpt lat="43.4239490" lon="-4.0781060">
        <ele>82.8</ele>
        <time>2021-07-17T11:25:30Z</time>
      </trkpt>
      <trkpt lat="43.4239170" lon="-4.0781710">
        <ele>82.2</ele>
        <time>2021-07-17T11:25:31Z</time>
      </trkpt>
      <trkpt lat="43.4238760" lon="-4.0782380">
        <ele>81.8</ele>
        <time>2021-07-17T11:25:32Z</time>
      </trkpt>
      <trkpt lat="43.4238330" lon="-4.0782920">
        <ele>81.4</ele>
        <time>2021-07-17T11:25:33Z</time>
      </trkpt>
      <trkpt lat="43.4237850" lon="-4.0783390">
        <ele>81.4</ele>
        <time>2021-07-17T11:25:34Z</time>
      </trkpt>
      <trkpt lat="43.4236830" lon="-4.0784030">
        <ele>81.0</ele>
        <time>2021-07-17T11:25:36Z</time>
      </trkpt>
      <trkpt lat="43.4236260" lon="-4.0784140">
        <ele>80.6</ele>
        <time>2021-07-17T11:25:37Z</time>
      </trkpt>
      <trkpt lat="43.4235700" lon="-4.0784210">
        <ele>80.0</ele>
        <time>2021-07-17T11:25:38Z</time>
      </trkpt>
      <trkpt lat="43.4235040" lon="-4.0784220">
        <ele>79.6</ele>
        <time>2021-07-17T11:25:39Z</time>
      </trkpt>
      <trkpt lat="43.4234420" lon="-4.0784190">
        <ele>79.2</ele>
        <time>2021-07-17T11:25:40Z</time>
      </trkpt>
      <trkpt lat="43.4233740" lon="-4.0784120">
        <ele>79.2</ele>
        <time>2021-07-17T11:25:41Z</time>
      </trkpt>
      <trkpt lat="43.4231530" lon="-4.0784130">
        <ele>78.6</ele>
        <time>2021-07-17T11:25:44Z</time>
      </trkpt>
      <trkpt lat="43.4230700" lon="-4.0784220">
        <ele>78.0</ele>
        <time>2021-07-17T11:25:45Z</time>
      </trkpt>
      <trkpt lat="43.4229770" lon="-4.0784330">
        <ele>77.4</ele>
        <time>2021-07-17T11:25:46Z</time>
      </trkpt>
      <trkpt lat="43.4228910" lon="-4.0784390">
        <ele>76.8</ele>
        <time>2021-07-17T11:25:47Z</time>
      </trkpt>
      <trkpt lat="43.4228020" lon="-4.0784430">
        <ele>76.2</ele>
        <time>2021-07-17T11:25:48Z</time>
      </trkpt>
      <trkpt lat="43.4227120" lon="-4.0784460">
        <ele>76.2</ele>
        <time>2021-07-17T11:25:49Z</time>
      </trkpt>
      <trkpt lat="43.4223810" lon="-4.0784520">
        <ele>76.2</ele>
        <time>2021-07-17T11:25:53Z</time>
      </trkpt>
      <trkpt lat="43.4222960" lon="-4.0784550">
        <ele>75.8</ele>
        <time>2021-07-17T11:25:54Z</time>
      </trkpt>
      <trkpt lat="43.4222170" lon="-4.0784560">
        <ele>75.2</ele>
        <time>2021-07-17T11:25:55Z</time>
      </trkpt>
      <trkpt lat="43.4221410" lon="-4.0784560">
        <ele>74.8</ele>
        <time>2021-07-17T11:25:56Z</time>
      </trkpt>
      <trkpt lat="43.4220700" lon="-4.0784570">
        <ele>74.4</ele>
        <time>2021-07-17T11:25:57Z</time>
      </trkpt>
      <trkpt lat="43.4220030" lon="-4.0784580">
        <ele>73.8</ele>
        <time>2021-07-17T11:25:58Z</time>
      </trkpt>
      <trkpt lat="43.4218800" lon="-4.0784630">
        <ele>73.4</ele>
        <time>2021-07-17T11:26:00Z</time>
      </trkpt>
      <trkpt lat="43.4218240" lon="-4.0784640">
        <ele>73.0</ele>
        <time>2021-07-17T11:26:01Z</time>
      </trkpt>
      <trkpt lat="43.4217720" lon="-4.0784640">
        <ele>72.6</ele>
        <time>2021-07-17T11:26:02Z</time>
      </trkpt>
      <trkpt lat="43.4217260" lon="-4.0784660">
        <ele>72.2</ele>
        <time>2021-07-17T11:26:03Z</time>
      </trkpt>
      <trkpt lat="43.4216830" lon="-4.0784670">
        <ele>71.8</ele>
        <time>2021-07-17T11:26:04Z</time>
      </trkpt>
      <trkpt lat="43.4215690" lon="-4.0784740">
        <ele>71.8</ele>
        <time>2021-07-17T11:26:07Z</time>
      </trkpt>
      <trkpt lat="43.4212610" lon="-4.0785060">
        <ele>71.8</ele>
        <time>2021-07-17T11:26:16Z</time>
      </trkpt>
      <trkpt lat="43.4211710" lon="-4.0786500">
        <ele>71.8</ele>
        <time>2021-07-17T11:26:20Z</time>
      </trkpt>
      <trkpt lat="43.4211570" lon="-4.0787560">
        <ele>71.8</ele>
        <time>2021-07-17T11:26:22Z</time>
      </trkpt>
      <trkpt lat="43.4211520" lon="-4.0788700">
        <ele>71.8</ele>
        <time>2021-07-17T11:26:24Z</time>
      </trkpt>
      <trkpt lat="43.4211530" lon="-4.0790460">
        <ele>71.8</ele>
        <time>2021-07-17T11:26:27Z</time>
      </trkpt>
      <trkpt lat="43.4211420" lon="-4.0794950">
        <ele>71.8</ele>
        <time>2021-07-17T11:26:34Z</time>
      </trkpt>
      <trkpt lat="43.4211400" lon="-4.0795570">
        <ele>71.8</ele>
        <time>2021-07-17T11:26:35Z</time>
      </trkpt>
      <trkpt lat="43.4211060" lon="-4.0799670">
        <ele>71.8</ele>
        <time>2021-07-17T11:26:42Z</time>
      </trkpt>
      <trkpt lat="43.4210930" lon="-4.0800330">
        <ele>71.8</ele>
        <time>2021-07-17T11:26:43Z</time>
      </trkpt>
      <trkpt lat="43.4210070" lon="-4.0803270">
        <ele>71.8</ele>
        <time>2021-07-17T11:26:47Z</time>
      </trkpt>
      <trkpt lat="43.4208440" lon="-4.0808330">
        <ele>71.8</ele>
        <time>2021-07-17T11:26:53Z</time>
      </trkpt>
      <trkpt lat="43.4207890" lon="-4.0810130">
        <ele>71.8</ele>
        <time>2021-07-17T11:26:55Z</time>
      </trkpt>
      <trkpt lat="43.4206230" lon="-4.0815590">
        <ele>71.4</ele>
        <time>2021-07-17T11:27:01Z</time>
      </trkpt>
      <trkpt lat="43.4205960" lon="-4.0816480">
        <ele>71.0</ele>
        <time>2021-07-17T11:27:02Z</time>
      </trkpt>
      <trkpt lat="43.4205730" lon="-4.0817350">
        <ele>70.6</ele>
        <time>2021-07-17T11:27:03Z</time>
      </trkpt>
      <trkpt lat="43.4205480" lon="-4.0818230">
        <ele>70.2</ele>
        <time>2021-07-17T11:27:04Z</time>
      </trkpt>
      <trkpt lat="43.4205220" lon="-4.0819100">
        <ele>69.8</ele>
        <time>2021-07-17T11:27:05Z</time>
      </trkpt>
      <trkpt lat="43.4204960" lon="-4.0819920">
        <ele>69.8</ele>
        <time>2021-07-17T11:27:06Z</time>
      </trkpt>
      <trkpt lat="43.4204150" lon="-4.0822440">
        <ele>69.8</ele>
        <time>2021-07-17T11:27:09Z</time>
      </trkpt>
      <trkpt lat="43.4203630" lon="-4.0824100">
        <ele>69.8</ele>
        <time>2021-07-17T11:27:11Z</time>
      </trkpt>
      <trkpt lat="43.4202900" lon="-4.0826460">
        <ele>69.8</ele>
        <time>2021-07-17T11:27:14Z</time>
      </trkpt>
      <trkpt lat="43.4202680" lon="-4.0827210">
        <ele>69.8</ele>
        <time>2021-07-17T11:27:15Z</time>
      </trkpt>
      <trkpt lat="43.4201370" lon="-4.0831570">
        <ele>69.8</ele>
        <time>2021-07-17T11:27:21Z</time>
      </trkpt>
      <trkpt lat="43.4200770" lon="-4.0833700">
        <ele>69.8</ele>
        <time>2021-07-17T11:27:24Z</time>
      </trkpt>
      <trkpt lat="43.4199130" lon="-4.0838970">
        <ele>69.8</ele>
        <time>2021-07-17T11:27:32Z</time>
      </trkpt>
      <trkpt lat="43.4198330" lon="-4.0841390">
        <ele>69.8</ele>
        <time>2021-07-17T11:27:36Z</time>
      </trkpt>
      <trkpt lat="43.4197510" lon="-4.0843680">
        <ele>69.8</ele>
        <time>2021-07-17T11:27:40Z</time>
      </trkpt>
      <trkpt lat="43.4197270" lon="-4.0844260">
        <ele>69.8</ele>
        <time>2021-07-17T11:27:41Z</time>
      </trkpt>
      <trkpt lat="43.4195940" lon="-4.0847380">
        <ele>69.8</ele>
        <time>2021-07-17T11:27:46Z</time>
      </trkpt>
      <trkpt lat="43.4195100" lon="-4.0849270">
        <ele>69.8</ele>
        <time>2021-07-17T11:27:49Z</time>
      </trkpt>
      <trkpt lat="43.4193090" lon="-4.0853660">
        <ele>69.8</ele>
        <time>2021-07-17T11:27:55Z</time>
      </trkpt>
      <trkpt lat="43.4190840" lon="-4.0858400">
        <ele>69.4</ele>
        <time>2021-07-17T11:28:00Z</time>
      </trkpt>
      <trkpt lat="43.4190360" lon="-4.0859470">
        <ele>69.0</ele>
        <time>2021-07-17T11:28:01Z</time>
      </trkpt>
      <trkpt lat="43.4189850" lon="-4.0860590">
        <ele>68.4</ele>
        <time>2021-07-17T11:28:02Z</time>
      </trkpt>
      <trkpt lat="43.4189340" lon="-4.0861740">
        <ele>68.0</ele>
        <time>2021-07-17T11:28:03Z</time>
      </trkpt>
      <trkpt lat="43.4188810" lon="-4.0862910">
        <ele>67.6</ele>
        <time>2021-07-17T11:28:04Z</time>
      </trkpt>
      <trkpt lat="43.4188280" lon="-4.0864110">
        <ele>67.2</ele>
        <time>2021-07-17T11:28:05Z</time>
      </trkpt>
      <trkpt lat="43.4187710" lon="-4.0865370">
        <ele>66.8</ele>
        <time>2021-07-17T11:28:06Z</time>
      </trkpt>
      <trkpt lat="43.4187160" lon="-4.0866610">
        <ele>66.4</ele>
        <time>2021-07-17T11:28:07Z</time>
      </trkpt>
      <trkpt lat="43.4186600" lon="-4.0867860">
        <ele>65.8</ele>
        <time>2021-07-17T11:28:08Z</time>
      </trkpt>
      <trkpt lat="43.4186060" lon="-4.0869110">
        <ele>65.4</ele>
        <time>2021-07-17T11:28:09Z</time>
      </trkpt>
      <trkpt lat="43.4185060" lon="-4.0871550">
        <ele>64.6</ele>
        <time>2021-07-17T11:28:11Z</time>
      </trkpt>
      <trkpt lat="43.4184550" lon="-4.0872760">
        <ele>64.0</ele>
        <time>2021-07-17T11:28:12Z</time>
      </trkpt>
      <trkpt lat="43.4184020" lon="-4.0873990">
        <ele>63.6</ele>
        <time>2021-07-17T11:28:13Z</time>
      </trkpt>
      <trkpt lat="43.4183520" lon="-4.0875180">
        <ele>63.2</ele>
        <time>2021-07-17T11:28:14Z</time>
      </trkpt>
      <trkpt lat="43.4182080" lon="-4.0878780">
        <ele>62.8</ele>
        <time>2021-07-17T11:28:17Z</time>
      </trkpt>
      <trkpt lat="43.4181650" lon="-4.0879930">
        <ele>62.4</ele>
        <time>2021-07-17T11:28:18Z</time>
      </trkpt>
      <trkpt lat="43.4181220" lon="-4.0881050">
        <ele>61.8</ele>
        <time>2021-07-17T11:28:19Z</time>
      </trkpt>
      <trkpt lat="43.4180800" lon="-4.0882150">
        <ele>61.4</ele>
        <time>2021-07-17T11:28:20Z</time>
      </trkpt>
      <trkpt lat="43.4180380" lon="-4.0883280">
        <ele>61.0</ele>
        <time>2021-07-17T11:28:21Z</time>
      </trkpt>
      <trkpt lat="43.4180050" lon="-4.0884400">
        <ele>60.6</ele>
        <time>2021-07-17T11:28:22Z</time>
      </trkpt>
      <trkpt lat="43.4179840" lon="-4.0885540">
        <ele>60.2</ele>
        <time>2021-07-17T11:28:23Z</time>
      </trkpt>
      <trkpt lat="43.4179770" lon="-4.0886660">
        <ele>59.8</ele>
        <time>2021-07-17T11:28:24Z</time>
      </trkpt>
      <trkpt lat="43.4179820" lon="-4.0887760">
        <ele>59.4</ele>
        <time>2021-07-17T11:28:25Z</time>
      </trkpt>
      <trkpt lat="43.4180010" lon="-4.0888900">
        <ele>58.8</ele>
        <time>2021-07-17T11:28:26Z</time>
      </trkpt>
      <trkpt lat="43.4180320" lon="-4.0890040">
        <ele>58.2</ele>
        <time>2021-07-17T11:28:27Z</time>
      </trkpt>
      <trkpt lat="43.4180830" lon="-4.0891200">
        <ele>57.6</ele>
        <time>2021-07-17T11:28:28Z</time>
      </trkpt>
      <trkpt lat="43.4181320" lon="-4.0892310">
        <ele>57.0</ele>
        <time>2021-07-17T11:28:29Z</time>
      </trkpt>
      <trkpt lat="43.4181780" lon="-4.0893430">
        <ele>56.4</ele>
        <time>2021-07-17T11:28:30Z</time>
      </trkpt>
      <trkpt lat="43.4183120" lon="-4.0896870">
        <ele>56.0</ele>
        <time>2021-07-17T11:28:33Z</time>
      </trkpt>
      <trkpt lat="43.4183580" lon="-4.0898090">
        <ele>55.4</ele>
        <time>2021-07-17T11:28:34Z</time>
      </trkpt>
      <trkpt lat="43.4184020" lon="-4.0899290">
        <ele>55.0</ele>
        <time>2021-07-17T11:28:35Z</time>
      </trkpt>
      <trkpt lat="43.4184460" lon="-4.0900480">
        <ele>54.0</ele>
        <time>2021-07-17T11:28:36Z</time>
      </trkpt>
      <trkpt lat="43.4187150" lon="-4.0907430">
        <ele>53.6</ele>
        <time>2021-07-17T11:28:42Z</time>
      </trkpt>
      <trkpt lat="43.4187600" lon="-4.0908560">
        <ele>53.0</ele>
        <time>2021-07-17T11:28:43Z</time>
      </trkpt>
      <trkpt lat="43.4188040" lon="-4.0909540">
        <ele>52.4</ele>
        <time>2021-07-17T11:28:44Z</time>
      </trkpt>
      <trkpt lat="43.4188470" lon="-4.0910410">
        <ele>51.8</ele>
        <time>2021-07-17T11:28:45Z</time>
      </trkpt>
      <trkpt lat="43.4188950" lon="-4.0911170">
        <ele>51.0</ele>
        <time>2021-07-17T11:28:46Z</time>
      </trkpt>
      <trkpt lat="43.4189480" lon="-4.0911820">
        <ele>50.4</ele>
        <time>2021-07-17T11:28:47Z</time>
      </trkpt>
      <trkpt lat="43.4190090" lon="-4.0912370">
        <ele>49.8</ele>
        <time>2021-07-17T11:28:48Z</time>
      </trkpt>
      <trkpt lat="43.4190750" lon="-4.0912800">
        <ele>49.0</ele>
        <time>2021-07-17T11:28:49Z</time>
      </trkpt>
      <trkpt lat="43.4191460" lon="-4.0913170">
        <ele>49.0</ele>
        <time>2021-07-17T11:28:50Z</time>
      </trkpt>
      <trkpt lat="43.4192980" lon="-4.0913750">
        <ele>49.0</ele>
        <time>2021-07-17T11:28:52Z</time>
      </trkpt>
      <trkpt lat="43.4195360" lon="-4.0914480">
        <ele>48.6</ele>
        <time>2021-07-17T11:28:55Z</time>
      </trkpt>
      <trkpt lat="43.4196200" lon="-4.0914750">
        <ele>48.2</ele>
        <time>2021-07-17T11:28:56Z</time>
      </trkpt>
      <trkpt lat="43.4197080" lon="-4.0915020">
        <ele>47.8</ele>
        <time>2021-07-17T11:28:57Z</time>
      </trkpt>
      <trkpt lat="43.4197920" lon="-4.0915270">
        <ele>47.2</ele>
        <time>2021-07-17T11:28:58Z</time>
      </trkpt>
      <trkpt lat="43.4198770" lon="-4.0915520">
        <ele>46.6</ele>
        <time>2021-07-17T11:28:59Z</time>
      </trkpt>
      <trkpt lat="43.4199600" lon="-4.0915850">
        <ele>45.8</ele>
        <time>2021-07-17T11:29:00Z</time>
      </trkpt>
      <trkpt lat="43.4200390" lon="-4.0916250">
        <ele>44.6</ele>
        <time>2021-07-17T11:29:01Z</time>
      </trkpt>
      <trkpt lat="43.4201140" lon="-4.0916780">
        <ele>44.6</ele>
        <time>2021-07-17T11:29:02Z</time>
      </trkpt>
      <trkpt lat="43.4203040" lon="-4.0919140">
        <ele>44.2</ele>
        <time>2021-07-17T11:29:05Z</time>
      </trkpt>
      <trkpt lat="43.4203490" lon="-4.0920150">
        <ele>43.6</ele>
        <time>2021-07-17T11:29:06Z</time>
      </trkpt>
      <trkpt lat="43.4203860" lon="-4.0921250">
        <ele>43.2</ele>
        <time>2021-07-17T11:29:07Z</time>
      </trkpt>
      <trkpt lat="43.4204180" lon="-4.0922420">
        <ele>42.8</ele>
        <time>2021-07-17T11:29:08Z</time>
      </trkpt>
      <trkpt lat="43.4204490" lon="-4.0923630">
        <ele>42.2</ele>
        <time>2021-07-17T11:29:09Z</time>
      </trkpt>
      <trkpt lat="43.4204770" lon="-4.0924890">
        <ele>41.6</ele>
        <time>2021-07-17T11:29:10Z</time>
      </trkpt>
      <trkpt lat="43.4205040" lon="-4.0926160">
        <ele>41.0</ele>
        <time>2021-07-17T11:29:11Z</time>
      </trkpt>
      <trkpt lat="43.4205310" lon="-4.0927410">
        <ele>40.4</ele>
        <time>2021-07-17T11:29:12Z</time>
      </trkpt>
      <trkpt lat="43.4205590" lon="-4.0928760">
        <ele>39.8</ele>
        <time>2021-07-17T11:29:13Z</time>
      </trkpt>
      <trkpt lat="43.4205870" lon="-4.0930050">
        <ele>39.2</ele>
        <time>2021-07-17T11:29:14Z</time>
      </trkpt>
      <trkpt lat="43.4206170" lon="-4.0931350">
        <ele>38.4</ele>
        <time>2021-07-17T11:29:15Z</time>
      </trkpt>
      <trkpt lat="43.4206470" lon="-4.0932660">
        <ele>37.8</ele>
        <time>2021-07-17T11:29:16Z</time>
      </trkpt>
      <trkpt lat="43.4206790" lon="-4.0933960">
        <ele>37.2</ele>
        <time>2021-07-17T11:29:17Z</time>
      </trkpt>
      <trkpt lat="43.4207100" lon="-4.0935230">
        <ele>36.6</ele>
        <time>2021-07-17T11:29:18Z</time>
      </trkpt>
      <trkpt lat="43.4207430" lon="-4.0936480">
        <ele>36.0</ele>
        <time>2021-07-17T11:29:19Z</time>
      </trkpt>
      <trkpt lat="43.4207770" lon="-4.0937760">
        <ele>35.6</ele>
        <time>2021-07-17T11:29:20Z</time>
      </trkpt>
      <trkpt lat="43.4208100" lon="-4.0938950">
        <ele>35.0</ele>
        <time>2021-07-17T11:29:21Z</time>
      </trkpt>
      <trkpt lat="43.4208430" lon="-4.0940150">
        <ele>35.0</ele>
        <time>2021-07-17T11:29:22Z</time>
      </trkpt>
      <trkpt lat="43.4209090" lon="-4.0942450">
        <ele>34.4</ele>
        <time>2021-07-17T11:29:24Z</time>
      </trkpt>
      <trkpt lat="43.4209400" lon="-4.0943590">
        <ele>33.4</ele>
        <time>2021-07-17T11:29:25Z</time>
      </trkpt>
      <trkpt lat="43.4209690" lon="-4.0944740">
        <ele>32.8</ele>
        <time>2021-07-17T11:29:26Z</time>
      </trkpt>
      <trkpt lat="43.4209980" lon="-4.0945950">
        <ele>32.2</ele>
        <time>2021-07-17T11:29:27Z</time>
      </trkpt>
      <trkpt lat="43.4210230" lon="-4.0947080">
        <ele>31.8</ele>
        <time>2021-07-17T11:29:28Z</time>
      </trkpt>
      <trkpt lat="43.4210450" lon="-4.0948180">
        <ele>31.2</ele>
        <time>2021-07-17T11:29:29Z</time>
      </trkpt>
      <trkpt lat="43.4210590" lon="-4.0949280">
        <ele>30.8</ele>
        <time>2021-07-17T11:29:30Z</time>
      </trkpt>
      <trkpt lat="43.4210630" lon="-4.0950350">
        <ele>30.2</ele>
        <time>2021-07-17T11:29:31Z</time>
      </trkpt>
      <trkpt lat="43.4210590" lon="-4.0951400">
        <ele>30.2</ele>
        <time>2021-07-17T11:29:32Z</time>
      </trkpt>
      <trkpt lat="43.4209650" lon="-4.0954010">
        <ele>30.2</ele>
        <time>2021-07-17T11:29:35Z</time>
      </trkpt>
      <trkpt lat="43.4208610" lon="-4.0955010">
        <ele>30.2</ele>
        <time>2021-07-17T11:29:37Z</time>
      </trkpt>
      <trkpt lat="43.4208070" lon="-4.0955250">
        <ele>30.2</ele>
        <time>2021-07-17T11:29:38Z</time>
      </trkpt>
      <trkpt lat="43.4206680" lon="-4.0955290">
        <ele>30.2</ele>
        <time>2021-07-17T11:29:41Z</time>
      </trkpt>
      <trkpt lat="43.4206230" lon="-4.0955250">
        <ele>30.2</ele>
        <time>2021-07-17T11:29:42Z</time>
      </trkpt>
      <trkpt lat="43.4205810" lon="-4.0955200">
        <ele>30.2</ele>
        <time>2021-07-17T11:29:43Z</time>
      </trkpt>
      <trkpt lat="43.4205420" lon="-4.0955140">
        <ele>30.2</ele>
        <time>2021-07-17T11:29:44Z</time>
      </trkpt>
      <trkpt lat="43.4205060" lon="-4.0955090">
        <ele>30.2</ele>
        <time>2021-07-17T11:29:45Z</time>
      </trkpt>
      <trkpt lat="43.4204710" lon="-4.0955020">
        <ele>30.2</ele>
        <time>2021-07-17T11:29:46Z</time>
      </trkpt>
      <trkpt lat="43.4204360" lon="-4.0954940">
        <ele>30.2</ele>
        <time>2021-07-17T11:29:47Z</time>
      </trkpt>
      <trkpt lat="43.4204010" lon="-4.0954870">
        <ele>30.2</ele>
        <time>2021-07-17T11:29:48Z</time>
      </trkpt>
      <trkpt lat="43.4203320" lon="-4.0954770">
        <ele>30.2</ele>
        <time>2021-07-17T11:29:50Z</time>
      </trkpt>
      <trkpt lat="43.4202660" lon="-4.0954670">
        <ele>30.2</ele>
        <time>2021-07-17T11:29:52Z</time>
      </trkpt>
      <trkpt lat="43.4202330" lon="-4.0954620">
        <ele>30.6</ele>
        <time>2021-07-17T11:29:53Z</time>
      </trkpt>
      <trkpt lat="43.4202000" lon="-4.0954560">
        <ele>31.0</ele>
        <time>2021-07-17T11:29:54Z</time>
      </trkpt>
      <trkpt lat="43.4201680" lon="-4.0954510">
        <ele>31.4</ele>
        <time>2021-07-17T11:29:55Z</time>
      </trkpt>
      <trkpt lat="43.4201360" lon="-4.0954430">
        <ele>31.8</ele>
        <time>2021-07-17T11:29:56Z</time>
      </trkpt>
      <trkpt lat="43.4201050" lon="-4.0954330">
        <ele>32.2</ele>
        <time>2021-07-17T11:29:57Z</time>
      </trkpt>
      <trkpt lat="43.4200290" lon="-4.0954090">
        <ele>32.2</ele>
        <time>2021-07-17T11:30:00Z</time>
      </trkpt>
      <trkpt lat="43.4200070" lon="-4.0953970">
        <ele>32.6</ele>
        <time>2021-07-17T11:30:01Z</time>
      </trkpt>
      <trkpt lat="43.4199830" lon="-4.0953870">
        <ele>33.2</ele>
        <time>2021-07-17T11:30:02Z</time>
      </trkpt>
      <trkpt lat="43.4199580" lon="-4.0953790">
        <ele>33.6</ele>
        <time>2021-07-17T11:30:03Z</time>
      </trkpt>
      <trkpt lat="43.4199300" lon="-4.0953700">
        <ele>34.0</ele>
        <time>2021-07-17T11:30:04Z</time>
      </trkpt>
      <trkpt lat="43.4199040" lon="-4.0953610">
        <ele>34.4</ele>
        <time>2021-07-17T11:30:05Z</time>
      </trkpt>
      <trkpt lat="43.4198300" lon="-4.0953350">
        <ele>34.8</ele>
        <time>2021-07-17T11:30:08Z</time>
      </trkpt>
      <trkpt lat="43.4198060" lon="-4.0953270">
        <ele>35.2</ele>
        <time>2021-07-17T11:30:09Z</time>
      </trkpt>
      <trkpt lat="43.4197810" lon="-4.0953160">
        <ele>35.6</ele>
        <time>2021-07-17T11:30:10Z</time>
      </trkpt>
      <trkpt lat="43.4197560" lon="-4.0953030">
        <ele>36.0</ele>
        <time>2021-07-17T11:30:11Z</time>
      </trkpt>
      <trkpt lat="43.4197330" lon="-4.0952900">
        <ele>36.4</ele>
        <time>2021-07-17T11:30:12Z</time>
      </trkpt>
      <trkpt lat="43.4197100" lon="-4.0952790">
        <ele>36.4</ele>
        <time>2021-07-17T11:30:13Z</time>
      </trkpt>
      <trkpt lat="43.4195920" lon="-4.0952370">
        <ele>36.4</ele>
        <time>2021-07-17T11:30:18Z</time>
      </trkpt>
      <trkpt lat="43.4195720" lon="-4.0952270">
        <ele>36.8</ele>
        <time>2021-07-17T11:30:19Z</time>
      </trkpt>
      <trkpt lat="43.4195540" lon="-4.0952200">
        <ele>37.4</ele>
        <time>2021-07-17T11:30:20Z</time>
      </trkpt>
      <trkpt lat="43.4195340" lon="-4.0952140">
        <ele>37.8</ele>
        <time>2021-07-17T11:30:21Z</time>
      </trkpt>
      <trkpt lat="43.4195130" lon="-4.0952130">
        <ele>38.2</ele>
        <time>2021-07-17T11:30:22Z</time>
      </trkpt>
      <trkpt lat="43.4194920" lon="-4.0952130">
        <ele>38.6</ele>
        <time>2021-07-17T11:30:23Z</time>
      </trkpt>
      <trkpt lat="43.4194110" lon="-4.0952330">
        <ele>39.0</ele>
        <time>2021-07-17T11:30:27Z</time>
      </trkpt>
      <trkpt lat="43.4193920" lon="-4.0952430">
        <ele>39.4</ele>
        <time>2021-07-17T11:30:28Z</time>
      </trkpt>
      <trkpt lat="43.4193740" lon="-4.0952550">
        <ele>40.0</ele>
        <time>2021-07-17T11:30:29Z</time>
      </trkpt>
      <trkpt lat="43.4193570" lon="-4.0952690">
        <ele>40.4</ele>
        <time>2021-07-17T11:30:30Z</time>
      </trkpt>
      <trkpt lat="43.4193410" lon="-4.0952830">
        <ele>40.8</ele>
        <time>2021-07-17T11:30:31Z</time>
      </trkpt>
      <trkpt lat="43.4192990" lon="-4.0953290">
        <ele>41.2</ele>
        <time>2021-07-17T11:30:34Z</time>
      </trkpt>
      <trkpt lat="43.4192890" lon="-4.0953530">
        <ele>41.6</ele>
        <time>2021-07-17T11:30:35Z</time>
      </trkpt>
      <trkpt lat="43.4192790" lon="-4.0953790">
        <ele>42.0</ele>
        <time>2021-07-17T11:30:36Z</time>
      </trkpt>
      <trkpt lat="43.4192710" lon="-4.0954050">
        <ele>42.4</ele>
        <time>2021-07-17T11:30:37Z</time>
      </trkpt>
      <trkpt lat="43.4192640" lon="-4.0954310">
        <ele>42.8</ele>
        <time>2021-07-17T11:30:38Z</time>
      </trkpt>
      <trkpt lat="43.4192580" lon="-4.0954870">
        <ele>43.2</ele>
        <time>2021-07-17T11:30:40Z</time>
      </trkpt>
      <trkpt lat="43.4192550" lon="-4.0955160">
        <ele>43.8</ele>
        <time>2021-07-17T11:30:41Z</time>
      </trkpt>
      <trkpt lat="43.4192520" lon="-4.0955440">
        <ele>44.2</ele>
        <time>2021-07-17T11:30:42Z</time>
      </trkpt>
      <trkpt lat="43.4192480" lon="-4.0955710">
        <ele>44.6</ele>
        <time>2021-07-17T11:30:43Z</time>
      </trkpt>
      <trkpt lat="43.4192480" lon="-4.0955990">
        <ele>45.0</ele>
        <time>2021-07-17T11:30:44Z</time>
      </trkpt>
      <trkpt lat="43.4192450" lon="-4.0956810">
        <ele>45.4</ele>
        <time>2021-07-17T11:30:47Z</time>
      </trkpt>
      <trkpt lat="43.4192450" lon="-4.0957060">
        <ele>45.8</ele>
        <time>2021-07-17T11:30:48Z</time>
      </trkpt>
      <trkpt lat="43.4192460" lon="-4.0957320">
        <ele>46.4</ele>
        <time>2021-07-17T11:30:49Z</time>
      </trkpt>
      <trkpt lat="43.4192460" lon="-4.0957590">
        <ele>46.8</ele>
        <time>2021-07-17T11:30:50Z</time>
      </trkpt>
      <trkpt lat="43.4192470" lon="-4.0957870">
        <ele>47.2</ele>
        <time>2021-07-17T11:30:51Z</time>
      </trkpt>
      <trkpt lat="43.4192420" lon="-4.0958890">
        <ele>47.6</ele>
        <time>2021-07-17T11:30:55Z</time>
      </trkpt>
      <trkpt lat="43.4192430" lon="-4.0959170">
        <ele>48.0</ele>
        <time>2021-07-17T11:30:56Z</time>
      </trkpt>
      <trkpt lat="43.4192440" lon="-4.0959460">
        <ele>48.4</ele>
        <time>2021-07-17T11:30:57Z</time>
      </trkpt>
      <trkpt lat="43.4192450" lon="-4.0959760">
        <ele>49.0</ele>
        <time>2021-07-17T11:30:58Z</time>
      </trkpt>
      <trkpt lat="43.4192460" lon="-4.0960020">
        <ele>49.4</ele>
        <time>2021-07-17T11:30:59Z</time>
      </trkpt>
      <trkpt lat="43.4192440" lon="-4.0961570">
        <ele>49.8</ele>
        <time>2021-07-17T11:31:05Z</time>
      </trkpt>
      <trkpt lat="43.4192430" lon="-4.0961830">
        <ele>50.2</ele>
        <time>2021-07-17T11:31:06Z</time>
      </trkpt>
      <trkpt lat="43.4192430" lon="-4.0962100">
        <ele>50.6</ele>
        <time>2021-07-17T11:31:07Z</time>
      </trkpt>
      <trkpt lat="43.4192410" lon="-4.0962380">
        <ele>51.2</ele>
        <time>2021-07-17T11:31:08Z</time>
      </trkpt>
      <trkpt lat="43.4192390" lon="-4.0962650">
        <ele>51.6</ele>
        <time>2021-07-17T11:31:09Z</time>
      </trkpt>
      <trkpt lat="43.4192260" lon="-4.0963640">
        <ele>51.6</ele>
        <time>2021-07-17T11:31:13Z</time>
      </trkpt>
      <trkpt lat="43.4192130" lon="-4.0964310">
        <ele>52.0</ele>
        <time>2021-07-17T11:31:16Z</time>
      </trkpt>
      <trkpt lat="43.4192060" lon="-4.0964540">
        <ele>52.4</ele>
        <time>2021-07-17T11:31:17Z</time>
      </trkpt>
      <trkpt lat="43.4192010" lon="-4.0964780">
        <ele>52.8</ele>
        <time>2021-07-17T11:31:18Z</time>
      </trkpt>
      <trkpt lat="43.4191950" lon="-4.0965040">
        <ele>53.2</ele>
        <time>2021-07-17T11:31:19Z</time>
      </trkpt>
      <trkpt lat="43.4191890" lon="-4.0965300">
        <ele>53.6</ele>
        <time>2021-07-17T11:31:20Z</time>
      </trkpt>
      <trkpt lat="43.4191840" lon="-4.0965550">
        <ele>53.6</ele>
        <time>2021-07-17T11:31:21Z</time>
      </trkpt>
      <trkpt lat="43.4191250" lon="-4.0966820">
        <ele>54.0</ele>
        <time>2021-07-17T11:31:27Z</time>
      </trkpt>
      <trkpt lat="43.4191200" lon="-4.0967050">
        <ele>54.4</ele>
        <time>2021-07-17T11:31:28Z</time>
      </trkpt>
      <trkpt lat="43.4191110" lon="-4.0967300">
        <ele>55.2</ele>
        <time>2021-07-17T11:31:29Z</time>
      </trkpt>
      <trkpt lat="43.4191000" lon="-4.0967520">
        <ele>55.8</ele>
        <time>2021-07-17T11:31:30Z</time>
      </trkpt>
      <trkpt lat="43.4190670" lon="-4.0968210">
        <ele>55.8</ele>
        <time>2021-07-17T11:31:33Z</time>
      </trkpt>
      <trkpt lat="43.4190400" lon="-4.0968960">
        <ele>56.2</ele>
        <time>2021-07-17T11:31:36Z</time>
      </trkpt>
      <trkpt lat="43.4190330" lon="-4.0969210">
        <ele>56.6</ele>
        <time>2021-07-17T11:31:37Z</time>
      </trkpt>
      <trkpt lat="43.4190280" lon="-4.0969470">
        <ele>57.0</ele>
        <time>2021-07-17T11:31:38Z</time>
      </trkpt>
      <trkpt lat="43.4190240" lon="-4.0969710">
        <ele>57.4</ele>
        <time>2021-07-17T11:31:39Z</time>
      </trkpt>
      <trkpt lat="43.4190210" lon="-4.0969940">
        <ele>58.0</ele>
        <time>2021-07-17T11:31:40Z</time>
      </trkpt>
      <trkpt lat="43.4190330" lon="-4.0971670">
        <ele>58.4</ele>
        <time>2021-07-17T11:31:47Z</time>
      </trkpt>
      <trkpt lat="43.4190390" lon="-4.0971930">
        <ele>58.8</ele>
        <time>2021-07-17T11:31:48Z</time>
      </trkpt>
      <trkpt lat="43.4190450" lon="-4.0972180">
        <ele>59.2</ele>
        <time>2021-07-17T11:31:49Z</time>
      </trkpt>
      <trkpt lat="43.4190530" lon="-4.0972440">
        <ele>59.6</ele>
        <time>2021-07-17T11:31:50Z</time>
      </trkpt>
      <trkpt lat="43.4190630" lon="-4.0972660">
        <ele>60.0</ele>
        <time>2021-07-17T11:31:51Z</time>
      </trkpt>
      <trkpt lat="43.4190980" lon="-4.0973310">
        <ele>60.4</ele>
        <time>2021-07-17T11:31:54Z</time>
      </trkpt>
      <trkpt lat="43.4191080" lon="-4.0973550">
        <ele>60.8</ele>
        <time>2021-07-17T11:31:55Z</time>
      </trkpt>
      <trkpt lat="43.4191180" lon="-4.0973760">
        <ele>61.2</ele>
        <time>2021-07-17T11:31:56Z</time>
      </trkpt>
      <trkpt lat="43.4191300" lon="-4.0973980">
        <ele>61.6</ele>
        <time>2021-07-17T11:31:57Z</time>
      </trkpt>
      <trkpt lat="43.4191410" lon="-4.0974200">
        <ele>62.0</ele>
        <time>2021-07-17T11:31:58Z</time>
      </trkpt>
      <trkpt lat="43.4191740" lon="-4.0975250">
        <ele>62.0</ele>
        <time>2021-07-17T11:32:03Z</time>
      </trkpt>
      <trkpt lat="43.4191980" lon="-4.0976160">
        <ele>62.4</ele>
        <time>2021-07-17T11:32:07Z</time>
      </trkpt>
      <trkpt lat="43.4192020" lon="-4.0976420">
        <ele>63.0</ele>
        <time>2021-07-17T11:32:08Z</time>
      </trkpt>
      <trkpt lat="43.4192060" lon="-4.0976690">
        <ele>63.4</ele>
        <time>2021-07-17T11:32:09Z</time>
      </trkpt>
      <trkpt lat="43.4192110" lon="-4.0976980">
        <ele>63.8</ele>
        <time>2021-07-17T11:32:10Z</time>
      </trkpt>
      <trkpt lat="43.4192150" lon="-4.0977230">
        <ele>64.2</ele>
        <time>2021-07-17T11:32:11Z</time>
      </trkpt>
      <trkpt lat="43.4192280" lon="-4.0979110">
        <ele>64.2</ele>
        <time>2021-07-17T11:32:18Z</time>
      </trkpt>
      <trkpt lat="43.4192290" lon="-4.0979390">
        <ele>64.6</ele>
        <time>2021-07-17T11:32:19Z</time>
      </trkpt>
      <trkpt lat="43.4192280" lon="-4.0979670">
        <ele>65.2</ele>
        <time>2021-07-17T11:32:20Z</time>
      </trkpt>
      <trkpt lat="43.4192300" lon="-4.0979970">
        <ele>65.6</ele>
        <time>2021-07-17T11:32:21Z</time>
      </trkpt>
      <trkpt lat="43.4192330" lon="-4.0980250">
        <ele>66.0</ele>
        <time>2021-07-17T11:32:22Z</time>
      </trkpt>
      <trkpt lat="43.4192320" lon="-4.0980540">
        <ele>66.4</ele>
        <time>2021-07-17T11:32:23Z</time>
      </trkpt>
      <trkpt lat="43.4192330" lon="-4.0980840">
        <ele>66.4</ele>
        <time>2021-07-17T11:32:24Z</time>
      </trkpt>
      <trkpt lat="43.4192400" lon="-4.0983000">
        <ele>66.8</ele>
        <time>2021-07-17T11:32:32Z</time>
      </trkpt>
      <trkpt lat="43.4192400" lon="-4.0983270">
        <ele>67.2</ele>
        <time>2021-07-17T11:32:33Z</time>
      </trkpt>
      <trkpt lat="43.4192390" lon="-4.0983540">
        <ele>67.6</ele>
        <time>2021-07-17T11:32:34Z</time>
      </trkpt>
      <trkpt lat="43.4192410" lon="-4.0983790">
        <ele>68.0</ele>
        <time>2021-07-17T11:32:35Z</time>
      </trkpt>
      <trkpt lat="43.4192430" lon="-4.0984040">
        <ele>68.4</ele>
        <time>2021-07-17T11:32:36Z</time>
      </trkpt>
      <trkpt lat="43.4192530" lon="-4.0985360">
        <ele>68.4</ele>
        <time>2021-07-17T11:32:41Z</time>
      </trkpt>
      <trkpt lat="43.4192540" lon="-4.0986190">
        <ele>68.8</ele>
        <time>2021-07-17T11:32:44Z</time>
      </trkpt>
      <trkpt lat="43.4192510" lon="-4.0986480">
        <ele>69.2</ele>
        <time>2021-07-17T11:32:45Z</time>
      </trkpt>
      <trkpt lat="43.4192450" lon="-4.0986790">
        <ele>69.6</ele>
        <time>2021-07-17T11:32:46Z</time>
      </trkpt>
      <trkpt lat="43.4192470" lon="-4.0987070">
        <ele>70.0</ele>
        <time>2021-07-17T11:32:47Z</time>
      </trkpt>
      <trkpt lat="43.4192450" lon="-4.0987330">
        <ele>70.6</ele>
        <time>2021-07-17T11:32:48Z</time>
      </trkpt>
      <trkpt lat="43.4192430" lon="-4.0987570">
        <ele>70.6</ele>
        <time>2021-07-17T11:32:49Z</time>
      </trkpt>
      <trkpt lat="43.4192240" lon="-4.0989370">
        <ele>71.0</ele>
        <time>2021-07-17T11:32:56Z</time>
      </trkpt>
      <trkpt lat="43.4192170" lon="-4.0989620">
        <ele>71.4</ele>
        <time>2021-07-17T11:32:57Z</time>
      </trkpt>
      <trkpt lat="43.4192080" lon="-4.0989860">
        <ele>71.8</ele>
        <time>2021-07-17T11:32:58Z</time>
      </trkpt>
      <trkpt lat="43.4191980" lon="-4.0990090">
        <ele>72.2</ele>
        <time>2021-07-17T11:32:59Z</time>
      </trkpt>
      <trkpt lat="43.4191870" lon="-4.0990310">
        <ele>72.6</ele>
        <time>2021-07-17T11:33:00Z</time>
      </trkpt>
      <trkpt lat="43.4191530" lon="-4.0990970">
        <ele>72.6</ele>
        <time>2021-07-17T11:33:03Z</time>
      </trkpt>
      <trkpt lat="43.4190300" lon="-4.0992170">
        <ele>72.6</ele>
        <time>2021-07-17T11:33:09Z</time>
      </trkpt>
      <trkpt lat="43.4189190" lon="-4.0993170">
        <ele>72.6</ele>
        <time>2021-07-17T11:33:14Z</time>
      </trkpt>
      <trkpt lat="43.4188600" lon="-4.0993760">
        <ele>73.0</ele>
        <time>2021-07-17T11:33:17Z</time>
      </trkpt>
      <trkpt lat="43.4188370" lon="-4.0993960">
        <ele>73.4</ele>
        <time>2021-07-17T11:33:18Z</time>
      </trkpt>
      <trkpt lat="43.4188150" lon="-4.0994140">
        <ele>73.8</ele>
        <time>2021-07-17T11:33:19Z</time>
      </trkpt>
      <trkpt lat="43.4187930" lon="-4.0994310">
        <ele>74.2</ele>
        <time>2021-07-17T11:33:20Z</time>
      </trkpt>
      <trkpt lat="43.4187670" lon="-4.0994470">
        <ele>74.6</ele>
        <time>2021-07-17T11:33:21Z</time>
      </trkpt>
      <trkpt lat="43.4186630" lon="-4.0995140">
        <ele>74.6</ele>
        <time>2021-07-17T11:33:25Z</time>
      </trkpt>
      <trkpt lat="43.4185190" lon="-4.0995870">
        <ele>74.6</ele>
        <time>2021-07-17T11:33:30Z</time>
      </trkpt>
      <trkpt lat="43.4184190" lon="-4.0996320">
        <ele>74.6</ele>
        <time>2021-07-17T11:33:33Z</time>
      </trkpt>
      <trkpt lat="43.4183360" lon="-4.0996580">
        <ele>74.6</ele>
        <time>2021-07-17T11:33:35Z</time>
      </trkpt>
      <trkpt lat="43.4181780" lon="-4.0996820">
        <ele>74.6</ele>
        <time>2021-07-17T11:33:38Z</time>
      </trkpt>
      <trkpt lat="43.4179840" lon="-4.0997230">
        <ele>74.6</ele>
        <time>2021-07-17T11:33:41Z</time>
      </trkpt>
      <trkpt lat="43.4178450" lon="-4.0997690">
        <ele>74.6</ele>
        <time>2021-07-17T11:33:43Z</time>
      </trkpt>
      <trkpt lat="43.4177010" lon="-4.0998290">
        <ele>74.6</ele>
        <time>2021-07-17T11:33:45Z</time>
      </trkpt>
      <trkpt lat="43.4176290" lon="-4.0998650">
        <ele>74.2</ele>
        <time>2021-07-17T11:33:46Z</time>
      </trkpt>
      <trkpt lat="43.4175580" lon="-4.0999050">
        <ele>73.6</ele>
        <time>2021-07-17T11:33:47Z</time>
      </trkpt>
      <trkpt lat="43.4174890" lon="-4.0999550">
        <ele>73.2</ele>
        <time>2021-07-17T11:33:48Z</time>
      </trkpt>
      <trkpt lat="43.4174280" lon="-4.1000090">
        <ele>72.6</ele>
        <time>2021-07-17T11:33:49Z</time>
      </trkpt>
      <trkpt lat="43.4173680" lon="-4.1000600">
        <ele>72.2</ele>
        <time>2021-07-17T11:33:50Z</time>
      </trkpt>
      <trkpt lat="43.4173090" lon="-4.1001010">
        <ele>72.2</ele>
        <time>2021-07-17T11:33:51Z</time>
      </trkpt>
      <trkpt lat="43.4171920" lon="-4.1001530">
        <ele>72.2</ele>
        <time>2021-07-17T11:33:53Z</time>
      </trkpt>
      <trkpt lat="43.4170360" lon="-4.1001540">
        <ele>72.2</ele>
        <time>2021-07-17T11:33:56Z</time>
      </trkpt>
      <trkpt lat="43.4169910" lon="-4.1001460">
        <ele>72.2</ele>
        <time>2021-07-17T11:33:57Z</time>
      </trkpt>
      <trkpt lat="43.4168660" lon="-4.1001150">
        <ele>72.2</ele>
        <time>2021-07-17T11:34:00Z</time>
      </trkpt>
      <trkpt lat="43.4167560" lon="-4.1000750">
        <ele>72.2</ele>
        <time>2021-07-17T11:34:03Z</time>
      </trkpt>
      <trkpt lat="43.4167230" lon="-4.1000620">
        <ele>72.2</ele>
        <time>2021-07-17T11:34:04Z</time>
      </trkpt>
      <trkpt lat="43.4165300" lon="-4.0999940">
        <ele>72.2</ele>
        <time>2021-07-17T11:34:10Z</time>
      </trkpt>
      <trkpt lat="43.4164670" lon="-4.0999760">
        <ele>72.6</ele>
        <time>2021-07-17T11:34:12Z</time>
      </trkpt>
      <trkpt lat="43.4164380" lon="-4.0999650">
        <ele>73.0</ele>
        <time>2021-07-17T11:34:13Z</time>
      </trkpt>
      <trkpt lat="43.4164070" lon="-4.0999580">
        <ele>73.4</ele>
        <time>2021-07-17T11:34:14Z</time>
      </trkpt>
      <trkpt lat="43.4163750" lon="-4.0999520">
        <ele>73.8</ele>
        <time>2021-07-17T11:34:15Z</time>
      </trkpt>
      <trkpt lat="43.4163440" lon="-4.0999450">
        <ele>74.2</ele>
        <time>2021-07-17T11:34:16Z</time>
      </trkpt>
      <trkpt lat="43.4162520" lon="-4.0999210">
        <ele>74.2</ele>
        <time>2021-07-17T11:34:19Z</time>
      </trkpt>
      <trkpt lat="43.4161640" lon="-4.0999010">
        <ele>74.6</ele>
        <time>2021-07-17T11:34:22Z</time>
      </trkpt>
      <trkpt lat="43.4161340" lon="-4.0998990">
        <ele>75.0</ele>
        <time>2021-07-17T11:34:23Z</time>
      </trkpt>
      <trkpt lat="43.4161040" lon="-4.0998970">
        <ele>75.4</ele>
        <time>2021-07-17T11:34:24Z</time>
      </trkpt>
      <trkpt lat="43.4160720" lon="-4.0998970">
        <ele>76.0</ele>
        <time>2021-07-17T11:34:25Z</time>
      </trkpt>
      <trkpt lat="43.4160420" lon="-4.0998960">
        <ele>76.4</ele>
        <time>2021-07-17T11:34:26Z</time>
      </trkpt>
      <trkpt lat="43.4158860" lon="-4.0999050">
        <ele>76.4</ele>
        <time>2021-07-17T11:34:31Z</time>
      </trkpt>
      <trkpt lat="43.4156160" lon="-4.0999210">
        <ele>76.4</ele>
        <time>2021-07-17T11:34:39Z</time>
      </trkpt>
      <trkpt lat="43.4154670" lon="-4.0999310">
        <ele>76.4</ele>
        <time>2021-07-17T11:34:44Z</time>
      </trkpt>
      <trkpt lat="43.4153960" lon="-4.0999340">
        <ele>76.4</ele>
        <time>2021-07-17T11:34:46Z</time>
      </trkpt>
      <trkpt lat="43.4153140" lon="-4.0999400">
        <ele>76.4</ele>
        <time>2021-07-17T11:34:48Z</time>
      </trkpt>
      <trkpt lat="43.4151710" lon="-4.0999770">
        <ele>76.4</ele>
        <time>2021-07-17T11:34:51Z</time>
      </trkpt>
      <trkpt lat="43.4151170" lon="-4.1000090">
        <ele>76.4</ele>
        <time>2021-07-17T11:34:52Z</time>
      </trkpt>
      <trkpt lat="43.4150070" lon="-4.1000900">
        <ele>76.4</ele>
        <time>2021-07-17T11:34:54Z</time>
      </trkpt>
      <trkpt lat="43.4148880" lon="-4.1001770">
        <ele>76.4</ele>
        <time>2021-07-17T11:34:56Z</time>
      </trkpt>
      <trkpt lat="43.4147720" lon="-4.1002610">
        <ele>75.8</ele>
        <time>2021-07-17T11:34:58Z</time>
      </trkpt>
      <trkpt lat="43.4147130" lon="-4.1003020">
        <ele>75.4</ele>
        <time>2021-07-17T11:34:59Z</time>
      </trkpt>
      <trkpt lat="43.4146530" lon="-4.1003470">
        <ele>74.8</ele>
        <time>2021-07-17T11:35:00Z</time>
      </trkpt>
      <trkpt lat="43.4145950" lon="-4.1004040">
        <ele>74.4</ele>
        <time>2021-07-17T11:35:01Z</time>
      </trkpt>
      <trkpt lat="43.4145390" lon="-4.1004770">
        <ele>73.8</ele>
        <time>2021-07-17T11:35:02Z</time>
      </trkpt>
      <trkpt lat="43.4144930" lon="-4.1005600">
        <ele>73.8</ele>
        <time>2021-07-17T11:35:03Z</time>
      </trkpt>
      <trkpt lat="43.4144170" lon="-4.1007530">
        <ele>73.4</ele>
        <time>2021-07-17T11:35:05Z</time>
      </trkpt>
      <trkpt lat="43.4143820" lon="-4.1008560">
        <ele>72.8</ele>
        <time>2021-07-17T11:35:06Z</time>
      </trkpt>
      <trkpt lat="43.4143440" lon="-4.1009600">
        <ele>72.4</ele>
        <time>2021-07-17T11:35:07Z</time>
      </trkpt>
      <trkpt lat="43.4143080" lon="-4.1010650">
        <ele>72.0</ele>
        <time>2021-07-17T11:35:08Z</time>
      </trkpt>
      <trkpt lat="43.4142710" lon="-4.1011670">
        <ele>71.6</ele>
        <time>2021-07-17T11:35:09Z</time>
      </trkpt>
      <trkpt lat="43.4141940" lon="-4.1013650">
        <ele>71.6</ele>
        <time>2021-07-17T11:35:11Z</time>
      </trkpt>
      <trkpt lat="43.4141270" lon="-4.1015480">
        <ele>71.6</ele>
        <time>2021-07-17T11:35:13Z</time>
      </trkpt>
      <trkpt lat="43.4139340" lon="-4.1020100">
        <ele>71.6</ele>
        <time>2021-07-17T11:35:19Z</time>
      </trkpt>
      <trkpt lat="43.4139000" lon="-4.1020710">
        <ele>71.6</ele>
        <time>2021-07-17T11:35:20Z</time>
      </trkpt>
      <trkpt lat="43.4138210" lon="-4.1021660">
        <ele>71.6</ele>
        <time>2021-07-17T11:35:22Z</time>
      </trkpt>
      <trkpt lat="43.4137780" lon="-4.1022000">
        <ele>71.6</ele>
        <time>2021-07-17T11:35:23Z</time>
      </trkpt>
      <trkpt lat="43.4136910" lon="-4.1022440">
        <ele>71.6</ele>
        <time>2021-07-17T11:35:25Z</time>
      </trkpt>
      <trkpt lat="43.4136490" lon="-4.1022600">
        <ele>71.6</ele>
        <time>2021-07-17T11:35:26Z</time>
      </trkpt>
      <trkpt lat="43.4135580" lon="-4.1022960">
        <ele>71.6</ele>
        <time>2021-07-17T11:35:28Z</time>
      </trkpt>
      <trkpt lat="43.4132290" lon="-4.1023950">
        <ele>71.6</ele>
        <time>2021-07-17T11:35:34Z</time>
      </trkpt>
      <trkpt lat="43.4128150" lon="-4.1025230">
        <ele>71.6</ele>
        <time>2021-07-17T11:35:40Z</time>
      </trkpt>
      <trkpt lat="43.4126720" lon="-4.1025660">
        <ele>71.2</ele>
        <time>2021-07-17T11:35:42Z</time>
      </trkpt>
      <trkpt lat="43.4126030" lon="-4.1025860">
        <ele>70.8</ele>
        <time>2021-07-17T11:35:43Z</time>
      </trkpt>
      <trkpt lat="43.4125370" lon="-4.1026060">
        <ele>70.4</ele>
        <time>2021-07-17T11:35:44Z</time>
      </trkpt>
      <trkpt lat="43.4124730" lon="-4.1026220">
        <ele>69.8</ele>
        <time>2021-07-17T11:35:45Z</time>
      </trkpt>
      <trkpt lat="43.4124080" lon="-4.1026280">
        <ele>69.4</ele>
        <time>2021-07-17T11:35:46Z</time>
      </trkpt>
      <trkpt lat="43.4123430" lon="-4.1026240">
        <ele>69.4</ele>
        <time>2021-07-17T11:35:47Z</time>
      </trkpt>
      <trkpt lat="43.4121630" lon="-4.1025240">
        <ele>69.4</ele>
        <time>2021-07-17T11:35:50Z</time>
      </trkpt>
      <trkpt lat="43.4120160" lon="-4.1023450">
        <ele>69.4</ele>
        <time>2021-07-17T11:35:53Z</time>
      </trkpt>
      <trkpt lat="43.4119270" lon="-4.1022080">
        <ele>69.4</ele>
        <time>2021-07-17T11:35:55Z</time>
      </trkpt>
      <trkpt lat="43.4118850" lon="-4.1021390">
        <ele>69.0</ele>
        <time>2021-07-17T11:35:56Z</time>
      </trkpt>
      <trkpt lat="43.4118440" lon="-4.1020700">
        <ele>68.4</ele>
        <time>2021-07-17T11:35:57Z</time>
      </trkpt>
      <trkpt lat="43.4118020" lon="-4.1020000">
        <ele>68.0</ele>
        <time>2021-07-17T11:35:58Z</time>
      </trkpt>
      <trkpt lat="43.4117620" lon="-4.1019360">
        <ele>67.0</ele>
        <time>2021-07-17T11:35:59Z</time>
      </trkpt>
      <trkpt lat="43.4116870" lon="-4.1018150">
        <ele>66.6</ele>
        <time>2021-07-17T11:36:01Z</time>
      </trkpt>
      <trkpt lat="43.4116510" lon="-4.1017610">
        <ele>66.0</ele>
        <time>2021-07-17T11:36:02Z</time>
      </trkpt>
      <trkpt lat="43.4116170" lon="-4.1017130">
        <ele>65.6</ele>
        <time>2021-07-17T11:36:03Z</time>
      </trkpt>
      <trkpt lat="43.4115890" lon="-4.1016720">
        <ele>65.2</ele>
        <time>2021-07-17T11:36:04Z</time>
      </trkpt>
      <trkpt lat="43.4115650" lon="-4.1016310">
        <ele>64.8</ele>
        <time>2021-07-17T11:36:05Z</time>
      </trkpt>
      <trkpt lat="43.4115200" lon="-4.1015560">
        <ele>64.8</ele>
        <time>2021-07-17T11:36:07Z</time>
      </trkpt>
      <trkpt lat="43.4114840" lon="-4.1014860">
        <ele>64.8</ele>
        <time>2021-07-17T11:36:09Z</time>
      </trkpt>
      <trkpt lat="43.4114550" lon="-4.1014230">
        <ele>64.8</ele>
        <time>2021-07-17T11:36:11Z</time>
      </trkpt>
      <trkpt lat="43.4114260" lon="-4.1013640">
        <ele>64.8</ele>
        <time>2021-07-17T11:36:13Z</time>
      </trkpt>
      <trkpt lat="43.4113940" lon="-4.1013060">
        <ele>64.8</ele>
        <time>2021-07-17T11:36:15Z</time>
      </trkpt>
      <trkpt lat="43.4113790" lon="-4.1012750">
        <ele>65.2</ele>
        <time>2021-07-17T11:36:16Z</time>
      </trkpt>
      <trkpt lat="43.4113660" lon="-4.1012440">
        <ele>65.6</ele>
        <time>2021-07-17T11:36:17Z</time>
      </trkpt>
      <trkpt lat="43.4113520" lon="-4.1012170">
        <ele>66.0</ele>
        <time>2021-07-17T11:36:18Z</time>
      </trkpt>
      <trkpt lat="43.4113390" lon="-4.1011900">
        <ele>66.4</ele>
        <time>2021-07-17T11:36:19Z</time>
      </trkpt>
      <trkpt lat="43.4113280" lon="-4.1011620">
        <ele>66.8</ele>
        <time>2021-07-17T11:36:20Z</time>
      </trkpt>
      <trkpt lat="43.4112950" lon="-4.1010790">
        <ele>66.8</ele>
        <time>2021-07-17T11:36:23Z</time>
      </trkpt>
      <trkpt lat="43.4112350" lon="-4.1009020">
        <ele>67.4</ele>
        <time>2021-07-17T11:36:29Z</time>
      </trkpt>
      <trkpt lat="43.4112280" lon="-4.1008730">
        <ele>67.8</ele>
        <time>2021-07-17T11:36:30Z</time>
      </trkpt>
      <trkpt lat="43.4112190" lon="-4.1008440">
        <ele>68.2</ele>
        <time>2021-07-17T11:36:31Z</time>
      </trkpt>
      <trkpt lat="43.4112100" lon="-4.1008170">
        <ele>68.6</ele>
        <time>2021-07-17T11:36:32Z</time>
      </trkpt>
      <trkpt lat="43.4112020" lon="-4.1007900">
        <ele>69.0</ele>
        <time>2021-07-17T11:36:33Z</time>
      </trkpt>
      <trkpt lat="43.4111720" lon="-4.1007080">
        <ele>69.0</ele>
        <time>2021-07-17T11:36:36Z</time>
      </trkpt>
      <trkpt lat="43.4111620" lon="-4.1006810">
        <ele>69.0</ele>
        <time>2021-07-17T11:36:37Z</time>
      </trkpt>
      <trkpt lat="43.4111340" lon="-4.1005960">
        <ele>69.6</ele>
        <time>2021-07-17T11:36:40Z</time>
      </trkpt>
      <trkpt lat="43.4111250" lon="-4.1005690">
        <ele>70.0</ele>
        <time>2021-07-17T11:36:41Z</time>
      </trkpt>
      <trkpt lat="43.4111150" lon="-4.1005420">
        <ele>70.4</ele>
        <time>2021-07-17T11:36:42Z</time>
      </trkpt>
      <trkpt lat="43.4111050" lon="-4.1005140">
        <ele>70.8</ele>
        <time>2021-07-17T11:36:43Z</time>
      </trkpt>
      <trkpt lat="43.4110930" lon="-4.1004870">
        <ele>71.2</ele>
        <time>2021-07-17T11:36:44Z</time>
      </trkpt>
      <trkpt lat="43.4110680" lon="-4.1004340">
        <ele>71.2</ele>
        <time>2021-07-17T11:36:46Z</time>
      </trkpt>
      <trkpt lat="43.4109830" lon="-4.1003080">
        <ele>71.6</ele>
        <time>2021-07-17T11:36:52Z</time>
      </trkpt>
      <trkpt lat="43.4109660" lon="-4.1002950">
        <ele>72.2</ele>
        <time>2021-07-17T11:36:53Z</time>
      </trkpt>
      <trkpt lat="43.4109480" lon="-4.1002840">
        <ele>72.6</ele>
        <time>2021-07-17T11:36:54Z</time>
      </trkpt>
      <trkpt lat="43.4109290" lon="-4.1002740">
        <ele>73.0</ele>
        <time>2021-07-17T11:36:55Z</time>
      </trkpt>
      <trkpt lat="43.4109130" lon="-4.1002630">
        <ele>73.4</ele>
        <time>2021-07-17T11:36:56Z</time>
      </trkpt>
      <trkpt lat="43.4108470" lon="-4.1002110">
        <ele>73.4</ele>
        <time>2021-07-17T11:37:00Z</time>
      </trkpt>
      <trkpt lat="43.4108000" lon="-4.1001640">
        <ele>73.8</ele>
        <time>2021-07-17T11:37:03Z</time>
      </trkpt>
      <trkpt lat="43.4107890" lon="-4.1001420">
        <ele>74.2</ele>
        <time>2021-07-17T11:37:04Z</time>
      </trkpt>
      <trkpt lat="43.4107760" lon="-4.1001190">
        <ele>74.8</ele>
        <time>2021-07-17T11:37:05Z</time>
      </trkpt>
      <trkpt lat="43.4107660" lon="-4.1000980">
        <ele>75.2</ele>
        <time>2021-07-17T11:37:06Z</time>
      </trkpt>
      <trkpt lat="43.4107560" lon="-4.1000770">
        <ele>75.6</ele>
        <time>2021-07-17T11:37:07Z</time>
      </trkpt>
      <trkpt lat="43.4107120" lon="-4.0998930">
        <ele>75.6</ele>
        <time>2021-07-17T11:37:13Z</time>
      </trkpt>
      <trkpt lat="43.4106920" lon="-4.0997980">
        <ele>76.0</ele>
        <time>2021-07-17T11:37:16Z</time>
      </trkpt>
      <trkpt lat="43.4106870" lon="-4.0997650">
        <ele>76.4</ele>
        <time>2021-07-17T11:37:17Z</time>
      </trkpt>
      <trkpt lat="43.4106830" lon="-4.0997330">
        <ele>76.8</ele>
        <time>2021-07-17T11:37:18Z</time>
      </trkpt>
      <trkpt lat="43.4106770" lon="-4.0997040">
        <ele>77.2</ele>
        <time>2021-07-17T11:37:19Z</time>
      </trkpt>
      <trkpt lat="43.4106680" lon="-4.0996750">
        <ele>77.6</ele>
        <time>2021-07-17T11:37:20Z</time>
      </trkpt>
      <trkpt lat="43.4106210" lon="-4.0995380">
        <ele>77.6</ele>
        <time>2021-07-17T11:37:25Z</time>
      </trkpt>
      <trkpt lat="43.4106040" lon="-4.0994560">
        <ele>78.0</ele>
        <time>2021-07-17T11:37:28Z</time>
      </trkpt>
      <trkpt lat="43.4105970" lon="-4.0994310">
        <ele>78.4</ele>
        <time>2021-07-17T11:37:29Z</time>
      </trkpt>
      <trkpt lat="43.4105900" lon="-4.0994050">
        <ele>78.8</ele>
        <time>2021-07-17T11:37:30Z</time>
      </trkpt>
      <trkpt lat="43.4105790" lon="-4.0993800">
        <ele>79.2</ele>
        <time>2021-07-17T11:37:31Z</time>
      </trkpt>
      <trkpt lat="43.4105650" lon="-4.0993540">
        <ele>79.6</ele>
        <time>2021-07-17T11:37:32Z</time>
      </trkpt>
      <trkpt lat="43.4105010" lon="-4.0992270">
        <ele>80.0</ele>
        <time>2021-07-17T11:37:38Z</time>
      </trkpt>
      <trkpt lat="43.4104890" lon="-4.0992060">
        <ele>81.0</ele>
        <time>2021-07-17T11:37:39Z</time>
      </trkpt>
      <trkpt lat="43.4104730" lon="-4.0991890">
        <ele>81.4</ele>
        <time>2021-07-17T11:37:40Z</time>
      </trkpt>
      <trkpt lat="43.4104570" lon="-4.0991690">
        <ele>81.8</ele>
        <time>2021-07-17T11:37:41Z</time>
      </trkpt>
      <trkpt lat="43.4103920" lon="-4.0991110">
        <ele>82.2</ele>
        <time>2021-07-17T11:37:45Z</time>
      </trkpt>
      <trkpt lat="43.4103730" lon="-4.0991020">
        <ele>82.6</ele>
        <time>2021-07-17T11:37:46Z</time>
      </trkpt>
      <trkpt lat="43.4103520" lon="-4.0990990">
        <ele>83.0</ele>
        <time>2021-07-17T11:37:47Z</time>
      </trkpt>
      <trkpt lat="43.4103340" lon="-4.0990970">
        <ele>83.4</ele>
        <time>2021-07-17T11:37:48Z</time>
      </trkpt>
      <trkpt lat="43.4103170" lon="-4.0990980">
        <ele>83.8</ele>
        <time>2021-07-17T11:37:49Z</time>
      </trkpt>
      <trkpt lat="43.4102660" lon="-4.0991060">
        <ele>83.8</ele>
        <time>2021-07-17T11:37:52Z</time>
      </trkpt>
      <trkpt lat="43.4102310" lon="-4.0991150">
        <ele>84.2</ele>
        <time>2021-07-17T11:37:54Z</time>
      </trkpt>
      <trkpt lat="43.4102140" lon="-4.0991260">
        <ele>84.6</ele>
        <time>2021-07-17T11:37:55Z</time>
      </trkpt>
      <trkpt lat="43.4102020" lon="-4.0991390">
        <ele>85.0</ele>
        <time>2021-07-17T11:37:56Z</time>
      </trkpt>
      <trkpt lat="43.4101890" lon="-4.0991490">
        <ele>85.4</ele>
        <time>2021-07-17T11:37:57Z</time>
      </trkpt>
      <trkpt lat="43.4101750" lon="-4.0991580">
        <ele>85.8</ele>
        <time>2021-07-17T11:37:58Z</time>
      </trkpt>
      <trkpt lat="43.4101090" lon="-4.0992190">
        <ele>86.2</ele>
        <time>2021-07-17T11:38:03Z</time>
      </trkpt>
      <trkpt lat="43.4100950" lon="-4.0992340">
        <ele>87.0</ele>
        <time>2021-07-17T11:38:04Z</time>
      </trkpt>
      <trkpt lat="43.4100840" lon="-4.0992500">
        <ele>87.4</ele>
        <time>2021-07-17T11:38:05Z</time>
      </trkpt>
      <trkpt lat="43.4100750" lon="-4.0992670">
        <ele>87.8</ele>
        <time>2021-07-17T11:38:06Z</time>
      </trkpt>
      <trkpt lat="43.4100270" lon="-4.0993550">
        <ele>88.2</ele>
        <time>2021-07-17T11:38:11Z</time>
      </trkpt>
      <trkpt lat="43.4100190" lon="-4.0993750">
        <ele>88.6</ele>
        <time>2021-07-17T11:38:12Z</time>
      </trkpt>
      <trkpt lat="43.4100120" lon="-4.0993940">
        <ele>89.2</ele>
        <time>2021-07-17T11:38:13Z</time>
      </trkpt>
      <trkpt lat="43.4100090" lon="-4.0994130">
        <ele>89.6</ele>
        <time>2021-07-17T11:38:14Z</time>
      </trkpt>
      <trkpt lat="43.4100060" lon="-4.0994360">
        <ele>90.0</ele>
        <time>2021-07-17T11:38:15Z</time>
      </trkpt>
      <trkpt lat="43.4100030" lon="-4.0994580">
        <ele>90.0</ele>
        <time>2021-07-17T11:38:16Z</time>
      </trkpt>
      <trkpt lat="43.4100180" lon="-4.0995960">
        <ele>90.4</ele>
        <time>2021-07-17T11:38:22Z</time>
      </trkpt>
      <trkpt lat="43.4100230" lon="-4.0996200">
        <ele>90.8</ele>
        <time>2021-07-17T11:38:23Z</time>
      </trkpt>
      <trkpt lat="43.4100320" lon="-4.0996380">
        <ele>91.2</ele>
        <time>2021-07-17T11:38:24Z</time>
      </trkpt>
      <trkpt lat="43.4100400" lon="-4.0996580">
        <ele>91.6</ele>
        <time>2021-07-17T11:38:25Z</time>
      </trkpt>
      <trkpt lat="43.4100470" lon="-4.0996790">
        <ele>92.0</ele>
        <time>2021-07-17T11:38:26Z</time>
      </trkpt>
      <trkpt lat="43.4100630" lon="-4.0997190">
        <ele>92.0</ele>
        <time>2021-07-17T11:38:28Z</time>
      </trkpt>
      <trkpt lat="43.4100860" lon="-4.0997840">
        <ele>92.4</ele>
        <time>2021-07-17T11:38:31Z</time>
      </trkpt>
      <trkpt lat="43.4100940" lon="-4.0998030">
        <ele>92.8</ele>
        <time>2021-07-17T11:38:32Z</time>
      </trkpt>
      <trkpt lat="43.4101020" lon="-4.0998230">
        <ele>93.2</ele>
        <time>2021-07-17T11:38:33Z</time>
      </trkpt>
      <trkpt lat="43.4101110" lon="-4.0998440">
        <ele>93.6</ele>
        <time>2021-07-17T11:38:34Z</time>
      </trkpt>
      <trkpt lat="43.4101200" lon="-4.0998650">
        <ele>94.2</ele>
        <time>2021-07-17T11:38:35Z</time>
      </trkpt>
      <trkpt lat="43.4102050" lon="-4.1000530">
        <ele>94.6</ele>
        <time>2021-07-17T11:38:44Z</time>
      </trkpt>
      <trkpt lat="43.4102150" lon="-4.1000730">
        <ele>95.0</ele>
        <time>2021-07-17T11:38:45Z</time>
      </trkpt>
      <trkpt lat="43.4102260" lon="-4.1000920">
        <ele>95.4</ele>
        <time>2021-07-17T11:38:46Z</time>
      </trkpt>
      <trkpt lat="43.4102360" lon="-4.1001160">
        <ele>95.8</ele>
        <time>2021-07-17T11:38:47Z</time>
      </trkpt>
      <trkpt lat="43.4102440" lon="-4.1001380">
        <ele>96.2</ele>
        <time>2021-07-17T11:38:48Z</time>
      </trkpt>
      <trkpt lat="43.4102750" lon="-4.1002260">
        <ele>96.2</ele>
        <time>2021-07-17T11:38:52Z</time>
      </trkpt>
      <trkpt lat="43.4102940" lon="-4.1002920">
        <ele>96.6</ele>
        <time>2021-07-17T11:38:55Z</time>
      </trkpt>
      <trkpt lat="43.4103000" lon="-4.1003150">
        <ele>97.0</ele>
        <time>2021-07-17T11:38:56Z</time>
      </trkpt>
      <trkpt lat="43.4103020" lon="-4.1003390">
        <ele>97.6</ele>
        <time>2021-07-17T11:38:57Z</time>
      </trkpt>
      <trkpt lat="43.4103040" lon="-4.1003660">
        <ele>98.0</ele>
        <time>2021-07-17T11:38:58Z</time>
      </trkpt>
      <trkpt lat="43.4103060" lon="-4.1003940">
        <ele>98.4</ele>
        <time>2021-07-17T11:38:59Z</time>
      </trkpt>
      <trkpt lat="43.4103070" lon="-4.1004240">
        <ele>98.4</ele>
        <time>2021-07-17T11:39:00Z</time>
      </trkpt>
      <trkpt lat="43.4103120" lon="-4.1006550">
        <ele>98.4</ele>
        <time>2021-07-17T11:39:08Z</time>
      </trkpt>
      <trkpt lat="43.4103070" lon="-4.1007190">
        <ele>98.8</ele>
        <time>2021-07-17T11:39:10Z</time>
      </trkpt>
      <trkpt lat="43.4103050" lon="-4.1007490">
        <ele>99.2</ele>
        <time>2021-07-17T11:39:11Z</time>
      </trkpt>
      <trkpt lat="43.4103040" lon="-4.1007800">
        <ele>99.6</ele>
        <time>2021-07-17T11:39:12Z</time>
      </trkpt>
      <trkpt lat="43.4103040" lon="-4.1008110">
        <ele>100.0</ele>
        <time>2021-07-17T11:39:13Z</time>
      </trkpt>
      <trkpt lat="43.4103030" lon="-4.1008420">
        <ele>100.4</ele>
        <time>2021-07-17T11:39:14Z</time>
      </trkpt>
      <trkpt lat="43.4103060" lon="-4.1009020">
        <ele>100.4</ele>
        <time>2021-07-17T11:39:16Z</time>
      </trkpt>
      <trkpt lat="43.4103020" lon="-4.1011540">
        <ele>100.4</ele>
        <time>2021-07-17T11:39:24Z</time>
      </trkpt>
      <trkpt lat="43.4103070" lon="-4.1013380">
        <ele>100.8</ele>
        <time>2021-07-17T11:39:30Z</time>
      </trkpt>
      <trkpt lat="43.4103070" lon="-4.1013660">
        <ele>101.2</ele>
        <time>2021-07-17T11:39:31Z</time>
      </trkpt>
      <trkpt lat="43.4103060" lon="-4.1013970">
        <ele>101.6</ele>
        <time>2021-07-17T11:39:32Z</time>
      </trkpt>
      <trkpt lat="43.4103070" lon="-4.1014270">
        <ele>102.0</ele>
        <time>2021-07-17T11:39:33Z</time>
      </trkpt>
      <trkpt lat="43.4103080" lon="-4.1014570">
        <ele>102.4</ele>
        <time>2021-07-17T11:39:34Z</time>
      </trkpt>
      <trkpt lat="43.4103190" lon="-4.1017260">
        <ele>102.4</ele>
        <time>2021-07-17T11:39:43Z</time>
      </trkpt>
      <trkpt lat="43.4103190" lon="-4.1017860">
        <ele>103.0</ele>
        <time>2021-07-17T11:39:45Z</time>
      </trkpt>
      <trkpt lat="43.4103220" lon="-4.1018170">
        <ele>103.4</ele>
        <time>2021-07-17T11:39:46Z</time>
      </trkpt>
      <trkpt lat="43.4103230" lon="-4.1018450">
        <ele>103.8</ele>
        <time>2021-07-17T11:39:47Z</time>
      </trkpt>
      <trkpt lat="43.4103220" lon="-4.1018780">
        <ele>104.2</ele>
        <time>2021-07-17T11:39:48Z</time>
      </trkpt>
      <trkpt lat="43.4103200" lon="-4.1019080">
        <ele>104.6</ele>
        <time>2021-07-17T11:39:49Z</time>
      </trkpt>
      <trkpt lat="43.4103210" lon="-4.1019990">
        <ele>104.6</ele>
        <time>2021-07-17T11:39:52Z</time>
      </trkpt>
      <trkpt lat="43.4103290" lon="-4.1022440">
        <ele>105.0</ele>
        <time>2021-07-17T11:40:00Z</time>
      </trkpt>
      <trkpt lat="43.4103280" lon="-4.1022750">
        <ele>105.4</ele>
        <time>2021-07-17T11:40:01Z</time>
      </trkpt>
      <trkpt lat="43.4103260" lon="-4.1023050">
        <ele>105.8</ele>
        <time>2021-07-17T11:40:02Z</time>
      </trkpt>
      <trkpt lat="43.4103240" lon="-4.1023350">
        <ele>106.4</ele>
        <time>2021-07-17T11:40:03Z</time>
      </trkpt>
      <trkpt lat="43.4103230" lon="-4.1023650">
        <ele>106.8</ele>
        <time>2021-07-17T11:40:04Z</time>
      </trkpt>
      <trkpt lat="43.4103200" lon="-4.1025700">
        <ele>106.8</ele>
        <time>2021-07-17T11:40:11Z</time>
      </trkpt>
      <trkpt lat="43.4103340" lon="-4.1028570">
        <ele>106.8</ele>
        <time>2021-07-17T11:40:20Z</time>
      </trkpt>
      <trkpt lat="43.4103360" lon="-4.1030420">
        <ele>107.2</ele>
        <time>2021-07-17T11:40:26Z</time>
      </trkpt>
      <trkpt lat="43.4103400" lon="-4.1030710">
        <ele>107.6</ele>
        <time>2021-07-17T11:40:27Z</time>
      </trkpt>
      <trkpt lat="43.4103430" lon="-4.1031010">
        <ele>108.0</ele>
        <time>2021-07-17T11:40:28Z</time>
      </trkpt>
      <trkpt lat="43.4103440" lon="-4.1031300">
        <ele>108.6</ele>
        <time>2021-07-17T11:40:29Z</time>
      </trkpt>
      <trkpt lat="43.4103450" lon="-4.1031600">
        <ele>109.0</ele>
        <time>2021-07-17T11:40:30Z</time>
      </trkpt>
      <trkpt lat="43.4103450" lon="-4.1033720">
        <ele>109.4</ele>
        <time>2021-07-17T11:40:37Z</time>
      </trkpt>
      <trkpt lat="43.4103460" lon="-4.1034010">
        <ele>109.8</ele>
        <time>2021-07-17T11:40:38Z</time>
      </trkpt>
      <trkpt lat="43.4103480" lon="-4.1034330">
        <ele>110.2</ele>
        <time>2021-07-17T11:40:39Z</time>
      </trkpt>
      <trkpt lat="43.4103480" lon="-4.1034620">
        <ele>110.6</ele>
        <time>2021-07-17T11:40:40Z</time>
      </trkpt>
      <trkpt lat="43.4103470" lon="-4.1034930">
        <ele>111.0</ele>
        <time>2021-07-17T11:40:41Z</time>
      </trkpt>
      <trkpt lat="43.4103480" lon="-4.1036080">
        <ele>111.0</ele>
        <time>2021-07-17T11:40:45Z</time>
      </trkpt>
      <trkpt lat="43.4103500" lon="-4.1037240">
        <ele>111.4</ele>
        <time>2021-07-17T11:40:49Z</time>
      </trkpt>
      <trkpt lat="43.4103460" lon="-4.1037550">
        <ele>111.8</ele>
        <time>2021-07-17T11:40:50Z</time>
      </trkpt>
      <trkpt lat="43.4103450" lon="-4.1037860">
        <ele>112.2</ele>
        <time>2021-07-17T11:40:51Z</time>
      </trkpt>
      <trkpt lat="43.4103460" lon="-4.1038160">
        <ele>112.6</ele>
        <time>2021-07-17T11:40:52Z</time>
      </trkpt>
      <trkpt lat="43.4103490" lon="-4.1038440">
        <ele>113.2</ele>
        <time>2021-07-17T11:40:53Z</time>
      </trkpt>
      <trkpt lat="43.4103520" lon="-4.1039020">
        <ele>113.2</ele>
        <time>2021-07-17T11:40:55Z</time>
      </trkpt>
      <trkpt lat="43.4103530" lon="-4.1039520">
        <ele>113.6</ele>
        <time>2021-07-17T11:40:57Z</time>
      </trkpt>
      <trkpt lat="43.4103550" lon="-4.1039800">
        <ele>114.0</ele>
        <time>2021-07-17T11:40:58Z</time>
      </trkpt>
      <trkpt lat="43.4103590" lon="-4.1040060">
        <ele>114.4</ele>
        <time>2021-07-17T11:40:59Z</time>
      </trkpt>
      <trkpt lat="43.4103630" lon="-4.1040310">
        <ele>114.8</ele>
        <time>2021-07-17T11:41:00Z</time>
      </trkpt>
      <trkpt lat="43.4103620" lon="-4.1040600">
        <ele>115.2</ele>
        <time>2021-07-17T11:41:01Z</time>
      </trkpt>
      <trkpt lat="43.4103650" lon="-4.1041430">
        <ele>115.2</ele>
        <time>2021-07-17T11:41:04Z</time>
      </trkpt>
      <trkpt lat="43.4103820" lon="-4.1042440">
        <ele>115.6</ele>
        <time>2021-07-17T11:41:08Z</time>
      </trkpt>
      <trkpt lat="43.4103830" lon="-4.1042710">
        <ele>116.0</ele>
        <time>2021-07-17T11:41:09Z</time>
      </trkpt>
      <trkpt lat="43.4103840" lon="-4.1042970">
        <ele>116.4</ele>
        <time>2021-07-17T11:41:10Z</time>
      </trkpt>
      <trkpt lat="43.4103850" lon="-4.1043230">
        <ele>116.8</ele>
        <time>2021-07-17T11:41:11Z</time>
      </trkpt>
      <trkpt lat="43.4103860" lon="-4.1043500">
        <ele>117.2</ele>
        <time>2021-07-17T11:41:12Z</time>
      </trkpt>
      <trkpt lat="43.4103880" lon="-4.1043770">
        <ele>117.2</ele>
        <time>2021-07-17T11:41:13Z</time>
      </trkpt>
      <trkpt lat="43.4104040" lon="-4.1045400">
        <ele>117.6</ele>
        <time>2021-07-17T11:41:19Z</time>
      </trkpt>
      <trkpt lat="43.4104030" lon="-4.1045670">
        <ele>118.2</ele>
        <time>2021-07-17T11:41:20Z</time>
      </trkpt>
      <trkpt lat="43.4103980" lon="-4.1045950">
        <ele>118.6</ele>
        <time>2021-07-17T11:41:21Z</time>
      </trkpt>
      <trkpt lat="43.4103940" lon="-4.1046200">
        <ele>119.4</ele>
        <time>2021-07-17T11:41:22Z</time>
      </trkpt>
      <trkpt lat="43.4103650" lon="-4.1048100">
        <ele>119.4</ele>
        <time>2021-07-17T11:41:29Z</time>
      </trkpt>
      <trkpt lat="43.4103100" lon="-4.1049890">
        <ele>119.8</ele>
        <time>2021-07-17T11:41:36Z</time>
      </trkpt>
      <trkpt lat="43.4103030" lon="-4.1050120">
        <ele>120.2</ele>
        <time>2021-07-17T11:41:37Z</time>
      </trkpt>
      <trkpt lat="43.4102950" lon="-4.1050380">
        <ele>120.6</ele>
        <time>2021-07-17T11:41:38Z</time>
      </trkpt>
      <trkpt lat="43.4102870" lon="-4.1050620">
        <ele>121.0</ele>
        <time>2021-07-17T11:41:39Z</time>
      </trkpt>
      <trkpt lat="43.4102750" lon="-4.1050850">
        <ele>121.4</ele>
        <time>2021-07-17T11:41:40Z</time>
      </trkpt>
      <trkpt lat="43.4102020" lon="-4.1052580">
        <ele>121.4</ele>
        <time>2021-07-17T11:41:47Z</time>
      </trkpt>
      <trkpt lat="43.4101290" lon="-4.1054320">
        <ele>121.8</ele>
        <time>2021-07-17T11:41:53Z</time>
      </trkpt>
      <trkpt lat="43.4101170" lon="-4.1054650">
        <ele>122.2</ele>
        <time>2021-07-17T11:41:54Z</time>
      </trkpt>
      <trkpt lat="43.4101050" lon="-4.1054970">
        <ele>122.8</ele>
        <time>2021-07-17T11:41:55Z</time>
      </trkpt>
      <trkpt lat="43.4100940" lon="-4.1055260">
        <ele>123.2</ele>
        <time>2021-07-17T11:41:56Z</time>
      </trkpt>
      <trkpt lat="43.4100860" lon="-4.1055560">
        <ele>123.6</ele>
        <time>2021-07-17T11:41:57Z</time>
      </trkpt>
      <trkpt lat="43.4100940" lon="-4.1057750">
        <ele>123.6</ele>
        <time>2021-07-17T11:42:03Z</time>
      </trkpt>
      <trkpt lat="43.4101650" lon="-4.1059740">
        <ele>124.0</ele>
        <time>2021-07-17T11:42:10Z</time>
      </trkpt>
      <trkpt lat="43.4101800" lon="-4.1060000">
        <ele>124.4</ele>
        <time>2021-07-17T11:42:11Z</time>
      </trkpt>
      <trkpt lat="43.4101960" lon="-4.1060290">
        <ele>124.8</ele>
        <time>2021-07-17T11:42:12Z</time>
      </trkpt>
      <trkpt lat="43.4102130" lon="-4.1060530">
        <ele>125.6</ele>
        <time>2021-07-17T11:42:13Z</time>
      </trkpt>
      <trkpt lat="43.4103170" lon="-4.1061790">
        <ele>125.6</ele>
        <time>2021-07-17T11:42:19Z</time>
      </trkpt>
      <trkpt lat="43.4103970" lon="-4.1062430">
        <ele>126.0</ele>
        <time>2021-07-17T11:42:23Z</time>
      </trkpt>
      <trkpt lat="43.4104190" lon="-4.1062600">
        <ele>126.4</ele>
        <time>2021-07-17T11:42:24Z</time>
      </trkpt>
      <trkpt lat="43.4104390" lon="-4.1062760">
        <ele>126.8</ele>
        <time>2021-07-17T11:42:25Z</time>
      </trkpt>
      <trkpt lat="43.4104560" lon="-4.1062900">
        <ele>127.2</ele>
        <time>2021-07-17T11:42:26Z</time>
      </trkpt>
      <trkpt lat="43.4104750" lon="-4.1063080">
        <ele>127.6</ele>
        <time>2021-07-17T11:42:27Z</time>
      </trkpt>
      <trkpt lat="43.4105160" lon="-4.1063440">
        <ele>127.6</ele>
        <time>2021-07-17T11:42:29Z</time>
      </trkpt>
      <trkpt lat="43.4106440" lon="-4.1064790">
        <ele>127.6</ele>
        <time>2021-07-17T11:42:36Z</time>
      </trkpt>
      <trkpt lat="43.4106760" lon="-4.1065290">
        <ele>128.0</ele>
        <time>2021-07-17T11:42:38Z</time>
      </trkpt>
      <trkpt lat="43.4106930" lon="-4.1065570">
        <ele>128.4</ele>
        <time>2021-07-17T11:42:39Z</time>
      </trkpt>
      <trkpt lat="43.4107070" lon="-4.1065870">
        <ele>129.0</ele>
        <time>2021-07-17T11:42:40Z</time>
      </trkpt>
      <trkpt lat="43.4107210" lon="-4.1066150">
        <ele>129.4</ele>
        <time>2021-07-17T11:42:41Z</time>
      </trkpt>
      <trkpt lat="43.4107340" lon="-4.1066400">
        <ele>129.8</ele>
        <time>2021-07-17T11:42:42Z</time>
      </trkpt>
      <trkpt lat="43.4107550" lon="-4.1066890">
        <ele>129.8</ele>
        <time>2021-07-17T11:42:44Z</time>
      </trkpt>
      <trkpt lat="43.4108080" lon="-4.1068540">
        <ele>130.2</ele>
        <time>2021-07-17T11:42:50Z</time>
      </trkpt>
      <trkpt lat="43.4108150" lon="-4.1068820">
        <ele>130.6</ele>
        <time>2021-07-17T11:42:51Z</time>
      </trkpt>
      <trkpt lat="43.4108200" lon="-4.1069080">
        <ele>131.0</ele>
        <time>2021-07-17T11:42:52Z</time>
      </trkpt>
      <trkpt lat="43.4108260" lon="-4.1069330">
        <ele>131.4</ele>
        <time>2021-07-17T11:42:53Z</time>
      </trkpt>
      <trkpt lat="43.4108320" lon="-4.1069590">
        <ele>131.8</ele>
        <time>2021-07-17T11:42:54Z</time>
      </trkpt>
      <trkpt lat="43.4108850" lon="-4.1072130">
        <ele>132.2</ele>
        <time>2021-07-17T11:43:03Z</time>
      </trkpt>
      <trkpt lat="43.4108910" lon="-4.1072440">
        <ele>132.6</ele>
        <time>2021-07-17T11:43:04Z</time>
      </trkpt>
      <trkpt lat="43.4108980" lon="-4.1072740">
        <ele>133.0</ele>
        <time>2021-07-17T11:43:05Z</time>
      </trkpt>
      <trkpt lat="43.4109050" lon="-4.1072990">
        <ele>133.4</ele>
        <time>2021-07-17T11:43:06Z</time>
      </trkpt>
      <trkpt lat="43.4109090" lon="-4.1073270">
        <ele>134.0</ele>
        <time>2021-07-17T11:43:07Z</time>
      </trkpt>
      <trkpt lat="43.4109390" lon="-4.1074430">
        <ele>134.0</ele>
        <time>2021-07-17T11:43:11Z</time>
      </trkpt>
      <trkpt lat="43.4109900" lon="-4.1076570">
        <ele>134.4</ele>
        <time>2021-07-17T11:43:19Z</time>
      </trkpt>
      <trkpt lat="43.4109960" lon="-4.1076820">
        <ele>134.8</ele>
        <time>2021-07-17T11:43:20Z</time>
      </trkpt>
      <trkpt lat="43.4109990" lon="-4.1077080">
        <ele>135.2</ele>
        <time>2021-07-17T11:43:21Z</time>
      </trkpt>
      <trkpt lat="43.4110030" lon="-4.1077320">
        <ele>135.6</ele>
        <time>2021-07-17T11:43:22Z</time>
      </trkpt>
      <trkpt lat="43.4110100" lon="-4.1077530">
        <ele>136.0</ele>
        <time>2021-07-17T11:43:23Z</time>
      </trkpt>
      <trkpt lat="43.4110300" lon="-4.1078850">
        <ele>136.0</ele>
        <time>2021-07-17T11:43:29Z</time>
      </trkpt>
      <trkpt lat="43.4110390" lon="-4.1079270">
        <ele>136.6</ele>
        <time>2021-07-17T11:43:31Z</time>
      </trkpt>
      <trkpt lat="43.4110430" lon="-4.1079470">
        <ele>137.0</ele>
        <time>2021-07-17T11:43:32Z</time>
      </trkpt>
      <trkpt lat="43.4110450" lon="-4.1079660">
        <ele>137.4</ele>
        <time>2021-07-17T11:43:33Z</time>
      </trkpt>
      <trkpt lat="43.4110460" lon="-4.1079880">
        <ele>137.8</ele>
        <time>2021-07-17T11:43:34Z</time>
      </trkpt>
      <trkpt lat="43.4110470" lon="-4.1080100">
        <ele>138.2</ele>
        <time>2021-07-17T11:43:35Z</time>
      </trkpt>
      <trkpt lat="43.4110510" lon="-4.1080710">
        <ele>138.2</ele>
        <time>2021-07-17T11:43:38Z</time>
      </trkpt>
      <trkpt lat="43.4110440" lon="-4.1081730">
        <ele>138.6</ele>
        <time>2021-07-17T11:43:43Z</time>
      </trkpt>
      <trkpt lat="43.4110410" lon="-4.1081870">
        <ele>139.0</ele>
        <time>2021-07-17T11:43:44Z</time>
      </trkpt>
      <trkpt lat="43.4110340" lon="-4.1082020">
        <ele>139.4</ele>
        <time>2021-07-17T11:43:45Z</time>
      </trkpt>
      <trkpt lat="43.4110250" lon="-4.1082170">
        <ele>140.0</ele>
        <time>2021-07-17T11:43:46Z</time>
      </trkpt>
      <trkpt lat="43.4110140" lon="-4.1082310">
        <ele>140.4</ele>
        <time>2021-07-17T11:43:47Z</time>
      </trkpt>
      <trkpt lat="43.4109420" lon="-4.1083040">
        <ele>140.8</ele>
        <time>2021-07-17T11:43:53Z</time>
      </trkpt>
      <trkpt lat="43.4109260" lon="-4.1083130">
        <ele>141.2</ele>
        <time>2021-07-17T11:43:54Z</time>
      </trkpt>
      <trkpt lat="43.4109110" lon="-4.1083250">
        <ele>141.6</ele>
        <time>2021-07-17T11:43:55Z</time>
      </trkpt>
      <trkpt lat="43.4108970" lon="-4.1083330">
        <ele>142.0</ele>
        <time>2021-07-17T11:43:56Z</time>
      </trkpt>
      <trkpt lat="43.4108830" lon="-4.1083350">
        <ele>142.4</ele>
        <time>2021-07-17T11:43:57Z</time>
      </trkpt>
      <trkpt lat="43.4108340" lon="-4.1083380">
        <ele>142.4</ele>
        <time>2021-07-17T11:44:00Z</time>
      </trkpt>
      <trkpt lat="43.4107480" lon="-4.1083220">
        <ele>142.8</ele>
        <time>2021-07-17T11:44:06Z</time>
      </trkpt>
      <trkpt lat="43.4107340" lon="-4.1083100">
        <ele>143.2</ele>
        <time>2021-07-17T11:44:07Z</time>
      </trkpt>
      <trkpt lat="43.4107160" lon="-4.1082960">
        <ele>143.6</ele>
        <time>2021-07-17T11:44:08Z</time>
      </trkpt>
      <trkpt lat="43.4106970" lon="-4.1082780">
        <ele>144.2</ele>
        <time>2021-07-17T11:44:09Z</time>
      </trkpt>
      <trkpt lat="43.4106800" lon="-4.1082550">
        <ele>144.6</ele>
        <time>2021-07-17T11:44:10Z</time>
      </trkpt>
      <trkpt lat="43.4106120" lon="-4.1081660">
        <ele>144.6</ele>
        <time>2021-07-17T11:44:15Z</time>
      </trkpt>
      <trkpt lat="43.4105990" lon="-4.1081480">
        <ele>145.0</ele>
        <time>2021-07-17T11:44:16Z</time>
      </trkpt>
      <trkpt lat="43.4105900" lon="-4.1081280">
        <ele>145.4</ele>
        <time>2021-07-17T11:44:17Z</time>
      </trkpt>
      <trkpt lat="43.4105820" lon="-4.1081040">
        <ele>145.8</ele>
        <time>2021-07-17T11:44:18Z</time>
      </trkpt>
      <trkpt lat="43.4105730" lon="-4.1080790">
        <ele>146.2</ele>
        <time>2021-07-17T11:44:19Z</time>
      </trkpt>
      <trkpt lat="43.4105660" lon="-4.1080530">
        <ele>146.6</ele>
        <time>2021-07-17T11:44:20Z</time>
      </trkpt>
      <trkpt lat="43.4105510" lon="-4.1080060">
        <ele>146.6</ele>
        <time>2021-07-17T11:44:22Z</time>
      </trkpt>
      <trkpt lat="43.4104820" lon="-4.1078070">
        <ele>146.6</ele>
        <time>2021-07-17T11:44:31Z</time>
      </trkpt>
      <trkpt lat="43.4104660" lon="-4.1077640">
        <ele>147.0</ele>
        <time>2021-07-17T11:44:33Z</time>
      </trkpt>
      <trkpt lat="43.4104570" lon="-4.1077410">
        <ele>147.4</ele>
        <time>2021-07-17T11:44:34Z</time>
      </trkpt>
      <trkpt lat="43.4104500" lon="-4.1077180">
        <ele>147.8</ele>
        <time>2021-07-17T11:44:35Z</time>
      </trkpt>
      <trkpt lat="43.4104430" lon="-4.1076980">
        <ele>148.2</ele>
        <time>2021-07-17T11:44:36Z</time>
      </trkpt>
      <trkpt lat="43.4104360" lon="-4.1076810">
        <ele>148.6</ele>
        <time>2021-07-17T11:44:37Z</time>
      </trkpt>
      <trkpt lat="43.4104210" lon="-4.1076350">
        <ele>148.6</ele>
        <time>2021-07-17T11:44:39Z</time>
      </trkpt>
      <trkpt lat="43.4103490" lon="-4.1074370">
        <ele>148.6</ele>
        <time>2021-07-17T11:44:47Z</time>
      </trkpt>
      <trkpt lat="43.4103180" lon="-4.1073430">
        <ele>149.0</ele>
        <time>2021-07-17T11:44:51Z</time>
      </trkpt>
      <trkpt lat="43.4103100" lon="-4.1073210">
        <ele>149.4</ele>
        <time>2021-07-17T11:44:52Z</time>
      </trkpt>
      <trkpt lat="43.4103000" lon="-4.1072950">
        <ele>149.8</ele>
        <time>2021-07-17T11:44:53Z</time>
      </trkpt>
      <trkpt lat="43.4102920" lon="-4.1072680">
        <ele>150.2</ele>
        <time>2021-07-17T11:44:54Z</time>
      </trkpt>
      <trkpt lat="43.4102840" lon="-4.1072420">
        <ele>150.6</ele>
        <time>2021-07-17T11:44:55Z</time>
      </trkpt>
      <trkpt lat="43.4102110" lon="-4.1070670">
        <ele>150.6</ele>
        <time>2021-07-17T11:45:02Z</time>
      </trkpt>
      <trkpt lat="43.4101540" lon="-4.1069840">
        <ele>151.0</ele>
        <time>2021-07-17T11:45:06Z</time>
      </trkpt>
      <trkpt lat="43.4101370" lon="-4.1069690">
        <ele>151.4</ele>
        <time>2021-07-17T11:45:07Z</time>
      </trkpt>
      <trkpt lat="43.4101220" lon="-4.1069550">
        <ele>152.0</ele>
        <time>2021-07-17T11:45:08Z</time>
      </trkpt>
      <trkpt lat="43.4101060" lon="-4.1069410">
        <ele>152.4</ele>
        <time>2021-07-17T11:45:09Z</time>
      </trkpt>
      <trkpt lat="43.4100880" lon="-4.1069250">
        <ele>152.8</ele>
        <time>2021-07-17T11:45:10Z</time>
      </trkpt>
      <trkpt lat="43.4099430" lon="-4.1068400">
        <ele>152.8</ele>
        <time>2021-07-17T11:45:18Z</time>
      </trkpt>
      <trkpt lat="43.4098820" lon="-4.1068250">
        <ele>153.2</ele>
        <time>2021-07-17T11:45:21Z</time>
      </trkpt>
      <trkpt lat="43.4098630" lon="-4.1068250">
        <ele>153.6</ele>
        <time>2021-07-17T11:45:22Z</time>
      </trkpt>
      <trkpt lat="43.4098440" lon="-4.1068210">
        <ele>154.0</ele>
        <time>2021-07-17T11:45:23Z</time>
      </trkpt>
      <trkpt lat="43.4098240" lon="-4.1068130">
        <ele>154.4</ele>
        <time>2021-07-17T11:45:24Z</time>
      </trkpt>
      <trkpt lat="43.4098060" lon="-4.1068080">
        <ele>154.8</ele>
        <time>2021-07-17T11:45:25Z</time>
      </trkpt>
      <trkpt lat="43.4096310" lon="-4.1068010">
        <ele>154.8</ele>
        <time>2021-07-17T11:45:34Z</time>
      </trkpt>
      <trkpt lat="43.4095580" lon="-4.1067910">
        <ele>155.2</ele>
        <time>2021-07-17T11:45:38Z</time>
      </trkpt>
      <trkpt lat="43.4095400" lon="-4.1067930">
        <ele>155.6</ele>
        <time>2021-07-17T11:45:39Z</time>
      </trkpt>
      <trkpt lat="43.4095220" lon="-4.1067930">
        <ele>156.0</ele>
        <time>2021-07-17T11:45:40Z</time>
      </trkpt>
      <trkpt lat="43.4095030" lon="-4.1067920">
        <ele>156.4</ele>
        <time>2021-07-17T11:45:41Z</time>
      </trkpt>
      <trkpt lat="43.4094830" lon="-4.1067930">
        <ele>156.8</ele>
        <time>2021-07-17T11:45:42Z</time>
      </trkpt>
      <trkpt lat="43.4094670" lon="-4.1067910">
        <ele>156.8</ele>
        <time>2021-07-17T11:45:43Z</time>
      </trkpt>
      <trkpt lat="43.4093240" lon="-4.1067570">
        <ele>157.2</ele>
        <time>2021-07-17T11:45:51Z</time>
      </trkpt>
      <trkpt lat="43.4093060" lon="-4.1067490">
        <ele>157.8</ele>
        <time>2021-07-17T11:45:52Z</time>
      </trkpt>
      <trkpt lat="43.4092910" lon="-4.1067420">
        <ele>158.2</ele>
        <time>2021-07-17T11:45:53Z</time>
      </trkpt>
      <trkpt lat="43.4092750" lon="-4.1067390">
        <ele>158.6</ele>
        <time>2021-07-17T11:45:54Z</time>
      </trkpt>
      <trkpt lat="43.4092570" lon="-4.1067330">
        <ele>159.0</ele>
        <time>2021-07-17T11:45:55Z</time>
      </trkpt>
      <trkpt lat="43.4092080" lon="-4.1067180">
        <ele>159.0</ele>
        <time>2021-07-17T11:45:58Z</time>
      </trkpt>
      <trkpt lat="43.4090620" lon="-4.1067020">
        <ele>159.4</ele>
        <time>2021-07-17T11:46:06Z</time>
      </trkpt>
      <trkpt lat="43.4090430" lon="-4.1067000">
        <ele>159.8</ele>
        <time>2021-07-17T11:46:07Z</time>
      </trkpt>
      <trkpt lat="43.4090240" lon="-4.1066960">
        <ele>160.2</ele>
        <time>2021-07-17T11:46:08Z</time>
      </trkpt>
      <trkpt lat="43.4090040" lon="-4.1066920">
        <ele>160.6</ele>
        <time>2021-07-17T11:46:09Z</time>
      </trkpt>
      <trkpt lat="43.4089850" lon="-4.1066850">
        <ele>161.0</ele>
        <time>2021-07-17T11:46:10Z</time>
      </trkpt>
      <trkpt lat="43.4088670" lon="-4.1067030">
        <ele>161.0</ele>
        <time>2021-07-17T11:46:16Z</time>
      </trkpt>
      <trkpt lat="43.4086880" lon="-4.1067450">
        <ele>161.0</ele>
        <time>2021-07-17T11:46:24Z</time>
      </trkpt>
      <trkpt lat="43.4086670" lon="-4.1067540">
        <ele>161.4</ele>
        <time>2021-07-17T11:46:25Z</time>
      </trkpt>
      <trkpt lat="43.4086460" lon="-4.1067620">
        <ele>161.8</ele>
        <time>2021-07-17T11:46:26Z</time>
      </trkpt>
      <trkpt lat="43.4086240" lon="-4.1067700">
        <ele>162.2</ele>
        <time>2021-07-17T11:46:27Z</time>
      </trkpt>
      <trkpt lat="43.4086000" lon="-4.1067780">
        <ele>162.8</ele>
        <time>2021-07-17T11:46:28Z</time>
      </trkpt>
      <trkpt lat="43.4085790" lon="-4.1067830">
        <ele>163.2</ele>
        <time>2021-07-17T11:46:29Z</time>
      </trkpt>
      <trkpt lat="43.4085310" lon="-4.1067970">
        <ele>163.2</ele>
        <time>2021-07-17T11:46:31Z</time>
      </trkpt>
      <trkpt lat="43.4083430" lon="-4.1068730">
        <ele>163.2</ele>
        <time>2021-07-17T11:46:39Z</time>
      </trkpt>
      <trkpt lat="43.4081900" lon="-4.1069230">
        <ele>163.2</ele>
        <time>2021-07-17T11:46:45Z</time>
      </trkpt>
      <trkpt lat="43.4081340" lon="-4.1069390">
        <ele>163.2</ele>
        <time>2021-07-17T11:46:47Z</time>
      </trkpt>
      <trkpt lat="43.4080840" lon="-4.1069490">
        <ele>163.6</ele>
        <time>2021-07-17T11:46:49Z</time>
      </trkpt>
      <trkpt lat="43.4080610" lon="-4.1069570">
        <ele>164.0</ele>
        <time>2021-07-17T11:46:50Z</time>
      </trkpt>
      <trkpt lat="43.4080390" lon="-4.1069640">
        <ele>164.4</ele>
        <time>2021-07-17T11:46:51Z</time>
      </trkpt>
      <trkpt lat="43.4080160" lon="-4.1069700">
        <ele>164.8</ele>
        <time>2021-07-17T11:46:52Z</time>
      </trkpt>
      <trkpt lat="43.4079940" lon="-4.1069750">
        <ele>165.2</ele>
        <time>2021-07-17T11:46:53Z</time>
      </trkpt>
      <trkpt lat="43.4077860" lon="-4.1070320">
        <ele>165.2</ele>
        <time>2021-07-17T11:47:02Z</time>
      </trkpt>
      <trkpt lat="43.4077160" lon="-4.1070510">
        <ele>165.6</ele>
        <time>2021-07-17T11:47:05Z</time>
      </trkpt>
      <trkpt lat="43.4076910" lon="-4.1070590">
        <ele>166.2</ele>
        <time>2021-07-17T11:47:06Z</time>
      </trkpt>
      <trkpt lat="43.4076710" lon="-4.1070670">
        <ele>166.6</ele>
        <time>2021-07-17T11:47:07Z</time>
      </trkpt>
      <trkpt lat="43.4076470" lon="-4.1070700">
        <ele>167.4</ele>
        <time>2021-07-17T11:47:08Z</time>
      </trkpt>
      <trkpt lat="43.4076000" lon="-4.1070680">
        <ele>167.4</ele>
        <time>2021-07-17T11:47:10Z</time>
      </trkpt>
      <trkpt lat="43.4074570" lon="-4.1069880">
        <ele>167.4</ele>
        <time>2021-07-17T11:47:17Z</time>
      </trkpt>
      <trkpt lat="43.4073830" lon="-4.1069100">
        <ele>167.8</ele>
        <time>2021-07-17T11:47:21Z</time>
      </trkpt>
      <trkpt lat="43.4073650" lon="-4.1068930">
        <ele>168.2</ele>
        <time>2021-07-17T11:47:22Z</time>
      </trkpt>
      <trkpt lat="43.4073480" lon="-4.1068740">
        <ele>168.8</ele>
        <time>2021-07-17T11:47:23Z</time>
      </trkpt>
      <trkpt lat="43.4073330" lon="-4.1068530">
        <ele>169.2</ele>
        <time>2021-07-17T11:47:24Z</time>
      </trkpt>
      <trkpt lat="43.4073170" lon="-4.1068310">
        <ele>169.6</ele>
        <time>2021-07-17T11:47:25Z</time>
      </trkpt>
      <trkpt lat="43.4072160" lon="-4.1067050">
        <ele>170.0</ele>
        <time>2021-07-17T11:47:31Z</time>
      </trkpt>
      <trkpt lat="43.4071990" lon="-4.1066840">
        <ele>170.4</ele>
        <time>2021-07-17T11:47:32Z</time>
      </trkpt>
      <trkpt lat="43.4071790" lon="-4.1066630">
        <ele>171.2</ele>
        <time>2021-07-17T11:47:33Z</time>
      </trkpt>
      <trkpt lat="43.4071610" lon="-4.1066430">
        <ele>171.6</ele>
        <time>2021-07-17T11:47:34Z</time>
      </trkpt>
      <trkpt lat="43.4070540" lon="-4.1065400">
        <ele>172.0</ele>
        <time>2021-07-17T11:47:40Z</time>
      </trkpt>
      <trkpt lat="43.4070340" lon="-4.1065260">
        <ele>172.4</ele>
        <time>2021-07-17T11:47:41Z</time>
      </trkpt>
      <trkpt lat="43.4070100" lon="-4.1065120">
        <ele>172.8</ele>
        <time>2021-07-17T11:47:42Z</time>
      </trkpt>
      <trkpt lat="43.4069860" lon="-4.1065010">
        <ele>173.2</ele>
        <time>2021-07-17T11:47:43Z</time>
      </trkpt>
      <trkpt lat="43.4069640" lon="-4.1064890">
        <ele>173.6</ele>
        <time>2021-07-17T11:47:44Z</time>
      </trkpt>
      <trkpt lat="43.4068590" lon="-4.1064870">
        <ele>173.6</ele>
        <time>2021-07-17T11:47:48Z</time>
      </trkpt>
      <trkpt lat="43.4067000" lon="-4.1065660">
        <ele>173.6</ele>
        <time>2021-07-17T11:47:54Z</time>
      </trkpt>
      <trkpt lat="43.4064890" lon="-4.1066640">
        <ele>173.6</ele>
        <time>2021-07-17T11:48:02Z</time>
      </trkpt>
      <trkpt lat="43.4062760" lon="-4.1067580">
        <ele>173.6</ele>
        <time>2021-07-17T11:48:10Z</time>
      </trkpt>
      <trkpt lat="43.4060680" lon="-4.1068670">
        <ele>173.6</ele>
        <time>2021-07-17T11:48:16Z</time>
      </trkpt>
      <trkpt lat="43.4059530" lon="-4.1069260">
        <ele>173.6</ele>
        <time>2021-07-17T11:48:19Z</time>
      </trkpt>
      <trkpt lat="43.4058730" lon="-4.1069700">
        <ele>173.6</ele>
        <time>2021-07-17T11:48:21Z</time>
      </trkpt>
      <trkpt lat="43.4057870" lon="-4.1070120">
        <ele>173.6</ele>
        <time>2021-07-17T11:48:23Z</time>
      </trkpt>
      <trkpt lat="43.4056560" lon="-4.1070750">
        <ele>173.6</ele>
        <time>2021-07-17T11:48:26Z</time>
      </trkpt>
      <trkpt lat="43.4054590" lon="-4.1071480">
        <ele>173.6</ele>
        <time>2021-07-17T11:48:30Z</time>
      </trkpt>
      <trkpt lat="43.4052560" lon="-4.1072380">
        <ele>173.6</ele>
        <time>2021-07-17T11:48:35Z</time>
      </trkpt>
      <trkpt lat="43.4052250" lon="-4.1072530">
        <ele>173.6</ele>
        <time>2021-07-17T11:48:36Z</time>
      </trkpt>
      <trkpt lat="43.4050430" lon="-4.1073460">
        <ele>173.6</ele>
        <time>2021-07-17T11:48:43Z</time>
      </trkpt>
      <trkpt lat="43.4050190" lon="-4.1073640">
        <ele>174.0</ele>
        <time>2021-07-17T11:48:44Z</time>
      </trkpt>
      <trkpt lat="43.4049980" lon="-4.1073840">
        <ele>174.4</ele>
        <time>2021-07-17T11:48:45Z</time>
      </trkpt>
      <trkpt lat="43.4049820" lon="-4.1074070">
        <ele>174.8</ele>
        <time>2021-07-17T11:48:46Z</time>
      </trkpt>
      <trkpt lat="43.4049730" lon="-4.1074270">
        <ele>175.2</ele>
        <time>2021-07-17T11:48:47Z</time>
      </trkpt>
      <trkpt lat="43.4049570" lon="-4.1074510">
        <ele>175.6</ele>
        <time>2021-07-17T11:48:48Z</time>
      </trkpt>
      <trkpt lat="43.4049370" lon="-4.1074740">
        <ele>175.6</ele>
        <time>2021-07-17T11:48:49Z</time>
      </trkpt>
      <trkpt lat="43.4048830" lon="-4.1075480">
        <ele>175.6</ele>
        <time>2021-07-17T11:48:52Z</time>
      </trkpt>
      <trkpt lat="43.4048070" lon="-4.1076570">
        <ele>175.6</ele>
        <time>2021-07-17T11:48:56Z</time>
      </trkpt>
      <trkpt lat="43.4047910" lon="-4.1076860">
        <ele>176.0</ele>
        <time>2021-07-17T11:48:57Z</time>
      </trkpt>
      <trkpt lat="43.4047760" lon="-4.1077140">
        <ele>176.4</ele>
        <time>2021-07-17T11:48:58Z</time>
      </trkpt>
      <trkpt lat="43.4047590" lon="-4.1077410">
        <ele>176.8</ele>
        <time>2021-07-17T11:48:59Z</time>
      </trkpt>
      <trkpt lat="43.4047430" lon="-4.1077670">
        <ele>177.2</ele>
        <time>2021-07-17T11:49:00Z</time>
      </trkpt>
      <trkpt lat="43.4047270" lon="-4.1077940">
        <ele>177.6</ele>
        <time>2021-07-17T11:49:01Z</time>
      </trkpt>
      <trkpt lat="43.4046570" lon="-4.1079160">
        <ele>177.6</ele>
        <time>2021-07-17T11:49:05Z</time>
      </trkpt>
      <trkpt lat="43.4045230" lon="-4.1082050">
        <ele>177.6</ele>
        <time>2021-07-17T11:49:14Z</time>
      </trkpt>
      <trkpt lat="43.4044630" lon="-4.1083310">
        <ele>178.0</ele>
        <time>2021-07-17T11:49:18Z</time>
      </trkpt>
      <trkpt lat="43.4044500" lon="-4.1083620">
        <ele>178.6</ele>
        <time>2021-07-17T11:49:19Z</time>
      </trkpt>
      <trkpt lat="43.4044360" lon="-4.1083960">
        <ele>179.0</ele>
        <time>2021-07-17T11:49:20Z</time>
      </trkpt>
      <trkpt lat="43.4044220" lon="-4.1084270">
        <ele>179.4</ele>
        <time>2021-07-17T11:49:21Z</time>
      </trkpt>
      <trkpt lat="43.4044080" lon="-4.1084560">
        <ele>179.8</ele>
        <time>2021-07-17T11:49:22Z</time>
      </trkpt>
      <trkpt lat="43.4042990" lon="-4.1086880">
        <ele>179.8</ele>
        <time>2021-07-17T11:49:30Z</time>
      </trkpt>
      <trkpt lat="43.4042190" lon="-4.1088540">
        <ele>180.2</ele>
        <time>2021-07-17T11:49:36Z</time>
      </trkpt>
      <trkpt lat="43.4042040" lon="-4.1088830">
        <ele>181.0</ele>
        <time>2021-07-17T11:49:37Z</time>
      </trkpt>
      <trkpt lat="43.4041910" lon="-4.1089130">
        <ele>181.6</ele>
        <time>2021-07-17T11:49:38Z</time>
      </trkpt>
      <trkpt lat="43.4041780" lon="-4.1089350">
        <ele>182.0</ele>
        <time>2021-07-17T11:49:39Z</time>
      </trkpt>
      <trkpt lat="43.4041100" lon="-4.1090680">
        <ele>182.0</ele>
        <time>2021-07-17T11:49:44Z</time>
      </trkpt>
      <trkpt lat="43.4040400" lon="-4.1091450">
        <ele>182.4</ele>
        <time>2021-07-17T11:49:48Z</time>
      </trkpt>
      <trkpt lat="43.4040200" lon="-4.1091580">
        <ele>182.8</ele>
        <time>2021-07-17T11:49:49Z</time>
      </trkpt>
      <trkpt lat="43.4039980" lon="-4.1091730">
        <ele>183.2</ele>
        <time>2021-07-17T11:49:50Z</time>
      </trkpt>
      <trkpt lat="43.4039760" lon="-4.1091880">
        <ele>183.6</ele>
        <time>2021-07-17T11:49:51Z</time>
      </trkpt>
      <trkpt lat="43.4039560" lon="-4.1092020">
        <ele>184.0</ele>
        <time>2021-07-17T11:49:52Z</time>
      </trkpt>
      <trkpt lat="43.4037660" lon="-4.1092720">
        <ele>184.0</ele>
        <time>2021-07-17T11:50:00Z</time>
      </trkpt>
      <trkpt lat="43.4035720" lon="-4.1092580">
        <ele>184.0</ele>
        <time>2021-07-17T11:50:07Z</time>
      </trkpt>
      <trkpt lat="43.4034570" lon="-4.1091400">
        <ele>184.0</ele>
        <time>2021-07-17T11:50:12Z</time>
      </trkpt>
      <trkpt lat="43.4034150" lon="-4.1089840">
        <ele>184.4</ele>
        <time>2021-07-17T11:50:16Z</time>
      </trkpt>
      <trkpt lat="43.4034100" lon="-4.1089440">
        <ele>184.8</ele>
        <time>2021-07-17T11:50:17Z</time>
      </trkpt>
      <trkpt lat="43.4034070" lon="-4.1088980">
        <ele>185.2</ele>
        <time>2021-07-17T11:50:18Z</time>
      </trkpt>
      <trkpt lat="43.4034060" lon="-4.1088490">
        <ele>185.6</ele>
        <time>2021-07-17T11:50:19Z</time>
      </trkpt>
      <trkpt lat="43.4034060" lon="-4.1088020">
        <ele>186.0</ele>
        <time>2021-07-17T11:50:20Z</time>
      </trkpt>
      <trkpt lat="43.4033870" lon="-4.1086820">
        <ele>186.0</ele>
        <time>2021-07-17T11:50:23Z</time>
      </trkpt>
      <trkpt lat="43.4033810" lon="-4.1086410">
        <ele>186.0</ele>
        <time>2021-07-17T11:50:24Z</time>
      </trkpt>
      <trkpt lat="43.4033430" lon="-4.1083120">
        <ele>186.0</ele>
        <time>2021-07-17T11:50:33Z</time>
      </trkpt>
      <trkpt lat="43.4033130" lon="-4.1082130">
        <ele>186.4</ele>
        <time>2021-07-17T11:50:36Z</time>
      </trkpt>
      <trkpt lat="43.4033040" lon="-4.1081840">
        <ele>186.8</ele>
        <time>2021-07-17T11:50:37Z</time>
      </trkpt>
      <trkpt lat="43.4032930" lon="-4.1081560">
        <ele>187.2</ele>
        <time>2021-07-17T11:50:38Z</time>
      </trkpt>
      <trkpt lat="43.4032830" lon="-4.1081280">
        <ele>187.6</ele>
        <time>2021-07-17T11:50:39Z</time>
      </trkpt>
      <trkpt lat="43.4032730" lon="-4.1081020">
        <ele>188.0</ele>
        <time>2021-07-17T11:50:40Z</time>
      </trkpt>
      <trkpt lat="43.4032610" lon="-4.1080750">
        <ele>188.0</ele>
        <time>2021-07-17T11:50:41Z</time>
      </trkpt>
      <trkpt lat="43.4031640" lon="-4.1078790">
        <ele>188.0</ele>
        <time>2021-07-17T11:50:49Z</time>
      </trkpt>
      <trkpt lat="43.4031450" lon="-4.1078350">
        <ele>188.4</ele>
        <time>2021-07-17T11:50:51Z</time>
      </trkpt>
      <trkpt lat="43.4031360" lon="-4.1078160">
        <ele>188.8</ele>
        <time>2021-07-17T11:50:52Z</time>
      </trkpt>
      <trkpt lat="43.4031270" lon="-4.1077980">
        <ele>189.2</ele>
        <time>2021-07-17T11:50:53Z</time>
      </trkpt>
      <trkpt lat="43.4031140" lon="-4.1077800">
        <ele>189.6</ele>
        <time>2021-07-17T11:50:54Z</time>
      </trkpt>
      <trkpt lat="43.4031040" lon="-4.1077560">
        <ele>190.2</ele>
        <time>2021-07-17T11:50:55Z</time>
      </trkpt>
      <trkpt lat="43.4030870" lon="-4.1077020">
        <ele>190.2</ele>
        <time>2021-07-17T11:50:57Z</time>
      </trkpt>
      <trkpt lat="43.4030210" lon="-4.1075870">
        <ele>190.2</ele>
        <time>2021-07-17T11:51:02Z</time>
      </trkpt>
      <trkpt lat="43.4029900" lon="-4.1075510">
        <ele>190.6</ele>
        <time>2021-07-17T11:51:04Z</time>
      </trkpt>
      <trkpt lat="43.4029730" lon="-4.1075320">
        <ele>191.0</ele>
        <time>2021-07-17T11:51:05Z</time>
      </trkpt>
      <trkpt lat="43.4029560" lon="-4.1075190">
        <ele>191.4</ele>
        <time>2021-07-17T11:51:06Z</time>
      </trkpt>
      <trkpt lat="43.4029400" lon="-4.1075050">
        <ele>191.8</ele>
        <time>2021-07-17T11:51:07Z</time>
      </trkpt>
      <trkpt lat="43.4029220" lon="-4.1074950">
        <ele>192.2</ele>
        <time>2021-07-17T11:51:08Z</time>
      </trkpt>
      <trkpt lat="43.4028600" lon="-4.1074820">
        <ele>192.2</ele>
        <time>2021-07-17T11:51:11Z</time>
      </trkpt>
      <trkpt lat="43.4026950" lon="-4.1075010">
        <ele>192.2</ele>
        <time>2021-07-17T11:51:18Z</time>
      </trkpt>
      <trkpt lat="43.4025300" lon="-4.1076460">
        <ele>192.2</ele>
        <time>2021-07-17T11:51:25Z</time>
      </trkpt>
      <trkpt lat="43.4023600" lon="-4.1078540">
        <ele>192.2</ele>
        <time>2021-07-17T11:51:31Z</time>
      </trkpt>
      <trkpt lat="43.4021530" lon="-4.1081060">
        <ele>192.2</ele>
        <time>2021-07-17T11:51:37Z</time>
      </trkpt>
      <trkpt lat="43.4021170" lon="-4.1081500">
        <ele>192.2</ele>
        <time>2021-07-17T11:51:38Z</time>
      </trkpt>
      <trkpt lat="43.4020050" lon="-4.1082980">
        <ele>192.2</ele>
        <time>2021-07-17T11:51:41Z</time>
      </trkpt>
      <trkpt lat="43.4018770" lon="-4.1084560">
        <ele>192.2</ele>
        <time>2021-07-17T11:51:44Z</time>
      </trkpt>
      <trkpt lat="43.4017470" lon="-4.1086330">
        <ele>192.2</ele>
        <time>2021-07-17T11:51:47Z</time>
      </trkpt>
      <trkpt lat="43.4015990" lon="-4.1088250">
        <ele>192.2</ele>
        <time>2021-07-17T11:51:50Z</time>
      </trkpt>
      <trkpt lat="43.4015490" lon="-4.1088930">
        <ele>192.2</ele>
        <time>2021-07-17T11:51:51Z</time>
      </trkpt>
      <trkpt lat="43.4013870" lon="-4.1090970">
        <ele>192.2</ele>
        <time>2021-07-17T11:51:54Z</time>
      </trkpt>
      <trkpt lat="43.4012820" lon="-4.1092280">
        <ele>191.8</ele>
        <time>2021-07-17T11:51:56Z</time>
      </trkpt>
      <trkpt lat="43.4012340" lon="-4.1092910">
        <ele>191.4</ele>
        <time>2021-07-17T11:51:57Z</time>
      </trkpt>
      <trkpt lat="43.4011840" lon="-4.1093570">
        <ele>191.0</ele>
        <time>2021-07-17T11:51:58Z</time>
      </trkpt>
      <trkpt lat="43.4011330" lon="-4.1094180">
        <ele>190.6</ele>
        <time>2021-07-17T11:51:59Z</time>
      </trkpt>
      <trkpt lat="43.4010810" lon="-4.1094760">
        <ele>190.0</ele>
        <time>2021-07-17T11:52:00Z</time>
      </trkpt>
      <trkpt lat="43.4010380" lon="-4.1095250">
        <ele>189.6</ele>
        <time>2021-07-17T11:52:01Z</time>
      </trkpt>
      <trkpt lat="43.4010030" lon="-4.1095690">
        <ele>189.2</ele>
        <time>2021-07-17T11:52:02Z</time>
      </trkpt>
      <trkpt lat="43.4009730" lon="-4.1096080">
        <ele>188.8</ele>
        <time>2021-07-17T11:52:03Z</time>
      </trkpt>
      <trkpt lat="43.4009480" lon="-4.1096430">
        <ele>188.0</ele>
        <time>2021-07-17T11:52:04Z</time>
      </trkpt>
      <trkpt lat="43.4009280" lon="-4.1096750">
        <ele>187.6</ele>
        <time>2021-07-17T11:52:05Z</time>
      </trkpt>
      <trkpt lat="43.4009050" lon="-4.1097150">
        <ele>187.0</ele>
        <time>2021-07-17T11:52:06Z</time>
      </trkpt>
      <trkpt lat="43.4008810" lon="-4.1097490">
        <ele>186.6</ele>
        <time>2021-07-17T11:52:07Z</time>
      </trkpt>
      <trkpt lat="43.4008540" lon="-4.1097870">
        <ele>186.2</ele>
        <time>2021-07-17T11:52:08Z</time>
      </trkpt>
      <trkpt lat="43.4008250" lon="-4.1098260">
        <ele>185.8</ele>
        <time>2021-07-17T11:52:09Z</time>
      </trkpt>
      <trkpt lat="43.4006650" lon="-4.1100250">
        <ele>185.8</ele>
        <time>2021-07-17T11:52:13Z</time>
      </trkpt>
      <trkpt lat="43.4005680" lon="-4.1101480">
        <ele>185.4</ele>
        <time>2021-07-17T11:52:15Z</time>
      </trkpt>
      <trkpt lat="43.4005170" lon="-4.1102140">
        <ele>185.0</ele>
        <time>2021-07-17T11:52:16Z</time>
      </trkpt>
      <trkpt lat="43.4004630" lon="-4.1102820">
        <ele>184.6</ele>
        <time>2021-07-17T11:52:17Z</time>
      </trkpt>
      <trkpt lat="43.4004070" lon="-4.1103530">
        <ele>184.2</ele>
        <time>2021-07-17T11:52:18Z</time>
      </trkpt>
      <trkpt lat="43.4003470" lon="-4.1104260">
        <ele>183.8</ele>
        <time>2021-07-17T11:52:19Z</time>
      </trkpt>
      <trkpt lat="43.4001610" lon="-4.1106650">
        <ele>183.4</ele>
        <time>2021-07-17T11:52:22Z</time>
      </trkpt>
      <trkpt lat="43.4000980" lon="-4.1107470">
        <ele>183.0</ele>
        <time>2021-07-17T11:52:23Z</time>
      </trkpt>
      <trkpt lat="43.4000360" lon="-4.1108260">
        <ele>182.6</ele>
        <time>2021-07-17T11:52:24Z</time>
      </trkpt>
      <trkpt lat="43.3999750" lon="-4.1109080">
        <ele>182.2</ele>
        <time>2021-07-17T11:52:25Z</time>
      </trkpt>
      <trkpt lat="43.3999120" lon="-4.1109890">
        <ele>181.8</ele>
        <time>2021-07-17T11:52:26Z</time>
      </trkpt>
      <trkpt lat="43.3998510" lon="-4.1110680">
        <ele>181.4</ele>
        <time>2021-07-17T11:52:27Z</time>
      </trkpt>
      <trkpt lat="43.3997850" lon="-4.1111520">
        <ele>180.8</ele>
        <time>2021-07-17T11:52:28Z</time>
      </trkpt>
      <trkpt lat="43.3997210" lon="-4.1112330">
        <ele>180.0</ele>
        <time>2021-07-17T11:52:29Z</time>
      </trkpt>
      <trkpt lat="43.3996580" lon="-4.1113120">
        <ele>179.6</ele>
        <time>2021-07-17T11:52:30Z</time>
      </trkpt>
      <trkpt lat="43.3995950" lon="-4.1113970">
        <ele>179.2</ele>
        <time>2021-07-17T11:52:31Z</time>
      </trkpt>
      <trkpt lat="43.3995300" lon="-4.1114860">
        <ele>178.6</ele>
        <time>2021-07-17T11:52:32Z</time>
      </trkpt>
      <trkpt lat="43.3994610" lon="-4.1115750">
        <ele>178.2</ele>
        <time>2021-07-17T11:52:33Z</time>
      </trkpt>
      <trkpt lat="43.3993920" lon="-4.1116660">
        <ele>177.6</ele>
        <time>2021-07-17T11:52:34Z</time>
      </trkpt>
      <trkpt lat="43.3993190" lon="-4.1117590">
        <ele>177.2</ele>
        <time>2021-07-17T11:52:35Z</time>
      </trkpt>
      <trkpt lat="43.3990850" lon="-4.1120580">
        <ele>176.8</ele>
        <time>2021-07-17T11:52:38Z</time>
      </trkpt>
      <trkpt lat="43.3990080" lon="-4.1121540">
        <ele>176.4</ele>
        <time>2021-07-17T11:52:39Z</time>
      </trkpt>
      <trkpt lat="43.3989330" lon="-4.1122470">
        <ele>176.0</ele>
        <time>2021-07-17T11:52:40Z</time>
      </trkpt>
      <trkpt lat="43.3988580" lon="-4.1123420">
        <ele>175.6</ele>
        <time>2021-07-17T11:52:41Z</time>
      </trkpt>
      <trkpt lat="43.3987800" lon="-4.1124390">
        <ele>174.8</ele>
        <time>2021-07-17T11:52:42Z</time>
      </trkpt>
      <trkpt lat="43.3986960" lon="-4.1125380">
        <ele>174.2</ele>
        <time>2021-07-17T11:52:43Z</time>
      </trkpt>
      <trkpt lat="43.3986160" lon="-4.1126300">
        <ele>173.4</ele>
        <time>2021-07-17T11:52:44Z</time>
      </trkpt>
      <trkpt lat="43.3985360" lon="-4.1127230">
        <ele>172.8</ele>
        <time>2021-07-17T11:52:45Z</time>
      </trkpt>
      <trkpt lat="43.3984550" lon="-4.1128150">
        <ele>172.2</ele>
        <time>2021-07-17T11:52:46Z</time>
      </trkpt>
      <trkpt lat="43.3983690" lon="-4.1129020">
        <ele>171.6</ele>
        <time>2021-07-17T11:52:47Z</time>
      </trkpt>
      <trkpt lat="43.3982820" lon="-4.1129860">
        <ele>171.0</ele>
        <time>2021-07-17T11:52:48Z</time>
      </trkpt>
      <trkpt lat="43.3981940" lon="-4.1130660">
        <ele>170.4</ele>
        <time>2021-07-17T11:52:49Z</time>
      </trkpt>
      <trkpt lat="43.3981050" lon="-4.1131490">
        <ele>169.6</ele>
        <time>2021-07-17T11:52:50Z</time>
      </trkpt>
      <trkpt lat="43.3980120" lon="-4.1132340">
        <ele>168.8</ele>
        <time>2021-07-17T11:52:51Z</time>
      </trkpt>
      <trkpt lat="43.3979230" lon="-4.1133150">
        <ele>168.2</ele>
        <time>2021-07-17T11:52:52Z</time>
      </trkpt>
      <trkpt lat="43.3978290" lon="-4.1133930">
        <ele>166.8</ele>
        <time>2021-07-17T11:52:53Z</time>
      </trkpt>
      <trkpt lat="43.3977310" lon="-4.1134700">
        <ele>166.0</ele>
        <time>2021-07-17T11:52:54Z</time>
      </trkpt>
      <trkpt lat="43.3976300" lon="-4.1135450">
        <ele>165.4</ele>
        <time>2021-07-17T11:52:55Z</time>
      </trkpt>
      <trkpt lat="43.3972280" lon="-4.1138120">
        <ele>165.0</ele>
        <time>2021-07-17T11:52:59Z</time>
      </trkpt>
      <trkpt lat="43.3971370" lon="-4.1138640">
        <ele>164.6</ele>
        <time>2021-07-17T11:53:00Z</time>
      </trkpt>
      <trkpt lat="43.3970490" lon="-4.1139170">
        <ele>164.2</ele>
        <time>2021-07-17T11:53:01Z</time>
      </trkpt>
      <trkpt lat="43.3969640" lon="-4.1139670">
        <ele>163.4</ele>
        <time>2021-07-17T11:53:02Z</time>
      </trkpt>
      <trkpt lat="43.3968830" lon="-4.1140150">
        <ele>162.8</ele>
        <time>2021-07-17T11:53:03Z</time>
      </trkpt>
      <trkpt lat="43.3968030" lon="-4.1140600">
        <ele>162.0</ele>
        <time>2021-07-17T11:53:04Z</time>
      </trkpt>
      <trkpt lat="43.3967260" lon="-4.1141060">
        <ele>161.2</ele>
        <time>2021-07-17T11:53:05Z</time>
      </trkpt>
      <trkpt lat="43.3966440" lon="-4.1141520">
        <ele>160.2</ele>
        <time>2021-07-17T11:53:06Z</time>
      </trkpt>
      <trkpt lat="43.3965690" lon="-4.1141950">
        <ele>159.6</ele>
        <time>2021-07-17T11:53:07Z</time>
      </trkpt>
      <trkpt lat="43.3964940" lon="-4.1142410">
        <ele>158.8</ele>
        <time>2021-07-17T11:53:08Z</time>
      </trkpt>
      <trkpt lat="43.3964210" lon="-4.1142850">
        <ele>158.0</ele>
        <time>2021-07-17T11:53:09Z</time>
      </trkpt>
      <trkpt lat="43.3963490" lon="-4.1143310">
        <ele>157.2</ele>
        <time>2021-07-17T11:53:10Z</time>
      </trkpt>
      <trkpt lat="43.3962790" lon="-4.1143810">
        <ele>156.4</ele>
        <time>2021-07-17T11:53:11Z</time>
      </trkpt>
      <trkpt lat="43.3962100" lon="-4.1144280">
        <ele>155.6</ele>
        <time>2021-07-17T11:53:12Z</time>
      </trkpt>
      <trkpt lat="43.3961400" lon="-4.1144770">
        <ele>154.8</ele>
        <time>2021-07-17T11:53:13Z</time>
      </trkpt>
      <trkpt lat="43.3960750" lon="-4.1145250">
        <ele>154.0</ele>
        <time>2021-07-17T11:53:14Z</time>
      </trkpt>
      <trkpt lat="43.3960100" lon="-4.1145730">
        <ele>154.0</ele>
        <time>2021-07-17T11:53:15Z</time>
      </trkpt>
      <trkpt lat="43.3957520" lon="-4.1147740">
        <ele>153.2</ele>
        <time>2021-07-17T11:53:19Z</time>
      </trkpt>
      <trkpt lat="43.3956880" lon="-4.1148310">
        <ele>152.8</ele>
        <time>2021-07-17T11:53:20Z</time>
      </trkpt>
      <trkpt lat="43.3956290" lon="-4.1148850">
        <ele>152.4</ele>
        <time>2021-07-17T11:53:21Z</time>
      </trkpt>
      <trkpt lat="43.3955690" lon="-4.1149410">
        <ele>152.0</ele>
        <time>2021-07-17T11:53:22Z</time>
      </trkpt>
      <trkpt lat="43.3955090" lon="-4.1149960">
        <ele>152.0</ele>
        <time>2021-07-17T11:53:23Z</time>
      </trkpt>
      <trkpt lat="43.3953260" lon="-4.1151680">
        <ele>151.4</ele>
        <time>2021-07-17T11:53:26Z</time>
      </trkpt>
      <trkpt lat="43.3952650" lon="-4.1152280">
        <ele>151.0</ele>
        <time>2021-07-17T11:53:27Z</time>
      </trkpt>
      <trkpt lat="43.3952000" lon="-4.1152930">
        <ele>150.6</ele>
        <time>2021-07-17T11:53:28Z</time>
      </trkpt>
      <trkpt lat="43.3951400" lon="-4.1153570">
        <ele>150.2</ele>
        <time>2021-07-17T11:53:29Z</time>
      </trkpt>
      <trkpt lat="43.3950810" lon="-4.1154170">
        <ele>149.8</ele>
        <time>2021-07-17T11:53:30Z</time>
      </trkpt>
      <trkpt lat="43.3950230" lon="-4.1154780">
        <ele>149.8</ele>
        <time>2021-07-17T11:53:31Z</time>
      </trkpt>
      <trkpt lat="43.3947110" lon="-4.1158340">
        <ele>149.2</ele>
        <time>2021-07-17T11:53:37Z</time>
      </trkpt>
      <trkpt lat="43.3946620" lon="-4.1158890">
        <ele>148.8</ele>
        <time>2021-07-17T11:53:38Z</time>
      </trkpt>
      <trkpt lat="43.3946190" lon="-4.1159390">
        <ele>148.4</ele>
        <time>2021-07-17T11:53:39Z</time>
      </trkpt>
      <trkpt lat="43.3945790" lon="-4.1159830">
        <ele>148.0</ele>
        <time>2021-07-17T11:53:40Z</time>
      </trkpt>
      <trkpt lat="43.3945430" lon="-4.1160260">
        <ele>147.6</ele>
        <time>2021-07-17T11:53:41Z</time>
      </trkpt>
      <trkpt lat="43.3944670" lon="-4.1161180">
        <ele>147.0</ele>
        <time>2021-07-17T11:53:43Z</time>
      </trkpt>
      <trkpt lat="43.3944270" lon="-4.1161700">
        <ele>146.6</ele>
        <time>2021-07-17T11:53:44Z</time>
      </trkpt>
      <trkpt lat="43.3943880" lon="-4.1162220">
        <ele>146.2</ele>
        <time>2021-07-17T11:53:45Z</time>
      </trkpt>
      <trkpt lat="43.3943460" lon="-4.1162720">
        <ele>145.8</ele>
        <time>2021-07-17T11:53:46Z</time>
      </trkpt>
      <trkpt lat="43.3943050" lon="-4.1163220">
        <ele>145.4</ele>
        <time>2021-07-17T11:53:47Z</time>
      </trkpt>
      <trkpt lat="43.3941660" lon="-4.1164740">
        <ele>145.4</ele>
        <time>2021-07-17T11:53:50Z</time>
      </trkpt>
      <trkpt lat="43.3939100" lon="-4.1168190">
        <ele>145.4</ele>
        <time>2021-07-17T11:53:56Z</time>
      </trkpt>
      <trkpt lat="43.3938830" lon="-4.1168870">
        <ele>145.4</ele>
        <time>2021-07-17T11:53:57Z</time>
      </trkpt>
      <trkpt lat="43.3937480" lon="-4.1171320">
        <ele>145.4</ele>
        <time>2021-07-17T11:54:01Z</time>
      </trkpt>
      <trkpt lat="43.3936950" lon="-4.1172290">
        <ele>145.4</ele>
        <time>2021-07-17T11:54:03Z</time>
      </trkpt>
      <trkpt lat="43.3936760" lon="-4.1172790">
        <ele>145.4</ele>
        <time>2021-07-17T11:54:04Z</time>
      </trkpt>
      <trkpt lat="43.3936530" lon="-4.1174800">
        <ele>145.4</ele>
        <time>2021-07-17T11:54:08Z</time>
      </trkpt>
      <trkpt lat="43.3936190" lon="-4.1176330">
        <ele>145.4</ele>
        <time>2021-07-17T11:54:11Z</time>
      </trkpt>
      <trkpt lat="43.3935740" lon="-4.1177190">
        <ele>145.4</ele>
        <time>2021-07-17T11:54:13Z</time>
      </trkpt>
      <trkpt lat="43.3934680" lon="-4.1177910">
        <ele>145.4</ele>
        <time>2021-07-17T11:54:16Z</time>
      </trkpt>
      <trkpt lat="43.3934250" lon="-4.1177940">
        <ele>145.4</ele>
        <time>2021-07-17T11:54:17Z</time>
      </trkpt>
      <trkpt lat="43.3932650" lon="-4.1177240">
        <ele>145.4</ele>
        <time>2021-07-17T11:54:21Z</time>
      </trkpt>
      <trkpt lat="43.3931530" lon="-4.1175200">
        <ele>145.4</ele>
        <time>2021-07-17T11:54:25Z</time>
      </trkpt>
      <trkpt lat="43.3931540" lon="-4.1172720">
        <ele>145.4</ele>
        <time>2021-07-17T11:54:29Z</time>
      </trkpt>
      <trkpt lat="43.3931670" lon="-4.1172170">
        <ele>145.4</ele>
        <time>2021-07-17T11:54:30Z</time>
      </trkpt>
      <trkpt lat="43.3931970" lon="-4.1171150">
        <ele>145.0</ele>
        <time>2021-07-17T11:54:32Z</time>
      </trkpt>
      <trkpt lat="43.3932070" lon="-4.1170630">
        <ele>144.2</ele>
        <time>2021-07-17T11:54:33Z</time>
      </trkpt>
      <trkpt lat="43.3932130" lon="-4.1170120">
        <ele>143.8</ele>
        <time>2021-07-17T11:54:34Z</time>
      </trkpt>
      <trkpt lat="43.3932130" lon="-4.1169610">
        <ele>143.4</ele>
        <time>2021-07-17T11:54:35Z</time>
      </trkpt>
      <trkpt lat="43.3932250" lon="-4.1167910">
        <ele>143.4</ele>
        <time>2021-07-17T11:54:38Z</time>
      </trkpt>
      <trkpt lat="43.3932370" lon="-4.1167260">
        <ele>143.4</ele>
        <time>2021-07-17T11:54:39Z</time>
      </trkpt>
      <trkpt lat="43.3932740" lon="-4.1165870">
        <ele>143.4</ele>
        <time>2021-07-17T11:54:41Z</time>
      </trkpt>
      <trkpt lat="43.3933470" lon="-4.1163700">
        <ele>143.4</ele>
        <time>2021-07-17T11:54:44Z</time>
      </trkpt>
      <trkpt lat="43.3933720" lon="-4.1162920">
        <ele>142.8</ele>
        <time>2021-07-17T11:54:45Z</time>
      </trkpt>
      <trkpt lat="43.3933900" lon="-4.1162110">
        <ele>142.4</ele>
        <time>2021-07-17T11:54:46Z</time>
      </trkpt>
      <trkpt lat="43.3934050" lon="-4.1161250">
        <ele>142.0</ele>
        <time>2021-07-17T11:54:47Z</time>
      </trkpt>
      <trkpt lat="43.3934090" lon="-4.1160350">
        <ele>141.6</ele>
        <time>2021-07-17T11:54:48Z</time>
      </trkpt>
      <trkpt lat="43.3934080" lon="-4.1159450">
        <ele>141.0</ele>
        <time>2021-07-17T11:54:49Z</time>
      </trkpt>
      <trkpt lat="43.3933560" lon="-4.1155570">
        <ele>140.6</ele>
        <time>2021-07-17T11:54:53Z</time>
      </trkpt>
      <trkpt lat="43.3933290" lon="-4.1154610">
        <ele>140.2</ele>
        <time>2021-07-17T11:54:54Z</time>
      </trkpt>
      <trkpt lat="43.3933030" lon="-4.1153660">
        <ele>139.8</ele>
        <time>2021-07-17T11:54:55Z</time>
      </trkpt>
      <trkpt lat="43.3932750" lon="-4.1152680">
        <ele>139.2</ele>
        <time>2021-07-17T11:54:56Z</time>
      </trkpt>
      <trkpt lat="43.3932500" lon="-4.1151750">
        <ele>138.0</ele>
        <time>2021-07-17T11:54:57Z</time>
      </trkpt>
      <trkpt lat="43.3932260" lon="-4.1150850">
        <ele>137.4</ele>
        <time>2021-07-17T11:54:58Z</time>
      </trkpt>
      <trkpt lat="43.3931990" lon="-4.1149920">
        <ele>136.8</ele>
        <time>2021-07-17T11:54:59Z</time>
      </trkpt>
      <trkpt lat="43.3931760" lon="-4.1149060">
        <ele>136.2</ele>
        <time>2021-07-17T11:55:00Z</time>
      </trkpt>
      <trkpt lat="43.3931550" lon="-4.1148190">
        <ele>135.6</ele>
        <time>2021-07-17T11:55:01Z</time>
      </trkpt>
      <trkpt lat="43.3931340" lon="-4.1147310">
        <ele>135.0</ele>
        <time>2021-07-17T11:55:02Z</time>
      </trkpt>
      <trkpt lat="43.3931100" lon="-4.1146430">
        <ele>134.6</ele>
        <time>2021-07-17T11:55:03Z</time>
      </trkpt>
      <trkpt lat="43.3930880" lon="-4.1145630">
        <ele>134.0</ele>
        <time>2021-07-17T11:55:04Z</time>
      </trkpt>
      <trkpt lat="43.3930440" lon="-4.1143910">
        <ele>133.4</ele>
        <time>2021-07-17T11:55:06Z</time>
      </trkpt>
      <trkpt lat="43.3930170" lon="-4.1143030">
        <ele>132.8</ele>
        <time>2021-07-17T11:55:07Z</time>
      </trkpt>
      <trkpt lat="43.3929900" lon="-4.1142250">
        <ele>132.2</ele>
        <time>2021-07-17T11:55:08Z</time>
      </trkpt>
      <trkpt lat="43.3929630" lon="-4.1141490">
        <ele>131.4</ele>
        <time>2021-07-17T11:55:09Z</time>
      </trkpt>
      <trkpt lat="43.3929340" lon="-4.1140740">
        <ele>130.8</ele>
        <time>2021-07-17T11:55:10Z</time>
      </trkpt>
      <trkpt lat="43.3929030" lon="-4.1139960">
        <ele>130.2</ele>
        <time>2021-07-17T11:55:11Z</time>
      </trkpt>
      <trkpt lat="43.3928720" lon="-4.1139200">
        <ele>129.6</ele>
        <time>2021-07-17T11:55:12Z</time>
      </trkpt>
      <trkpt lat="43.3928440" lon="-4.1138460">
        <ele>129.0</ele>
        <time>2021-07-17T11:55:13Z</time>
      </trkpt>
      <trkpt lat="43.3928130" lon="-4.1137680">
        <ele>128.4</ele>
        <time>2021-07-17T11:55:14Z</time>
      </trkpt>
      <trkpt lat="43.3927540" lon="-4.1136190">
        <ele>128.0</ele>
        <time>2021-07-17T11:55:16Z</time>
      </trkpt>
      <trkpt lat="43.3927220" lon="-4.1135480">
        <ele>127.6</ele>
        <time>2021-07-17T11:55:17Z</time>
      </trkpt>
      <trkpt lat="43.3926870" lon="-4.1134790">
        <ele>127.2</ele>
        <time>2021-07-17T11:55:18Z</time>
      </trkpt>
      <trkpt lat="43.3926540" lon="-4.1134110">
        <ele>126.8</ele>
        <time>2021-07-17T11:55:19Z</time>
      </trkpt>
      <trkpt lat="43.3926190" lon="-4.1133470">
        <ele>126.4</ele>
        <time>2021-07-17T11:55:20Z</time>
      </trkpt>
      <trkpt lat="43.3925280" lon="-4.1132180">
        <ele>125.4</ele>
        <time>2021-07-17T11:55:22Z</time>
      </trkpt>
      <trkpt lat="43.3924810" lon="-4.1131570">
        <ele>124.8</ele>
        <time>2021-07-17T11:55:23Z</time>
      </trkpt>
      <trkpt lat="43.3924410" lon="-4.1131070">
        <ele>124.2</ele>
        <time>2021-07-17T11:55:24Z</time>
      </trkpt>
      <trkpt lat="43.3923910" lon="-4.1130590">
        <ele>123.6</ele>
        <time>2021-07-17T11:55:25Z</time>
      </trkpt>
      <trkpt lat="43.3923370" lon="-4.1130060">
        <ele>122.8</ele>
        <time>2021-07-17T11:55:26Z</time>
      </trkpt>
      <trkpt lat="43.3922810" lon="-4.1129520">
        <ele>122.2</ele>
        <time>2021-07-17T11:55:27Z</time>
      </trkpt>
      <trkpt lat="43.3922190" lon="-4.1128920">
        <ele>121.6</ele>
        <time>2021-07-17T11:55:28Z</time>
      </trkpt>
      <trkpt lat="43.3921500" lon="-4.1128350">
        <ele>121.2</ele>
        <time>2021-07-17T11:55:29Z</time>
      </trkpt>
      <trkpt lat="43.3920740" lon="-4.1127690">
        <ele>120.8</ele>
        <time>2021-07-17T11:55:30Z</time>
      </trkpt>
      <trkpt lat="43.3920010" lon="-4.1127050">
        <ele>120.2</ele>
        <time>2021-07-17T11:55:31Z</time>
      </trkpt>
      <trkpt lat="43.3919310" lon="-4.1126430">
        <ele>119.8</ele>
        <time>2021-07-17T11:55:32Z</time>
      </trkpt>
      <trkpt lat="43.3918620" lon="-4.1125830">
        <ele>119.2</ele>
        <time>2021-07-17T11:55:33Z</time>
      </trkpt>
      <trkpt lat="43.3917950" lon="-4.1125220">
        <ele>118.8</ele>
        <time>2021-07-17T11:55:34Z</time>
      </trkpt>
      <trkpt lat="43.3917290" lon="-4.1124620">
        <ele>118.2</ele>
        <time>2021-07-17T11:55:35Z</time>
      </trkpt>
      <trkpt lat="43.3916580" lon="-4.1124060">
        <ele>117.6</ele>
        <time>2021-07-17T11:55:36Z</time>
      </trkpt>
      <trkpt lat="43.3915940" lon="-4.1123550">
        <ele>117.2</ele>
        <time>2021-07-17T11:55:37Z</time>
      </trkpt>
      <trkpt lat="43.3914610" lon="-4.1122350">
        <ele>116.6</ele>
        <time>2021-07-17T11:55:39Z</time>
      </trkpt>
      <trkpt lat="43.3913920" lon="-4.1121720">
        <ele>116.2</ele>
        <time>2021-07-17T11:55:40Z</time>
      </trkpt>
      <trkpt lat="43.3913270" lon="-4.1121150">
        <ele>115.8</ele>
        <time>2021-07-17T11:55:41Z</time>
      </trkpt>
      <trkpt lat="43.3912630" lon="-4.1120600">
        <ele>115.2</ele>
        <time>2021-07-17T11:55:42Z</time>
      </trkpt>
      <trkpt lat="43.3911980" lon="-4.1120100">
        <ele>114.6</ele>
        <time>2021-07-17T11:55:43Z</time>
      </trkpt>
      <trkpt lat="43.3911310" lon="-4.1119550">
        <ele>114.2</ele>
        <time>2021-07-17T11:55:44Z</time>
      </trkpt>
      <trkpt lat="43.3910700" lon="-4.1119020">
        <ele>113.6</ele>
        <time>2021-07-17T11:55:45Z</time>
      </trkpt>
      <trkpt lat="43.3910070" lon="-4.1118440">
        <ele>113.0</ele>
        <time>2021-07-17T11:55:46Z</time>
      </trkpt>
      <trkpt lat="43.3909430" lon="-4.1117900">
        <ele>112.0</ele>
        <time>2021-07-17T11:55:47Z</time>
      </trkpt>
      <trkpt lat="43.3908780" lon="-4.1117320">
        <ele>111.4</ele>
        <time>2021-07-17T11:55:48Z</time>
      </trkpt>
      <trkpt lat="43.3908140" lon="-4.1116770">
        <ele>110.8</ele>
        <time>2021-07-17T11:55:49Z</time>
      </trkpt>
      <trkpt lat="43.3907530" lon="-4.1116290">
        <ele>110.2</ele>
        <time>2021-07-17T11:55:50Z</time>
      </trkpt>
      <trkpt lat="43.3906950" lon="-4.1115770">
        <ele>109.8</ele>
        <time>2021-07-17T11:55:51Z</time>
      </trkpt>
      <trkpt lat="43.3906450" lon="-4.1115280">
        <ele>109.4</ele>
        <time>2021-07-17T11:55:52Z</time>
      </trkpt>
      <trkpt lat="43.3905920" lon="-4.1114870">
        <ele>109.0</ele>
        <time>2021-07-17T11:55:53Z</time>
      </trkpt>
      <trkpt lat="43.3905440" lon="-4.1114380">
        <ele>108.4</ele>
        <time>2021-07-17T11:55:54Z</time>
      </trkpt>
      <trkpt lat="43.3904990" lon="-4.1113900">
        <ele>107.8</ele>
        <time>2021-07-17T11:55:55Z</time>
      </trkpt>
      <trkpt lat="43.3904560" lon="-4.1113340">
        <ele>107.0</ele>
        <time>2021-07-17T11:55:56Z</time>
      </trkpt>
      <trkpt lat="43.3904160" lon="-4.1112730">
        <ele>106.4</ele>
        <time>2021-07-17T11:55:57Z</time>
      </trkpt>
      <trkpt lat="43.3903770" lon="-4.1112070">
        <ele>105.8</ele>
        <time>2021-07-17T11:55:58Z</time>
      </trkpt>
      <trkpt lat="43.3902950" lon="-4.1110530">
        <ele>105.4</ele>
        <time>2021-07-17T11:56:00Z</time>
      </trkpt>
      <trkpt lat="43.3902510" lon="-4.1109760">
        <ele>105.0</ele>
        <time>2021-07-17T11:56:01Z</time>
      </trkpt>
      <trkpt lat="43.3902110" lon="-4.1108950">
        <ele>104.6</ele>
        <time>2021-07-17T11:56:02Z</time>
      </trkpt>
      <trkpt lat="43.3901690" lon="-4.1108200">
        <ele>104.0</ele>
        <time>2021-07-17T11:56:03Z</time>
      </trkpt>
      <trkpt lat="43.3901340" lon="-4.1107420">
        <ele>103.6</ele>
        <time>2021-07-17T11:56:04Z</time>
      </trkpt>
      <trkpt lat="43.3900600" lon="-4.1105910">
        <ele>103.2</ele>
        <time>2021-07-17T11:56:06Z</time>
      </trkpt>
      <trkpt lat="43.3900240" lon="-4.1105190">
        <ele>102.6</ele>
        <time>2021-07-17T11:56:07Z</time>
      </trkpt>
      <trkpt lat="43.3899780" lon="-4.1104500">
        <ele>102.0</ele>
        <time>2021-07-17T11:56:08Z</time>
      </trkpt>
      <trkpt lat="43.3899290" lon="-4.1103830">
        <ele>101.4</ele>
        <time>2021-07-17T11:56:09Z</time>
      </trkpt>
      <trkpt lat="43.3898760" lon="-4.1103240">
        <ele>101.0</ele>
        <time>2021-07-17T11:56:10Z</time>
      </trkpt>
      <trkpt lat="43.3898190" lon="-4.1102660">
        <ele>100.4</ele>
        <time>2021-07-17T11:56:11Z</time>
      </trkpt>
      <trkpt lat="43.3897620" lon="-4.1102150">
        <ele>100.0</ele>
        <time>2021-07-17T11:56:12Z</time>
      </trkpt>
      <trkpt lat="43.3897020" lon="-4.1101680">
        <ele>99.4</ele>
        <time>2021-07-17T11:56:13Z</time>
      </trkpt>
      <trkpt lat="43.3896400" lon="-4.1101180">
        <ele>99.0</ele>
        <time>2021-07-17T11:56:14Z</time>
      </trkpt>
      <trkpt lat="43.3895850" lon="-4.1100670">
        <ele>98.4</ele>
        <time>2021-07-17T11:56:15Z</time>
      </trkpt>
      <trkpt lat="43.3895320" lon="-4.1100220">
        <ele>98.0</ele>
        <time>2021-07-17T11:56:16Z</time>
      </trkpt>
      <trkpt lat="43.3894840" lon="-4.1099750">
        <ele>97.4</ele>
        <time>2021-07-17T11:56:17Z</time>
      </trkpt>
      <trkpt lat="43.3894390" lon="-4.1099350">
        <ele>97.0</ele>
        <time>2021-07-17T11:56:18Z</time>
      </trkpt>
      <trkpt lat="43.3894030" lon="-4.1099000">
        <ele>96.4</ele>
        <time>2021-07-17T11:56:19Z</time>
      </trkpt>
      <trkpt lat="43.3893700" lon="-4.1098640">
        <ele>95.8</ele>
        <time>2021-07-17T11:56:20Z</time>
      </trkpt>
      <trkpt lat="43.3893450" lon="-4.1098430">
        <ele>95.4</ele>
        <time>2021-07-17T11:56:21Z</time>
      </trkpt>
      <trkpt lat="43.3893250" lon="-4.1098260">
        <ele>94.8</ele>
        <time>2021-07-17T11:56:22Z</time>
      </trkpt>
      <trkpt lat="43.3893070" lon="-4.1098090">
        <ele>94.2</ele>
        <time>2021-07-17T11:56:23Z</time>
      </trkpt>
      <trkpt lat="43.3892880" lon="-4.1097890">
        <ele>93.6</ele>
        <time>2021-07-17T11:56:24Z</time>
      </trkpt>
      <trkpt lat="43.3892480" lon="-4.1097200">
        <ele>93.2</ele>
        <time>2021-07-17T11:56:28Z</time>
      </trkpt>
      <trkpt lat="43.3892400" lon="-4.1097060">
        <ele>92.8</ele>
        <time>2021-07-17T11:56:29Z</time>
      </trkpt>
      <trkpt lat="43.3892330" lon="-4.1096870">
        <ele>92.2</ele>
        <time>2021-07-17T11:56:30Z</time>
      </trkpt>
      <trkpt lat="43.3892210" lon="-4.1096640">
        <ele>91.8</ele>
        <time>2021-07-17T11:56:31Z</time>
      </trkpt>
      <trkpt lat="43.3892040" lon="-4.1096400">
        <ele>91.4</ele>
        <time>2021-07-17T11:56:32Z</time>
      </trkpt>
      <trkpt lat="43.3891760" lon="-4.1095760">
        <ele>91.4</ele>
        <time>2021-07-17T11:56:34Z</time>
      </trkpt>
      <trkpt lat="43.3890440" lon="-4.1092870">
        <ele>91.4</ele>
        <time>2021-07-17T11:56:41Z</time>
      </trkpt>
      <trkpt lat="43.3890000" lon="-4.1091610">
        <ele>91.4</ele>
        <time>2021-07-17T11:56:46Z</time>
      </trkpt>
      <trkpt lat="43.3889500" lon="-4.1090010">
        <ele>91.4</ele>
        <time>2021-07-17T11:56:53Z</time>
      </trkpt>
      <trkpt lat="43.3889510" lon="-4.1090030">
        <ele>91.4</ele>
        <time>2021-07-17T11:56:55Z</time>
      </trkpt>
      <trkpt lat="43.3889710" lon="-4.1089910">
        <ele>91.4</ele>
        <time>2021-07-17T11:57:13Z</time>
      </trkpt>
      <trkpt lat="43.3889890" lon="-4.1089830">
        <ele>91.4</ele>
        <time>2021-07-17T11:57:14Z</time>
      </trkpt>
      <trkpt lat="43.3890260" lon="-4.1089970">
        <ele>91.0</ele>
        <time>2021-07-17T11:57:17Z</time>
      </trkpt>
      <trkpt lat="43.3890380" lon="-4.1090060">
        <ele>90.4</ele>
        <time>2021-07-17T11:57:18Z</time>
      </trkpt>
      <trkpt lat="43.3890500" lon="-4.1090180">
        <ele>90.0</ele>
        <time>2021-07-17T11:57:19Z</time>
      </trkpt>
      <trkpt lat="43.3890650" lon="-4.1090300">
        <ele>89.6</ele>
        <time>2021-07-17T11:57:20Z</time>
      </trkpt>
      <trkpt lat="43.3890820" lon="-4.1090390">
        <ele>89.2</ele>
        <time>2021-07-17T11:57:21Z</time>
      </trkpt>
      <trkpt lat="43.3891640" lon="-4.1090210">
        <ele>89.2</ele>
        <time>2021-07-17T11:57:25Z</time>
      </trkpt>
      <trkpt lat="43.3893030" lon="-4.1089540">
        <ele>89.2</ele>
        <time>2021-07-17T11:57:31Z</time>
      </trkpt>
      <trkpt lat="43.3893450" lon="-4.1089300">
        <ele>89.6</ele>
        <time>2021-07-17T11:57:33Z</time>
      </trkpt>
      <trkpt lat="43.3893650" lon="-4.1089200">
        <ele>90.0</ele>
        <time>2021-07-17T11:57:34Z</time>
      </trkpt>
      <trkpt lat="43.3893820" lon="-4.1089130">
        <ele>90.4</ele>
        <time>2021-07-17T11:57:35Z</time>
      </trkpt>
      <trkpt lat="43.3893990" lon="-4.1089080">
        <ele>90.8</ele>
        <time>2021-07-17T11:57:36Z</time>
      </trkpt>
      <trkpt lat="43.3894180" lon="-4.1089040">
        <ele>91.4</ele>
        <time>2021-07-17T11:57:37Z</time>
      </trkpt>
      <trkpt lat="43.3894700" lon="-4.1088770">
        <ele>91.4</ele>
        <time>2021-07-17T11:57:40Z</time>
      </trkpt>
      <trkpt lat="43.3895900" lon="-4.1087690">
        <ele>91.4</ele>
        <time>2021-07-17T11:57:47Z</time>
      </trkpt>
      <trkpt lat="43.3896140" lon="-4.1087300">
        <ele>91.4</ele>
        <time>2021-07-17T11:57:49Z</time>
      </trkpt>
      <trkpt lat="43.3897080" lon="-4.1085460">
        <ele>91.4</ele>
        <time>2021-07-17T11:57:56Z</time>
      </trkpt>
      <trkpt lat="43.3898830" lon="-4.1082990">
        <ele>91.4</ele>
        <time>2021-07-17T11:58:07Z</time>
      </trkpt>
      <trkpt lat="43.3898970" lon="-4.1082780">
        <ele>91.8</ele>
        <time>2021-07-17T11:58:08Z</time>
      </trkpt>
      <trkpt lat="43.3899090" lon="-4.1082550">
        <ele>92.2</ele>
        <time>2021-07-17T11:58:09Z</time>
      </trkpt>
      <trkpt lat="43.3899230" lon="-4.1082340">
        <ele>92.6</ele>
        <time>2021-07-17T11:58:10Z</time>
      </trkpt>
      <trkpt lat="43.3899380" lon="-4.1082110">
        <ele>93.0</ele>
        <time>2021-07-17T11:58:11Z</time>
      </trkpt>
      <trkpt lat="43.3899530" lon="-4.1081900">
        <ele>93.4</ele>
        <time>2021-07-17T11:58:12Z</time>
      </trkpt>
      <trkpt lat="43.3900260" lon="-4.1081170">
        <ele>93.4</ele>
        <time>2021-07-17T11:58:16Z</time>
      </trkpt>
      <trkpt lat="43.3901610" lon="-4.1079160">
        <ele>93.8</ele>
        <time>2021-07-17T11:58:24Z</time>
      </trkpt>
      <trkpt lat="43.3901810" lon="-4.1078900">
        <ele>94.2</ele>
        <time>2021-07-17T11:58:25Z</time>
      </trkpt>
      <trkpt lat="43.3901960" lon="-4.1078680">
        <ele>94.6</ele>
        <time>2021-07-17T11:58:26Z</time>
      </trkpt>
      <trkpt lat="43.3902110" lon="-4.1078440">
        <ele>95.0</ele>
        <time>2021-07-17T11:58:27Z</time>
      </trkpt>
      <trkpt lat="43.3902270" lon="-4.1078210">
        <ele>95.4</ele>
        <time>2021-07-17T11:58:28Z</time>
      </trkpt>
      <trkpt lat="43.3903030" lon="-4.1076960">
        <ele>95.4</ele>
        <time>2021-07-17T11:58:34Z</time>
      </trkpt>
      <trkpt lat="43.3904140" lon="-4.1075180">
        <ele>95.4</ele>
        <time>2021-07-17T11:58:43Z</time>
      </trkpt>
      <trkpt lat="43.3905110" lon="-4.1074060">
        <ele>95.4</ele>
        <time>2021-07-17T11:58:49Z</time>
      </trkpt>
      <trkpt lat="43.3905730" lon="-4.1073580">
        <ele>95.4</ele>
        <time>2021-07-17T11:58:52Z</time>
      </trkpt>
      <trkpt lat="43.3906360" lon="-4.1072960">
        <ele>95.0</ele>
        <time>2021-07-17T11:58:55Z</time>
      </trkpt>
      <trkpt lat="43.3906570" lon="-4.1072720">
        <ele>94.6</ele>
        <time>2021-07-17T11:58:56Z</time>
      </trkpt>
      <trkpt lat="43.3906810" lon="-4.1072520">
        <ele>94.2</ele>
        <time>2021-07-17T11:58:57Z</time>
      </trkpt>
      <trkpt lat="43.3907020" lon="-4.1072350">
        <ele>93.6</ele>
        <time>2021-07-17T11:58:58Z</time>
      </trkpt>
      <trkpt lat="43.3907230" lon="-4.1072150">
        <ele>93.2</ele>
        <time>2021-07-17T11:58:59Z</time>
      </trkpt>
      <trkpt lat="43.3907870" lon="-4.1071530">
        <ele>93.2</ele>
        <time>2021-07-17T11:59:02Z</time>
      </trkpt>
      <trkpt lat="43.3908240" lon="-4.1071020">
        <ele>92.4</ele>
        <time>2021-07-17T11:59:04Z</time>
      </trkpt>
      <trkpt lat="43.3908420" lon="-4.1070770">
        <ele>92.0</ele>
        <time>2021-07-17T11:59:05Z</time>
      </trkpt>
      <trkpt lat="43.3908600" lon="-4.1070610">
        <ele>91.6</ele>
        <time>2021-07-17T11:59:06Z</time>
      </trkpt>
      <trkpt lat="43.3908780" lon="-4.1070480">
        <ele>91.2</ele>
        <time>2021-07-17T11:59:07Z</time>
      </trkpt>
      <trkpt lat="43.3908950" lon="-4.1070330">
        <ele>91.2</ele>
        <time>2021-07-17T11:59:08Z</time>
      </trkpt>
      <trkpt lat="43.3909240" lon="-4.1069940">
        <ele>91.2</ele>
        <time>2021-07-17T11:59:10Z</time>
      </trkpt>
      <trkpt lat="43.3909410" lon="-4.1069760">
        <ele>90.6</ele>
        <time>2021-07-17T11:59:11Z</time>
      </trkpt>
      <trkpt lat="43.3909600" lon="-4.1069580">
        <ele>90.2</ele>
        <time>2021-07-17T11:59:12Z</time>
      </trkpt>
      <trkpt lat="43.3909800" lon="-4.1069390">
        <ele>89.8</ele>
        <time>2021-07-17T11:59:13Z</time>
      </trkpt>
      <trkpt lat="43.3910000" lon="-4.1069200">
        <ele>89.4</ele>
        <time>2021-07-17T11:59:14Z</time>
      </trkpt>
      <trkpt lat="43.3910220" lon="-4.1069000">
        <ele>89.0</ele>
        <time>2021-07-17T11:59:15Z</time>
      </trkpt>
      <trkpt lat="43.3910410" lon="-4.1068790">
        <ele>89.0</ele>
        <time>2021-07-17T11:59:16Z</time>
      </trkpt>
      <trkpt lat="43.3910770" lon="-4.1068400">
        <ele>88.6</ele>
        <time>2021-07-17T11:59:18Z</time>
      </trkpt>
      <trkpt lat="43.3910950" lon="-4.1068240">
        <ele>88.0</ele>
        <time>2021-07-17T11:59:19Z</time>
      </trkpt>
      <trkpt lat="43.3911140" lon="-4.1068040">
        <ele>87.6</ele>
        <time>2021-07-17T11:59:20Z</time>
      </trkpt>
      <trkpt lat="43.3911370" lon="-4.1067830">
        <ele>87.2</ele>
        <time>2021-07-17T11:59:21Z</time>
      </trkpt>
      <trkpt lat="43.3911530" lon="-4.1067590">
        <ele>86.8</ele>
        <time>2021-07-17T11:59:22Z</time>
      </trkpt>
      <trkpt lat="43.3911930" lon="-4.1067140">
        <ele>86.8</ele>
        <time>2021-07-17T11:59:24Z</time>
      </trkpt>
      <trkpt lat="43.3913170" lon="-4.1066030">
        <ele>86.8</ele>
        <time>2021-07-17T11:59:31Z</time>
      </trkpt>
      <trkpt lat="43.3913460" lon="-4.1065600">
        <ele>86.4</ele>
        <time>2021-07-17T11:59:33Z</time>
      </trkpt>
      <trkpt lat="43.3913680" lon="-4.1065400">
        <ele>86.0</ele>
        <time>2021-07-17T11:59:34Z</time>
      </trkpt>
      <trkpt lat="43.3913900" lon="-4.1065200">
        <ele>85.6</ele>
        <time>2021-07-17T11:59:35Z</time>
      </trkpt>
      <trkpt lat="43.3914070" lon="-4.1064990">
        <ele>85.2</ele>
        <time>2021-07-17T11:59:36Z</time>
      </trkpt>
      <trkpt lat="43.3914220" lon="-4.1064800">
        <ele>84.8</ele>
        <time>2021-07-17T11:59:37Z</time>
      </trkpt>
      <trkpt lat="43.3914730" lon="-4.1064330">
        <ele>84.8</ele>
        <time>2021-07-17T11:59:40Z</time>
      </trkpt>
      <trkpt lat="43.3915220" lon="-4.1064080">
        <ele>84.8</ele>
        <time>2021-07-17T11:59:42Z</time>
      </trkpt>
      <trkpt lat="43.3915910" lon="-4.1063760">
        <ele>84.8</ele>
        <time>2021-07-17T11:59:46Z</time>
      </trkpt>
      <trkpt lat="43.3916890" lon="-4.1062790">
        <ele>84.8</ele>
        <time>2021-07-17T11:59:52Z</time>
      </trkpt>
      <trkpt lat="43.3918010" lon="-4.1061790">
        <ele>84.8</ele>
        <time>2021-07-17T11:59:59Z</time>
      </trkpt>
      <trkpt lat="43.3918480" lon="-4.1061610">
        <ele>84.8</ele>
        <time>2021-07-17T12:00:03Z</time>
      </trkpt>
      <trkpt lat="43.3918660" lon="-4.1061450">
        <ele>84.8</ele>
        <time>2021-07-17T12:00:39Z</time>
      </trkpt>
      <trkpt lat="43.3918990" lon="-4.1060640">
        <ele>84.8</ele>
        <time>2021-07-17T12:00:44Z</time>
      </trkpt>
      <trkpt lat="43.3919670" lon="-4.1059870">
        <ele>85.2</ele>
        <time>2021-07-17T12:00:50Z</time>
      </trkpt>
      <trkpt lat="43.3919790" lon="-4.1059720">
        <ele>85.6</ele>
        <time>2021-07-17T12:00:51Z</time>
      </trkpt>
      <trkpt lat="43.3919920" lon="-4.1059580">
        <ele>86.0</ele>
        <time>2021-07-17T12:00:52Z</time>
      </trkpt>
      <trkpt lat="43.3920030" lon="-4.1059410">
        <ele>86.6</ele>
        <time>2021-07-17T12:00:53Z</time>
      </trkpt>
      <trkpt lat="43.3920120" lon="-4.1059260">
        <ele>87.0</ele>
        <time>2021-07-17T12:00:54Z</time>
      </trkpt>
      <trkpt lat="43.3920260" lon="-4.1058960">
        <ele>87.0</ele>
        <time>2021-07-17T12:00:56Z</time>
      </trkpt>
      <trkpt lat="43.3920500" lon="-4.1058280">
        <ele>87.4</ele>
        <time>2021-07-17T12:01:00Z</time>
      </trkpt>
      <trkpt lat="43.3920610" lon="-4.1058090">
        <ele>87.8</ele>
        <time>2021-07-17T12:01:01Z</time>
      </trkpt>
      <trkpt lat="43.3920750" lon="-4.1057940">
        <ele>88.2</ele>
        <time>2021-07-17T12:01:02Z</time>
      </trkpt>
      <trkpt lat="43.3920880" lon="-4.1057820">
        <ele>88.6</ele>
        <time>2021-07-17T12:01:03Z</time>
      </trkpt>
      <trkpt lat="43.3921030" lon="-4.1057730">
        <ele>89.2</ele>
        <time>2021-07-17T12:01:04Z</time>
      </trkpt>
      <trkpt lat="43.3921520" lon="-4.1057460">
        <ele>89.2</ele>
        <time>2021-07-17T12:01:07Z</time>
      </trkpt>
      <trkpt lat="43.3921690" lon="-4.1057350">
        <ele>89.2</ele>
        <time>2021-07-17T12:01:08Z</time>
      </trkpt>
      <trkpt lat="43.3922600" lon="-4.1056170">
        <ele>89.2</ele>
        <time>2021-07-17T12:01:14Z</time>
      </trkpt>
      <trkpt lat="43.3923660" lon="-4.1055140">
        <ele>89.2</ele>
        <time>2021-07-17T12:01:21Z</time>
      </trkpt>
      <trkpt lat="43.3924700" lon="-4.1055460">
        <ele>89.6</ele>
        <time>2021-07-17T12:01:27Z</time>
      </trkpt>
      <trkpt lat="43.3924880" lon="-4.1055510">
        <ele>90.0</ele>
        <time>2021-07-17T12:01:28Z</time>
      </trkpt>
      <trkpt lat="43.3925020" lon="-4.1055550">
        <ele>90.4</ele>
        <time>2021-07-17T12:01:29Z</time>
      </trkpt>
      <trkpt lat="43.3925190" lon="-4.1055590">
        <ele>91.0</ele>
        <time>2021-07-17T12:01:30Z</time>
      </trkpt>
      <trkpt lat="43.3925360" lon="-4.1055610">
        <ele>91.4</ele>
        <time>2021-07-17T12:01:31Z</time>
      </trkpt>
      <trkpt lat="43.3925880" lon="-4.1055650">
        <ele>91.8</ele>
        <time>2021-07-17T12:01:34Z</time>
      </trkpt>
      <trkpt lat="43.3926020" lon="-4.1055690">
        <ele>92.2</ele>
        <time>2021-07-17T12:01:35Z</time>
      </trkpt>
      <trkpt lat="43.3926110" lon="-4.1055730">
        <ele>92.6</ele>
        <time>2021-07-17T12:01:36Z</time>
      </trkpt>
      <trkpt lat="43.3926150" lon="-4.1055780">
        <ele>93.0</ele>
        <time>2021-07-17T12:01:37Z</time>
      </trkpt>
      <trkpt lat="43.3926170" lon="-4.1055830">
        <ele>93.4</ele>
        <time>2021-07-17T12:01:38Z</time>
      </trkpt>
      <trkpt lat="43.3926080" lon="-4.1056050">
        <ele>93.4</ele>
        <time>2021-07-17T12:01:41Z</time>
      </trkpt>
      <trkpt lat="43.3925970" lon="-4.1056460">
        <ele>93.4</ele>
        <time>2021-07-17T12:01:43Z</time>
      </trkpt>
      <trkpt lat="43.3925950" lon="-4.1056850">
        <ele>93.4</ele>
        <time>2021-07-17T12:01:45Z</time>
      </trkpt>
      <trkpt lat="43.3926170" lon="-4.1057960">
        <ele>93.4</ele>
        <time>2021-07-17T12:01:49Z</time>
      </trkpt>
      <trkpt lat="43.3926270" lon="-4.1058280">
        <ele>93.4</ele>
        <time>2021-07-17T12:01:50Z</time>
      </trkpt>
      <trkpt lat="43.3926700" lon="-4.1059830">
        <ele>93.4</ele>
        <time>2021-07-17T12:01:55Z</time>
      </trkpt>
      <trkpt lat="43.3926810" lon="-4.1061200">
        <ele>93.4</ele>
        <time>2021-07-17T12:02:00Z</time>
      </trkpt>
      <trkpt lat="43.3926300" lon="-4.1062470">
        <ele>93.4</ele>
        <time>2021-07-17T12:02:07Z</time>
      </trkpt>
      <trkpt lat="43.3925350" lon="-4.1063170">
        <ele>93.4</ele>
        <time>2021-07-17T12:02:13Z</time>
      </trkpt>
      <trkpt lat="43.3924110" lon="-4.1063310">
        <ele>93.4</ele>
        <time>2021-07-17T12:02:19Z</time>
      </trkpt>
      <trkpt lat="43.3923720" lon="-4.1063400">
        <ele>93.0</ele>
        <time>2021-07-17T12:02:21Z</time>
      </trkpt>
      <trkpt lat="43.3923550" lon="-4.1063430">
        <ele>92.2</ele>
        <time>2021-07-17T12:02:22Z</time>
      </trkpt>
      <trkpt lat="43.3923390" lon="-4.1063460">
        <ele>91.8</ele>
        <time>2021-07-17T12:02:23Z</time>
      </trkpt>
      <trkpt lat="43.3923220" lon="-4.1063500">
        <ele>91.4</ele>
        <time>2021-07-17T12:02:24Z</time>
      </trkpt>
      <trkpt lat="43.3922630" lon="-4.1063610">
        <ele>91.4</ele>
        <time>2021-07-17T12:02:27Z</time>
      </trkpt>
      <trkpt lat="43.3922240" lon="-4.1063660">
        <ele>91.4</ele>
        <time>2021-07-17T12:02:29Z</time>
      </trkpt>
      <trkpt lat="43.3922040" lon="-4.1063670">
        <ele>91.4</ele>
        <time>2021-07-17T12:02:30Z</time>
      </trkpt>
      <trkpt lat="43.3921660" lon="-4.1063670">
        <ele>91.4</ele>
        <time>2021-07-17T12:02:32Z</time>
      </trkpt>
      <trkpt lat="43.3921500" lon="-4.1063650">
        <ele>91.0</ele>
        <time>2021-07-17T12:02:33Z</time>
      </trkpt>
      <trkpt lat="43.3921330" lon="-4.1063650">
        <ele>90.4</ele>
        <time>2021-07-17T12:02:34Z</time>
      </trkpt>
      <trkpt lat="43.3921130" lon="-4.1063660">
        <ele>90.0</ele>
        <time>2021-07-17T12:02:35Z</time>
      </trkpt>
      <trkpt lat="43.3920950" lon="-4.1063670">
        <ele>89.6</ele>
        <time>2021-07-17T12:02:36Z</time>
      </trkpt>
      <trkpt lat="43.3920790" lon="-4.1063700">
        <ele>89.2</ele>
        <time>2021-07-17T12:02:37Z</time>
      </trkpt>
      <trkpt lat="43.3920500" lon="-4.1063690">
        <ele>89.2</ele>
        <time>2021-07-17T12:02:39Z</time>
      </trkpt>
      <trkpt lat="43.3920200" lon="-4.1063500">
        <ele>89.2</ele>
        <time>2021-07-17T12:02:41Z</time>
      </trkpt>
      <trkpt lat="43.3919990" lon="-4.1063220">
        <ele>89.2</ele>
        <time>2021-07-17T12:02:43Z</time>
      </trkpt>
      <trkpt lat="43.3919710" lon="-4.1062720">
        <ele>89.2</ele>
        <time>2021-07-17T12:02:47Z</time>
      </trkpt>
      <trkpt lat="43.3919680" lon="-4.1062170">
        <ele>88.8</ele>
        <time>2021-07-17T12:02:50Z</time>
      </trkpt>
      <trkpt lat="43.3919660" lon="-4.1062130">
        <ele>88.4</ele>
        <time>2021-07-17T12:02:51Z</time>
      </trkpt>
      <trkpt lat="43.3919630" lon="-4.1062020">
        <ele>87.4</ele>
        <time>2021-07-17T12:02:53Z</time>
      </trkpt>
      <trkpt lat="43.3919490" lon="-4.1061990">
        <ele>87.0</ele>
        <time>2021-07-17T12:02:54Z</time>
      </trkpt>
      <trkpt lat="43.3918910" lon="-4.1061880">
        <ele>87.0</ele>
        <time>2021-07-17T12:02:58Z</time>
      </trkpt>
      <trkpt lat="43.3918810" lon="-4.1061770">
        <ele>87.0</ele>
        <time>2021-07-17T12:02:59Z</time>
      </trkpt>
      <trkpt lat="43.3918760" lon="-4.1061730">
        <ele>87.0</ele>
        <time>2021-07-17T12:03:00Z</time>
      </trkpt>
      <trkpt lat="43.3918760" lon="-4.1061750">
        <ele>85.0</ele>
        <time>2021-07-17T12:04:23Z</time>
      </trkpt>
      <trkpt lat="43.3918520" lon="-4.1061990">
        <ele>85.0</ele>
        <time>2021-07-17T12:04:25Z</time>
      </trkpt>
      <trkpt lat="43.3917750" lon="-4.1062420">
        <ele>85.0</ele>
        <time>2021-07-17T12:04:30Z</time>
      </trkpt>
      <trkpt lat="43.3916730" lon="-4.1063090">
        <ele>85.0</ele>
        <time>2021-07-17T12:04:36Z</time>
      </trkpt>
      <trkpt lat="43.3915740" lon="-4.1064080">
        <ele>85.0</ele>
        <time>2021-07-17T12:04:42Z</time>
      </trkpt>
      <trkpt lat="43.3914710" lon="-4.1064960">
        <ele>85.0</ele>
        <time>2021-07-17T12:04:46Z</time>
      </trkpt>
      <trkpt lat="43.3914150" lon="-4.1065410">
        <ele>85.0</ele>
        <time>2021-07-17T12:04:48Z</time>
      </trkpt>
      <trkpt lat="43.3913010" lon="-4.1066700">
        <ele>85.0</ele>
        <time>2021-07-17T12:04:54Z</time>
      </trkpt>
      <trkpt lat="43.3912790" lon="-4.1067150">
        <ele>85.0</ele>
        <time>2021-07-17T12:04:56Z</time>
      </trkpt>
      <trkpt lat="43.3912450" lon="-4.1067610">
        <ele>85.0</ele>
        <time>2021-07-17T12:04:59Z</time>
      </trkpt>
      <trkpt lat="43.3912360" lon="-4.1068000">
        <ele>85.0</ele>
        <time>2021-07-17T12:05:01Z</time>
      </trkpt>
      <trkpt lat="43.3912510" lon="-4.1068200">
        <ele>85.0</ele>
        <time>2021-07-17T12:05:02Z</time>
      </trkpt>
      <trkpt lat="43.3913420" lon="-4.1070410">
        <ele>85.0</ele>
        <time>2021-07-17T12:05:11Z</time>
      </trkpt>
      <trkpt lat="43.3913160" lon="-4.1072010">
        <ele>85.0</ele>
        <time>2021-07-17T12:05:17Z</time>
      </trkpt>
      <trkpt lat="43.3913010" lon="-4.1072210">
        <ele>85.0</ele>
        <time>2021-07-17T12:05:18Z</time>
      </trkpt>
      <trkpt lat="43.3912690" lon="-4.1072840">
        <ele>85.0</ele>
        <time>2021-07-17T12:05:21Z</time>
      </trkpt>
      <trkpt lat="43.3912700" lon="-4.1073080">
        <ele>85.0</ele>
        <time>2021-07-17T12:05:22Z</time>
      </trkpt>
      <trkpt lat="43.3912470" lon="-4.1073870">
        <ele>85.0</ele>
        <time>2021-07-17T12:05:26Z</time>
      </trkpt>
      <trkpt lat="43.3912150" lon="-4.1074220">
        <ele>85.4</ele>
        <time>2021-07-17T12:05:28Z</time>
      </trkpt>
      <trkpt lat="43.3911950" lon="-4.1074380">
        <ele>86.0</ele>
        <time>2021-07-17T12:05:29Z</time>
      </trkpt>
      <trkpt lat="43.3911760" lon="-4.1074510">
        <ele>86.4</ele>
        <time>2021-07-17T12:05:30Z</time>
      </trkpt>
      <trkpt lat="43.3911590" lon="-4.1074770">
        <ele>86.8</ele>
        <time>2021-07-17T12:05:31Z</time>
      </trkpt>
      <trkpt lat="43.3911430" lon="-4.1074940">
        <ele>87.2</ele>
        <time>2021-07-17T12:05:32Z</time>
      </trkpt>
      <trkpt lat="43.3911000" lon="-4.1075170">
        <ele>87.2</ele>
        <time>2021-07-17T12:05:34Z</time>
      </trkpt>
      <trkpt lat="43.3910470" lon="-4.1075710">
        <ele>87.2</ele>
        <time>2021-07-17T12:05:38Z</time>
      </trkpt>
      <trkpt lat="43.3910100" lon="-4.1075840">
        <ele>87.2</ele>
        <time>2021-07-17T12:05:40Z</time>
      </trkpt>
      <trkpt lat="43.3909790" lon="-4.1076080">
        <ele>87.6</ele>
        <time>2021-07-17T12:05:42Z</time>
      </trkpt>
      <trkpt lat="43.3909640" lon="-4.1076160">
        <ele>88.0</ele>
        <time>2021-07-17T12:05:43Z</time>
      </trkpt>
      <trkpt lat="43.3909440" lon="-4.1076210">
        <ele>88.4</ele>
        <time>2021-07-17T12:05:44Z</time>
      </trkpt>
      <trkpt lat="43.3909290" lon="-4.1076310">
        <ele>88.8</ele>
        <time>2021-07-17T12:05:45Z</time>
      </trkpt>
      <trkpt lat="43.3909090" lon="-4.1076420">
        <ele>89.2</ele>
        <time>2021-07-17T12:05:46Z</time>
      </trkpt>
      <trkpt lat="43.3908940" lon="-4.1076520">
        <ele>89.2</ele>
        <time>2021-07-17T12:05:47Z</time>
      </trkpt>
      <trkpt lat="43.3908650" lon="-4.1076650">
        <ele>89.8</ele>
        <time>2021-07-17T12:05:49Z</time>
      </trkpt>
      <trkpt lat="43.3908510" lon="-4.1076710">
        <ele>90.2</ele>
        <time>2021-07-17T12:05:50Z</time>
      </trkpt>
      <trkpt lat="43.3908360" lon="-4.1076840">
        <ele>90.6</ele>
        <time>2021-07-17T12:05:51Z</time>
      </trkpt>
      <trkpt lat="43.3908210" lon="-4.1076960">
        <ele>91.0</ele>
        <time>2021-07-17T12:05:52Z</time>
      </trkpt>
      <trkpt lat="43.3908070" lon="-4.1077130">
        <ele>91.4</ele>
        <time>2021-07-17T12:05:53Z</time>
      </trkpt>
      <trkpt lat="43.3907840" lon="-4.1077380">
        <ele>91.4</ele>
        <time>2021-07-17T12:05:55Z</time>
      </trkpt>
      <trkpt lat="43.3907420" lon="-4.1077920">
        <ele>91.4</ele>
        <time>2021-07-17T12:06:00Z</time>
      </trkpt>
      <trkpt lat="43.3907240" lon="-4.1078170">
        <ele>91.4</ele>
        <time>2021-07-17T12:06:02Z</time>
      </trkpt>
      <trkpt lat="43.3907190" lon="-4.1078570">
        <ele>91.8</ele>
        <time>2021-07-17T12:06:04Z</time>
      </trkpt>
      <trkpt lat="43.3907180" lon="-4.1078760">
        <ele>92.4</ele>
        <time>2021-07-17T12:06:05Z</time>
      </trkpt>
      <trkpt lat="43.3907200" lon="-4.1078920">
        <ele>92.8</ele>
        <time>2021-07-17T12:06:06Z</time>
      </trkpt>
      <trkpt lat="43.3907160" lon="-4.1079100">
        <ele>93.2</ele>
        <time>2021-07-17T12:06:07Z</time>
      </trkpt>
      <trkpt lat="43.3907150" lon="-4.1079300">
        <ele>93.6</ele>
        <time>2021-07-17T12:06:08Z</time>
      </trkpt>
      <trkpt lat="43.3907180" lon="-4.1079510">
        <ele>93.6</ele>
        <time>2021-07-17T12:06:09Z</time>
      </trkpt>
      <trkpt lat="43.3907150" lon="-4.1081030">
        <ele>93.6</ele>
        <time>2021-07-17T12:06:16Z</time>
      </trkpt>
      <trkpt lat="43.3906560" lon="-4.1081740">
        <ele>93.6</ele>
        <time>2021-07-17T12:06:21Z</time>
      </trkpt>
      <trkpt lat="43.3906290" lon="-4.1081820">
        <ele>93.6</ele>
        <time>2021-07-17T12:06:22Z</time>
      </trkpt>
      <trkpt lat="43.3905390" lon="-4.1082480">
        <ele>93.6</ele>
        <time>2021-07-17T12:06:28Z</time>
      </trkpt>
      <trkpt lat="43.3905050" lon="-4.1082630">
        <ele>93.6</ele>
        <time>2021-07-17T12:06:30Z</time>
      </trkpt>
      <trkpt lat="43.3904760" lon="-4.1082620">
        <ele>93.6</ele>
        <time>2021-07-17T12:06:32Z</time>
      </trkpt>
      <trkpt lat="43.3904650" lon="-4.1082600">
        <ele>94.0</ele>
        <time>2021-07-17T12:06:33Z</time>
      </trkpt>
      <trkpt lat="43.3904660" lon="-4.1082600">
        <ele>94.4</ele>
        <time>2021-07-17T12:06:34Z</time>
      </trkpt>
      <trkpt lat="43.3904600" lon="-4.1082580">
        <ele>94.8</ele>
        <time>2021-07-17T12:06:35Z</time>
      </trkpt>
      <trkpt lat="43.3904340" lon="-4.1082660">
        <ele>95.6</ele>
        <time>2021-07-17T12:06:57Z</time>
      </trkpt>
      <trkpt lat="43.3904190" lon="-4.1082810">
        <ele>95.6</ele>
        <time>2021-07-17T12:06:58Z</time>
      </trkpt>
      <trkpt lat="43.3904060" lon="-4.1083000">
        <ele>95.6</ele>
        <time>2021-07-17T12:06:59Z</time>
      </trkpt>
      <trkpt lat="43.3903450" lon="-4.1083620">
        <ele>95.6</ele>
        <time>2021-07-17T12:07:03Z</time>
      </trkpt>
      <trkpt lat="43.3902850" lon="-4.1084040">
        <ele>95.6</ele>
        <time>2021-07-17T12:07:06Z</time>
      </trkpt>
      <trkpt lat="43.3902320" lon="-4.1084380">
        <ele>95.6</ele>
        <time>2021-07-17T12:07:08Z</time>
      </trkpt>
      <trkpt lat="43.3902090" lon="-4.1084540">
        <ele>95.6</ele>
        <time>2021-07-17T12:07:09Z</time>
      </trkpt>
      <trkpt lat="43.3901360" lon="-4.1085030">
        <ele>95.6</ele>
        <time>2021-07-17T12:07:12Z</time>
      </trkpt>
      <trkpt lat="43.3901220" lon="-4.1085160">
        <ele>95.6</ele>
        <time>2021-07-17T12:07:13Z</time>
      </trkpt>
      <trkpt lat="43.3901020" lon="-4.1085140">
        <ele>95.6</ele>
        <time>2021-07-17T12:07:14Z</time>
      </trkpt>
      <trkpt lat="43.3900900" lon="-4.1085230">
        <ele>95.6</ele>
        <time>2021-07-17T12:07:15Z</time>
      </trkpt>
      <trkpt lat="43.3900760" lon="-4.1085330">
        <ele>95.2</ele>
        <time>2021-07-17T12:07:16Z</time>
      </trkpt>
      <trkpt lat="43.3900580" lon="-4.1085520">
        <ele>94.8</ele>
        <time>2021-07-17T12:07:17Z</time>
      </trkpt>
      <trkpt lat="43.3900380" lon="-4.1085680">
        <ele>94.4</ele>
        <time>2021-07-17T12:07:18Z</time>
      </trkpt>
      <trkpt lat="43.3900190" lon="-4.1085840">
        <ele>94.0</ele>
        <time>2021-07-17T12:07:19Z</time>
      </trkpt>
      <trkpt lat="43.3899990" lon="-4.1086010">
        <ele>93.6</ele>
        <time>2021-07-17T12:07:20Z</time>
      </trkpt>
      <trkpt lat="43.3899780" lon="-4.1086150">
        <ele>93.6</ele>
        <time>2021-07-17T12:07:21Z</time>
      </trkpt>
      <trkpt lat="43.3899320" lon="-4.1086460">
        <ele>93.6</ele>
        <time>2021-07-17T12:07:23Z</time>
      </trkpt>
      <trkpt lat="43.3898890" lon="-4.1086950">
        <ele>93.6</ele>
        <time>2021-07-17T12:07:25Z</time>
      </trkpt>
      <trkpt lat="43.3898460" lon="-4.1087370">
        <ele>93.6</ele>
        <time>2021-07-17T12:07:27Z</time>
      </trkpt>
      <trkpt lat="43.3897600" lon="-4.1087520">
        <ele>93.2</ele>
        <time>2021-07-17T12:07:31Z</time>
      </trkpt>
      <trkpt lat="43.3897350" lon="-4.1087630">
        <ele>92.8</ele>
        <time>2021-07-17T12:07:32Z</time>
      </trkpt>
      <trkpt lat="43.3897080" lon="-4.1087740">
        <ele>92.4</ele>
        <time>2021-07-17T12:07:33Z</time>
      </trkpt>
      <trkpt lat="43.3896930" lon="-4.1087790">
        <ele>92.0</ele>
        <time>2021-07-17T12:07:34Z</time>
      </trkpt>
      <trkpt lat="43.3896750" lon="-4.1087800">
        <ele>91.6</ele>
        <time>2021-07-17T12:07:35Z</time>
      </trkpt>
      <trkpt lat="43.3896370" lon="-4.1087730">
        <ele>91.6</ele>
        <time>2021-07-17T12:07:37Z</time>
      </trkpt>
      <trkpt lat="43.3895100" lon="-4.1088530">
        <ele>91.6</ele>
        <time>2021-07-17T12:07:42Z</time>
      </trkpt>
      <trkpt lat="43.3893410" lon="-4.1089690">
        <ele>91.6</ele>
        <time>2021-07-17T12:07:49Z</time>
      </trkpt>
      <trkpt lat="43.3891560" lon="-4.1090540">
        <ele>91.2</ele>
        <time>2021-07-17T12:07:56Z</time>
      </trkpt>
      <trkpt lat="43.3891390" lon="-4.1090600">
        <ele>90.8</ele>
        <time>2021-07-17T12:07:57Z</time>
      </trkpt>
      <trkpt lat="43.3891140" lon="-4.1090630">
        <ele>90.4</ele>
        <time>2021-07-17T12:07:58Z</time>
      </trkpt>
      <trkpt lat="43.3890920" lon="-4.1090610">
        <ele>90.0</ele>
        <time>2021-07-17T12:07:59Z</time>
      </trkpt>
      <trkpt lat="43.3890770" lon="-4.1090570">
        <ele>89.6</ele>
        <time>2021-07-17T12:08:00Z</time>
      </trkpt>
      <trkpt lat="43.3890640" lon="-4.1090430">
        <ele>89.6</ele>
        <time>2021-07-17T12:08:01Z</time>
      </trkpt>
      <trkpt lat="43.3890360" lon="-4.1090030">
        <ele>89.6</ele>
        <time>2021-07-17T12:08:04Z</time>
      </trkpt>
      <trkpt lat="43.3890220" lon="-4.1089750">
        <ele>89.6</ele>
        <time>2021-07-17T12:08:07Z</time>
      </trkpt>
      <trkpt lat="43.3890130" lon="-4.1089790">
        <ele>89.6</ele>
        <time>2021-07-17T12:08:09Z</time>
      </trkpt>
      <trkpt lat="43.3889480" lon="-4.1089540">
        <ele>89.6</ele>
        <time>2021-07-17T12:08:15Z</time>
      </trkpt>
      <trkpt lat="43.3889390" lon="-4.1089350">
        <ele>89.6</ele>
        <time>2021-07-17T12:08:16Z</time>
      </trkpt>
      <trkpt lat="43.3888810" lon="-4.1087620">
        <ele>89.6</ele>
        <time>2021-07-17T12:08:23Z</time>
      </trkpt>
      <trkpt lat="43.3888290" lon="-4.1085200">
        <ele>89.6</ele>
        <time>2021-07-17T12:08:32Z</time>
      </trkpt>
      <trkpt lat="43.3887760" lon="-4.1083000">
        <ele>89.6</ele>
        <time>2021-07-17T12:08:39Z</time>
      </trkpt>
      <trkpt lat="43.3886890" lon="-4.1080630">
        <ele>89.6</ele>
        <time>2021-07-17T12:08:47Z</time>
      </trkpt>
      <trkpt lat="43.3886480" lon="-4.1079210">
        <ele>89.6</ele>
        <time>2021-07-17T12:08:54Z</time>
      </trkpt>
      <trkpt lat="43.3886620" lon="-4.1078940">
        <ele>89.6</ele>
        <time>2021-07-17T12:08:57Z</time>
      </trkpt>
      <trkpt lat="43.3886880" lon="-4.1078720">
        <ele>89.6</ele>
        <time>2021-07-17T12:08:59Z</time>
      </trkpt>
      <trkpt lat="43.3886910" lon="-4.1078520">
        <ele>90.0</ele>
        <time>2021-07-17T12:09:00Z</time>
      </trkpt>
      <trkpt lat="43.3886930" lon="-4.1078320">
        <ele>90.4</ele>
        <time>2021-07-17T12:09:01Z</time>
      </trkpt>
      <trkpt lat="43.3886920" lon="-4.1078200">
        <ele>90.8</ele>
        <time>2021-07-17T12:09:02Z</time>
      </trkpt>
      <trkpt lat="43.3886920" lon="-4.1078100">
        <ele>91.2</ele>
        <time>2021-07-17T12:09:03Z</time>
      </trkpt>
      <trkpt lat="43.3886750" lon="-4.1078510">
        <ele>91.6</ele>
        <time>2021-07-17T12:32:04Z</time>
      </trkpt>
      <trkpt lat="43.3886860" lon="-4.1078780">
        <ele>91.6</ele>
        <time>2021-07-17T12:32:05Z</time>
      </trkpt>
      <trkpt lat="43.3886990" lon="-4.1079130">
        <ele>91.6</ele>
        <time>2021-07-17T12:32:06Z</time>
      </trkpt>
      <trkpt lat="43.3887460" lon="-4.1080190">
        <ele>91.6</ele>
        <time>2021-07-17T12:32:10Z</time>
      </trkpt>
      <trkpt lat="43.3887640" lon="-4.1080160">
        <ele>91.6</ele>
        <time>2021-07-17T12:32:11Z</time>
      </trkpt>
      <trkpt lat="43.3888340" lon="-4.1079610">
        <ele>91.6</ele>
        <time>2021-07-17T12:32:15Z</time>
      </trkpt>
      <trkpt lat="43.3889670" lon="-4.1078770">
        <ele>91.6</ele>
        <time>2021-07-17T12:32:22Z</time>
      </trkpt>
      <trkpt lat="43.3890410" lon="-4.1078130">
        <ele>91.6</ele>
        <time>2021-07-17T12:32:26Z</time>
      </trkpt>
      <trkpt lat="43.3890570" lon="-4.1077900">
        <ele>91.2</ele>
        <time>2021-07-17T12:32:27Z</time>
      </trkpt>
      <trkpt lat="43.3890730" lon="-4.1077670">
        <ele>90.8</ele>
        <time>2021-07-17T12:32:28Z</time>
      </trkpt>
      <trkpt lat="43.3890890" lon="-4.1077370">
        <ele>90.4</ele>
        <time>2021-07-17T12:32:29Z</time>
      </trkpt>
      <trkpt lat="43.3891020" lon="-4.1077040">
        <ele>90.0</ele>
        <time>2021-07-17T12:32:30Z</time>
      </trkpt>
      <trkpt lat="43.3891190" lon="-4.1076870">
        <ele>89.6</ele>
        <time>2021-07-17T12:32:31Z</time>
      </trkpt>
      <trkpt lat="43.3891670" lon="-4.1076640">
        <ele>89.6</ele>
        <time>2021-07-17T12:32:34Z</time>
      </trkpt>
      <trkpt lat="43.3891880" lon="-4.1076480">
        <ele>89.6</ele>
        <time>2021-07-17T12:32:36Z</time>
      </trkpt>
      <trkpt lat="43.3891960" lon="-4.1076460">
        <ele>89.6</ele>
        <time>2021-07-17T12:32:38Z</time>
      </trkpt>
      <trkpt lat="43.3891980" lon="-4.1076440">
        <ele>89.6</ele>
        <time>2021-07-17T12:32:39Z</time>
      </trkpt>
      <trkpt lat="43.3891260" lon="-4.1077450">
        <ele>89.6</ele>
        <time>2021-07-17T12:34:24Z</time>
      </trkpt>
      <trkpt lat="43.3891470" lon="-4.1077740">
        <ele>89.6</ele>
        <time>2021-07-17T12:34:26Z</time>
      </trkpt>
      <trkpt lat="43.3892000" lon="-4.1077700">
        <ele>89.6</ele>
        <time>2021-07-17T12:34:29Z</time>
      </trkpt>
      <trkpt lat="43.3892340" lon="-4.1077600">
        <ele>89.6</ele>
        <time>2021-07-17T12:34:31Z</time>
      </trkpt>
      <trkpt lat="43.3892860" lon="-4.1077560">
        <ele>89.6</ele>
        <time>2021-07-17T12:34:34Z</time>
      </trkpt>
      <trkpt lat="43.3893310" lon="-4.1077690">
        <ele>89.6</ele>
        <time>2021-07-17T12:34:37Z</time>
      </trkpt>
      <trkpt lat="43.3894310" lon="-4.1078600">
        <ele>89.6</ele>
        <time>2021-07-17T12:34:43Z</time>
      </trkpt>
      <trkpt lat="43.3894910" lon="-4.1079440">
        <ele>89.6</ele>
        <time>2021-07-17T12:34:48Z</time>
      </trkpt>
      <trkpt lat="43.3895100" lon="-4.1079740">
        <ele>89.6</ele>
        <time>2021-07-17T12:34:50Z</time>
      </trkpt>
      <trkpt lat="43.3895910" lon="-4.1080880">
        <ele>90.0</ele>
        <time>2021-07-17T12:34:56Z</time>
      </trkpt>
      <trkpt lat="43.3896060" lon="-4.1081040">
        <ele>90.4</ele>
        <time>2021-07-17T12:34:57Z</time>
      </trkpt>
      <trkpt lat="43.3896190" lon="-4.1081220">
        <ele>90.8</ele>
        <time>2021-07-17T12:34:58Z</time>
      </trkpt>
      <trkpt lat="43.3896340" lon="-4.1081380">
        <ele>91.2</ele>
        <time>2021-07-17T12:34:59Z</time>
      </trkpt>
      <trkpt lat="43.3896500" lon="-4.1081530">
        <ele>91.6</ele>
        <time>2021-07-17T12:35:00Z</time>
      </trkpt>
      <trkpt lat="43.3897120" lon="-4.1082450">
        <ele>91.6</ele>
        <time>2021-07-17T12:35:05Z</time>
      </trkpt>
      <trkpt lat="43.3897670" lon="-4.1083150">
        <ele>91.6</ele>
        <time>2021-07-17T12:35:09Z</time>
      </trkpt>
      <trkpt lat="43.3897830" lon="-4.1083580">
        <ele>91.6</ele>
        <time>2021-07-17T12:35:12Z</time>
      </trkpt>
      <trkpt lat="43.3897810" lon="-4.1083750">
        <ele>91.6</ele>
        <time>2021-07-17T12:35:13Z</time>
      </trkpt>
      <trkpt lat="43.3897680" lon="-4.1084000">
        <ele>91.6</ele>
        <time>2021-07-17T12:35:14Z</time>
      </trkpt>
      <trkpt lat="43.3897190" lon="-4.1084940">
        <ele>91.6</ele>
        <time>2021-07-17T12:35:18Z</time>
      </trkpt>
      <trkpt lat="43.3897050" lon="-4.1085200">
        <ele>91.6</ele>
        <time>2021-07-17T12:35:19Z</time>
      </trkpt>
      <trkpt lat="43.3896400" lon="-4.1086280">
        <ele>91.6</ele>
        <time>2021-07-17T12:35:24Z</time>
      </trkpt>
      <trkpt lat="43.3896290" lon="-4.1086640">
        <ele>91.6</ele>
        <time>2021-07-17T12:35:25Z</time>
      </trkpt>
      <trkpt lat="43.3895850" lon="-4.1087290">
        <ele>91.6</ele>
        <time>2021-07-17T12:35:27Z</time>
      </trkpt>
      <trkpt lat="43.3895340" lon="-4.1087820">
        <ele>91.6</ele>
        <time>2021-07-17T12:35:29Z</time>
      </trkpt>
      <trkpt lat="43.3894630" lon="-4.1088420">
        <ele>91.6</ele>
        <time>2021-07-17T12:35:32Z</time>
      </trkpt>
      <trkpt lat="43.3893940" lon="-4.1089040">
        <ele>91.6</ele>
        <time>2021-07-17T12:35:35Z</time>
      </trkpt>
      <trkpt lat="43.3893440" lon="-4.1089340">
        <ele>91.6</ele>
        <time>2021-07-17T12:35:37Z</time>
      </trkpt>
      <trkpt lat="43.3892900" lon="-4.1089560">
        <ele>91.6</ele>
        <time>2021-07-17T12:35:39Z</time>
      </trkpt>
      <trkpt lat="43.3892460" lon="-4.1089790">
        <ele>91.6</ele>
        <time>2021-07-17T12:35:41Z</time>
      </trkpt>
      <trkpt lat="43.3891990" lon="-4.1090040">
        <ele>91.6</ele>
        <time>2021-07-17T12:35:43Z</time>
      </trkpt>
      <trkpt lat="43.3891160" lon="-4.1090610">
        <ele>91.6</ele>
        <time>2021-07-17T12:35:47Z</time>
      </trkpt>
      <trkpt lat="43.3890480" lon="-4.1091050">
        <ele>91.6</ele>
        <time>2021-07-17T12:35:53Z</time>
      </trkpt>
      <trkpt lat="43.3890480" lon="-4.1091020">
        <ele>91.6</ele>
        <time>2021-07-17T12:35:54Z</time>
      </trkpt>
      <trkpt lat="43.3890580" lon="-4.1091570">
        <ele>91.6</ele>
        <time>2021-07-17T12:36:01Z</time>
      </trkpt>
      <trkpt lat="43.3890780" lon="-4.1091950">
        <ele>91.6</ele>
        <time>2021-07-17T12:36:03Z</time>
      </trkpt>
      <trkpt lat="43.3890910" lon="-4.1092180">
        <ele>91.6</ele>
        <time>2021-07-17T12:36:04Z</time>
      </trkpt>
      <trkpt lat="43.3891080" lon="-4.1092460">
        <ele>91.6</ele>
        <time>2021-07-17T12:36:05Z</time>
      </trkpt>
      <trkpt lat="43.3891500" lon="-4.1093460">
        <ele>91.6</ele>
        <time>2021-07-17T12:36:08Z</time>
      </trkpt>
      <trkpt lat="43.3891620" lon="-4.1093800">
        <ele>91.6</ele>
        <time>2021-07-17T12:36:09Z</time>
      </trkpt>
      <trkpt lat="43.3892750" lon="-4.1096030">
        <ele>91.6</ele>
        <time>2021-07-17T12:36:16Z</time>
      </trkpt>
      <trkpt lat="43.3893760" lon="-4.1097380">
        <ele>91.6</ele>
        <time>2021-07-17T12:36:23Z</time>
      </trkpt>
      <trkpt lat="43.3894590" lon="-4.1098250">
        <ele>91.6</ele>
        <time>2021-07-17T12:36:28Z</time>
      </trkpt>
      <trkpt lat="43.3894730" lon="-4.1098390">
        <ele>91.6</ele>
        <time>2021-07-17T12:36:29Z</time>
      </trkpt>
      <trkpt lat="43.3895390" lon="-4.1099230">
        <ele>91.6</ele>
        <time>2021-07-17T12:36:32Z</time>
      </trkpt>
      <trkpt lat="43.3896170" lon="-4.1100090">
        <ele>91.6</ele>
        <time>2021-07-17T12:36:36Z</time>
      </trkpt>
      <trkpt lat="43.3896620" lon="-4.1100450">
        <ele>92.0</ele>
        <time>2021-07-17T12:36:38Z</time>
      </trkpt>
      <trkpt lat="43.3896820" lon="-4.1100650">
        <ele>92.6</ele>
        <time>2021-07-17T12:36:39Z</time>
      </trkpt>
      <trkpt lat="43.3897040" lon="-4.1100840">
        <ele>93.0</ele>
        <time>2021-07-17T12:36:40Z</time>
      </trkpt>
      <trkpt lat="43.3897250" lon="-4.1101110">
        <ele>93.8</ele>
        <time>2021-07-17T12:36:41Z</time>
      </trkpt>
      <trkpt lat="43.3897580" lon="-4.1101470">
        <ele>93.8</ele>
        <time>2021-07-17T12:36:43Z</time>
      </trkpt>
      <trkpt lat="43.3898780" lon="-4.1102490">
        <ele>93.8</ele>
        <time>2021-07-17T12:36:49Z</time>
      </trkpt>
      <trkpt lat="43.3898960" lon="-4.1102670">
        <ele>94.2</ele>
        <time>2021-07-17T12:36:50Z</time>
      </trkpt>
      <trkpt lat="43.3899110" lon="-4.1102850">
        <ele>94.6</ele>
        <time>2021-07-17T12:36:51Z</time>
      </trkpt>
      <trkpt lat="43.3899280" lon="-4.1103010">
        <ele>95.0</ele>
        <time>2021-07-17T12:36:52Z</time>
      </trkpt>
      <trkpt lat="43.3899450" lon="-4.1103150">
        <ele>95.6</ele>
        <time>2021-07-17T12:36:53Z</time>
      </trkpt>
      <trkpt lat="43.3899560" lon="-4.1103310">
        <ele>96.0</ele>
        <time>2021-07-17T12:36:54Z</time>
      </trkpt>
      <trkpt lat="43.3899960" lon="-4.1104020">
        <ele>96.0</ele>
        <time>2021-07-17T12:36:57Z</time>
      </trkpt>
      <trkpt lat="43.3900460" lon="-4.1104860">
        <ele>96.0</ele>
        <time>2021-07-17T12:37:00Z</time>
      </trkpt>
      <trkpt lat="43.3900840" lon="-4.1105520">
        <ele>96.4</ele>
        <time>2021-07-17T12:37:02Z</time>
      </trkpt>
      <trkpt lat="43.3901040" lon="-4.1105850">
        <ele>96.8</ele>
        <time>2021-07-17T12:37:03Z</time>
      </trkpt>
      <trkpt lat="43.3901210" lon="-4.1106130">
        <ele>97.2</ele>
        <time>2021-07-17T12:37:04Z</time>
      </trkpt>
      <trkpt lat="43.3901370" lon="-4.1106470">
        <ele>97.6</ele>
        <time>2021-07-17T12:37:05Z</time>
      </trkpt>
      <trkpt lat="43.3901530" lon="-4.1106750">
        <ele>98.2</ele>
        <time>2021-07-17T12:37:06Z</time>
      </trkpt>
      <trkpt lat="43.3901960" lon="-4.1107720">
        <ele>98.2</ele>
        <time>2021-07-17T12:37:09Z</time>
      </trkpt>
      <trkpt lat="43.3902890" lon="-4.1109520">
        <ele>98.6</ele>
        <time>2021-07-17T12:37:15Z</time>
      </trkpt>
      <trkpt lat="43.3903040" lon="-4.1109830">
        <ele>99.0</ele>
        <time>2021-07-17T12:37:16Z</time>
      </trkpt>
      <trkpt lat="43.3903200" lon="-4.1110090">
        <ele>99.4</ele>
        <time>2021-07-17T12:37:17Z</time>
      </trkpt>
      <trkpt lat="43.3903350" lon="-4.1110330">
        <ele>99.8</ele>
        <time>2021-07-17T12:37:18Z</time>
      </trkpt>
      <trkpt lat="43.3903500" lon="-4.1110560">
        <ele>100.2</ele>
        <time>2021-07-17T12:37:19Z</time>
      </trkpt>
      <trkpt lat="43.3904340" lon="-4.1111960">
        <ele>100.2</ele>
        <time>2021-07-17T12:37:26Z</time>
      </trkpt>
      <trkpt lat="43.3904730" lon="-4.1112550">
        <ele>100.6</ele>
        <time>2021-07-17T12:37:29Z</time>
      </trkpt>
      <trkpt lat="43.3904840" lon="-4.1112720">
        <ele>101.4</ele>
        <time>2021-07-17T12:37:30Z</time>
      </trkpt>
      <trkpt lat="43.3905000" lon="-4.1112880">
        <ele>101.8</ele>
        <time>2021-07-17T12:37:31Z</time>
      </trkpt>
      <trkpt lat="43.3905140" lon="-4.1113050">
        <ele>102.2</ele>
        <time>2021-07-17T12:37:32Z</time>
      </trkpt>
      <trkpt lat="43.3905410" lon="-4.1113320">
        <ele>102.2</ele>
        <time>2021-07-17T12:37:34Z</time>
      </trkpt>
      <trkpt lat="43.3906770" lon="-4.1114340">
        <ele>102.2</ele>
        <time>2021-07-17T12:37:42Z</time>
      </trkpt>
      <trkpt lat="43.3907120" lon="-4.1114710">
        <ele>102.8</ele>
        <time>2021-07-17T12:37:44Z</time>
      </trkpt>
      <trkpt lat="43.3907310" lon="-4.1114840">
        <ele>103.4</ele>
        <time>2021-07-17T12:37:45Z</time>
      </trkpt>
      <trkpt lat="43.3907540" lon="-4.1115080">
        <ele>104.0</ele>
        <time>2021-07-17T12:37:46Z</time>
      </trkpt>
      <trkpt lat="43.3907800" lon="-4.1115400">
        <ele>104.4</ele>
        <time>2021-07-17T12:37:47Z</time>
      </trkpt>
      <trkpt lat="43.3908040" lon="-4.1115710">
        <ele>105.0</ele>
        <time>2021-07-17T12:37:48Z</time>
      </trkpt>
      <trkpt lat="43.3908650" lon="-4.1116500">
        <ele>105.0</ele>
        <time>2021-07-17T12:37:51Z</time>
      </trkpt>
      <trkpt lat="43.3910410" lon="-4.1118550">
        <ele>105.4</ele>
        <time>2021-07-17T12:38:01Z</time>
      </trkpt>
      <trkpt lat="43.3910570" lon="-4.1118710">
        <ele>105.8</ele>
        <time>2021-07-17T12:38:02Z</time>
      </trkpt>
      <trkpt lat="43.3910730" lon="-4.1118920">
        <ele>106.2</ele>
        <time>2021-07-17T12:38:03Z</time>
      </trkpt>
      <trkpt lat="43.3910930" lon="-4.1119210">
        <ele>106.8</ele>
        <time>2021-07-17T12:38:04Z</time>
      </trkpt>
      <trkpt lat="43.3911080" lon="-4.1119400">
        <ele>107.2</ele>
        <time>2021-07-17T12:38:05Z</time>
      </trkpt>
      <trkpt lat="43.3911570" lon="-4.1119940">
        <ele>107.2</ele>
        <time>2021-07-17T12:38:08Z</time>
      </trkpt>
      <trkpt lat="43.3913100" lon="-4.1121210">
        <ele>107.2</ele>
        <time>2021-07-17T12:38:16Z</time>
      </trkpt>
      <trkpt lat="43.3913460" lon="-4.1121530">
        <ele>107.6</ele>
        <time>2021-07-17T12:38:18Z</time>
      </trkpt>
      <trkpt lat="43.3913650" lon="-4.1121720">
        <ele>108.0</ele>
        <time>2021-07-17T12:38:19Z</time>
      </trkpt>
      <trkpt lat="43.3913820" lon="-4.1121860">
        <ele>108.8</ele>
        <time>2021-07-17T12:38:20Z</time>
      </trkpt>
      <trkpt lat="43.3914010" lon="-4.1122000">
        <ele>109.2</ele>
        <time>2021-07-17T12:38:21Z</time>
      </trkpt>
      <trkpt lat="43.3914750" lon="-4.1122640">
        <ele>109.2</ele>
        <time>2021-07-17T12:38:25Z</time>
      </trkpt>
      <trkpt lat="43.3915820" lon="-4.1123500">
        <ele>109.6</ele>
        <time>2021-07-17T12:38:31Z</time>
      </trkpt>
      <trkpt lat="43.3916010" lon="-4.1123690">
        <ele>110.0</ele>
        <time>2021-07-17T12:38:32Z</time>
      </trkpt>
      <trkpt lat="43.3916200" lon="-4.1123820">
        <ele>110.4</ele>
        <time>2021-07-17T12:38:33Z</time>
      </trkpt>
      <trkpt lat="43.3916390" lon="-4.1124030">
        <ele>110.8</ele>
        <time>2021-07-17T12:38:34Z</time>
      </trkpt>
      <trkpt lat="43.3916580" lon="-4.1124270">
        <ele>111.2</ele>
        <time>2021-07-17T12:38:35Z</time>
      </trkpt>
      <trkpt lat="43.3917830" lon="-4.1125550">
        <ele>111.2</ele>
        <time>2021-07-17T12:38:42Z</time>
      </trkpt>
      <trkpt lat="43.3918420" lon="-4.1125930">
        <ele>111.6</ele>
        <time>2021-07-17T12:38:45Z</time>
      </trkpt>
      <trkpt lat="43.3918620" lon="-4.1126070">
        <ele>112.0</ele>
        <time>2021-07-17T12:38:46Z</time>
      </trkpt>
      <trkpt lat="43.3918800" lon="-4.1126180">
        <ele>112.4</ele>
        <time>2021-07-17T12:38:47Z</time>
      </trkpt>
      <trkpt lat="43.3919000" lon="-4.1126250">
        <ele>112.8</ele>
        <time>2021-07-17T12:38:48Z</time>
      </trkpt>
      <trkpt lat="43.3919150" lon="-4.1126310">
        <ele>113.2</ele>
        <time>2021-07-17T12:38:49Z</time>
      </trkpt>
      <trkpt lat="43.3920270" lon="-4.1127280">
        <ele>113.2</ele>
        <time>2021-07-17T12:38:56Z</time>
      </trkpt>
      <trkpt lat="43.3920970" lon="-4.1127720">
        <ele>113.6</ele>
        <time>2021-07-17T12:39:00Z</time>
      </trkpt>
      <trkpt lat="43.3921140" lon="-4.1127860">
        <ele>114.2</ele>
        <time>2021-07-17T12:39:01Z</time>
      </trkpt>
      <trkpt lat="43.3921300" lon="-4.1127980">
        <ele>114.6</ele>
        <time>2021-07-17T12:39:02Z</time>
      </trkpt>
      <trkpt lat="43.3921480" lon="-4.1128120">
        <ele>115.0</ele>
        <time>2021-07-17T12:39:03Z</time>
      </trkpt>
      <trkpt lat="43.3921660" lon="-4.1128240">
        <ele>115.4</ele>
        <time>2021-07-17T12:39:04Z</time>
      </trkpt>
      <trkpt lat="43.3922970" lon="-4.1129600">
        <ele>115.8</ele>
        <time>2021-07-17T12:39:11Z</time>
      </trkpt>
      <trkpt lat="43.3923140" lon="-4.1129820">
        <ele>116.2</ele>
        <time>2021-07-17T12:39:12Z</time>
      </trkpt>
      <trkpt lat="43.3923310" lon="-4.1129960">
        <ele>116.6</ele>
        <time>2021-07-17T12:39:13Z</time>
      </trkpt>
      <trkpt lat="43.3923480" lon="-4.1130110">
        <ele>117.0</ele>
        <time>2021-07-17T12:39:14Z</time>
      </trkpt>
      <trkpt lat="43.3923620" lon="-4.1130270">
        <ele>117.4</ele>
        <time>2021-07-17T12:39:15Z</time>
      </trkpt>
      <trkpt lat="43.3924320" lon="-4.1131000">
        <ele>117.4</ele>
        <time>2021-07-17T12:39:20Z</time>
      </trkpt>
      <trkpt lat="43.3925610" lon="-4.1132230">
        <ele>118.0</ele>
        <time>2021-07-17T12:39:27Z</time>
      </trkpt>
      <trkpt lat="43.3925770" lon="-4.1132390">
        <ele>118.4</ele>
        <time>2021-07-17T12:39:28Z</time>
      </trkpt>
      <trkpt lat="43.3925930" lon="-4.1132590">
        <ele>118.8</ele>
        <time>2021-07-17T12:39:29Z</time>
      </trkpt>
      <trkpt lat="43.3926100" lon="-4.1132770">
        <ele>119.2</ele>
        <time>2021-07-17T12:39:30Z</time>
      </trkpt>
      <trkpt lat="43.3926240" lon="-4.1132940">
        <ele>119.6</ele>
        <time>2021-07-17T12:39:31Z</time>
      </trkpt>
      <trkpt lat="43.3927170" lon="-4.1133950">
        <ele>120.0</ele>
        <time>2021-07-17T12:39:37Z</time>
      </trkpt>
      <trkpt lat="43.3927330" lon="-4.1134130">
        <ele>120.4</ele>
        <time>2021-07-17T12:39:38Z</time>
      </trkpt>
      <trkpt lat="43.3927470" lon="-4.1134360">
        <ele>120.8</ele>
        <time>2021-07-17T12:39:39Z</time>
      </trkpt>
      <trkpt lat="43.3927580" lon="-4.1134600">
        <ele>121.2</ele>
        <time>2021-07-17T12:39:40Z</time>
      </trkpt>
      <trkpt lat="43.3927710" lon="-4.1134860">
        <ele>121.6</ele>
        <time>2021-07-17T12:39:41Z</time>
      </trkpt>
      <trkpt lat="43.3928120" lon="-4.1135880">
        <ele>121.6</ele>
        <time>2021-07-17T12:39:45Z</time>
      </trkpt>
      <trkpt lat="43.3928750" lon="-4.1137370">
        <ele>122.0</ele>
        <time>2021-07-17T12:39:51Z</time>
      </trkpt>
      <trkpt lat="43.3928830" lon="-4.1137650">
        <ele>122.4</ele>
        <time>2021-07-17T12:39:52Z</time>
      </trkpt>
      <trkpt lat="43.3928940" lon="-4.1137910">
        <ele>122.8</ele>
        <time>2021-07-17T12:39:53Z</time>
      </trkpt>
      <trkpt lat="43.3929030" lon="-4.1138130">
        <ele>123.2</ele>
        <time>2021-07-17T12:39:54Z</time>
      </trkpt>
      <trkpt lat="43.3929110" lon="-4.1138390">
        <ele>123.6</ele>
        <time>2021-07-17T12:39:55Z</time>
      </trkpt>
      <trkpt lat="43.3929760" lon="-4.1140250">
        <ele>123.6</ele>
        <time>2021-07-17T12:40:02Z</time>
      </trkpt>
      <trkpt lat="43.3930390" lon="-4.1141790">
        <ele>124.2</ele>
        <time>2021-07-17T12:40:08Z</time>
      </trkpt>
      <trkpt lat="43.3930490" lon="-4.1142070">
        <ele>124.6</ele>
        <time>2021-07-17T12:40:09Z</time>
      </trkpt>
      <trkpt lat="43.3930590" lon="-4.1142330">
        <ele>125.0</ele>
        <time>2021-07-17T12:40:10Z</time>
      </trkpt>
      <trkpt lat="43.3930650" lon="-4.1142600">
        <ele>125.4</ele>
        <time>2021-07-17T12:40:11Z</time>
      </trkpt>
      <trkpt lat="43.3930730" lon="-4.1142880">
        <ele>125.8</ele>
        <time>2021-07-17T12:40:12Z</time>
      </trkpt>
      <trkpt lat="43.3931350" lon="-4.1144960">
        <ele>125.8</ele>
        <time>2021-07-17T12:40:20Z</time>
      </trkpt>
      <trkpt lat="43.3931510" lon="-4.1145930">
        <ele>126.4</ele>
        <time>2021-07-17T12:40:24Z</time>
      </trkpt>
      <trkpt lat="43.3931560" lon="-4.1146150">
        <ele>126.8</ele>
        <time>2021-07-17T12:40:25Z</time>
      </trkpt>
      <trkpt lat="43.3931580" lon="-4.1146430">
        <ele>127.2</ele>
        <time>2021-07-17T12:40:26Z</time>
      </trkpt>
      <trkpt lat="43.3931650" lon="-4.1146640">
        <ele>127.6</ele>
        <time>2021-07-17T12:40:27Z</time>
      </trkpt>
      <trkpt lat="43.3931740" lon="-4.1146880">
        <ele>128.2</ele>
        <time>2021-07-17T12:40:28Z</time>
      </trkpt>
      <trkpt lat="43.3932000" lon="-4.1148110">
        <ele>128.2</ele>
        <time>2021-07-17T12:40:32Z</time>
      </trkpt>
      <trkpt lat="43.3932550" lon="-4.1150110">
        <ele>128.6</ele>
        <time>2021-07-17T12:40:39Z</time>
      </trkpt>
      <trkpt lat="43.3932630" lon="-4.1150400">
        <ele>129.0</ele>
        <time>2021-07-17T12:40:40Z</time>
      </trkpt>
      <trkpt lat="43.3932720" lon="-4.1150680">
        <ele>129.4</ele>
        <time>2021-07-17T12:40:41Z</time>
      </trkpt>
      <trkpt lat="43.3932790" lon="-4.1150930">
        <ele>129.8</ele>
        <time>2021-07-17T12:40:42Z</time>
      </trkpt>
      <trkpt lat="43.3932870" lon="-4.1151190">
        <ele>130.4</ele>
        <time>2021-07-17T12:40:43Z</time>
      </trkpt>
      <trkpt lat="43.3933290" lon="-4.1152790">
        <ele>130.4</ele>
        <time>2021-07-17T12:40:49Z</time>
      </trkpt>
      <trkpt lat="43.3933680" lon="-4.1154420">
        <ele>130.8</ele>
        <time>2021-07-17T12:40:55Z</time>
      </trkpt>
      <trkpt lat="43.3933740" lon="-4.1154680">
        <ele>131.2</ele>
        <time>2021-07-17T12:40:56Z</time>
      </trkpt>
      <trkpt lat="43.3933810" lon="-4.1154930">
        <ele>131.6</ele>
        <time>2021-07-17T12:40:57Z</time>
      </trkpt>
      <trkpt lat="43.3933870" lon="-4.1155160">
        <ele>132.0</ele>
        <time>2021-07-17T12:40:58Z</time>
      </trkpt>
      <trkpt lat="43.3933920" lon="-4.1155420">
        <ele>132.6</ele>
        <time>2021-07-17T12:40:59Z</time>
      </trkpt>
      <trkpt lat="43.3934330" lon="-4.1157080">
        <ele>132.6</ele>
        <time>2021-07-17T12:41:05Z</time>
      </trkpt>
      <trkpt lat="43.3934620" lon="-4.1158900">
        <ele>133.4</ele>
        <time>2021-07-17T12:41:12Z</time>
      </trkpt>
      <trkpt lat="43.3934650" lon="-4.1159200">
        <ele>134.0</ele>
        <time>2021-07-17T12:41:13Z</time>
      </trkpt>
      <trkpt lat="43.3934670" lon="-4.1159500">
        <ele>134.4</ele>
        <time>2021-07-17T12:41:14Z</time>
      </trkpt>
      <trkpt lat="43.3934710" lon="-4.1159790">
        <ele>134.8</ele>
        <time>2021-07-17T12:41:15Z</time>
      </trkpt>
      <trkpt lat="43.3934730" lon="-4.1161390">
        <ele>134.8</ele>
        <time>2021-07-17T12:41:21Z</time>
      </trkpt>
      <trkpt lat="43.3934660" lon="-4.1162140">
        <ele>135.2</ele>
        <time>2021-07-17T12:41:24Z</time>
      </trkpt>
      <trkpt lat="43.3934640" lon="-4.1162390">
        <ele>135.6</ele>
        <time>2021-07-17T12:41:25Z</time>
      </trkpt>
      <trkpt lat="43.3934600" lon="-4.1162630">
        <ele>136.0</ele>
        <time>2021-07-17T12:41:26Z</time>
      </trkpt>
      <trkpt lat="43.3934530" lon="-4.1162800">
        <ele>136.4</ele>
        <time>2021-07-17T12:41:27Z</time>
      </trkpt>
      <trkpt lat="43.3934450" lon="-4.1163030">
        <ele>136.8</ele>
        <time>2021-07-17T12:41:28Z</time>
      </trkpt>
      <trkpt lat="43.3934320" lon="-4.1163510">
        <ele>136.8</ele>
        <time>2021-07-17T12:41:30Z</time>
      </trkpt>
      <trkpt lat="43.3933880" lon="-4.1164960">
        <ele>137.2</ele>
        <time>2021-07-17T12:41:36Z</time>
      </trkpt>
      <trkpt lat="43.3933800" lon="-4.1165190">
        <ele>137.8</ele>
        <time>2021-07-17T12:41:37Z</time>
      </trkpt>
      <trkpt lat="43.3933740" lon="-4.1165430">
        <ele>138.2</ele>
        <time>2021-07-17T12:41:38Z</time>
      </trkpt>
      <trkpt lat="43.3933670" lon="-4.1165660">
        <ele>138.6</ele>
        <time>2021-07-17T12:41:39Z</time>
      </trkpt>
      <trkpt lat="43.3933600" lon="-4.1165900">
        <ele>139.0</ele>
        <time>2021-07-17T12:41:40Z</time>
      </trkpt>
      <trkpt lat="43.3933070" lon="-4.1167510">
        <ele>139.0</ele>
        <time>2021-07-17T12:41:47Z</time>
      </trkpt>
      <trkpt lat="43.3932970" lon="-4.1168230">
        <ele>139.4</ele>
        <time>2021-07-17T12:41:50Z</time>
      </trkpt>
      <trkpt lat="43.3932980" lon="-4.1168490">
        <ele>139.8</ele>
        <time>2021-07-17T12:41:51Z</time>
      </trkpt>
      <trkpt lat="43.3932980" lon="-4.1168760">
        <ele>140.2</ele>
        <time>2021-07-17T12:41:52Z</time>
      </trkpt>
      <trkpt lat="43.3933010" lon="-4.1169040">
        <ele>140.6</ele>
        <time>2021-07-17T12:41:53Z</time>
      </trkpt>
      <trkpt lat="43.3933090" lon="-4.1169290">
        <ele>141.0</ele>
        <time>2021-07-17T12:41:54Z</time>
      </trkpt>
      <trkpt lat="43.3933180" lon="-4.1169540">
        <ele>141.0</ele>
        <time>2021-07-17T12:41:55Z</time>
      </trkpt>
      <trkpt lat="43.3934090" lon="-4.1170750">
        <ele>141.0</ele>
        <time>2021-07-17T12:42:01Z</time>
      </trkpt>
      <trkpt lat="43.3935430" lon="-4.1170980">
        <ele>141.4</ele>
        <time>2021-07-17T12:42:07Z</time>
      </trkpt>
      <trkpt lat="43.3935660" lon="-4.1170930">
        <ele>141.8</ele>
        <time>2021-07-17T12:42:08Z</time>
      </trkpt>
      <trkpt lat="43.3935890" lon="-4.1170890">
        <ele>142.2</ele>
        <time>2021-07-17T12:42:09Z</time>
      </trkpt>
      <trkpt lat="43.3936120" lon="-4.1170800">
        <ele>142.6</ele>
        <time>2021-07-17T12:42:10Z</time>
      </trkpt>
      <trkpt lat="43.3936340" lon="-4.1170710">
        <ele>143.0</ele>
        <time>2021-07-17T12:42:11Z</time>
      </trkpt>
      <trkpt lat="43.3937260" lon="-4.1170160">
        <ele>143.0</ele>
        <time>2021-07-17T12:42:15Z</time>
      </trkpt>
      <trkpt lat="43.3938100" lon="-4.1169220">
        <ele>143.0</ele>
        <time>2021-07-17T12:42:19Z</time>
      </trkpt>
      <trkpt lat="43.3938590" lon="-4.1168270">
        <ele>143.0</ele>
        <time>2021-07-17T12:42:22Z</time>
      </trkpt>
      <trkpt lat="43.3939050" lon="-4.1167350">
        <ele>143.6</ele>
        <time>2021-07-17T12:42:25Z</time>
      </trkpt>
      <trkpt lat="43.3939210" lon="-4.1167050">
        <ele>144.6</ele>
        <time>2021-07-17T12:42:26Z</time>
      </trkpt>
      <trkpt lat="43.3939370" lon="-4.1166750">
        <ele>145.0</ele>
        <time>2021-07-17T12:42:27Z</time>
      </trkpt>
      <trkpt lat="43.3939530" lon="-4.1166450">
        <ele>145.6</ele>
        <time>2021-07-17T12:42:28Z</time>
      </trkpt>
      <trkpt lat="43.3940040" lon="-4.1165600">
        <ele>145.6</ele>
        <time>2021-07-17T12:42:31Z</time>
      </trkpt>
      <trkpt lat="43.3941800" lon="-4.1163380">
        <ele>145.6</ele>
        <time>2021-07-17T12:42:40Z</time>
      </trkpt>
      <trkpt lat="43.3943250" lon="-4.1161820">
        <ele>145.6</ele>
        <time>2021-07-17T12:42:47Z</time>
      </trkpt>
      <trkpt lat="43.3944710" lon="-4.1160720">
        <ele>145.6</ele>
        <time>2021-07-17T12:42:53Z</time>
      </trkpt>
      <trkpt lat="43.3946150" lon="-4.1160270">
        <ele>145.6</ele>
        <time>2021-07-17T12:42:59Z</time>
      </trkpt>
      <trkpt lat="43.3946980" lon="-4.1161270">
        <ele>145.6</ele>
        <time>2021-07-17T12:43:03Z</time>
      </trkpt>
      <trkpt lat="43.3947610" lon="-4.1163480">
        <ele>145.6</ele>
        <time>2021-07-17T12:43:10Z</time>
      </trkpt>
      <trkpt lat="43.3947670" lon="-4.1164890">
        <ele>146.0</ele>
        <time>2021-07-17T12:43:15Z</time>
      </trkpt>
      <trkpt lat="43.3947680" lon="-4.1165180">
        <ele>146.4</ele>
        <time>2021-07-17T12:43:16Z</time>
      </trkpt>
      <trkpt lat="43.3947670" lon="-4.1165430">
        <ele>146.8</ele>
        <time>2021-07-17T12:43:17Z</time>
      </trkpt>
      <trkpt lat="43.3947680" lon="-4.1165670">
        <ele>147.2</ele>
        <time>2021-07-17T12:43:18Z</time>
      </trkpt>
      <trkpt lat="43.3947710" lon="-4.1165910">
        <ele>147.6</ele>
        <time>2021-07-17T12:43:19Z</time>
      </trkpt>
      <trkpt lat="43.3947980" lon="-4.1166980">
        <ele>148.0</ele>
        <time>2021-07-17T12:43:23Z</time>
      </trkpt>
      <trkpt lat="43.3948090" lon="-4.1167230">
        <ele>148.4</ele>
        <time>2021-07-17T12:43:24Z</time>
      </trkpt>
      <trkpt lat="43.3948210" lon="-4.1167470">
        <ele>148.8</ele>
        <time>2021-07-17T12:43:25Z</time>
      </trkpt>
      <trkpt lat="43.3948320" lon="-4.1167700">
        <ele>149.2</ele>
        <time>2021-07-17T12:43:26Z</time>
      </trkpt>
      <trkpt lat="43.3948430" lon="-4.1167920">
        <ele>149.6</ele>
        <time>2021-07-17T12:43:27Z</time>
      </trkpt>
      <trkpt lat="43.3949020" lon="-4.1168930">
        <ele>149.6</ele>
        <time>2021-07-17T12:43:32Z</time>
      </trkpt>
      <trkpt lat="43.3949260" lon="-4.1169340">
        <ele>150.0</ele>
        <time>2021-07-17T12:43:34Z</time>
      </trkpt>
      <trkpt lat="43.3949420" lon="-4.1169520">
        <ele>150.4</ele>
        <time>2021-07-17T12:43:35Z</time>
      </trkpt>
      <trkpt lat="43.3949570" lon="-4.1169690">
        <ele>150.8</ele>
        <time>2021-07-17T12:43:36Z</time>
      </trkpt>
      <trkpt lat="43.3949690" lon="-4.1169920">
        <ele>151.4</ele>
        <time>2021-07-17T12:43:37Z</time>
      </trkpt>
      <trkpt lat="43.3949770" lon="-4.1170170">
        <ele>151.8</ele>
        <time>2021-07-17T12:43:38Z</time>
      </trkpt>
      <trkpt lat="43.3950520" lon="-4.1172390">
        <ele>151.8</ele>
        <time>2021-07-17T12:43:46Z</time>
      </trkpt>
      <trkpt lat="43.3950740" lon="-4.1174970">
        <ele>151.8</ele>
        <time>2021-07-17T12:43:53Z</time>
      </trkpt>
      <trkpt lat="43.3950340" lon="-4.1176660">
        <ele>151.8</ele>
        <time>2021-07-17T12:43:58Z</time>
      </trkpt>
      <trkpt lat="43.3949860" lon="-4.1178260">
        <ele>151.8</ele>
        <time>2021-07-17T12:44:01Z</time>
      </trkpt>
      <trkpt lat="43.3949760" lon="-4.1178900">
        <ele>151.2</ele>
        <time>2021-07-17T12:44:02Z</time>
      </trkpt>
      <trkpt lat="43.3949770" lon="-4.1179610">
        <ele>150.4</ele>
        <time>2021-07-17T12:44:03Z</time>
      </trkpt>
      <trkpt lat="43.3949920" lon="-4.1180370">
        <ele>150.0</ele>
        <time>2021-07-17T12:44:04Z</time>
      </trkpt>
      <trkpt lat="43.3950160" lon="-4.1181170">
        <ele>149.4</ele>
        <time>2021-07-17T12:44:05Z</time>
      </trkpt>
      <trkpt lat="43.3950460" lon="-4.1181940">
        <ele>148.8</ele>
        <time>2021-07-17T12:44:06Z</time>
      </trkpt>
      <trkpt lat="43.3950820" lon="-4.1182710">
        <ele>148.2</ele>
        <time>2021-07-17T12:44:07Z</time>
      </trkpt>
      <trkpt lat="43.3951250" lon="-4.1183510">
        <ele>147.6</ele>
        <time>2021-07-17T12:44:08Z</time>
      </trkpt>
      <trkpt lat="43.3951750" lon="-4.1184350">
        <ele>146.8</ele>
        <time>2021-07-17T12:44:09Z</time>
      </trkpt>
      <trkpt lat="43.3952330" lon="-4.1185240">
        <ele>146.2</ele>
        <time>2021-07-17T12:44:10Z</time>
      </trkpt>
      <trkpt lat="43.3952950" lon="-4.1186140">
        <ele>145.4</ele>
        <time>2021-07-17T12:44:11Z</time>
      </trkpt>
      <trkpt lat="43.3953540" lon="-4.1187090">
        <ele>144.8</ele>
        <time>2021-07-17T12:44:12Z</time>
      </trkpt>
      <trkpt lat="43.3954110" lon="-4.1188080">
        <ele>144.0</ele>
        <time>2021-07-17T12:44:13Z</time>
      </trkpt>
      <trkpt lat="43.3955010" lon="-4.1189930">
        <ele>143.6</ele>
        <time>2021-07-17T12:44:15Z</time>
      </trkpt>
      <trkpt lat="43.3955390" lon="-4.1190840">
        <ele>143.2</ele>
        <time>2021-07-17T12:44:16Z</time>
      </trkpt>
      <trkpt lat="43.3955690" lon="-4.1191710">
        <ele>142.8</ele>
        <time>2021-07-17T12:44:17Z</time>
      </trkpt>
      <trkpt lat="43.3955940" lon="-4.1192460">
        <ele>142.4</ele>
        <time>2021-07-17T12:44:18Z</time>
      </trkpt>
      <trkpt lat="43.3956150" lon="-4.1193130">
        <ele>141.8</ele>
        <time>2021-07-17T12:44:19Z</time>
      </trkpt>
      <trkpt lat="43.3956770" lon="-4.1195140">
        <ele>141.8</ele>
        <time>2021-07-17T12:44:22Z</time>
      </trkpt>
      <trkpt lat="43.3957360" lon="-4.1197550">
        <ele>141.8</ele>
        <time>2021-07-17T12:44:26Z</time>
      </trkpt>
      <trkpt lat="43.3957990" lon="-4.1200120">
        <ele>141.8</ele>
        <time>2021-07-17T12:44:31Z</time>
      </trkpt>
      <trkpt lat="43.3958140" lon="-4.1200950">
        <ele>141.8</ele>
        <time>2021-07-17T12:44:33Z</time>
      </trkpt>
      <trkpt lat="43.3958100" lon="-4.1203160">
        <ele>141.8</ele>
        <time>2021-07-17T12:44:38Z</time>
      </trkpt>
      <trkpt lat="43.3958020" lon="-4.1203770">
        <ele>141.8</ele>
        <time>2021-07-17T12:44:39Z</time>
      </trkpt>
      <trkpt lat="43.3957670" lon="-4.1207000">
        <ele>141.8</ele>
        <time>2021-07-17T12:44:43Z</time>
      </trkpt>
      <trkpt lat="43.3957430" lon="-4.1210160">
        <ele>141.4</ele>
        <time>2021-07-17T12:44:47Z</time>
      </trkpt>
      <trkpt lat="43.3957430" lon="-4.1210910">
        <ele>140.8</ele>
        <time>2021-07-17T12:44:48Z</time>
      </trkpt>
      <trkpt lat="43.3957460" lon="-4.1211670">
        <ele>140.4</ele>
        <time>2021-07-17T12:44:49Z</time>
      </trkpt>
      <trkpt lat="43.3957500" lon="-4.1212450">
        <ele>139.8</ele>
        <time>2021-07-17T12:44:50Z</time>
      </trkpt>
      <trkpt lat="43.3957580" lon="-4.1213200">
        <ele>139.2</ele>
        <time>2021-07-17T12:44:51Z</time>
      </trkpt>
      <trkpt lat="43.3957690" lon="-4.1213940">
        <ele>138.6</ele>
        <time>2021-07-17T12:44:52Z</time>
      </trkpt>
      <trkpt lat="43.3957810" lon="-4.1214690">
        <ele>137.4</ele>
        <time>2021-07-17T12:44:53Z</time>
      </trkpt>
      <trkpt lat="43.3957960" lon="-4.1215520">
        <ele>136.6</ele>
        <time>2021-07-17T12:44:54Z</time>
      </trkpt>
      <trkpt lat="43.3958170" lon="-4.1216370">
        <ele>135.8</ele>
        <time>2021-07-17T12:44:55Z</time>
      </trkpt>
      <trkpt lat="43.3958390" lon="-4.1217200">
        <ele>135.2</ele>
        <time>2021-07-17T12:44:56Z</time>
      </trkpt>
      <trkpt lat="43.3958660" lon="-4.1218080">
        <ele>134.4</ele>
        <time>2021-07-17T12:44:57Z</time>
      </trkpt>
      <trkpt lat="43.3958930" lon="-4.1218900">
        <ele>134.0</ele>
        <time>2021-07-17T12:44:58Z</time>
      </trkpt>
      <trkpt lat="43.3959220" lon="-4.1219700">
        <ele>133.4</ele>
        <time>2021-07-17T12:44:59Z</time>
      </trkpt>
      <trkpt lat="43.3959550" lon="-4.1220480">
        <ele>133.0</ele>
        <time>2021-07-17T12:45:00Z</time>
      </trkpt>
      <trkpt lat="43.3959900" lon="-4.1221190">
        <ele>132.4</ele>
        <time>2021-07-17T12:45:01Z</time>
      </trkpt>
      <trkpt lat="43.3960270" lon="-4.1221860">
        <ele>132.0</ele>
        <time>2021-07-17T12:45:02Z</time>
      </trkpt>
      <trkpt lat="43.3961980" lon="-4.1224030">
        <ele>132.0</ele>
        <time>2021-07-17T12:45:06Z</time>
      </trkpt>
      <trkpt lat="43.3962730" lon="-4.1224700">
        <ele>132.0</ele>
        <time>2021-07-17T12:45:08Z</time>
      </trkpt>
      <trkpt lat="43.3963350" lon="-4.1225240">
        <ele>132.0</ele>
        <time>2021-07-17T12:45:10Z</time>
      </trkpt>
      <trkpt lat="43.3964270" lon="-4.1226020">
        <ele>132.0</ele>
        <time>2021-07-17T12:45:13Z</time>
      </trkpt>
      <trkpt lat="43.3965900" lon="-4.1227280">
        <ele>132.0</ele>
        <time>2021-07-17T12:45:18Z</time>
      </trkpt>
      <trkpt lat="43.3966730" lon="-4.1227800">
        <ele>131.6</ele>
        <time>2021-07-17T12:45:20Z</time>
      </trkpt>
      <trkpt lat="43.3967180" lon="-4.1228010">
        <ele>131.2</ele>
        <time>2021-07-17T12:45:21Z</time>
      </trkpt>
      <trkpt lat="43.3967670" lon="-4.1228160">
        <ele>130.8</ele>
        <time>2021-07-17T12:45:22Z</time>
      </trkpt>
      <trkpt lat="43.3968170" lon="-4.1228290">
        <ele>130.2</ele>
        <time>2021-07-17T12:45:23Z</time>
      </trkpt>
      <trkpt lat="43.3968700" lon="-4.1228430">
        <ele>129.6</ele>
        <time>2021-07-17T12:45:24Z</time>
      </trkpt>
      <trkpt lat="43.3969280" lon="-4.1228640">
        <ele>129.0</ele>
        <time>2021-07-17T12:45:25Z</time>
      </trkpt>
      <trkpt lat="43.3969890" lon="-4.1228950">
        <ele>128.4</ele>
        <time>2021-07-17T12:45:26Z</time>
      </trkpt>
      <trkpt lat="43.3970580" lon="-4.1229350">
        <ele>127.8</ele>
        <time>2021-07-17T12:45:27Z</time>
      </trkpt>
      <trkpt lat="43.3971310" lon="-4.1229820">
        <ele>127.2</ele>
        <time>2021-07-17T12:45:28Z</time>
      </trkpt>
      <trkpt lat="43.3972090" lon="-4.1230350">
        <ele>126.8</ele>
        <time>2021-07-17T12:45:29Z</time>
      </trkpt>
      <trkpt lat="43.3972850" lon="-4.1230990">
        <ele>126.2</ele>
        <time>2021-07-17T12:45:30Z</time>
      </trkpt>
      <trkpt lat="43.3973610" lon="-4.1231670">
        <ele>125.6</ele>
        <time>2021-07-17T12:45:31Z</time>
      </trkpt>
      <trkpt lat="43.3974310" lon="-4.1232330">
        <ele>125.2</ele>
        <time>2021-07-17T12:45:32Z</time>
      </trkpt>
      <trkpt lat="43.3974930" lon="-4.1232980">
        <ele>124.6</ele>
        <time>2021-07-17T12:45:33Z</time>
      </trkpt>
      <trkpt lat="43.3975530" lon="-4.1233610">
        <ele>124.0</ele>
        <time>2021-07-17T12:45:34Z</time>
      </trkpt>
      <trkpt lat="43.3976050" lon="-4.1234220">
        <ele>123.4</ele>
        <time>2021-07-17T12:45:35Z</time>
      </trkpt>
      <trkpt lat="43.3977390" lon="-4.1236770">
        <ele>123.0</ele>
        <time>2021-07-17T12:45:39Z</time>
      </trkpt>
      <trkpt lat="43.3977760" lon="-4.1237320">
        <ele>122.6</ele>
        <time>2021-07-17T12:45:40Z</time>
      </trkpt>
      <trkpt lat="43.3978200" lon="-4.1237860">
        <ele>122.2</ele>
        <time>2021-07-17T12:45:41Z</time>
      </trkpt>
      <trkpt lat="43.3978720" lon="-4.1238380">
        <ele>121.2</ele>
        <time>2021-07-17T12:45:42Z</time>
      </trkpt>
      <trkpt lat="43.3979250" lon="-4.1238820">
        <ele>121.2</ele>
        <time>2021-07-17T12:45:43Z</time>
      </trkpt>
      <trkpt lat="43.3979790" lon="-4.1239220">
        <ele>120.8</ele>
        <time>2021-07-17T12:45:44Z</time>
      </trkpt>
      <trkpt lat="43.3980310" lon="-4.1239580">
        <ele>120.4</ele>
        <time>2021-07-17T12:45:45Z</time>
      </trkpt>
      <trkpt lat="43.3980810" lon="-4.1239880">
        <ele>120.0</ele>
        <time>2021-07-17T12:45:46Z</time>
      </trkpt>
      <trkpt lat="43.3981250" lon="-4.1240120">
        <ele>119.2</ele>
        <time>2021-07-17T12:45:47Z</time>
      </trkpt>
      <trkpt lat="43.3981650" lon="-4.1240330">
        <ele>118.4</ele>
        <time>2021-07-17T12:45:48Z</time>
      </trkpt>
      <trkpt lat="43.3982010" lon="-4.1240500">
        <ele>117.6</ele>
        <time>2021-07-17T12:45:49Z</time>
      </trkpt>
      <trkpt lat="43.3982330" lon="-4.1240650">
        <ele>116.8</ele>
        <time>2021-07-17T12:45:50Z</time>
      </trkpt>
      <trkpt lat="43.3982630" lon="-4.1240780">
        <ele>116.0</ele>
        <time>2021-07-17T12:45:51Z</time>
      </trkpt>
      <trkpt lat="43.3982930" lon="-4.1240930">
        <ele>115.2</ele>
        <time>2021-07-17T12:45:52Z</time>
      </trkpt>
      <trkpt lat="43.3983250" lon="-4.1241090">
        <ele>114.4</ele>
        <time>2021-07-17T12:45:53Z</time>
      </trkpt>
      <trkpt lat="43.3983590" lon="-4.1241240">
        <ele>113.6</ele>
        <time>2021-07-17T12:45:54Z</time>
      </trkpt>
      <trkpt lat="43.3984320" lon="-4.1241520">
        <ele>113.2</ele>
        <time>2021-07-17T12:45:56Z</time>
      </trkpt>
      <trkpt lat="43.3984700" lon="-4.1241660">
        <ele>112.6</ele>
        <time>2021-07-17T12:45:57Z</time>
      </trkpt>
      <trkpt lat="43.3985050" lon="-4.1241790">
        <ele>112.2</ele>
        <time>2021-07-17T12:45:58Z</time>
      </trkpt>
      <trkpt lat="43.3985400" lon="-4.1241920">
        <ele>111.8</ele>
        <time>2021-07-17T12:45:59Z</time>
      </trkpt>
      <trkpt lat="43.3985770" lon="-4.1242060">
        <ele>111.2</ele>
        <time>2021-07-17T12:46:00Z</time>
      </trkpt>
      <trkpt lat="43.3986160" lon="-4.1242190">
        <ele>110.8</ele>
        <time>2021-07-17T12:46:01Z</time>
      </trkpt>
      <trkpt lat="43.3986560" lon="-4.1242310">
        <ele>110.2</ele>
        <time>2021-07-17T12:46:02Z</time>
      </trkpt>
      <trkpt lat="43.3986940" lon="-4.1242460">
        <ele>109.6</ele>
        <time>2021-07-17T12:46:03Z</time>
      </trkpt>
      <trkpt lat="43.3987330" lon="-4.1242640">
        <ele>109.0</ele>
        <time>2021-07-17T12:46:04Z</time>
      </trkpt>
      <trkpt lat="43.3987680" lon="-4.1242820">
        <ele>108.6</ele>
        <time>2021-07-17T12:46:05Z</time>
      </trkpt>
      <trkpt lat="43.3988050" lon="-4.1243020">
        <ele>108.0</ele>
        <time>2021-07-17T12:46:06Z</time>
      </trkpt>
      <trkpt lat="43.3988410" lon="-4.1243270">
        <ele>106.8</ele>
        <time>2021-07-17T12:46:07Z</time>
      </trkpt>
      <trkpt lat="43.3988770" lon="-4.1243560">
        <ele>106.2</ele>
        <time>2021-07-17T12:46:08Z</time>
      </trkpt>
      <trkpt lat="43.3989100" lon="-4.1243910">
        <ele>105.6</ele>
        <time>2021-07-17T12:46:09Z</time>
      </trkpt>
      <trkpt lat="43.3989420" lon="-4.1244290">
        <ele>104.8</ele>
        <time>2021-07-17T12:46:10Z</time>
      </trkpt>
      <trkpt lat="43.3989730" lon="-4.1244660">
        <ele>104.2</ele>
        <time>2021-07-17T12:46:11Z</time>
      </trkpt>
      <trkpt lat="43.3990070" lon="-4.1245050">
        <ele>103.8</ele>
        <time>2021-07-17T12:46:12Z</time>
      </trkpt>
      <trkpt lat="43.3990400" lon="-4.1245400">
        <ele>103.4</ele>
        <time>2021-07-17T12:46:13Z</time>
      </trkpt>
      <trkpt lat="43.3990770" lon="-4.1245750">
        <ele>102.8</ele>
        <time>2021-07-17T12:46:14Z</time>
      </trkpt>
      <trkpt lat="43.3991170" lon="-4.1246070">
        <ele>102.2</ele>
        <time>2021-07-17T12:46:15Z</time>
      </trkpt>
      <trkpt lat="43.3991610" lon="-4.1246340">
        <ele>101.4</ele>
        <time>2021-07-17T12:46:16Z</time>
      </trkpt>
      <trkpt lat="43.3992060" lon="-4.1246560">
        <ele>100.6</ele>
        <time>2021-07-17T12:46:17Z</time>
      </trkpt>
      <trkpt lat="43.3992540" lon="-4.1246750">
        <ele>100.0</ele>
        <time>2021-07-17T12:46:18Z</time>
      </trkpt>
      <trkpt lat="43.3993060" lon="-4.1246910">
        <ele>99.2</ele>
        <time>2021-07-17T12:46:19Z</time>
      </trkpt>
      <trkpt lat="43.3993570" lon="-4.1247030">
        <ele>98.4</ele>
        <time>2021-07-17T12:46:20Z</time>
      </trkpt>
      <trkpt lat="43.3994080" lon="-4.1247110">
        <ele>97.6</ele>
        <time>2021-07-17T12:46:21Z</time>
      </trkpt>
      <trkpt lat="43.3994640" lon="-4.1247170">
        <ele>96.8</ele>
        <time>2021-07-17T12:46:22Z</time>
      </trkpt>
      <trkpt lat="43.3995210" lon="-4.1247220">
        <ele>96.0</ele>
        <time>2021-07-17T12:46:23Z</time>
      </trkpt>
      <trkpt lat="43.3995790" lon="-4.1247260">
        <ele>95.2</ele>
        <time>2021-07-17T12:46:24Z</time>
      </trkpt>
      <trkpt lat="43.3996370" lon="-4.1247290">
        <ele>94.4</ele>
        <time>2021-07-17T12:46:25Z</time>
      </trkpt>
      <trkpt lat="43.3996960" lon="-4.1247340">
        <ele>94.0</ele>
        <time>2021-07-17T12:46:26Z</time>
      </trkpt>
      <trkpt lat="43.3997650" lon="-4.1247410">
        <ele>93.4</ele>
        <time>2021-07-17T12:46:27Z</time>
      </trkpt>
      <trkpt lat="43.3998370" lon="-4.1247560">
        <ele>92.8</ele>
        <time>2021-07-17T12:46:28Z</time>
      </trkpt>
      <trkpt lat="43.3999120" lon="-4.1247780">
        <ele>92.4</ele>
        <time>2021-07-17T12:46:29Z</time>
      </trkpt>
      <trkpt lat="43.3999860" lon="-4.1248070">
        <ele>91.8</ele>
        <time>2021-07-17T12:46:30Z</time>
      </trkpt>
      <trkpt lat="43.4000550" lon="-4.1248450">
        <ele>91.4</ele>
        <time>2021-07-17T12:46:31Z</time>
      </trkpt>
      <trkpt lat="43.4001190" lon="-4.1248920">
        <ele>90.6</ele>
        <time>2021-07-17T12:46:32Z</time>
      </trkpt>
      <trkpt lat="43.4001770" lon="-4.1249470">
        <ele>89.8</ele>
        <time>2021-07-17T12:46:33Z</time>
      </trkpt>
      <trkpt lat="43.4002330" lon="-4.1250050">
        <ele>89.0</ele>
        <time>2021-07-17T12:46:34Z</time>
      </trkpt>
      <trkpt lat="43.4002850" lon="-4.1250620">
        <ele>88.2</ele>
        <time>2021-07-17T12:46:35Z</time>
      </trkpt>
      <trkpt lat="43.4003360" lon="-4.1251130">
        <ele>87.4</ele>
        <time>2021-07-17T12:46:36Z</time>
      </trkpt>
      <trkpt lat="43.4003860" lon="-4.1251570">
        <ele>86.8</ele>
        <time>2021-07-17T12:46:37Z</time>
      </trkpt>
      <trkpt lat="43.4004340" lon="-4.1251950">
        <ele>86.8</ele>
        <time>2021-07-17T12:46:38Z</time>
      </trkpt>
      <trkpt lat="43.4004800" lon="-4.1252220">
        <ele>86.8</ele>
        <time>2021-07-17T12:46:39Z</time>
      </trkpt>
      <trkpt lat="43.4006270" lon="-4.1252650">
        <ele>86.8</ele>
        <time>2021-07-17T12:46:43Z</time>
      </trkpt>
      <trkpt lat="43.4007180" lon="-4.1252660">
        <ele>86.8</ele>
        <time>2021-07-17T12:46:46Z</time>
      </trkpt>
      <trkpt lat="43.4007810" lon="-4.1252540">
        <ele>86.8</ele>
        <time>2021-07-17T12:46:48Z</time>
      </trkpt>
      <trkpt lat="43.4008130" lon="-4.1252490">
        <ele>86.8</ele>
        <time>2021-07-17T12:46:49Z</time>
      </trkpt>
      <trkpt lat="43.4008400" lon="-4.1252440">
        <ele>87.2</ele>
        <time>2021-07-17T12:46:50Z</time>
      </trkpt>
      <trkpt lat="43.4008670" lon="-4.1252400">
        <ele>87.6</ele>
        <time>2021-07-17T12:46:51Z</time>
      </trkpt>
      <trkpt lat="43.4008950" lon="-4.1252380">
        <ele>88.0</ele>
        <time>2021-07-17T12:46:52Z</time>
      </trkpt>
      <trkpt lat="43.4009230" lon="-4.1252370">
        <ele>88.4</ele>
        <time>2021-07-17T12:46:53Z</time>
      </trkpt>
      <trkpt lat="43.4009490" lon="-4.1252380">
        <ele>88.8</ele>
        <time>2021-07-17T12:46:54Z</time>
      </trkpt>
      <trkpt lat="43.4010020" lon="-4.1252380">
        <ele>88.8</ele>
        <time>2021-07-17T12:46:56Z</time>
      </trkpt>
      <trkpt lat="43.4010820" lon="-4.1252290">
        <ele>89.2</ele>
        <time>2021-07-17T12:46:59Z</time>
      </trkpt>
      <trkpt lat="43.4011080" lon="-4.1252250">
        <ele>89.6</ele>
        <time>2021-07-17T12:47:00Z</time>
      </trkpt>
      <trkpt lat="43.4011350" lon="-4.1252230">
        <ele>90.0</ele>
        <time>2021-07-17T12:47:01Z</time>
      </trkpt>
      <trkpt lat="43.4011620" lon="-4.1252220">
        <ele>90.4</ele>
        <time>2021-07-17T12:47:02Z</time>
      </trkpt>
      <trkpt lat="43.4011890" lon="-4.1252180">
        <ele>90.8</ele>
        <time>2021-07-17T12:47:03Z</time>
      </trkpt>
      <trkpt lat="43.4012130" lon="-4.1252130">
        <ele>90.8</ele>
        <time>2021-07-17T12:47:04Z</time>
      </trkpt>
      <trkpt lat="43.4012820" lon="-4.1251960">
        <ele>90.8</ele>
        <time>2021-07-17T12:47:07Z</time>
      </trkpt>
      <trkpt lat="43.4013840" lon="-4.1251620">
        <ele>90.8</ele>
        <time>2021-07-17T12:47:12Z</time>
      </trkpt>
      <trkpt lat="43.4014420" lon="-4.1251620">
        <ele>90.8</ele>
        <time>2021-07-17T12:47:15Z</time>
      </trkpt>
      <trkpt lat="43.4015180" lon="-4.1251790">
        <ele>90.8</ele>
        <time>2021-07-17T12:47:19Z</time>
      </trkpt>
      <trkpt lat="43.4015520" lon="-4.1251950">
        <ele>91.6</ele>
        <time>2021-07-17T12:47:21Z</time>
      </trkpt>
      <trkpt lat="43.4015670" lon="-4.1252060">
        <ele>92.0</ele>
        <time>2021-07-17T12:47:22Z</time>
      </trkpt>
      <trkpt lat="43.4015830" lon="-4.1252170">
        <ele>92.4</ele>
        <time>2021-07-17T12:47:23Z</time>
      </trkpt>
      <trkpt lat="43.4015980" lon="-4.1252270">
        <ele>92.8</ele>
        <time>2021-07-17T12:47:24Z</time>
      </trkpt>
      <trkpt lat="43.4016260" lon="-4.1252520">
        <ele>92.8</ele>
        <time>2021-07-17T12:47:26Z</time>
      </trkpt>
      <trkpt lat="43.4016730" lon="-4.1252870">
        <ele>93.2</ele>
        <time>2021-07-17T12:47:29Z</time>
      </trkpt>
      <trkpt lat="43.4016890" lon="-4.1253000">
        <ele>93.6</ele>
        <time>2021-07-17T12:47:30Z</time>
      </trkpt>
      <trkpt lat="43.4017020" lon="-4.1253140">
        <ele>94.0</ele>
        <time>2021-07-17T12:47:31Z</time>
      </trkpt>
      <trkpt lat="43.4017170" lon="-4.1253270">
        <ele>94.4</ele>
        <time>2021-07-17T12:47:32Z</time>
      </trkpt>
      <trkpt lat="43.4017350" lon="-4.1253350">
        <ele>94.8</ele>
        <time>2021-07-17T12:47:33Z</time>
      </trkpt>
      <trkpt lat="43.4017530" lon="-4.1253430">
        <ele>94.8</ele>
        <time>2021-07-17T12:47:34Z</time>
      </trkpt>
      <trkpt lat="43.4018290" lon="-4.1253680">
        <ele>95.4</ele>
        <time>2021-07-17T12:47:38Z</time>
      </trkpt>
      <trkpt lat="43.4018500" lon="-4.1253720">
        <ele>95.8</ele>
        <time>2021-07-17T12:47:39Z</time>
      </trkpt>
      <trkpt lat="43.4018720" lon="-4.1253760">
        <ele>96.2</ele>
        <time>2021-07-17T12:47:40Z</time>
      </trkpt>
      <trkpt lat="43.4018920" lon="-4.1253800">
        <ele>96.6</ele>
        <time>2021-07-17T12:47:41Z</time>
      </trkpt>
      <trkpt lat="43.4019110" lon="-4.1253820">
        <ele>97.0</ele>
        <time>2021-07-17T12:47:42Z</time>
      </trkpt>
      <trkpt lat="43.4020580" lon="-4.1254220">
        <ele>97.0</ele>
        <time>2021-07-17T12:47:49Z</time>
      </trkpt>
      <trkpt lat="43.4021670" lon="-4.1254660">
        <ele>97.4</ele>
        <time>2021-07-17T12:47:54Z</time>
      </trkpt>
      <trkpt lat="43.4021870" lon="-4.1254750">
        <ele>97.8</ele>
        <time>2021-07-17T12:47:55Z</time>
      </trkpt>
      <trkpt lat="43.4022100" lon="-4.1254820">
        <ele>98.2</ele>
        <time>2021-07-17T12:47:56Z</time>
      </trkpt>
      <trkpt lat="43.4022320" lon="-4.1254870">
        <ele>98.6</ele>
        <time>2021-07-17T12:47:57Z</time>
      </trkpt>
      <trkpt lat="43.4022550" lon="-4.1254950">
        <ele>99.0</ele>
        <time>2021-07-17T12:47:58Z</time>
      </trkpt>
      <trkpt lat="43.4023940" lon="-4.1255380">
        <ele>99.0</ele>
        <time>2021-07-17T12:48:04Z</time>
      </trkpt>
      <trkpt lat="43.4025280" lon="-4.1255220">
        <ele>99.0</ele>
        <time>2021-07-17T12:48:10Z</time>
      </trkpt>
      <trkpt lat="43.4025710" lon="-4.1255140">
        <ele>99.0</ele>
        <time>2021-07-17T12:48:12Z</time>
      </trkpt>
      <trkpt lat="43.4026900" lon="-4.1255340">
        <ele>99.6</ele>
        <time>2021-07-17T12:48:18Z</time>
      </trkpt>
      <trkpt lat="43.4027070" lon="-4.1255450">
        <ele>100.0</ele>
        <time>2021-07-17T12:48:19Z</time>
      </trkpt>
      <trkpt lat="43.4027240" lon="-4.1255520">
        <ele>100.4</ele>
        <time>2021-07-17T12:48:20Z</time>
      </trkpt>
      <trkpt lat="43.4027390" lon="-4.1255570">
        <ele>100.8</ele>
        <time>2021-07-17T12:48:21Z</time>
      </trkpt>
      <trkpt lat="43.4027540" lon="-4.1255650">
        <ele>101.2</ele>
        <time>2021-07-17T12:48:22Z</time>
      </trkpt>
      <trkpt lat="43.4028110" lon="-4.1256180">
        <ele>101.2</ele>
        <time>2021-07-17T12:48:26Z</time>
      </trkpt>
      <trkpt lat="43.4029440" lon="-4.1257680">
        <ele>101.2</ele>
        <time>2021-07-17T12:48:34Z</time>
      </trkpt>
      <trkpt lat="43.4030000" lon="-4.1258340">
        <ele>101.8</ele>
        <time>2021-07-17T12:48:38Z</time>
      </trkpt>
      <trkpt lat="43.4030120" lon="-4.1258480">
        <ele>102.2</ele>
        <time>2021-07-17T12:48:39Z</time>
      </trkpt>
      <trkpt lat="43.4030230" lon="-4.1258640">
        <ele>102.6</ele>
        <time>2021-07-17T12:48:40Z</time>
      </trkpt>
      <trkpt lat="43.4030360" lon="-4.1258810">
        <ele>103.0</ele>
        <time>2021-07-17T12:48:41Z</time>
      </trkpt>
      <trkpt lat="43.4030520" lon="-4.1258880">
        <ele>103.4</ele>
        <time>2021-07-17T12:48:42Z</time>
      </trkpt>
      <trkpt lat="43.4031390" lon="-4.1259220">
        <ele>103.4</ele>
        <time>2021-07-17T12:48:47Z</time>
      </trkpt>
      <trkpt lat="43.4031980" lon="-4.1259600">
        <ele>103.8</ele>
        <time>2021-07-17T12:48:51Z</time>
      </trkpt>
      <trkpt lat="43.4032120" lon="-4.1259700">
        <ele>104.4</ele>
        <time>2021-07-17T12:48:52Z</time>
      </trkpt>
      <trkpt lat="43.4032240" lon="-4.1259820">
        <ele>104.8</ele>
        <time>2021-07-17T12:48:53Z</time>
      </trkpt>
      <trkpt lat="43.4032390" lon="-4.1259950">
        <ele>105.2</ele>
        <time>2021-07-17T12:48:54Z</time>
      </trkpt>
      <trkpt lat="43.4032530" lon="-4.1260090">
        <ele>105.6</ele>
        <time>2021-07-17T12:48:55Z</time>
      </trkpt>
      <trkpt lat="43.4033710" lon="-4.1261240">
        <ele>106.0</ele>
        <time>2021-07-17T12:49:03Z</time>
      </trkpt>
      <trkpt lat="43.4033830" lon="-4.1261360">
        <ele>106.4</ele>
        <time>2021-07-17T12:49:04Z</time>
      </trkpt>
      <trkpt lat="43.4033960" lon="-4.1261500">
        <ele>106.8</ele>
        <time>2021-07-17T12:49:05Z</time>
      </trkpt>
      <trkpt lat="43.4034080" lon="-4.1261640">
        <ele>107.4</ele>
        <time>2021-07-17T12:49:06Z</time>
      </trkpt>
      <trkpt lat="43.4034170" lon="-4.1261800">
        <ele>107.8</ele>
        <time>2021-07-17T12:49:07Z</time>
      </trkpt>
      <trkpt lat="43.4034440" lon="-4.1262490">
        <ele>107.8</ele>
        <time>2021-07-17T12:49:11Z</time>
      </trkpt>
      <trkpt lat="43.4034610" lon="-4.1263060">
        <ele>108.2</ele>
        <time>2021-07-17T12:49:14Z</time>
      </trkpt>
      <trkpt lat="43.4034660" lon="-4.1263240">
        <ele>108.6</ele>
        <time>2021-07-17T12:49:15Z</time>
      </trkpt>
      <trkpt lat="43.4034690" lon="-4.1263400">
        <ele>109.0</ele>
        <time>2021-07-17T12:49:16Z</time>
      </trkpt>
      <trkpt lat="43.4034700" lon="-4.1263590">
        <ele>109.4</ele>
        <time>2021-07-17T12:49:17Z</time>
      </trkpt>
      <trkpt lat="43.4034750" lon="-4.1263790">
        <ele>109.8</ele>
        <time>2021-07-17T12:49:18Z</time>
      </trkpt>
      <trkpt lat="43.4035180" lon="-4.1265240">
        <ele>110.2</ele>
        <time>2021-07-17T12:49:25Z</time>
      </trkpt>
      <trkpt lat="43.4035240" lon="-4.1265400">
        <ele>110.6</ele>
        <time>2021-07-17T12:49:26Z</time>
      </trkpt>
      <trkpt lat="43.4035300" lon="-4.1265550">
        <ele>111.0</ele>
        <time>2021-07-17T12:49:27Z</time>
      </trkpt>
      <trkpt lat="43.4035330" lon="-4.1265710">
        <ele>111.4</ele>
        <time>2021-07-17T12:49:28Z</time>
      </trkpt>
      <trkpt lat="43.4035340" lon="-4.1265890">
        <ele>111.8</ele>
        <time>2021-07-17T12:49:29Z</time>
      </trkpt>
      <trkpt lat="43.4035370" lon="-4.1266450">
        <ele>111.8</ele>
        <time>2021-07-17T12:49:32Z</time>
      </trkpt>
      <trkpt lat="43.4035350" lon="-4.1266630">
        <ele>111.8</ele>
        <time>2021-07-17T12:49:34Z</time>
      </trkpt>
      <trkpt lat="43.4035230" lon="-4.1265750">
        <ele>113.8</ele>
        <time>2021-07-17T12:52:15Z</time>
      </trkpt>
      <trkpt lat="43.4035290" lon="-4.1265910">
        <ele>113.8</ele>
        <time>2021-07-17T12:52:16Z</time>
      </trkpt>
      <trkpt lat="43.4035350" lon="-4.1266090">
        <ele>113.8</ele>
        <time>2021-07-17T12:52:17Z</time>
      </trkpt>
      <trkpt lat="43.4035390" lon="-4.1266360">
        <ele>113.8</ele>
        <time>2021-07-17T12:52:19Z</time>
      </trkpt>
      <trkpt lat="43.4035390" lon="-4.1266620">
        <ele>113.8</ele>
        <time>2021-07-17T12:52:21Z</time>
      </trkpt>
      <trkpt lat="43.4035300" lon="-4.1266800">
        <ele>113.8</ele>
        <time>2021-07-17T12:52:24Z</time>
      </trkpt>
      <trkpt lat="43.4035020" lon="-4.1267040">
        <ele>113.8</ele>
        <time>2021-07-17T12:52:31Z</time>
      </trkpt>
      <trkpt lat="43.4034710" lon="-4.1267420">
        <ele>113.8</ele>
        <time>2021-07-17T12:52:33Z</time>
      </trkpt>
      <trkpt lat="43.4034390" lon="-4.1267850">
        <ele>113.8</ele>
        <time>2021-07-17T12:52:35Z</time>
      </trkpt>
      <trkpt lat="43.4033760" lon="-4.1268580">
        <ele>113.8</ele>
        <time>2021-07-17T12:52:39Z</time>
      </trkpt>
      <trkpt lat="43.4033650" lon="-4.1268770">
        <ele>113.8</ele>
        <time>2021-07-17T12:52:40Z</time>
      </trkpt>
      <trkpt lat="43.4033010" lon="-4.1270440">
        <ele>113.8</ele>
        <time>2021-07-17T12:52:47Z</time>
      </trkpt>
      <trkpt lat="43.4032240" lon="-4.1272770">
        <ele>113.8</ele>
        <time>2021-07-17T12:52:53Z</time>
      </trkpt>
      <trkpt lat="43.4031590" lon="-4.1275640">
        <ele>113.8</ele>
        <time>2021-07-17T12:52:58Z</time>
      </trkpt>
      <trkpt lat="43.4031550" lon="-4.1276210">
        <ele>113.8</ele>
        <time>2021-07-17T12:52:59Z</time>
      </trkpt>
      <trkpt lat="43.4031400" lon="-4.1278480">
        <ele>113.8</ele>
        <time>2021-07-17T12:53:04Z</time>
      </trkpt>
      <trkpt lat="43.4030820" lon="-4.1280530">
        <ele>114.2</ele>
        <time>2021-07-17T12:53:12Z</time>
      </trkpt>
      <trkpt lat="43.4030780" lon="-4.1280740">
        <ele>114.6</ele>
        <time>2021-07-17T12:53:13Z</time>
      </trkpt>
      <trkpt lat="43.4030740" lon="-4.1281000">
        <ele>115.2</ele>
        <time>2021-07-17T12:53:14Z</time>
      </trkpt>
      <trkpt lat="43.4030680" lon="-4.1281250">
        <ele>115.6</ele>
        <time>2021-07-17T12:53:15Z</time>
      </trkpt>
      <trkpt lat="43.4030610" lon="-4.1281480">
        <ele>116.0</ele>
        <time>2021-07-17T12:53:16Z</time>
      </trkpt>
      <trkpt lat="43.4030190" lon="-4.1282340">
        <ele>116.0</ele>
        <time>2021-07-17T12:53:20Z</time>
      </trkpt>
      <trkpt lat="43.4030080" lon="-4.1282510">
        <ele>116.4</ele>
        <time>2021-07-17T12:53:21Z</time>
      </trkpt>
      <trkpt lat="43.4029990" lon="-4.1282720">
        <ele>116.8</ele>
        <time>2021-07-17T12:53:22Z</time>
      </trkpt>
      <trkpt lat="43.4029880" lon="-4.1282900">
        <ele>117.2</ele>
        <time>2021-07-17T12:53:23Z</time>
      </trkpt>
      <trkpt lat="43.4029780" lon="-4.1283120">
        <ele>117.8</ele>
        <time>2021-07-17T12:53:24Z</time>
      </trkpt>
      <trkpt lat="43.4029690" lon="-4.1283300">
        <ele>118.2</ele>
        <time>2021-07-17T12:53:25Z</time>
      </trkpt>
      <trkpt lat="43.4029390" lon="-4.1283890">
        <ele>118.2</ele>
        <time>2021-07-17T12:53:28Z</time>
      </trkpt>
      <trkpt lat="43.4028690" lon="-4.1285270">
        <ele>118.2</ele>
        <time>2021-07-17T12:53:34Z</time>
      </trkpt>
      <trkpt lat="43.4028470" lon="-4.1285700">
        <ele>118.2</ele>
        <time>2021-07-17T12:53:36Z</time>
      </trkpt>
      <trkpt lat="43.4027990" lon="-4.1286050">
        <ele>118.6</ele>
        <time>2021-07-17T12:53:39Z</time>
      </trkpt>
      <trkpt lat="43.4027820" lon="-4.1286100">
        <ele>119.0</ele>
        <time>2021-07-17T12:53:40Z</time>
      </trkpt>
      <trkpt lat="43.4027660" lon="-4.1286080">
        <ele>119.4</ele>
        <time>2021-07-17T12:53:41Z</time>
      </trkpt>
      <trkpt lat="43.4027470" lon="-4.1286030">
        <ele>119.8</ele>
        <time>2021-07-17T12:53:42Z</time>
      </trkpt>
      <trkpt lat="43.4027280" lon="-4.1285930">
        <ele>120.2</ele>
        <time>2021-07-17T12:53:43Z</time>
      </trkpt>
      <trkpt lat="43.4026780" lon="-4.1285610">
        <ele>120.8</ele>
        <time>2021-07-17T12:53:46Z</time>
      </trkpt>
      <trkpt lat="43.4026620" lon="-4.1285460">
        <ele>121.2</ele>
        <time>2021-07-17T12:53:47Z</time>
      </trkpt>
      <trkpt lat="43.4026440" lon="-4.1285320">
        <ele>121.8</ele>
        <time>2021-07-17T12:53:48Z</time>
      </trkpt>
      <trkpt lat="43.4026270" lon="-4.1285180">
        <ele>122.2</ele>
        <time>2021-07-17T12:53:49Z</time>
      </trkpt>
      <trkpt lat="43.4026110" lon="-4.1285060">
        <ele>122.6</ele>
        <time>2021-07-17T12:53:50Z</time>
      </trkpt>
      <trkpt lat="43.4025180" lon="-4.1284870">
        <ele>123.0</ele>
        <time>2021-07-17T12:53:55Z</time>
      </trkpt>
      <trkpt lat="43.4025000" lon="-4.1284870">
        <ele>124.0</ele>
        <time>2021-07-17T12:53:56Z</time>
      </trkpt>
      <trkpt lat="43.4024830" lon="-4.1284920">
        <ele>124.4</ele>
        <time>2021-07-17T12:53:57Z</time>
      </trkpt>
      <trkpt lat="43.4024650" lon="-4.1284970">
        <ele>124.8</ele>
        <time>2021-07-17T12:53:58Z</time>
      </trkpt>
      <trkpt lat="43.4023750" lon="-4.1285200">
        <ele>124.8</ele>
        <time>2021-07-17T12:54:02Z</time>
      </trkpt>
      <trkpt lat="43.4022390" lon="-4.1285850">
        <ele>124.4</ele>
        <time>2021-07-17T12:54:06Z</time>
      </trkpt>
      <trkpt lat="43.4022050" lon="-4.1286130">
        <ele>124.0</ele>
        <time>2021-07-17T12:54:07Z</time>
      </trkpt>
      <trkpt lat="43.4021720" lon="-4.1286440">
        <ele>123.4</ele>
        <time>2021-07-17T12:54:08Z</time>
      </trkpt>
      <trkpt lat="43.4021390" lon="-4.1286780">
        <ele>123.0</ele>
        <time>2021-07-17T12:54:09Z</time>
      </trkpt>
      <trkpt lat="43.4021080" lon="-4.1287150">
        <ele>122.4</ele>
        <time>2021-07-17T12:54:10Z</time>
      </trkpt>
      <trkpt lat="43.4020790" lon="-4.1287510">
        <ele>122.0</ele>
        <time>2021-07-17T12:54:11Z</time>
      </trkpt>
      <trkpt lat="43.4020490" lon="-4.1287880">
        <ele>121.4</ele>
        <time>2021-07-17T12:54:12Z</time>
      </trkpt>
      <trkpt lat="43.4020220" lon="-4.1288290">
        <ele>121.0</ele>
        <time>2021-07-17T12:54:13Z</time>
      </trkpt>
      <trkpt lat="43.4019970" lon="-4.1288670">
        <ele>120.4</ele>
        <time>2021-07-17T12:54:14Z</time>
      </trkpt>
      <trkpt lat="43.4019760" lon="-4.1289100">
        <ele>120.0</ele>
        <time>2021-07-17T12:54:15Z</time>
      </trkpt>
      <trkpt lat="43.4019580" lon="-4.1289480">
        <ele>119.6</ele>
        <time>2021-07-17T12:54:16Z</time>
      </trkpt>
      <trkpt lat="43.4019380" lon="-4.1289820">
        <ele>119.0</ele>
        <time>2021-07-17T12:54:17Z</time>
      </trkpt>
      <trkpt lat="43.4019210" lon="-4.1290150">
        <ele>118.6</ele>
        <time>2021-07-17T12:54:18Z</time>
      </trkpt>
      <trkpt lat="43.4019090" lon="-4.1290380">
        <ele>118.2</ele>
        <time>2021-07-17T12:54:19Z</time>
      </trkpt>
      <trkpt lat="43.4018930" lon="-4.1290570">
        <ele>117.2</ele>
        <time>2021-07-17T12:54:21Z</time>
      </trkpt>
      <trkpt lat="43.4018930" lon="-4.1290570">
        <ele>116.8</ele>
        <time>2021-07-17T12:54:22Z</time>
      </trkpt>
      <trkpt lat="43.4018870" lon="-4.1290830">
        <ele>116.0</ele>
        <time>2021-07-17T12:54:25Z</time>
      </trkpt>
      <trkpt lat="43.4018650" lon="-4.1291790">
        <ele>116.0</ele>
        <time>2021-07-17T12:54:28Z</time>
      </trkpt>
      <trkpt lat="43.4018310" lon="-4.1292670">
        <ele>116.0</ele>
        <time>2021-07-17T12:54:30Z</time>
      </trkpt>
      <trkpt lat="43.4017780" lon="-4.1293680">
        <ele>116.0</ele>
        <time>2021-07-17T12:54:32Z</time>
      </trkpt>
      <trkpt lat="43.4016730" lon="-4.1295130">
        <ele>115.6</ele>
        <time>2021-07-17T12:54:35Z</time>
      </trkpt>
      <trkpt lat="43.4016280" lon="-4.1295590">
        <ele>115.0</ele>
        <time>2021-07-17T12:54:36Z</time>
      </trkpt>
      <trkpt lat="43.4015800" lon="-4.1296010">
        <ele>114.6</ele>
        <time>2021-07-17T12:54:37Z</time>
      </trkpt>
      <trkpt lat="43.4015300" lon="-4.1296460">
        <ele>114.2</ele>
        <time>2021-07-17T12:54:38Z</time>
      </trkpt>
      <trkpt lat="43.4014870" lon="-4.1296850">
        <ele>113.8</ele>
        <time>2021-07-17T12:54:39Z</time>
      </trkpt>
      <trkpt lat="43.4014030" lon="-4.1297510">
        <ele>113.8</ele>
        <time>2021-07-17T12:54:41Z</time>
      </trkpt>
      <trkpt lat="43.4013230" lon="-4.1298020">
        <ele>113.4</ele>
        <time>2021-07-17T12:54:43Z</time>
      </trkpt>
      <trkpt lat="43.4012860" lon="-4.1298260">
        <ele>112.8</ele>
        <time>2021-07-17T12:54:44Z</time>
      </trkpt>
      <trkpt lat="43.4012550" lon="-4.1298550">
        <ele>112.4</ele>
        <time>2021-07-17T12:54:45Z</time>
      </trkpt>
      <trkpt lat="43.4012310" lon="-4.1298790">
        <ele>111.4</ele>
        <time>2021-07-17T12:54:46Z</time>
      </trkpt>
      <trkpt lat="43.4012070" lon="-4.1299030">
        <ele>110.8</ele>
        <time>2021-07-17T12:54:47Z</time>
      </trkpt>
      <trkpt lat="43.4011800" lon="-4.1299250">
        <ele>110.2</ele>
        <time>2021-07-17T12:54:48Z</time>
      </trkpt>
      <trkpt lat="43.4011530" lon="-4.1299500">
        <ele>109.6</ele>
        <time>2021-07-17T12:54:49Z</time>
      </trkpt>
      <trkpt lat="43.4011270" lon="-4.1299760">
        <ele>109.0</ele>
        <time>2021-07-17T12:54:50Z</time>
      </trkpt>
      <trkpt lat="43.4011010" lon="-4.1300030">
        <ele>108.6</ele>
        <time>2021-07-17T12:54:51Z</time>
      </trkpt>
      <trkpt lat="43.4010750" lon="-4.1300310">
        <ele>108.0</ele>
        <time>2021-07-17T12:54:52Z</time>
      </trkpt>
      <trkpt lat="43.4010480" lon="-4.1300640">
        <ele>107.6</ele>
        <time>2021-07-17T12:54:53Z</time>
      </trkpt>
      <trkpt lat="43.4010220" lon="-4.1300980">
        <ele>107.2</ele>
        <time>2021-07-17T12:54:54Z</time>
      </trkpt>
      <trkpt lat="43.4009920" lon="-4.1301310">
        <ele>106.6</ele>
        <time>2021-07-17T12:54:55Z</time>
      </trkpt>
      <trkpt lat="43.4009580" lon="-4.1301610">
        <ele>106.0</ele>
        <time>2021-07-17T12:54:56Z</time>
      </trkpt>
      <trkpt lat="43.4009200" lon="-4.1301900">
        <ele>105.4</ele>
        <time>2021-07-17T12:54:57Z</time>
      </trkpt>
      <trkpt lat="43.4008780" lon="-4.1302170">
        <ele>104.8</ele>
        <time>2021-07-17T12:54:58Z</time>
      </trkpt>
      <trkpt lat="43.4008310" lon="-4.1302450">
        <ele>104.0</ele>
        <time>2021-07-17T12:54:59Z</time>
      </trkpt>
      <trkpt lat="43.4007770" lon="-4.1302720">
        <ele>103.4</ele>
        <time>2021-07-17T12:55:00Z</time>
      </trkpt>
      <trkpt lat="43.4007200" lon="-4.1302930">
        <ele>102.8</ele>
        <time>2021-07-17T12:55:01Z</time>
      </trkpt>
      <trkpt lat="43.4006600" lon="-4.1303150">
        <ele>102.0</ele>
        <time>2021-07-17T12:55:02Z</time>
      </trkpt>
      <trkpt lat="43.4005970" lon="-4.1303380">
        <ele>101.4</ele>
        <time>2021-07-17T12:55:03Z</time>
      </trkpt>
      <trkpt lat="43.4005280" lon="-4.1303660">
        <ele>100.6</ele>
        <time>2021-07-17T12:55:04Z</time>
      </trkpt>
      <trkpt lat="43.4004580" lon="-4.1303970">
        <ele>99.8</ele>
        <time>2021-07-17T12:55:05Z</time>
      </trkpt>
      <trkpt lat="43.4003940" lon="-4.1304240">
        <ele>99.2</ele>
        <time>2021-07-17T12:55:06Z</time>
      </trkpt>
      <trkpt lat="43.4003310" lon="-4.1304510">
        <ele>98.4</ele>
        <time>2021-07-17T12:55:07Z</time>
      </trkpt>
      <trkpt lat="43.4002700" lon="-4.1304770">
        <ele>97.8</ele>
        <time>2021-07-17T12:55:08Z</time>
      </trkpt>
      <trkpt lat="43.4001740" lon="-4.1305190">
        <ele>97.4</ele>
        <time>2021-07-17T12:55:10Z</time>
      </trkpt>
      <trkpt lat="43.4001280" lon="-4.1305380">
        <ele>96.6</ele>
        <time>2021-07-17T12:55:11Z</time>
      </trkpt>
      <trkpt lat="43.4000810" lon="-4.1305620">
        <ele>96.2</ele>
        <time>2021-07-17T12:55:12Z</time>
      </trkpt>
      <trkpt lat="43.4000340" lon="-4.1305880">
        <ele>95.8</ele>
        <time>2021-07-17T12:55:13Z</time>
      </trkpt>
      <trkpt lat="43.3999860" lon="-4.1306180">
        <ele>95.2</ele>
        <time>2021-07-17T12:55:14Z</time>
      </trkpt>
      <trkpt lat="43.3999310" lon="-4.1306500">
        <ele>94.8</ele>
        <time>2021-07-17T12:55:15Z</time>
      </trkpt>
      <trkpt lat="43.3998780" lon="-4.1306820">
        <ele>94.4</ele>
        <time>2021-07-17T12:55:16Z</time>
      </trkpt>
      <trkpt lat="43.3998240" lon="-4.1307120">
        <ele>94.0</ele>
        <time>2021-07-17T12:55:17Z</time>
      </trkpt>
      <trkpt lat="43.3997700" lon="-4.1307430">
        <ele>93.4</ele>
        <time>2021-07-17T12:55:18Z</time>
      </trkpt>
      <trkpt lat="43.3996160" lon="-4.1308320">
        <ele>93.0</ele>
        <time>2021-07-17T12:55:21Z</time>
      </trkpt>
      <trkpt lat="43.3995630" lon="-4.1308620">
        <ele>92.6</ele>
        <time>2021-07-17T12:55:23Z</time>
      </trkpt>
      <trkpt lat="43.3995140" lon="-4.1308940">
        <ele>92.2</ele>
        <time>2021-07-17T12:55:24Z</time>
      </trkpt>
      <trkpt lat="43.3994640" lon="-4.1309240">
        <ele>91.8</ele>
        <time>2021-07-17T12:55:25Z</time>
      </trkpt>
      <trkpt lat="43.3994150" lon="-4.1309560">
        <ele>91.2</ele>
        <time>2021-07-17T12:55:26Z</time>
      </trkpt>
      <trkpt lat="43.3993670" lon="-4.1309920">
        <ele>90.6</ele>
        <time>2021-07-17T12:55:27Z</time>
      </trkpt>
      <trkpt lat="43.3993210" lon="-4.1310300">
        <ele>90.0</ele>
        <time>2021-07-17T12:55:28Z</time>
      </trkpt>
      <trkpt lat="43.3992760" lon="-4.1310690">
        <ele>89.4</ele>
        <time>2021-07-17T12:55:29Z</time>
      </trkpt>
      <trkpt lat="43.3992340" lon="-4.1311100">
        <ele>88.8</ele>
        <time>2021-07-17T12:55:30Z</time>
      </trkpt>
      <trkpt lat="43.3991550" lon="-4.1311980">
        <ele>88.2</ele>
        <time>2021-07-17T12:55:32Z</time>
      </trkpt>
      <trkpt lat="43.3991190" lon="-4.1312310">
        <ele>87.6</ele>
        <time>2021-07-17T12:55:33Z</time>
      </trkpt>
      <trkpt lat="43.3990760" lon="-4.1312650">
        <ele>86.8</ele>
        <time>2021-07-17T12:55:34Z</time>
      </trkpt>
      <trkpt lat="43.3990230" lon="-4.1312970">
        <ele>85.2</ele>
        <time>2021-07-17T12:55:35Z</time>
      </trkpt>
      <trkpt lat="43.3989660" lon="-4.1313230">
        <ele>84.4</ele>
        <time>2021-07-17T12:55:36Z</time>
      </trkpt>
      <trkpt lat="43.3989060" lon="-4.1313480">
        <ele>83.6</ele>
        <time>2021-07-17T12:55:37Z</time>
      </trkpt>
      <trkpt lat="43.3988450" lon="-4.1313750">
        <ele>83.0</ele>
        <time>2021-07-17T12:55:38Z</time>
      </trkpt>
      <trkpt lat="43.3987840" lon="-4.1314010">
        <ele>82.4</ele>
        <time>2021-07-17T12:55:39Z</time>
      </trkpt>
      <trkpt lat="43.3987240" lon="-4.1314290">
        <ele>81.6</ele>
        <time>2021-07-17T12:55:40Z</time>
      </trkpt>
      <trkpt lat="43.3986650" lon="-4.1314620">
        <ele>80.8</ele>
        <time>2021-07-17T12:55:41Z</time>
      </trkpt>
      <trkpt lat="43.3986090" lon="-4.1315000">
        <ele>80.2</ele>
        <time>2021-07-17T12:55:42Z</time>
      </trkpt>
      <trkpt lat="43.3985590" lon="-4.1315480">
        <ele>79.4</ele>
        <time>2021-07-17T12:55:43Z</time>
      </trkpt>
      <trkpt lat="43.3985120" lon="-4.1315990">
        <ele>78.6</ele>
        <time>2021-07-17T12:55:44Z</time>
      </trkpt>
      <trkpt lat="43.3984210" lon="-4.1317170">
        <ele>78.2</ele>
        <time>2021-07-17T12:55:46Z</time>
      </trkpt>
      <trkpt lat="43.3983740" lon="-4.1317720">
        <ele>77.6</ele>
        <time>2021-07-17T12:55:47Z</time>
      </trkpt>
      <trkpt lat="43.3983240" lon="-4.1318230">
        <ele>77.2</ele>
        <time>2021-07-17T12:55:48Z</time>
      </trkpt>
      <trkpt lat="43.3982710" lon="-4.1318690">
        <ele>76.6</ele>
        <time>2021-07-17T12:55:49Z</time>
      </trkpt>
      <trkpt lat="43.3982140" lon="-4.1319120">
        <ele>76.0</ele>
        <time>2021-07-17T12:55:50Z</time>
      </trkpt>
      <trkpt lat="43.3981550" lon="-4.1319550">
        <ele>75.4</ele>
        <time>2021-07-17T12:55:51Z</time>
      </trkpt>
      <trkpt lat="43.3980910" lon="-4.1319960">
        <ele>74.8</ele>
        <time>2021-07-17T12:55:52Z</time>
      </trkpt>
      <trkpt lat="43.3980300" lon="-4.1320320">
        <ele>74.2</ele>
        <time>2021-07-17T12:55:53Z</time>
      </trkpt>
      <trkpt lat="43.3979070" lon="-4.1320940">
        <ele>73.8</ele>
        <time>2021-07-17T12:55:55Z</time>
      </trkpt>
      <trkpt lat="43.3978460" lon="-4.1321190">
        <ele>73.4</ele>
        <time>2021-07-17T12:55:56Z</time>
      </trkpt>
      <trkpt lat="43.3977860" lon="-4.1321400">
        <ele>72.8</ele>
        <time>2021-07-17T12:55:57Z</time>
      </trkpt>
      <trkpt lat="43.3977240" lon="-4.1321520">
        <ele>72.4</ele>
        <time>2021-07-17T12:55:58Z</time>
      </trkpt>
      <trkpt lat="43.3976640" lon="-4.1321570">
        <ele>72.0</ele>
        <time>2021-07-17T12:55:59Z</time>
      </trkpt>
      <trkpt lat="43.3976060" lon="-4.1321710">
        <ele>72.0</ele>
        <time>2021-07-17T12:56:00Z</time>
      </trkpt>
      <trkpt lat="43.3975480" lon="-4.1321940">
        <ele>72.0</ele>
        <time>2021-07-17T12:56:01Z</time>
      </trkpt>
      <trkpt lat="43.3974950" lon="-4.1322180">
        <ele>71.6</ele>
        <time>2021-07-17T12:56:02Z</time>
      </trkpt>
      <trkpt lat="43.3974430" lon="-4.1322510">
        <ele>71.0</ele>
        <time>2021-07-17T12:56:03Z</time>
      </trkpt>
      <trkpt lat="43.3973940" lon="-4.1322890">
        <ele>70.6</ele>
        <time>2021-07-17T12:56:04Z</time>
      </trkpt>
      <trkpt lat="43.3973450" lon="-4.1323310">
        <ele>70.2</ele>
        <time>2021-07-17T12:56:05Z</time>
      </trkpt>
      <trkpt lat="43.3972950" lon="-4.1323740">
        <ele>69.8</ele>
        <time>2021-07-17T12:56:06Z</time>
      </trkpt>
      <trkpt lat="43.3972460" lon="-4.1324130">
        <ele>69.8</ele>
        <time>2021-07-17T12:56:07Z</time>
      </trkpt>
      <trkpt lat="43.3969530" lon="-4.1326250">
        <ele>69.2</ele>
        <time>2021-07-17T12:56:13Z</time>
      </trkpt>
      <trkpt lat="43.3969170" lon="-4.1326550">
        <ele>68.8</ele>
        <time>2021-07-17T12:56:14Z</time>
      </trkpt>
      <trkpt lat="43.3968860" lon="-4.1326870">
        <ele>68.4</ele>
        <time>2021-07-17T12:56:15Z</time>
      </trkpt>
      <trkpt lat="43.3968580" lon="-4.1327220">
        <ele>68.0</ele>
        <time>2021-07-17T12:56:16Z</time>
      </trkpt>
      <trkpt lat="43.3968370" lon="-4.1327530">
        <ele>67.6</ele>
        <time>2021-07-17T12:56:17Z</time>
      </trkpt>
      <trkpt lat="43.3968100" lon="-4.1328070">
        <ele>67.6</ele>
        <time>2021-07-17T12:56:19Z</time>
      </trkpt>
      <trkpt lat="43.3967500" lon="-4.1330080">
        <ele>67.6</ele>
        <time>2021-07-17T12:56:25Z</time>
      </trkpt>
      <trkpt lat="43.3967370" lon="-4.1330530">
        <ele>67.6</ele>
        <time>2021-07-17T12:56:26Z</time>
      </trkpt>
      <trkpt lat="43.3966070" lon="-4.1333450">
        <ele>67.2</ele>
        <time>2021-07-17T12:56:32Z</time>
      </trkpt>
      <trkpt lat="43.3965800" lon="-4.1333940">
        <ele>66.6</ele>
        <time>2021-07-17T12:56:33Z</time>
      </trkpt>
      <trkpt lat="43.3965530" lon="-4.1334370">
        <ele>66.2</ele>
        <time>2021-07-17T12:56:34Z</time>
      </trkpt>
      <trkpt lat="43.3965320" lon="-4.1334760">
        <ele>65.8</ele>
        <time>2021-07-17T12:56:35Z</time>
      </trkpt>
      <trkpt lat="43.3965140" lon="-4.1335110">
        <ele>65.4</ele>
        <time>2021-07-17T12:56:36Z</time>
      </trkpt>
      <trkpt lat="43.3964710" lon="-4.1335840">
        <ele>65.4</ele>
        <time>2021-07-17T12:56:38Z</time>
      </trkpt>
      <trkpt lat="43.3964190" lon="-4.1336700">
        <ele>65.0</ele>
        <time>2021-07-17T12:56:40Z</time>
      </trkpt>
      <trkpt lat="43.3963960" lon="-4.1337190">
        <ele>64.6</ele>
        <time>2021-07-17T12:56:41Z</time>
      </trkpt>
      <trkpt lat="43.3963720" lon="-4.1337720">
        <ele>64.2</ele>
        <time>2021-07-17T12:56:42Z</time>
      </trkpt>
      <trkpt lat="43.3963420" lon="-4.1338250">
        <ele>63.8</ele>
        <time>2021-07-17T12:56:43Z</time>
      </trkpt>
      <trkpt lat="43.3963120" lon="-4.1338760">
        <ele>63.4</ele>
        <time>2021-07-17T12:56:44Z</time>
      </trkpt>
      <trkpt lat="43.3962340" lon="-4.1340130">
        <ele>63.4</ele>
        <time>2021-07-17T12:56:47Z</time>
      </trkpt>
      <trkpt lat="43.3962000" lon="-4.1341090">
        <ele>62.6</ele>
        <time>2021-07-17T12:56:49Z</time>
      </trkpt>
      <trkpt lat="43.3961820" lon="-4.1341530">
        <ele>62.2</ele>
        <time>2021-07-17T12:56:50Z</time>
      </trkpt>
      <trkpt lat="43.3961620" lon="-4.1341950">
        <ele>61.6</ele>
        <time>2021-07-17T12:56:51Z</time>
      </trkpt>
      <trkpt lat="43.3961410" lon="-4.1342340">
        <ele>61.2</ele>
        <time>2021-07-17T12:56:52Z</time>
      </trkpt>
      <trkpt lat="43.3960840" lon="-4.1343390">
        <ele>61.2</ele>
        <time>2021-07-17T12:56:55Z</time>
      </trkpt>
      <trkpt lat="43.3960580" lon="-4.1343620">
        <ele>61.2</ele>
        <time>2021-07-17T12:56:56Z</time>
      </trkpt>
      <trkpt lat="43.3959760" lon="-4.1344100">
        <ele>61.2</ele>
        <time>2021-07-17T12:56:59Z</time>
      </trkpt>
      <trkpt lat="43.3959490" lon="-4.1345070">
        <ele>61.2</ele>
        <time>2021-07-17T12:57:02Z</time>
      </trkpt>
      <trkpt lat="43.3959480" lon="-4.1345450">
        <ele>61.2</ele>
        <time>2021-07-17T12:57:03Z</time>
      </trkpt>
      <trkpt lat="43.3959520" lon="-4.1346350">
        <ele>61.2</ele>
        <time>2021-07-17T12:57:05Z</time>
      </trkpt>
      <trkpt lat="43.3959710" lon="-4.1347260">
        <ele>61.2</ele>
        <time>2021-07-17T12:57:07Z</time>
      </trkpt>
      <trkpt lat="43.3959850" lon="-4.1347680">
        <ele>61.2</ele>
        <time>2021-07-17T12:57:08Z</time>
      </trkpt>
      <trkpt lat="43.3960130" lon="-4.1348550">
        <ele>61.2</ele>
        <time>2021-07-17T12:57:10Z</time>
      </trkpt>
      <trkpt lat="43.3960430" lon="-4.1350150">
        <ele>61.2</ele>
        <time>2021-07-17T12:57:14Z</time>
      </trkpt>
      <trkpt lat="43.3960760" lon="-4.1351510">
        <ele>61.2</ele>
        <time>2021-07-17T12:57:19Z</time>
      </trkpt>
      <trkpt lat="43.3960780" lon="-4.1351830">
        <ele>61.2</ele>
        <time>2021-07-17T12:57:21Z</time>
      </trkpt>
      <trkpt lat="43.3960730" lon="-4.1351980">
        <ele>61.2</ele>
        <time>2021-07-17T12:57:23Z</time>
      </trkpt>
      <trkpt lat="43.3960580" lon="-4.1351170">
        <ele>61.2</ele>
        <time>2021-07-17T12:57:30Z</time>
      </trkpt>
      <trkpt lat="43.3960720" lon="-4.1351020">
        <ele>61.2</ele>
        <time>2021-07-17T12:57:33Z</time>
      </trkpt>
      <trkpt lat="43.3960540" lon="-4.1350690">
        <ele>61.2</ele>
        <time>2021-07-17T12:57:47Z</time>
      </trkpt>
      <trkpt lat="43.3960320" lon="-4.1350690">
        <ele>61.2</ele>
        <time>2021-07-17T12:57:52Z</time>
      </trkpt>
      <trkpt lat="43.3960380" lon="-4.1350940">
        <ele>61.2</ele>
        <time>2021-07-17T12:57:53Z</time>
      </trkpt>
      <trkpt lat="43.3960680" lon="-4.1352090">
        <ele>61.2</ele>
        <time>2021-07-17T12:57:57Z</time>
      </trkpt>
      <trkpt lat="43.3960980" lon="-4.1353900">
        <ele>61.2</ele>
        <time>2021-07-17T12:58:02Z</time>
      </trkpt>
      <trkpt lat="43.3961060" lon="-4.1354230">
        <ele>61.2</ele>
        <time>2021-07-17T12:58:03Z</time>
      </trkpt>
      <trkpt lat="43.3961280" lon="-4.1354920">
        <ele>61.2</ele>
        <time>2021-07-17T12:58:05Z</time>
      </trkpt>
      <trkpt lat="43.3961690" lon="-4.1356040">
        <ele>61.2</ele>
        <time>2021-07-17T12:58:08Z</time>
      </trkpt>
      <trkpt lat="43.3961970" lon="-4.1356770">
        <ele>61.2</ele>
        <time>2021-07-17T12:58:10Z</time>
      </trkpt>
      <trkpt lat="43.3962750" lon="-4.1358360">
        <ele>61.2</ele>
        <time>2021-07-17T12:58:16Z</time>
      </trkpt>
      <trkpt lat="43.3963490" lon="-4.1360420">
        <ele>61.2</ele>
        <time>2021-07-17T12:58:22Z</time>
      </trkpt>
      <trkpt lat="43.3963780" lon="-4.1363510">
        <ele>61.6</ele>
        <time>2021-07-17T12:58:29Z</time>
      </trkpt>
      <trkpt lat="43.3963760" lon="-4.1363860">
        <ele>62.2</ele>
        <time>2021-07-17T12:58:30Z</time>
      </trkpt>
      <trkpt lat="43.3963690" lon="-4.1364250">
        <ele>62.6</ele>
        <time>2021-07-17T12:58:31Z</time>
      </trkpt>
      <trkpt lat="43.3963630" lon="-4.1364660">
        <ele>63.0</ele>
        <time>2021-07-17T12:58:32Z</time>
      </trkpt>
      <trkpt lat="43.3963540" lon="-4.1365080">
        <ele>63.4</ele>
        <time>2021-07-17T12:58:33Z</time>
      </trkpt>
      <trkpt lat="43.3963330" lon="-4.1367650">
        <ele>63.4</ele>
        <time>2021-07-17T12:58:39Z</time>
      </trkpt>
      <trkpt lat="43.3963430" lon="-4.1372000">
        <ele>63.4</ele>
        <time>2021-07-17T12:58:49Z</time>
      </trkpt>
      <trkpt lat="43.3964130" lon="-4.1373950">
        <ele>63.4</ele>
        <time>2021-07-17T12:58:54Z</time>
      </trkpt>
      <trkpt lat="43.3964370" lon="-4.1374270">
        <ele>63.8</ele>
        <time>2021-07-17T12:58:55Z</time>
      </trkpt>
      <trkpt lat="43.3964620" lon="-4.1374540">
        <ele>64.2</ele>
        <time>2021-07-17T12:58:56Z</time>
      </trkpt>
      <trkpt lat="43.3964870" lon="-4.1374790">
        <ele>64.6</ele>
        <time>2021-07-17T12:58:57Z</time>
      </trkpt>
      <trkpt lat="43.3965110" lon="-4.1375050">
        <ele>65.0</ele>
        <time>2021-07-17T12:58:58Z</time>
      </trkpt>
      <trkpt lat="43.3965370" lon="-4.1375300">
        <ele>65.4</ele>
        <time>2021-07-17T12:58:59Z</time>
      </trkpt>
      <trkpt lat="43.3965670" lon="-4.1375580">
        <ele>65.4</ele>
        <time>2021-07-17T12:59:00Z</time>
      </trkpt>
      <trkpt lat="43.3967080" lon="-4.1377050">
        <ele>65.8</ele>
        <time>2021-07-17T12:59:06Z</time>
      </trkpt>
      <trkpt lat="43.3967280" lon="-4.1377350">
        <ele>66.2</ele>
        <time>2021-07-17T12:59:07Z</time>
      </trkpt>
      <trkpt lat="43.3967460" lon="-4.1377630">
        <ele>66.6</ele>
        <time>2021-07-17T12:59:08Z</time>
      </trkpt>
      <trkpt lat="43.3967630" lon="-4.1377900">
        <ele>67.0</ele>
        <time>2021-07-17T12:59:09Z</time>
      </trkpt>
      <trkpt lat="43.3967820" lon="-4.1378160">
        <ele>67.4</ele>
        <time>2021-07-17T12:59:10Z</time>
      </trkpt>
      <trkpt lat="43.3968880" lon="-4.1379350">
        <ele>67.4</ele>
        <time>2021-07-17T12:59:15Z</time>
      </trkpt>
      <trkpt lat="43.3969280" lon="-4.1379840">
        <ele>68.4</ele>
        <time>2021-07-17T12:59:17Z</time>
      </trkpt>
      <trkpt lat="43.3969500" lon="-4.1380060">
        <ele>68.8</ele>
        <time>2021-07-17T12:59:18Z</time>
      </trkpt>
      <trkpt lat="43.3969720" lon="-4.1380240">
        <ele>69.2</ele>
        <time>2021-07-17T12:59:19Z</time>
      </trkpt>
      <trkpt lat="43.3969930" lon="-4.1380470">
        <ele>69.8</ele>
        <time>2021-07-17T12:59:20Z</time>
      </trkpt>
      <trkpt lat="43.3970610" lon="-4.1381100">
        <ele>69.8</ele>
        <time>2021-07-17T12:59:23Z</time>
      </trkpt>
      <trkpt lat="43.3972040" lon="-4.1382210">
        <ele>69.8</ele>
        <time>2021-07-17T12:59:29Z</time>
      </trkpt>
      <trkpt lat="43.3972500" lon="-4.1382550">
        <ele>70.2</ele>
        <time>2021-07-17T12:59:31Z</time>
      </trkpt>
      <trkpt lat="43.3972690" lon="-4.1382770">
        <ele>70.6</ele>
        <time>2021-07-17T12:59:32Z</time>
      </trkpt>
      <trkpt lat="43.3972920" lon="-4.1382990">
        <ele>71.0</ele>
        <time>2021-07-17T12:59:33Z</time>
      </trkpt>
      <trkpt lat="43.3973140" lon="-4.1383200">
        <ele>71.4</ele>
        <time>2021-07-17T12:59:34Z</time>
      </trkpt>
      <trkpt lat="43.3973360" lon="-4.1383410">
        <ele>71.8</ele>
        <time>2021-07-17T12:59:35Z</time>
      </trkpt>
      <trkpt lat="43.3974660" lon="-4.1385430">
        <ele>71.8</ele>
        <time>2021-07-17T12:59:42Z</time>
      </trkpt>
      <trkpt lat="43.3975310" lon="-4.1387090">
        <ele>72.2</ele>
        <time>2021-07-17T12:59:47Z</time>
      </trkpt>
      <trkpt lat="43.3975420" lon="-4.1387380">
        <ele>72.6</ele>
        <time>2021-07-17T12:59:48Z</time>
      </trkpt>
      <trkpt lat="43.3975530" lon="-4.1387660">
        <ele>73.0</ele>
        <time>2021-07-17T12:59:49Z</time>
      </trkpt>
      <trkpt lat="43.3975640" lon="-4.1388000">
        <ele>73.4</ele>
        <time>2021-07-17T12:59:50Z</time>
      </trkpt>
      <trkpt lat="43.3975770" lon="-4.1388270">
        <ele>73.8</ele>
        <time>2021-07-17T12:59:51Z</time>
      </trkpt>
      <trkpt lat="43.3976170" lon="-4.1389170">
        <ele>73.8</ele>
        <time>2021-07-17T12:59:54Z</time>
      </trkpt>
      <trkpt lat="43.3976780" lon="-4.1390300">
        <ele>74.2</ele>
        <time>2021-07-17T12:59:58Z</time>
      </trkpt>
      <trkpt lat="43.3976900" lon="-4.1390610">
        <ele>74.8</ele>
        <time>2021-07-17T12:59:59Z</time>
      </trkpt>
      <trkpt lat="43.3977030" lon="-4.1390910">
        <ele>75.2</ele>
        <time>2021-07-17T13:00:00Z</time>
      </trkpt>
      <trkpt lat="43.3977170" lon="-4.1391160">
        <ele>75.6</ele>
        <time>2021-07-17T13:00:01Z</time>
      </trkpt>
      <trkpt lat="43.3977350" lon="-4.1391440">
        <ele>76.0</ele>
        <time>2021-07-17T13:00:02Z</time>
      </trkpt>
      <trkpt lat="43.3978470" lon="-4.1393180">
        <ele>76.0</ele>
        <time>2021-07-17T13:00:08Z</time>
      </trkpt>
      <trkpt lat="43.3979370" lon="-4.1395010">
        <ele>76.0</ele>
        <time>2021-07-17T13:00:14Z</time>
      </trkpt>
      <trkpt lat="43.3980170" lon="-4.1396560">
        <ele>76.4</ele>
        <time>2021-07-17T13:00:19Z</time>
      </trkpt>
      <trkpt lat="43.3980350" lon="-4.1396870">
        <ele>77.0</ele>
        <time>2021-07-17T13:00:20Z</time>
      </trkpt>
      <trkpt lat="43.3980530" lon="-4.1397200">
        <ele>77.4</ele>
        <time>2021-07-17T13:00:21Z</time>
      </trkpt>
      <trkpt lat="43.3980680" lon="-4.1397520">
        <ele>77.8</ele>
        <time>2021-07-17T13:00:22Z</time>
      </trkpt>
      <trkpt lat="43.3980830" lon="-4.1397880">
        <ele>78.2</ele>
        <time>2021-07-17T13:00:23Z</time>
      </trkpt>
      <trkpt lat="43.3981030" lon="-4.1398530">
        <ele>78.2</ele>
        <time>2021-07-17T13:00:25Z</time>
      </trkpt>
      <trkpt lat="43.3981870" lon="-4.1401400">
        <ele>78.2</ele>
        <time>2021-07-17T13:00:33Z</time>
      </trkpt>
      <trkpt lat="43.3982660" lon="-4.1403320">
        <ele>78.2</ele>
        <time>2021-07-17T13:00:39Z</time>
      </trkpt>
      <trkpt lat="43.3982830" lon="-4.1403630">
        <ele>78.6</ele>
        <time>2021-07-17T13:00:40Z</time>
      </trkpt>
      <trkpt lat="43.3983000" lon="-4.1403940">
        <ele>79.0</ele>
        <time>2021-07-17T13:00:41Z</time>
      </trkpt>
      <trkpt lat="43.3983160" lon="-4.1404210">
        <ele>79.6</ele>
        <time>2021-07-17T13:00:42Z</time>
      </trkpt>
      <trkpt lat="43.3983310" lon="-4.1404500">
        <ele>80.0</ele>
        <time>2021-07-17T13:00:43Z</time>
      </trkpt>
      <trkpt lat="43.3983470" lon="-4.1404780">
        <ele>80.4</ele>
        <time>2021-07-17T13:00:44Z</time>
      </trkpt>
      <trkpt lat="43.3983940" lon="-4.1405630">
        <ele>80.4</ele>
        <time>2021-07-17T13:00:47Z</time>
      </trkpt>
      <trkpt lat="43.3985000" lon="-4.1407790">
        <ele>80.8</ele>
        <time>2021-07-17T13:00:54Z</time>
      </trkpt>
      <trkpt lat="43.3985130" lon="-4.1408070">
        <ele>81.2</ele>
        <time>2021-07-17T13:00:55Z</time>
      </trkpt>
      <trkpt lat="43.3985260" lon="-4.1408390">
        <ele>82.0</ele>
        <time>2021-07-17T13:00:56Z</time>
      </trkpt>
      <trkpt lat="43.3985370" lon="-4.1408660">
        <ele>82.4</ele>
        <time>2021-07-17T13:00:57Z</time>
      </trkpt>
      <trkpt lat="43.3986280" lon="-4.1410610">
        <ele>82.4</ele>
        <time>2021-07-17T13:01:04Z</time>
      </trkpt>
      <trkpt lat="43.3986820" lon="-4.1411630">
        <ele>82.8</ele>
        <time>2021-07-17T13:01:08Z</time>
      </trkpt>
      <trkpt lat="43.3986930" lon="-4.1411900">
        <ele>83.2</ele>
        <time>2021-07-17T13:01:09Z</time>
      </trkpt>
      <trkpt lat="43.3986980" lon="-4.1412160">
        <ele>83.6</ele>
        <time>2021-07-17T13:01:10Z</time>
      </trkpt>
      <trkpt lat="43.3987040" lon="-4.1412440">
        <ele>84.0</ele>
        <time>2021-07-17T13:01:11Z</time>
      </trkpt>
      <trkpt lat="43.3987130" lon="-4.1412690">
        <ele>84.4</ele>
        <time>2021-07-17T13:01:12Z</time>
      </trkpt>
      <trkpt lat="43.3987930" lon="-4.1414990">
        <ele>84.8</ele>
        <time>2021-07-17T13:01:21Z</time>
      </trkpt>
      <trkpt lat="43.3988010" lon="-4.1415250">
        <ele>85.4</ele>
        <time>2021-07-17T13:01:22Z</time>
      </trkpt>
      <trkpt lat="43.3988080" lon="-4.1415520">
        <ele>85.8</ele>
        <time>2021-07-17T13:01:23Z</time>
      </trkpt>
      <trkpt lat="43.3988180" lon="-4.1415790">
        <ele>86.2</ele>
        <time>2021-07-17T13:01:24Z</time>
      </trkpt>
      <trkpt lat="43.3988280" lon="-4.1416030">
        <ele>86.8</ele>
        <time>2021-07-17T13:01:25Z</time>
      </trkpt>
      <trkpt lat="43.3988640" lon="-4.1417080">
        <ele>86.8</ele>
        <time>2021-07-17T13:01:29Z</time>
      </trkpt>
      <trkpt lat="43.3989040" lon="-4.1418640">
        <ele>87.2</ele>
        <time>2021-07-17T13:01:35Z</time>
      </trkpt>
      <trkpt lat="43.3989130" lon="-4.1418890">
        <ele>87.6</ele>
        <time>2021-07-17T13:01:36Z</time>
      </trkpt>
      <trkpt lat="43.3989210" lon="-4.1419170">
        <ele>88.0</ele>
        <time>2021-07-17T13:01:37Z</time>
      </trkpt>
      <trkpt lat="43.3989260" lon="-4.1419420">
        <ele>88.4</ele>
        <time>2021-07-17T13:01:38Z</time>
      </trkpt>
      <trkpt lat="43.3989370" lon="-4.1419670">
        <ele>88.8</ele>
        <time>2021-07-17T13:01:39Z</time>
      </trkpt>
      <trkpt lat="43.3989740" lon="-4.1420670">
        <ele>88.8</ele>
        <time>2021-07-17T13:01:43Z</time>
      </trkpt>
      <trkpt lat="43.3989990" lon="-4.1421430">
        <ele>89.6</ele>
        <time>2021-07-17T13:01:46Z</time>
      </trkpt>
      <trkpt lat="43.3990080" lon="-4.1421690">
        <ele>90.0</ele>
        <time>2021-07-17T13:01:47Z</time>
      </trkpt>
      <trkpt lat="43.3990170" lon="-4.1421930">
        <ele>90.4</ele>
        <time>2021-07-17T13:01:48Z</time>
      </trkpt>
      <trkpt lat="43.3990280" lon="-4.1422150">
        <ele>90.8</ele>
        <time>2021-07-17T13:01:49Z</time>
      </trkpt>
      <trkpt lat="43.3990390" lon="-4.1422380">
        <ele>90.8</ele>
        <time>2021-07-17T13:01:50Z</time>
      </trkpt>
      <trkpt lat="43.3990980" lon="-4.1423920">
        <ele>91.2</ele>
        <time>2021-07-17T13:01:56Z</time>
      </trkpt>
      <trkpt lat="43.3991090" lon="-4.1424140">
        <ele>91.6</ele>
        <time>2021-07-17T13:01:57Z</time>
      </trkpt>
      <trkpt lat="43.3991240" lon="-4.1424360">
        <ele>92.2</ele>
        <time>2021-07-17T13:01:58Z</time>
      </trkpt>
      <trkpt lat="43.3991390" lon="-4.1424580">
        <ele>92.6</ele>
        <time>2021-07-17T13:01:59Z</time>
      </trkpt>
      <trkpt lat="43.3991530" lon="-4.1424790">
        <ele>93.0</ele>
        <time>2021-07-17T13:02:00Z</time>
      </trkpt>
      <trkpt lat="43.3991990" lon="-4.1425700">
        <ele>93.0</ele>
        <time>2021-07-17T13:02:04Z</time>
      </trkpt>
      <trkpt lat="43.3992730" lon="-4.1427320">
        <ele>93.4</ele>
        <time>2021-07-17T13:02:11Z</time>
      </trkpt>
      <trkpt lat="43.3992820" lon="-4.1427560">
        <ele>93.8</ele>
        <time>2021-07-17T13:02:12Z</time>
      </trkpt>
      <trkpt lat="43.3992910" lon="-4.1427830">
        <ele>94.2</ele>
        <time>2021-07-17T13:02:13Z</time>
      </trkpt>
      <trkpt lat="43.3992990" lon="-4.1428110">
        <ele>94.6</ele>
        <time>2021-07-17T13:02:14Z</time>
      </trkpt>
      <trkpt lat="43.3993090" lon="-4.1428390">
        <ele>95.2</ele>
        <time>2021-07-17T13:02:15Z</time>
      </trkpt>
      <trkpt lat="43.3993500" lon="-4.1429640">
        <ele>95.2</ele>
        <time>2021-07-17T13:02:20Z</time>
      </trkpt>
      <trkpt lat="43.3993760" lon="-4.1430380">
        <ele>95.6</ele>
        <time>2021-07-17T13:02:23Z</time>
      </trkpt>
      <trkpt lat="43.3993860" lon="-4.1430660">
        <ele>96.0</ele>
        <time>2021-07-17T13:02:24Z</time>
      </trkpt>
      <trkpt lat="43.3993950" lon="-4.1430920">
        <ele>96.4</ele>
        <time>2021-07-17T13:02:25Z</time>
      </trkpt>
      <trkpt lat="43.3994030" lon="-4.1431150">
        <ele>97.0</ele>
        <time>2021-07-17T13:02:26Z</time>
      </trkpt>
      <trkpt lat="43.3994090" lon="-4.1431410">
        <ele>97.4</ele>
        <time>2021-07-17T13:02:27Z</time>
      </trkpt>
      <trkpt lat="43.3994620" lon="-4.1433860">
        <ele>97.4</ele>
        <time>2021-07-17T13:02:36Z</time>
      </trkpt>
      <trkpt lat="43.3994660" lon="-4.1434150">
        <ele>97.8</ele>
        <time>2021-07-17T13:02:37Z</time>
      </trkpt>
      <trkpt lat="43.3994730" lon="-4.1434470">
        <ele>98.2</ele>
        <time>2021-07-17T13:02:38Z</time>
      </trkpt>
      <trkpt lat="43.3994840" lon="-4.1434730">
        <ele>98.8</ele>
        <time>2021-07-17T13:02:39Z</time>
      </trkpt>
      <trkpt lat="43.3994930" lon="-4.1435000">
        <ele>99.2</ele>
        <time>2021-07-17T13:02:40Z</time>
      </trkpt>
      <trkpt lat="43.3995030" lon="-4.1435270">
        <ele>99.6</ele>
        <time>2021-07-17T13:02:41Z</time>
      </trkpt>
      <trkpt lat="43.3995220" lon="-4.1435850">
        <ele>99.6</ele>
        <time>2021-07-17T13:02:43Z</time>
      </trkpt>
      <trkpt lat="43.3996020" lon="-4.1437990">
        <ele>99.6</ele>
        <time>2021-07-17T13:02:51Z</time>
      </trkpt>
      <trkpt lat="43.3996830" lon="-4.1440150">
        <ele>99.6</ele>
        <time>2021-07-17T13:02:59Z</time>
      </trkpt>
      <trkpt lat="43.3997210" lon="-4.1441240">
        <ele>100.0</ele>
        <time>2021-07-17T13:03:03Z</time>
      </trkpt>
      <trkpt lat="43.3997250" lon="-4.1441510">
        <ele>100.4</ele>
        <time>2021-07-17T13:03:04Z</time>
      </trkpt>
      <trkpt lat="43.3997320" lon="-4.1441750">
        <ele>101.0</ele>
        <time>2021-07-17T13:03:05Z</time>
      </trkpt>
      <trkpt lat="43.3997390" lon="-4.1442020">
        <ele>101.4</ele>
        <time>2021-07-17T13:03:06Z</time>
      </trkpt>
      <trkpt lat="43.3997500" lon="-4.1442240">
        <ele>101.8</ele>
        <time>2021-07-17T13:03:07Z</time>
      </trkpt>
      <trkpt lat="43.3997570" lon="-4.1442520">
        <ele>101.8</ele>
        <time>2021-07-17T13:03:08Z</time>
      </trkpt>
      <trkpt lat="43.3997860" lon="-4.1443460">
        <ele>102.2</ele>
        <time>2021-07-17T13:03:12Z</time>
      </trkpt>
      <trkpt lat="43.3997930" lon="-4.1443690">
        <ele>102.8</ele>
        <time>2021-07-17T13:03:13Z</time>
      </trkpt>
      <trkpt lat="43.3997990" lon="-4.1443910">
        <ele>103.2</ele>
        <time>2021-07-17T13:03:14Z</time>
      </trkpt>
      <trkpt lat="43.3998020" lon="-4.1444180">
        <ele>103.6</ele>
        <time>2021-07-17T13:03:15Z</time>
      </trkpt>
      <trkpt lat="43.3998070" lon="-4.1444430">
        <ele>104.0</ele>
        <time>2021-07-17T13:03:16Z</time>
      </trkpt>
      <trkpt lat="43.3998060" lon="-4.1446460">
        <ele>104.0</ele>
        <time>2021-07-17T13:03:24Z</time>
      </trkpt>
      <trkpt lat="43.3997090" lon="-4.1449380">
        <ele>104.0</ele>
        <time>2021-07-17T13:03:32Z</time>
      </trkpt>
      <trkpt lat="43.3996670" lon="-4.1451950">
        <ele>104.0</ele>
        <time>2021-07-17T13:03:38Z</time>
      </trkpt>
      <trkpt lat="43.3996890" lon="-4.1453370">
        <ele>104.0</ele>
        <time>2021-07-17T13:03:42Z</time>
      </trkpt>
      <trkpt lat="43.3997090" lon="-4.1453960">
        <ele>104.0</ele>
        <time>2021-07-17T13:03:44Z</time>
      </trkpt>
      <trkpt lat="43.3997430" lon="-4.1454890">
        <ele>104.0</ele>
        <time>2021-07-17T13:03:47Z</time>
      </trkpt>
      <trkpt lat="43.3997870" lon="-4.1456090">
        <ele>104.0</ele>
        <time>2021-07-17T13:03:51Z</time>
      </trkpt>
      <trkpt lat="43.3998130" lon="-4.1456570">
        <ele>104.4</ele>
        <time>2021-07-17T13:03:53Z</time>
      </trkpt>
      <trkpt lat="43.3998250" lon="-4.1456790">
        <ele>104.8</ele>
        <time>2021-07-17T13:03:54Z</time>
      </trkpt>
      <trkpt lat="43.3998350" lon="-4.1457010">
        <ele>105.2</ele>
        <time>2021-07-17T13:03:55Z</time>
      </trkpt>
      <trkpt lat="43.3998440" lon="-4.1457230">
        <ele>105.6</ele>
        <time>2021-07-17T13:03:56Z</time>
      </trkpt>
      <trkpt lat="43.3998560" lon="-4.1457420">
        <ele>106.0</ele>
        <time>2021-07-17T13:03:57Z</time>
      </trkpt>
      <trkpt lat="43.3998700" lon="-4.1457610">
        <ele>106.0</ele>
        <time>2021-07-17T13:03:59Z</time>
      </trkpt>
      <trkpt lat="43.3998720" lon="-4.1457840">
        <ele>106.0</ele>
        <time>2021-07-17T13:04:00Z</time>
      </trkpt>
      <trkpt lat="43.3998900" lon="-4.1458850">
        <ele>106.0</ele>
        <time>2021-07-17T13:04:03Z</time>
      </trkpt>
      <trkpt lat="43.3999220" lon="-4.1461430">
        <ele>106.0</ele>
        <time>2021-07-17T13:04:09Z</time>
      </trkpt>
      <trkpt lat="43.3999360" lon="-4.1462190">
        <ele>106.0</ele>
        <time>2021-07-17T13:04:11Z</time>
      </trkpt>
      <trkpt lat="43.3999460" lon="-4.1462780">
        <ele>106.0</ele>
        <time>2021-07-17T13:04:14Z</time>
      </trkpt>
      <trkpt lat="43.3999490" lon="-4.1462810">
        <ele>106.0</ele>
        <time>2021-07-17T13:04:16Z</time>
      </trkpt>
      <trkpt lat="43.3999500" lon="-4.1463030">
        <ele>104.0</ele>
        <time>2021-07-17T13:04:41Z</time>
      </trkpt>
      <trkpt lat="43.3999490" lon="-4.1463260">
        <ele>104.0</ele>
        <time>2021-07-17T13:04:42Z</time>
      </trkpt>
      <trkpt lat="43.3999650" lon="-4.1465180">
        <ele>104.0</ele>
        <time>2021-07-17T13:04:47Z</time>
      </trkpt>
      <trkpt lat="43.4000050" lon="-4.1468050">
        <ele>103.6</ele>
        <time>2021-07-17T13:04:51Z</time>
      </trkpt>
      <trkpt lat="43.4000180" lon="-4.1468760">
        <ele>103.2</ele>
        <time>2021-07-17T13:04:52Z</time>
      </trkpt>
      <trkpt lat="43.4000300" lon="-4.1469280">
        <ele>102.8</ele>
        <time>2021-07-17T13:04:53Z</time>
      </trkpt>
      <trkpt lat="43.4000400" lon="-4.1469660">
        <ele>102.2</ele>
        <time>2021-07-17T13:04:54Z</time>
      </trkpt>
      <trkpt lat="43.4000470" lon="-4.1469950">
        <ele>101.8</ele>
        <time>2021-07-17T13:04:55Z</time>
      </trkpt>
      <trkpt lat="43.4000550" lon="-4.1470190">
        <ele>101.4</ele>
        <time>2021-07-17T13:04:56Z</time>
      </trkpt>
      <trkpt lat="43.4000620" lon="-4.1470370">
        <ele>101.0</ele>
        <time>2021-07-17T13:04:57Z</time>
      </trkpt>
      <trkpt lat="43.4000680" lon="-4.1470520">
        <ele>100.6</ele>
        <time>2021-07-17T13:04:58Z</time>
      </trkpt>
      <trkpt lat="43.4000740" lon="-4.1470670">
        <ele>100.2</ele>
        <time>2021-07-17T13:04:59Z</time>
      </trkpt>
      <trkpt lat="43.4000810" lon="-4.1470840">
        <ele>99.8</ele>
        <time>2021-07-17T13:05:00Z</time>
      </trkpt>
      <trkpt lat="43.4001020" lon="-4.1471500">
        <ele>99.8</ele>
        <time>2021-07-17T13:05:05Z</time>
      </trkpt>
      <trkpt lat="43.4001010" lon="-4.1471780">
        <ele>99.8</ele>
        <time>2021-07-17T13:05:46Z</time>
      </trkpt>
      <trkpt lat="43.4001090" lon="-4.1473260">
        <ele>99.8</ele>
        <time>2021-07-17T13:05:49Z</time>
      </trkpt>
      <trkpt lat="43.4001320" lon="-4.1474430">
        <ele>99.8</ele>
        <time>2021-07-17T13:05:51Z</time>
      </trkpt>
      <trkpt lat="43.4001510" lon="-4.1475070">
        <ele>99.2</ele>
        <time>2021-07-17T13:05:52Z</time>
      </trkpt>
      <trkpt lat="43.4001620" lon="-4.1475720">
        <ele>98.4</ele>
        <time>2021-07-17T13:05:53Z</time>
      </trkpt>
      <trkpt lat="43.4001710" lon="-4.1476360">
        <ele>97.8</ele>
        <time>2021-07-17T13:05:54Z</time>
      </trkpt>
      <trkpt lat="43.4001820" lon="-4.1476980">
        <ele>97.4</ele>
        <time>2021-07-17T13:05:55Z</time>
      </trkpt>
      <trkpt lat="43.4001920" lon="-4.1477600">
        <ele>96.8</ele>
        <time>2021-07-17T13:05:56Z</time>
      </trkpt>
      <trkpt lat="43.4002020" lon="-4.1478240">
        <ele>96.2</ele>
        <time>2021-07-17T13:05:57Z</time>
      </trkpt>
      <trkpt lat="43.4002110" lon="-4.1478910">
        <ele>95.8</ele>
        <time>2021-07-17T13:05:58Z</time>
      </trkpt>
      <trkpt lat="43.4002180" lon="-4.1479580">
        <ele>95.2</ele>
        <time>2021-07-17T13:05:59Z</time>
      </trkpt>
      <trkpt lat="43.4002250" lon="-4.1480950">
        <ele>94.8</ele>
        <time>2021-07-17T13:06:01Z</time>
      </trkpt>
      <trkpt lat="43.4002280" lon="-4.1481630">
        <ele>94.4</ele>
        <time>2021-07-17T13:06:02Z</time>
      </trkpt>
      <trkpt lat="43.4002330" lon="-4.1482310">
        <ele>94.0</ele>
        <time>2021-07-17T13:06:03Z</time>
      </trkpt>
      <trkpt lat="43.4002370" lon="-4.1482990">
        <ele>93.6</ele>
        <time>2021-07-17T13:06:04Z</time>
      </trkpt>
      <trkpt lat="43.4002400" lon="-4.1483690">
        <ele>93.2</ele>
        <time>2021-07-17T13:06:05Z</time>
      </trkpt>
      <trkpt lat="43.4002310" lon="-4.1485190">
        <ele>93.2</ele>
        <time>2021-07-17T13:06:07Z</time>
      </trkpt>
      <trkpt lat="43.4002130" lon="-4.1486660">
        <ele>93.2</ele>
        <time>2021-07-17T13:06:09Z</time>
      </trkpt>
      <trkpt lat="43.4001960" lon="-4.1488050">
        <ele>92.8</ele>
        <time>2021-07-17T13:06:11Z</time>
      </trkpt>
      <trkpt lat="43.4001870" lon="-4.1488700">
        <ele>92.2</ele>
        <time>2021-07-17T13:06:12Z</time>
      </trkpt>
      <trkpt lat="43.4001770" lon="-4.1489370">
        <ele>91.8</ele>
        <time>2021-07-17T13:06:13Z</time>
      </trkpt>
      <trkpt lat="43.4001680" lon="-4.1490020">
        <ele>91.4</ele>
        <time>2021-07-17T13:06:14Z</time>
      </trkpt>
      <trkpt lat="43.4001550" lon="-4.1490800">
        <ele>90.8</ele>
        <time>2021-07-17T13:06:15Z</time>
      </trkpt>
      <trkpt lat="43.4001440" lon="-4.1491580">
        <ele>90.4</ele>
        <time>2021-07-17T13:06:16Z</time>
      </trkpt>
      <trkpt lat="43.4001330" lon="-4.1492350">
        <ele>90.0</ele>
        <time>2021-07-17T13:06:17Z</time>
      </trkpt>
      <trkpt lat="43.4001220" lon="-4.1493140">
        <ele>89.2</ele>
        <time>2021-07-17T13:06:18Z</time>
      </trkpt>
      <trkpt lat="43.4001100" lon="-4.1493880">
        <ele>88.8</ele>
        <time>2021-07-17T13:06:19Z</time>
      </trkpt>
      <trkpt lat="43.4000990" lon="-4.1494580">
        <ele>88.4</ele>
        <time>2021-07-17T13:06:20Z</time>
      </trkpt>
      <trkpt lat="43.4000910" lon="-4.1495240">
        <ele>87.8</ele>
        <time>2021-07-17T13:06:21Z</time>
      </trkpt>
      <trkpt lat="43.4000890" lon="-4.1495710">
        <ele>87.4</ele>
        <time>2021-07-17T13:06:22Z</time>
      </trkpt>
      <trkpt lat="43.4000890" lon="-4.1496190">
        <ele>86.8</ele>
        <time>2021-07-17T13:06:23Z</time>
      </trkpt>
      <trkpt lat="43.4000840" lon="-4.1496700">
        <ele>86.4</ele>
        <time>2021-07-17T13:06:24Z</time>
      </trkpt>
      <trkpt lat="43.4000820" lon="-4.1497290">
        <ele>85.8</ele>
        <time>2021-07-17T13:06:25Z</time>
      </trkpt>
      <trkpt lat="43.4000790" lon="-4.1497960">
        <ele>85.4</ele>
        <time>2021-07-17T13:06:26Z</time>
      </trkpt>
      <trkpt lat="43.4000790" lon="-4.1498650">
        <ele>84.8</ele>
        <time>2021-07-17T13:06:27Z</time>
      </trkpt>
      <trkpt lat="43.4000830" lon="-4.1499350">
        <ele>84.2</ele>
        <time>2021-07-17T13:06:28Z</time>
      </trkpt>
      <trkpt lat="43.4000900" lon="-4.1501450">
        <ele>83.8</ele>
        <time>2021-07-17T13:06:31Z</time>
      </trkpt>
      <trkpt lat="43.4000940" lon="-4.1502220">
        <ele>83.4</ele>
        <time>2021-07-17T13:06:32Z</time>
      </trkpt>
      <trkpt lat="43.4000970" lon="-4.1502910">
        <ele>82.8</ele>
        <time>2021-07-17T13:06:33Z</time>
      </trkpt>
      <trkpt lat="43.4000990" lon="-4.1503600">
        <ele>82.4</ele>
        <time>2021-07-17T13:06:34Z</time>
      </trkpt>
      <trkpt lat="43.4001000" lon="-4.1504380">
        <ele>82.0</ele>
        <time>2021-07-17T13:06:35Z</time>
      </trkpt>
      <trkpt lat="43.4001050" lon="-4.1505170">
        <ele>81.4</ele>
        <time>2021-07-17T13:06:36Z</time>
      </trkpt>
      <trkpt lat="43.4001040" lon="-4.1505980">
        <ele>81.0</ele>
        <time>2021-07-17T13:06:37Z</time>
      </trkpt>
      <trkpt lat="43.4001030" lon="-4.1506820">
        <ele>80.6</ele>
        <time>2021-07-17T13:06:38Z</time>
      </trkpt>
      <trkpt lat="43.4001090" lon="-4.1507630">
        <ele>80.2</ele>
        <time>2021-07-17T13:06:39Z</time>
      </trkpt>
      <trkpt lat="43.4001180" lon="-4.1508480">
        <ele>79.6</ele>
        <time>2021-07-17T13:06:40Z</time>
      </trkpt>
      <trkpt lat="43.4001250" lon="-4.1509370">
        <ele>79.2</ele>
        <time>2021-07-17T13:06:41Z</time>
      </trkpt>
      <trkpt lat="43.4001310" lon="-4.1510300">
        <ele>78.6</ele>
        <time>2021-07-17T13:06:42Z</time>
      </trkpt>
      <trkpt lat="43.4001370" lon="-4.1511220">
        <ele>77.4</ele>
        <time>2021-07-17T13:06:43Z</time>
      </trkpt>
      <trkpt lat="43.4001420" lon="-4.1512110">
        <ele>76.8</ele>
        <time>2021-07-17T13:06:44Z</time>
      </trkpt>
      <trkpt lat="43.4001420" lon="-4.1513020">
        <ele>76.2</ele>
        <time>2021-07-17T13:06:45Z</time>
      </trkpt>
      <trkpt lat="43.4001430" lon="-4.1513980">
        <ele>75.6</ele>
        <time>2021-07-17T13:06:46Z</time>
      </trkpt>
      <trkpt lat="43.4001480" lon="-4.1514900">
        <ele>75.0</ele>
        <time>2021-07-17T13:06:47Z</time>
      </trkpt>
      <trkpt lat="43.4001570" lon="-4.1515830">
        <ele>74.6</ele>
        <time>2021-07-17T13:06:48Z</time>
      </trkpt>
      <trkpt lat="43.4001660" lon="-4.1516770">
        <ele>74.0</ele>
        <time>2021-07-17T13:06:49Z</time>
      </trkpt>
      <trkpt lat="43.4001700" lon="-4.1517700">
        <ele>73.4</ele>
        <time>2021-07-17T13:06:50Z</time>
      </trkpt>
      <trkpt lat="43.4001740" lon="-4.1518640">
        <ele>72.8</ele>
        <time>2021-07-17T13:06:51Z</time>
      </trkpt>
      <trkpt lat="43.4001820" lon="-4.1519550">
        <ele>72.4</ele>
        <time>2021-07-17T13:06:52Z</time>
      </trkpt>
      <trkpt lat="43.4001850" lon="-4.1520490">
        <ele>72.0</ele>
        <time>2021-07-17T13:06:53Z</time>
      </trkpt>
      <trkpt lat="43.4001850" lon="-4.1521400">
        <ele>71.6</ele>
        <time>2021-07-17T13:06:54Z</time>
      </trkpt>
      <trkpt lat="43.4001840" lon="-4.1522310">
        <ele>71.2</ele>
        <time>2021-07-17T13:06:55Z</time>
      </trkpt>
      <trkpt lat="43.4001860" lon="-4.1523210">
        <ele>70.6</ele>
        <time>2021-07-17T13:06:56Z</time>
      </trkpt>
      <trkpt lat="43.4001910" lon="-4.1524100">
        <ele>70.2</ele>
        <time>2021-07-17T13:06:57Z</time>
      </trkpt>
      <trkpt lat="43.4001980" lon="-4.1524970">
        <ele>69.8</ele>
        <time>2021-07-17T13:06:58Z</time>
      </trkpt>
      <trkpt lat="43.4002090" lon="-4.1525820">
        <ele>69.2</ele>
        <time>2021-07-17T13:06:59Z</time>
      </trkpt>
      <trkpt lat="43.4002240" lon="-4.1526670">
        <ele>68.8</ele>
        <time>2021-07-17T13:07:00Z</time>
      </trkpt>
      <trkpt lat="43.4002310" lon="-4.1527470">
        <ele>68.2</ele>
        <time>2021-07-17T13:07:01Z</time>
      </trkpt>
      <trkpt lat="43.4002320" lon="-4.1528280">
        <ele>67.8</ele>
        <time>2021-07-17T13:07:02Z</time>
      </trkpt>
      <trkpt lat="43.4002340" lon="-4.1529110">
        <ele>67.4</ele>
        <time>2021-07-17T13:07:03Z</time>
      </trkpt>
      <trkpt lat="43.4002350" lon="-4.1529940">
        <ele>66.8</ele>
        <time>2021-07-17T13:07:04Z</time>
      </trkpt>
      <trkpt lat="43.4002380" lon="-4.1530740">
        <ele>66.4</ele>
        <time>2021-07-17T13:07:05Z</time>
      </trkpt>
      <trkpt lat="43.4002400" lon="-4.1531530">
        <ele>65.8</ele>
        <time>2021-07-17T13:07:06Z</time>
      </trkpt>
      <trkpt lat="43.4002460" lon="-4.1532310">
        <ele>65.0</ele>
        <time>2021-07-17T13:07:07Z</time>
      </trkpt>
      <trkpt lat="43.4002500" lon="-4.1533080">
        <ele>64.6</ele>
        <time>2021-07-17T13:07:08Z</time>
      </trkpt>
      <trkpt lat="43.4002540" lon="-4.1533770">
        <ele>64.2</ele>
        <time>2021-07-17T13:07:09Z</time>
      </trkpt>
      <trkpt lat="43.4002570" lon="-4.1534460">
        <ele>63.6</ele>
        <time>2021-07-17T13:07:10Z</time>
      </trkpt>
      <trkpt lat="43.4002600" lon="-4.1535120">
        <ele>63.6</ele>
        <time>2021-07-17T13:07:11Z</time>
      </trkpt>
      <trkpt lat="43.4002650" lon="-4.1535810">
        <ele>63.2</ele>
        <time>2021-07-17T13:07:12Z</time>
      </trkpt>
      <trkpt lat="43.4002650" lon="-4.1536530">
        <ele>62.8</ele>
        <time>2021-07-17T13:07:13Z</time>
      </trkpt>
      <trkpt lat="43.4002660" lon="-4.1537240">
        <ele>62.4</ele>
        <time>2021-07-17T13:07:14Z</time>
      </trkpt>
      <trkpt lat="43.4002700" lon="-4.1537960">
        <ele>62.0</ele>
        <time>2021-07-17T13:07:15Z</time>
      </trkpt>
      <trkpt lat="43.4002740" lon="-4.1538610">
        <ele>61.4</ele>
        <time>2021-07-17T13:07:16Z</time>
      </trkpt>
      <trkpt lat="43.4002780" lon="-4.1539210">
        <ele>61.0</ele>
        <time>2021-07-17T13:07:17Z</time>
      </trkpt>
      <trkpt lat="43.4002810" lon="-4.1539650">
        <ele>60.6</ele>
        <time>2021-07-17T13:07:18Z</time>
      </trkpt>
      <trkpt lat="43.4002840" lon="-4.1540060">
        <ele>60.2</ele>
        <time>2021-07-17T13:07:19Z</time>
      </trkpt>
      <trkpt lat="43.4002820" lon="-4.1540350">
        <ele>59.8</ele>
        <time>2021-07-17T13:07:20Z</time>
      </trkpt>
      <trkpt lat="43.4002720" lon="-4.1540580">
        <ele>59.4</ele>
        <time>2021-07-17T13:07:21Z</time>
      </trkpt>
      <trkpt lat="43.4002570" lon="-4.1540770">
        <ele>59.4</ele>
        <time>2021-07-17T13:07:22Z</time>
      </trkpt>
      <trkpt lat="43.4002320" lon="-4.1540820">
        <ele>59.4</ele>
        <time>2021-07-17T13:07:23Z</time>
      </trkpt>
      <trkpt lat="43.4001800" lon="-4.1540470">
        <ele>59.4</ele>
        <time>2021-07-17T13:07:25Z</time>
      </trkpt>
      <trkpt lat="43.4001250" lon="-4.1539990">
        <ele>59.4</ele>
        <time>2021-07-17T13:07:27Z</time>
      </trkpt>
      <trkpt lat="43.4000960" lon="-4.1539770">
        <ele>59.4</ele>
        <time>2021-07-17T13:07:28Z</time>
      </trkpt>
      <trkpt lat="43.4000400" lon="-4.1539350">
        <ele>59.4</ele>
        <time>2021-07-17T13:07:30Z</time>
      </trkpt>
      <trkpt lat="43.3999870" lon="-4.1539100">
        <ele>59.4</ele>
        <time>2021-07-17T13:07:32Z</time>
      </trkpt>
      <trkpt lat="43.3998380" lon="-4.1538920">
        <ele>59.4</ele>
        <time>2021-07-17T13:07:37Z</time>
      </trkpt>
      <trkpt lat="43.3995900" lon="-4.1538940">
        <ele>59.4</ele>
        <time>2021-07-17T13:07:43Z</time>
      </trkpt>
      <trkpt lat="43.3994570" lon="-4.1539030">
        <ele>59.4</ele>
        <time>2021-07-17T13:07:46Z</time>
      </trkpt>
      <trkpt lat="43.3993320" lon="-4.1538840">
        <ele>59.4</ele>
        <time>2021-07-17T13:07:49Z</time>
      </trkpt>
      <trkpt lat="43.3992880" lon="-4.1538570">
        <ele>59.4</ele>
        <time>2021-07-17T13:07:50Z</time>
      </trkpt>
      <trkpt lat="43.3992460" lon="-4.1538210">
        <ele>59.0</ele>
        <time>2021-07-17T13:07:51Z</time>
      </trkpt>
      <trkpt lat="43.3992090" lon="-4.1537730">
        <ele>58.6</ele>
        <time>2021-07-17T13:07:52Z</time>
      </trkpt>
      <trkpt lat="43.3991690" lon="-4.1537220">
        <ele>58.2</ele>
        <time>2021-07-17T13:07:53Z</time>
      </trkpt>
      <trkpt lat="43.3991340" lon="-4.1536720">
        <ele>57.8</ele>
        <time>2021-07-17T13:07:54Z</time>
      </trkpt>
      <trkpt lat="43.3990930" lon="-4.1536280">
        <ele>57.4</ele>
        <time>2021-07-17T13:07:55Z</time>
      </trkpt>
      <trkpt lat="43.3989060" lon="-4.1535370">
        <ele>57.4</ele>
        <time>2021-07-17T13:07:59Z</time>
      </trkpt>
      <trkpt lat="43.3988500" lon="-4.1535380">
        <ele>57.0</ele>
        <time>2021-07-17T13:08:00Z</time>
      </trkpt>
      <trkpt lat="43.3988040" lon="-4.1535370">
        <ele>56.4</ele>
        <time>2021-07-17T13:08:01Z</time>
      </trkpt>
      <trkpt lat="43.3987620" lon="-4.1535300">
        <ele>56.0</ele>
        <time>2021-07-17T13:08:02Z</time>
      </trkpt>
      <trkpt lat="43.3987250" lon="-4.1535240">
        <ele>55.6</ele>
        <time>2021-07-17T13:08:03Z</time>
      </trkpt>
      <trkpt lat="43.3986990" lon="-4.1535210">
        <ele>55.2</ele>
        <time>2021-07-17T13:08:04Z</time>
      </trkpt>
      <trkpt lat="43.3986360" lon="-4.1535270">
        <ele>55.2</ele>
        <time>2021-07-17T13:08:07Z</time>
      </trkpt>
      <trkpt lat="43.3985970" lon="-4.1535620">
        <ele>55.6</ele>
        <time>2021-07-17T13:08:10Z</time>
      </trkpt>
      <trkpt lat="43.3985930" lon="-4.1535830">
        <ele>56.2</ele>
        <time>2021-07-17T13:08:11Z</time>
      </trkpt>
      <trkpt lat="43.3985880" lon="-4.1536010">
        <ele>56.6</ele>
        <time>2021-07-17T13:08:12Z</time>
      </trkpt>
      <trkpt lat="43.3985820" lon="-4.1536180">
        <ele>57.0</ele>
        <time>2021-07-17T13:08:13Z</time>
      </trkpt>
      <trkpt lat="43.3985800" lon="-4.1536460">
        <ele>57.4</ele>
        <time>2021-07-17T13:08:14Z</time>
      </trkpt>
      <trkpt lat="43.3986010" lon="-4.1537830">
        <ele>57.4</ele>
        <time>2021-07-17T13:08:17Z</time>
      </trkpt>
      <trkpt lat="43.3986270" lon="-4.1539490">
        <ele>57.4</ele>
        <time>2021-07-17T13:08:20Z</time>
      </trkpt>
      <trkpt lat="43.3986490" lon="-4.1542110">
        <ele>57.4</ele>
        <time>2021-07-17T13:08:24Z</time>
      </trkpt>
      <trkpt lat="43.3986400" lon="-4.1545330">
        <ele>57.0</ele>
        <time>2021-07-17T13:08:28Z</time>
      </trkpt>
      <trkpt lat="43.3986390" lon="-4.1546140">
        <ele>56.6</ele>
        <time>2021-07-17T13:08:29Z</time>
      </trkpt>
      <trkpt lat="43.3986400" lon="-4.1547000">
        <ele>56.0</ele>
        <time>2021-07-17T13:08:30Z</time>
      </trkpt>
      <trkpt lat="43.3986430" lon="-4.1547810">
        <ele>55.6</ele>
        <time>2021-07-17T13:08:31Z</time>
      </trkpt>
      <trkpt lat="43.3986460" lon="-4.1548590">
        <ele>55.2</ele>
        <time>2021-07-17T13:08:32Z</time>
      </trkpt>
      <trkpt lat="43.3986520" lon="-4.1549360">
        <ele>54.8</ele>
        <time>2021-07-17T13:08:33Z</time>
      </trkpt>
      <trkpt lat="43.3986590" lon="-4.1550060">
        <ele>54.4</ele>
        <time>2021-07-17T13:08:34Z</time>
      </trkpt>
      <trkpt lat="43.3986630" lon="-4.1550730">
        <ele>53.8</ele>
        <time>2021-07-17T13:08:35Z</time>
      </trkpt>
      <trkpt lat="43.3986670" lon="-4.1551340">
        <ele>53.4</ele>
        <time>2021-07-17T13:08:36Z</time>
      </trkpt>
      <trkpt lat="43.3986720" lon="-4.1551970">
        <ele>53.0</ele>
        <time>2021-07-17T13:08:37Z</time>
      </trkpt>
      <trkpt lat="43.3986830" lon="-4.1552600">
        <ele>52.6</ele>
        <time>2021-07-17T13:08:38Z</time>
      </trkpt>
      <trkpt lat="43.3986980" lon="-4.1553240">
        <ele>52.2</ele>
        <time>2021-07-17T13:08:39Z</time>
      </trkpt>
      <trkpt lat="43.3987200" lon="-4.1553950">
        <ele>51.8</ele>
        <time>2021-07-17T13:08:40Z</time>
      </trkpt>
      <trkpt lat="43.3987550" lon="-4.1554620">
        <ele>51.4</ele>
        <time>2021-07-17T13:08:41Z</time>
      </trkpt>
      <trkpt lat="43.3987930" lon="-4.1555270">
        <ele>51.0</ele>
        <time>2021-07-17T13:08:42Z</time>
      </trkpt>
      <trkpt lat="43.3988310" lon="-4.1555940">
        <ele>51.0</ele>
        <time>2021-07-17T13:08:43Z</time>
      </trkpt>
      <trkpt lat="43.3989400" lon="-4.1558370">
        <ele>50.0</ele>
        <time>2021-07-17T13:08:46Z</time>
      </trkpt>
      <trkpt lat="43.3989740" lon="-4.1559210">
        <ele>49.4</ele>
        <time>2021-07-17T13:08:47Z</time>
      </trkpt>
      <trkpt lat="43.3990080" lon="-4.1560100">
        <ele>49.0</ele>
        <time>2021-07-17T13:08:48Z</time>
      </trkpt>
      <trkpt lat="43.3990400" lon="-4.1561060">
        <ele>48.6</ele>
        <time>2021-07-17T13:08:49Z</time>
      </trkpt>
      <trkpt lat="43.3990920" lon="-4.1563090">
        <ele>48.0</ele>
        <time>2021-07-17T13:08:51Z</time>
      </trkpt>
      <trkpt lat="43.3991150" lon="-4.1564010">
        <ele>47.6</ele>
        <time>2021-07-17T13:08:52Z</time>
      </trkpt>
      <trkpt lat="43.3991370" lon="-4.1564780">
        <ele>47.0</ele>
        <time>2021-07-17T13:08:53Z</time>
      </trkpt>
      <trkpt lat="43.3991540" lon="-4.1565460">
        <ele>46.6</ele>
        <time>2021-07-17T13:08:54Z</time>
      </trkpt>
      <trkpt lat="43.3991720" lon="-4.1566130">
        <ele>46.0</ele>
        <time>2021-07-17T13:08:55Z</time>
      </trkpt>
      <trkpt lat="43.3992400" lon="-4.1568770">
        <ele>46.0</ele>
        <time>2021-07-17T13:08:59Z</time>
      </trkpt>
      <trkpt lat="43.3993330" lon="-4.1571890">
        <ele>45.6</ele>
        <time>2021-07-17T13:09:04Z</time>
      </trkpt>
      <trkpt lat="43.3993510" lon="-4.1572480">
        <ele>45.2</ele>
        <time>2021-07-17T13:09:05Z</time>
      </trkpt>
      <trkpt lat="43.3993660" lon="-4.1573020">
        <ele>44.8</ele>
        <time>2021-07-17T13:09:06Z</time>
      </trkpt>
      <trkpt lat="43.3993800" lon="-4.1573570">
        <ele>44.4</ele>
        <time>2021-07-17T13:09:07Z</time>
      </trkpt>
      <trkpt lat="43.3993930" lon="-4.1574080">
        <ele>44.0</ele>
        <time>2021-07-17T13:09:08Z</time>
      </trkpt>
      <trkpt lat="43.3994310" lon="-4.1575560">
        <ele>44.0</ele>
        <time>2021-07-17T13:09:11Z</time>
      </trkpt>
      <trkpt lat="43.3994910" lon="-4.1577450">
        <ele>44.0</ele>
        <time>2021-07-17T13:09:15Z</time>
      </trkpt>
      <trkpt lat="43.3995070" lon="-4.1577880">
        <ele>44.0</ele>
        <time>2021-07-17T13:09:16Z</time>
      </trkpt>
      <trkpt lat="43.3995900" lon="-4.1580150">
        <ele>44.0</ele>
        <time>2021-07-17T13:09:21Z</time>
      </trkpt>
      <trkpt lat="43.3996350" lon="-4.1581540">
        <ele>44.0</ele>
        <time>2021-07-17T13:09:24Z</time>
      </trkpt>
      <trkpt lat="43.3997100" lon="-4.1583940">
        <ele>44.0</ele>
        <time>2021-07-17T13:09:29Z</time>
      </trkpt>
      <trkpt lat="43.3997410" lon="-4.1584860">
        <ele>44.0</ele>
        <time>2021-07-17T13:09:31Z</time>
      </trkpt>
      <trkpt lat="43.3997550" lon="-4.1585300">
        <ele>44.4</ele>
        <time>2021-07-17T13:09:32Z</time>
      </trkpt>
      <trkpt lat="43.3997750" lon="-4.1585690">
        <ele>44.8</ele>
        <time>2021-07-17T13:09:33Z</time>
      </trkpt>
      <trkpt lat="43.3997910" lon="-4.1586140">
        <ele>45.2</ele>
        <time>2021-07-17T13:09:34Z</time>
      </trkpt>
      <trkpt lat="43.3998080" lon="-4.1586560">
        <ele>46.0</ele>
        <time>2021-07-17T13:09:35Z</time>
      </trkpt>
      <trkpt lat="43.3998520" lon="-4.1587710">
        <ele>46.0</ele>
        <time>2021-07-17T13:09:38Z</time>
      </trkpt>
      <trkpt lat="43.3999150" lon="-4.1589790">
        <ele>46.0</ele>
        <time>2021-07-17T13:09:44Z</time>
      </trkpt>
      <trkpt lat="43.3999680" lon="-4.1591940">
        <ele>46.0</ele>
        <time>2021-07-17T13:09:50Z</time>
      </trkpt>
      <trkpt lat="43.3999800" lon="-4.1592760">
        <ele>46.0</ele>
        <time>2021-07-17T13:09:52Z</time>
      </trkpt>
      <trkpt lat="43.3999900" lon="-4.1593440">
        <ele>46.4</ele>
        <time>2021-07-17T13:09:54Z</time>
      </trkpt>
      <trkpt lat="43.3999950" lon="-4.1593740">
        <ele>46.8</ele>
        <time>2021-07-17T13:09:55Z</time>
      </trkpt>
      <trkpt lat="43.4000040" lon="-4.1594010">
        <ele>47.2</ele>
        <time>2021-07-17T13:09:56Z</time>
      </trkpt>
      <trkpt lat="43.4000120" lon="-4.1594370">
        <ele>47.6</ele>
        <time>2021-07-17T13:09:57Z</time>
      </trkpt>
      <trkpt lat="43.4000160" lon="-4.1594680">
        <ele>48.2</ele>
        <time>2021-07-17T13:09:58Z</time>
      </trkpt>
      <trkpt lat="43.4000190" lon="-4.1595020">
        <ele>48.2</ele>
        <time>2021-07-17T13:09:59Z</time>
      </trkpt>
      <trkpt lat="43.4000570" lon="-4.1596820">
        <ele>48.2</ele>
        <time>2021-07-17T13:10:05Z</time>
      </trkpt>
      <trkpt lat="43.4000650" lon="-4.1597140">
        <ele>48.6</ele>
        <time>2021-07-17T13:10:06Z</time>
      </trkpt>
      <trkpt lat="43.4000670" lon="-4.1597390">
        <ele>49.0</ele>
        <time>2021-07-17T13:10:07Z</time>
      </trkpt>
      <trkpt lat="43.4000630" lon="-4.1597690">
        <ele>49.4</ele>
        <time>2021-07-17T13:10:08Z</time>
      </trkpt>
      <trkpt lat="43.4000650" lon="-4.1597950">
        <ele>49.8</ele>
        <time>2021-07-17T13:10:09Z</time>
      </trkpt>
      <trkpt lat="43.4000630" lon="-4.1598240">
        <ele>50.2</ele>
        <time>2021-07-17T13:10:10Z</time>
      </trkpt>
      <trkpt lat="43.4000570" lon="-4.1598850">
        <ele>50.2</ele>
        <time>2021-07-17T13:10:12Z</time>
      </trkpt>
      <trkpt lat="43.4000360" lon="-4.1601520">
        <ele>50.2</ele>
        <time>2021-07-17T13:10:20Z</time>
      </trkpt>
      <trkpt lat="43.4000290" lon="-4.1601830">
        <ele>50.2</ele>
        <time>2021-07-17T13:10:21Z</time>
      </trkpt>
      <trkpt lat="43.3999800" lon="-4.1603880">
        <ele>50.2</ele>
        <time>2021-07-17T13:10:28Z</time>
      </trkpt>
      <trkpt lat="43.3999660" lon="-4.1604130">
        <ele>50.6</ele>
        <time>2021-07-17T13:10:29Z</time>
      </trkpt>
      <trkpt lat="43.3999560" lon="-4.1604370">
        <ele>51.0</ele>
        <time>2021-07-17T13:10:30Z</time>
      </trkpt>
      <trkpt lat="43.3999470" lon="-4.1604590">
        <ele>51.4</ele>
        <time>2021-07-17T13:10:31Z</time>
      </trkpt>
      <trkpt lat="43.3999390" lon="-4.1604820">
        <ele>51.8</ele>
        <time>2021-07-17T13:10:32Z</time>
      </trkpt>
      <trkpt lat="43.3999290" lon="-4.1605100">
        <ele>52.4</ele>
        <time>2021-07-17T13:10:33Z</time>
      </trkpt>
      <trkpt lat="43.3998930" lon="-4.1605940">
        <ele>52.4</ele>
        <time>2021-07-17T13:10:36Z</time>
      </trkpt>
      <trkpt lat="43.3998120" lon="-4.1607310">
        <ele>52.4</ele>
        <time>2021-07-17T13:10:42Z</time>
      </trkpt>
      <trkpt lat="43.3997630" lon="-4.1607900">
        <ele>52.8</ele>
        <time>2021-07-17T13:10:45Z</time>
      </trkpt>
      <trkpt lat="43.3997500" lon="-4.1608110">
        <ele>53.2</ele>
        <time>2021-07-17T13:10:46Z</time>
      </trkpt>
      <trkpt lat="43.3997330" lon="-4.1608230">
        <ele>53.6</ele>
        <time>2021-07-17T13:10:47Z</time>
      </trkpt>
      <trkpt lat="43.3997130" lon="-4.1608390">
        <ele>54.0</ele>
        <time>2021-07-17T13:10:48Z</time>
      </trkpt>
      <trkpt lat="43.3996950" lon="-4.1608540">
        <ele>54.6</ele>
        <time>2021-07-17T13:10:49Z</time>
      </trkpt>
      <trkpt lat="43.3996150" lon="-4.1609400">
        <ele>55.0</ele>
        <time>2021-07-17T13:10:54Z</time>
      </trkpt>
      <trkpt lat="43.3996010" lon="-4.1609640">
        <ele>55.4</ele>
        <time>2021-07-17T13:10:55Z</time>
      </trkpt>
      <trkpt lat="43.3995860" lon="-4.1609770">
        <ele>55.8</ele>
        <time>2021-07-17T13:10:56Z</time>
      </trkpt>
      <trkpt lat="43.3995680" lon="-4.1609970">
        <ele>56.2</ele>
        <time>2021-07-17T13:10:57Z</time>
      </trkpt>
      <trkpt lat="43.3995470" lon="-4.1610170">
        <ele>56.6</ele>
        <time>2021-07-17T13:10:58Z</time>
      </trkpt>
      <trkpt lat="43.3994540" lon="-4.1611020">
        <ele>56.6</ele>
        <time>2021-07-17T13:11:03Z</time>
      </trkpt>
      <trkpt lat="43.3993430" lon="-4.1612060">
        <ele>57.0</ele>
        <time>2021-07-17T13:11:09Z</time>
      </trkpt>
      <trkpt lat="43.3993270" lon="-4.1612240">
        <ele>57.4</ele>
        <time>2021-07-17T13:11:10Z</time>
      </trkpt>
      <trkpt lat="43.3993100" lon="-4.1612430">
        <ele>57.8</ele>
        <time>2021-07-17T13:11:11Z</time>
      </trkpt>
      <trkpt lat="43.3992940" lon="-4.1612600">
        <ele>58.2</ele>
        <time>2021-07-17T13:11:12Z</time>
      </trkpt>
      <trkpt lat="43.3992730" lon="-4.1612790">
        <ele>58.6</ele>
        <time>2021-07-17T13:11:13Z</time>
      </trkpt>
      <trkpt lat="43.3991590" lon="-4.1613980">
        <ele>58.6</ele>
        <time>2021-07-17T13:11:19Z</time>
      </trkpt>
      <trkpt lat="43.3991200" lon="-4.1614310">
        <ele>59.0</ele>
        <time>2021-07-17T13:11:21Z</time>
      </trkpt>
      <trkpt lat="43.3991010" lon="-4.1614450">
        <ele>59.4</ele>
        <time>2021-07-17T13:11:22Z</time>
      </trkpt>
      <trkpt lat="43.3990820" lon="-4.1614620">
        <ele>60.0</ele>
        <time>2021-07-17T13:11:23Z</time>
      </trkpt>
      <trkpt lat="43.3990640" lon="-4.1614800">
        <ele>60.4</ele>
        <time>2021-07-17T13:11:24Z</time>
      </trkpt>
      <trkpt lat="43.3990460" lon="-4.1614960">
        <ele>60.8</ele>
        <time>2021-07-17T13:11:25Z</time>
      </trkpt>
      <trkpt lat="43.3990000" lon="-4.1615280">
        <ele>60.8</ele>
        <time>2021-07-17T13:11:27Z</time>
      </trkpt>
      <trkpt lat="43.3988750" lon="-4.1616560">
        <ele>61.2</ele>
        <time>2021-07-17T13:11:34Z</time>
      </trkpt>
      <trkpt lat="43.3988580" lon="-4.1616730">
        <ele>61.6</ele>
        <time>2021-07-17T13:11:35Z</time>
      </trkpt>
      <trkpt lat="43.3988390" lon="-4.1616930">
        <ele>62.0</ele>
        <time>2021-07-17T13:11:36Z</time>
      </trkpt>
      <trkpt lat="43.3988210" lon="-4.1617130">
        <ele>62.4</ele>
        <time>2021-07-17T13:11:37Z</time>
      </trkpt>
      <trkpt lat="43.3988010" lon="-4.1617320">
        <ele>62.8</ele>
        <time>2021-07-17T13:11:38Z</time>
      </trkpt>
      <trkpt lat="43.3986640" lon="-4.1618590">
        <ele>62.8</ele>
        <time>2021-07-17T13:11:45Z</time>
      </trkpt>
      <trkpt lat="43.3985630" lon="-4.1620050">
        <ele>63.2</ele>
        <time>2021-07-17T13:11:51Z</time>
      </trkpt>
      <trkpt lat="43.3985490" lon="-4.1620310">
        <ele>63.6</ele>
        <time>2021-07-17T13:11:52Z</time>
      </trkpt>
      <trkpt lat="43.3985360" lon="-4.1620550">
        <ele>64.0</ele>
        <time>2021-07-17T13:11:53Z</time>
      </trkpt>
      <trkpt lat="43.3985220" lon="-4.1620800">
        <ele>64.4</ele>
        <time>2021-07-17T13:11:54Z</time>
      </trkpt>
      <trkpt lat="43.3985110" lon="-4.1621070">
        <ele>64.8</ele>
        <time>2021-07-17T13:11:55Z</time>
      </trkpt>
      <trkpt lat="43.3984730" lon="-4.1622290">
        <ele>64.8</ele>
        <time>2021-07-17T13:12:00Z</time>
      </trkpt>
      <trkpt lat="43.3984370" lon="-4.1623350">
        <ele>65.2</ele>
        <time>2021-07-17T13:12:04Z</time>
      </trkpt>
      <trkpt lat="43.3984250" lon="-4.1623640">
        <ele>66.0</ele>
        <time>2021-07-17T13:12:05Z</time>
      </trkpt>
      <trkpt lat="43.3984140" lon="-4.1623960">
        <ele>66.4</ele>
        <time>2021-07-17T13:12:06Z</time>
      </trkpt>
      <trkpt lat="43.3984040" lon="-4.1624270">
        <ele>66.8</ele>
        <time>2021-07-17T13:12:07Z</time>
      </trkpt>
      <trkpt lat="43.3983960" lon="-4.1624570">
        <ele>66.8</ele>
        <time>2021-07-17T13:12:08Z</time>
      </trkpt>
      <trkpt lat="43.3983230" lon="-4.1626640">
        <ele>66.8</ele>
        <time>2021-07-17T13:12:16Z</time>
      </trkpt>
      <trkpt lat="43.3982930" lon="-4.1627680">
        <ele>67.2</ele>
        <time>2021-07-17T13:12:20Z</time>
      </trkpt>
      <trkpt lat="43.3982870" lon="-4.1627930">
        <ele>67.8</ele>
        <time>2021-07-17T13:12:21Z</time>
      </trkpt>
      <trkpt lat="43.3982800" lon="-4.1628210">
        <ele>68.2</ele>
        <time>2021-07-17T13:12:22Z</time>
      </trkpt>
      <trkpt lat="43.3982700" lon="-4.1628500">
        <ele>68.6</ele>
        <time>2021-07-17T13:12:23Z</time>
      </trkpt>
      <trkpt lat="43.3982580" lon="-4.1628750">
        <ele>69.0</ele>
        <time>2021-07-17T13:12:24Z</time>
      </trkpt>
      <trkpt lat="43.3982380" lon="-4.1629220">
        <ele>69.0</ele>
        <time>2021-07-17T13:12:26Z</time>
      </trkpt>
      <trkpt lat="43.3981720" lon="-4.1630980">
        <ele>69.0</ele>
        <time>2021-07-17T13:12:34Z</time>
      </trkpt>
      <trkpt lat="43.3981400" lon="-4.1631780">
        <ele>69.4</ele>
        <time>2021-07-17T13:12:38Z</time>
      </trkpt>
      <trkpt lat="43.3981300" lon="-4.1631970">
        <ele>69.8</ele>
        <time>2021-07-17T13:12:39Z</time>
      </trkpt>
      <trkpt lat="43.3981220" lon="-4.1632170">
        <ele>70.2</ele>
        <time>2021-07-17T13:12:40Z</time>
      </trkpt>
      <trkpt lat="43.3981160" lon="-4.1632380">
        <ele>70.6</ele>
        <time>2021-07-17T13:12:41Z</time>
      </trkpt>
      <trkpt lat="43.3981070" lon="-4.1632600">
        <ele>71.0</ele>
        <time>2021-07-17T13:12:42Z</time>
      </trkpt>
      <trkpt lat="43.3980530" lon="-4.1634080">
        <ele>71.0</ele>
        <time>2021-07-17T13:12:49Z</time>
      </trkpt>
      <trkpt lat="43.3980440" lon="-4.1634440">
        <ele>71.6</ele>
        <time>2021-07-17T13:12:51Z</time>
      </trkpt>
      <trkpt lat="43.3980360" lon="-4.1634630">
        <ele>72.0</ele>
        <time>2021-07-17T13:12:52Z</time>
      </trkpt>
      <trkpt lat="43.3980300" lon="-4.1634830">
        <ele>72.4</ele>
        <time>2021-07-17T13:12:53Z</time>
      </trkpt>
      <trkpt lat="43.3980250" lon="-4.1635010">
        <ele>73.2</ele>
        <time>2021-07-17T13:12:54Z</time>
      </trkpt>
      <trkpt lat="43.3980060" lon="-4.1635690">
        <ele>73.6</ele>
        <time>2021-07-17T13:12:58Z</time>
      </trkpt>
      <trkpt lat="43.3980030" lon="-4.1635870">
        <ele>74.0</ele>
        <time>2021-07-17T13:12:59Z</time>
      </trkpt>
      <trkpt lat="43.3979990" lon="-4.1636050">
        <ele>74.4</ele>
        <time>2021-07-17T13:13:00Z</time>
      </trkpt>
      <trkpt lat="43.3979940" lon="-4.1636250">
        <ele>74.8</ele>
        <time>2021-07-17T13:13:01Z</time>
      </trkpt>
      <trkpt lat="43.3979890" lon="-4.1636460">
        <ele>75.2</ele>
        <time>2021-07-17T13:13:02Z</time>
      </trkpt>
      <trkpt lat="43.3979700" lon="-4.1637240">
        <ele>75.2</ele>
        <time>2021-07-17T13:13:06Z</time>
      </trkpt>
      <trkpt lat="43.3979530" lon="-4.1638170">
        <ele>75.6</ele>
        <time>2021-07-17T13:13:11Z</time>
      </trkpt>
      <trkpt lat="43.3979510" lon="-4.1638370">
        <ele>76.0</ele>
        <time>2021-07-17T13:13:12Z</time>
      </trkpt>
      <trkpt lat="43.3979500" lon="-4.1638570">
        <ele>76.6</ele>
        <time>2021-07-17T13:13:13Z</time>
      </trkpt>
      <trkpt lat="43.3979480" lon="-4.1638790">
        <ele>77.0</ele>
        <time>2021-07-17T13:13:14Z</time>
      </trkpt>
      <trkpt lat="43.3979470" lon="-4.1639010">
        <ele>77.4</ele>
        <time>2021-07-17T13:13:15Z</time>
      </trkpt>
      <trkpt lat="43.3979400" lon="-4.1639620">
        <ele>77.8</ele>
        <time>2021-07-17T13:13:18Z</time>
      </trkpt>
      <trkpt lat="43.3979390" lon="-4.1639830">
        <ele>78.6</ele>
        <time>2021-07-17T13:13:19Z</time>
      </trkpt>
      <trkpt lat="43.3979390" lon="-4.1640020">
        <ele>79.0</ele>
        <time>2021-07-17T13:13:20Z</time>
      </trkpt>
      <trkpt lat="43.3979380" lon="-4.1640220">
        <ele>79.4</ele>
        <time>2021-07-17T13:13:21Z</time>
      </trkpt>
      <trkpt lat="43.3979350" lon="-4.1640410">
        <ele>79.4</ele>
        <time>2021-07-17T13:13:22Z</time>
      </trkpt>
      <trkpt lat="43.3978920" lon="-4.1642170">
        <ele>79.4</ele>
        <time>2021-07-17T13:13:31Z</time>
      </trkpt>
      <trkpt lat="43.3978860" lon="-4.1642370">
        <ele>79.8</ele>
        <time>2021-07-17T13:13:32Z</time>
      </trkpt>
      <trkpt lat="43.3978790" lon="-4.1642550">
        <ele>80.4</ele>
        <time>2021-07-17T13:13:33Z</time>
      </trkpt>
      <trkpt lat="43.3978710" lon="-4.1642730">
        <ele>80.8</ele>
        <time>2021-07-17T13:13:34Z</time>
      </trkpt>
      <trkpt lat="43.3978650" lon="-4.1642910">
        <ele>81.2</ele>
        <time>2021-07-17T13:13:35Z</time>
      </trkpt>
      <trkpt lat="43.3978590" lon="-4.1643090">
        <ele>81.6</ele>
        <time>2021-07-17T13:13:36Z</time>
      </trkpt>
      <trkpt lat="43.3978490" lon="-4.1643680">
        <ele>81.6</ele>
        <time>2021-07-17T13:13:39Z</time>
      </trkpt>
      <trkpt lat="43.3978330" lon="-4.1645570">
        <ele>81.6</ele>
        <time>2021-07-17T13:13:46Z</time>
      </trkpt>
      <trkpt lat="43.3978570" lon="-4.1648250">
        <ele>81.6</ele>
        <time>2021-07-17T13:13:50Z</time>
      </trkpt>
      <trkpt lat="43.3979140" lon="-4.1651270">
        <ele>81.6</ele>
        <time>2021-07-17T13:13:55Z</time>
      </trkpt>
      <trkpt lat="43.3979540" lon="-4.1652870">
        <ele>81.6</ele>
        <time>2021-07-17T13:13:59Z</time>
      </trkpt>
      <trkpt lat="43.3979880" lon="-4.1654550">
        <ele>81.6</ele>
        <time>2021-07-17T13:14:03Z</time>
      </trkpt>
      <trkpt lat="43.3980290" lon="-4.1656230">
        <ele>81.6</ele>
        <time>2021-07-17T13:14:07Z</time>
      </trkpt>
      <trkpt lat="43.3980660" lon="-4.1658070">
        <ele>81.6</ele>
        <time>2021-07-17T13:14:11Z</time>
      </trkpt>
      <trkpt lat="43.3980980" lon="-4.1660330">
        <ele>81.6</ele>
        <time>2021-07-17T13:14:16Z</time>
      </trkpt>
      <trkpt lat="43.3981080" lon="-4.1661200">
        <ele>81.6</ele>
        <time>2021-07-17T13:14:18Z</time>
      </trkpt>
      <trkpt lat="43.3981720" lon="-4.1665790">
        <ele>81.6</ele>
        <time>2021-07-17T13:14:27Z</time>
      </trkpt>
      <trkpt lat="43.3981980" lon="-4.1669620">
        <ele>81.6</ele>
        <time>2021-07-17T13:14:33Z</time>
      </trkpt>
      <trkpt lat="43.3982070" lon="-4.1672430">
        <ele>81.6</ele>
        <time>2021-07-17T13:14:37Z</time>
      </trkpt>
      <trkpt lat="43.3982050" lon="-4.1674050">
        <ele>81.6</ele>
        <time>2021-07-17T13:14:39Z</time>
      </trkpt>
      <trkpt lat="43.3982010" lon="-4.1674740">
        <ele>81.2</ele>
        <time>2021-07-17T13:14:40Z</time>
      </trkpt>
      <trkpt lat="43.3981980" lon="-4.1675450">
        <ele>80.8</ele>
        <time>2021-07-17T13:14:41Z</time>
      </trkpt>
      <trkpt lat="43.3981970" lon="-4.1676250">
        <ele>80.2</ele>
        <time>2021-07-17T13:14:42Z</time>
      </trkpt>
      <trkpt lat="43.3981920" lon="-4.1677090">
        <ele>79.8</ele>
        <time>2021-07-17T13:14:43Z</time>
      </trkpt>
      <trkpt lat="43.3981860" lon="-4.1677970">
        <ele>79.2</ele>
        <time>2021-07-17T13:14:44Z</time>
      </trkpt>
      <trkpt lat="43.3981780" lon="-4.1678910">
        <ele>78.8</ele>
        <time>2021-07-17T13:14:45Z</time>
      </trkpt>
      <trkpt lat="43.3981680" lon="-4.1679890">
        <ele>78.4</ele>
        <time>2021-07-17T13:14:46Z</time>
      </trkpt>
      <trkpt lat="43.3981590" lon="-4.1680930">
        <ele>78.0</ele>
        <time>2021-07-17T13:14:47Z</time>
      </trkpt>
      <trkpt lat="43.3981490" lon="-4.1682010">
        <ele>77.6</ele>
        <time>2021-07-17T13:14:48Z</time>
      </trkpt>
      <trkpt lat="43.3981360" lon="-4.1683180">
        <ele>77.2</ele>
        <time>2021-07-17T13:14:49Z</time>
      </trkpt>
      <trkpt lat="43.3981240" lon="-4.1684330">
        <ele>77.2</ele>
        <time>2021-07-17T13:14:50Z</time>
      </trkpt>
      <trkpt lat="43.3981130" lon="-4.1685520">
        <ele>76.8</ele>
        <time>2021-07-17T13:14:51Z</time>
      </trkpt>
      <trkpt lat="43.3981020" lon="-4.1686720">
        <ele>76.4</ele>
        <time>2021-07-17T13:14:52Z</time>
      </trkpt>
      <trkpt lat="43.3980900" lon="-4.1687960">
        <ele>76.0</ele>
        <time>2021-07-17T13:14:53Z</time>
      </trkpt>
      <trkpt lat="43.3980770" lon="-4.1689230">
        <ele>75.6</ele>
        <time>2021-07-17T13:14:54Z</time>
      </trkpt>
      <trkpt lat="43.3980640" lon="-4.1690510">
        <ele>75.2</ele>
        <time>2021-07-17T13:14:55Z</time>
      </trkpt>
      <trkpt lat="43.3980500" lon="-4.1691880">
        <ele>75.2</ele>
        <time>2021-07-17T13:14:56Z</time>
      </trkpt>
      <trkpt lat="43.3980370" lon="-4.1693190">
        <ele>75.2</ele>
        <time>2021-07-17T13:14:57Z</time>
      </trkpt>
      <trkpt lat="43.3980230" lon="-4.1694520">
        <ele>74.8</ele>
        <time>2021-07-17T13:14:58Z</time>
      </trkpt>
      <trkpt lat="43.3980080" lon="-4.1695870">
        <ele>74.2</ele>
        <time>2021-07-17T13:14:59Z</time>
      </trkpt>
      <trkpt lat="43.3979930" lon="-4.1697190">
        <ele>73.8</ele>
        <time>2021-07-17T13:15:00Z</time>
      </trkpt>
      <trkpt lat="43.3979780" lon="-4.1698540">
        <ele>73.2</ele>
        <time>2021-07-17T13:15:01Z</time>
      </trkpt>
      <trkpt lat="43.3979630" lon="-4.1699950">
        <ele>72.4</ele>
        <time>2021-07-17T13:15:02Z</time>
      </trkpt>
      <trkpt lat="43.3979480" lon="-4.1701280">
        <ele>71.8</ele>
        <time>2021-07-17T13:15:03Z</time>
      </trkpt>
      <trkpt lat="43.3979340" lon="-4.1702590">
        <ele>71.2</ele>
        <time>2021-07-17T13:15:04Z</time>
      </trkpt>
      <trkpt lat="43.3979200" lon="-4.1703870">
        <ele>70.4</ele>
        <time>2021-07-17T13:15:05Z</time>
      </trkpt>
      <trkpt lat="43.3978270" lon="-4.1712080">
        <ele>70.4</ele>
        <time>2021-07-17T13:15:12Z</time>
      </trkpt>
      <trkpt lat="43.3977830" lon="-4.1716810">
        <ele>70.4</ele>
        <time>2021-07-17T13:15:17Z</time>
      </trkpt>
      <trkpt lat="43.3977540" lon="-4.1720240">
        <ele>70.4</ele>
        <time>2021-07-17T13:15:22Z</time>
      </trkpt>
      <trkpt lat="43.3977430" lon="-4.1721380">
        <ele>70.4</ele>
        <time>2021-07-17T13:15:24Z</time>
      </trkpt>
      <trkpt lat="43.3977370" lon="-4.1721960">
        <ele>70.4</ele>
        <time>2021-07-17T13:15:25Z</time>
      </trkpt>
      <trkpt lat="43.3977250" lon="-4.1723090">
        <ele>70.4</ele>
        <time>2021-07-17T13:15:27Z</time>
      </trkpt>
      <trkpt lat="43.3977120" lon="-4.1724180">
        <ele>70.4</ele>
        <time>2021-07-17T13:15:29Z</time>
      </trkpt>
      <trkpt lat="43.3976950" lon="-4.1725760">
        <ele>70.4</ele>
        <time>2021-07-17T13:15:32Z</time>
      </trkpt>
      <trkpt lat="43.3976550" lon="-4.1728840">
        <ele>70.4</ele>
        <time>2021-07-17T13:15:38Z</time>
      </trkpt>
      <trkpt lat="43.3976390" lon="-4.1729760">
        <ele>70.4</ele>
        <time>2021-07-17T13:15:40Z</time>
      </trkpt>
      <trkpt lat="43.3976160" lon="-4.1731110">
        <ele>70.4</ele>
        <time>2021-07-17T13:15:43Z</time>
      </trkpt>
      <trkpt lat="43.3976030" lon="-4.1732020">
        <ele>71.0</ele>
        <time>2021-07-17T13:15:45Z</time>
      </trkpt>
      <trkpt lat="43.3975960" lon="-4.1732460">
        <ele>71.4</ele>
        <time>2021-07-17T13:15:46Z</time>
      </trkpt>
      <trkpt lat="43.3975900" lon="-4.1732890">
        <ele>72.2</ele>
        <time>2021-07-17T13:15:47Z</time>
      </trkpt>
      <trkpt lat="43.3975820" lon="-4.1733310">
        <ele>72.6</ele>
        <time>2021-07-17T13:15:48Z</time>
      </trkpt>
      <trkpt lat="43.3975750" lon="-4.1733750">
        <ele>72.6</ele>
        <time>2021-07-17T13:15:49Z</time>
      </trkpt>
      <trkpt lat="43.3975410" lon="-4.1735040">
        <ele>72.6</ele>
        <time>2021-07-17T13:15:52Z</time>
      </trkpt>
      <trkpt lat="43.3974900" lon="-4.1737290">
        <ele>73.0</ele>
        <time>2021-07-17T13:15:57Z</time>
      </trkpt>
      <trkpt lat="43.3974800" lon="-4.1737730">
        <ele>73.6</ele>
        <time>2021-07-17T13:15:58Z</time>
      </trkpt>
      <trkpt lat="43.3974680" lon="-4.1738160">
        <ele>74.0</ele>
        <time>2021-07-17T13:15:59Z</time>
      </trkpt>
      <trkpt lat="43.3974550" lon="-4.1738600">
        <ele>74.4</ele>
        <time>2021-07-17T13:16:00Z</time>
      </trkpt>
      <trkpt lat="43.3974410" lon="-4.1739010">
        <ele>74.8</ele>
        <time>2021-07-17T13:16:01Z</time>
      </trkpt>
      <trkpt lat="43.3973560" lon="-4.1742010">
        <ele>74.8</ele>
        <time>2021-07-17T13:16:08Z</time>
      </trkpt>
      <trkpt lat="43.3973100" lon="-4.1743330">
        <ele>75.6</ele>
        <time>2021-07-17T13:16:11Z</time>
      </trkpt>
      <trkpt lat="43.3972940" lon="-4.1743750">
        <ele>76.0</ele>
        <time>2021-07-17T13:16:12Z</time>
      </trkpt>
      <trkpt lat="43.3972780" lon="-4.1744180">
        <ele>76.4</ele>
        <time>2021-07-17T13:16:13Z</time>
      </trkpt>
      <trkpt lat="43.3972620" lon="-4.1744620">
        <ele>76.8</ele>
        <time>2021-07-17T13:16:14Z</time>
      </trkpt>
      <trkpt lat="43.3971940" lon="-4.1746470">
        <ele>76.8</ele>
        <time>2021-07-17T13:16:18Z</time>
      </trkpt>
      <trkpt lat="43.3970180" lon="-4.1751010">
        <ele>76.8</ele>
        <time>2021-07-17T13:16:27Z</time>
      </trkpt>
      <trkpt lat="43.3968980" lon="-4.1754170">
        <ele>76.8</ele>
        <time>2021-07-17T13:16:33Z</time>
      </trkpt>
      <trkpt lat="43.3968590" lon="-4.1755160">
        <ele>76.8</ele>
        <time>2021-07-17T13:16:35Z</time>
      </trkpt>
      <trkpt lat="43.3967370" lon="-4.1759300">
        <ele>76.8</ele>
        <time>2021-07-17T13:16:42Z</time>
      </trkpt>
      <trkpt lat="43.3966720" lon="-4.1762540">
        <ele>76.8</ele>
        <time>2021-07-17T13:16:47Z</time>
      </trkpt>
      <trkpt lat="43.3966510" lon="-4.1763770">
        <ele>76.8</ele>
        <time>2021-07-17T13:16:49Z</time>
      </trkpt>
      <trkpt lat="43.3966280" lon="-4.1765520">
        <ele>77.4</ele>
        <time>2021-07-17T13:16:52Z</time>
      </trkpt>
      <trkpt lat="43.3966220" lon="-4.1766090">
        <ele>77.8</ele>
        <time>2021-07-17T13:16:53Z</time>
      </trkpt>
      <trkpt lat="43.3966160" lon="-4.1766640">
        <ele>78.2</ele>
        <time>2021-07-17T13:16:54Z</time>
      </trkpt>
      <trkpt lat="43.3966120" lon="-4.1767230">
        <ele>78.6</ele>
        <time>2021-07-17T13:16:55Z</time>
      </trkpt>
      <trkpt lat="43.3966080" lon="-4.1767790">
        <ele>79.0</ele>
        <time>2021-07-17T13:16:56Z</time>
      </trkpt>
      <trkpt lat="43.3966000" lon="-4.1771480">
        <ele>79.0</ele>
        <time>2021-07-17T13:17:03Z</time>
      </trkpt>
      <trkpt lat="43.3966090" lon="-4.1772930">
        <ele>79.4</ele>
        <time>2021-07-17T13:17:06Z</time>
      </trkpt>
      <trkpt lat="43.3966120" lon="-4.1773410">
        <ele>79.8</ele>
        <time>2021-07-17T13:17:07Z</time>
      </trkpt>
      <trkpt lat="43.3966130" lon="-4.1773870">
        <ele>80.2</ele>
        <time>2021-07-17T13:17:08Z</time>
      </trkpt>
      <trkpt lat="43.3966170" lon="-4.1774350">
        <ele>80.6</ele>
        <time>2021-07-17T13:17:09Z</time>
      </trkpt>
      <trkpt lat="43.3966210" lon="-4.1774810">
        <ele>81.0</ele>
        <time>2021-07-17T13:17:10Z</time>
      </trkpt>
      <trkpt lat="43.3966250" lon="-4.1775250">
        <ele>81.0</ele>
        <time>2021-07-17T13:17:11Z</time>
      </trkpt>
      <trkpt lat="43.3966450" lon="-4.1777100">
        <ele>81.4</ele>
        <time>2021-07-17T13:17:15Z</time>
      </trkpt>
      <trkpt lat="43.3966520" lon="-4.1777600">
        <ele>81.8</ele>
        <time>2021-07-17T13:17:16Z</time>
      </trkpt>
      <trkpt lat="43.3966590" lon="-4.1778090">
        <ele>82.2</ele>
        <time>2021-07-17T13:17:17Z</time>
      </trkpt>
      <trkpt lat="43.3966690" lon="-4.1778580">
        <ele>82.6</ele>
        <time>2021-07-17T13:17:18Z</time>
      </trkpt>
      <trkpt lat="43.3966800" lon="-4.1779030">
        <ele>83.0</ele>
        <time>2021-07-17T13:17:19Z</time>
      </trkpt>
      <trkpt lat="43.3967290" lon="-4.1781260">
        <ele>83.0</ele>
        <time>2021-07-17T13:17:24Z</time>
      </trkpt>
      <trkpt lat="43.3967740" lon="-4.1783010">
        <ele>83.4</ele>
        <time>2021-07-17T13:17:28Z</time>
      </trkpt>
      <trkpt lat="43.3967860" lon="-4.1783450">
        <ele>83.8</ele>
        <time>2021-07-17T13:17:29Z</time>
      </trkpt>
      <trkpt lat="43.3967990" lon="-4.1783880">
        <ele>84.2</ele>
        <time>2021-07-17T13:17:30Z</time>
      </trkpt>
      <trkpt lat="43.3968120" lon="-4.1784300">
        <ele>84.6</ele>
        <time>2021-07-17T13:17:31Z</time>
      </trkpt>
      <trkpt lat="43.3968250" lon="-4.1784760">
        <ele>85.0</ele>
        <time>2021-07-17T13:17:32Z</time>
      </trkpt>
      <trkpt lat="43.3968520" lon="-4.1785630">
        <ele>85.0</ele>
        <time>2021-07-17T13:17:34Z</time>
      </trkpt>
      <trkpt lat="43.3969900" lon="-4.1789150">
        <ele>85.0</ele>
        <time>2021-07-17T13:17:42Z</time>
      </trkpt>
      <trkpt lat="43.3971690" lon="-4.1792840">
        <ele>85.0</ele>
        <time>2021-07-17T13:17:50Z</time>
      </trkpt>
      <trkpt lat="43.3971930" lon="-4.1793340">
        <ele>85.0</ele>
        <time>2021-07-17T13:17:51Z</time>
      </trkpt>
      <trkpt lat="43.3973320" lon="-4.1796200">
        <ele>85.0</ele>
        <time>2021-07-17T13:17:56Z</time>
      </trkpt>
      <trkpt lat="43.3974300" lon="-4.1798140">
        <ele>85.0</ele>
        <time>2021-07-17T13:17:59Z</time>
      </trkpt>
      <trkpt lat="43.3974960" lon="-4.1799570">
        <ele>85.0</ele>
        <time>2021-07-17T13:18:01Z</time>
      </trkpt>
      <trkpt lat="43.3975610" lon="-4.1801040">
        <ele>85.0</ele>
        <time>2021-07-17T13:18:03Z</time>
      </trkpt>
      <trkpt lat="43.3976120" lon="-4.1802460">
        <ele>84.6</ele>
        <time>2021-07-17T13:18:05Z</time>
      </trkpt>
      <trkpt lat="43.3976350" lon="-4.1803170">
        <ele>84.2</ele>
        <time>2021-07-17T13:18:06Z</time>
      </trkpt>
      <trkpt lat="43.3976590" lon="-4.1803930">
        <ele>83.8</ele>
        <time>2021-07-17T13:18:07Z</time>
      </trkpt>
      <trkpt lat="43.3976820" lon="-4.1804710">
        <ele>83.4</ele>
        <time>2021-07-17T13:18:08Z</time>
      </trkpt>
      <trkpt lat="43.3977070" lon="-4.1805570">
        <ele>83.0</ele>
        <time>2021-07-17T13:18:09Z</time>
      </trkpt>
      <trkpt lat="43.3977770" lon="-4.1808230">
        <ele>83.0</ele>
        <time>2021-07-17T13:18:12Z</time>
      </trkpt>
      <trkpt lat="43.3978150" lon="-4.1810190">
        <ele>82.0</ele>
        <time>2021-07-17T13:18:14Z</time>
      </trkpt>
      <trkpt lat="43.3978310" lon="-4.1811220">
        <ele>81.6</ele>
        <time>2021-07-17T13:18:15Z</time>
      </trkpt>
      <trkpt lat="43.3978430" lon="-4.1812280">
        <ele>81.0</ele>
        <time>2021-07-17T13:18:16Z</time>
      </trkpt>
      <trkpt lat="43.3978520" lon="-4.1813430">
        <ele>80.6</ele>
        <time>2021-07-17T13:18:17Z</time>
      </trkpt>
      <trkpt lat="43.3978640" lon="-4.1816770">
        <ele>80.6</ele>
        <time>2021-07-17T13:18:20Z</time>
      </trkpt>
      <trkpt lat="43.3978610" lon="-4.1817850">
        <ele>80.6</ele>
        <time>2021-07-17T13:18:21Z</time>
      </trkpt>
      <trkpt lat="43.3978550" lon="-4.1818940">
        <ele>80.0</ele>
        <time>2021-07-17T13:18:22Z</time>
      </trkpt>
      <trkpt lat="43.3978480" lon="-4.1820000">
        <ele>79.6</ele>
        <time>2021-07-17T13:18:23Z</time>
      </trkpt>
      <trkpt lat="43.3978400" lon="-4.1821050">
        <ele>79.0</ele>
        <time>2021-07-17T13:18:24Z</time>
      </trkpt>
      <trkpt lat="43.3978300" lon="-4.1821960">
        <ele>78.6</ele>
        <time>2021-07-17T13:18:25Z</time>
      </trkpt>
      <trkpt lat="43.3978180" lon="-4.1822790">
        <ele>78.0</ele>
        <time>2021-07-17T13:18:26Z</time>
      </trkpt>
      <trkpt lat="43.3978070" lon="-4.1823530">
        <ele>77.4</ele>
        <time>2021-07-17T13:18:27Z</time>
      </trkpt>
      <trkpt lat="43.3977950" lon="-4.1824210">
        <ele>76.8</ele>
        <time>2021-07-17T13:18:28Z</time>
      </trkpt>
      <trkpt lat="43.3977830" lon="-4.1824830">
        <ele>76.2</ele>
        <time>2021-07-17T13:18:29Z</time>
      </trkpt>
      <trkpt lat="43.3977700" lon="-4.1825400">
        <ele>75.6</ele>
        <time>2021-07-17T13:18:30Z</time>
      </trkpt>
      <trkpt lat="43.3977560" lon="-4.1825950">
        <ele>75.0</ele>
        <time>2021-07-17T13:18:31Z</time>
      </trkpt>
      <trkpt lat="43.3977440" lon="-4.1826450">
        <ele>74.2</ele>
        <time>2021-07-17T13:18:32Z</time>
      </trkpt>
      <trkpt lat="43.3977330" lon="-4.1826900">
        <ele>73.6</ele>
        <time>2021-07-17T13:18:33Z</time>
      </trkpt>
      <trkpt lat="43.3977260" lon="-4.1827290">
        <ele>73.2</ele>
        <time>2021-07-17T13:18:34Z</time>
      </trkpt>
      <trkpt lat="43.3977230" lon="-4.1827640">
        <ele>72.8</ele>
        <time>2021-07-17T13:18:35Z</time>
      </trkpt>
      <trkpt lat="43.3977190" lon="-4.1827940">
        <ele>72.4</ele>
        <time>2021-07-17T13:18:36Z</time>
      </trkpt>
      <trkpt lat="43.3977140" lon="-4.1828140">
        <ele>72.0</ele>
        <time>2021-07-17T13:18:37Z</time>
      </trkpt>
      <trkpt lat="43.3977120" lon="-4.1828200">
        <ele>71.6</ele>
        <time>2021-07-17T13:18:38Z</time>
      </trkpt>
      <trkpt lat="43.3976940" lon="-4.1827860">
        <ele>74.8</ele>
        <time>2021-07-17T13:22:27Z</time>
      </trkpt>
      <trkpt lat="43.3976830" lon="-4.1827680">
        <ele>74.4</ele>
        <time>2021-07-17T13:22:28Z</time>
      </trkpt>
      <trkpt lat="43.3976730" lon="-4.1827460">
        <ele>74.0</ele>
        <time>2021-07-17T13:22:29Z</time>
      </trkpt>
      <trkpt lat="43.3976660" lon="-4.1827190">
        <ele>73.6</ele>
        <time>2021-07-17T13:22:30Z</time>
      </trkpt>
      <trkpt lat="43.3976610" lon="-4.1826830">
        <ele>73.2</ele>
        <time>2021-07-17T13:22:31Z</time>
      </trkpt>
      <trkpt lat="43.3976620" lon="-4.1826450">
        <ele>72.8</ele>
        <time>2021-07-17T13:22:32Z</time>
      </trkpt>
      <trkpt lat="43.3976700" lon="-4.1826070">
        <ele>72.8</ele>
        <time>2021-07-17T13:22:33Z</time>
      </trkpt>
      <trkpt lat="43.3976770" lon="-4.1825670">
        <ele>72.8</ele>
        <time>2021-07-17T13:22:34Z</time>
      </trkpt>
      <trkpt lat="43.3976920" lon="-4.1824880">
        <ele>72.8</ele>
        <time>2021-07-17T13:22:36Z</time>
      </trkpt>
      <trkpt lat="43.3977150" lon="-4.1823690">
        <ele>72.8</ele>
        <time>2021-07-17T13:22:39Z</time>
      </trkpt>
      <trkpt lat="43.3977380" lon="-4.1822520">
        <ele>72.8</ele>
        <time>2021-07-17T13:22:42Z</time>
      </trkpt>
      <trkpt lat="43.3977480" lon="-4.1821760">
        <ele>72.8</ele>
        <time>2021-07-17T13:22:44Z</time>
      </trkpt>
      <trkpt lat="43.3977690" lon="-4.1819750">
        <ele>73.2</ele>
        <time>2021-07-17T13:22:49Z</time>
      </trkpt>
      <trkpt lat="43.3977730" lon="-4.1819360">
        <ele>73.6</ele>
        <time>2021-07-17T13:22:50Z</time>
      </trkpt>
      <trkpt lat="43.3977750" lon="-4.1818980">
        <ele>74.0</ele>
        <time>2021-07-17T13:22:51Z</time>
      </trkpt>
      <trkpt lat="43.3977760" lon="-4.1818590">
        <ele>74.4</ele>
        <time>2021-07-17T13:22:52Z</time>
      </trkpt>
      <trkpt lat="43.3977780" lon="-4.1818180">
        <ele>74.8</ele>
        <time>2021-07-17T13:22:53Z</time>
      </trkpt>
      <trkpt lat="43.3977800" lon="-4.1817380">
        <ele>75.2</ele>
        <time>2021-07-17T13:22:55Z</time>
      </trkpt>
      <trkpt lat="43.3977820" lon="-4.1816980">
        <ele>75.6</ele>
        <time>2021-07-17T13:22:56Z</time>
      </trkpt>
      <trkpt lat="43.3977820" lon="-4.1816590">
        <ele>76.0</ele>
        <time>2021-07-17T13:22:57Z</time>
      </trkpt>
      <trkpt lat="43.3977820" lon="-4.1816190">
        <ele>76.4</ele>
        <time>2021-07-17T13:22:58Z</time>
      </trkpt>
      <trkpt lat="43.3977830" lon="-4.1815790">
        <ele>77.0</ele>
        <time>2021-07-17T13:22:59Z</time>
      </trkpt>
      <trkpt lat="43.3977770" lon="-4.1814570">
        <ele>77.0</ele>
        <time>2021-07-17T13:23:02Z</time>
      </trkpt>
      <trkpt lat="43.3977650" lon="-4.1812950">
        <ele>77.0</ele>
        <time>2021-07-17T13:23:06Z</time>
      </trkpt>
      <trkpt lat="43.3977510" lon="-4.1811370">
        <ele>77.0</ele>
        <time>2021-07-17T13:23:10Z</time>
      </trkpt>
      <trkpt lat="43.3977420" lon="-4.1810610">
        <ele>77.0</ele>
        <time>2021-07-17T13:23:12Z</time>
      </trkpt>
      <trkpt lat="43.3977030" lon="-4.1808350">
        <ele>77.0</ele>
        <time>2021-07-17T13:23:18Z</time>
      </trkpt>
      <trkpt lat="43.3976810" lon="-4.1807160">
        <ele>77.0</ele>
        <time>2021-07-17T13:23:21Z</time>
      </trkpt>
      <trkpt lat="43.3976610" lon="-4.1806430">
        <ele>77.4</ele>
        <time>2021-07-17T13:23:23Z</time>
      </trkpt>
      <trkpt lat="43.3976510" lon="-4.1806040">
        <ele>77.8</ele>
        <time>2021-07-17T13:23:24Z</time>
      </trkpt>
      <trkpt lat="43.3976410" lon="-4.1805700">
        <ele>78.2</ele>
        <time>2021-07-17T13:23:25Z</time>
      </trkpt>
      <trkpt lat="43.3976300" lon="-4.1805350">
        <ele>78.6</ele>
        <time>2021-07-17T13:23:26Z</time>
      </trkpt>
      <trkpt lat="43.3976180" lon="-4.1805000">
        <ele>79.0</ele>
        <time>2021-07-17T13:23:27Z</time>
      </trkpt>
      <trkpt lat="43.3975760" lon="-4.1803650">
        <ele>79.0</ele>
        <time>2021-07-17T13:23:31Z</time>
      </trkpt>
      <trkpt lat="43.3975630" lon="-4.1803330">
        <ele>79.4</ele>
        <time>2021-07-17T13:23:32Z</time>
      </trkpt>
      <trkpt lat="43.3975520" lon="-4.1803030">
        <ele>79.8</ele>
        <time>2021-07-17T13:23:33Z</time>
      </trkpt>
      <trkpt lat="43.3975420" lon="-4.1802730">
        <ele>80.2</ele>
        <time>2021-07-17T13:23:34Z</time>
      </trkpt>
      <trkpt lat="43.3975300" lon="-4.1802460">
        <ele>80.6</ele>
        <time>2021-07-17T13:23:35Z</time>
      </trkpt>
      <trkpt lat="43.3975170" lon="-4.1802210">
        <ele>81.0</ele>
        <time>2021-07-17T13:23:36Z</time>
      </trkpt>
      <trkpt lat="43.3975000" lon="-4.1801880">
        <ele>81.0</ele>
        <time>2021-07-17T13:23:38Z</time>
      </trkpt>
      <trkpt lat="43.3974990" lon="-4.1801720">
        <ele>81.0</ele>
        <time>2021-07-17T13:23:40Z</time>
      </trkpt>
      <trkpt lat="43.3975340" lon="-4.1801540">
        <ele>81.0</ele>
        <time>2021-07-17T13:23:44Z</time>
      </trkpt>
      <trkpt lat="43.3975530" lon="-4.1801500">
        <ele>81.0</ele>
        <time>2021-07-17T13:23:45Z</time>
      </trkpt>
      <trkpt lat="43.3976110" lon="-4.1801490">
        <ele>81.0</ele>
        <time>2021-07-17T13:23:48Z</time>
      </trkpt>
      <trkpt lat="43.3977150" lon="-4.1801340">
        <ele>81.6</ele>
        <time>2021-07-17T13:23:53Z</time>
      </trkpt>
      <trkpt lat="43.3977390" lon="-4.1801260">
        <ele>82.0</ele>
        <time>2021-07-17T13:23:54Z</time>
      </trkpt>
      <trkpt lat="43.3977630" lon="-4.1801210">
        <ele>82.4</ele>
        <time>2021-07-17T13:23:55Z</time>
      </trkpt>
      <trkpt lat="43.3977880" lon="-4.1801160">
        <ele>82.8</ele>
        <time>2021-07-17T13:23:56Z</time>
      </trkpt>
      <trkpt lat="43.3978140" lon="-4.1801070">
        <ele>83.2</ele>
        <time>2021-07-17T13:23:57Z</time>
      </trkpt>
      <trkpt lat="43.3978760" lon="-4.1800830">
        <ele>83.2</ele>
        <time>2021-07-17T13:23:59Z</time>
      </trkpt>
      <trkpt lat="43.3981160" lon="-4.1800170">
        <ele>83.2</ele>
        <time>2021-07-17T13:24:05Z</time>
      </trkpt>
      <trkpt lat="43.3981620" lon="-4.1800130">
        <ele>82.8</ele>
        <time>2021-07-17T13:24:06Z</time>
      </trkpt>
      <trkpt lat="43.3982100" lon="-4.1800170">
        <ele>82.2</ele>
        <time>2021-07-17T13:24:07Z</time>
      </trkpt>
      <trkpt lat="43.3982560" lon="-4.1800270">
        <ele>81.8</ele>
        <time>2021-07-17T13:24:08Z</time>
      </trkpt>
      <trkpt lat="43.3983020" lon="-4.1800430">
        <ele>81.2</ele>
        <time>2021-07-17T13:24:09Z</time>
      </trkpt>
      <trkpt lat="43.3983450" lon="-4.1800680">
        <ele>80.8</ele>
        <time>2021-07-17T13:24:10Z</time>
      </trkpt>
      <trkpt lat="43.3984640" lon="-4.1801910">
        <ele>80.4</ele>
        <time>2021-07-17T13:24:13Z</time>
      </trkpt>
      <trkpt lat="43.3984990" lon="-4.1802400">
        <ele>80.0</ele>
        <time>2021-07-17T13:24:14Z</time>
      </trkpt>
      <trkpt lat="43.3985330" lon="-4.1802950">
        <ele>79.4</ele>
        <time>2021-07-17T13:24:15Z</time>
      </trkpt>
      <trkpt lat="43.3985650" lon="-4.1803570">
        <ele>79.0</ele>
        <time>2021-07-17T13:24:16Z</time>
      </trkpt>
      <trkpt lat="43.3985970" lon="-4.1804200">
        <ele>78.6</ele>
        <time>2021-07-17T13:24:17Z</time>
      </trkpt>
      <trkpt lat="43.3986590" lon="-4.1805490">
        <ele>78.6</ele>
        <time>2021-07-17T13:24:19Z</time>
      </trkpt>
      <trkpt lat="43.3986880" lon="-4.1806090">
        <ele>78.0</ele>
        <time>2021-07-17T13:24:20Z</time>
      </trkpt>
      <trkpt lat="43.3987160" lon="-4.1806630">
        <ele>77.6</ele>
        <time>2021-07-17T13:24:21Z</time>
      </trkpt>
      <trkpt lat="43.3987440" lon="-4.1807090">
        <ele>77.2</ele>
        <time>2021-07-17T13:24:22Z</time>
      </trkpt>
      <trkpt lat="43.3987740" lon="-4.1807520">
        <ele>76.6</ele>
        <time>2021-07-17T13:24:23Z</time>
      </trkpt>
      <trkpt lat="43.3988020" lon="-4.1807840">
        <ele>76.2</ele>
        <time>2021-07-17T13:24:24Z</time>
      </trkpt>
      <trkpt lat="43.3988290" lon="-4.1808130">
        <ele>76.2</ele>
        <time>2021-07-17T13:24:25Z</time>
      </trkpt>
      <trkpt lat="43.3989320" lon="-4.1809110">
        <ele>76.2</ele>
        <time>2021-07-17T13:24:29Z</time>
      </trkpt>
      <trkpt lat="43.3989750" lon="-4.1809590">
        <ele>76.2</ele>
        <time>2021-07-17T13:24:31Z</time>
      </trkpt>
      <trkpt lat="43.3991040" lon="-4.1811410">
        <ele>76.2</ele>
        <time>2021-07-17T13:24:37Z</time>
      </trkpt>
      <trkpt lat="43.3991350" lon="-4.1811770">
        <ele>76.6</ele>
        <time>2021-07-17T13:24:38Z</time>
      </trkpt>
      <trkpt lat="43.3991720" lon="-4.1811980">
        <ele>77.0</ele>
        <time>2021-07-17T13:24:39Z</time>
      </trkpt>
      <trkpt lat="43.3992160" lon="-4.1812020">
        <ele>77.4</ele>
        <time>2021-07-17T13:24:40Z</time>
      </trkpt>
      <trkpt lat="43.3992570" lon="-4.1811870">
        <ele>77.8</ele>
        <time>2021-07-17T13:24:41Z</time>
      </trkpt>
      <trkpt lat="43.3992890" lon="-4.1811620">
        <ele>78.4</ele>
        <time>2021-07-17T13:24:42Z</time>
      </trkpt>
      <trkpt lat="43.3993440" lon="-4.1811000">
        <ele>78.4</ele>
        <time>2021-07-17T13:24:44Z</time>
      </trkpt>
      <trkpt lat="43.3993730" lon="-4.1810700">
        <ele>78.4</ele>
        <time>2021-07-17T13:24:45Z</time>
      </trkpt>
      <trkpt lat="43.3995240" lon="-4.1808990">
        <ele>78.4</ele>
        <time>2021-07-17T13:24:51Z</time>
      </trkpt>
      <trkpt lat="43.3996130" lon="-4.1807770">
        <ele>78.4</ele>
        <time>2021-07-17T13:24:55Z</time>
      </trkpt>
      <trkpt lat="43.3996810" lon="-4.1806570">
        <ele>78.4</ele>
        <time>2021-07-17T13:24:59Z</time>
      </trkpt>
      <trkpt lat="43.3998060" lon="-4.1806110">
        <ele>78.4</ele>
        <time>2021-07-17T13:25:04Z</time>
      </trkpt>
      <trkpt lat="43.3999100" lon="-4.1807020">
        <ele>78.4</ele>
        <time>2021-07-17T13:25:08Z</time>
      </trkpt>
      <trkpt lat="43.3999330" lon="-4.1807250">
        <ele>78.4</ele>
        <time>2021-07-17T13:25:09Z</time>
      </trkpt>
      <trkpt lat="43.4000660" lon="-4.1807820">
        <ele>78.4</ele>
        <time>2021-07-17T13:25:14Z</time>
      </trkpt>
      <trkpt lat="43.4002510" lon="-4.1807280">
        <ele>78.4</ele>
        <time>2021-07-17T13:25:19Z</time>
      </trkpt>
      <trkpt lat="43.4004160" lon="-4.1808300">
        <ele>78.4</ele>
        <time>2021-07-17T13:25:23Z</time>
      </trkpt>
      <trkpt lat="43.4004570" lon="-4.1808670">
        <ele>78.4</ele>
        <time>2021-07-17T13:25:24Z</time>
      </trkpt>
      <trkpt lat="43.4004980" lon="-4.1808960">
        <ele>78.4</ele>
        <time>2021-07-17T13:25:25Z</time>
      </trkpt>
      <trkpt lat="43.4005790" lon="-4.1809220">
        <ele>78.4</ele>
        <time>2021-07-17T13:25:27Z</time>
      </trkpt>
      <trkpt lat="43.4006130" lon="-4.1809140">
        <ele>78.0</ele>
        <time>2021-07-17T13:25:28Z</time>
      </trkpt>
      <trkpt lat="43.4006450" lon="-4.1808950">
        <ele>77.6</ele>
        <time>2021-07-17T13:25:29Z</time>
      </trkpt>
      <trkpt lat="43.4006740" lon="-4.1808620">
        <ele>77.2</ele>
        <time>2021-07-17T13:25:30Z</time>
      </trkpt>
      <trkpt lat="43.4007020" lon="-4.1808110">
        <ele>76.8</ele>
        <time>2021-07-17T13:25:31Z</time>
      </trkpt>
      <trkpt lat="43.4007270" lon="-4.1807510">
        <ele>76.4</ele>
        <time>2021-07-17T13:25:32Z</time>
      </trkpt>
      <trkpt lat="43.4007710" lon="-4.1806180">
        <ele>75.8</ele>
        <time>2021-07-17T13:25:34Z</time>
      </trkpt>
      <trkpt lat="43.4007940" lon="-4.1805530">
        <ele>75.4</ele>
        <time>2021-07-17T13:25:35Z</time>
      </trkpt>
      <trkpt lat="43.4008220" lon="-4.1804950">
        <ele>75.0</ele>
        <time>2021-07-17T13:25:36Z</time>
      </trkpt>
      <trkpt lat="43.4008530" lon="-4.1804450">
        <ele>74.6</ele>
        <time>2021-07-17T13:25:37Z</time>
      </trkpt>
      <trkpt lat="43.4008880" lon="-4.1804010">
        <ele>74.2</ele>
        <time>2021-07-17T13:25:38Z</time>
      </trkpt>
      <trkpt lat="43.4009260" lon="-4.1803630">
        <ele>73.2</ele>
        <time>2021-07-17T13:25:39Z</time>
      </trkpt>
      <trkpt lat="43.4009710" lon="-4.1803350">
        <ele>72.6</ele>
        <time>2021-07-17T13:25:40Z</time>
      </trkpt>
      <trkpt lat="43.4010210" lon="-4.1803150">
        <ele>72.2</ele>
        <time>2021-07-17T13:25:41Z</time>
      </trkpt>
      <trkpt lat="43.4010740" lon="-4.1803100">
        <ele>71.6</ele>
        <time>2021-07-17T13:25:42Z</time>
      </trkpt>
      <trkpt lat="43.4011270" lon="-4.1803120">
        <ele>71.2</ele>
        <time>2021-07-17T13:25:43Z</time>
      </trkpt>
      <trkpt lat="43.4011810" lon="-4.1803110">
        <ele>70.8</ele>
        <time>2021-07-17T13:25:44Z</time>
      </trkpt>
      <trkpt lat="43.4012370" lon="-4.1803040">
        <ele>70.4</ele>
        <time>2021-07-17T13:25:45Z</time>
      </trkpt>
      <trkpt lat="43.4012930" lon="-4.1802900">
        <ele>70.0</ele>
        <time>2021-07-17T13:25:46Z</time>
      </trkpt>
      <trkpt lat="43.4014870" lon="-4.1801860">
        <ele>70.0</ele>
        <time>2021-07-17T13:25:50Z</time>
      </trkpt>
      <trkpt lat="43.4015310" lon="-4.1801490">
        <ele>70.0</ele>
        <time>2021-07-17T13:25:51Z</time>
      </trkpt>
      <trkpt lat="43.4017410" lon="-4.1799920">
        <ele>70.0</ele>
        <time>2021-07-17T13:25:56Z</time>
      </trkpt>
      <trkpt lat="43.4017830" lon="-4.1799880">
        <ele>70.0</ele>
        <time>2021-07-17T13:25:57Z</time>
      </trkpt>
      <trkpt lat="43.4018680" lon="-4.1800300">
        <ele>69.4</ele>
        <time>2021-07-17T13:25:59Z</time>
      </trkpt>
      <trkpt lat="43.4019030" lon="-4.1800660">
        <ele>68.8</ele>
        <time>2021-07-17T13:26:00Z</time>
      </trkpt>
      <trkpt lat="43.4019320" lon="-4.1801020">
        <ele>68.4</ele>
        <time>2021-07-17T13:26:01Z</time>
      </trkpt>
      <trkpt lat="43.4019570" lon="-4.1801350">
        <ele>67.8</ele>
        <time>2021-07-17T13:26:02Z</time>
      </trkpt>
      <trkpt lat="43.4019800" lon="-4.1801690">
        <ele>67.2</ele>
        <time>2021-07-17T13:26:03Z</time>
      </trkpt>
      <trkpt lat="43.4020150" lon="-4.1802290">
        <ele>67.2</ele>
        <time>2021-07-17T13:26:05Z</time>
      </trkpt>
      <trkpt lat="43.4020290" lon="-4.1802580">
        <ele>67.2</ele>
        <time>2021-07-17T13:26:06Z</time>
      </trkpt>
      <trkpt lat="43.4020420" lon="-4.1802880">
        <ele>67.2</ele>
        <time>2021-07-17T13:26:07Z</time>
      </trkpt>
      <trkpt lat="43.4020540" lon="-4.1803180">
        <ele>67.2</ele>
        <time>2021-07-17T13:26:08Z</time>
      </trkpt>
      <trkpt lat="43.4020690" lon="-4.1803420">
        <ele>67.2</ele>
        <time>2021-07-17T13:26:09Z</time>
      </trkpt>
      <trkpt lat="43.4020930" lon="-4.1803870">
        <ele>67.2</ele>
        <time>2021-07-17T13:26:11Z</time>
      </trkpt>
      <trkpt lat="43.4021160" lon="-4.1804370">
        <ele>67.2</ele>
        <time>2021-07-17T13:26:13Z</time>
      </trkpt>
      <trkpt lat="43.4021440" lon="-4.1804770">
        <ele>67.6</ele>
        <time>2021-07-17T13:26:15Z</time>
      </trkpt>
      <trkpt lat="43.4021580" lon="-4.1804970">
        <ele>68.0</ele>
        <time>2021-07-17T13:26:16Z</time>
      </trkpt>
      <trkpt lat="43.4021690" lon="-4.1805220">
        <ele>68.4</ele>
        <time>2021-07-17T13:26:17Z</time>
      </trkpt>
      <trkpt lat="43.4021770" lon="-4.1805490">
        <ele>68.8</ele>
        <time>2021-07-17T13:26:18Z</time>
      </trkpt>
      <trkpt lat="43.4021850" lon="-4.1805770">
        <ele>69.4</ele>
        <time>2021-07-17T13:26:19Z</time>
      </trkpt>
      <trkpt lat="43.4021910" lon="-4.1806060">
        <ele>70.0</ele>
        <time>2021-07-17T13:26:20Z</time>
      </trkpt>
      <trkpt lat="43.4021970" lon="-4.1806320">
        <ele>70.4</ele>
        <time>2021-07-17T13:26:21Z</time>
      </trkpt>
      <trkpt lat="43.4022060" lon="-4.1806580">
        <ele>71.0</ele>
        <time>2021-07-17T13:26:22Z</time>
      </trkpt>
      <trkpt lat="43.4022170" lon="-4.1806810">
        <ele>71.6</ele>
        <time>2021-07-17T13:26:23Z</time>
      </trkpt>
      <trkpt lat="43.4022400" lon="-4.1807600">
        <ele>72.0</ele>
        <time>2021-07-17T13:26:26Z</time>
      </trkpt>
      <trkpt lat="43.4022450" lon="-4.1807880">
        <ele>72.6</ele>
        <time>2021-07-17T13:26:27Z</time>
      </trkpt>
      <trkpt lat="43.4022510" lon="-4.1808130">
        <ele>73.0</ele>
        <time>2021-07-17T13:26:28Z</time>
      </trkpt>
      <trkpt lat="43.4022560" lon="-4.1808380">
        <ele>74.0</ele>
        <time>2021-07-17T13:26:29Z</time>
      </trkpt>
      <trkpt lat="43.4022600" lon="-4.1808670">
        <ele>74.4</ele>
        <time>2021-07-17T13:26:30Z</time>
      </trkpt>
      <trkpt lat="43.4022590" lon="-4.1808950">
        <ele>75.0</ele>
        <time>2021-07-17T13:26:31Z</time>
      </trkpt>
      <trkpt lat="43.4022590" lon="-4.1809230">
        <ele>75.4</ele>
        <time>2021-07-17T13:26:32Z</time>
      </trkpt>
      <trkpt lat="43.4022610" lon="-4.1809470">
        <ele>76.0</ele>
        <time>2021-07-17T13:26:33Z</time>
      </trkpt>
      <trkpt lat="43.4022720" lon="-4.1810800">
        <ele>76.0</ele>
        <time>2021-07-17T13:26:38Z</time>
      </trkpt>
      <trkpt lat="43.4022690" lon="-4.1811050">
        <ele>76.4</ele>
        <time>2021-07-17T13:26:39Z</time>
      </trkpt>
      <trkpt lat="43.4022690" lon="-4.1811320">
        <ele>76.8</ele>
        <time>2021-07-17T13:26:40Z</time>
      </trkpt>
      <trkpt lat="43.4022680" lon="-4.1811600">
        <ele>77.4</ele>
        <time>2021-07-17T13:26:41Z</time>
      </trkpt>
      <trkpt lat="43.4022670" lon="-4.1811910">
        <ele>77.8</ele>
        <time>2021-07-17T13:26:42Z</time>
      </trkpt>
      <trkpt lat="43.4022670" lon="-4.1812210">
        <ele>78.2</ele>
        <time>2021-07-17T13:26:43Z</time>
      </trkpt>
      <trkpt lat="43.4022490" lon="-4.1813670">
        <ele>78.2</ele>
        <time>2021-07-17T13:26:49Z</time>
      </trkpt>
      <trkpt lat="43.4022120" lon="-4.1816030">
        <ele>78.2</ele>
        <time>2021-07-17T13:26:57Z</time>
      </trkpt>
      <trkpt lat="43.4022030" lon="-4.1816690">
        <ele>78.6</ele>
        <time>2021-07-17T13:26:59Z</time>
      </trkpt>
      <trkpt lat="43.4021960" lon="-4.1817000">
        <ele>79.0</ele>
        <time>2021-07-17T13:27:00Z</time>
      </trkpt>
      <trkpt lat="43.4021870" lon="-4.1817280">
        <ele>79.4</ele>
        <time>2021-07-17T13:27:01Z</time>
      </trkpt>
      <trkpt lat="43.4021790" lon="-4.1817550">
        <ele>79.8</ele>
        <time>2021-07-17T13:27:02Z</time>
      </trkpt>
      <trkpt lat="43.4021730" lon="-4.1817850">
        <ele>80.2</ele>
        <time>2021-07-17T13:27:03Z</time>
      </trkpt>
      <trkpt lat="43.4021690" lon="-4.1818110">
        <ele>80.2</ele>
        <time>2021-07-17T13:27:04Z</time>
      </trkpt>
      <trkpt lat="43.4021590" lon="-4.1818660">
        <ele>80.6</ele>
        <time>2021-07-17T13:27:06Z</time>
      </trkpt>
      <trkpt lat="43.4021490" lon="-4.1818920">
        <ele>81.0</ele>
        <time>2021-07-17T13:27:07Z</time>
      </trkpt>
      <trkpt lat="43.4021430" lon="-4.1819220">
        <ele>81.6</ele>
        <time>2021-07-17T13:27:08Z</time>
      </trkpt>
      <trkpt lat="43.4021340" lon="-4.1819510">
        <ele>82.0</ele>
        <time>2021-07-17T13:27:09Z</time>
      </trkpt>
      <trkpt lat="43.4021260" lon="-4.1819820">
        <ele>82.4</ele>
        <time>2021-07-17T13:27:10Z</time>
      </trkpt>
      <trkpt lat="43.4021120" lon="-4.1820450">
        <ele>82.4</ele>
        <time>2021-07-17T13:27:12Z</time>
      </trkpt>
      <trkpt lat="43.4020320" lon="-4.1822890">
        <ele>82.4</ele>
        <time>2021-07-17T13:27:20Z</time>
      </trkpt>
      <trkpt lat="43.4019680" lon="-4.1824460">
        <ele>82.4</ele>
        <time>2021-07-17T13:27:25Z</time>
      </trkpt>
      <trkpt lat="43.4018970" lon="-4.1826260">
        <ele>82.4</ele>
        <time>2021-07-17T13:27:30Z</time>
      </trkpt>
      <trkpt lat="43.4018390" lon="-4.1827440">
        <ele>82.4</ele>
        <time>2021-07-17T13:27:33Z</time>
      </trkpt>
      <trkpt lat="43.4017910" lon="-4.1828140">
        <ele>82.4</ele>
        <time>2021-07-17T13:27:35Z</time>
      </trkpt>
      <trkpt lat="43.4017430" lon="-4.1828880">
        <ele>82.4</ele>
        <time>2021-07-17T13:27:37Z</time>
      </trkpt>
      <trkpt lat="43.4016980" lon="-4.1829640">
        <ele>82.4</ele>
        <time>2021-07-17T13:27:39Z</time>
      </trkpt>
      <trkpt lat="43.4016450" lon="-4.1830440">
        <ele>82.4</ele>
        <time>2021-07-17T13:27:41Z</time>
      </trkpt>
      <trkpt lat="43.4015530" lon="-4.1831700">
        <ele>81.6</ele>
        <time>2021-07-17T13:27:44Z</time>
      </trkpt>
      <trkpt lat="43.4015230" lon="-4.1832080">
        <ele>81.2</ele>
        <time>2021-07-17T13:27:45Z</time>
      </trkpt>
      <trkpt lat="43.4014970" lon="-4.1832430">
        <ele>80.6</ele>
        <time>2021-07-17T13:27:46Z</time>
      </trkpt>
      <trkpt lat="43.4014720" lon="-4.1832800">
        <ele>80.2</ele>
        <time>2021-07-17T13:27:47Z</time>
      </trkpt>
      <trkpt lat="43.4014210" lon="-4.1833520">
        <ele>80.2</ele>
        <time>2021-07-17T13:27:49Z</time>
      </trkpt>
      <trkpt lat="43.4013710" lon="-4.1834300">
        <ele>80.2</ele>
        <time>2021-07-17T13:27:51Z</time>
      </trkpt>
      <trkpt lat="43.4013240" lon="-4.1835100">
        <ele>80.2</ele>
        <time>2021-07-17T13:27:53Z</time>
      </trkpt>
      <trkpt lat="43.4012740" lon="-4.1835840">
        <ele>80.2</ele>
        <time>2021-07-17T13:27:55Z</time>
      </trkpt>
      <trkpt lat="43.4011920" lon="-4.1837160">
        <ele>80.2</ele>
        <time>2021-07-17T13:27:59Z</time>
      </trkpt>
      <trkpt lat="43.4011630" lon="-4.1837590">
        <ele>80.2</ele>
        <time>2021-07-17T13:28:01Z</time>
      </trkpt>
      <trkpt lat="43.4011540" lon="-4.1837750">
        <ele>80.2</ele>
        <time>2021-07-17T13:28:04Z</time>
      </trkpt>
      <trkpt lat="43.4011330" lon="-4.1838000">
        <ele>80.2</ele>
        <time>2021-07-17T13:33:03Z</time>
      </trkpt>
      <trkpt lat="43.4011220" lon="-4.1838180">
        <ele>80.2</ele>
        <time>2021-07-17T13:33:04Z</time>
      </trkpt>
      <trkpt lat="43.4010570" lon="-4.1839370">
        <ele>80.2</ele>
        <time>2021-07-17T13:33:09Z</time>
      </trkpt>
      <trkpt lat="43.4010400" lon="-4.1839690">
        <ele>80.2</ele>
        <time>2021-07-17T13:33:10Z</time>
      </trkpt>
      <trkpt lat="43.4009350" lon="-4.1842390">
        <ele>80.2</ele>
        <time>2021-07-17T13:33:17Z</time>
      </trkpt>
      <trkpt lat="43.4008840" lon="-4.1843680">
        <ele>80.2</ele>
        <time>2021-07-17T13:33:20Z</time>
      </trkpt>
      <trkpt lat="43.4008070" lon="-4.1845620">
        <ele>80.2</ele>
        <time>2021-07-17T13:33:24Z</time>
      </trkpt>
      <trkpt lat="43.4007130" lon="-4.1848120">
        <ele>79.8</ele>
        <time>2021-07-17T13:33:28Z</time>
      </trkpt>
      <trkpt lat="43.4006880" lon="-4.1848880">
        <ele>79.4</ele>
        <time>2021-07-17T13:33:29Z</time>
      </trkpt>
      <trkpt lat="43.4006630" lon="-4.1849710">
        <ele>78.6</ele>
        <time>2021-07-17T13:33:30Z</time>
      </trkpt>
      <trkpt lat="43.4006380" lon="-4.1850500">
        <ele>78.2</ele>
        <time>2021-07-17T13:33:31Z</time>
      </trkpt>
      <trkpt lat="43.4005850" lon="-4.1852070">
        <ele>78.2</ele>
        <time>2021-07-17T13:33:33Z</time>
      </trkpt>
      <trkpt lat="43.4005010" lon="-4.1854480">
        <ele>78.2</ele>
        <time>2021-07-17T13:33:36Z</time>
      </trkpt>
      <trkpt lat="43.4004760" lon="-4.1855240">
        <ele>77.6</ele>
        <time>2021-07-17T13:33:37Z</time>
      </trkpt>
      <trkpt lat="43.4004510" lon="-4.1856060">
        <ele>77.2</ele>
        <time>2021-07-17T13:33:38Z</time>
      </trkpt>
      <trkpt lat="43.4004260" lon="-4.1856810">
        <ele>76.8</ele>
        <time>2021-07-17T13:33:39Z</time>
      </trkpt>
      <trkpt lat="43.4004010" lon="-4.1857560">
        <ele>76.4</ele>
        <time>2021-07-17T13:33:40Z</time>
      </trkpt>
      <trkpt lat="43.4003770" lon="-4.1858300">
        <ele>76.0</ele>
        <time>2021-07-17T13:33:41Z</time>
      </trkpt>
      <trkpt lat="43.4002070" lon="-4.1863430">
        <ele>76.0</ele>
        <time>2021-07-17T13:33:48Z</time>
      </trkpt>
      <trkpt lat="43.4001850" lon="-4.1864190">
        <ele>76.0</ele>
        <time>2021-07-17T13:33:49Z</time>
      </trkpt>
      <trkpt lat="43.4000770" lon="-4.1867170">
        <ele>76.0</ele>
        <time>2021-07-17T13:33:53Z</time>
      </trkpt>
      <trkpt lat="43.3999680" lon="-4.1869110">
        <ele>76.0</ele>
        <time>2021-07-17T13:33:56Z</time>
      </trkpt>
      <trkpt lat="43.3999320" lon="-4.1869720">
        <ele>75.6</ele>
        <time>2021-07-17T13:33:57Z</time>
      </trkpt>
      <trkpt lat="43.3998970" lon="-4.1870340">
        <ele>75.2</ele>
        <time>2021-07-17T13:33:58Z</time>
      </trkpt>
      <trkpt lat="43.3998660" lon="-4.1870990">
        <ele>74.8</ele>
        <time>2021-07-17T13:33:59Z</time>
      </trkpt>
      <trkpt lat="43.3998330" lon="-4.1871680">
        <ele>74.4</ele>
        <time>2021-07-17T13:34:00Z</time>
      </trkpt>
      <trkpt lat="43.3998000" lon="-4.1872320">
        <ele>74.0</ele>
        <time>2021-07-17T13:34:01Z</time>
      </trkpt>
      <trkpt lat="43.3997000" lon="-4.1874150">
        <ele>74.0</ele>
        <time>2021-07-17T13:34:04Z</time>
      </trkpt>
      <trkpt lat="43.3994960" lon="-4.1878660">
        <ele>74.0</ele>
        <time>2021-07-17T13:34:12Z</time>
      </trkpt>
      <trkpt lat="43.3994250" lon="-4.1880360">
        <ele>74.0</ele>
        <time>2021-07-17T13:34:15Z</time>
      </trkpt>
      <trkpt lat="43.3993760" lon="-4.1881610">
        <ele>74.0</ele>
        <time>2021-07-17T13:34:17Z</time>
      </trkpt>
      <trkpt lat="43.3993040" lon="-4.1883420">
        <ele>74.0</ele>
        <time>2021-07-17T13:34:20Z</time>
      </trkpt>
      <trkpt lat="43.3990880" lon="-4.1888510">
        <ele>74.0</ele>
        <time>2021-07-17T13:34:28Z</time>
      </trkpt>
      <trkpt lat="43.3990380" lon="-4.1889860">
        <ele>73.6</ele>
        <time>2021-07-17T13:34:30Z</time>
      </trkpt>
      <trkpt lat="43.3990090" lon="-4.1890550">
        <ele>73.2</ele>
        <time>2021-07-17T13:34:31Z</time>
      </trkpt>
      <trkpt lat="43.3989800" lon="-4.1891230">
        <ele>72.8</ele>
        <time>2021-07-17T13:34:32Z</time>
      </trkpt>
      <trkpt lat="43.3989500" lon="-4.1891920">
        <ele>72.4</ele>
        <time>2021-07-17T13:34:33Z</time>
      </trkpt>
      <trkpt lat="43.3989200" lon="-4.1892620">
        <ele>72.0</ele>
        <time>2021-07-17T13:34:34Z</time>
      </trkpt>
      <trkpt lat="43.3988910" lon="-4.1893330">
        <ele>72.0</ele>
        <time>2021-07-17T13:34:35Z</time>
      </trkpt>
      <trkpt lat="43.3987490" lon="-4.1896920">
        <ele>72.0</ele>
        <time>2021-07-17T13:34:40Z</time>
      </trkpt>
      <trkpt lat="43.3986360" lon="-4.1899630">
        <ele>72.0</ele>
        <time>2021-07-17T13:34:44Z</time>
      </trkpt>
      <trkpt lat="43.3984410" lon="-4.1904360">
        <ele>72.0</ele>
        <time>2021-07-17T13:34:51Z</time>
      </trkpt>
      <trkpt lat="43.3984150" lon="-4.1905010">
        <ele>72.0</ele>
        <time>2021-07-17T13:34:52Z</time>
      </trkpt>
      <trkpt lat="43.3982260" lon="-4.1908350">
        <ele>72.0</ele>
        <time>2021-07-17T13:34:58Z</time>
      </trkpt>
      <trkpt lat="43.3981110" lon="-4.1909430">
        <ele>72.0</ele>
        <time>2021-07-17T13:35:01Z</time>
      </trkpt>
      <trkpt lat="43.3979930" lon="-4.1910300">
        <ele>71.4</ele>
        <time>2021-07-17T13:35:04Z</time>
      </trkpt>
      <trkpt lat="43.3979510" lon="-4.1910670">
        <ele>71.0</ele>
        <time>2021-07-17T13:35:05Z</time>
      </trkpt>
      <trkpt lat="43.3979100" lon="-4.1911120">
        <ele>70.6</ele>
        <time>2021-07-17T13:35:06Z</time>
      </trkpt>
      <trkpt lat="43.3978750" lon="-4.1911650">
        <ele>70.2</ele>
        <time>2021-07-17T13:35:07Z</time>
      </trkpt>
      <trkpt lat="43.3978420" lon="-4.1912270">
        <ele>69.6</ele>
        <time>2021-07-17T13:35:08Z</time>
      </trkpt>
      <trkpt lat="43.3978140" lon="-4.1912910">
        <ele>69.2</ele>
        <time>2021-07-17T13:35:09Z</time>
      </trkpt>
      <trkpt lat="43.3977920" lon="-4.1913570">
        <ele>68.8</ele>
        <time>2021-07-17T13:35:10Z</time>
      </trkpt>
      <trkpt lat="43.3977710" lon="-4.1914230">
        <ele>68.4</ele>
        <time>2021-07-17T13:35:11Z</time>
      </trkpt>
      <trkpt lat="43.3977530" lon="-4.1914840">
        <ele>68.0</ele>
        <time>2021-07-17T13:35:12Z</time>
      </trkpt>
      <trkpt lat="43.3977370" lon="-4.1915440">
        <ele>67.6</ele>
        <time>2021-07-17T13:35:13Z</time>
      </trkpt>
      <trkpt lat="43.3977000" lon="-4.1916670">
        <ele>67.6</ele>
        <time>2021-07-17T13:35:15Z</time>
      </trkpt>
      <trkpt lat="43.3976770" lon="-4.1917350">
        <ele>67.0</ele>
        <time>2021-07-17T13:35:16Z</time>
      </trkpt>
      <trkpt lat="43.3976540" lon="-4.1918020">
        <ele>66.6</ele>
        <time>2021-07-17T13:35:17Z</time>
      </trkpt>
      <trkpt lat="43.3976240" lon="-4.1918690">
        <ele>66.2</ele>
        <time>2021-07-17T13:35:18Z</time>
      </trkpt>
      <trkpt lat="43.3975890" lon="-4.1919380">
        <ele>65.6</ele>
        <time>2021-07-17T13:35:19Z</time>
      </trkpt>
      <trkpt lat="43.3975520" lon="-4.1920030">
        <ele>65.2</ele>
        <time>2021-07-17T13:35:20Z</time>
      </trkpt>
      <trkpt lat="43.3975110" lon="-4.1920700">
        <ele>64.6</ele>
        <time>2021-07-17T13:35:21Z</time>
      </trkpt>
      <trkpt lat="43.3974700" lon="-4.1921360">
        <ele>64.0</ele>
        <time>2021-07-17T13:35:22Z</time>
      </trkpt>
      <trkpt lat="43.3974210" lon="-4.1922040">
        <ele>63.6</ele>
        <time>2021-07-17T13:35:23Z</time>
      </trkpt>
      <trkpt lat="43.3973730" lon="-4.1922720">
        <ele>63.0</ele>
        <time>2021-07-17T13:35:24Z</time>
      </trkpt>
      <trkpt lat="43.3972770" lon="-4.1924040">
        <ele>62.6</ele>
        <time>2021-07-17T13:35:26Z</time>
      </trkpt>
      <trkpt lat="43.3972350" lon="-4.1924670">
        <ele>62.2</ele>
        <time>2021-07-17T13:35:27Z</time>
      </trkpt>
      <trkpt lat="43.3972000" lon="-4.1925270">
        <ele>61.8</ele>
        <time>2021-07-17T13:35:28Z</time>
      </trkpt>
      <trkpt lat="43.3971700" lon="-4.1925840">
        <ele>61.2</ele>
        <time>2021-07-17T13:35:29Z</time>
      </trkpt>
      <trkpt lat="43.3971470" lon="-4.1926420">
        <ele>60.8</ele>
        <time>2021-07-17T13:35:30Z</time>
      </trkpt>
      <trkpt lat="43.3971310" lon="-4.1926940">
        <ele>60.8</ele>
        <time>2021-07-17T13:35:31Z</time>
      </trkpt>
      <trkpt lat="43.3971070" lon="-4.1927910">
        <ele>60.0</ele>
        <time>2021-07-17T13:35:33Z</time>
      </trkpt>
      <trkpt lat="43.3970980" lon="-4.1928480">
        <ele>59.6</ele>
        <time>2021-07-17T13:35:34Z</time>
      </trkpt>
      <trkpt lat="43.3970860" lon="-4.1929080">
        <ele>59.0</ele>
        <time>2021-07-17T13:35:35Z</time>
      </trkpt>
      <trkpt lat="43.3970750" lon="-4.1929670">
        <ele>58.6</ele>
        <time>2021-07-17T13:35:36Z</time>
      </trkpt>
      <trkpt lat="43.3970360" lon="-4.1932370">
        <ele>58.6</ele>
        <time>2021-07-17T13:35:42Z</time>
      </trkpt>
      <trkpt lat="43.3970380" lon="-4.1932450">
        <ele>58.6</ele>
        <time>2021-07-17T13:35:44Z</time>
      </trkpt>
      <trkpt lat="43.3970320" lon="-4.1932770">
        <ele>58.6</ele>
        <time>2021-07-17T13:36:17Z</time>
      </trkpt>
      <trkpt lat="43.3970100" lon="-4.1933850">
        <ele>58.6</ele>
        <time>2021-07-17T13:36:20Z</time>
      </trkpt>
      <trkpt lat="43.3969980" lon="-4.1934320">
        <ele>58.2</ele>
        <time>2021-07-17T13:36:21Z</time>
      </trkpt>
      <trkpt lat="43.3969800" lon="-4.1934840">
        <ele>57.2</ele>
        <time>2021-07-17T13:36:22Z</time>
      </trkpt>
      <trkpt lat="43.3969630" lon="-4.1935420">
        <ele>56.8</ele>
        <time>2021-07-17T13:36:23Z</time>
      </trkpt>
      <trkpt lat="43.3969410" lon="-4.1936030">
        <ele>56.4</ele>
        <time>2021-07-17T13:36:24Z</time>
      </trkpt>
      <trkpt lat="43.3968640" lon="-4.1938040">
        <ele>56.4</ele>
        <time>2021-07-17T13:36:27Z</time>
      </trkpt>
      <trkpt lat="43.3968350" lon="-4.1938710">
        <ele>56.0</ele>
        <time>2021-07-17T13:36:28Z</time>
      </trkpt>
      <trkpt lat="43.3968050" lon="-4.1939370">
        <ele>55.6</ele>
        <time>2021-07-17T13:36:29Z</time>
      </trkpt>
      <trkpt lat="43.3967720" lon="-4.1940040">
        <ele>55.2</ele>
        <time>2021-07-17T13:36:30Z</time>
      </trkpt>
      <trkpt lat="43.3967400" lon="-4.1940720">
        <ele>54.8</ele>
        <time>2021-07-17T13:36:31Z</time>
      </trkpt>
      <trkpt lat="43.3967080" lon="-4.1941400">
        <ele>54.4</ele>
        <time>2021-07-17T13:36:32Z</time>
      </trkpt>
      <trkpt lat="43.3966440" lon="-4.1942720">
        <ele>54.4</ele>
        <time>2021-07-17T13:36:34Z</time>
      </trkpt>
      <trkpt lat="43.3966080" lon="-4.1943380">
        <ele>54.4</ele>
        <time>2021-07-17T13:36:35Z</time>
      </trkpt>
      <trkpt lat="43.3965270" lon="-4.1944550">
        <ele>54.4</ele>
        <time>2021-07-17T13:36:37Z</time>
      </trkpt>
      <trkpt lat="43.3963960" lon="-4.1945770">
        <ele>54.4</ele>
        <time>2021-07-17T13:36:40Z</time>
      </trkpt>
      <trkpt lat="43.3963540" lon="-4.1946030">
        <ele>54.4</ele>
        <time>2021-07-17T13:36:41Z</time>
      </trkpt>
      <trkpt lat="43.3962870" lon="-4.1946400">
        <ele>54.4</ele>
        <time>2021-07-17T13:36:43Z</time>
      </trkpt>
      <trkpt lat="43.3962620" lon="-4.1946560">
        <ele>54.4</ele>
        <time>2021-07-17T13:36:44Z</time>
      </trkpt>
      <trkpt lat="43.3961220" lon="-4.1946990">
        <ele>54.4</ele>
        <time>2021-07-17T13:36:50Z</time>
      </trkpt>
      <trkpt lat="43.3960820" lon="-4.1947530">
        <ele>54.4</ele>
        <time>2021-07-17T13:36:52Z</time>
      </trkpt>
      <trkpt lat="43.3960460" lon="-4.1948220">
        <ele>54.4</ele>
        <time>2021-07-17T13:36:54Z</time>
      </trkpt>
      <trkpt lat="43.3960120" lon="-4.1948870">
        <ele>54.4</ele>
        <time>2021-07-17T13:36:56Z</time>
      </trkpt>
      <trkpt lat="43.3959450" lon="-4.1950110">
        <ele>54.4</ele>
        <time>2021-07-17T13:37:00Z</time>
      </trkpt>
      <trkpt lat="43.3959050" lon="-4.1950530">
        <ele>54.4</ele>
        <time>2021-07-17T13:37:02Z</time>
      </trkpt>
      <trkpt lat="43.3958690" lon="-4.1950920">
        <ele>54.4</ele>
        <time>2021-07-17T13:37:05Z</time>
      </trkpt>
      <trkpt lat="43.3958830" lon="-4.1951060">
        <ele>54.4</ele>
        <time>2021-07-17T13:37:06Z</time>
      </trkpt>
      <trkpt lat="43.3959230" lon="-4.1951660">
        <ele>54.4</ele>
        <time>2021-07-17T13:37:10Z</time>
      </trkpt>
      <trkpt lat="43.3959070" lon="-4.1952350">
        <ele>54.4</ele>
        <time>2021-07-17T13:37:12Z</time>
      </trkpt>
      <trkpt lat="43.3958930" lon="-4.1953230">
        <ele>54.4</ele>
        <time>2021-07-17T13:37:14Z</time>
      </trkpt>
      <trkpt lat="43.3958870" lon="-4.1953720">
        <ele>54.4</ele>
        <time>2021-07-17T13:37:15Z</time>
      </trkpt>
      <trkpt lat="43.3958610" lon="-4.1955160">
        <ele>54.4</ele>
        <time>2021-07-17T13:37:18Z</time>
      </trkpt>
      <trkpt lat="43.3958340" lon="-4.1956570">
        <ele>54.4</ele>
        <time>2021-07-17T13:37:21Z</time>
      </trkpt>
      <trkpt lat="43.3958150" lon="-4.1957480">
        <ele>54.4</ele>
        <time>2021-07-17T13:37:23Z</time>
      </trkpt>
      <trkpt lat="43.3957180" lon="-4.1958950">
        <ele>54.4</ele>
        <time>2021-07-17T13:37:28Z</time>
      </trkpt>
      <trkpt lat="43.3956280" lon="-4.1959290">
        <ele>54.8</ele>
        <time>2021-07-17T13:37:32Z</time>
      </trkpt>
      <trkpt lat="43.3956110" lon="-4.1959310">
        <ele>55.2</ele>
        <time>2021-07-17T13:37:33Z</time>
      </trkpt>
      <trkpt lat="43.3955890" lon="-4.1959400">
        <ele>55.6</ele>
        <time>2021-07-17T13:37:34Z</time>
      </trkpt>
      <trkpt lat="43.3955620" lon="-4.1959480">
        <ele>56.0</ele>
        <time>2021-07-17T13:37:35Z</time>
      </trkpt>
      <trkpt lat="43.3955310" lon="-4.1959550">
        <ele>56.4</ele>
        <time>2021-07-17T13:37:36Z</time>
      </trkpt>
      <trkpt lat="43.3954280" lon="-4.1959660">
        <ele>56.0</ele>
        <time>2021-07-17T13:37:39Z</time>
      </trkpt>
      <trkpt lat="43.3953960" lon="-4.1959830">
        <ele>55.6</ele>
        <time>2021-07-17T13:37:40Z</time>
      </trkpt>
      <trkpt lat="43.3953690" lon="-4.1959980">
        <ele>55.2</ele>
        <time>2021-07-17T13:37:41Z</time>
      </trkpt>
      <trkpt lat="43.3953440" lon="-4.1960150">
        <ele>54.8</ele>
        <time>2021-07-17T13:37:42Z</time>
      </trkpt>
      <trkpt lat="43.3953190" lon="-4.1960350">
        <ele>54.2</ele>
        <time>2021-07-17T13:37:43Z</time>
      </trkpt>
      <trkpt lat="43.3952670" lon="-4.1960710">
        <ele>54.2</ele>
        <time>2021-07-17T13:37:45Z</time>
      </trkpt>
      <trkpt lat="43.3951780" lon="-4.1961100">
        <ele>53.8</ele>
        <time>2021-07-17T13:37:48Z</time>
      </trkpt>
      <trkpt lat="43.3951410" lon="-4.1961190">
        <ele>53.4</ele>
        <time>2021-07-17T13:37:49Z</time>
      </trkpt>
      <trkpt lat="43.3951060" lon="-4.1961250">
        <ele>53.0</ele>
        <time>2021-07-17T13:37:50Z</time>
      </trkpt>
      <trkpt lat="43.3950770" lon="-4.1961280">
        <ele>52.4</ele>
        <time>2021-07-17T13:37:51Z</time>
      </trkpt>
      <trkpt lat="43.3950470" lon="-4.1961270">
        <ele>52.0</ele>
        <time>2021-07-17T13:37:52Z</time>
      </trkpt>
      <trkpt lat="43.3949370" lon="-4.1960790">
        <ele>52.0</ele>
        <time>2021-07-17T13:37:56Z</time>
      </trkpt>
      <trkpt lat="43.3949110" lon="-4.1960620">
        <ele>52.0</ele>
        <time>2021-07-17T13:37:57Z</time>
      </trkpt>
      <trkpt lat="43.3948150" lon="-4.1959870">
        <ele>51.6</ele>
        <time>2021-07-17T13:38:00Z</time>
      </trkpt>
      <trkpt lat="43.3947780" lon="-4.1959590">
        <ele>51.2</ele>
        <time>2021-07-17T13:38:01Z</time>
      </trkpt>
      <trkpt lat="43.3947470" lon="-4.1959300">
        <ele>50.6</ele>
        <time>2021-07-17T13:38:02Z</time>
      </trkpt>
      <trkpt lat="43.3947120" lon="-4.1959040">
        <ele>50.2</ele>
        <time>2021-07-17T13:38:03Z</time>
      </trkpt>
      <trkpt lat="43.3946810" lon="-4.1958770">
        <ele>49.8</ele>
        <time>2021-07-17T13:38:04Z</time>
      </trkpt>
      <trkpt lat="43.3946220" lon="-4.1958190">
        <ele>49.4</ele>
        <time>2021-07-17T13:38:06Z</time>
      </trkpt>
      <trkpt lat="43.3945900" lon="-4.1957930">
        <ele>49.0</ele>
        <time>2021-07-17T13:38:07Z</time>
      </trkpt>
      <trkpt lat="43.3945630" lon="-4.1957720">
        <ele>48.6</ele>
        <time>2021-07-17T13:38:08Z</time>
      </trkpt>
      <trkpt lat="43.3945380" lon="-4.1957590">
        <ele>48.2</ele>
        <time>2021-07-17T13:38:09Z</time>
      </trkpt>
      <trkpt lat="43.3945160" lon="-4.1957500">
        <ele>47.8</ele>
        <time>2021-07-17T13:38:10Z</time>
      </trkpt>
      <trkpt lat="43.3944720" lon="-4.1957120">
        <ele>47.8</ele>
        <time>2021-07-17T13:38:14Z</time>
      </trkpt>
      <trkpt lat="43.3944500" lon="-4.1956350">
        <ele>47.8</ele>
        <time>2021-07-17T13:38:17Z</time>
      </trkpt>
      <trkpt lat="43.3944020" lon="-4.1955820">
        <ele>47.8</ele>
        <time>2021-07-17T13:38:19Z</time>
      </trkpt>
      <trkpt lat="43.3943680" lon="-4.1955670">
        <ele>47.4</ele>
        <time>2021-07-17T13:38:20Z</time>
      </trkpt>
      <trkpt lat="43.3943290" lon="-4.1955560">
        <ele>47.0</ele>
        <time>2021-07-17T13:38:21Z</time>
      </trkpt>
      <trkpt lat="43.3942810" lon="-4.1955490">
        <ele>46.6</ele>
        <time>2021-07-17T13:38:22Z</time>
      </trkpt>
      <trkpt lat="43.3942390" lon="-4.1955360">
        <ele>46.2</ele>
        <time>2021-07-17T13:38:23Z</time>
      </trkpt>
      <trkpt lat="43.3942020" lon="-4.1955240">
        <ele>45.8</ele>
        <time>2021-07-17T13:38:24Z</time>
      </trkpt>
      <trkpt lat="43.3941660" lon="-4.1955090">
        <ele>45.2</ele>
        <time>2021-07-17T13:38:25Z</time>
      </trkpt>
      <trkpt lat="43.3941290" lon="-4.1954940">
        <ele>44.8</ele>
        <time>2021-07-17T13:38:26Z</time>
      </trkpt>
      <trkpt lat="43.3940940" lon="-4.1954750">
        <ele>44.2</ele>
        <time>2021-07-17T13:38:27Z</time>
      </trkpt>
      <trkpt lat="43.3940550" lon="-4.1954560">
        <ele>43.8</ele>
        <time>2021-07-17T13:38:28Z</time>
      </trkpt>
      <trkpt lat="43.3940200" lon="-4.1954310">
        <ele>43.2</ele>
        <time>2021-07-17T13:38:29Z</time>
      </trkpt>
      <trkpt lat="43.3939860" lon="-4.1954090">
        <ele>42.8</ele>
        <time>2021-07-17T13:38:30Z</time>
      </trkpt>
      <trkpt lat="43.3939580" lon="-4.1953900">
        <ele>42.2</ele>
        <time>2021-07-17T13:38:31Z</time>
      </trkpt>
      <trkpt lat="43.3939340" lon="-4.1953770">
        <ele>41.6</ele>
        <time>2021-07-17T13:38:32Z</time>
      </trkpt>
      <trkpt lat="43.3939150" lon="-4.1953660">
        <ele>41.2</ele>
        <time>2021-07-17T13:38:33Z</time>
      </trkpt>
      <trkpt lat="43.3938940" lon="-4.1953530">
        <ele>40.6</ele>
        <time>2021-07-17T13:38:34Z</time>
      </trkpt>
      <trkpt lat="43.3938780" lon="-4.1953530">
        <ele>40.0</ele>
        <time>2021-07-17T13:38:35Z</time>
      </trkpt>
      <trkpt lat="43.3938620" lon="-4.1953580">
        <ele>39.4</ele>
        <time>2021-07-17T13:38:36Z</time>
      </trkpt>
      <trkpt lat="43.3938570" lon="-4.1953640">
        <ele>38.8</ele>
        <time>2021-07-17T13:38:37Z</time>
      </trkpt>
      <trkpt lat="43.3938650" lon="-4.1953590">
        <ele>38.8</ele>
        <time>2021-07-17T13:38:38Z</time>
      </trkpt>
      <trkpt lat="43.3938510" lon="-4.1953290">
        <ele>38.8</ele>
        <time>2021-07-17T13:38:41Z</time>
      </trkpt>
      <trkpt lat="43.3938360" lon="-4.1953080">
        <ele>38.8</ele>
        <time>2021-07-17T13:38:42Z</time>
      </trkpt>
      <trkpt lat="43.3937430" lon="-4.1952000">
        <ele>38.8</ele>
        <time>2021-07-17T13:38:46Z</time>
      </trkpt>
      <trkpt lat="43.3935850" lon="-4.1950480">
        <ele>38.4</ele>
        <time>2021-07-17T13:38:52Z</time>
      </trkpt>
      <trkpt lat="43.3935670" lon="-4.1950430">
        <ele>38.0</ele>
        <time>2021-07-17T13:38:53Z</time>
      </trkpt>
      <trkpt lat="43.3935550" lon="-4.1950400">
        <ele>37.4</ele>
        <time>2021-07-17T13:38:54Z</time>
      </trkpt>
      <trkpt lat="43.3935380" lon="-4.1950380">
        <ele>37.0</ele>
        <time>2021-07-17T13:38:55Z</time>
      </trkpt>
      <trkpt lat="43.3935170" lon="-4.1950470">
        <ele>36.6</ele>
        <time>2021-07-17T13:38:56Z</time>
      </trkpt>
      <trkpt lat="43.3934940" lon="-4.1950580">
        <ele>36.6</ele>
        <time>2021-07-17T13:38:57Z</time>
      </trkpt>
      <trkpt lat="43.3934530" lon="-4.1950820">
        <ele>36.6</ele>
        <time>2021-07-17T13:39:00Z</time>
      </trkpt>
      <trkpt lat="43.3934510" lon="-4.1950840">
        <ele>36.6</ele>
        <time>2021-07-17T13:39:02Z</time>
      </trkpt>
      <trkpt lat="43.3934820" lon="-4.1950200">
        <ele>36.6</ele>
        <time>2021-07-17T13:39:07Z</time>
      </trkpt>
      <trkpt lat="43.3935220" lon="-4.1949880">
        <ele>36.6</ele>
        <time>2021-07-17T13:39:09Z</time>
      </trkpt>
      <trkpt lat="43.3935530" lon="-4.1949260">
        <ele>36.6</ele>
        <time>2021-07-17T13:39:11Z</time>
      </trkpt>
      <trkpt lat="43.3936000" lon="-4.1947950">
        <ele>36.6</ele>
        <time>2021-07-17T13:39:14Z</time>
      </trkpt>
      <trkpt lat="43.3936580" lon="-4.1947050">
        <ele>36.6</ele>
        <time>2021-07-17T13:39:16Z</time>
      </trkpt>
      <trkpt lat="43.3937400" lon="-4.1946580">
        <ele>36.6</ele>
        <time>2021-07-17T13:39:18Z</time>
      </trkpt>
      <trkpt lat="43.3938640" lon="-4.1946250">
        <ele>36.0</ele>
        <time>2021-07-17T13:39:21Z</time>
      </trkpt>
      <trkpt lat="43.3939060" lon="-4.1946130">
        <ele>35.6</ele>
        <time>2021-07-17T13:39:22Z</time>
      </trkpt>
      <trkpt lat="43.3939450" lon="-4.1946000">
        <ele>35.2</ele>
        <time>2021-07-17T13:39:23Z</time>
      </trkpt>
      <trkpt lat="43.3939850" lon="-4.1945770">
        <ele>34.8</ele>
        <time>2021-07-17T13:39:24Z</time>
      </trkpt>
      <trkpt lat="43.3940240" lon="-4.1945430">
        <ele>34.4</ele>
        <time>2021-07-17T13:39:25Z</time>
      </trkpt>
      <trkpt lat="43.3940580" lon="-4.1945070">
        <ele>34.0</ele>
        <time>2021-07-17T13:39:26Z</time>
      </trkpt>
      <trkpt lat="43.3940900" lon="-4.1944680">
        <ele>33.4</ele>
        <time>2021-07-17T13:39:27Z</time>
      </trkpt>
      <trkpt lat="43.3941260" lon="-4.1944280">
        <ele>33.0</ele>
        <time>2021-07-17T13:39:28Z</time>
      </trkpt>
      <trkpt lat="43.3941660" lon="-4.1943830">
        <ele>32.4</ele>
        <time>2021-07-17T13:39:29Z</time>
      </trkpt>
      <trkpt lat="43.3942050" lon="-4.1943400">
        <ele>32.0</ele>
        <time>2021-07-17T13:39:30Z</time>
      </trkpt>
      <trkpt lat="43.3943710" lon="-4.1942080">
        <ele>32.0</ele>
        <time>2021-07-17T13:39:35Z</time>
      </trkpt>
      <trkpt lat="43.3943970" lon="-4.1941910">
        <ele>31.6</ele>
        <time>2021-07-17T13:39:37Z</time>
      </trkpt>
      <trkpt lat="43.3943930" lon="-4.1941910">
        <ele>31.0</ele>
        <time>2021-07-17T13:39:38Z</time>
      </trkpt>
      <trkpt lat="43.3943940" lon="-4.1941840">
        <ele>30.2</ele>
        <time>2021-07-17T13:39:39Z</time>
      </trkpt>
      <trkpt lat="43.3944420" lon="-4.1942320">
        <ele>27.6</ele>
        <time>2021-07-17T13:43:00Z</time>
      </trkpt>
      <trkpt lat="43.3944270" lon="-4.1942330">
        <ele>27.6</ele>
        <time>2021-07-17T13:43:01Z</time>
      </trkpt>
      <trkpt lat="43.3944030" lon="-4.1942310">
        <ele>27.6</ele>
        <time>2021-07-17T13:43:02Z</time>
      </trkpt>
      <trkpt lat="43.3943170" lon="-4.1942600">
        <ele>27.6</ele>
        <time>2021-07-17T13:43:05Z</time>
      </trkpt>
      <trkpt lat="43.3942640" lon="-4.1943020">
        <ele>27.6</ele>
        <time>2021-07-17T13:43:07Z</time>
      </trkpt>
      <trkpt lat="43.3941170" lon="-4.1944670">
        <ele>28.0</ele>
        <time>2021-07-17T13:43:14Z</time>
      </trkpt>
      <trkpt lat="43.3940980" lon="-4.1944900">
        <ele>28.4</ele>
        <time>2021-07-17T13:43:15Z</time>
      </trkpt>
      <trkpt lat="43.3940800" lon="-4.1945060">
        <ele>28.8</ele>
        <time>2021-07-17T13:43:16Z</time>
      </trkpt>
      <trkpt lat="43.3940590" lon="-4.1945270">
        <ele>29.2</ele>
        <time>2021-07-17T13:43:17Z</time>
      </trkpt>
      <trkpt lat="43.3940390" lon="-4.1945490">
        <ele>29.6</ele>
        <time>2021-07-17T13:43:18Z</time>
      </trkpt>
      <trkpt lat="43.3939620" lon="-4.1946340">
        <ele>29.6</ele>
        <time>2021-07-17T13:43:22Z</time>
      </trkpt>
      <trkpt lat="43.3939450" lon="-4.1946480">
        <ele>29.6</ele>
        <time>2021-07-17T13:43:23Z</time>
      </trkpt>
      <trkpt lat="43.3938810" lon="-4.1946840">
        <ele>30.0</ele>
        <time>2021-07-17T13:43:26Z</time>
      </trkpt>
      <trkpt lat="43.3938570" lon="-4.1946900">
        <ele>30.4</ele>
        <time>2021-07-17T13:43:27Z</time>
      </trkpt>
      <trkpt lat="43.3938290" lon="-4.1946940">
        <ele>30.8</ele>
        <time>2021-07-17T13:43:28Z</time>
      </trkpt>
      <trkpt lat="43.3938040" lon="-4.1946980">
        <ele>31.2</ele>
        <time>2021-07-17T13:43:29Z</time>
      </trkpt>
      <trkpt lat="43.3937810" lon="-4.1947060">
        <ele>31.6</ele>
        <time>2021-07-17T13:43:30Z</time>
      </trkpt>
      <trkpt lat="43.3937570" lon="-4.1947170">
        <ele>31.6</ele>
        <time>2021-07-17T13:43:31Z</time>
      </trkpt>
      <trkpt lat="43.3936490" lon="-4.1947960">
        <ele>31.6</ele>
        <time>2021-07-17T13:43:36Z</time>
      </trkpt>
      <trkpt lat="43.3936240" lon="-4.1948510">
        <ele>31.6</ele>
        <time>2021-07-17T13:43:38Z</time>
      </trkpt>
      <trkpt lat="43.3935920" lon="-4.1949240">
        <ele>32.0</ele>
        <time>2021-07-17T13:43:41Z</time>
      </trkpt>
      <trkpt lat="43.3935820" lon="-4.1949470">
        <ele>32.4</ele>
        <time>2021-07-17T13:43:42Z</time>
      </trkpt>
      <trkpt lat="43.3935750" lon="-4.1949730">
        <ele>32.8</ele>
        <time>2021-07-17T13:43:43Z</time>
      </trkpt>
      <trkpt lat="43.3935770" lon="-4.1950030">
        <ele>33.2</ele>
        <time>2021-07-17T13:43:44Z</time>
      </trkpt>
      <trkpt lat="43.3935840" lon="-4.1950300">
        <ele>33.6</ele>
        <time>2021-07-17T13:43:45Z</time>
      </trkpt>
      <trkpt lat="43.3936260" lon="-4.1950790">
        <ele>33.6</ele>
        <time>2021-07-17T13:43:48Z</time>
      </trkpt>
      <trkpt lat="43.3936430" lon="-4.1950890">
        <ele>34.2</ele>
        <time>2021-07-17T13:43:49Z</time>
      </trkpt>
      <trkpt lat="43.3936590" lon="-4.1951000">
        <ele>34.6</ele>
        <time>2021-07-17T13:43:50Z</time>
      </trkpt>
      <trkpt lat="43.3936760" lon="-4.1951100">
        <ele>35.0</ele>
        <time>2021-07-17T13:43:51Z</time>
      </trkpt>
      <trkpt lat="43.3936940" lon="-4.1951220">
        <ele>35.4</ele>
        <time>2021-07-17T13:43:52Z</time>
      </trkpt>
      <trkpt lat="43.3937120" lon="-4.1951320">
        <ele>35.8</ele>
        <time>2021-07-17T13:43:53Z</time>
      </trkpt>
      <trkpt lat="43.3937290" lon="-4.1951450">
        <ele>35.8</ele>
        <time>2021-07-17T13:43:54Z</time>
      </trkpt>
      <trkpt lat="43.3938310" lon="-4.1952680">
        <ele>35.8</ele>
        <time>2021-07-17T13:44:01Z</time>
      </trkpt>
      <trkpt lat="43.3938440" lon="-4.1952830">
        <ele>35.8</ele>
        <time>2021-07-17T13:44:02Z</time>
      </trkpt>
      <trkpt lat="43.3938850" lon="-4.1953350">
        <ele>36.2</ele>
        <time>2021-07-17T13:44:05Z</time>
      </trkpt>
      <trkpt lat="43.3938890" lon="-4.1953580">
        <ele>36.6</ele>
        <time>2021-07-17T13:44:06Z</time>
      </trkpt>
      <trkpt lat="43.3938900" lon="-4.1953840">
        <ele>37.0</ele>
        <time>2021-07-17T13:44:07Z</time>
      </trkpt>
      <trkpt lat="43.3938880" lon="-4.1954140">
        <ele>37.4</ele>
        <time>2021-07-17T13:44:08Z</time>
      </trkpt>
      <trkpt lat="43.3938870" lon="-4.1954490">
        <ele>37.8</ele>
        <time>2021-07-17T13:44:09Z</time>
      </trkpt>
      <trkpt lat="43.3938940" lon="-4.1955800">
        <ele>37.8</ele>
        <time>2021-07-17T13:44:13Z</time>
      </trkpt>
      <trkpt lat="43.3939030" lon="-4.1957850">
        <ele>37.8</ele>
        <time>2021-07-17T13:44:19Z</time>
      </trkpt>
      <trkpt lat="43.3939000" lon="-4.1959530">
        <ele>38.4</ele>
        <time>2021-07-17T13:44:25Z</time>
      </trkpt>
      <trkpt lat="43.3938990" lon="-4.1959820">
        <ele>38.8</ele>
        <time>2021-07-17T13:44:26Z</time>
      </trkpt>
      <trkpt lat="43.3938980" lon="-4.1960070">
        <ele>39.2</ele>
        <time>2021-07-17T13:44:27Z</time>
      </trkpt>
      <trkpt lat="43.3938980" lon="-4.1960320">
        <ele>39.6</ele>
        <time>2021-07-17T13:44:28Z</time>
      </trkpt>
      <trkpt lat="43.3938980" lon="-4.1960560">
        <ele>40.0</ele>
        <time>2021-07-17T13:44:29Z</time>
      </trkpt>
      <trkpt lat="43.3939180" lon="-4.1961790">
        <ele>40.0</ele>
        <time>2021-07-17T13:44:34Z</time>
      </trkpt>
      <trkpt lat="43.3939400" lon="-4.1962170">
        <ele>40.4</ele>
        <time>2021-07-17T13:44:36Z</time>
      </trkpt>
      <trkpt lat="43.3939570" lon="-4.1962310">
        <ele>40.8</ele>
        <time>2021-07-17T13:44:37Z</time>
      </trkpt>
      <trkpt lat="43.3939770" lon="-4.1962390">
        <ele>41.2</ele>
        <time>2021-07-17T13:44:38Z</time>
      </trkpt>
      <trkpt lat="43.3939960" lon="-4.1962430">
        <ele>41.6</ele>
        <time>2021-07-17T13:44:39Z</time>
      </trkpt>
      <trkpt lat="43.3940130" lon="-4.1962470">
        <ele>42.0</ele>
        <time>2021-07-17T13:44:40Z</time>
      </trkpt>
      <trkpt lat="43.3940690" lon="-4.1962670">
        <ele>42.4</ele>
        <time>2021-07-17T13:44:43Z</time>
      </trkpt>
      <trkpt lat="43.3940840" lon="-4.1962740">
        <ele>42.8</ele>
        <time>2021-07-17T13:44:44Z</time>
      </trkpt>
      <trkpt lat="43.3940980" lon="-4.1962810">
        <ele>43.2</ele>
        <time>2021-07-17T13:44:45Z</time>
      </trkpt>
      <trkpt lat="43.3941130" lon="-4.1962880">
        <ele>43.6</ele>
        <time>2021-07-17T13:44:46Z</time>
      </trkpt>
      <trkpt lat="43.3941300" lon="-4.1962990">
        <ele>44.0</ele>
        <time>2021-07-17T13:44:47Z</time>
      </trkpt>
      <trkpt lat="43.3941470" lon="-4.1963140">
        <ele>44.0</ele>
        <time>2021-07-17T13:44:48Z</time>
      </trkpt>
      <trkpt lat="43.3942100" lon="-4.1963740">
        <ele>44.4</ele>
        <time>2021-07-17T13:44:52Z</time>
      </trkpt>
      <trkpt lat="43.3942220" lon="-4.1963920">
        <ele>44.8</ele>
        <time>2021-07-17T13:44:53Z</time>
      </trkpt>
      <trkpt lat="43.3942320" lon="-4.1964100">
        <ele>45.2</ele>
        <time>2021-07-17T13:44:54Z</time>
      </trkpt>
      <trkpt lat="43.3942390" lon="-4.1964320">
        <ele>45.6</ele>
        <time>2021-07-17T13:44:55Z</time>
      </trkpt>
      <trkpt lat="43.3942470" lon="-4.1964580">
        <ele>46.0</ele>
        <time>2021-07-17T13:44:56Z</time>
      </trkpt>
      <trkpt lat="43.3942520" lon="-4.1964840">
        <ele>46.0</ele>
        <time>2021-07-17T13:44:57Z</time>
      </trkpt>
      <trkpt lat="43.3942730" lon="-4.1966780">
        <ele>46.0</ele>
        <time>2021-07-17T13:45:04Z</time>
      </trkpt>
      <trkpt lat="43.3943450" lon="-4.1968130">
        <ele>46.0</ele>
        <time>2021-07-17T13:45:09Z</time>
      </trkpt>
      <trkpt lat="43.3944100" lon="-4.1968560">
        <ele>46.6</ele>
        <time>2021-07-17T13:45:12Z</time>
      </trkpt>
      <trkpt lat="43.3944330" lon="-4.1968620">
        <ele>47.0</ele>
        <time>2021-07-17T13:45:13Z</time>
      </trkpt>
      <trkpt lat="43.3944560" lon="-4.1968690">
        <ele>47.4</ele>
        <time>2021-07-17T13:45:14Z</time>
      </trkpt>
      <trkpt lat="43.3944800" lon="-4.1968790">
        <ele>47.8</ele>
        <time>2021-07-17T13:45:15Z</time>
      </trkpt>
      <trkpt lat="43.3945030" lon="-4.1968900">
        <ele>48.4</ele>
        <time>2021-07-17T13:45:16Z</time>
      </trkpt>
      <trkpt lat="43.3946580" lon="-4.1969870">
        <ele>48.4</ele>
        <time>2021-07-17T13:45:22Z</time>
      </trkpt>
      <trkpt lat="43.3947640" lon="-4.1970710">
        <ele>48.4</ele>
        <time>2021-07-17T13:45:26Z</time>
      </trkpt>
      <trkpt lat="43.3948470" lon="-4.1971170">
        <ele>48.4</ele>
        <time>2021-07-17T13:45:29Z</time>
      </trkpt>
      <trkpt lat="43.3949300" lon="-4.1971070">
        <ele>48.4</ele>
        <time>2021-07-17T13:45:32Z</time>
      </trkpt>
      <trkpt lat="43.3949980" lon="-4.1970740">
        <ele>48.4</ele>
        <time>2021-07-17T13:45:35Z</time>
      </trkpt>
      <trkpt lat="43.3950320" lon="-4.1970650">
        <ele>48.4</ele>
        <time>2021-07-17T13:45:37Z</time>
      </trkpt>
      <trkpt lat="43.3950440" lon="-4.1970750">
        <ele>48.4</ele>
        <time>2021-07-17T13:45:38Z</time>
      </trkpt>
      <trkpt lat="43.3950490" lon="-4.1970990">
        <ele>48.4</ele>
        <time>2021-07-17T13:45:39Z</time>
      </trkpt>
      <trkpt lat="43.3950460" lon="-4.1971370">
        <ele>47.8</ele>
        <time>2021-07-17T13:45:40Z</time>
      </trkpt>
      <trkpt lat="43.3950310" lon="-4.1971840">
        <ele>47.4</ele>
        <time>2021-07-17T13:45:41Z</time>
      </trkpt>
      <trkpt lat="43.3950070" lon="-4.1972370">
        <ele>47.0</ele>
        <time>2021-07-17T13:45:42Z</time>
      </trkpt>
      <trkpt lat="43.3949820" lon="-4.1972920">
        <ele>46.4</ele>
        <time>2021-07-17T13:45:43Z</time>
      </trkpt>
      <trkpt lat="43.3949570" lon="-4.1973490">
        <ele>46.0</ele>
        <time>2021-07-17T13:45:44Z</time>
      </trkpt>
      <trkpt lat="43.3949300" lon="-4.1974110">
        <ele>46.0</ele>
        <time>2021-07-17T13:45:45Z</time>
      </trkpt>
      <trkpt lat="43.3948770" lon="-4.1975510">
        <ele>45.6</ele>
        <time>2021-07-17T13:45:47Z</time>
      </trkpt>
      <trkpt lat="43.3948550" lon="-4.1976320">
        <ele>45.2</ele>
        <time>2021-07-17T13:45:48Z</time>
      </trkpt>
      <trkpt lat="43.3948370" lon="-4.1977220">
        <ele>44.8</ele>
        <time>2021-07-17T13:45:49Z</time>
      </trkpt>
      <trkpt lat="43.3948240" lon="-4.1978090">
        <ele>44.0</ele>
        <time>2021-07-17T13:45:50Z</time>
      </trkpt>
      <trkpt lat="43.3948040" lon="-4.1979790">
        <ele>43.6</ele>
        <time>2021-07-17T13:45:52Z</time>
      </trkpt>
      <trkpt lat="43.3947910" lon="-4.1980580">
        <ele>43.2</ele>
        <time>2021-07-17T13:45:53Z</time>
      </trkpt>
      <trkpt lat="43.3947730" lon="-4.1981330">
        <ele>42.8</ele>
        <time>2021-07-17T13:45:54Z</time>
      </trkpt>
      <trkpt lat="43.3947480" lon="-4.1982080">
        <ele>42.4</ele>
        <time>2021-07-17T13:45:55Z</time>
      </trkpt>
      <trkpt lat="43.3947180" lon="-4.1982800">
        <ele>42.0</ele>
        <time>2021-07-17T13:45:56Z</time>
      </trkpt>
      <trkpt lat="43.3946480" lon="-4.1984150">
        <ele>42.0</ele>
        <time>2021-07-17T13:45:58Z</time>
      </trkpt>
      <trkpt lat="43.3945680" lon="-4.1985790">
        <ele>42.0</ele>
        <time>2021-07-17T13:46:01Z</time>
      </trkpt>
      <trkpt lat="43.3944840" lon="-4.1987460">
        <ele>41.6</ele>
        <time>2021-07-17T13:46:05Z</time>
      </trkpt>
      <trkpt lat="43.3944620" lon="-4.1987810">
        <ele>41.2</ele>
        <time>2021-07-17T13:46:06Z</time>
      </trkpt>
      <trkpt lat="43.3944400" lon="-4.1988160">
        <ele>40.8</ele>
        <time>2021-07-17T13:46:07Z</time>
      </trkpt>
      <trkpt lat="43.3944160" lon="-4.1988500">
        <ele>40.2</ele>
        <time>2021-07-17T13:46:08Z</time>
      </trkpt>
      <trkpt lat="43.3943900" lon="-4.1988800">
        <ele>39.8</ele>
        <time>2021-07-17T13:46:09Z</time>
      </trkpt>
      <trkpt lat="43.3943300" lon="-4.1989310">
        <ele>39.4</ele>
        <time>2021-07-17T13:46:11Z</time>
      </trkpt>
      <trkpt lat="43.3942990" lon="-4.1989430">
        <ele>39.0</ele>
        <time>2021-07-17T13:46:12Z</time>
      </trkpt>
      <trkpt lat="43.3942660" lon="-4.1989500">
        <ele>38.6</ele>
        <time>2021-07-17T13:46:13Z</time>
      </trkpt>
      <trkpt lat="43.3942330" lon="-4.1989540">
        <ele>38.0</ele>
        <time>2021-07-17T13:46:14Z</time>
      </trkpt>
      <trkpt lat="43.3941980" lon="-4.1989560">
        <ele>37.2</ele>
        <time>2021-07-17T13:46:15Z</time>
      </trkpt>
      <trkpt lat="43.3941650" lon="-4.1989610">
        <ele>36.8</ele>
        <time>2021-07-17T13:46:16Z</time>
      </trkpt>
      <trkpt lat="43.3941340" lon="-4.1989660">
        <ele>36.2</ele>
        <time>2021-07-17T13:46:17Z</time>
      </trkpt>
      <trkpt lat="43.3941080" lon="-4.1989740">
        <ele>35.8</ele>
        <time>2021-07-17T13:46:18Z</time>
      </trkpt>
      <trkpt lat="43.3940850" lon="-4.1989820">
        <ele>35.4</ele>
        <time>2021-07-17T13:46:19Z</time>
      </trkpt>
      <trkpt lat="43.3940680" lon="-4.1989820">
        <ele>35.0</ele>
        <time>2021-07-17T13:46:20Z</time>
      </trkpt>
      <trkpt lat="43.3940490" lon="-4.1989780">
        <ele>34.4</ele>
        <time>2021-07-17T13:46:21Z</time>
      </trkpt>
      <trkpt lat="43.3940340" lon="-4.1989720">
        <ele>34.0</ele>
        <time>2021-07-17T13:46:22Z</time>
      </trkpt>
      <trkpt lat="43.3940200" lon="-4.1989740">
        <ele>33.6</ele>
        <time>2021-07-17T13:46:23Z</time>
      </trkpt>
      <trkpt lat="43.3940120" lon="-4.1989890">
        <ele>33.0</ele>
        <time>2021-07-17T13:46:24Z</time>
      </trkpt>
      <trkpt lat="43.3940250" lon="-4.1990210">
        <ele>33.0</ele>
        <time>2021-07-17T13:46:26Z</time>
      </trkpt>
      <trkpt lat="43.3940290" lon="-4.1990230">
        <ele>33.0</ele>
        <time>2021-07-17T13:46:27Z</time>
      </trkpt>
      <trkpt lat="43.3940770" lon="-4.1990040">
        <ele>33.0</ele>
        <time>2021-07-17T13:46:36Z</time>
      </trkpt>
      <trkpt lat="43.3940930" lon="-4.1989990">
        <ele>33.0</ele>
        <time>2021-07-17T13:46:37Z</time>
      </trkpt>
      <trkpt lat="43.3941240" lon="-4.1989940">
        <ele>33.0</ele>
        <time>2021-07-17T13:46:39Z</time>
      </trkpt>
      <trkpt lat="43.3941550" lon="-4.1989900">
        <ele>33.0</ele>
        <time>2021-07-17T13:46:41Z</time>
      </trkpt>
      <trkpt lat="43.3942040" lon="-4.1989810">
        <ele>33.0</ele>
        <time>2021-07-17T13:46:44Z</time>
      </trkpt>
      <trkpt lat="43.3942700" lon="-4.1989640">
        <ele>33.0</ele>
        <time>2021-07-17T13:46:48Z</time>
      </trkpt>
      <trkpt lat="43.3942870" lon="-4.1989580">
        <ele>33.4</ele>
        <time>2021-07-17T13:46:49Z</time>
      </trkpt>
      <trkpt lat="43.3943030" lon="-4.1989510">
        <ele>34.0</ele>
        <time>2021-07-17T13:46:50Z</time>
      </trkpt>
      <trkpt lat="43.3943180" lon="-4.1989430">
        <ele>34.4</ele>
        <time>2021-07-17T13:46:51Z</time>
      </trkpt>
      <trkpt lat="43.3943320" lon="-4.1989360">
        <ele>34.8</ele>
        <time>2021-07-17T13:46:52Z</time>
      </trkpt>
      <trkpt lat="43.3943460" lon="-4.1989280">
        <ele>35.2</ele>
        <time>2021-07-17T13:46:53Z</time>
      </trkpt>
      <trkpt lat="43.3943800" lon="-4.1988810">
        <ele>35.2</ele>
        <time>2021-07-17T13:46:56Z</time>
      </trkpt>
      <trkpt lat="43.3943910" lon="-4.1988630">
        <ele>35.2</ele>
        <time>2021-07-17T13:46:57Z</time>
      </trkpt>
      <trkpt lat="43.3944010" lon="-4.1988450">
        <ele>35.8</ele>
        <time>2021-07-17T13:46:58Z</time>
      </trkpt>
      <trkpt lat="43.3944110" lon="-4.1988300">
        <ele>36.2</ele>
        <time>2021-07-17T13:46:59Z</time>
      </trkpt>
      <trkpt lat="43.3944220" lon="-4.1988140">
        <ele>36.6</ele>
        <time>2021-07-17T13:47:00Z</time>
      </trkpt>
      <trkpt lat="43.3944330" lon="-4.1988010">
        <ele>37.2</ele>
        <time>2021-07-17T13:47:01Z</time>
      </trkpt>
      <trkpt lat="43.3944440" lon="-4.1987890">
        <ele>37.6</ele>
        <time>2021-07-17T13:47:02Z</time>
      </trkpt>
      <trkpt lat="43.3944740" lon="-4.1987410">
        <ele>37.6</ele>
        <time>2021-07-17T13:47:05Z</time>
      </trkpt>
      <trkpt lat="43.3944990" lon="-4.1986900">
        <ele>38.0</ele>
        <time>2021-07-17T13:47:08Z</time>
      </trkpt>
      <trkpt lat="43.3945090" lon="-4.1986770">
        <ele>38.4</ele>
        <time>2021-07-17T13:47:09Z</time>
      </trkpt>
      <trkpt lat="43.3945200" lon="-4.1986610">
        <ele>38.8</ele>
        <time>2021-07-17T13:47:10Z</time>
      </trkpt>
      <trkpt lat="43.3945300" lon="-4.1986420">
        <ele>39.2</ele>
        <time>2021-07-17T13:47:11Z</time>
      </trkpt>
      <trkpt lat="43.3945390" lon="-4.1986240">
        <ele>39.6</ele>
        <time>2021-07-17T13:47:12Z</time>
      </trkpt>
      <trkpt lat="43.3945560" lon="-4.1985900">
        <ele>39.6</ele>
        <time>2021-07-17T13:47:14Z</time>
      </trkpt>
      <trkpt lat="43.3945870" lon="-4.1985040">
        <ele>39.6</ele>
        <time>2021-07-17T13:47:20Z</time>
      </trkpt>
      <trkpt lat="43.3945960" lon="-4.1984930">
        <ele>39.6</ele>
        <time>2021-07-17T13:47:23Z</time>
      </trkpt>
      <trkpt lat="43.3946700" lon="-4.1983630">
        <ele>40.4</ele>
        <time>2021-07-17T13:47:29Z</time>
      </trkpt>
      <trkpt lat="43.3946850" lon="-4.1983340">
        <ele>41.0</ele>
        <time>2021-07-17T13:47:30Z</time>
      </trkpt>
      <trkpt lat="43.3947010" lon="-4.1983070">
        <ele>41.4</ele>
        <time>2021-07-17T13:47:31Z</time>
      </trkpt>
      <trkpt lat="43.3947170" lon="-4.1982780">
        <ele>41.8</ele>
        <time>2021-07-17T13:47:32Z</time>
      </trkpt>
      <trkpt lat="43.3947790" lon="-4.1981410">
        <ele>41.8</ele>
        <time>2021-07-17T13:47:37Z</time>
      </trkpt>
      <trkpt lat="43.3948050" lon="-4.1980880">
        <ele>41.8</ele>
        <time>2021-07-17T13:47:41Z</time>
      </trkpt>
      <trkpt lat="43.3948080" lon="-4.1980490">
        <ele>41.8</ele>
        <time>2021-07-17T13:47:56Z</time>
      </trkpt>
      <trkpt lat="43.3948080" lon="-4.1980290">
        <ele>41.8</ele>
        <time>2021-07-17T13:47:57Z</time>
      </trkpt>
      <trkpt lat="43.3948040" lon="-4.1979850">
        <ele>41.8</ele>
        <time>2021-07-17T13:47:59Z</time>
      </trkpt>
      <trkpt lat="43.3948270" lon="-4.1977490">
        <ele>41.8</ele>
        <time>2021-07-17T13:48:07Z</time>
      </trkpt>
      <trkpt lat="43.3948780" lon="-4.1975100">
        <ele>41.8</ele>
        <time>2021-07-17T13:48:15Z</time>
      </trkpt>
      <trkpt lat="43.3949050" lon="-4.1974230">
        <ele>41.8</ele>
        <time>2021-07-17T13:48:18Z</time>
      </trkpt>
      <trkpt lat="43.3949360" lon="-4.1973410">
        <ele>42.2</ele>
        <time>2021-07-17T13:48:21Z</time>
      </trkpt>
      <trkpt lat="43.3949470" lon="-4.1973190">
        <ele>42.6</ele>
        <time>2021-07-17T13:48:22Z</time>
      </trkpt>
      <trkpt lat="43.3949590" lon="-4.1973000">
        <ele>43.0</ele>
        <time>2021-07-17T13:48:23Z</time>
      </trkpt>
      <trkpt lat="43.3949700" lon="-4.1972770">
        <ele>43.4</ele>
        <time>2021-07-17T13:48:24Z</time>
      </trkpt>
      <trkpt lat="43.3949790" lon="-4.1972540">
        <ele>44.0</ele>
        <time>2021-07-17T13:48:25Z</time>
      </trkpt>
      <trkpt lat="43.3950310" lon="-4.1971420">
        <ele>44.0</ele>
        <time>2021-07-17T13:48:30Z</time>
      </trkpt>
      <trkpt lat="43.3950420" lon="-4.1971200">
        <ele>44.4</ele>
        <time>2021-07-17T13:48:31Z</time>
      </trkpt>
      <trkpt lat="43.3950520" lon="-4.1970990">
        <ele>44.8</ele>
        <time>2021-07-17T13:48:32Z</time>
      </trkpt>
      <trkpt lat="43.3950630" lon="-4.1970810">
        <ele>45.2</ele>
        <time>2021-07-17T13:48:33Z</time>
      </trkpt>
      <trkpt lat="43.3950770" lon="-4.1970620">
        <ele>45.8</ele>
        <time>2021-07-17T13:48:34Z</time>
      </trkpt>
      <trkpt lat="43.3950920" lon="-4.1970410">
        <ele>46.2</ele>
        <time>2021-07-17T13:48:35Z</time>
      </trkpt>
      <trkpt lat="43.3951110" lon="-4.1970230">
        <ele>46.2</ele>
        <time>2021-07-17T13:48:36Z</time>
      </trkpt>
      <trkpt lat="43.3952020" lon="-4.1969210">
        <ele>46.2</ele>
        <time>2021-07-17T13:48:42Z</time>
      </trkpt>
      <trkpt lat="43.3952160" lon="-4.1968980">
        <ele>46.6</ele>
        <time>2021-07-17T13:48:43Z</time>
      </trkpt>
      <trkpt lat="43.3952310" lon="-4.1968770">
        <ele>47.0</ele>
        <time>2021-07-17T13:48:44Z</time>
      </trkpt>
      <trkpt lat="43.3952450" lon="-4.1968580">
        <ele>47.4</ele>
        <time>2021-07-17T13:48:45Z</time>
      </trkpt>
      <trkpt lat="43.3952590" lon="-4.1968400">
        <ele>47.8</ele>
        <time>2021-07-17T13:48:46Z</time>
      </trkpt>
      <trkpt lat="43.3952720" lon="-4.1968220">
        <ele>48.2</ele>
        <time>2021-07-17T13:48:47Z</time>
      </trkpt>
      <trkpt lat="43.3952970" lon="-4.1967950">
        <ele>48.2</ele>
        <time>2021-07-17T13:48:49Z</time>
      </trkpt>
      <trkpt lat="43.3953590" lon="-4.1967370">
        <ele>48.2</ele>
        <time>2021-07-17T13:48:55Z</time>
      </trkpt>
      <trkpt lat="43.3953410" lon="-4.1966850">
        <ele>48.2</ele>
        <time>2021-07-17T13:49:14Z</time>
      </trkpt>
      <trkpt lat="43.3953220" lon="-4.1966440">
        <ele>48.2</ele>
        <time>2021-07-17T13:49:17Z</time>
      </trkpt>
      <trkpt lat="43.3953200" lon="-4.1966420">
        <ele>48.2</ele>
        <time>2021-07-17T13:49:18Z</time>
      </trkpt>
      <trkpt lat="43.3952780" lon="-4.1965750">
        <ele>50.4</ele>
        <time>2021-07-17T13:51:48Z</time>
      </trkpt>
      <trkpt lat="43.3952700" lon="-4.1965660">
        <ele>50.4</ele>
        <time>2021-07-17T13:51:49Z</time>
      </trkpt>
      <trkpt lat="43.3952660" lon="-4.1965570">
        <ele>50.4</ele>
        <time>2021-07-17T13:51:51Z</time>
      </trkpt>
      <trkpt lat="43.3952470" lon="-4.1965120">
        <ele>50.4</ele>
        <time>2021-07-17T13:51:56Z</time>
      </trkpt>
      <trkpt lat="43.3952420" lon="-4.1964950">
        <ele>50.4</ele>
        <time>2021-07-17T13:51:57Z</time>
      </trkpt>
      <trkpt lat="43.3951810" lon="-4.1963860">
        <ele>50.4</ele>
        <time>2021-07-17T13:52:03Z</time>
      </trkpt>
      <trkpt lat="43.3951500" lon="-4.1963490">
        <ele>50.4</ele>
        <time>2021-07-17T13:52:05Z</time>
      </trkpt>
      <trkpt lat="43.3950390" lon="-4.1961790">
        <ele>50.4</ele>
        <time>2021-07-17T13:52:11Z</time>
      </trkpt>
      <trkpt lat="43.3949920" lon="-4.1961190">
        <ele>50.4</ele>
        <time>2021-07-17T13:52:15Z</time>
      </trkpt>
      <trkpt lat="43.3949900" lon="-4.1961110">
        <ele>50.4</ele>
        <time>2021-07-17T13:52:16Z</time>
      </trkpt>
      <trkpt lat="43.3949950" lon="-4.1961010">
        <ele>50.4</ele>
        <time>2021-07-17T13:52:17Z</time>
      </trkpt>
      <trkpt lat="43.3950430" lon="-4.1961050">
        <ele>50.4</ele>
        <time>2021-07-17T13:52:20Z</time>
      </trkpt>
      <trkpt lat="43.3951060" lon="-4.1961130">
        <ele>50.4</ele>
        <time>2021-07-17T13:52:24Z</time>
      </trkpt>
      <trkpt lat="43.3951450" lon="-4.1961060">
        <ele>50.4</ele>
        <time>2021-07-17T13:52:26Z</time>
      </trkpt>
      <trkpt lat="43.3951640" lon="-4.1961030">
        <ele>51.0</ele>
        <time>2021-07-17T13:52:27Z</time>
      </trkpt>
      <trkpt lat="43.3951810" lon="-4.1961000">
        <ele>51.4</ele>
        <time>2021-07-17T13:52:28Z</time>
      </trkpt>
      <trkpt lat="43.3951980" lon="-4.1960950">
        <ele>51.8</ele>
        <time>2021-07-17T13:52:29Z</time>
      </trkpt>
      <trkpt lat="43.3952150" lon="-4.1960880">
        <ele>52.4</ele>
        <time>2021-07-17T13:52:30Z</time>
      </trkpt>
      <trkpt lat="43.3952320" lon="-4.1960810">
        <ele>52.8</ele>
        <time>2021-07-17T13:52:31Z</time>
      </trkpt>
      <trkpt lat="43.3952500" lon="-4.1960770">
        <ele>52.8</ele>
        <time>2021-07-17T13:52:32Z</time>
      </trkpt>
      <trkpt lat="43.3952740" lon="-4.1960820">
        <ele>52.8</ele>
        <time>2021-07-17T13:52:35Z</time>
      </trkpt>
      <trkpt lat="43.3952410" lon="-4.1961240">
        <ele>52.8</ele>
        <time>2021-07-17T13:53:06Z</time>
      </trkpt>
      <trkpt lat="43.3952210" lon="-4.1961220">
        <ele>52.8</ele>
        <time>2021-07-17T13:53:07Z</time>
      </trkpt>
      <trkpt lat="43.3951670" lon="-4.1961170">
        <ele>52.8</ele>
        <time>2021-07-17T13:53:09Z</time>
      </trkpt>
      <trkpt lat="43.3951050" lon="-4.1961270">
        <ele>52.8</ele>
        <time>2021-07-17T13:53:11Z</time>
      </trkpt>
      <trkpt lat="43.3950410" lon="-4.1961240">
        <ele>52.4</ele>
        <time>2021-07-17T13:53:13Z</time>
      </trkpt>
      <trkpt lat="43.3950070" lon="-4.1961120">
        <ele>51.6</ele>
        <time>2021-07-17T13:53:14Z</time>
      </trkpt>
      <trkpt lat="43.3949800" lon="-4.1960990">
        <ele>51.2</ele>
        <time>2021-07-17T13:53:15Z</time>
      </trkpt>
      <trkpt lat="43.3949580" lon="-4.1960840">
        <ele>50.8</ele>
        <time>2021-07-17T13:53:16Z</time>
      </trkpt>
      <trkpt lat="43.3949350" lon="-4.1960680">
        <ele>50.8</ele>
        <time>2021-07-17T13:53:17Z</time>
      </trkpt>
      <trkpt lat="43.3948340" lon="-4.1960030">
        <ele>50.8</ele>
        <time>2021-07-17T13:53:20Z</time>
      </trkpt>
      <trkpt lat="43.3947970" lon="-4.1959710">
        <ele>50.8</ele>
        <time>2021-07-17T13:53:21Z</time>
      </trkpt>
      <trkpt lat="43.3947210" lon="-4.1959080">
        <ele>50.4</ele>
        <time>2021-07-17T13:53:23Z</time>
      </trkpt>
      <trkpt lat="43.3946840" lon="-4.1958830">
        <ele>49.8</ele>
        <time>2021-07-17T13:53:24Z</time>
      </trkpt>
      <trkpt lat="43.3946490" lon="-4.1958600">
        <ele>49.4</ele>
        <time>2021-07-17T13:53:25Z</time>
      </trkpt>
      <trkpt lat="43.3946150" lon="-4.1958370">
        <ele>49.0</ele>
        <time>2021-07-17T13:53:26Z</time>
      </trkpt>
      <trkpt lat="43.3945870" lon="-4.1958190">
        <ele>48.6</ele>
        <time>2021-07-17T13:53:27Z</time>
      </trkpt>
      <trkpt lat="43.3945610" lon="-4.1958050">
        <ele>48.6</ele>
        <time>2021-07-17T13:53:28Z</time>
      </trkpt>
      <trkpt lat="43.3945160" lon="-4.1957740">
        <ele>48.6</ele>
        <time>2021-07-17T13:53:30Z</time>
      </trkpt>
      <trkpt lat="43.3945020" lon="-4.1957450">
        <ele>48.6</ele>
        <time>2021-07-17T13:53:31Z</time>
      </trkpt>
      <trkpt lat="43.3944740" lon="-4.1956830">
        <ele>48.6</ele>
        <time>2021-07-17T13:53:33Z</time>
      </trkpt>
      <trkpt lat="43.3943970" lon="-4.1956060">
        <ele>48.0</ele>
        <time>2021-07-17T13:53:36Z</time>
      </trkpt>
      <trkpt lat="43.3943580" lon="-4.1955890">
        <ele>47.6</ele>
        <time>2021-07-17T13:53:37Z</time>
      </trkpt>
      <trkpt lat="43.3943120" lon="-4.1955830">
        <ele>47.2</ele>
        <time>2021-07-17T13:53:38Z</time>
      </trkpt>
      <trkpt lat="43.3942660" lon="-4.1955740">
        <ele>46.2</ele>
        <time>2021-07-17T13:53:39Z</time>
      </trkpt>
      <trkpt lat="43.3941840" lon="-4.1955380">
        <ele>45.6</ele>
        <time>2021-07-17T13:53:41Z</time>
      </trkpt>
      <trkpt lat="43.3941450" lon="-4.1955190">
        <ele>45.0</ele>
        <time>2021-07-17T13:53:42Z</time>
      </trkpt>
      <trkpt lat="43.3941050" lon="-4.1955010">
        <ele>44.6</ele>
        <time>2021-07-17T13:53:43Z</time>
      </trkpt>
      <trkpt lat="43.3940640" lon="-4.1954840">
        <ele>44.0</ele>
        <time>2021-07-17T13:53:44Z</time>
      </trkpt>
      <trkpt lat="43.3940250" lon="-4.1954660">
        <ele>43.4</ele>
        <time>2021-07-17T13:53:45Z</time>
      </trkpt>
      <trkpt lat="43.3939880" lon="-4.1954450">
        <ele>42.8</ele>
        <time>2021-07-17T13:53:46Z</time>
      </trkpt>
      <trkpt lat="43.3939510" lon="-4.1954210">
        <ele>42.2</ele>
        <time>2021-07-17T13:53:47Z</time>
      </trkpt>
      <trkpt lat="43.3939090" lon="-4.1953910">
        <ele>41.6</ele>
        <time>2021-07-17T13:53:48Z</time>
      </trkpt>
      <trkpt lat="43.3938680" lon="-4.1953520">
        <ele>41.0</ele>
        <time>2021-07-17T13:53:49Z</time>
      </trkpt>
      <trkpt lat="43.3938270" lon="-4.1953100">
        <ele>40.4</ele>
        <time>2021-07-17T13:53:50Z</time>
      </trkpt>
      <trkpt lat="43.3937890" lon="-4.1952690">
        <ele>40.0</ele>
        <time>2021-07-17T13:53:51Z</time>
      </trkpt>
      <trkpt lat="43.3937540" lon="-4.1952270">
        <ele>39.4</ele>
        <time>2021-07-17T13:53:52Z</time>
      </trkpt>
      <trkpt lat="43.3937210" lon="-4.1951900">
        <ele>38.8</ele>
        <time>2021-07-17T13:53:53Z</time>
      </trkpt>
      <trkpt lat="43.3935970" lon="-4.1950890">
        <ele>38.8</ele>
        <time>2021-07-17T13:53:57Z</time>
      </trkpt>
      <trkpt lat="43.3935750" lon="-4.1950720">
        <ele>38.4</ele>
        <time>2021-07-17T13:53:58Z</time>
      </trkpt>
      <trkpt lat="43.3935570" lon="-4.1950510">
        <ele>37.8</ele>
        <time>2021-07-17T13:53:59Z</time>
      </trkpt>
      <trkpt lat="43.3935420" lon="-4.1950210">
        <ele>37.4</ele>
        <time>2021-07-17T13:54:00Z</time>
      </trkpt>
      <trkpt lat="43.3935380" lon="-4.1949830">
        <ele>36.8</ele>
        <time>2021-07-17T13:54:01Z</time>
      </trkpt>
      <trkpt lat="43.3935440" lon="-4.1949400">
        <ele>36.4</ele>
        <time>2021-07-17T13:54:02Z</time>
      </trkpt>
      <trkpt lat="43.3936100" lon="-4.1947820">
        <ele>36.4</ele>
        <time>2021-07-17T13:54:05Z</time>
      </trkpt>
      <trkpt lat="43.3936470" lon="-4.1947300">
        <ele>36.4</ele>
        <time>2021-07-17T13:54:06Z</time>
      </trkpt>
      <trkpt lat="43.3936840" lon="-4.1946870">
        <ele>36.4</ele>
        <time>2021-07-17T13:54:07Z</time>
      </trkpt>
      <trkpt lat="43.3937770" lon="-4.1946280">
        <ele>36.4</ele>
        <time>2021-07-17T13:54:09Z</time>
      </trkpt>
      <trkpt lat="43.3938840" lon="-4.1945980">
        <ele>36.0</ele>
        <time>2021-07-17T13:54:11Z</time>
      </trkpt>
      <trkpt lat="43.3939370" lon="-4.1945770">
        <ele>35.6</ele>
        <time>2021-07-17T13:54:12Z</time>
      </trkpt>
      <trkpt lat="43.3939870" lon="-4.1945460">
        <ele>35.0</ele>
        <time>2021-07-17T13:54:13Z</time>
      </trkpt>
      <trkpt lat="43.3940330" lon="-4.1945080">
        <ele>34.6</ele>
        <time>2021-07-17T13:54:14Z</time>
      </trkpt>
      <trkpt lat="43.3940780" lon="-4.1944640">
        <ele>34.2</ele>
        <time>2021-07-17T13:54:15Z</time>
      </trkpt>
      <trkpt lat="43.3941230" lon="-4.1944160">
        <ele>33.6</ele>
        <time>2021-07-17T13:54:16Z</time>
      </trkpt>
      <trkpt lat="43.3941680" lon="-4.1943690">
        <ele>33.2</ele>
        <time>2021-07-17T13:54:17Z</time>
      </trkpt>
      <trkpt lat="43.3942140" lon="-4.1943210">
        <ele>32.6</ele>
        <time>2021-07-17T13:54:18Z</time>
      </trkpt>
      <trkpt lat="43.3942620" lon="-4.1942750">
        <ele>32.2</ele>
        <time>2021-07-17T13:54:19Z</time>
      </trkpt>
      <trkpt lat="43.3943070" lon="-4.1942400">
        <ele>32.2</ele>
        <time>2021-07-17T13:54:20Z</time>
      </trkpt>
      <trkpt lat="43.3943530" lon="-4.1942130">
        <ele>32.2</ele>
        <time>2021-07-17T13:54:21Z</time>
      </trkpt>
      <trkpt lat="43.3945170" lon="-4.1941640">
        <ele>31.8</ele>
        <time>2021-07-17T13:54:25Z</time>
      </trkpt>
      <trkpt lat="43.3945500" lon="-4.1941540">
        <ele>31.2</ele>
        <time>2021-07-17T13:54:26Z</time>
      </trkpt>
      <trkpt lat="43.3945660" lon="-4.1941380">
        <ele>30.8</ele>
        <time>2021-07-17T13:54:27Z</time>
      </trkpt>
      <trkpt lat="43.3945760" lon="-4.1941200">
        <ele>30.2</ele>
        <time>2021-07-17T13:54:28Z</time>
      </trkpt>
      <trkpt lat="43.3945780" lon="-4.1940990">
        <ele>29.8</ele>
        <time>2021-07-17T13:54:29Z</time>
      </trkpt>
      <trkpt lat="43.3945640" lon="-4.1940510">
        <ele>29.8</ele>
        <time>2021-07-17T13:54:31Z</time>
      </trkpt>
      <trkpt lat="43.3945540" lon="-4.1940220">
        <ele>29.8</ele>
        <time>2021-07-17T13:54:32Z</time>
      </trkpt>
      <trkpt lat="43.3945320" lon="-4.1939590">
        <ele>29.8</ele>
        <time>2021-07-17T13:54:34Z</time>
      </trkpt>
      <trkpt lat="43.3945060" lon="-4.1938620">
        <ele>29.8</ele>
        <time>2021-07-17T13:54:37Z</time>
      </trkpt>
      <trkpt lat="43.3944640" lon="-4.1937560">
        <ele>29.8</ele>
        <time>2021-07-17T13:54:40Z</time>
      </trkpt>
      <trkpt lat="43.3943310" lon="-4.1936470">
        <ele>29.8</ele>
        <time>2021-07-17T13:54:45Z</time>
      </trkpt>
      <trkpt lat="43.3942100" lon="-4.1935680">
        <ele>29.8</ele>
        <time>2021-07-17T13:54:49Z</time>
      </trkpt>
      <trkpt lat="43.3941190" lon="-4.1935390">
        <ele>29.8</ele>
        <time>2021-07-17T13:54:52Z</time>
      </trkpt>
      <trkpt lat="43.3940030" lon="-4.1934900">
        <ele>29.8</ele>
        <time>2021-07-17T13:54:56Z</time>
      </trkpt>
      <trkpt lat="43.3939430" lon="-4.1934000">
        <ele>29.8</ele>
        <time>2021-07-17T13:54:59Z</time>
      </trkpt>
      <trkpt lat="43.3938770" lon="-4.1932730">
        <ele>29.8</ele>
        <time>2021-07-17T13:55:03Z</time>
      </trkpt>
      <trkpt lat="43.3938550" lon="-4.1932540">
        <ele>30.2</ele>
        <time>2021-07-17T13:55:04Z</time>
      </trkpt>
      <trkpt lat="43.3938300" lon="-4.1932450">
        <ele>30.6</ele>
        <time>2021-07-17T13:55:05Z</time>
      </trkpt>
      <trkpt lat="43.3938030" lon="-4.1932430">
        <ele>31.0</ele>
        <time>2021-07-17T13:55:06Z</time>
      </trkpt>
      <trkpt lat="43.3937730" lon="-4.1932470">
        <ele>31.4</ele>
        <time>2021-07-17T13:55:07Z</time>
      </trkpt>
      <trkpt lat="43.3937400" lon="-4.1932550">
        <ele>31.8</ele>
        <time>2021-07-17T13:55:08Z</time>
      </trkpt>
      <trkpt lat="43.3935790" lon="-4.1932730">
        <ele>31.8</ele>
        <time>2021-07-17T13:55:13Z</time>
      </trkpt>
      <trkpt lat="43.3934190" lon="-4.1932940">
        <ele>31.8</ele>
        <time>2021-07-17T13:55:18Z</time>
      </trkpt>
      <trkpt lat="43.3932950" lon="-4.1933250">
        <ele>31.8</ele>
        <time>2021-07-17T13:55:22Z</time>
      </trkpt>
      <trkpt lat="43.3932620" lon="-4.1933310">
        <ele>32.2</ele>
        <time>2021-07-17T13:55:23Z</time>
      </trkpt>
      <trkpt lat="43.3932320" lon="-4.1933360">
        <ele>32.6</ele>
        <time>2021-07-17T13:55:24Z</time>
      </trkpt>
      <trkpt lat="43.3932030" lon="-4.1933450">
        <ele>33.0</ele>
        <time>2021-07-17T13:55:25Z</time>
      </trkpt>
      <trkpt lat="43.3931760" lon="-4.1933550">
        <ele>33.4</ele>
        <time>2021-07-17T13:55:26Z</time>
      </trkpt>
      <trkpt lat="43.3931500" lon="-4.1933680">
        <ele>33.8</ele>
        <time>2021-07-17T13:55:27Z</time>
      </trkpt>
      <trkpt lat="43.3930950" lon="-4.1933940">
        <ele>33.8</ele>
        <time>2021-07-17T13:55:29Z</time>
      </trkpt>
      <trkpt lat="43.3928480" lon="-4.1935330">
        <ele>34.4</ele>
        <time>2021-07-17T13:55:38Z</time>
      </trkpt>
      <trkpt lat="43.3928190" lon="-4.1935520">
        <ele>34.8</ele>
        <time>2021-07-17T13:55:39Z</time>
      </trkpt>
      <trkpt lat="43.3927930" lon="-4.1935730">
        <ele>35.2</ele>
        <time>2021-07-17T13:55:40Z</time>
      </trkpt>
      <trkpt lat="43.3927680" lon="-4.1935950">
        <ele>35.6</ele>
        <time>2021-07-17T13:55:41Z</time>
      </trkpt>
      <trkpt lat="43.3927450" lon="-4.1936150">
        <ele>36.2</ele>
        <time>2021-07-17T13:55:42Z</time>
      </trkpt>
      <trkpt lat="43.3926560" lon="-4.1936960">
        <ele>36.2</ele>
        <time>2021-07-17T13:55:46Z</time>
      </trkpt>
      <trkpt lat="43.3925170" lon="-4.1938470">
        <ele>36.6</ele>
        <time>2021-07-17T13:55:52Z</time>
      </trkpt>
      <trkpt lat="43.3924910" lon="-4.1938720">
        <ele>37.0</ele>
        <time>2021-07-17T13:55:53Z</time>
      </trkpt>
      <trkpt lat="43.3924660" lon="-4.1939000">
        <ele>37.4</ele>
        <time>2021-07-17T13:55:54Z</time>
      </trkpt>
      <trkpt lat="43.3924440" lon="-4.1939320">
        <ele>37.8</ele>
        <time>2021-07-17T13:55:55Z</time>
      </trkpt>
      <trkpt lat="43.3924240" lon="-4.1939670">
        <ele>38.2</ele>
        <time>2021-07-17T13:55:56Z</time>
      </trkpt>
      <trkpt lat="43.3922500" lon="-4.1942120">
        <ele>38.2</ele>
        <time>2021-07-17T13:56:04Z</time>
      </trkpt>
      <trkpt lat="43.3921410" lon="-4.1943710">
        <ele>38.6</ele>
        <time>2021-07-17T13:56:09Z</time>
      </trkpt>
      <trkpt lat="43.3921230" lon="-4.1944050">
        <ele>39.0</ele>
        <time>2021-07-17T13:56:10Z</time>
      </trkpt>
      <trkpt lat="43.3921030" lon="-4.1944410">
        <ele>39.4</ele>
        <time>2021-07-17T13:56:11Z</time>
      </trkpt>
      <trkpt lat="43.3920840" lon="-4.1944790">
        <ele>39.8</ele>
        <time>2021-07-17T13:56:12Z</time>
      </trkpt>
      <trkpt lat="43.3920640" lon="-4.1945130">
        <ele>40.2</ele>
        <time>2021-07-17T13:56:13Z</time>
      </trkpt>
      <trkpt lat="43.3918620" lon="-4.1948590">
        <ele>40.2</ele>
        <time>2021-07-17T13:56:23Z</time>
      </trkpt>
      <trkpt lat="43.3916670" lon="-4.1951530">
        <ele>40.2</ele>
        <time>2021-07-17T13:56:31Z</time>
      </trkpt>
      <trkpt lat="43.3916230" lon="-4.1952250">
        <ele>40.6</ele>
        <time>2021-07-17T13:56:33Z</time>
      </trkpt>
      <trkpt lat="43.3915980" lon="-4.1952610">
        <ele>41.0</ele>
        <time>2021-07-17T13:56:34Z</time>
      </trkpt>
      <trkpt lat="43.3915740" lon="-4.1952970">
        <ele>41.4</ele>
        <time>2021-07-17T13:56:35Z</time>
      </trkpt>
      <trkpt lat="43.3915500" lon="-4.1953330">
        <ele>41.8</ele>
        <time>2021-07-17T13:56:36Z</time>
      </trkpt>
      <trkpt lat="43.3915260" lon="-4.1953690">
        <ele>42.2</ele>
        <time>2021-07-17T13:56:37Z</time>
      </trkpt>
      <trkpt lat="43.3914610" lon="-4.1954770">
        <ele>42.2</ele>
        <time>2021-07-17T13:56:40Z</time>
      </trkpt>
      <trkpt lat="43.3913310" lon="-4.1957040">
        <ele>42.2</ele>
        <time>2021-07-17T13:56:46Z</time>
      </trkpt>
      <trkpt lat="43.3912360" lon="-4.1958330">
        <ele>42.8</ele>
        <time>2021-07-17T13:56:50Z</time>
      </trkpt>
      <trkpt lat="43.3912140" lon="-4.1958670">
        <ele>43.2</ele>
        <time>2021-07-17T13:56:51Z</time>
      </trkpt>
      <trkpt lat="43.3911910" lon="-4.1959000">
        <ele>43.6</ele>
        <time>2021-07-17T13:56:52Z</time>
      </trkpt>
      <trkpt lat="43.3911650" lon="-4.1959280">
        <ele>44.0</ele>
        <time>2021-07-17T13:56:53Z</time>
      </trkpt>
      <trkpt lat="43.3911400" lon="-4.1959570">
        <ele>44.4</ele>
        <time>2021-07-17T13:56:54Z</time>
      </trkpt>
      <trkpt lat="43.3909400" lon="-4.1962110">
        <ele>44.4</ele>
        <time>2021-07-17T13:57:02Z</time>
      </trkpt>
      <trkpt lat="43.3908150" lon="-4.1963540">
        <ele>44.8</ele>
        <time>2021-07-17T13:57:07Z</time>
      </trkpt>
      <trkpt lat="43.3907890" lon="-4.1963800">
        <ele>45.2</ele>
        <time>2021-07-17T13:57:08Z</time>
      </trkpt>
      <trkpt lat="43.3907620" lon="-4.1964100">
        <ele>45.6</ele>
        <time>2021-07-17T13:57:09Z</time>
      </trkpt>
      <trkpt lat="43.3907370" lon="-4.1964370">
        <ele>46.0</ele>
        <time>2021-07-17T13:57:10Z</time>
      </trkpt>
      <trkpt lat="43.3907160" lon="-4.1964620">
        <ele>46.4</ele>
        <time>2021-07-17T13:57:11Z</time>
      </trkpt>
      <trkpt lat="43.3906310" lon="-4.1965600">
        <ele>46.4</ele>
        <time>2021-07-17T13:57:15Z</time>
      </trkpt>
      <trkpt lat="43.3905830" lon="-4.1966200">
        <ele>46.8</ele>
        <time>2021-07-17T13:57:17Z</time>
      </trkpt>
      <trkpt lat="43.3905580" lon="-4.1966440">
        <ele>47.2</ele>
        <time>2021-07-17T13:57:18Z</time>
      </trkpt>
      <trkpt lat="43.3905340" lon="-4.1966650">
        <ele>47.6</ele>
        <time>2021-07-17T13:57:19Z</time>
      </trkpt>
      <trkpt lat="43.3905110" lon="-4.1966950">
        <ele>48.0</ele>
        <time>2021-07-17T13:57:20Z</time>
      </trkpt>
      <trkpt lat="43.3904890" lon="-4.1967280">
        <ele>48.4</ele>
        <time>2021-07-17T13:57:21Z</time>
      </trkpt>
      <trkpt lat="43.3904650" lon="-4.1967660">
        <ele>48.4</ele>
        <time>2021-07-17T13:57:22Z</time>
      </trkpt>
      <trkpt lat="43.3903340" lon="-4.1969640">
        <ele>48.8</ele>
        <time>2021-07-17T13:57:28Z</time>
      </trkpt>
      <trkpt lat="43.3903150" lon="-4.1969970">
        <ele>49.2</ele>
        <time>2021-07-17T13:57:29Z</time>
      </trkpt>
      <trkpt lat="43.3902960" lon="-4.1970320">
        <ele>49.8</ele>
        <time>2021-07-17T13:57:30Z</time>
      </trkpt>
      <trkpt lat="43.3902760" lon="-4.1970670">
        <ele>50.2</ele>
        <time>2021-07-17T13:57:31Z</time>
      </trkpt>
      <trkpt lat="43.3902590" lon="-4.1971010">
        <ele>50.6</ele>
        <time>2021-07-17T13:57:32Z</time>
      </trkpt>
      <trkpt lat="43.3901620" lon="-4.1972930">
        <ele>50.6</ele>
        <time>2021-07-17T13:57:38Z</time>
      </trkpt>
      <trkpt lat="43.3901470" lon="-4.1973250">
        <ele>51.0</ele>
        <time>2021-07-17T13:57:39Z</time>
      </trkpt>
      <trkpt lat="43.3901320" lon="-4.1973580">
        <ele>51.4</ele>
        <time>2021-07-17T13:57:40Z</time>
      </trkpt>
      <trkpt lat="43.3901180" lon="-4.1973910">
        <ele>51.8</ele>
        <time>2021-07-17T13:57:41Z</time>
      </trkpt>
      <trkpt lat="43.3901060" lon="-4.1974290">
        <ele>52.2</ele>
        <time>2021-07-17T13:57:42Z</time>
      </trkpt>
      <trkpt lat="43.3900920" lon="-4.1974640">
        <ele>52.6</ele>
        <time>2021-07-17T13:57:43Z</time>
      </trkpt>
      <trkpt lat="43.3900500" lon="-4.1975590">
        <ele>52.6</ele>
        <time>2021-07-17T13:57:46Z</time>
      </trkpt>
      <trkpt lat="43.3900010" lon="-4.1977020">
        <ele>53.0</ele>
        <time>2021-07-17T13:57:50Z</time>
      </trkpt>
      <trkpt lat="43.3899910" lon="-4.1977390">
        <ele>53.6</ele>
        <time>2021-07-17T13:57:51Z</time>
      </trkpt>
      <trkpt lat="43.3899810" lon="-4.1977740">
        <ele>54.0</ele>
        <time>2021-07-17T13:57:52Z</time>
      </trkpt>
      <trkpt lat="43.3899710" lon="-4.1978100">
        <ele>54.4</ele>
        <time>2021-07-17T13:57:53Z</time>
      </trkpt>
      <trkpt lat="43.3899590" lon="-4.1978490">
        <ele>54.8</ele>
        <time>2021-07-17T13:57:54Z</time>
      </trkpt>
      <trkpt lat="43.3898910" lon="-4.1981140">
        <ele>55.2</ele>
        <time>2021-07-17T13:58:01Z</time>
      </trkpt>
      <trkpt lat="43.3898820" lon="-4.1981530">
        <ele>55.6</ele>
        <time>2021-07-17T13:58:02Z</time>
      </trkpt>
      <trkpt lat="43.3898720" lon="-4.1981930">
        <ele>56.0</ele>
        <time>2021-07-17T13:58:03Z</time>
      </trkpt>
      <trkpt lat="43.3898620" lon="-4.1982270">
        <ele>56.4</ele>
        <time>2021-07-17T13:58:04Z</time>
      </trkpt>
      <trkpt lat="43.3898530" lon="-4.1982630">
        <ele>57.0</ele>
        <time>2021-07-17T13:58:05Z</time>
      </trkpt>
      <trkpt lat="43.3898310" lon="-4.1983360">
        <ele>57.0</ele>
        <time>2021-07-17T13:58:07Z</time>
      </trkpt>
      <trkpt lat="43.3898120" lon="-4.1984210">
        <ele>57.0</ele>
        <time>2021-07-17T13:58:10Z</time>
      </trkpt>
      <trkpt lat="43.3897840" lon="-4.1985410">
        <ele>57.4</ele>
        <time>2021-07-17T13:58:13Z</time>
      </trkpt>
      <trkpt lat="43.3897730" lon="-4.1985820">
        <ele>57.8</ele>
        <time>2021-07-17T13:58:14Z</time>
      </trkpt>
      <trkpt lat="43.3897650" lon="-4.1986220">
        <ele>58.2</ele>
        <time>2021-07-17T13:58:15Z</time>
      </trkpt>
      <trkpt lat="43.3897560" lon="-4.1986620">
        <ele>58.6</ele>
        <time>2021-07-17T13:58:16Z</time>
      </trkpt>
      <trkpt lat="43.3897460" lon="-4.1987030">
        <ele>59.0</ele>
        <time>2021-07-17T13:58:17Z</time>
      </trkpt>
      <trkpt lat="43.3897160" lon="-4.1988270">
        <ele>59.0</ele>
        <time>2021-07-17T13:58:20Z</time>
      </trkpt>
      <trkpt lat="43.3896240" lon="-4.1992120">
        <ele>59.0</ele>
        <time>2021-07-17T13:58:29Z</time>
      </trkpt>
      <trkpt lat="43.3895100" lon="-4.1995850">
        <ele>59.0</ele>
        <time>2021-07-17T13:58:37Z</time>
      </trkpt>
      <trkpt lat="43.3894930" lon="-4.1996290">
        <ele>59.0</ele>
        <time>2021-07-17T13:58:38Z</time>
      </trkpt>
      <trkpt lat="43.3893990" lon="-4.1998730">
        <ele>59.0</ele>
        <time>2021-07-17T13:58:43Z</time>
      </trkpt>
      <trkpt lat="43.3893740" lon="-4.1999270">
        <ele>59.0</ele>
        <time>2021-07-17T13:58:44Z</time>
      </trkpt>
      <trkpt lat="43.3893250" lon="-4.2000410">
        <ele>59.0</ele>
        <time>2021-07-17T13:58:46Z</time>
      </trkpt>
      <trkpt lat="43.3892730" lon="-4.2001660">
        <ele>59.0</ele>
        <time>2021-07-17T13:58:48Z</time>
      </trkpt>
      <trkpt lat="43.3891890" lon="-4.2003650">
        <ele>59.0</ele>
        <time>2021-07-17T13:58:51Z</time>
      </trkpt>
      <trkpt lat="43.3891250" lon="-4.2005110">
        <ele>59.0</ele>
        <time>2021-07-17T13:58:53Z</time>
      </trkpt>
      <trkpt lat="43.3890500" lon="-4.2006800">
        <ele>59.0</ele>
        <time>2021-07-17T13:58:55Z</time>
      </trkpt>
      <trkpt lat="43.3889310" lon="-4.2009440">
        <ele>59.0</ele>
        <time>2021-07-17T13:58:58Z</time>
      </trkpt>
      <trkpt lat="43.3888880" lon="-4.2010360">
        <ele>59.0</ele>
        <time>2021-07-17T13:58:59Z</time>
      </trkpt>
      <trkpt lat="43.3887140" lon="-4.2014270">
        <ele>58.4</ele>
        <time>2021-07-17T13:59:03Z</time>
      </trkpt>
      <trkpt lat="43.3886700" lon="-4.2015250">
        <ele>58.0</ele>
        <time>2021-07-17T13:59:04Z</time>
      </trkpt>
      <trkpt lat="43.3886270" lon="-4.2016210">
        <ele>57.6</ele>
        <time>2021-07-17T13:59:05Z</time>
      </trkpt>
      <trkpt lat="43.3885850" lon="-4.2017200">
        <ele>57.0</ele>
        <time>2021-07-17T13:59:06Z</time>
      </trkpt>
      <trkpt lat="43.3885430" lon="-4.2018180">
        <ele>56.4</ele>
        <time>2021-07-17T13:59:07Z</time>
      </trkpt>
      <trkpt lat="43.3885010" lon="-4.2019140">
        <ele>55.8</ele>
        <time>2021-07-17T13:59:08Z</time>
      </trkpt>
      <trkpt lat="43.3884600" lon="-4.2020070">
        <ele>55.2</ele>
        <time>2021-07-17T13:59:09Z</time>
      </trkpt>
      <trkpt lat="43.3884180" lon="-4.2021000">
        <ele>54.6</ele>
        <time>2021-07-17T13:59:10Z</time>
      </trkpt>
      <trkpt lat="43.3882390" lon="-4.2025070">
        <ele>54.6</ele>
        <time>2021-07-17T13:59:15Z</time>
      </trkpt>
      <trkpt lat="43.3881070" lon="-4.2028170">
        <ele>54.6</ele>
        <time>2021-07-17T13:59:20Z</time>
      </trkpt>
      <trkpt lat="43.3880610" lon="-4.2029240">
        <ele>54.6</ele>
        <time>2021-07-17T13:59:22Z</time>
      </trkpt>
      <trkpt lat="43.3880150" lon="-4.2030280">
        <ele>54.6</ele>
        <time>2021-07-17T13:59:24Z</time>
      </trkpt>
      <trkpt lat="43.3879710" lon="-4.2031270">
        <ele>54.6</ele>
        <time>2021-07-17T13:59:26Z</time>
      </trkpt>
      <trkpt lat="43.3879040" lon="-4.2032750">
        <ele>54.6</ele>
        <time>2021-07-17T13:59:29Z</time>
      </trkpt>
      <trkpt lat="43.3877930" lon="-4.2035160">
        <ele>55.0</ele>
        <time>2021-07-17T13:59:34Z</time>
      </trkpt>
      <trkpt lat="43.3877710" lon="-4.2035610">
        <ele>55.4</ele>
        <time>2021-07-17T13:59:35Z</time>
      </trkpt>
      <trkpt lat="43.3877510" lon="-4.2036070">
        <ele>55.8</ele>
        <time>2021-07-17T13:59:36Z</time>
      </trkpt>
      <trkpt lat="43.3877320" lon="-4.2036540">
        <ele>56.2</ele>
        <time>2021-07-17T13:59:37Z</time>
      </trkpt>
      <trkpt lat="43.3877110" lon="-4.2037010">
        <ele>56.6</ele>
        <time>2021-07-17T13:59:38Z</time>
      </trkpt>
      <trkpt lat="43.3876910" lon="-4.2037520">
        <ele>56.6</ele>
        <time>2021-07-17T13:59:39Z</time>
      </trkpt>
      <trkpt lat="43.3875230" lon="-4.2041720">
        <ele>56.6</ele>
        <time>2021-07-17T13:59:48Z</time>
      </trkpt>
      <trkpt lat="43.3874530" lon="-4.2043490">
        <ele>56.6</ele>
        <time>2021-07-17T13:59:52Z</time>
      </trkpt>
      <trkpt lat="43.3873690" lon="-4.2045380">
        <ele>56.6</ele>
        <time>2021-07-17T13:59:56Z</time>
      </trkpt>
      <trkpt lat="43.3872650" lon="-4.2048070">
        <ele>56.6</ele>
        <time>2021-07-17T14:00:01Z</time>
      </trkpt>
      <trkpt lat="43.3872210" lon="-4.2049280">
        <ele>56.6</ele>
        <time>2021-07-17T14:00:03Z</time>
      </trkpt>
      <trkpt lat="43.3872020" lon="-4.2049930">
        <ele>56.6</ele>
        <time>2021-07-17T14:00:04Z</time>
      </trkpt>
      <trkpt lat="43.3871570" lon="-4.2051300">
        <ele>56.6</ele>
        <time>2021-07-17T14:00:06Z</time>
      </trkpt>
      <trkpt lat="43.3870870" lon="-4.2053780">
        <ele>56.6</ele>
        <time>2021-07-17T14:00:09Z</time>
      </trkpt>
      <trkpt lat="43.3870020" lon="-4.2057630">
        <ele>56.6</ele>
        <time>2021-07-17T14:00:13Z</time>
      </trkpt>
      <trkpt lat="43.3869610" lon="-4.2059760">
        <ele>56.6</ele>
        <time>2021-07-17T14:00:15Z</time>
      </trkpt>
      <trkpt lat="43.3869140" lon="-4.2063020">
        <ele>56.6</ele>
        <time>2021-07-17T14:00:18Z</time>
      </trkpt>
      <trkpt lat="43.3868940" lon="-4.2065210">
        <ele>56.6</ele>
        <time>2021-07-17T14:00:20Z</time>
      </trkpt>
      <trkpt lat="43.3868790" lon="-4.2067340">
        <ele>56.6</ele>
        <time>2021-07-17T14:00:22Z</time>
      </trkpt>
      <trkpt lat="43.3868640" lon="-4.2069390">
        <ele>56.2</ele>
        <time>2021-07-17T14:00:24Z</time>
      </trkpt>
      <trkpt lat="43.3868570" lon="-4.2070350">
        <ele>55.6</ele>
        <time>2021-07-17T14:00:25Z</time>
      </trkpt>
      <trkpt lat="43.3868540" lon="-4.2071280">
        <ele>54.8</ele>
        <time>2021-07-17T14:00:26Z</time>
      </trkpt>
      <trkpt lat="43.3868530" lon="-4.2072200">
        <ele>54.2</ele>
        <time>2021-07-17T14:00:27Z</time>
      </trkpt>
      <trkpt lat="43.3868520" lon="-4.2073110">
        <ele>53.4</ele>
        <time>2021-07-17T14:00:28Z</time>
      </trkpt>
      <trkpt lat="43.3868520" lon="-4.2073980">
        <ele>52.6</ele>
        <time>2021-07-17T14:00:29Z</time>
      </trkpt>
      <trkpt lat="43.3868510" lon="-4.2074860">
        <ele>52.0</ele>
        <time>2021-07-17T14:00:30Z</time>
      </trkpt>
      <trkpt lat="43.3868390" lon="-4.2077180">
        <ele>52.0</ele>
        <time>2021-07-17T14:00:33Z</time>
      </trkpt>
      <trkpt lat="43.3868350" lon="-4.2078540">
        <ele>52.0</ele>
        <time>2021-07-17T14:00:35Z</time>
      </trkpt>
      <trkpt lat="43.3868350" lon="-4.2079750">
        <ele>52.0</ele>
        <time>2021-07-17T14:00:37Z</time>
      </trkpt>
      <trkpt lat="43.3868390" lon="-4.2081720">
        <ele>52.0</ele>
        <time>2021-07-17T14:00:41Z</time>
      </trkpt>
      <trkpt lat="43.3868390" lon="-4.2082170">
        <ele>52.0</ele>
        <time>2021-07-17T14:00:42Z</time>
      </trkpt>
      <trkpt lat="43.3868340" lon="-4.2082620">
        <ele>52.0</ele>
        <time>2021-07-17T14:00:43Z</time>
      </trkpt>
      <trkpt lat="43.3868300" lon="-4.2083080">
        <ele>52.0</ele>
        <time>2021-07-17T14:00:44Z</time>
      </trkpt>
      <trkpt lat="43.3868290" lon="-4.2083980">
        <ele>52.0</ele>
        <time>2021-07-17T14:00:46Z</time>
      </trkpt>
      <trkpt lat="43.3868290" lon="-4.2084420">
        <ele>52.0</ele>
        <time>2021-07-17T14:00:47Z</time>
      </trkpt>
      <trkpt lat="43.3868260" lon="-4.2086190">
        <ele>52.0</ele>
        <time>2021-07-17T14:00:51Z</time>
      </trkpt>
      <trkpt lat="43.3868290" lon="-4.2087500">
        <ele>52.0</ele>
        <time>2021-07-17T14:00:54Z</time>
      </trkpt>
      <trkpt lat="43.3868290" lon="-4.2087960">
        <ele>52.0</ele>
        <time>2021-07-17T14:00:55Z</time>
      </trkpt>
      <trkpt lat="43.3868260" lon="-4.2089250">
        <ele>52.0</ele>
        <time>2021-07-17T14:00:58Z</time>
      </trkpt>
      <trkpt lat="43.3868300" lon="-4.2090060">
        <ele>52.4</ele>
        <time>2021-07-17T14:01:00Z</time>
      </trkpt>
      <trkpt lat="43.3868310" lon="-4.2090450">
        <ele>52.8</ele>
        <time>2021-07-17T14:01:01Z</time>
      </trkpt>
      <trkpt lat="43.3868300" lon="-4.2090880">
        <ele>53.2</ele>
        <time>2021-07-17T14:01:02Z</time>
      </trkpt>
      <trkpt lat="43.3868280" lon="-4.2091310">
        <ele>53.6</ele>
        <time>2021-07-17T14:01:03Z</time>
      </trkpt>
      <trkpt lat="43.3868290" lon="-4.2091710">
        <ele>54.0</ele>
        <time>2021-07-17T14:01:04Z</time>
      </trkpt>
      <trkpt lat="43.3868340" lon="-4.2092950">
        <ele>54.0</ele>
        <time>2021-07-17T14:01:07Z</time>
      </trkpt>
      <trkpt lat="43.3868420" lon="-4.2094160">
        <ele>54.0</ele>
        <time>2021-07-17T14:01:10Z</time>
      </trkpt>
      <trkpt lat="43.3868510" lon="-4.2094990">
        <ele>54.0</ele>
        <time>2021-07-17T14:01:12Z</time>
      </trkpt>
      <trkpt lat="43.3868520" lon="-4.2095400">
        <ele>54.4</ele>
        <time>2021-07-17T14:01:13Z</time>
      </trkpt>
      <trkpt lat="43.3868540" lon="-4.2095820">
        <ele>54.8</ele>
        <time>2021-07-17T14:01:14Z</time>
      </trkpt>
      <trkpt lat="43.3868570" lon="-4.2096240">
        <ele>55.2</ele>
        <time>2021-07-17T14:01:15Z</time>
      </trkpt>
      <trkpt lat="43.3868610" lon="-4.2096650">
        <ele>55.8</ele>
        <time>2021-07-17T14:01:16Z</time>
      </trkpt>
      <trkpt lat="43.3868640" lon="-4.2097040">
        <ele>56.2</ele>
        <time>2021-07-17T14:01:17Z</time>
      </trkpt>
      <trkpt lat="43.3868770" lon="-4.2098560">
        <ele>56.2</ele>
        <time>2021-07-17T14:01:21Z</time>
      </trkpt>
      <trkpt lat="43.3869030" lon="-4.2100200">
        <ele>56.2</ele>
        <time>2021-07-17T14:01:27Z</time>
      </trkpt>
      <trkpt lat="43.3869040" lon="-4.2100450">
        <ele>56.2</ele>
        <time>2021-07-17T14:01:30Z</time>
      </trkpt>
      <trkpt lat="43.3869090" lon="-4.2100690">
        <ele>56.2</ele>
        <time>2021-07-17T14:01:36Z</time>
      </trkpt>
      <trkpt lat="43.3869130" lon="-4.2100920">
        <ele>56.6</ele>
        <time>2021-07-17T14:01:37Z</time>
      </trkpt>
      <trkpt lat="43.3869160" lon="-4.2101090">
        <ele>57.0</ele>
        <time>2021-07-17T14:01:38Z</time>
      </trkpt>
      <trkpt lat="43.3869220" lon="-4.2101310">
        <ele>57.4</ele>
        <time>2021-07-17T14:01:39Z</time>
      </trkpt>
      <trkpt lat="43.3869250" lon="-4.2101560">
        <ele>57.8</ele>
        <time>2021-07-17T14:01:40Z</time>
      </trkpt>
      <trkpt lat="43.3869300" lon="-4.2101810">
        <ele>58.2</ele>
        <time>2021-07-17T14:01:41Z</time>
      </trkpt>
      <trkpt lat="43.3869390" lon="-4.2102350">
        <ele>58.2</ele>
        <time>2021-07-17T14:01:43Z</time>
      </trkpt>
      <trkpt lat="43.3869650" lon="-4.2104300">
        <ele>58.2</ele>
        <time>2021-07-17T14:01:51Z</time>
      </trkpt>
      <trkpt lat="43.3869790" lon="-4.2104990">
        <ele>58.2</ele>
        <time>2021-07-17T14:01:56Z</time>
      </trkpt>
      <trkpt lat="43.3869790" lon="-4.2105310">
        <ele>58.2</ele>
        <time>2021-07-17T14:02:23Z</time>
      </trkpt>
      <trkpt lat="43.3869820" lon="-4.2105590">
        <ele>58.2</ele>
        <time>2021-07-17T14:02:24Z</time>
      </trkpt>
      <trkpt lat="43.3870240" lon="-4.2107590">
        <ele>58.2</ele>
        <time>2021-07-17T14:02:29Z</time>
      </trkpt>
      <trkpt lat="43.3871160" lon="-4.2111710">
        <ele>58.2</ele>
        <time>2021-07-17T14:02:37Z</time>
      </trkpt>
      <trkpt lat="43.3871520" lon="-4.2113360">
        <ele>58.2</ele>
        <time>2021-07-17T14:02:40Z</time>
      </trkpt>
      <trkpt lat="43.3872170" lon="-4.2116140">
        <ele>58.2</ele>
        <time>2021-07-17T14:02:45Z</time>
      </trkpt>
      <trkpt lat="43.3872440" lon="-4.2117290">
        <ele>58.2</ele>
        <time>2021-07-17T14:02:47Z</time>
      </trkpt>
      <trkpt lat="43.3873300" lon="-4.2121010">
        <ele>58.2</ele>
        <time>2021-07-17T14:02:54Z</time>
      </trkpt>
      <trkpt lat="43.3873450" lon="-4.2121540">
        <ele>58.2</ele>
        <time>2021-07-17T14:02:55Z</time>
      </trkpt>
      <trkpt lat="43.3873870" lon="-4.2123050">
        <ele>58.6</ele>
        <time>2021-07-17T14:02:58Z</time>
      </trkpt>
      <trkpt lat="43.3874010" lon="-4.2123510">
        <ele>59.0</ele>
        <time>2021-07-17T14:02:59Z</time>
      </trkpt>
      <trkpt lat="43.3874160" lon="-4.2123960">
        <ele>59.4</ele>
        <time>2021-07-17T14:03:00Z</time>
      </trkpt>
      <trkpt lat="43.3874260" lon="-4.2124400">
        <ele>59.8</ele>
        <time>2021-07-17T14:03:01Z</time>
      </trkpt>
      <trkpt lat="43.3874350" lon="-4.2124820">
        <ele>60.2</ele>
        <time>2021-07-17T14:03:02Z</time>
      </trkpt>
      <trkpt lat="43.3874470" lon="-4.2125240">
        <ele>60.2</ele>
        <time>2021-07-17T14:03:03Z</time>
      </trkpt>
      <trkpt lat="43.3875130" lon="-4.2127870">
        <ele>60.2</ele>
        <time>2021-07-17T14:03:10Z</time>
      </trkpt>
      <trkpt lat="43.3876020" lon="-4.2130780">
        <ele>60.2</ele>
        <time>2021-07-17T14:03:17Z</time>
      </trkpt>
      <trkpt lat="43.3876610" lon="-4.2133650">
        <ele>60.2</ele>
        <time>2021-07-17T14:03:24Z</time>
      </trkpt>
      <trkpt lat="43.3877010" lon="-4.2136570">
        <ele>60.2</ele>
        <time>2021-07-17T14:03:30Z</time>
      </trkpt>
      <trkpt lat="43.3877140" lon="-4.2140880">
        <ele>60.2</ele>
        <time>2021-07-17T14:03:38Z</time>
      </trkpt>
      <trkpt lat="43.3877550" lon="-4.2143370">
        <ele>60.2</ele>
        <time>2021-07-17T14:03:43Z</time>
      </trkpt>
      <trkpt lat="43.3877640" lon="-4.2143980">
        <ele>60.2</ele>
        <time>2021-07-17T14:03:45Z</time>
      </trkpt>
      <trkpt lat="43.3877660" lon="-4.2144410">
        <ele>60.2</ele>
        <time>2021-07-17T14:03:47Z</time>
      </trkpt>
      <trkpt lat="43.3877660" lon="-4.2144380">
        <ele>60.2</ele>
        <time>2021-07-17T14:03:48Z</time>
      </trkpt>
      <trkpt lat="43.3877580" lon="-4.2143960">
        <ele>60.2</ele>
        <time>2021-07-17T14:06:16Z</time>
      </trkpt>
      <trkpt lat="43.3877570" lon="-4.2143800">
        <ele>60.2</ele>
        <time>2021-07-17T14:06:17Z</time>
      </trkpt>
      <trkpt lat="43.3877430" lon="-4.2143310">
        <ele>60.2</ele>
        <time>2021-07-17T14:06:22Z</time>
      </trkpt>
      <trkpt lat="43.3876820" lon="-4.2143640">
        <ele>60.2</ele>
        <time>2021-07-17T14:06:26Z</time>
      </trkpt>
      <trkpt lat="43.3876670" lon="-4.2144320">
        <ele>60.2</ele>
        <time>2021-07-17T14:06:28Z</time>
      </trkpt>
      <trkpt lat="43.3876500" lon="-4.2145210">
        <ele>60.2</ele>
        <time>2021-07-17T14:06:30Z</time>
      </trkpt>
      <trkpt lat="43.3876120" lon="-4.2146840">
        <ele>60.2</ele>
        <time>2021-07-17T14:06:33Z</time>
      </trkpt>
      <trkpt lat="43.3875620" lon="-4.2148480">
        <ele>60.2</ele>
        <time>2021-07-17T14:06:36Z</time>
      </trkpt>
      <trkpt lat="43.3874970" lon="-4.2150340">
        <ele>60.2</ele>
        <time>2021-07-17T14:06:40Z</time>
      </trkpt>
      <trkpt lat="43.3874500" lon="-4.2151640">
        <ele>60.2</ele>
        <time>2021-07-17T14:06:43Z</time>
      </trkpt>
      <trkpt lat="43.3873980" lon="-4.2153340">
        <ele>60.2</ele>
        <time>2021-07-17T14:06:47Z</time>
      </trkpt>
      <trkpt lat="43.3873360" lon="-4.2154820">
        <ele>60.2</ele>
        <time>2021-07-17T14:06:51Z</time>
      </trkpt>
      <trkpt lat="43.3873020" lon="-4.2155500">
        <ele>60.2</ele>
        <time>2021-07-17T14:06:53Z</time>
      </trkpt>
      <trkpt lat="43.3872420" lon="-4.2157150">
        <ele>60.6</ele>
        <time>2021-07-17T14:06:57Z</time>
      </trkpt>
      <trkpt lat="43.3872260" lon="-4.2157540">
        <ele>61.0</ele>
        <time>2021-07-17T14:06:58Z</time>
      </trkpt>
      <trkpt lat="43.3872100" lon="-4.2157950">
        <ele>61.6</ele>
        <time>2021-07-17T14:06:59Z</time>
      </trkpt>
      <trkpt lat="43.3871980" lon="-4.2158350">
        <ele>62.0</ele>
        <time>2021-07-17T14:07:00Z</time>
      </trkpt>
      <trkpt lat="43.3871800" lon="-4.2158800">
        <ele>62.4</ele>
        <time>2021-07-17T14:07:01Z</time>
      </trkpt>
      <trkpt lat="43.3871300" lon="-4.2160210">
        <ele>62.4</ele>
        <time>2021-07-17T14:07:04Z</time>
      </trkpt>
      <trkpt lat="43.3871060" lon="-4.2161310">
        <ele>62.4</ele>
        <time>2021-07-17T14:07:06Z</time>
      </trkpt>
      <trkpt lat="43.3870730" lon="-4.2163620">
        <ele>62.4</ele>
        <time>2021-07-17T14:07:10Z</time>
      </trkpt>
      <trkpt lat="43.3870630" lon="-4.2165990">
        <ele>62.4</ele>
        <time>2021-07-17T14:07:14Z</time>
      </trkpt>
      <trkpt lat="43.3870640" lon="-4.2168120">
        <ele>62.4</ele>
        <time>2021-07-17T14:07:18Z</time>
      </trkpt>
      <trkpt lat="43.3870670" lon="-4.2169150">
        <ele>62.8</ele>
        <time>2021-07-17T14:07:20Z</time>
      </trkpt>
      <trkpt lat="43.3870680" lon="-4.2169660">
        <ele>63.2</ele>
        <time>2021-07-17T14:07:21Z</time>
      </trkpt>
      <trkpt lat="43.3870660" lon="-4.2170200">
        <ele>63.6</ele>
        <time>2021-07-17T14:07:22Z</time>
      </trkpt>
      <trkpt lat="43.3870630" lon="-4.2170720">
        <ele>64.0</ele>
        <time>2021-07-17T14:07:23Z</time>
      </trkpt>
      <trkpt lat="43.3870600" lon="-4.2171230">
        <ele>64.4</ele>
        <time>2021-07-17T14:07:24Z</time>
      </trkpt>
      <trkpt lat="43.3870400" lon="-4.2173620">
        <ele>64.4</ele>
        <time>2021-07-17T14:07:28Z</time>
      </trkpt>
      <trkpt lat="43.3870200" lon="-4.2174250">
        <ele>64.4</ele>
        <time>2021-07-17T14:07:29Z</time>
      </trkpt>
      <trkpt lat="43.3869340" lon="-4.2176480">
        <ele>64.4</ele>
        <time>2021-07-17T14:07:33Z</time>
      </trkpt>
      <trkpt lat="43.3867640" lon="-4.2178870">
        <ele>64.4</ele>
        <time>2021-07-17T14:07:38Z</time>
      </trkpt>
      <trkpt lat="43.3867200" lon="-4.2179310">
        <ele>64.4</ele>
        <time>2021-07-17T14:07:39Z</time>
      </trkpt>
      <trkpt lat="43.3865620" lon="-4.2180630">
        <ele>64.4</ele>
        <time>2021-07-17T14:07:42Z</time>
      </trkpt>
      <trkpt lat="43.3864580" lon="-4.2181410">
        <ele>64.0</ele>
        <time>2021-07-17T14:07:44Z</time>
      </trkpt>
      <trkpt lat="43.3864030" lon="-4.2181810">
        <ele>63.6</ele>
        <time>2021-07-17T14:07:45Z</time>
      </trkpt>
      <trkpt lat="43.3863450" lon="-4.2182230">
        <ele>63.2</ele>
        <time>2021-07-17T14:07:46Z</time>
      </trkpt>
      <trkpt lat="43.3862890" lon="-4.2182690">
        <ele>62.8</ele>
        <time>2021-07-17T14:07:47Z</time>
      </trkpt>
      <trkpt lat="43.3862320" lon="-4.2183220">
        <ele>62.4</ele>
        <time>2021-07-17T14:07:48Z</time>
      </trkpt>
      <trkpt lat="43.3861290" lon="-4.2184370">
        <ele>62.0</ele>
        <time>2021-07-17T14:07:50Z</time>
      </trkpt>
      <trkpt lat="43.3860770" lon="-4.2185020">
        <ele>61.4</ele>
        <time>2021-07-17T14:07:51Z</time>
      </trkpt>
      <trkpt lat="43.3860330" lon="-4.2185730">
        <ele>61.0</ele>
        <time>2021-07-17T14:07:52Z</time>
      </trkpt>
      <trkpt lat="43.3859890" lon="-4.2186390">
        <ele>60.6</ele>
        <time>2021-07-17T14:07:53Z</time>
      </trkpt>
      <trkpt lat="43.3859530" lon="-4.2187170">
        <ele>60.2</ele>
        <time>2021-07-17T14:07:54Z</time>
      </trkpt>
      <trkpt lat="43.3859260" lon="-4.2187990">
        <ele>59.6</ele>
        <time>2021-07-17T14:07:55Z</time>
      </trkpt>
      <trkpt lat="43.3859000" lon="-4.2189000">
        <ele>59.2</ele>
        <time>2021-07-17T14:07:56Z</time>
      </trkpt>
      <trkpt lat="43.3858860" lon="-4.2190000">
        <ele>58.8</ele>
        <time>2021-07-17T14:07:57Z</time>
      </trkpt>
      <trkpt lat="43.3858790" lon="-4.2191010">
        <ele>58.4</ele>
        <time>2021-07-17T14:07:58Z</time>
      </trkpt>
      <trkpt lat="43.3858810" lon="-4.2192040">
        <ele>58.0</ele>
        <time>2021-07-17T14:07:59Z</time>
      </trkpt>
      <trkpt lat="43.3858980" lon="-4.2193040">
        <ele>57.6</ele>
        <time>2021-07-17T14:08:00Z</time>
      </trkpt>
      <trkpt lat="43.3859230" lon="-4.2194000">
        <ele>57.2</ele>
        <time>2021-07-17T14:08:01Z</time>
      </trkpt>
      <trkpt lat="43.3859500" lon="-4.2194890">
        <ele>56.6</ele>
        <time>2021-07-17T14:08:02Z</time>
      </trkpt>
      <trkpt lat="43.3859880" lon="-4.2195810">
        <ele>56.2</ele>
        <time>2021-07-17T14:08:03Z</time>
      </trkpt>
      <trkpt lat="43.3860300" lon="-4.2196610">
        <ele>55.8</ele>
        <time>2021-07-17T14:08:04Z</time>
      </trkpt>
      <trkpt lat="43.3860760" lon="-4.2197400">
        <ele>55.2</ele>
        <time>2021-07-17T14:08:05Z</time>
      </trkpt>
      <trkpt lat="43.3861310" lon="-4.2198120">
        <ele>54.2</ele>
        <time>2021-07-17T14:08:06Z</time>
      </trkpt>
      <trkpt lat="43.3861930" lon="-4.2198770">
        <ele>53.6</ele>
        <time>2021-07-17T14:08:07Z</time>
      </trkpt>
      <trkpt lat="43.3863270" lon="-4.2200050">
        <ele>53.6</ele>
        <time>2021-07-17T14:08:09Z</time>
      </trkpt>
      <trkpt lat="43.3864830" lon="-4.2201360">
        <ele>53.0</ele>
        <time>2021-07-17T14:08:11Z</time>
      </trkpt>
      <trkpt lat="43.3865610" lon="-4.2201980">
        <ele>52.6</ele>
        <time>2021-07-17T14:08:12Z</time>
      </trkpt>
      <trkpt lat="43.3866380" lon="-4.2202600">
        <ele>52.0</ele>
        <time>2021-07-17T14:08:13Z</time>
      </trkpt>
      <trkpt lat="43.3867130" lon="-4.2203250">
        <ele>51.4</ele>
        <time>2021-07-17T14:08:14Z</time>
      </trkpt>
      <trkpt lat="43.3867870" lon="-4.2203890">
        <ele>50.8</ele>
        <time>2021-07-17T14:08:15Z</time>
      </trkpt>
      <trkpt lat="43.3868610" lon="-4.2204520">
        <ele>50.2</ele>
        <time>2021-07-17T14:08:16Z</time>
      </trkpt>
      <trkpt lat="43.3869370" lon="-4.2205130">
        <ele>49.4</ele>
        <time>2021-07-17T14:08:17Z</time>
      </trkpt>
      <trkpt lat="43.3870090" lon="-4.2205810">
        <ele>48.8</ele>
        <time>2021-07-17T14:08:18Z</time>
      </trkpt>
      <trkpt lat="43.3870810" lon="-4.2206470">
        <ele>48.8</ele>
        <time>2021-07-17T14:08:19Z</time>
      </trkpt>
      <trkpt lat="43.3871480" lon="-4.2207180">
        <ele>48.4</ele>
        <time>2021-07-17T14:08:20Z</time>
      </trkpt>
      <trkpt lat="43.3872090" lon="-4.2207980">
        <ele>48.0</ele>
        <time>2021-07-17T14:08:21Z</time>
      </trkpt>
      <trkpt lat="43.3872690" lon="-4.2208850">
        <ele>47.4</ele>
        <time>2021-07-17T14:08:22Z</time>
      </trkpt>
      <trkpt lat="43.3873220" lon="-4.2209780">
        <ele>47.0</ele>
        <time>2021-07-17T14:08:23Z</time>
      </trkpt>
      <trkpt lat="43.3873640" lon="-4.2210830">
        <ele>46.4</ele>
        <time>2021-07-17T14:08:24Z</time>
      </trkpt>
      <trkpt lat="43.3874030" lon="-4.2211980">
        <ele>46.0</ele>
        <time>2021-07-17T14:08:25Z</time>
      </trkpt>
      <trkpt lat="43.3874270" lon="-4.2213170">
        <ele>45.4</ele>
        <time>2021-07-17T14:08:26Z</time>
      </trkpt>
      <trkpt lat="43.3874480" lon="-4.2214370">
        <ele>44.8</ele>
        <time>2021-07-17T14:08:27Z</time>
      </trkpt>
      <trkpt lat="43.3874540" lon="-4.2215570">
        <ele>44.4</ele>
        <time>2021-07-17T14:08:28Z</time>
      </trkpt>
      <trkpt lat="43.3874490" lon="-4.2216800">
        <ele>43.8</ele>
        <time>2021-07-17T14:08:29Z</time>
      </trkpt>
      <trkpt lat="43.3874410" lon="-4.2218060">
        <ele>43.4</ele>
        <time>2021-07-17T14:08:30Z</time>
      </trkpt>
      <trkpt lat="43.3874230" lon="-4.2219350">
        <ele>42.2</ele>
        <time>2021-07-17T14:08:31Z</time>
      </trkpt>
      <trkpt lat="43.3874000" lon="-4.2220580">
        <ele>41.8</ele>
        <time>2021-07-17T14:08:32Z</time>
      </trkpt>
      <trkpt lat="43.3873590" lon="-4.2221920">
        <ele>41.2</ele>
        <time>2021-07-17T14:08:33Z</time>
      </trkpt>
      <trkpt lat="43.3873140" lon="-4.2223160">
        <ele>40.8</ele>
        <time>2021-07-17T14:08:34Z</time>
      </trkpt>
      <trkpt lat="43.3872680" lon="-4.2224440">
        <ele>40.2</ele>
        <time>2021-07-17T14:08:35Z</time>
      </trkpt>
      <trkpt lat="43.3872170" lon="-4.2225650">
        <ele>39.6</ele>
        <time>2021-07-17T14:08:36Z</time>
      </trkpt>
      <trkpt lat="43.3871650" lon="-4.2226930">
        <ele>39.2</ele>
        <time>2021-07-17T14:08:37Z</time>
      </trkpt>
      <trkpt lat="43.3871120" lon="-4.2228170">
        <ele>38.6</ele>
        <time>2021-07-17T14:08:38Z</time>
      </trkpt>
      <trkpt lat="43.3870580" lon="-4.2229380">
        <ele>37.8</ele>
        <time>2021-07-17T14:08:39Z</time>
      </trkpt>
      <trkpt lat="43.3870000" lon="-4.2230660">
        <ele>37.2</ele>
        <time>2021-07-17T14:08:40Z</time>
      </trkpt>
      <trkpt lat="43.3869420" lon="-4.2231810">
        <ele>36.4</ele>
        <time>2021-07-17T14:08:41Z</time>
      </trkpt>
      <trkpt lat="43.3868780" lon="-4.2232880">
        <ele>35.6</ele>
        <time>2021-07-17T14:08:42Z</time>
      </trkpt>
      <trkpt lat="43.3868150" lon="-4.2233850">
        <ele>35.0</ele>
        <time>2021-07-17T14:08:43Z</time>
      </trkpt>
      <trkpt lat="43.3867480" lon="-4.2234700">
        <ele>34.4</ele>
        <time>2021-07-17T14:08:44Z</time>
      </trkpt>
      <trkpt lat="43.3866790" lon="-4.2235470">
        <ele>34.0</ele>
        <time>2021-07-17T14:08:45Z</time>
      </trkpt>
      <trkpt lat="43.3866120" lon="-4.2236090">
        <ele>33.4</ele>
        <time>2021-07-17T14:08:46Z</time>
      </trkpt>
      <trkpt lat="43.3865350" lon="-4.2236540">
        <ele>32.8</ele>
        <time>2021-07-17T14:08:47Z</time>
      </trkpt>
      <trkpt lat="43.3864470" lon="-4.2236860">
        <ele>32.8</ele>
        <time>2021-07-17T14:08:48Z</time>
      </trkpt>
      <trkpt lat="43.3862780" lon="-4.2237250">
        <ele>32.8</ele>
        <time>2021-07-17T14:08:50Z</time>
      </trkpt>
      <trkpt lat="43.3861350" lon="-4.2237650">
        <ele>32.4</ele>
        <time>2021-07-17T14:08:52Z</time>
      </trkpt>
      <trkpt lat="43.3860740" lon="-4.2237810">
        <ele>32.0</ele>
        <time>2021-07-17T14:08:53Z</time>
      </trkpt>
      <trkpt lat="43.3860120" lon="-4.2237900">
        <ele>31.6</ele>
        <time>2021-07-17T14:08:54Z</time>
      </trkpt>
      <trkpt lat="43.3859500" lon="-4.2237960">
        <ele>31.2</ele>
        <time>2021-07-17T14:08:55Z</time>
      </trkpt>
      <trkpt lat="43.3858970" lon="-4.2238010">
        <ele>30.8</ele>
        <time>2021-07-17T14:08:56Z</time>
      </trkpt>
      <trkpt lat="43.3858480" lon="-4.2238100">
        <ele>30.8</ele>
        <time>2021-07-17T14:08:57Z</time>
      </trkpt>
      <trkpt lat="43.3857980" lon="-4.2238190">
        <ele>30.8</ele>
        <time>2021-07-17T14:08:58Z</time>
      </trkpt>
      <trkpt lat="43.3857490" lon="-4.2238230">
        <ele>30.8</ele>
        <time>2021-07-17T14:08:59Z</time>
      </trkpt>
      <trkpt lat="43.3856650" lon="-4.2238360">
        <ele>30.8</ele>
        <time>2021-07-17T14:09:01Z</time>
      </trkpt>
      <trkpt lat="43.3855720" lon="-4.2238570">
        <ele>30.8</ele>
        <time>2021-07-17T14:09:03Z</time>
      </trkpt>
      <trkpt lat="43.3854870" lon="-4.2238870">
        <ele>30.8</ele>
        <time>2021-07-17T14:09:05Z</time>
      </trkpt>
      <trkpt lat="43.3854090" lon="-4.2239210">
        <ele>30.8</ele>
        <time>2021-07-17T14:09:07Z</time>
      </trkpt>
      <trkpt lat="43.3853420" lon="-4.2239550">
        <ele>31.2</ele>
        <time>2021-07-17T14:09:09Z</time>
      </trkpt>
      <trkpt lat="43.3853090" lon="-4.2239780">
        <ele>31.6</ele>
        <time>2021-07-17T14:09:10Z</time>
      </trkpt>
      <trkpt lat="43.3852790" lon="-4.2240020">
        <ele>32.0</ele>
        <time>2021-07-17T14:09:11Z</time>
      </trkpt>
      <trkpt lat="43.3852510" lon="-4.2240320">
        <ele>32.4</ele>
        <time>2021-07-17T14:09:12Z</time>
      </trkpt>
      <trkpt lat="43.3852210" lon="-4.2240590">
        <ele>32.8</ele>
        <time>2021-07-17T14:09:13Z</time>
      </trkpt>
      <trkpt lat="43.3851440" lon="-4.2241590">
        <ele>32.8</ele>
        <time>2021-07-17T14:09:16Z</time>
      </trkpt>
      <trkpt lat="43.3850790" lon="-4.2242700">
        <ele>32.8</ele>
        <time>2021-07-17T14:09:19Z</time>
      </trkpt>
      <trkpt lat="43.3850610" lon="-4.2243130">
        <ele>33.2</ele>
        <time>2021-07-17T14:09:20Z</time>
      </trkpt>
      <trkpt lat="43.3850430" lon="-4.2243540">
        <ele>33.8</ele>
        <time>2021-07-17T14:09:21Z</time>
      </trkpt>
      <trkpt lat="43.3850260" lon="-4.2243940">
        <ele>34.2</ele>
        <time>2021-07-17T14:09:22Z</time>
      </trkpt>
      <trkpt lat="43.3850140" lon="-4.2244380">
        <ele>34.6</ele>
        <time>2021-07-17T14:09:23Z</time>
      </trkpt>
      <trkpt lat="43.3850000" lon="-4.2244840">
        <ele>35.0</ele>
        <time>2021-07-17T14:09:24Z</time>
      </trkpt>
      <trkpt lat="43.3849770" lon="-4.2245730">
        <ele>35.0</ele>
        <time>2021-07-17T14:09:26Z</time>
      </trkpt>
      <trkpt lat="43.3849430" lon="-4.2247470">
        <ele>35.0</ele>
        <time>2021-07-17T14:09:30Z</time>
      </trkpt>
      <trkpt lat="43.3849310" lon="-4.2248880">
        <ele>35.4</ele>
        <time>2021-07-17T14:09:33Z</time>
      </trkpt>
      <trkpt lat="43.3849340" lon="-4.2249350">
        <ele>35.8</ele>
        <time>2021-07-17T14:09:34Z</time>
      </trkpt>
      <trkpt lat="43.3849380" lon="-4.2249810">
        <ele>36.4</ele>
        <time>2021-07-17T14:09:35Z</time>
      </trkpt>
      <trkpt lat="43.3849390" lon="-4.2250250">
        <ele>36.8</ele>
        <time>2021-07-17T14:09:36Z</time>
      </trkpt>
      <trkpt lat="43.3849460" lon="-4.2250730">
        <ele>37.2</ele>
        <time>2021-07-17T14:09:37Z</time>
      </trkpt>
      <trkpt lat="43.3849730" lon="-4.2252440">
        <ele>37.6</ele>
        <time>2021-07-17T14:09:41Z</time>
      </trkpt>
      <trkpt lat="43.3849830" lon="-4.2252820">
        <ele>38.0</ele>
        <time>2021-07-17T14:09:42Z</time>
      </trkpt>
      <trkpt lat="43.3849920" lon="-4.2253190">
        <ele>38.4</ele>
        <time>2021-07-17T14:09:43Z</time>
      </trkpt>
      <trkpt lat="43.3850060" lon="-4.2253570">
        <ele>38.8</ele>
        <time>2021-07-17T14:09:44Z</time>
      </trkpt>
      <trkpt lat="43.3850180" lon="-4.2253950">
        <ele>39.2</ele>
        <time>2021-07-17T14:09:45Z</time>
      </trkpt>
      <trkpt lat="43.3850290" lon="-4.2254340">
        <ele>39.6</ele>
        <time>2021-07-17T14:09:46Z</time>
      </trkpt>
      <trkpt lat="43.3850410" lon="-4.2254770">
        <ele>40.0</ele>
        <time>2021-07-17T14:09:47Z</time>
      </trkpt>
      <trkpt lat="43.3850540" lon="-4.2255150">
        <ele>40.4</ele>
        <time>2021-07-17T14:09:48Z</time>
      </trkpt>
      <trkpt lat="43.3850660" lon="-4.2255530">
        <ele>40.8</ele>
        <time>2021-07-17T14:09:49Z</time>
      </trkpt>
      <trkpt lat="43.3850780" lon="-4.2255920">
        <ele>41.2</ele>
        <time>2021-07-17T14:09:50Z</time>
      </trkpt>
      <trkpt lat="43.3851790" lon="-4.2258620">
        <ele>41.2</ele>
        <time>2021-07-17T14:09:57Z</time>
      </trkpt>
      <trkpt lat="43.3852700" lon="-4.2260890">
        <ele>41.6</ele>
        <time>2021-07-17T14:10:03Z</time>
      </trkpt>
      <trkpt lat="43.3852850" lon="-4.2261260">
        <ele>42.0</ele>
        <time>2021-07-17T14:10:04Z</time>
      </trkpt>
      <trkpt lat="43.3853000" lon="-4.2261650">
        <ele>42.4</ele>
        <time>2021-07-17T14:10:05Z</time>
      </trkpt>
      <trkpt lat="43.3853180" lon="-4.2262000">
        <ele>42.8</ele>
        <time>2021-07-17T14:10:06Z</time>
      </trkpt>
      <trkpt lat="43.3853370" lon="-4.2262390">
        <ele>43.2</ele>
        <time>2021-07-17T14:10:07Z</time>
      </trkpt>
      <trkpt lat="43.3854390" lon="-4.2264490">
        <ele>43.2</ele>
        <time>2021-07-17T14:10:13Z</time>
      </trkpt>
      <trkpt lat="43.3855220" lon="-4.2266010">
        <ele>43.6</ele>
        <time>2021-07-17T14:10:18Z</time>
      </trkpt>
      <trkpt lat="43.3855390" lon="-4.2266330">
        <ele>44.0</ele>
        <time>2021-07-17T14:10:19Z</time>
      </trkpt>
      <trkpt lat="43.3855590" lon="-4.2266640">
        <ele>44.4</ele>
        <time>2021-07-17T14:10:20Z</time>
      </trkpt>
      <trkpt lat="43.3855760" lon="-4.2266980">
        <ele>44.8</ele>
        <time>2021-07-17T14:10:21Z</time>
      </trkpt>
      <trkpt lat="43.3855960" lon="-4.2267290">
        <ele>45.2</ele>
        <time>2021-07-17T14:10:22Z</time>
      </trkpt>
      <trkpt lat="43.3857400" lon="-4.2269600">
        <ele>45.8</ele>
        <time>2021-07-17T14:10:30Z</time>
      </trkpt>
      <trkpt lat="43.3857580" lon="-4.2269920">
        <ele>46.2</ele>
        <time>2021-07-17T14:10:31Z</time>
      </trkpt>
      <trkpt lat="43.3857780" lon="-4.2270230">
        <ele>46.6</ele>
        <time>2021-07-17T14:10:32Z</time>
      </trkpt>
      <trkpt lat="43.3857970" lon="-4.2270520">
        <ele>47.0</ele>
        <time>2021-07-17T14:10:33Z</time>
      </trkpt>
      <trkpt lat="43.3858180" lon="-4.2270770">
        <ele>47.4</ele>
        <time>2021-07-17T14:10:34Z</time>
      </trkpt>
      <trkpt lat="43.3858940" lon="-4.2271780">
        <ele>47.4</ele>
        <time>2021-07-17T14:10:38Z</time>
      </trkpt>
      <trkpt lat="43.3859890" lon="-4.2273150">
        <ele>47.8</ele>
        <time>2021-07-17T14:10:43Z</time>
      </trkpt>
      <trkpt lat="43.3860070" lon="-4.2273460">
        <ele>48.2</ele>
        <time>2021-07-17T14:10:44Z</time>
      </trkpt>
      <trkpt lat="43.3860250" lon="-4.2273770">
        <ele>48.6</ele>
        <time>2021-07-17T14:10:45Z</time>
      </trkpt>
      <trkpt lat="43.3860440" lon="-4.2274050">
        <ele>49.2</ele>
        <time>2021-07-17T14:10:46Z</time>
      </trkpt>
      <trkpt lat="43.3860610" lon="-4.2274350">
        <ele>49.6</ele>
        <time>2021-07-17T14:10:47Z</time>
      </trkpt>
      <trkpt lat="43.3861880" lon="-4.2276370">
        <ele>50.0</ele>
        <time>2021-07-17T14:10:54Z</time>
      </trkpt>
      <trkpt lat="43.3862050" lon="-4.2276680">
        <ele>50.4</ele>
        <time>2021-07-17T14:10:55Z</time>
      </trkpt>
      <trkpt lat="43.3862240" lon="-4.2276990">
        <ele>50.8</ele>
        <time>2021-07-17T14:10:56Z</time>
      </trkpt>
      <trkpt lat="43.3862440" lon="-4.2277290">
        <ele>51.2</ele>
        <time>2021-07-17T14:10:57Z</time>
      </trkpt>
      <trkpt lat="43.3862590" lon="-4.2277600">
        <ele>51.6</ele>
        <time>2021-07-17T14:10:58Z</time>
      </trkpt>
      <trkpt lat="43.3863540" lon="-4.2279320">
        <ele>52.0</ele>
        <time>2021-07-17T14:11:04Z</time>
      </trkpt>
      <trkpt lat="43.3863670" lon="-4.2279600">
        <ele>52.4</ele>
        <time>2021-07-17T14:11:05Z</time>
      </trkpt>
      <trkpt lat="43.3863840" lon="-4.2279880">
        <ele>53.0</ele>
        <time>2021-07-17T14:11:06Z</time>
      </trkpt>
      <trkpt lat="43.3863990" lon="-4.2280200">
        <ele>53.4</ele>
        <time>2021-07-17T14:11:07Z</time>
      </trkpt>
      <trkpt lat="43.3864130" lon="-4.2280540">
        <ele>53.8</ele>
        <time>2021-07-17T14:11:08Z</time>
      </trkpt>
      <trkpt lat="43.3864560" lon="-4.2281540">
        <ele>53.8</ele>
        <time>2021-07-17T14:11:11Z</time>
      </trkpt>
      <trkpt lat="43.3865870" lon="-4.2284400">
        <ele>53.8</ele>
        <time>2021-07-17T14:11:20Z</time>
      </trkpt>
      <trkpt lat="43.3866470" lon="-4.2285630">
        <ele>54.6</ele>
        <time>2021-07-17T14:11:24Z</time>
      </trkpt>
      <trkpt lat="43.3866600" lon="-4.2285990">
        <ele>55.0</ele>
        <time>2021-07-17T14:11:25Z</time>
      </trkpt>
      <trkpt lat="43.3866730" lon="-4.2286330">
        <ele>55.6</ele>
        <time>2021-07-17T14:11:26Z</time>
      </trkpt>
      <trkpt lat="43.3866900" lon="-4.2286610">
        <ele>56.0</ele>
        <time>2021-07-17T14:11:27Z</time>
      </trkpt>
      <trkpt lat="43.3867720" lon="-4.2288440">
        <ele>56.0</ele>
        <time>2021-07-17T14:11:33Z</time>
      </trkpt>
      <trkpt lat="43.3868230" lon="-4.2289600">
        <ele>56.4</ele>
        <time>2021-07-17T14:11:37Z</time>
      </trkpt>
      <trkpt lat="43.3868350" lon="-4.2289890">
        <ele>56.8</ele>
        <time>2021-07-17T14:11:38Z</time>
      </trkpt>
      <trkpt lat="43.3868460" lon="-4.2290170">
        <ele>57.2</ele>
        <time>2021-07-17T14:11:39Z</time>
      </trkpt>
      <trkpt lat="43.3868610" lon="-4.2290440">
        <ele>57.6</ele>
        <time>2021-07-17T14:11:40Z</time>
      </trkpt>
      <trkpt lat="43.3868700" lon="-4.2290730">
        <ele>58.0</ele>
        <time>2021-07-17T14:11:41Z</time>
      </trkpt>
      <trkpt lat="43.3869280" lon="-4.2292160">
        <ele>58.0</ele>
        <time>2021-07-17T14:11:46Z</time>
      </trkpt>
      <trkpt lat="43.3869740" lon="-4.2293380">
        <ele>58.6</ele>
        <time>2021-07-17T14:11:50Z</time>
      </trkpt>
      <trkpt lat="43.3869860" lon="-4.2293650">
        <ele>59.0</ele>
        <time>2021-07-17T14:11:51Z</time>
      </trkpt>
      <trkpt lat="43.3869970" lon="-4.2293930">
        <ele>59.4</ele>
        <time>2021-07-17T14:11:52Z</time>
      </trkpt>
      <trkpt lat="43.3870070" lon="-4.2294240">
        <ele>59.8</ele>
        <time>2021-07-17T14:11:53Z</time>
      </trkpt>
      <trkpt lat="43.3870180" lon="-4.2294550">
        <ele>60.2</ele>
        <time>2021-07-17T14:11:54Z</time>
      </trkpt>
      <trkpt lat="43.3870980" lon="-4.2296560">
        <ele>60.2</ele>
        <time>2021-07-17T14:12:01Z</time>
      </trkpt>
      <trkpt lat="43.3871090" lon="-4.2296850">
        <ele>60.6</ele>
        <time>2021-07-17T14:12:02Z</time>
      </trkpt>
      <trkpt lat="43.3871220" lon="-4.2297110">
        <ele>61.0</ele>
        <time>2021-07-17T14:12:03Z</time>
      </trkpt>
      <trkpt lat="43.3871320" lon="-4.2297410">
        <ele>61.6</ele>
        <time>2021-07-17T14:12:04Z</time>
      </trkpt>
      <trkpt lat="43.3871460" lon="-4.2297690">
        <ele>62.0</ele>
        <time>2021-07-17T14:12:05Z</time>
      </trkpt>
      <trkpt lat="43.3871590" lon="-4.2297920">
        <ele>62.4</ele>
        <time>2021-07-17T14:12:06Z</time>
      </trkpt>
      <trkpt lat="43.3872020" lon="-4.2298880">
        <ele>62.4</ele>
        <time>2021-07-17T14:12:10Z</time>
      </trkpt>
      <trkpt lat="43.3872330" lon="-4.2299630">
        <ele>62.8</ele>
        <time>2021-07-17T14:12:13Z</time>
      </trkpt>
      <trkpt lat="43.3872420" lon="-4.2299910">
        <ele>63.2</ele>
        <time>2021-07-17T14:12:14Z</time>
      </trkpt>
      <trkpt lat="43.3872520" lon="-4.2300120">
        <ele>63.6</ele>
        <time>2021-07-17T14:12:15Z</time>
      </trkpt>
      <trkpt lat="43.3872640" lon="-4.2300340">
        <ele>64.0</ele>
        <time>2021-07-17T14:12:16Z</time>
      </trkpt>
      <trkpt lat="43.3872740" lon="-4.2300620">
        <ele>64.4</ele>
        <time>2021-07-17T14:12:17Z</time>
      </trkpt>
      <trkpt lat="43.3872840" lon="-4.2300890">
        <ele>64.4</ele>
        <time>2021-07-17T14:12:18Z</time>
      </trkpt>
      <trkpt lat="43.3873330" lon="-4.2302220">
        <ele>64.8</ele>
        <time>2021-07-17T14:12:23Z</time>
      </trkpt>
      <trkpt lat="43.3873430" lon="-4.2302400">
        <ele>65.2</ele>
        <time>2021-07-17T14:12:24Z</time>
      </trkpt>
      <trkpt lat="43.3873520" lon="-4.2302630">
        <ele>65.6</ele>
        <time>2021-07-17T14:12:25Z</time>
      </trkpt>
      <trkpt lat="43.3873590" lon="-4.2302890">
        <ele>66.0</ele>
        <time>2021-07-17T14:12:26Z</time>
      </trkpt>
      <trkpt lat="43.3873710" lon="-4.2303130">
        <ele>66.4</ele>
        <time>2021-07-17T14:12:27Z</time>
      </trkpt>
      <trkpt lat="43.3874200" lon="-4.2304350">
        <ele>66.4</ele>
        <time>2021-07-17T14:12:32Z</time>
      </trkpt>
      <trkpt lat="43.3874400" lon="-4.2304800">
        <ele>67.0</ele>
        <time>2021-07-17T14:12:34Z</time>
      </trkpt>
      <trkpt lat="43.3874490" lon="-4.2305040">
        <ele>67.4</ele>
        <time>2021-07-17T14:12:35Z</time>
      </trkpt>
      <trkpt lat="43.3874570" lon="-4.2305310">
        <ele>67.8</ele>
        <time>2021-07-17T14:12:36Z</time>
      </trkpt>
      <trkpt lat="43.3874670" lon="-4.2305540">
        <ele>68.2</ele>
        <time>2021-07-17T14:12:37Z</time>
      </trkpt>
      <trkpt lat="43.3874760" lon="-4.2305820">
        <ele>68.6</ele>
        <time>2021-07-17T14:12:38Z</time>
      </trkpt>
      <trkpt lat="43.3875030" lon="-4.2306620">
        <ele>68.6</ele>
        <time>2021-07-17T14:12:41Z</time>
      </trkpt>
      <trkpt lat="43.3875250" lon="-4.2307400">
        <ele>69.2</ele>
        <time>2021-07-17T14:12:44Z</time>
      </trkpt>
      <trkpt lat="43.3875380" lon="-4.2307690">
        <ele>69.6</ele>
        <time>2021-07-17T14:12:45Z</time>
      </trkpt>
      <trkpt lat="43.3875430" lon="-4.2307950">
        <ele>70.0</ele>
        <time>2021-07-17T14:12:46Z</time>
      </trkpt>
      <trkpt lat="43.3875530" lon="-4.2308180">
        <ele>70.4</ele>
        <time>2021-07-17T14:12:47Z</time>
      </trkpt>
      <trkpt lat="43.3875590" lon="-4.2308420">
        <ele>70.8</ele>
        <time>2021-07-17T14:12:48Z</time>
      </trkpt>
      <trkpt lat="43.3875650" lon="-4.2308650">
        <ele>70.8</ele>
        <time>2021-07-17T14:12:49Z</time>
      </trkpt>
      <trkpt lat="43.3876050" lon="-4.2310500">
        <ele>71.2</ele>
        <time>2021-07-17T14:12:56Z</time>
      </trkpt>
      <trkpt lat="43.3876090" lon="-4.2310740">
        <ele>71.6</ele>
        <time>2021-07-17T14:12:57Z</time>
      </trkpt>
      <trkpt lat="43.3876150" lon="-4.2310980">
        <ele>72.0</ele>
        <time>2021-07-17T14:12:58Z</time>
      </trkpt>
      <trkpt lat="43.3876220" lon="-4.2311220">
        <ele>72.4</ele>
        <time>2021-07-17T14:12:59Z</time>
      </trkpt>
      <trkpt lat="43.3876260" lon="-4.2311450">
        <ele>73.0</ele>
        <time>2021-07-17T14:13:00Z</time>
      </trkpt>
      <trkpt lat="43.3876430" lon="-4.2312750">
        <ele>73.4</ele>
        <time>2021-07-17T14:13:05Z</time>
      </trkpt>
      <trkpt lat="43.3876450" lon="-4.2313020">
        <ele>73.8</ele>
        <time>2021-07-17T14:13:06Z</time>
      </trkpt>
      <trkpt lat="43.3876470" lon="-4.2313290">
        <ele>74.2</ele>
        <time>2021-07-17T14:13:07Z</time>
      </trkpt>
      <trkpt lat="43.3876510" lon="-4.2313580">
        <ele>74.6</ele>
        <time>2021-07-17T14:13:08Z</time>
      </trkpt>
      <trkpt lat="43.3876550" lon="-4.2313860">
        <ele>75.0</ele>
        <time>2021-07-17T14:13:09Z</time>
      </trkpt>
      <trkpt lat="43.3876690" lon="-4.2315230">
        <ele>75.0</ele>
        <time>2021-07-17T14:13:15Z</time>
      </trkpt>
      <trkpt lat="43.3876660" lon="-4.2315820">
        <ele>75.4</ele>
        <time>2021-07-17T14:13:18Z</time>
      </trkpt>
      <trkpt lat="43.3876660" lon="-4.2316070">
        <ele>75.8</ele>
        <time>2021-07-17T14:13:19Z</time>
      </trkpt>
      <trkpt lat="43.3876730" lon="-4.2316310">
        <ele>76.2</ele>
        <time>2021-07-17T14:13:20Z</time>
      </trkpt>
      <trkpt lat="43.3876740" lon="-4.2316580">
        <ele>76.6</ele>
        <time>2021-07-17T14:13:21Z</time>
      </trkpt>
      <trkpt lat="43.3876720" lon="-4.2316830">
        <ele>77.0</ele>
        <time>2021-07-17T14:13:22Z</time>
      </trkpt>
      <trkpt lat="43.3876660" lon="-4.2318580">
        <ele>77.6</ele>
        <time>2021-07-17T14:13:29Z</time>
      </trkpt>
      <trkpt lat="43.3876620" lon="-4.2318870">
        <ele>78.0</ele>
        <time>2021-07-17T14:13:30Z</time>
      </trkpt>
      <trkpt lat="43.3876610" lon="-4.2319140">
        <ele>78.4</ele>
        <time>2021-07-17T14:13:31Z</time>
      </trkpt>
      <trkpt lat="43.3876620" lon="-4.2319400">
        <ele>78.8</ele>
        <time>2021-07-17T14:13:32Z</time>
      </trkpt>
      <trkpt lat="43.3876600" lon="-4.2319580">
        <ele>79.2</ele>
        <time>2021-07-17T14:13:33Z</time>
      </trkpt>
      <trkpt lat="43.3876430" lon="-4.2321190">
        <ele>79.2</ele>
        <time>2021-07-17T14:13:40Z</time>
      </trkpt>
      <trkpt lat="43.3876300" lon="-4.2321880">
        <ele>79.8</ele>
        <time>2021-07-17T14:13:43Z</time>
      </trkpt>
      <trkpt lat="43.3876270" lon="-4.2322180">
        <ele>80.2</ele>
        <time>2021-07-17T14:13:44Z</time>
      </trkpt>
      <trkpt lat="43.3876260" lon="-4.2322440">
        <ele>80.6</ele>
        <time>2021-07-17T14:13:45Z</time>
      </trkpt>
      <trkpt lat="43.3876210" lon="-4.2322710">
        <ele>81.0</ele>
        <time>2021-07-17T14:13:46Z</time>
      </trkpt>
      <trkpt lat="43.3876160" lon="-4.2322950">
        <ele>81.4</ele>
        <time>2021-07-17T14:13:47Z</time>
      </trkpt>
      <trkpt lat="43.3876090" lon="-4.2323160">
        <ele>81.4</ele>
        <time>2021-07-17T14:13:48Z</time>
      </trkpt>
      <trkpt lat="43.3875710" lon="-4.2324620">
        <ele>81.8</ele>
        <time>2021-07-17T14:13:54Z</time>
      </trkpt>
      <trkpt lat="43.3875620" lon="-4.2324890">
        <ele>82.2</ele>
        <time>2021-07-17T14:13:55Z</time>
      </trkpt>
      <trkpt lat="43.3875550" lon="-4.2325200">
        <ele>82.6</ele>
        <time>2021-07-17T14:13:56Z</time>
      </trkpt>
      <trkpt lat="43.3875490" lon="-4.2325430">
        <ele>83.0</ele>
        <time>2021-07-17T14:13:57Z</time>
      </trkpt>
      <trkpt lat="43.3875410" lon="-4.2325670">
        <ele>83.4</ele>
        <time>2021-07-17T14:13:58Z</time>
      </trkpt>
      <trkpt lat="43.3874800" lon="-4.2327360">
        <ele>83.8</ele>
        <time>2021-07-17T14:14:05Z</time>
      </trkpt>
      <trkpt lat="43.3874670" lon="-4.2327610">
        <ele>84.2</ele>
        <time>2021-07-17T14:14:06Z</time>
      </trkpt>
      <trkpt lat="43.3874570" lon="-4.2327960">
        <ele>84.6</ele>
        <time>2021-07-17T14:14:07Z</time>
      </trkpt>
      <trkpt lat="43.3874460" lon="-4.2328220">
        <ele>85.2</ele>
        <time>2021-07-17T14:14:08Z</time>
      </trkpt>
      <trkpt lat="43.3874370" lon="-4.2328430">
        <ele>85.6</ele>
        <time>2021-07-17T14:14:09Z</time>
      </trkpt>
      <trkpt lat="43.3873990" lon="-4.2329490">
        <ele>85.6</ele>
        <time>2021-07-17T14:14:13Z</time>
      </trkpt>
      <trkpt lat="43.3872990" lon="-4.2331390">
        <ele>85.6</ele>
        <time>2021-07-17T14:14:20Z</time>
      </trkpt>
      <trkpt lat="43.3872820" lon="-4.2331660">
        <ele>86.0</ele>
        <time>2021-07-17T14:14:21Z</time>
      </trkpt>
      <trkpt lat="43.3872650" lon="-4.2331960">
        <ele>86.4</ele>
        <time>2021-07-17T14:14:22Z</time>
      </trkpt>
      <trkpt lat="43.3872440" lon="-4.2332320">
        <ele>86.8</ele>
        <time>2021-07-17T14:14:23Z</time>
      </trkpt>
      <trkpt lat="43.3872240" lon="-4.2332600">
        <ele>87.2</ele>
        <time>2021-07-17T14:14:24Z</time>
      </trkpt>
      <trkpt lat="43.3872060" lon="-4.2332890">
        <ele>87.6</ele>
        <time>2021-07-17T14:14:25Z</time>
      </trkpt>
      <trkpt lat="43.3871550" lon="-4.2333680">
        <ele>87.6</ele>
        <time>2021-07-17T14:14:28Z</time>
      </trkpt>
      <trkpt lat="43.3871010" lon="-4.2334750">
        <ele>87.6</ele>
        <time>2021-07-17T14:14:32Z</time>
      </trkpt>
      <trkpt lat="43.3870180" lon="-4.2336320">
        <ele>87.6</ele>
        <time>2021-07-17T14:14:37Z</time>
      </trkpt>
      <trkpt lat="43.3868780" lon="-4.2339060">
        <ele>87.6</ele>
        <time>2021-07-17T14:14:43Z</time>
      </trkpt>
      <trkpt lat="43.3867220" lon="-4.2342790">
        <ele>87.2</ele>
        <time>2021-07-17T14:14:48Z</time>
      </trkpt>
      <trkpt lat="43.3866930" lon="-4.2343690">
        <ele>86.8</ele>
        <time>2021-07-17T14:14:49Z</time>
      </trkpt>
      <trkpt lat="43.3866660" lon="-4.2344680">
        <ele>86.4</ele>
        <time>2021-07-17T14:14:50Z</time>
      </trkpt>
      <trkpt lat="43.3866450" lon="-4.2345740">
        <ele>86.0</ele>
        <time>2021-07-17T14:14:51Z</time>
      </trkpt>
      <trkpt lat="43.3866290" lon="-4.2346840">
        <ele>85.6</ele>
        <time>2021-07-17T14:14:52Z</time>
      </trkpt>
      <trkpt lat="43.3866140" lon="-4.2347920">
        <ele>85.6</ele>
        <time>2021-07-17T14:14:53Z</time>
      </trkpt>
      <trkpt lat="43.3866010" lon="-4.2349020">
        <ele>85.6</ele>
        <time>2021-07-17T14:14:54Z</time>
      </trkpt>
      <trkpt lat="43.3865880" lon="-4.2350150">
        <ele>85.0</ele>
        <time>2021-07-17T14:14:55Z</time>
      </trkpt>
      <trkpt lat="43.3865750" lon="-4.2351290">
        <ele>84.6</ele>
        <time>2021-07-17T14:14:56Z</time>
      </trkpt>
      <trkpt lat="43.3865630" lon="-4.2352430">
        <ele>84.2</ele>
        <time>2021-07-17T14:14:57Z</time>
      </trkpt>
      <trkpt lat="43.3865530" lon="-4.2353650">
        <ele>83.8</ele>
        <time>2021-07-17T14:14:58Z</time>
      </trkpt>
      <trkpt lat="43.3865430" lon="-4.2354820">
        <ele>83.2</ele>
        <time>2021-07-17T14:14:59Z</time>
      </trkpt>
      <trkpt lat="43.3865380" lon="-4.2356100">
        <ele>82.6</ele>
        <time>2021-07-17T14:15:00Z</time>
      </trkpt>
      <trkpt lat="43.3865360" lon="-4.2357340">
        <ele>82.2</ele>
        <time>2021-07-17T14:15:01Z</time>
      </trkpt>
      <trkpt lat="43.3865380" lon="-4.2358630">
        <ele>81.6</ele>
        <time>2021-07-17T14:15:02Z</time>
      </trkpt>
      <trkpt lat="43.3865470" lon="-4.2359950">
        <ele>81.0</ele>
        <time>2021-07-17T14:15:03Z</time>
      </trkpt>
      <trkpt lat="43.3865660" lon="-4.2361290">
        <ele>80.4</ele>
        <time>2021-07-17T14:15:04Z</time>
      </trkpt>
      <trkpt lat="43.3865860" lon="-4.2362600">
        <ele>79.8</ele>
        <time>2021-07-17T14:15:05Z</time>
      </trkpt>
      <trkpt lat="43.3866140" lon="-4.2363970">
        <ele>79.2</ele>
        <time>2021-07-17T14:15:06Z</time>
      </trkpt>
      <trkpt lat="43.3866400" lon="-4.2365280">
        <ele>78.6</ele>
        <time>2021-07-17T14:15:07Z</time>
      </trkpt>
      <trkpt lat="43.3867350" lon="-4.2369160">
        <ele>78.6</ele>
        <time>2021-07-17T14:15:10Z</time>
      </trkpt>
      <trkpt lat="43.3869560" lon="-4.2377070">
        <ele>78.2</ele>
        <time>2021-07-17T14:15:16Z</time>
      </trkpt>
      <trkpt lat="43.3869970" lon="-4.2378380">
        <ele>77.6</ele>
        <time>2021-07-17T14:15:17Z</time>
      </trkpt>
      <trkpt lat="43.3870390" lon="-4.2379690">
        <ele>77.2</ele>
        <time>2021-07-17T14:15:18Z</time>
      </trkpt>
      <trkpt lat="43.3870800" lon="-4.2380960">
        <ele>76.6</ele>
        <time>2021-07-17T14:15:19Z</time>
      </trkpt>
      <trkpt lat="43.3871200" lon="-4.2382250">
        <ele>76.2</ele>
        <time>2021-07-17T14:15:20Z</time>
      </trkpt>
      <trkpt lat="43.3871610" lon="-4.2383540">
        <ele>75.8</ele>
        <time>2021-07-17T14:15:21Z</time>
      </trkpt>
      <trkpt lat="43.3872020" lon="-4.2384750">
        <ele>75.2</ele>
        <time>2021-07-17T14:15:22Z</time>
      </trkpt>
      <trkpt lat="43.3872450" lon="-4.2385940">
        <ele>74.8</ele>
        <time>2021-07-17T14:15:23Z</time>
      </trkpt>
      <trkpt lat="43.3872860" lon="-4.2387120">
        <ele>74.2</ele>
        <time>2021-07-17T14:15:24Z</time>
      </trkpt>
      <trkpt lat="43.3873260" lon="-4.2388290">
        <ele>73.8</ele>
        <time>2021-07-17T14:15:25Z</time>
      </trkpt>
      <trkpt lat="43.3874360" lon="-4.2391770">
        <ele>73.4</ele>
        <time>2021-07-17T14:15:28Z</time>
      </trkpt>
      <trkpt lat="43.3874740" lon="-4.2392860">
        <ele>72.8</ele>
        <time>2021-07-17T14:15:29Z</time>
      </trkpt>
      <trkpt lat="43.3875090" lon="-4.2393970">
        <ele>72.4</ele>
        <time>2021-07-17T14:15:30Z</time>
      </trkpt>
      <trkpt lat="43.3875400" lon="-4.2395080">
        <ele>72.0</ele>
        <time>2021-07-17T14:15:31Z</time>
      </trkpt>
      <trkpt lat="43.3875720" lon="-4.2396160">
        <ele>71.6</ele>
        <time>2021-07-17T14:15:32Z</time>
      </trkpt>
      <trkpt lat="43.3876740" lon="-4.2399290">
        <ele>71.6</ele>
        <time>2021-07-17T14:15:35Z</time>
      </trkpt>
      <trkpt lat="43.3877380" lon="-4.2401410">
        <ele>71.6</ele>
        <time>2021-07-17T14:15:37Z</time>
      </trkpt>
      <trkpt lat="43.3878320" lon="-4.2404490">
        <ele>71.0</ele>
        <time>2021-07-17T14:15:40Z</time>
      </trkpt>
      <trkpt lat="43.3878640" lon="-4.2405530">
        <ele>70.6</ele>
        <time>2021-07-17T14:15:41Z</time>
      </trkpt>
      <trkpt lat="43.3878970" lon="-4.2406590">
        <ele>70.0</ele>
        <time>2021-07-17T14:15:42Z</time>
      </trkpt>
      <trkpt lat="43.3879300" lon="-4.2407630">
        <ele>69.6</ele>
        <time>2021-07-17T14:15:43Z</time>
      </trkpt>
      <trkpt lat="43.3879600" lon="-4.2408620">
        <ele>69.2</ele>
        <time>2021-07-17T14:15:44Z</time>
      </trkpt>
      <trkpt lat="43.3879870" lon="-4.2409490">
        <ele>68.6</ele>
        <time>2021-07-17T14:15:45Z</time>
      </trkpt>
      <trkpt lat="43.3880100" lon="-4.2410210">
        <ele>68.2</ele>
        <time>2021-07-17T14:15:46Z</time>
      </trkpt>
      <trkpt lat="43.3880300" lon="-4.2410820">
        <ele>67.8</ele>
        <time>2021-07-17T14:15:47Z</time>
      </trkpt>
      <trkpt lat="43.3880480" lon="-4.2411380">
        <ele>67.4</ele>
        <time>2021-07-17T14:15:48Z</time>
      </trkpt>
      <trkpt lat="43.3880640" lon="-4.2411890">
        <ele>67.0</ele>
        <time>2021-07-17T14:15:49Z</time>
      </trkpt>
      <trkpt lat="43.3880960" lon="-4.2412770">
        <ele>67.0</ele>
        <time>2021-07-17T14:15:51Z</time>
      </trkpt>
      <trkpt lat="43.3881560" lon="-4.2414200">
        <ele>67.0</ele>
        <time>2021-07-17T14:15:55Z</time>
      </trkpt>
      <trkpt lat="43.3881940" lon="-4.2415380">
        <ele>67.0</ele>
        <time>2021-07-17T14:15:58Z</time>
      </trkpt>
      <trkpt lat="43.3882270" lon="-4.2416210">
        <ele>67.0</ele>
        <time>2021-07-17T14:16:00Z</time>
      </trkpt>
      <trkpt lat="43.3882800" lon="-4.2417920">
        <ele>67.0</ele>
        <time>2021-07-17T14:16:04Z</time>
      </trkpt>
      <trkpt lat="43.3882990" lon="-4.2418380">
        <ele>67.0</ele>
        <time>2021-07-17T14:16:05Z</time>
      </trkpt>
      <trkpt lat="43.3883610" lon="-4.2419850">
        <ele>67.0</ele>
        <time>2021-07-17T14:16:08Z</time>
      </trkpt>
      <trkpt lat="43.3884550" lon="-4.2421880">
        <ele>67.0</ele>
        <time>2021-07-17T14:16:12Z</time>
      </trkpt>
      <trkpt lat="43.3885410" lon="-4.2424050">
        <ele>67.0</ele>
        <time>2021-07-17T14:16:16Z</time>
      </trkpt>
      <trkpt lat="43.3886270" lon="-4.2426470">
        <ele>67.0</ele>
        <time>2021-07-17T14:16:20Z</time>
      </trkpt>
      <trkpt lat="43.3887390" lon="-4.2430550">
        <ele>66.6</ele>
        <time>2021-07-17T14:16:26Z</time>
      </trkpt>
      <trkpt lat="43.3887580" lon="-4.2431280">
        <ele>66.2</ele>
        <time>2021-07-17T14:16:27Z</time>
      </trkpt>
      <trkpt lat="43.3887790" lon="-4.2432030">
        <ele>65.8</ele>
        <time>2021-07-17T14:16:28Z</time>
      </trkpt>
      <trkpt lat="43.3888000" lon="-4.2432860">
        <ele>65.2</ele>
        <time>2021-07-17T14:16:29Z</time>
      </trkpt>
      <trkpt lat="43.3888210" lon="-4.2433660">
        <ele>64.8</ele>
        <time>2021-07-17T14:16:30Z</time>
      </trkpt>
      <trkpt lat="43.3888860" lon="-4.2436170">
        <ele>64.8</ele>
        <time>2021-07-17T14:16:33Z</time>
      </trkpt>
      <trkpt lat="43.3889830" lon="-4.2439680">
        <ele>64.4</ele>
        <time>2021-07-17T14:16:37Z</time>
      </trkpt>
      <trkpt lat="43.3890060" lon="-4.2440550">
        <ele>64.0</ele>
        <time>2021-07-17T14:16:38Z</time>
      </trkpt>
      <trkpt lat="43.3890280" lon="-4.2441470">
        <ele>63.4</ele>
        <time>2021-07-17T14:16:39Z</time>
      </trkpt>
      <trkpt lat="43.3890510" lon="-4.2442420">
        <ele>63.0</ele>
        <time>2021-07-17T14:16:40Z</time>
      </trkpt>
      <trkpt lat="43.3890740" lon="-4.2443360">
        <ele>62.6</ele>
        <time>2021-07-17T14:16:41Z</time>
      </trkpt>
      <trkpt lat="43.3891190" lon="-4.2445290">
        <ele>62.6</ele>
        <time>2021-07-17T14:16:43Z</time>
      </trkpt>
      <trkpt lat="43.3892920" lon="-4.2452440">
        <ele>62.6</ele>
        <time>2021-07-17T14:16:50Z</time>
      </trkpt>
      <trkpt lat="43.3893410" lon="-4.2454510">
        <ele>62.2</ele>
        <time>2021-07-17T14:16:52Z</time>
      </trkpt>
      <trkpt lat="43.3893660" lon="-4.2455500">
        <ele>61.6</ele>
        <time>2021-07-17T14:16:53Z</time>
      </trkpt>
      <trkpt lat="43.3893900" lon="-4.2456500">
        <ele>61.2</ele>
        <time>2021-07-17T14:16:54Z</time>
      </trkpt>
      <trkpt lat="43.3894150" lon="-4.2457480">
        <ele>60.8</ele>
        <time>2021-07-17T14:16:55Z</time>
      </trkpt>
      <trkpt lat="43.3894390" lon="-4.2458490">
        <ele>60.4</ele>
        <time>2021-07-17T14:16:56Z</time>
      </trkpt>
      <trkpt lat="43.3896070" lon="-4.2465640">
        <ele>60.4</ele>
        <time>2021-07-17T14:17:03Z</time>
      </trkpt>
      <trkpt lat="43.3896790" lon="-4.2468720">
        <ele>60.0</ele>
        <time>2021-07-17T14:17:06Z</time>
      </trkpt>
      <trkpt lat="43.3897050" lon="-4.2469830">
        <ele>59.4</ele>
        <time>2021-07-17T14:17:07Z</time>
      </trkpt>
      <trkpt lat="43.3897310" lon="-4.2470890">
        <ele>59.0</ele>
        <time>2021-07-17T14:17:08Z</time>
      </trkpt>
      <trkpt lat="43.3897560" lon="-4.2471930">
        <ele>58.6</ele>
        <time>2021-07-17T14:17:09Z</time>
      </trkpt>
      <trkpt lat="43.3897790" lon="-4.2472980">
        <ele>58.0</ele>
        <time>2021-07-17T14:17:10Z</time>
      </trkpt>
      <trkpt lat="43.3898200" lon="-4.2475140">
        <ele>58.0</ele>
        <time>2021-07-17T14:17:12Z</time>
      </trkpt>
      <trkpt lat="43.3898560" lon="-4.2477400">
        <ele>58.0</ele>
        <time>2021-07-17T14:17:14Z</time>
      </trkpt>
      <trkpt lat="43.3898800" lon="-4.2479560">
        <ele>57.6</ele>
        <time>2021-07-17T14:17:16Z</time>
      </trkpt>
      <trkpt lat="43.3898890" lon="-4.2480610">
        <ele>57.0</ele>
        <time>2021-07-17T14:17:17Z</time>
      </trkpt>
      <trkpt lat="43.3898950" lon="-4.2481650">
        <ele>56.4</ele>
        <time>2021-07-17T14:17:18Z</time>
      </trkpt>
      <trkpt lat="43.3898960" lon="-4.2482720">
        <ele>55.8</ele>
        <time>2021-07-17T14:17:19Z</time>
      </trkpt>
      <trkpt lat="43.3898960" lon="-4.2483770">
        <ele>55.4</ele>
        <time>2021-07-17T14:17:20Z</time>
      </trkpt>
      <trkpt lat="43.3898920" lon="-4.2484870">
        <ele>54.8</ele>
        <time>2021-07-17T14:17:21Z</time>
      </trkpt>
      <trkpt lat="43.3898850" lon="-4.2485930">
        <ele>54.4</ele>
        <time>2021-07-17T14:17:22Z</time>
      </trkpt>
      <trkpt lat="43.3898740" lon="-4.2486990">
        <ele>53.8</ele>
        <time>2021-07-17T14:17:23Z</time>
      </trkpt>
      <trkpt lat="43.3898610" lon="-4.2488050">
        <ele>53.2</ele>
        <time>2021-07-17T14:17:24Z</time>
      </trkpt>
      <trkpt lat="43.3898320" lon="-4.2490240">
        <ele>53.2</ele>
        <time>2021-07-17T14:17:26Z</time>
      </trkpt>
      <trkpt lat="43.3898160" lon="-4.2491350">
        <ele>52.8</ele>
        <time>2021-07-17T14:17:27Z</time>
      </trkpt>
      <trkpt lat="43.3898000" lon="-4.2492490">
        <ele>52.4</ele>
        <time>2021-07-17T14:17:28Z</time>
      </trkpt>
      <trkpt lat="43.3897830" lon="-4.2493680">
        <ele>52.0</ele>
        <time>2021-07-17T14:17:29Z</time>
      </trkpt>
      <trkpt lat="43.3897650" lon="-4.2494820">
        <ele>51.6</ele>
        <time>2021-07-17T14:17:30Z</time>
      </trkpt>
      <trkpt lat="43.3897460" lon="-4.2495930">
        <ele>51.2</ele>
        <time>2021-07-17T14:17:31Z</time>
      </trkpt>
      <trkpt lat="43.3897050" lon="-4.2498150">
        <ele>50.8</ele>
        <time>2021-07-17T14:17:33Z</time>
      </trkpt>
      <trkpt lat="43.3896850" lon="-4.2499250">
        <ele>50.0</ele>
        <time>2021-07-17T14:17:34Z</time>
      </trkpt>
      <trkpt lat="43.3896660" lon="-4.2500350">
        <ele>49.6</ele>
        <time>2021-07-17T14:17:35Z</time>
      </trkpt>
      <trkpt lat="43.3896490" lon="-4.2501430">
        <ele>49.0</ele>
        <time>2021-07-17T14:17:36Z</time>
      </trkpt>
      <trkpt lat="43.3896170" lon="-4.2503680">
        <ele>49.0</ele>
        <time>2021-07-17T14:17:38Z</time>
      </trkpt>
      <trkpt lat="43.3895920" lon="-4.2505920">
        <ele>49.0</ele>
        <time>2021-07-17T14:17:40Z</time>
      </trkpt>
      <trkpt lat="43.3895830" lon="-4.2507060">
        <ele>49.0</ele>
        <time>2021-07-17T14:17:41Z</time>
      </trkpt>
      <trkpt lat="43.3895680" lon="-4.2509420">
        <ele>48.6</ele>
        <time>2021-07-17T14:17:43Z</time>
      </trkpt>
      <trkpt lat="43.3895620" lon="-4.2510650">
        <ele>48.2</ele>
        <time>2021-07-17T14:17:44Z</time>
      </trkpt>
      <trkpt lat="43.3895590" lon="-4.2511850">
        <ele>47.8</ele>
        <time>2021-07-17T14:17:45Z</time>
      </trkpt>
      <trkpt lat="43.3895560" lon="-4.2513050">
        <ele>47.4</ele>
        <time>2021-07-17T14:17:46Z</time>
      </trkpt>
      <trkpt lat="43.3895540" lon="-4.2514260">
        <ele>47.0</ele>
        <time>2021-07-17T14:17:47Z</time>
      </trkpt>
      <trkpt lat="43.3895590" lon="-4.2516660">
        <ele>47.0</ele>
        <time>2021-07-17T14:17:49Z</time>
      </trkpt>
      <trkpt lat="43.3895680" lon="-4.2519080">
        <ele>46.4</ele>
        <time>2021-07-17T14:17:51Z</time>
      </trkpt>
      <trkpt lat="43.3895750" lon="-4.2520230">
        <ele>46.0</ele>
        <time>2021-07-17T14:17:52Z</time>
      </trkpt>
      <trkpt lat="43.3895860" lon="-4.2521370">
        <ele>45.4</ele>
        <time>2021-07-17T14:17:53Z</time>
      </trkpt>
      <trkpt lat="43.3895970" lon="-4.2522510">
        <ele>44.8</ele>
        <time>2021-07-17T14:17:54Z</time>
      </trkpt>
      <trkpt lat="43.3896090" lon="-4.2523620">
        <ele>44.4</ele>
        <time>2021-07-17T14:17:55Z</time>
      </trkpt>
      <trkpt lat="43.3896210" lon="-4.2524710">
        <ele>44.4</ele>
        <time>2021-07-17T14:17:56Z</time>
      </trkpt>
      <trkpt lat="43.3896710" lon="-4.2527900">
        <ele>44.4</ele>
        <time>2021-07-17T14:17:59Z</time>
      </trkpt>
      <trkpt lat="43.3897230" lon="-4.2530680">
        <ele>44.4</ele>
        <time>2021-07-17T14:18:02Z</time>
      </trkpt>
      <trkpt lat="43.3897650" lon="-4.2533060">
        <ele>44.4</ele>
        <time>2021-07-17T14:18:05Z</time>
      </trkpt>
      <trkpt lat="43.3897800" lon="-4.2533800">
        <ele>44.4</ele>
        <time>2021-07-17T14:18:06Z</time>
      </trkpt>
      <trkpt lat="43.3898140" lon="-4.2535330">
        <ele>44.4</ele>
        <time>2021-07-17T14:18:08Z</time>
      </trkpt>
      <trkpt lat="43.3898440" lon="-4.2536780">
        <ele>44.4</ele>
        <time>2021-07-17T14:18:10Z</time>
      </trkpt>
      <trkpt lat="43.3898730" lon="-4.2538220">
        <ele>44.4</ele>
        <time>2021-07-17T14:18:12Z</time>
      </trkpt>
      <trkpt lat="43.3899000" lon="-4.2539670">
        <ele>44.4</ele>
        <time>2021-07-17T14:18:14Z</time>
      </trkpt>
      <trkpt lat="43.3899230" lon="-4.2541100">
        <ele>44.4</ele>
        <time>2021-07-17T14:18:16Z</time>
      </trkpt>
      <trkpt lat="43.3899460" lon="-4.2542490">
        <ele>44.4</ele>
        <time>2021-07-17T14:18:18Z</time>
      </trkpt>
      <trkpt lat="43.3899830" lon="-4.2544560">
        <ele>44.4</ele>
        <time>2021-07-17T14:18:21Z</time>
      </trkpt>
      <trkpt lat="43.3900120" lon="-4.2547240">
        <ele>44.4</ele>
        <time>2021-07-17T14:18:25Z</time>
      </trkpt>
      <trkpt lat="43.3900150" lon="-4.2547940">
        <ele>44.8</ele>
        <time>2021-07-17T14:18:26Z</time>
      </trkpt>
      <trkpt lat="43.3900180" lon="-4.2548650">
        <ele>45.2</ele>
        <time>2021-07-17T14:18:27Z</time>
      </trkpt>
      <trkpt lat="43.3900220" lon="-4.2549420">
        <ele>45.6</ele>
        <time>2021-07-17T14:18:28Z</time>
      </trkpt>
      <trkpt lat="43.3900260" lon="-4.2550150">
        <ele>46.0</ele>
        <time>2021-07-17T14:18:29Z</time>
      </trkpt>
      <trkpt lat="43.3900290" lon="-4.2550880">
        <ele>46.4</ele>
        <time>2021-07-17T14:18:30Z</time>
      </trkpt>
      <trkpt lat="43.3900400" lon="-4.2553070">
        <ele>46.4</ele>
        <time>2021-07-17T14:18:33Z</time>
      </trkpt>
      <trkpt lat="43.3900600" lon="-4.2559260">
        <ele>46.4</ele>
        <time>2021-07-17T14:18:42Z</time>
      </trkpt>
      <trkpt lat="43.3900660" lon="-4.2561410">
        <ele>46.4</ele>
        <time>2021-07-17T14:18:45Z</time>
      </trkpt>
      <trkpt lat="43.3900710" lon="-4.2563730">
        <ele>46.4</ele>
        <time>2021-07-17T14:18:48Z</time>
      </trkpt>
      <trkpt lat="43.3900720" lon="-4.2564530">
        <ele>46.4</ele>
        <time>2021-07-17T14:18:49Z</time>
      </trkpt>
      <trkpt lat="43.3900840" lon="-4.2568000">
        <ele>46.4</ele>
        <time>2021-07-17T14:18:53Z</time>
      </trkpt>
      <trkpt lat="43.3900990" lon="-4.2570890">
        <ele>46.0</ele>
        <time>2021-07-17T14:18:56Z</time>
      </trkpt>
      <trkpt lat="43.3901010" lon="-4.2571940">
        <ele>45.6</ele>
        <time>2021-07-17T14:18:57Z</time>
      </trkpt>
      <trkpt lat="43.3901030" lon="-4.2573080">
        <ele>45.2</ele>
        <time>2021-07-17T14:18:58Z</time>
      </trkpt>
      <trkpt lat="43.3901060" lon="-4.2574220">
        <ele>44.6</ele>
        <time>2021-07-17T14:18:59Z</time>
      </trkpt>
      <trkpt lat="43.3901090" lon="-4.2575380">
        <ele>44.2</ele>
        <time>2021-07-17T14:19:00Z</time>
      </trkpt>
      <trkpt lat="43.3901170" lon="-4.2577790">
        <ele>44.2</ele>
        <time>2021-07-17T14:19:02Z</time>
      </trkpt>
      <trkpt lat="43.3901280" lon="-4.2580240">
        <ele>43.8</ele>
        <time>2021-07-17T14:19:04Z</time>
      </trkpt>
      <trkpt lat="43.3901310" lon="-4.2581460">
        <ele>43.4</ele>
        <time>2021-07-17T14:19:05Z</time>
      </trkpt>
      <trkpt lat="43.3901350" lon="-4.2582770">
        <ele>42.8</ele>
        <time>2021-07-17T14:19:06Z</time>
      </trkpt>
      <trkpt lat="43.3901370" lon="-4.2584000">
        <ele>42.4</ele>
        <time>2021-07-17T14:19:07Z</time>
      </trkpt>
      <trkpt lat="43.3901390" lon="-4.2585200">
        <ele>42.0</ele>
        <time>2021-07-17T14:19:08Z</time>
      </trkpt>
      <trkpt lat="43.3901400" lon="-4.2586390">
        <ele>42.0</ele>
        <time>2021-07-17T14:19:09Z</time>
      </trkpt>
      <trkpt lat="43.3901360" lon="-4.2588670">
        <ele>42.0</ele>
        <time>2021-07-17T14:19:11Z</time>
      </trkpt>
      <trkpt lat="43.3901280" lon="-4.2590830">
        <ele>42.0</ele>
        <time>2021-07-17T14:19:13Z</time>
      </trkpt>
      <trkpt lat="43.3901130" lon="-4.2593010">
        <ele>41.4</ele>
        <time>2021-07-17T14:19:15Z</time>
      </trkpt>
      <trkpt lat="43.3901020" lon="-4.2594050">
        <ele>41.0</ele>
        <time>2021-07-17T14:19:16Z</time>
      </trkpt>
      <trkpt lat="43.3900880" lon="-4.2595070">
        <ele>40.6</ele>
        <time>2021-07-17T14:19:17Z</time>
      </trkpt>
      <trkpt lat="43.3900740" lon="-4.2596090">
        <ele>40.2</ele>
        <time>2021-07-17T14:19:18Z</time>
      </trkpt>
      <trkpt lat="43.3900600" lon="-4.2597100">
        <ele>39.8</ele>
        <time>2021-07-17T14:19:19Z</time>
      </trkpt>
      <trkpt lat="43.3899580" lon="-4.2604090">
        <ele>39.8</ele>
        <time>2021-07-17T14:19:26Z</time>
      </trkpt>
      <trkpt lat="43.3899290" lon="-4.2606190">
        <ele>39.4</ele>
        <time>2021-07-17T14:19:28Z</time>
      </trkpt>
      <trkpt lat="43.3899130" lon="-4.2607200">
        <ele>39.0</ele>
        <time>2021-07-17T14:19:29Z</time>
      </trkpt>
      <trkpt lat="43.3898980" lon="-4.2608230">
        <ele>38.6</ele>
        <time>2021-07-17T14:19:30Z</time>
      </trkpt>
      <trkpt lat="43.3898820" lon="-4.2609290">
        <ele>38.2</ele>
        <time>2021-07-17T14:19:31Z</time>
      </trkpt>
      <trkpt lat="43.3898650" lon="-4.2610340">
        <ele>37.8</ele>
        <time>2021-07-17T14:19:32Z</time>
      </trkpt>
      <trkpt lat="43.3898160" lon="-4.2613460">
        <ele>37.2</ele>
        <time>2021-07-17T14:19:35Z</time>
      </trkpt>
      <trkpt lat="43.3897980" lon="-4.2614570">
        <ele>36.8</ele>
        <time>2021-07-17T14:19:36Z</time>
      </trkpt>
      <trkpt lat="43.3897800" lon="-4.2615610">
        <ele>36.4</ele>
        <time>2021-07-17T14:19:37Z</time>
      </trkpt>
      <trkpt lat="43.3897630" lon="-4.2616630">
        <ele>35.6</ele>
        <time>2021-07-17T14:19:38Z</time>
      </trkpt>
      <trkpt lat="43.3897090" lon="-4.2619640">
        <ele>35.6</ele>
        <time>2021-07-17T14:19:41Z</time>
      </trkpt>
      <trkpt lat="43.3896580" lon="-4.2622780">
        <ele>35.6</ele>
        <time>2021-07-17T14:19:44Z</time>
      </trkpt>
      <trkpt lat="43.3896010" lon="-4.2626090">
        <ele>35.0</ele>
        <time>2021-07-17T14:19:47Z</time>
      </trkpt>
      <trkpt lat="43.3895810" lon="-4.2627210">
        <ele>34.6</ele>
        <time>2021-07-17T14:19:48Z</time>
      </trkpt>
      <trkpt lat="43.3895610" lon="-4.2628320">
        <ele>33.8</ele>
        <time>2021-07-17T14:19:49Z</time>
      </trkpt>
      <trkpt lat="43.3895390" lon="-4.2629460">
        <ele>32.8</ele>
        <time>2021-07-17T14:19:50Z</time>
      </trkpt>
      <trkpt lat="43.3895150" lon="-4.2630650">
        <ele>32.0</ele>
        <time>2021-07-17T14:19:51Z</time>
      </trkpt>
      <trkpt lat="43.3894900" lon="-4.2631790">
        <ele>31.2</ele>
        <time>2021-07-17T14:19:52Z</time>
      </trkpt>
      <trkpt lat="43.3894630" lon="-4.2632930">
        <ele>30.4</ele>
        <time>2021-07-17T14:19:53Z</time>
      </trkpt>
      <trkpt lat="43.3894350" lon="-4.2634070">
        <ele>29.8</ele>
        <time>2021-07-17T14:19:54Z</time>
      </trkpt>
      <trkpt lat="43.3894040" lon="-4.2635210">
        <ele>29.0</ele>
        <time>2021-07-17T14:19:55Z</time>
      </trkpt>
      <trkpt lat="43.3893730" lon="-4.2636330">
        <ele>28.4</ele>
        <time>2021-07-17T14:19:56Z</time>
      </trkpt>
      <trkpt lat="43.3893430" lon="-4.2637440">
        <ele>27.8</ele>
        <time>2021-07-17T14:19:57Z</time>
      </trkpt>
      <trkpt lat="43.3893130" lon="-4.2638610">
        <ele>27.2</ele>
        <time>2021-07-17T14:19:58Z</time>
      </trkpt>
      <trkpt lat="43.3892850" lon="-4.2639680">
        <ele>26.6</ele>
        <time>2021-07-17T14:19:59Z</time>
      </trkpt>
      <trkpt lat="43.3892570" lon="-4.2640720">
        <ele>26.0</ele>
        <time>2021-07-17T14:20:00Z</time>
      </trkpt>
      <trkpt lat="43.3892280" lon="-4.2641750">
        <ele>25.4</ele>
        <time>2021-07-17T14:20:01Z</time>
      </trkpt>
      <trkpt lat="43.3891990" lon="-4.2642780">
        <ele>25.0</ele>
        <time>2021-07-17T14:20:02Z</time>
      </trkpt>
      <trkpt lat="43.3891730" lon="-4.2643810">
        <ele>24.0</ele>
        <time>2021-07-17T14:20:03Z</time>
      </trkpt>
      <trkpt lat="43.3891480" lon="-4.2644830">
        <ele>23.6</ele>
        <time>2021-07-17T14:20:04Z</time>
      </trkpt>
      <trkpt lat="43.3890840" lon="-4.2647840">
        <ele>23.6</ele>
        <time>2021-07-17T14:20:07Z</time>
      </trkpt>
      <trkpt lat="43.3889930" lon="-4.2651860">
        <ele>23.6</ele>
        <time>2021-07-17T14:20:12Z</time>
      </trkpt>
      <trkpt lat="43.3889780" lon="-4.2652550">
        <ele>23.6</ele>
        <time>2021-07-17T14:20:13Z</time>
      </trkpt>
      <trkpt lat="43.3889460" lon="-4.2653800">
        <ele>23.6</ele>
        <time>2021-07-17T14:20:15Z</time>
      </trkpt>
      <trkpt lat="43.3889310" lon="-4.2654360">
        <ele>23.6</ele>
        <time>2021-07-17T14:20:16Z</time>
      </trkpt>
      <trkpt lat="43.3889000" lon="-4.2655460">
        <ele>23.6</ele>
        <time>2021-07-17T14:20:18Z</time>
      </trkpt>
      <trkpt lat="43.3888860" lon="-4.2656000">
        <ele>23.6</ele>
        <time>2021-07-17T14:20:19Z</time>
      </trkpt>
      <trkpt lat="43.3888560" lon="-4.2657120">
        <ele>23.6</ele>
        <time>2021-07-17T14:20:21Z</time>
      </trkpt>
      <trkpt lat="43.3888410" lon="-4.2657660">
        <ele>23.6</ele>
        <time>2021-07-17T14:20:22Z</time>
      </trkpt>
      <trkpt lat="43.3888130" lon="-4.2658710">
        <ele>24.0</ele>
        <time>2021-07-17T14:20:24Z</time>
      </trkpt>
      <trkpt lat="43.3887980" lon="-4.2659230">
        <ele>24.4</ele>
        <time>2021-07-17T14:20:25Z</time>
      </trkpt>
      <trkpt lat="43.3887830" lon="-4.2659730">
        <ele>24.8</ele>
        <time>2021-07-17T14:20:26Z</time>
      </trkpt>
      <trkpt lat="43.3887690" lon="-4.2660210">
        <ele>25.2</ele>
        <time>2021-07-17T14:20:27Z</time>
      </trkpt>
      <trkpt lat="43.3887560" lon="-4.2660690">
        <ele>25.6</ele>
        <time>2021-07-17T14:20:28Z</time>
      </trkpt>
      <trkpt lat="43.3887050" lon="-4.2662610">
        <ele>26.0</ele>
        <time>2021-07-17T14:20:32Z</time>
      </trkpt>
      <trkpt lat="43.3886910" lon="-4.2663110">
        <ele>26.4</ele>
        <time>2021-07-17T14:20:33Z</time>
      </trkpt>
      <trkpt lat="43.3886780" lon="-4.2663570">
        <ele>27.0</ele>
        <time>2021-07-17T14:20:34Z</time>
      </trkpt>
      <trkpt lat="43.3886660" lon="-4.2664070">
        <ele>27.4</ele>
        <time>2021-07-17T14:20:35Z</time>
      </trkpt>
      <trkpt lat="43.3886530" lon="-4.2664560">
        <ele>27.8</ele>
        <time>2021-07-17T14:20:36Z</time>
      </trkpt>
      <trkpt lat="43.3886390" lon="-4.2665050">
        <ele>27.8</ele>
        <time>2021-07-17T14:20:37Z</time>
      </trkpt>
      <trkpt lat="43.3885860" lon="-4.2666930">
        <ele>27.8</ele>
        <time>2021-07-17T14:20:41Z</time>
      </trkpt>
      <trkpt lat="43.3885730" lon="-4.2667400">
        <ele>28.2</ele>
        <time>2021-07-17T14:20:42Z</time>
      </trkpt>
      <trkpt lat="43.3885600" lon="-4.2667890">
        <ele>28.6</ele>
        <time>2021-07-17T14:20:43Z</time>
      </trkpt>
      <trkpt lat="43.3885480" lon="-4.2668390">
        <ele>29.0</ele>
        <time>2021-07-17T14:20:44Z</time>
      </trkpt>
      <trkpt lat="43.3885360" lon="-4.2668900">
        <ele>29.4</ele>
        <time>2021-07-17T14:20:45Z</time>
      </trkpt>
      <trkpt lat="43.3885240" lon="-4.2669420">
        <ele>29.8</ele>
        <time>2021-07-17T14:20:46Z</time>
      </trkpt>
      <trkpt lat="43.3884840" lon="-4.2670960">
        <ele>29.8</ele>
        <time>2021-07-17T14:20:49Z</time>
      </trkpt>
      <trkpt lat="43.3884160" lon="-4.2673500">
        <ele>29.8</ele>
        <time>2021-07-17T14:20:54Z</time>
      </trkpt>
      <trkpt lat="43.3884030" lon="-4.2674020">
        <ele>29.8</ele>
        <time>2021-07-17T14:20:55Z</time>
      </trkpt>
      <trkpt lat="43.3883200" lon="-4.2677190">
        <ele>30.2</ele>
        <time>2021-07-17T14:21:01Z</time>
      </trkpt>
      <trkpt lat="43.3883070" lon="-4.2677700">
        <ele>30.8</ele>
        <time>2021-07-17T14:21:02Z</time>
      </trkpt>
      <trkpt lat="43.3882930" lon="-4.2678250">
        <ele>31.2</ele>
        <time>2021-07-17T14:21:03Z</time>
      </trkpt>
      <trkpt lat="43.3882810" lon="-4.2678780">
        <ele>31.6</ele>
        <time>2021-07-17T14:21:04Z</time>
      </trkpt>
      <trkpt lat="43.3882710" lon="-4.2679330">
        <ele>32.0</ele>
        <time>2021-07-17T14:21:05Z</time>
      </trkpt>
      <trkpt lat="43.3882150" lon="-4.2682350">
        <ele>32.0</ele>
        <time>2021-07-17T14:21:10Z</time>
      </trkpt>
      <trkpt lat="43.3881860" lon="-4.2685230">
        <ele>32.0</ele>
        <time>2021-07-17T14:21:14Z</time>
      </trkpt>
      <trkpt lat="43.3881770" lon="-4.2687670">
        <ele>32.0</ele>
        <time>2021-07-17T14:21:17Z</time>
      </trkpt>
      <trkpt lat="43.3881750" lon="-4.2689420">
        <ele>32.0</ele>
        <time>2021-07-17T14:21:19Z</time>
      </trkpt>
      <trkpt lat="43.3881740" lon="-4.2691290">
        <ele>31.6</ele>
        <time>2021-07-17T14:21:21Z</time>
      </trkpt>
      <trkpt lat="43.3881770" lon="-4.2692210">
        <ele>31.2</ele>
        <time>2021-07-17T14:21:22Z</time>
      </trkpt>
      <trkpt lat="43.3881810" lon="-4.2693140">
        <ele>30.6</ele>
        <time>2021-07-17T14:21:23Z</time>
      </trkpt>
      <trkpt lat="43.3881850" lon="-4.2694110">
        <ele>30.2</ele>
        <time>2021-07-17T14:21:24Z</time>
      </trkpt>
      <trkpt lat="43.3881870" lon="-4.2695110">
        <ele>29.8</ele>
        <time>2021-07-17T14:21:25Z</time>
      </trkpt>
      <trkpt lat="43.3881910" lon="-4.2697110">
        <ele>29.8</ele>
        <time>2021-07-17T14:21:27Z</time>
      </trkpt>
      <trkpt lat="43.3881960" lon="-4.2699220">
        <ele>29.4</ele>
        <time>2021-07-17T14:21:29Z</time>
      </trkpt>
      <trkpt lat="43.3881980" lon="-4.2700270">
        <ele>29.0</ele>
        <time>2021-07-17T14:21:30Z</time>
      </trkpt>
      <trkpt lat="43.3882020" lon="-4.2701330">
        <ele>28.6</ele>
        <time>2021-07-17T14:21:31Z</time>
      </trkpt>
      <trkpt lat="43.3882060" lon="-4.2702400">
        <ele>28.2</ele>
        <time>2021-07-17T14:21:32Z</time>
      </trkpt>
      <trkpt lat="43.3882100" lon="-4.2703520">
        <ele>27.8</ele>
        <time>2021-07-17T14:21:33Z</time>
      </trkpt>
      <trkpt lat="43.3882160" lon="-4.2705710">
        <ele>27.8</ele>
        <time>2021-07-17T14:21:35Z</time>
      </trkpt>
      <trkpt lat="43.3882290" lon="-4.2710090">
        <ele>27.4</ele>
        <time>2021-07-17T14:21:39Z</time>
      </trkpt>
      <trkpt lat="43.3882340" lon="-4.2711180">
        <ele>27.0</ele>
        <time>2021-07-17T14:21:40Z</time>
      </trkpt>
      <trkpt lat="43.3882370" lon="-4.2712290">
        <ele>26.6</ele>
        <time>2021-07-17T14:21:41Z</time>
      </trkpt>
      <trkpt lat="43.3882400" lon="-4.2713370">
        <ele>25.6</ele>
        <time>2021-07-17T14:21:42Z</time>
      </trkpt>
      <trkpt lat="43.3882440" lon="-4.2714520">
        <ele>25.6</ele>
        <time>2021-07-17T14:21:43Z</time>
      </trkpt>
      <trkpt lat="43.3882660" lon="-4.2722230">
        <ele>25.2</ele>
        <time>2021-07-17T14:21:50Z</time>
      </trkpt>
      <trkpt lat="43.3882680" lon="-4.2723330">
        <ele>24.8</ele>
        <time>2021-07-17T14:21:51Z</time>
      </trkpt>
      <trkpt lat="43.3882700" lon="-4.2724420">
        <ele>24.4</ele>
        <time>2021-07-17T14:21:52Z</time>
      </trkpt>
      <trkpt lat="43.3882730" lon="-4.2725520">
        <ele>24.0</ele>
        <time>2021-07-17T14:21:53Z</time>
      </trkpt>
      <trkpt lat="43.3882740" lon="-4.2726630">
        <ele>23.6</ele>
        <time>2021-07-17T14:21:54Z</time>
      </trkpt>
      <trkpt lat="43.3882840" lon="-4.2732360">
        <ele>23.6</ele>
        <time>2021-07-17T14:21:59Z</time>
      </trkpt>
      <trkpt lat="43.3882890" lon="-4.2734590">
        <ele>23.6</ele>
        <time>2021-07-17T14:22:01Z</time>
      </trkpt>
      <trkpt lat="43.3882900" lon="-4.2735710">
        <ele>23.2</ele>
        <time>2021-07-17T14:22:02Z</time>
      </trkpt>
      <trkpt lat="43.3882910" lon="-4.2736800">
        <ele>22.8</ele>
        <time>2021-07-17T14:22:03Z</time>
      </trkpt>
      <trkpt lat="43.3882940" lon="-4.2737860">
        <ele>22.4</ele>
        <time>2021-07-17T14:22:04Z</time>
      </trkpt>
      <trkpt lat="43.3882970" lon="-4.2738950">
        <ele>22.0</ele>
        <time>2021-07-17T14:22:05Z</time>
      </trkpt>
      <trkpt lat="43.3882990" lon="-4.2739960">
        <ele>21.6</ele>
        <time>2021-07-17T14:22:06Z</time>
      </trkpt>
      <trkpt lat="43.3883050" lon="-4.2742880">
        <ele>21.6</ele>
        <time>2021-07-17T14:22:09Z</time>
      </trkpt>
      <trkpt lat="43.3883160" lon="-4.2747200">
        <ele>21.6</ele>
        <time>2021-07-17T14:22:14Z</time>
      </trkpt>
      <trkpt lat="43.3883180" lon="-4.2748680">
        <ele>21.6</ele>
        <time>2021-07-17T14:22:16Z</time>
      </trkpt>
      <trkpt lat="43.3883240" lon="-4.2749380">
        <ele>21.6</ele>
        <time>2021-07-17T14:22:17Z</time>
      </trkpt>
      <trkpt lat="43.3883340" lon="-4.2750800">
        <ele>21.6</ele>
        <time>2021-07-17T14:22:19Z</time>
      </trkpt>
      <trkpt lat="43.3883350" lon="-4.2752290">
        <ele>21.6</ele>
        <time>2021-07-17T14:22:21Z</time>
      </trkpt>
      <trkpt lat="43.3883380" lon="-4.2753730">
        <ele>21.6</ele>
        <time>2021-07-17T14:22:23Z</time>
      </trkpt>
      <trkpt lat="43.3883380" lon="-4.2754440">
        <ele>21.6</ele>
        <time>2021-07-17T14:22:24Z</time>
      </trkpt>
      <trkpt lat="43.3883380" lon="-4.2755890">
        <ele>21.6</ele>
        <time>2021-07-17T14:22:26Z</time>
      </trkpt>
      <trkpt lat="43.3883400" lon="-4.2756600">
        <ele>21.6</ele>
        <time>2021-07-17T14:22:27Z</time>
      </trkpt>
      <trkpt lat="43.3883450" lon="-4.2758750">
        <ele>21.6</ele>
        <time>2021-07-17T14:22:30Z</time>
      </trkpt>
      <trkpt lat="43.3883460" lon="-4.2760150">
        <ele>21.6</ele>
        <time>2021-07-17T14:22:32Z</time>
      </trkpt>
      <trkpt lat="43.3883470" lon="-4.2761500">
        <ele>21.6</ele>
        <time>2021-07-17T14:22:34Z</time>
      </trkpt>
      <trkpt lat="43.3883450" lon="-4.2765820">
        <ele>21.6</ele>
        <time>2021-07-17T14:22:41Z</time>
      </trkpt>
      <trkpt lat="43.3883480" lon="-4.2768490">
        <ele>21.6</ele>
        <time>2021-07-17T14:22:45Z</time>
      </trkpt>
      <trkpt lat="43.3883570" lon="-4.2770750">
        <ele>21.6</ele>
        <time>2021-07-17T14:22:48Z</time>
      </trkpt>
      <trkpt lat="43.3883680" lon="-4.2772440">
        <ele>21.6</ele>
        <time>2021-07-17T14:22:50Z</time>
      </trkpt>
      <trkpt lat="43.3883790" lon="-4.2774260">
        <ele>21.6</ele>
        <time>2021-07-17T14:22:52Z</time>
      </trkpt>
      <trkpt lat="43.3883860" lon="-4.2776130">
        <ele>21.6</ele>
        <time>2021-07-17T14:22:54Z</time>
      </trkpt>
      <trkpt lat="43.3883790" lon="-4.2779100">
        <ele>21.6</ele>
        <time>2021-07-17T14:22:57Z</time>
      </trkpt>
      <trkpt lat="43.3883640" lon="-4.2780990">
        <ele>21.6</ele>
        <time>2021-07-17T14:22:59Z</time>
      </trkpt>
      <trkpt lat="43.3882970" lon="-4.2783990">
        <ele>21.6</ele>
        <time>2021-07-17T14:23:02Z</time>
      </trkpt>
      <trkpt lat="43.3882360" lon="-4.2786010">
        <ele>21.6</ele>
        <time>2021-07-17T14:23:04Z</time>
      </trkpt>
      <trkpt lat="43.3881990" lon="-4.2786970">
        <ele>21.0</ele>
        <time>2021-07-17T14:23:05Z</time>
      </trkpt>
      <trkpt lat="43.3881580" lon="-4.2787900">
        <ele>20.6</ele>
        <time>2021-07-17T14:23:06Z</time>
      </trkpt>
      <trkpt lat="43.3881170" lon="-4.2788810">
        <ele>20.0</ele>
        <time>2021-07-17T14:23:07Z</time>
      </trkpt>
      <trkpt lat="43.3880730" lon="-4.2789690">
        <ele>19.6</ele>
        <time>2021-07-17T14:23:08Z</time>
      </trkpt>
      <trkpt lat="43.3880300" lon="-4.2790540">
        <ele>19.2</ele>
        <time>2021-07-17T14:23:09Z</time>
      </trkpt>
      <trkpt lat="43.3878270" lon="-4.2794580">
        <ele>18.8</ele>
        <time>2021-07-17T14:23:14Z</time>
      </trkpt>
      <trkpt lat="43.3877910" lon="-4.2795310">
        <ele>18.2</ele>
        <time>2021-07-17T14:23:15Z</time>
      </trkpt>
      <trkpt lat="43.3877560" lon="-4.2796010">
        <ele>17.8</ele>
        <time>2021-07-17T14:23:16Z</time>
      </trkpt>
      <trkpt lat="43.3877230" lon="-4.2796670">
        <ele>17.4</ele>
        <time>2021-07-17T14:23:17Z</time>
      </trkpt>
      <trkpt lat="43.3876930" lon="-4.2797380">
        <ele>17.0</ele>
        <time>2021-07-17T14:23:18Z</time>
      </trkpt>
      <trkpt lat="43.3876430" lon="-4.2798700">
        <ele>17.0</ele>
        <time>2021-07-17T14:23:20Z</time>
      </trkpt>
      <trkpt lat="43.3876190" lon="-4.2799320">
        <ele>17.0</ele>
        <time>2021-07-17T14:23:21Z</time>
      </trkpt>
      <trkpt lat="43.3875980" lon="-4.2799940">
        <ele>17.0</ele>
        <time>2021-07-17T14:23:22Z</time>
      </trkpt>
      <trkpt lat="43.3875800" lon="-4.2800550">
        <ele>17.0</ele>
        <time>2021-07-17T14:23:23Z</time>
      </trkpt>
      <trkpt lat="43.3875400" lon="-4.2801700">
        <ele>17.0</ele>
        <time>2021-07-17T14:23:25Z</time>
      </trkpt>
      <trkpt lat="43.3875130" lon="-4.2802240">
        <ele>17.0</ele>
        <time>2021-07-17T14:23:26Z</time>
      </trkpt>
      <trkpt lat="43.3874550" lon="-4.2803150">
        <ele>17.0</ele>
        <time>2021-07-17T14:23:28Z</time>
      </trkpt>
      <trkpt lat="43.3874230" lon="-4.2803540">
        <ele>17.4</ele>
        <time>2021-07-17T14:23:29Z</time>
      </trkpt>
      <trkpt lat="43.3873850" lon="-4.2803910">
        <ele>18.0</ele>
        <time>2021-07-17T14:23:30Z</time>
      </trkpt>
      <trkpt lat="43.3873440" lon="-4.2804290">
        <ele>18.4</ele>
        <time>2021-07-17T14:23:31Z</time>
      </trkpt>
      <trkpt lat="43.3873040" lon="-4.2804680">
        <ele>18.8</ele>
        <time>2021-07-17T14:23:32Z</time>
      </trkpt>
      <trkpt lat="43.3872630" lon="-4.2805090">
        <ele>19.2</ele>
        <time>2021-07-17T14:23:33Z</time>
      </trkpt>
      <trkpt lat="43.3871180" lon="-4.2806760">
        <ele>19.2</ele>
        <time>2021-07-17T14:23:37Z</time>
      </trkpt>
      <trkpt lat="43.3870700" lon="-4.2807840">
        <ele>19.8</ele>
        <time>2021-07-17T14:23:39Z</time>
      </trkpt>
      <trkpt lat="43.3870540" lon="-4.2808430">
        <ele>20.2</ele>
        <time>2021-07-17T14:23:40Z</time>
      </trkpt>
      <trkpt lat="43.3870460" lon="-4.2809050">
        <ele>20.8</ele>
        <time>2021-07-17T14:23:41Z</time>
      </trkpt>
      <trkpt lat="43.3870400" lon="-4.2809710">
        <ele>21.2</ele>
        <time>2021-07-17T14:23:42Z</time>
      </trkpt>
      <trkpt lat="43.3870360" lon="-4.2810360">
        <ele>21.6</ele>
        <time>2021-07-17T14:23:43Z</time>
      </trkpt>
      <trkpt lat="43.3870340" lon="-4.2811010">
        <ele>21.6</ele>
        <time>2021-07-17T14:23:44Z</time>
      </trkpt>
      <trkpt lat="43.3870450" lon="-4.2813430">
        <ele>21.6</ele>
        <time>2021-07-17T14:23:48Z</time>
      </trkpt>
      <trkpt lat="43.3870680" lon="-4.2814530">
        <ele>21.6</ele>
        <time>2021-07-17T14:23:50Z</time>
      </trkpt>
      <trkpt lat="43.3871470" lon="-4.2816280">
        <ele>21.6</ele>
        <time>2021-07-17T14:23:54Z</time>
      </trkpt>
      <trkpt lat="43.3872990" lon="-4.2819330">
        <ele>21.6</ele>
        <time>2021-07-17T14:24:02Z</time>
      </trkpt>
      <trkpt lat="43.3873260" lon="-4.2819840">
        <ele>21.6</ele>
        <time>2021-07-17T14:24:04Z</time>
      </trkpt>
      <trkpt lat="43.3873460" lon="-4.2820210">
        <ele>21.6</ele>
        <time>2021-07-17T14:24:06Z</time>
      </trkpt>
      <trkpt lat="43.3873570" lon="-4.2820390">
        <ele>21.6</ele>
        <time>2021-07-17T14:24:07Z</time>
      </trkpt>
      <trkpt lat="43.3874040" lon="-4.2821150">
        <ele>21.6</ele>
        <time>2021-07-17T14:24:10Z</time>
      </trkpt>
      <trkpt lat="43.3874560" lon="-4.2821840">
        <ele>21.6</ele>
        <time>2021-07-17T14:24:12Z</time>
      </trkpt>
      <trkpt lat="43.3876410" lon="-4.2824630">
        <ele>21.6</ele>
        <time>2021-07-17T14:24:18Z</time>
      </trkpt>
      <trkpt lat="43.3877880" lon="-4.2826790">
        <ele>21.6</ele>
        <time>2021-07-17T14:24:23Z</time>
      </trkpt>
      <trkpt lat="43.3878200" lon="-4.2827190">
        <ele>21.6</ele>
        <time>2021-07-17T14:24:24Z</time>
      </trkpt>
      <trkpt lat="43.3880070" lon="-4.2829610">
        <ele>21.6</ele>
        <time>2021-07-17T14:24:30Z</time>
      </trkpt>
      <trkpt lat="43.3881100" lon="-4.2832110">
        <ele>21.6</ele>
        <time>2021-07-17T14:24:35Z</time>
      </trkpt>
      <trkpt lat="43.3881900" lon="-4.2835850">
        <ele>21.6</ele>
        <time>2021-07-17T14:24:40Z</time>
      </trkpt>
      <trkpt lat="43.3882080" lon="-4.2837360">
        <ele>21.6</ele>
        <time>2021-07-17T14:24:42Z</time>
      </trkpt>
      <trkpt lat="43.3882290" lon="-4.2838800">
        <ele>22.2</ele>
        <time>2021-07-17T14:24:44Z</time>
      </trkpt>
      <trkpt lat="43.3882390" lon="-4.2839470">
        <ele>22.6</ele>
        <time>2021-07-17T14:24:45Z</time>
      </trkpt>
      <trkpt lat="43.3882490" lon="-4.2840100">
        <ele>23.0</ele>
        <time>2021-07-17T14:24:46Z</time>
      </trkpt>
      <trkpt lat="43.3882570" lon="-4.2840710">
        <ele>23.4</ele>
        <time>2021-07-17T14:24:47Z</time>
      </trkpt>
      <trkpt lat="43.3882640" lon="-4.2841370">
        <ele>23.8</ele>
        <time>2021-07-17T14:24:48Z</time>
      </trkpt>
      <trkpt lat="43.3882850" lon="-4.2843310">
        <ele>23.8</ele>
        <time>2021-07-17T14:24:51Z</time>
      </trkpt>
      <trkpt lat="43.3883160" lon="-4.2846670">
        <ele>23.8</ele>
        <time>2021-07-17T14:24:56Z</time>
      </trkpt>
      <trkpt lat="43.3883490" lon="-4.2848540">
        <ele>23.8</ele>
        <time>2021-07-17T14:24:59Z</time>
      </trkpt>
      <trkpt lat="43.3883820" lon="-4.2851170">
        <ele>23.8</ele>
        <time>2021-07-17T14:25:03Z</time>
      </trkpt>
      <trkpt lat="43.3884170" lon="-4.2853080">
        <ele>23.8</ele>
        <time>2021-07-17T14:25:06Z</time>
      </trkpt>
      <trkpt lat="43.3884440" lon="-4.2855720">
        <ele>23.8</ele>
        <time>2021-07-17T14:25:10Z</time>
      </trkpt>
      <trkpt lat="43.3884500" lon="-4.2857850">
        <ele>23.8</ele>
        <time>2021-07-17T14:25:13Z</time>
      </trkpt>
      <trkpt lat="43.3884510" lon="-4.2859230">
        <ele>23.4</ele>
        <time>2021-07-17T14:25:15Z</time>
      </trkpt>
      <trkpt lat="43.3884500" lon="-4.2859940">
        <ele>23.0</ele>
        <time>2021-07-17T14:25:16Z</time>
      </trkpt>
      <trkpt lat="43.3884490" lon="-4.2860640">
        <ele>22.6</ele>
        <time>2021-07-17T14:25:17Z</time>
      </trkpt>
      <trkpt lat="43.3884490" lon="-4.2861390">
        <ele>22.2</ele>
        <time>2021-07-17T14:25:18Z</time>
      </trkpt>
      <trkpt lat="43.3884500" lon="-4.2862100">
        <ele>21.8</ele>
        <time>2021-07-17T14:25:19Z</time>
      </trkpt>
      <trkpt lat="43.3884490" lon="-4.2862760">
        <ele>21.8</ele>
        <time>2021-07-17T14:25:20Z</time>
      </trkpt>
      <trkpt lat="43.3884410" lon="-4.2863600">
        <ele>21.8</ele>
        <time>2021-07-17T14:25:22Z</time>
      </trkpt>
      <trkpt lat="43.3884330" lon="-4.2864010">
        <ele>21.8</ele>
        <time>2021-07-17T14:25:23Z</time>
      </trkpt>
      <trkpt lat="43.3884300" lon="-4.2865590">
        <ele>21.8</ele>
        <time>2021-07-17T14:25:26Z</time>
      </trkpt>
      <trkpt lat="43.3884340" lon="-4.2866220">
        <ele>21.8</ele>
        <time>2021-07-17T14:25:27Z</time>
      </trkpt>
      <trkpt lat="43.3884340" lon="-4.2868360">
        <ele>21.8</ele>
        <time>2021-07-17T14:25:30Z</time>
      </trkpt>
      <trkpt lat="43.3884320" lon="-4.2869090">
        <ele>21.8</ele>
        <time>2021-07-17T14:25:31Z</time>
      </trkpt>
      <trkpt lat="43.3884290" lon="-4.2871270">
        <ele>21.8</ele>
        <time>2021-07-17T14:25:34Z</time>
      </trkpt>
      <trkpt lat="43.3884480" lon="-4.2876150">
        <ele>21.8</ele>
        <time>2021-07-17T14:25:41Z</time>
      </trkpt>
      <trkpt lat="43.3885280" lon="-4.2881400">
        <ele>21.8</ele>
        <time>2021-07-17T14:25:49Z</time>
      </trkpt>
      <trkpt lat="43.3885390" lon="-4.2882080">
        <ele>21.8</ele>
        <time>2021-07-17T14:25:50Z</time>
      </trkpt>
      <trkpt lat="43.3885750" lon="-4.2884270">
        <ele>21.8</ele>
        <time>2021-07-17T14:25:53Z</time>
      </trkpt>
      <trkpt lat="43.3886120" lon="-4.2887400">
        <ele>21.8</ele>
        <time>2021-07-17T14:25:57Z</time>
      </trkpt>
      <trkpt lat="43.3887000" lon="-4.2892370">
        <ele>21.8</ele>
        <time>2021-07-17T14:26:04Z</time>
      </trkpt>
      <trkpt lat="43.3887170" lon="-4.2893030">
        <ele>21.8</ele>
        <time>2021-07-17T14:26:05Z</time>
      </trkpt>
      <trkpt lat="43.3888230" lon="-4.2896390">
        <ele>21.8</ele>
        <time>2021-07-17T14:26:10Z</time>
      </trkpt>
      <trkpt lat="43.3888770" lon="-4.2897640">
        <ele>21.8</ele>
        <time>2021-07-17T14:26:12Z</time>
      </trkpt>
      <trkpt lat="43.3891060" lon="-4.2900770">
        <ele>21.8</ele>
        <time>2021-07-17T14:26:18Z</time>
      </trkpt>
      <trkpt lat="43.3894050" lon="-4.2904410">
        <ele>21.8</ele>
        <time>2021-07-17T14:26:26Z</time>
      </trkpt>
      <trkpt lat="43.3895180" lon="-4.2905760">
        <ele>21.8</ele>
        <time>2021-07-17T14:26:29Z</time>
      </trkpt>
      <trkpt lat="43.3896710" lon="-4.2907630">
        <ele>21.8</ele>
        <time>2021-07-17T14:26:33Z</time>
      </trkpt>
      <trkpt lat="43.3897430" lon="-4.2908600">
        <ele>21.8</ele>
        <time>2021-07-17T14:26:35Z</time>
      </trkpt>
      <trkpt lat="43.3899570" lon="-4.2911330">
        <ele>21.8</ele>
        <time>2021-07-17T14:26:41Z</time>
      </trkpt>
      <trkpt lat="43.3900460" lon="-4.2912850">
        <ele>21.8</ele>
        <time>2021-07-17T14:26:44Z</time>
      </trkpt>
      <trkpt lat="43.3902910" lon="-4.2916990">
        <ele>21.8</ele>
        <time>2021-07-17T14:26:52Z</time>
      </trkpt>
      <trkpt lat="43.3904320" lon="-4.2919340">
        <ele>21.8</ele>
        <time>2021-07-17T14:26:57Z</time>
      </trkpt>
      <trkpt lat="43.3905130" lon="-4.2920620">
        <ele>22.2</ele>
        <time>2021-07-17T14:27:00Z</time>
      </trkpt>
      <trkpt lat="43.3905380" lon="-4.2921020">
        <ele>22.6</ele>
        <time>2021-07-17T14:27:01Z</time>
      </trkpt>
      <trkpt lat="43.3905630" lon="-4.2921430">
        <ele>23.2</ele>
        <time>2021-07-17T14:27:02Z</time>
      </trkpt>
      <trkpt lat="43.3905880" lon="-4.2921880">
        <ele>23.6</ele>
        <time>2021-07-17T14:27:03Z</time>
      </trkpt>
      <trkpt lat="43.3906080" lon="-4.2922320">
        <ele>24.0</ele>
        <time>2021-07-17T14:27:04Z</time>
      </trkpt>
      <trkpt lat="43.3906600" lon="-4.2923570">
        <ele>24.0</ele>
        <time>2021-07-17T14:27:07Z</time>
      </trkpt>
      <trkpt lat="43.3907180" lon="-4.2924710">
        <ele>24.0</ele>
        <time>2021-07-17T14:27:11Z</time>
      </trkpt>
      <trkpt lat="43.3907350" lon="-4.2924740">
        <ele>24.0</ele>
        <time>2021-07-17T14:27:12Z</time>
      </trkpt>
      <trkpt lat="43.3907810" lon="-4.2924080">
        <ele>24.6</ele>
        <time>2021-07-17T14:27:15Z</time>
      </trkpt>
      <trkpt lat="43.3908000" lon="-4.2923740">
        <ele>25.0</ele>
        <time>2021-07-17T14:27:16Z</time>
      </trkpt>
      <trkpt lat="43.3908220" lon="-4.2923330">
        <ele>25.6</ele>
        <time>2021-07-17T14:27:17Z</time>
      </trkpt>
      <trkpt lat="43.3908410" lon="-4.2922900">
        <ele>26.2</ele>
        <time>2021-07-17T14:27:18Z</time>
      </trkpt>
      <trkpt lat="43.3908550" lon="-4.2922450">
        <ele>26.8</ele>
        <time>2021-07-17T14:27:19Z</time>
      </trkpt>
      <trkpt lat="43.3908670" lon="-4.2922010">
        <ele>26.8</ele>
        <time>2021-07-17T14:27:20Z</time>
      </trkpt>
      <trkpt lat="43.3908900" lon="-4.2921190">
        <ele>26.8</ele>
        <time>2021-07-17T14:27:22Z</time>
      </trkpt>
      <trkpt lat="43.3909140" lon="-4.2920260">
        <ele>26.8</ele>
        <time>2021-07-17T14:27:25Z</time>
      </trkpt>
      <trkpt lat="43.3909200" lon="-4.2919880">
        <ele>26.4</ele>
        <time>2021-07-17T14:27:26Z</time>
      </trkpt>
      <trkpt lat="43.3909280" lon="-4.2919460">
        <ele>26.0</ele>
        <time>2021-07-17T14:27:27Z</time>
      </trkpt>
      <trkpt lat="43.3909360" lon="-4.2919050">
        <ele>25.6</ele>
        <time>2021-07-17T14:27:28Z</time>
      </trkpt>
      <trkpt lat="43.3909420" lon="-4.2918660">
        <ele>24.8</ele>
        <time>2021-07-17T14:27:29Z</time>
      </trkpt>
      <trkpt lat="43.3909570" lon="-4.2917290">
        <ele>24.8</ele>
        <time>2021-07-17T14:27:33Z</time>
      </trkpt>
      <trkpt lat="43.3909560" lon="-4.2917170">
        <ele>24.8</ele>
        <time>2021-07-17T14:27:35Z</time>
      </trkpt>
      <trkpt lat="43.3909630" lon="-4.2917170">
        <ele>24.8</ele>
        <time>2021-07-17T14:27:47Z</time>
      </trkpt>
      <trkpt lat="43.3909670" lon="-4.2917240">
        <ele>24.8</ele>
        <time>2021-07-17T14:27:48Z</time>
      </trkpt>
      <trkpt lat="43.3909630" lon="-4.2917610">
        <ele>24.8</ele>
        <time>2021-07-17T14:27:50Z</time>
      </trkpt>
      <trkpt lat="43.3909630" lon="-4.2917790">
        <ele>24.8</ele>
        <time>2021-07-17T14:27:51Z</time>
      </trkpt>
      <trkpt lat="43.3909300" lon="-4.2919020">
        <ele>24.8</ele>
        <time>2021-07-17T14:27:58Z</time>
      </trkpt>
      <trkpt lat="43.3909030" lon="-4.2920320">
        <ele>24.8</ele>
        <time>2021-07-17T14:28:05Z</time>
      </trkpt>
      <trkpt lat="43.3908830" lon="-4.2921120">
        <ele>24.8</ele>
        <time>2021-07-17T14:28:09Z</time>
      </trkpt>
      <trkpt lat="43.3908760" lon="-4.2921500">
        <ele>24.8</ele>
        <time>2021-07-17T14:28:11Z</time>
      </trkpt>
      <trkpt lat="43.3908570" lon="-4.2922510">
        <ele>24.8</ele>
        <time>2021-07-17T14:28:16Z</time>
      </trkpt>
      <trkpt lat="43.3908160" lon="-4.2923610">
        <ele>24.8</ele>
        <time>2021-07-17T14:28:22Z</time>
      </trkpt>
      <trkpt lat="43.3907620" lon="-4.2924200">
        <ele>24.8</ele>
        <time>2021-07-17T14:28:27Z</time>
      </trkpt>
      <trkpt lat="43.3907340" lon="-4.2924070">
        <ele>24.8</ele>
        <time>2021-07-17T14:28:29Z</time>
      </trkpt>
      <trkpt lat="43.3907310" lon="-4.2924040">
        <ele>24.8</ele>
        <time>2021-07-17T14:28:30Z</time>
      </trkpt>
      <trkpt lat="43.3907140" lon="-4.2923590">
        <ele>24.8</ele>
        <time>2021-07-17T14:28:34Z</time>
      </trkpt>
      <trkpt lat="43.3907030" lon="-4.2923310">
        <ele>24.8</ele>
        <time>2021-07-17T14:28:35Z</time>
      </trkpt>
      <trkpt lat="43.3906020" lon="-4.2921170">
        <ele>24.8</ele>
        <time>2021-07-17T14:28:41Z</time>
      </trkpt>
      <trkpt lat="43.3904840" lon="-4.2919150">
        <ele>24.8</ele>
        <time>2021-07-17T14:28:47Z</time>
      </trkpt>
      <trkpt lat="43.3904660" lon="-4.2918820">
        <ele>24.8</ele>
        <time>2021-07-17T14:28:48Z</time>
      </trkpt>
      <trkpt lat="43.3903850" lon="-4.2917590">
        <ele>24.8</ele>
        <time>2021-07-17T14:28:54Z</time>
      </trkpt>
      <trkpt lat="43.3903800" lon="-4.2917520">
        <ele>24.8</ele>
        <time>2021-07-17T14:28:56Z</time>
      </trkpt>
      <trkpt lat="43.3903510" lon="-4.2917590">
        <ele>24.8</ele>
        <time>2021-07-17T14:29:07Z</time>
      </trkpt>
      <trkpt lat="43.3903230" lon="-4.2917680">
        <ele>24.8</ele>
        <time>2021-07-17T14:29:09Z</time>
      </trkpt>
      <trkpt lat="43.3902810" lon="-4.2917590">
        <ele>24.8</ele>
        <time>2021-07-17T14:29:15Z</time>
      </trkpt>
      <trkpt lat="43.3903130" lon="-4.2917920">
        <ele>22.6</ele>
        <time>2021-07-17T14:33:14Z</time>
      </trkpt>
      <trkpt lat="43.3903250" lon="-4.2918430">
        <ele>22.6</ele>
        <time>2021-07-17T14:33:16Z</time>
      </trkpt>
      <trkpt lat="43.3903950" lon="-4.2919750">
        <ele>22.6</ele>
        <time>2021-07-17T14:33:22Z</time>
      </trkpt>
      <trkpt lat="43.3904250" lon="-4.2920110">
        <ele>22.6</ele>
        <time>2021-07-17T14:33:24Z</time>
      </trkpt>
      <trkpt lat="43.3905240" lon="-4.2920950">
        <ele>22.6</ele>
        <time>2021-07-17T14:33:28Z</time>
      </trkpt>
      <trkpt lat="43.3905940" lon="-4.2922050">
        <ele>22.6</ele>
        <time>2021-07-17T14:33:31Z</time>
      </trkpt>
      <trkpt lat="43.3906330" lon="-4.2922890">
        <ele>22.6</ele>
        <time>2021-07-17T14:33:33Z</time>
      </trkpt>
      <trkpt lat="43.3906660" lon="-4.2923800">
        <ele>23.0</ele>
        <time>2021-07-17T14:33:35Z</time>
      </trkpt>
      <trkpt lat="43.3906800" lon="-4.2924270">
        <ele>23.4</ele>
        <time>2021-07-17T14:33:36Z</time>
      </trkpt>
      <trkpt lat="43.3906960" lon="-4.2924740">
        <ele>24.0</ele>
        <time>2021-07-17T14:33:37Z</time>
      </trkpt>
      <trkpt lat="43.3907130" lon="-4.2925240">
        <ele>24.4</ele>
        <time>2021-07-17T14:33:38Z</time>
      </trkpt>
      <trkpt lat="43.3907280" lon="-4.2925720">
        <ele>24.8</ele>
        <time>2021-07-17T14:33:39Z</time>
      </trkpt>
      <trkpt lat="43.3907790" lon="-4.2927160">
        <ele>24.8</ele>
        <time>2021-07-17T14:33:42Z</time>
      </trkpt>
      <trkpt lat="43.3908010" lon="-4.2927600">
        <ele>24.8</ele>
        <time>2021-07-17T14:33:43Z</time>
      </trkpt>
      <trkpt lat="43.3908980" lon="-4.2929120">
        <ele>24.8</ele>
        <time>2021-07-17T14:33:47Z</time>
      </trkpt>
      <trkpt lat="43.3909330" lon="-4.2929940">
        <ele>25.2</ele>
        <time>2021-07-17T14:33:49Z</time>
      </trkpt>
      <trkpt lat="43.3909460" lon="-4.2930380">
        <ele>25.6</ele>
        <time>2021-07-17T14:33:50Z</time>
      </trkpt>
      <trkpt lat="43.3909550" lon="-4.2930830">
        <ele>26.0</ele>
        <time>2021-07-17T14:33:51Z</time>
      </trkpt>
      <trkpt lat="43.3909570" lon="-4.2931300">
        <ele>26.8</ele>
        <time>2021-07-17T14:33:52Z</time>
      </trkpt>
      <trkpt lat="43.3909470" lon="-4.2932220">
        <ele>26.8</ele>
        <time>2021-07-17T14:33:54Z</time>
      </trkpt>
      <trkpt lat="43.3908680" lon="-4.2933790">
        <ele>26.8</ele>
        <time>2021-07-17T14:33:59Z</time>
      </trkpt>
      <trkpt lat="43.3908470" lon="-4.2933900">
        <ele>27.2</ele>
        <time>2021-07-17T14:34:00Z</time>
      </trkpt>
      <trkpt lat="43.3908230" lon="-4.2933970">
        <ele>27.6</ele>
        <time>2021-07-17T14:34:01Z</time>
      </trkpt>
      <trkpt lat="43.3907990" lon="-4.2934040">
        <ele>28.0</ele>
        <time>2021-07-17T14:34:02Z</time>
      </trkpt>
      <trkpt lat="43.3907720" lon="-4.2934100">
        <ele>28.4</ele>
        <time>2021-07-17T14:34:03Z</time>
      </trkpt>
      <trkpt lat="43.3907430" lon="-4.2934100">
        <ele>28.8</ele>
        <time>2021-07-17T14:34:04Z</time>
      </trkpt>
      <trkpt lat="43.3907090" lon="-4.2934040">
        <ele>28.8</ele>
        <time>2021-07-17T14:34:05Z</time>
      </trkpt>
      <trkpt lat="43.3905580" lon="-4.2932850">
        <ele>28.8</ele>
        <time>2021-07-17T14:34:10Z</time>
      </trkpt>
      <trkpt lat="43.3905470" lon="-4.2932680">
        <ele>28.8</ele>
        <time>2021-07-17T14:34:12Z</time>
      </trkpt>
      <trkpt lat="43.3905450" lon="-4.2932500">
        <ele>28.8</ele>
        <time>2021-07-17T14:34:16Z</time>
      </trkpt>
      <trkpt lat="43.3905340" lon="-4.2931500">
        <ele>28.8</ele>
        <time>2021-07-17T14:34:19Z</time>
      </trkpt>
      <trkpt lat="43.3905370" lon="-4.2931070">
        <ele>28.8</ele>
        <time>2021-07-17T14:34:20Z</time>
      </trkpt>
      <trkpt lat="43.3905430" lon="-4.2930640">
        <ele>28.4</ele>
        <time>2021-07-17T14:34:21Z</time>
      </trkpt>
      <trkpt lat="43.3905420" lon="-4.2930260">
        <ele>28.0</ele>
        <time>2021-07-17T14:34:22Z</time>
      </trkpt>
      <trkpt lat="43.3905300" lon="-4.2929990">
        <ele>27.6</ele>
        <time>2021-07-17T14:34:23Z</time>
      </trkpt>
      <trkpt lat="43.3905060" lon="-4.2929870">
        <ele>27.2</ele>
        <time>2021-07-17T14:34:24Z</time>
      </trkpt>
      <trkpt lat="43.3904830" lon="-4.2929930">
        <ele>26.8</ele>
        <time>2021-07-17T14:34:25Z</time>
      </trkpt>
      <trkpt lat="43.3904330" lon="-4.2930410">
        <ele>26.8</ele>
        <time>2021-07-17T14:34:27Z</time>
      </trkpt>
      <trkpt lat="43.3904010" lon="-4.2930630">
        <ele>26.8</ele>
        <time>2021-07-17T14:34:28Z</time>
      </trkpt>
      <trkpt lat="43.3901620" lon="-4.2931800">
        <ele>26.8</ele>
        <time>2021-07-17T14:34:35Z</time>
      </trkpt>
      <trkpt lat="43.3899820" lon="-4.2933790">
        <ele>26.8</ele>
        <time>2021-07-17T14:34:41Z</time>
      </trkpt>
      <trkpt lat="43.3898230" lon="-4.2935550">
        <ele>27.2</ele>
        <time>2021-07-17T14:34:47Z</time>
      </trkpt>
      <trkpt lat="43.3897980" lon="-4.2935860">
        <ele>27.6</ele>
        <time>2021-07-17T14:34:48Z</time>
      </trkpt>
      <trkpt lat="43.3897710" lon="-4.2936160">
        <ele>28.0</ele>
        <time>2021-07-17T14:34:49Z</time>
      </trkpt>
      <trkpt lat="43.3897440" lon="-4.2936460">
        <ele>28.4</ele>
        <time>2021-07-17T14:34:50Z</time>
      </trkpt>
      <trkpt lat="43.3897180" lon="-4.2936780">
        <ele>28.8</ele>
        <time>2021-07-17T14:34:51Z</time>
      </trkpt>
      <trkpt lat="43.3895890" lon="-4.2938340">
        <ele>28.8</ele>
        <time>2021-07-17T14:34:56Z</time>
      </trkpt>
      <trkpt lat="43.3893820" lon="-4.2940670">
        <ele>28.8</ele>
        <time>2021-07-17T14:35:04Z</time>
      </trkpt>
      <trkpt lat="43.3893150" lon="-4.2941610">
        <ele>29.2</ele>
        <time>2021-07-17T14:35:07Z</time>
      </trkpt>
      <trkpt lat="43.3892930" lon="-4.2942020">
        <ele>29.6</ele>
        <time>2021-07-17T14:35:08Z</time>
      </trkpt>
      <trkpt lat="43.3892740" lon="-4.2942390">
        <ele>30.0</ele>
        <time>2021-07-17T14:35:09Z</time>
      </trkpt>
      <trkpt lat="43.3892580" lon="-4.2942780">
        <ele>30.4</ele>
        <time>2021-07-17T14:35:10Z</time>
      </trkpt>
      <trkpt lat="43.3892460" lon="-4.2943150">
        <ele>30.8</ele>
        <time>2021-07-17T14:35:11Z</time>
      </trkpt>
      <trkpt lat="43.3892410" lon="-4.2943800">
        <ele>31.2</ele>
        <time>2021-07-17T14:35:13Z</time>
      </trkpt>
      <trkpt lat="43.3892430" lon="-4.2944030">
        <ele>31.8</ele>
        <time>2021-07-17T14:35:14Z</time>
      </trkpt>
      <trkpt lat="43.3892510" lon="-4.2944120">
        <ele>32.2</ele>
        <time>2021-07-17T14:35:15Z</time>
      </trkpt>
      <trkpt lat="43.3892290" lon="-4.2944350">
        <ele>33.0</ele>
        <time>2021-07-17T14:35:32Z</time>
      </trkpt>
      <trkpt lat="43.3892010" lon="-4.2944190">
        <ele>33.0</ele>
        <time>2021-07-17T14:35:34Z</time>
      </trkpt>
      <trkpt lat="43.3891750" lon="-4.2944030">
        <ele>33.0</ele>
        <time>2021-07-17T14:35:36Z</time>
      </trkpt>
      <trkpt lat="43.3891670" lon="-4.2944020">
        <ele>33.0</ele>
        <time>2021-07-17T14:35:37Z</time>
      </trkpt>
      <trkpt lat="43.3891480" lon="-4.2944060">
        <ele>33.0</ele>
        <time>2021-07-17T14:35:40Z</time>
      </trkpt>
      <trkpt lat="43.3890040" lon="-4.2944160">
        <ele>33.0</ele>
        <time>2021-07-17T14:35:45Z</time>
      </trkpt>
      <trkpt lat="43.3887890" lon="-4.2943310">
        <ele>33.4</ele>
        <time>2021-07-17T14:35:50Z</time>
      </trkpt>
      <trkpt lat="43.3887450" lon="-4.2943170">
        <ele>33.8</ele>
        <time>2021-07-17T14:35:51Z</time>
      </trkpt>
      <trkpt lat="43.3887010" lon="-4.2943000">
        <ele>34.2</ele>
        <time>2021-07-17T14:35:52Z</time>
      </trkpt>
      <trkpt lat="43.3886550" lon="-4.2942840">
        <ele>34.6</ele>
        <time>2021-07-17T14:35:53Z</time>
      </trkpt>
      <trkpt lat="43.3886130" lon="-4.2942690">
        <ele>35.0</ele>
        <time>2021-07-17T14:35:54Z</time>
      </trkpt>
      <trkpt lat="43.3883340" lon="-4.2941550">
        <ele>35.0</ele>
        <time>2021-07-17T14:36:01Z</time>
      </trkpt>
      <trkpt lat="43.3880300" lon="-4.2940710">
        <ele>35.0</ele>
        <time>2021-07-17T14:36:09Z</time>
      </trkpt>
      <trkpt lat="43.3877690" lon="-4.2940730">
        <ele>35.0</ele>
        <time>2021-07-17T14:36:16Z</time>
      </trkpt>
      <trkpt lat="43.3876250" lon="-4.2941130">
        <ele>35.0</ele>
        <time>2021-07-17T14:36:21Z</time>
      </trkpt>
      <trkpt lat="43.3876060" lon="-4.2941270">
        <ele>35.0</ele>
        <time>2021-07-17T14:36:22Z</time>
      </trkpt>
      <trkpt lat="43.3875930" lon="-4.2941640">
        <ele>35.0</ele>
        <time>2021-07-17T14:36:24Z</time>
      </trkpt>
      <trkpt lat="43.3875960" lon="-4.2941810">
        <ele>35.0</ele>
        <time>2021-07-17T14:36:26Z</time>
      </trkpt>
      <trkpt lat="43.3875730" lon="-4.2941640">
        <ele>37.0</ele>
        <time>2021-07-17T14:37:14Z</time>
      </trkpt>
      <trkpt lat="43.3875580" lon="-4.2941570">
        <ele>37.0</ele>
        <time>2021-07-17T14:37:15Z</time>
      </trkpt>
      <trkpt lat="43.3875230" lon="-4.2941650">
        <ele>37.0</ele>
        <time>2021-07-17T14:37:17Z</time>
      </trkpt>
      <trkpt lat="43.3874760" lon="-4.2941940">
        <ele>37.0</ele>
        <time>2021-07-17T14:37:19Z</time>
      </trkpt>
      <trkpt lat="43.3873840" lon="-4.2942520">
        <ele>37.0</ele>
        <time>2021-07-17T14:37:22Z</time>
      </trkpt>
      <trkpt lat="43.3870950" lon="-4.2944490">
        <ele>37.0</ele>
        <time>2021-07-17T14:37:31Z</time>
      </trkpt>
      <trkpt lat="43.3869960" lon="-4.2945220">
        <ele>37.0</ele>
        <time>2021-07-17T14:37:34Z</time>
      </trkpt>
      <trkpt lat="43.3868790" lon="-4.2946010">
        <ele>37.0</ele>
        <time>2021-07-17T14:37:37Z</time>
      </trkpt>
      <trkpt lat="43.3867990" lon="-4.2946570">
        <ele>37.0</ele>
        <time>2021-07-17T14:37:39Z</time>
      </trkpt>
      <trkpt lat="43.3865150" lon="-4.2948670">
        <ele>37.0</ele>
        <time>2021-07-17T14:37:46Z</time>
      </trkpt>
      <trkpt lat="43.3862450" lon="-4.2951770">
        <ele>37.0</ele>
        <time>2021-07-17T14:37:53Z</time>
      </trkpt>
      <trkpt lat="43.3860710" lon="-4.2954080">
        <ele>37.0</ele>
        <time>2021-07-17T14:37:58Z</time>
      </trkpt>
      <trkpt lat="43.3860100" lon="-4.2954870">
        <ele>37.0</ele>
        <time>2021-07-17T14:38:00Z</time>
      </trkpt>
      <trkpt lat="43.3859550" lon="-4.2955590">
        <ele>37.0</ele>
        <time>2021-07-17T14:38:02Z</time>
      </trkpt>
      <trkpt lat="43.3858000" lon="-4.2957640">
        <ele>37.0</ele>
        <time>2021-07-17T14:38:07Z</time>
      </trkpt>
      <trkpt lat="43.3855380" lon="-4.2960720">
        <ele>37.0</ele>
        <time>2021-07-17T14:38:14Z</time>
      </trkpt>
      <trkpt lat="43.3852750" lon="-4.2963560">
        <ele>37.0</ele>
        <time>2021-07-17T14:38:20Z</time>
      </trkpt>
      <trkpt lat="43.3851360" lon="-4.2965100">
        <ele>37.0</ele>
        <time>2021-07-17T14:38:23Z</time>
      </trkpt>
      <trkpt lat="43.3850000" lon="-4.2966680">
        <ele>36.6</ele>
        <time>2021-07-17T14:38:26Z</time>
      </trkpt>
      <trkpt lat="43.3849590" lon="-4.2967190">
        <ele>36.2</ele>
        <time>2021-07-17T14:38:27Z</time>
      </trkpt>
      <trkpt lat="43.3849210" lon="-4.2967690">
        <ele>35.8</ele>
        <time>2021-07-17T14:38:28Z</time>
      </trkpt>
      <trkpt lat="43.3848850" lon="-4.2968200">
        <ele>35.2</ele>
        <time>2021-07-17T14:38:29Z</time>
      </trkpt>
      <trkpt lat="43.3848560" lon="-4.2968740">
        <ele>34.8</ele>
        <time>2021-07-17T14:38:30Z</time>
      </trkpt>
      <trkpt lat="43.3847290" lon="-4.2971750">
        <ele>34.8</ele>
        <time>2021-07-17T14:38:35Z</time>
      </trkpt>
      <trkpt lat="43.3846980" lon="-4.2972180">
        <ele>34.8</ele>
        <time>2021-07-17T14:38:36Z</time>
      </trkpt>
      <trkpt lat="43.3845720" lon="-4.2972710">
        <ele>34.8</ele>
        <time>2021-07-17T14:38:39Z</time>
      </trkpt>
      <trkpt lat="43.3844850" lon="-4.2972220">
        <ele>34.8</ele>
        <time>2021-07-17T14:38:41Z</time>
      </trkpt>
      <trkpt lat="43.3844510" lon="-4.2971750">
        <ele>34.8</ele>
        <time>2021-07-17T14:38:42Z</time>
      </trkpt>
      <trkpt lat="43.3844120" lon="-4.2969850">
        <ele>34.8</ele>
        <time>2021-07-17T14:38:45Z</time>
      </trkpt>
      <trkpt lat="43.3844550" lon="-4.2968090">
        <ele>34.8</ele>
        <time>2021-07-17T14:38:48Z</time>
      </trkpt>
      <trkpt lat="43.3844750" lon="-4.2967570">
        <ele>34.8</ele>
        <time>2021-07-17T14:38:49Z</time>
      </trkpt>
      <trkpt lat="43.3845770" lon="-4.2963970">
        <ele>34.8</ele>
        <time>2021-07-17T14:38:55Z</time>
      </trkpt>
      <trkpt lat="43.3845890" lon="-4.2963320">
        <ele>34.8</ele>
        <time>2021-07-17T14:38:56Z</time>
      </trkpt>
      <trkpt lat="43.3846160" lon="-4.2961960">
        <ele>34.8</ele>
        <time>2021-07-17T14:38:58Z</time>
      </trkpt>
      <trkpt lat="43.3846480" lon="-4.2960520">
        <ele>34.4</ele>
        <time>2021-07-17T14:39:00Z</time>
      </trkpt>
      <trkpt lat="43.3846620" lon="-4.2959960">
        <ele>34.0</ele>
        <time>2021-07-17T14:39:01Z</time>
      </trkpt>
      <trkpt lat="43.3846720" lon="-4.2959450">
        <ele>33.6</ele>
        <time>2021-07-17T14:39:02Z</time>
      </trkpt>
      <trkpt lat="43.3846830" lon="-4.2958930">
        <ele>33.0</ele>
        <time>2021-07-17T14:39:03Z</time>
      </trkpt>
      <trkpt lat="43.3846950" lon="-4.2958400">
        <ele>32.2</ele>
        <time>2021-07-17T14:39:04Z</time>
      </trkpt>
      <trkpt lat="43.3847050" lon="-4.2957880">
        <ele>31.4</ele>
        <time>2021-07-17T14:39:05Z</time>
      </trkpt>
      <trkpt lat="43.3847130" lon="-4.2957360">
        <ele>30.8</ele>
        <time>2021-07-17T14:39:06Z</time>
      </trkpt>
      <trkpt lat="43.3847220" lon="-4.2956800">
        <ele>30.0</ele>
        <time>2021-07-17T14:39:07Z</time>
      </trkpt>
      <trkpt lat="43.3847750" lon="-4.2954320">
        <ele>30.0</ele>
        <time>2021-07-17T14:39:11Z</time>
      </trkpt>
      <trkpt lat="43.3847930" lon="-4.2953630">
        <ele>29.2</ele>
        <time>2021-07-17T14:39:12Z</time>
      </trkpt>
      <trkpt lat="43.3848070" lon="-4.2952970">
        <ele>28.8</ele>
        <time>2021-07-17T14:39:13Z</time>
      </trkpt>
      <trkpt lat="43.3848220" lon="-4.2952290">
        <ele>28.4</ele>
        <time>2021-07-17T14:39:14Z</time>
      </trkpt>
      <trkpt lat="43.3848370" lon="-4.2951560">
        <ele>28.0</ele>
        <time>2021-07-17T14:39:15Z</time>
      </trkpt>
      <trkpt lat="43.3848910" lon="-4.2948830">
        <ele>28.0</ele>
        <time>2021-07-17T14:39:19Z</time>
      </trkpt>
      <trkpt lat="43.3849700" lon="-4.2945460">
        <ele>27.6</ele>
        <time>2021-07-17T14:39:24Z</time>
      </trkpt>
      <trkpt lat="43.3849850" lon="-4.2944810">
        <ele>27.2</ele>
        <time>2021-07-17T14:39:25Z</time>
      </trkpt>
      <trkpt lat="43.3849990" lon="-4.2944180">
        <ele>26.6</ele>
        <time>2021-07-17T14:39:26Z</time>
      </trkpt>
      <trkpt lat="43.3850120" lon="-4.2943600">
        <ele>26.2</ele>
        <time>2021-07-17T14:39:27Z</time>
      </trkpt>
      <trkpt lat="43.3850250" lon="-4.2943010">
        <ele>25.8</ele>
        <time>2021-07-17T14:39:28Z</time>
      </trkpt>
      <trkpt lat="43.3850550" lon="-4.2941780">
        <ele>25.8</ele>
        <time>2021-07-17T14:39:30Z</time>
      </trkpt>
      <trkpt lat="43.3851000" lon="-4.2940000">
        <ele>25.8</ele>
        <time>2021-07-17T14:39:33Z</time>
      </trkpt>
      <trkpt lat="43.3851380" lon="-4.2938140">
        <ele>25.8</ele>
        <time>2021-07-17T14:39:36Z</time>
      </trkpt>
      <trkpt lat="43.3851910" lon="-4.2935500">
        <ele>25.8</ele>
        <time>2021-07-17T14:39:40Z</time>
      </trkpt>
      <trkpt lat="43.3852010" lon="-4.2934850">
        <ele>25.8</ele>
        <time>2021-07-17T14:39:41Z</time>
      </trkpt>
      <trkpt lat="43.3852590" lon="-4.2932340">
        <ele>25.8</ele>
        <time>2021-07-17T14:39:45Z</time>
      </trkpt>
      <trkpt lat="43.3852770" lon="-4.2931790">
        <ele>25.4</ele>
        <time>2021-07-17T14:39:46Z</time>
      </trkpt>
      <trkpt lat="43.3852970" lon="-4.2931260">
        <ele>25.0</ele>
        <time>2021-07-17T14:39:47Z</time>
      </trkpt>
      <trkpt lat="43.3853150" lon="-4.2930750">
        <ele>24.6</ele>
        <time>2021-07-17T14:39:48Z</time>
      </trkpt>
      <trkpt lat="43.3853310" lon="-4.2930250">
        <ele>24.2</ele>
        <time>2021-07-17T14:39:49Z</time>
      </trkpt>
      <trkpt lat="43.3853450" lon="-4.2929750">
        <ele>23.8</ele>
        <time>2021-07-17T14:39:50Z</time>
      </trkpt>
      <trkpt lat="43.3853730" lon="-4.2928790">
        <ele>23.8</ele>
        <time>2021-07-17T14:39:52Z</time>
      </trkpt>
      <trkpt lat="43.3853900" lon="-4.2927890">
        <ele>23.8</ele>
        <time>2021-07-17T14:39:54Z</time>
      </trkpt>
      <trkpt lat="43.3854160" lon="-4.2926820">
        <ele>23.8</ele>
        <time>2021-07-17T14:39:57Z</time>
      </trkpt>
      <trkpt lat="43.3854380" lon="-4.2926280">
        <ele>23.8</ele>
        <time>2021-07-17T14:39:59Z</time>
      </trkpt>
      <trkpt lat="43.3855280" lon="-4.2924260">
        <ele>23.8</ele>
        <time>2021-07-17T14:40:05Z</time>
      </trkpt>
      <trkpt lat="43.3856000" lon="-4.2922940">
        <ele>23.8</ele>
        <time>2021-07-17T14:40:10Z</time>
      </trkpt>
      <trkpt lat="43.3856080" lon="-4.2922790">
        <ele>23.8</ele>
        <time>2021-07-17T14:40:11Z</time>
      </trkpt>
      <trkpt lat="43.3856150" lon="-4.2922630">
        <ele>23.8</ele>
        <time>2021-07-17T14:40:13Z</time>
      </trkpt>
      <trkpt lat="43.3856140" lon="-4.2922270">
        <ele>23.8</ele>
        <time>2021-07-17T14:40:15Z</time>
      </trkpt>
      <trkpt lat="43.3856080" lon="-4.2922070">
        <ele>23.8</ele>
        <time>2021-07-17T14:40:16Z</time>
      </trkpt>
      <trkpt lat="43.3855940" lon="-4.2921730">
        <ele>23.8</ele>
        <time>2021-07-17T14:40:18Z</time>
      </trkpt>
      <trkpt lat="43.3855590" lon="-4.2921250">
        <ele>23.8</ele>
        <time>2021-07-17T14:40:21Z</time>
      </trkpt>
      <trkpt lat="43.3855040" lon="-4.2920450">
        <ele>23.8</ele>
        <time>2021-07-17T14:40:25Z</time>
      </trkpt>
      <trkpt lat="43.3854550" lon="-4.2919910">
        <ele>23.8</ele>
        <time>2021-07-17T14:40:28Z</time>
      </trkpt>
      <trkpt lat="43.3853510" lon="-4.2919300">
        <ele>23.8</ele>
        <time>2021-07-17T14:40:32Z</time>
      </trkpt>
      <trkpt lat="43.3853060" lon="-4.2919000">
        <ele>23.8</ele>
        <time>2021-07-17T14:40:34Z</time>
      </trkpt>
      <trkpt lat="43.3851540" lon="-4.2918350">
        <ele>23.8</ele>
        <time>2021-07-17T14:40:40Z</time>
      </trkpt>
      <trkpt lat="43.3849990" lon="-4.2917220">
        <ele>23.8</ele>
        <time>2021-07-17T14:40:48Z</time>
      </trkpt>
      <trkpt lat="43.3849680" lon="-4.2917140">
        <ele>23.8</ele>
        <time>2021-07-17T14:40:53Z</time>
      </trkpt>
      <trkpt lat="43.3850030" lon="-4.2916720">
        <ele>23.8</ele>
        <time>2021-07-17T14:41:15Z</time>
      </trkpt>
      <trkpt lat="43.3850100" lon="-4.2916580">
        <ele>23.8</ele>
        <time>2021-07-17T14:41:16Z</time>
      </trkpt>
      <trkpt lat="43.3850330" lon="-4.2916200">
        <ele>23.8</ele>
        <time>2021-07-17T14:41:19Z</time>
      </trkpt>
      <trkpt lat="43.3850510" lon="-4.2915850">
        <ele>23.8</ele>
        <time>2021-07-17T14:41:22Z</time>
      </trkpt>
      <trkpt lat="43.3850580" lon="-4.2915580">
        <ele>23.8</ele>
        <time>2021-07-17T14:41:26Z</time>
      </trkpt>
      <trkpt lat="43.3851200" lon="-4.2915370">
        <ele>25.8</ele>
        <time>2021-07-17T14:43:41Z</time>
      </trkpt>
      <trkpt lat="43.3851320" lon="-4.2915450">
        <ele>25.8</ele>
        <time>2021-07-17T14:43:42Z</time>
      </trkpt>
      <trkpt lat="43.3851430" lon="-4.2915550">
        <ele>25.8</ele>
        <time>2021-07-17T14:43:43Z</time>
      </trkpt>
      <trkpt lat="43.3852240" lon="-4.2916880">
        <ele>25.8</ele>
        <time>2021-07-17T14:43:51Z</time>
      </trkpt>
      <trkpt lat="43.3852200" lon="-4.2918950">
        <ele>25.8</ele>
        <time>2021-07-17T14:43:59Z</time>
      </trkpt>
      <trkpt lat="43.3852180" lon="-4.2918810">
        <ele>25.8</ele>
        <time>2021-07-17T14:44:04Z</time>
      </trkpt>
      <trkpt lat="43.3852320" lon="-4.2918150">
        <ele>25.8</ele>
        <time>2021-07-17T14:44:07Z</time>
      </trkpt>
      <trkpt lat="43.3852450" lon="-4.2917250">
        <ele>25.8</ele>
        <time>2021-07-17T14:44:13Z</time>
      </trkpt>
      <trkpt lat="43.3852500" lon="-4.2917100">
        <ele>25.8</ele>
        <time>2021-07-17T14:44:17Z</time>
      </trkpt>
      <trkpt lat="43.3852400" lon="-4.2918730">
        <ele>25.8</ele>
        <time>2021-07-17T15:03:24Z</time>
      </trkpt>
      <trkpt lat="43.3852590" lon="-4.2918710">
        <ele>25.8</ele>
        <time>2021-07-17T15:03:25Z</time>
      </trkpt>
      <trkpt lat="43.3852730" lon="-4.2918820">
        <ele>25.8</ele>
        <time>2021-07-17T15:03:26Z</time>
      </trkpt>
      <trkpt lat="43.3854150" lon="-4.2919670">
        <ele>25.8</ele>
        <time>2021-07-17T15:03:33Z</time>
      </trkpt>
      <trkpt lat="43.3854560" lon="-4.2919980">
        <ele>25.8</ele>
        <time>2021-07-17T15:03:36Z</time>
      </trkpt>
      <trkpt lat="43.3854800" lon="-4.2920200">
        <ele>25.8</ele>
        <time>2021-07-17T15:03:41Z</time>
      </trkpt>
      <trkpt lat="43.3855690" lon="-4.2921080">
        <ele>25.8</ele>
        <time>2021-07-17T15:03:46Z</time>
      </trkpt>
      <trkpt lat="43.3856080" lon="-4.2922200">
        <ele>25.8</ele>
        <time>2021-07-17T15:03:50Z</time>
      </trkpt>
      <trkpt lat="43.3856030" lon="-4.2923310">
        <ele>25.8</ele>
        <time>2021-07-17T15:03:53Z</time>
      </trkpt>
      <trkpt lat="43.3855640" lon="-4.2924110">
        <ele>25.8</ele>
        <time>2021-07-17T15:03:55Z</time>
      </trkpt>
      <trkpt lat="43.3854460" lon="-4.2927180">
        <ele>25.8</ele>
        <time>2021-07-17T15:04:02Z</time>
      </trkpt>
      <trkpt lat="43.3854310" lon="-4.2927610">
        <ele>25.4</ele>
        <time>2021-07-17T15:04:03Z</time>
      </trkpt>
      <trkpt lat="43.3854160" lon="-4.2928040">
        <ele>25.0</ele>
        <time>2021-07-17T15:04:04Z</time>
      </trkpt>
      <trkpt lat="43.3854010" lon="-4.2928480">
        <ele>24.6</ele>
        <time>2021-07-17T15:04:05Z</time>
      </trkpt>
      <trkpt lat="43.3853850" lon="-4.2928930">
        <ele>24.2</ele>
        <time>2021-07-17T15:04:06Z</time>
      </trkpt>
      <trkpt lat="43.3853710" lon="-4.2929390">
        <ele>23.8</ele>
        <time>2021-07-17T15:04:07Z</time>
      </trkpt>
      <trkpt lat="43.3853170" lon="-4.2931010">
        <ele>23.8</ele>
        <time>2021-07-17T15:04:10Z</time>
      </trkpt>
      <trkpt lat="43.3852090" lon="-4.2935420">
        <ele>23.8</ele>
        <time>2021-07-17T15:04:18Z</time>
      </trkpt>
      <trkpt lat="43.3851980" lon="-4.2935950">
        <ele>23.8</ele>
        <time>2021-07-17T15:04:19Z</time>
      </trkpt>
      <trkpt lat="43.3851470" lon="-4.2938050">
        <ele>23.8</ele>
        <time>2021-07-17T15:04:23Z</time>
      </trkpt>
      <trkpt lat="43.3851260" lon="-4.2940210">
        <ele>23.8</ele>
        <time>2021-07-17T15:04:27Z</time>
      </trkpt>
      <trkpt lat="43.3850870" lon="-4.2942250">
        <ele>23.8</ele>
        <time>2021-07-17T15:04:31Z</time>
      </trkpt>
      <trkpt lat="43.3850560" lon="-4.2943880">
        <ele>23.8</ele>
        <time>2021-07-17T15:04:34Z</time>
      </trkpt>
      <trkpt lat="43.3850340" lon="-4.2944960">
        <ele>23.8</ele>
        <time>2021-07-17T15:04:36Z</time>
      </trkpt>
      <trkpt lat="43.3850250" lon="-4.2945490">
        <ele>23.8</ele>
        <time>2021-07-17T15:04:37Z</time>
      </trkpt>
      <trkpt lat="43.3849970" lon="-4.2947130">
        <ele>24.2</ele>
        <time>2021-07-17T15:04:40Z</time>
      </trkpt>
      <trkpt lat="43.3849860" lon="-4.2947670">
        <ele>24.6</ele>
        <time>2021-07-17T15:04:41Z</time>
      </trkpt>
      <trkpt lat="43.3849750" lon="-4.2948200">
        <ele>25.0</ele>
        <time>2021-07-17T15:04:42Z</time>
      </trkpt>
      <trkpt lat="43.3849660" lon="-4.2948710">
        <ele>25.8</ele>
        <time>2021-07-17T15:04:43Z</time>
      </trkpt>
      <trkpt lat="43.3849270" lon="-4.2950270">
        <ele>25.8</ele>
        <time>2021-07-17T15:04:46Z</time>
      </trkpt>
      <trkpt lat="43.3848890" lon="-4.2951890">
        <ele>25.8</ele>
        <time>2021-07-17T15:04:49Z</time>
      </trkpt>
      <trkpt lat="43.3848560" lon="-4.2953950">
        <ele>25.8</ele>
        <time>2021-07-17T15:04:53Z</time>
      </trkpt>
      <trkpt lat="43.3848450" lon="-4.2954500">
        <ele>26.2</ele>
        <time>2021-07-17T15:04:54Z</time>
      </trkpt>
      <trkpt lat="43.3848320" lon="-4.2955060">
        <ele>26.6</ele>
        <time>2021-07-17T15:04:55Z</time>
      </trkpt>
      <trkpt lat="43.3848170" lon="-4.2955600">
        <ele>27.2</ele>
        <time>2021-07-17T15:04:56Z</time>
      </trkpt>
      <trkpt lat="43.3848080" lon="-4.2956050">
        <ele>27.6</ele>
        <time>2021-07-17T15:04:57Z</time>
      </trkpt>
      <trkpt lat="43.3848020" lon="-4.2956500">
        <ele>28.0</ele>
        <time>2021-07-17T15:04:58Z</time>
      </trkpt>
      <trkpt lat="43.3847720" lon="-4.2958490">
        <ele>28.0</ele>
        <time>2021-07-17T15:05:02Z</time>
      </trkpt>
      <trkpt lat="43.3847060" lon="-4.2961970">
        <ele>28.4</ele>
        <time>2021-07-17T15:05:09Z</time>
      </trkpt>
      <trkpt lat="43.3846960" lon="-4.2962460">
        <ele>28.8</ele>
        <time>2021-07-17T15:05:10Z</time>
      </trkpt>
      <trkpt lat="43.3846890" lon="-4.2962950">
        <ele>29.2</ele>
        <time>2021-07-17T15:05:11Z</time>
      </trkpt>
      <trkpt lat="43.3846820" lon="-4.2963410">
        <ele>29.6</ele>
        <time>2021-07-17T15:05:12Z</time>
      </trkpt>
      <trkpt lat="43.3846730" lon="-4.2963840">
        <ele>30.0</ele>
        <time>2021-07-17T15:05:13Z</time>
      </trkpt>
      <trkpt lat="43.3846600" lon="-4.2964280">
        <ele>30.0</ele>
        <time>2021-07-17T15:05:14Z</time>
      </trkpt>
      <trkpt lat="43.3846260" lon="-4.2965880">
        <ele>30.6</ele>
        <time>2021-07-17T15:05:17Z</time>
      </trkpt>
      <trkpt lat="43.3846230" lon="-4.2966420">
        <ele>31.0</ele>
        <time>2021-07-17T15:05:18Z</time>
      </trkpt>
      <trkpt lat="43.3846260" lon="-4.2966930">
        <ele>31.6</ele>
        <time>2021-07-17T15:05:19Z</time>
      </trkpt>
      <trkpt lat="43.3846360" lon="-4.2967420">
        <ele>32.0</ele>
        <time>2021-07-17T15:05:20Z</time>
      </trkpt>
      <trkpt lat="43.3846530" lon="-4.2967850">
        <ele>32.6</ele>
        <time>2021-07-17T15:05:21Z</time>
      </trkpt>
      <trkpt lat="43.3846860" lon="-4.2968620">
        <ele>33.0</ele>
        <time>2021-07-17T15:05:23Z</time>
      </trkpt>
      <trkpt lat="43.3847040" lon="-4.2969020">
        <ele>33.4</ele>
        <time>2021-07-17T15:05:24Z</time>
      </trkpt>
      <trkpt lat="43.3847190" lon="-4.2969450">
        <ele>33.8</ele>
        <time>2021-07-17T15:05:25Z</time>
      </trkpt>
      <trkpt lat="43.3847270" lon="-4.2969960">
        <ele>34.2</ele>
        <time>2021-07-17T15:05:26Z</time>
      </trkpt>
      <trkpt lat="43.3847280" lon="-4.2970480">
        <ele>34.6</ele>
        <time>2021-07-17T15:05:27Z</time>
      </trkpt>
      <trkpt lat="43.3846790" lon="-4.2972510">
        <ele>34.6</ele>
        <time>2021-07-17T15:05:31Z</time>
      </trkpt>
      <trkpt lat="43.3845890" lon="-4.2973700">
        <ele>34.6</ele>
        <time>2021-07-17T15:05:34Z</time>
      </trkpt>
      <trkpt lat="43.3844970" lon="-4.2974570">
        <ele>34.6</ele>
        <time>2021-07-17T15:05:37Z</time>
      </trkpt>
      <trkpt lat="43.3844660" lon="-4.2974720">
        <ele>34.6</ele>
        <time>2021-07-17T15:05:40Z</time>
      </trkpt>
      <trkpt lat="43.3844560" lon="-4.2974940">
        <ele>34.6</ele>
        <time>2021-07-17T15:06:06Z</time>
      </trkpt>
      <trkpt lat="43.3844460" lon="-4.2975110">
        <ele>34.6</ele>
        <time>2021-07-17T15:06:07Z</time>
      </trkpt>
      <trkpt lat="43.3844050" lon="-4.2975770">
        <ele>34.6</ele>
        <time>2021-07-17T15:06:10Z</time>
      </trkpt>
      <trkpt lat="43.3843570" lon="-4.2976290">
        <ele>34.6</ele>
        <time>2021-07-17T15:06:12Z</time>
      </trkpt>
      <trkpt lat="43.3842350" lon="-4.2976270">
        <ele>34.6</ele>
        <time>2021-07-17T15:06:16Z</time>
      </trkpt>
      <trkpt lat="43.3840600" lon="-4.2975430">
        <ele>34.6</ele>
        <time>2021-07-17T15:06:21Z</time>
      </trkpt>
      <trkpt lat="43.3840280" lon="-4.2975220">
        <ele>35.4</ele>
        <time>2021-07-17T15:06:22Z</time>
      </trkpt>
      <trkpt lat="43.3839990" lon="-4.2975010">
        <ele>35.8</ele>
        <time>2021-07-17T15:06:23Z</time>
      </trkpt>
      <trkpt lat="43.3839690" lon="-4.2974780">
        <ele>36.2</ele>
        <time>2021-07-17T15:06:24Z</time>
      </trkpt>
      <trkpt lat="43.3839430" lon="-4.2974530">
        <ele>36.6</ele>
        <time>2021-07-17T15:06:25Z</time>
      </trkpt>
      <trkpt lat="43.3839200" lon="-4.2974230">
        <ele>36.6</ele>
        <time>2021-07-17T15:06:26Z</time>
      </trkpt>
      <trkpt lat="43.3838410" lon="-4.2973510">
        <ele>36.6</ele>
        <time>2021-07-17T15:06:29Z</time>
      </trkpt>
      <trkpt lat="43.3838080" lon="-4.2973500">
        <ele>36.6</ele>
        <time>2021-07-17T15:06:30Z</time>
      </trkpt>
      <trkpt lat="43.3837530" lon="-4.2973980">
        <ele>36.6</ele>
        <time>2021-07-17T15:06:32Z</time>
      </trkpt>
      <trkpt lat="43.3837200" lon="-4.2975660">
        <ele>36.6</ele>
        <time>2021-07-17T15:06:35Z</time>
      </trkpt>
      <trkpt lat="43.3837150" lon="-4.2976200">
        <ele>36.6</ele>
        <time>2021-07-17T15:06:36Z</time>
      </trkpt>
      <trkpt lat="43.3837030" lon="-4.2977270">
        <ele>37.2</ele>
        <time>2021-07-17T15:06:38Z</time>
      </trkpt>
      <trkpt lat="43.3836950" lon="-4.2977830">
        <ele>37.6</ele>
        <time>2021-07-17T15:06:39Z</time>
      </trkpt>
      <trkpt lat="43.3836880" lon="-4.2978380">
        <ele>38.0</ele>
        <time>2021-07-17T15:06:40Z</time>
      </trkpt>
      <trkpt lat="43.3836780" lon="-4.2978900">
        <ele>38.4</ele>
        <time>2021-07-17T15:06:41Z</time>
      </trkpt>
      <trkpt lat="43.3836680" lon="-4.2979400">
        <ele>39.0</ele>
        <time>2021-07-17T15:06:42Z</time>
      </trkpt>
      <trkpt lat="43.3836480" lon="-4.2980420">
        <ele>39.0</ele>
        <time>2021-07-17T15:06:44Z</time>
      </trkpt>
      <trkpt lat="43.3836270" lon="-4.2981440">
        <ele>39.4</ele>
        <time>2021-07-17T15:06:46Z</time>
      </trkpt>
      <trkpt lat="43.3836190" lon="-4.2981920">
        <ele>39.8</ele>
        <time>2021-07-17T15:06:47Z</time>
      </trkpt>
      <trkpt lat="43.3836130" lon="-4.2982380">
        <ele>40.2</ele>
        <time>2021-07-17T15:06:48Z</time>
      </trkpt>
      <trkpt lat="43.3836070" lon="-4.2982800">
        <ele>40.6</ele>
        <time>2021-07-17T15:06:49Z</time>
      </trkpt>
      <trkpt lat="43.3836020" lon="-4.2983220">
        <ele>41.0</ele>
        <time>2021-07-17T15:06:50Z</time>
      </trkpt>
      <trkpt lat="43.3835980" lon="-4.2983630">
        <ele>41.0</ele>
        <time>2021-07-17T15:06:51Z</time>
      </trkpt>
      <trkpt lat="43.3835640" lon="-4.2985730">
        <ele>41.0</ele>
        <time>2021-07-17T15:06:57Z</time>
      </trkpt>
      <trkpt lat="43.3834960" lon="-4.2989320">
        <ele>41.0</ele>
        <time>2021-07-17T15:07:05Z</time>
      </trkpt>
      <trkpt lat="43.3834390" lon="-4.2992530">
        <ele>41.0</ele>
        <time>2021-07-17T15:07:12Z</time>
      </trkpt>
      <trkpt lat="43.3834220" lon="-4.2993700">
        <ele>41.4</ele>
        <time>2021-07-17T15:07:15Z</time>
      </trkpt>
      <trkpt lat="43.3834250" lon="-4.2994080">
        <ele>41.8</ele>
        <time>2021-07-17T15:07:16Z</time>
      </trkpt>
      <trkpt lat="43.3834330" lon="-4.2994370">
        <ele>42.2</ele>
        <time>2021-07-17T15:07:17Z</time>
      </trkpt>
      <trkpt lat="43.3834490" lon="-4.2994540">
        <ele>42.6</ele>
        <time>2021-07-17T15:07:18Z</time>
      </trkpt>
      <trkpt lat="43.3834700" lon="-4.2994630">
        <ele>43.2</ele>
        <time>2021-07-17T15:07:19Z</time>
      </trkpt>
      <trkpt lat="43.3835130" lon="-4.2994710">
        <ele>43.2</ele>
        <time>2021-07-17T15:07:23Z</time>
      </trkpt>
      <trkpt lat="43.3835180" lon="-4.2994720">
        <ele>43.2</ele>
        <time>2021-07-17T15:07:24Z</time>
      </trkpt>
      <trkpt lat="43.3833330" lon="-4.2990920">
        <ele>14.6</ele>
        <time>2021-07-18T05:32:29Z</time>
      </trkpt>
      <trkpt lat="43.3833420" lon="-4.2990500">
        <ele>14.6</ele>
        <time>2021-07-18T05:32:30Z</time>
      </trkpt>
      <trkpt lat="43.3833520" lon="-4.2989540">
        <ele>14.6</ele>
        <time>2021-07-18T05:32:32Z</time>
      </trkpt>
      <trkpt lat="43.3833600" lon="-4.2989030">
        <ele>15.4</ele>
        <time>2021-07-18T05:32:33Z</time>
      </trkpt>
      <trkpt lat="43.3833690" lon="-4.2988480">
        <ele>16.4</ele>
        <time>2021-07-18T05:32:34Z</time>
      </trkpt>
      <trkpt lat="43.3833800" lon="-4.2987880">
        <ele>17.4</ele>
        <time>2021-07-18T05:32:35Z</time>
      </trkpt>
      <trkpt lat="43.3833920" lon="-4.2987340">
        <ele>18.4</ele>
        <time>2021-07-18T05:32:36Z</time>
      </trkpt>
      <trkpt lat="43.3834310" lon="-4.2985220">
        <ele>18.4</ele>
        <time>2021-07-18T05:32:40Z</time>
      </trkpt>
      <trkpt lat="43.3834530" lon="-4.2984100">
        <ele>18.4</ele>
        <time>2021-07-18T05:32:42Z</time>
      </trkpt>
      <trkpt lat="43.3834660" lon="-4.2982890">
        <ele>18.4</ele>
        <time>2021-07-18T05:32:44Z</time>
      </trkpt>
      <trkpt lat="43.3834850" lon="-4.2980940">
        <ele>18.4</ele>
        <time>2021-07-18T05:32:47Z</time>
      </trkpt>
      <trkpt lat="43.3834930" lon="-4.2980270">
        <ele>18.4</ele>
        <time>2021-07-18T05:32:48Z</time>
      </trkpt>
      <trkpt lat="43.3835190" lon="-4.2978310">
        <ele>18.4</ele>
        <time>2021-07-18T05:32:51Z</time>
      </trkpt>
      <trkpt lat="43.3835450" lon="-4.2977080">
        <ele>17.0</ele>
        <time>2021-07-18T05:32:53Z</time>
      </trkpt>
      <trkpt lat="43.3835540" lon="-4.2976510">
        <ele>15.8</ele>
        <time>2021-07-18T05:32:54Z</time>
      </trkpt>
      <trkpt lat="43.3835610" lon="-4.2975960">
        <ele>14.6</ele>
        <time>2021-07-18T05:32:55Z</time>
      </trkpt>
      <trkpt lat="43.3836460" lon="-4.2975900">
        <ele>13.4</ele>
        <time>2021-07-18T05:32:56Z</time>
      </trkpt>
      <trkpt lat="43.3836750" lon="-4.2975400">
        <ele>12.2</ele>
        <time>2021-07-18T05:32:57Z</time>
      </trkpt>
      <trkpt lat="43.3837380" lon="-4.2973900">
        <ele>12.2</ele>
        <time>2021-07-18T05:33:00Z</time>
      </trkpt>
      <trkpt lat="43.3837830" lon="-4.2972880">
        <ele>11.8</ele>
        <time>2021-07-18T05:33:03Z</time>
      </trkpt>
      <trkpt lat="43.3838090" lon="-4.2972760">
        <ele>11.4</ele>
        <time>2021-07-18T05:33:04Z</time>
      </trkpt>
      <trkpt lat="43.3838350" lon="-4.2972760">
        <ele>11.0</ele>
        <time>2021-07-18T05:33:05Z</time>
      </trkpt>
      <trkpt lat="43.3838600" lon="-4.2972840">
        <ele>10.6</ele>
        <time>2021-07-18T05:33:06Z</time>
      </trkpt>
      <trkpt lat="43.3838800" lon="-4.2972940">
        <ele>10.2</ele>
        <time>2021-07-18T05:33:07Z</time>
      </trkpt>
      <trkpt lat="43.3838960" lon="-4.2973100">
        <ele>10.2</ele>
        <time>2021-07-18T05:33:08Z</time>
      </trkpt>
      <trkpt lat="43.3839150" lon="-4.2973260">
        <ele>10.2</ele>
        <time>2021-07-18T05:33:09Z</time>
      </trkpt>
      <trkpt lat="43.3840490" lon="-4.2974510">
        <ele>10.2</ele>
        <time>2021-07-18T05:33:13Z</time>
      </trkpt>
      <trkpt lat="43.3842320" lon="-4.2976140">
        <ele>10.2</ele>
        <time>2021-07-18T05:33:19Z</time>
      </trkpt>
      <trkpt lat="43.3842500" lon="-4.2976370">
        <ele>9.8</ele>
        <time>2021-07-18T05:33:20Z</time>
      </trkpt>
      <trkpt lat="43.3842610" lon="-4.2976610">
        <ele>9.2</ele>
        <time>2021-07-18T05:33:21Z</time>
      </trkpt>
      <trkpt lat="43.3842640" lon="-4.2976900">
        <ele>8.8</ele>
        <time>2021-07-18T05:33:22Z</time>
      </trkpt>
      <trkpt lat="43.3842640" lon="-4.2977200">
        <ele>8.4</ele>
        <time>2021-07-18T05:33:23Z</time>
      </trkpt>
      <trkpt lat="43.3842670" lon="-4.2977500">
        <ele>8.0</ele>
        <time>2021-07-18T05:33:24Z</time>
      </trkpt>
      <trkpt lat="43.3842500" lon="-4.2978600">
        <ele>8.0</ele>
        <time>2021-07-18T05:33:27Z</time>
      </trkpt>
      <trkpt lat="43.3842380" lon="-4.2979360">
        <ele>8.0</ele>
        <time>2021-07-18T05:33:29Z</time>
      </trkpt>
      <trkpt lat="43.3842280" lon="-4.2979740">
        <ele>8.0</ele>
        <time>2021-07-18T05:33:30Z</time>
      </trkpt>
      <trkpt lat="43.3842240" lon="-4.2980160">
        <ele>8.0</ele>
        <time>2021-07-18T05:33:31Z</time>
      </trkpt>
      <trkpt lat="43.3842110" lon="-4.2980960">
        <ele>8.0</ele>
        <time>2021-07-18T05:33:33Z</time>
      </trkpt>
      <trkpt lat="43.3841940" lon="-4.2981760">
        <ele>8.0</ele>
        <time>2021-07-18T05:33:35Z</time>
      </trkpt>
      <trkpt lat="43.3841790" lon="-4.2982500">
        <ele>8.0</ele>
        <time>2021-07-18T05:33:37Z</time>
      </trkpt>
      <trkpt lat="43.3841600" lon="-4.2983570">
        <ele>8.0</ele>
        <time>2021-07-18T05:33:40Z</time>
      </trkpt>
      <trkpt lat="43.3841560" lon="-4.2983920">
        <ele>8.4</ele>
        <time>2021-07-18T05:33:41Z</time>
      </trkpt>
      <trkpt lat="43.3841520" lon="-4.2984280">
        <ele>8.8</ele>
        <time>2021-07-18T05:33:42Z</time>
      </trkpt>
      <trkpt lat="43.3841460" lon="-4.2984620">
        <ele>9.2</ele>
        <time>2021-07-18T05:33:43Z</time>
      </trkpt>
      <trkpt lat="43.3841380" lon="-4.2984910">
        <ele>9.6</ele>
        <time>2021-07-18T05:33:44Z</time>
      </trkpt>
      <trkpt lat="43.3841330" lon="-4.2985300">
        <ele>10.0</ele>
        <time>2021-07-18T05:33:45Z</time>
      </trkpt>
      <trkpt lat="43.3841240" lon="-4.2985670">
        <ele>10.0</ele>
        <time>2021-07-18T05:33:46Z</time>
      </trkpt>
      <trkpt lat="43.3840950" lon="-4.2987080">
        <ele>10.0</ele>
        <time>2021-07-18T05:33:50Z</time>
      </trkpt>
      <trkpt lat="43.3840870" lon="-4.2987760">
        <ele>10.0</ele>
        <time>2021-07-18T05:33:52Z</time>
      </trkpt>
      <trkpt lat="43.3840830" lon="-4.2988140">
        <ele>10.0</ele>
        <time>2021-07-18T05:33:53Z</time>
      </trkpt>
      <trkpt lat="43.3840760" lon="-4.2988500">
        <ele>10.6</ele>
        <time>2021-07-18T05:33:54Z</time>
      </trkpt>
      <trkpt lat="43.3840670" lon="-4.2988820">
        <ele>11.0</ele>
        <time>2021-07-18T05:33:55Z</time>
      </trkpt>
      <trkpt lat="43.3840570" lon="-4.2989160">
        <ele>11.4</ele>
        <time>2021-07-18T05:33:56Z</time>
      </trkpt>
      <trkpt lat="43.3840460" lon="-4.2989510">
        <ele>11.8</ele>
        <time>2021-07-18T05:33:57Z</time>
      </trkpt>
      <trkpt lat="43.3840350" lon="-4.2989840">
        <ele>12.2</ele>
        <time>2021-07-18T05:33:58Z</time>
      </trkpt>
      <trkpt lat="43.3840180" lon="-4.2990560">
        <ele>12.2</ele>
        <time>2021-07-18T05:34:00Z</time>
      </trkpt>
      <trkpt lat="43.3839780" lon="-4.2993440">
        <ele>12.6</ele>
        <time>2021-07-18T05:34:09Z</time>
      </trkpt>
      <trkpt lat="43.3839710" lon="-4.2993760">
        <ele>13.0</ele>
        <time>2021-07-18T05:34:10Z</time>
      </trkpt>
      <trkpt lat="43.3839670" lon="-4.2994050">
        <ele>13.4</ele>
        <time>2021-07-18T05:34:11Z</time>
      </trkpt>
      <trkpt lat="43.3839610" lon="-4.2994360">
        <ele>13.8</ele>
        <time>2021-07-18T05:34:12Z</time>
      </trkpt>
      <trkpt lat="43.3839550" lon="-4.2994660">
        <ele>14.2</ele>
        <time>2021-07-18T05:34:13Z</time>
      </trkpt>
      <trkpt lat="43.3839220" lon="-4.2996170">
        <ele>14.2</ele>
        <time>2021-07-18T05:34:18Z</time>
      </trkpt>
      <trkpt lat="43.3838980" lon="-4.2997370">
        <ele>14.6</ele>
        <time>2021-07-18T05:34:22Z</time>
      </trkpt>
      <trkpt lat="43.3838900" lon="-4.2997650">
        <ele>15.0</ele>
        <time>2021-07-18T05:34:23Z</time>
      </trkpt>
      <trkpt lat="43.3838850" lon="-4.2997970">
        <ele>15.4</ele>
        <time>2021-07-18T05:34:24Z</time>
      </trkpt>
      <trkpt lat="43.3838790" lon="-4.2998290">
        <ele>15.8</ele>
        <time>2021-07-18T05:34:25Z</time>
      </trkpt>
      <trkpt lat="43.3838760" lon="-4.2998580">
        <ele>16.2</ele>
        <time>2021-07-18T05:34:26Z</time>
      </trkpt>
      <trkpt lat="43.3838610" lon="-4.3000670">
        <ele>16.2</ele>
        <time>2021-07-18T05:34:32Z</time>
      </trkpt>
      <trkpt lat="43.3838580" lon="-4.3001000">
        <ele>16.2</ele>
        <time>2021-07-18T05:34:33Z</time>
      </trkpt>
      <trkpt lat="43.3838450" lon="-4.3001690">
        <ele>16.6</ele>
        <time>2021-07-18T05:34:35Z</time>
      </trkpt>
      <trkpt lat="43.3838370" lon="-4.3002010">
        <ele>17.0</ele>
        <time>2021-07-18T05:34:36Z</time>
      </trkpt>
      <trkpt lat="43.3838300" lon="-4.3002360">
        <ele>17.4</ele>
        <time>2021-07-18T05:34:37Z</time>
      </trkpt>
      <trkpt lat="43.3838240" lon="-4.3002700">
        <ele>17.8</ele>
        <time>2021-07-18T05:34:38Z</time>
      </trkpt>
      <trkpt lat="43.3838220" lon="-4.3003090">
        <ele>18.4</ele>
        <time>2021-07-18T05:34:39Z</time>
      </trkpt>
      <trkpt lat="43.3838120" lon="-4.3003840">
        <ele>18.4</ele>
        <time>2021-07-18T05:34:41Z</time>
      </trkpt>
      <trkpt lat="43.3837650" lon="-4.3006000">
        <ele>18.4</ele>
        <time>2021-07-18T05:34:47Z</time>
      </trkpt>
      <trkpt lat="43.3837530" lon="-4.3006760">
        <ele>18.4</ele>
        <time>2021-07-18T05:34:49Z</time>
      </trkpt>
      <trkpt lat="43.3837220" lon="-4.3008890">
        <ele>18.4</ele>
        <time>2021-07-18T05:34:55Z</time>
      </trkpt>
      <trkpt lat="43.3837220" lon="-4.3009620">
        <ele>18.4</ele>
        <time>2021-07-18T05:34:57Z</time>
      </trkpt>
      <trkpt lat="43.3836980" lon="-4.3011430">
        <ele>18.4</ele>
        <time>2021-07-18T05:35:02Z</time>
      </trkpt>
      <trkpt lat="43.3836850" lon="-4.3012270">
        <ele>18.4</ele>
        <time>2021-07-18T05:35:04Z</time>
      </trkpt>
      <trkpt lat="43.3836650" lon="-4.3013980">
        <ele>18.4</ele>
        <time>2021-07-18T05:35:08Z</time>
      </trkpt>
      <trkpt lat="43.3836470" lon="-4.3015370">
        <ele>18.4</ele>
        <time>2021-07-18T05:35:11Z</time>
      </trkpt>
      <trkpt lat="43.3836380" lon="-4.3015880">
        <ele>18.4</ele>
        <time>2021-07-18T05:35:12Z</time>
      </trkpt>
      <trkpt lat="43.3836180" lon="-4.3016830">
        <ele>18.4</ele>
        <time>2021-07-18T05:35:14Z</time>
      </trkpt>
      <trkpt lat="43.3835920" lon="-4.3017800">
        <ele>18.4</ele>
        <time>2021-07-18T05:35:16Z</time>
      </trkpt>
      <trkpt lat="43.3835690" lon="-4.3018800">
        <ele>18.4</ele>
        <time>2021-07-18T05:35:18Z</time>
      </trkpt>
      <trkpt lat="43.3835400" lon="-4.3019870">
        <ele>18.4</ele>
        <time>2021-07-18T05:35:20Z</time>
      </trkpt>
      <trkpt lat="43.3834820" lon="-4.3021530">
        <ele>18.4</ele>
        <time>2021-07-18T05:35:23Z</time>
      </trkpt>
      <trkpt lat="43.3834370" lon="-4.3023200">
        <ele>18.4</ele>
        <time>2021-07-18T05:35:26Z</time>
      </trkpt>
      <trkpt lat="43.3834200" lon="-4.3023780">
        <ele>18.4</ele>
        <time>2021-07-18T05:35:27Z</time>
      </trkpt>
      <trkpt lat="43.3833860" lon="-4.3024800">
        <ele>18.4</ele>
        <time>2021-07-18T05:35:29Z</time>
      </trkpt>
      <trkpt lat="43.3833570" lon="-4.3025800">
        <ele>18.4</ele>
        <time>2021-07-18T05:35:31Z</time>
      </trkpt>
      <trkpt lat="43.3833080" lon="-4.3026910">
        <ele>18.4</ele>
        <time>2021-07-18T05:35:34Z</time>
      </trkpt>
      <trkpt lat="43.3832680" lon="-4.3028150">
        <ele>18.4</ele>
        <time>2021-07-18T05:35:38Z</time>
      </trkpt>
      <trkpt lat="43.3832560" lon="-4.3028660">
        <ele>18.4</ele>
        <time>2021-07-18T05:35:40Z</time>
      </trkpt>
      <trkpt lat="43.3831960" lon="-4.3030490">
        <ele>18.4</ele>
        <time>2021-07-18T05:35:45Z</time>
      </trkpt>
      <trkpt lat="43.3831880" lon="-4.3030860">
        <ele>18.4</ele>
        <time>2021-07-18T05:35:46Z</time>
      </trkpt>
      <trkpt lat="43.3830940" lon="-4.3033820">
        <ele>18.4</ele>
        <time>2021-07-18T05:35:53Z</time>
      </trkpt>
      <trkpt lat="43.3830800" lon="-4.3034250">
        <ele>18.0</ele>
        <time>2021-07-18T05:35:54Z</time>
      </trkpt>
      <trkpt lat="43.3830600" lon="-4.3034660">
        <ele>17.6</ele>
        <time>2021-07-18T05:35:55Z</time>
      </trkpt>
      <trkpt lat="43.3830480" lon="-4.3035100">
        <ele>17.2</ele>
        <time>2021-07-18T05:35:56Z</time>
      </trkpt>
      <trkpt lat="43.3830340" lon="-4.3035520">
        <ele>16.8</ele>
        <time>2021-07-18T05:35:57Z</time>
      </trkpt>
      <trkpt lat="43.3830210" lon="-4.3035900">
        <ele>16.4</ele>
        <time>2021-07-18T05:35:58Z</time>
      </trkpt>
      <trkpt lat="43.3830020" lon="-4.3037990">
        <ele>16.4</ele>
        <time>2021-07-18T05:36:03Z</time>
      </trkpt>
      <trkpt lat="43.3830010" lon="-4.3038600">
        <ele>16.4</ele>
        <time>2021-07-18T05:36:04Z</time>
      </trkpt>
      <trkpt lat="43.3829590" lon="-4.3040840">
        <ele>16.0</ele>
        <time>2021-07-18T05:36:08Z</time>
      </trkpt>
      <trkpt lat="43.3829520" lon="-4.3041370">
        <ele>15.4</ele>
        <time>2021-07-18T05:36:09Z</time>
      </trkpt>
      <trkpt lat="43.3829530" lon="-4.3041960">
        <ele>15.0</ele>
        <time>2021-07-18T05:36:10Z</time>
      </trkpt>
      <trkpt lat="43.3829480" lon="-4.3042500">
        <ele>14.6</ele>
        <time>2021-07-18T05:36:11Z</time>
      </trkpt>
      <trkpt lat="43.3829370" lon="-4.3043060">
        <ele>14.2</ele>
        <time>2021-07-18T05:36:12Z</time>
      </trkpt>
      <trkpt lat="43.3828970" lon="-4.3044540">
        <ele>14.2</ele>
        <time>2021-07-18T05:36:15Z</time>
      </trkpt>
      <trkpt lat="43.3827980" lon="-4.3047280">
        <ele>13.8</ele>
        <time>2021-07-18T05:36:21Z</time>
      </trkpt>
      <trkpt lat="43.3827800" lon="-4.3047720">
        <ele>13.4</ele>
        <time>2021-07-18T05:36:22Z</time>
      </trkpt>
      <trkpt lat="43.3827640" lon="-4.3048080">
        <ele>13.0</ele>
        <time>2021-07-18T05:36:23Z</time>
      </trkpt>
      <trkpt lat="43.3827500" lon="-4.3048460">
        <ele>12.6</ele>
        <time>2021-07-18T05:36:24Z</time>
      </trkpt>
      <trkpt lat="43.3827320" lon="-4.3048890">
        <ele>12.2</ele>
        <time>2021-07-18T05:36:25Z</time>
      </trkpt>
      <trkpt lat="43.3826870" lon="-4.3049810">
        <ele>12.2</ele>
        <time>2021-07-18T05:36:27Z</time>
      </trkpt>
      <trkpt lat="43.3825820" lon="-4.3053080">
        <ele>11.8</ele>
        <time>2021-07-18T05:36:33Z</time>
      </trkpt>
      <trkpt lat="43.3825600" lon="-4.3053560">
        <ele>11.4</ele>
        <time>2021-07-18T05:36:34Z</time>
      </trkpt>
      <trkpt lat="43.3825450" lon="-4.3054000">
        <ele>11.0</ele>
        <time>2021-07-18T05:36:35Z</time>
      </trkpt>
      <trkpt lat="43.3825320" lon="-4.3054440">
        <ele>10.6</ele>
        <time>2021-07-18T05:36:36Z</time>
      </trkpt>
      <trkpt lat="43.3825150" lon="-4.3054850">
        <ele>10.2</ele>
        <time>2021-07-18T05:36:37Z</time>
      </trkpt>
      <trkpt lat="43.3823840" lon="-4.3056350">
        <ele>10.2</ele>
        <time>2021-07-18T05:36:40Z</time>
      </trkpt>
      <trkpt lat="43.3823270" lon="-4.3057920">
        <ele>9.8</ele>
        <time>2021-07-18T05:36:44Z</time>
      </trkpt>
      <trkpt lat="43.3823150" lon="-4.3058320">
        <ele>9.4</ele>
        <time>2021-07-18T05:36:45Z</time>
      </trkpt>
      <trkpt lat="43.3823060" lon="-4.3058730">
        <ele>9.0</ele>
        <time>2021-07-18T05:36:46Z</time>
      </trkpt>
      <trkpt lat="43.3823030" lon="-4.3059150">
        <ele>8.6</ele>
        <time>2021-07-18T05:36:47Z</time>
      </trkpt>
      <trkpt lat="43.3823010" lon="-4.3059560">
        <ele>8.0</ele>
        <time>2021-07-18T05:36:48Z</time>
      </trkpt>
      <trkpt lat="43.3822570" lon="-4.3061600">
        <ele>8.0</ele>
        <time>2021-07-18T05:36:53Z</time>
      </trkpt>
      <trkpt lat="43.3822260" lon="-4.3062850">
        <ele>8.0</ele>
        <time>2021-07-18T05:36:56Z</time>
      </trkpt>
      <trkpt lat="43.3821750" lon="-4.3064190">
        <ele>8.0</ele>
        <time>2021-07-18T05:36:59Z</time>
      </trkpt>
      <trkpt lat="43.3821450" lon="-4.3065140">
        <ele>7.6</ele>
        <time>2021-07-18T05:37:01Z</time>
      </trkpt>
      <trkpt lat="43.3821270" lon="-4.3065620">
        <ele>7.2</ele>
        <time>2021-07-18T05:37:02Z</time>
      </trkpt>
      <trkpt lat="43.3821060" lon="-4.3066130">
        <ele>6.8</ele>
        <time>2021-07-18T05:37:03Z</time>
      </trkpt>
      <trkpt lat="43.3820820" lon="-4.3066700">
        <ele>6.4</ele>
        <time>2021-07-18T05:37:04Z</time>
      </trkpt>
      <trkpt lat="43.3820590" lon="-4.3067240">
        <ele>6.0</ele>
        <time>2021-07-18T05:37:05Z</time>
      </trkpt>
      <trkpt lat="43.3820150" lon="-4.3068300">
        <ele>6.0</ele>
        <time>2021-07-18T05:37:07Z</time>
      </trkpt>
      <trkpt lat="43.3819330" lon="-4.3070080">
        <ele>5.6</ele>
        <time>2021-07-18T05:37:11Z</time>
      </trkpt>
      <trkpt lat="43.3819110" lon="-4.3070540">
        <ele>5.2</ele>
        <time>2021-07-18T05:37:12Z</time>
      </trkpt>
      <trkpt lat="43.3818930" lon="-4.3071000">
        <ele>4.6</ele>
        <time>2021-07-18T05:37:13Z</time>
      </trkpt>
      <trkpt lat="43.3818710" lon="-4.3071470">
        <ele>4.2</ele>
        <time>2021-07-18T05:37:14Z</time>
      </trkpt>
      <trkpt lat="43.3818480" lon="-4.3072010">
        <ele>3.8</ele>
        <time>2021-07-18T05:37:15Z</time>
      </trkpt>
      <trkpt lat="43.3817480" lon="-4.3074270">
        <ele>3.8</ele>
        <time>2021-07-18T05:37:19Z</time>
      </trkpt>
      <trkpt lat="43.3817250" lon="-4.3074780">
        <ele>3.8</ele>
        <time>2021-07-18T05:37:20Z</time>
      </trkpt>
      <trkpt lat="43.3816150" lon="-4.3077850">
        <ele>3.2</ele>
        <time>2021-07-18T05:37:26Z</time>
      </trkpt>
      <trkpt lat="43.3815940" lon="-4.3078320">
        <ele>2.8</ele>
        <time>2021-07-18T05:37:27Z</time>
      </trkpt>
      <trkpt lat="43.3815740" lon="-4.3078810">
        <ele>2.4</ele>
        <time>2021-07-18T05:37:28Z</time>
      </trkpt>
      <trkpt lat="43.3815560" lon="-4.3079320">
        <ele>2.0</ele>
        <time>2021-07-18T05:37:29Z</time>
      </trkpt>
      <trkpt lat="43.3815400" lon="-4.3079760">
        <ele>1.6</ele>
        <time>2021-07-18T05:37:30Z</time>
      </trkpt>
      <trkpt lat="43.3815050" lon="-4.3080670">
        <ele>1.6</ele>
        <time>2021-07-18T05:37:32Z</time>
      </trkpt>
      <trkpt lat="43.3813620" lon="-4.3084330">
        <ele>1.6</ele>
        <time>2021-07-18T05:37:40Z</time>
      </trkpt>
      <trkpt lat="43.3812440" lon="-4.3086720">
        <ele>1.6</ele>
        <time>2021-07-18T05:37:46Z</time>
      </trkpt>
      <trkpt lat="43.3812350" lon="-4.3087140">
        <ele>1.6</ele>
        <time>2021-07-18T05:37:47Z</time>
      </trkpt>
      <trkpt lat="43.3811470" lon="-4.3088180">
        <ele>1.6</ele>
        <time>2021-07-18T05:37:49Z</time>
      </trkpt>
      <trkpt lat="43.3811090" lon="-4.3089330">
        <ele>1.6</ele>
        <time>2021-07-18T05:37:52Z</time>
      </trkpt>
      <trkpt lat="43.3810720" lon="-4.3090600">
        <ele>1.6</ele>
        <time>2021-07-18T05:37:55Z</time>
      </trkpt>
      <trkpt lat="43.3810140" lon="-4.3092830">
        <ele>1.6</ele>
        <time>2021-07-18T05:38:01Z</time>
      </trkpt>
      <trkpt lat="43.3809330" lon="-4.3095530">
        <ele>1.6</ele>
        <time>2021-07-18T05:38:08Z</time>
      </trkpt>
      <trkpt lat="43.3808700" lon="-4.3096760">
        <ele>1.6</ele>
        <time>2021-07-18T05:38:11Z</time>
      </trkpt>
      <trkpt lat="43.3808160" lon="-4.3098190">
        <ele>1.6</ele>
        <time>2021-07-18T05:38:15Z</time>
      </trkpt>
      <trkpt lat="43.3807050" lon="-4.3100840">
        <ele>1.6</ele>
        <time>2021-07-18T05:38:22Z</time>
      </trkpt>
      <trkpt lat="43.3806810" lon="-4.3101810">
        <ele>1.6</ele>
        <time>2021-07-18T05:38:25Z</time>
      </trkpt>
      <trkpt lat="43.3805960" lon="-4.3103100">
        <ele>1.2</ele>
        <time>2021-07-18T05:38:28Z</time>
      </trkpt>
      <trkpt lat="43.3805830" lon="-4.3103600">
        <ele>0.8</ele>
        <time>2021-07-18T05:38:29Z</time>
      </trkpt>
      <trkpt lat="43.3805700" lon="-4.3104100">
        <ele>0.4</ele>
        <time>2021-07-18T05:38:30Z</time>
      </trkpt>
      <trkpt lat="43.3805560" lon="-4.3104580">
        <ele>0.0</ele>
        <time>2021-07-18T05:38:31Z</time>
      </trkpt>
      <trkpt lat="43.3805400" lon="-4.3105100">
        <ele>-0.4</ele>
        <time>2021-07-18T05:38:32Z</time>
      </trkpt>
      <trkpt lat="43.3805020" lon="-4.3106220">
        <ele>-0.4</ele>
        <time>2021-07-18T05:38:34Z</time>
      </trkpt>
      <trkpt lat="43.3804010" lon="-4.3109000">
        <ele>-0.8</ele>
        <time>2021-07-18T05:38:39Z</time>
      </trkpt>
      <trkpt lat="43.3803830" lon="-4.3109620">
        <ele>-1.2</ele>
        <time>2021-07-18T05:38:40Z</time>
      </trkpt>
      <trkpt lat="43.3803640" lon="-4.3110180">
        <ele>-1.6</ele>
        <time>2021-07-18T05:38:41Z</time>
      </trkpt>
      <trkpt lat="43.3803470" lon="-4.3110760">
        <ele>-2.0</ele>
        <time>2021-07-18T05:38:42Z</time>
      </trkpt>
      <trkpt lat="43.3803240" lon="-4.3111310">
        <ele>-2.4</ele>
        <time>2021-07-18T05:38:43Z</time>
      </trkpt>
      <trkpt lat="43.3801920" lon="-4.3113440">
        <ele>-2.8</ele>
        <time>2021-07-18T05:38:47Z</time>
      </trkpt>
      <trkpt lat="43.3801750" lon="-4.3113960">
        <ele>-3.4</ele>
        <time>2021-07-18T05:38:48Z</time>
      </trkpt>
      <trkpt lat="43.3801570" lon="-4.3114410">
        <ele>-3.8</ele>
        <time>2021-07-18T05:38:49Z</time>
      </trkpt>
      <trkpt lat="43.3801390" lon="-4.3114860">
        <ele>-4.2</ele>
        <time>2021-07-18T05:38:50Z</time>
      </trkpt>
      <trkpt lat="43.3801250" lon="-4.3115350">
        <ele>-4.6</ele>
        <time>2021-07-18T05:38:51Z</time>
      </trkpt>
      <trkpt lat="43.3800940" lon="-4.3116320">
        <ele>-4.6</ele>
        <time>2021-07-18T05:38:53Z</time>
      </trkpt>
      <trkpt lat="43.3799150" lon="-4.3119410">
        <ele>-4.6</ele>
        <time>2021-07-18T05:38:59Z</time>
      </trkpt>
      <trkpt lat="43.3798960" lon="-4.3119910">
        <ele>-4.6</ele>
        <time>2021-07-18T05:39:00Z</time>
      </trkpt>
      <trkpt lat="43.3798300" lon="-4.3121360">
        <ele>-4.6</ele>
        <time>2021-07-18T05:39:03Z</time>
      </trkpt>
      <trkpt lat="43.3797560" lon="-4.3123030">
        <ele>-4.6</ele>
        <time>2021-07-18T05:39:07Z</time>
      </trkpt>
      <trkpt lat="43.3795570" lon="-4.3126560">
        <ele>-4.6</ele>
        <time>2021-07-18T05:39:15Z</time>
      </trkpt>
      <trkpt lat="43.3793610" lon="-4.3128640">
        <ele>-5.0</ele>
        <time>2021-07-18T05:39:20Z</time>
      </trkpt>
      <trkpt lat="43.3793390" lon="-4.3129010">
        <ele>-5.4</ele>
        <time>2021-07-18T05:39:21Z</time>
      </trkpt>
      <trkpt lat="43.3793250" lon="-4.3129340">
        <ele>-5.8</ele>
        <time>2021-07-18T05:39:22Z</time>
      </trkpt>
      <trkpt lat="43.3793130" lon="-4.3129630">
        <ele>-6.2</ele>
        <time>2021-07-18T05:39:23Z</time>
      </trkpt>
      <trkpt lat="43.3793030" lon="-4.3129950">
        <ele>-6.6</ele>
        <time>2021-07-18T05:39:24Z</time>
      </trkpt>
      <trkpt lat="43.3792860" lon="-4.3131640">
        <ele>-6.6</ele>
        <time>2021-07-18T05:39:28Z</time>
      </trkpt>
      <trkpt lat="43.3792790" lon="-4.3132060">
        <ele>-6.6</ele>
        <time>2021-07-18T05:39:29Z</time>
      </trkpt>
      <trkpt lat="43.3792250" lon="-4.3134630">
        <ele>-6.6</ele>
        <time>2021-07-18T05:39:35Z</time>
      </trkpt>
      <trkpt lat="43.3791790" lon="-4.3136810">
        <ele>-6.6</ele>
        <time>2021-07-18T05:39:40Z</time>
      </trkpt>
      <trkpt lat="43.3791610" lon="-4.3137570">
        <ele>-6.6</ele>
        <time>2021-07-18T05:39:42Z</time>
      </trkpt>
      <trkpt lat="43.3791050" lon="-4.3140150">
        <ele>-6.6</ele>
        <time>2021-07-18T05:39:49Z</time>
      </trkpt>
      <trkpt lat="43.3790870" lon="-4.3141970">
        <ele>-6.6</ele>
        <time>2021-07-18T05:39:54Z</time>
      </trkpt>
      <trkpt lat="43.3790780" lon="-4.3142420">
        <ele>-6.6</ele>
        <time>2021-07-18T05:39:55Z</time>
      </trkpt>
      <trkpt lat="43.3790470" lon="-4.3143810">
        <ele>-6.6</ele>
        <time>2021-07-18T05:39:58Z</time>
      </trkpt>
      <trkpt lat="43.3789790" lon="-4.3145470">
        <ele>-6.6</ele>
        <time>2021-07-18T05:40:02Z</time>
      </trkpt>
      <trkpt lat="43.3789330" lon="-4.3147070">
        <ele>-6.6</ele>
        <time>2021-07-18T05:40:06Z</time>
      </trkpt>
      <trkpt lat="43.3789180" lon="-4.3147710">
        <ele>-6.6</ele>
        <time>2021-07-18T05:40:08Z</time>
      </trkpt>
      <trkpt lat="43.3788960" lon="-4.3149210">
        <ele>-6.6</ele>
        <time>2021-07-18T05:40:14Z</time>
      </trkpt>
      <trkpt lat="43.3788770" lon="-4.3151410">
        <ele>-6.6</ele>
        <time>2021-07-18T05:40:19Z</time>
      </trkpt>
      <trkpt lat="43.3788550" lon="-4.3153990">
        <ele>-7.0</ele>
        <time>2021-07-18T05:40:25Z</time>
      </trkpt>
      <trkpt lat="43.3788610" lon="-4.3154340">
        <ele>-7.4</ele>
        <time>2021-07-18T05:40:26Z</time>
      </trkpt>
      <trkpt lat="43.3788610" lon="-4.3154760">
        <ele>-7.8</ele>
        <time>2021-07-18T05:40:27Z</time>
      </trkpt>
      <trkpt lat="43.3788640" lon="-4.3155220">
        <ele>-8.2</ele>
        <time>2021-07-18T05:40:28Z</time>
      </trkpt>
      <trkpt lat="43.3788730" lon="-4.3155650">
        <ele>-8.8</ele>
        <time>2021-07-18T05:40:29Z</time>
      </trkpt>
      <trkpt lat="43.3789090" lon="-4.3157730">
        <ele>-8.8</ele>
        <time>2021-07-18T05:40:35Z</time>
      </trkpt>
      <trkpt lat="43.3789820" lon="-4.3159920">
        <ele>-8.8</ele>
        <time>2021-07-18T05:40:40Z</time>
      </trkpt>
      <trkpt lat="43.3790720" lon="-4.3162700">
        <ele>-8.8</ele>
        <time>2021-07-18T05:40:46Z</time>
      </trkpt>
      <trkpt lat="43.3791710" lon="-4.3164710">
        <ele>-9.2</ele>
        <time>2021-07-18T05:40:51Z</time>
      </trkpt>
      <trkpt lat="43.3791940" lon="-4.3165160">
        <ele>-9.6</ele>
        <time>2021-07-18T05:40:52Z</time>
      </trkpt>
      <trkpt lat="43.3792200" lon="-4.3165610">
        <ele>-10.0</ele>
        <time>2021-07-18T05:40:53Z</time>
      </trkpt>
      <trkpt lat="43.3792400" lon="-4.3166100">
        <ele>-10.4</ele>
        <time>2021-07-18T05:40:54Z</time>
      </trkpt>
      <trkpt lat="43.3792620" lon="-4.3166550">
        <ele>-10.8</ele>
        <time>2021-07-18T05:40:55Z</time>
      </trkpt>
      <trkpt lat="43.3793450" lon="-4.3168130">
        <ele>-10.8</ele>
        <time>2021-07-18T05:40:59Z</time>
      </trkpt>
      <trkpt lat="43.3794720" lon="-4.3170430">
        <ele>-11.2</ele>
        <time>2021-07-18T05:41:06Z</time>
      </trkpt>
      <trkpt lat="43.3794900" lon="-4.3170750">
        <ele>-11.6</ele>
        <time>2021-07-18T05:41:07Z</time>
      </trkpt>
      <trkpt lat="43.3795050" lon="-4.3171020">
        <ele>-12.0</ele>
        <time>2021-07-18T05:41:08Z</time>
      </trkpt>
      <trkpt lat="43.3795200" lon="-4.3171200">
        <ele>-12.4</ele>
        <time>2021-07-18T05:41:09Z</time>
      </trkpt>
      <trkpt lat="43.3795340" lon="-4.3171330">
        <ele>-12.8</ele>
        <time>2021-07-18T05:41:10Z</time>
      </trkpt>
      <trkpt lat="43.3795850" lon="-4.3171570">
        <ele>-12.8</ele>
        <time>2021-07-18T05:41:12Z</time>
      </trkpt>
      <trkpt lat="43.3796880" lon="-4.3172160">
        <ele>-12.8</ele>
        <time>2021-07-18T05:41:15Z</time>
      </trkpt>
      <trkpt lat="43.3797610" lon="-4.3172810">
        <ele>-12.8</ele>
        <time>2021-07-18T05:41:17Z</time>
      </trkpt>
      <trkpt lat="43.3798280" lon="-4.3173430">
        <ele>-12.8</ele>
        <time>2021-07-18T05:41:19Z</time>
      </trkpt>
      <trkpt lat="43.3799630" lon="-4.3174670">
        <ele>-12.8</ele>
        <time>2021-07-18T05:41:23Z</time>
      </trkpt>
      <trkpt lat="43.3800680" lon="-4.3175340">
        <ele>-12.8</ele>
        <time>2021-07-18T05:41:26Z</time>
      </trkpt>
      <trkpt lat="43.3801330" lon="-4.3175810">
        <ele>-13.2</ele>
        <time>2021-07-18T05:41:28Z</time>
      </trkpt>
      <trkpt lat="43.3801650" lon="-4.3176020">
        <ele>-13.6</ele>
        <time>2021-07-18T05:41:29Z</time>
      </trkpt>
      <trkpt lat="43.3801990" lon="-4.3176210">
        <ele>-14.0</ele>
        <time>2021-07-18T05:41:30Z</time>
      </trkpt>
      <trkpt lat="43.3802350" lon="-4.3176500">
        <ele>-14.4</ele>
        <time>2021-07-18T05:41:31Z</time>
      </trkpt>
      <trkpt lat="43.3802730" lon="-4.3176840">
        <ele>-14.8</ele>
        <time>2021-07-18T05:41:32Z</time>
      </trkpt>
      <trkpt lat="43.3803130" lon="-4.3177160">
        <ele>-14.8</ele>
        <time>2021-07-18T05:41:33Z</time>
      </trkpt>
      <trkpt lat="43.3803920" lon="-4.3177750">
        <ele>-14.8</ele>
        <time>2021-07-18T05:41:35Z</time>
      </trkpt>
      <trkpt lat="43.3804310" lon="-4.3178030">
        <ele>-14.8</ele>
        <time>2021-07-18T05:41:36Z</time>
      </trkpt>
      <trkpt lat="43.3805790" lon="-4.3179070">
        <ele>-14.8</ele>
        <time>2021-07-18T05:41:40Z</time>
      </trkpt>
      <trkpt lat="43.3808870" lon="-4.3180670">
        <ele>-14.8</ele>
        <time>2021-07-18T05:41:48Z</time>
      </trkpt>
      <trkpt lat="43.3809240" lon="-4.3180790">
        <ele>-14.8</ele>
        <time>2021-07-18T05:41:49Z</time>
      </trkpt>
      <trkpt lat="43.3810380" lon="-4.3181010">
        <ele>-14.8</ele>
        <time>2021-07-18T05:41:52Z</time>
      </trkpt>
      <trkpt lat="43.3810760" lon="-4.3181090">
        <ele>-14.8</ele>
        <time>2021-07-18T05:41:53Z</time>
      </trkpt>
      <trkpt lat="43.3811830" lon="-4.3181360">
        <ele>-14.8</ele>
        <time>2021-07-18T05:41:56Z</time>
      </trkpt>
      <trkpt lat="43.3812170" lon="-4.3181520">
        <ele>-14.8</ele>
        <time>2021-07-18T05:41:57Z</time>
      </trkpt>
      <trkpt lat="43.3812820" lon="-4.3181850">
        <ele>-14.8</ele>
        <time>2021-07-18T05:41:59Z</time>
      </trkpt>
      <trkpt lat="43.3813470" lon="-4.3182250">
        <ele>-14.8</ele>
        <time>2021-07-18T05:42:01Z</time>
      </trkpt>
      <trkpt lat="43.3814070" lon="-4.3182780">
        <ele>-14.8</ele>
        <time>2021-07-18T05:42:03Z</time>
      </trkpt>
      <trkpt lat="43.3814640" lon="-4.3183300">
        <ele>-14.4</ele>
        <time>2021-07-18T05:42:05Z</time>
      </trkpt>
      <trkpt lat="43.3814930" lon="-4.3183600">
        <ele>-14.0</ele>
        <time>2021-07-18T05:42:06Z</time>
      </trkpt>
      <trkpt lat="43.3815200" lon="-4.3183880">
        <ele>-13.6</ele>
        <time>2021-07-18T05:42:07Z</time>
      </trkpt>
      <trkpt lat="43.3815470" lon="-4.3184200">
        <ele>-13.2</ele>
        <time>2021-07-18T05:42:08Z</time>
      </trkpt>
      <trkpt lat="43.3815750" lon="-4.3184480">
        <ele>-12.8</ele>
        <time>2021-07-18T05:42:09Z</time>
      </trkpt>
      <trkpt lat="43.3816310" lon="-4.3185050">
        <ele>-12.8</ele>
        <time>2021-07-18T05:42:11Z</time>
      </trkpt>
      <trkpt lat="43.3816570" lon="-4.3185350">
        <ele>-12.8</ele>
        <time>2021-07-18T05:42:12Z</time>
      </trkpt>
      <trkpt lat="43.3817490" lon="-4.3186300">
        <ele>-12.8</ele>
        <time>2021-07-18T05:42:16Z</time>
      </trkpt>
      <trkpt lat="43.3817890" lon="-4.3186550">
        <ele>-12.8</ele>
        <time>2021-07-18T05:42:18Z</time>
      </trkpt>
      <trkpt lat="43.3818420" lon="-4.3186560">
        <ele>-12.4</ele>
        <time>2021-07-18T05:42:23Z</time>
      </trkpt>
      <trkpt lat="43.3818410" lon="-4.3186560">
        <ele>-12.0</ele>
        <time>2021-07-18T05:42:24Z</time>
      </trkpt>
      <trkpt lat="43.3818460" lon="-4.3186560">
        <ele>-11.6</ele>
        <time>2021-07-18T05:42:25Z</time>
      </trkpt>
      <trkpt lat="43.3818520" lon="-4.3186560">
        <ele>-11.2</ele>
        <time>2021-07-18T05:42:26Z</time>
      </trkpt>
      <trkpt lat="43.3818600" lon="-4.3186570">
        <ele>-10.8</ele>
        <time>2021-07-18T05:42:27Z</time>
      </trkpt>
      <trkpt lat="43.3818740" lon="-4.3186580">
        <ele>-10.8</ele>
        <time>2021-07-18T05:42:29Z</time>
      </trkpt>
      <trkpt lat="43.3819690" lon="-4.3186320">
        <ele>-10.8</ele>
        <time>2021-07-18T05:42:34Z</time>
      </trkpt>
      <trkpt lat="43.3820700" lon="-4.3185800">
        <ele>-10.8</ele>
        <time>2021-07-18T05:42:38Z</time>
      </trkpt>
      <trkpt lat="43.3821260" lon="-4.3185620">
        <ele>-10.8</ele>
        <time>2021-07-18T05:42:40Z</time>
      </trkpt>
      <trkpt lat="43.3822390" lon="-4.3185940">
        <ele>-10.4</ele>
        <time>2021-07-18T05:42:44Z</time>
      </trkpt>
      <trkpt lat="43.3822640" lon="-4.3186090">
        <ele>-10.0</ele>
        <time>2021-07-18T05:42:45Z</time>
      </trkpt>
      <trkpt lat="43.3822930" lon="-4.3186340">
        <ele>-9.6</ele>
        <time>2021-07-18T05:42:46Z</time>
      </trkpt>
      <trkpt lat="43.3823140" lon="-4.3186640">
        <ele>-9.2</ele>
        <time>2021-07-18T05:42:47Z</time>
      </trkpt>
      <trkpt lat="43.3823320" lon="-4.3186980">
        <ele>-8.8</ele>
        <time>2021-07-18T05:42:48Z</time>
      </trkpt>
      <trkpt lat="43.3823550" lon="-4.3187610">
        <ele>-8.8</ele>
        <time>2021-07-18T05:42:50Z</time>
      </trkpt>
      <trkpt lat="43.3823610" lon="-4.3188120">
        <ele>-8.8</ele>
        <time>2021-07-18T05:42:52Z</time>
      </trkpt>
      <trkpt lat="43.3823820" lon="-4.3189380">
        <ele>-8.8</ele>
        <time>2021-07-18T05:42:55Z</time>
      </trkpt>
      <trkpt lat="43.3823730" lon="-4.3191050">
        <ele>-8.8</ele>
        <time>2021-07-18T05:42:58Z</time>
      </trkpt>
      <trkpt lat="43.3823540" lon="-4.3192180">
        <ele>-8.8</ele>
        <time>2021-07-18T05:43:00Z</time>
      </trkpt>
      <trkpt lat="43.3822750" lon="-4.3194860">
        <ele>-8.8</ele>
        <time>2021-07-18T05:43:06Z</time>
      </trkpt>
      <trkpt lat="43.3822550" lon="-4.3195590">
        <ele>-8.8</ele>
        <time>2021-07-18T05:43:08Z</time>
      </trkpt>
      <trkpt lat="43.3822200" lon="-4.3196320">
        <ele>-8.8</ele>
        <time>2021-07-18T05:43:10Z</time>
      </trkpt>
      <trkpt lat="43.3821980" lon="-4.3196790">
        <ele>-8.8</ele>
        <time>2021-07-18T05:43:11Z</time>
      </trkpt>
      <trkpt lat="43.3821730" lon="-4.3197170">
        <ele>-8.8</ele>
        <time>2021-07-18T05:43:12Z</time>
      </trkpt>
      <trkpt lat="43.3821260" lon="-4.3198090">
        <ele>-8.8</ele>
        <time>2021-07-18T05:43:14Z</time>
      </trkpt>
      <trkpt lat="43.3821180" lon="-4.3198520">
        <ele>-8.8</ele>
        <time>2021-07-18T05:43:15Z</time>
      </trkpt>
      <trkpt lat="43.3820880" lon="-4.3199940">
        <ele>-8.8</ele>
        <time>2021-07-18T05:43:18Z</time>
      </trkpt>
      <trkpt lat="43.3820650" lon="-4.3201490">
        <ele>-8.8</ele>
        <time>2021-07-18T05:43:21Z</time>
      </trkpt>
      <trkpt lat="43.3820600" lon="-4.3201960">
        <ele>-8.8</ele>
        <time>2021-07-18T05:43:22Z</time>
      </trkpt>
      <trkpt lat="43.3820530" lon="-4.3202860">
        <ele>-9.2</ele>
        <time>2021-07-18T05:43:24Z</time>
      </trkpt>
      <trkpt lat="43.3820490" lon="-4.3203290">
        <ele>-9.6</ele>
        <time>2021-07-18T05:43:25Z</time>
      </trkpt>
      <trkpt lat="43.3820440" lon="-4.3203710">
        <ele>-10.0</ele>
        <time>2021-07-18T05:43:26Z</time>
      </trkpt>
      <trkpt lat="43.3820410" lon="-4.3204130">
        <ele>-10.4</ele>
        <time>2021-07-18T05:43:27Z</time>
      </trkpt>
      <trkpt lat="43.3820380" lon="-4.3204510">
        <ele>-10.8</ele>
        <time>2021-07-18T05:43:28Z</time>
      </trkpt>
      <trkpt lat="43.3820380" lon="-4.3205450">
        <ele>-10.8</ele>
        <time>2021-07-18T05:43:30Z</time>
      </trkpt>
      <trkpt lat="43.3820330" lon="-4.3208530">
        <ele>-10.8</ele>
        <time>2021-07-18T05:43:37Z</time>
      </trkpt>
      <trkpt lat="43.3820350" lon="-4.3208910">
        <ele>-10.8</ele>
        <time>2021-07-18T05:43:38Z</time>
      </trkpt>
      <trkpt lat="43.3820400" lon="-4.3209950">
        <ele>-10.8</ele>
        <time>2021-07-18T05:43:41Z</time>
      </trkpt>
      <trkpt lat="43.3820620" lon="-4.3210990">
        <ele>-10.8</ele>
        <time>2021-07-18T05:43:44Z</time>
      </trkpt>
      <trkpt lat="43.3821010" lon="-4.3212090">
        <ele>-11.2</ele>
        <time>2021-07-18T05:43:47Z</time>
      </trkpt>
      <trkpt lat="43.3821190" lon="-4.3212440">
        <ele>-11.6</ele>
        <time>2021-07-18T05:43:48Z</time>
      </trkpt>
      <trkpt lat="43.3821390" lon="-4.3212770">
        <ele>-12.0</ele>
        <time>2021-07-18T05:43:49Z</time>
      </trkpt>
      <trkpt lat="43.3821610" lon="-4.3213090">
        <ele>-12.4</ele>
        <time>2021-07-18T05:43:50Z</time>
      </trkpt>
      <trkpt lat="43.3821840" lon="-4.3213410">
        <ele>-13.0</ele>
        <time>2021-07-18T05:43:51Z</time>
      </trkpt>
      <trkpt lat="43.3822120" lon="-4.3213780">
        <ele>-13.0</ele>
        <time>2021-07-18T05:43:52Z</time>
      </trkpt>
      <trkpt lat="43.3823620" lon="-4.3215080">
        <ele>-13.0</ele>
        <time>2021-07-18T05:43:57Z</time>
      </trkpt>
      <trkpt lat="43.3823960" lon="-4.3215220">
        <ele>-13.0</ele>
        <time>2021-07-18T05:43:58Z</time>
      </trkpt>
      <trkpt lat="43.3825800" lon="-4.3215400">
        <ele>-13.0</ele>
        <time>2021-07-18T05:44:03Z</time>
      </trkpt>
      <trkpt lat="43.3826810" lon="-4.3215250">
        <ele>-13.0</ele>
        <time>2021-07-18T05:44:06Z</time>
      </trkpt>
      <trkpt lat="43.3827210" lon="-4.3215130">
        <ele>-13.0</ele>
        <time>2021-07-18T05:44:07Z</time>
      </trkpt>
      <trkpt lat="43.3827890" lon="-4.3214850">
        <ele>-13.0</ele>
        <time>2021-07-18T05:44:09Z</time>
      </trkpt>
      <trkpt lat="43.3828200" lon="-4.3214660">
        <ele>-13.0</ele>
        <time>2021-07-18T05:44:10Z</time>
      </trkpt>
      <trkpt lat="43.3828780" lon="-4.3214310">
        <ele>-13.0</ele>
        <time>2021-07-18T05:44:12Z</time>
      </trkpt>
      <trkpt lat="43.3829380" lon="-4.3213910">
        <ele>-13.0</ele>
        <time>2021-07-18T05:44:14Z</time>
      </trkpt>
      <trkpt lat="43.3829900" lon="-4.3213490">
        <ele>-13.0</ele>
        <time>2021-07-18T05:44:16Z</time>
      </trkpt>
      <trkpt lat="43.3830190" lon="-4.3213300">
        <ele>-12.6</ele>
        <time>2021-07-18T05:44:17Z</time>
      </trkpt>
      <trkpt lat="43.3830470" lon="-4.3213110">
        <ele>-12.0</ele>
        <time>2021-07-18T05:44:18Z</time>
      </trkpt>
      <trkpt lat="43.3830760" lon="-4.3212940">
        <ele>-11.6</ele>
        <time>2021-07-18T05:44:19Z</time>
      </trkpt>
      <trkpt lat="43.3831050" lon="-4.3212770">
        <ele>-11.2</ele>
        <time>2021-07-18T05:44:20Z</time>
      </trkpt>
      <trkpt lat="43.3831420" lon="-4.3212540">
        <ele>-10.8</ele>
        <time>2021-07-18T05:44:21Z</time>
      </trkpt>
      <trkpt lat="43.3832060" lon="-4.3212180">
        <ele>-10.8</ele>
        <time>2021-07-18T05:44:23Z</time>
      </trkpt>
      <trkpt lat="43.3833040" lon="-4.3211670">
        <ele>-10.8</ele>
        <time>2021-07-18T05:44:26Z</time>
      </trkpt>
      <trkpt lat="43.3834150" lon="-4.3211410">
        <ele>-10.8</ele>
        <time>2021-07-18T05:44:29Z</time>
      </trkpt>
      <trkpt lat="43.3835210" lon="-4.3211330">
        <ele>-10.4</ele>
        <time>2021-07-18T05:44:32Z</time>
      </trkpt>
      <trkpt lat="43.3835560" lon="-4.3211300">
        <ele>-10.0</ele>
        <time>2021-07-18T05:44:33Z</time>
      </trkpt>
      <trkpt lat="43.3835930" lon="-4.3211300">
        <ele>-9.6</ele>
        <time>2021-07-18T05:44:34Z</time>
      </trkpt>
      <trkpt lat="43.3836320" lon="-4.3211300">
        <ele>-9.2</ele>
        <time>2021-07-18T05:44:35Z</time>
      </trkpt>
      <trkpt lat="43.3836710" lon="-4.3211320">
        <ele>-8.8</ele>
        <time>2021-07-18T05:44:36Z</time>
      </trkpt>
      <trkpt lat="43.3837870" lon="-4.3211550">
        <ele>-8.8</ele>
        <time>2021-07-18T05:44:39Z</time>
      </trkpt>
      <trkpt lat="43.3840040" lon="-4.3212040">
        <ele>-8.8</ele>
        <time>2021-07-18T05:44:45Z</time>
      </trkpt>
      <trkpt lat="43.3840740" lon="-4.3212220">
        <ele>-8.8</ele>
        <time>2021-07-18T05:44:47Z</time>
      </trkpt>
      <trkpt lat="43.3841770" lon="-4.3212470">
        <ele>-8.8</ele>
        <time>2021-07-18T05:44:50Z</time>
      </trkpt>
      <trkpt lat="43.3842790" lon="-4.3212600">
        <ele>-8.8</ele>
        <time>2021-07-18T05:44:53Z</time>
      </trkpt>
      <trkpt lat="43.3843150" lon="-4.3212660">
        <ele>-8.8</ele>
        <time>2021-07-18T05:44:54Z</time>
      </trkpt>
      <trkpt lat="43.3843940" lon="-4.3212530">
        <ele>-8.8</ele>
        <time>2021-07-18T05:44:56Z</time>
      </trkpt>
      <trkpt lat="43.3844780" lon="-4.3212430">
        <ele>-8.8</ele>
        <time>2021-07-18T05:44:58Z</time>
      </trkpt>
      <trkpt lat="43.3845210" lon="-4.3212490">
        <ele>-8.8</ele>
        <time>2021-07-18T05:44:59Z</time>
      </trkpt>
      <trkpt lat="43.3845920" lon="-4.3212650">
        <ele>-8.8</ele>
        <time>2021-07-18T05:45:01Z</time>
      </trkpt>
      <trkpt lat="43.3846220" lon="-4.3212780">
        <ele>-8.8</ele>
        <time>2021-07-18T05:45:02Z</time>
      </trkpt>
      <trkpt lat="43.3846930" lon="-4.3213540">
        <ele>-8.8</ele>
        <time>2021-07-18T05:45:05Z</time>
      </trkpt>
      <trkpt lat="43.3847180" lon="-4.3214130">
        <ele>-8.8</ele>
        <time>2021-07-18T05:45:07Z</time>
      </trkpt>
      <trkpt lat="43.3847340" lon="-4.3214690">
        <ele>-8.8</ele>
        <time>2021-07-18T05:45:09Z</time>
      </trkpt>
      <trkpt lat="43.3847440" lon="-4.3215490">
        <ele>-9.2</ele>
        <time>2021-07-18T05:45:11Z</time>
      </trkpt>
      <trkpt lat="43.3847450" lon="-4.3215980">
        <ele>-9.6</ele>
        <time>2021-07-18T05:45:12Z</time>
      </trkpt>
      <trkpt lat="43.3847420" lon="-4.3216490">
        <ele>-10.0</ele>
        <time>2021-07-18T05:45:13Z</time>
      </trkpt>
      <trkpt lat="43.3847370" lon="-4.3217060">
        <ele>-10.8</ele>
        <time>2021-07-18T05:45:14Z</time>
      </trkpt>
      <trkpt lat="43.3847030" lon="-4.3219560">
        <ele>-10.8</ele>
        <time>2021-07-18T05:45:19Z</time>
      </trkpt>
      <trkpt lat="43.3846910" lon="-4.3220560">
        <ele>-10.8</ele>
        <time>2021-07-18T05:45:21Z</time>
      </trkpt>
      <trkpt lat="43.3846660" lon="-4.3222670">
        <ele>-11.2</ele>
        <time>2021-07-18T05:45:25Z</time>
      </trkpt>
      <trkpt lat="43.3846650" lon="-4.3223210">
        <ele>-11.6</ele>
        <time>2021-07-18T05:45:26Z</time>
      </trkpt>
      <trkpt lat="43.3846620" lon="-4.3223760">
        <ele>-12.0</ele>
        <time>2021-07-18T05:45:27Z</time>
      </trkpt>
      <trkpt lat="43.3846600" lon="-4.3224350">
        <ele>-12.6</ele>
        <time>2021-07-18T05:45:28Z</time>
      </trkpt>
      <trkpt lat="43.3846600" lon="-4.3224980">
        <ele>-13.0</ele>
        <time>2021-07-18T05:45:29Z</time>
      </trkpt>
      <trkpt lat="43.3846540" lon="-4.3226310">
        <ele>-13.0</ele>
        <time>2021-07-18T05:45:31Z</time>
      </trkpt>
      <trkpt lat="43.3846480" lon="-4.3226960">
        <ele>-13.0</ele>
        <time>2021-07-18T05:45:32Z</time>
      </trkpt>
      <trkpt lat="43.3846020" lon="-4.3231700">
        <ele>-13.0</ele>
        <time>2021-07-18T05:45:39Z</time>
      </trkpt>
      <trkpt lat="43.3845970" lon="-4.3232410">
        <ele>-13.4</ele>
        <time>2021-07-18T05:45:40Z</time>
      </trkpt>
      <trkpt lat="43.3845910" lon="-4.3233100">
        <ele>-13.8</ele>
        <time>2021-07-18T05:45:41Z</time>
      </trkpt>
      <trkpt lat="43.3845840" lon="-4.3233780">
        <ele>-14.2</ele>
        <time>2021-07-18T05:45:42Z</time>
      </trkpt>
      <trkpt lat="43.3845760" lon="-4.3234450">
        <ele>-14.6</ele>
        <time>2021-07-18T05:45:43Z</time>
      </trkpt>
      <trkpt lat="43.3845690" lon="-4.3235170">
        <ele>-15.0</ele>
        <time>2021-07-18T05:45:44Z</time>
      </trkpt>
      <trkpt lat="43.3845550" lon="-4.3236970">
        <ele>-15.0</ele>
        <time>2021-07-18T05:45:47Z</time>
      </trkpt>
      <trkpt lat="43.3845530" lon="-4.3238180">
        <ele>-15.0</ele>
        <time>2021-07-18T05:45:51Z</time>
      </trkpt>
      <trkpt lat="43.3845540" lon="-4.3238380">
        <ele>-15.0</ele>
        <time>2021-07-18T05:45:54Z</time>
      </trkpt>
      <trkpt lat="43.3845520" lon="-4.3238440">
        <ele>-17.0</ele>
        <time>2021-07-18T05:46:13Z</time>
      </trkpt>
      <trkpt lat="43.3845350" lon="-4.3239940">
        <ele>-17.0</ele>
        <time>2021-07-18T05:46:18Z</time>
      </trkpt>
      <trkpt lat="43.3845290" lon="-4.3240370">
        <ele>-17.0</ele>
        <time>2021-07-18T05:46:19Z</time>
      </trkpt>
      <trkpt lat="43.3845260" lon="-4.3240820">
        <ele>-17.0</ele>
        <time>2021-07-18T05:46:20Z</time>
      </trkpt>
      <trkpt lat="43.3845280" lon="-4.3241780">
        <ele>-17.0</ele>
        <time>2021-07-18T05:46:22Z</time>
      </trkpt>
      <trkpt lat="43.3845190" lon="-4.3242750">
        <ele>-17.0</ele>
        <time>2021-07-18T05:46:24Z</time>
      </trkpt>
      <trkpt lat="43.3844990" lon="-4.3244290">
        <ele>-17.0</ele>
        <time>2021-07-18T05:46:27Z</time>
      </trkpt>
      <trkpt lat="43.3844810" lon="-4.3246930">
        <ele>-17.0</ele>
        <time>2021-07-18T05:46:32Z</time>
      </trkpt>
      <trkpt lat="43.3844680" lon="-4.3249030">
        <ele>-17.0</ele>
        <time>2021-07-18T05:46:36Z</time>
      </trkpt>
      <trkpt lat="43.3844570" lon="-4.3250720">
        <ele>-17.0</ele>
        <time>2021-07-18T05:46:39Z</time>
      </trkpt>
      <trkpt lat="43.3844230" lon="-4.3253950">
        <ele>-17.0</ele>
        <time>2021-07-18T05:46:45Z</time>
      </trkpt>
      <trkpt lat="43.3844080" lon="-4.3255430">
        <ele>-17.0</ele>
        <time>2021-07-18T05:46:48Z</time>
      </trkpt>
      <trkpt lat="43.3843970" lon="-4.3257320">
        <ele>-17.0</ele>
        <time>2021-07-18T05:46:52Z</time>
      </trkpt>
      <trkpt lat="43.3843900" lon="-4.3258350">
        <ele>-17.0</ele>
        <time>2021-07-18T05:46:54Z</time>
      </trkpt>
      <trkpt lat="43.3843410" lon="-4.3261500">
        <ele>-17.0</ele>
        <time>2021-07-18T05:47:00Z</time>
      </trkpt>
      <trkpt lat="43.3843270" lon="-4.3262540">
        <ele>-17.0</ele>
        <time>2021-07-18T05:47:02Z</time>
      </trkpt>
      <trkpt lat="43.3842820" lon="-4.3266800">
        <ele>-17.0</ele>
        <time>2021-07-18T05:47:10Z</time>
      </trkpt>
      <trkpt lat="43.3842500" lon="-4.3271070">
        <ele>-17.0</ele>
        <time>2021-07-18T05:47:18Z</time>
      </trkpt>
      <trkpt lat="43.3842140" lon="-4.3275490">
        <ele>-17.0</ele>
        <time>2021-07-18T05:47:27Z</time>
      </trkpt>
      <trkpt lat="43.3841910" lon="-4.3277480">
        <ele>-17.0</ele>
        <time>2021-07-18T05:47:31Z</time>
      </trkpt>
      <trkpt lat="43.3841810" lon="-4.3278460">
        <ele>-17.0</ele>
        <time>2021-07-18T05:47:33Z</time>
      </trkpt>
      <trkpt lat="43.3841540" lon="-4.3282330">
        <ele>-17.0</ele>
        <time>2021-07-18T05:47:41Z</time>
      </trkpt>
      <trkpt lat="43.3841500" lon="-4.3282820">
        <ele>-16.6</ele>
        <time>2021-07-18T05:47:42Z</time>
      </trkpt>
      <trkpt lat="43.3841450" lon="-4.3283330">
        <ele>-16.2</ele>
        <time>2021-07-18T05:47:43Z</time>
      </trkpt>
      <trkpt lat="43.3841410" lon="-4.3283860">
        <ele>-15.8</ele>
        <time>2021-07-18T05:47:44Z</time>
      </trkpt>
      <trkpt lat="43.3841380" lon="-4.3284340">
        <ele>-15.4</ele>
        <time>2021-07-18T05:47:45Z</time>
      </trkpt>
      <trkpt lat="43.3841360" lon="-4.3284830">
        <ele>-15.0</ele>
        <time>2021-07-18T05:47:46Z</time>
      </trkpt>
      <trkpt lat="43.3841290" lon="-4.3285810">
        <ele>-15.0</ele>
        <time>2021-07-18T05:47:48Z</time>
      </trkpt>
      <trkpt lat="43.3841270" lon="-4.3287880">
        <ele>-15.0</ele>
        <time>2021-07-18T05:47:52Z</time>
      </trkpt>
      <trkpt lat="43.3841490" lon="-4.3289330">
        <ele>-15.0</ele>
        <time>2021-07-18T05:47:55Z</time>
      </trkpt>
      <trkpt lat="43.3842000" lon="-4.3291260">
        <ele>-15.0</ele>
        <time>2021-07-18T05:47:59Z</time>
      </trkpt>
      <trkpt lat="43.3842460" lon="-4.3292410">
        <ele>-15.0</ele>
        <time>2021-07-18T05:48:02Z</time>
      </trkpt>
      <trkpt lat="43.3843310" lon="-4.3294340">
        <ele>-15.0</ele>
        <time>2021-07-18T05:48:07Z</time>
      </trkpt>
      <trkpt lat="43.3844120" lon="-4.3296160">
        <ele>-15.0</ele>
        <time>2021-07-18T05:48:12Z</time>
      </trkpt>
      <trkpt lat="43.3845760" lon="-4.3299430">
        <ele>-15.0</ele>
        <time>2021-07-18T05:48:21Z</time>
      </trkpt>
      <trkpt lat="43.3846250" lon="-4.3300490">
        <ele>-15.0</ele>
        <time>2021-07-18T05:48:24Z</time>
      </trkpt>
      <trkpt lat="43.3846860" lon="-4.3301590">
        <ele>-15.0</ele>
        <time>2021-07-18T05:48:28Z</time>
      </trkpt>
      <trkpt lat="43.3847030" lon="-4.3301690">
        <ele>-15.0</ele>
        <time>2021-07-18T05:48:29Z</time>
      </trkpt>
      <trkpt lat="43.3847700" lon="-4.3301750">
        <ele>-15.0</ele>
        <time>2021-07-18T05:48:33Z</time>
      </trkpt>
      <trkpt lat="43.3848020" lon="-4.3301620">
        <ele>-15.0</ele>
        <time>2021-07-18T05:48:35Z</time>
      </trkpt>
      <trkpt lat="43.3848190" lon="-4.3301590">
        <ele>-15.0</ele>
        <time>2021-07-18T05:48:36Z</time>
      </trkpt>
      <trkpt lat="43.3848730" lon="-4.3301500">
        <ele>-15.0</ele>
        <time>2021-07-18T05:48:39Z</time>
      </trkpt>
      <trkpt lat="43.3849380" lon="-4.3301350">
        <ele>-15.0</ele>
        <time>2021-07-18T05:48:42Z</time>
      </trkpt>
      <trkpt lat="43.3849730" lon="-4.3301260">
        <ele>-15.0</ele>
        <time>2021-07-18T05:48:43Z</time>
      </trkpt>
      <trkpt lat="43.3850430" lon="-4.3301030">
        <ele>-15.0</ele>
        <time>2021-07-18T05:48:45Z</time>
      </trkpt>
      <trkpt lat="43.3851850" lon="-4.3300700">
        <ele>-15.0</ele>
        <time>2021-07-18T05:48:49Z</time>
      </trkpt>
      <trkpt lat="43.3854710" lon="-4.3300020">
        <ele>-14.6</ele>
        <time>2021-07-18T05:48:57Z</time>
      </trkpt>
      <trkpt lat="43.3855030" lon="-4.3299950">
        <ele>-14.2</ele>
        <time>2021-07-18T05:48:58Z</time>
      </trkpt>
      <trkpt lat="43.3855400" lon="-4.3299900">
        <ele>-13.8</ele>
        <time>2021-07-18T05:48:59Z</time>
      </trkpt>
      <trkpt lat="43.3855740" lon="-4.3299920">
        <ele>-13.4</ele>
        <time>2021-07-18T05:49:00Z</time>
      </trkpt>
      <trkpt lat="43.3856050" lon="-4.3299910">
        <ele>-13.0</ele>
        <time>2021-07-18T05:49:01Z</time>
      </trkpt>
      <trkpt lat="43.3856740" lon="-4.3299930">
        <ele>-13.0</ele>
        <time>2021-07-18T05:49:03Z</time>
      </trkpt>
      <trkpt lat="43.3858500" lon="-4.3300310">
        <ele>-13.0</ele>
        <time>2021-07-18T05:49:09Z</time>
      </trkpt>
      <trkpt lat="43.3860670" lon="-4.3301150">
        <ele>-13.0</ele>
        <time>2021-07-18T05:49:16Z</time>
      </trkpt>
      <trkpt lat="43.3861050" lon="-4.3301250">
        <ele>-13.0</ele>
        <time>2021-07-18T05:49:17Z</time>
      </trkpt>
      <trkpt lat="43.3862140" lon="-4.3301600">
        <ele>-13.0</ele>
        <time>2021-07-18T05:49:20Z</time>
      </trkpt>
      <trkpt lat="43.3862480" lon="-4.3301750">
        <ele>-13.0</ele>
        <time>2021-07-18T05:49:21Z</time>
      </trkpt>
      <trkpt lat="43.3863020" lon="-4.3301970">
        <ele>-13.0</ele>
        <time>2021-07-18T05:49:23Z</time>
      </trkpt>
      <trkpt lat="43.3863470" lon="-4.3302090">
        <ele>-13.0</ele>
        <time>2021-07-18T05:49:25Z</time>
      </trkpt>
      <trkpt lat="43.3864040" lon="-4.3302120">
        <ele>-13.0</ele>
        <time>2021-07-18T05:49:29Z</time>
      </trkpt>
      <trkpt lat="43.3864250" lon="-4.3302360">
        <ele>-13.0</ele>
        <time>2021-07-18T05:49:50Z</time>
      </trkpt>
      <trkpt lat="43.3864630" lon="-4.3302820">
        <ele>-13.0</ele>
        <time>2021-07-18T05:49:52Z</time>
      </trkpt>
      <trkpt lat="43.3865590" lon="-4.3303440">
        <ele>-13.0</ele>
        <time>2021-07-18T05:49:56Z</time>
      </trkpt>
      <trkpt lat="43.3866010" lon="-4.3303560">
        <ele>-13.0</ele>
        <time>2021-07-18T05:49:57Z</time>
      </trkpt>
      <trkpt lat="43.3867000" lon="-4.3303680">
        <ele>-13.4</ele>
        <time>2021-07-18T05:49:59Z</time>
      </trkpt>
      <trkpt lat="43.3867510" lon="-4.3303590">
        <ele>-13.8</ele>
        <time>2021-07-18T05:50:00Z</time>
      </trkpt>
      <trkpt lat="43.3868030" lon="-4.3303430">
        <ele>-14.2</ele>
        <time>2021-07-18T05:50:01Z</time>
      </trkpt>
      <trkpt lat="43.3868520" lon="-4.3303170">
        <ele>-14.8</ele>
        <time>2021-07-18T05:50:02Z</time>
      </trkpt>
      <trkpt lat="43.3868950" lon="-4.3302840">
        <ele>-15.2</ele>
        <time>2021-07-18T05:50:03Z</time>
      </trkpt>
      <trkpt lat="43.3869330" lon="-4.3302500">
        <ele>-15.2</ele>
        <time>2021-07-18T05:50:04Z</time>
      </trkpt>
      <trkpt lat="43.3869650" lon="-4.3302150">
        <ele>-15.2</ele>
        <time>2021-07-18T05:50:05Z</time>
      </trkpt>
      <trkpt lat="43.3870950" lon="-4.3300550">
        <ele>-15.2</ele>
        <time>2021-07-18T05:50:10Z</time>
      </trkpt>
      <trkpt lat="43.3871180" lon="-4.3300210">
        <ele>-15.2</ele>
        <time>2021-07-18T05:50:11Z</time>
      </trkpt>
      <trkpt lat="43.3871560" lon="-4.3299540">
        <ele>-15.2</ele>
        <time>2021-07-18T05:50:13Z</time>
      </trkpt>
      <trkpt lat="43.3872120" lon="-4.3298670">
        <ele>-15.2</ele>
        <time>2021-07-18T05:50:16Z</time>
      </trkpt>
      <trkpt lat="43.3872280" lon="-4.3298340">
        <ele>-15.2</ele>
        <time>2021-07-18T05:50:17Z</time>
      </trkpt>
      <trkpt lat="43.3872440" lon="-4.3298000">
        <ele>-15.2</ele>
        <time>2021-07-18T05:50:18Z</time>
      </trkpt>
      <trkpt lat="43.3872910" lon="-4.3296770">
        <ele>-15.2</ele>
        <time>2021-07-18T05:50:21Z</time>
      </trkpt>
      <trkpt lat="43.3873400" lon="-4.3294960">
        <ele>-15.2</ele>
        <time>2021-07-18T05:50:25Z</time>
      </trkpt>
      <trkpt lat="43.3874140" lon="-4.3290970">
        <ele>-15.2</ele>
        <time>2021-07-18T05:50:33Z</time>
      </trkpt>
      <trkpt lat="43.3874260" lon="-4.3290430">
        <ele>-15.2</ele>
        <time>2021-07-18T05:50:34Z</time>
      </trkpt>
      <trkpt lat="43.3874640" lon="-4.3288690">
        <ele>-15.2</ele>
        <time>2021-07-18T05:50:37Z</time>
      </trkpt>
      <trkpt lat="43.3875080" lon="-4.3286940">
        <ele>-15.2</ele>
        <time>2021-07-18T05:50:40Z</time>
      </trkpt>
      <trkpt lat="43.3875280" lon="-4.3286380">
        <ele>-15.2</ele>
        <time>2021-07-18T05:50:41Z</time>
      </trkpt>
      <trkpt lat="43.3875710" lon="-4.3285320">
        <ele>-15.2</ele>
        <time>2021-07-18T05:50:43Z</time>
      </trkpt>
      <trkpt lat="43.3876270" lon="-4.3284280">
        <ele>-15.2</ele>
        <time>2021-07-18T05:50:45Z</time>
      </trkpt>
      <trkpt lat="43.3877220" lon="-4.3282960">
        <ele>-15.2</ele>
        <time>2021-07-18T05:50:48Z</time>
      </trkpt>
      <trkpt lat="43.3878330" lon="-4.3281770">
        <ele>-15.2</ele>
        <time>2021-07-18T05:50:52Z</time>
      </trkpt>
      <trkpt lat="43.3878560" lon="-4.3281600">
        <ele>-15.2</ele>
        <time>2021-07-18T05:50:53Z</time>
      </trkpt>
      <trkpt lat="43.3880520" lon="-4.3280920">
        <ele>-15.2</ele>
        <time>2021-07-18T05:50:59Z</time>
      </trkpt>
      <trkpt lat="43.3881270" lon="-4.3280940">
        <ele>-15.6</ele>
        <time>2021-07-18T05:51:01Z</time>
      </trkpt>
      <trkpt lat="43.3881630" lon="-4.3281020">
        <ele>-16.0</ele>
        <time>2021-07-18T05:51:02Z</time>
      </trkpt>
      <trkpt lat="43.3881990" lon="-4.3281140">
        <ele>-16.4</ele>
        <time>2021-07-18T05:51:03Z</time>
      </trkpt>
      <trkpt lat="43.3882350" lon="-4.3281330">
        <ele>-16.8</ele>
        <time>2021-07-18T05:51:04Z</time>
      </trkpt>
      <trkpt lat="43.3882720" lon="-4.3281570">
        <ele>-17.2</ele>
        <time>2021-07-18T05:51:05Z</time>
      </trkpt>
      <trkpt lat="43.3883050" lon="-4.3281870">
        <ele>-17.2</ele>
        <time>2021-07-18T05:51:06Z</time>
      </trkpt>
      <trkpt lat="43.3884170" lon="-4.3283400">
        <ele>-17.2</ele>
        <time>2021-07-18T05:51:10Z</time>
      </trkpt>
      <trkpt lat="43.3885650" lon="-4.3286380">
        <ele>-17.2</ele>
        <time>2021-07-18T05:51:18Z</time>
      </trkpt>
      <trkpt lat="43.3886030" lon="-4.3287250">
        <ele>-17.2</ele>
        <time>2021-07-18T05:51:20Z</time>
      </trkpt>
      <trkpt lat="43.3887030" lon="-4.3289800">
        <ele>-17.2</ele>
        <time>2021-07-18T05:51:26Z</time>
      </trkpt>
      <trkpt lat="43.3887650" lon="-4.3292010">
        <ele>-17.2</ele>
        <time>2021-07-18T05:51:32Z</time>
      </trkpt>
      <trkpt lat="43.3887870" lon="-4.3292920">
        <ele>-17.2</ele>
        <time>2021-07-18T05:51:34Z</time>
      </trkpt>
      <trkpt lat="43.3888480" lon="-4.3296180">
        <ele>-17.2</ele>
        <time>2021-07-18T05:51:41Z</time>
      </trkpt>
      <trkpt lat="43.3888810" lon="-4.3298050">
        <ele>-17.2</ele>
        <time>2021-07-18T05:51:45Z</time>
      </trkpt>
      <trkpt lat="43.3889310" lon="-4.3300260">
        <ele>-17.2</ele>
        <time>2021-07-18T05:51:50Z</time>
      </trkpt>
      <trkpt lat="43.3890300" lon="-4.3303600">
        <ele>-17.2</ele>
        <time>2021-07-18T05:51:58Z</time>
      </trkpt>
      <trkpt lat="43.3890830" lon="-4.3304910">
        <ele>-17.2</ele>
        <time>2021-07-18T05:52:02Z</time>
      </trkpt>
      <trkpt lat="43.3891070" lon="-4.3305410">
        <ele>-17.2</ele>
        <time>2021-07-18T05:52:04Z</time>
      </trkpt>
      <trkpt lat="43.3891470" lon="-4.3305780">
        <ele>-17.2</ele>
        <time>2021-07-18T05:52:06Z</time>
      </trkpt>
      <trkpt lat="43.3892210" lon="-4.3306610">
        <ele>-17.2</ele>
        <time>2021-07-18T05:52:09Z</time>
      </trkpt>
      <trkpt lat="43.3892840" lon="-4.3307750">
        <ele>-17.2</ele>
        <time>2021-07-18T05:52:12Z</time>
      </trkpt>
      <trkpt lat="43.3893960" lon="-4.3309490">
        <ele>-17.2</ele>
        <time>2021-07-18T05:52:17Z</time>
      </trkpt>
      <trkpt lat="43.3894640" lon="-4.3310520">
        <ele>-17.2</ele>
        <time>2021-07-18T05:52:20Z</time>
      </trkpt>
      <trkpt lat="43.3895180" lon="-4.3311560">
        <ele>-17.2</ele>
        <time>2021-07-18T05:52:23Z</time>
      </trkpt>
      <trkpt lat="43.3896170" lon="-4.3313720">
        <ele>-17.2</ele>
        <time>2021-07-18T05:52:29Z</time>
      </trkpt>
      <trkpt lat="43.3896630" lon="-4.3314760">
        <ele>-17.2</ele>
        <time>2021-07-18T05:52:32Z</time>
      </trkpt>
      <trkpt lat="43.3897130" lon="-4.3315820">
        <ele>-17.2</ele>
        <time>2021-07-18T05:52:35Z</time>
      </trkpt>
      <trkpt lat="43.3897410" lon="-4.3316490">
        <ele>-16.8</ele>
        <time>2021-07-18T05:52:37Z</time>
      </trkpt>
      <trkpt lat="43.3897550" lon="-4.3316840">
        <ele>-16.4</ele>
        <time>2021-07-18T05:52:38Z</time>
      </trkpt>
      <trkpt lat="43.3897670" lon="-4.3317160">
        <ele>-16.0</ele>
        <time>2021-07-18T05:52:39Z</time>
      </trkpt>
      <trkpt lat="43.3897820" lon="-4.3317500">
        <ele>-15.2</ele>
        <time>2021-07-18T05:52:40Z</time>
      </trkpt>
      <trkpt lat="43.3898600" lon="-4.3318950">
        <ele>-15.2</ele>
        <time>2021-07-18T05:52:45Z</time>
      </trkpt>
      <trkpt lat="43.3899100" lon="-4.3320200">
        <ele>-14.8</ele>
        <time>2021-07-18T05:52:49Z</time>
      </trkpt>
      <trkpt lat="43.3899220" lon="-4.3320560">
        <ele>-14.4</ele>
        <time>2021-07-18T05:52:50Z</time>
      </trkpt>
      <trkpt lat="43.3899350" lon="-4.3320850">
        <ele>-14.0</ele>
        <time>2021-07-18T05:52:51Z</time>
      </trkpt>
      <trkpt lat="43.3899470" lon="-4.3321180">
        <ele>-13.6</ele>
        <time>2021-07-18T05:52:52Z</time>
      </trkpt>
      <trkpt lat="43.3899590" lon="-4.3321520">
        <ele>-13.2</ele>
        <time>2021-07-18T05:52:53Z</time>
      </trkpt>
      <trkpt lat="43.3899910" lon="-4.3322380">
        <ele>-13.2</ele>
        <time>2021-07-18T05:52:56Z</time>
      </trkpt>
      <trkpt lat="43.3900410" lon="-4.3324360">
        <ele>-12.8</ele>
        <time>2021-07-18T05:53:02Z</time>
      </trkpt>
      <trkpt lat="43.3900510" lon="-4.3324680">
        <ele>-12.2</ele>
        <time>2021-07-18T05:53:03Z</time>
      </trkpt>
      <trkpt lat="43.3900610" lon="-4.3325000">
        <ele>-11.8</ele>
        <time>2021-07-18T05:53:04Z</time>
      </trkpt>
      <trkpt lat="43.3900710" lon="-4.3325270">
        <ele>-11.0</ele>
        <time>2021-07-18T05:53:05Z</time>
      </trkpt>
      <trkpt lat="43.3901290" lon="-4.3326660">
        <ele>-11.0</ele>
        <time>2021-07-18T05:53:10Z</time>
      </trkpt>
      <trkpt lat="43.3901710" lon="-4.3327820">
        <ele>-10.6</ele>
        <time>2021-07-18T05:53:14Z</time>
      </trkpt>
      <trkpt lat="43.3901810" lon="-4.3328100">
        <ele>-10.2</ele>
        <time>2021-07-18T05:53:15Z</time>
      </trkpt>
      <trkpt lat="43.3901930" lon="-4.3328450">
        <ele>-9.8</ele>
        <time>2021-07-18T05:53:16Z</time>
      </trkpt>
      <trkpt lat="43.3902050" lon="-4.3328810">
        <ele>-9.2</ele>
        <time>2021-07-18T05:53:17Z</time>
      </trkpt>
      <trkpt lat="43.3902170" lon="-4.3329160">
        <ele>-8.8</ele>
        <time>2021-07-18T05:53:18Z</time>
      </trkpt>
      <trkpt lat="43.3902870" lon="-4.3331290">
        <ele>-8.8</ele>
        <time>2021-07-18T05:53:25Z</time>
      </trkpt>
      <trkpt lat="43.3903320" lon="-4.3332420">
        <ele>-8.0</ele>
        <time>2021-07-18T05:53:29Z</time>
      </trkpt>
      <trkpt lat="43.3903440" lon="-4.3332740">
        <ele>-7.6</ele>
        <time>2021-07-18T05:53:30Z</time>
      </trkpt>
      <trkpt lat="43.3903550" lon="-4.3333070">
        <ele>-7.2</ele>
        <time>2021-07-18T05:53:31Z</time>
      </trkpt>
      <trkpt lat="43.3903670" lon="-4.3333350">
        <ele>-6.8</ele>
        <time>2021-07-18T05:53:32Z</time>
      </trkpt>
      <trkpt lat="43.3903880" lon="-4.3333950">
        <ele>-6.8</ele>
        <time>2021-07-18T05:53:34Z</time>
      </trkpt>
      <trkpt lat="43.3904800" lon="-4.3336450">
        <ele>-6.8</ele>
        <time>2021-07-18T05:53:42Z</time>
      </trkpt>
      <trkpt lat="43.3904900" lon="-4.3336760">
        <ele>-6.4</ele>
        <time>2021-07-18T05:53:43Z</time>
      </trkpt>
      <trkpt lat="43.3905020" lon="-4.3337040">
        <ele>-6.0</ele>
        <time>2021-07-18T05:53:44Z</time>
      </trkpt>
      <trkpt lat="43.3905140" lon="-4.3337320">
        <ele>-5.6</ele>
        <time>2021-07-18T05:53:45Z</time>
      </trkpt>
      <trkpt lat="43.3905250" lon="-4.3337620">
        <ele>-5.2</ele>
        <time>2021-07-18T05:53:46Z</time>
      </trkpt>
      <trkpt lat="43.3905350" lon="-4.3337900">
        <ele>-4.8</ele>
        <time>2021-07-18T05:53:47Z</time>
      </trkpt>
      <trkpt lat="43.3905680" lon="-4.3338720">
        <ele>-4.8</ele>
        <time>2021-07-18T05:53:50Z</time>
      </trkpt>
      <trkpt lat="43.3906210" lon="-4.3340220">
        <ele>-4.4</ele>
        <time>2021-07-18T05:53:55Z</time>
      </trkpt>
      <trkpt lat="43.3906320" lon="-4.3340490">
        <ele>-4.0</ele>
        <time>2021-07-18T05:53:56Z</time>
      </trkpt>
      <trkpt lat="43.3906420" lon="-4.3340780">
        <ele>-3.6</ele>
        <time>2021-07-18T05:53:57Z</time>
      </trkpt>
      <trkpt lat="43.3906520" lon="-4.3341050">
        <ele>-3.2</ele>
        <time>2021-07-18T05:53:58Z</time>
      </trkpt>
      <trkpt lat="43.3906640" lon="-4.3341320">
        <ele>-2.8</ele>
        <time>2021-07-18T05:53:59Z</time>
      </trkpt>
      <trkpt lat="43.3907700" lon="-4.3344220">
        <ele>-2.8</ele>
        <time>2021-07-18T05:54:09Z</time>
      </trkpt>
      <trkpt lat="43.3907800" lon="-4.3344510">
        <ele>-2.2</ele>
        <time>2021-07-18T05:54:10Z</time>
      </trkpt>
      <trkpt lat="43.3907910" lon="-4.3344760">
        <ele>-1.8</ele>
        <time>2021-07-18T05:54:11Z</time>
      </trkpt>
      <trkpt lat="43.3908000" lon="-4.3345030">
        <ele>-1.4</ele>
        <time>2021-07-18T05:54:12Z</time>
      </trkpt>
      <trkpt lat="43.3908110" lon="-4.3345330">
        <ele>-1.0</ele>
        <time>2021-07-18T05:54:13Z</time>
      </trkpt>
      <trkpt lat="43.3908200" lon="-4.3345640">
        <ele>-0.6</ele>
        <time>2021-07-18T05:54:14Z</time>
      </trkpt>
      <trkpt lat="43.3908620" lon="-4.3346770">
        <ele>-0.6</ele>
        <time>2021-07-18T05:54:18Z</time>
      </trkpt>
      <trkpt lat="43.3909340" lon="-4.3348800">
        <ele>-0.2</ele>
        <time>2021-07-18T05:54:25Z</time>
      </trkpt>
      <trkpt lat="43.3909470" lon="-4.3349100">
        <ele>0.2</ele>
        <time>2021-07-18T05:54:26Z</time>
      </trkpt>
      <trkpt lat="43.3909590" lon="-4.3349340">
        <ele>0.6</ele>
        <time>2021-07-18T05:54:27Z</time>
      </trkpt>
      <trkpt lat="43.3909720" lon="-4.3349600">
        <ele>1.0</ele>
        <time>2021-07-18T05:54:28Z</time>
      </trkpt>
      <trkpt lat="43.3909850" lon="-4.3349910">
        <ele>1.4</ele>
        <time>2021-07-18T05:54:29Z</time>
      </trkpt>
      <trkpt lat="43.3910400" lon="-4.3351250">
        <ele>1.4</ele>
        <time>2021-07-18T05:54:34Z</time>
      </trkpt>
      <trkpt lat="43.3911180" lon="-4.3352940">
        <ele>1.4</ele>
        <time>2021-07-18T05:54:40Z</time>
      </trkpt>
      <trkpt lat="43.3911750" lon="-4.3354330">
        <ele>1.8</ele>
        <time>2021-07-18T05:54:45Z</time>
      </trkpt>
      <trkpt lat="43.3911910" lon="-4.3354600">
        <ele>2.4</ele>
        <time>2021-07-18T05:54:46Z</time>
      </trkpt>
      <trkpt lat="43.3912030" lon="-4.3354930">
        <ele>2.8</ele>
        <time>2021-07-18T05:54:47Z</time>
      </trkpt>
      <trkpt lat="43.3912140" lon="-4.3355250">
        <ele>3.2</ele>
        <time>2021-07-18T05:54:48Z</time>
      </trkpt>
      <trkpt lat="43.3912260" lon="-4.3355540">
        <ele>3.6</ele>
        <time>2021-07-18T05:54:49Z</time>
      </trkpt>
      <trkpt lat="43.3913150" lon="-4.3357590">
        <ele>3.6</ele>
        <time>2021-07-18T05:54:56Z</time>
      </trkpt>
      <trkpt lat="43.3913720" lon="-4.3359070">
        <ele>3.6</ele>
        <time>2021-07-18T05:55:01Z</time>
      </trkpt>
      <trkpt lat="43.3914060" lon="-4.3359960">
        <ele>3.6</ele>
        <time>2021-07-18T05:55:04Z</time>
      </trkpt>
      <trkpt lat="43.3914630" lon="-4.3361180">
        <ele>3.6</ele>
        <time>2021-07-18T05:55:08Z</time>
      </trkpt>
      <trkpt lat="43.3914840" lon="-4.3361820">
        <ele>3.6</ele>
        <time>2021-07-18T05:55:10Z</time>
      </trkpt>
      <trkpt lat="43.3915470" lon="-4.3363320">
        <ele>3.6</ele>
        <time>2021-07-18T05:55:15Z</time>
      </trkpt>
      <trkpt lat="43.3915870" lon="-4.3364220">
        <ele>4.0</ele>
        <time>2021-07-18T05:55:18Z</time>
      </trkpt>
      <trkpt lat="43.3916000" lon="-4.3364520">
        <ele>4.4</ele>
        <time>2021-07-18T05:55:19Z</time>
      </trkpt>
      <trkpt lat="43.3916130" lon="-4.3364840">
        <ele>4.8</ele>
        <time>2021-07-18T05:55:20Z</time>
      </trkpt>
      <trkpt lat="43.3916250" lon="-4.3365170">
        <ele>5.2</ele>
        <time>2021-07-18T05:55:21Z</time>
      </trkpt>
      <trkpt lat="43.3916380" lon="-4.3365490">
        <ele>5.6</ele>
        <time>2021-07-18T05:55:22Z</time>
      </trkpt>
      <trkpt lat="43.3917550" lon="-4.3368120">
        <ele>5.6</ele>
        <time>2021-07-18T05:55:30Z</time>
      </trkpt>
      <trkpt lat="43.3918500" lon="-4.3370370">
        <ele>5.6</ele>
        <time>2021-07-18T05:55:37Z</time>
      </trkpt>
      <trkpt lat="43.3919030" lon="-4.3371680">
        <ele>5.6</ele>
        <time>2021-07-18T05:55:41Z</time>
      </trkpt>
      <trkpt lat="43.3919710" lon="-4.3373270">
        <ele>5.6</ele>
        <time>2021-07-18T05:55:46Z</time>
      </trkpt>
      <trkpt lat="43.3920280" lon="-4.3374570">
        <ele>6.0</ele>
        <time>2021-07-18T05:55:50Z</time>
      </trkpt>
      <trkpt lat="43.3920450" lon="-4.3374870">
        <ele>6.4</ele>
        <time>2021-07-18T05:55:51Z</time>
      </trkpt>
      <trkpt lat="43.3920590" lon="-4.3375200">
        <ele>6.8</ele>
        <time>2021-07-18T05:55:52Z</time>
      </trkpt>
      <trkpt lat="43.3920730" lon="-4.3375510">
        <ele>7.2</ele>
        <time>2021-07-18T05:55:53Z</time>
      </trkpt>
      <trkpt lat="43.3920840" lon="-4.3375830">
        <ele>7.6</ele>
        <time>2021-07-18T05:55:54Z</time>
      </trkpt>
      <trkpt lat="43.3920960" lon="-4.3376150">
        <ele>7.6</ele>
        <time>2021-07-18T05:55:55Z</time>
      </trkpt>
      <trkpt lat="43.3921900" lon="-4.3378250">
        <ele>7.6</ele>
        <time>2021-07-18T05:56:02Z</time>
      </trkpt>
      <trkpt lat="43.3922040" lon="-4.3378530">
        <ele>7.6</ele>
        <time>2021-07-18T05:56:03Z</time>
      </trkpt>
      <trkpt lat="43.3922890" lon="-4.3380470">
        <ele>8.0</ele>
        <time>2021-07-18T05:56:10Z</time>
      </trkpt>
      <trkpt lat="43.3922990" lon="-4.3380720">
        <ele>8.4</ele>
        <time>2021-07-18T05:56:11Z</time>
      </trkpt>
      <trkpt lat="43.3923120" lon="-4.3380960">
        <ele>8.8</ele>
        <time>2021-07-18T05:56:12Z</time>
      </trkpt>
      <trkpt lat="43.3923240" lon="-4.3381190">
        <ele>9.2</ele>
        <time>2021-07-18T05:56:13Z</time>
      </trkpt>
      <trkpt lat="43.3923340" lon="-4.3381420">
        <ele>9.6</ele>
        <time>2021-07-18T05:56:14Z</time>
      </trkpt>
      <trkpt lat="43.3924080" lon="-4.3383080">
        <ele>9.6</ele>
        <time>2021-07-18T05:56:21Z</time>
      </trkpt>
      <trkpt lat="43.3924570" lon="-4.3384230">
        <ele>10.0</ele>
        <time>2021-07-18T05:56:26Z</time>
      </trkpt>
      <trkpt lat="43.3924660" lon="-4.3384480">
        <ele>10.4</ele>
        <time>2021-07-18T05:56:27Z</time>
      </trkpt>
      <trkpt lat="43.3924770" lon="-4.3384690">
        <ele>10.8</ele>
        <time>2021-07-18T05:56:28Z</time>
      </trkpt>
      <trkpt lat="43.3924870" lon="-4.3384910">
        <ele>11.2</ele>
        <time>2021-07-18T05:56:29Z</time>
      </trkpt>
      <trkpt lat="43.3924950" lon="-4.3385170">
        <ele>11.6</ele>
        <time>2021-07-18T05:56:30Z</time>
      </trkpt>
      <trkpt lat="43.3925020" lon="-4.3385430">
        <ele>11.6</ele>
        <time>2021-07-18T05:56:31Z</time>
      </trkpt>
      <trkpt lat="43.3925930" lon="-4.3387610">
        <ele>11.6</ele>
        <time>2021-07-18T05:56:40Z</time>
      </trkpt>
      <trkpt lat="43.3926000" lon="-4.3387850">
        <ele>12.0</ele>
        <time>2021-07-18T05:56:41Z</time>
      </trkpt>
      <trkpt lat="43.3926090" lon="-4.3388100">
        <ele>12.4</ele>
        <time>2021-07-18T05:56:42Z</time>
      </trkpt>
      <trkpt lat="43.3926200" lon="-4.3388380">
        <ele>13.0</ele>
        <time>2021-07-18T05:56:43Z</time>
      </trkpt>
      <trkpt lat="43.3926300" lon="-4.3388640">
        <ele>13.4</ele>
        <time>2021-07-18T05:56:44Z</time>
      </trkpt>
      <trkpt lat="43.3926420" lon="-4.3388870">
        <ele>13.8</ele>
        <time>2021-07-18T05:56:45Z</time>
      </trkpt>
      <trkpt lat="43.3926750" lon="-4.3389240">
        <ele>13.8</ele>
        <time>2021-07-18T05:56:48Z</time>
      </trkpt>
      <trkpt lat="43.3927080" lon="-4.3388280">
        <ele>13.8</ele>
        <time>2021-07-18T05:56:52Z</time>
      </trkpt>
      <trkpt lat="43.3927200" lon="-4.3387200">
        <ele>13.8</ele>
        <time>2021-07-18T05:56:55Z</time>
      </trkpt>
      <trkpt lat="43.3927320" lon="-4.3386710">
        <ele>13.8</ele>
        <time>2021-07-18T05:56:57Z</time>
      </trkpt>
      <trkpt lat="43.3927330" lon="-4.3386650">
        <ele>13.8</ele>
        <time>2021-07-18T05:56:58Z</time>
      </trkpt>
      <trkpt lat="43.3927360" lon="-4.3386570">
        <ele>13.8</ele>
        <time>2021-07-18T05:56:59Z</time>
      </trkpt>
      <trkpt lat="43.3927080" lon="-4.3387530">
        <ele>13.8</ele>
        <time>2021-07-18T05:57:43Z</time>
      </trkpt>
      <trkpt lat="43.3926980" lon="-4.3387630">
        <ele>13.8</ele>
        <time>2021-07-18T05:57:44Z</time>
      </trkpt>
      <trkpt lat="43.3926920" lon="-4.3387820">
        <ele>13.8</ele>
        <time>2021-07-18T05:57:45Z</time>
      </trkpt>
      <trkpt lat="43.3926940" lon="-4.3388330">
        <ele>13.8</ele>
        <time>2021-07-18T05:57:47Z</time>
      </trkpt>
      <trkpt lat="43.3926970" lon="-4.3388600">
        <ele>13.8</ele>
        <time>2021-07-18T05:57:48Z</time>
      </trkpt>
      <trkpt lat="43.3926900" lon="-4.3389080">
        <ele>13.8</ele>
        <time>2021-07-18T05:57:50Z</time>
      </trkpt>
      <trkpt lat="43.3926940" lon="-4.3389550">
        <ele>13.8</ele>
        <time>2021-07-18T05:57:52Z</time>
      </trkpt>
      <trkpt lat="43.3927050" lon="-4.3390570">
        <ele>13.8</ele>
        <time>2021-07-18T05:57:56Z</time>
      </trkpt>
      <trkpt lat="43.3927210" lon="-4.3391470">
        <ele>14.2</ele>
        <time>2021-07-18T05:57:59Z</time>
      </trkpt>
      <trkpt lat="43.3927270" lon="-4.3391810">
        <ele>14.6</ele>
        <time>2021-07-18T05:58:00Z</time>
      </trkpt>
      <trkpt lat="43.3927360" lon="-4.3392160">
        <ele>15.0</ele>
        <time>2021-07-18T05:58:01Z</time>
      </trkpt>
      <trkpt lat="43.3927470" lon="-4.3392480">
        <ele>15.8</ele>
        <time>2021-07-18T05:58:02Z</time>
      </trkpt>
      <trkpt lat="43.3927920" lon="-4.3394670">
        <ele>15.8</ele>
        <time>2021-07-18T05:58:08Z</time>
      </trkpt>
      <trkpt lat="43.3928080" lon="-4.3395390">
        <ele>15.8</ele>
        <time>2021-07-18T05:58:10Z</time>
      </trkpt>
      <trkpt lat="43.3928820" lon="-4.3398710">
        <ele>15.8</ele>
        <time>2021-07-18T05:58:19Z</time>
      </trkpt>
      <trkpt lat="43.3928900" lon="-4.3399040">
        <ele>16.2</ele>
        <time>2021-07-18T05:58:20Z</time>
      </trkpt>
      <trkpt lat="43.3928990" lon="-4.3399360">
        <ele>16.6</ele>
        <time>2021-07-18T05:58:21Z</time>
      </trkpt>
      <trkpt lat="43.3929070" lon="-4.3399720">
        <ele>17.0</ele>
        <time>2021-07-18T05:58:22Z</time>
      </trkpt>
      <trkpt lat="43.3929130" lon="-4.3400000">
        <ele>17.6</ele>
        <time>2021-07-18T05:58:23Z</time>
      </trkpt>
      <trkpt lat="43.3929230" lon="-4.3400270">
        <ele>18.0</ele>
        <time>2021-07-18T05:58:24Z</time>
      </trkpt>
      <trkpt lat="43.3929530" lon="-4.3401180">
        <ele>18.0</ele>
        <time>2021-07-18T05:58:27Z</time>
      </trkpt>
      <trkpt lat="43.3930260" lon="-4.3403150">
        <ele>18.4</ele>
        <time>2021-07-18T05:58:34Z</time>
      </trkpt>
      <trkpt lat="43.3930390" lon="-4.3403420">
        <ele>18.8</ele>
        <time>2021-07-18T05:58:35Z</time>
      </trkpt>
      <trkpt lat="43.3930520" lon="-4.3403690">
        <ele>19.2</ele>
        <time>2021-07-18T05:58:36Z</time>
      </trkpt>
      <trkpt lat="43.3930620" lon="-4.3403960">
        <ele>19.6</ele>
        <time>2021-07-18T05:58:37Z</time>
      </trkpt>
      <trkpt lat="43.3930730" lon="-4.3404250">
        <ele>20.0</ele>
        <time>2021-07-18T05:58:38Z</time>
      </trkpt>
      <trkpt lat="43.3931570" lon="-4.3406190">
        <ele>20.0</ele>
        <time>2021-07-18T05:58:45Z</time>
      </trkpt>
      <trkpt lat="43.3932200" lon="-4.3407560">
        <ele>20.4</ele>
        <time>2021-07-18T05:58:50Z</time>
      </trkpt>
      <trkpt lat="43.3932340" lon="-4.3407830">
        <ele>21.2</ele>
        <time>2021-07-18T05:58:51Z</time>
      </trkpt>
      <trkpt lat="43.3932470" lon="-4.3408100">
        <ele>21.6</ele>
        <time>2021-07-18T05:58:52Z</time>
      </trkpt>
      <trkpt lat="43.3932610" lon="-4.3408360">
        <ele>22.0</ele>
        <time>2021-07-18T05:58:53Z</time>
      </trkpt>
      <trkpt lat="43.3933830" lon="-4.3410790">
        <ele>22.0</ele>
        <time>2021-07-18T05:59:02Z</time>
      </trkpt>
      <trkpt lat="43.3934620" lon="-4.3412420">
        <ele>22.0</ele>
        <time>2021-07-18T05:59:08Z</time>
      </trkpt>
      <trkpt lat="43.3934860" lon="-4.3412970">
        <ele>22.6</ele>
        <time>2021-07-18T05:59:10Z</time>
      </trkpt>
      <trkpt lat="43.3935000" lon="-4.3413240">
        <ele>23.0</ele>
        <time>2021-07-18T05:59:11Z</time>
      </trkpt>
      <trkpt lat="43.3935140" lon="-4.3413490">
        <ele>23.4</ele>
        <time>2021-07-18T05:59:12Z</time>
      </trkpt>
      <trkpt lat="43.3935290" lon="-4.3413750">
        <ele>23.8</ele>
        <time>2021-07-18T05:59:13Z</time>
      </trkpt>
      <trkpt lat="43.3935430" lon="-4.3414030">
        <ele>24.2</ele>
        <time>2021-07-18T05:59:14Z</time>
      </trkpt>
      <trkpt lat="43.3935590" lon="-4.3414290">
        <ele>24.2</ele>
        <time>2021-07-18T05:59:15Z</time>
      </trkpt>
      <trkpt lat="43.3936690" lon="-4.3415730">
        <ele>24.2</ele>
        <time>2021-07-18T05:59:22Z</time>
      </trkpt>
      <trkpt lat="43.3937500" lon="-4.3416410">
        <ele>24.6</ele>
        <time>2021-07-18T05:59:27Z</time>
      </trkpt>
      <trkpt lat="43.3937640" lon="-4.3416520">
        <ele>25.2</ele>
        <time>2021-07-18T05:59:28Z</time>
      </trkpt>
      <trkpt lat="43.3937810" lon="-4.3416610">
        <ele>25.6</ele>
        <time>2021-07-18T05:59:29Z</time>
      </trkpt>
      <trkpt lat="43.3937980" lon="-4.3416720">
        <ele>26.0</ele>
        <time>2021-07-18T05:59:30Z</time>
      </trkpt>
      <trkpt lat="43.3938170" lon="-4.3416810">
        <ele>26.4</ele>
        <time>2021-07-18T05:59:31Z</time>
      </trkpt>
      <trkpt lat="43.3939630" lon="-4.3417370">
        <ele>26.8</ele>
        <time>2021-07-18T05:59:39Z</time>
      </trkpt>
      <trkpt lat="43.3939800" lon="-4.3417410">
        <ele>27.2</ele>
        <time>2021-07-18T05:59:40Z</time>
      </trkpt>
      <trkpt lat="43.3940010" lon="-4.3417360">
        <ele>28.0</ele>
        <time>2021-07-18T05:59:41Z</time>
      </trkpt>
      <trkpt lat="43.3940240" lon="-4.3417370">
        <ele>28.4</ele>
        <time>2021-07-18T05:59:42Z</time>
      </trkpt>
      <trkpt lat="43.3941410" lon="-4.3417600">
        <ele>28.4</ele>
        <time>2021-07-18T05:59:48Z</time>
      </trkpt>
      <trkpt lat="43.3941800" lon="-4.3417630">
        <ele>28.8</ele>
        <time>2021-07-18T05:59:50Z</time>
      </trkpt>
      <trkpt lat="43.3941990" lon="-4.3417660">
        <ele>29.4</ele>
        <time>2021-07-18T05:59:51Z</time>
      </trkpt>
      <trkpt lat="43.3942190" lon="-4.3417720">
        <ele>29.8</ele>
        <time>2021-07-18T05:59:52Z</time>
      </trkpt>
      <trkpt lat="43.3942380" lon="-4.3417720">
        <ele>30.2</ele>
        <time>2021-07-18T05:59:53Z</time>
      </trkpt>
      <trkpt lat="43.3942590" lon="-4.3417710">
        <ele>30.6</ele>
        <time>2021-07-18T05:59:54Z</time>
      </trkpt>
      <trkpt lat="43.3942750" lon="-4.3417750">
        <ele>30.6</ele>
        <time>2021-07-18T05:59:55Z</time>
      </trkpt>
      <trkpt lat="43.3944020" lon="-4.3418140">
        <ele>31.0</ele>
        <time>2021-07-18T06:00:02Z</time>
      </trkpt>
      <trkpt lat="43.3944210" lon="-4.3418220">
        <ele>31.4</ele>
        <time>2021-07-18T06:00:03Z</time>
      </trkpt>
      <trkpt lat="43.3944400" lon="-4.3418290">
        <ele>31.8</ele>
        <time>2021-07-18T06:00:04Z</time>
      </trkpt>
      <trkpt lat="43.3944580" lon="-4.3418370">
        <ele>32.2</ele>
        <time>2021-07-18T06:00:05Z</time>
      </trkpt>
      <trkpt lat="43.3944730" lon="-4.3418500">
        <ele>32.6</ele>
        <time>2021-07-18T06:00:06Z</time>
      </trkpt>
      <trkpt lat="43.3945460" lon="-4.3418930">
        <ele>32.6</ele>
        <time>2021-07-18T06:00:10Z</time>
      </trkpt>
      <trkpt lat="43.3946590" lon="-4.3420150">
        <ele>33.0</ele>
        <time>2021-07-18T06:00:17Z</time>
      </trkpt>
      <trkpt lat="43.3946730" lon="-4.3420350">
        <ele>33.4</ele>
        <time>2021-07-18T06:00:18Z</time>
      </trkpt>
      <trkpt lat="43.3946850" lon="-4.3420550">
        <ele>33.8</ele>
        <time>2021-07-18T06:00:19Z</time>
      </trkpt>
      <trkpt lat="43.3946990" lon="-4.3420740">
        <ele>34.4</ele>
        <time>2021-07-18T06:00:20Z</time>
      </trkpt>
      <trkpt lat="43.3947150" lon="-4.3420930">
        <ele>34.8</ele>
        <time>2021-07-18T06:00:21Z</time>
      </trkpt>
      <trkpt lat="43.3947300" lon="-4.3421160">
        <ele>34.8</ele>
        <time>2021-07-18T06:00:22Z</time>
      </trkpt>
      <trkpt lat="43.3947800" lon="-4.3421980">
        <ele>34.8</ele>
        <time>2021-07-18T06:00:27Z</time>
      </trkpt>
      <trkpt lat="43.3947940" lon="-4.3422370">
        <ele>34.8</ele>
        <time>2021-07-18T06:00:31Z</time>
      </trkpt>
      <trkpt lat="43.3948020" lon="-4.3422730">
        <ele>34.8</ele>
        <time>2021-07-18T06:01:04Z</time>
      </trkpt>
      <trkpt lat="43.3948220" lon="-4.3423350">
        <ele>35.2</ele>
        <time>2021-07-18T06:01:07Z</time>
      </trkpt>
      <trkpt lat="43.3948280" lon="-4.3423630">
        <ele>35.6</ele>
        <time>2021-07-18T06:01:08Z</time>
      </trkpt>
      <trkpt lat="43.3948350" lon="-4.3423880">
        <ele>36.0</ele>
        <time>2021-07-18T06:01:09Z</time>
      </trkpt>
      <trkpt lat="43.3948400" lon="-4.3424140">
        <ele>36.4</ele>
        <time>2021-07-18T06:01:10Z</time>
      </trkpt>
      <trkpt lat="43.3948460" lon="-4.3424410">
        <ele>36.8</ele>
        <time>2021-07-18T06:01:11Z</time>
      </trkpt>
      <trkpt lat="43.3948520" lon="-4.3424680">
        <ele>36.8</ele>
        <time>2021-07-18T06:01:12Z</time>
      </trkpt>
      <trkpt lat="43.3948750" lon="-4.3427250">
        <ele>36.8</ele>
        <time>2021-07-18T06:01:21Z</time>
      </trkpt>
      <trkpt lat="43.3948730" lon="-4.3427810">
        <ele>37.2</ele>
        <time>2021-07-18T06:01:23Z</time>
      </trkpt>
      <trkpt lat="43.3948750" lon="-4.3428070">
        <ele>37.6</ele>
        <time>2021-07-18T06:01:24Z</time>
      </trkpt>
      <trkpt lat="43.3948780" lon="-4.3428340">
        <ele>38.0</ele>
        <time>2021-07-18T06:01:25Z</time>
      </trkpt>
      <trkpt lat="43.3948750" lon="-4.3428620">
        <ele>38.4</ele>
        <time>2021-07-18T06:01:26Z</time>
      </trkpt>
      <trkpt lat="43.3948750" lon="-4.3428900">
        <ele>38.8</ele>
        <time>2021-07-18T06:01:27Z</time>
      </trkpt>
      <trkpt lat="43.3948730" lon="-4.3429460">
        <ele>38.8</ele>
        <time>2021-07-18T06:01:29Z</time>
      </trkpt>
      <trkpt lat="43.3948640" lon="-4.3431050">
        <ele>38.8</ele>
        <time>2021-07-18T06:01:35Z</time>
      </trkpt>
      <trkpt lat="43.3948620" lon="-4.3431580">
        <ele>38.8</ele>
        <time>2021-07-18T06:01:37Z</time>
      </trkpt>
      <trkpt lat="43.3948630" lon="-4.3431840">
        <ele>39.2</ele>
        <time>2021-07-18T06:01:38Z</time>
      </trkpt>
      <trkpt lat="43.3948650" lon="-4.3432110">
        <ele>39.6</ele>
        <time>2021-07-18T06:01:39Z</time>
      </trkpt>
      <trkpt lat="43.3948630" lon="-4.3432380">
        <ele>40.0</ele>
        <time>2021-07-18T06:01:40Z</time>
      </trkpt>
      <trkpt lat="43.3948590" lon="-4.3432670">
        <ele>40.6</ele>
        <time>2021-07-18T06:01:41Z</time>
      </trkpt>
      <trkpt lat="43.3948580" lon="-4.3432910">
        <ele>41.0</ele>
        <time>2021-07-18T06:01:42Z</time>
      </trkpt>
      <trkpt lat="43.3948560" lon="-4.3433660">
        <ele>41.0</ele>
        <time>2021-07-18T06:01:45Z</time>
      </trkpt>
      <trkpt lat="43.3948430" lon="-4.3435220">
        <ele>41.4</ele>
        <time>2021-07-18T06:01:51Z</time>
      </trkpt>
      <trkpt lat="43.3948410" lon="-4.3435470">
        <ele>41.8</ele>
        <time>2021-07-18T06:01:52Z</time>
      </trkpt>
      <trkpt lat="43.3948400" lon="-4.3435730">
        <ele>42.2</ele>
        <time>2021-07-18T06:01:53Z</time>
      </trkpt>
      <trkpt lat="43.3948380" lon="-4.3435970">
        <ele>42.6</ele>
        <time>2021-07-18T06:01:54Z</time>
      </trkpt>
      <trkpt lat="43.3948380" lon="-4.3436220">
        <ele>43.2</ele>
        <time>2021-07-18T06:01:55Z</time>
      </trkpt>
      <trkpt lat="43.3948290" lon="-4.3437520">
        <ele>43.2</ele>
        <time>2021-07-18T06:02:00Z</time>
      </trkpt>
      <trkpt lat="43.3948270" lon="-4.3438020">
        <ele>43.2</ele>
        <time>2021-07-18T06:02:02Z</time>
      </trkpt>
      <trkpt lat="43.3948280" lon="-4.3438270">
        <ele>43.6</ele>
        <time>2021-07-18T06:02:03Z</time>
      </trkpt>
      <trkpt lat="43.3948280" lon="-4.3438520">
        <ele>44.0</ele>
        <time>2021-07-18T06:02:04Z</time>
      </trkpt>
      <trkpt lat="43.3948270" lon="-4.3438760">
        <ele>44.4</ele>
        <time>2021-07-18T06:02:05Z</time>
      </trkpt>
      <trkpt lat="43.3948270" lon="-4.3439010">
        <ele>44.8</ele>
        <time>2021-07-18T06:02:06Z</time>
      </trkpt>
      <trkpt lat="43.3948260" lon="-4.3439260">
        <ele>45.2</ele>
        <time>2021-07-18T06:02:07Z</time>
      </trkpt>
      <trkpt lat="43.3948210" lon="-4.3440230">
        <ele>45.2</ele>
        <time>2021-07-18T06:02:11Z</time>
      </trkpt>
      <trkpt lat="43.3948210" lon="-4.3441460">
        <ele>45.6</ele>
        <time>2021-07-18T06:02:16Z</time>
      </trkpt>
      <trkpt lat="43.3948160" lon="-4.3441700">
        <ele>46.0</ele>
        <time>2021-07-18T06:02:17Z</time>
      </trkpt>
      <trkpt lat="43.3948150" lon="-4.3441950">
        <ele>46.4</ele>
        <time>2021-07-18T06:02:18Z</time>
      </trkpt>
      <trkpt lat="43.3948130" lon="-4.3442200">
        <ele>46.8</ele>
        <time>2021-07-18T06:02:19Z</time>
      </trkpt>
      <trkpt lat="43.3948120" lon="-4.3442460">
        <ele>47.2</ele>
        <time>2021-07-18T06:02:20Z</time>
      </trkpt>
      <trkpt lat="43.3948030" lon="-4.3444940">
        <ele>47.6</ele>
        <time>2021-07-18T06:02:30Z</time>
      </trkpt>
      <trkpt lat="43.3948010" lon="-4.3445200">
        <ele>48.0</ele>
        <time>2021-07-18T06:02:31Z</time>
      </trkpt>
      <trkpt lat="43.3948010" lon="-4.3445450">
        <ele>48.4</ele>
        <time>2021-07-18T06:02:32Z</time>
      </trkpt>
      <trkpt lat="43.3948000" lon="-4.3445700">
        <ele>48.8</ele>
        <time>2021-07-18T06:02:33Z</time>
      </trkpt>
      <trkpt lat="43.3948000" lon="-4.3445990">
        <ele>49.2</ele>
        <time>2021-07-18T06:02:34Z</time>
      </trkpt>
      <trkpt lat="43.3947970" lon="-4.3447490">
        <ele>49.2</ele>
        <time>2021-07-18T06:02:40Z</time>
      </trkpt>
      <trkpt lat="43.3947900" lon="-4.3448540">
        <ele>49.6</ele>
        <time>2021-07-18T06:02:44Z</time>
      </trkpt>
      <trkpt lat="43.3947910" lon="-4.3448810">
        <ele>50.2</ele>
        <time>2021-07-18T06:02:45Z</time>
      </trkpt>
      <trkpt lat="43.3947900" lon="-4.3449070">
        <ele>50.6</ele>
        <time>2021-07-18T06:02:46Z</time>
      </trkpt>
      <trkpt lat="43.3947880" lon="-4.3449330">
        <ele>51.0</ele>
        <time>2021-07-18T06:02:47Z</time>
      </trkpt>
      <trkpt lat="43.3947870" lon="-4.3449580">
        <ele>51.4</ele>
        <time>2021-07-18T06:02:48Z</time>
      </trkpt>
      <trkpt lat="43.3947920" lon="-4.3450150">
        <ele>51.4</ele>
        <time>2021-07-18T06:02:50Z</time>
      </trkpt>
      <trkpt lat="43.3947920" lon="-4.3452570">
        <ele>51.8</ele>
        <time>2021-07-18T06:02:59Z</time>
      </trkpt>
      <trkpt lat="43.3947930" lon="-4.3452840">
        <ele>52.2</ele>
        <time>2021-07-18T06:03:00Z</time>
      </trkpt>
      <trkpt lat="43.3947950" lon="-4.3453080">
        <ele>52.6</ele>
        <time>2021-07-18T06:03:01Z</time>
      </trkpt>
      <trkpt lat="43.3947940" lon="-4.3453340">
        <ele>53.2</ele>
        <time>2021-07-18T06:03:02Z</time>
      </trkpt>
      <trkpt lat="43.3947920" lon="-4.3453600">
        <ele>53.6</ele>
        <time>2021-07-18T06:03:03Z</time>
      </trkpt>
      <trkpt lat="43.3947950" lon="-4.3455870">
        <ele>53.6</ele>
        <time>2021-07-18T06:03:11Z</time>
      </trkpt>
      <trkpt lat="43.3947960" lon="-4.3457330">
        <ele>53.6</ele>
        <time>2021-07-18T06:03:16Z</time>
      </trkpt>
      <trkpt lat="43.3947990" lon="-4.3457940">
        <ele>54.0</ele>
        <time>2021-07-18T06:03:18Z</time>
      </trkpt>
      <trkpt lat="43.3947990" lon="-4.3458240">
        <ele>54.4</ele>
        <time>2021-07-18T06:03:19Z</time>
      </trkpt>
      <trkpt lat="43.3947970" lon="-4.3458530">
        <ele>54.8</ele>
        <time>2021-07-18T06:03:20Z</time>
      </trkpt>
      <trkpt lat="43.3948020" lon="-4.3458810">
        <ele>55.2</ele>
        <time>2021-07-18T06:03:21Z</time>
      </trkpt>
      <trkpt lat="43.3948020" lon="-4.3459100">
        <ele>55.6</ele>
        <time>2021-07-18T06:03:22Z</time>
      </trkpt>
      <trkpt lat="43.3948060" lon="-4.3460240">
        <ele>55.6</ele>
        <time>2021-07-18T06:03:26Z</time>
      </trkpt>
      <trkpt lat="43.3948070" lon="-4.3462540">
        <ele>55.6</ele>
        <time>2021-07-18T06:03:34Z</time>
      </trkpt>
      <trkpt lat="43.3948110" lon="-4.3464530">
        <ele>56.0</ele>
        <time>2021-07-18T06:03:41Z</time>
      </trkpt>
      <trkpt lat="43.3948130" lon="-4.3464840">
        <ele>56.4</ele>
        <time>2021-07-18T06:03:42Z</time>
      </trkpt>
      <trkpt lat="43.3948140" lon="-4.3465130">
        <ele>56.8</ele>
        <time>2021-07-18T06:03:43Z</time>
      </trkpt>
      <trkpt lat="43.3948180" lon="-4.3465400">
        <ele>57.2</ele>
        <time>2021-07-18T06:03:44Z</time>
      </trkpt>
      <trkpt lat="43.3948160" lon="-4.3465710">
        <ele>57.6</ele>
        <time>2021-07-18T06:03:45Z</time>
      </trkpt>
      <trkpt lat="43.3948140" lon="-4.3466910">
        <ele>57.6</ele>
        <time>2021-07-18T06:03:49Z</time>
      </trkpt>
      <trkpt lat="43.3948200" lon="-4.3469280">
        <ele>57.6</ele>
        <time>2021-07-18T06:03:57Z</time>
      </trkpt>
      <trkpt lat="43.3948240" lon="-4.3470430">
        <ele>58.0</ele>
        <time>2021-07-18T06:04:01Z</time>
      </trkpt>
      <trkpt lat="43.3948240" lon="-4.3470720">
        <ele>58.6</ele>
        <time>2021-07-18T06:04:02Z</time>
      </trkpt>
      <trkpt lat="43.3948260" lon="-4.3471010">
        <ele>59.0</ele>
        <time>2021-07-18T06:04:03Z</time>
      </trkpt>
      <trkpt lat="43.3948270" lon="-4.3471300">
        <ele>59.4</ele>
        <time>2021-07-18T06:04:04Z</time>
      </trkpt>
      <trkpt lat="43.3948300" lon="-4.3471580">
        <ele>59.8</ele>
        <time>2021-07-18T06:04:05Z</time>
      </trkpt>
      <trkpt lat="43.3948310" lon="-4.3474180">
        <ele>59.8</ele>
        <time>2021-07-18T06:04:14Z</time>
      </trkpt>
      <trkpt lat="43.3948300" lon="-4.3476280">
        <ele>60.2</ele>
        <time>2021-07-18T06:04:21Z</time>
      </trkpt>
      <trkpt lat="43.3948280" lon="-4.3476600">
        <ele>60.6</ele>
        <time>2021-07-18T06:04:22Z</time>
      </trkpt>
      <trkpt lat="43.3948280" lon="-4.3476890">
        <ele>61.0</ele>
        <time>2021-07-18T06:04:23Z</time>
      </trkpt>
      <trkpt lat="43.3948250" lon="-4.3477200">
        <ele>61.4</ele>
        <time>2021-07-18T06:04:24Z</time>
      </trkpt>
      <trkpt lat="43.3948260" lon="-4.3477520">
        <ele>61.8</ele>
        <time>2021-07-18T06:04:25Z</time>
      </trkpt>
      <trkpt lat="43.3948280" lon="-4.3479950">
        <ele>61.8</ele>
        <time>2021-07-18T06:04:32Z</time>
      </trkpt>
      <trkpt lat="43.3948300" lon="-4.3480650">
        <ele>61.8</ele>
        <time>2021-07-18T06:04:34Z</time>
      </trkpt>
      <trkpt lat="43.3948360" lon="-4.3482400">
        <ele>61.8</ele>
        <time>2021-07-18T06:04:39Z</time>
      </trkpt>
      <trkpt lat="43.3948670" lon="-4.3485590">
        <ele>61.8</ele>
        <time>2021-07-18T06:04:48Z</time>
      </trkpt>
      <trkpt lat="43.3948970" lon="-4.3487850">
        <ele>62.2</ele>
        <time>2021-07-18T06:04:54Z</time>
      </trkpt>
      <trkpt lat="43.3949030" lon="-4.3488210">
        <ele>62.6</ele>
        <time>2021-07-18T06:04:55Z</time>
      </trkpt>
      <trkpt lat="43.3949080" lon="-4.3488600">
        <ele>63.0</ele>
        <time>2021-07-18T06:04:56Z</time>
      </trkpt>
      <trkpt lat="43.3949110" lon="-4.3489010">
        <ele>63.4</ele>
        <time>2021-07-18T06:04:57Z</time>
      </trkpt>
      <trkpt lat="43.3949150" lon="-4.3489400">
        <ele>63.8</ele>
        <time>2021-07-18T06:04:58Z</time>
      </trkpt>
      <trkpt lat="43.3949390" lon="-4.3490980">
        <ele>63.8</ele>
        <time>2021-07-18T06:05:02Z</time>
      </trkpt>
      <trkpt lat="43.3949640" lon="-4.3492940">
        <ele>63.8</ele>
        <time>2021-07-18T06:05:07Z</time>
      </trkpt>
      <trkpt lat="43.3949690" lon="-4.3493660">
        <ele>63.8</ele>
        <time>2021-07-18T06:05:09Z</time>
      </trkpt>
      <trkpt lat="43.3950030" lon="-4.3496060">
        <ele>63.8</ele>
        <time>2021-07-18T06:05:16Z</time>
      </trkpt>
      <trkpt lat="43.3950080" lon="-4.3496290">
        <ele>63.8</ele>
        <time>2021-07-18T06:05:17Z</time>
      </trkpt>
      <trkpt lat="43.3950240" lon="-4.3497330">
        <ele>63.8</ele>
        <time>2021-07-18T06:05:20Z</time>
      </trkpt>
      <trkpt lat="43.3950410" lon="-4.3498280">
        <ele>63.8</ele>
        <time>2021-07-18T06:05:23Z</time>
      </trkpt>
      <trkpt lat="43.3950560" lon="-4.3499100">
        <ele>63.8</ele>
        <time>2021-07-18T06:05:27Z</time>
      </trkpt>
      <trkpt lat="43.3950540" lon="-4.3499080">
        <ele>63.8</ele>
        <time>2021-07-18T06:05:28Z</time>
      </trkpt>
      <trkpt lat="43.3950520" lon="-4.3499110">
        <ele>63.8</ele>
        <time>2021-07-18T06:05:29Z</time>
      </trkpt>
      <trkpt lat="43.3950530" lon="-4.3499480">
        <ele>63.8</ele>
        <time>2021-07-18T06:05:39Z</time>
      </trkpt>
      <trkpt lat="43.3950540" lon="-4.3500040">
        <ele>63.8</ele>
        <time>2021-07-18T06:05:41Z</time>
      </trkpt>
      <trkpt lat="43.3950420" lon="-4.3501010">
        <ele>63.8</ele>
        <time>2021-07-18T06:05:48Z</time>
      </trkpt>
      <trkpt lat="43.3950360" lon="-4.3501200">
        <ele>63.8</ele>
        <time>2021-07-18T06:05:51Z</time>
      </trkpt>
      <trkpt lat="43.3950760" lon="-4.3501310">
        <ele>63.8</ele>
        <time>2021-07-18T06:07:04Z</time>
      </trkpt>
      <trkpt lat="43.3950910" lon="-4.3501410">
        <ele>63.8</ele>
        <time>2021-07-18T06:07:05Z</time>
      </trkpt>
      <trkpt lat="43.3951550" lon="-4.3502770">
        <ele>63.8</ele>
        <time>2021-07-18T06:07:10Z</time>
      </trkpt>
      <trkpt lat="43.3951960" lon="-4.3503990">
        <ele>63.8</ele>
        <time>2021-07-18T06:07:14Z</time>
      </trkpt>
      <trkpt lat="43.3952130" lon="-4.3504610">
        <ele>63.8</ele>
        <time>2021-07-18T06:07:16Z</time>
      </trkpt>
      <trkpt lat="43.3952200" lon="-4.3504910">
        <ele>63.8</ele>
        <time>2021-07-18T06:07:17Z</time>
      </trkpt>
      <trkpt lat="43.3952280" lon="-4.3505840">
        <ele>63.8</ele>
        <time>2021-07-18T06:07:20Z</time>
      </trkpt>
      <trkpt lat="43.3952390" lon="-4.3507240">
        <ele>63.8</ele>
        <time>2021-07-18T06:07:24Z</time>
      </trkpt>
      <trkpt lat="43.3952640" lon="-4.3510200">
        <ele>63.8</ele>
        <time>2021-07-18T06:07:30Z</time>
      </trkpt>
      <trkpt lat="43.3952870" lon="-4.3512980">
        <ele>63.4</ele>
        <time>2021-07-18T06:07:35Z</time>
      </trkpt>
      <trkpt lat="43.3952930" lon="-4.3513510">
        <ele>62.8</ele>
        <time>2021-07-18T06:07:36Z</time>
      </trkpt>
      <trkpt lat="43.3953030" lon="-4.3514000">
        <ele>62.4</ele>
        <time>2021-07-18T06:07:37Z</time>
      </trkpt>
      <trkpt lat="43.3953080" lon="-4.3514500">
        <ele>62.0</ele>
        <time>2021-07-18T06:07:38Z</time>
      </trkpt>
      <trkpt lat="43.3953120" lon="-4.3515050">
        <ele>61.4</ele>
        <time>2021-07-18T06:07:39Z</time>
      </trkpt>
      <trkpt lat="43.3953190" lon="-4.3515620">
        <ele>61.4</ele>
        <time>2021-07-18T06:07:40Z</time>
      </trkpt>
      <trkpt lat="43.3953260" lon="-4.3516370">
        <ele>61.0</ele>
        <time>2021-07-18T06:07:41Z</time>
      </trkpt>
      <trkpt lat="43.3953290" lon="-4.3517110">
        <ele>60.6</ele>
        <time>2021-07-18T06:07:42Z</time>
      </trkpt>
      <trkpt lat="43.3953280" lon="-4.3517870">
        <ele>60.2</ele>
        <time>2021-07-18T06:07:43Z</time>
      </trkpt>
      <trkpt lat="43.3953280" lon="-4.3518570">
        <ele>59.8</ele>
        <time>2021-07-18T06:07:44Z</time>
      </trkpt>
      <trkpt lat="43.3953280" lon="-4.3519270">
        <ele>59.2</ele>
        <time>2021-07-18T06:07:45Z</time>
      </trkpt>
      <trkpt lat="43.3953260" lon="-4.3519940">
        <ele>58.8</ele>
        <time>2021-07-18T06:07:46Z</time>
      </trkpt>
      <trkpt lat="43.3953220" lon="-4.3520620">
        <ele>58.4</ele>
        <time>2021-07-18T06:07:47Z</time>
      </trkpt>
      <trkpt lat="43.3953180" lon="-4.3521250">
        <ele>58.0</ele>
        <time>2021-07-18T06:07:48Z</time>
      </trkpt>
      <trkpt lat="43.3953130" lon="-4.3521840">
        <ele>57.4</ele>
        <time>2021-07-18T06:07:49Z</time>
      </trkpt>
      <trkpt lat="43.3953080" lon="-4.3522450">
        <ele>56.8</ele>
        <time>2021-07-18T06:07:50Z</time>
      </trkpt>
      <trkpt lat="43.3953030" lon="-4.3523040">
        <ele>56.2</ele>
        <time>2021-07-18T06:07:51Z</time>
      </trkpt>
      <trkpt lat="43.3952970" lon="-4.3523590">
        <ele>55.6</ele>
        <time>2021-07-18T06:07:52Z</time>
      </trkpt>
      <trkpt lat="43.3952880" lon="-4.3524110">
        <ele>54.4</ele>
        <time>2021-07-18T06:07:53Z</time>
      </trkpt>
      <trkpt lat="43.3952820" lon="-4.3524610">
        <ele>54.0</ele>
        <time>2021-07-18T06:07:54Z</time>
      </trkpt>
      <trkpt lat="43.3952760" lon="-4.3525070">
        <ele>53.6</ele>
        <time>2021-07-18T06:07:55Z</time>
      </trkpt>
      <trkpt lat="43.3952700" lon="-4.3525520">
        <ele>53.0</ele>
        <time>2021-07-18T06:07:56Z</time>
      </trkpt>
      <trkpt lat="43.3952620" lon="-4.3525960">
        <ele>52.6</ele>
        <time>2021-07-18T06:07:57Z</time>
      </trkpt>
      <trkpt lat="43.3952530" lon="-4.3526410">
        <ele>52.2</ele>
        <time>2021-07-18T06:07:58Z</time>
      </trkpt>
      <trkpt lat="43.3952340" lon="-4.3527280">
        <ele>52.2</ele>
        <time>2021-07-18T06:08:00Z</time>
      </trkpt>
      <trkpt lat="43.3952140" lon="-4.3528130">
        <ele>51.8</ele>
        <time>2021-07-18T06:08:02Z</time>
      </trkpt>
      <trkpt lat="43.3951960" lon="-4.3528570">
        <ele>51.4</ele>
        <time>2021-07-18T06:08:03Z</time>
      </trkpt>
      <trkpt lat="43.3951750" lon="-4.3529030">
        <ele>50.8</ele>
        <time>2021-07-18T06:08:04Z</time>
      </trkpt>
      <trkpt lat="43.3951570" lon="-4.3529500">
        <ele>50.4</ele>
        <time>2021-07-18T06:08:05Z</time>
      </trkpt>
      <trkpt lat="43.3951440" lon="-4.3530010">
        <ele>50.0</ele>
        <time>2021-07-18T06:08:06Z</time>
      </trkpt>
      <trkpt lat="43.3950460" lon="-4.3532760">
        <ele>50.0</ele>
        <time>2021-07-18T06:08:12Z</time>
      </trkpt>
      <trkpt lat="43.3949630" lon="-4.3534430">
        <ele>49.6</ele>
        <time>2021-07-18T06:08:16Z</time>
      </trkpt>
      <trkpt lat="43.3949410" lon="-4.3534900">
        <ele>49.2</ele>
        <time>2021-07-18T06:08:17Z</time>
      </trkpt>
      <trkpt lat="43.3949200" lon="-4.3535410">
        <ele>48.4</ele>
        <time>2021-07-18T06:08:18Z</time>
      </trkpt>
      <trkpt lat="43.3949010" lon="-4.3535920">
        <ele>48.0</ele>
        <time>2021-07-18T06:08:19Z</time>
      </trkpt>
      <trkpt lat="43.3948830" lon="-4.3536460">
        <ele>48.0</ele>
        <time>2021-07-18T06:08:20Z</time>
      </trkpt>
      <trkpt lat="43.3947890" lon="-4.3538680">
        <ele>48.0</ele>
        <time>2021-07-18T06:08:24Z</time>
      </trkpt>
      <trkpt lat="43.3946990" lon="-4.3540640">
        <ele>47.6</ele>
        <time>2021-07-18T06:08:27Z</time>
      </trkpt>
      <trkpt lat="43.3946680" lon="-4.3541310">
        <ele>47.0</ele>
        <time>2021-07-18T06:08:28Z</time>
      </trkpt>
      <trkpt lat="43.3946380" lon="-4.3542000">
        <ele>46.6</ele>
        <time>2021-07-18T06:08:29Z</time>
      </trkpt>
      <trkpt lat="43.3946070" lon="-4.3542720">
        <ele>46.2</ele>
        <time>2021-07-18T06:08:30Z</time>
      </trkpt>
      <trkpt lat="43.3945740" lon="-4.3543450">
        <ele>45.8</ele>
        <time>2021-07-18T06:08:31Z</time>
      </trkpt>
      <trkpt lat="43.3944380" lon="-4.3546520">
        <ele>45.4</ele>
        <time>2021-07-18T06:08:35Z</time>
      </trkpt>
      <trkpt lat="43.3944040" lon="-4.3547310">
        <ele>45.0</ele>
        <time>2021-07-18T06:08:36Z</time>
      </trkpt>
      <trkpt lat="43.3943690" lon="-4.3548110">
        <ele>44.6</ele>
        <time>2021-07-18T06:08:37Z</time>
      </trkpt>
      <trkpt lat="43.3943330" lon="-4.3548900">
        <ele>44.2</ele>
        <time>2021-07-18T06:08:38Z</time>
      </trkpt>
      <trkpt lat="43.3942980" lon="-4.3549670">
        <ele>43.8</ele>
        <time>2021-07-18T06:08:39Z</time>
      </trkpt>
      <trkpt lat="43.3942260" lon="-4.3551210">
        <ele>43.4</ele>
        <time>2021-07-18T06:08:41Z</time>
      </trkpt>
      <trkpt lat="43.3941890" lon="-4.3551920">
        <ele>43.0</ele>
        <time>2021-07-18T06:08:42Z</time>
      </trkpt>
      <trkpt lat="43.3941500" lon="-4.3552600">
        <ele>42.2</ele>
        <time>2021-07-18T06:08:43Z</time>
      </trkpt>
      <trkpt lat="43.3941070" lon="-4.3553260">
        <ele>41.6</ele>
        <time>2021-07-18T06:08:44Z</time>
      </trkpt>
      <trkpt lat="43.3940610" lon="-4.3553900">
        <ele>41.2</ele>
        <time>2021-07-18T06:08:45Z</time>
      </trkpt>
      <trkpt lat="43.3940110" lon="-4.3554520">
        <ele>40.8</ele>
        <time>2021-07-18T06:08:46Z</time>
      </trkpt>
      <trkpt lat="43.3939580" lon="-4.3555090">
        <ele>40.4</ele>
        <time>2021-07-18T06:08:47Z</time>
      </trkpt>
      <trkpt lat="43.3939020" lon="-4.3555640">
        <ele>40.0</ele>
        <time>2021-07-18T06:08:48Z</time>
      </trkpt>
      <trkpt lat="43.3938470" lon="-4.3556120">
        <ele>39.6</ele>
        <time>2021-07-18T06:08:49Z</time>
      </trkpt>
      <trkpt lat="43.3937310" lon="-4.3557050">
        <ele>39.2</ele>
        <time>2021-07-18T06:08:51Z</time>
      </trkpt>
      <trkpt lat="43.3936730" lon="-4.3557540">
        <ele>38.8</ele>
        <time>2021-07-18T06:08:52Z</time>
      </trkpt>
      <trkpt lat="43.3936150" lon="-4.3558030">
        <ele>38.4</ele>
        <time>2021-07-18T06:08:53Z</time>
      </trkpt>
      <trkpt lat="43.3935580" lon="-4.3558540">
        <ele>37.8</ele>
        <time>2021-07-18T06:08:54Z</time>
      </trkpt>
      <trkpt lat="43.3935020" lon="-4.3559120">
        <ele>37.4</ele>
        <time>2021-07-18T06:08:55Z</time>
      </trkpt>
      <trkpt lat="43.3934020" lon="-4.3560330">
        <ele>37.0</ele>
        <time>2021-07-18T06:08:57Z</time>
      </trkpt>
      <trkpt lat="43.3933580" lon="-4.3560970">
        <ele>36.6</ele>
        <time>2021-07-18T06:08:58Z</time>
      </trkpt>
      <trkpt lat="43.3933180" lon="-4.3561630">
        <ele>36.2</ele>
        <time>2021-07-18T06:08:59Z</time>
      </trkpt>
      <trkpt lat="43.3932800" lon="-4.3562270">
        <ele>35.8</ele>
        <time>2021-07-18T06:09:00Z</time>
      </trkpt>
      <trkpt lat="43.3932430" lon="-4.3562890">
        <ele>35.4</ele>
        <time>2021-07-18T06:09:01Z</time>
      </trkpt>
      <trkpt lat="43.3931760" lon="-4.3564080">
        <ele>35.4</ele>
        <time>2021-07-18T06:09:03Z</time>
      </trkpt>
      <trkpt lat="43.3930640" lon="-4.3566130">
        <ele>35.0</ele>
        <time>2021-07-18T06:09:07Z</time>
      </trkpt>
      <trkpt lat="43.3930380" lon="-4.3566630">
        <ele>34.0</ele>
        <time>2021-07-18T06:09:08Z</time>
      </trkpt>
      <trkpt lat="43.3930150" lon="-4.3567150">
        <ele>33.6</ele>
        <time>2021-07-18T06:09:09Z</time>
      </trkpt>
      <trkpt lat="43.3929930" lon="-4.3567690">
        <ele>33.2</ele>
        <time>2021-07-18T06:09:10Z</time>
      </trkpt>
      <trkpt lat="43.3929520" lon="-4.3569610">
        <ele>33.2</ele>
        <time>2021-07-18T06:09:14Z</time>
      </trkpt>
      <trkpt lat="43.3929550" lon="-4.3570060">
        <ele>33.2</ele>
        <time>2021-07-18T06:09:15Z</time>
      </trkpt>
      <trkpt lat="43.3929610" lon="-4.3571470">
        <ele>33.2</ele>
        <time>2021-07-18T06:09:18Z</time>
      </trkpt>
      <trkpt lat="43.3929540" lon="-4.3572390">
        <ele>33.2</ele>
        <time>2021-07-18T06:09:20Z</time>
      </trkpt>
      <trkpt lat="43.3929510" lon="-4.3573300">
        <ele>33.2</ele>
        <time>2021-07-18T06:09:22Z</time>
      </trkpt>
      <trkpt lat="43.3929480" lon="-4.3574290">
        <ele>33.2</ele>
        <time>2021-07-18T06:09:24Z</time>
      </trkpt>
      <trkpt lat="43.3929420" lon="-4.3576350">
        <ele>33.2</ele>
        <time>2021-07-18T06:09:28Z</time>
      </trkpt>
      <trkpt lat="43.3929390" lon="-4.3577850">
        <ele>33.2</ele>
        <time>2021-07-18T06:09:31Z</time>
      </trkpt>
      <trkpt lat="43.3929410" lon="-4.3578430">
        <ele>33.2</ele>
        <time>2021-07-18T06:09:32Z</time>
      </trkpt>
      <trkpt lat="43.3929630" lon="-4.3580290">
        <ele>33.2</ele>
        <time>2021-07-18T06:09:35Z</time>
      </trkpt>
      <trkpt lat="43.3929880" lon="-4.3581640">
        <ele>33.2</ele>
        <time>2021-07-18T06:09:37Z</time>
      </trkpt>
      <trkpt lat="43.3930310" lon="-4.3583650">
        <ele>32.8</ele>
        <time>2021-07-18T06:09:40Z</time>
      </trkpt>
      <trkpt lat="43.3930470" lon="-4.3584350">
        <ele>32.4</ele>
        <time>2021-07-18T06:09:41Z</time>
      </trkpt>
      <trkpt lat="43.3930630" lon="-4.3585090">
        <ele>32.0</ele>
        <time>2021-07-18T06:09:42Z</time>
      </trkpt>
      <trkpt lat="43.3930800" lon="-4.3585850">
        <ele>31.6</ele>
        <time>2021-07-18T06:09:43Z</time>
      </trkpt>
      <trkpt lat="43.3930970" lon="-4.3586620">
        <ele>31.0</ele>
        <time>2021-07-18T06:09:44Z</time>
      </trkpt>
      <trkpt lat="43.3931150" lon="-4.3587390">
        <ele>30.4</ele>
        <time>2021-07-18T06:09:45Z</time>
      </trkpt>
      <trkpt lat="43.3931340" lon="-4.3588110">
        <ele>30.0</ele>
        <time>2021-07-18T06:09:46Z</time>
      </trkpt>
      <trkpt lat="43.3931570" lon="-4.3588880">
        <ele>29.4</ele>
        <time>2021-07-18T06:09:47Z</time>
      </trkpt>
      <trkpt lat="43.3931840" lon="-4.3589620">
        <ele>28.8</ele>
        <time>2021-07-18T06:09:48Z</time>
      </trkpt>
      <trkpt lat="43.3932150" lon="-4.3590360">
        <ele>28.0</ele>
        <time>2021-07-18T06:09:49Z</time>
      </trkpt>
      <trkpt lat="43.3932480" lon="-4.3591100">
        <ele>27.4</ele>
        <time>2021-07-18T06:09:50Z</time>
      </trkpt>
      <trkpt lat="43.3932830" lon="-4.3591840">
        <ele>26.8</ele>
        <time>2021-07-18T06:09:51Z</time>
      </trkpt>
      <trkpt lat="43.3933210" lon="-4.3592600">
        <ele>26.4</ele>
        <time>2021-07-18T06:09:52Z</time>
      </trkpt>
      <trkpt lat="43.3933580" lon="-4.3593360">
        <ele>25.8</ele>
        <time>2021-07-18T06:09:53Z</time>
      </trkpt>
      <trkpt lat="43.3933980" lon="-4.3594160">
        <ele>25.4</ele>
        <time>2021-07-18T06:09:54Z</time>
      </trkpt>
      <trkpt lat="43.3934340" lon="-4.3594920">
        <ele>24.8</ele>
        <time>2021-07-18T06:09:55Z</time>
      </trkpt>
      <trkpt lat="43.3934690" lon="-4.3595660">
        <ele>24.4</ele>
        <time>2021-07-18T06:09:56Z</time>
      </trkpt>
      <trkpt lat="43.3935030" lon="-4.3596360">
        <ele>23.4</ele>
        <time>2021-07-18T06:09:57Z</time>
      </trkpt>
      <trkpt lat="43.3935340" lon="-4.3597050">
        <ele>23.0</ele>
        <time>2021-07-18T06:09:58Z</time>
      </trkpt>
      <trkpt lat="43.3935610" lon="-4.3597720">
        <ele>22.6</ele>
        <time>2021-07-18T06:09:59Z</time>
      </trkpt>
      <trkpt lat="43.3935860" lon="-4.3598390">
        <ele>22.0</ele>
        <time>2021-07-18T06:10:00Z</time>
      </trkpt>
      <trkpt lat="43.3936100" lon="-4.3599120">
        <ele>21.6</ele>
        <time>2021-07-18T06:10:01Z</time>
      </trkpt>
      <trkpt lat="43.3936290" lon="-4.3599800">
        <ele>21.2</ele>
        <time>2021-07-18T06:10:02Z</time>
      </trkpt>
      <trkpt lat="43.3936440" lon="-4.3600490">
        <ele>20.8</ele>
        <time>2021-07-18T06:10:03Z</time>
      </trkpt>
      <trkpt lat="43.3936570" lon="-4.3601170">
        <ele>20.4</ele>
        <time>2021-07-18T06:10:04Z</time>
      </trkpt>
      <trkpt lat="43.3936680" lon="-4.3601830">
        <ele>20.0</ele>
        <time>2021-07-18T06:10:05Z</time>
      </trkpt>
      <trkpt lat="43.3936780" lon="-4.3602480">
        <ele>19.6</ele>
        <time>2021-07-18T06:10:06Z</time>
      </trkpt>
      <trkpt lat="43.3936860" lon="-4.3603120">
        <ele>19.2</ele>
        <time>2021-07-18T06:10:07Z</time>
      </trkpt>
      <trkpt lat="43.3936900" lon="-4.3603760">
        <ele>18.8</ele>
        <time>2021-07-18T06:10:08Z</time>
      </trkpt>
      <trkpt lat="43.3936960" lon="-4.3604460">
        <ele>18.2</ele>
        <time>2021-07-18T06:10:09Z</time>
      </trkpt>
      <trkpt lat="43.3937020" lon="-4.3605120">
        <ele>17.8</ele>
        <time>2021-07-18T06:10:10Z</time>
      </trkpt>
      <trkpt lat="43.3937100" lon="-4.3606390">
        <ele>17.8</ele>
        <time>2021-07-18T06:10:12Z</time>
      </trkpt>
      <trkpt lat="43.3937140" lon="-4.3607020">
        <ele>17.4</ele>
        <time>2021-07-18T06:10:13Z</time>
      </trkpt>
      <trkpt lat="43.3937190" lon="-4.3607670">
        <ele>17.0</ele>
        <time>2021-07-18T06:10:14Z</time>
      </trkpt>
      <trkpt lat="43.3937240" lon="-4.3608330">
        <ele>16.6</ele>
        <time>2021-07-18T06:10:15Z</time>
      </trkpt>
      <trkpt lat="43.3937270" lon="-4.3609000">
        <ele>16.0</ele>
        <time>2021-07-18T06:10:16Z</time>
      </trkpt>
      <trkpt lat="43.3937310" lon="-4.3609720">
        <ele>15.6</ele>
        <time>2021-07-18T06:10:17Z</time>
      </trkpt>
      <trkpt lat="43.3937430" lon="-4.3611920">
        <ele>15.6</ele>
        <time>2021-07-18T06:10:20Z</time>
      </trkpt>
      <trkpt lat="43.3937470" lon="-4.3612720">
        <ele>15.2</ele>
        <time>2021-07-18T06:10:21Z</time>
      </trkpt>
      <trkpt lat="43.3937510" lon="-4.3613560">
        <ele>14.4</ele>
        <time>2021-07-18T06:10:22Z</time>
      </trkpt>
      <trkpt lat="43.3937550" lon="-4.3614440">
        <ele>14.0</ele>
        <time>2021-07-18T06:10:23Z</time>
      </trkpt>
      <trkpt lat="43.3937580" lon="-4.3615390">
        <ele>13.4</ele>
        <time>2021-07-18T06:10:24Z</time>
      </trkpt>
      <trkpt lat="43.3937570" lon="-4.3617240">
        <ele>13.4</ele>
        <time>2021-07-18T06:10:26Z</time>
      </trkpt>
      <trkpt lat="43.3937450" lon="-4.3619120">
        <ele>13.0</ele>
        <time>2021-07-18T06:10:28Z</time>
      </trkpt>
      <trkpt lat="43.3937350" lon="-4.3620060">
        <ele>12.6</ele>
        <time>2021-07-18T06:10:29Z</time>
      </trkpt>
      <trkpt lat="43.3937250" lon="-4.3621000">
        <ele>12.0</ele>
        <time>2021-07-18T06:10:30Z</time>
      </trkpt>
      <trkpt lat="43.3937140" lon="-4.3621940">
        <ele>11.6</ele>
        <time>2021-07-18T06:10:31Z</time>
      </trkpt>
      <trkpt lat="43.3937010" lon="-4.3622930">
        <ele>11.2</ele>
        <time>2021-07-18T06:10:32Z</time>
      </trkpt>
      <trkpt lat="43.3936870" lon="-4.3623890">
        <ele>10.8</ele>
        <time>2021-07-18T06:10:33Z</time>
      </trkpt>
      <trkpt lat="43.3936720" lon="-4.3624850">
        <ele>10.2</ele>
        <time>2021-07-18T06:10:34Z</time>
      </trkpt>
      <trkpt lat="43.3936570" lon="-4.3625830">
        <ele>9.8</ele>
        <time>2021-07-18T06:10:35Z</time>
      </trkpt>
      <trkpt lat="43.3936420" lon="-4.3626850">
        <ele>9.4</ele>
        <time>2021-07-18T06:10:36Z</time>
      </trkpt>
      <trkpt lat="43.3936270" lon="-4.3627910">
        <ele>8.8</ele>
        <time>2021-07-18T06:10:37Z</time>
      </trkpt>
      <trkpt lat="43.3935840" lon="-4.3631150">
        <ele>8.4</ele>
        <time>2021-07-18T06:10:40Z</time>
      </trkpt>
      <trkpt lat="43.3935700" lon="-4.3632180">
        <ele>8.0</ele>
        <time>2021-07-18T06:10:41Z</time>
      </trkpt>
      <trkpt lat="43.3935560" lon="-4.3633180">
        <ele>7.4</ele>
        <time>2021-07-18T06:10:42Z</time>
      </trkpt>
      <trkpt lat="43.3935420" lon="-4.3634130">
        <ele>7.0</ele>
        <time>2021-07-18T06:10:43Z</time>
      </trkpt>
      <trkpt lat="43.3935290" lon="-4.3635020">
        <ele>6.4</ele>
        <time>2021-07-18T06:10:44Z</time>
      </trkpt>
      <trkpt lat="43.3935170" lon="-4.3635870">
        <ele>5.8</ele>
        <time>2021-07-18T06:10:45Z</time>
      </trkpt>
      <trkpt lat="43.3935040" lon="-4.3636730">
        <ele>5.4</ele>
        <time>2021-07-18T06:10:46Z</time>
      </trkpt>
      <trkpt lat="43.3934920" lon="-4.3637530">
        <ele>4.0</ele>
        <time>2021-07-18T06:10:47Z</time>
      </trkpt>
      <trkpt lat="43.3934820" lon="-4.3638320">
        <ele>3.4</ele>
        <time>2021-07-18T06:10:48Z</time>
      </trkpt>
      <trkpt lat="43.3934710" lon="-4.3639120">
        <ele>2.8</ele>
        <time>2021-07-18T06:10:49Z</time>
      </trkpt>
      <trkpt lat="43.3934600" lon="-4.3639880">
        <ele>2.2</ele>
        <time>2021-07-18T06:10:50Z</time>
      </trkpt>
      <trkpt lat="43.3934480" lon="-4.3640650">
        <ele>1.8</ele>
        <time>2021-07-18T06:10:51Z</time>
      </trkpt>
      <trkpt lat="43.3934380" lon="-4.3641420">
        <ele>1.4</ele>
        <time>2021-07-18T06:10:52Z</time>
      </trkpt>
      <trkpt lat="43.3934270" lon="-4.3642180">
        <ele>1.0</ele>
        <time>2021-07-18T06:10:53Z</time>
      </trkpt>
      <trkpt lat="43.3934150" lon="-4.3642960">
        <ele>0.6</ele>
        <time>2021-07-18T06:10:54Z</time>
      </trkpt>
      <trkpt lat="43.3934030" lon="-4.3643700">
        <ele>0.2</ele>
        <time>2021-07-18T06:10:55Z</time>
      </trkpt>
      <trkpt lat="43.3933680" lon="-4.3645810">
        <ele>-0.4</ele>
        <time>2021-07-18T06:10:58Z</time>
      </trkpt>
      <trkpt lat="43.3933560" lon="-4.3646500">
        <ele>-0.8</ele>
        <time>2021-07-18T06:10:59Z</time>
      </trkpt>
      <trkpt lat="43.3933440" lon="-4.3647200">
        <ele>-1.2</ele>
        <time>2021-07-18T06:11:00Z</time>
      </trkpt>
      <trkpt lat="43.3933330" lon="-4.3647930">
        <ele>-1.6</ele>
        <time>2021-07-18T06:11:01Z</time>
      </trkpt>
      <trkpt lat="43.3933220" lon="-4.3648640">
        <ele>-2.2</ele>
        <time>2021-07-18T06:11:02Z</time>
      </trkpt>
      <trkpt lat="43.3932810" lon="-4.3650730">
        <ele>-2.2</ele>
        <time>2021-07-18T06:11:05Z</time>
      </trkpt>
      <trkpt lat="43.3932250" lon="-4.3653410">
        <ele>-2.6</ele>
        <time>2021-07-18T06:11:09Z</time>
      </trkpt>
      <trkpt lat="43.3932110" lon="-4.3653990">
        <ele>-3.0</ele>
        <time>2021-07-18T06:11:10Z</time>
      </trkpt>
      <trkpt lat="43.3931970" lon="-4.3654550">
        <ele>-3.4</ele>
        <time>2021-07-18T06:11:11Z</time>
      </trkpt>
      <trkpt lat="43.3931810" lon="-4.3655090">
        <ele>-4.2</ele>
        <time>2021-07-18T06:11:12Z</time>
      </trkpt>
      <trkpt lat="43.3931170" lon="-4.3657380">
        <ele>-4.6</ele>
        <time>2021-07-18T06:11:16Z</time>
      </trkpt>
      <trkpt lat="43.3931000" lon="-4.3658010">
        <ele>-5.0</ele>
        <time>2021-07-18T06:11:17Z</time>
      </trkpt>
      <trkpt lat="43.3930820" lon="-4.3658670">
        <ele>-5.4</ele>
        <time>2021-07-18T06:11:18Z</time>
      </trkpt>
      <trkpt lat="43.3930600" lon="-4.3659340">
        <ele>-5.8</ele>
        <time>2021-07-18T06:11:19Z</time>
      </trkpt>
      <trkpt lat="43.3930400" lon="-4.3659990">
        <ele>-6.2</ele>
        <time>2021-07-18T06:11:20Z</time>
      </trkpt>
      <trkpt lat="43.3929450" lon="-4.3662340">
        <ele>-6.6</ele>
        <time>2021-07-18T06:11:24Z</time>
      </trkpt>
      <trkpt lat="43.3929160" lon="-4.3662830">
        <ele>-7.0</ele>
        <time>2021-07-18T06:11:25Z</time>
      </trkpt>
      <trkpt lat="43.3928850" lon="-4.3663300">
        <ele>-7.6</ele>
        <time>2021-07-18T06:11:26Z</time>
      </trkpt>
      <trkpt lat="43.3928520" lon="-4.3663750">
        <ele>-8.0</ele>
        <time>2021-07-18T06:11:27Z</time>
      </trkpt>
      <trkpt lat="43.3928150" lon="-4.3664190">
        <ele>-8.4</ele>
        <time>2021-07-18T06:11:28Z</time>
      </trkpt>
      <trkpt lat="43.3927370" lon="-4.3665000">
        <ele>-8.8</ele>
        <time>2021-07-18T06:11:30Z</time>
      </trkpt>
      <trkpt lat="43.3926940" lon="-4.3665360">
        <ele>-9.2</ele>
        <time>2021-07-18T06:11:31Z</time>
      </trkpt>
      <trkpt lat="43.3926510" lon="-4.3665660">
        <ele>-9.6</ele>
        <time>2021-07-18T06:11:32Z</time>
      </trkpt>
      <trkpt lat="43.3926060" lon="-4.3665920">
        <ele>-10.0</ele>
        <time>2021-07-18T06:11:33Z</time>
      </trkpt>
      <trkpt lat="43.3925610" lon="-4.3666160">
        <ele>-10.4</ele>
        <time>2021-07-18T06:11:34Z</time>
      </trkpt>
      <trkpt lat="43.3924660" lon="-4.3666500">
        <ele>-11.6</ele>
        <time>2021-07-18T06:11:35Z</time>
      </trkpt>
      <trkpt lat="43.3924180" lon="-4.3666640">
        <ele>-12.0</ele>
        <time>2021-07-18T06:11:37Z</time>
      </trkpt>
      <trkpt lat="43.3923730" lon="-4.3666790">
        <ele>-12.6</ele>
        <time>2021-07-18T06:11:38Z</time>
      </trkpt>
      <trkpt lat="43.3923290" lon="-4.3666940">
        <ele>-13.0</ele>
        <time>2021-07-18T06:11:39Z</time>
      </trkpt>
      <trkpt lat="43.3922860" lon="-4.3667100">
        <ele>-13.6</ele>
        <time>2021-07-18T06:11:40Z</time>
      </trkpt>
      <trkpt lat="43.3922440" lon="-4.3667300">
        <ele>-14.0</ele>
        <time>2021-07-18T06:11:41Z</time>
      </trkpt>
      <trkpt lat="43.3922010" lon="-4.3667530">
        <ele>-14.6</ele>
        <time>2021-07-18T06:11:42Z</time>
      </trkpt>
      <trkpt lat="43.3920730" lon="-4.3668170">
        <ele>-15.0</ele>
        <time>2021-07-18T06:11:45Z</time>
      </trkpt>
      <trkpt lat="43.3920290" lon="-4.3668350">
        <ele>-15.4</ele>
        <time>2021-07-18T06:11:46Z</time>
      </trkpt>
      <trkpt lat="43.3919910" lon="-4.3668560">
        <ele>-16.0</ele>
        <time>2021-07-18T06:11:47Z</time>
      </trkpt>
      <trkpt lat="43.3919540" lon="-4.3668750">
        <ele>-16.4</ele>
        <time>2021-07-18T06:11:48Z</time>
      </trkpt>
      <trkpt lat="43.3919170" lon="-4.3668920">
        <ele>-16.8</ele>
        <time>2021-07-18T06:11:49Z</time>
      </trkpt>
      <trkpt lat="43.3918500" lon="-4.3669250">
        <ele>-16.8</ele>
        <time>2021-07-18T06:11:51Z</time>
      </trkpt>
      <trkpt lat="43.3918190" lon="-4.3669400">
        <ele>-16.8</ele>
        <time>2021-07-18T06:11:52Z</time>
      </trkpt>
      <trkpt lat="43.3917630" lon="-4.3669750">
        <ele>-16.8</ele>
        <time>2021-07-18T06:11:54Z</time>
      </trkpt>
      <trkpt lat="43.3916940" lon="-4.3670330">
        <ele>-16.8</ele>
        <time>2021-07-18T06:11:57Z</time>
      </trkpt>
      <trkpt lat="43.3916730" lon="-4.3670570">
        <ele>-16.8</ele>
        <time>2021-07-18T06:11:58Z</time>
      </trkpt>
      <trkpt lat="43.3916550" lon="-4.3670840">
        <ele>-16.8</ele>
        <time>2021-07-18T06:11:59Z</time>
      </trkpt>
      <trkpt lat="43.3916240" lon="-4.3671420">
        <ele>-16.8</ele>
        <time>2021-07-18T06:12:01Z</time>
      </trkpt>
      <trkpt lat="43.3916000" lon="-4.3672020">
        <ele>-16.8</ele>
        <time>2021-07-18T06:12:03Z</time>
      </trkpt>
      <trkpt lat="43.3915890" lon="-4.3672320">
        <ele>-16.8</ele>
        <time>2021-07-18T06:12:04Z</time>
      </trkpt>
      <trkpt lat="43.3915770" lon="-4.3672630">
        <ele>-16.8</ele>
        <time>2021-07-18T06:12:05Z</time>
      </trkpt>
      <trkpt lat="43.3915640" lon="-4.3673260">
        <ele>-16.8</ele>
        <time>2021-07-18T06:12:07Z</time>
      </trkpt>
      <trkpt lat="43.3915600" lon="-4.3673890">
        <ele>-16.8</ele>
        <time>2021-07-18T06:12:09Z</time>
      </trkpt>
      <trkpt lat="43.3915620" lon="-4.3674520">
        <ele>-16.8</ele>
        <time>2021-07-18T06:12:11Z</time>
      </trkpt>
      <trkpt lat="43.3915630" lon="-4.3674850">
        <ele>-16.4</ele>
        <time>2021-07-18T06:12:12Z</time>
      </trkpt>
      <trkpt lat="43.3915650" lon="-4.3675150">
        <ele>-16.0</ele>
        <time>2021-07-18T06:12:13Z</time>
      </trkpt>
      <trkpt lat="43.3915670" lon="-4.3675460">
        <ele>-15.6</ele>
        <time>2021-07-18T06:12:14Z</time>
      </trkpt>
      <trkpt lat="43.3915690" lon="-4.3675760">
        <ele>-15.2</ele>
        <time>2021-07-18T06:12:15Z</time>
      </trkpt>
      <trkpt lat="43.3915700" lon="-4.3676070">
        <ele>-14.8</ele>
        <time>2021-07-18T06:12:16Z</time>
      </trkpt>
      <trkpt lat="43.3916000" lon="-4.3677510">
        <ele>-14.4</ele>
        <time>2021-07-18T06:12:21Z</time>
      </trkpt>
      <trkpt lat="43.3916040" lon="-4.3677810">
        <ele>-14.0</ele>
        <time>2021-07-18T06:12:22Z</time>
      </trkpt>
      <trkpt lat="43.3916070" lon="-4.3678110">
        <ele>-13.6</ele>
        <time>2021-07-18T06:12:23Z</time>
      </trkpt>
      <trkpt lat="43.3916090" lon="-4.3678410">
        <ele>-13.2</ele>
        <time>2021-07-18T06:12:24Z</time>
      </trkpt>
      <trkpt lat="43.3916090" lon="-4.3678680">
        <ele>-12.8</ele>
        <time>2021-07-18T06:12:25Z</time>
      </trkpt>
      <trkpt lat="43.3916280" lon="-4.3679700">
        <ele>-12.2</ele>
        <time>2021-07-18T06:12:29Z</time>
      </trkpt>
      <trkpt lat="43.3916330" lon="-4.3679960">
        <ele>-11.8</ele>
        <time>2021-07-18T06:12:30Z</time>
      </trkpt>
      <trkpt lat="43.3916370" lon="-4.3680220">
        <ele>-11.4</ele>
        <time>2021-07-18T06:12:31Z</time>
      </trkpt>
      <trkpt lat="43.3916420" lon="-4.3680490">
        <ele>-11.0</ele>
        <time>2021-07-18T06:12:32Z</time>
      </trkpt>
      <trkpt lat="43.3916440" lon="-4.3680760">
        <ele>-10.6</ele>
        <time>2021-07-18T06:12:33Z</time>
      </trkpt>
      <trkpt lat="43.3916650" lon="-4.3682310">
        <ele>-10.2</ele>
        <time>2021-07-18T06:12:39Z</time>
      </trkpt>
      <trkpt lat="43.3916720" lon="-4.3682560">
        <ele>-9.8</ele>
        <time>2021-07-18T06:12:40Z</time>
      </trkpt>
      <trkpt lat="43.3916790" lon="-4.3682800">
        <ele>-9.2</ele>
        <time>2021-07-18T06:12:41Z</time>
      </trkpt>
      <trkpt lat="43.3916920" lon="-4.3683050">
        <ele>-8.8</ele>
        <time>2021-07-18T06:12:42Z</time>
      </trkpt>
      <trkpt lat="43.3917030" lon="-4.3683300">
        <ele>-8.4</ele>
        <time>2021-07-18T06:12:43Z</time>
      </trkpt>
      <trkpt lat="43.3917330" lon="-4.3684740">
        <ele>-8.0</ele>
        <time>2021-07-18T06:12:48Z</time>
      </trkpt>
      <trkpt lat="43.3917340" lon="-4.3685000">
        <ele>-7.6</ele>
        <time>2021-07-18T06:12:49Z</time>
      </trkpt>
      <trkpt lat="43.3917350" lon="-4.3685260">
        <ele>-7.2</ele>
        <time>2021-07-18T06:12:50Z</time>
      </trkpt>
      <trkpt lat="43.3917310" lon="-4.3685540">
        <ele>-6.4</ele>
        <time>2021-07-18T06:12:51Z</time>
      </trkpt>
      <trkpt lat="43.3917190" lon="-4.3686260">
        <ele>-6.4</ele>
        <time>2021-07-18T06:12:54Z</time>
      </trkpt>
      <trkpt lat="43.3916740" lon="-4.3687500">
        <ele>-6.0</ele>
        <time>2021-07-18T06:12:59Z</time>
      </trkpt>
      <trkpt lat="43.3916600" lon="-4.3687700">
        <ele>-5.4</ele>
        <time>2021-07-18T06:13:00Z</time>
      </trkpt>
      <trkpt lat="43.3916470" lon="-4.3687890">
        <ele>-5.0</ele>
        <time>2021-07-18T06:13:01Z</time>
      </trkpt>
      <trkpt lat="43.3916340" lon="-4.3688080">
        <ele>-4.6</ele>
        <time>2021-07-18T06:13:02Z</time>
      </trkpt>
      <trkpt lat="43.3916220" lon="-4.3688280">
        <ele>-4.2</ele>
        <time>2021-07-18T06:13:03Z</time>
      </trkpt>
      <trkpt lat="43.3916100" lon="-4.3688440">
        <ele>-4.2</ele>
        <time>2021-07-18T06:13:04Z</time>
      </trkpt>
      <trkpt lat="43.3915170" lon="-4.3689700">
        <ele>-3.8</ele>
        <time>2021-07-18T06:13:11Z</time>
      </trkpt>
      <trkpt lat="43.3915020" lon="-4.3689850">
        <ele>-3.2</ele>
        <time>2021-07-18T06:13:12Z</time>
      </trkpt>
      <trkpt lat="43.3914890" lon="-4.3690030">
        <ele>-2.8</ele>
        <time>2021-07-18T06:13:13Z</time>
      </trkpt>
      <trkpt lat="43.3914760" lon="-4.3690190">
        <ele>-2.4</ele>
        <time>2021-07-18T06:13:14Z</time>
      </trkpt>
      <trkpt lat="43.3914630" lon="-4.3690350">
        <ele>-2.0</ele>
        <time>2021-07-18T06:13:15Z</time>
      </trkpt>
      <trkpt lat="43.3913930" lon="-4.3691240">
        <ele>-2.0</ele>
        <time>2021-07-18T06:13:20Z</time>
      </trkpt>
      <trkpt lat="43.3913630" lon="-4.3691570">
        <ele>-1.4</ele>
        <time>2021-07-18T06:13:22Z</time>
      </trkpt>
      <trkpt lat="43.3913480" lon="-4.3691730">
        <ele>-1.0</ele>
        <time>2021-07-18T06:13:23Z</time>
      </trkpt>
      <trkpt lat="43.3913340" lon="-4.3691910">
        <ele>-0.6</ele>
        <time>2021-07-18T06:13:24Z</time>
      </trkpt>
      <trkpt lat="43.3913210" lon="-4.3692040">
        <ele>-0.2</ele>
        <time>2021-07-18T06:13:25Z</time>
      </trkpt>
      <trkpt lat="43.3913070" lon="-4.3692180">
        <ele>0.2</ele>
        <time>2021-07-18T06:13:26Z</time>
      </trkpt>
      <trkpt lat="43.3912670" lon="-4.3692650">
        <ele>0.2</ele>
        <time>2021-07-18T06:13:29Z</time>
      </trkpt>
      <trkpt lat="43.3911830" lon="-4.3693690">
        <ele>0.6</ele>
        <time>2021-07-18T06:13:35Z</time>
      </trkpt>
      <trkpt lat="43.3911660" lon="-4.3693850">
        <ele>1.0</ele>
        <time>2021-07-18T06:13:36Z</time>
      </trkpt>
      <trkpt lat="43.3911510" lon="-4.3694010">
        <ele>1.4</ele>
        <time>2021-07-18T06:13:37Z</time>
      </trkpt>
      <trkpt lat="43.3911370" lon="-4.3694160">
        <ele>2.0</ele>
        <time>2021-07-18T06:13:38Z</time>
      </trkpt>
      <trkpt lat="43.3911250" lon="-4.3694320">
        <ele>2.4</ele>
        <time>2021-07-18T06:13:39Z</time>
      </trkpt>
      <trkpt lat="43.3910490" lon="-4.3695100">
        <ele>2.8</ele>
        <time>2021-07-18T06:13:44Z</time>
      </trkpt>
      <trkpt lat="43.3910330" lon="-4.3695230">
        <ele>3.2</ele>
        <time>2021-07-18T06:13:45Z</time>
      </trkpt>
      <trkpt lat="43.3910160" lon="-4.3695330">
        <ele>3.6</ele>
        <time>2021-07-18T06:13:46Z</time>
      </trkpt>
      <trkpt lat="43.3909980" lon="-4.3695430">
        <ele>4.0</ele>
        <time>2021-07-18T06:13:47Z</time>
      </trkpt>
      <trkpt lat="43.3909790" lon="-4.3695550">
        <ele>4.4</ele>
        <time>2021-07-18T06:13:48Z</time>
      </trkpt>
      <trkpt lat="43.3908440" lon="-4.3695960">
        <ele>4.4</ele>
        <time>2021-07-18T06:13:55Z</time>
      </trkpt>
      <trkpt lat="43.3907300" lon="-4.3695940">
        <ele>4.4</ele>
        <time>2021-07-18T06:14:00Z</time>
      </trkpt>
      <trkpt lat="43.3906330" lon="-4.3695710">
        <ele>4.4</ele>
        <time>2021-07-18T06:14:04Z</time>
      </trkpt>
      <trkpt lat="43.3905510" lon="-4.3695450">
        <ele>4.4</ele>
        <time>2021-07-18T06:14:07Z</time>
      </trkpt>
      <trkpt lat="43.3904370" lon="-4.3695050">
        <ele>4.4</ele>
        <time>2021-07-18T06:14:10Z</time>
      </trkpt>
      <trkpt lat="43.3903950" lon="-4.3694900">
        <ele>4.4</ele>
        <time>2021-07-18T06:14:11Z</time>
      </trkpt>
      <trkpt lat="43.3903510" lon="-4.3694710">
        <ele>4.4</ele>
        <time>2021-07-18T06:14:12Z</time>
      </trkpt>
      <trkpt lat="43.3903060" lon="-4.3694530">
        <ele>4.4</ele>
        <time>2021-07-18T06:14:13Z</time>
      </trkpt>
      <trkpt lat="43.3902590" lon="-4.3694470">
        <ele>4.4</ele>
        <time>2021-07-18T06:14:14Z</time>
      </trkpt>
      <trkpt lat="43.3902120" lon="-4.3694580">
        <ele>4.4</ele>
        <time>2021-07-18T06:14:15Z</time>
      </trkpt>
      <trkpt lat="43.3901640" lon="-4.3694860">
        <ele>4.4</ele>
        <time>2021-07-18T06:14:16Z</time>
      </trkpt>
      <trkpt lat="43.3901260" lon="-4.3695230">
        <ele>4.0</ele>
        <time>2021-07-18T06:14:17Z</time>
      </trkpt>
      <trkpt lat="43.3900940" lon="-4.3695670">
        <ele>3.6</ele>
        <time>2021-07-18T06:14:18Z</time>
      </trkpt>
      <trkpt lat="43.3900670" lon="-4.3696210">
        <ele>3.2</ele>
        <time>2021-07-18T06:14:19Z</time>
      </trkpt>
      <trkpt lat="43.3900490" lon="-4.3696800">
        <ele>2.8</ele>
        <time>2021-07-18T06:14:20Z</time>
      </trkpt>
      <trkpt lat="43.3900340" lon="-4.3697410">
        <ele>2.4</ele>
        <time>2021-07-18T06:14:21Z</time>
      </trkpt>
      <trkpt lat="43.3899870" lon="-4.3699290">
        <ele>2.0</ele>
        <time>2021-07-18T06:14:24Z</time>
      </trkpt>
      <trkpt lat="43.3899720" lon="-4.3699900">
        <ele>1.6</ele>
        <time>2021-07-18T06:14:25Z</time>
      </trkpt>
      <trkpt lat="43.3899600" lon="-4.3700510">
        <ele>1.0</ele>
        <time>2021-07-18T06:14:26Z</time>
      </trkpt>
      <trkpt lat="43.3899500" lon="-4.3701130">
        <ele>0.6</ele>
        <time>2021-07-18T06:14:27Z</time>
      </trkpt>
      <trkpt lat="43.3899390" lon="-4.3701740">
        <ele>0.2</ele>
        <time>2021-07-18T06:14:28Z</time>
      </trkpt>
      <trkpt lat="43.3899190" lon="-4.3702960">
        <ele>-0.2</ele>
        <time>2021-07-18T06:14:30Z</time>
      </trkpt>
      <trkpt lat="43.3899030" lon="-4.3703530">
        <ele>-0.8</ele>
        <time>2021-07-18T06:14:31Z</time>
      </trkpt>
      <trkpt lat="43.3898840" lon="-4.3704050">
        <ele>-1.2</ele>
        <time>2021-07-18T06:14:32Z</time>
      </trkpt>
      <trkpt lat="43.3898660" lon="-4.3704550">
        <ele>-1.6</ele>
        <time>2021-07-18T06:14:33Z</time>
      </trkpt>
      <trkpt lat="43.3898470" lon="-4.3705020">
        <ele>-2.0</ele>
        <time>2021-07-18T06:14:34Z</time>
      </trkpt>
      <trkpt lat="43.3898250" lon="-4.3705510">
        <ele>-2.4</ele>
        <time>2021-07-18T06:14:35Z</time>
      </trkpt>
      <trkpt lat="43.3897990" lon="-4.3705990">
        <ele>-2.8</ele>
        <time>2021-07-18T06:14:36Z</time>
      </trkpt>
      <trkpt lat="43.3897670" lon="-4.3706490">
        <ele>-3.2</ele>
        <time>2021-07-18T06:14:37Z</time>
      </trkpt>
      <trkpt lat="43.3897350" lon="-4.3706960">
        <ele>-3.6</ele>
        <time>2021-07-18T06:14:38Z</time>
      </trkpt>
      <trkpt lat="43.3896960" lon="-4.3707440">
        <ele>-4.0</ele>
        <time>2021-07-18T06:14:39Z</time>
      </trkpt>
      <trkpt lat="43.3896560" lon="-4.3707870">
        <ele>-4.6</ele>
        <time>2021-07-18T06:14:40Z</time>
      </trkpt>
      <trkpt lat="43.3896130" lon="-4.3708340">
        <ele>-5.0</ele>
        <time>2021-07-18T06:14:41Z</time>
      </trkpt>
      <trkpt lat="43.3895720" lon="-4.3708790">
        <ele>-5.4</ele>
        <time>2021-07-18T06:14:42Z</time>
      </trkpt>
      <trkpt lat="43.3895270" lon="-4.3709260">
        <ele>-5.8</ele>
        <time>2021-07-18T06:14:43Z</time>
      </trkpt>
      <trkpt lat="43.3894810" lon="-4.3709710">
        <ele>-6.4</ele>
        <time>2021-07-18T06:14:44Z</time>
      </trkpt>
      <trkpt lat="43.3894350" lon="-4.3710150">
        <ele>-7.0</ele>
        <time>2021-07-18T06:14:45Z</time>
      </trkpt>
      <trkpt lat="43.3893870" lon="-4.3710620">
        <ele>-7.6</ele>
        <time>2021-07-18T06:14:46Z</time>
      </trkpt>
      <trkpt lat="43.3893430" lon="-4.3711050">
        <ele>-8.4</ele>
        <time>2021-07-18T06:14:47Z</time>
      </trkpt>
      <trkpt lat="43.3892990" lon="-4.3711440">
        <ele>-9.0</ele>
        <time>2021-07-18T06:14:48Z</time>
      </trkpt>
      <trkpt lat="43.3892590" lon="-4.3711790">
        <ele>-9.6</ele>
        <time>2021-07-18T06:14:49Z</time>
      </trkpt>
      <trkpt lat="43.3892220" lon="-4.3712120">
        <ele>-10.4</ele>
        <time>2021-07-18T06:14:50Z</time>
      </trkpt>
      <trkpt lat="43.3891890" lon="-4.3712440">
        <ele>-11.2</ele>
        <time>2021-07-18T06:14:51Z</time>
      </trkpt>
      <trkpt lat="43.3891620" lon="-4.3712700">
        <ele>-12.0</ele>
        <time>2021-07-18T06:14:52Z</time>
      </trkpt>
      <trkpt lat="43.3891390" lon="-4.3712950">
        <ele>-12.8</ele>
        <time>2021-07-18T06:14:53Z</time>
      </trkpt>
      <trkpt lat="43.3891170" lon="-4.3713270">
        <ele>-14.2</ele>
        <time>2021-07-18T06:14:54Z</time>
      </trkpt>
      <trkpt lat="43.3891000" lon="-4.3713670">
        <ele>-14.8</ele>
        <time>2021-07-18T06:14:55Z</time>
      </trkpt>
      <trkpt lat="43.3890850" lon="-4.3714120">
        <ele>-15.4</ele>
        <time>2021-07-18T06:14:56Z</time>
      </trkpt>
      <trkpt lat="43.3890710" lon="-4.3714520">
        <ele>-16.0</ele>
        <time>2021-07-18T06:14:57Z</time>
      </trkpt>
      <trkpt lat="43.3890460" lon="-4.3715670">
        <ele>-16.4</ele>
        <time>2021-07-18T06:15:00Z</time>
      </trkpt>
      <trkpt lat="43.3890410" lon="-4.3716140">
        <ele>-16.8</ele>
        <time>2021-07-18T06:15:01Z</time>
      </trkpt>
      <trkpt lat="43.3890370" lon="-4.3716660">
        <ele>-17.2</ele>
        <time>2021-07-18T06:15:02Z</time>
      </trkpt>
      <trkpt lat="43.3890340" lon="-4.3717240">
        <ele>-17.6</ele>
        <time>2021-07-18T06:15:03Z</time>
      </trkpt>
      <trkpt lat="43.3890320" lon="-4.3717870">
        <ele>-18.2</ele>
        <time>2021-07-18T06:15:04Z</time>
      </trkpt>
      <trkpt lat="43.3890260" lon="-4.3719230">
        <ele>-18.2</ele>
        <time>2021-07-18T06:15:06Z</time>
      </trkpt>
      <trkpt lat="43.3890180" lon="-4.3720670">
        <ele>-18.2</ele>
        <time>2021-07-18T06:15:08Z</time>
      </trkpt>
      <trkpt lat="43.3890060" lon="-4.3722790">
        <ele>-18.2</ele>
        <time>2021-07-18T06:15:11Z</time>
      </trkpt>
      <trkpt lat="43.3890090" lon="-4.3724320">
        <ele>-18.6</ele>
        <time>2021-07-18T06:15:14Z</time>
      </trkpt>
      <trkpt lat="43.3890130" lon="-4.3724780">
        <ele>-19.0</ele>
        <time>2021-07-18T06:15:15Z</time>
      </trkpt>
      <trkpt lat="43.3890190" lon="-4.3725250">
        <ele>-19.4</ele>
        <time>2021-07-18T06:15:16Z</time>
      </trkpt>
      <trkpt lat="43.3890270" lon="-4.3725700">
        <ele>-19.8</ele>
        <time>2021-07-18T06:15:17Z</time>
      </trkpt>
      <trkpt lat="43.3890360" lon="-4.3726140">
        <ele>-20.2</ele>
        <time>2021-07-18T06:15:18Z</time>
      </trkpt>
      <trkpt lat="43.3890660" lon="-4.3726880">
        <ele>-20.2</ele>
        <time>2021-07-18T06:15:20Z</time>
      </trkpt>
      <trkpt lat="43.3891040" lon="-4.3727480">
        <ele>-20.2</ele>
        <time>2021-07-18T06:15:22Z</time>
      </trkpt>
      <trkpt lat="43.3891520" lon="-4.3727950">
        <ele>-20.2</ele>
        <time>2021-07-18T06:15:24Z</time>
      </trkpt>
      <trkpt lat="43.3891770" lon="-4.3728160">
        <ele>-20.2</ele>
        <time>2021-07-18T06:15:25Z</time>
      </trkpt>
      <trkpt lat="43.3892030" lon="-4.3728380">
        <ele>-20.2</ele>
        <time>2021-07-18T06:15:26Z</time>
      </trkpt>
      <trkpt lat="43.3892590" lon="-4.3728820">
        <ele>-20.2</ele>
        <time>2021-07-18T06:15:28Z</time>
      </trkpt>
      <trkpt lat="43.3893160" lon="-4.3729250">
        <ele>-20.2</ele>
        <time>2021-07-18T06:15:30Z</time>
      </trkpt>
      <trkpt lat="43.3893760" lon="-4.3729660">
        <ele>-20.2</ele>
        <time>2021-07-18T06:15:32Z</time>
      </trkpt>
      <trkpt lat="43.3894330" lon="-4.3730130">
        <ele>-20.2</ele>
        <time>2021-07-18T06:15:34Z</time>
      </trkpt>
      <trkpt lat="43.3894620" lon="-4.3730380">
        <ele>-20.2</ele>
        <time>2021-07-18T06:15:35Z</time>
      </trkpt>
      <trkpt lat="43.3896720" lon="-4.3732640">
        <ele>-20.2</ele>
        <time>2021-07-18T06:15:43Z</time>
      </trkpt>
      <trkpt lat="43.3897450" lon="-4.3734000">
        <ele>-20.2</ele>
        <time>2021-07-18T06:15:47Z</time>
      </trkpt>
      <trkpt lat="43.3898020" lon="-4.3735500">
        <ele>-20.2</ele>
        <time>2021-07-18T06:15:51Z</time>
      </trkpt>
      <trkpt lat="43.3898920" lon="-4.3738380">
        <ele>-19.8</ele>
        <time>2021-07-18T06:15:59Z</time>
      </trkpt>
      <trkpt lat="43.3899020" lon="-4.3738710">
        <ele>-19.4</ele>
        <time>2021-07-18T06:16:00Z</time>
      </trkpt>
      <trkpt lat="43.3899130" lon="-4.3739030">
        <ele>-19.0</ele>
        <time>2021-07-18T06:16:01Z</time>
      </trkpt>
      <trkpt lat="43.3899230" lon="-4.3739330">
        <ele>-18.6</ele>
        <time>2021-07-18T06:16:02Z</time>
      </trkpt>
      <trkpt lat="43.3899330" lon="-4.3739630">
        <ele>-18.2</ele>
        <time>2021-07-18T06:16:03Z</time>
      </trkpt>
      <trkpt lat="43.3899710" lon="-4.3740850">
        <ele>-18.2</ele>
        <time>2021-07-18T06:16:07Z</time>
      </trkpt>
      <trkpt lat="43.3899810" lon="-4.3741160">
        <ele>-18.2</ele>
        <time>2021-07-18T06:16:08Z</time>
      </trkpt>
      <trkpt lat="43.3900250" lon="-4.3742600">
        <ele>-18.2</ele>
        <time>2021-07-18T06:16:13Z</time>
      </trkpt>
      <trkpt lat="43.3900440" lon="-4.3743220">
        <ele>-17.8</ele>
        <time>2021-07-18T06:16:15Z</time>
      </trkpt>
      <trkpt lat="43.3900510" lon="-4.3743530">
        <ele>-17.4</ele>
        <time>2021-07-18T06:16:16Z</time>
      </trkpt>
      <trkpt lat="43.3900600" lon="-4.3743840">
        <ele>-17.0</ele>
        <time>2021-07-18T06:16:17Z</time>
      </trkpt>
      <trkpt lat="43.3900680" lon="-4.3744150">
        <ele>-16.4</ele>
        <time>2021-07-18T06:16:18Z</time>
      </trkpt>
      <trkpt lat="43.3900770" lon="-4.3744460">
        <ele>-16.0</ele>
        <time>2021-07-18T06:16:19Z</time>
      </trkpt>
      <trkpt lat="43.3901090" lon="-4.3745350">
        <ele>-16.0</ele>
        <time>2021-07-18T06:16:22Z</time>
      </trkpt>
      <trkpt lat="43.3901250" lon="-4.3745930">
        <ele>-16.0</ele>
        <time>2021-07-18T06:16:24Z</time>
      </trkpt>
      <trkpt lat="43.3901520" lon="-4.3746810">
        <ele>-15.6</ele>
        <time>2021-07-18T06:16:27Z</time>
      </trkpt>
      <trkpt lat="43.3901620" lon="-4.3747110">
        <ele>-15.2</ele>
        <time>2021-07-18T06:16:28Z</time>
      </trkpt>
      <trkpt lat="43.3901700" lon="-4.3747410">
        <ele>-14.8</ele>
        <time>2021-07-18T06:16:29Z</time>
      </trkpt>
      <trkpt lat="43.3901780" lon="-4.3747700">
        <ele>-14.4</ele>
        <time>2021-07-18T06:16:30Z</time>
      </trkpt>
      <trkpt lat="43.3901850" lon="-4.3747960">
        <ele>-14.0</ele>
        <time>2021-07-18T06:16:31Z</time>
      </trkpt>
      <trkpt lat="43.3901890" lon="-4.3748220">
        <ele>-14.0</ele>
        <time>2021-07-18T06:16:32Z</time>
      </trkpt>
      <trkpt lat="43.3902160" lon="-4.3749680">
        <ele>-14.0</ele>
        <time>2021-07-18T06:16:37Z</time>
      </trkpt>
      <trkpt lat="43.3902260" lon="-4.3749970">
        <ele>-13.6</ele>
        <time>2021-07-18T06:16:38Z</time>
      </trkpt>
      <trkpt lat="43.3902340" lon="-4.3750250">
        <ele>-13.2</ele>
        <time>2021-07-18T06:16:39Z</time>
      </trkpt>
      <trkpt lat="43.3902410" lon="-4.3750530">
        <ele>-12.6</ele>
        <time>2021-07-18T06:16:40Z</time>
      </trkpt>
      <trkpt lat="43.3902470" lon="-4.3750810">
        <ele>-12.2</ele>
        <time>2021-07-18T06:16:41Z</time>
      </trkpt>
      <trkpt lat="43.3902530" lon="-4.3751100">
        <ele>-11.8</ele>
        <time>2021-07-18T06:16:42Z</time>
      </trkpt>
      <trkpt lat="43.3902740" lon="-4.3752500">
        <ele>-11.8</ele>
        <time>2021-07-18T06:16:47Z</time>
      </trkpt>
      <trkpt lat="43.3902850" lon="-4.3753650">
        <ele>-11.4</ele>
        <time>2021-07-18T06:16:51Z</time>
      </trkpt>
      <trkpt lat="43.3902860" lon="-4.3753930">
        <ele>-11.0</ele>
        <time>2021-07-18T06:16:52Z</time>
      </trkpt>
      <trkpt lat="43.3902890" lon="-4.3754220">
        <ele>-10.6</ele>
        <time>2021-07-18T06:16:53Z</time>
      </trkpt>
      <trkpt lat="43.3902910" lon="-4.3754530">
        <ele>-10.0</ele>
        <time>2021-07-18T06:16:54Z</time>
      </trkpt>
      <trkpt lat="43.3902900" lon="-4.3754840">
        <ele>-9.6</ele>
        <time>2021-07-18T06:16:55Z</time>
      </trkpt>
      <trkpt lat="43.3902890" lon="-4.3756270">
        <ele>-9.6</ele>
        <time>2021-07-18T06:17:00Z</time>
      </trkpt>
      <trkpt lat="43.3902880" lon="-4.3757130">
        <ele>-9.2</ele>
        <time>2021-07-18T06:17:03Z</time>
      </trkpt>
      <trkpt lat="43.3902860" lon="-4.3757460">
        <ele>-8.8</ele>
        <time>2021-07-18T06:17:04Z</time>
      </trkpt>
      <trkpt lat="43.3902830" lon="-4.3757770">
        <ele>-8.4</ele>
        <time>2021-07-18T06:17:05Z</time>
      </trkpt>
      <trkpt lat="43.3902790" lon="-4.3758080">
        <ele>-8.0</ele>
        <time>2021-07-18T06:17:06Z</time>
      </trkpt>
      <trkpt lat="43.3902730" lon="-4.3758360">
        <ele>-7.6</ele>
        <time>2021-07-18T06:17:07Z</time>
      </trkpt>
      <trkpt lat="43.3902200" lon="-4.3760840">
        <ele>-7.6</ele>
        <time>2021-07-18T06:17:15Z</time>
      </trkpt>
      <trkpt lat="43.3901610" lon="-4.3762970">
        <ele>-6.8</ele>
        <time>2021-07-18T06:17:22Z</time>
      </trkpt>
      <trkpt lat="43.3901510" lon="-4.3763260">
        <ele>-6.4</ele>
        <time>2021-07-18T06:17:23Z</time>
      </trkpt>
      <trkpt lat="43.3901430" lon="-4.3763570">
        <ele>-6.0</ele>
        <time>2021-07-18T06:17:24Z</time>
      </trkpt>
      <trkpt lat="43.3901340" lon="-4.3763880">
        <ele>-5.6</ele>
        <time>2021-07-18T06:17:25Z</time>
      </trkpt>
      <trkpt lat="43.3900520" lon="-4.3766080">
        <ele>-5.6</ele>
        <time>2021-07-18T06:17:33Z</time>
      </trkpt>
      <trkpt lat="43.3899920" lon="-4.3767770">
        <ele>-5.6</ele>
        <time>2021-07-18T06:17:39Z</time>
      </trkpt>
      <trkpt lat="43.3899820" lon="-4.3768070">
        <ele>-5.6</ele>
        <time>2021-07-18T06:17:40Z</time>
      </trkpt>
      <trkpt lat="43.3899220" lon="-4.3769560">
        <ele>-5.2</ele>
        <time>2021-07-18T06:17:45Z</time>
      </trkpt>
      <trkpt lat="43.3899110" lon="-4.3769890">
        <ele>-4.8</ele>
        <time>2021-07-18T06:17:46Z</time>
      </trkpt>
      <trkpt lat="43.3899000" lon="-4.3770220">
        <ele>-4.0</ele>
        <time>2021-07-18T06:17:47Z</time>
      </trkpt>
      <trkpt lat="43.3898910" lon="-4.3770540">
        <ele>-3.6</ele>
        <time>2021-07-18T06:17:48Z</time>
      </trkpt>
      <trkpt lat="43.3898580" lon="-4.3771450">
        <ele>-3.6</ele>
        <time>2021-07-18T06:17:51Z</time>
      </trkpt>
      <trkpt lat="43.3897890" lon="-4.3773250">
        <ele>-3.6</ele>
        <time>2021-07-18T06:17:57Z</time>
      </trkpt>
      <trkpt lat="43.3897310" lon="-4.3775170">
        <ele>-3.2</ele>
        <time>2021-07-18T06:18:04Z</time>
      </trkpt>
      <trkpt lat="43.3897230" lon="-4.3775450">
        <ele>-2.6</ele>
        <time>2021-07-18T06:18:05Z</time>
      </trkpt>
      <trkpt lat="43.3897150" lon="-4.3775700">
        <ele>-2.2</ele>
        <time>2021-07-18T06:18:06Z</time>
      </trkpt>
      <trkpt lat="43.3897060" lon="-4.3775940">
        <ele>-1.8</ele>
        <time>2021-07-18T06:18:07Z</time>
      </trkpt>
      <trkpt lat="43.3896980" lon="-4.3776160">
        <ele>-1.4</ele>
        <time>2021-07-18T06:18:08Z</time>
      </trkpt>
      <trkpt lat="43.3896650" lon="-4.3777080">
        <ele>-1.4</ele>
        <time>2021-07-18T06:18:12Z</time>
      </trkpt>
      <trkpt lat="43.3896160" lon="-4.3778400">
        <ele>-1.4</ele>
        <time>2021-07-18T06:18:18Z</time>
      </trkpt>
      <trkpt lat="43.3896070" lon="-4.3778600">
        <ele>-1.0</ele>
        <time>2021-07-18T06:18:19Z</time>
      </trkpt>
      <trkpt lat="43.3896000" lon="-4.3778800">
        <ele>-0.6</ele>
        <time>2021-07-18T06:18:20Z</time>
      </trkpt>
      <trkpt lat="43.3895920" lon="-4.3779040">
        <ele>-0.2</ele>
        <time>2021-07-18T06:18:21Z</time>
      </trkpt>
      <trkpt lat="43.3895840" lon="-4.3779230">
        <ele>0.2</ele>
        <time>2021-07-18T06:18:22Z</time>
      </trkpt>
      <trkpt lat="43.3895760" lon="-4.3779420">
        <ele>0.8</ele>
        <time>2021-07-18T06:18:23Z</time>
      </trkpt>
      <trkpt lat="43.3895350" lon="-4.3780630">
        <ele>0.8</ele>
        <time>2021-07-18T06:18:29Z</time>
      </trkpt>
      <trkpt lat="43.3895220" lon="-4.3781000">
        <ele>1.2</ele>
        <time>2021-07-18T06:18:31Z</time>
      </trkpt>
      <trkpt lat="43.3895140" lon="-4.3781200">
        <ele>1.6</ele>
        <time>2021-07-18T06:18:32Z</time>
      </trkpt>
      <trkpt lat="43.3895060" lon="-4.3781410">
        <ele>2.0</ele>
        <time>2021-07-18T06:18:33Z</time>
      </trkpt>
      <trkpt lat="43.3894990" lon="-4.3781620">
        <ele>2.4</ele>
        <time>2021-07-18T06:18:34Z</time>
      </trkpt>
      <trkpt lat="43.3894910" lon="-4.3781850">
        <ele>2.8</ele>
        <time>2021-07-18T06:18:35Z</time>
      </trkpt>
      <trkpt lat="43.3894760" lon="-4.3782470">
        <ele>2.8</ele>
        <time>2021-07-18T06:18:38Z</time>
      </trkpt>
      <trkpt lat="43.3894490" lon="-4.3783290">
        <ele>3.2</ele>
        <time>2021-07-18T06:18:42Z</time>
      </trkpt>
      <trkpt lat="43.3894430" lon="-4.3783500">
        <ele>3.6</ele>
        <time>2021-07-18T06:18:43Z</time>
      </trkpt>
      <trkpt lat="43.3894360" lon="-4.3783710">
        <ele>4.2</ele>
        <time>2021-07-18T06:18:44Z</time>
      </trkpt>
      <trkpt lat="43.3894300" lon="-4.3783910">
        <ele>4.6</ele>
        <time>2021-07-18T06:18:45Z</time>
      </trkpt>
      <trkpt lat="43.3894230" lon="-4.3784130">
        <ele>5.0</ele>
        <time>2021-07-18T06:18:46Z</time>
      </trkpt>
      <trkpt lat="43.3894170" lon="-4.3784350">
        <ele>5.0</ele>
        <time>2021-07-18T06:18:47Z</time>
      </trkpt>
      <trkpt lat="43.3893810" lon="-4.3785590">
        <ele>5.4</ele>
        <time>2021-07-18T06:18:53Z</time>
      </trkpt>
      <trkpt lat="43.3893720" lon="-4.3785780">
        <ele>5.8</ele>
        <time>2021-07-18T06:18:54Z</time>
      </trkpt>
      <trkpt lat="43.3893650" lon="-4.3785970">
        <ele>6.2</ele>
        <time>2021-07-18T06:18:55Z</time>
      </trkpt>
      <trkpt lat="43.3893570" lon="-4.3786170">
        <ele>6.6</ele>
        <time>2021-07-18T06:18:56Z</time>
      </trkpt>
      <trkpt lat="43.3893510" lon="-4.3786360">
        <ele>7.0</ele>
        <time>2021-07-18T06:18:57Z</time>
      </trkpt>
      <trkpt lat="43.3893170" lon="-4.3787560">
        <ele>7.0</ele>
        <time>2021-07-18T06:19:03Z</time>
      </trkpt>
      <trkpt lat="43.3893050" lon="-4.3787980">
        <ele>7.6</ele>
        <time>2021-07-18T06:19:05Z</time>
      </trkpt>
      <trkpt lat="43.3893000" lon="-4.3788200">
        <ele>8.0</ele>
        <time>2021-07-18T06:19:06Z</time>
      </trkpt>
      <trkpt lat="43.3892990" lon="-4.3788400">
        <ele>8.4</ele>
        <time>2021-07-18T06:19:07Z</time>
      </trkpt>
      <trkpt lat="43.3892960" lon="-4.3788590">
        <ele>8.8</ele>
        <time>2021-07-18T06:19:08Z</time>
      </trkpt>
      <trkpt lat="43.3892880" lon="-4.3788770">
        <ele>9.2</ele>
        <time>2021-07-18T06:19:09Z</time>
      </trkpt>
      <trkpt lat="43.3892840" lon="-4.3789000">
        <ele>9.2</ele>
        <time>2021-07-18T06:19:10Z</time>
      </trkpt>
      <trkpt lat="43.3892200" lon="-4.3790460">
        <ele>9.2</ele>
        <time>2021-07-18T06:19:17Z</time>
      </trkpt>
      <trkpt lat="43.3891560" lon="-4.3792330">
        <ele>9.2</ele>
        <time>2021-07-18T06:19:24Z</time>
      </trkpt>
      <trkpt lat="43.3891440" lon="-4.3792590">
        <ele>9.2</ele>
        <time>2021-07-18T06:19:25Z</time>
      </trkpt>
      <trkpt lat="43.3890490" lon="-4.3794400">
        <ele>9.2</ele>
        <time>2021-07-18T06:19:31Z</time>
      </trkpt>
      <trkpt lat="43.3890310" lon="-4.3794690">
        <ele>9.2</ele>
        <time>2021-07-18T06:19:32Z</time>
      </trkpt>
      <trkpt lat="43.3888830" lon="-4.3796230">
        <ele>9.2</ele>
        <time>2021-07-18T06:19:38Z</time>
      </trkpt>
      <trkpt lat="43.3887430" lon="-4.3797320">
        <ele>9.2</ele>
        <time>2021-07-18T06:19:43Z</time>
      </trkpt>
      <trkpt lat="43.3886900" lon="-4.3797730">
        <ele>9.2</ele>
        <time>2021-07-18T06:19:45Z</time>
      </trkpt>
      <trkpt lat="43.3886640" lon="-4.3797920">
        <ele>9.2</ele>
        <time>2021-07-18T06:19:46Z</time>
      </trkpt>
      <trkpt lat="43.3885160" lon="-4.3798960">
        <ele>9.2</ele>
        <time>2021-07-18T06:19:52Z</time>
      </trkpt>
      <trkpt lat="43.3884730" lon="-4.3799270">
        <ele>9.2</ele>
        <time>2021-07-18T06:19:54Z</time>
      </trkpt>
      <trkpt lat="43.3884310" lon="-4.3799550">
        <ele>9.8</ele>
        <time>2021-07-18T06:19:56Z</time>
      </trkpt>
      <trkpt lat="43.3884100" lon="-4.3799690">
        <ele>10.2</ele>
        <time>2021-07-18T06:19:57Z</time>
      </trkpt>
      <trkpt lat="43.3883880" lon="-4.3799830">
        <ele>10.6</ele>
        <time>2021-07-18T06:19:58Z</time>
      </trkpt>
      <trkpt lat="43.3883680" lon="-4.3799950">
        <ele>11.0</ele>
        <time>2021-07-18T06:19:59Z</time>
      </trkpt>
      <trkpt lat="43.3883480" lon="-4.3800090">
        <ele>11.4</ele>
        <time>2021-07-18T06:20:00Z</time>
      </trkpt>
      <trkpt lat="43.3883100" lon="-4.3800380">
        <ele>11.4</ele>
        <time>2021-07-18T06:20:02Z</time>
      </trkpt>
      <trkpt lat="43.3882510" lon="-4.3800840">
        <ele>11.4</ele>
        <time>2021-07-18T06:20:05Z</time>
      </trkpt>
      <trkpt lat="43.3882290" lon="-4.3800990">
        <ele>11.8</ele>
        <time>2021-07-18T06:20:06Z</time>
      </trkpt>
      <trkpt lat="43.3882080" lon="-4.3801130">
        <ele>12.2</ele>
        <time>2021-07-18T06:20:07Z</time>
      </trkpt>
      <trkpt lat="43.3881880" lon="-4.3801270">
        <ele>12.6</ele>
        <time>2021-07-18T06:20:08Z</time>
      </trkpt>
      <trkpt lat="43.3881670" lon="-4.3801400">
        <ele>13.0</ele>
        <time>2021-07-18T06:20:09Z</time>
      </trkpt>
      <trkpt lat="43.3881460" lon="-4.3801530">
        <ele>13.6</ele>
        <time>2021-07-18T06:20:10Z</time>
      </trkpt>
      <trkpt lat="43.3880840" lon="-4.3801950">
        <ele>13.6</ele>
        <time>2021-07-18T06:20:13Z</time>
      </trkpt>
      <trkpt lat="43.3879890" lon="-4.3802570">
        <ele>14.0</ele>
        <time>2021-07-18T06:20:18Z</time>
      </trkpt>
      <trkpt lat="43.3879710" lon="-4.3802700">
        <ele>14.4</ele>
        <time>2021-07-18T06:20:19Z</time>
      </trkpt>
      <trkpt lat="43.3879520" lon="-4.3802810">
        <ele>14.8</ele>
        <time>2021-07-18T06:20:20Z</time>
      </trkpt>
      <trkpt lat="43.3879320" lon="-4.3802930">
        <ele>15.2</ele>
        <time>2021-07-18T06:20:21Z</time>
      </trkpt>
      <trkpt lat="43.3879160" lon="-4.3803050">
        <ele>15.6</ele>
        <time>2021-07-18T06:20:22Z</time>
      </trkpt>
      <trkpt lat="43.3877950" lon="-4.3803930">
        <ele>15.6</ele>
        <time>2021-07-18T06:20:29Z</time>
      </trkpt>
      <trkpt lat="43.3877400" lon="-4.3804230">
        <ele>16.0</ele>
        <time>2021-07-18T06:20:32Z</time>
      </trkpt>
      <trkpt lat="43.3877210" lon="-4.3804340">
        <ele>16.4</ele>
        <time>2021-07-18T06:20:33Z</time>
      </trkpt>
      <trkpt lat="43.3877030" lon="-4.3804460">
        <ele>17.0</ele>
        <time>2021-07-18T06:20:34Z</time>
      </trkpt>
      <trkpt lat="43.3876840" lon="-4.3804580">
        <ele>17.4</ele>
        <time>2021-07-18T06:20:35Z</time>
      </trkpt>
      <trkpt lat="43.3876640" lon="-4.3804690">
        <ele>17.8</ele>
        <time>2021-07-18T06:20:36Z</time>
      </trkpt>
      <trkpt lat="43.3875500" lon="-4.3805230">
        <ele>17.8</ele>
        <time>2021-07-18T06:20:42Z</time>
      </trkpt>
      <trkpt lat="43.3874880" lon="-4.3805480">
        <ele>18.2</ele>
        <time>2021-07-18T06:20:45Z</time>
      </trkpt>
      <trkpt lat="43.3874670" lon="-4.3805540">
        <ele>18.6</ele>
        <time>2021-07-18T06:20:46Z</time>
      </trkpt>
      <trkpt lat="43.3874450" lon="-4.3805600">
        <ele>19.0</ele>
        <time>2021-07-18T06:20:47Z</time>
      </trkpt>
      <trkpt lat="43.3874240" lon="-4.3805650">
        <ele>19.4</ele>
        <time>2021-07-18T06:20:48Z</time>
      </trkpt>
      <trkpt lat="43.3874030" lon="-4.3805700">
        <ele>19.8</ele>
        <time>2021-07-18T06:20:49Z</time>
      </trkpt>
      <trkpt lat="43.3873380" lon="-4.3805910">
        <ele>19.8</ele>
        <time>2021-07-18T06:20:52Z</time>
      </trkpt>
      <trkpt lat="43.3871400" lon="-4.3806440">
        <ele>19.8</ele>
        <time>2021-07-18T06:21:01Z</time>
      </trkpt>
      <trkpt lat="43.3870770" lon="-4.3806610">
        <ele>20.2</ele>
        <time>2021-07-18T06:21:04Z</time>
      </trkpt>
      <trkpt lat="43.3870550" lon="-4.3806680">
        <ele>20.6</ele>
        <time>2021-07-18T06:21:05Z</time>
      </trkpt>
      <trkpt lat="43.3870340" lon="-4.3806740">
        <ele>21.0</ele>
        <time>2021-07-18T06:21:06Z</time>
      </trkpt>
      <trkpt lat="43.3870120" lon="-4.3806830">
        <ele>21.4</ele>
        <time>2021-07-18T06:21:07Z</time>
      </trkpt>
      <trkpt lat="43.3869910" lon="-4.3806900">
        <ele>21.8</ele>
        <time>2021-07-18T06:21:08Z</time>
      </trkpt>
      <trkpt lat="43.3869700" lon="-4.3806930">
        <ele>21.8</ele>
        <time>2021-07-18T06:21:09Z</time>
      </trkpt>
      <trkpt lat="43.3867800" lon="-4.3807150">
        <ele>22.2</ele>
        <time>2021-07-18T06:21:18Z</time>
      </trkpt>
      <trkpt lat="43.3867600" lon="-4.3807160">
        <ele>22.6</ele>
        <time>2021-07-18T06:21:19Z</time>
      </trkpt>
      <trkpt lat="43.3867390" lon="-4.3807140">
        <ele>23.0</ele>
        <time>2021-07-18T06:21:20Z</time>
      </trkpt>
      <trkpt lat="43.3867180" lon="-4.3807100">
        <ele>23.4</ele>
        <time>2021-07-18T06:21:21Z</time>
      </trkpt>
      <trkpt lat="43.3866960" lon="-4.3807070">
        <ele>23.8</ele>
        <time>2021-07-18T06:21:22Z</time>
      </trkpt>
      <trkpt lat="43.3865330" lon="-4.3806800">
        <ele>24.2</ele>
        <time>2021-07-18T06:21:30Z</time>
      </trkpt>
      <trkpt lat="43.3865120" lon="-4.3806780">
        <ele>24.6</ele>
        <time>2021-07-18T06:21:31Z</time>
      </trkpt>
      <trkpt lat="43.3864910" lon="-4.3806720">
        <ele>25.2</ele>
        <time>2021-07-18T06:21:32Z</time>
      </trkpt>
      <trkpt lat="43.3864690" lon="-4.3806680">
        <ele>25.6</ele>
        <time>2021-07-18T06:21:33Z</time>
      </trkpt>
      <trkpt lat="43.3864480" lon="-4.3806640">
        <ele>26.0</ele>
        <time>2021-07-18T06:21:34Z</time>
      </trkpt>
      <trkpt lat="43.3863460" lon="-4.3806380">
        <ele>26.0</ele>
        <time>2021-07-18T06:21:39Z</time>
      </trkpt>
      <trkpt lat="43.3862450" lon="-4.3806150">
        <ele>26.4</ele>
        <time>2021-07-18T06:21:44Z</time>
      </trkpt>
      <trkpt lat="43.3862240" lon="-4.3806110">
        <ele>26.8</ele>
        <time>2021-07-18T06:21:45Z</time>
      </trkpt>
      <trkpt lat="43.3862040" lon="-4.3806100">
        <ele>27.2</ele>
        <time>2021-07-18T06:21:46Z</time>
      </trkpt>
      <trkpt lat="43.3861830" lon="-4.3806100">
        <ele>27.6</ele>
        <time>2021-07-18T06:21:47Z</time>
      </trkpt>
      <trkpt lat="43.3861620" lon="-4.3806140">
        <ele>28.0</ele>
        <time>2021-07-18T06:21:48Z</time>
      </trkpt>
      <trkpt lat="43.3860440" lon="-4.3806440">
        <ele>28.4</ele>
        <time>2021-07-18T06:21:54Z</time>
      </trkpt>
      <trkpt lat="43.3860240" lon="-4.3806550">
        <ele>28.8</ele>
        <time>2021-07-18T06:21:55Z</time>
      </trkpt>
      <trkpt lat="43.3860040" lon="-4.3806700">
        <ele>29.2</ele>
        <time>2021-07-18T06:21:56Z</time>
      </trkpt>
      <trkpt lat="43.3859840" lon="-4.3806870">
        <ele>29.8</ele>
        <time>2021-07-18T06:21:57Z</time>
      </trkpt>
      <trkpt lat="43.3859650" lon="-4.3807030">
        <ele>30.2</ele>
        <time>2021-07-18T06:21:58Z</time>
      </trkpt>
      <trkpt lat="43.3858900" lon="-4.3808080">
        <ele>30.2</ele>
        <time>2021-07-18T06:22:03Z</time>
      </trkpt>
      <trkpt lat="43.3858190" lon="-4.3810070">
        <ele>30.2</ele>
        <time>2021-07-18T06:22:10Z</time>
      </trkpt>
      <trkpt lat="43.3858100" lon="-4.3810680">
        <ele>30.6</ele>
        <time>2021-07-18T06:22:12Z</time>
      </trkpt>
      <trkpt lat="43.3858080" lon="-4.3810990">
        <ele>31.0</ele>
        <time>2021-07-18T06:22:13Z</time>
      </trkpt>
      <trkpt lat="43.3858050" lon="-4.3811320">
        <ele>31.4</ele>
        <time>2021-07-18T06:22:14Z</time>
      </trkpt>
      <trkpt lat="43.3858020" lon="-4.3811640">
        <ele>31.8</ele>
        <time>2021-07-18T06:22:15Z</time>
      </trkpt>
      <trkpt lat="43.3857970" lon="-4.3811960">
        <ele>32.2</ele>
        <time>2021-07-18T06:22:16Z</time>
      </trkpt>
      <trkpt lat="43.3857810" lon="-4.3812970">
        <ele>32.2</ele>
        <time>2021-07-18T06:22:19Z</time>
      </trkpt>
      <trkpt lat="43.3857530" lon="-4.3813990">
        <ele>32.2</ele>
        <time>2021-07-18T06:22:22Z</time>
      </trkpt>
      <trkpt lat="43.3857120" lon="-4.3814970">
        <ele>32.2</ele>
        <time>2021-07-18T06:22:25Z</time>
      </trkpt>
      <trkpt lat="43.3856780" lon="-4.3815780">
        <ele>32.2</ele>
        <time>2021-07-18T06:22:27Z</time>
      </trkpt>
      <trkpt lat="43.3856320" lon="-4.3816720">
        <ele>32.2</ele>
        <time>2021-07-18T06:22:29Z</time>
      </trkpt>
      <trkpt lat="43.3855470" lon="-4.3818350">
        <ele>32.2</ele>
        <time>2021-07-18T06:22:32Z</time>
      </trkpt>
      <trkpt lat="43.3855180" lon="-4.3818930">
        <ele>32.2</ele>
        <time>2021-07-18T06:22:33Z</time>
      </trkpt>
      <trkpt lat="43.3854910" lon="-4.3819520">
        <ele>32.2</ele>
        <time>2021-07-18T06:22:34Z</time>
      </trkpt>
      <trkpt lat="43.3854060" lon="-4.3821310">
        <ele>32.2</ele>
        <time>2021-07-18T06:22:37Z</time>
      </trkpt>
      <trkpt lat="43.3853800" lon="-4.3821780">
        <ele>31.8</ele>
        <time>2021-07-18T06:22:38Z</time>
      </trkpt>
      <trkpt lat="43.3853570" lon="-4.3822230">
        <ele>31.2</ele>
        <time>2021-07-18T06:22:39Z</time>
      </trkpt>
      <trkpt lat="43.3853350" lon="-4.3822670">
        <ele>30.8</ele>
        <time>2021-07-18T06:22:40Z</time>
      </trkpt>
      <trkpt lat="43.3853110" lon="-4.3823110">
        <ele>30.4</ele>
        <time>2021-07-18T06:22:41Z</time>
      </trkpt>
      <trkpt lat="43.3852870" lon="-4.3823560">
        <ele>30.0</ele>
        <time>2021-07-18T06:22:42Z</time>
      </trkpt>
      <trkpt lat="43.3852360" lon="-4.3824620">
        <ele>30.0</ele>
        <time>2021-07-18T06:22:44Z</time>
      </trkpt>
      <trkpt lat="43.3852130" lon="-4.3825220">
        <ele>30.0</ele>
        <time>2021-07-18T06:22:45Z</time>
      </trkpt>
      <trkpt lat="43.3851750" lon="-4.3826550">
        <ele>30.0</ele>
        <time>2021-07-18T06:22:47Z</time>
      </trkpt>
      <trkpt lat="43.3851600" lon="-4.3827190">
        <ele>29.6</ele>
        <time>2021-07-18T06:22:48Z</time>
      </trkpt>
      <trkpt lat="43.3851490" lon="-4.3827790">
        <ele>29.2</ele>
        <time>2021-07-18T06:22:49Z</time>
      </trkpt>
      <trkpt lat="43.3851370" lon="-4.3828330">
        <ele>28.8</ele>
        <time>2021-07-18T06:22:50Z</time>
      </trkpt>
      <trkpt lat="43.3851300" lon="-4.3828860">
        <ele>28.2</ele>
        <time>2021-07-18T06:22:51Z</time>
      </trkpt>
      <trkpt lat="43.3851200" lon="-4.3829320">
        <ele>27.8</ele>
        <time>2021-07-18T06:22:52Z</time>
      </trkpt>
      <trkpt lat="43.3850880" lon="-4.3830280">
        <ele>27.8</ele>
        <time>2021-07-18T06:22:54Z</time>
      </trkpt>
      <trkpt lat="43.3850690" lon="-4.3830810">
        <ele>27.8</ele>
        <time>2021-07-18T06:22:55Z</time>
      </trkpt>
      <trkpt lat="43.3850460" lon="-4.3831320">
        <ele>27.4</ele>
        <time>2021-07-18T06:22:56Z</time>
      </trkpt>
      <trkpt lat="43.3850190" lon="-4.3831810">
        <ele>27.0</ele>
        <time>2021-07-18T06:22:57Z</time>
      </trkpt>
      <trkpt lat="43.3849900" lon="-4.3832390">
        <ele>26.4</ele>
        <time>2021-07-18T06:22:58Z</time>
      </trkpt>
      <trkpt lat="43.3849610" lon="-4.3833060">
        <ele>26.0</ele>
        <time>2021-07-18T06:22:59Z</time>
      </trkpt>
      <trkpt lat="43.3849410" lon="-4.3833850">
        <ele>25.6</ele>
        <time>2021-07-18T06:23:00Z</time>
      </trkpt>
      <trkpt lat="43.3849220" lon="-4.3835650">
        <ele>25.0</ele>
        <time>2021-07-18T06:23:02Z</time>
      </trkpt>
      <trkpt lat="43.3849190" lon="-4.3836640">
        <ele>24.6</ele>
        <time>2021-07-18T06:23:03Z</time>
      </trkpt>
      <trkpt lat="43.3849210" lon="-4.3837670">
        <ele>24.2</ele>
        <time>2021-07-18T06:23:04Z</time>
      </trkpt>
      <trkpt lat="43.3849300" lon="-4.3838740">
        <ele>23.8</ele>
        <time>2021-07-18T06:23:05Z</time>
      </trkpt>
      <trkpt lat="43.3849460" lon="-4.3839890">
        <ele>23.4</ele>
        <time>2021-07-18T06:23:06Z</time>
      </trkpt>
      <trkpt lat="43.3849640" lon="-4.3840970">
        <ele>23.0</ele>
        <time>2021-07-18T06:23:07Z</time>
      </trkpt>
      <trkpt lat="43.3849870" lon="-4.3842050">
        <ele>22.0</ele>
        <time>2021-07-18T06:23:08Z</time>
      </trkpt>
      <trkpt lat="43.3850080" lon="-4.3843130">
        <ele>21.6</ele>
        <time>2021-07-18T06:23:09Z</time>
      </trkpt>
      <trkpt lat="43.3850250" lon="-4.3844170">
        <ele>21.0</ele>
        <time>2021-07-18T06:23:10Z</time>
      </trkpt>
      <trkpt lat="43.3850340" lon="-4.3845230">
        <ele>20.4</ele>
        <time>2021-07-18T06:23:11Z</time>
      </trkpt>
      <trkpt lat="43.3850330" lon="-4.3846280">
        <ele>19.8</ele>
        <time>2021-07-18T06:23:12Z</time>
      </trkpt>
      <trkpt lat="43.3850250" lon="-4.3847340">
        <ele>19.2</ele>
        <time>2021-07-18T06:23:13Z</time>
      </trkpt>
      <trkpt lat="43.3850100" lon="-4.3848420">
        <ele>18.6</ele>
        <time>2021-07-18T06:23:14Z</time>
      </trkpt>
      <trkpt lat="43.3849650" lon="-4.3850470">
        <ele>18.2</ele>
        <time>2021-07-18T06:23:16Z</time>
      </trkpt>
      <trkpt lat="43.3849370" lon="-4.3851460">
        <ele>17.8</ele>
        <time>2021-07-18T06:23:17Z</time>
      </trkpt>
      <trkpt lat="43.3849120" lon="-4.3852450">
        <ele>17.4</ele>
        <time>2021-07-18T06:23:18Z</time>
      </trkpt>
      <trkpt lat="43.3848890" lon="-4.3853410">
        <ele>17.0</ele>
        <time>2021-07-18T06:23:19Z</time>
      </trkpt>
      <trkpt lat="43.3848690" lon="-4.3854360">
        <ele>16.6</ele>
        <time>2021-07-18T06:23:20Z</time>
      </trkpt>
      <trkpt lat="43.3848280" lon="-4.3856990">
        <ele>16.2</ele>
        <time>2021-07-18T06:23:23Z</time>
      </trkpt>
      <trkpt lat="43.3848160" lon="-4.3857770">
        <ele>15.8</ele>
        <time>2021-07-18T06:23:24Z</time>
      </trkpt>
      <trkpt lat="43.3848010" lon="-4.3858520">
        <ele>15.4</ele>
        <time>2021-07-18T06:23:25Z</time>
      </trkpt>
      <trkpt lat="43.3847810" lon="-4.3859240">
        <ele>15.0</ele>
        <time>2021-07-18T06:23:26Z</time>
      </trkpt>
      <trkpt lat="43.3847590" lon="-4.3859930">
        <ele>14.6</ele>
        <time>2021-07-18T06:23:27Z</time>
      </trkpt>
      <trkpt lat="43.3847020" lon="-4.3861200">
        <ele>14.6</ele>
        <time>2021-07-18T06:23:29Z</time>
      </trkpt>
      <trkpt lat="43.3845500" lon="-4.3863670">
        <ele>13.6</ele>
        <time>2021-07-18T06:23:34Z</time>
      </trkpt>
      <trkpt lat="43.3845090" lon="-4.3864300">
        <ele>13.2</ele>
        <time>2021-07-18T06:23:35Z</time>
      </trkpt>
      <trkpt lat="43.3844700" lon="-4.3864970">
        <ele>12.8</ele>
        <time>2021-07-18T06:23:36Z</time>
      </trkpt>
      <trkpt lat="43.3844280" lon="-4.3865680">
        <ele>12.2</ele>
        <time>2021-07-18T06:23:37Z</time>
      </trkpt>
      <trkpt lat="43.3843870" lon="-4.3866450">
        <ele>11.8</ele>
        <time>2021-07-18T06:23:38Z</time>
      </trkpt>
      <trkpt lat="43.3843530" lon="-4.3867190">
        <ele>11.2</ele>
        <time>2021-07-18T06:23:39Z</time>
      </trkpt>
      <trkpt lat="43.3843180" lon="-4.3867970">
        <ele>10.8</ele>
        <time>2021-07-18T06:23:40Z</time>
      </trkpt>
      <trkpt lat="43.3842860" lon="-4.3868760">
        <ele>10.2</ele>
        <time>2021-07-18T06:23:41Z</time>
      </trkpt>
      <trkpt lat="43.3842560" lon="-4.3869570">
        <ele>9.6</ele>
        <time>2021-07-18T06:23:42Z</time>
      </trkpt>
      <trkpt lat="43.3842300" lon="-4.3870400">
        <ele>9.0</ele>
        <time>2021-07-18T06:23:43Z</time>
      </trkpt>
      <trkpt lat="43.3842060" lon="-4.3871250">
        <ele>8.4</ele>
        <time>2021-07-18T06:23:44Z</time>
      </trkpt>
      <trkpt lat="43.3841880" lon="-4.3872070">
        <ele>7.8</ele>
        <time>2021-07-18T06:23:45Z</time>
      </trkpt>
      <trkpt lat="43.3841710" lon="-4.3872890">
        <ele>7.2</ele>
        <time>2021-07-18T06:23:46Z</time>
      </trkpt>
      <trkpt lat="43.3841540" lon="-4.3873670">
        <ele>6.6</ele>
        <time>2021-07-18T06:23:47Z</time>
      </trkpt>
      <trkpt lat="43.3841400" lon="-4.3874450">
        <ele>6.0</ele>
        <time>2021-07-18T06:23:48Z</time>
      </trkpt>
      <trkpt lat="43.3841220" lon="-4.3875210">
        <ele>5.4</ele>
        <time>2021-07-18T06:23:49Z</time>
      </trkpt>
      <trkpt lat="43.3840880" lon="-4.3876700">
        <ele>5.0</ele>
        <time>2021-07-18T06:23:51Z</time>
      </trkpt>
      <trkpt lat="43.3840730" lon="-4.3877400">
        <ele>4.4</ele>
        <time>2021-07-18T06:23:52Z</time>
      </trkpt>
      <trkpt lat="43.3840580" lon="-4.3878050">
        <ele>4.0</ele>
        <time>2021-07-18T06:23:53Z</time>
      </trkpt>
      <trkpt lat="43.3840450" lon="-4.3878640">
        <ele>3.6</ele>
        <time>2021-07-18T06:23:54Z</time>
      </trkpt>
      <trkpt lat="43.3840310" lon="-4.3879230">
        <ele>3.2</ele>
        <time>2021-07-18T06:23:55Z</time>
      </trkpt>
      <trkpt lat="43.3840000" lon="-4.3880350">
        <ele>2.8</ele>
        <time>2021-07-18T06:23:57Z</time>
      </trkpt>
      <trkpt lat="43.3839800" lon="-4.3880860">
        <ele>2.4</ele>
        <time>2021-07-18T06:23:58Z</time>
      </trkpt>
      <trkpt lat="43.3839570" lon="-4.3881360">
        <ele>2.0</ele>
        <time>2021-07-18T06:23:59Z</time>
      </trkpt>
      <trkpt lat="43.3839340" lon="-4.3881790">
        <ele>1.0</ele>
        <time>2021-07-18T06:24:00Z</time>
      </trkpt>
      <trkpt lat="43.3839100" lon="-4.3882130">
        <ele>0.6</ele>
        <time>2021-07-18T06:24:01Z</time>
      </trkpt>
      <trkpt lat="43.3838870" lon="-4.3882400">
        <ele>0.0</ele>
        <time>2021-07-18T06:24:02Z</time>
      </trkpt>
      <trkpt lat="43.3838680" lon="-4.3882580">
        <ele>-0.4</ele>
        <time>2021-07-18T06:24:03Z</time>
      </trkpt>
      <trkpt lat="43.3838460" lon="-4.3882760">
        <ele>-1.0</ele>
        <time>2021-07-18T06:24:04Z</time>
      </trkpt>
      <trkpt lat="43.3838260" lon="-4.3882920">
        <ele>-1.4</ele>
        <time>2021-07-18T06:24:05Z</time>
      </trkpt>
      <trkpt lat="43.3838090" lon="-4.3883070">
        <ele>-2.0</ele>
        <time>2021-07-18T06:24:06Z</time>
      </trkpt>
      <trkpt lat="43.3837980" lon="-4.3883150">
        <ele>-2.4</ele>
        <time>2021-07-18T06:24:07Z</time>
      </trkpt>
      <trkpt lat="43.3837920" lon="-4.3883240">
        <ele>-3.0</ele>
        <time>2021-07-18T06:24:08Z</time>
      </trkpt>
      <trkpt lat="43.3837910" lon="-4.3883250">
        <ele>-3.0</ele>
        <time>2021-07-18T06:24:09Z</time>
      </trkpt>
      <trkpt lat="43.3837660" lon="-4.3883330">
        <ele>-5.0</ele>
        <time>2021-07-18T06:24:51Z</time>
      </trkpt>
      <trkpt lat="43.3837480" lon="-4.3883390">
        <ele>-5.0</ele>
        <time>2021-07-18T06:24:52Z</time>
      </trkpt>
      <trkpt lat="43.3836260" lon="-4.3883990">
        <ele>-5.0</ele>
        <time>2021-07-18T06:24:56Z</time>
      </trkpt>
      <trkpt lat="43.3835440" lon="-4.3884490">
        <ele>-5.4</ele>
        <time>2021-07-18T06:24:58Z</time>
      </trkpt>
      <trkpt lat="43.3835020" lon="-4.3884740">
        <ele>-5.8</ele>
        <time>2021-07-18T06:24:59Z</time>
      </trkpt>
      <trkpt lat="43.3834600" lon="-4.3884990">
        <ele>-6.2</ele>
        <time>2021-07-18T06:25:00Z</time>
      </trkpt>
      <trkpt lat="43.3834190" lon="-4.3885310">
        <ele>-6.6</ele>
        <time>2021-07-18T06:25:01Z</time>
      </trkpt>
      <trkpt lat="43.3833760" lon="-4.3885650">
        <ele>-7.0</ele>
        <time>2021-07-18T06:25:02Z</time>
      </trkpt>
      <trkpt lat="43.3833360" lon="-4.3886020">
        <ele>-7.4</ele>
        <time>2021-07-18T06:25:03Z</time>
      </trkpt>
      <trkpt lat="43.3832970" lon="-4.3886400">
        <ele>-7.8</ele>
        <time>2021-07-18T06:25:04Z</time>
      </trkpt>
      <trkpt lat="43.3832560" lon="-4.3886780">
        <ele>-8.4</ele>
        <time>2021-07-18T06:25:05Z</time>
      </trkpt>
      <trkpt lat="43.3832190" lon="-4.3887200">
        <ele>-8.8</ele>
        <time>2021-07-18T06:25:06Z</time>
      </trkpt>
      <trkpt lat="43.3831850" lon="-4.3887560">
        <ele>-9.2</ele>
        <time>2021-07-18T06:25:07Z</time>
      </trkpt>
      <trkpt lat="43.3831500" lon="-4.3887970">
        <ele>-9.8</ele>
        <time>2021-07-18T06:25:08Z</time>
      </trkpt>
      <trkpt lat="43.3831140" lon="-4.3888430">
        <ele>-10.4</ele>
        <time>2021-07-18T06:25:09Z</time>
      </trkpt>
      <trkpt lat="43.3830790" lon="-4.3888870">
        <ele>-10.8</ele>
        <time>2021-07-18T06:25:10Z</time>
      </trkpt>
      <trkpt lat="43.3830460" lon="-4.3889300">
        <ele>-11.4</ele>
        <time>2021-07-18T06:25:11Z</time>
      </trkpt>
      <trkpt lat="43.3830150" lon="-4.3889690">
        <ele>-12.0</ele>
        <time>2021-07-18T06:25:12Z</time>
      </trkpt>
      <trkpt lat="43.3829840" lon="-4.3890070">
        <ele>-12.6</ele>
        <time>2021-07-18T06:25:13Z</time>
      </trkpt>
      <trkpt lat="43.3829540" lon="-4.3890440">
        <ele>-14.0</ele>
        <time>2021-07-18T06:25:14Z</time>
      </trkpt>
      <trkpt lat="43.3829250" lon="-4.3890840">
        <ele>-14.6</ele>
        <time>2021-07-18T06:25:15Z</time>
      </trkpt>
      <trkpt lat="43.3829010" lon="-4.3891270">
        <ele>-15.2</ele>
        <time>2021-07-18T06:25:16Z</time>
      </trkpt>
      <trkpt lat="43.3828840" lon="-4.3891700">
        <ele>-15.8</ele>
        <time>2021-07-18T06:25:17Z</time>
      </trkpt>
      <trkpt lat="43.3828710" lon="-4.3892210">
        <ele>-16.4</ele>
        <time>2021-07-18T06:25:18Z</time>
      </trkpt>
      <trkpt lat="43.3828670" lon="-4.3892740">
        <ele>-17.2</ele>
        <time>2021-07-18T06:25:19Z</time>
      </trkpt>
      <trkpt lat="43.3828750" lon="-4.3893260">
        <ele>-17.8</ele>
        <time>2021-07-18T06:25:20Z</time>
      </trkpt>
      <trkpt lat="43.3828840" lon="-4.3893630">
        <ele>-18.4</ele>
        <time>2021-07-18T06:25:21Z</time>
      </trkpt>
      <trkpt lat="43.3828940" lon="-4.3893970">
        <ele>-18.8</ele>
        <time>2021-07-18T06:25:22Z</time>
      </trkpt>
      <trkpt lat="43.3829020" lon="-4.3894320">
        <ele>-19.2</ele>
        <time>2021-07-18T06:25:23Z</time>
      </trkpt>
      <trkpt lat="43.3829080" lon="-4.3894700">
        <ele>-19.6</ele>
        <time>2021-07-18T06:25:24Z</time>
      </trkpt>
      <trkpt lat="43.3829100" lon="-4.3895090">
        <ele>-20.0</ele>
        <time>2021-07-18T06:25:25Z</time>
      </trkpt>
      <trkpt lat="43.3829080" lon="-4.3895490">
        <ele>-20.4</ele>
        <time>2021-07-18T06:25:26Z</time>
      </trkpt>
      <trkpt lat="43.3828810" lon="-4.3896740">
        <ele>-20.4</ele>
        <time>2021-07-18T06:25:29Z</time>
      </trkpt>
      <trkpt lat="43.3827600" lon="-4.3899080">
        <ele>-20.4</ele>
        <time>2021-07-18T06:25:35Z</time>
      </trkpt>
      <trkpt lat="43.3826990" lon="-4.3900260">
        <ele>-20.4</ele>
        <time>2021-07-18T06:25:40Z</time>
      </trkpt>
      <trkpt lat="43.3826960" lon="-4.3900380">
        <ele>-20.4</ele>
        <time>2021-07-18T06:25:42Z</time>
      </trkpt>
      <trkpt lat="43.3826700" lon="-4.3900680">
        <ele>-20.4</ele>
        <time>2021-07-18T06:25:47Z</time>
      </trkpt>
      <trkpt lat="43.3826570" lon="-4.3900810">
        <ele>-20.4</ele>
        <time>2021-07-18T06:25:48Z</time>
      </trkpt>
      <trkpt lat="43.3826260" lon="-4.3901180">
        <ele>-20.4</ele>
        <time>2021-07-18T06:25:50Z</time>
      </trkpt>
      <trkpt lat="43.3825290" lon="-4.3902200">
        <ele>-20.4</ele>
        <time>2021-07-18T06:25:54Z</time>
      </trkpt>
      <trkpt lat="43.3823730" lon="-4.3904220">
        <ele>-20.4</ele>
        <time>2021-07-18T06:26:01Z</time>
      </trkpt>
      <trkpt lat="43.3822840" lon="-4.3906680">
        <ele>-20.4</ele>
        <time>2021-07-18T06:26:08Z</time>
      </trkpt>
      <trkpt lat="43.3822440" lon="-4.3907930">
        <ele>-20.4</ele>
        <time>2021-07-18T06:26:11Z</time>
      </trkpt>
      <trkpt lat="43.3821910" lon="-4.3909950">
        <ele>-20.4</ele>
        <time>2021-07-18T06:26:16Z</time>
      </trkpt>
      <trkpt lat="43.3821080" lon="-4.3913480">
        <ele>-20.4</ele>
        <time>2021-07-18T06:26:25Z</time>
      </trkpt>
      <trkpt lat="43.3820520" lon="-4.3917320">
        <ele>-20.4</ele>
        <time>2021-07-18T06:26:34Z</time>
      </trkpt>
      <trkpt lat="43.3820250" lon="-4.3919380">
        <ele>-20.4</ele>
        <time>2021-07-18T06:26:39Z</time>
      </trkpt>
      <trkpt lat="43.3819950" lon="-4.3921470">
        <ele>-20.4</ele>
        <time>2021-07-18T06:26:44Z</time>
      </trkpt>
      <trkpt lat="43.3819780" lon="-4.3922790">
        <ele>-20.4</ele>
        <time>2021-07-18T06:26:47Z</time>
      </trkpt>
      <trkpt lat="43.3819500" lon="-4.3925060">
        <ele>-20.4</ele>
        <time>2021-07-18T06:26:52Z</time>
      </trkpt>
      <trkpt lat="43.3819310" lon="-4.3926380">
        <ele>-20.4</ele>
        <time>2021-07-18T06:26:55Z</time>
      </trkpt>
      <trkpt lat="43.3818390" lon="-4.3932490">
        <ele>-20.4</ele>
        <time>2021-07-18T06:27:09Z</time>
      </trkpt>
      <trkpt lat="43.3817760" lon="-4.3936900">
        <ele>-20.4</ele>
        <time>2021-07-18T06:27:20Z</time>
      </trkpt>
      <trkpt lat="43.3817700" lon="-4.3937770">
        <ele>-20.4</ele>
        <time>2021-07-18T06:27:23Z</time>
      </trkpt>
      <trkpt lat="43.3817540" lon="-4.3939280">
        <ele>-20.4</ele>
        <time>2021-07-18T06:27:29Z</time>
      </trkpt>
      <trkpt lat="43.3817600" lon="-4.3939940">
        <ele>-20.4</ele>
        <time>2021-07-18T06:27:34Z</time>
      </trkpt>
      <trkpt lat="43.3817640" lon="-4.3939990">
        <ele>-20.4</ele>
        <time>2021-07-18T06:27:35Z</time>
      </trkpt>
      <trkpt lat="43.3817490" lon="-4.3940150">
        <ele>-20.4</ele>
        <time>2021-07-18T06:28:45Z</time>
      </trkpt>
      <trkpt lat="43.3817410" lon="-4.3940630">
        <ele>-20.4</ele>
        <time>2021-07-18T06:28:48Z</time>
      </trkpt>
      <trkpt lat="43.3817420" lon="-4.3940660">
        <ele>-20.4</ele>
        <time>2021-07-18T06:28:49Z</time>
      </trkpt>
      <trkpt lat="43.3817410" lon="-4.3940780">
        <ele>-20.4</ele>
        <time>2021-07-18T06:28:51Z</time>
      </trkpt>
      <trkpt lat="43.3817350" lon="-4.3941360">
        <ele>-20.4</ele>
        <time>2021-07-18T06:28:53Z</time>
      </trkpt>
      <trkpt lat="43.3816880" lon="-4.3944160">
        <ele>-20.4</ele>
        <time>2021-07-18T06:28:59Z</time>
      </trkpt>
      <trkpt lat="43.3815990" lon="-4.3950280">
        <ele>-20.4</ele>
        <time>2021-07-18T06:29:10Z</time>
      </trkpt>
      <trkpt lat="43.3815850" lon="-4.3951480">
        <ele>-20.4</ele>
        <time>2021-07-18T06:29:12Z</time>
      </trkpt>
      <trkpt lat="43.3815680" lon="-4.3952690">
        <ele>-20.4</ele>
        <time>2021-07-18T06:29:14Z</time>
      </trkpt>
      <trkpt lat="43.3815460" lon="-4.3954470">
        <ele>-20.4</ele>
        <time>2021-07-18T06:29:17Z</time>
      </trkpt>
      <trkpt lat="43.3815320" lon="-4.3955620">
        <ele>-20.4</ele>
        <time>2021-07-18T06:29:19Z</time>
      </trkpt>
      <trkpt lat="43.3814730" lon="-4.3960360">
        <ele>-20.4</ele>
        <time>2021-07-18T06:29:27Z</time>
      </trkpt>
      <trkpt lat="43.3814520" lon="-4.3962350">
        <ele>-20.4</ele>
        <time>2021-07-18T06:29:31Z</time>
      </trkpt>
      <trkpt lat="43.3814250" lon="-4.3964820">
        <ele>-20.4</ele>
        <time>2021-07-18T06:29:36Z</time>
      </trkpt>
      <trkpt lat="43.3814080" lon="-4.3966630">
        <ele>-20.4</ele>
        <time>2021-07-18T06:29:40Z</time>
      </trkpt>
      <trkpt lat="43.3814120" lon="-4.3967300">
        <ele>-20.4</ele>
        <time>2021-07-18T06:29:42Z</time>
      </trkpt>
      <trkpt lat="43.3814140" lon="-4.3967510">
        <ele>-20.4</ele>
        <time>2021-07-18T06:29:43Z</time>
      </trkpt>
      <trkpt lat="43.3814120" lon="-4.3967530">
        <ele>-20.4</ele>
        <time>2021-07-18T06:29:44Z</time>
      </trkpt>
      <trkpt lat="43.3814100" lon="-4.3967580">
        <ele>-20.4</ele>
        <time>2021-07-18T06:29:45Z</time>
      </trkpt>
      <trkpt lat="43.3814190" lon="-4.3967910">
        <ele>-20.4</ele>
        <time>2021-07-18T06:29:52Z</time>
      </trkpt>
      <trkpt lat="43.3814270" lon="-4.3968170">
        <ele>-20.4</ele>
        <time>2021-07-18T06:29:53Z</time>
      </trkpt>
      <trkpt lat="43.3815090" lon="-4.3970220">
        <ele>-20.4</ele>
        <time>2021-07-18T06:30:00Z</time>
      </trkpt>
      <trkpt lat="43.3815270" lon="-4.3970700">
        <ele>-20.4</ele>
        <time>2021-07-18T06:30:03Z</time>
      </trkpt>
      <trkpt lat="43.3815260" lon="-4.3970700">
        <ele>-20.4</ele>
        <time>2021-07-18T06:30:04Z</time>
      </trkpt>
      <trkpt lat="43.3815220" lon="-4.3970810">
        <ele>-20.4</ele>
        <time>2021-07-18T06:30:05Z</time>
      </trkpt>
      <trkpt lat="43.3814650" lon="-4.3971910">
        <ele>-20.4</ele>
        <time>2021-07-18T06:30:10Z</time>
      </trkpt>
      <trkpt lat="43.3814000" lon="-4.3972120">
        <ele>-20.4</ele>
        <time>2021-07-18T06:30:13Z</time>
      </trkpt>
      <trkpt lat="43.3813430" lon="-4.3972480">
        <ele>-20.4</ele>
        <time>2021-07-18T06:30:16Z</time>
      </trkpt>
      <trkpt lat="43.3812820" lon="-4.3973330">
        <ele>-20.4</ele>
        <time>2021-07-18T06:30:19Z</time>
      </trkpt>
      <trkpt lat="43.3812680" lon="-4.3973610">
        <ele>-20.4</ele>
        <time>2021-07-18T06:30:20Z</time>
      </trkpt>
      <trkpt lat="43.3812270" lon="-4.3974800">
        <ele>-20.4</ele>
        <time>2021-07-18T06:30:24Z</time>
      </trkpt>
      <trkpt lat="43.3812280" lon="-4.3975680">
        <ele>-20.4</ele>
        <time>2021-07-18T06:30:27Z</time>
      </trkpt>
      <trkpt lat="43.3812420" lon="-4.3976100">
        <ele>-20.0</ele>
        <time>2021-07-18T06:30:29Z</time>
      </trkpt>
      <trkpt lat="43.3812570" lon="-4.3976260">
        <ele>-19.6</ele>
        <time>2021-07-18T06:30:30Z</time>
      </trkpt>
      <trkpt lat="43.3812710" lon="-4.3976430">
        <ele>-19.2</ele>
        <time>2021-07-18T06:30:31Z</time>
      </trkpt>
      <trkpt lat="43.3812880" lon="-4.3976590">
        <ele>-18.8</ele>
        <time>2021-07-18T06:30:32Z</time>
      </trkpt>
      <trkpt lat="43.3813020" lon="-4.3976720">
        <ele>-18.4</ele>
        <time>2021-07-18T06:30:33Z</time>
      </trkpt>
      <trkpt lat="43.3813270" lon="-4.3976970">
        <ele>-17.8</ele>
        <time>2021-07-18T06:30:35Z</time>
      </trkpt>
      <trkpt lat="43.3813360" lon="-4.3977150">
        <ele>-17.4</ele>
        <time>2021-07-18T06:30:36Z</time>
      </trkpt>
      <trkpt lat="43.3813500" lon="-4.3977270">
        <ele>-17.0</ele>
        <time>2021-07-18T06:30:37Z</time>
      </trkpt>
      <trkpt lat="43.3813630" lon="-4.3977410">
        <ele>-16.6</ele>
        <time>2021-07-18T06:30:38Z</time>
      </trkpt>
      <trkpt lat="43.3813780" lon="-4.3977550">
        <ele>-16.2</ele>
        <time>2021-07-18T06:30:39Z</time>
      </trkpt>
      <trkpt lat="43.3814060" lon="-4.3977870">
        <ele>-16.2</ele>
        <time>2021-07-18T06:30:41Z</time>
      </trkpt>
      <trkpt lat="43.3814460" lon="-4.3978380">
        <ele>-15.8</ele>
        <time>2021-07-18T06:30:44Z</time>
      </trkpt>
      <trkpt lat="43.3814620" lon="-4.3978570">
        <ele>-15.2</ele>
        <time>2021-07-18T06:30:45Z</time>
      </trkpt>
      <trkpt lat="43.3814730" lon="-4.3978760">
        <ele>-14.8</ele>
        <time>2021-07-18T06:30:46Z</time>
      </trkpt>
      <trkpt lat="43.3814830" lon="-4.3978920">
        <ele>-14.4</ele>
        <time>2021-07-18T06:30:47Z</time>
      </trkpt>
      <trkpt lat="43.3814920" lon="-4.3979080">
        <ele>-14.0</ele>
        <time>2021-07-18T06:30:48Z</time>
      </trkpt>
      <trkpt lat="43.3815310" lon="-4.3979980">
        <ele>-13.6</ele>
        <time>2021-07-18T06:30:53Z</time>
      </trkpt>
      <trkpt lat="43.3815370" lon="-4.3980160">
        <ele>-13.0</ele>
        <time>2021-07-18T06:30:54Z</time>
      </trkpt>
      <trkpt lat="43.3815430" lon="-4.3980330">
        <ele>-12.6</ele>
        <time>2021-07-18T06:30:55Z</time>
      </trkpt>
      <trkpt lat="43.3815490" lon="-4.3980510">
        <ele>-12.2</ele>
        <time>2021-07-18T06:30:56Z</time>
      </trkpt>
      <trkpt lat="43.3815530" lon="-4.3980660">
        <ele>-11.8</ele>
        <time>2021-07-18T06:30:57Z</time>
      </trkpt>
      <trkpt lat="43.3815790" lon="-4.3981510">
        <ele>-11.4</ele>
        <time>2021-07-18T06:31:01Z</time>
      </trkpt>
      <trkpt lat="43.3815830" lon="-4.3981770">
        <ele>-11.0</ele>
        <time>2021-07-18T06:31:02Z</time>
      </trkpt>
      <trkpt lat="43.3815890" lon="-4.3982010">
        <ele>-10.6</ele>
        <time>2021-07-18T06:31:03Z</time>
      </trkpt>
      <trkpt lat="43.3815920" lon="-4.3982230">
        <ele>-10.2</ele>
        <time>2021-07-18T06:31:04Z</time>
      </trkpt>
      <trkpt lat="43.3815940" lon="-4.3982470">
        <ele>-9.8</ele>
        <time>2021-07-18T06:31:05Z</time>
      </trkpt>
      <trkpt lat="43.3816020" lon="-4.3983330">
        <ele>-9.4</ele>
        <time>2021-07-18T06:31:09Z</time>
      </trkpt>
      <trkpt lat="43.3816070" lon="-4.3983510">
        <ele>-9.0</ele>
        <time>2021-07-18T06:31:10Z</time>
      </trkpt>
      <trkpt lat="43.3816130" lon="-4.3983710">
        <ele>-8.6</ele>
        <time>2021-07-18T06:31:11Z</time>
      </trkpt>
      <trkpt lat="43.3816170" lon="-4.3983930">
        <ele>-8.0</ele>
        <time>2021-07-18T06:31:12Z</time>
      </trkpt>
      <trkpt lat="43.3816200" lon="-4.3984130">
        <ele>-7.6</ele>
        <time>2021-07-18T06:31:13Z</time>
      </trkpt>
      <trkpt lat="43.3816340" lon="-4.3985370">
        <ele>-7.2</ele>
        <time>2021-07-18T06:31:19Z</time>
      </trkpt>
      <trkpt lat="43.3816370" lon="-4.3985570">
        <ele>-6.8</ele>
        <time>2021-07-18T06:31:20Z</time>
      </trkpt>
      <trkpt lat="43.3816410" lon="-4.3985800">
        <ele>-6.4</ele>
        <time>2021-07-18T06:31:21Z</time>
      </trkpt>
      <trkpt lat="43.3816450" lon="-4.3986020">
        <ele>-6.0</ele>
        <time>2021-07-18T06:31:22Z</time>
      </trkpt>
      <trkpt lat="43.3816490" lon="-4.3986270">
        <ele>-5.6</ele>
        <time>2021-07-18T06:31:23Z</time>
      </trkpt>
      <trkpt lat="43.3816640" lon="-4.3987210">
        <ele>-5.2</ele>
        <time>2021-07-18T06:31:27Z</time>
      </trkpt>
      <trkpt lat="43.3816680" lon="-4.3987400">
        <ele>-4.8</ele>
        <time>2021-07-18T06:31:28Z</time>
      </trkpt>
      <trkpt lat="43.3816730" lon="-4.3987590">
        <ele>-4.4</ele>
        <time>2021-07-18T06:31:29Z</time>
      </trkpt>
      <trkpt lat="43.3816770" lon="-4.3987850">
        <ele>-4.0</ele>
        <time>2021-07-18T06:31:30Z</time>
      </trkpt>
      <trkpt lat="43.3816810" lon="-4.3988080">
        <ele>-3.6</ele>
        <time>2021-07-18T06:31:31Z</time>
      </trkpt>
      <trkpt lat="43.3816880" lon="-4.3988510">
        <ele>-3.6</ele>
        <time>2021-07-18T06:31:33Z</time>
      </trkpt>
      <trkpt lat="43.3817070" lon="-4.3989840">
        <ele>-3.6</ele>
        <time>2021-07-18T06:31:40Z</time>
      </trkpt>
      <trkpt lat="43.3817150" lon="-4.3990320">
        <ele>-3.0</ele>
        <time>2021-07-18T06:31:44Z</time>
      </trkpt>
      <trkpt lat="43.3817150" lon="-4.3990490">
        <ele>-1.4</ele>
        <time>2021-07-18T06:31:51Z</time>
      </trkpt>
      <trkpt lat="43.3817140" lon="-4.3990670">
        <ele>-1.4</ele>
        <time>2021-07-18T06:31:52Z</time>
      </trkpt>
      <trkpt lat="43.3816750" lon="-4.3991320">
        <ele>-1.4</ele>
        <time>2021-07-18T06:31:56Z</time>
      </trkpt>
      <trkpt lat="43.3816590" lon="-4.3991450">
        <ele>-1.4</ele>
        <time>2021-07-18T06:31:57Z</time>
      </trkpt>
      <trkpt lat="43.3816120" lon="-4.3992080">
        <ele>-1.0</ele>
        <time>2021-07-18T06:32:01Z</time>
      </trkpt>
      <trkpt lat="43.3816050" lon="-4.3992250">
        <ele>-0.6</ele>
        <time>2021-07-18T06:32:02Z</time>
      </trkpt>
      <trkpt lat="43.3815980" lon="-4.3992450">
        <ele>-0.2</ele>
        <time>2021-07-18T06:32:03Z</time>
      </trkpt>
      <trkpt lat="43.3815940" lon="-4.3992650">
        <ele>0.2</ele>
        <time>2021-07-18T06:32:04Z</time>
      </trkpt>
      <trkpt lat="43.3815870" lon="-4.3992840">
        <ele>0.6</ele>
        <time>2021-07-18T06:32:05Z</time>
      </trkpt>
      <trkpt lat="43.3815720" lon="-4.3993220">
        <ele>1.0</ele>
        <time>2021-07-18T06:32:07Z</time>
      </trkpt>
      <trkpt lat="43.3815660" lon="-4.3993410">
        <ele>1.4</ele>
        <time>2021-07-18T06:32:08Z</time>
      </trkpt>
      <trkpt lat="43.3815600" lon="-4.3993640">
        <ele>1.8</ele>
        <time>2021-07-18T06:32:09Z</time>
      </trkpt>
      <trkpt lat="43.3815490" lon="-4.3993830">
        <ele>2.2</ele>
        <time>2021-07-18T06:32:10Z</time>
      </trkpt>
      <trkpt lat="43.3815440" lon="-4.3994040">
        <ele>2.6</ele>
        <time>2021-07-18T06:32:11Z</time>
      </trkpt>
      <trkpt lat="43.3815190" lon="-4.3994800">
        <ele>3.2</ele>
        <time>2021-07-18T06:32:15Z</time>
      </trkpt>
      <trkpt lat="43.3815130" lon="-4.3994980">
        <ele>3.6</ele>
        <time>2021-07-18T06:32:16Z</time>
      </trkpt>
      <trkpt lat="43.3815080" lon="-4.3995160">
        <ele>4.0</ele>
        <time>2021-07-18T06:32:17Z</time>
      </trkpt>
      <trkpt lat="43.3814990" lon="-4.3995320">
        <ele>4.4</ele>
        <time>2021-07-18T06:32:18Z</time>
      </trkpt>
      <trkpt lat="43.3814900" lon="-4.3995520">
        <ele>4.8</ele>
        <time>2021-07-18T06:32:19Z</time>
      </trkpt>
      <trkpt lat="43.3814830" lon="-4.3995710">
        <ele>4.8</ele>
        <time>2021-07-18T06:32:20Z</time>
      </trkpt>
      <trkpt lat="43.3814410" lon="-4.3996640">
        <ele>5.2</ele>
        <time>2021-07-18T06:32:25Z</time>
      </trkpt>
      <trkpt lat="43.3814320" lon="-4.3996870">
        <ele>5.6</ele>
        <time>2021-07-18T06:32:26Z</time>
      </trkpt>
      <trkpt lat="43.3814240" lon="-4.3997060">
        <ele>6.0</ele>
        <time>2021-07-18T06:32:27Z</time>
      </trkpt>
      <trkpt lat="43.3814140" lon="-4.3997290">
        <ele>6.6</ele>
        <time>2021-07-18T06:32:28Z</time>
      </trkpt>
      <trkpt lat="43.3814070" lon="-4.3997480">
        <ele>7.0</ele>
        <time>2021-07-18T06:32:29Z</time>
      </trkpt>
      <trkpt lat="43.3813470" lon="-4.3998550">
        <ele>7.0</ele>
        <time>2021-07-18T06:32:35Z</time>
      </trkpt>
      <trkpt lat="43.3813390" lon="-4.3998750">
        <ele>7.4</ele>
        <time>2021-07-18T06:32:36Z</time>
      </trkpt>
      <trkpt lat="43.3813330" lon="-4.3998930">
        <ele>7.8</ele>
        <time>2021-07-18T06:32:37Z</time>
      </trkpt>
      <trkpt lat="43.3813220" lon="-4.3999100">
        <ele>8.6</ele>
        <time>2021-07-18T06:32:38Z</time>
      </trkpt>
      <trkpt lat="43.3813100" lon="-4.3999270">
        <ele>9.0</ele>
        <time>2021-07-18T06:32:39Z</time>
      </trkpt>
      <trkpt lat="43.3812850" lon="-4.3999810">
        <ele>9.0</ele>
        <time>2021-07-18T06:32:42Z</time>
      </trkpt>
      <trkpt lat="43.3812670" lon="-4.4000160">
        <ele>9.4</ele>
        <time>2021-07-18T06:32:44Z</time>
      </trkpt>
      <trkpt lat="43.3812590" lon="-4.4000340">
        <ele>9.8</ele>
        <time>2021-07-18T06:32:45Z</time>
      </trkpt>
      <trkpt lat="43.3812510" lon="-4.4000530">
        <ele>10.2</ele>
        <time>2021-07-18T06:32:46Z</time>
      </trkpt>
      <trkpt lat="43.3812410" lon="-4.4000700">
        <ele>10.6</ele>
        <time>2021-07-18T06:32:47Z</time>
      </trkpt>
      <trkpt lat="43.3812310" lon="-4.4000850">
        <ele>11.0</ele>
        <time>2021-07-18T06:32:48Z</time>
      </trkpt>
      <trkpt lat="43.3811920" lon="-4.4001510">
        <ele>11.0</ele>
        <time>2021-07-18T06:32:52Z</time>
      </trkpt>
      <trkpt lat="43.3811580" lon="-4.4002040">
        <ele>11.4</ele>
        <time>2021-07-18T06:32:55Z</time>
      </trkpt>
      <trkpt lat="43.3811510" lon="-4.4002240">
        <ele>11.8</ele>
        <time>2021-07-18T06:32:56Z</time>
      </trkpt>
      <trkpt lat="43.3811420" lon="-4.4002430">
        <ele>12.2</ele>
        <time>2021-07-18T06:32:57Z</time>
      </trkpt>
      <trkpt lat="43.3811320" lon="-4.4002600">
        <ele>12.6</ele>
        <time>2021-07-18T06:32:58Z</time>
      </trkpt>
      <trkpt lat="43.3811220" lon="-4.4002760">
        <ele>13.0</ele>
        <time>2021-07-18T06:32:59Z</time>
      </trkpt>
      <trkpt lat="43.3810390" lon="-4.4004020">
        <ele>13.0</ele>
        <time>2021-07-18T06:33:07Z</time>
      </trkpt>
      <trkpt lat="43.3810280" lon="-4.4004170">
        <ele>13.6</ele>
        <time>2021-07-18T06:33:08Z</time>
      </trkpt>
      <trkpt lat="43.3810160" lon="-4.4004330">
        <ele>14.0</ele>
        <time>2021-07-18T06:33:09Z</time>
      </trkpt>
      <trkpt lat="43.3810050" lon="-4.4004470">
        <ele>14.4</ele>
        <time>2021-07-18T06:33:10Z</time>
      </trkpt>
      <trkpt lat="43.3809940" lon="-4.4004670">
        <ele>14.8</ele>
        <time>2021-07-18T06:33:11Z</time>
      </trkpt>
      <trkpt lat="43.3809790" lon="-4.4004830">
        <ele>15.2</ele>
        <time>2021-07-18T06:33:12Z</time>
      </trkpt>
      <trkpt lat="43.3809220" lon="-4.4005460">
        <ele>15.2</ele>
        <time>2021-07-18T06:33:16Z</time>
      </trkpt>
      <trkpt lat="43.3808190" lon="-4.4006600">
        <ele>15.2</ele>
        <time>2021-07-18T06:33:23Z</time>
      </trkpt>
      <trkpt lat="43.3807160" lon="-4.4007400">
        <ele>15.2</ele>
        <time>2021-07-18T06:33:29Z</time>
      </trkpt>
      <trkpt lat="43.3807010" lon="-4.4007540">
        <ele>15.6</ele>
        <time>2021-07-18T06:33:30Z</time>
      </trkpt>
      <trkpt lat="43.3806890" lon="-4.4007720">
        <ele>16.0</ele>
        <time>2021-07-18T06:33:31Z</time>
      </trkpt>
      <trkpt lat="43.3806770" lon="-4.4007940">
        <ele>16.6</ele>
        <time>2021-07-18T06:33:32Z</time>
      </trkpt>
      <trkpt lat="43.3806690" lon="-4.4008120">
        <ele>17.0</ele>
        <time>2021-07-18T06:33:33Z</time>
      </trkpt>
      <trkpt lat="43.3806620" lon="-4.4008290">
        <ele>17.4</ele>
        <time>2021-07-18T06:33:34Z</time>
      </trkpt>
      <trkpt lat="43.3806460" lon="-4.4008680">
        <ele>17.4</ele>
        <time>2021-07-18T06:33:36Z</time>
      </trkpt>
      <trkpt lat="43.3806280" lon="-4.4010210">
        <ele>17.4</ele>
        <time>2021-07-18T06:33:42Z</time>
      </trkpt>
      <trkpt lat="43.3806330" lon="-4.4011090">
        <ele>17.8</ele>
        <time>2021-07-18T06:33:45Z</time>
      </trkpt>
      <trkpt lat="43.3806360" lon="-4.4011390">
        <ele>18.2</ele>
        <time>2021-07-18T06:33:46Z</time>
      </trkpt>
      <trkpt lat="43.3806380" lon="-4.4011670">
        <ele>18.6</ele>
        <time>2021-07-18T06:33:47Z</time>
      </trkpt>
      <trkpt lat="43.3806400" lon="-4.4011960">
        <ele>19.0</ele>
        <time>2021-07-18T06:33:48Z</time>
      </trkpt>
      <trkpt lat="43.3806430" lon="-4.4012240">
        <ele>19.4</ele>
        <time>2021-07-18T06:33:49Z</time>
      </trkpt>
      <trkpt lat="43.3806430" lon="-4.4012770">
        <ele>19.4</ele>
        <time>2021-07-18T06:33:51Z</time>
      </trkpt>
      <trkpt lat="43.3806090" lon="-4.4013880">
        <ele>19.4</ele>
        <time>2021-07-18T06:33:55Z</time>
      </trkpt>
      <trkpt lat="43.3805740" lon="-4.4014390">
        <ele>19.4</ele>
        <time>2021-07-18T06:33:57Z</time>
      </trkpt>
      <trkpt lat="43.3805020" lon="-4.4014800">
        <ele>19.4</ele>
        <time>2021-07-18T06:34:00Z</time>
      </trkpt>
      <trkpt lat="43.3804480" lon="-4.4015020">
        <ele>19.4</ele>
        <time>2021-07-18T06:34:02Z</time>
      </trkpt>
      <trkpt lat="43.3803940" lon="-4.4015290">
        <ele>19.4</ele>
        <time>2021-07-18T06:34:04Z</time>
      </trkpt>
      <trkpt lat="43.3802370" lon="-4.4016420">
        <ele>19.4</ele>
        <time>2021-07-18T06:34:10Z</time>
      </trkpt>
      <trkpt lat="43.3801030" lon="-4.4017740">
        <ele>19.4</ele>
        <time>2021-07-18T06:34:16Z</time>
      </trkpt>
      <trkpt lat="43.3800360" lon="-4.4018700">
        <ele>19.8</ele>
        <time>2021-07-18T06:34:20Z</time>
      </trkpt>
      <trkpt lat="43.3800200" lon="-4.4018950">
        <ele>20.2</ele>
        <time>2021-07-18T06:34:21Z</time>
      </trkpt>
      <trkpt lat="43.3800060" lon="-4.4019210">
        <ele>20.6</ele>
        <time>2021-07-18T06:34:22Z</time>
      </trkpt>
      <trkpt lat="43.3799920" lon="-4.4019430">
        <ele>21.0</ele>
        <time>2021-07-18T06:34:23Z</time>
      </trkpt>
      <trkpt lat="43.3799780" lon="-4.4019680">
        <ele>21.4</ele>
        <time>2021-07-18T06:34:24Z</time>
      </trkpt>
      <trkpt lat="43.3798760" lon="-4.4021590">
        <ele>21.4</ele>
        <time>2021-07-18T06:34:32Z</time>
      </trkpt>
      <trkpt lat="43.3798520" lon="-4.4022010">
        <ele>21.8</ele>
        <time>2021-07-18T06:34:34Z</time>
      </trkpt>
      <trkpt lat="43.3798390" lon="-4.4022210">
        <ele>22.2</ele>
        <time>2021-07-18T06:34:35Z</time>
      </trkpt>
      <trkpt lat="43.3798270" lon="-4.4022440">
        <ele>22.8</ele>
        <time>2021-07-18T06:34:36Z</time>
      </trkpt>
      <trkpt lat="43.3798130" lon="-4.4022660">
        <ele>23.2</ele>
        <time>2021-07-18T06:34:37Z</time>
      </trkpt>
      <trkpt lat="43.3797990" lon="-4.4022890">
        <ele>23.6</ele>
        <time>2021-07-18T06:34:38Z</time>
      </trkpt>
      <trkpt lat="43.3797410" lon="-4.4023970">
        <ele>23.6</ele>
        <time>2021-07-18T06:34:43Z</time>
      </trkpt>
      <trkpt lat="43.3797270" lon="-4.4024150">
        <ele>24.0</ele>
        <time>2021-07-18T06:34:44Z</time>
      </trkpt>
      <trkpt lat="43.3797140" lon="-4.4024370">
        <ele>24.4</ele>
        <time>2021-07-18T06:34:45Z</time>
      </trkpt>
      <trkpt lat="43.3797000" lon="-4.4024580">
        <ele>24.8</ele>
        <time>2021-07-18T06:34:46Z</time>
      </trkpt>
      <trkpt lat="43.3796880" lon="-4.4024780">
        <ele>25.2</ele>
        <time>2021-07-18T06:34:47Z</time>
      </trkpt>
      <trkpt lat="43.3796760" lon="-4.4024980">
        <ele>25.8</ele>
        <time>2021-07-18T06:34:48Z</time>
      </trkpt>
      <trkpt lat="43.3796240" lon="-4.4025850">
        <ele>25.8</ele>
        <time>2021-07-18T06:34:52Z</time>
      </trkpt>
      <trkpt lat="43.3795600" lon="-4.4027000">
        <ele>26.2</ele>
        <time>2021-07-18T06:34:57Z</time>
      </trkpt>
      <trkpt lat="43.3795490" lon="-4.4027220">
        <ele>26.6</ele>
        <time>2021-07-18T06:34:58Z</time>
      </trkpt>
      <trkpt lat="43.3795360" lon="-4.4027440">
        <ele>27.0</ele>
        <time>2021-07-18T06:34:59Z</time>
      </trkpt>
      <trkpt lat="43.3795200" lon="-4.4027690">
        <ele>27.4</ele>
        <time>2021-07-18T06:35:00Z</time>
      </trkpt>
      <trkpt lat="43.3795050" lon="-4.4027900">
        <ele>27.8</ele>
        <time>2021-07-18T06:35:01Z</time>
      </trkpt>
      <trkpt lat="43.3793940" lon="-4.4029640">
        <ele>27.8</ele>
        <time>2021-07-18T06:35:08Z</time>
      </trkpt>
      <trkpt lat="43.3792760" lon="-4.4031600">
        <ele>27.8</ele>
        <time>2021-07-18T06:35:14Z</time>
      </trkpt>
      <trkpt lat="43.3792370" lon="-4.4032310">
        <ele>27.8</ele>
        <time>2021-07-18T06:35:16Z</time>
      </trkpt>
      <trkpt lat="43.3791870" lon="-4.4033400">
        <ele>27.8</ele>
        <time>2021-07-18T06:35:19Z</time>
      </trkpt>
      <trkpt lat="43.3791660" lon="-4.4034140">
        <ele>27.8</ele>
        <time>2021-07-18T06:35:21Z</time>
      </trkpt>
      <trkpt lat="43.3791530" lon="-4.4034510">
        <ele>27.8</ele>
        <time>2021-07-18T06:35:22Z</time>
      </trkpt>
      <trkpt lat="43.3791390" lon="-4.4034880">
        <ele>27.8</ele>
        <time>2021-07-18T06:35:23Z</time>
      </trkpt>
      <trkpt lat="43.3790940" lon="-4.4036030">
        <ele>27.8</ele>
        <time>2021-07-18T06:35:26Z</time>
      </trkpt>
      <trkpt lat="43.3790140" lon="-4.4037860">
        <ele>27.8</ele>
        <time>2021-07-18T06:35:30Z</time>
      </trkpt>
      <trkpt lat="43.3788480" lon="-4.4039970">
        <ele>27.8</ele>
        <time>2021-07-18T06:35:34Z</time>
      </trkpt>
      <trkpt lat="43.3786090" lon="-4.4042170">
        <ele>27.4</ele>
        <time>2021-07-18T06:35:38Z</time>
      </trkpt>
      <trkpt lat="43.3785490" lon="-4.4042730">
        <ele>27.0</ele>
        <time>2021-07-18T06:35:39Z</time>
      </trkpt>
      <trkpt lat="43.3784920" lon="-4.4043350">
        <ele>26.4</ele>
        <time>2021-07-18T06:35:40Z</time>
      </trkpt>
      <trkpt lat="43.3784410" lon="-4.4043980">
        <ele>26.0</ele>
        <time>2021-07-18T06:35:41Z</time>
      </trkpt>
      <trkpt lat="43.3783940" lon="-4.4044670">
        <ele>25.6</ele>
        <time>2021-07-18T06:35:42Z</time>
      </trkpt>
      <trkpt lat="43.3783110" lon="-4.4046170">
        <ele>25.2</ele>
        <time>2021-07-18T06:35:44Z</time>
      </trkpt>
      <trkpt lat="43.3782820" lon="-4.4047020">
        <ele>24.8</ele>
        <time>2021-07-18T06:35:45Z</time>
      </trkpt>
      <trkpt lat="43.3782570" lon="-4.4047900">
        <ele>24.4</ele>
        <time>2021-07-18T06:35:46Z</time>
      </trkpt>
      <trkpt lat="43.3782390" lon="-4.4048770">
        <ele>23.8</ele>
        <time>2021-07-18T06:35:47Z</time>
      </trkpt>
      <trkpt lat="43.3782260" lon="-4.4049620">
        <ele>23.4</ele>
        <time>2021-07-18T06:35:48Z</time>
      </trkpt>
      <trkpt lat="43.3782100" lon="-4.4052230">
        <ele>23.4</ele>
        <time>2021-07-18T06:35:51Z</time>
      </trkpt>
      <trkpt lat="43.3782070" lon="-4.4053080">
        <ele>23.4</ele>
        <time>2021-07-18T06:35:52Z</time>
      </trkpt>
      <trkpt lat="43.3782140" lon="-4.4054800">
        <ele>23.4</ele>
        <time>2021-07-18T06:35:54Z</time>
      </trkpt>
      <trkpt lat="43.3782180" lon="-4.4055640">
        <ele>23.0</ele>
        <time>2021-07-18T06:35:55Z</time>
      </trkpt>
      <trkpt lat="43.3782250" lon="-4.4056490">
        <ele>22.2</ele>
        <time>2021-07-18T06:35:56Z</time>
      </trkpt>
      <trkpt lat="43.3782310" lon="-4.4057320">
        <ele>21.8</ele>
        <time>2021-07-18T06:35:57Z</time>
      </trkpt>
      <trkpt lat="43.3782360" lon="-4.4058100">
        <ele>21.4</ele>
        <time>2021-07-18T06:35:58Z</time>
      </trkpt>
      <trkpt lat="43.3782520" lon="-4.4060250">
        <ele>21.4</ele>
        <time>2021-07-18T06:36:01Z</time>
      </trkpt>
      <trkpt lat="43.3782830" lon="-4.4063650">
        <ele>21.4</ele>
        <time>2021-07-18T06:36:07Z</time>
      </trkpt>
      <trkpt lat="43.3782830" lon="-4.4064220">
        <ele>21.4</ele>
        <time>2021-07-18T06:36:08Z</time>
      </trkpt>
      <trkpt lat="43.3782800" lon="-4.4064750">
        <ele>21.4</ele>
        <time>2021-07-18T06:36:09Z</time>
      </trkpt>
      <trkpt lat="43.3782690" lon="-4.4065740">
        <ele>21.4</ele>
        <time>2021-07-18T06:36:11Z</time>
      </trkpt>
      <trkpt lat="43.3782390" lon="-4.4066640">
        <ele>21.4</ele>
        <time>2021-07-18T06:36:13Z</time>
      </trkpt>
      <trkpt lat="43.3781420" lon="-4.4068210">
        <ele>21.4</ele>
        <time>2021-07-18T06:36:17Z</time>
      </trkpt>
      <trkpt lat="43.3780870" lon="-4.4068830">
        <ele>21.4</ele>
        <time>2021-07-18T06:36:19Z</time>
      </trkpt>
      <trkpt lat="43.3778950" lon="-4.4070370">
        <ele>21.4</ele>
        <time>2021-07-18T06:36:25Z</time>
      </trkpt>
      <trkpt lat="43.3776000" lon="-4.4072360">
        <ele>21.4</ele>
        <time>2021-07-18T06:36:33Z</time>
      </trkpt>
      <trkpt lat="43.3773190" lon="-4.4074730">
        <ele>21.4</ele>
        <time>2021-07-18T06:36:41Z</time>
      </trkpt>
      <trkpt lat="43.3771760" lon="-4.4076230">
        <ele>21.4</ele>
        <time>2021-07-18T06:36:46Z</time>
      </trkpt>
      <trkpt lat="43.3771270" lon="-4.4076780">
        <ele>21.4</ele>
        <time>2021-07-18T06:36:48Z</time>
      </trkpt>
      <trkpt lat="43.3770770" lon="-4.4077280">
        <ele>21.4</ele>
        <time>2021-07-18T06:36:50Z</time>
      </trkpt>
      <trkpt lat="43.3769600" lon="-4.4078160">
        <ele>21.4</ele>
        <time>2021-07-18T06:36:54Z</time>
      </trkpt>
      <trkpt lat="43.3769000" lon="-4.4078520">
        <ele>21.4</ele>
        <time>2021-07-18T06:36:56Z</time>
      </trkpt>
      <trkpt lat="43.3766850" lon="-4.4079590">
        <ele>21.4</ele>
        <time>2021-07-18T06:37:02Z</time>
      </trkpt>
      <trkpt lat="43.3766450" lon="-4.4079870">
        <ele>21.4</ele>
        <time>2021-07-18T06:37:03Z</time>
      </trkpt>
      <trkpt lat="43.3765660" lon="-4.4080600">
        <ele>21.4</ele>
        <time>2021-07-18T06:37:05Z</time>
      </trkpt>
      <trkpt lat="43.3765050" lon="-4.4081320">
        <ele>21.4</ele>
        <time>2021-07-18T06:37:07Z</time>
      </trkpt>
      <trkpt lat="43.3764510" lon="-4.4082170">
        <ele>21.4</ele>
        <time>2021-07-18T06:37:09Z</time>
      </trkpt>
      <trkpt lat="43.3764290" lon="-4.4082680">
        <ele>21.4</ele>
        <time>2021-07-18T06:37:10Z</time>
      </trkpt>
      <trkpt lat="43.3763200" lon="-4.4085000">
        <ele>21.4</ele>
        <time>2021-07-18T06:37:15Z</time>
      </trkpt>
      <trkpt lat="43.3762680" lon="-4.4086520">
        <ele>21.4</ele>
        <time>2021-07-18T06:37:19Z</time>
      </trkpt>
      <trkpt lat="43.3762510" lon="-4.4086880">
        <ele>21.4</ele>
        <time>2021-07-18T06:37:20Z</time>
      </trkpt>
      <trkpt lat="43.3762050" lon="-4.4088120">
        <ele>21.4</ele>
        <time>2021-07-18T06:37:23Z</time>
      </trkpt>
      <trkpt lat="43.3761710" lon="-4.4088900">
        <ele>21.4</ele>
        <time>2021-07-18T06:37:25Z</time>
      </trkpt>
      <trkpt lat="43.3761360" lon="-4.4089660">
        <ele>21.4</ele>
        <time>2021-07-18T06:37:27Z</time>
      </trkpt>
      <trkpt lat="43.3760600" lon="-4.4091110">
        <ele>21.4</ele>
        <time>2021-07-18T06:37:31Z</time>
      </trkpt>
      <trkpt lat="43.3759820" lon="-4.4092260">
        <ele>21.4</ele>
        <time>2021-07-18T06:37:35Z</time>
      </trkpt>
      <trkpt lat="43.3759050" lon="-4.4093520">
        <ele>21.4</ele>
        <time>2021-07-18T06:37:39Z</time>
      </trkpt>
      <trkpt lat="43.3758320" lon="-4.4094550">
        <ele>21.4</ele>
        <time>2021-07-18T06:37:42Z</time>
      </trkpt>
      <trkpt lat="43.3757750" lon="-4.4095350">
        <ele>21.4</ele>
        <time>2021-07-18T06:37:44Z</time>
      </trkpt>
      <trkpt lat="43.3756170" lon="-4.4097170">
        <ele>21.4</ele>
        <time>2021-07-18T06:37:48Z</time>
      </trkpt>
      <trkpt lat="43.3755710" lon="-4.4097630">
        <ele>21.4</ele>
        <time>2021-07-18T06:37:49Z</time>
      </trkpt>
      <trkpt lat="43.3752450" lon="-4.4100120">
        <ele>21.4</ele>
        <time>2021-07-18T06:37:55Z</time>
      </trkpt>
      <trkpt lat="43.3750890" lon="-4.4101130">
        <ele>21.4</ele>
        <time>2021-07-18T06:37:58Z</time>
      </trkpt>
      <trkpt lat="43.3749380" lon="-4.4102050">
        <ele>20.8</ele>
        <time>2021-07-18T06:38:01Z</time>
      </trkpt>
      <trkpt lat="43.3748930" lon="-4.4102360">
        <ele>20.4</ele>
        <time>2021-07-18T06:38:02Z</time>
      </trkpt>
      <trkpt lat="43.3748500" lon="-4.4102630">
        <ele>20.0</ele>
        <time>2021-07-18T06:38:03Z</time>
      </trkpt>
      <trkpt lat="43.3748120" lon="-4.4102950">
        <ele>19.6</ele>
        <time>2021-07-18T06:38:04Z</time>
      </trkpt>
      <trkpt lat="43.3747790" lon="-4.4103260">
        <ele>19.2</ele>
        <time>2021-07-18T06:38:05Z</time>
      </trkpt>
      <trkpt lat="43.3747050" lon="-4.4104010">
        <ele>19.2</ele>
        <time>2021-07-18T06:38:08Z</time>
      </trkpt>
      <trkpt lat="43.3746420" lon="-4.4104550">
        <ele>19.2</ele>
        <time>2021-07-18T06:38:11Z</time>
      </trkpt>
      <trkpt lat="43.3746110" lon="-4.4104870">
        <ele>19.2</ele>
        <time>2021-07-18T06:38:13Z</time>
      </trkpt>
      <trkpt lat="43.3745960" lon="-4.4105040">
        <ele>19.2</ele>
        <time>2021-07-18T06:38:14Z</time>
      </trkpt>
      <trkpt lat="43.3745470" lon="-4.4105500">
        <ele>19.8</ele>
        <time>2021-07-18T06:38:17Z</time>
      </trkpt>
      <trkpt lat="43.3745330" lon="-4.4105630">
        <ele>20.2</ele>
        <time>2021-07-18T06:38:18Z</time>
      </trkpt>
      <trkpt lat="43.3745200" lon="-4.4105800">
        <ele>20.6</ele>
        <time>2021-07-18T06:38:19Z</time>
      </trkpt>
      <trkpt lat="43.3745040" lon="-4.4105950">
        <ele>21.0</ele>
        <time>2021-07-18T06:38:20Z</time>
      </trkpt>
      <trkpt lat="43.3744910" lon="-4.4106100">
        <ele>21.4</ele>
        <time>2021-07-18T06:38:21Z</time>
      </trkpt>
      <trkpt lat="43.3744550" lon="-4.4106330">
        <ele>21.4</ele>
        <time>2021-07-18T06:38:23Z</time>
      </trkpt>
      <trkpt lat="43.3744380" lon="-4.4106430">
        <ele>21.8</ele>
        <time>2021-07-18T06:38:24Z</time>
      </trkpt>
      <trkpt lat="43.3744230" lon="-4.4106550">
        <ele>22.4</ele>
        <time>2021-07-18T06:38:25Z</time>
      </trkpt>
      <trkpt lat="43.3744110" lon="-4.4106660">
        <ele>22.8</ele>
        <time>2021-07-18T06:38:26Z</time>
      </trkpt>
      <trkpt lat="43.3743960" lon="-4.4106750">
        <ele>23.2</ele>
        <time>2021-07-18T06:38:27Z</time>
      </trkpt>
      <trkpt lat="43.3743850" lon="-4.4106840">
        <ele>23.6</ele>
        <time>2021-07-18T06:38:28Z</time>
      </trkpt>
      <trkpt lat="43.3743380" lon="-4.4107130">
        <ele>23.6</ele>
        <time>2021-07-18T06:38:31Z</time>
      </trkpt>
      <trkpt lat="43.3743210" lon="-4.4107170">
        <ele>24.0</ele>
        <time>2021-07-18T06:38:32Z</time>
      </trkpt>
      <trkpt lat="43.3743040" lon="-4.4107220">
        <ele>24.4</ele>
        <time>2021-07-18T06:38:33Z</time>
      </trkpt>
      <trkpt lat="43.3742890" lon="-4.4107220">
        <ele>24.8</ele>
        <time>2021-07-18T06:38:34Z</time>
      </trkpt>
      <trkpt lat="43.3742740" lon="-4.4107210">
        <ele>25.2</ele>
        <time>2021-07-18T06:38:35Z</time>
      </trkpt>
      <trkpt lat="43.3742570" lon="-4.4107200">
        <ele>25.6</ele>
        <time>2021-07-18T06:38:36Z</time>
      </trkpt>
      <trkpt lat="43.3742100" lon="-4.4107200">
        <ele>25.6</ele>
        <time>2021-07-18T06:38:39Z</time>
      </trkpt>
      <trkpt lat="43.3741810" lon="-4.4107060">
        <ele>26.0</ele>
        <time>2021-07-18T06:38:41Z</time>
      </trkpt>
      <trkpt lat="43.3741630" lon="-4.4107020">
        <ele>26.6</ele>
        <time>2021-07-18T06:38:42Z</time>
      </trkpt>
      <trkpt lat="43.3741500" lon="-4.4107000">
        <ele>27.0</ele>
        <time>2021-07-18T06:38:43Z</time>
      </trkpt>
      <trkpt lat="43.3741360" lon="-4.4106970">
        <ele>27.4</ele>
        <time>2021-07-18T06:38:44Z</time>
      </trkpt>
      <trkpt lat="43.3741190" lon="-4.4106980">
        <ele>27.8</ele>
        <time>2021-07-18T06:38:45Z</time>
      </trkpt>
      <trkpt lat="43.3740890" lon="-4.4106900">
        <ele>27.8</ele>
        <time>2021-07-18T06:38:47Z</time>
      </trkpt>
      <trkpt lat="43.3740570" lon="-4.4106820">
        <ele>28.2</ele>
        <time>2021-07-18T06:38:49Z</time>
      </trkpt>
      <trkpt lat="43.3740410" lon="-4.4106770">
        <ele>28.6</ele>
        <time>2021-07-18T06:38:50Z</time>
      </trkpt>
      <trkpt lat="43.3740260" lon="-4.4106660">
        <ele>29.0</ele>
        <time>2021-07-18T06:38:51Z</time>
      </trkpt>
      <trkpt lat="43.3740120" lon="-4.4106530">
        <ele>29.4</ele>
        <time>2021-07-18T06:38:52Z</time>
      </trkpt>
      <trkpt lat="43.3739960" lon="-4.4106460">
        <ele>29.8</ele>
        <time>2021-07-18T06:38:53Z</time>
      </trkpt>
      <trkpt lat="43.3739650" lon="-4.4106400">
        <ele>29.8</ele>
        <time>2021-07-18T06:38:55Z</time>
      </trkpt>
      <trkpt lat="43.3738650" lon="-4.4106110">
        <ele>29.8</ele>
        <time>2021-07-18T06:39:01Z</time>
      </trkpt>
      <trkpt lat="43.3738100" lon="-4.4106070">
        <ele>29.8</ele>
        <time>2021-07-18T06:39:04Z</time>
      </trkpt>
      <trkpt lat="43.3736350" lon="-4.4106760">
        <ele>29.8</ele>
        <time>2021-07-18T06:39:11Z</time>
      </trkpt>
      <trkpt lat="43.3734090" lon="-4.4107790">
        <ele>29.8</ele>
        <time>2021-07-18T06:39:16Z</time>
      </trkpt>
      <trkpt lat="43.3732510" lon="-4.4108630">
        <ele>29.8</ele>
        <time>2021-07-18T06:39:19Z</time>
      </trkpt>
      <trkpt lat="43.3730270" lon="-4.4109830">
        <ele>29.8</ele>
        <time>2021-07-18T06:39:23Z</time>
      </trkpt>
      <trkpt lat="43.3728190" lon="-4.4110660">
        <ele>29.8</ele>
        <time>2021-07-18T06:39:27Z</time>
      </trkpt>
      <trkpt lat="43.3727230" lon="-4.4110720">
        <ele>29.8</ele>
        <time>2021-07-18T06:39:29Z</time>
      </trkpt>
      <trkpt lat="43.3726780" lon="-4.4110670">
        <ele>29.8</ele>
        <time>2021-07-18T06:39:30Z</time>
      </trkpt>
      <trkpt lat="43.3725980" lon="-4.4110570">
        <ele>29.8</ele>
        <time>2021-07-18T06:39:32Z</time>
      </trkpt>
      <trkpt lat="43.3724570" lon="-4.4109770">
        <ele>29.8</ele>
        <time>2021-07-18T06:39:36Z</time>
      </trkpt>
      <trkpt lat="43.3723080" lon="-4.4108040">
        <ele>29.8</ele>
        <time>2021-07-18T06:39:42Z</time>
      </trkpt>
      <trkpt lat="43.3722180" lon="-4.4106730">
        <ele>29.8</ele>
        <time>2021-07-18T06:39:48Z</time>
      </trkpt>
      <trkpt lat="43.3721920" lon="-4.4106240">
        <ele>30.2</ele>
        <time>2021-07-18T06:39:50Z</time>
      </trkpt>
      <trkpt lat="43.3721750" lon="-4.4106010">
        <ele>30.6</ele>
        <time>2021-07-18T06:39:51Z</time>
      </trkpt>
      <trkpt lat="43.3721590" lon="-4.4105790">
        <ele>31.0</ele>
        <time>2021-07-18T06:39:52Z</time>
      </trkpt>
      <trkpt lat="43.3721480" lon="-4.4105560">
        <ele>31.6</ele>
        <time>2021-07-18T06:39:53Z</time>
      </trkpt>
      <trkpt lat="43.3721360" lon="-4.4105340">
        <ele>32.0</ele>
        <time>2021-07-18T06:39:54Z</time>
      </trkpt>
      <trkpt lat="43.3721240" lon="-4.4105120">
        <ele>32.0</ele>
        <time>2021-07-18T06:39:55Z</time>
      </trkpt>
      <trkpt lat="43.3720430" lon="-4.4103950">
        <ele>32.4</ele>
        <time>2021-07-18T06:40:00Z</time>
      </trkpt>
      <trkpt lat="43.3720250" lon="-4.4103720">
        <ele>32.8</ele>
        <time>2021-07-18T06:40:01Z</time>
      </trkpt>
      <trkpt lat="43.3720080" lon="-4.4103500">
        <ele>33.2</ele>
        <time>2021-07-18T06:40:02Z</time>
      </trkpt>
      <trkpt lat="43.3719910" lon="-4.4103280">
        <ele>34.0</ele>
        <time>2021-07-18T06:40:03Z</time>
      </trkpt>
      <trkpt lat="43.3719690" lon="-4.4103070">
        <ele>34.0</ele>
        <time>2021-07-18T06:40:04Z</time>
      </trkpt>
      <trkpt lat="43.3718570" lon="-4.4101750">
        <ele>34.0</ele>
        <time>2021-07-18T06:40:08Z</time>
      </trkpt>
      <trkpt lat="43.3717990" lon="-4.4100830">
        <ele>34.0</ele>
        <time>2021-07-18T06:40:10Z</time>
      </trkpt>
      <trkpt lat="43.3717490" lon="-4.4099810">
        <ele>34.0</ele>
        <time>2021-07-18T06:40:12Z</time>
      </trkpt>
      <trkpt lat="43.3717260" lon="-4.4099300">
        <ele>33.6</ele>
        <time>2021-07-18T06:40:13Z</time>
      </trkpt>
      <trkpt lat="43.3717050" lon="-4.4098730">
        <ele>33.2</ele>
        <time>2021-07-18T06:40:14Z</time>
      </trkpt>
      <trkpt lat="43.3716880" lon="-4.4098140">
        <ele>32.6</ele>
        <time>2021-07-18T06:40:15Z</time>
      </trkpt>
      <trkpt lat="43.3716690" lon="-4.4097600">
        <ele>32.2</ele>
        <time>2021-07-18T06:40:16Z</time>
      </trkpt>
      <trkpt lat="43.3716490" lon="-4.4097060">
        <ele>31.8</ele>
        <time>2021-07-18T06:40:17Z</time>
      </trkpt>
      <trkpt lat="43.3715760" lon="-4.4095550">
        <ele>31.8</ele>
        <time>2021-07-18T06:40:20Z</time>
      </trkpt>
      <trkpt lat="43.3715070" lon="-4.4094820">
        <ele>31.4</ele>
        <time>2021-07-18T06:40:22Z</time>
      </trkpt>
      <trkpt lat="43.3714610" lon="-4.4094560">
        <ele>30.8</ele>
        <time>2021-07-18T06:40:23Z</time>
      </trkpt>
      <trkpt lat="43.3714060" lon="-4.4094360">
        <ele>30.4</ele>
        <time>2021-07-18T06:40:24Z</time>
      </trkpt>
      <trkpt lat="43.3713430" lon="-4.4094280">
        <ele>30.0</ele>
        <time>2021-07-18T06:40:25Z</time>
      </trkpt>
      <trkpt lat="43.3712750" lon="-4.4094310">
        <ele>29.4</ele>
        <time>2021-07-18T06:40:26Z</time>
      </trkpt>
      <trkpt lat="43.3712020" lon="-4.4094460">
        <ele>29.0</ele>
        <time>2021-07-18T06:40:27Z</time>
      </trkpt>
      <trkpt lat="43.3711280" lon="-4.4094700">
        <ele>28.0</ele>
        <time>2021-07-18T06:40:28Z</time>
      </trkpt>
      <trkpt lat="43.3710550" lon="-4.4094970">
        <ele>27.4</ele>
        <time>2021-07-18T06:40:29Z</time>
      </trkpt>
      <trkpt lat="43.3709840" lon="-4.4095230">
        <ele>27.4</ele>
        <time>2021-07-18T06:40:30Z</time>
      </trkpt>
      <trkpt lat="43.3708470" lon="-4.4095730">
        <ele>27.0</ele>
        <time>2021-07-18T06:40:32Z</time>
      </trkpt>
      <trkpt lat="43.3707790" lon="-4.4096000">
        <ele>26.6</ele>
        <time>2021-07-18T06:40:33Z</time>
      </trkpt>
      <trkpt lat="43.3707110" lon="-4.4096260">
        <ele>26.2</ele>
        <time>2021-07-18T06:40:34Z</time>
      </trkpt>
      <trkpt lat="43.3706430" lon="-4.4096520">
        <ele>25.8</ele>
        <time>2021-07-18T06:40:35Z</time>
      </trkpt>
      <trkpt lat="43.3705750" lon="-4.4096790">
        <ele>25.4</ele>
        <time>2021-07-18T06:40:36Z</time>
      </trkpt>
      <trkpt lat="43.3704440" lon="-4.4097280">
        <ele>25.4</ele>
        <time>2021-07-18T06:40:38Z</time>
      </trkpt>
      <trkpt lat="43.3703820" lon="-4.4097500">
        <ele>25.4</ele>
        <time>2021-07-18T06:40:39Z</time>
      </trkpt>
      <trkpt lat="43.3702010" lon="-4.4097990">
        <ele>25.4</ele>
        <time>2021-07-18T06:40:42Z</time>
      </trkpt>
      <trkpt lat="43.3701370" lon="-4.4098030">
        <ele>25.4</ele>
        <time>2021-07-18T06:40:43Z</time>
      </trkpt>
      <trkpt lat="43.3700720" lon="-4.4098030">
        <ele>24.8</ele>
        <time>2021-07-18T06:40:44Z</time>
      </trkpt>
      <trkpt lat="43.3700010" lon="-4.4097930">
        <ele>24.4</ele>
        <time>2021-07-18T06:40:45Z</time>
      </trkpt>
      <trkpt lat="43.3699370" lon="-4.4097830">
        <ele>24.0</ele>
        <time>2021-07-18T06:40:46Z</time>
      </trkpt>
      <trkpt lat="43.3698720" lon="-4.4097720">
        <ele>23.6</ele>
        <time>2021-07-18T06:40:47Z</time>
      </trkpt>
      <trkpt lat="43.3698110" lon="-4.4097630">
        <ele>23.2</ele>
        <time>2021-07-18T06:40:48Z</time>
      </trkpt>
      <trkpt lat="43.3697530" lon="-4.4097540">
        <ele>22.6</ele>
        <time>2021-07-18T06:40:49Z</time>
      </trkpt>
      <trkpt lat="43.3696980" lon="-4.4097450">
        <ele>22.2</ele>
        <time>2021-07-18T06:40:50Z</time>
      </trkpt>
      <trkpt lat="43.3696460" lon="-4.4097340">
        <ele>21.6</ele>
        <time>2021-07-18T06:40:51Z</time>
      </trkpt>
      <trkpt lat="43.3695970" lon="-4.4097230">
        <ele>20.4</ele>
        <time>2021-07-18T06:40:52Z</time>
      </trkpt>
      <trkpt lat="43.3695490" lon="-4.4097120">
        <ele>19.8</ele>
        <time>2021-07-18T06:40:53Z</time>
      </trkpt>
      <trkpt lat="43.3695050" lon="-4.4096980">
        <ele>19.2</ele>
        <time>2021-07-18T06:40:54Z</time>
      </trkpt>
      <trkpt lat="43.3694610" lon="-4.4096830">
        <ele>18.4</ele>
        <time>2021-07-18T06:40:55Z</time>
      </trkpt>
      <trkpt lat="43.3694200" lon="-4.4096710">
        <ele>18.0</ele>
        <time>2021-07-18T06:40:56Z</time>
      </trkpt>
      <trkpt lat="43.3693850" lon="-4.4096630">
        <ele>17.6</ele>
        <time>2021-07-18T06:40:57Z</time>
      </trkpt>
      <trkpt lat="43.3693540" lon="-4.4096540">
        <ele>17.2</ele>
        <time>2021-07-18T06:40:58Z</time>
      </trkpt>
      <trkpt lat="43.3693270" lon="-4.4096450">
        <ele>16.8</ele>
        <time>2021-07-18T06:40:59Z</time>
      </trkpt>
      <trkpt lat="43.3692980" lon="-4.4096340">
        <ele>16.2</ele>
        <time>2021-07-18T06:41:00Z</time>
      </trkpt>
      <trkpt lat="43.3691760" lon="-4.4096250">
        <ele>16.2</ele>
        <time>2021-07-18T06:41:04Z</time>
      </trkpt>
      <trkpt lat="43.3691420" lon="-4.4096230">
        <ele>16.2</ele>
        <time>2021-07-18T06:41:05Z</time>
      </trkpt>
      <trkpt lat="43.3691080" lon="-4.4096180">
        <ele>16.2</ele>
        <time>2021-07-18T06:41:06Z</time>
      </trkpt>
      <trkpt lat="43.3690400" lon="-4.4096080">
        <ele>16.2</ele>
        <time>2021-07-18T06:41:08Z</time>
      </trkpt>
      <trkpt lat="43.3689660" lon="-4.4095910">
        <ele>16.2</ele>
        <time>2021-07-18T06:41:10Z</time>
      </trkpt>
      <trkpt lat="43.3688820" lon="-4.4095620">
        <ele>16.2</ele>
        <time>2021-07-18T06:41:12Z</time>
      </trkpt>
      <trkpt lat="43.3687370" lon="-4.4095310">
        <ele>16.2</ele>
        <time>2021-07-18T06:41:15Z</time>
      </trkpt>
      <trkpt lat="43.3686330" lon="-4.4095360">
        <ele>15.8</ele>
        <time>2021-07-18T06:41:17Z</time>
      </trkpt>
      <trkpt lat="43.3685780" lon="-4.4095440">
        <ele>15.4</ele>
        <time>2021-07-18T06:41:18Z</time>
      </trkpt>
      <trkpt lat="43.3685230" lon="-4.4095520">
        <ele>15.0</ele>
        <time>2021-07-18T06:41:19Z</time>
      </trkpt>
      <trkpt lat="43.3684690" lon="-4.4095610">
        <ele>14.4</ele>
        <time>2021-07-18T06:41:20Z</time>
      </trkpt>
      <trkpt lat="43.3684160" lon="-4.4095740">
        <ele>14.0</ele>
        <time>2021-07-18T06:41:21Z</time>
      </trkpt>
      <trkpt lat="43.3682650" lon="-4.4096100">
        <ele>13.6</ele>
        <time>2021-07-18T06:41:24Z</time>
      </trkpt>
      <trkpt lat="43.3682180" lon="-4.4096140">
        <ele>13.2</ele>
        <time>2021-07-18T06:41:25Z</time>
      </trkpt>
      <trkpt lat="43.3681690" lon="-4.4096110">
        <ele>12.8</ele>
        <time>2021-07-18T06:41:26Z</time>
      </trkpt>
      <trkpt lat="43.3681190" lon="-4.4096020">
        <ele>12.4</ele>
        <time>2021-07-18T06:41:27Z</time>
      </trkpt>
      <trkpt lat="43.3680690" lon="-4.4095900">
        <ele>12.0</ele>
        <time>2021-07-18T06:41:28Z</time>
      </trkpt>
      <trkpt lat="43.3679730" lon="-4.4095620">
        <ele>12.0</ele>
        <time>2021-07-18T06:41:30Z</time>
      </trkpt>
      <trkpt lat="43.3677950" lon="-4.4095120">
        <ele>12.0</ele>
        <time>2021-07-18T06:41:35Z</time>
      </trkpt>
      <trkpt lat="43.3677610" lon="-4.4094990">
        <ele>12.0</ele>
        <time>2021-07-18T06:41:36Z</time>
      </trkpt>
      <trkpt lat="43.3676970" lon="-4.4094730">
        <ele>12.0</ele>
        <time>2021-07-18T06:41:38Z</time>
      </trkpt>
      <trkpt lat="43.3676380" lon="-4.4094460">
        <ele>12.0</ele>
        <time>2021-07-18T06:41:40Z</time>
      </trkpt>
      <trkpt lat="43.3675830" lon="-4.4094230">
        <ele>12.0</ele>
        <time>2021-07-18T06:41:42Z</time>
      </trkpt>
      <trkpt lat="43.3675550" lon="-4.4094120">
        <ele>12.0</ele>
        <time>2021-07-18T06:41:43Z</time>
      </trkpt>
      <trkpt lat="43.3674220" lon="-4.4093540">
        <ele>12.0</ele>
        <time>2021-07-18T06:41:48Z</time>
      </trkpt>
      <trkpt lat="43.3673750" lon="-4.4093310">
        <ele>12.0</ele>
        <time>2021-07-18T06:41:50Z</time>
      </trkpt>
      <trkpt lat="43.3673150" lon="-4.4093010">
        <ele>12.0</ele>
        <time>2021-07-18T06:41:53Z</time>
      </trkpt>
      <trkpt lat="43.3672570" lon="-4.4092870">
        <ele>12.0</ele>
        <time>2021-07-18T06:41:56Z</time>
      </trkpt>
      <trkpt lat="43.3671850" lon="-4.4092590">
        <ele>12.4</ele>
        <time>2021-07-18T06:41:59Z</time>
      </trkpt>
      <trkpt lat="43.3671620" lon="-4.4092520">
        <ele>12.8</ele>
        <time>2021-07-18T06:42:00Z</time>
      </trkpt>
      <trkpt lat="43.3671380" lon="-4.4092450">
        <ele>13.2</ele>
        <time>2021-07-18T06:42:01Z</time>
      </trkpt>
      <trkpt lat="43.3671150" lon="-4.4092410">
        <ele>13.8</ele>
        <time>2021-07-18T06:42:02Z</time>
      </trkpt>
      <trkpt lat="43.3670920" lon="-4.4092350">
        <ele>14.2</ele>
        <time>2021-07-18T06:42:03Z</time>
      </trkpt>
      <trkpt lat="43.3670000" lon="-4.4092020">
        <ele>14.2</ele>
        <time>2021-07-18T06:42:07Z</time>
      </trkpt>
      <trkpt lat="43.3668840" lon="-4.4091830">
        <ele>14.2</ele>
        <time>2021-07-18T06:42:12Z</time>
      </trkpt>
      <trkpt lat="43.3668100" lon="-4.4091870">
        <ele>14.6</ele>
        <time>2021-07-18T06:42:15Z</time>
      </trkpt>
      <trkpt lat="43.3667860" lon="-4.4091890">
        <ele>15.0</ele>
        <time>2021-07-18T06:42:16Z</time>
      </trkpt>
      <trkpt lat="43.3667610" lon="-4.4091910">
        <ele>15.4</ele>
        <time>2021-07-18T06:42:17Z</time>
      </trkpt>
      <trkpt lat="43.3667350" lon="-4.4091940">
        <ele>15.8</ele>
        <time>2021-07-18T06:42:18Z</time>
      </trkpt>
      <trkpt lat="43.3667100" lon="-4.4091990">
        <ele>16.2</ele>
        <time>2021-07-18T06:42:19Z</time>
      </trkpt>
      <trkpt lat="43.3666870" lon="-4.4092060">
        <ele>16.2</ele>
        <time>2021-07-18T06:42:20Z</time>
      </trkpt>
      <trkpt lat="43.3665710" lon="-4.4093260">
        <ele>16.2</ele>
        <time>2021-07-18T06:42:26Z</time>
      </trkpt>
      <trkpt lat="43.3664810" lon="-4.4094370">
        <ele>16.2</ele>
        <time>2021-07-18T06:42:32Z</time>
      </trkpt>
      <trkpt lat="43.3664750" lon="-4.4094630">
        <ele>16.2</ele>
        <time>2021-07-18T06:42:33Z</time>
      </trkpt>
      <trkpt lat="43.3664760" lon="-4.4094880">
        <ele>16.6</ele>
        <time>2021-07-18T06:42:34Z</time>
      </trkpt>
      <trkpt lat="43.3664830" lon="-4.4095040">
        <ele>17.0</ele>
        <time>2021-07-18T06:42:35Z</time>
      </trkpt>
      <trkpt lat="43.3664870" lon="-4.4095120">
        <ele>17.4</ele>
        <time>2021-07-18T06:42:36Z</time>
      </trkpt>
      <trkpt lat="43.3664270" lon="-4.4095280">
        <ele>18.2</ele>
        <time>2021-07-18T06:43:30Z</time>
      </trkpt>
      <trkpt lat="43.3664050" lon="-4.4094970">
        <ele>18.2</ele>
        <time>2021-07-18T06:43:32Z</time>
      </trkpt>
      <trkpt lat="43.3663630" lon="-4.4094330">
        <ele>18.2</ele>
        <time>2021-07-18T06:43:35Z</time>
      </trkpt>
      <trkpt lat="43.3663050" lon="-4.4093110">
        <ele>18.2</ele>
        <time>2021-07-18T06:43:39Z</time>
      </trkpt>
      <trkpt lat="43.3662020" lon="-4.4090370">
        <ele>18.2</ele>
        <time>2021-07-18T06:43:44Z</time>
      </trkpt>
      <trkpt lat="43.3660880" lon="-4.4086760">
        <ele>18.2</ele>
        <time>2021-07-18T06:43:49Z</time>
      </trkpt>
      <trkpt lat="43.3660610" lon="-4.4086030">
        <ele>17.8</ele>
        <time>2021-07-18T06:43:50Z</time>
      </trkpt>
      <trkpt lat="43.3660320" lon="-4.4085320">
        <ele>17.4</ele>
        <time>2021-07-18T06:43:51Z</time>
      </trkpt>
      <trkpt lat="43.3660040" lon="-4.4084590">
        <ele>16.8</ele>
        <time>2021-07-18T06:43:52Z</time>
      </trkpt>
      <trkpt lat="43.3659720" lon="-4.4083860">
        <ele>16.4</ele>
        <time>2021-07-18T06:43:53Z</time>
      </trkpt>
      <trkpt lat="43.3659390" lon="-4.4083140">
        <ele>16.0</ele>
        <time>2021-07-18T06:43:54Z</time>
      </trkpt>
      <trkpt lat="43.3659040" lon="-4.4082420">
        <ele>15.6</ele>
        <time>2021-07-18T06:43:55Z</time>
      </trkpt>
      <trkpt lat="43.3658690" lon="-4.4081700">
        <ele>15.2</ele>
        <time>2021-07-18T06:43:56Z</time>
      </trkpt>
      <trkpt lat="43.3658310" lon="-4.4080950">
        <ele>14.8</ele>
        <time>2021-07-18T06:43:57Z</time>
      </trkpt>
      <trkpt lat="43.3657960" lon="-4.4080240">
        <ele>14.4</ele>
        <time>2021-07-18T06:43:58Z</time>
      </trkpt>
      <trkpt lat="43.3657600" lon="-4.4079550">
        <ele>14.0</ele>
        <time>2021-07-18T06:43:59Z</time>
      </trkpt>
      <trkpt lat="43.3656640" lon="-4.4077590">
        <ele>13.6</ele>
        <time>2021-07-18T06:44:02Z</time>
      </trkpt>
      <trkpt lat="43.3656410" lon="-4.4076970">
        <ele>13.2</ele>
        <time>2021-07-18T06:44:03Z</time>
      </trkpt>
      <trkpt lat="43.3656270" lon="-4.4076380">
        <ele>12.8</ele>
        <time>2021-07-18T06:44:04Z</time>
      </trkpt>
      <trkpt lat="43.3656160" lon="-4.4075770">
        <ele>12.4</ele>
        <time>2021-07-18T06:44:05Z</time>
      </trkpt>
      <trkpt lat="43.3656040" lon="-4.4075210">
        <ele>11.8</ele>
        <time>2021-07-18T06:44:06Z</time>
      </trkpt>
      <trkpt lat="43.3655910" lon="-4.4074670">
        <ele>11.2</ele>
        <time>2021-07-18T06:44:07Z</time>
      </trkpt>
      <trkpt lat="43.3655750" lon="-4.4074090">
        <ele>10.6</ele>
        <time>2021-07-18T06:44:08Z</time>
      </trkpt>
      <trkpt lat="43.3655560" lon="-4.4073500">
        <ele>10.2</ele>
        <time>2021-07-18T06:44:09Z</time>
      </trkpt>
      <trkpt lat="43.3655340" lon="-4.4072900">
        <ele>9.6</ele>
        <time>2021-07-18T06:44:10Z</time>
      </trkpt>
      <trkpt lat="43.3654250" lon="-4.4069510">
        <ele>9.6</ele>
        <time>2021-07-18T06:44:16Z</time>
      </trkpt>
      <trkpt lat="43.3654060" lon="-4.4069020">
        <ele>9.6</ele>
        <time>2021-07-18T06:44:17Z</time>
      </trkpt>
      <trkpt lat="43.3653540" lon="-4.4067770">
        <ele>9.2</ele>
        <time>2021-07-18T06:44:20Z</time>
      </trkpt>
      <trkpt lat="43.3653390" lon="-4.4067430">
        <ele>8.8</ele>
        <time>2021-07-18T06:44:21Z</time>
      </trkpt>
      <trkpt lat="43.3653260" lon="-4.4067120">
        <ele>8.4</ele>
        <time>2021-07-18T06:44:22Z</time>
      </trkpt>
      <trkpt lat="43.3653140" lon="-4.4066860">
        <ele>8.0</ele>
        <time>2021-07-18T06:44:23Z</time>
      </trkpt>
      <trkpt lat="43.3653000" lon="-4.4066620">
        <ele>7.6</ele>
        <time>2021-07-18T06:44:24Z</time>
      </trkpt>
      <trkpt lat="43.3652860" lon="-4.4066390">
        <ele>7.6</ele>
        <time>2021-07-18T06:44:25Z</time>
      </trkpt>
      <trkpt lat="43.3652540" lon="-4.4065990">
        <ele>7.6</ele>
        <time>2021-07-18T06:44:27Z</time>
      </trkpt>
      <trkpt lat="43.3652270" lon="-4.4065590">
        <ele>7.6</ele>
        <time>2021-07-18T06:44:29Z</time>
      </trkpt>
      <trkpt lat="43.3652130" lon="-4.4065440">
        <ele>7.6</ele>
        <time>2021-07-18T06:44:30Z</time>
      </trkpt>
      <trkpt lat="43.3651870" lon="-4.4065140">
        <ele>7.6</ele>
        <time>2021-07-18T06:44:32Z</time>
      </trkpt>
      <trkpt lat="43.3651620" lon="-4.4064880">
        <ele>8.0</ele>
        <time>2021-07-18T06:44:34Z</time>
      </trkpt>
      <trkpt lat="43.3651490" lon="-4.4064780">
        <ele>8.8</ele>
        <time>2021-07-18T06:44:35Z</time>
      </trkpt>
      <trkpt lat="43.3651360" lon="-4.4064710">
        <ele>9.2</ele>
        <time>2021-07-18T06:44:36Z</time>
      </trkpt>
      <trkpt lat="43.3651230" lon="-4.4064610">
        <ele>9.6</ele>
        <time>2021-07-18T06:44:37Z</time>
      </trkpt>
      <trkpt lat="43.3651110" lon="-4.4064480">
        <ele>9.6</ele>
        <time>2021-07-18T06:44:38Z</time>
      </trkpt>
      <trkpt lat="43.3650860" lon="-4.4064230">
        <ele>9.6</ele>
        <time>2021-07-18T06:44:40Z</time>
      </trkpt>
      <trkpt lat="43.3650610" lon="-4.4063950">
        <ele>10.0</ele>
        <time>2021-07-18T06:44:42Z</time>
      </trkpt>
      <trkpt lat="43.3650470" lon="-4.4063800">
        <ele>10.4</ele>
        <time>2021-07-18T06:44:43Z</time>
      </trkpt>
      <trkpt lat="43.3650330" lon="-4.4063650">
        <ele>10.8</ele>
        <time>2021-07-18T06:44:44Z</time>
      </trkpt>
      <trkpt lat="43.3650180" lon="-4.4063510">
        <ele>11.4</ele>
        <time>2021-07-18T06:44:45Z</time>
      </trkpt>
      <trkpt lat="43.3650020" lon="-4.4063380">
        <ele>11.8</ele>
        <time>2021-07-18T06:44:46Z</time>
      </trkpt>
      <trkpt lat="43.3649180" lon="-4.4062770">
        <ele>11.8</ele>
        <time>2021-07-18T06:44:52Z</time>
      </trkpt>
      <trkpt lat="43.3649080" lon="-4.4062660">
        <ele>12.2</ele>
        <time>2021-07-18T06:44:53Z</time>
      </trkpt>
      <trkpt lat="43.3648980" lon="-4.4062550">
        <ele>12.6</ele>
        <time>2021-07-18T06:44:54Z</time>
      </trkpt>
      <trkpt lat="43.3648840" lon="-4.4062450">
        <ele>13.0</ele>
        <time>2021-07-18T06:44:55Z</time>
      </trkpt>
      <trkpt lat="43.3648690" lon="-4.4062370">
        <ele>13.4</ele>
        <time>2021-07-18T06:44:56Z</time>
      </trkpt>
      <trkpt lat="43.3648570" lon="-4.4062300">
        <ele>13.8</ele>
        <time>2021-07-18T06:44:57Z</time>
      </trkpt>
      <trkpt lat="43.3648310" lon="-4.4062120">
        <ele>13.8</ele>
        <time>2021-07-18T06:44:59Z</time>
      </trkpt>
      <trkpt lat="43.3648190" lon="-4.4062000">
        <ele>14.2</ele>
        <time>2021-07-18T06:45:00Z</time>
      </trkpt>
      <trkpt lat="43.3648060" lon="-4.4061900">
        <ele>14.6</ele>
        <time>2021-07-18T06:45:01Z</time>
      </trkpt>
      <trkpt lat="43.3647910" lon="-4.4061800">
        <ele>15.0</ele>
        <time>2021-07-18T06:45:02Z</time>
      </trkpt>
      <trkpt lat="43.3647780" lon="-4.4061690">
        <ele>15.4</ele>
        <time>2021-07-18T06:45:03Z</time>
      </trkpt>
      <trkpt lat="43.3647640" lon="-4.4061540">
        <ele>15.8</ele>
        <time>2021-07-18T06:45:04Z</time>
      </trkpt>
      <trkpt lat="43.3647190" lon="-4.4061120">
        <ele>16.2</ele>
        <time>2021-07-18T06:45:07Z</time>
      </trkpt>
      <trkpt lat="43.3647040" lon="-4.4061010">
        <ele>16.8</ele>
        <time>2021-07-18T06:45:08Z</time>
      </trkpt>
      <trkpt lat="43.3646890" lon="-4.4060920">
        <ele>17.2</ele>
        <time>2021-07-18T06:45:09Z</time>
      </trkpt>
      <trkpt lat="43.3646750" lon="-4.4060810">
        <ele>17.6</ele>
        <time>2021-07-18T06:45:10Z</time>
      </trkpt>
      <trkpt lat="43.3646630" lon="-4.4060670">
        <ele>18.0</ele>
        <time>2021-07-18T06:45:11Z</time>
      </trkpt>
      <trkpt lat="43.3646050" lon="-4.4060080">
        <ele>18.4</ele>
        <time>2021-07-18T06:45:15Z</time>
      </trkpt>
      <trkpt lat="43.3645920" lon="-4.4059930">
        <ele>18.8</ele>
        <time>2021-07-18T06:45:16Z</time>
      </trkpt>
      <trkpt lat="43.3645790" lon="-4.4059790">
        <ele>19.4</ele>
        <time>2021-07-18T06:45:17Z</time>
      </trkpt>
      <trkpt lat="43.3645660" lon="-4.4059700">
        <ele>19.8</ele>
        <time>2021-07-18T06:45:18Z</time>
      </trkpt>
      <trkpt lat="43.3645500" lon="-4.4059610">
        <ele>20.2</ele>
        <time>2021-07-18T06:45:19Z</time>
      </trkpt>
      <trkpt lat="43.3645140" lon="-4.4059580">
        <ele>20.2</ele>
        <time>2021-07-18T06:45:21Z</time>
      </trkpt>
      <trkpt lat="43.3644550" lon="-4.4059690">
        <ele>20.6</ele>
        <time>2021-07-18T06:45:25Z</time>
      </trkpt>
      <trkpt lat="43.3644400" lon="-4.4059790">
        <ele>21.2</ele>
        <time>2021-07-18T06:45:26Z</time>
      </trkpt>
      <trkpt lat="43.3644290" lon="-4.4059890">
        <ele>21.6</ele>
        <time>2021-07-18T06:45:27Z</time>
      </trkpt>
      <trkpt lat="43.3644200" lon="-4.4060010">
        <ele>22.0</ele>
        <time>2021-07-18T06:45:28Z</time>
      </trkpt>
      <trkpt lat="43.3644090" lon="-4.4060130">
        <ele>22.4</ele>
        <time>2021-07-18T06:45:29Z</time>
      </trkpt>
      <trkpt lat="43.3643830" lon="-4.4060400">
        <ele>22.8</ele>
        <time>2021-07-18T06:45:31Z</time>
      </trkpt>
      <trkpt lat="43.3643720" lon="-4.4060550">
        <ele>23.2</ele>
        <time>2021-07-18T06:45:32Z</time>
      </trkpt>
      <trkpt lat="43.3643600" lon="-4.4060730">
        <ele>23.6</ele>
        <time>2021-07-18T06:45:33Z</time>
      </trkpt>
      <trkpt lat="43.3643490" lon="-4.4060890">
        <ele>24.0</ele>
        <time>2021-07-18T06:45:34Z</time>
      </trkpt>
      <trkpt lat="43.3643380" lon="-4.4061030">
        <ele>24.4</ele>
        <time>2021-07-18T06:45:35Z</time>
      </trkpt>
      <trkpt lat="43.3643270" lon="-4.4061170">
        <ele>24.4</ele>
        <time>2021-07-18T06:45:36Z</time>
      </trkpt>
      <trkpt lat="43.3642990" lon="-4.4061450">
        <ele>25.0</ele>
        <time>2021-07-18T06:45:38Z</time>
      </trkpt>
      <trkpt lat="43.3642850" lon="-4.4061600">
        <ele>25.4</ele>
        <time>2021-07-18T06:45:39Z</time>
      </trkpt>
      <trkpt lat="43.3642710" lon="-4.4061740">
        <ele>25.8</ele>
        <time>2021-07-18T06:45:40Z</time>
      </trkpt>
      <trkpt lat="43.3642580" lon="-4.4061890">
        <ele>26.2</ele>
        <time>2021-07-18T06:45:41Z</time>
      </trkpt>
      <trkpt lat="43.3642460" lon="-4.4061960">
        <ele>26.6</ele>
        <time>2021-07-18T06:45:42Z</time>
      </trkpt>
      <trkpt lat="43.3642200" lon="-4.4062040">
        <ele>26.6</ele>
        <time>2021-07-18T06:45:44Z</time>
      </trkpt>
      <trkpt lat="43.3641700" lon="-4.4062100">
        <ele>26.6</ele>
        <time>2021-07-18T06:45:47Z</time>
      </trkpt>
      <trkpt lat="43.3641360" lon="-4.4061880">
        <ele>26.6</ele>
        <time>2021-07-18T06:45:49Z</time>
      </trkpt>
      <trkpt lat="43.3641070" lon="-4.4061640">
        <ele>27.0</ele>
        <time>2021-07-18T06:45:51Z</time>
      </trkpt>
      <trkpt lat="43.3640970" lon="-4.4061470">
        <ele>27.4</ele>
        <time>2021-07-18T06:45:52Z</time>
      </trkpt>
      <trkpt lat="43.3640880" lon="-4.4061280">
        <ele>27.8</ele>
        <time>2021-07-18T06:45:53Z</time>
      </trkpt>
      <trkpt lat="43.3640830" lon="-4.4061110">
        <ele>28.2</ele>
        <time>2021-07-18T06:45:54Z</time>
      </trkpt>
      <trkpt lat="43.3640780" lon="-4.4060920">
        <ele>28.8</ele>
        <time>2021-07-18T06:45:55Z</time>
      </trkpt>
      <trkpt lat="43.3640330" lon="-4.4059350">
        <ele>28.8</ele>
        <time>2021-07-18T06:46:03Z</time>
      </trkpt>
      <trkpt lat="43.3639770" lon="-4.4058670">
        <ele>29.2</ele>
        <time>2021-07-18T06:46:09Z</time>
      </trkpt>
      <trkpt lat="43.3639720" lon="-4.4058640">
        <ele>29.6</ele>
        <time>2021-07-18T06:46:10Z</time>
      </trkpt>
      <trkpt lat="43.3639690" lon="-4.4058630">
        <ele>30.0</ele>
        <time>2021-07-18T06:46:11Z</time>
      </trkpt>
      <trkpt lat="43.3636180" lon="-4.4054420">
        <ele>39.2</ele>
        <time>2021-07-18T06:48:36Z</time>
      </trkpt>
      <trkpt lat="43.3636100" lon="-4.4054260">
        <ele>39.2</ele>
        <time>2021-07-18T06:48:37Z</time>
      </trkpt>
      <trkpt lat="43.3635690" lon="-4.4053790">
        <ele>39.2</ele>
        <time>2021-07-18T06:48:41Z</time>
      </trkpt>
      <trkpt lat="43.3635330" lon="-4.4053300">
        <ele>39.2</ele>
        <time>2021-07-18T06:48:45Z</time>
      </trkpt>
      <trkpt lat="43.3634680" lon="-4.4052690">
        <ele>39.6</ele>
        <time>2021-07-18T06:48:51Z</time>
      </trkpt>
      <trkpt lat="43.3634560" lon="-4.4052620">
        <ele>40.0</ele>
        <time>2021-07-18T06:48:52Z</time>
      </trkpt>
      <trkpt lat="43.3634440" lon="-4.4052600">
        <ele>40.4</ele>
        <time>2021-07-18T06:48:53Z</time>
      </trkpt>
      <trkpt lat="43.3634320" lon="-4.4052630">
        <ele>40.8</ele>
        <time>2021-07-18T06:48:54Z</time>
      </trkpt>
      <trkpt lat="43.3634240" lon="-4.4052720">
        <ele>41.2</ele>
        <time>2021-07-18T06:48:55Z</time>
      </trkpt>
      <trkpt lat="43.3634120" lon="-4.4053200">
        <ele>41.2</ele>
        <time>2021-07-18T06:48:59Z</time>
      </trkpt>
      <trkpt lat="43.3634190" lon="-4.4053420">
        <ele>41.6</ele>
        <time>2021-07-18T06:49:01Z</time>
      </trkpt>
      <trkpt lat="43.3634270" lon="-4.4053530">
        <ele>42.0</ele>
        <time>2021-07-18T06:49:02Z</time>
      </trkpt>
      <trkpt lat="43.3634320" lon="-4.4053680">
        <ele>42.4</ele>
        <time>2021-07-18T06:49:03Z</time>
      </trkpt>
      <trkpt lat="43.3634370" lon="-4.4053830">
        <ele>42.8</ele>
        <time>2021-07-18T06:49:04Z</time>
      </trkpt>
      <trkpt lat="43.3634440" lon="-4.4053950">
        <ele>43.2</ele>
        <time>2021-07-18T06:49:05Z</time>
      </trkpt>
      <trkpt lat="43.3634580" lon="-4.4054210">
        <ele>43.2</ele>
        <time>2021-07-18T06:49:07Z</time>
      </trkpt>
      <trkpt lat="43.3635090" lon="-4.4055610">
        <ele>43.8</ele>
        <time>2021-07-18T06:49:17Z</time>
      </trkpt>
      <trkpt lat="43.3635130" lon="-4.4055760">
        <ele>44.2</ele>
        <time>2021-07-18T06:49:18Z</time>
      </trkpt>
      <trkpt lat="43.3635170" lon="-4.4055900">
        <ele>44.6</ele>
        <time>2021-07-18T06:49:19Z</time>
      </trkpt>
      <trkpt lat="43.3635220" lon="-4.4056030">
        <ele>45.0</ele>
        <time>2021-07-18T06:49:20Z</time>
      </trkpt>
      <trkpt lat="43.3635270" lon="-4.4056180">
        <ele>45.4</ele>
        <time>2021-07-18T06:49:21Z</time>
      </trkpt>
      <trkpt lat="43.3635650" lon="-4.4057280">
        <ele>45.4</ele>
        <time>2021-07-18T06:49:29Z</time>
      </trkpt>
      <trkpt lat="43.3635690" lon="-4.4057430">
        <ele>45.8</ele>
        <time>2021-07-18T06:49:30Z</time>
      </trkpt>
      <trkpt lat="43.3635740" lon="-4.4057570">
        <ele>46.2</ele>
        <time>2021-07-18T06:49:31Z</time>
      </trkpt>
      <trkpt lat="43.3635750" lon="-4.4057690">
        <ele>46.6</ele>
        <time>2021-07-18T06:49:32Z</time>
      </trkpt>
      <trkpt lat="43.3635780" lon="-4.4057790">
        <ele>47.0</ele>
        <time>2021-07-18T06:49:33Z</time>
      </trkpt>
      <trkpt lat="43.3635800" lon="-4.4057880">
        <ele>47.4</ele>
        <time>2021-07-18T06:49:34Z</time>
      </trkpt>
      <trkpt lat="43.3635830" lon="-4.4058270">
        <ele>47.4</ele>
        <time>2021-07-18T06:49:38Z</time>
      </trkpt>
      <trkpt lat="43.3635700" lon="-4.4058890">
        <ele>47.8</ele>
        <time>2021-07-18T06:49:44Z</time>
      </trkpt>
      <trkpt lat="43.3635700" lon="-4.4059010">
        <ele>48.2</ele>
        <time>2021-07-18T06:49:45Z</time>
      </trkpt>
      <trkpt lat="43.3635680" lon="-4.4059100">
        <ele>48.6</ele>
        <time>2021-07-18T06:49:46Z</time>
      </trkpt>
      <trkpt lat="43.3635660" lon="-4.4059190">
        <ele>49.0</ele>
        <time>2021-07-18T06:49:47Z</time>
      </trkpt>
      <trkpt lat="43.3635630" lon="-4.4059270">
        <ele>49.4</ele>
        <time>2021-07-18T06:49:48Z</time>
      </trkpt>
      <trkpt lat="43.3635630" lon="-4.4059360">
        <ele>49.4</ele>
        <time>2021-07-18T06:49:49Z</time>
      </trkpt>
      <trkpt lat="43.3635460" lon="-4.4060000">
        <ele>49.8</ele>
        <time>2021-07-18T06:49:56Z</time>
      </trkpt>
      <trkpt lat="43.3635450" lon="-4.4060110">
        <ele>50.6</ele>
        <time>2021-07-18T06:49:57Z</time>
      </trkpt>
      <trkpt lat="43.3635400" lon="-4.4060270">
        <ele>51.0</ele>
        <time>2021-07-18T06:49:58Z</time>
      </trkpt>
      <trkpt lat="43.3635390" lon="-4.4060360">
        <ele>51.4</ele>
        <time>2021-07-18T06:49:59Z</time>
      </trkpt>
      <trkpt lat="43.3635480" lon="-4.4061030">
        <ele>51.4</ele>
        <time>2021-07-18T06:50:07Z</time>
      </trkpt>
      <trkpt lat="43.3632710" lon="-4.4064370">
        <ele>64.2</ele>
        <time>2021-07-18T06:52:12Z</time>
      </trkpt>
      <trkpt lat="43.3631720" lon="-4.4063390">
        <ele>64.2</ele>
        <time>2021-07-18T06:52:21Z</time>
      </trkpt>
      <trkpt lat="43.3631490" lon="-4.4063190">
        <ele>64.6</ele>
        <time>2021-07-18T06:52:23Z</time>
      </trkpt>
      <trkpt lat="43.3631390" lon="-4.4063110">
        <ele>65.0</ele>
        <time>2021-07-18T06:52:24Z</time>
      </trkpt>
      <trkpt lat="43.3631280" lon="-4.4063050">
        <ele>65.8</ele>
        <time>2021-07-18T06:52:25Z</time>
      </trkpt>
      <trkpt lat="43.3631180" lon="-4.4063000">
        <ele>66.2</ele>
        <time>2021-07-18T06:52:26Z</time>
      </trkpt>
      <trkpt lat="43.3630640" lon="-4.4062770">
        <ele>66.2</ele>
        <time>2021-07-18T06:52:31Z</time>
      </trkpt>
      <trkpt lat="43.3630120" lon="-4.4062740">
        <ele>66.6</ele>
        <time>2021-07-18T06:52:36Z</time>
      </trkpt>
      <trkpt lat="43.3630000" lon="-4.4062740">
        <ele>67.0</ele>
        <time>2021-07-18T06:52:37Z</time>
      </trkpt>
      <trkpt lat="43.3629910" lon="-4.4062730">
        <ele>67.4</ele>
        <time>2021-07-18T06:52:38Z</time>
      </trkpt>
      <trkpt lat="43.3629810" lon="-4.4062730">
        <ele>67.8</ele>
        <time>2021-07-18T06:52:39Z</time>
      </trkpt>
      <trkpt lat="43.3629710" lon="-4.4062740">
        <ele>68.2</ele>
        <time>2021-07-18T06:52:40Z</time>
      </trkpt>
      <trkpt lat="43.3629140" lon="-4.4062710">
        <ele>68.6</ele>
        <time>2021-07-18T06:52:48Z</time>
      </trkpt>
      <trkpt lat="43.3629030" lon="-4.4062700">
        <ele>69.0</ele>
        <time>2021-07-18T06:52:49Z</time>
      </trkpt>
      <trkpt lat="43.3628940" lon="-4.4062680">
        <ele>69.8</ele>
        <time>2021-07-18T06:52:50Z</time>
      </trkpt>
      <trkpt lat="43.3628860" lon="-4.4062660">
        <ele>70.2</ele>
        <time>2021-07-18T06:52:51Z</time>
      </trkpt>
      <trkpt lat="43.3628130" lon="-4.4062580">
        <ele>70.6</ele>
        <time>2021-07-18T06:53:00Z</time>
      </trkpt>
      <trkpt lat="43.3628030" lon="-4.4062630">
        <ele>71.0</ele>
        <time>2021-07-18T06:53:01Z</time>
      </trkpt>
      <trkpt lat="43.3627950" lon="-4.4062620">
        <ele>71.4</ele>
        <time>2021-07-18T06:53:02Z</time>
      </trkpt>
      <trkpt lat="43.3627850" lon="-4.4062610">
        <ele>71.8</ele>
        <time>2021-07-18T06:53:03Z</time>
      </trkpt>
      <trkpt lat="43.3627750" lon="-4.4062600">
        <ele>72.4</ele>
        <time>2021-07-18T06:53:04Z</time>
      </trkpt>
      <trkpt lat="43.3627080" lon="-4.4062400">
        <ele>72.4</ele>
        <time>2021-07-18T06:53:10Z</time>
      </trkpt>
      <trkpt lat="43.3626580" lon="-4.4062220">
        <ele>73.2</ele>
        <time>2021-07-18T06:53:15Z</time>
      </trkpt>
      <trkpt lat="43.3626520" lon="-4.4062170">
        <ele>73.6</ele>
        <time>2021-07-18T06:53:16Z</time>
      </trkpt>
      <trkpt lat="43.3626450" lon="-4.4062120">
        <ele>74.0</ele>
        <time>2021-07-18T06:53:17Z</time>
      </trkpt>
      <trkpt lat="43.3626420" lon="-4.4062110">
        <ele>74.4</ele>
        <time>2021-07-18T06:53:18Z</time>
      </trkpt>
      <trkpt lat="43.3625760" lon="-4.4061960">
        <ele>74.4</ele>
        <time>2021-07-18T06:53:30Z</time>
      </trkpt>
      <trkpt lat="43.3624990" lon="-4.4061720">
        <ele>74.8</ele>
        <time>2021-07-18T06:53:37Z</time>
      </trkpt>
      <trkpt lat="43.3624870" lon="-4.4061700">
        <ele>75.2</ele>
        <time>2021-07-18T06:53:38Z</time>
      </trkpt>
      <trkpt lat="43.3624760" lon="-4.4061700">
        <ele>76.0</ele>
        <time>2021-07-18T06:53:39Z</time>
      </trkpt>
      <trkpt lat="43.3624660" lon="-4.4061680">
        <ele>76.4</ele>
        <time>2021-07-18T06:53:40Z</time>
      </trkpt>
      <trkpt lat="43.3623770" lon="-4.4061750">
        <ele>76.4</ele>
        <time>2021-07-18T06:53:48Z</time>
      </trkpt>
      <trkpt lat="43.3623680" lon="-4.4061770">
        <ele>77.0</ele>
        <time>2021-07-18T06:53:49Z</time>
      </trkpt>
      <trkpt lat="43.3623590" lon="-4.4061780">
        <ele>77.4</ele>
        <time>2021-07-18T06:53:50Z</time>
      </trkpt>
      <trkpt lat="43.3623500" lon="-4.4061800">
        <ele>77.8</ele>
        <time>2021-07-18T06:53:51Z</time>
      </trkpt>
      <trkpt lat="43.3623410" lon="-4.4061820">
        <ele>78.2</ele>
        <time>2021-07-18T06:53:52Z</time>
      </trkpt>
      <trkpt lat="43.3623340" lon="-4.4061850">
        <ele>78.6</ele>
        <time>2021-07-18T06:53:53Z</time>
      </trkpt>
      <trkpt lat="43.3623040" lon="-4.4061940">
        <ele>78.6</ele>
        <time>2021-07-18T06:53:58Z</time>
      </trkpt>
      <trkpt lat="43.3620500" lon="-4.4065810">
        <ele>82.6</ele>
        <time>2021-07-18T06:54:36Z</time>
      </trkpt>
      <trkpt lat="43.3620200" lon="-4.4067250">
        <ele>83.0</ele>
        <time>2021-07-18T06:54:44Z</time>
      </trkpt>
      <trkpt lat="43.3620140" lon="-4.4067410">
        <ele>83.6</ele>
        <time>2021-07-18T06:54:45Z</time>
      </trkpt>
      <trkpt lat="43.3620050" lon="-4.4067540">
        <ele>84.0</ele>
        <time>2021-07-18T06:54:46Z</time>
      </trkpt>
      <trkpt lat="43.3620000" lon="-4.4067680">
        <ele>84.4</ele>
        <time>2021-07-18T06:54:47Z</time>
      </trkpt>
      <trkpt lat="43.3619970" lon="-4.4067810">
        <ele>84.8</ele>
        <time>2021-07-18T06:54:48Z</time>
      </trkpt>
      <trkpt lat="43.3619670" lon="-4.4068740">
        <ele>85.2</ele>
        <time>2021-07-18T06:54:55Z</time>
      </trkpt>
      <trkpt lat="43.3619650" lon="-4.4068870">
        <ele>85.6</ele>
        <time>2021-07-18T06:54:56Z</time>
      </trkpt>
      <trkpt lat="43.3619590" lon="-4.4068980">
        <ele>86.2</ele>
        <time>2021-07-18T06:54:57Z</time>
      </trkpt>
      <trkpt lat="43.3619550" lon="-4.4069110">
        <ele>86.6</ele>
        <time>2021-07-18T06:54:58Z</time>
      </trkpt>
      <trkpt lat="43.3619530" lon="-4.4069240">
        <ele>87.0</ele>
        <time>2021-07-18T06:54:59Z</time>
      </trkpt>
      <trkpt lat="43.3619520" lon="-4.4069410">
        <ele>87.0</ele>
        <time>2021-07-18T06:55:00Z</time>
      </trkpt>
      <trkpt lat="43.3619680" lon="-4.4070040">
        <ele>87.0</ele>
        <time>2021-07-18T06:55:04Z</time>
      </trkpt>
      <trkpt lat="43.3619760" lon="-4.4070220">
        <ele>87.0</ele>
        <time>2021-07-18T06:55:05Z</time>
      </trkpt>
      <trkpt lat="43.3620180" lon="-4.4071200">
        <ele>87.4</ele>
        <time>2021-07-18T06:55:12Z</time>
      </trkpt>
      <trkpt lat="43.3620250" lon="-4.4071360">
        <ele>87.8</ele>
        <time>2021-07-18T06:55:13Z</time>
      </trkpt>
      <trkpt lat="43.3620310" lon="-4.4071510">
        <ele>88.2</ele>
        <time>2021-07-18T06:55:14Z</time>
      </trkpt>
      <trkpt lat="43.3620360" lon="-4.4071680">
        <ele>88.6</ele>
        <time>2021-07-18T06:55:15Z</time>
      </trkpt>
      <trkpt lat="43.3620420" lon="-4.4071850">
        <ele>89.0</ele>
        <time>2021-07-18T06:55:16Z</time>
      </trkpt>
      <trkpt lat="43.3620430" lon="-4.4073150">
        <ele>89.0</ele>
        <time>2021-07-18T06:55:23Z</time>
      </trkpt>
      <trkpt lat="43.3620090" lon="-4.4074270">
        <ele>89.4</ele>
        <time>2021-07-18T06:55:31Z</time>
      </trkpt>
      <trkpt lat="43.3619970" lon="-4.4074370">
        <ele>89.8</ele>
        <time>2021-07-18T06:55:32Z</time>
      </trkpt>
      <trkpt lat="43.3619840" lon="-4.4074470">
        <ele>90.2</ele>
        <time>2021-07-18T06:55:33Z</time>
      </trkpt>
      <trkpt lat="43.3619720" lon="-4.4074590">
        <ele>90.6</ele>
        <time>2021-07-18T06:55:34Z</time>
      </trkpt>
      <trkpt lat="43.3619620" lon="-4.4074690">
        <ele>91.0</ele>
        <time>2021-07-18T06:55:35Z</time>
      </trkpt>
      <trkpt lat="43.3619040" lon="-4.4075060">
        <ele>91.0</ele>
        <time>2021-07-18T06:55:40Z</time>
      </trkpt>
      <trkpt lat="43.3618560" lon="-4.4075450">
        <ele>91.0</ele>
        <time>2021-07-18T06:55:44Z</time>
      </trkpt>
      <trkpt lat="43.3618420" lon="-4.4075570">
        <ele>91.0</ele>
        <time>2021-07-18T06:55:47Z</time>
      </trkpt>
      <trkpt lat="43.3618180" lon="-4.4075810">
        <ele>91.0</ele>
        <time>2021-07-18T06:55:52Z</time>
      </trkpt>
      <trkpt lat="43.3617350" lon="-4.4076810">
        <ele>91.0</ele>
        <time>2021-07-18T06:56:01Z</time>
      </trkpt>
      <trkpt lat="43.3617100" lon="-4.4077160">
        <ele>91.4</ele>
        <time>2021-07-18T06:56:04Z</time>
      </trkpt>
      <trkpt lat="43.3617020" lon="-4.4077270">
        <ele>91.8</ele>
        <time>2021-07-18T06:56:05Z</time>
      </trkpt>
      <trkpt lat="43.3616990" lon="-4.4077300">
        <ele>92.2</ele>
        <time>2021-07-18T06:56:06Z</time>
      </trkpt>
      <trkpt lat="43.3616950" lon="-4.4077310">
        <ele>92.6</ele>
        <time>2021-07-18T06:56:07Z</time>
      </trkpt>
      <trkpt lat="43.3611670" lon="-4.4081580">
        <ele>103.4</ele>
        <time>2021-07-18T06:57:23Z</time>
      </trkpt>
      <trkpt lat="43.3611570" lon="-4.4081690">
        <ele>103.4</ele>
        <time>2021-07-18T06:57:24Z</time>
      </trkpt>
      <trkpt lat="43.3610870" lon="-4.4082400">
        <ele>103.8</ele>
        <time>2021-07-18T06:57:31Z</time>
      </trkpt>
      <trkpt lat="43.3610770" lon="-4.4082480">
        <ele>104.4</ele>
        <time>2021-07-18T06:57:32Z</time>
      </trkpt>
      <trkpt lat="43.3610690" lon="-4.4082550">
        <ele>104.8</ele>
        <time>2021-07-18T06:57:33Z</time>
      </trkpt>
      <trkpt lat="43.3610590" lon="-4.4082650">
        <ele>105.2</ele>
        <time>2021-07-18T06:57:34Z</time>
      </trkpt>
      <trkpt lat="43.3610490" lon="-4.4082750">
        <ele>105.6</ele>
        <time>2021-07-18T06:57:35Z</time>
      </trkpt>
      <trkpt lat="43.3609730" lon="-4.4083470">
        <ele>105.6</ele>
        <time>2021-07-18T06:57:44Z</time>
      </trkpt>
      <trkpt lat="43.3609480" lon="-4.4083540">
        <ele>105.6</ele>
        <time>2021-07-18T06:59:08Z</time>
      </trkpt>
      <trkpt lat="43.3609350" lon="-4.4083610">
        <ele>105.6</ele>
        <time>2021-07-18T06:59:09Z</time>
      </trkpt>
      <trkpt lat="43.3609010" lon="-4.4083650">
        <ele>105.6</ele>
        <time>2021-07-18T06:59:11Z</time>
      </trkpt>
      <trkpt lat="43.3607620" lon="-4.4083670">
        <ele>105.6</ele>
        <time>2021-07-18T06:59:16Z</time>
      </trkpt>
      <trkpt lat="43.3605460" lon="-4.4084680">
        <ele>105.6</ele>
        <time>2021-07-18T06:59:22Z</time>
      </trkpt>
      <trkpt lat="43.3604060" lon="-4.4086530">
        <ele>105.6</ele>
        <time>2021-07-18T06:59:27Z</time>
      </trkpt>
      <trkpt lat="43.3603760" lon="-4.4086810">
        <ele>105.2</ele>
        <time>2021-07-18T06:59:28Z</time>
      </trkpt>
      <trkpt lat="43.3603430" lon="-4.4087040">
        <ele>104.6</ele>
        <time>2021-07-18T06:59:29Z</time>
      </trkpt>
      <trkpt lat="43.3603040" lon="-4.4087230">
        <ele>104.2</ele>
        <time>2021-07-18T06:59:30Z</time>
      </trkpt>
      <trkpt lat="43.3602630" lon="-4.4087380">
        <ele>103.8</ele>
        <time>2021-07-18T06:59:31Z</time>
      </trkpt>
      <trkpt lat="43.3602210" lon="-4.4087600">
        <ele>103.4</ele>
        <time>2021-07-18T06:59:32Z</time>
      </trkpt>
      <trkpt lat="43.3601840" lon="-4.4087850">
        <ele>103.4</ele>
        <time>2021-07-18T06:59:33Z</time>
      </trkpt>
      <trkpt lat="43.3601260" lon="-4.4088530">
        <ele>102.8</ele>
        <time>2021-07-18T06:59:35Z</time>
      </trkpt>
      <trkpt lat="43.3601010" lon="-4.4088920">
        <ele>102.4</ele>
        <time>2021-07-18T06:59:36Z</time>
      </trkpt>
      <trkpt lat="43.3600790" lon="-4.4089330">
        <ele>102.0</ele>
        <time>2021-07-18T06:59:37Z</time>
      </trkpt>
      <trkpt lat="43.3600610" lon="-4.4089730">
        <ele>101.4</ele>
        <time>2021-07-18T06:59:38Z</time>
      </trkpt>
      <trkpt lat="43.3600470" lon="-4.4090160">
        <ele>101.0</ele>
        <time>2021-07-18T06:59:39Z</time>
      </trkpt>
      <trkpt lat="43.3600300" lon="-4.4091110">
        <ele>100.6</ele>
        <time>2021-07-18T06:59:41Z</time>
      </trkpt>
      <trkpt lat="43.3600260" lon="-4.4091600">
        <ele>100.2</ele>
        <time>2021-07-18T06:59:42Z</time>
      </trkpt>
      <trkpt lat="43.3600210" lon="-4.4092160">
        <ele>99.6</ele>
        <time>2021-07-18T06:59:43Z</time>
      </trkpt>
      <trkpt lat="43.3600200" lon="-4.4092710">
        <ele>99.2</ele>
        <time>2021-07-18T06:59:44Z</time>
      </trkpt>
      <trkpt lat="43.3600180" lon="-4.4093300">
        <ele>98.8</ele>
        <time>2021-07-18T06:59:45Z</time>
      </trkpt>
      <trkpt lat="43.3600190" lon="-4.4094380">
        <ele>98.4</ele>
        <time>2021-07-18T06:59:47Z</time>
      </trkpt>
      <trkpt lat="43.3600220" lon="-4.4094890">
        <ele>98.0</ele>
        <time>2021-07-18T06:59:48Z</time>
      </trkpt>
      <trkpt lat="43.3600240" lon="-4.4095360">
        <ele>97.6</ele>
        <time>2021-07-18T06:59:49Z</time>
      </trkpt>
      <trkpt lat="43.3600250" lon="-4.4095870">
        <ele>97.2</ele>
        <time>2021-07-18T06:59:50Z</time>
      </trkpt>
      <trkpt lat="43.3600290" lon="-4.4096410">
        <ele>96.8</ele>
        <time>2021-07-18T06:59:51Z</time>
      </trkpt>
      <trkpt lat="43.3600510" lon="-4.4097520">
        <ele>96.8</ele>
        <time>2021-07-18T06:59:53Z</time>
      </trkpt>
      <trkpt lat="43.3600700" lon="-4.4098050">
        <ele>96.8</ele>
        <time>2021-07-18T06:59:54Z</time>
      </trkpt>
      <trkpt lat="43.3600890" lon="-4.4098620">
        <ele>96.2</ele>
        <time>2021-07-18T06:59:55Z</time>
      </trkpt>
      <trkpt lat="43.3601100" lon="-4.4099170">
        <ele>95.8</ele>
        <time>2021-07-18T06:59:56Z</time>
      </trkpt>
      <trkpt lat="43.3601370" lon="-4.4099710">
        <ele>95.4</ele>
        <time>2021-07-18T06:59:57Z</time>
      </trkpt>
      <trkpt lat="43.3601610" lon="-4.4100250">
        <ele>95.0</ele>
        <time>2021-07-18T06:59:58Z</time>
      </trkpt>
      <trkpt lat="43.3601780" lon="-4.4100850">
        <ele>94.4</ele>
        <time>2021-07-18T06:59:59Z</time>
      </trkpt>
      <trkpt lat="43.3601940" lon="-4.4101480">
        <ele>94.4</ele>
        <time>2021-07-18T07:00:00Z</time>
      </trkpt>
      <trkpt lat="43.3602160" lon="-4.4102700">
        <ele>94.4</ele>
        <time>2021-07-18T07:00:02Z</time>
      </trkpt>
      <trkpt lat="43.3602220" lon="-4.4103360">
        <ele>94.0</ele>
        <time>2021-07-18T07:00:03Z</time>
      </trkpt>
      <trkpt lat="43.3602220" lon="-4.4104080">
        <ele>93.6</ele>
        <time>2021-07-18T07:00:04Z</time>
      </trkpt>
      <trkpt lat="43.3602220" lon="-4.4104870">
        <ele>93.2</ele>
        <time>2021-07-18T07:00:05Z</time>
      </trkpt>
      <trkpt lat="43.3602240" lon="-4.4105710">
        <ele>92.8</ele>
        <time>2021-07-18T07:00:06Z</time>
      </trkpt>
      <trkpt lat="43.3602310" lon="-4.4106590">
        <ele>92.4</ele>
        <time>2021-07-18T07:00:07Z</time>
      </trkpt>
      <trkpt lat="43.3602430" lon="-4.4107430">
        <ele>91.8</ele>
        <time>2021-07-18T07:00:08Z</time>
      </trkpt>
      <trkpt lat="43.3602560" lon="-4.4108270">
        <ele>91.4</ele>
        <time>2021-07-18T07:00:09Z</time>
      </trkpt>
      <trkpt lat="43.3602740" lon="-4.4109120">
        <ele>90.8</ele>
        <time>2021-07-18T07:00:10Z</time>
      </trkpt>
      <trkpt lat="43.3602930" lon="-4.4109970">
        <ele>90.4</ele>
        <time>2021-07-18T07:00:11Z</time>
      </trkpt>
      <trkpt lat="43.3603120" lon="-4.4110830">
        <ele>89.8</ele>
        <time>2021-07-18T07:00:12Z</time>
      </trkpt>
      <trkpt lat="43.3603290" lon="-4.4111670">
        <ele>89.2</ele>
        <time>2021-07-18T07:00:13Z</time>
      </trkpt>
      <trkpt lat="43.3603460" lon="-4.4112490">
        <ele>88.8</ele>
        <time>2021-07-18T07:00:14Z</time>
      </trkpt>
      <trkpt lat="43.3603650" lon="-4.4113320">
        <ele>88.2</ele>
        <time>2021-07-18T07:00:15Z</time>
      </trkpt>
      <trkpt lat="43.3603830" lon="-4.4114020">
        <ele>87.6</ele>
        <time>2021-07-18T07:00:16Z</time>
      </trkpt>
      <trkpt lat="43.3604040" lon="-4.4114670">
        <ele>87.0</ele>
        <time>2021-07-18T07:00:17Z</time>
      </trkpt>
      <trkpt lat="43.3604270" lon="-4.4115280">
        <ele>85.6</ele>
        <time>2021-07-18T07:00:18Z</time>
      </trkpt>
      <trkpt lat="43.3604490" lon="-4.4115880">
        <ele>85.0</ele>
        <time>2021-07-18T07:00:19Z</time>
      </trkpt>
      <trkpt lat="43.3604740" lon="-4.4116500">
        <ele>84.4</ele>
        <time>2021-07-18T07:00:20Z</time>
      </trkpt>
      <trkpt lat="43.3605000" lon="-4.4117150">
        <ele>83.8</ele>
        <time>2021-07-18T07:00:21Z</time>
      </trkpt>
      <trkpt lat="43.3605300" lon="-4.4117840">
        <ele>83.2</ele>
        <time>2021-07-18T07:00:22Z</time>
      </trkpt>
      <trkpt lat="43.3605620" lon="-4.4118510">
        <ele>82.6</ele>
        <time>2021-07-18T07:00:23Z</time>
      </trkpt>
      <trkpt lat="43.3605970" lon="-4.4119190">
        <ele>82.6</ele>
        <time>2021-07-18T07:00:24Z</time>
      </trkpt>
      <trkpt lat="43.3606360" lon="-4.4119820">
        <ele>82.6</ele>
        <time>2021-07-18T07:00:25Z</time>
      </trkpt>
      <trkpt lat="43.3607090" lon="-4.4121150">
        <ele>82.6</ele>
        <time>2021-07-18T07:00:27Z</time>
      </trkpt>
      <trkpt lat="43.3607340" lon="-4.4121830">
        <ele>82.2</ele>
        <time>2021-07-18T07:00:28Z</time>
      </trkpt>
      <trkpt lat="43.3607550" lon="-4.4122560">
        <ele>81.6</ele>
        <time>2021-07-18T07:00:29Z</time>
      </trkpt>
      <trkpt lat="43.3607600" lon="-4.4123180">
        <ele>81.2</ele>
        <time>2021-07-18T07:00:30Z</time>
      </trkpt>
      <trkpt lat="43.3607660" lon="-4.4123750">
        <ele>80.8</ele>
        <time>2021-07-18T07:00:31Z</time>
      </trkpt>
      <trkpt lat="43.3607630" lon="-4.4124340">
        <ele>80.4</ele>
        <time>2021-07-18T07:00:32Z</time>
      </trkpt>
      <trkpt lat="43.3607390" lon="-4.4125560">
        <ele>79.8</ele>
        <time>2021-07-18T07:00:34Z</time>
      </trkpt>
      <trkpt lat="43.3607130" lon="-4.4126180">
        <ele>79.4</ele>
        <time>2021-07-18T07:00:35Z</time>
      </trkpt>
      <trkpt lat="43.3606910" lon="-4.4126860">
        <ele>78.8</ele>
        <time>2021-07-18T07:00:36Z</time>
      </trkpt>
      <trkpt lat="43.3606710" lon="-4.4127570">
        <ele>78.4</ele>
        <time>2021-07-18T07:00:37Z</time>
      </trkpt>
      <trkpt lat="43.3606570" lon="-4.4128360">
        <ele>77.8</ele>
        <time>2021-07-18T07:00:38Z</time>
      </trkpt>
      <trkpt lat="43.3606470" lon="-4.4129140">
        <ele>77.4</ele>
        <time>2021-07-18T07:00:39Z</time>
      </trkpt>
      <trkpt lat="43.3606370" lon="-4.4129930">
        <ele>77.0</ele>
        <time>2021-07-18T07:00:40Z</time>
      </trkpt>
      <trkpt lat="43.3606350" lon="-4.4130700">
        <ele>76.6</ele>
        <time>2021-07-18T07:00:41Z</time>
      </trkpt>
      <trkpt lat="43.3606350" lon="-4.4131480">
        <ele>76.0</ele>
        <time>2021-07-18T07:00:42Z</time>
      </trkpt>
      <trkpt lat="43.3606410" lon="-4.4132190">
        <ele>75.6</ele>
        <time>2021-07-18T07:00:43Z</time>
      </trkpt>
      <trkpt lat="43.3606660" lon="-4.4134050">
        <ele>75.2</ele>
        <time>2021-07-18T07:00:46Z</time>
      </trkpt>
      <trkpt lat="43.3606660" lon="-4.4134590">
        <ele>74.8</ele>
        <time>2021-07-18T07:00:47Z</time>
      </trkpt>
      <trkpt lat="43.3606520" lon="-4.4135050">
        <ele>74.4</ele>
        <time>2021-07-18T07:00:48Z</time>
      </trkpt>
      <trkpt lat="43.3606340" lon="-4.4135440">
        <ele>74.0</ele>
        <time>2021-07-18T07:00:49Z</time>
      </trkpt>
      <trkpt lat="43.3606100" lon="-4.4135770">
        <ele>73.4</ele>
        <time>2021-07-18T07:00:50Z</time>
      </trkpt>
      <trkpt lat="43.3604940" lon="-4.4136790">
        <ele>73.4</ele>
        <time>2021-07-18T07:00:54Z</time>
      </trkpt>
      <trkpt lat="43.3604630" lon="-4.4137070">
        <ele>73.4</ele>
        <time>2021-07-18T07:00:55Z</time>
      </trkpt>
      <trkpt lat="43.3604350" lon="-4.4137330">
        <ele>73.4</ele>
        <time>2021-07-18T07:00:56Z</time>
      </trkpt>
      <trkpt lat="43.3603850" lon="-4.4137770">
        <ele>73.4</ele>
        <time>2021-07-18T07:00:58Z</time>
      </trkpt>
      <trkpt lat="43.3603620" lon="-4.4137970">
        <ele>73.4</ele>
        <time>2021-07-18T07:00:59Z</time>
      </trkpt>
      <trkpt lat="43.3603200" lon="-4.4138570">
        <ele>73.4</ele>
        <time>2021-07-18T07:01:01Z</time>
      </trkpt>
      <trkpt lat="43.3603010" lon="-4.4138930">
        <ele>73.4</ele>
        <time>2021-07-18T07:01:02Z</time>
      </trkpt>
      <trkpt lat="43.3602630" lon="-4.4139700">
        <ele>73.4</ele>
        <time>2021-07-18T07:01:04Z</time>
      </trkpt>
      <trkpt lat="43.3601730" lon="-4.4141560">
        <ele>73.4</ele>
        <time>2021-07-18T07:01:08Z</time>
      </trkpt>
      <trkpt lat="43.3601510" lon="-4.4142110">
        <ele>73.4</ele>
        <time>2021-07-18T07:01:09Z</time>
      </trkpt>
      <trkpt lat="43.3600800" lon="-4.4144570">
        <ele>73.4</ele>
        <time>2021-07-18T07:01:13Z</time>
      </trkpt>
      <trkpt lat="43.3600500" lon="-4.4145710">
        <ele>73.0</ele>
        <time>2021-07-18T07:01:15Z</time>
      </trkpt>
      <trkpt lat="43.3600500" lon="-4.4146220">
        <ele>72.4</ele>
        <time>2021-07-18T07:01:16Z</time>
      </trkpt>
      <trkpt lat="43.3600540" lon="-4.4146810">
        <ele>72.0</ele>
        <time>2021-07-18T07:01:17Z</time>
      </trkpt>
      <trkpt lat="43.3600650" lon="-4.4147280">
        <ele>71.4</ele>
        <time>2021-07-18T07:01:18Z</time>
      </trkpt>
      <trkpt lat="43.3600830" lon="-4.4147820">
        <ele>71.0</ele>
        <time>2021-07-18T07:01:19Z</time>
      </trkpt>
      <trkpt lat="43.3601310" lon="-4.4148900">
        <ele>71.0</ele>
        <time>2021-07-18T07:01:21Z</time>
      </trkpt>
      <trkpt lat="43.3601530" lon="-4.4149520">
        <ele>70.6</ele>
        <time>2021-07-18T07:01:22Z</time>
      </trkpt>
      <trkpt lat="43.3601750" lon="-4.4150150">
        <ele>70.0</ele>
        <time>2021-07-18T07:01:23Z</time>
      </trkpt>
      <trkpt lat="43.3601920" lon="-4.4150800">
        <ele>69.6</ele>
        <time>2021-07-18T07:01:24Z</time>
      </trkpt>
      <trkpt lat="43.3602110" lon="-4.4151420">
        <ele>69.2</ele>
        <time>2021-07-18T07:01:25Z</time>
      </trkpt>
      <trkpt lat="43.3602310" lon="-4.4152000">
        <ele>68.6</ele>
        <time>2021-07-18T07:01:26Z</time>
      </trkpt>
      <trkpt lat="43.3602820" lon="-4.4153110">
        <ele>68.2</ele>
        <time>2021-07-18T07:01:28Z</time>
      </trkpt>
      <trkpt lat="43.3603110" lon="-4.4153710">
        <ele>67.8</ele>
        <time>2021-07-18T07:01:29Z</time>
      </trkpt>
      <trkpt lat="43.3603370" lon="-4.4154360">
        <ele>67.4</ele>
        <time>2021-07-18T07:01:30Z</time>
      </trkpt>
      <trkpt lat="43.3603570" lon="-4.4154990">
        <ele>67.0</ele>
        <time>2021-07-18T07:01:31Z</time>
      </trkpt>
      <trkpt lat="43.3603800" lon="-4.4155610">
        <ele>66.6</ele>
        <time>2021-07-18T07:01:32Z</time>
      </trkpt>
      <trkpt lat="43.3604050" lon="-4.4156200">
        <ele>66.2</ele>
        <time>2021-07-18T07:01:33Z</time>
      </trkpt>
      <trkpt lat="43.3604260" lon="-4.4156740">
        <ele>65.8</ele>
        <time>2021-07-18T07:01:34Z</time>
      </trkpt>
      <trkpt lat="43.3604520" lon="-4.4157170">
        <ele>65.2</ele>
        <time>2021-07-18T07:01:35Z</time>
      </trkpt>
      <trkpt lat="43.3604800" lon="-4.4157590">
        <ele>64.8</ele>
        <time>2021-07-18T07:01:36Z</time>
      </trkpt>
      <trkpt lat="43.3605090" lon="-4.4158060">
        <ele>64.4</ele>
        <time>2021-07-18T07:01:37Z</time>
      </trkpt>
      <trkpt lat="43.3605730" lon="-4.4158900">
        <ele>64.4</ele>
        <time>2021-07-18T07:01:39Z</time>
      </trkpt>
      <trkpt lat="43.3606050" lon="-4.4159340">
        <ele>64.0</ele>
        <time>2021-07-18T07:01:40Z</time>
      </trkpt>
      <trkpt lat="43.3606350" lon="-4.4159810">
        <ele>63.6</ele>
        <time>2021-07-18T07:01:41Z</time>
      </trkpt>
      <trkpt lat="43.3606680" lon="-4.4160280">
        <ele>63.2</ele>
        <time>2021-07-18T07:01:42Z</time>
      </trkpt>
      <trkpt lat="43.3606990" lon="-4.4160770">
        <ele>62.8</ele>
        <time>2021-07-18T07:01:43Z</time>
      </trkpt>
      <trkpt lat="43.3607300" lon="-4.4161350">
        <ele>62.4</ele>
        <time>2021-07-18T07:01:44Z</time>
      </trkpt>
      <trkpt lat="43.3607560" lon="-4.4162060">
        <ele>62.0</ele>
        <time>2021-07-18T07:01:45Z</time>
      </trkpt>
      <trkpt lat="43.3607830" lon="-4.4162770">
        <ele>61.4</ele>
        <time>2021-07-18T07:01:46Z</time>
      </trkpt>
      <trkpt lat="43.3608100" lon="-4.4163560">
        <ele>61.0</ele>
        <time>2021-07-18T07:01:47Z</time>
      </trkpt>
      <trkpt lat="43.3608350" lon="-4.4164390">
        <ele>60.6</ele>
        <time>2021-07-18T07:01:48Z</time>
      </trkpt>
      <trkpt lat="43.3608580" lon="-4.4165230">
        <ele>60.2</ele>
        <time>2021-07-18T07:01:49Z</time>
      </trkpt>
      <trkpt lat="43.3608770" lon="-4.4166100">
        <ele>60.2</ele>
        <time>2021-07-18T07:01:50Z</time>
      </trkpt>
      <trkpt lat="43.3608930" lon="-4.4166980">
        <ele>59.8</ele>
        <time>2021-07-18T07:01:51Z</time>
      </trkpt>
      <trkpt lat="43.3609090" lon="-4.4167830">
        <ele>59.4</ele>
        <time>2021-07-18T07:01:52Z</time>
      </trkpt>
      <trkpt lat="43.3609260" lon="-4.4168620">
        <ele>59.0</ele>
        <time>2021-07-18T07:01:53Z</time>
      </trkpt>
      <trkpt lat="43.3609340" lon="-4.4169320">
        <ele>58.6</ele>
        <time>2021-07-18T07:01:54Z</time>
      </trkpt>
      <trkpt lat="43.3609440" lon="-4.4169980">
        <ele>58.2</ele>
        <time>2021-07-18T07:01:55Z</time>
      </trkpt>
      <trkpt lat="43.3609880" lon="-4.4171630">
        <ele>58.2</ele>
        <time>2021-07-18T07:01:58Z</time>
      </trkpt>
      <trkpt lat="43.3610400" lon="-4.4172510">
        <ele>57.8</ele>
        <time>2021-07-18T07:02:00Z</time>
      </trkpt>
      <trkpt lat="43.3610690" lon="-4.4172930">
        <ele>57.4</ele>
        <time>2021-07-18T07:02:01Z</time>
      </trkpt>
      <trkpt lat="43.3611120" lon="-4.4173260">
        <ele>57.0</ele>
        <time>2021-07-18T07:02:02Z</time>
      </trkpt>
      <trkpt lat="43.3611570" lon="-4.4173600">
        <ele>56.6</ele>
        <time>2021-07-18T07:02:03Z</time>
      </trkpt>
      <trkpt lat="43.3612040" lon="-4.4173980">
        <ele>56.2</ele>
        <time>2021-07-18T07:02:04Z</time>
      </trkpt>
      <trkpt lat="43.3612510" lon="-4.4174470">
        <ele>56.2</ele>
        <time>2021-07-18T07:02:05Z</time>
      </trkpt>
      <trkpt lat="43.3613960" lon="-4.4176860">
        <ele>56.2</ele>
        <time>2021-07-18T07:02:09Z</time>
      </trkpt>
      <trkpt lat="43.3614790" lon="-4.4178680">
        <ele>55.6</ele>
        <time>2021-07-18T07:02:12Z</time>
      </trkpt>
      <trkpt lat="43.3615030" lon="-4.4179250">
        <ele>55.2</ele>
        <time>2021-07-18T07:02:13Z</time>
      </trkpt>
      <trkpt lat="43.3615260" lon="-4.4179840">
        <ele>54.8</ele>
        <time>2021-07-18T07:02:14Z</time>
      </trkpt>
      <trkpt lat="43.3615430" lon="-4.4180370">
        <ele>54.2</ele>
        <time>2021-07-18T07:02:15Z</time>
      </trkpt>
      <trkpt lat="43.3615610" lon="-4.4180820">
        <ele>53.8</ele>
        <time>2021-07-18T07:02:16Z</time>
      </trkpt>
      <trkpt lat="43.3615770" lon="-4.4181240">
        <ele>53.4</ele>
        <time>2021-07-18T07:02:17Z</time>
      </trkpt>
      <trkpt lat="43.3615920" lon="-4.4181600">
        <ele>52.8</ele>
        <time>2021-07-18T07:02:18Z</time>
      </trkpt>
      <trkpt lat="43.3616010" lon="-4.4181910">
        <ele>52.4</ele>
        <time>2021-07-18T07:02:19Z</time>
      </trkpt>
      <trkpt lat="43.3616060" lon="-4.4182210">
        <ele>52.0</ele>
        <time>2021-07-18T07:02:20Z</time>
      </trkpt>
      <trkpt lat="43.3616070" lon="-4.4182420">
        <ele>51.4</ele>
        <time>2021-07-18T07:02:21Z</time>
      </trkpt>
      <trkpt lat="43.3616100" lon="-4.4182630">
        <ele>51.0</ele>
        <time>2021-07-18T07:02:22Z</time>
      </trkpt>
      <trkpt lat="43.3616100" lon="-4.4182850">
        <ele>50.6</ele>
        <time>2021-07-18T07:02:23Z</time>
      </trkpt>
      <trkpt lat="43.3616040" lon="-4.4183060">
        <ele>50.2</ele>
        <time>2021-07-18T07:02:24Z</time>
      </trkpt>
      <trkpt lat="43.3616020" lon="-4.4183200">
        <ele>49.8</ele>
        <time>2021-07-18T07:02:25Z</time>
      </trkpt>
      <trkpt lat="43.3616040" lon="-4.4183170">
        <ele>49.4</ele>
        <time>2021-07-18T07:02:26Z</time>
      </trkpt>
      <trkpt lat="43.3615910" lon="-4.4183410">
        <ele>49.4</ele>
        <time>2021-07-18T07:02:32Z</time>
      </trkpt>
      <trkpt lat="43.3615730" lon="-4.4183580">
        <ele>49.4</ele>
        <time>2021-07-18T07:02:33Z</time>
      </trkpt>
      <trkpt lat="43.3615060" lon="-4.4183820">
        <ele>49.4</ele>
        <time>2021-07-18T07:02:36Z</time>
      </trkpt>
      <trkpt lat="43.3613910" lon="-4.4183690">
        <ele>49.4</ele>
        <time>2021-07-18T07:02:41Z</time>
      </trkpt>
      <trkpt lat="43.3611870" lon="-4.4184210">
        <ele>49.4</ele>
        <time>2021-07-18T07:02:48Z</time>
      </trkpt>
      <trkpt lat="43.3611650" lon="-4.4184430">
        <ele>49.4</ele>
        <time>2021-07-18T07:02:49Z</time>
      </trkpt>
      <trkpt lat="43.3611100" lon="-4.4186340">
        <ele>49.4</ele>
        <time>2021-07-18T07:02:53Z</time>
      </trkpt>
      <trkpt lat="43.3610740" lon="-4.4188350">
        <ele>49.0</ele>
        <time>2021-07-18T07:02:56Z</time>
      </trkpt>
      <trkpt lat="43.3610620" lon="-4.4188990">
        <ele>48.4</ele>
        <time>2021-07-18T07:02:57Z</time>
      </trkpt>
      <trkpt lat="43.3610500" lon="-4.4189680">
        <ele>48.0</ele>
        <time>2021-07-18T07:02:58Z</time>
      </trkpt>
      <trkpt lat="43.3610370" lon="-4.4190390">
        <ele>47.6</ele>
        <time>2021-07-18T07:02:59Z</time>
      </trkpt>
      <trkpt lat="43.3610230" lon="-4.4191120">
        <ele>47.2</ele>
        <time>2021-07-18T07:03:00Z</time>
      </trkpt>
      <trkpt lat="43.3609800" lon="-4.4194150">
        <ele>46.8</ele>
        <time>2021-07-18T07:03:04Z</time>
      </trkpt>
      <trkpt lat="43.3609660" lon="-4.4194890">
        <ele>46.4</ele>
        <time>2021-07-18T07:03:05Z</time>
      </trkpt>
      <trkpt lat="43.3609490" lon="-4.4195630">
        <ele>46.0</ele>
        <time>2021-07-18T07:03:06Z</time>
      </trkpt>
      <trkpt lat="43.3609270" lon="-4.4196390">
        <ele>45.6</ele>
        <time>2021-07-18T07:03:07Z</time>
      </trkpt>
      <trkpt lat="43.3609000" lon="-4.4197140">
        <ele>45.2</ele>
        <time>2021-07-18T07:03:08Z</time>
      </trkpt>
      <trkpt lat="43.3607940" lon="-4.4199580">
        <ele>45.2</ele>
        <time>2021-07-18T07:03:11Z</time>
      </trkpt>
      <trkpt lat="43.3607550" lon="-4.4200490">
        <ele>44.8</ele>
        <time>2021-07-18T07:03:12Z</time>
      </trkpt>
      <trkpt lat="43.3607210" lon="-4.4201440">
        <ele>44.4</ele>
        <time>2021-07-18T07:03:13Z</time>
      </trkpt>
      <trkpt lat="43.3606910" lon="-4.4202440">
        <ele>44.0</ele>
        <time>2021-07-18T07:03:14Z</time>
      </trkpt>
      <trkpt lat="43.3606670" lon="-4.4203520">
        <ele>43.6</ele>
        <time>2021-07-18T07:03:15Z</time>
      </trkpt>
      <trkpt lat="43.3606540" lon="-4.4204570">
        <ele>43.2</ele>
        <time>2021-07-18T07:03:16Z</time>
      </trkpt>
      <trkpt lat="43.3606400" lon="-4.4206690">
        <ele>43.2</ele>
        <time>2021-07-18T07:03:18Z</time>
      </trkpt>
      <trkpt lat="43.3606470" lon="-4.4208540">
        <ele>43.2</ele>
        <time>2021-07-18T07:03:20Z</time>
      </trkpt>
      <trkpt lat="43.3606740" lon="-4.4211930">
        <ele>43.2</ele>
        <time>2021-07-18T07:03:25Z</time>
      </trkpt>
      <trkpt lat="43.3606830" lon="-4.4212900">
        <ele>43.2</ele>
        <time>2021-07-18T07:03:27Z</time>
      </trkpt>
      <trkpt lat="43.3606830" lon="-4.4213780">
        <ele>43.2</ele>
        <time>2021-07-18T07:03:29Z</time>
      </trkpt>
      <trkpt lat="43.3606690" lon="-4.4214610">
        <ele>43.2</ele>
        <time>2021-07-18T07:03:31Z</time>
      </trkpt>
      <trkpt lat="43.3606530" lon="-4.4215380">
        <ele>43.2</ele>
        <time>2021-07-18T07:03:33Z</time>
      </trkpt>
      <trkpt lat="43.3606010" lon="-4.4216790">
        <ele>43.2</ele>
        <time>2021-07-18T07:03:37Z</time>
      </trkpt>
      <trkpt lat="43.3605610" lon="-4.4217830">
        <ele>43.2</ele>
        <time>2021-07-18T07:03:40Z</time>
      </trkpt>
      <trkpt lat="43.3605250" lon="-4.4218920">
        <ele>43.2</ele>
        <time>2021-07-18T07:03:43Z</time>
      </trkpt>
      <trkpt lat="43.3605080" lon="-4.4219770">
        <ele>43.2</ele>
        <time>2021-07-18T07:03:45Z</time>
      </trkpt>
      <trkpt lat="43.3605020" lon="-4.4221230">
        <ele>43.2</ele>
        <time>2021-07-18T07:03:48Z</time>
      </trkpt>
      <trkpt lat="43.3605190" lon="-4.4222230">
        <ele>43.2</ele>
        <time>2021-07-18T07:03:50Z</time>
      </trkpt>
      <trkpt lat="43.3605820" lon="-4.4223250">
        <ele>43.2</ele>
        <time>2021-07-18T07:03:53Z</time>
      </trkpt>
      <trkpt lat="43.3606050" lon="-4.4223600">
        <ele>43.2</ele>
        <time>2021-07-18T07:03:54Z</time>
      </trkpt>
      <trkpt lat="43.3606770" lon="-4.4225700">
        <ele>43.2</ele>
        <time>2021-07-18T07:03:59Z</time>
      </trkpt>
      <trkpt lat="43.3606810" lon="-4.4226210">
        <ele>43.2</ele>
        <time>2021-07-18T07:04:00Z</time>
      </trkpt>
      <trkpt lat="43.3606400" lon="-4.4228510">
        <ele>43.2</ele>
        <time>2021-07-18T07:04:04Z</time>
      </trkpt>
      <trkpt lat="43.3605660" lon="-4.4230870">
        <ele>43.6</ele>
        <time>2021-07-18T07:04:09Z</time>
      </trkpt>
      <trkpt lat="43.3605570" lon="-4.4231270">
        <ele>44.0</ele>
        <time>2021-07-18T07:04:10Z</time>
      </trkpt>
      <trkpt lat="43.3605470" lon="-4.4231650">
        <ele>44.4</ele>
        <time>2021-07-18T07:04:11Z</time>
      </trkpt>
      <trkpt lat="43.3605300" lon="-4.4232100">
        <ele>44.8</ele>
        <time>2021-07-18T07:04:12Z</time>
      </trkpt>
      <trkpt lat="43.3605120" lon="-4.4232480">
        <ele>45.2</ele>
        <time>2021-07-18T07:04:13Z</time>
      </trkpt>
      <trkpt lat="43.3604470" lon="-4.4233460">
        <ele>45.2</ele>
        <time>2021-07-18T07:04:16Z</time>
      </trkpt>
      <trkpt lat="43.3602740" lon="-4.4234490">
        <ele>45.2</ele>
        <time>2021-07-18T07:04:22Z</time>
      </trkpt>
      <trkpt lat="43.3600820" lon="-4.4235380">
        <ele>45.2</ele>
        <time>2021-07-18T07:04:27Z</time>
      </trkpt>
      <trkpt lat="43.3600410" lon="-4.4235740">
        <ele>45.2</ele>
        <time>2021-07-18T07:04:28Z</time>
      </trkpt>
      <trkpt lat="43.3599140" lon="-4.4237300">
        <ele>45.2</ele>
        <time>2021-07-18T07:04:31Z</time>
      </trkpt>
      <trkpt lat="43.3598460" lon="-4.4238580">
        <ele>45.2</ele>
        <time>2021-07-18T07:04:33Z</time>
      </trkpt>
      <trkpt lat="43.3597610" lon="-4.4240700">
        <ele>45.2</ele>
        <time>2021-07-18T07:04:36Z</time>
      </trkpt>
      <trkpt lat="43.3597190" lon="-4.4242120">
        <ele>45.2</ele>
        <time>2021-07-18T07:04:38Z</time>
      </trkpt>
      <trkpt lat="43.3597020" lon="-4.4242800">
        <ele>45.2</ele>
        <time>2021-07-18T07:04:39Z</time>
      </trkpt>
      <trkpt lat="43.3596160" lon="-4.4246150">
        <ele>45.2</ele>
        <time>2021-07-18T07:04:45Z</time>
      </trkpt>
      <trkpt lat="43.3595530" lon="-4.4249050">
        <ele>45.2</ele>
        <time>2021-07-18T07:04:51Z</time>
      </trkpt>
      <trkpt lat="43.3595490" lon="-4.4250550">
        <ele>45.2</ele>
        <time>2021-07-18T07:04:54Z</time>
      </trkpt>
      <trkpt lat="43.3595650" lon="-4.4252560">
        <ele>45.2</ele>
        <time>2021-07-18T07:04:58Z</time>
      </trkpt>
      <trkpt lat="43.3595810" lon="-4.4254670">
        <ele>45.2</ele>
        <time>2021-07-18T07:05:02Z</time>
      </trkpt>
      <trkpt lat="43.3595830" lon="-4.4255190">
        <ele>45.2</ele>
        <time>2021-07-18T07:05:03Z</time>
      </trkpt>
      <trkpt lat="43.3595720" lon="-4.4259500">
        <ele>45.2</ele>
        <time>2021-07-18T07:05:11Z</time>
      </trkpt>
      <trkpt lat="43.3595090" lon="-4.4262950">
        <ele>45.2</ele>
        <time>2021-07-18T07:05:18Z</time>
      </trkpt>
      <trkpt lat="43.3594240" lon="-4.4263970">
        <ele>45.2</ele>
        <time>2021-07-18T07:05:21Z</time>
      </trkpt>
      <trkpt lat="43.3593800" lon="-4.4264210">
        <ele>45.2</ele>
        <time>2021-07-18T07:05:22Z</time>
      </trkpt>
      <trkpt lat="43.3592540" lon="-4.4264560">
        <ele>45.2</ele>
        <time>2021-07-18T07:05:25Z</time>
      </trkpt>
      <trkpt lat="43.3591690" lon="-4.4264870">
        <ele>45.2</ele>
        <time>2021-07-18T07:05:27Z</time>
      </trkpt>
      <trkpt lat="43.3590580" lon="-4.4265760">
        <ele>45.2</ele>
        <time>2021-07-18T07:05:30Z</time>
      </trkpt>
      <trkpt lat="43.3589990" lon="-4.4266550">
        <ele>45.2</ele>
        <time>2021-07-18T07:05:32Z</time>
      </trkpt>
      <trkpt lat="43.3589580" lon="-4.4267330">
        <ele>45.2</ele>
        <time>2021-07-18T07:05:34Z</time>
      </trkpt>
      <trkpt lat="43.3589090" lon="-4.4268640">
        <ele>45.2</ele>
        <time>2021-07-18T07:05:37Z</time>
      </trkpt>
      <trkpt lat="43.3588320" lon="-4.4270830">
        <ele>45.6</ele>
        <time>2021-07-18T07:05:42Z</time>
      </trkpt>
      <trkpt lat="43.3588170" lon="-4.4271260">
        <ele>46.0</ele>
        <time>2021-07-18T07:05:43Z</time>
      </trkpt>
      <trkpt lat="43.3588020" lon="-4.4271720">
        <ele>46.4</ele>
        <time>2021-07-18T07:05:44Z</time>
      </trkpt>
      <trkpt lat="43.3587820" lon="-4.4272170">
        <ele>46.8</ele>
        <time>2021-07-18T07:05:45Z</time>
      </trkpt>
      <trkpt lat="43.3587680" lon="-4.4272610">
        <ele>47.2</ele>
        <time>2021-07-18T07:05:46Z</time>
      </trkpt>
      <trkpt lat="43.3586890" lon="-4.4274700">
        <ele>47.2</ele>
        <time>2021-07-18T07:05:51Z</time>
      </trkpt>
      <trkpt lat="43.3586580" lon="-4.4275470">
        <ele>47.2</ele>
        <time>2021-07-18T07:05:53Z</time>
      </trkpt>
      <trkpt lat="43.3586290" lon="-4.4276680">
        <ele>47.6</ele>
        <time>2021-07-18T07:05:56Z</time>
      </trkpt>
      <trkpt lat="43.3586210" lon="-4.4277060">
        <ele>48.0</ele>
        <time>2021-07-18T07:05:57Z</time>
      </trkpt>
      <trkpt lat="43.3586140" lon="-4.4277420">
        <ele>48.4</ele>
        <time>2021-07-18T07:05:58Z</time>
      </trkpt>
      <trkpt lat="43.3586110" lon="-4.4277830">
        <ele>48.8</ele>
        <time>2021-07-18T07:05:59Z</time>
      </trkpt>
      <trkpt lat="43.3586090" lon="-4.4278230">
        <ele>49.2</ele>
        <time>2021-07-18T07:06:00Z</time>
      </trkpt>
      <trkpt lat="43.3586020" lon="-4.4279890">
        <ele>49.2</ele>
        <time>2021-07-18T07:06:04Z</time>
      </trkpt>
      <trkpt lat="43.3586010" lon="-4.4281080">
        <ele>49.6</ele>
        <time>2021-07-18T07:06:07Z</time>
      </trkpt>
      <trkpt lat="43.3586010" lon="-4.4281420">
        <ele>50.0</ele>
        <time>2021-07-18T07:06:08Z</time>
      </trkpt>
      <trkpt lat="43.3585990" lon="-4.4281730">
        <ele>50.6</ele>
        <time>2021-07-18T07:06:09Z</time>
      </trkpt>
      <trkpt lat="43.3585960" lon="-4.4282060">
        <ele>51.0</ele>
        <time>2021-07-18T07:06:10Z</time>
      </trkpt>
      <trkpt lat="43.3586000" lon="-4.4282340">
        <ele>51.4</ele>
        <time>2021-07-18T07:06:11Z</time>
      </trkpt>
      <trkpt lat="43.3586060" lon="-4.4283240">
        <ele>51.4</ele>
        <time>2021-07-18T07:06:14Z</time>
      </trkpt>
      <trkpt lat="43.3585910" lon="-4.4286190">
        <ele>51.8</ele>
        <time>2021-07-18T07:06:21Z</time>
      </trkpt>
      <trkpt lat="43.3585810" lon="-4.4286660">
        <ele>52.2</ele>
        <time>2021-07-18T07:06:22Z</time>
      </trkpt>
      <trkpt lat="43.3585730" lon="-4.4287060">
        <ele>52.6</ele>
        <time>2021-07-18T07:06:23Z</time>
      </trkpt>
      <trkpt lat="43.3585660" lon="-4.4287500">
        <ele>53.0</ele>
        <time>2021-07-18T07:06:24Z</time>
      </trkpt>
      <trkpt lat="43.3585610" lon="-4.4287920">
        <ele>53.4</ele>
        <time>2021-07-18T07:06:25Z</time>
      </trkpt>
      <trkpt lat="43.3585520" lon="-4.4289210">
        <ele>53.4</ele>
        <time>2021-07-18T07:06:28Z</time>
      </trkpt>
      <trkpt lat="43.3585440" lon="-4.4292140">
        <ele>53.4</ele>
        <time>2021-07-18T07:06:35Z</time>
      </trkpt>
      <trkpt lat="43.3585470" lon="-4.4292580">
        <ele>53.8</ele>
        <time>2021-07-18T07:06:36Z</time>
      </trkpt>
      <trkpt lat="43.3585460" lon="-4.4293060">
        <ele>54.2</ele>
        <time>2021-07-18T07:06:37Z</time>
      </trkpt>
      <trkpt lat="43.3585470" lon="-4.4293530">
        <ele>54.6</ele>
        <time>2021-07-18T07:06:38Z</time>
      </trkpt>
      <trkpt lat="43.3585490" lon="-4.4294020">
        <ele>55.0</ele>
        <time>2021-07-18T07:06:39Z</time>
      </trkpt>
      <trkpt lat="43.3585480" lon="-4.4294460">
        <ele>55.4</ele>
        <time>2021-07-18T07:06:40Z</time>
      </trkpt>
      <trkpt lat="43.3585570" lon="-4.4295370">
        <ele>55.4</ele>
        <time>2021-07-18T07:06:42Z</time>
      </trkpt>
      <trkpt lat="43.3586160" lon="-4.4299520">
        <ele>55.4</ele>
        <time>2021-07-18T07:06:52Z</time>
      </trkpt>
      <trkpt lat="43.3586370" lon="-4.4300710">
        <ele>55.8</ele>
        <time>2021-07-18T07:06:55Z</time>
      </trkpt>
      <trkpt lat="43.3586440" lon="-4.4301150">
        <ele>56.2</ele>
        <time>2021-07-18T07:06:56Z</time>
      </trkpt>
      <trkpt lat="43.3586530" lon="-4.4301540">
        <ele>56.6</ele>
        <time>2021-07-18T07:06:57Z</time>
      </trkpt>
      <trkpt lat="43.3586650" lon="-4.4301890">
        <ele>57.2</ele>
        <time>2021-07-18T07:06:58Z</time>
      </trkpt>
      <trkpt lat="43.3586760" lon="-4.4302220">
        <ele>57.6</ele>
        <time>2021-07-18T07:06:59Z</time>
      </trkpt>
      <trkpt lat="43.3586970" lon="-4.4302970">
        <ele>57.6</ele>
        <time>2021-07-18T07:07:01Z</time>
      </trkpt>
      <trkpt lat="43.3587470" lon="-4.4304800">
        <ele>57.6</ele>
        <time>2021-07-18T07:07:06Z</time>
      </trkpt>
      <trkpt lat="43.3588340" lon="-4.4308000">
        <ele>57.6</ele>
        <time>2021-07-18T07:07:14Z</time>
      </trkpt>
      <trkpt lat="43.3589230" lon="-4.4311210">
        <ele>58.0</ele>
        <time>2021-07-18T07:07:21Z</time>
      </trkpt>
      <trkpt lat="43.3589380" lon="-4.4311660">
        <ele>58.4</ele>
        <time>2021-07-18T07:07:22Z</time>
      </trkpt>
      <trkpt lat="43.3589540" lon="-4.4312080">
        <ele>58.8</ele>
        <time>2021-07-18T07:07:23Z</time>
      </trkpt>
      <trkpt lat="43.3589680" lon="-4.4312500">
        <ele>59.2</ele>
        <time>2021-07-18T07:07:24Z</time>
      </trkpt>
      <trkpt lat="43.3589790" lon="-4.4312950">
        <ele>59.6</ele>
        <time>2021-07-18T07:07:25Z</time>
      </trkpt>
      <trkpt lat="43.3590600" lon="-4.4315800">
        <ele>59.6</ele>
        <time>2021-07-18T07:07:31Z</time>
      </trkpt>
      <trkpt lat="43.3591540" lon="-4.4319160">
        <ele>59.6</ele>
        <time>2021-07-18T07:07:38Z</time>
      </trkpt>
      <trkpt lat="43.3591790" lon="-4.4320090">
        <ele>59.6</ele>
        <time>2021-07-18T07:07:40Z</time>
      </trkpt>
      <trkpt lat="43.3592740" lon="-4.4323410">
        <ele>59.6</ele>
        <time>2021-07-18T07:07:48Z</time>
      </trkpt>
      <trkpt lat="43.3593010" lon="-4.4324570">
        <ele>60.0</ele>
        <time>2021-07-18T07:07:51Z</time>
      </trkpt>
      <trkpt lat="43.3593090" lon="-4.4324940">
        <ele>60.4</ele>
        <time>2021-07-18T07:07:52Z</time>
      </trkpt>
      <trkpt lat="43.3593190" lon="-4.4325240">
        <ele>60.8</ele>
        <time>2021-07-18T07:07:53Z</time>
      </trkpt>
      <trkpt lat="43.3593250" lon="-4.4325550">
        <ele>61.4</ele>
        <time>2021-07-18T07:07:54Z</time>
      </trkpt>
      <trkpt lat="43.3593350" lon="-4.4325900">
        <ele>61.8</ele>
        <time>2021-07-18T07:07:55Z</time>
      </trkpt>
      <trkpt lat="43.3593510" lon="-4.4326540">
        <ele>61.8</ele>
        <time>2021-07-18T07:07:57Z</time>
      </trkpt>
      <trkpt lat="43.3593710" lon="-4.4327550">
        <ele>61.8</ele>
        <time>2021-07-18T07:08:00Z</time>
      </trkpt>
      <trkpt lat="43.3594000" lon="-4.4328770">
        <ele>61.8</ele>
        <time>2021-07-18T07:08:04Z</time>
      </trkpt>
      <trkpt lat="43.3594040" lon="-4.4329040">
        <ele>62.2</ele>
        <time>2021-07-18T07:08:05Z</time>
      </trkpt>
      <trkpt lat="43.3594080" lon="-4.4329370">
        <ele>62.6</ele>
        <time>2021-07-18T07:08:06Z</time>
      </trkpt>
      <trkpt lat="43.3594130" lon="-4.4329700">
        <ele>63.0</ele>
        <time>2021-07-18T07:08:07Z</time>
      </trkpt>
      <trkpt lat="43.3594180" lon="-4.4329970">
        <ele>63.8</ele>
        <time>2021-07-18T07:08:08Z</time>
      </trkpt>
      <trkpt lat="43.3594560" lon="-4.4331550">
        <ele>63.8</ele>
        <time>2021-07-18T07:08:13Z</time>
      </trkpt>
      <trkpt lat="43.3594640" lon="-4.4331830">
        <ele>63.8</ele>
        <time>2021-07-18T07:08:14Z</time>
      </trkpt>
      <trkpt lat="43.3594870" lon="-4.4332680">
        <ele>64.2</ele>
        <time>2021-07-18T07:08:17Z</time>
      </trkpt>
      <trkpt lat="43.3594920" lon="-4.4332960">
        <ele>64.8</ele>
        <time>2021-07-18T07:08:18Z</time>
      </trkpt>
      <trkpt lat="43.3594990" lon="-4.4333230">
        <ele>65.2</ele>
        <time>2021-07-18T07:08:19Z</time>
      </trkpt>
      <trkpt lat="43.3595070" lon="-4.4333490">
        <ele>65.6</ele>
        <time>2021-07-18T07:08:20Z</time>
      </trkpt>
      <trkpt lat="43.3595120" lon="-4.4333770">
        <ele>66.0</ele>
        <time>2021-07-18T07:08:21Z</time>
      </trkpt>
      <trkpt lat="43.3595600" lon="-4.4336100">
        <ele>66.4</ele>
        <time>2021-07-18T07:08:29Z</time>
      </trkpt>
      <trkpt lat="43.3595670" lon="-4.4336400">
        <ele>66.8</ele>
        <time>2021-07-18T07:08:30Z</time>
      </trkpt>
      <trkpt lat="43.3595750" lon="-4.4336670">
        <ele>67.2</ele>
        <time>2021-07-18T07:08:31Z</time>
      </trkpt>
      <trkpt lat="43.3595800" lon="-4.4336990">
        <ele>68.2</ele>
        <time>2021-07-18T07:08:32Z</time>
      </trkpt>
      <trkpt lat="43.3596060" lon="-4.4338410">
        <ele>68.2</ele>
        <time>2021-07-18T07:08:37Z</time>
      </trkpt>
      <trkpt lat="43.3596280" lon="-4.4339300">
        <ele>68.6</ele>
        <time>2021-07-18T07:08:41Z</time>
      </trkpt>
      <trkpt lat="43.3596300" lon="-4.4339550">
        <ele>69.0</ele>
        <time>2021-07-18T07:08:42Z</time>
      </trkpt>
      <trkpt lat="43.3596320" lon="-4.4339820">
        <ele>69.4</ele>
        <time>2021-07-18T07:08:43Z</time>
      </trkpt>
      <trkpt lat="43.3596390" lon="-4.4340040">
        <ele>69.8</ele>
        <time>2021-07-18T07:08:44Z</time>
      </trkpt>
      <trkpt lat="43.3596460" lon="-4.4340310">
        <ele>70.2</ele>
        <time>2021-07-18T07:08:45Z</time>
      </trkpt>
      <trkpt lat="43.3597070" lon="-4.4342250">
        <ele>70.2</ele>
        <time>2021-07-18T07:08:52Z</time>
      </trkpt>
      <trkpt lat="43.3597160" lon="-4.4342890">
        <ele>70.6</ele>
        <time>2021-07-18T07:08:54Z</time>
      </trkpt>
      <trkpt lat="43.3597200" lon="-4.4343190">
        <ele>71.0</ele>
        <time>2021-07-18T07:08:55Z</time>
      </trkpt>
      <trkpt lat="43.3597300" lon="-4.4343440">
        <ele>71.4</ele>
        <time>2021-07-18T07:08:56Z</time>
      </trkpt>
      <trkpt lat="43.3597370" lon="-4.4343720">
        <ele>72.4</ele>
        <time>2021-07-18T07:08:57Z</time>
      </trkpt>
      <trkpt lat="43.3597570" lon="-4.4344530">
        <ele>72.4</ele>
        <time>2021-07-18T07:09:00Z</time>
      </trkpt>
      <trkpt lat="43.3597800" lon="-4.4346290">
        <ele>72.4</ele>
        <time>2021-07-18T07:09:07Z</time>
      </trkpt>
      <trkpt lat="43.3597840" lon="-4.4346570">
        <ele>72.8</ele>
        <time>2021-07-18T07:09:08Z</time>
      </trkpt>
      <trkpt lat="43.3597850" lon="-4.4346860">
        <ele>73.2</ele>
        <time>2021-07-18T07:09:09Z</time>
      </trkpt>
      <trkpt lat="43.3597880" lon="-4.4347170">
        <ele>73.6</ele>
        <time>2021-07-18T07:09:10Z</time>
      </trkpt>
      <trkpt lat="43.3597920" lon="-4.4347480">
        <ele>74.0</ele>
        <time>2021-07-18T07:09:11Z</time>
      </trkpt>
      <trkpt lat="43.3597930" lon="-4.4347770">
        <ele>74.4</ele>
        <time>2021-07-18T07:09:12Z</time>
      </trkpt>
      <trkpt lat="43.3598060" lon="-4.4349080">
        <ele>74.4</ele>
        <time>2021-07-18T07:09:16Z</time>
      </trkpt>
      <trkpt lat="43.3598120" lon="-4.4350660">
        <ele>74.8</ele>
        <time>2021-07-18T07:09:21Z</time>
      </trkpt>
      <trkpt lat="43.3598140" lon="-4.4350970">
        <ele>75.2</ele>
        <time>2021-07-18T07:09:22Z</time>
      </trkpt>
      <trkpt lat="43.3598180" lon="-4.4351360">
        <ele>75.6</ele>
        <time>2021-07-18T07:09:23Z</time>
      </trkpt>
      <trkpt lat="43.3598160" lon="-4.4351760">
        <ele>76.0</ele>
        <time>2021-07-18T07:09:24Z</time>
      </trkpt>
      <trkpt lat="43.3598130" lon="-4.4352130">
        <ele>76.4</ele>
        <time>2021-07-18T07:09:25Z</time>
      </trkpt>
      <trkpt lat="43.3598060" lon="-4.4353490">
        <ele>76.4</ele>
        <time>2021-07-18T07:09:29Z</time>
      </trkpt>
      <trkpt lat="43.3598100" lon="-4.4354400">
        <ele>76.8</ele>
        <time>2021-07-18T07:09:32Z</time>
      </trkpt>
      <trkpt lat="43.3598100" lon="-4.4354660">
        <ele>77.2</ele>
        <time>2021-07-18T07:09:33Z</time>
      </trkpt>
      <trkpt lat="43.3598090" lon="-4.4354960">
        <ele>77.8</ele>
        <time>2021-07-18T07:09:34Z</time>
      </trkpt>
      <trkpt lat="43.3598050" lon="-4.4355230">
        <ele>78.2</ele>
        <time>2021-07-18T07:09:35Z</time>
      </trkpt>
      <trkpt lat="43.3598080" lon="-4.4355490">
        <ele>78.6</ele>
        <time>2021-07-18T07:09:36Z</time>
      </trkpt>
      <trkpt lat="43.3598030" lon="-4.4357390">
        <ele>78.6</ele>
        <time>2021-07-18T07:09:43Z</time>
      </trkpt>
      <trkpt lat="43.3597930" lon="-4.4358290">
        <ele>79.0</ele>
        <time>2021-07-18T07:09:46Z</time>
      </trkpt>
      <trkpt lat="43.3597880" lon="-4.4358590">
        <ele>79.4</ele>
        <time>2021-07-18T07:09:47Z</time>
      </trkpt>
      <trkpt lat="43.3597790" lon="-4.4358890">
        <ele>79.8</ele>
        <time>2021-07-18T07:09:48Z</time>
      </trkpt>
      <trkpt lat="43.3597670" lon="-4.4359160">
        <ele>80.2</ele>
        <time>2021-07-18T07:09:49Z</time>
      </trkpt>
      <trkpt lat="43.3597550" lon="-4.4359460">
        <ele>80.6</ele>
        <time>2021-07-18T07:09:50Z</time>
      </trkpt>
      <trkpt lat="43.3597050" lon="-4.4361540">
        <ele>81.0</ele>
        <time>2021-07-18T07:09:58Z</time>
      </trkpt>
      <trkpt lat="43.3596930" lon="-4.4361770">
        <ele>81.4</ele>
        <time>2021-07-18T07:09:59Z</time>
      </trkpt>
      <trkpt lat="43.3596870" lon="-4.4361980">
        <ele>81.8</ele>
        <time>2021-07-18T07:10:00Z</time>
      </trkpt>
      <trkpt lat="43.3596810" lon="-4.4362250">
        <ele>82.2</ele>
        <time>2021-07-18T07:10:01Z</time>
      </trkpt>
      <trkpt lat="43.3596720" lon="-4.4362540">
        <ele>82.6</ele>
        <time>2021-07-18T07:10:02Z</time>
      </trkpt>
      <trkpt lat="43.3596020" lon="-4.4364070">
        <ele>82.6</ele>
        <time>2021-07-18T07:10:07Z</time>
      </trkpt>
      <trkpt lat="43.3595280" lon="-4.4365270">
        <ele>83.0</ele>
        <time>2021-07-18T07:10:12Z</time>
      </trkpt>
      <trkpt lat="43.3595150" lon="-4.4365550">
        <ele>83.4</ele>
        <time>2021-07-18T07:10:13Z</time>
      </trkpt>
      <trkpt lat="43.3594940" lon="-4.4365810">
        <ele>83.8</ele>
        <time>2021-07-18T07:10:14Z</time>
      </trkpt>
      <trkpt lat="43.3594710" lon="-4.4366070">
        <ele>84.2</ele>
        <time>2021-07-18T07:10:15Z</time>
      </trkpt>
      <trkpt lat="43.3594580" lon="-4.4366360">
        <ele>84.8</ele>
        <time>2021-07-18T07:10:16Z</time>
      </trkpt>
      <trkpt lat="43.3593960" lon="-4.4367340">
        <ele>84.8</ele>
        <time>2021-07-18T07:10:20Z</time>
      </trkpt>
      <trkpt lat="43.3593300" lon="-4.4368290">
        <ele>84.8</ele>
        <time>2021-07-18T07:10:25Z</time>
      </trkpt>
      <trkpt lat="43.3593070" lon="-4.4368630">
        <ele>85.2</ele>
        <time>2021-07-18T07:10:27Z</time>
      </trkpt>
      <trkpt lat="43.3592880" lon="-4.4368870">
        <ele>85.6</ele>
        <time>2021-07-18T07:10:28Z</time>
      </trkpt>
      <trkpt lat="43.3592720" lon="-4.4369080">
        <ele>86.0</ele>
        <time>2021-07-18T07:10:29Z</time>
      </trkpt>
      <trkpt lat="43.3592560" lon="-4.4369400">
        <ele>86.4</ele>
        <time>2021-07-18T07:10:30Z</time>
      </trkpt>
      <trkpt lat="43.3592450" lon="-4.4369750">
        <ele>86.8</ele>
        <time>2021-07-18T07:10:31Z</time>
      </trkpt>
      <trkpt lat="43.3591690" lon="-4.4370960">
        <ele>86.8</ele>
        <time>2021-07-18T07:10:37Z</time>
      </trkpt>
      <trkpt lat="43.3591590" lon="-4.4371130">
        <ele>86.8</ele>
        <time>2021-07-18T07:10:38Z</time>
      </trkpt>
      <trkpt lat="43.3591320" lon="-4.4371520">
        <ele>87.2</ele>
        <time>2021-07-18T07:10:40Z</time>
      </trkpt>
      <trkpt lat="43.3591190" lon="-4.4371710">
        <ele>87.6</ele>
        <time>2021-07-18T07:10:41Z</time>
      </trkpt>
      <trkpt lat="43.3591030" lon="-4.4371940">
        <ele>88.0</ele>
        <time>2021-07-18T07:10:42Z</time>
      </trkpt>
      <trkpt lat="43.3590950" lon="-4.4372170">
        <ele>88.4</ele>
        <time>2021-07-18T07:10:43Z</time>
      </trkpt>
      <trkpt lat="43.3590810" lon="-4.4372370">
        <ele>88.8</ele>
        <time>2021-07-18T07:10:44Z</time>
      </trkpt>
      <trkpt lat="43.3590550" lon="-4.4372730">
        <ele>88.8</ele>
        <time>2021-07-18T07:10:46Z</time>
      </trkpt>
      <trkpt lat="43.3589460" lon="-4.4374330">
        <ele>88.8</ele>
        <time>2021-07-18T07:10:54Z</time>
      </trkpt>
      <trkpt lat="43.3589180" lon="-4.4374780">
        <ele>89.2</ele>
        <time>2021-07-18T07:10:56Z</time>
      </trkpt>
      <trkpt lat="43.3589030" lon="-4.4375030">
        <ele>89.6</ele>
        <time>2021-07-18T07:10:57Z</time>
      </trkpt>
      <trkpt lat="43.3588860" lon="-4.4375290">
        <ele>90.0</ele>
        <time>2021-07-18T07:10:58Z</time>
      </trkpt>
      <trkpt lat="43.3588690" lon="-4.4375510">
        <ele>90.4</ele>
        <time>2021-07-18T07:10:59Z</time>
      </trkpt>
      <trkpt lat="43.3588540" lon="-4.4375760">
        <ele>90.8</ele>
        <time>2021-07-18T07:11:00Z</time>
      </trkpt>
      <trkpt lat="43.3588030" lon="-4.4377020">
        <ele>90.8</ele>
        <time>2021-07-18T07:11:04Z</time>
      </trkpt>
      <trkpt lat="43.3587770" lon="-4.4378370">
        <ele>90.8</ele>
        <time>2021-07-18T07:11:08Z</time>
      </trkpt>
      <trkpt lat="43.3587510" lon="-4.4379360">
        <ele>90.8</ele>
        <time>2021-07-18T07:11:11Z</time>
      </trkpt>
      <trkpt lat="43.3587330" lon="-4.4380340">
        <ele>90.8</ele>
        <time>2021-07-18T07:11:14Z</time>
      </trkpt>
      <trkpt lat="43.3587240" lon="-4.4380880">
        <ele>90.8</ele>
        <time>2021-07-18T07:11:16Z</time>
      </trkpt>
      <trkpt lat="43.3586980" lon="-4.4381670">
        <ele>90.8</ele>
        <time>2021-07-18T07:11:18Z</time>
      </trkpt>
      <trkpt lat="43.3586860" lon="-4.4382030">
        <ele>90.8</ele>
        <time>2021-07-18T07:11:19Z</time>
      </trkpt>
      <trkpt lat="43.3586690" lon="-4.4382900">
        <ele>90.8</ele>
        <time>2021-07-18T07:11:21Z</time>
      </trkpt>
      <trkpt lat="43.3586500" lon="-4.4384380">
        <ele>90.8</ele>
        <time>2021-07-18T07:11:24Z</time>
      </trkpt>
      <trkpt lat="43.3586440" lon="-4.4385090">
        <ele>90.8</ele>
        <time>2021-07-18T07:11:25Z</time>
      </trkpt>
      <trkpt lat="43.3586240" lon="-4.4387420">
        <ele>90.8</ele>
        <time>2021-07-18T07:11:28Z</time>
      </trkpt>
      <trkpt lat="43.3586260" lon="-4.4389010">
        <ele>90.8</ele>
        <time>2021-07-18T07:11:30Z</time>
      </trkpt>
      <trkpt lat="43.3586260" lon="-4.4389760">
        <ele>90.8</ele>
        <time>2021-07-18T07:11:31Z</time>
      </trkpt>
      <trkpt lat="43.3586250" lon="-4.4394260">
        <ele>90.8</ele>
        <time>2021-07-18T07:11:38Z</time>
      </trkpt>
      <trkpt lat="43.3586190" lon="-4.4395380">
        <ele>90.8</ele>
        <time>2021-07-18T07:11:40Z</time>
      </trkpt>
      <trkpt lat="43.3586180" lon="-4.4396370">
        <ele>90.8</ele>
        <time>2021-07-18T07:11:42Z</time>
      </trkpt>
      <trkpt lat="43.3586170" lon="-4.4397390">
        <ele>90.8</ele>
        <time>2021-07-18T07:11:44Z</time>
      </trkpt>
      <trkpt lat="43.3585960" lon="-4.4400520">
        <ele>90.8</ele>
        <time>2021-07-18T07:11:51Z</time>
      </trkpt>
      <trkpt lat="43.3585870" lon="-4.4404030">
        <ele>90.8</ele>
        <time>2021-07-18T07:11:58Z</time>
      </trkpt>
      <trkpt lat="43.3585240" lon="-4.4407050">
        <ele>90.8</ele>
        <time>2021-07-18T07:12:05Z</time>
      </trkpt>
      <trkpt lat="43.3584030" lon="-4.4409740">
        <ele>90.8</ele>
        <time>2021-07-18T07:12:12Z</time>
      </trkpt>
      <trkpt lat="43.3583100" lon="-4.4412500">
        <ele>90.8</ele>
        <time>2021-07-18T07:12:18Z</time>
      </trkpt>
      <trkpt lat="43.3583020" lon="-4.4415050">
        <ele>90.8</ele>
        <time>2021-07-18T07:12:24Z</time>
      </trkpt>
      <trkpt lat="43.3582970" lon="-4.4418670">
        <ele>90.8</ele>
        <time>2021-07-18T07:12:31Z</time>
      </trkpt>
      <trkpt lat="43.3582610" lon="-4.4423780">
        <ele>90.8</ele>
        <time>2021-07-18T07:12:41Z</time>
      </trkpt>
      <trkpt lat="43.3582390" lon="-4.4425480">
        <ele>90.8</ele>
        <time>2021-07-18T07:12:44Z</time>
      </trkpt>
      <trkpt lat="43.3582090" lon="-4.4427520">
        <ele>90.8</ele>
        <time>2021-07-18T07:12:47Z</time>
      </trkpt>
      <trkpt lat="43.3582010" lon="-4.4428170">
        <ele>90.8</ele>
        <time>2021-07-18T07:12:48Z</time>
      </trkpt>
      <trkpt lat="43.3581730" lon="-4.4430610">
        <ele>90.8</ele>
        <time>2021-07-18T07:12:51Z</time>
      </trkpt>
      <trkpt lat="43.3581600" lon="-4.4432350">
        <ele>90.8</ele>
        <time>2021-07-18T07:12:53Z</time>
      </trkpt>
      <trkpt lat="43.3581580" lon="-4.4435250">
        <ele>90.8</ele>
        <time>2021-07-18T07:12:56Z</time>
      </trkpt>
      <trkpt lat="43.3581690" lon="-4.4438210">
        <ele>90.8</ele>
        <time>2021-07-18T07:12:59Z</time>
      </trkpt>
      <trkpt lat="43.3581910" lon="-4.4441020">
        <ele>90.8</ele>
        <time>2021-07-18T07:13:02Z</time>
      </trkpt>
      <trkpt lat="43.3581960" lon="-4.4441940">
        <ele>90.0</ele>
        <time>2021-07-18T07:13:03Z</time>
      </trkpt>
      <trkpt lat="43.3581990" lon="-4.4442860">
        <ele>89.6</ele>
        <time>2021-07-18T07:13:04Z</time>
      </trkpt>
      <trkpt lat="43.3582010" lon="-4.4443730">
        <ele>89.0</ele>
        <time>2021-07-18T07:13:05Z</time>
      </trkpt>
      <trkpt lat="43.3582010" lon="-4.4444640">
        <ele>88.6</ele>
        <time>2021-07-18T07:13:06Z</time>
      </trkpt>
      <trkpt lat="43.3581790" lon="-4.4450020">
        <ele>88.6</ele>
        <time>2021-07-18T07:13:12Z</time>
      </trkpt>
      <trkpt lat="43.3581770" lon="-4.4450890">
        <ele>88.2</ele>
        <time>2021-07-18T07:13:13Z</time>
      </trkpt>
      <trkpt lat="43.3581730" lon="-4.4451720">
        <ele>87.8</ele>
        <time>2021-07-18T07:13:14Z</time>
      </trkpt>
      <trkpt lat="43.3581700" lon="-4.4452500">
        <ele>87.4</ele>
        <time>2021-07-18T07:13:15Z</time>
      </trkpt>
      <trkpt lat="43.3581650" lon="-4.4453190">
        <ele>87.0</ele>
        <time>2021-07-18T07:13:16Z</time>
      </trkpt>
      <trkpt lat="43.3581590" lon="-4.4453780">
        <ele>86.6</ele>
        <time>2021-07-18T07:13:17Z</time>
      </trkpt>
      <trkpt lat="43.3581550" lon="-4.4454240">
        <ele>86.6</ele>
        <time>2021-07-18T07:13:18Z</time>
      </trkpt>
      <trkpt lat="43.3581680" lon="-4.4455630">
        <ele>86.6</ele>
        <time>2021-07-18T07:13:23Z</time>
      </trkpt>
      <trkpt lat="43.3581720" lon="-4.4455840">
        <ele>86.6</ele>
        <time>2021-07-18T07:13:25Z</time>
      </trkpt>
      <trkpt lat="43.3582200" lon="-4.4456170">
        <ele>84.6</ele>
        <time>2021-07-18T07:15:19Z</time>
      </trkpt>
      <trkpt lat="43.3582260" lon="-4.4456510">
        <ele>84.6</ele>
        <time>2021-07-18T07:15:20Z</time>
      </trkpt>
      <trkpt lat="43.3582540" lon="-4.4458450">
        <ele>84.6</ele>
        <time>2021-07-18T07:15:24Z</time>
      </trkpt>
      <trkpt lat="43.3582730" lon="-4.4459440">
        <ele>84.6</ele>
        <time>2021-07-18T07:15:26Z</time>
      </trkpt>
      <trkpt lat="43.3582840" lon="-4.4459940">
        <ele>84.2</ele>
        <time>2021-07-18T07:15:27Z</time>
      </trkpt>
      <trkpt lat="43.3582910" lon="-4.4460440">
        <ele>83.6</ele>
        <time>2021-07-18T07:15:28Z</time>
      </trkpt>
      <trkpt lat="43.3582950" lon="-4.4460940">
        <ele>83.2</ele>
        <time>2021-07-18T07:15:29Z</time>
      </trkpt>
      <trkpt lat="43.3583020" lon="-4.4461420">
        <ele>82.8</ele>
        <time>2021-07-18T07:15:30Z</time>
      </trkpt>
      <trkpt lat="43.3583110" lon="-4.4461890">
        <ele>82.2</ele>
        <time>2021-07-18T07:15:31Z</time>
      </trkpt>
      <trkpt lat="43.3583370" lon="-4.4462760">
        <ele>82.2</ele>
        <time>2021-07-18T07:15:33Z</time>
      </trkpt>
      <trkpt lat="43.3583890" lon="-4.4463500">
        <ele>82.2</ele>
        <time>2021-07-18T07:15:35Z</time>
      </trkpt>
      <trkpt lat="43.3584270" lon="-4.4463800">
        <ele>82.2</ele>
        <time>2021-07-18T07:15:36Z</time>
      </trkpt>
      <trkpt lat="43.3585990" lon="-4.4464850">
        <ele>82.2</ele>
        <time>2021-07-18T07:15:40Z</time>
      </trkpt>
      <trkpt lat="43.3586640" lon="-4.4465150">
        <ele>81.8</ele>
        <time>2021-07-18T07:15:42Z</time>
      </trkpt>
      <trkpt lat="43.3586870" lon="-4.4465290">
        <ele>81.4</ele>
        <time>2021-07-18T07:15:43Z</time>
      </trkpt>
      <trkpt lat="43.3587110" lon="-4.4465470">
        <ele>80.8</ele>
        <time>2021-07-18T07:15:44Z</time>
      </trkpt>
      <trkpt lat="43.3587340" lon="-4.4465640">
        <ele>80.4</ele>
        <time>2021-07-18T07:15:45Z</time>
      </trkpt>
      <trkpt lat="43.3587560" lon="-4.4465840">
        <ele>80.0</ele>
        <time>2021-07-18T07:15:46Z</time>
      </trkpt>
      <trkpt lat="43.3588540" lon="-4.4466700">
        <ele>80.0</ele>
        <time>2021-07-18T07:15:51Z</time>
      </trkpt>
      <trkpt lat="43.3589110" lon="-4.4467080">
        <ele>80.0</ele>
        <time>2021-07-18T07:15:53Z</time>
      </trkpt>
      <trkpt lat="43.3590130" lon="-4.4467490">
        <ele>80.0</ele>
        <time>2021-07-18T07:15:56Z</time>
      </trkpt>
      <trkpt lat="43.3591210" lon="-4.4467950">
        <ele>80.0</ele>
        <time>2021-07-18T07:15:59Z</time>
      </trkpt>
      <trkpt lat="43.3592470" lon="-4.4468390">
        <ele>80.0</ele>
        <time>2021-07-18T07:16:02Z</time>
      </trkpt>
      <trkpt lat="43.3593450" lon="-4.4468600">
        <ele>80.0</ele>
        <time>2021-07-18T07:16:04Z</time>
      </trkpt>
      <trkpt lat="43.3595510" lon="-4.4469120">
        <ele>79.4</ele>
        <time>2021-07-18T07:16:08Z</time>
      </trkpt>
      <trkpt lat="43.3596010" lon="-4.4469300">
        <ele>78.8</ele>
        <time>2021-07-18T07:16:09Z</time>
      </trkpt>
      <trkpt lat="43.3596540" lon="-4.4469420">
        <ele>78.4</ele>
        <time>2021-07-18T07:16:10Z</time>
      </trkpt>
      <trkpt lat="43.3597020" lon="-4.4469460">
        <ele>77.8</ele>
        <time>2021-07-18T07:16:11Z</time>
      </trkpt>
      <trkpt lat="43.3597450" lon="-4.4469450">
        <ele>77.2</ele>
        <time>2021-07-18T07:16:12Z</time>
      </trkpt>
      <trkpt lat="43.3597860" lon="-4.4469390">
        <ele>76.6</ele>
        <time>2021-07-18T07:16:13Z</time>
      </trkpt>
      <trkpt lat="43.3598240" lon="-4.4469300">
        <ele>76.0</ele>
        <time>2021-07-18T07:16:14Z</time>
      </trkpt>
      <trkpt lat="43.3598620" lon="-4.4469190">
        <ele>75.4</ele>
        <time>2021-07-18T07:16:15Z</time>
      </trkpt>
      <trkpt lat="43.3598920" lon="-4.4469070">
        <ele>74.8</ele>
        <time>2021-07-18T07:16:16Z</time>
      </trkpt>
      <trkpt lat="43.3599230" lon="-4.4468890">
        <ele>74.2</ele>
        <time>2021-07-18T07:16:17Z</time>
      </trkpt>
      <trkpt lat="43.3599480" lon="-4.4468640">
        <ele>73.6</ele>
        <time>2021-07-18T07:16:18Z</time>
      </trkpt>
      <trkpt lat="43.3599650" lon="-4.4468280">
        <ele>73.0</ele>
        <time>2021-07-18T07:16:19Z</time>
      </trkpt>
      <trkpt lat="43.3599760" lon="-4.4467820">
        <ele>72.4</ele>
        <time>2021-07-18T07:16:20Z</time>
      </trkpt>
      <trkpt lat="43.3599800" lon="-4.4467320">
        <ele>72.0</ele>
        <time>2021-07-18T07:16:21Z</time>
      </trkpt>
      <trkpt lat="43.3599770" lon="-4.4466800">
        <ele>71.6</ele>
        <time>2021-07-18T07:16:22Z</time>
      </trkpt>
      <trkpt lat="43.3599720" lon="-4.4466270">
        <ele>71.0</ele>
        <time>2021-07-18T07:16:23Z</time>
      </trkpt>
      <trkpt lat="43.3599600" lon="-4.4465770">
        <ele>70.6</ele>
        <time>2021-07-18T07:16:24Z</time>
      </trkpt>
      <trkpt lat="43.3599390" lon="-4.4465300">
        <ele>70.2</ele>
        <time>2021-07-18T07:16:25Z</time>
      </trkpt>
      <trkpt lat="43.3598840" lon="-4.4464190">
        <ele>70.2</ele>
        <time>2021-07-18T07:16:27Z</time>
      </trkpt>
      <trkpt lat="43.3598090" lon="-4.4462240">
        <ele>70.2</ele>
        <time>2021-07-18T07:16:30Z</time>
      </trkpt>
      <trkpt lat="43.3597980" lon="-4.4461500">
        <ele>70.2</ele>
        <time>2021-07-18T07:16:31Z</time>
      </trkpt>
      <trkpt lat="43.3597870" lon="-4.4458640">
        <ele>70.2</ele>
        <time>2021-07-18T07:16:35Z</time>
      </trkpt>
      <trkpt lat="43.3597860" lon="-4.4458020">
        <ele>70.2</ele>
        <time>2021-07-18T07:16:36Z</time>
      </trkpt>
      <trkpt lat="43.3597320" lon="-4.4456210">
        <ele>70.2</ele>
        <time>2021-07-18T07:16:40Z</time>
      </trkpt>
      <trkpt lat="43.3596950" lon="-4.4455590">
        <ele>70.2</ele>
        <time>2021-07-18T07:16:42Z</time>
      </trkpt>
      <trkpt lat="43.3596650" lon="-4.4455090">
        <ele>70.2</ele>
        <time>2021-07-18T07:16:44Z</time>
      </trkpt>
      <trkpt lat="43.3596540" lon="-4.4454850">
        <ele>70.2</ele>
        <time>2021-07-18T07:16:45Z</time>
      </trkpt>
      <trkpt lat="43.3596440" lon="-4.4454170">
        <ele>70.2</ele>
        <time>2021-07-18T07:16:48Z</time>
      </trkpt>
      <trkpt lat="43.3596670" lon="-4.4453780">
        <ele>70.2</ele>
        <time>2021-07-18T07:16:50Z</time>
      </trkpt>
      <trkpt lat="43.3596990" lon="-4.4453530">
        <ele>70.2</ele>
        <time>2021-07-18T07:16:52Z</time>
      </trkpt>
      <trkpt lat="43.3597530" lon="-4.4453630">
        <ele>70.2</ele>
        <time>2021-07-18T07:16:55Z</time>
      </trkpt>
      <trkpt lat="43.3597920" lon="-4.4454010">
        <ele>70.2</ele>
        <time>2021-07-18T07:16:57Z</time>
      </trkpt>
      <trkpt lat="43.3598260" lon="-4.4454480">
        <ele>70.6</ele>
        <time>2021-07-18T07:16:59Z</time>
      </trkpt>
      <trkpt lat="43.3598430" lon="-4.4454760">
        <ele>71.2</ele>
        <time>2021-07-18T07:17:00Z</time>
      </trkpt>
      <trkpt lat="43.3598590" lon="-4.4455030">
        <ele>71.6</ele>
        <time>2021-07-18T07:17:01Z</time>
      </trkpt>
      <trkpt lat="43.3598750" lon="-4.4455310">
        <ele>72.0</ele>
        <time>2021-07-18T07:17:02Z</time>
      </trkpt>
      <trkpt lat="43.3598950" lon="-4.4455540">
        <ele>72.4</ele>
        <time>2021-07-18T07:17:03Z</time>
      </trkpt>
      <trkpt lat="43.3599610" lon="-4.4456140">
        <ele>72.4</ele>
        <time>2021-07-18T07:17:06Z</time>
      </trkpt>
      <trkpt lat="43.3600550" lon="-4.4456550">
        <ele>72.4</ele>
        <time>2021-07-18T07:17:09Z</time>
      </trkpt>
      <trkpt lat="43.3601190" lon="-4.4456570">
        <ele>72.4</ele>
        <time>2021-07-18T07:17:11Z</time>
      </trkpt>
      <trkpt lat="43.3603210" lon="-4.4455780">
        <ele>72.4</ele>
        <time>2021-07-18T07:17:17Z</time>
      </trkpt>
      <trkpt lat="43.3603870" lon="-4.4454900">
        <ele>73.0</ele>
        <time>2021-07-18T07:17:20Z</time>
      </trkpt>
      <trkpt lat="43.3604010" lon="-4.4454570">
        <ele>73.4</ele>
        <time>2021-07-18T07:17:21Z</time>
      </trkpt>
      <trkpt lat="43.3604110" lon="-4.4454240">
        <ele>73.8</ele>
        <time>2021-07-18T07:17:22Z</time>
      </trkpt>
      <trkpt lat="43.3604220" lon="-4.4453920">
        <ele>74.2</ele>
        <time>2021-07-18T07:17:23Z</time>
      </trkpt>
      <trkpt lat="43.3604300" lon="-4.4453590">
        <ele>74.6</ele>
        <time>2021-07-18T07:17:24Z</time>
      </trkpt>
      <trkpt lat="43.3605000" lon="-4.4452620">
        <ele>74.6</ele>
        <time>2021-07-18T07:17:28Z</time>
      </trkpt>
      <trkpt lat="43.3605920" lon="-4.4452680">
        <ele>75.0</ele>
        <time>2021-07-18T07:17:32Z</time>
      </trkpt>
      <trkpt lat="43.3606090" lon="-4.4452820">
        <ele>75.4</ele>
        <time>2021-07-18T07:17:33Z</time>
      </trkpt>
      <trkpt lat="43.3606270" lon="-4.4452940">
        <ele>76.2</ele>
        <time>2021-07-18T07:17:34Z</time>
      </trkpt>
      <trkpt lat="43.3606450" lon="-4.4453070">
        <ele>76.8</ele>
        <time>2021-07-18T07:17:35Z</time>
      </trkpt>
      <trkpt lat="43.3607220" lon="-4.4453420">
        <ele>77.2</ele>
        <time>2021-07-18T07:17:39Z</time>
      </trkpt>
      <trkpt lat="43.3607460" lon="-4.4453470">
        <ele>77.6</ele>
        <time>2021-07-18T07:17:40Z</time>
      </trkpt>
      <trkpt lat="43.3607750" lon="-4.4453510">
        <ele>78.0</ele>
        <time>2021-07-18T07:17:41Z</time>
      </trkpt>
      <trkpt lat="43.3608090" lon="-4.4453550">
        <ele>78.4</ele>
        <time>2021-07-18T07:17:42Z</time>
      </trkpt>
      <trkpt lat="43.3608450" lon="-4.4453640">
        <ele>78.8</ele>
        <time>2021-07-18T07:17:43Z</time>
      </trkpt>
      <trkpt lat="43.3609240" lon="-4.4453760">
        <ele>78.8</ele>
        <time>2021-07-18T07:17:45Z</time>
      </trkpt>
      <trkpt lat="43.3611270" lon="-4.4453760">
        <ele>78.8</ele>
        <time>2021-07-18T07:17:51Z</time>
      </trkpt>
      <trkpt lat="43.3611900" lon="-4.4453580">
        <ele>78.8</ele>
        <time>2021-07-18T07:17:55Z</time>
      </trkpt>
      <trkpt lat="43.3612140" lon="-4.4453560">
        <ele>78.8</ele>
        <time>2021-07-18T07:17:57Z</time>
      </trkpt>
      <trkpt lat="43.3612750" lon="-4.4453220">
        <ele>78.8</ele>
        <time>2021-07-18T07:18:00Z</time>
      </trkpt>
      <trkpt lat="43.3613250" lon="-4.4452880">
        <ele>78.8</ele>
        <time>2021-07-18T07:18:02Z</time>
      </trkpt>
      <trkpt lat="43.3614500" lon="-4.4452690">
        <ele>78.8</ele>
        <time>2021-07-18T07:18:07Z</time>
      </trkpt>
      <trkpt lat="43.3615040" lon="-4.4452790">
        <ele>78.8</ele>
        <time>2021-07-18T07:18:09Z</time>
      </trkpt>
      <trkpt lat="43.3616170" lon="-4.4453280">
        <ele>79.2</ele>
        <time>2021-07-18T07:18:14Z</time>
      </trkpt>
      <trkpt lat="43.3616410" lon="-4.4453480">
        <ele>79.6</ele>
        <time>2021-07-18T07:18:15Z</time>
      </trkpt>
      <trkpt lat="43.3616630" lon="-4.4453710">
        <ele>80.0</ele>
        <time>2021-07-18T07:18:16Z</time>
      </trkpt>
      <trkpt lat="43.3616820" lon="-4.4453980">
        <ele>80.4</ele>
        <time>2021-07-18T07:18:17Z</time>
      </trkpt>
      <trkpt lat="43.3617030" lon="-4.4454280">
        <ele>80.8</ele>
        <time>2021-07-18T07:18:18Z</time>
      </trkpt>
      <trkpt lat="43.3617440" lon="-4.4455240">
        <ele>80.8</ele>
        <time>2021-07-18T07:18:21Z</time>
      </trkpt>
      <trkpt lat="43.3617550" lon="-4.4457000">
        <ele>80.8</ele>
        <time>2021-07-18T07:18:26Z</time>
      </trkpt>
      <trkpt lat="43.3617560" lon="-4.4458090">
        <ele>81.2</ele>
        <time>2021-07-18T07:18:29Z</time>
      </trkpt>
      <trkpt lat="43.3617560" lon="-4.4458470">
        <ele>81.6</ele>
        <time>2021-07-18T07:18:30Z</time>
      </trkpt>
      <trkpt lat="43.3617550" lon="-4.4458860">
        <ele>82.0</ele>
        <time>2021-07-18T07:18:31Z</time>
      </trkpt>
      <trkpt lat="43.3617550" lon="-4.4459240">
        <ele>82.6</ele>
        <time>2021-07-18T07:18:32Z</time>
      </trkpt>
      <trkpt lat="43.3617570" lon="-4.4459630">
        <ele>83.0</ele>
        <time>2021-07-18T07:18:33Z</time>
      </trkpt>
      <trkpt lat="43.3617590" lon="-4.4460020">
        <ele>83.0</ele>
        <time>2021-07-18T07:18:34Z</time>
      </trkpt>
      <trkpt lat="43.3617970" lon="-4.4463120">
        <ele>83.0</ele>
        <time>2021-07-18T07:18:42Z</time>
      </trkpt>
      <trkpt lat="43.3619120" lon="-4.4464760">
        <ele>83.0</ele>
        <time>2021-07-18T07:18:48Z</time>
      </trkpt>
      <trkpt lat="43.3619490" lon="-4.4465170">
        <ele>83.4</ele>
        <time>2021-07-18T07:18:50Z</time>
      </trkpt>
      <trkpt lat="43.3619630" lon="-4.4465420">
        <ele>83.8</ele>
        <time>2021-07-18T07:18:51Z</time>
      </trkpt>
      <trkpt lat="43.3619780" lon="-4.4465660">
        <ele>84.2</ele>
        <time>2021-07-18T07:18:52Z</time>
      </trkpt>
      <trkpt lat="43.3619890" lon="-4.4465960">
        <ele>84.8</ele>
        <time>2021-07-18T07:18:53Z</time>
      </trkpt>
      <trkpt lat="43.3619980" lon="-4.4466260">
        <ele>85.2</ele>
        <time>2021-07-18T07:18:54Z</time>
      </trkpt>
      <trkpt lat="43.3620090" lon="-4.4468350">
        <ele>85.2</ele>
        <time>2021-07-18T07:19:00Z</time>
      </trkpt>
      <trkpt lat="43.3619910" lon="-4.4471260">
        <ele>85.2</ele>
        <time>2021-07-18T07:19:07Z</time>
      </trkpt>
      <trkpt lat="43.3619740" lon="-4.4473550">
        <ele>85.2</ele>
        <time>2021-07-18T07:19:12Z</time>
      </trkpt>
      <trkpt lat="43.3619740" lon="-4.4474520">
        <ele>85.2</ele>
        <time>2021-07-18T07:19:14Z</time>
      </trkpt>
      <trkpt lat="43.3620010" lon="-4.4476140">
        <ele>85.2</ele>
        <time>2021-07-18T07:19:17Z</time>
      </trkpt>
      <trkpt lat="43.3620220" lon="-4.4476700">
        <ele>85.2</ele>
        <time>2021-07-18T07:19:18Z</time>
      </trkpt>
      <trkpt lat="43.3620650" lon="-4.4477770">
        <ele>85.2</ele>
        <time>2021-07-18T07:19:20Z</time>
      </trkpt>
      <trkpt lat="43.3620970" lon="-4.4478870">
        <ele>85.2</ele>
        <time>2021-07-18T07:19:22Z</time>
      </trkpt>
      <trkpt lat="43.3621240" lon="-4.4479980">
        <ele>85.2</ele>
        <time>2021-07-18T07:19:24Z</time>
      </trkpt>
      <trkpt lat="43.3621920" lon="-4.4483260">
        <ele>85.2</ele>
        <time>2021-07-18T07:19:29Z</time>
      </trkpt>
      <trkpt lat="43.3622150" lon="-4.4483950">
        <ele>85.2</ele>
        <time>2021-07-18T07:19:30Z</time>
      </trkpt>
      <trkpt lat="43.3622740" lon="-4.4485240">
        <ele>85.2</ele>
        <time>2021-07-18T07:19:32Z</time>
      </trkpt>
      <trkpt lat="43.3623830" lon="-4.4487480">
        <ele>85.2</ele>
        <time>2021-07-18T07:19:36Z</time>
      </trkpt>
      <trkpt lat="43.3624690" lon="-4.4489460">
        <ele>85.2</ele>
        <time>2021-07-18T07:19:41Z</time>
      </trkpt>
      <trkpt lat="43.3624870" lon="-4.4490110">
        <ele>85.2</ele>
        <time>2021-07-18T07:19:43Z</time>
      </trkpt>
      <trkpt lat="43.3624900" lon="-4.4491440">
        <ele>85.2</ele>
        <time>2021-07-18T07:19:47Z</time>
      </trkpt>
      <trkpt lat="43.3624420" lon="-4.4492530">
        <ele>85.2</ele>
        <time>2021-07-18T07:19:52Z</time>
      </trkpt>
      <trkpt lat="43.3623770" lon="-4.4492780">
        <ele>85.2</ele>
        <time>2021-07-18T07:19:57Z</time>
      </trkpt>
      <trkpt lat="43.3623720" lon="-4.4492780">
        <ele>85.2</ele>
        <time>2021-07-18T07:19:58Z</time>
      </trkpt>
      <trkpt lat="43.3624040" lon="-4.4492700">
        <ele>83.2</ele>
        <time>2021-07-18T07:39:46Z</time>
      </trkpt>
      <trkpt lat="43.3624140" lon="-4.4492620">
        <ele>83.2</ele>
        <time>2021-07-18T07:39:47Z</time>
      </trkpt>
      <trkpt lat="43.3624210" lon="-4.4492520">
        <ele>83.2</ele>
        <time>2021-07-18T07:39:48Z</time>
      </trkpt>
      <trkpt lat="43.3625150" lon="-4.4492570">
        <ele>83.2</ele>
        <time>2021-07-18T07:39:54Z</time>
      </trkpt>
      <trkpt lat="43.3625780" lon="-4.4493910">
        <ele>83.2</ele>
        <time>2021-07-18T07:39:59Z</time>
      </trkpt>
      <trkpt lat="43.3625850" lon="-4.4494260">
        <ele>83.2</ele>
        <time>2021-07-18T07:40:00Z</time>
      </trkpt>
      <trkpt lat="43.3625890" lon="-4.4494610">
        <ele>83.2</ele>
        <time>2021-07-18T07:40:01Z</time>
      </trkpt>
      <trkpt lat="43.3625980" lon="-4.4495640">
        <ele>83.2</ele>
        <time>2021-07-18T07:40:04Z</time>
      </trkpt>
      <trkpt lat="43.3626100" lon="-4.4496570">
        <ele>83.2</ele>
        <time>2021-07-18T07:40:07Z</time>
      </trkpt>
      <trkpt lat="43.3626460" lon="-4.4497380">
        <ele>83.6</ele>
        <time>2021-07-18T07:40:11Z</time>
      </trkpt>
      <trkpt lat="43.3626680" lon="-4.4497520">
        <ele>84.0</ele>
        <time>2021-07-18T07:40:12Z</time>
      </trkpt>
      <trkpt lat="43.3626880" lon="-4.4497590">
        <ele>84.4</ele>
        <time>2021-07-18T07:40:13Z</time>
      </trkpt>
      <trkpt lat="43.3627130" lon="-4.4497610">
        <ele>84.8</ele>
        <time>2021-07-18T07:40:14Z</time>
      </trkpt>
      <trkpt lat="43.3627370" lon="-4.4497560">
        <ele>85.2</ele>
        <time>2021-07-18T07:40:15Z</time>
      </trkpt>
      <trkpt lat="43.3627610" lon="-4.4497510">
        <ele>85.2</ele>
        <time>2021-07-18T07:40:16Z</time>
      </trkpt>
      <trkpt lat="43.3627890" lon="-4.4497530">
        <ele>85.2</ele>
        <time>2021-07-18T07:40:17Z</time>
      </trkpt>
      <trkpt lat="43.3628560" lon="-4.4497560">
        <ele>85.2</ele>
        <time>2021-07-18T07:40:20Z</time>
      </trkpt>
      <trkpt lat="43.3629110" lon="-4.4497820">
        <ele>85.6</ele>
        <time>2021-07-18T07:40:23Z</time>
      </trkpt>
      <trkpt lat="43.3629290" lon="-4.4497920">
        <ele>86.0</ele>
        <time>2021-07-18T07:40:24Z</time>
      </trkpt>
      <trkpt lat="43.3629440" lon="-4.4498070">
        <ele>86.4</ele>
        <time>2021-07-18T07:40:25Z</time>
      </trkpt>
      <trkpt lat="43.3629590" lon="-4.4498320">
        <ele>86.8</ele>
        <time>2021-07-18T07:40:26Z</time>
      </trkpt>
      <trkpt lat="43.3629780" lon="-4.4498580">
        <ele>87.2</ele>
        <time>2021-07-18T07:40:27Z</time>
      </trkpt>
      <trkpt lat="43.3630060" lon="-4.4499220">
        <ele>87.2</ele>
        <time>2021-07-18T07:40:29Z</time>
      </trkpt>
      <trkpt lat="43.3630430" lon="-4.4500600">
        <ele>87.2</ele>
        <time>2021-07-18T07:40:33Z</time>
      </trkpt>
      <trkpt lat="43.3630630" lon="-4.4501320">
        <ele>87.2</ele>
        <time>2021-07-18T07:40:35Z</time>
      </trkpt>
      <trkpt lat="43.3631180" lon="-4.4503720">
        <ele>87.2</ele>
        <time>2021-07-18T07:40:41Z</time>
      </trkpt>
      <trkpt lat="43.3632250" lon="-4.4504340">
        <ele>87.2</ele>
        <time>2021-07-18T07:40:45Z</time>
      </trkpt>
      <trkpt lat="43.3634540" lon="-4.4504890">
        <ele>87.6</ele>
        <time>2021-07-18T07:40:54Z</time>
      </trkpt>
      <trkpt lat="43.3634750" lon="-4.4505040">
        <ele>88.0</ele>
        <time>2021-07-18T07:40:55Z</time>
      </trkpt>
      <trkpt lat="43.3634970" lon="-4.4505090">
        <ele>88.6</ele>
        <time>2021-07-18T07:40:56Z</time>
      </trkpt>
      <trkpt lat="43.3635160" lon="-4.4505130">
        <ele>89.0</ele>
        <time>2021-07-18T07:40:57Z</time>
      </trkpt>
      <trkpt lat="43.3635300" lon="-4.4505210">
        <ele>89.4</ele>
        <time>2021-07-18T07:40:58Z</time>
      </trkpt>
      <trkpt lat="43.3635620" lon="-4.4505350">
        <ele>89.4</ele>
        <time>2021-07-18T07:41:00Z</time>
      </trkpt>
      <trkpt lat="43.3636570" lon="-4.4505820">
        <ele>89.8</ele>
        <time>2021-07-18T07:41:06Z</time>
      </trkpt>
      <trkpt lat="43.3636690" lon="-4.4505890">
        <ele>90.2</ele>
        <time>2021-07-18T07:41:07Z</time>
      </trkpt>
      <trkpt lat="43.3636820" lon="-4.4505980">
        <ele>90.6</ele>
        <time>2021-07-18T07:41:08Z</time>
      </trkpt>
      <trkpt lat="43.3636980" lon="-4.4506050">
        <ele>91.0</ele>
        <time>2021-07-18T07:41:09Z</time>
      </trkpt>
      <trkpt lat="43.3637120" lon="-4.4506090">
        <ele>91.4</ele>
        <time>2021-07-18T07:41:10Z</time>
      </trkpt>
      <trkpt lat="43.3638090" lon="-4.4506790">
        <ele>91.4</ele>
        <time>2021-07-18T07:41:17Z</time>
      </trkpt>
      <trkpt lat="43.3638360" lon="-4.4507020">
        <ele>91.8</ele>
        <time>2021-07-18T07:41:19Z</time>
      </trkpt>
      <trkpt lat="43.3638500" lon="-4.4507110">
        <ele>92.2</ele>
        <time>2021-07-18T07:41:20Z</time>
      </trkpt>
      <trkpt lat="43.3638660" lon="-4.4507190">
        <ele>92.6</ele>
        <time>2021-07-18T07:41:21Z</time>
      </trkpt>
      <trkpt lat="43.3638830" lon="-4.4507250">
        <ele>93.2</ele>
        <time>2021-07-18T07:41:22Z</time>
      </trkpt>
      <trkpt lat="43.3639010" lon="-4.4507270">
        <ele>93.6</ele>
        <time>2021-07-18T07:41:23Z</time>
      </trkpt>
      <trkpt lat="43.3639520" lon="-4.4507330">
        <ele>93.6</ele>
        <time>2021-07-18T07:41:26Z</time>
      </trkpt>
      <trkpt lat="43.3640080" lon="-4.4507350">
        <ele>94.0</ele>
        <time>2021-07-18T07:41:30Z</time>
      </trkpt>
      <trkpt lat="43.3640270" lon="-4.4507330">
        <ele>94.4</ele>
        <time>2021-07-18T07:41:31Z</time>
      </trkpt>
      <trkpt lat="43.3640400" lon="-4.4507280">
        <ele>94.8</ele>
        <time>2021-07-18T07:41:32Z</time>
      </trkpt>
      <trkpt lat="43.3640550" lon="-4.4507240">
        <ele>95.2</ele>
        <time>2021-07-18T07:41:33Z</time>
      </trkpt>
      <trkpt lat="43.3640680" lon="-4.4507160">
        <ele>95.6</ele>
        <time>2021-07-18T07:41:34Z</time>
      </trkpt>
      <trkpt lat="43.3641420" lon="-4.4506460">
        <ele>95.6</ele>
        <time>2021-07-18T07:41:40Z</time>
      </trkpt>
      <trkpt lat="43.3641520" lon="-4.4506280">
        <ele>96.0</ele>
        <time>2021-07-18T07:41:41Z</time>
      </trkpt>
      <trkpt lat="43.3641610" lon="-4.4506110">
        <ele>96.4</ele>
        <time>2021-07-18T07:41:42Z</time>
      </trkpt>
      <trkpt lat="43.3641680" lon="-4.4505930">
        <ele>96.8</ele>
        <time>2021-07-18T07:41:43Z</time>
      </trkpt>
      <trkpt lat="43.3641710" lon="-4.4505750">
        <ele>97.4</ele>
        <time>2021-07-18T07:41:44Z</time>
      </trkpt>
      <trkpt lat="43.3641720" lon="-4.4505530">
        <ele>97.8</ele>
        <time>2021-07-18T07:41:45Z</time>
      </trkpt>
      <trkpt lat="43.3641720" lon="-4.4504680">
        <ele>97.8</ele>
        <time>2021-07-18T07:41:49Z</time>
      </trkpt>
      <trkpt lat="43.3641750" lon="-4.4504250">
        <ele>98.2</ele>
        <time>2021-07-18T07:41:51Z</time>
      </trkpt>
      <trkpt lat="43.3641750" lon="-4.4504050">
        <ele>98.6</ele>
        <time>2021-07-18T07:41:52Z</time>
      </trkpt>
      <trkpt lat="43.3641700" lon="-4.4503840">
        <ele>99.4</ele>
        <time>2021-07-18T07:41:53Z</time>
      </trkpt>
      <trkpt lat="43.3641710" lon="-4.4503670">
        <ele>99.8</ele>
        <time>2021-07-18T07:41:54Z</time>
      </trkpt>
      <trkpt lat="43.3641670" lon="-4.4503450">
        <ele>99.8</ele>
        <time>2021-07-18T07:41:55Z</time>
      </trkpt>
      <trkpt lat="43.3641690" lon="-4.4502410">
        <ele>100.2</ele>
        <time>2021-07-18T07:42:00Z</time>
      </trkpt>
      <trkpt lat="43.3641700" lon="-4.4502190">
        <ele>100.6</ele>
        <time>2021-07-18T07:42:01Z</time>
      </trkpt>
      <trkpt lat="43.3641730" lon="-4.4501980">
        <ele>101.0</ele>
        <time>2021-07-18T07:42:02Z</time>
      </trkpt>
      <trkpt lat="43.3641750" lon="-4.4501800">
        <ele>101.4</ele>
        <time>2021-07-18T07:42:03Z</time>
      </trkpt>
      <trkpt lat="43.3641750" lon="-4.4501600">
        <ele>101.8</ele>
        <time>2021-07-18T07:42:04Z</time>
      </trkpt>
      <trkpt lat="43.3641780" lon="-4.4501210">
        <ele>101.8</ele>
        <time>2021-07-18T07:42:06Z</time>
      </trkpt>
      <trkpt lat="43.3641850" lon="-4.4500180">
        <ele>102.4</ele>
        <time>2021-07-18T07:42:11Z</time>
      </trkpt>
      <trkpt lat="43.3641860" lon="-4.4499950">
        <ele>102.8</ele>
        <time>2021-07-18T07:42:12Z</time>
      </trkpt>
      <trkpt lat="43.3641930" lon="-4.4499710">
        <ele>103.2</ele>
        <time>2021-07-18T07:42:13Z</time>
      </trkpt>
      <trkpt lat="43.3641970" lon="-4.4499490">
        <ele>103.6</ele>
        <time>2021-07-18T07:42:14Z</time>
      </trkpt>
      <trkpt lat="43.3642030" lon="-4.4499300">
        <ele>104.0</ele>
        <time>2021-07-18T07:42:15Z</time>
      </trkpt>
      <trkpt lat="43.3642180" lon="-4.4498440">
        <ele>104.0</ele>
        <time>2021-07-18T07:42:19Z</time>
      </trkpt>
      <trkpt lat="43.3642540" lon="-4.4497430">
        <ele>104.4</ele>
        <time>2021-07-18T07:42:24Z</time>
      </trkpt>
      <trkpt lat="43.3642610" lon="-4.4497190">
        <ele>105.0</ele>
        <time>2021-07-18T07:42:25Z</time>
      </trkpt>
      <trkpt lat="43.3642650" lon="-4.4497000">
        <ele>105.4</ele>
        <time>2021-07-18T07:42:26Z</time>
      </trkpt>
      <trkpt lat="43.3642690" lon="-4.4496850">
        <ele>105.8</ele>
        <time>2021-07-18T07:42:27Z</time>
      </trkpt>
      <trkpt lat="43.3642810" lon="-4.4496700">
        <ele>106.2</ele>
        <time>2021-07-18T07:42:28Z</time>
      </trkpt>
      <trkpt lat="43.3643270" lon="-4.4495870">
        <ele>106.2</ele>
        <time>2021-07-18T07:42:33Z</time>
      </trkpt>
      <trkpt lat="43.3644390" lon="-4.4494930">
        <ele>106.2</ele>
        <time>2021-07-18T07:42:40Z</time>
      </trkpt>
      <trkpt lat="43.3645510" lon="-4.4494480">
        <ele>106.6</ele>
        <time>2021-07-18T07:42:47Z</time>
      </trkpt>
      <trkpt lat="43.3645680" lon="-4.4494410">
        <ele>107.0</ele>
        <time>2021-07-18T07:42:48Z</time>
      </trkpt>
      <trkpt lat="43.3645830" lon="-4.4494370">
        <ele>107.4</ele>
        <time>2021-07-18T07:42:49Z</time>
      </trkpt>
      <trkpt lat="43.3646010" lon="-4.4494330">
        <ele>107.8</ele>
        <time>2021-07-18T07:42:50Z</time>
      </trkpt>
      <trkpt lat="43.3646140" lon="-4.4494330">
        <ele>108.2</ele>
        <time>2021-07-18T07:42:51Z</time>
      </trkpt>
      <trkpt lat="43.3646790" lon="-4.4494590">
        <ele>108.2</ele>
        <time>2021-07-18T07:42:55Z</time>
      </trkpt>
      <trkpt lat="43.3648110" lon="-4.4495410">
        <ele>108.6</ele>
        <time>2021-07-18T07:43:03Z</time>
      </trkpt>
      <trkpt lat="43.3648300" lon="-4.4495500">
        <ele>109.0</ele>
        <time>2021-07-18T07:43:04Z</time>
      </trkpt>
      <trkpt lat="43.3648460" lon="-4.4495580">
        <ele>109.4</ele>
        <time>2021-07-18T07:43:05Z</time>
      </trkpt>
      <trkpt lat="43.3648680" lon="-4.4495570">
        <ele>109.8</ele>
        <time>2021-07-18T07:43:06Z</time>
      </trkpt>
      <trkpt lat="43.3648920" lon="-4.4495630">
        <ele>110.2</ele>
        <time>2021-07-18T07:43:07Z</time>
      </trkpt>
      <trkpt lat="43.3649620" lon="-4.4495910">
        <ele>110.2</ele>
        <time>2021-07-18T07:43:10Z</time>
      </trkpt>
      <trkpt lat="43.3650720" lon="-4.4496640">
        <ele>110.2</ele>
        <time>2021-07-18T07:43:15Z</time>
      </trkpt>
      <trkpt lat="43.3651310" lon="-4.4497050">
        <ele>110.2</ele>
        <time>2021-07-18T07:43:18Z</time>
      </trkpt>
      <trkpt lat="43.3651500" lon="-4.4497140">
        <ele>110.2</ele>
        <time>2021-07-18T07:43:20Z</time>
      </trkpt>
      <trkpt lat="43.3651840" lon="-4.4497310">
        <ele>110.2</ele>
        <time>2021-07-18T07:43:22Z</time>
      </trkpt>
      <trkpt lat="43.3652020" lon="-4.4497300">
        <ele>110.2</ele>
        <time>2021-07-18T07:43:23Z</time>
      </trkpt>
      <trkpt lat="43.3652540" lon="-4.4497360">
        <ele>110.2</ele>
        <time>2021-07-18T07:43:25Z</time>
      </trkpt>
      <trkpt lat="43.3653150" lon="-4.4497440">
        <ele>110.2</ele>
        <time>2021-07-18T07:43:27Z</time>
      </trkpt>
      <trkpt lat="43.3653870" lon="-4.4497400">
        <ele>110.2</ele>
        <time>2021-07-18T07:43:29Z</time>
      </trkpt>
      <trkpt lat="43.3654640" lon="-4.4497400">
        <ele>109.8</ele>
        <time>2021-07-18T07:43:31Z</time>
      </trkpt>
      <trkpt lat="43.3655070" lon="-4.4497420">
        <ele>109.0</ele>
        <time>2021-07-18T07:43:32Z</time>
      </trkpt>
      <trkpt lat="43.3655430" lon="-4.4497420">
        <ele>108.6</ele>
        <time>2021-07-18T07:43:33Z</time>
      </trkpt>
      <trkpt lat="43.3655780" lon="-4.4497420">
        <ele>108.2</ele>
        <time>2021-07-18T07:43:34Z</time>
      </trkpt>
      <trkpt lat="43.3656140" lon="-4.4497550">
        <ele>107.6</ele>
        <time>2021-07-18T07:43:35Z</time>
      </trkpt>
      <trkpt lat="43.3656500" lon="-4.4497790">
        <ele>107.2</ele>
        <time>2021-07-18T07:43:36Z</time>
      </trkpt>
      <trkpt lat="43.3656830" lon="-4.4498140">
        <ele>106.8</ele>
        <time>2021-07-18T07:43:37Z</time>
      </trkpt>
      <trkpt lat="43.3657080" lon="-4.4498540">
        <ele>106.4</ele>
        <time>2021-07-18T07:43:38Z</time>
      </trkpt>
      <trkpt lat="43.3657220" lon="-4.4499130">
        <ele>105.8</ele>
        <time>2021-07-18T07:43:39Z</time>
      </trkpt>
      <trkpt lat="43.3657370" lon="-4.4499670">
        <ele>105.8</ele>
        <time>2021-07-18T07:43:40Z</time>
      </trkpt>
      <trkpt lat="43.3658240" lon="-4.4503930">
        <ele>105.8</ele>
        <time>2021-07-18T07:43:48Z</time>
      </trkpt>
      <trkpt lat="43.3659320" lon="-4.4505440">
        <ele>105.8</ele>
        <time>2021-07-18T07:43:53Z</time>
      </trkpt>
      <trkpt lat="43.3659650" lon="-4.4505630">
        <ele>105.8</ele>
        <time>2021-07-18T07:43:54Z</time>
      </trkpt>
      <trkpt lat="43.3660770" lon="-4.4506140">
        <ele>105.8</ele>
        <time>2021-07-18T07:43:57Z</time>
      </trkpt>
      <trkpt lat="43.3661810" lon="-4.4506420">
        <ele>105.4</ele>
        <time>2021-07-18T07:44:00Z</time>
      </trkpt>
      <trkpt lat="43.3662100" lon="-4.4506490">
        <ele>105.0</ele>
        <time>2021-07-18T07:44:01Z</time>
      </trkpt>
      <trkpt lat="43.3662380" lon="-4.4506520">
        <ele>104.6</ele>
        <time>2021-07-18T07:44:02Z</time>
      </trkpt>
      <trkpt lat="43.3662660" lon="-4.4506530">
        <ele>104.2</ele>
        <time>2021-07-18T07:44:03Z</time>
      </trkpt>
      <trkpt lat="43.3662940" lon="-4.4506520">
        <ele>103.8</ele>
        <time>2021-07-18T07:44:04Z</time>
      </trkpt>
      <trkpt lat="43.3663490" lon="-4.4506440">
        <ele>103.4</ele>
        <time>2021-07-18T07:44:06Z</time>
      </trkpt>
      <trkpt lat="43.3663770" lon="-4.4506360">
        <ele>103.0</ele>
        <time>2021-07-18T07:44:07Z</time>
      </trkpt>
      <trkpt lat="43.3663970" lon="-4.4506230">
        <ele>102.4</ele>
        <time>2021-07-18T07:44:08Z</time>
      </trkpt>
      <trkpt lat="43.3664220" lon="-4.4506090">
        <ele>102.0</ele>
        <time>2021-07-18T07:44:09Z</time>
      </trkpt>
      <trkpt lat="43.3664460" lon="-4.4505960">
        <ele>101.6</ele>
        <time>2021-07-18T07:44:10Z</time>
      </trkpt>
      <trkpt lat="43.3664960" lon="-4.4505470">
        <ele>101.2</ele>
        <time>2021-07-18T07:44:12Z</time>
      </trkpt>
      <trkpt lat="43.3665240" lon="-4.4505080">
        <ele>100.8</ele>
        <time>2021-07-18T07:44:13Z</time>
      </trkpt>
      <trkpt lat="43.3665520" lon="-4.4504650">
        <ele>100.2</ele>
        <time>2021-07-18T07:44:14Z</time>
      </trkpt>
      <trkpt lat="43.3665770" lon="-4.4504070">
        <ele>99.8</ele>
        <time>2021-07-18T07:44:15Z</time>
      </trkpt>
      <trkpt lat="43.3666000" lon="-4.4503490">
        <ele>99.4</ele>
        <time>2021-07-18T07:44:16Z</time>
      </trkpt>
      <trkpt lat="43.3666220" lon="-4.4502860">
        <ele>98.8</ele>
        <time>2021-07-18T07:44:17Z</time>
      </trkpt>
      <trkpt lat="43.3666390" lon="-4.4502240">
        <ele>98.2</ele>
        <time>2021-07-18T07:44:18Z</time>
      </trkpt>
      <trkpt lat="43.3666540" lon="-4.4501630">
        <ele>97.8</ele>
        <time>2021-07-18T07:44:19Z</time>
      </trkpt>
      <trkpt lat="43.3666660" lon="-4.4501040">
        <ele>97.2</ele>
        <time>2021-07-18T07:44:20Z</time>
      </trkpt>
      <trkpt lat="43.3666770" lon="-4.4500460">
        <ele>96.0</ele>
        <time>2021-07-18T07:44:21Z</time>
      </trkpt>
      <trkpt lat="43.3666840" lon="-4.4499910">
        <ele>95.4</ele>
        <time>2021-07-18T07:44:22Z</time>
      </trkpt>
      <trkpt lat="43.3666870" lon="-4.4499420">
        <ele>94.6</ele>
        <time>2021-07-18T07:44:23Z</time>
      </trkpt>
      <trkpt lat="43.3666910" lon="-4.4499000">
        <ele>94.0</ele>
        <time>2021-07-18T07:44:24Z</time>
      </trkpt>
      <trkpt lat="43.3666930" lon="-4.4498700">
        <ele>93.2</ele>
        <time>2021-07-18T07:44:25Z</time>
      </trkpt>
      <trkpt lat="43.3666900" lon="-4.4498520">
        <ele>92.6</ele>
        <time>2021-07-18T07:44:26Z</time>
      </trkpt>
      <trkpt lat="43.3666860" lon="-4.4498450">
        <ele>91.8</ele>
        <time>2021-07-18T07:44:27Z</time>
      </trkpt>
      <trkpt lat="43.3666860" lon="-4.4498450">
        <ele>91.0</ele>
        <time>2021-07-18T07:44:28Z</time>
      </trkpt>
      <trkpt lat="43.3666860" lon="-4.4498450">
        <ele>90.4</ele>
        <time>2021-07-18T07:44:29Z</time>
      </trkpt>
      <trkpt lat="43.3666860" lon="-4.4498450">
        <ele>89.6</ele>
        <time>2021-07-18T07:44:30Z</time>
      </trkpt>
      <trkpt lat="43.3666800" lon="-4.4498700">
        <ele>89.6</ele>
        <time>2021-07-18T07:44:38Z</time>
      </trkpt>
      <trkpt lat="43.3666740" lon="-4.4498900">
        <ele>89.6</ele>
        <time>2021-07-18T07:44:39Z</time>
      </trkpt>
      <trkpt lat="43.3666650" lon="-4.4499310">
        <ele>89.6</ele>
        <time>2021-07-18T07:44:42Z</time>
      </trkpt>
      <trkpt lat="43.3666650" lon="-4.4499410">
        <ele>89.6</ele>
        <time>2021-07-18T07:44:44Z</time>
      </trkpt>
      <trkpt lat="43.3666650" lon="-4.4499410">
        <ele>89.6</ele>
        <time>2021-07-18T07:44:45Z</time>
      </trkpt>
      <trkpt lat="43.3666650" lon="-4.4499410">
        <ele>89.6</ele>
        <time>2021-07-18T07:44:46Z</time>
      </trkpt>
      <trkpt lat="43.3666710" lon="-4.4499940">
        <ele>89.6</ele>
        <time>2021-07-18T07:47:10Z</time>
      </trkpt>
      <trkpt lat="43.3666760" lon="-4.4500320">
        <ele>89.6</ele>
        <time>2021-07-18T07:47:12Z</time>
      </trkpt>
      <trkpt lat="43.3666760" lon="-4.4500650">
        <ele>90.0</ele>
        <time>2021-07-18T07:47:14Z</time>
      </trkpt>
      <trkpt lat="43.3666760" lon="-4.4500840">
        <ele>90.4</ele>
        <time>2021-07-18T07:47:15Z</time>
      </trkpt>
      <trkpt lat="43.3666720" lon="-4.4501050">
        <ele>90.8</ele>
        <time>2021-07-18T07:47:16Z</time>
      </trkpt>
      <trkpt lat="43.3666680" lon="-4.4501240">
        <ele>91.2</ele>
        <time>2021-07-18T07:47:17Z</time>
      </trkpt>
      <trkpt lat="43.3666650" lon="-4.4501390">
        <ele>91.8</ele>
        <time>2021-07-18T07:47:18Z</time>
      </trkpt>
      <trkpt lat="43.3666640" lon="-4.4501530">
        <ele>91.8</ele>
        <time>2021-07-18T07:47:19Z</time>
      </trkpt>
      <trkpt lat="43.3666550" lon="-4.4501960">
        <ele>91.8</ele>
        <time>2021-07-18T07:47:22Z</time>
      </trkpt>
      <trkpt lat="43.3666430" lon="-4.4502280">
        <ele>92.2</ele>
        <time>2021-07-18T07:47:24Z</time>
      </trkpt>
      <trkpt lat="43.3666380" lon="-4.4502440">
        <ele>92.6</ele>
        <time>2021-07-18T07:47:25Z</time>
      </trkpt>
      <trkpt lat="43.3666320" lon="-4.4502590">
        <ele>93.0</ele>
        <time>2021-07-18T07:47:26Z</time>
      </trkpt>
      <trkpt lat="43.3666270" lon="-4.4502760">
        <ele>93.4</ele>
        <time>2021-07-18T07:47:27Z</time>
      </trkpt>
      <trkpt lat="43.3666220" lon="-4.4502930">
        <ele>93.8</ele>
        <time>2021-07-18T07:47:28Z</time>
      </trkpt>
      <trkpt lat="43.3665940" lon="-4.4503580">
        <ele>93.8</ele>
        <time>2021-07-18T07:47:32Z</time>
      </trkpt>
      <trkpt lat="43.3665580" lon="-4.4504220">
        <ele>94.2</ele>
        <time>2021-07-18T07:47:36Z</time>
      </trkpt>
      <trkpt lat="43.3665490" lon="-4.4504370">
        <ele>94.6</ele>
        <time>2021-07-18T07:47:37Z</time>
      </trkpt>
      <trkpt lat="43.3665400" lon="-4.4504500">
        <ele>95.0</ele>
        <time>2021-07-18T07:47:38Z</time>
      </trkpt>
      <trkpt lat="43.3665330" lon="-4.4504620">
        <ele>95.8</ele>
        <time>2021-07-18T07:47:39Z</time>
      </trkpt>
      <trkpt lat="43.3664980" lon="-4.4505200">
        <ele>95.8</ele>
        <time>2021-07-18T07:47:43Z</time>
      </trkpt>
      <trkpt lat="43.3664710" lon="-4.4505640">
        <ele>96.2</ele>
        <time>2021-07-18T07:47:46Z</time>
      </trkpt>
      <trkpt lat="43.3664610" lon="-4.4505770">
        <ele>96.8</ele>
        <time>2021-07-18T07:47:47Z</time>
      </trkpt>
      <trkpt lat="43.3664510" lon="-4.4505900">
        <ele>97.2</ele>
        <time>2021-07-18T07:47:48Z</time>
      </trkpt>
      <trkpt lat="43.3664400" lon="-4.4506010">
        <ele>97.6</ele>
        <time>2021-07-18T07:47:49Z</time>
      </trkpt>
      <trkpt lat="43.3664300" lon="-4.4506120">
        <ele>98.0</ele>
        <time>2021-07-18T07:47:50Z</time>
      </trkpt>
      <trkpt lat="43.3663520" lon="-4.4506600">
        <ele>98.4</ele>
        <time>2021-07-18T07:47:57Z</time>
      </trkpt>
      <trkpt lat="43.3663400" lon="-4.4506680">
        <ele>99.0</ele>
        <time>2021-07-18T07:47:58Z</time>
      </trkpt>
      <trkpt lat="43.3663270" lon="-4.4506740">
        <ele>99.4</ele>
        <time>2021-07-18T07:47:59Z</time>
      </trkpt>
      <trkpt lat="43.3663150" lon="-4.4506780">
        <ele>99.8</ele>
        <time>2021-07-18T07:48:00Z</time>
      </trkpt>
      <trkpt lat="43.3663010" lon="-4.4506820">
        <ele>100.2</ele>
        <time>2021-07-18T07:48:01Z</time>
      </trkpt>
      <trkpt lat="43.3662270" lon="-4.4506920">
        <ele>100.2</ele>
        <time>2021-07-18T07:48:07Z</time>
      </trkpt>
      <trkpt lat="43.3661880" lon="-4.4506850">
        <ele>100.6</ele>
        <time>2021-07-18T07:48:10Z</time>
      </trkpt>
      <trkpt lat="43.3661750" lon="-4.4506820">
        <ele>101.2</ele>
        <time>2021-07-18T07:48:11Z</time>
      </trkpt>
      <trkpt lat="43.3661620" lon="-4.4506800">
        <ele>101.6</ele>
        <time>2021-07-18T07:48:12Z</time>
      </trkpt>
      <trkpt lat="43.3661510" lon="-4.4506760">
        <ele>102.0</ele>
        <time>2021-07-18T07:48:13Z</time>
      </trkpt>
      <trkpt lat="43.3661370" lon="-4.4506690">
        <ele>102.4</ele>
        <time>2021-07-18T07:48:14Z</time>
      </trkpt>
      <trkpt lat="43.3660680" lon="-4.4506420">
        <ele>102.4</ele>
        <time>2021-07-18T07:48:19Z</time>
      </trkpt>
      <trkpt lat="43.3659620" lon="-4.4505680">
        <ele>102.8</ele>
        <time>2021-07-18T07:48:28Z</time>
      </trkpt>
      <trkpt lat="43.3659520" lon="-4.4505550">
        <ele>103.6</ele>
        <time>2021-07-18T07:48:29Z</time>
      </trkpt>
      <trkpt lat="43.3659420" lon="-4.4505430">
        <ele>104.0</ele>
        <time>2021-07-18T07:48:30Z</time>
      </trkpt>
      <trkpt lat="43.3659310" lon="-4.4505330">
        <ele>104.4</ele>
        <time>2021-07-18T07:48:31Z</time>
      </trkpt>
      <trkpt lat="43.3659060" lon="-4.4505110">
        <ele>104.4</ele>
        <time>2021-07-18T07:48:34Z</time>
      </trkpt>
      <trkpt lat="43.3658530" lon="-4.4504420">
        <ele>104.4</ele>
        <time>2021-07-18T07:50:09Z</time>
      </trkpt>
      <trkpt lat="43.3658430" lon="-4.4504300">
        <ele>104.4</ele>
        <time>2021-07-18T07:50:10Z</time>
      </trkpt>
      <trkpt lat="43.3658170" lon="-4.4503960">
        <ele>104.4</ele>
        <time>2021-07-18T07:50:12Z</time>
      </trkpt>
      <trkpt lat="43.3657930" lon="-4.4503290">
        <ele>104.4</ele>
        <time>2021-07-18T07:50:14Z</time>
      </trkpt>
      <trkpt lat="43.3657420" lon="-4.4500560">
        <ele>104.4</ele>
        <time>2021-07-18T07:50:20Z</time>
      </trkpt>
      <trkpt lat="43.3657050" lon="-4.4499050">
        <ele>104.4</ele>
        <time>2021-07-18T07:50:23Z</time>
      </trkpt>
      <trkpt lat="43.3656570" lon="-4.4498380">
        <ele>104.4</ele>
        <time>2021-07-18T07:50:25Z</time>
      </trkpt>
      <trkpt lat="43.3655670" lon="-4.4497960">
        <ele>104.4</ele>
        <time>2021-07-18T07:50:28Z</time>
      </trkpt>
      <trkpt lat="43.3655390" lon="-4.4497920">
        <ele>104.4</ele>
        <time>2021-07-18T07:50:29Z</time>
      </trkpt>
      <trkpt lat="43.3654330" lon="-4.4497890">
        <ele>104.8</ele>
        <time>2021-07-18T07:50:33Z</time>
      </trkpt>
      <trkpt lat="43.3654100" lon="-4.4497870">
        <ele>105.2</ele>
        <time>2021-07-18T07:50:34Z</time>
      </trkpt>
      <trkpt lat="43.3653850" lon="-4.4497850">
        <ele>105.6</ele>
        <time>2021-07-18T07:50:35Z</time>
      </trkpt>
      <trkpt lat="43.3653590" lon="-4.4497850">
        <ele>106.0</ele>
        <time>2021-07-18T07:50:36Z</time>
      </trkpt>
      <trkpt lat="43.3653360" lon="-4.4497850">
        <ele>106.4</ele>
        <time>2021-07-18T07:50:37Z</time>
      </trkpt>
      <trkpt lat="43.3653140" lon="-4.4497840">
        <ele>106.4</ele>
        <time>2021-07-18T07:50:38Z</time>
      </trkpt>
      <trkpt lat="43.3652430" lon="-4.4497770">
        <ele>106.8</ele>
        <time>2021-07-18T07:50:41Z</time>
      </trkpt>
      <trkpt lat="43.3652180" lon="-4.4497730">
        <ele>107.2</ele>
        <time>2021-07-18T07:50:42Z</time>
      </trkpt>
      <trkpt lat="43.3651930" lon="-4.4497680">
        <ele>107.6</ele>
        <time>2021-07-18T07:50:43Z</time>
      </trkpt>
      <trkpt lat="43.3651720" lon="-4.4497610">
        <ele>108.0</ele>
        <time>2021-07-18T07:50:44Z</time>
      </trkpt>
      <trkpt lat="43.3651540" lon="-4.4497500">
        <ele>108.4</ele>
        <time>2021-07-18T07:50:45Z</time>
      </trkpt>
      <trkpt lat="43.3650830" lon="-4.4497090">
        <ele>108.8</ele>
        <time>2021-07-18T07:50:49Z</time>
      </trkpt>
      <trkpt lat="43.3650630" lon="-4.4497020">
        <ele>109.2</ele>
        <time>2021-07-18T07:50:50Z</time>
      </trkpt>
      <trkpt lat="43.3650420" lon="-4.4496920">
        <ele>109.6</ele>
        <time>2021-07-18T07:50:51Z</time>
      </trkpt>
      <trkpt lat="43.3650180" lon="-4.4496770">
        <ele>110.0</ele>
        <time>2021-07-18T07:50:52Z</time>
      </trkpt>
      <trkpt lat="43.3649960" lon="-4.4496630">
        <ele>110.6</ele>
        <time>2021-07-18T07:50:53Z</time>
      </trkpt>
      <trkpt lat="43.3648710" lon="-4.4496030">
        <ele>110.6</ele>
        <time>2021-07-18T07:50:58Z</time>
      </trkpt>
      <trkpt lat="43.3646520" lon="-4.4495090">
        <ele>110.6</ele>
        <time>2021-07-18T07:51:05Z</time>
      </trkpt>
      <trkpt lat="43.3646100" lon="-4.4495000">
        <ele>110.6</ele>
        <time>2021-07-18T07:51:06Z</time>
      </trkpt>
      <trkpt lat="43.3644240" lon="-4.4495440">
        <ele>110.6</ele>
        <time>2021-07-18T07:51:10Z</time>
      </trkpt>
      <trkpt lat="43.3643430" lon="-4.4496220">
        <ele>110.0</ele>
        <time>2021-07-18T07:51:12Z</time>
      </trkpt>
      <trkpt lat="43.3643080" lon="-4.4496660">
        <ele>109.6</ele>
        <time>2021-07-18T07:51:13Z</time>
      </trkpt>
      <trkpt lat="43.3642790" lon="-4.4497200">
        <ele>109.2</ele>
        <time>2021-07-18T07:51:14Z</time>
      </trkpt>
      <trkpt lat="43.3642560" lon="-4.4497760">
        <ele>108.8</ele>
        <time>2021-07-18T07:51:15Z</time>
      </trkpt>
      <trkpt lat="43.3642360" lon="-4.4498340">
        <ele>108.4</ele>
        <time>2021-07-18T07:51:16Z</time>
      </trkpt>
      <trkpt lat="43.3642200" lon="-4.4498900">
        <ele>108.4</ele>
        <time>2021-07-18T07:51:17Z</time>
      </trkpt>
      <trkpt lat="43.3641970" lon="-4.4499880">
        <ele>108.4</ele>
        <time>2021-07-18T07:51:19Z</time>
      </trkpt>
      <trkpt lat="43.3641920" lon="-4.4500370">
        <ele>107.4</ele>
        <time>2021-07-18T07:51:20Z</time>
      </trkpt>
      <trkpt lat="43.3641880" lon="-4.4500880">
        <ele>107.0</ele>
        <time>2021-07-18T07:51:21Z</time>
      </trkpt>
      <trkpt lat="43.3641860" lon="-4.4501370">
        <ele>106.4</ele>
        <time>2021-07-18T07:51:22Z</time>
      </trkpt>
      <trkpt lat="43.3641820" lon="-4.4501870">
        <ele>106.0</ele>
        <time>2021-07-18T07:51:23Z</time>
      </trkpt>
      <trkpt lat="43.3641790" lon="-4.4502360">
        <ele>105.6</ele>
        <time>2021-07-18T07:51:24Z</time>
      </trkpt>
      <trkpt lat="43.3641760" lon="-4.4502820">
        <ele>105.2</ele>
        <time>2021-07-18T07:51:25Z</time>
      </trkpt>
      <trkpt lat="43.3641760" lon="-4.4503290">
        <ele>104.8</ele>
        <time>2021-07-18T07:51:26Z</time>
      </trkpt>
      <trkpt lat="43.3641780" lon="-4.4503730">
        <ele>104.2</ele>
        <time>2021-07-18T07:51:27Z</time>
      </trkpt>
      <trkpt lat="43.3641810" lon="-4.4504180">
        <ele>103.8</ele>
        <time>2021-07-18T07:51:28Z</time>
      </trkpt>
      <trkpt lat="43.3641850" lon="-4.4504660">
        <ele>103.4</ele>
        <time>2021-07-18T07:51:29Z</time>
      </trkpt>
      <trkpt lat="43.3641880" lon="-4.4505110">
        <ele>102.8</ele>
        <time>2021-07-18T07:51:30Z</time>
      </trkpt>
      <trkpt lat="43.3641900" lon="-4.4505560">
        <ele>102.4</ele>
        <time>2021-07-18T07:51:31Z</time>
      </trkpt>
      <trkpt lat="43.3641860" lon="-4.4506020">
        <ele>101.8</ele>
        <time>2021-07-18T07:51:32Z</time>
      </trkpt>
      <trkpt lat="43.3641780" lon="-4.4506460">
        <ele>101.4</ele>
        <time>2021-07-18T07:51:33Z</time>
      </trkpt>
      <trkpt lat="43.3641680" lon="-4.4506880">
        <ele>101.0</ele>
        <time>2021-07-18T07:51:34Z</time>
      </trkpt>
      <trkpt lat="43.3641520" lon="-4.4507240">
        <ele>100.4</ele>
        <time>2021-07-18T07:51:35Z</time>
      </trkpt>
      <trkpt lat="43.3641280" lon="-4.4507540">
        <ele>100.0</ele>
        <time>2021-07-18T07:51:36Z</time>
      </trkpt>
      <trkpt lat="43.3640960" lon="-4.4507740">
        <ele>99.6</ele>
        <time>2021-07-18T07:51:37Z</time>
      </trkpt>
      <trkpt lat="43.3640590" lon="-4.4507830">
        <ele>99.2</ele>
        <time>2021-07-18T07:51:38Z</time>
      </trkpt>
      <trkpt lat="43.3640210" lon="-4.4507780">
        <ele>99.2</ele>
        <time>2021-07-18T07:51:39Z</time>
      </trkpt>
      <trkpt lat="43.3639790" lon="-4.4507720">
        <ele>98.6</ele>
        <time>2021-07-18T07:51:40Z</time>
      </trkpt>
      <trkpt lat="43.3639360" lon="-4.4507640">
        <ele>98.2</ele>
        <time>2021-07-18T07:51:41Z</time>
      </trkpt>
      <trkpt lat="43.3638930" lon="-4.4507480">
        <ele>97.8</ele>
        <time>2021-07-18T07:51:42Z</time>
      </trkpt>
      <trkpt lat="43.3638510" lon="-4.4507240">
        <ele>97.2</ele>
        <time>2021-07-18T07:51:43Z</time>
      </trkpt>
      <trkpt lat="43.3638070" lon="-4.4506960">
        <ele>96.8</ele>
        <time>2021-07-18T07:51:44Z</time>
      </trkpt>
      <trkpt lat="43.3637630" lon="-4.4506710">
        <ele>96.0</ele>
        <time>2021-07-18T07:51:45Z</time>
      </trkpt>
      <trkpt lat="43.3637200" lon="-4.4506480">
        <ele>95.6</ele>
        <time>2021-07-18T07:51:46Z</time>
      </trkpt>
      <trkpt lat="43.3636790" lon="-4.4506260">
        <ele>95.2</ele>
        <time>2021-07-18T07:51:47Z</time>
      </trkpt>
      <trkpt lat="43.3636420" lon="-4.4506040">
        <ele>94.6</ele>
        <time>2021-07-18T07:51:48Z</time>
      </trkpt>
      <trkpt lat="43.3636110" lon="-4.4505850">
        <ele>94.2</ele>
        <time>2021-07-18T07:51:49Z</time>
      </trkpt>
      <trkpt lat="43.3635770" lon="-4.4505660">
        <ele>93.6</ele>
        <time>2021-07-18T07:51:50Z</time>
      </trkpt>
      <trkpt lat="43.3635400" lon="-4.4505490">
        <ele>93.2</ele>
        <time>2021-07-18T07:51:51Z</time>
      </trkpt>
      <trkpt lat="43.3634940" lon="-4.4505300">
        <ele>92.6</ele>
        <time>2021-07-18T07:51:52Z</time>
      </trkpt>
      <trkpt lat="43.3633890" lon="-4.4504990">
        <ele>92.2</ele>
        <time>2021-07-18T07:51:54Z</time>
      </trkpt>
      <trkpt lat="43.3633380" lon="-4.4504880">
        <ele>91.8</ele>
        <time>2021-07-18T07:51:55Z</time>
      </trkpt>
      <trkpt lat="43.3632930" lon="-4.4504810">
        <ele>91.4</ele>
        <time>2021-07-18T07:51:56Z</time>
      </trkpt>
      <trkpt lat="43.3632530" lon="-4.4504760">
        <ele>91.0</ele>
        <time>2021-07-18T07:51:57Z</time>
      </trkpt>
      <trkpt lat="43.3632180" lon="-4.4504720">
        <ele>90.6</ele>
        <time>2021-07-18T07:51:58Z</time>
      </trkpt>
      <trkpt lat="43.3631900" lon="-4.4504660">
        <ele>90.6</ele>
        <time>2021-07-18T07:51:59Z</time>
      </trkpt>
      <trkpt lat="43.3631400" lon="-4.4504320">
        <ele>90.6</ele>
        <time>2021-07-18T07:52:01Z</time>
      </trkpt>
      <trkpt lat="43.3631070" lon="-4.4503600">
        <ele>90.6</ele>
        <time>2021-07-18T07:52:03Z</time>
      </trkpt>
      <trkpt lat="43.3630820" lon="-4.4502700">
        <ele>90.6</ele>
        <time>2021-07-18T07:52:05Z</time>
      </trkpt>
      <trkpt lat="43.3630400" lon="-4.4500640">
        <ele>90.6</ele>
        <time>2021-07-18T07:52:09Z</time>
      </trkpt>
      <trkpt lat="43.3629780" lon="-4.4498870">
        <ele>90.6</ele>
        <time>2021-07-18T07:52:13Z</time>
      </trkpt>
      <trkpt lat="43.3629300" lon="-4.4498150">
        <ele>90.6</ele>
        <time>2021-07-18T07:52:15Z</time>
      </trkpt>
      <trkpt lat="43.3628990" lon="-4.4497930">
        <ele>90.2</ele>
        <time>2021-07-18T07:52:16Z</time>
      </trkpt>
      <trkpt lat="43.3628660" lon="-4.4497820">
        <ele>89.8</ele>
        <time>2021-07-18T07:52:17Z</time>
      </trkpt>
      <trkpt lat="43.3628310" lon="-4.4497730">
        <ele>89.4</ele>
        <time>2021-07-18T07:52:18Z</time>
      </trkpt>
      <trkpt lat="43.3627940" lon="-4.4497650">
        <ele>89.0</ele>
        <time>2021-07-18T07:52:19Z</time>
      </trkpt>
      <trkpt lat="43.3627610" lon="-4.4497620">
        <ele>88.4</ele>
        <time>2021-07-18T07:52:20Z</time>
      </trkpt>
      <trkpt lat="43.3626580" lon="-4.4497720">
        <ele>88.0</ele>
        <time>2021-07-18T07:52:24Z</time>
      </trkpt>
      <trkpt lat="43.3626430" lon="-4.4497860">
        <ele>87.6</ele>
        <time>2021-07-18T07:52:25Z</time>
      </trkpt>
      <trkpt lat="43.3626310" lon="-4.4498080">
        <ele>87.2</ele>
        <time>2021-07-18T07:52:26Z</time>
      </trkpt>
      <trkpt lat="43.3626220" lon="-4.4498320">
        <ele>86.8</ele>
        <time>2021-07-18T07:52:27Z</time>
      </trkpt>
      <trkpt lat="43.3626180" lon="-4.4498550">
        <ele>86.4</ele>
        <time>2021-07-18T07:52:28Z</time>
      </trkpt>
      <trkpt lat="43.3626120" lon="-4.4499030">
        <ele>86.4</ele>
        <time>2021-07-18T07:52:30Z</time>
      </trkpt>
      <trkpt lat="43.3626090" lon="-4.4499280">
        <ele>86.4</ele>
        <time>2021-07-18T07:52:31Z</time>
      </trkpt>
      <trkpt lat="43.3626040" lon="-4.4499690">
        <ele>86.4</ele>
        <time>2021-07-18T07:52:33Z</time>
      </trkpt>
      <trkpt lat="43.3626000" lon="-4.4500280">
        <ele>86.4</ele>
        <time>2021-07-18T07:52:36Z</time>
      </trkpt>
      <trkpt lat="43.3626190" lon="-4.4501610">
        <ele>86.4</ele>
        <time>2021-07-18T07:52:41Z</time>
      </trkpt>
      <trkpt lat="43.3626230" lon="-4.4501950">
        <ele>86.4</ele>
        <time>2021-07-18T07:52:42Z</time>
      </trkpt>
      <trkpt lat="43.3626250" lon="-4.4503050">
        <ele>86.4</ele>
        <time>2021-07-18T07:52:45Z</time>
      </trkpt>
      <trkpt lat="43.3626260" lon="-4.4503840">
        <ele>86.8</ele>
        <time>2021-07-18T07:52:47Z</time>
      </trkpt>
      <trkpt lat="43.3626250" lon="-4.4504230">
        <ele>87.2</ele>
        <time>2021-07-18T07:52:48Z</time>
      </trkpt>
      <trkpt lat="43.3626220" lon="-4.4504620">
        <ele>87.6</ele>
        <time>2021-07-18T07:52:49Z</time>
      </trkpt>
      <trkpt lat="43.3626210" lon="-4.4505000">
        <ele>88.0</ele>
        <time>2021-07-18T07:52:50Z</time>
      </trkpt>
      <trkpt lat="43.3626210" lon="-4.4505360">
        <ele>88.4</ele>
        <time>2021-07-18T07:52:51Z</time>
      </trkpt>
      <trkpt lat="43.3626240" lon="-4.4506040">
        <ele>88.4</ele>
        <time>2021-07-18T07:52:53Z</time>
      </trkpt>
      <trkpt lat="43.3626250" lon="-4.4506790">
        <ele>88.4</ele>
        <time>2021-07-18T07:52:55Z</time>
      </trkpt>
      <trkpt lat="43.3626120" lon="-4.4508500">
        <ele>88.4</ele>
        <time>2021-07-18T07:52:59Z</time>
      </trkpt>
      <trkpt lat="43.3626130" lon="-4.4509840">
        <ele>88.8</ele>
        <time>2021-07-18T07:53:02Z</time>
      </trkpt>
      <trkpt lat="43.3626160" lon="-4.4510270">
        <ele>89.2</ele>
        <time>2021-07-18T07:53:03Z</time>
      </trkpt>
      <trkpt lat="43.3626190" lon="-4.4510730">
        <ele>89.6</ele>
        <time>2021-07-18T07:53:04Z</time>
      </trkpt>
      <trkpt lat="43.3626230" lon="-4.4511160">
        <ele>90.2</ele>
        <time>2021-07-18T07:53:05Z</time>
      </trkpt>
      <trkpt lat="43.3626260" lon="-4.4511600">
        <ele>90.6</ele>
        <time>2021-07-18T07:53:06Z</time>
      </trkpt>
      <trkpt lat="43.3626380" lon="-4.4513150">
        <ele>90.6</ele>
        <time>2021-07-18T07:53:10Z</time>
      </trkpt>
      <trkpt lat="43.3626310" lon="-4.4514920">
        <ele>91.0</ele>
        <time>2021-07-18T07:53:15Z</time>
      </trkpt>
      <trkpt lat="43.3626310" lon="-4.4515270">
        <ele>91.4</ele>
        <time>2021-07-18T07:53:16Z</time>
      </trkpt>
      <trkpt lat="43.3626320" lon="-4.4515630">
        <ele>92.0</ele>
        <time>2021-07-18T07:53:17Z</time>
      </trkpt>
      <trkpt lat="43.3626300" lon="-4.4515980">
        <ele>92.4</ele>
        <time>2021-07-18T07:53:18Z</time>
      </trkpt>
      <trkpt lat="43.3626300" lon="-4.4516330">
        <ele>92.8</ele>
        <time>2021-07-18T07:53:19Z</time>
      </trkpt>
      <trkpt lat="43.3626260" lon="-4.4517480">
        <ele>92.8</ele>
        <time>2021-07-18T07:53:22Z</time>
      </trkpt>
      <trkpt lat="43.3626190" lon="-4.4519610">
        <ele>92.8</ele>
        <time>2021-07-18T07:53:27Z</time>
      </trkpt>
      <trkpt lat="43.3626250" lon="-4.4520990">
        <ele>92.8</ele>
        <time>2021-07-18T07:53:30Z</time>
      </trkpt>
      <trkpt lat="43.3626530" lon="-4.4524190">
        <ele>92.8</ele>
        <time>2021-07-18T07:53:38Z</time>
      </trkpt>
      <trkpt lat="43.3626640" lon="-4.4525510">
        <ele>92.8</ele>
        <time>2021-07-18T07:53:41Z</time>
      </trkpt>
      <trkpt lat="43.3626820" lon="-4.4526480">
        <ele>92.8</ele>
        <time>2021-07-18T07:53:43Z</time>
      </trkpt>
      <trkpt lat="43.3626760" lon="-4.4527840">
        <ele>92.8</ele>
        <time>2021-07-18T07:53:46Z</time>
      </trkpt>
      <trkpt lat="43.3626650" lon="-4.4528730">
        <ele>92.8</ele>
        <time>2021-07-18T07:53:48Z</time>
      </trkpt>
      <trkpt lat="43.3626490" lon="-4.4529650">
        <ele>92.8</ele>
        <time>2021-07-18T07:53:50Z</time>
      </trkpt>
      <trkpt lat="43.3626330" lon="-4.4530620">
        <ele>92.8</ele>
        <time>2021-07-18T07:53:52Z</time>
      </trkpt>
      <trkpt lat="43.3626140" lon="-4.4531640">
        <ele>92.8</ele>
        <time>2021-07-18T07:53:54Z</time>
      </trkpt>
      <trkpt lat="43.3626110" lon="-4.4532170">
        <ele>92.8</ele>
        <time>2021-07-18T07:53:55Z</time>
      </trkpt>
      <trkpt lat="43.3626050" lon="-4.4533190">
        <ele>92.8</ele>
        <time>2021-07-18T07:53:57Z</time>
      </trkpt>
      <trkpt lat="43.3625970" lon="-4.4534190">
        <ele>92.8</ele>
        <time>2021-07-18T07:53:59Z</time>
      </trkpt>
      <trkpt lat="43.3625940" lon="-4.4534660">
        <ele>92.8</ele>
        <time>2021-07-18T07:54:00Z</time>
      </trkpt>
      <trkpt lat="43.3625930" lon="-4.4536740">
        <ele>92.8</ele>
        <time>2021-07-18T07:54:04Z</time>
      </trkpt>
      <trkpt lat="43.3626150" lon="-4.4540720">
        <ele>92.8</ele>
        <time>2021-07-18T07:54:11Z</time>
      </trkpt>
      <trkpt lat="43.3626410" lon="-4.4545270">
        <ele>92.8</ele>
        <time>2021-07-18T07:54:18Z</time>
      </trkpt>
      <trkpt lat="43.3626410" lon="-4.4546670">
        <ele>92.8</ele>
        <time>2021-07-18T07:54:20Z</time>
      </trkpt>
      <trkpt lat="43.3626040" lon="-4.4550110">
        <ele>92.4</ele>
        <time>2021-07-18T07:54:25Z</time>
      </trkpt>
      <trkpt lat="43.3625930" lon="-4.4550860">
        <ele>92.0</ele>
        <time>2021-07-18T07:54:26Z</time>
      </trkpt>
      <trkpt lat="43.3625810" lon="-4.4551630">
        <ele>91.6</ele>
        <time>2021-07-18T07:54:27Z</time>
      </trkpt>
      <trkpt lat="43.3625680" lon="-4.4552400">
        <ele>91.2</ele>
        <time>2021-07-18T07:54:28Z</time>
      </trkpt>
      <trkpt lat="43.3625520" lon="-4.4553220">
        <ele>90.8</ele>
        <time>2021-07-18T07:54:29Z</time>
      </trkpt>
      <trkpt lat="43.3624810" lon="-4.4556190">
        <ele>90.8</ele>
        <time>2021-07-18T07:54:33Z</time>
      </trkpt>
      <trkpt lat="43.3624630" lon="-4.4556880">
        <ele>90.8</ele>
        <time>2021-07-18T07:54:34Z</time>
      </trkpt>
      <trkpt lat="43.3624350" lon="-4.4559540">
        <ele>90.8</ele>
        <time>2021-07-18T07:54:38Z</time>
      </trkpt>
      <trkpt lat="43.3624330" lon="-4.4560940">
        <ele>90.4</ele>
        <time>2021-07-18T07:54:40Z</time>
      </trkpt>
      <trkpt lat="43.3624360" lon="-4.4561710">
        <ele>90.0</ele>
        <time>2021-07-18T07:54:41Z</time>
      </trkpt>
      <trkpt lat="43.3624400" lon="-4.4562490">
        <ele>89.6</ele>
        <time>2021-07-18T07:54:42Z</time>
      </trkpt>
      <trkpt lat="43.3624420" lon="-4.4563260">
        <ele>89.2</ele>
        <time>2021-07-18T07:54:43Z</time>
      </trkpt>
      <trkpt lat="43.3624440" lon="-4.4564080">
        <ele>88.8</ele>
        <time>2021-07-18T07:54:44Z</time>
      </trkpt>
      <trkpt lat="43.3624370" lon="-4.4565670">
        <ele>88.8</ele>
        <time>2021-07-18T07:54:46Z</time>
      </trkpt>
      <trkpt lat="43.3624090" lon="-4.4568080">
        <ele>88.8</ele>
        <time>2021-07-18T07:54:49Z</time>
      </trkpt>
      <trkpt lat="43.3624080" lon="-4.4568820">
        <ele>88.8</ele>
        <time>2021-07-18T07:54:50Z</time>
      </trkpt>
      <trkpt lat="43.3624270" lon="-4.4571530">
        <ele>88.8</ele>
        <time>2021-07-18T07:54:54Z</time>
      </trkpt>
      <trkpt lat="43.3624380" lon="-4.4574280">
        <ele>88.8</ele>
        <time>2021-07-18T07:54:58Z</time>
      </trkpt>
      <trkpt lat="43.3624460" lon="-4.4575610">
        <ele>88.4</ele>
        <time>2021-07-18T07:55:00Z</time>
      </trkpt>
      <trkpt lat="43.3624520" lon="-4.4576160">
        <ele>88.0</ele>
        <time>2021-07-18T07:55:01Z</time>
      </trkpt>
      <trkpt lat="43.3624600" lon="-4.4576660">
        <ele>87.2</ele>
        <time>2021-07-18T07:55:02Z</time>
      </trkpt>
      <trkpt lat="43.3624700" lon="-4.4577160">
        <ele>86.8</ele>
        <time>2021-07-18T07:55:03Z</time>
      </trkpt>
      <trkpt lat="43.3625130" lon="-4.4579760">
        <ele>86.8</ele>
        <time>2021-07-18T07:55:08Z</time>
      </trkpt>
      <trkpt lat="43.3625120" lon="-4.4581340">
        <ele>86.8</ele>
        <time>2021-07-18T07:55:11Z</time>
      </trkpt>
      <trkpt lat="43.3624730" lon="-4.4583300">
        <ele>86.8</ele>
        <time>2021-07-18T07:55:14Z</time>
      </trkpt>
      <trkpt lat="43.3624530" lon="-4.4583910">
        <ele>86.8</ele>
        <time>2021-07-18T07:55:15Z</time>
      </trkpt>
      <trkpt lat="43.3623410" lon="-4.4586470">
        <ele>86.8</ele>
        <time>2021-07-18T07:55:19Z</time>
      </trkpt>
      <trkpt lat="43.3623220" lon="-4.4587210">
        <ele>86.8</ele>
        <time>2021-07-18T07:55:20Z</time>
      </trkpt>
      <trkpt lat="43.3623040" lon="-4.4588050">
        <ele>86.2</ele>
        <time>2021-07-18T07:55:21Z</time>
      </trkpt>
      <trkpt lat="43.3622940" lon="-4.4588980">
        <ele>85.8</ele>
        <time>2021-07-18T07:55:22Z</time>
      </trkpt>
      <trkpt lat="43.3622860" lon="-4.4589970">
        <ele>85.4</ele>
        <time>2021-07-18T07:55:23Z</time>
      </trkpt>
      <trkpt lat="43.3622850" lon="-4.4591020">
        <ele>84.8</ele>
        <time>2021-07-18T07:55:24Z</time>
      </trkpt>
      <trkpt lat="43.3622860" lon="-4.4592120">
        <ele>84.4</ele>
        <time>2021-07-18T07:55:25Z</time>
      </trkpt>
      <trkpt lat="43.3623060" lon="-4.4594460">
        <ele>84.4</ele>
        <time>2021-07-18T07:55:27Z</time>
      </trkpt>
      <trkpt lat="43.3623310" lon="-4.4596710">
        <ele>84.0</ele>
        <time>2021-07-18T07:55:29Z</time>
      </trkpt>
      <trkpt lat="43.3623340" lon="-4.4597520">
        <ele>83.4</ele>
        <time>2021-07-18T07:55:30Z</time>
      </trkpt>
      <trkpt lat="43.3623320" lon="-4.4598150">
        <ele>83.0</ele>
        <time>2021-07-18T07:55:31Z</time>
      </trkpt>
      <trkpt lat="43.3623270" lon="-4.4598640">
        <ele>82.6</ele>
        <time>2021-07-18T07:55:32Z</time>
      </trkpt>
      <trkpt lat="43.3623190" lon="-4.4599140">
        <ele>82.2</ele>
        <time>2021-07-18T07:55:33Z</time>
      </trkpt>
      <trkpt lat="43.3622860" lon="-4.4600610">
        <ele>82.2</ele>
        <time>2021-07-18T07:55:36Z</time>
      </trkpt>
      <trkpt lat="43.3622220" lon="-4.4602090">
        <ele>81.8</ele>
        <time>2021-07-18T07:55:39Z</time>
      </trkpt>
      <trkpt lat="43.3621890" lon="-4.4602520">
        <ele>81.4</ele>
        <time>2021-07-18T07:55:40Z</time>
      </trkpt>
      <trkpt lat="43.3621500" lon="-4.4602930">
        <ele>81.0</ele>
        <time>2021-07-18T07:55:41Z</time>
      </trkpt>
      <trkpt lat="43.3621070" lon="-4.4603270">
        <ele>80.4</ele>
        <time>2021-07-18T07:55:42Z</time>
      </trkpt>
      <trkpt lat="43.3620620" lon="-4.4603510">
        <ele>80.0</ele>
        <time>2021-07-18T07:55:43Z</time>
      </trkpt>
      <trkpt lat="43.3619690" lon="-4.4603790">
        <ele>80.0</ele>
        <time>2021-07-18T07:55:45Z</time>
      </trkpt>
      <trkpt lat="43.3619280" lon="-4.4603890">
        <ele>79.6</ele>
        <time>2021-07-18T07:55:46Z</time>
      </trkpt>
      <trkpt lat="43.3618870" lon="-4.4604020">
        <ele>79.2</ele>
        <time>2021-07-18T07:55:47Z</time>
      </trkpt>
      <trkpt lat="43.3618440" lon="-4.4604150">
        <ele>78.8</ele>
        <time>2021-07-18T07:55:48Z</time>
      </trkpt>
      <trkpt lat="43.3618010" lon="-4.4604330">
        <ele>78.4</ele>
        <time>2021-07-18T07:55:49Z</time>
      </trkpt>
      <trkpt lat="43.3617580" lon="-4.4604550">
        <ele>77.8</ele>
        <time>2021-07-18T07:55:50Z</time>
      </trkpt>
      <trkpt lat="43.3617150" lon="-4.4604920">
        <ele>77.4</ele>
        <time>2021-07-18T07:55:51Z</time>
      </trkpt>
      <trkpt lat="43.3616720" lon="-4.4605370">
        <ele>76.2</ele>
        <time>2021-07-18T07:55:52Z</time>
      </trkpt>
      <trkpt lat="43.3616380" lon="-4.4605860">
        <ele>75.6</ele>
        <time>2021-07-18T07:55:53Z</time>
      </trkpt>
      <trkpt lat="43.3616080" lon="-4.4606330">
        <ele>75.0</ele>
        <time>2021-07-18T07:55:54Z</time>
      </trkpt>
      <trkpt lat="43.3615820" lon="-4.4606780">
        <ele>74.4</ele>
        <time>2021-07-18T07:55:55Z</time>
      </trkpt>
      <trkpt lat="43.3615630" lon="-4.4607330">
        <ele>73.8</ele>
        <time>2021-07-18T07:55:56Z</time>
      </trkpt>
      <trkpt lat="43.3615480" lon="-4.4607950">
        <ele>73.2</ele>
        <time>2021-07-18T07:55:57Z</time>
      </trkpt>
      <trkpt lat="43.3615210" lon="-4.4610200">
        <ele>72.8</ele>
        <time>2021-07-18T07:56:00Z</time>
      </trkpt>
      <trkpt lat="43.3615200" lon="-4.4610990">
        <ele>72.2</ele>
        <time>2021-07-18T07:56:01Z</time>
      </trkpt>
      <trkpt lat="43.3615200" lon="-4.4611770">
        <ele>71.8</ele>
        <time>2021-07-18T07:56:02Z</time>
      </trkpt>
      <trkpt lat="43.3615230" lon="-4.4612610">
        <ele>71.4</ele>
        <time>2021-07-18T07:56:03Z</time>
      </trkpt>
      <trkpt lat="43.3615280" lon="-4.4613490">
        <ele>71.0</ele>
        <time>2021-07-18T07:56:04Z</time>
      </trkpt>
      <trkpt lat="43.3615430" lon="-4.4615230">
        <ele>71.0</ele>
        <time>2021-07-18T07:56:06Z</time>
      </trkpt>
      <trkpt lat="43.3615590" lon="-4.4620050">
        <ele>71.0</ele>
        <time>2021-07-18T07:56:12Z</time>
      </trkpt>
      <trkpt lat="43.3615320" lon="-4.4621590">
        <ele>71.0</ele>
        <time>2021-07-18T07:56:14Z</time>
      </trkpt>
      <trkpt lat="43.3614820" lon="-4.4623010">
        <ele>70.6</ele>
        <time>2021-07-18T07:56:16Z</time>
      </trkpt>
      <trkpt lat="43.3614520" lon="-4.4623710">
        <ele>69.8</ele>
        <time>2021-07-18T07:56:17Z</time>
      </trkpt>
      <trkpt lat="43.3614230" lon="-4.4624430">
        <ele>69.4</ele>
        <time>2021-07-18T07:56:18Z</time>
      </trkpt>
      <trkpt lat="43.3613940" lon="-4.4625150">
        <ele>69.0</ele>
        <time>2021-07-18T07:56:19Z</time>
      </trkpt>
      <trkpt lat="43.3612460" lon="-4.4629120">
        <ele>69.0</ele>
        <time>2021-07-18T07:56:24Z</time>
      </trkpt>
      <trkpt lat="43.3611980" lon="-4.4630840">
        <ele>68.6</ele>
        <time>2021-07-18T07:56:26Z</time>
      </trkpt>
      <trkpt lat="43.3611760" lon="-4.4631680">
        <ele>68.2</ele>
        <time>2021-07-18T07:56:27Z</time>
      </trkpt>
      <trkpt lat="43.3611550" lon="-4.4632530">
        <ele>67.8</ele>
        <time>2021-07-18T07:56:28Z</time>
      </trkpt>
      <trkpt lat="43.3611360" lon="-4.4633390">
        <ele>67.4</ele>
        <time>2021-07-18T07:56:29Z</time>
      </trkpt>
      <trkpt lat="43.3611180" lon="-4.4634200">
        <ele>67.0</ele>
        <time>2021-07-18T07:56:30Z</time>
      </trkpt>
      <trkpt lat="43.3610740" lon="-4.4636260">
        <ele>67.0</ele>
        <time>2021-07-18T07:56:33Z</time>
      </trkpt>
      <trkpt lat="43.3610450" lon="-4.4637300">
        <ele>67.0</ele>
        <time>2021-07-18T07:56:35Z</time>
      </trkpt>
      <trkpt lat="43.3609890" lon="-4.4639240">
        <ele>67.0</ele>
        <time>2021-07-18T07:56:39Z</time>
      </trkpt>
      <trkpt lat="43.3609570" lon="-4.4640180">
        <ele>67.0</ele>
        <time>2021-07-18T07:56:41Z</time>
      </trkpt>
      <trkpt lat="43.3609390" lon="-4.4640650">
        <ele>67.0</ele>
        <time>2021-07-18T07:56:42Z</time>
      </trkpt>
      <trkpt lat="43.3609050" lon="-4.4641570">
        <ele>67.0</ele>
        <time>2021-07-18T07:56:44Z</time>
      </trkpt>
      <trkpt lat="43.3608490" lon="-4.4642830">
        <ele>67.0</ele>
        <time>2021-07-18T07:56:47Z</time>
      </trkpt>
      <trkpt lat="43.3608080" lon="-4.4643620">
        <ele>67.0</ele>
        <time>2021-07-18T07:56:49Z</time>
      </trkpt>
      <trkpt lat="43.3607900" lon="-4.4644000">
        <ele>67.0</ele>
        <time>2021-07-18T07:56:50Z</time>
      </trkpt>
      <trkpt lat="43.3607100" lon="-4.4645560">
        <ele>67.0</ele>
        <time>2021-07-18T07:56:54Z</time>
      </trkpt>
      <trkpt lat="43.3606440" lon="-4.4646660">
        <ele>67.0</ele>
        <time>2021-07-18T07:56:57Z</time>
      </trkpt>
      <trkpt lat="43.3606230" lon="-4.4647030">
        <ele>67.4</ele>
        <time>2021-07-18T07:56:58Z</time>
      </trkpt>
      <trkpt lat="43.3606010" lon="-4.4647430">
        <ele>67.8</ele>
        <time>2021-07-18T07:56:59Z</time>
      </trkpt>
      <trkpt lat="43.3605810" lon="-4.4647790">
        <ele>68.2</ele>
        <time>2021-07-18T07:57:00Z</time>
      </trkpt>
      <trkpt lat="43.3605610" lon="-4.4648190">
        <ele>68.6</ele>
        <time>2021-07-18T07:57:01Z</time>
      </trkpt>
      <trkpt lat="43.3605400" lon="-4.4648550">
        <ele>69.2</ele>
        <time>2021-07-18T07:57:02Z</time>
      </trkpt>
      <trkpt lat="43.3604590" lon="-4.4650120">
        <ele>69.2</ele>
        <time>2021-07-18T07:57:06Z</time>
      </trkpt>
      <trkpt lat="43.3603280" lon="-4.4653670">
        <ele>69.2</ele>
        <time>2021-07-18T07:57:14Z</time>
      </trkpt>
      <trkpt lat="43.3602500" lon="-4.4656950">
        <ele>69.2</ele>
        <time>2021-07-18T07:57:21Z</time>
      </trkpt>
      <trkpt lat="43.3602180" lon="-4.4659480">
        <ele>69.2</ele>
        <time>2021-07-18T07:57:26Z</time>
      </trkpt>
      <trkpt lat="43.3602180" lon="-4.4660050">
        <ele>69.2</ele>
        <time>2021-07-18T07:57:27Z</time>
      </trkpt>
      <trkpt lat="43.3602230" lon="-4.4660680">
        <ele>69.2</ele>
        <time>2021-07-18T07:57:28Z</time>
      </trkpt>
      <trkpt lat="43.3602490" lon="-4.4662830">
        <ele>69.2</ele>
        <time>2021-07-18T07:57:31Z</time>
      </trkpt>
      <trkpt lat="43.3602830" lon="-4.4664520">
        <ele>69.2</ele>
        <time>2021-07-18T07:57:33Z</time>
      </trkpt>
      <trkpt lat="43.3603020" lon="-4.4665450">
        <ele>69.2</ele>
        <time>2021-07-18T07:57:34Z</time>
      </trkpt>
      <trkpt lat="43.3603450" lon="-4.4667500">
        <ele>69.2</ele>
        <time>2021-07-18T07:57:36Z</time>
      </trkpt>
      <trkpt lat="43.3603980" lon="-4.4669780">
        <ele>68.6</ele>
        <time>2021-07-18T07:57:38Z</time>
      </trkpt>
      <trkpt lat="43.3604310" lon="-4.4670980">
        <ele>68.2</ele>
        <time>2021-07-18T07:57:39Z</time>
      </trkpt>
      <trkpt lat="43.3604620" lon="-4.4672230">
        <ele>67.8</ele>
        <time>2021-07-18T07:57:40Z</time>
      </trkpt>
      <trkpt lat="43.3604940" lon="-4.4673510">
        <ele>67.4</ele>
        <time>2021-07-18T07:57:41Z</time>
      </trkpt>
      <trkpt lat="43.3605260" lon="-4.4674830">
        <ele>66.8</ele>
        <time>2021-07-18T07:57:42Z</time>
      </trkpt>
      <trkpt lat="43.3605590" lon="-4.4676240">
        <ele>66.4</ele>
        <time>2021-07-18T07:57:43Z</time>
      </trkpt>
      <trkpt lat="43.3605960" lon="-4.4677590">
        <ele>65.8</ele>
        <time>2021-07-18T07:57:44Z</time>
      </trkpt>
      <trkpt lat="43.3606320" lon="-4.4678900">
        <ele>65.2</ele>
        <time>2021-07-18T07:57:45Z</time>
      </trkpt>
      <trkpt lat="43.3606660" lon="-4.4680200">
        <ele>64.6</ele>
        <time>2021-07-18T07:57:46Z</time>
      </trkpt>
      <trkpt lat="43.3606980" lon="-4.4681540">
        <ele>64.2</ele>
        <time>2021-07-18T07:57:47Z</time>
      </trkpt>
      <trkpt lat="43.3607310" lon="-4.4682890">
        <ele>63.8</ele>
        <time>2021-07-18T07:57:48Z</time>
      </trkpt>
      <trkpt lat="43.3607650" lon="-4.4684190">
        <ele>63.4</ele>
        <time>2021-07-18T07:57:49Z</time>
      </trkpt>
      <trkpt lat="43.3607980" lon="-4.4685440">
        <ele>63.0</ele>
        <time>2021-07-18T07:57:50Z</time>
      </trkpt>
      <trkpt lat="43.3608290" lon="-4.4686660">
        <ele>62.4</ele>
        <time>2021-07-18T07:57:51Z</time>
      </trkpt>
      <trkpt lat="43.3608570" lon="-4.4687790">
        <ele>61.8</ele>
        <time>2021-07-18T07:57:52Z</time>
      </trkpt>
      <trkpt lat="43.3608860" lon="-4.4688900">
        <ele>61.2</ele>
        <time>2021-07-18T07:57:53Z</time>
      </trkpt>
      <trkpt lat="43.3609140" lon="-4.4689980">
        <ele>60.4</ele>
        <time>2021-07-18T07:57:54Z</time>
      </trkpt>
      <trkpt lat="43.3609440" lon="-4.4691050">
        <ele>59.8</ele>
        <time>2021-07-18T07:57:55Z</time>
      </trkpt>
      <trkpt lat="43.3609810" lon="-4.4692040">
        <ele>58.4</ele>
        <time>2021-07-18T07:57:56Z</time>
      </trkpt>
      <trkpt lat="43.3610280" lon="-4.4692900">
        <ele>57.8</ele>
        <time>2021-07-18T07:57:57Z</time>
      </trkpt>
      <trkpt lat="43.3610750" lon="-4.4693730">
        <ele>57.8</ele>
        <time>2021-07-18T07:57:58Z</time>
      </trkpt>
      <trkpt lat="43.3611320" lon="-4.4694500">
        <ele>57.4</ele>
        <time>2021-07-18T07:57:59Z</time>
      </trkpt>
      <trkpt lat="43.3611870" lon="-4.4695170">
        <ele>57.0</ele>
        <time>2021-07-18T07:58:00Z</time>
      </trkpt>
      <trkpt lat="43.3612450" lon="-4.4695840">
        <ele>56.4</ele>
        <time>2021-07-18T07:58:01Z</time>
      </trkpt>
      <trkpt lat="43.3613020" lon="-4.4696510">
        <ele>56.0</ele>
        <time>2021-07-18T07:58:02Z</time>
      </trkpt>
      <trkpt lat="43.3613560" lon="-4.4697210">
        <ele>55.6</ele>
        <time>2021-07-18T07:58:03Z</time>
      </trkpt>
      <trkpt lat="43.3617010" lon="-4.4701510">
        <ele>55.6</ele>
        <time>2021-07-18T07:58:09Z</time>
      </trkpt>
      <trkpt lat="43.3618600" lon="-4.4703580">
        <ele>55.2</ele>
        <time>2021-07-18T07:58:12Z</time>
      </trkpt>
      <trkpt lat="43.3619080" lon="-4.4704220">
        <ele>54.8</ele>
        <time>2021-07-18T07:58:13Z</time>
      </trkpt>
      <trkpt lat="43.3619430" lon="-4.4704780">
        <ele>54.4</ele>
        <time>2021-07-18T07:58:14Z</time>
      </trkpt>
      <trkpt lat="43.3619790" lon="-4.4705290">
        <ele>54.0</ele>
        <time>2021-07-18T07:58:15Z</time>
      </trkpt>
      <trkpt lat="43.3620120" lon="-4.4705770">
        <ele>53.6</ele>
        <time>2021-07-18T07:58:16Z</time>
      </trkpt>
      <trkpt lat="43.3620710" lon="-4.4706760">
        <ele>53.6</ele>
        <time>2021-07-18T07:58:18Z</time>
      </trkpt>
      <trkpt lat="43.3620960" lon="-4.4707330">
        <ele>53.2</ele>
        <time>2021-07-18T07:58:19Z</time>
      </trkpt>
      <trkpt lat="43.3621230" lon="-4.4707950">
        <ele>52.4</ele>
        <time>2021-07-18T07:58:20Z</time>
      </trkpt>
      <trkpt lat="43.3621480" lon="-4.4708680">
        <ele>52.0</ele>
        <time>2021-07-18T07:58:21Z</time>
      </trkpt>
      <trkpt lat="43.3621740" lon="-4.4709420">
        <ele>51.4</ele>
        <time>2021-07-18T07:58:22Z</time>
      </trkpt>
      <trkpt lat="43.3622490" lon="-4.4711780">
        <ele>51.4</ele>
        <time>2021-07-18T07:58:25Z</time>
      </trkpt>
      <trkpt lat="43.3623050" lon="-4.4713510">
        <ele>51.0</ele>
        <time>2021-07-18T07:58:27Z</time>
      </trkpt>
      <trkpt lat="43.3623280" lon="-4.4714460">
        <ele>50.6</ele>
        <time>2021-07-18T07:58:28Z</time>
      </trkpt>
      <trkpt lat="43.3623520" lon="-4.4715330">
        <ele>50.2</ele>
        <time>2021-07-18T07:58:29Z</time>
      </trkpt>
      <trkpt lat="43.3623780" lon="-4.4716240">
        <ele>49.8</ele>
        <time>2021-07-18T07:58:30Z</time>
      </trkpt>
      <trkpt lat="43.3624030" lon="-4.4717160">
        <ele>49.4</ele>
        <time>2021-07-18T07:58:31Z</time>
      </trkpt>
      <trkpt lat="43.3624260" lon="-4.4718060">
        <ele>49.4</ele>
        <time>2021-07-18T07:58:32Z</time>
      </trkpt>
      <trkpt lat="43.3625100" lon="-4.4720850">
        <ele>49.0</ele>
        <time>2021-07-18T07:58:35Z</time>
      </trkpt>
      <trkpt lat="43.3625430" lon="-4.4721750">
        <ele>48.6</ele>
        <time>2021-07-18T07:58:36Z</time>
      </trkpt>
      <trkpt lat="43.3625790" lon="-4.4722710">
        <ele>48.2</ele>
        <time>2021-07-18T07:58:37Z</time>
      </trkpt>
      <trkpt lat="43.3626210" lon="-4.4723790">
        <ele>47.8</ele>
        <time>2021-07-18T07:58:38Z</time>
      </trkpt>
      <trkpt lat="43.3626560" lon="-4.4724870">
        <ele>47.4</ele>
        <time>2021-07-18T07:58:39Z</time>
      </trkpt>
      <trkpt lat="43.3626880" lon="-4.4725910">
        <ele>46.8</ele>
        <time>2021-07-18T07:58:40Z</time>
      </trkpt>
      <trkpt lat="43.3627180" lon="-4.4726910">
        <ele>46.2</ele>
        <time>2021-07-18T07:58:41Z</time>
      </trkpt>
      <trkpt lat="43.3627460" lon="-4.4727840">
        <ele>45.8</ele>
        <time>2021-07-18T07:58:42Z</time>
      </trkpt>
      <trkpt lat="43.3627720" lon="-4.4728630">
        <ele>45.2</ele>
        <time>2021-07-18T07:58:43Z</time>
      </trkpt>
      <trkpt lat="43.3628010" lon="-4.4729350">
        <ele>44.0</ele>
        <time>2021-07-18T07:58:44Z</time>
      </trkpt>
      <trkpt lat="43.3628310" lon="-4.4730030">
        <ele>43.2</ele>
        <time>2021-07-18T07:58:45Z</time>
      </trkpt>
      <trkpt lat="43.3628560" lon="-4.4730720">
        <ele>42.6</ele>
        <time>2021-07-18T07:58:46Z</time>
      </trkpt>
      <trkpt lat="43.3628860" lon="-4.4731400">
        <ele>42.0</ele>
        <time>2021-07-18T07:58:47Z</time>
      </trkpt>
      <trkpt lat="43.3629180" lon="-4.4732100">
        <ele>41.4</ele>
        <time>2021-07-18T07:58:48Z</time>
      </trkpt>
      <trkpt lat="43.3629530" lon="-4.4732790">
        <ele>40.8</ele>
        <time>2021-07-18T07:58:49Z</time>
      </trkpt>
      <trkpt lat="43.3629900" lon="-4.4733480">
        <ele>40.2</ele>
        <time>2021-07-18T07:58:50Z</time>
      </trkpt>
      <trkpt lat="43.3630290" lon="-4.4734250">
        <ele>39.6</ele>
        <time>2021-07-18T07:58:51Z</time>
      </trkpt>
      <trkpt lat="43.3630600" lon="-4.4734980">
        <ele>39.0</ele>
        <time>2021-07-18T07:58:52Z</time>
      </trkpt>
      <trkpt lat="43.3630870" lon="-4.4735710">
        <ele>38.6</ele>
        <time>2021-07-18T07:58:53Z</time>
      </trkpt>
      <trkpt lat="43.3631120" lon="-4.4736400">
        <ele>38.2</ele>
        <time>2021-07-18T07:58:54Z</time>
      </trkpt>
      <trkpt lat="43.3631340" lon="-4.4737060">
        <ele>37.8</ele>
        <time>2021-07-18T07:58:55Z</time>
      </trkpt>
      <trkpt lat="43.3631560" lon="-4.4737690">
        <ele>37.2</ele>
        <time>2021-07-18T07:58:56Z</time>
      </trkpt>
      <trkpt lat="43.3632020" lon="-4.4739000">
        <ele>36.8</ele>
        <time>2021-07-18T07:58:58Z</time>
      </trkpt>
      <trkpt lat="43.3632350" lon="-4.4739620">
        <ele>36.4</ele>
        <time>2021-07-18T07:58:59Z</time>
      </trkpt>
      <trkpt lat="43.3632700" lon="-4.4740160">
        <ele>35.8</ele>
        <time>2021-07-18T07:59:00Z</time>
      </trkpt>
      <trkpt lat="43.3633110" lon="-4.4740690">
        <ele>35.4</ele>
        <time>2021-07-18T07:59:01Z</time>
      </trkpt>
      <trkpt lat="43.3633610" lon="-4.4741220">
        <ele>34.8</ele>
        <time>2021-07-18T07:59:02Z</time>
      </trkpt>
      <trkpt lat="43.3634030" lon="-4.4741770">
        <ele>34.4</ele>
        <time>2021-07-18T07:59:03Z</time>
      </trkpt>
      <trkpt lat="43.3634290" lon="-4.4742450">
        <ele>34.0</ele>
        <time>2021-07-18T07:59:04Z</time>
      </trkpt>
      <trkpt lat="43.3634450" lon="-4.4743260">
        <ele>33.4</ele>
        <time>2021-07-18T07:59:05Z</time>
      </trkpt>
      <trkpt lat="43.3634580" lon="-4.4744080">
        <ele>33.0</ele>
        <time>2021-07-18T07:59:07Z</time>
      </trkpt>
      <trkpt lat="43.3634720" lon="-4.4744860">
        <ele>32.4</ele>
        <time>2021-07-18T07:59:08Z</time>
      </trkpt>
      <trkpt lat="43.3634910" lon="-4.4745600">
        <ele>32.4</ele>
        <time>2021-07-18T07:59:09Z</time>
      </trkpt>
      <trkpt lat="43.3635160" lon="-4.4746330">
        <ele>31.6</ele>
        <time>2021-07-18T07:59:10Z</time>
      </trkpt>
      <trkpt lat="43.3635400" lon="-4.4747100">
        <ele>31.0</ele>
        <time>2021-07-18T07:59:11Z</time>
      </trkpt>
      <trkpt lat="43.3635660" lon="-4.4747830">
        <ele>30.6</ele>
        <time>2021-07-18T07:59:12Z</time>
      </trkpt>
      <trkpt lat="43.3635930" lon="-4.4748610">
        <ele>30.0</ele>
        <time>2021-07-18T07:59:13Z</time>
      </trkpt>
      <trkpt lat="43.3636210" lon="-4.4749470">
        <ele>29.6</ele>
        <time>2021-07-18T07:59:14Z</time>
      </trkpt>
      <trkpt lat="43.3636540" lon="-4.4750410">
        <ele>29.2</ele>
        <time>2021-07-18T07:59:15Z</time>
      </trkpt>
      <trkpt lat="43.3636820" lon="-4.4751450">
        <ele>28.8</ele>
        <time>2021-07-18T07:59:16Z</time>
      </trkpt>
      <trkpt lat="43.3637090" lon="-4.4752370">
        <ele>28.2</ele>
        <time>2021-07-18T07:59:17Z</time>
      </trkpt>
      <trkpt lat="43.3637430" lon="-4.4753240">
        <ele>27.8</ele>
        <time>2021-07-18T07:59:18Z</time>
      </trkpt>
      <trkpt lat="43.3637800" lon="-4.4754080">
        <ele>27.4</ele>
        <time>2021-07-18T07:59:19Z</time>
      </trkpt>
      <trkpt lat="43.3638240" lon="-4.4754970">
        <ele>26.8</ele>
        <time>2021-07-18T07:59:20Z</time>
      </trkpt>
      <trkpt lat="43.3638640" lon="-4.4755890">
        <ele>26.4</ele>
        <time>2021-07-18T07:59:21Z</time>
      </trkpt>
      <trkpt lat="43.3639030" lon="-4.4756870">
        <ele>25.8</ele>
        <time>2021-07-18T07:59:22Z</time>
      </trkpt>
      <trkpt lat="43.3639390" lon="-4.4757840">
        <ele>25.4</ele>
        <time>2021-07-18T07:59:23Z</time>
      </trkpt>
      <trkpt lat="43.3640280" lon="-4.4760640">
        <ele>25.0</ele>
        <time>2021-07-18T07:59:26Z</time>
      </trkpt>
      <trkpt lat="43.3640520" lon="-4.4761450">
        <ele>24.6</ele>
        <time>2021-07-18T07:59:27Z</time>
      </trkpt>
      <trkpt lat="43.3640750" lon="-4.4762190">
        <ele>24.2</ele>
        <time>2021-07-18T07:59:28Z</time>
      </trkpt>
      <trkpt lat="43.3640980" lon="-4.4762880">
        <ele>23.6</ele>
        <time>2021-07-18T07:59:29Z</time>
      </trkpt>
      <trkpt lat="43.3641210" lon="-4.4763570">
        <ele>23.2</ele>
        <time>2021-07-18T07:59:30Z</time>
      </trkpt>
      <trkpt lat="43.3641440" lon="-4.4764180">
        <ele>23.2</ele>
        <time>2021-07-18T07:59:31Z</time>
      </trkpt>
      <trkpt lat="43.3643030" lon="-4.4768050">
        <ele>23.2</ele>
        <time>2021-07-18T07:59:38Z</time>
      </trkpt>
      <trkpt lat="43.3643560" lon="-4.4769780">
        <ele>23.2</ele>
        <time>2021-07-18T07:59:41Z</time>
      </trkpt>
      <trkpt lat="43.3643730" lon="-4.4771120">
        <ele>23.2</ele>
        <time>2021-07-18T07:59:43Z</time>
      </trkpt>
      <trkpt lat="43.3643670" lon="-4.4772320">
        <ele>22.8</ele>
        <time>2021-07-18T07:59:45Z</time>
      </trkpt>
      <trkpt lat="43.3643650" lon="-4.4772810">
        <ele>22.4</ele>
        <time>2021-07-18T07:59:46Z</time>
      </trkpt>
      <trkpt lat="43.3643650" lon="-4.4773320">
        <ele>22.0</ele>
        <time>2021-07-18T07:59:47Z</time>
      </trkpt>
      <trkpt lat="43.3643680" lon="-4.4773880">
        <ele>21.6</ele>
        <time>2021-07-18T07:59:48Z</time>
      </trkpt>
      <trkpt lat="43.3643690" lon="-4.4774500">
        <ele>21.0</ele>
        <time>2021-07-18T07:59:49Z</time>
      </trkpt>
      <trkpt lat="43.3643710" lon="-4.4775100">
        <ele>20.6</ele>
        <time>2021-07-18T07:59:50Z</time>
      </trkpt>
      <trkpt lat="43.3643750" lon="-4.4775700">
        <ele>20.2</ele>
        <time>2021-07-18T07:59:51Z</time>
      </trkpt>
      <trkpt lat="43.3643800" lon="-4.4776430">
        <ele>19.8</ele>
        <time>2021-07-18T07:59:52Z</time>
      </trkpt>
      <trkpt lat="43.3643880" lon="-4.4777240">
        <ele>19.4</ele>
        <time>2021-07-18T07:59:53Z</time>
      </trkpt>
      <trkpt lat="43.3643960" lon="-4.4778090">
        <ele>18.8</ele>
        <time>2021-07-18T07:59:54Z</time>
      </trkpt>
      <trkpt lat="43.3644040" lon="-4.4778940">
        <ele>18.4</ele>
        <time>2021-07-18T07:59:55Z</time>
      </trkpt>
      <trkpt lat="43.3644130" lon="-4.4779750">
        <ele>17.8</ele>
        <time>2021-07-18T07:59:56Z</time>
      </trkpt>
      <trkpt lat="43.3644230" lon="-4.4780560">
        <ele>17.2</ele>
        <time>2021-07-18T07:59:57Z</time>
      </trkpt>
      <trkpt lat="43.3644380" lon="-4.4781350">
        <ele>16.4</ele>
        <time>2021-07-18T07:59:58Z</time>
      </trkpt>
      <trkpt lat="43.3644530" lon="-4.4782200">
        <ele>15.8</ele>
        <time>2021-07-18T07:59:59Z</time>
      </trkpt>
      <trkpt lat="43.3644740" lon="-4.4783050">
        <ele>14.4</ele>
        <time>2021-07-18T08:00:00Z</time>
      </trkpt>
      <trkpt lat="43.3644960" lon="-4.4783870">
        <ele>13.8</ele>
        <time>2021-07-18T08:00:01Z</time>
      </trkpt>
      <trkpt lat="43.3645160" lon="-4.4784750">
        <ele>13.0</ele>
        <time>2021-07-18T08:00:02Z</time>
      </trkpt>
      <trkpt lat="43.3645330" lon="-4.4785650">
        <ele>12.2</ele>
        <time>2021-07-18T08:00:03Z</time>
      </trkpt>
      <trkpt lat="43.3645510" lon="-4.4786540">
        <ele>11.4</ele>
        <time>2021-07-18T08:00:04Z</time>
      </trkpt>
      <trkpt lat="43.3645660" lon="-4.4787420">
        <ele>10.6</ele>
        <time>2021-07-18T08:00:05Z</time>
      </trkpt>
      <trkpt lat="43.3645820" lon="-4.4788260">
        <ele>10.0</ele>
        <time>2021-07-18T08:00:06Z</time>
      </trkpt>
      <trkpt lat="43.3645980" lon="-4.4789110">
        <ele>9.2</ele>
        <time>2021-07-18T08:00:07Z</time>
      </trkpt>
      <trkpt lat="43.3646130" lon="-4.4789830">
        <ele>8.4</ele>
        <time>2021-07-18T08:00:08Z</time>
      </trkpt>
      <trkpt lat="43.3646300" lon="-4.4790510">
        <ele>7.6</ele>
        <time>2021-07-18T08:00:09Z</time>
      </trkpt>
      <trkpt lat="43.3646490" lon="-4.4791160">
        <ele>7.0</ele>
        <time>2021-07-18T08:00:10Z</time>
      </trkpt>
      <trkpt lat="43.3646700" lon="-4.4791810">
        <ele>6.4</ele>
        <time>2021-07-18T08:00:11Z</time>
      </trkpt>
      <trkpt lat="43.3646950" lon="-4.4792460">
        <ele>5.8</ele>
        <time>2021-07-18T08:00:12Z</time>
      </trkpt>
      <trkpt lat="43.3647230" lon="-4.4793080">
        <ele>5.4</ele>
        <time>2021-07-18T08:00:13Z</time>
      </trkpt>
      <trkpt lat="43.3647550" lon="-4.4793650">
        <ele>4.8</ele>
        <time>2021-07-18T08:00:14Z</time>
      </trkpt>
      <trkpt lat="43.3647880" lon="-4.4794110">
        <ele>4.2</ele>
        <time>2021-07-18T08:00:15Z</time>
      </trkpt>
      <trkpt lat="43.3648200" lon="-4.4794590">
        <ele>3.8</ele>
        <time>2021-07-18T08:00:16Z</time>
      </trkpt>
      <trkpt lat="43.3648560" lon="-4.4795150">
        <ele>3.2</ele>
        <time>2021-07-18T08:00:17Z</time>
      </trkpt>
      <trkpt lat="43.3648850" lon="-4.4795660">
        <ele>2.8</ele>
        <time>2021-07-18T08:00:18Z</time>
      </trkpt>
      <trkpt lat="43.3649100" lon="-4.4796250">
        <ele>2.2</ele>
        <time>2021-07-18T08:00:19Z</time>
      </trkpt>
      <trkpt lat="43.3649270" lon="-4.4796950">
        <ele>1.8</ele>
        <time>2021-07-18T08:00:20Z</time>
      </trkpt>
      <trkpt lat="43.3649420" lon="-4.4797700">
        <ele>1.4</ele>
        <time>2021-07-18T08:00:21Z</time>
      </trkpt>
      <trkpt lat="43.3649580" lon="-4.4798410">
        <ele>0.8</ele>
        <time>2021-07-18T08:00:22Z</time>
      </trkpt>
      <trkpt lat="43.3649710" lon="-4.4799080">
        <ele>0.2</ele>
        <time>2021-07-18T08:00:23Z</time>
      </trkpt>
      <trkpt lat="43.3649860" lon="-4.4799740">
        <ele>-1.0</ele>
        <time>2021-07-18T08:00:24Z</time>
      </trkpt>
      <trkpt lat="43.3650000" lon="-4.4800340">
        <ele>-1.8</ele>
        <time>2021-07-18T08:00:25Z</time>
      </trkpt>
      <trkpt lat="43.3650150" lon="-4.4800900">
        <ele>-2.6</ele>
        <time>2021-07-18T08:00:26Z</time>
      </trkpt>
      <trkpt lat="43.3650310" lon="-4.4801370">
        <ele>-3.4</ele>
        <time>2021-07-18T08:00:27Z</time>
      </trkpt>
      <trkpt lat="43.3650460" lon="-4.4801890">
        <ele>-4.0</ele>
        <time>2021-07-18T08:00:28Z</time>
      </trkpt>
      <trkpt lat="43.3650620" lon="-4.4802490">
        <ele>-4.8</ele>
        <time>2021-07-18T08:00:29Z</time>
      </trkpt>
      <trkpt lat="43.3650800" lon="-4.4803120">
        <ele>-5.6</ele>
        <time>2021-07-18T08:00:30Z</time>
      </trkpt>
      <trkpt lat="43.3650980" lon="-4.4803690">
        <ele>-6.2</ele>
        <time>2021-07-18T08:00:31Z</time>
      </trkpt>
      <trkpt lat="43.3651150" lon="-4.4804280">
        <ele>-6.8</ele>
        <time>2021-07-18T08:00:32Z</time>
      </trkpt>
      <trkpt lat="43.3651370" lon="-4.4804840">
        <ele>-7.4</ele>
        <time>2021-07-18T08:00:33Z</time>
      </trkpt>
      <trkpt lat="43.3651640" lon="-4.4805460">
        <ele>-8.0</ele>
        <time>2021-07-18T08:00:34Z</time>
      </trkpt>
      <trkpt lat="43.3651920" lon="-4.4806140">
        <ele>-8.6</ele>
        <time>2021-07-18T08:00:35Z</time>
      </trkpt>
      <trkpt lat="43.3652290" lon="-4.4806850">
        <ele>-9.0</ele>
        <time>2021-07-18T08:00:36Z</time>
      </trkpt>
      <trkpt lat="43.3652710" lon="-4.4807550">
        <ele>-9.6</ele>
        <time>2021-07-18T08:00:37Z</time>
      </trkpt>
      <trkpt lat="43.3653130" lon="-4.4808120">
        <ele>-10.0</ele>
        <time>2021-07-18T08:00:38Z</time>
      </trkpt>
      <trkpt lat="43.3653490" lon="-4.4808570">
        <ele>-10.6</ele>
        <time>2021-07-18T08:00:39Z</time>
      </trkpt>
      <trkpt lat="43.3653820" lon="-4.4809010">
        <ele>-11.2</ele>
        <time>2021-07-18T08:00:40Z</time>
      </trkpt>
      <trkpt lat="43.3654100" lon="-4.4809370">
        <ele>-11.8</ele>
        <time>2021-07-18T08:00:41Z</time>
      </trkpt>
      <trkpt lat="43.3654440" lon="-4.4809770">
        <ele>-12.4</ele>
        <time>2021-07-18T08:00:42Z</time>
      </trkpt>
      <trkpt lat="43.3654830" lon="-4.4810230">
        <ele>-13.0</ele>
        <time>2021-07-18T08:00:43Z</time>
      </trkpt>
      <trkpt lat="43.3655260" lon="-4.4810690">
        <ele>-13.6</ele>
        <time>2021-07-18T08:00:44Z</time>
      </trkpt>
      <trkpt lat="43.3656000" lon="-4.4811440">
        <ele>-13.6</ele>
        <time>2021-07-18T08:00:46Z</time>
      </trkpt>
      <trkpt lat="43.3656330" lon="-4.4811670">
        <ele>-14.0</ele>
        <time>2021-07-18T08:00:47Z</time>
      </trkpt>
      <trkpt lat="43.3656610" lon="-4.4811920">
        <ele>-14.6</ele>
        <time>2021-07-18T08:00:48Z</time>
      </trkpt>
      <trkpt lat="43.3656860" lon="-4.4812160">
        <ele>-15.0</ele>
        <time>2021-07-18T08:00:49Z</time>
      </trkpt>
      <trkpt lat="43.3657110" lon="-4.4812410">
        <ele>-16.0</ele>
        <time>2021-07-18T08:00:50Z</time>
      </trkpt>
      <trkpt lat="43.3657370" lon="-4.4812660">
        <ele>-16.0</ele>
        <time>2021-07-18T08:00:51Z</time>
      </trkpt>
      <trkpt lat="43.3657610" lon="-4.4812960">
        <ele>-16.4</ele>
        <time>2021-07-18T08:00:52Z</time>
      </trkpt>
      <trkpt lat="43.3657850" lon="-4.4813300">
        <ele>-16.8</ele>
        <time>2021-07-18T08:00:53Z</time>
      </trkpt>
      <trkpt lat="43.3658110" lon="-4.4813620">
        <ele>-17.4</ele>
        <time>2021-07-18T08:00:54Z</time>
      </trkpt>
      <trkpt lat="43.3658340" lon="-4.4813850">
        <ele>-17.8</ele>
        <time>2021-07-18T08:00:55Z</time>
      </trkpt>
      <trkpt lat="43.3658570" lon="-4.4814090">
        <ele>-18.2</ele>
        <time>2021-07-18T08:00:56Z</time>
      </trkpt>
      <trkpt lat="43.3658770" lon="-4.4814270">
        <ele>-18.2</ele>
        <time>2021-07-18T08:00:57Z</time>
      </trkpt>
      <trkpt lat="43.3659140" lon="-4.4814560">
        <ele>-18.2</ele>
        <time>2021-07-18T08:01:01Z</time>
      </trkpt>
      <trkpt lat="43.3659280" lon="-4.4814600">
        <ele>-18.2</ele>
        <time>2021-07-18T08:01:28Z</time>
      </trkpt>
      <trkpt lat="43.3660150" lon="-4.4814840">
        <ele>-18.2</ele>
        <time>2021-07-18T08:01:33Z</time>
      </trkpt>
      <trkpt lat="43.3660390" lon="-4.4814860">
        <ele>-18.2</ele>
        <time>2021-07-18T08:01:34Z</time>
      </trkpt>
      <trkpt lat="43.3661330" lon="-4.4815070">
        <ele>-18.2</ele>
        <time>2021-07-18T08:01:37Z</time>
      </trkpt>
      <trkpt lat="43.3662040" lon="-4.4815180">
        <ele>-18.2</ele>
        <time>2021-07-18T08:01:39Z</time>
      </trkpt>
      <trkpt lat="43.3662400" lon="-4.4815290">
        <ele>-18.2</ele>
        <time>2021-07-18T08:01:40Z</time>
      </trkpt>
      <trkpt lat="43.3663130" lon="-4.4815580">
        <ele>-18.2</ele>
        <time>2021-07-18T08:01:42Z</time>
      </trkpt>
      <trkpt lat="43.3664620" lon="-4.4816320">
        <ele>-18.2</ele>
        <time>2021-07-18T08:01:46Z</time>
      </trkpt>
      <trkpt lat="43.3665330" lon="-4.4816700">
        <ele>-18.2</ele>
        <time>2021-07-18T08:01:48Z</time>
      </trkpt>
      <trkpt lat="43.3668270" lon="-4.4818340">
        <ele>-18.2</ele>
        <time>2021-07-18T08:01:56Z</time>
      </trkpt>
      <trkpt lat="43.3668640" lon="-4.4818530">
        <ele>-18.2</ele>
        <time>2021-07-18T08:01:57Z</time>
      </trkpt>
      <trkpt lat="43.3670130" lon="-4.4819440">
        <ele>-18.2</ele>
        <time>2021-07-18T08:02:01Z</time>
      </trkpt>
      <trkpt lat="43.3671220" lon="-4.4819960">
        <ele>-18.2</ele>
        <time>2021-07-18T08:02:04Z</time>
      </trkpt>
      <trkpt lat="43.3674180" lon="-4.4821760">
        <ele>-18.2</ele>
        <time>2021-07-18T08:02:12Z</time>
      </trkpt>
      <trkpt lat="43.3676990" lon="-4.4823300">
        <ele>-18.2</ele>
        <time>2021-07-18T08:02:20Z</time>
      </trkpt>
      <trkpt lat="43.3680350" lon="-4.4825510">
        <ele>-18.2</ele>
        <time>2021-07-18T08:02:30Z</time>
      </trkpt>
      <trkpt lat="43.3680670" lon="-4.4825810">
        <ele>-17.8</ele>
        <time>2021-07-18T08:02:31Z</time>
      </trkpt>
      <trkpt lat="43.3680970" lon="-4.4826120">
        <ele>-17.4</ele>
        <time>2021-07-18T08:02:32Z</time>
      </trkpt>
      <trkpt lat="43.3681290" lon="-4.4826480">
        <ele>-17.0</ele>
        <time>2021-07-18T08:02:33Z</time>
      </trkpt>
      <trkpt lat="43.3681580" lon="-4.4826830">
        <ele>-16.6</ele>
        <time>2021-07-18T08:02:34Z</time>
      </trkpt>
      <trkpt lat="43.3681890" lon="-4.4827230">
        <ele>-16.2</ele>
        <time>2021-07-18T08:02:35Z</time>
      </trkpt>
      <trkpt lat="43.3682160" lon="-4.4827610">
        <ele>-16.2</ele>
        <time>2021-07-18T08:02:36Z</time>
      </trkpt>
      <trkpt lat="43.3683630" lon="-4.4829950">
        <ele>-16.2</ele>
        <time>2021-07-18T08:02:42Z</time>
      </trkpt>
      <trkpt lat="43.3685820" lon="-4.4833930">
        <ele>-16.2</ele>
        <time>2021-07-18T08:02:51Z</time>
      </trkpt>
      <trkpt lat="43.3687290" lon="-4.4836050">
        <ele>-16.2</ele>
        <time>2021-07-18T08:02:56Z</time>
      </trkpt>
      <trkpt lat="43.3688050" lon="-4.4836720">
        <ele>-16.2</ele>
        <time>2021-07-18T08:02:58Z</time>
      </trkpt>
      <trkpt lat="43.3688890" lon="-4.4837330">
        <ele>-16.2</ele>
        <time>2021-07-18T08:03:00Z</time>
      </trkpt>
      <trkpt lat="43.3689790" lon="-4.4837750">
        <ele>-16.2</ele>
        <time>2021-07-18T08:03:02Z</time>
      </trkpt>
      <trkpt lat="43.3690230" lon="-4.4837900">
        <ele>-16.2</ele>
        <time>2021-07-18T08:03:03Z</time>
      </trkpt>
      <trkpt lat="43.3690630" lon="-4.4838040">
        <ele>-16.2</ele>
        <time>2021-07-18T08:03:04Z</time>
      </trkpt>
      <trkpt lat="43.3691040" lon="-4.4838120">
        <ele>-16.2</ele>
        <time>2021-07-18T08:03:05Z</time>
      </trkpt>
      <trkpt lat="43.3691920" lon="-4.4838040">
        <ele>-16.2</ele>
        <time>2021-07-18T08:03:07Z</time>
      </trkpt>
      <trkpt lat="43.3692930" lon="-4.4837750">
        <ele>-16.2</ele>
        <time>2021-07-18T08:03:09Z</time>
      </trkpt>
      <trkpt lat="43.3694010" lon="-4.4837260">
        <ele>-16.2</ele>
        <time>2021-07-18T08:03:11Z</time>
      </trkpt>
      <trkpt lat="43.3694570" lon="-4.4836910">
        <ele>-16.6</ele>
        <time>2021-07-18T08:03:12Z</time>
      </trkpt>
      <trkpt lat="43.3695060" lon="-4.4836510">
        <ele>-17.0</ele>
        <time>2021-07-18T08:03:13Z</time>
      </trkpt>
      <trkpt lat="43.3695530" lon="-4.4836050">
        <ele>-17.4</ele>
        <time>2021-07-18T08:03:14Z</time>
      </trkpt>
      <trkpt lat="43.3695990" lon="-4.4835480">
        <ele>-17.8</ele>
        <time>2021-07-18T08:03:15Z</time>
      </trkpt>
      <trkpt lat="43.3696410" lon="-4.4834880">
        <ele>-18.2</ele>
        <time>2021-07-18T08:03:16Z</time>
      </trkpt>
      <trkpt lat="43.3696750" lon="-4.4834250">
        <ele>-18.2</ele>
        <time>2021-07-18T08:03:17Z</time>
      </trkpt>
      <trkpt lat="43.3697140" lon="-4.4833600">
        <ele>-18.2</ele>
        <time>2021-07-18T08:03:18Z</time>
      </trkpt>
      <trkpt lat="43.3697500" lon="-4.4832970">
        <ele>-18.6</ele>
        <time>2021-07-18T08:03:19Z</time>
      </trkpt>
      <trkpt lat="43.3697770" lon="-4.4832260">
        <ele>-19.0</ele>
        <time>2021-07-18T08:03:20Z</time>
      </trkpt>
      <trkpt lat="43.3697960" lon="-4.4831470">
        <ele>-19.6</ele>
        <time>2021-07-18T08:03:21Z</time>
      </trkpt>
      <trkpt lat="43.3698140" lon="-4.4830690">
        <ele>-20.0</ele>
        <time>2021-07-18T08:03:22Z</time>
      </trkpt>
      <trkpt lat="43.3698340" lon="-4.4829890">
        <ele>-20.4</ele>
        <time>2021-07-18T08:03:23Z</time>
      </trkpt>
      <trkpt lat="43.3698750" lon="-4.4827820">
        <ele>-20.4</ele>
        <time>2021-07-18T08:03:26Z</time>
      </trkpt>
      <trkpt lat="43.3698930" lon="-4.4826520">
        <ele>-20.4</ele>
        <time>2021-07-18T08:03:28Z</time>
      </trkpt>
      <trkpt lat="43.3699250" lon="-4.4824650">
        <ele>-20.4</ele>
        <time>2021-07-18T08:03:31Z</time>
      </trkpt>
      <trkpt lat="43.3699490" lon="-4.4823440">
        <ele>-20.4</ele>
        <time>2021-07-18T08:03:33Z</time>
      </trkpt>
      <trkpt lat="43.3699580" lon="-4.4822820">
        <ele>-20.4</ele>
        <time>2021-07-18T08:03:34Z</time>
      </trkpt>
      <trkpt lat="43.3699690" lon="-4.4822180">
        <ele>-20.4</ele>
        <time>2021-07-18T08:03:35Z</time>
      </trkpt>
      <trkpt lat="43.3699780" lon="-4.4821520">
        <ele>-20.4</ele>
        <time>2021-07-18T08:03:36Z</time>
      </trkpt>
      <trkpt lat="43.3700290" lon="-4.4817580">
        <ele>-20.4</ele>
        <time>2021-07-18T08:03:42Z</time>
      </trkpt>
      <trkpt lat="43.3700680" lon="-4.4815630">
        <ele>-20.4</ele>
        <time>2021-07-18T08:03:45Z</time>
      </trkpt>
      <trkpt lat="43.3701090" lon="-4.4813610">
        <ele>-20.4</ele>
        <time>2021-07-18T08:03:48Z</time>
      </trkpt>
      <trkpt lat="43.3701400" lon="-4.4812300">
        <ele>-20.4</ele>
        <time>2021-07-18T08:03:50Z</time>
      </trkpt>
      <trkpt lat="43.3702390" lon="-4.4808100">
        <ele>-20.4</ele>
        <time>2021-07-18T08:03:57Z</time>
      </trkpt>
      <trkpt lat="43.3703300" lon="-4.4804040">
        <ele>-20.4</ele>
        <time>2021-07-18T08:04:04Z</time>
      </trkpt>
      <trkpt lat="43.3703560" lon="-4.4802890">
        <ele>-20.4</ele>
        <time>2021-07-18T08:04:06Z</time>
      </trkpt>
      <trkpt lat="43.3704080" lon="-4.4800110">
        <ele>-20.4</ele>
        <time>2021-07-18T08:04:11Z</time>
      </trkpt>
      <trkpt lat="43.3705050" lon="-4.4796490">
        <ele>-20.4</ele>
        <time>2021-07-18T08:04:19Z</time>
      </trkpt>
      <trkpt lat="43.3705780" lon="-4.4794080">
        <ele>-20.4</ele>
        <time>2021-07-18T08:04:26Z</time>
      </trkpt>
      <trkpt lat="43.3707070" lon="-4.4793050">
        <ele>-20.4</ele>
        <time>2021-07-18T08:04:32Z</time>
      </trkpt>
      <trkpt lat="43.3709060" lon="-4.4793440">
        <ele>-20.4</ele>
        <time>2021-07-18T08:04:38Z</time>
      </trkpt>
      <trkpt lat="43.3711570" lon="-4.4794000">
        <ele>-20.4</ele>
        <time>2021-07-18T08:04:45Z</time>
      </trkpt>
      <trkpt lat="43.3713960" lon="-4.4794370">
        <ele>-20.0</ele>
        <time>2021-07-18T08:04:51Z</time>
      </trkpt>
      <trkpt lat="43.3714360" lon="-4.4794460">
        <ele>-19.6</ele>
        <time>2021-07-18T08:04:52Z</time>
      </trkpt>
      <trkpt lat="43.3714810" lon="-4.4794530">
        <ele>-19.2</ele>
        <time>2021-07-18T08:04:53Z</time>
      </trkpt>
      <trkpt lat="43.3715240" lon="-4.4794590">
        <ele>-18.8</ele>
        <time>2021-07-18T08:04:54Z</time>
      </trkpt>
      <trkpt lat="43.3715640" lon="-4.4794650">
        <ele>-18.4</ele>
        <time>2021-07-18T08:04:55Z</time>
      </trkpt>
      <trkpt lat="43.3718890" lon="-4.4795180">
        <ele>-18.4</ele>
        <time>2021-07-18T08:05:03Z</time>
      </trkpt>
      <trkpt lat="43.3721190" lon="-4.4795740">
        <ele>-18.4</ele>
        <time>2021-07-18T08:05:09Z</time>
      </trkpt>
      <trkpt lat="43.3722000" lon="-4.4795760">
        <ele>-18.4</ele>
        <time>2021-07-18T08:05:11Z</time>
      </trkpt>
      <trkpt lat="43.3722970" lon="-4.4795770">
        <ele>-18.4</ele>
        <time>2021-07-18T08:05:15Z</time>
      </trkpt>
      <trkpt lat="43.3723140" lon="-4.4795930">
        <ele>-18.4</ele>
        <time>2021-07-18T08:05:16Z</time>
      </trkpt>
      <trkpt lat="43.3723220" lon="-4.4796650">
        <ele>-18.4</ele>
        <time>2021-07-18T08:05:19Z</time>
      </trkpt>
      <trkpt lat="43.3722790" lon="-4.4798300">
        <ele>-18.4</ele>
        <time>2021-07-18T08:05:23Z</time>
      </trkpt>
      <trkpt lat="43.3722170" lon="-4.4800660">
        <ele>-18.4</ele>
        <time>2021-07-18T08:05:27Z</time>
      </trkpt>
      <trkpt lat="43.3721730" lon="-4.4802730">
        <ele>-18.8</ele>
        <time>2021-07-18T08:05:30Z</time>
      </trkpt>
      <trkpt lat="43.3721500" lon="-4.4803360">
        <ele>-19.2</ele>
        <time>2021-07-18T08:05:31Z</time>
      </trkpt>
      <trkpt lat="43.3721340" lon="-4.4803980">
        <ele>-19.6</ele>
        <time>2021-07-18T08:05:32Z</time>
      </trkpt>
      <trkpt lat="43.3721260" lon="-4.4804490">
        <ele>-20.0</ele>
        <time>2021-07-18T08:05:33Z</time>
      </trkpt>
      <trkpt lat="43.3721230" lon="-4.4804920">
        <ele>-20.4</ele>
        <time>2021-07-18T08:05:34Z</time>
      </trkpt>
      <trkpt lat="43.3721190" lon="-4.4805490">
        <ele>-20.4</ele>
        <time>2021-07-18T08:05:36Z</time>
      </trkpt>
      <trkpt lat="43.3721120" lon="-4.4806010">
        <ele>-20.4</ele>
        <time>2021-07-18T08:05:38Z</time>
      </trkpt>
      <trkpt lat="43.3721130" lon="-4.4806210">
        <ele>-20.4</ele>
        <time>2021-07-18T08:05:39Z</time>
      </trkpt>
      <trkpt lat="43.3721020" lon="-4.4806830">
        <ele>-20.4</ele>
        <time>2021-07-18T08:05:42Z</time>
      </trkpt>
      <trkpt lat="43.3720890" lon="-4.4807260">
        <ele>-20.4</ele>
        <time>2021-07-18T08:05:44Z</time>
      </trkpt>
      <trkpt lat="43.3720890" lon="-4.4807510">
        <ele>-20.0</ele>
        <time>2021-07-18T08:05:45Z</time>
      </trkpt>
      <trkpt lat="43.3720890" lon="-4.4807700">
        <ele>-19.6</ele>
        <time>2021-07-18T08:05:46Z</time>
      </trkpt>
      <trkpt lat="43.3720890" lon="-4.4807910">
        <ele>-18.6</ele>
        <time>2021-07-18T08:05:47Z</time>
      </trkpt>
      <trkpt lat="43.3720900" lon="-4.4808140">
        <ele>-18.2</ele>
        <time>2021-07-18T08:05:48Z</time>
      </trkpt>
      <trkpt lat="43.3720890" lon="-4.4808530">
        <ele>-18.2</ele>
        <time>2021-07-18T08:05:50Z</time>
      </trkpt>
      <trkpt lat="43.3720890" lon="-4.4809440">
        <ele>-17.8</ele>
        <time>2021-07-18T08:05:54Z</time>
      </trkpt>
      <trkpt lat="43.3720920" lon="-4.4809610">
        <ele>-17.4</ele>
        <time>2021-07-18T08:05:55Z</time>
      </trkpt>
      <trkpt lat="43.3720930" lon="-4.4809790">
        <ele>-17.0</ele>
        <time>2021-07-18T08:05:56Z</time>
      </trkpt>
      <trkpt lat="43.3720910" lon="-4.4810010">
        <ele>-16.6</ele>
        <time>2021-07-18T08:05:57Z</time>
      </trkpt>
      <trkpt lat="43.3720900" lon="-4.4810230">
        <ele>-16.2</ele>
        <time>2021-07-18T08:05:58Z</time>
      </trkpt>
      <trkpt lat="43.3720920" lon="-4.4811220">
        <ele>-16.2</ele>
        <time>2021-07-18T08:06:02Z</time>
      </trkpt>
      <trkpt lat="43.3720900" lon="-4.4811710">
        <ele>-15.8</ele>
        <time>2021-07-18T08:06:04Z</time>
      </trkpt>
      <trkpt lat="43.3720930" lon="-4.4811950">
        <ele>-15.4</ele>
        <time>2021-07-18T08:06:05Z</time>
      </trkpt>
      <trkpt lat="43.3720950" lon="-4.4812190">
        <ele>-15.0</ele>
        <time>2021-07-18T08:06:06Z</time>
      </trkpt>
      <trkpt lat="43.3720950" lon="-4.4812410">
        <ele>-14.6</ele>
        <time>2021-07-18T08:06:07Z</time>
      </trkpt>
      <trkpt lat="43.3720960" lon="-4.4812660">
        <ele>-14.0</ele>
        <time>2021-07-18T08:06:08Z</time>
      </trkpt>
      <trkpt lat="43.3720960" lon="-4.4812880">
        <ele>-14.0</ele>
        <time>2021-07-18T08:06:09Z</time>
      </trkpt>
      <trkpt lat="43.3720920" lon="-4.4814160">
        <ele>-13.6</ele>
        <time>2021-07-18T08:06:15Z</time>
      </trkpt>
      <trkpt lat="43.3720900" lon="-4.4814360">
        <ele>-13.2</ele>
        <time>2021-07-18T08:06:16Z</time>
      </trkpt>
      <trkpt lat="43.3720910" lon="-4.4814530">
        <ele>-12.8</ele>
        <time>2021-07-18T08:06:17Z</time>
      </trkpt>
      <trkpt lat="43.3720900" lon="-4.4814700">
        <ele>-12.4</ele>
        <time>2021-07-18T08:06:18Z</time>
      </trkpt>
      <trkpt lat="43.3720860" lon="-4.4814860">
        <ele>-12.0</ele>
        <time>2021-07-18T08:06:19Z</time>
      </trkpt>
      <trkpt lat="43.3720860" lon="-4.4816030">
        <ele>-11.4</ele>
        <time>2021-07-18T08:06:25Z</time>
      </trkpt>
      <trkpt lat="43.3720870" lon="-4.4816200">
        <ele>-11.0</ele>
        <time>2021-07-18T08:06:26Z</time>
      </trkpt>
      <trkpt lat="43.3720870" lon="-4.4816360">
        <ele>-10.6</ele>
        <time>2021-07-18T08:06:27Z</time>
      </trkpt>
      <trkpt lat="43.3720860" lon="-4.4816560">
        <ele>-10.2</ele>
        <time>2021-07-18T08:06:28Z</time>
      </trkpt>
      <trkpt lat="43.3720850" lon="-4.4816760">
        <ele>-9.6</ele>
        <time>2021-07-18T08:06:29Z</time>
      </trkpt>
      <trkpt lat="43.3720800" lon="-4.4817560">
        <ele>-9.6</ele>
        <time>2021-07-18T08:06:33Z</time>
      </trkpt>
      <trkpt lat="43.3720660" lon="-4.4818130">
        <ele>-8.8</ele>
        <time>2021-07-18T08:06:36Z</time>
      </trkpt>
      <trkpt lat="43.3720630" lon="-4.4818330">
        <ele>-8.4</ele>
        <time>2021-07-18T08:06:37Z</time>
      </trkpt>
      <trkpt lat="43.3720630" lon="-4.4818500">
        <ele>-8.0</ele>
        <time>2021-07-18T08:06:38Z</time>
      </trkpt>
      <trkpt lat="43.3720610" lon="-4.4818650">
        <ele>-7.6</ele>
        <time>2021-07-18T08:06:39Z</time>
      </trkpt>
      <trkpt lat="43.3720630" lon="-4.4818950">
        <ele>-7.6</ele>
        <time>2021-07-18T08:06:41Z</time>
      </trkpt>
      <trkpt lat="43.3720620" lon="-4.4819350">
        <ele>-7.6</ele>
        <time>2021-07-18T08:06:45Z</time>
      </trkpt>
      <trkpt lat="43.3720290" lon="-4.4825120">
        <ele>-1.6</ele>
        <time>2021-07-18T08:07:15Z</time>
      </trkpt>
      <trkpt lat="43.3720270" lon="-4.4825320">
        <ele>-1.6</ele>
        <time>2021-07-18T08:07:16Z</time>
      </trkpt>
      <trkpt lat="43.3720250" lon="-4.4825900">
        <ele>-1.0</ele>
        <time>2021-07-18T08:07:19Z</time>
      </trkpt>
      <trkpt lat="43.3720240" lon="-4.4826090">
        <ele>-0.6</ele>
        <time>2021-07-18T08:07:20Z</time>
      </trkpt>
      <trkpt lat="43.3720280" lon="-4.4826280">
        <ele>-0.2</ele>
        <time>2021-07-18T08:07:21Z</time>
      </trkpt>
      <trkpt lat="43.3720310" lon="-4.4826420">
        <ele>0.2</ele>
        <time>2021-07-18T08:07:22Z</time>
      </trkpt>
      <trkpt lat="43.3720340" lon="-4.4826600">
        <ele>0.6</ele>
        <time>2021-07-18T08:07:23Z</time>
      </trkpt>
      <trkpt lat="43.3720370" lon="-4.4826790">
        <ele>0.6</ele>
        <time>2021-07-18T08:07:24Z</time>
      </trkpt>
      <trkpt lat="43.3720320" lon="-4.4827360">
        <ele>1.2</ele>
        <time>2021-07-18T08:07:27Z</time>
      </trkpt>
      <trkpt lat="43.3720340" lon="-4.4827570">
        <ele>1.6</ele>
        <time>2021-07-18T08:07:28Z</time>
      </trkpt>
      <trkpt lat="43.3720340" lon="-4.4827770">
        <ele>2.0</ele>
        <time>2021-07-18T08:07:29Z</time>
      </trkpt>
      <trkpt lat="43.3720360" lon="-4.4827940">
        <ele>2.4</ele>
        <time>2021-07-18T08:07:30Z</time>
      </trkpt>
      <trkpt lat="43.3720360" lon="-4.4828150">
        <ele>3.0</ele>
        <time>2021-07-18T08:07:31Z</time>
      </trkpt>
      <trkpt lat="43.3720520" lon="-4.4828990">
        <ele>3.4</ele>
        <time>2021-07-18T08:07:35Z</time>
      </trkpt>
      <trkpt lat="43.3720530" lon="-4.4829240">
        <ele>3.8</ele>
        <time>2021-07-18T08:07:36Z</time>
      </trkpt>
      <trkpt lat="43.3720520" lon="-4.4829450">
        <ele>4.2</ele>
        <time>2021-07-18T08:07:37Z</time>
      </trkpt>
      <trkpt lat="43.3720540" lon="-4.4829650">
        <ele>4.6</ele>
        <time>2021-07-18T08:07:38Z</time>
      </trkpt>
      <trkpt lat="43.3720590" lon="-4.4829870">
        <ele>5.0</ele>
        <time>2021-07-18T08:07:39Z</time>
      </trkpt>
      <trkpt lat="43.3720890" lon="-4.4830860">
        <ele>5.6</ele>
        <time>2021-07-18T08:07:44Z</time>
      </trkpt>
      <trkpt lat="43.3720950" lon="-4.4831060">
        <ele>6.0</ele>
        <time>2021-07-18T08:07:45Z</time>
      </trkpt>
      <trkpt lat="43.3721010" lon="-4.4831270">
        <ele>6.4</ele>
        <time>2021-07-18T08:07:46Z</time>
      </trkpt>
      <trkpt lat="43.3721070" lon="-4.4831460">
        <ele>6.8</ele>
        <time>2021-07-18T08:07:47Z</time>
      </trkpt>
      <trkpt lat="43.3721150" lon="-4.4831630">
        <ele>7.2</ele>
        <time>2021-07-18T08:07:48Z</time>
      </trkpt>
      <trkpt lat="43.3721310" lon="-4.4832290">
        <ele>7.2</ele>
        <time>2021-07-18T08:07:51Z</time>
      </trkpt>
      <trkpt lat="43.3721950" lon="-4.4834040">
        <ele>7.2</ele>
        <time>2021-07-18T08:07:58Z</time>
      </trkpt>
      <trkpt lat="43.3722660" lon="-4.4835860">
        <ele>7.2</ele>
        <time>2021-07-18T08:08:04Z</time>
      </trkpt>
      <trkpt lat="43.3722730" lon="-4.4836180">
        <ele>7.2</ele>
        <time>2021-07-18T08:08:05Z</time>
      </trkpt>
      <trkpt lat="43.3723200" lon="-4.4837860">
        <ele>7.6</ele>
        <time>2021-07-18T08:08:10Z</time>
      </trkpt>
      <trkpt lat="43.3723290" lon="-4.4838180">
        <ele>8.2</ele>
        <time>2021-07-18T08:08:11Z</time>
      </trkpt>
      <trkpt lat="43.3723370" lon="-4.4838480">
        <ele>8.6</ele>
        <time>2021-07-18T08:08:12Z</time>
      </trkpt>
      <trkpt lat="43.3723470" lon="-4.4838790">
        <ele>9.0</ele>
        <time>2021-07-18T08:08:13Z</time>
      </trkpt>
      <trkpt lat="43.3723570" lon="-4.4839110">
        <ele>9.4</ele>
        <time>2021-07-18T08:08:14Z</time>
      </trkpt>
      <trkpt lat="43.3723900" lon="-4.4840630">
        <ele>9.4</ele>
        <time>2021-07-18T08:08:19Z</time>
      </trkpt>
      <trkpt lat="43.3724210" lon="-4.4841390">
        <ele>9.4</ele>
        <time>2021-07-18T08:08:22Z</time>
      </trkpt>
      <trkpt lat="43.3724230" lon="-4.4841670">
        <ele>9.4</ele>
        <time>2021-07-18T08:08:23Z</time>
      </trkpt>
      <trkpt lat="43.3724500" lon="-4.4842700">
        <ele>9.8</ele>
        <time>2021-07-18T08:08:27Z</time>
      </trkpt>
      <trkpt lat="43.3724580" lon="-4.4842930">
        <ele>10.2</ele>
        <time>2021-07-18T08:08:28Z</time>
      </trkpt>
      <trkpt lat="43.3724630" lon="-4.4843170">
        <ele>10.6</ele>
        <time>2021-07-18T08:08:29Z</time>
      </trkpt>
      <trkpt lat="43.3724670" lon="-4.4843400">
        <ele>11.0</ele>
        <time>2021-07-18T08:08:30Z</time>
      </trkpt>
      <trkpt lat="43.3724720" lon="-4.4843630">
        <ele>11.4</ele>
        <time>2021-07-18T08:08:31Z</time>
      </trkpt>
      <trkpt lat="43.3725040" lon="-4.4844340">
        <ele>11.4</ele>
        <time>2021-07-18T08:08:35Z</time>
      </trkpt>
      <trkpt lat="43.3725320" lon="-4.4845470">
        <ele>11.8</ele>
        <time>2021-07-18T08:08:41Z</time>
      </trkpt>
      <trkpt lat="43.3725350" lon="-4.4845710">
        <ele>12.2</ele>
        <time>2021-07-18T08:08:42Z</time>
      </trkpt>
      <trkpt lat="43.3725390" lon="-4.4845900">
        <ele>12.6</ele>
        <time>2021-07-18T08:08:43Z</time>
      </trkpt>
      <trkpt lat="43.3725440" lon="-4.4846060">
        <ele>13.0</ele>
        <time>2021-07-18T08:08:44Z</time>
      </trkpt>
      <trkpt lat="43.3725500" lon="-4.4846280">
        <ele>13.4</ele>
        <time>2021-07-18T08:08:45Z</time>
      </trkpt>
      <trkpt lat="43.3725870" lon="-4.4847870">
        <ele>13.4</ele>
        <time>2021-07-18T08:08:52Z</time>
      </trkpt>
      <trkpt lat="43.3726030" lon="-4.4848320">
        <ele>13.8</ele>
        <time>2021-07-18T08:08:54Z</time>
      </trkpt>
      <trkpt lat="43.3726110" lon="-4.4848520">
        <ele>14.4</ele>
        <time>2021-07-18T08:08:55Z</time>
      </trkpt>
      <trkpt lat="43.3726150" lon="-4.4848750">
        <ele>14.8</ele>
        <time>2021-07-18T08:08:56Z</time>
      </trkpt>
      <trkpt lat="43.3726170" lon="-4.4848950">
        <ele>15.2</ele>
        <time>2021-07-18T08:08:57Z</time>
      </trkpt>
      <trkpt lat="43.3726210" lon="-4.4849140">
        <ele>15.6</ele>
        <time>2021-07-18T08:08:58Z</time>
      </trkpt>
      <trkpt lat="43.3726310" lon="-4.4849580">
        <ele>15.6</ele>
        <time>2021-07-18T08:09:00Z</time>
      </trkpt>
      <trkpt lat="43.3726570" lon="-4.4850510">
        <ele>16.0</ele>
        <time>2021-07-18T08:09:05Z</time>
      </trkpt>
      <trkpt lat="43.3726630" lon="-4.4850700">
        <ele>16.4</ele>
        <time>2021-07-18T08:09:06Z</time>
      </trkpt>
      <trkpt lat="43.3726650" lon="-4.4850920">
        <ele>16.8</ele>
        <time>2021-07-18T08:09:07Z</time>
      </trkpt>
      <trkpt lat="43.3726670" lon="-4.4851100">
        <ele>17.2</ele>
        <time>2021-07-18T08:09:08Z</time>
      </trkpt>
      <trkpt lat="43.3726750" lon="-4.4851280">
        <ele>17.6</ele>
        <time>2021-07-18T08:09:09Z</time>
      </trkpt>
      <trkpt lat="43.3727010" lon="-4.4852390">
        <ele>17.6</ele>
        <time>2021-07-18T08:09:15Z</time>
      </trkpt>
      <trkpt lat="43.3727030" lon="-4.4852580">
        <ele>18.0</ele>
        <time>2021-07-18T08:09:16Z</time>
      </trkpt>
      <trkpt lat="43.3727090" lon="-4.4852810">
        <ele>18.4</ele>
        <time>2021-07-18T08:09:17Z</time>
      </trkpt>
      <trkpt lat="43.3727140" lon="-4.4853040">
        <ele>18.8</ele>
        <time>2021-07-18T08:09:18Z</time>
      </trkpt>
      <trkpt lat="43.3727170" lon="-4.4853260">
        <ele>19.2</ele>
        <time>2021-07-18T08:09:19Z</time>
      </trkpt>
      <trkpt lat="43.3727210" lon="-4.4853430">
        <ele>19.6</ele>
        <time>2021-07-18T08:09:20Z</time>
      </trkpt>
      <trkpt lat="43.3727230" lon="-4.4854040">
        <ele>19.6</ele>
        <time>2021-07-18T08:09:23Z</time>
      </trkpt>
      <trkpt lat="43.3727420" lon="-4.4854900">
        <ele>20.4</ele>
        <time>2021-07-18T08:09:28Z</time>
      </trkpt>
      <trkpt lat="43.3727440" lon="-4.4855090">
        <ele>20.8</ele>
        <time>2021-07-18T08:09:29Z</time>
      </trkpt>
      <trkpt lat="43.3727420" lon="-4.4855290">
        <ele>21.2</ele>
        <time>2021-07-18T08:09:30Z</time>
      </trkpt>
      <trkpt lat="43.3727440" lon="-4.4855510">
        <ele>21.6</ele>
        <time>2021-07-18T08:09:31Z</time>
      </trkpt>
      <trkpt lat="43.3727550" lon="-4.4856860">
        <ele>21.6</ele>
        <time>2021-07-18T08:09:38Z</time>
      </trkpt>
      <trkpt lat="43.3727380" lon="-4.4858140">
        <ele>22.0</ele>
        <time>2021-07-18T08:09:43Z</time>
      </trkpt>
      <trkpt lat="43.3727360" lon="-4.4858380">
        <ele>22.4</ele>
        <time>2021-07-18T08:09:44Z</time>
      </trkpt>
      <trkpt lat="43.3727380" lon="-4.4858620">
        <ele>22.8</ele>
        <time>2021-07-18T08:09:45Z</time>
      </trkpt>
      <trkpt lat="43.3727400" lon="-4.4858860">
        <ele>23.2</ele>
        <time>2021-07-18T08:09:46Z</time>
      </trkpt>
      <trkpt lat="43.3727400" lon="-4.4859090">
        <ele>23.8</ele>
        <time>2021-07-18T08:09:47Z</time>
      </trkpt>
      <trkpt lat="43.3727410" lon="-4.4860440">
        <ele>23.8</ele>
        <time>2021-07-18T08:09:54Z</time>
      </trkpt>
      <trkpt lat="43.3727510" lon="-4.4860800">
        <ele>24.2</ele>
        <time>2021-07-18T08:09:56Z</time>
      </trkpt>
      <trkpt lat="43.3727560" lon="-4.4861010">
        <ele>24.6</ele>
        <time>2021-07-18T08:09:57Z</time>
      </trkpt>
      <trkpt lat="43.3727640" lon="-4.4861180">
        <ele>25.0</ele>
        <time>2021-07-18T08:09:58Z</time>
      </trkpt>
      <trkpt lat="43.3727710" lon="-4.4861350">
        <ele>25.4</ele>
        <time>2021-07-18T08:09:59Z</time>
      </trkpt>
      <trkpt lat="43.3727830" lon="-4.4861480">
        <ele>25.8</ele>
        <time>2021-07-18T08:10:00Z</time>
      </trkpt>
      <trkpt lat="43.3728850" lon="-4.4862090">
        <ele>25.8</ele>
        <time>2021-07-18T08:10:07Z</time>
      </trkpt>
      <trkpt lat="43.3729040" lon="-4.4862210">
        <ele>26.2</ele>
        <time>2021-07-18T08:10:08Z</time>
      </trkpt>
      <trkpt lat="43.3729150" lon="-4.4862420">
        <ele>26.6</ele>
        <time>2021-07-18T08:10:09Z</time>
      </trkpt>
      <trkpt lat="43.3729310" lon="-4.4862560">
        <ele>27.0</ele>
        <time>2021-07-18T08:10:10Z</time>
      </trkpt>
      <trkpt lat="43.3729470" lon="-4.4862620">
        <ele>27.4</ele>
        <time>2021-07-18T08:10:11Z</time>
      </trkpt>
      <trkpt lat="43.3729600" lon="-4.4862670">
        <ele>27.8</ele>
        <time>2021-07-18T08:10:12Z</time>
      </trkpt>
      <trkpt lat="43.3729920" lon="-4.4863030">
        <ele>27.8</ele>
        <time>2021-07-18T08:10:14Z</time>
      </trkpt>
      <trkpt lat="43.3730410" lon="-4.4863780">
        <ele>27.8</ele>
        <time>2021-07-18T08:10:17Z</time>
      </trkpt>
      <trkpt lat="43.3731820" lon="-4.4865350">
        <ele>27.8</ele>
        <time>2021-07-18T08:10:23Z</time>
      </trkpt>
      <trkpt lat="43.3732090" lon="-4.4865720">
        <ele>27.8</ele>
        <time>2021-07-18T08:10:24Z</time>
      </trkpt>
      <trkpt lat="43.3733260" lon="-4.4867380">
        <ele>27.8</ele>
        <time>2021-07-18T08:10:28Z</time>
      </trkpt>
      <trkpt lat="43.3733590" lon="-4.4867820">
        <ele>27.8</ele>
        <time>2021-07-18T08:10:29Z</time>
      </trkpt>
      <trkpt lat="43.3734510" lon="-4.4869040">
        <ele>27.8</ele>
        <time>2021-07-18T08:10:32Z</time>
      </trkpt>
      <trkpt lat="43.3735070" lon="-4.4869880">
        <ele>27.8</ele>
        <time>2021-07-18T08:10:34Z</time>
      </trkpt>
      <trkpt lat="43.3735350" lon="-4.4870350">
        <ele>27.8</ele>
        <time>2021-07-18T08:10:35Z</time>
      </trkpt>
      <trkpt lat="43.3735610" lon="-4.4870800">
        <ele>27.8</ele>
        <time>2021-07-18T08:10:36Z</time>
      </trkpt>
      <trkpt lat="43.3735840" lon="-4.4871250">
        <ele>27.8</ele>
        <time>2021-07-18T08:10:37Z</time>
      </trkpt>
      <trkpt lat="43.3736050" lon="-4.4871660">
        <ele>27.4</ele>
        <time>2021-07-18T08:10:38Z</time>
      </trkpt>
      <trkpt lat="43.3736270" lon="-4.4872130">
        <ele>27.0</ele>
        <time>2021-07-18T08:10:39Z</time>
      </trkpt>
      <trkpt lat="43.3736450" lon="-4.4872510">
        <ele>26.6</ele>
        <time>2021-07-18T08:10:40Z</time>
      </trkpt>
      <trkpt lat="43.3736640" lon="-4.4872880">
        <ele>26.0</ele>
        <time>2021-07-18T08:10:41Z</time>
      </trkpt>
      <trkpt lat="43.3736800" lon="-4.4873270">
        <ele>25.2</ele>
        <time>2021-07-18T08:10:42Z</time>
      </trkpt>
      <trkpt lat="43.3736990" lon="-4.4873560">
        <ele>24.8</ele>
        <time>2021-07-18T08:10:43Z</time>
      </trkpt>
      <trkpt lat="43.3737150" lon="-4.4873870">
        <ele>24.4</ele>
        <time>2021-07-18T08:10:44Z</time>
      </trkpt>
      <trkpt lat="43.3737330" lon="-4.4874090">
        <ele>24.0</ele>
        <time>2021-07-18T08:10:45Z</time>
      </trkpt>
      <trkpt lat="43.3737590" lon="-4.4874350">
        <ele>23.6</ele>
        <time>2021-07-18T08:10:46Z</time>
      </trkpt>
      <trkpt lat="43.3738060" lon="-4.4875060">
        <ele>23.6</ele>
        <time>2021-07-18T08:10:48Z</time>
      </trkpt>
      <trkpt lat="43.3738250" lon="-4.4875610">
        <ele>23.6</ele>
        <time>2021-07-18T08:10:49Z</time>
      </trkpt>
      <trkpt lat="43.3738590" lon="-4.4877080">
        <ele>23.0</ele>
        <time>2021-07-18T08:10:52Z</time>
      </trkpt>
      <trkpt lat="43.3738740" lon="-4.4877560">
        <ele>22.6</ele>
        <time>2021-07-18T08:10:53Z</time>
      </trkpt>
      <trkpt lat="43.3738990" lon="-4.4878110">
        <ele>22.2</ele>
        <time>2021-07-18T08:10:54Z</time>
      </trkpt>
      <trkpt lat="43.3739220" lon="-4.4878700">
        <ele>21.8</ele>
        <time>2021-07-18T08:10:55Z</time>
      </trkpt>
      <trkpt lat="43.3739410" lon="-4.4879310">
        <ele>21.4</ele>
        <time>2021-07-18T08:10:56Z</time>
      </trkpt>
      <trkpt lat="43.3740780" lon="-4.4884210">
        <ele>21.4</ele>
        <time>2021-07-18T08:11:03Z</time>
      </trkpt>
      <trkpt lat="43.3741410" lon="-4.4886080">
        <ele>21.4</ele>
        <time>2021-07-18T08:11:07Z</time>
      </trkpt>
      <trkpt lat="43.3741580" lon="-4.4886350">
        <ele>21.4</ele>
        <time>2021-07-18T08:11:08Z</time>
      </trkpt>
      <trkpt lat="43.3741720" lon="-4.4886680">
        <ele>21.0</ele>
        <time>2021-07-18T08:11:09Z</time>
      </trkpt>
      <trkpt lat="43.3741850" lon="-4.4887030">
        <ele>20.4</ele>
        <time>2021-07-18T08:11:10Z</time>
      </trkpt>
      <trkpt lat="43.3742020" lon="-4.4887390">
        <ele>20.0</ele>
        <time>2021-07-18T08:11:11Z</time>
      </trkpt>
      <trkpt lat="43.3742190" lon="-4.4887780">
        <ele>19.6</ele>
        <time>2021-07-18T08:11:12Z</time>
      </trkpt>
      <trkpt lat="43.3742370" lon="-4.4888180">
        <ele>19.2</ele>
        <time>2021-07-18T08:11:13Z</time>
      </trkpt>
      <trkpt lat="43.3742560" lon="-4.4888550">
        <ele>18.8</ele>
        <time>2021-07-18T08:11:14Z</time>
      </trkpt>
      <trkpt lat="43.3742770" lon="-4.4888950">
        <ele>18.2</ele>
        <time>2021-07-18T08:11:15Z</time>
      </trkpt>
      <trkpt lat="43.3743010" lon="-4.4889410">
        <ele>17.8</ele>
        <time>2021-07-18T08:11:16Z</time>
      </trkpt>
      <trkpt lat="43.3743240" lon="-4.4889970">
        <ele>17.4</ele>
        <time>2021-07-18T08:11:17Z</time>
      </trkpt>
      <trkpt lat="43.3743400" lon="-4.4890470">
        <ele>16.8</ele>
        <time>2021-07-18T08:11:18Z</time>
      </trkpt>
      <trkpt lat="43.3743610" lon="-4.4891440">
        <ele>16.8</ele>
        <time>2021-07-18T08:11:20Z</time>
      </trkpt>
      <trkpt lat="43.3743710" lon="-4.4891910">
        <ele>16.4</ele>
        <time>2021-07-18T08:11:21Z</time>
      </trkpt>
      <trkpt lat="43.3743790" lon="-4.4892420">
        <ele>16.0</ele>
        <time>2021-07-18T08:11:22Z</time>
      </trkpt>
      <trkpt lat="43.3743900" lon="-4.4892960">
        <ele>15.6</ele>
        <time>2021-07-18T08:11:23Z</time>
      </trkpt>
      <trkpt lat="43.3744020" lon="-4.4893590">
        <ele>15.2</ele>
        <time>2021-07-18T08:11:24Z</time>
      </trkpt>
      <trkpt lat="43.3744120" lon="-4.4894260">
        <ele>14.8</ele>
        <time>2021-07-18T08:11:25Z</time>
      </trkpt>
      <trkpt lat="43.3744160" lon="-4.4894880">
        <ele>14.8</ele>
        <time>2021-07-18T08:11:26Z</time>
      </trkpt>
      <trkpt lat="43.3744410" lon="-4.4896010">
        <ele>14.2</ele>
        <time>2021-07-18T08:11:28Z</time>
      </trkpt>
      <trkpt lat="43.3744490" lon="-4.4896510">
        <ele>13.8</ele>
        <time>2021-07-18T08:11:29Z</time>
      </trkpt>
      <trkpt lat="43.3744550" lon="-4.4896920">
        <ele>13.4</ele>
        <time>2021-07-18T08:11:30Z</time>
      </trkpt>
      <trkpt lat="43.3744600" lon="-4.4897380">
        <ele>12.8</ele>
        <time>2021-07-18T08:11:31Z</time>
      </trkpt>
      <trkpt lat="43.3744680" lon="-4.4897750">
        <ele>12.4</ele>
        <time>2021-07-18T08:11:32Z</time>
      </trkpt>
      <trkpt lat="43.3744910" lon="-4.4898620">
        <ele>12.0</ele>
        <time>2021-07-18T08:11:34Z</time>
      </trkpt>
      <trkpt lat="43.3745000" lon="-4.4899030">
        <ele>11.6</ele>
        <time>2021-07-18T08:11:35Z</time>
      </trkpt>
      <trkpt lat="43.3745050" lon="-4.4899440">
        <ele>11.2</ele>
        <time>2021-07-18T08:11:36Z</time>
      </trkpt>
      <trkpt lat="43.3745090" lon="-4.4899880">
        <ele>10.6</ele>
        <time>2021-07-18T08:11:37Z</time>
      </trkpt>
      <trkpt lat="43.3745100" lon="-4.4900290">
        <ele>10.2</ele>
        <time>2021-07-18T08:11:38Z</time>
      </trkpt>
      <trkpt lat="43.3745350" lon="-4.4902610">
        <ele>10.2</ele>
        <time>2021-07-18T08:11:43Z</time>
      </trkpt>
      <trkpt lat="43.3745430" lon="-4.4903030">
        <ele>9.8</ele>
        <time>2021-07-18T08:11:44Z</time>
      </trkpt>
      <trkpt lat="43.3745480" lon="-4.4903440">
        <ele>9.4</ele>
        <time>2021-07-18T08:11:45Z</time>
      </trkpt>
      <trkpt lat="43.3745540" lon="-4.4903820">
        <ele>8.8</ele>
        <time>2021-07-18T08:11:46Z</time>
      </trkpt>
      <trkpt lat="43.3745580" lon="-4.4904290">
        <ele>8.4</ele>
        <time>2021-07-18T08:11:47Z</time>
      </trkpt>
      <trkpt lat="43.3745640" lon="-4.4904840">
        <ele>8.0</ele>
        <time>2021-07-18T08:11:48Z</time>
      </trkpt>
      <trkpt lat="43.3745710" lon="-4.4906060">
        <ele>8.0</ele>
        <time>2021-07-18T08:11:50Z</time>
      </trkpt>
      <trkpt lat="43.3745690" lon="-4.4906710">
        <ele>7.4</ele>
        <time>2021-07-18T08:11:51Z</time>
      </trkpt>
      <trkpt lat="43.3745680" lon="-4.4907290">
        <ele>7.0</ele>
        <time>2021-07-18T08:11:52Z</time>
      </trkpt>
      <trkpt lat="43.3745640" lon="-4.4907780">
        <ele>6.6</ele>
        <time>2021-07-18T08:11:53Z</time>
      </trkpt>
      <trkpt lat="43.3745610" lon="-4.4908290">
        <ele>6.2</ele>
        <time>2021-07-18T08:11:54Z</time>
      </trkpt>
      <trkpt lat="43.3745530" lon="-4.4908810">
        <ele>5.6</ele>
        <time>2021-07-18T08:11:55Z</time>
      </trkpt>
      <trkpt lat="43.3745440" lon="-4.4909330">
        <ele>5.2</ele>
        <time>2021-07-18T08:11:56Z</time>
      </trkpt>
      <trkpt lat="43.3745360" lon="-4.4909890">
        <ele>4.8</ele>
        <time>2021-07-18T08:11:57Z</time>
      </trkpt>
      <trkpt lat="43.3745320" lon="-4.4910290">
        <ele>4.4</ele>
        <time>2021-07-18T08:11:58Z</time>
      </trkpt>
      <trkpt lat="43.3745320" lon="-4.4910660">
        <ele>4.0</ele>
        <time>2021-07-18T08:11:59Z</time>
      </trkpt>
      <trkpt lat="43.3745380" lon="-4.4911020">
        <ele>3.6</ele>
        <time>2021-07-18T08:12:00Z</time>
      </trkpt>
      <trkpt lat="43.3745470" lon="-4.4911350">
        <ele>3.6</ele>
        <time>2021-07-18T08:12:01Z</time>
      </trkpt>
      <trkpt lat="43.3745560" lon="-4.4911780">
        <ele>3.2</ele>
        <time>2021-07-18T08:12:02Z</time>
      </trkpt>
      <trkpt lat="43.3745700" lon="-4.4912210">
        <ele>2.8</ele>
        <time>2021-07-18T08:12:03Z</time>
      </trkpt>
      <trkpt lat="43.3745730" lon="-4.4912660">
        <ele>2.4</ele>
        <time>2021-07-18T08:12:04Z</time>
      </trkpt>
      <trkpt lat="43.3745820" lon="-4.4912980">
        <ele>2.0</ele>
        <time>2021-07-18T08:12:05Z</time>
      </trkpt>
      <trkpt lat="43.3745970" lon="-4.4913390">
        <ele>1.4</ele>
        <time>2021-07-18T08:12:06Z</time>
      </trkpt>
      <trkpt lat="43.3746150" lon="-4.4913800">
        <ele>0.8</ele>
        <time>2021-07-18T08:12:07Z</time>
      </trkpt>
      <trkpt lat="43.3746290" lon="-4.4914240">
        <ele>0.2</ele>
        <time>2021-07-18T08:12:08Z</time>
      </trkpt>
      <trkpt lat="43.3746430" lon="-4.4914720">
        <ele>-0.4</ele>
        <time>2021-07-18T08:12:09Z</time>
      </trkpt>
      <trkpt lat="43.3746530" lon="-4.4915600">
        <ele>-0.8</ele>
        <time>2021-07-18T08:12:10Z</time>
      </trkpt>
      <trkpt lat="43.3746640" lon="-4.4916360">
        <ele>-0.8</ele>
        <time>2021-07-18T08:12:11Z</time>
      </trkpt>
      <trkpt lat="43.3746690" lon="-4.4917140">
        <ele>-0.8</ele>
        <time>2021-07-18T08:12:12Z</time>
      </trkpt>
      <trkpt lat="43.3746360" lon="-4.4919010">
        <ele>-0.8</ele>
        <time>2021-07-18T08:12:15Z</time>
      </trkpt>
      <trkpt lat="43.3746050" lon="-4.4920820">
        <ele>-1.4</ele>
        <time>2021-07-18T08:12:19Z</time>
      </trkpt>
      <trkpt lat="43.3746000" lon="-4.4921190">
        <ele>-1.8</ele>
        <time>2021-07-18T08:12:20Z</time>
      </trkpt>
      <trkpt lat="43.3745950" lon="-4.4921550">
        <ele>-2.6</ele>
        <time>2021-07-18T08:12:21Z</time>
      </trkpt>
      <trkpt lat="43.3746050" lon="-4.4922000">
        <ele>-3.0</ele>
        <time>2021-07-18T08:12:22Z</time>
      </trkpt>
      <trkpt lat="43.3746110" lon="-4.4923090">
        <ele>-3.0</ele>
        <time>2021-07-18T08:12:24Z</time>
      </trkpt>
      <trkpt lat="43.3746020" lon="-4.4924300">
        <ele>-3.0</ele>
        <time>2021-07-18T08:12:26Z</time>
      </trkpt>
      <trkpt lat="43.3745920" lon="-4.4925250">
        <ele>-3.0</ele>
        <time>2021-07-18T08:12:28Z</time>
      </trkpt>
      <trkpt lat="43.3745060" lon="-4.4927710">
        <ele>-3.0</ele>
        <time>2021-07-18T08:12:35Z</time>
      </trkpt>
      <trkpt lat="43.3744710" lon="-4.4929350">
        <ele>-3.4</ele>
        <time>2021-07-18T08:12:38Z</time>
      </trkpt>
      <trkpt lat="43.3744540" lon="-4.4929790">
        <ele>-4.0</ele>
        <time>2021-07-18T08:12:39Z</time>
      </trkpt>
      <trkpt lat="43.3744450" lon="-4.4930200">
        <ele>-4.4</ele>
        <time>2021-07-18T08:12:40Z</time>
      </trkpt>
      <trkpt lat="43.3744290" lon="-4.4930450">
        <ele>-5.0</ele>
        <time>2021-07-18T08:12:41Z</time>
      </trkpt>
      <trkpt lat="43.3744160" lon="-4.4930750">
        <ele>-5.6</ele>
        <time>2021-07-18T08:12:42Z</time>
      </trkpt>
      <trkpt lat="43.3743870" lon="-4.4931680">
        <ele>-5.6</ele>
        <time>2021-07-18T08:12:45Z</time>
      </trkpt>
      <trkpt lat="43.3743420" lon="-4.4932530">
        <ele>-6.0</ele>
        <time>2021-07-18T08:12:48Z</time>
      </trkpt>
      <trkpt lat="43.3743280" lon="-4.4932870">
        <ele>-6.4</ele>
        <time>2021-07-18T08:12:49Z</time>
      </trkpt>
      <trkpt lat="43.3743130" lon="-4.4933200">
        <ele>-6.8</ele>
        <time>2021-07-18T08:12:50Z</time>
      </trkpt>
      <trkpt lat="43.3742990" lon="-4.4933540">
        <ele>-7.2</ele>
        <time>2021-07-18T08:12:51Z</time>
      </trkpt>
      <trkpt lat="43.3742810" lon="-4.4933890">
        <ele>-7.6</ele>
        <time>2021-07-18T08:12:52Z</time>
      </trkpt>
      <trkpt lat="43.3742100" lon="-4.4935030">
        <ele>-7.6</ele>
        <time>2021-07-18T08:12:57Z</time>
      </trkpt>
      <trkpt lat="43.3741740" lon="-4.4935370">
        <ele>-8.0</ele>
        <time>2021-07-18T08:13:00Z</time>
      </trkpt>
      <trkpt lat="43.3741560" lon="-4.4935470">
        <ele>-8.4</ele>
        <time>2021-07-18T08:13:01Z</time>
      </trkpt>
      <trkpt lat="43.3741320" lon="-4.4935580">
        <ele>-8.8</ele>
        <time>2021-07-18T08:13:02Z</time>
      </trkpt>
      <trkpt lat="43.3740860" lon="-4.4935880">
        <ele>-9.2</ele>
        <time>2021-07-18T08:13:03Z</time>
      </trkpt>
      <trkpt lat="43.3740480" lon="-4.4936120">
        <ele>-9.6</ele>
        <time>2021-07-18T08:13:04Z</time>
      </trkpt>
      <trkpt lat="43.3739430" lon="-4.4937990">
        <ele>-9.6</ele>
        <time>2021-07-18T08:13:09Z</time>
      </trkpt>
      <trkpt lat="43.3739290" lon="-4.4940120">
        <ele>-9.6</ele>
        <time>2021-07-18T08:13:13Z</time>
      </trkpt>
      <trkpt lat="43.3739360" lon="-4.4941340">
        <ele>-9.6</ele>
        <time>2021-07-18T08:13:16Z</time>
      </trkpt>
      <trkpt lat="43.3739300" lon="-4.4942090">
        <ele>-9.6</ele>
        <time>2021-07-18T08:13:18Z</time>
      </trkpt>
      <trkpt lat="43.3739280" lon="-4.4942460">
        <ele>-9.6</ele>
        <time>2021-07-18T08:13:19Z</time>
      </trkpt>
      <trkpt lat="43.3739210" lon="-4.4943320">
        <ele>-9.6</ele>
        <time>2021-07-18T08:13:21Z</time>
      </trkpt>
      <trkpt lat="43.3739120" lon="-4.4944730">
        <ele>-9.6</ele>
        <time>2021-07-18T08:13:24Z</time>
      </trkpt>
      <trkpt lat="43.3739110" lon="-4.4945110">
        <ele>-9.6</ele>
        <time>2021-07-18T08:13:25Z</time>
      </trkpt>
      <trkpt lat="43.3739090" lon="-4.4946990">
        <ele>-9.6</ele>
        <time>2021-07-18T08:13:29Z</time>
      </trkpt>
      <trkpt lat="43.3739090" lon="-4.4948120">
        <ele>-9.6</ele>
        <time>2021-07-18T08:13:31Z</time>
      </trkpt>
      <trkpt lat="43.3739030" lon="-4.4950090">
        <ele>-9.6</ele>
        <time>2021-07-18T08:13:35Z</time>
      </trkpt>
      <trkpt lat="43.3739060" lon="-4.4950510">
        <ele>-10.0</ele>
        <time>2021-07-18T08:13:36Z</time>
      </trkpt>
      <trkpt lat="43.3739040" lon="-4.4951010">
        <ele>-10.4</ele>
        <time>2021-07-18T08:13:37Z</time>
      </trkpt>
      <trkpt lat="43.3738980" lon="-4.4951520">
        <ele>-11.0</ele>
        <time>2021-07-18T08:13:38Z</time>
      </trkpt>
      <trkpt lat="43.3738960" lon="-4.4952090">
        <ele>-11.4</ele>
        <time>2021-07-18T08:13:39Z</time>
      </trkpt>
      <trkpt lat="43.3738910" lon="-4.4952620">
        <ele>-11.8</ele>
        <time>2021-07-18T08:13:40Z</time>
      </trkpt>
      <trkpt lat="43.3738700" lon="-4.4955250">
        <ele>-11.8</ele>
        <time>2021-07-18T08:13:45Z</time>
      </trkpt>
      <trkpt lat="43.3738690" lon="-4.4955790">
        <ele>-11.8</ele>
        <time>2021-07-18T08:13:46Z</time>
      </trkpt>
      <trkpt lat="43.3738650" lon="-4.4957320">
        <ele>-11.8</ele>
        <time>2021-07-18T08:13:49Z</time>
      </trkpt>
      <trkpt lat="43.3738660" lon="-4.4957810">
        <ele>-11.8</ele>
        <time>2021-07-18T08:13:50Z</time>
      </trkpt>
      <trkpt lat="43.3738620" lon="-4.4960010">
        <ele>-12.2</ele>
        <time>2021-07-18T08:13:55Z</time>
      </trkpt>
      <trkpt lat="43.3738600" lon="-4.4960610">
        <ele>-12.6</ele>
        <time>2021-07-18T08:13:56Z</time>
      </trkpt>
      <trkpt lat="43.3738680" lon="-4.4961150">
        <ele>-13.0</ele>
        <time>2021-07-18T08:13:57Z</time>
      </trkpt>
      <trkpt lat="43.3738730" lon="-4.4961710">
        <ele>-13.4</ele>
        <time>2021-07-18T08:13:58Z</time>
      </trkpt>
      <trkpt lat="43.3738690" lon="-4.4962180">
        <ele>-14.0</ele>
        <time>2021-07-18T08:13:59Z</time>
      </trkpt>
      <trkpt lat="43.3738660" lon="-4.4962820">
        <ele>-14.0</ele>
        <time>2021-07-18T08:14:00Z</time>
      </trkpt>
      <trkpt lat="43.3738380" lon="-4.4964450">
        <ele>-14.0</ele>
        <time>2021-07-18T08:14:04Z</time>
      </trkpt>
      <trkpt lat="43.3738380" lon="-4.4964750">
        <ele>-14.4</ele>
        <time>2021-07-18T08:14:05Z</time>
      </trkpt>
      <trkpt lat="43.3738390" lon="-4.4965080">
        <ele>-14.8</ele>
        <time>2021-07-18T08:14:06Z</time>
      </trkpt>
      <trkpt lat="43.3738450" lon="-4.4965440">
        <ele>-15.2</ele>
        <time>2021-07-18T08:14:07Z</time>
      </trkpt>
      <trkpt lat="43.3738480" lon="-4.4965810">
        <ele>-15.6</ele>
        <time>2021-07-18T08:14:08Z</time>
      </trkpt>
      <trkpt lat="43.3738600" lon="-4.4966290">
        <ele>-16.0</ele>
        <time>2021-07-18T08:14:09Z</time>
      </trkpt>
      <trkpt lat="43.3738720" lon="-4.4967360">
        <ele>-16.0</ele>
        <time>2021-07-18T08:14:11Z</time>
      </trkpt>
      <trkpt lat="43.3738690" lon="-4.4968410">
        <ele>-16.0</ele>
        <time>2021-07-18T08:14:13Z</time>
      </trkpt>
      <trkpt lat="43.3738760" lon="-4.4969830">
        <ele>-16.0</ele>
        <time>2021-07-18T08:14:16Z</time>
      </trkpt>
      <trkpt lat="43.3738800" lon="-4.4971360">
        <ele>-16.0</ele>
        <time>2021-07-18T08:14:19Z</time>
      </trkpt>
      <trkpt lat="43.3738740" lon="-4.4972200">
        <ele>-16.0</ele>
        <time>2021-07-18T08:14:21Z</time>
      </trkpt>
      <trkpt lat="43.3738740" lon="-4.4972470">
        <ele>-16.0</ele>
        <time>2021-07-18T08:14:22Z</time>
      </trkpt>
      <trkpt lat="43.3738730" lon="-4.4973240">
        <ele>-16.0</ele>
        <time>2021-07-18T08:14:24Z</time>
      </trkpt>
      <trkpt lat="43.3738770" lon="-4.4974140">
        <ele>-16.0</ele>
        <time>2021-07-18T08:14:26Z</time>
      </trkpt>
      <trkpt lat="43.3738820" lon="-4.4975020">
        <ele>-16.0</ele>
        <time>2021-07-18T08:14:28Z</time>
      </trkpt>
      <trkpt lat="43.3738860" lon="-4.4975700">
        <ele>-16.0</ele>
        <time>2021-07-18T08:14:30Z</time>
      </trkpt>
      <trkpt lat="43.3738910" lon="-4.4976580">
        <ele>-16.0</ele>
        <time>2021-07-18T08:14:33Z</time>
      </trkpt>
      <trkpt lat="43.3738980" lon="-4.4976920">
        <ele>-16.0</ele>
        <time>2021-07-18T08:14:34Z</time>
      </trkpt>
      <trkpt lat="43.3739100" lon="-4.4978400">
        <ele>-16.0</ele>
        <time>2021-07-18T08:14:38Z</time>
      </trkpt>
      <trkpt lat="43.3739180" lon="-4.4979130">
        <ele>-16.0</ele>
        <time>2021-07-18T08:14:40Z</time>
      </trkpt>
      <trkpt lat="43.3739250" lon="-4.4980960">
        <ele>-16.0</ele>
        <time>2021-07-18T08:14:44Z</time>
      </trkpt>
      <trkpt lat="43.3739240" lon="-4.4981890">
        <ele>-16.0</ele>
        <time>2021-07-18T08:14:46Z</time>
      </trkpt>
      <trkpt lat="43.3739320" lon="-4.4985090">
        <ele>-16.0</ele>
        <time>2021-07-18T08:14:54Z</time>
      </trkpt>
      <trkpt lat="43.3739310" lon="-4.4987580">
        <ele>-16.0</ele>
        <time>2021-07-18T08:15:00Z</time>
      </trkpt>
      <trkpt lat="43.3739340" lon="-4.4989910">
        <ele>-16.0</ele>
        <time>2021-07-18T08:15:05Z</time>
      </trkpt>
      <trkpt lat="43.3739360" lon="-4.4990790">
        <ele>-16.0</ele>
        <time>2021-07-18T08:15:07Z</time>
      </trkpt>
      <trkpt lat="43.3739380" lon="-4.4991230">
        <ele>-16.0</ele>
        <time>2021-07-18T08:15:08Z</time>
      </trkpt>
      <trkpt lat="43.3739390" lon="-4.4991700">
        <ele>-16.0</ele>
        <time>2021-07-18T08:15:09Z</time>
      </trkpt>
      <trkpt lat="43.3739450" lon="-4.4993190">
        <ele>-16.0</ele>
        <time>2021-07-18T08:15:13Z</time>
      </trkpt>
      <trkpt lat="43.3739480" lon="-4.4997350">
        <ele>-16.0</ele>
        <time>2021-07-18T08:15:23Z</time>
      </trkpt>
      <trkpt lat="43.3739380" lon="-4.5001370">
        <ele>-16.0</ele>
        <time>2021-07-18T08:15:31Z</time>
      </trkpt>
      <trkpt lat="43.3739320" lon="-4.5002440">
        <ele>-16.0</ele>
        <time>2021-07-18T08:15:33Z</time>
      </trkpt>
      <trkpt lat="43.3739510" lon="-4.5005660">
        <ele>-16.4</ele>
        <time>2021-07-18T08:15:39Z</time>
      </trkpt>
      <trkpt lat="43.3739520" lon="-4.5006190">
        <ele>-16.8</ele>
        <time>2021-07-18T08:15:40Z</time>
      </trkpt>
      <trkpt lat="43.3739510" lon="-4.5006750">
        <ele>-17.2</ele>
        <time>2021-07-18T08:15:41Z</time>
      </trkpt>
      <trkpt lat="43.3739500" lon="-4.5007320">
        <ele>-17.6</ele>
        <time>2021-07-18T08:15:42Z</time>
      </trkpt>
      <trkpt lat="43.3739480" lon="-4.5007920">
        <ele>-18.0</ele>
        <time>2021-07-18T08:15:43Z</time>
      </trkpt>
      <trkpt lat="43.3739530" lon="-4.5010650">
        <ele>-18.0</ele>
        <time>2021-07-18T08:15:48Z</time>
      </trkpt>
      <trkpt lat="43.3739520" lon="-4.5013950">
        <ele>-18.0</ele>
        <time>2021-07-18T08:15:55Z</time>
      </trkpt>
      <trkpt lat="43.3739490" lon="-4.5016020">
        <ele>-18.0</ele>
        <time>2021-07-18T08:16:01Z</time>
      </trkpt>
      <trkpt lat="43.3739230" lon="-4.5017440">
        <ele>-18.0</ele>
        <time>2021-07-18T08:16:04Z</time>
      </trkpt>
      <trkpt lat="43.3739150" lon="-4.5017840">
        <ele>-18.0</ele>
        <time>2021-07-18T08:16:05Z</time>
      </trkpt>
      <trkpt lat="43.3739120" lon="-4.5019230">
        <ele>-18.0</ele>
        <time>2021-07-18T08:16:11Z</time>
      </trkpt>
      <trkpt lat="43.3739390" lon="-4.5019990">
        <ele>-18.0</ele>
        <time>2021-07-18T08:16:14Z</time>
      </trkpt>
      <trkpt lat="43.3739580" lon="-4.5020810">
        <ele>-18.0</ele>
        <time>2021-07-18T08:16:16Z</time>
      </trkpt>
      <trkpt lat="43.3740130" lon="-4.5023030">
        <ele>-18.0</ele>
        <time>2021-07-18T08:16:21Z</time>
      </trkpt>
      <trkpt lat="43.3740300" lon="-4.5025230">
        <ele>-18.0</ele>
        <time>2021-07-18T08:16:26Z</time>
      </trkpt>
      <trkpt lat="43.3740360" lon="-4.5025950">
        <ele>-18.0</ele>
        <time>2021-07-18T08:16:28Z</time>
      </trkpt>
      <trkpt lat="43.3740390" lon="-4.5026270">
        <ele>-18.0</ele>
        <time>2021-07-18T08:16:29Z</time>
      </trkpt>
      <trkpt lat="43.3740790" lon="-4.5027900">
        <ele>-18.0</ele>
        <time>2021-07-18T08:16:35Z</time>
      </trkpt>
      <trkpt lat="43.3740990" lon="-4.5028470">
        <ele>-18.0</ele>
        <time>2021-07-18T08:16:37Z</time>
      </trkpt>
      <trkpt lat="43.3741960" lon="-4.5029880">
        <ele>-18.0</ele>
        <time>2021-07-18T08:16:42Z</time>
      </trkpt>
      <trkpt lat="43.3742570" lon="-4.5031890">
        <ele>-18.0</ele>
        <time>2021-07-18T08:16:46Z</time>
      </trkpt>
      <trkpt lat="43.3743490" lon="-4.5032920">
        <ele>-18.0</ele>
        <time>2021-07-18T08:16:48Z</time>
      </trkpt>
      <trkpt lat="43.3744620" lon="-4.5034920">
        <ele>-18.8</ele>
        <time>2021-07-18T08:16:53Z</time>
      </trkpt>
      <trkpt lat="43.3744780" lon="-4.5035320">
        <ele>-19.2</ele>
        <time>2021-07-18T08:16:54Z</time>
      </trkpt>
      <trkpt lat="43.3744930" lon="-4.5035750">
        <ele>-19.6</ele>
        <time>2021-07-18T08:16:55Z</time>
      </trkpt>
      <trkpt lat="43.3745090" lon="-4.5036190">
        <ele>-20.0</ele>
        <time>2021-07-18T08:16:56Z</time>
      </trkpt>
      <trkpt lat="43.3745880" lon="-4.5038880">
        <ele>-20.0</ele>
        <time>2021-07-18T08:17:01Z</time>
      </trkpt>
      <trkpt lat="43.3746040" lon="-4.5039820">
        <ele>-20.0</ele>
        <time>2021-07-18T08:17:03Z</time>
      </trkpt>
      <trkpt lat="43.3746140" lon="-4.5041060">
        <ele>-20.0</ele>
        <time>2021-07-18T08:17:06Z</time>
      </trkpt>
      <trkpt lat="43.3746200" lon="-4.5041490">
        <ele>-20.0</ele>
        <time>2021-07-18T08:17:07Z</time>
      </trkpt>
      <trkpt lat="43.3746440" lon="-4.5042400">
        <ele>-20.0</ele>
        <time>2021-07-18T08:17:09Z</time>
      </trkpt>
      <trkpt lat="43.3746910" lon="-4.5043970">
        <ele>-20.0</ele>
        <time>2021-07-18T08:17:12Z</time>
      </trkpt>
      <trkpt lat="43.3747100" lon="-4.5044590">
        <ele>-20.0</ele>
        <time>2021-07-18T08:17:13Z</time>
      </trkpt>
      <trkpt lat="43.3748200" lon="-4.5048740">
        <ele>-20.0</ele>
        <time>2021-07-18T08:17:19Z</time>
      </trkpt>
      <trkpt lat="43.3748330" lon="-4.5049250">
        <ele>-20.0</ele>
        <time>2021-07-18T08:17:20Z</time>
      </trkpt>
      <trkpt lat="43.3748960" lon="-4.5051480">
        <ele>-20.0</ele>
        <time>2021-07-18T08:17:26Z</time>
      </trkpt>
      <trkpt lat="43.3749210" lon="-4.5052510">
        <ele>-19.6</ele>
        <time>2021-07-18T08:17:29Z</time>
      </trkpt>
      <trkpt lat="43.3749260" lon="-4.5052880">
        <ele>-19.2</ele>
        <time>2021-07-18T08:17:30Z</time>
      </trkpt>
      <trkpt lat="43.3749290" lon="-4.5053260">
        <ele>-18.8</ele>
        <time>2021-07-18T08:17:31Z</time>
      </trkpt>
      <trkpt lat="43.3749350" lon="-4.5053690">
        <ele>-18.4</ele>
        <time>2021-07-18T08:17:32Z</time>
      </trkpt>
      <trkpt lat="43.3749410" lon="-4.5054130">
        <ele>-18.0</ele>
        <time>2021-07-18T08:17:33Z</time>
      </trkpt>
      <trkpt lat="43.3749560" lon="-4.5056210">
        <ele>-18.0</ele>
        <time>2021-07-18T08:17:37Z</time>
      </trkpt>
      <trkpt lat="43.3749710" lon="-4.5058220">
        <ele>-18.0</ele>
        <time>2021-07-18T08:17:40Z</time>
      </trkpt>
      <trkpt lat="43.3749970" lon="-4.5060480">
        <ele>-18.0</ele>
        <time>2021-07-18T08:17:43Z</time>
      </trkpt>
      <trkpt lat="43.3750130" lon="-4.5062630">
        <ele>-18.0</ele>
        <time>2021-07-18T08:17:46Z</time>
      </trkpt>
      <trkpt lat="43.3750190" lon="-4.5063370">
        <ele>-18.4</ele>
        <time>2021-07-18T08:17:47Z</time>
      </trkpt>
      <trkpt lat="43.3750240" lon="-4.5064060">
        <ele>-18.8</ele>
        <time>2021-07-18T08:17:48Z</time>
      </trkpt>
      <trkpt lat="43.3750280" lon="-4.5064730">
        <ele>-19.2</ele>
        <time>2021-07-18T08:17:49Z</time>
      </trkpt>
      <trkpt lat="43.3750320" lon="-4.5065330">
        <ele>-19.6</ele>
        <time>2021-07-18T08:17:50Z</time>
      </trkpt>
      <trkpt lat="43.3750350" lon="-4.5065860">
        <ele>-20.0</ele>
        <time>2021-07-18T08:17:51Z</time>
      </trkpt>
      <trkpt lat="43.3750390" lon="-4.5066890">
        <ele>-20.0</ele>
        <time>2021-07-18T08:17:53Z</time>
      </trkpt>
      <trkpt lat="43.3750460" lon="-4.5068660">
        <ele>-20.0</ele>
        <time>2021-07-18T08:17:57Z</time>
      </trkpt>
      <trkpt lat="43.3750540" lon="-4.5068890">
        <ele>-20.0</ele>
        <time>2021-07-18T08:17:58Z</time>
      </trkpt>
      <trkpt lat="43.3750630" lon="-4.5069090">
        <ele>-20.0</ele>
        <time>2021-07-18T08:17:59Z</time>
      </trkpt>
      <trkpt lat="43.3751050" lon="-4.5069300">
        <ele>-20.0</ele>
        <time>2021-07-18T08:18:03Z</time>
      </trkpt>
      <trkpt lat="43.3751420" lon="-4.5069160">
        <ele>-20.0</ele>
        <time>2021-07-18T08:18:05Z</time>
      </trkpt>
      <trkpt lat="43.3751570" lon="-4.5069190">
        <ele>-20.0</ele>
        <time>2021-07-18T08:18:06Z</time>
      </trkpt>
      <trkpt lat="43.3751700" lon="-4.5069440">
        <ele>-20.0</ele>
        <time>2021-07-18T08:18:08Z</time>
      </trkpt>
      <trkpt lat="43.3751650" lon="-4.5070010">
        <ele>-20.0</ele>
        <time>2021-07-18T08:18:10Z</time>
      </trkpt>
      <trkpt lat="43.3751560" lon="-4.5070860">
        <ele>-20.0</ele>
        <time>2021-07-18T08:18:12Z</time>
      </trkpt>
      <trkpt lat="43.3751500" lon="-4.5071350">
        <ele>-20.4</ele>
        <time>2021-07-18T08:18:13Z</time>
      </trkpt>
      <trkpt lat="43.3751460" lon="-4.5071850">
        <ele>-20.8</ele>
        <time>2021-07-18T08:18:14Z</time>
      </trkpt>
      <trkpt lat="43.3751430" lon="-4.5072360">
        <ele>-21.2</ele>
        <time>2021-07-18T08:18:15Z</time>
      </trkpt>
      <trkpt lat="43.3751380" lon="-4.5072900">
        <ele>-21.6</ele>
        <time>2021-07-18T08:18:16Z</time>
      </trkpt>
      <trkpt lat="43.3751340" lon="-4.5073490">
        <ele>-22.0</ele>
        <time>2021-07-18T08:18:17Z</time>
      </trkpt>
      <trkpt lat="43.3751290" lon="-4.5074630">
        <ele>-22.0</ele>
        <time>2021-07-18T08:18:19Z</time>
      </trkpt>
      <trkpt lat="43.3751160" lon="-4.5077600">
        <ele>-22.0</ele>
        <time>2021-07-18T08:18:24Z</time>
      </trkpt>
      <trkpt lat="43.3750960" lon="-4.5079880">
        <ele>-22.0</ele>
        <time>2021-07-18T08:18:28Z</time>
      </trkpt>
      <trkpt lat="43.3750660" lon="-4.5082910">
        <ele>-22.0</ele>
        <time>2021-07-18T08:18:34Z</time>
      </trkpt>
      <trkpt lat="43.3750600" lon="-4.5083850">
        <ele>-22.0</ele>
        <time>2021-07-18T08:18:36Z</time>
      </trkpt>
      <trkpt lat="43.3750250" lon="-4.5087430">
        <ele>-22.0</ele>
        <time>2021-07-18T08:18:43Z</time>
      </trkpt>
      <trkpt lat="43.3750160" lon="-4.5088950">
        <ele>-22.0</ele>
        <time>2021-07-18T08:18:46Z</time>
      </trkpt>
      <trkpt lat="43.3750060" lon="-4.5091110">
        <ele>-22.0</ele>
        <time>2021-07-18T08:18:50Z</time>
      </trkpt>
      <trkpt lat="43.3749820" lon="-4.5094690">
        <ele>-22.0</ele>
        <time>2021-07-18T08:18:57Z</time>
      </trkpt>
      <trkpt lat="43.3749730" lon="-4.5097830">
        <ele>-22.0</ele>
        <time>2021-07-18T08:19:03Z</time>
      </trkpt>
      <trkpt lat="43.3749700" lon="-4.5099870">
        <ele>-22.0</ele>
        <time>2021-07-18T08:19:07Z</time>
      </trkpt>
      <trkpt lat="43.3749570" lon="-4.5101460">
        <ele>-22.0</ele>
        <time>2021-07-18T08:19:10Z</time>
      </trkpt>
      <trkpt lat="43.3749240" lon="-4.5103740">
        <ele>-22.0</ele>
        <time>2021-07-18T08:19:14Z</time>
      </trkpt>
      <trkpt lat="43.3749110" lon="-4.5106040">
        <ele>-22.0</ele>
        <time>2021-07-18T08:19:18Z</time>
      </trkpt>
      <trkpt lat="43.3748670" lon="-4.5111200">
        <ele>-22.0</ele>
        <time>2021-07-18T08:19:27Z</time>
      </trkpt>
      <trkpt lat="43.3748300" lon="-4.5115650">
        <ele>-22.0</ele>
        <time>2021-07-18T08:19:35Z</time>
      </trkpt>
      <trkpt lat="43.3748150" lon="-4.5119810">
        <ele>-22.0</ele>
        <time>2021-07-18T08:19:43Z</time>
      </trkpt>
      <trkpt lat="43.3747850" lon="-4.5123590">
        <ele>-22.0</ele>
        <time>2021-07-18T08:19:50Z</time>
      </trkpt>
      <trkpt lat="43.3747590" lon="-4.5126880">
        <ele>-22.0</ele>
        <time>2021-07-18T08:19:56Z</time>
      </trkpt>
      <trkpt lat="43.3747420" lon="-4.5129380">
        <ele>-22.0</ele>
        <time>2021-07-18T08:20:01Z</time>
      </trkpt>
      <trkpt lat="43.3747370" lon="-4.5130900">
        <ele>-22.0</ele>
        <time>2021-07-18T08:20:04Z</time>
      </trkpt>
      <trkpt lat="43.3747390" lon="-4.5135300">
        <ele>-22.0</ele>
        <time>2021-07-18T08:20:13Z</time>
      </trkpt>
      <trkpt lat="43.3747500" lon="-4.5137990">
        <ele>-22.0</ele>
        <time>2021-07-18T08:20:19Z</time>
      </trkpt>
      <trkpt lat="43.3747410" lon="-4.5140990">
        <ele>-22.0</ele>
        <time>2021-07-18T08:20:26Z</time>
      </trkpt>
      <trkpt lat="43.3747180" lon="-4.5142190">
        <ele>-22.0</ele>
        <time>2021-07-18T08:20:29Z</time>
      </trkpt>
      <trkpt lat="43.3747310" lon="-4.5143050">
        <ele>-22.0</ele>
        <time>2021-07-18T08:20:32Z</time>
      </trkpt>
      <trkpt lat="43.3747340" lon="-4.5144450">
        <ele>-22.0</ele>
        <time>2021-07-18T08:20:36Z</time>
      </trkpt>
      <trkpt lat="43.3747400" lon="-4.5145230">
        <ele>-22.0</ele>
        <time>2021-07-18T08:20:38Z</time>
      </trkpt>
      <trkpt lat="43.3747380" lon="-4.5146560">
        <ele>-22.0</ele>
        <time>2021-07-18T08:20:42Z</time>
      </trkpt>
      <trkpt lat="43.3747260" lon="-4.5147180">
        <ele>-22.0</ele>
        <time>2021-07-18T08:20:44Z</time>
      </trkpt>
      <trkpt lat="43.3747030" lon="-4.5148290">
        <ele>-22.0</ele>
        <time>2021-07-18T08:20:48Z</time>
      </trkpt>
      <trkpt lat="43.3747200" lon="-4.5150010">
        <ele>-22.0</ele>
        <time>2021-07-18T08:20:53Z</time>
      </trkpt>
      <trkpt lat="43.3747040" lon="-4.5151930">
        <ele>-22.0</ele>
        <time>2021-07-18T08:20:58Z</time>
      </trkpt>
      <trkpt lat="43.3746880" lon="-4.5154420">
        <ele>-22.0</ele>
        <time>2021-07-18T08:21:04Z</time>
      </trkpt>
      <trkpt lat="43.3746770" lon="-4.5156310">
        <ele>-22.0</ele>
        <time>2021-07-18T08:21:10Z</time>
      </trkpt>
      <trkpt lat="43.3746580" lon="-4.5157960">
        <ele>-22.0</ele>
        <time>2021-07-18T08:21:15Z</time>
      </trkpt>
      <trkpt lat="43.3746570" lon="-4.5159340">
        <ele>-22.0</ele>
        <time>2021-07-18T08:21:20Z</time>
      </trkpt>
      <trkpt lat="43.3746760" lon="-4.5159690">
        <ele>-22.0</ele>
        <time>2021-07-18T08:21:23Z</time>
      </trkpt>
      <trkpt lat="43.3746670" lon="-4.5160010">
        <ele>-22.0</ele>
        <time>2021-07-18T08:22:09Z</time>
      </trkpt>
      <trkpt lat="43.3746630" lon="-4.5160280">
        <ele>-22.0</ele>
        <time>2021-07-18T08:22:10Z</time>
      </trkpt>
      <trkpt lat="43.3746450" lon="-4.5162430">
        <ele>-22.0</ele>
        <time>2021-07-18T08:22:17Z</time>
      </trkpt>
      <trkpt lat="43.3746390" lon="-4.5163520">
        <ele>-22.0</ele>
        <time>2021-07-18T08:22:22Z</time>
      </trkpt>
      <trkpt lat="43.3746420" lon="-4.5163940">
        <ele>-22.0</ele>
        <time>2021-07-18T08:22:25Z</time>
      </trkpt>
      <trkpt lat="43.3746410" lon="-4.5164170">
        <ele>-22.0</ele>
        <time>2021-07-18T08:22:38Z</time>
      </trkpt>
      <trkpt lat="43.3746380" lon="-4.5164410">
        <ele>-22.0</ele>
        <time>2021-07-18T08:22:39Z</time>
      </trkpt>
      <trkpt lat="43.3746330" lon="-4.5165040">
        <ele>-22.0</ele>
        <time>2021-07-18T08:22:41Z</time>
      </trkpt>
      <trkpt lat="43.3746280" lon="-4.5165720">
        <ele>-22.0</ele>
        <time>2021-07-18T08:22:43Z</time>
      </trkpt>
      <trkpt lat="43.3746200" lon="-4.5166370">
        <ele>-22.0</ele>
        <time>2021-07-18T08:22:45Z</time>
      </trkpt>
      <trkpt lat="43.3745690" lon="-4.5168950">
        <ele>-22.0</ele>
        <time>2021-07-18T08:22:51Z</time>
      </trkpt>
      <trkpt lat="43.3745130" lon="-4.5172230">
        <ele>-22.0</ele>
        <time>2021-07-18T08:22:58Z</time>
      </trkpt>
      <trkpt lat="43.3744410" lon="-4.5174990">
        <ele>-22.0</ele>
        <time>2021-07-18T08:23:04Z</time>
      </trkpt>
      <trkpt lat="43.3744370" lon="-4.5176310">
        <ele>-22.0</ele>
        <time>2021-07-18T08:23:07Z</time>
      </trkpt>
      <trkpt lat="43.3744510" lon="-4.5179060">
        <ele>-22.0</ele>
        <time>2021-07-18T08:23:13Z</time>
      </trkpt>
      <trkpt lat="43.3744550" lon="-4.5179530">
        <ele>-22.0</ele>
        <time>2021-07-18T08:23:14Z</time>
      </trkpt>
      <trkpt lat="43.3744810" lon="-4.5181370">
        <ele>-22.0</ele>
        <time>2021-07-18T08:23:18Z</time>
      </trkpt>
      <trkpt lat="43.3745200" lon="-4.5182590">
        <ele>-22.0</ele>
        <time>2021-07-18T08:23:21Z</time>
      </trkpt>
      <trkpt lat="43.3745870" lon="-4.5184080">
        <ele>-22.0</ele>
        <time>2021-07-18T08:23:25Z</time>
      </trkpt>
      <trkpt lat="43.3747040" lon="-4.5186450">
        <ele>-22.0</ele>
        <time>2021-07-18T08:23:31Z</time>
      </trkpt>
      <trkpt lat="43.3747860" lon="-4.5188080">
        <ele>-22.0</ele>
        <time>2021-07-18T08:23:35Z</time>
      </trkpt>
      <trkpt lat="43.3748190" lon="-4.5188740">
        <ele>-22.0</ele>
        <time>2021-07-18T08:23:37Z</time>
      </trkpt>
      <trkpt lat="43.3748510" lon="-4.5189310">
        <ele>-22.0</ele>
        <time>2021-07-18T08:23:39Z</time>
      </trkpt>
      <trkpt lat="43.3749060" lon="-4.5190340">
        <ele>-22.0</ele>
        <time>2021-07-18T08:23:43Z</time>
      </trkpt>
      <trkpt lat="43.3749300" lon="-4.5190590">
        <ele>-22.0</ele>
        <time>2021-07-18T08:23:46Z</time>
      </trkpt>
      <trkpt lat="43.3749330" lon="-4.5190580">
        <ele>-22.0</ele>
        <time>2021-07-18T08:23:47Z</time>
      </trkpt>
      <trkpt lat="43.3749380" lon="-4.5190630">
        <ele>-22.0</ele>
        <time>2021-07-18T08:24:13Z</time>
      </trkpt>
      <trkpt lat="43.3749650" lon="-4.5190860">
        <ele>-22.0</ele>
        <time>2021-07-18T08:24:15Z</time>
      </trkpt>
      <trkpt lat="43.3750400" lon="-4.5191150">
        <ele>-22.0</ele>
        <time>2021-07-18T08:24:18Z</time>
      </trkpt>
      <trkpt lat="43.3750760" lon="-4.5191180">
        <ele>-22.0</ele>
        <time>2021-07-18T08:24:19Z</time>
      </trkpt>
      <trkpt lat="43.3751140" lon="-4.5191220">
        <ele>-22.0</ele>
        <time>2021-07-18T08:24:20Z</time>
      </trkpt>
      <trkpt lat="43.3753380" lon="-4.5191080">
        <ele>-22.0</ele>
        <time>2021-07-18T08:24:25Z</time>
      </trkpt>
      <trkpt lat="43.3754800" lon="-4.5190690">
        <ele>-22.0</ele>
        <time>2021-07-18T08:24:28Z</time>
      </trkpt>
      <trkpt lat="43.3756350" lon="-4.5190320">
        <ele>-22.0</ele>
        <time>2021-07-18T08:24:32Z</time>
      </trkpt>
      <trkpt lat="43.3757970" lon="-4.5189530">
        <ele>-22.0</ele>
        <time>2021-07-18T08:24:38Z</time>
      </trkpt>
      <trkpt lat="43.3758550" lon="-4.5189110">
        <ele>-22.0</ele>
        <time>2021-07-18T08:24:40Z</time>
      </trkpt>
      <trkpt lat="43.3758900" lon="-4.5188900">
        <ele>-22.0</ele>
        <time>2021-07-18T08:24:41Z</time>
      </trkpt>
      <trkpt lat="43.3759610" lon="-4.5188480">
        <ele>-22.0</ele>
        <time>2021-07-18T08:24:43Z</time>
      </trkpt>
      <trkpt lat="43.3760320" lon="-4.5188190">
        <ele>-22.0</ele>
        <time>2021-07-18T08:24:45Z</time>
      </trkpt>
      <trkpt lat="43.3760670" lon="-4.5188120">
        <ele>-22.0</ele>
        <time>2021-07-18T08:24:46Z</time>
      </trkpt>
      <trkpt lat="43.3761620" lon="-4.5188130">
        <ele>-22.0</ele>
        <time>2021-07-18T08:24:49Z</time>
      </trkpt>
      <trkpt lat="43.3762310" lon="-4.5188370">
        <ele>-22.0</ele>
        <time>2021-07-18T08:24:51Z</time>
      </trkpt>
      <trkpt lat="43.3763360" lon="-4.5189090">
        <ele>-22.0</ele>
        <time>2021-07-18T08:24:54Z</time>
      </trkpt>
      <trkpt lat="43.3764460" lon="-4.5190280">
        <ele>-22.0</ele>
        <time>2021-07-18T08:24:58Z</time>
      </trkpt>
      <trkpt lat="43.3765930" lon="-4.5191800">
        <ele>-22.0</ele>
        <time>2021-07-18T08:25:04Z</time>
      </trkpt>
      <trkpt lat="43.3766520" lon="-4.5192610">
        <ele>-22.0</ele>
        <time>2021-07-18T08:25:09Z</time>
      </trkpt>
      <trkpt lat="43.3766620" lon="-4.5192790">
        <ele>-22.0</ele>
        <time>2021-07-18T08:25:18Z</time>
      </trkpt>
      <trkpt lat="43.3767090" lon="-4.5193330">
        <ele>-22.0</ele>
        <time>2021-07-18T08:25:21Z</time>
      </trkpt>
      <trkpt lat="43.3767400" lon="-4.5193740">
        <ele>-21.6</ele>
        <time>2021-07-18T08:25:23Z</time>
      </trkpt>
      <trkpt lat="43.3767540" lon="-4.5193960">
        <ele>-21.2</ele>
        <time>2021-07-18T08:25:24Z</time>
      </trkpt>
      <trkpt lat="43.3767670" lon="-4.5194200">
        <ele>-20.8</ele>
        <time>2021-07-18T08:25:25Z</time>
      </trkpt>
      <trkpt lat="43.3767830" lon="-4.5194470">
        <ele>-20.4</ele>
        <time>2021-07-18T08:25:26Z</time>
      </trkpt>
      <trkpt lat="43.3767980" lon="-4.5194720">
        <ele>-20.0</ele>
        <time>2021-07-18T08:25:27Z</time>
      </trkpt>
      <trkpt lat="43.3768260" lon="-4.5195320">
        <ele>-20.0</ele>
        <time>2021-07-18T08:25:29Z</time>
      </trkpt>
      <trkpt lat="43.3769190" lon="-4.5197440">
        <ele>-20.0</ele>
        <time>2021-07-18T08:25:36Z</time>
      </trkpt>
      <trkpt lat="43.3769360" lon="-4.5197600">
        <ele>-20.0</ele>
        <time>2021-07-18T08:25:37Z</time>
      </trkpt>
      <trkpt lat="43.3769790" lon="-4.5198240">
        <ele>-20.0</ele>
        <time>2021-07-18T08:25:42Z</time>
      </trkpt>
      <trkpt lat="43.3769260" lon="-4.5198060">
        <ele>-20.0</ele>
        <time>2021-07-18T08:25:46Z</time>
      </trkpt>
      <trkpt lat="43.3768930" lon="-4.5197470">
        <ele>-20.0</ele>
        <time>2021-07-18T08:25:48Z</time>
      </trkpt>
      <trkpt lat="43.3768370" lon="-4.5196300">
        <ele>-20.0</ele>
        <time>2021-07-18T08:25:51Z</time>
      </trkpt>
      <trkpt lat="43.3767010" lon="-4.5193730">
        <ele>-20.0</ele>
        <time>2021-07-18T08:25:57Z</time>
      </trkpt>
      <trkpt lat="43.3766720" lon="-4.5193300">
        <ele>-20.0</ele>
        <time>2021-07-18T08:25:58Z</time>
      </trkpt>
      <trkpt lat="43.3765770" lon="-4.5192050">
        <ele>-20.0</ele>
        <time>2021-07-18T08:26:01Z</time>
      </trkpt>
      <trkpt lat="43.3765170" lon="-4.5191380">
        <ele>-20.0</ele>
        <time>2021-07-18T08:26:03Z</time>
      </trkpt>
      <trkpt lat="43.3764930" lon="-4.5191140">
        <ele>-20.0</ele>
        <time>2021-07-18T08:26:04Z</time>
      </trkpt>
      <trkpt lat="43.3764140" lon="-4.5190270">
        <ele>-20.0</ele>
        <time>2021-07-18T08:26:08Z</time>
      </trkpt>
      <trkpt lat="43.3763840" lon="-4.5189940">
        <ele>-20.0</ele>
        <time>2021-07-18T08:26:10Z</time>
      </trkpt>
      <trkpt lat="43.3763450" lon="-4.5189660">
        <ele>-20.0</ele>
        <time>2021-07-18T08:26:14Z</time>
      </trkpt>
      <trkpt lat="43.3763340" lon="-4.5189490">
        <ele>-20.0</ele>
        <time>2021-07-18T08:26:22Z</time>
      </trkpt>
      <trkpt lat="43.3763480" lon="-4.5189440">
        <ele>-20.0</ele>
        <time>2021-07-18T08:26:25Z</time>
      </trkpt>
      <trkpt lat="43.3763620" lon="-4.5189520">
        <ele>-20.0</ele>
        <time>2021-07-18T08:26:26Z</time>
      </trkpt>
      <trkpt lat="43.3764400" lon="-4.5189750">
        <ele>-20.0</ele>
        <time>2021-07-18T08:26:32Z</time>
      </trkpt>
      <trkpt lat="43.3765180" lon="-4.5189250">
        <ele>-20.0</ele>
        <time>2021-07-18T08:26:38Z</time>
      </trkpt>
      <trkpt lat="43.3765520" lon="-4.5188990">
        <ele>-20.0</ele>
        <time>2021-07-18T08:26:41Z</time>
      </trkpt>
      <trkpt lat="43.3765910" lon="-4.5188620">
        <ele>-20.0</ele>
        <time>2021-07-18T08:26:44Z</time>
      </trkpt>
      <trkpt lat="43.3766060" lon="-4.5188470">
        <ele>-20.0</ele>
        <time>2021-07-18T08:26:45Z</time>
      </trkpt>
      <trkpt lat="43.3766340" lon="-4.5188000">
        <ele>-20.0</ele>
        <time>2021-07-18T08:26:49Z</time>
      </trkpt>
      <trkpt lat="43.3766370" lon="-4.5187930">
        <ele>-20.0</ele>
        <time>2021-07-18T08:27:08Z</time>
      </trkpt>
      <trkpt lat="43.3766540" lon="-4.5187310">
        <ele>-20.0</ele>
        <time>2021-07-18T08:27:11Z</time>
      </trkpt>
      <trkpt lat="43.3766410" lon="-4.5186530">
        <ele>-20.0</ele>
        <time>2021-07-18T08:27:14Z</time>
      </trkpt>
      <trkpt lat="43.3765810" lon="-4.5184370">
        <ele>-20.0</ele>
        <time>2021-07-18T08:27:18Z</time>
      </trkpt>
      <trkpt lat="43.3765260" lon="-4.5182680">
        <ele>-20.0</ele>
        <time>2021-07-18T08:27:21Z</time>
      </trkpt>
      <trkpt lat="43.3764900" lon="-4.5181590">
        <ele>-20.0</ele>
        <time>2021-07-18T08:27:23Z</time>
      </trkpt>
      <trkpt lat="43.3764780" lon="-4.5181130">
        <ele>-20.4</ele>
        <time>2021-07-18T08:27:24Z</time>
      </trkpt>
      <trkpt lat="43.3764710" lon="-4.5180730">
        <ele>-20.8</ele>
        <time>2021-07-18T08:27:25Z</time>
      </trkpt>
      <trkpt lat="43.3764700" lon="-4.5180330">
        <ele>-21.2</ele>
        <time>2021-07-18T08:27:26Z</time>
      </trkpt>
      <trkpt lat="43.3764750" lon="-4.5180020">
        <ele>-21.8</ele>
        <time>2021-07-18T08:27:27Z</time>
      </trkpt>
      <trkpt lat="43.3764830" lon="-4.5179710">
        <ele>-22.2</ele>
        <time>2021-07-18T08:27:28Z</time>
      </trkpt>
      <trkpt lat="43.3765040" lon="-4.5179200">
        <ele>-22.2</ele>
        <time>2021-07-18T08:27:30Z</time>
      </trkpt>
      <trkpt lat="43.3765210" lon="-4.5179050">
        <ele>-22.2</ele>
        <time>2021-07-18T08:27:31Z</time>
      </trkpt>
      <trkpt lat="43.3766240" lon="-4.5178560">
        <ele>-22.2</ele>
        <time>2021-07-18T08:27:35Z</time>
      </trkpt>
      <trkpt lat="43.3766510" lon="-4.5178540">
        <ele>-22.2</ele>
        <time>2021-07-18T08:27:36Z</time>
      </trkpt>
      <trkpt lat="43.3768100" lon="-4.5178310">
        <ele>-22.2</ele>
        <time>2021-07-18T08:27:43Z</time>
      </trkpt>
      <trkpt lat="43.3769000" lon="-4.5177710">
        <ele>-22.2</ele>
        <time>2021-07-18T08:27:45Z</time>
      </trkpt>
      <trkpt lat="43.3769590" lon="-4.5177300">
        <ele>-22.2</ele>
        <time>2021-07-18T08:27:51Z</time>
      </trkpt>
      <trkpt lat="43.3770180" lon="-4.5176880">
        <ele>-22.2</ele>
        <time>2021-07-18T08:27:53Z</time>
      </trkpt>
      <trkpt lat="43.3770800" lon="-4.5176460">
        <ele>-22.2</ele>
        <time>2021-07-18T08:27:57Z</time>
      </trkpt>
      <trkpt lat="43.3771410" lon="-4.5176040">
        <ele>-22.2</ele>
        <time>2021-07-18T08:27:59Z</time>
      </trkpt>
      <trkpt lat="43.3772030" lon="-4.5175630">
        <ele>-22.2</ele>
        <time>2021-07-18T08:28:00Z</time>
      </trkpt>
      <trkpt lat="43.3772640" lon="-4.5175210">
        <ele>-22.2</ele>
        <time>2021-07-18T08:28:02Z</time>
      </trkpt>
      <trkpt lat="43.3773260" lon="-4.5174790">
        <ele>-22.2</ele>
        <time>2021-07-18T08:28:03Z</time>
      </trkpt>
      <trkpt lat="43.3773870" lon="-4.5174370">
        <ele>-22.2</ele>
        <time>2021-07-18T08:28:06Z</time>
      </trkpt>
      <trkpt lat="43.3774010" lon="-4.5174330">
        <ele>-22.2</ele>
        <time>2021-07-18T08:28:07Z</time>
      </trkpt>
      <trkpt lat="43.3774160" lon="-4.5174250">
        <ele>-22.2</ele>
        <time>2021-07-18T08:28:10Z</time>
      </trkpt>
      <trkpt lat="43.3773860" lon="-4.5174540">
        <ele>-22.2</ele>
        <time>2021-07-18T08:28:15Z</time>
      </trkpt>
      <trkpt lat="43.3773670" lon="-4.5174570">
        <ele>-22.6</ele>
        <time>2021-07-18T08:28:16Z</time>
      </trkpt>
      <trkpt lat="43.3773420" lon="-4.5174670">
        <ele>-23.0</ele>
        <time>2021-07-18T08:28:17Z</time>
      </trkpt>
      <trkpt lat="43.3773190" lon="-4.5174790">
        <ele>-23.4</ele>
        <time>2021-07-18T08:28:18Z</time>
      </trkpt>
      <trkpt lat="43.3772920" lon="-4.5174930">
        <ele>-23.8</ele>
        <time>2021-07-18T08:28:19Z</time>
      </trkpt>
      <trkpt lat="43.3772650" lon="-4.5175070">
        <ele>-24.2</ele>
        <time>2021-07-18T08:28:20Z</time>
      </trkpt>
      <trkpt lat="43.3772120" lon="-4.5175380">
        <ele>-24.2</ele>
        <time>2021-07-18T08:28:24Z</time>
      </trkpt>
      <trkpt lat="43.3771590" lon="-4.5175690">
        <ele>-24.2</ele>
        <time>2021-07-18T08:28:25Z</time>
      </trkpt>
      <trkpt lat="43.3771060" lon="-4.5176000">
        <ele>-24.2</ele>
        <time>2021-07-18T08:28:26Z</time>
      </trkpt>
      <trkpt lat="43.3770520" lon="-4.5176300">
        <ele>-24.2</ele>
        <time>2021-07-18T08:28:27Z</time>
      </trkpt>
      <trkpt lat="43.3769990" lon="-4.5176610">
        <ele>-24.2</ele>
        <time>2021-07-18T08:28:28Z</time>
      </trkpt>
      <trkpt lat="43.3769460" lon="-4.5176920">
        <ele>-24.2</ele>
        <time>2021-07-18T08:28:29Z</time>
      </trkpt>
      <trkpt lat="43.3768930" lon="-4.5177230">
        <ele>-24.2</ele>
        <time>2021-07-18T08:28:32Z</time>
      </trkpt>
      <trkpt lat="43.3768930" lon="-4.5177230">
        <ele>-24.2</ele>
        <time>2021-07-18T08:28:33Z</time>
      </trkpt>
      <trkpt lat="43.3766120" lon="-4.5178840">
        <ele>-24.2</ele>
        <time>2021-07-18T08:28:40Z</time>
      </trkpt>
      <trkpt lat="43.3764950" lon="-4.5179930">
        <ele>-24.2</ele>
        <time>2021-07-18T08:28:44Z</time>
      </trkpt>
      <trkpt lat="43.3764940" lon="-4.5180460">
        <ele>-24.2</ele>
        <time>2021-07-18T08:28:45Z</time>
      </trkpt>
      <trkpt lat="43.3765160" lon="-4.5181500">
        <ele>-24.2</ele>
        <time>2021-07-18T08:28:47Z</time>
      </trkpt>
      <trkpt lat="43.3765730" lon="-4.5182900">
        <ele>-24.2</ele>
        <time>2021-07-18T08:28:50Z</time>
      </trkpt>
      <trkpt lat="43.3766260" lon="-4.5184320">
        <ele>-24.2</ele>
        <time>2021-07-18T08:28:53Z</time>
      </trkpt>
      <trkpt lat="43.3766880" lon="-4.5185960">
        <ele>-23.8</ele>
        <time>2021-07-18T08:28:57Z</time>
      </trkpt>
      <trkpt lat="43.3766900" lon="-4.5186280">
        <ele>-23.4</ele>
        <time>2021-07-18T08:28:58Z</time>
      </trkpt>
      <trkpt lat="43.3766880" lon="-4.5186560">
        <ele>-23.0</ele>
        <time>2021-07-18T08:28:59Z</time>
      </trkpt>
      <trkpt lat="43.3766820" lon="-4.5186810">
        <ele>-22.4</ele>
        <time>2021-07-18T08:29:00Z</time>
      </trkpt>
      <trkpt lat="43.3766770" lon="-4.5187070">
        <ele>-22.0</ele>
        <time>2021-07-18T08:29:01Z</time>
      </trkpt>
      <trkpt lat="43.3766250" lon="-4.5188430">
        <ele>-22.0</ele>
        <time>2021-07-18T08:29:05Z</time>
      </trkpt>
      <trkpt lat="43.3764580" lon="-4.5189820">
        <ele>-22.0</ele>
        <time>2021-07-18T08:29:11Z</time>
      </trkpt>
      <trkpt lat="43.3763920" lon="-4.5189830">
        <ele>-22.0</ele>
        <time>2021-07-18T08:29:13Z</time>
      </trkpt>
      <trkpt lat="43.3763160" lon="-4.5189460">
        <ele>-22.0</ele>
        <time>2021-07-18T08:29:15Z</time>
      </trkpt>
      <trkpt lat="43.3761430" lon="-4.5188580">
        <ele>-22.0</ele>
        <time>2021-07-18T08:29:19Z</time>
      </trkpt>
      <trkpt lat="43.3760970" lon="-4.5188530">
        <ele>-22.0</ele>
        <time>2021-07-18T08:29:20Z</time>
      </trkpt>
      <trkpt lat="43.3759060" lon="-4.5189070">
        <ele>-22.0</ele>
        <time>2021-07-18T08:29:24Z</time>
      </trkpt>
      <trkpt lat="43.3758200" lon="-4.5189520">
        <ele>-22.0</ele>
        <time>2021-07-18T08:29:26Z</time>
      </trkpt>
      <trkpt lat="43.3757330" lon="-4.5189920">
        <ele>-22.0</ele>
        <time>2021-07-18T08:29:28Z</time>
      </trkpt>
      <trkpt lat="43.3756930" lon="-4.5190100">
        <ele>-22.0</ele>
        <time>2021-07-18T08:29:29Z</time>
      </trkpt>
      <trkpt lat="43.3755580" lon="-4.5190570">
        <ele>-22.0</ele>
        <time>2021-07-18T08:29:32Z</time>
      </trkpt>
      <trkpt lat="43.3754120" lon="-4.5190870">
        <ele>-22.0</ele>
        <time>2021-07-18T08:29:35Z</time>
      </trkpt>
      <trkpt lat="43.3752250" lon="-4.5191300">
        <ele>-22.0</ele>
        <time>2021-07-18T08:29:39Z</time>
      </trkpt>
      <trkpt lat="43.3751170" lon="-4.5191640">
        <ele>-22.0</ele>
        <time>2021-07-18T08:29:42Z</time>
      </trkpt>
      <trkpt lat="43.3750340" lon="-4.5191660">
        <ele>-22.0</ele>
        <time>2021-07-18T08:29:45Z</time>
      </trkpt>
      <trkpt lat="43.3749960" lon="-4.5191650">
        <ele>-22.0</ele>
        <time>2021-07-18T08:29:48Z</time>
      </trkpt>
      <trkpt lat="43.3749580" lon="-4.5191550">
        <ele>-22.0</ele>
        <time>2021-07-18T08:29:53Z</time>
      </trkpt>
      <trkpt lat="43.3749220" lon="-4.5191440">
        <ele>-22.0</ele>
        <time>2021-07-18T08:29:57Z</time>
      </trkpt>
      <trkpt lat="43.3749650" lon="-4.5191560">
        <ele>-22.0</ele>
        <time>2021-07-18T08:30:14Z</time>
      </trkpt>
      <trkpt lat="43.3749770" lon="-4.5191640">
        <ele>-22.0</ele>
        <time>2021-07-18T08:30:15Z</time>
      </trkpt>
      <trkpt lat="43.3749800" lon="-4.5191660">
        <ele>-22.0</ele>
        <time>2021-07-18T08:30:17Z</time>
      </trkpt>
      <trkpt lat="43.3748930" lon="-4.5195240">
        <ele>-17.0</ele>
        <time>2021-07-18T08:34:48Z</time>
      </trkpt>
      <trkpt lat="43.3748890" lon="-4.5195420">
        <ele>-16.6</ele>
        <time>2021-07-18T08:34:49Z</time>
      </trkpt>
      <trkpt lat="43.3748860" lon="-4.5195590">
        <ele>-16.2</ele>
        <time>2021-07-18T08:34:50Z</time>
      </trkpt>
      <trkpt lat="43.3748830" lon="-4.5195750">
        <ele>-15.8</ele>
        <time>2021-07-18T08:34:51Z</time>
      </trkpt>
      <trkpt lat="43.3748800" lon="-4.5196060">
        <ele>-15.8</ele>
        <time>2021-07-18T08:34:53Z</time>
      </trkpt>
      <trkpt lat="43.3748770" lon="-4.5196380">
        <ele>-15.8</ele>
        <time>2021-07-18T08:34:55Z</time>
      </trkpt>
      <trkpt lat="43.3748760" lon="-4.5196710">
        <ele>-15.8</ele>
        <time>2021-07-18T08:34:57Z</time>
      </trkpt>
      <trkpt lat="43.3748700" lon="-4.5196980">
        <ele>-15.4</ele>
        <time>2021-07-18T08:34:59Z</time>
      </trkpt>
      <trkpt lat="43.3748680" lon="-4.5197150">
        <ele>-15.0</ele>
        <time>2021-07-18T08:35:00Z</time>
      </trkpt>
      <trkpt lat="43.3748640" lon="-4.5197310">
        <ele>-14.0</ele>
        <time>2021-07-18T08:35:01Z</time>
      </trkpt>
      <trkpt lat="43.3748620" lon="-4.5197430">
        <ele>-13.6</ele>
        <time>2021-07-18T08:35:02Z</time>
      </trkpt>
      <trkpt lat="43.3748500" lon="-4.5198100">
        <ele>-13.6</ele>
        <time>2021-07-18T08:35:07Z</time>
      </trkpt>
      <trkpt lat="43.3748460" lon="-4.5198420">
        <ele>-13.2</ele>
        <time>2021-07-18T08:35:09Z</time>
      </trkpt>
      <trkpt lat="43.3748440" lon="-4.5198530">
        <ele>-12.8</ele>
        <time>2021-07-18T08:35:10Z</time>
      </trkpt>
      <trkpt lat="43.3748420" lon="-4.5198640">
        <ele>-12.4</ele>
        <time>2021-07-18T08:35:11Z</time>
      </trkpt>
      <trkpt lat="43.3748410" lon="-4.5198760">
        <ele>-12.0</ele>
        <time>2021-07-18T08:35:12Z</time>
      </trkpt>
      <trkpt lat="43.3748390" lon="-4.5198870">
        <ele>-11.6</ele>
        <time>2021-07-18T08:35:13Z</time>
      </trkpt>
      <trkpt lat="43.3748340" lon="-4.5199070">
        <ele>-11.6</ele>
        <time>2021-07-18T08:35:15Z</time>
      </trkpt>
      <trkpt lat="43.3748110" lon="-4.5199860">
        <ele>-11.6</ele>
        <time>2021-07-18T08:35:22Z</time>
      </trkpt>
      <trkpt lat="43.3748080" lon="-4.5199960">
        <ele>-11.2</ele>
        <time>2021-07-18T08:35:23Z</time>
      </trkpt>
      <trkpt lat="43.3748050" lon="-4.5200070">
        <ele>-10.8</ele>
        <time>2021-07-18T08:35:24Z</time>
      </trkpt>
      <trkpt lat="43.3748040" lon="-4.5200170">
        <ele>-10.4</ele>
        <time>2021-07-18T08:35:25Z</time>
      </trkpt>
      <trkpt lat="43.3748020" lon="-4.5200290">
        <ele>-9.4</ele>
        <time>2021-07-18T08:35:26Z</time>
      </trkpt>
      <trkpt lat="43.3747740" lon="-4.5201120">
        <ele>-9.4</ele>
        <time>2021-07-18T08:35:33Z</time>
      </trkpt>
      <trkpt lat="43.3747630" lon="-4.5201530">
        <ele>-9.0</ele>
        <time>2021-07-18T08:35:36Z</time>
      </trkpt>
      <trkpt lat="43.3747590" lon="-4.5201680">
        <ele>-8.6</ele>
        <time>2021-07-18T08:35:37Z</time>
      </trkpt>
      <trkpt lat="43.3747550" lon="-4.5201810">
        <ele>-8.2</ele>
        <time>2021-07-18T08:35:38Z</time>
      </trkpt>
      <trkpt lat="43.3747510" lon="-4.5201930">
        <ele>-7.8</ele>
        <time>2021-07-18T08:35:39Z</time>
      </trkpt>
      <trkpt lat="43.3747470" lon="-4.5202070">
        <ele>-7.4</ele>
        <time>2021-07-18T08:35:40Z</time>
      </trkpt>
      <trkpt lat="43.3747310" lon="-4.5202470">
        <ele>-7.4</ele>
        <time>2021-07-18T08:35:43Z</time>
      </trkpt>
      <trkpt lat="43.3746840" lon="-4.5203640">
        <ele>-6.6</ele>
        <time>2021-07-18T08:35:51Z</time>
      </trkpt>
      <trkpt lat="43.3746760" lon="-4.5203820">
        <ele>-6.2</ele>
        <time>2021-07-18T08:35:52Z</time>
      </trkpt>
      <trkpt lat="43.3746670" lon="-4.5203980">
        <ele>-5.8</ele>
        <time>2021-07-18T08:35:53Z</time>
      </trkpt>
      <trkpt lat="43.3746620" lon="-4.5204150">
        <ele>-5.4</ele>
        <time>2021-07-18T08:35:54Z</time>
      </trkpt>
      <trkpt lat="43.3746400" lon="-4.5205140">
        <ele>-5.4</ele>
        <time>2021-07-18T08:36:00Z</time>
      </trkpt>
      <trkpt lat="43.3746290" lon="-4.5205980">
        <ele>-4.8</ele>
        <time>2021-07-18T08:36:05Z</time>
      </trkpt>
      <trkpt lat="43.3746300" lon="-4.5206070">
        <ele>-4.4</ele>
        <time>2021-07-18T08:36:06Z</time>
      </trkpt>
      <trkpt lat="43.3746290" lon="-4.5206080">
        <ele>-4.0</ele>
        <time>2021-07-18T08:36:07Z</time>
      </trkpt>
      <trkpt lat="43.3745980" lon="-4.5207790">
        <ele>-3.2</ele>
        <time>2021-07-18T08:36:28Z</time>
      </trkpt>
      <trkpt lat="43.3745930" lon="-4.5207990">
        <ele>-3.2</ele>
        <time>2021-07-18T08:36:29Z</time>
      </trkpt>
      <trkpt lat="43.3745890" lon="-4.5208350">
        <ele>-3.2</ele>
        <time>2021-07-18T08:36:31Z</time>
      </trkpt>
      <trkpt lat="43.3745860" lon="-4.5209080">
        <ele>-2.8</ele>
        <time>2021-07-18T08:36:35Z</time>
      </trkpt>
      <trkpt lat="43.3745850" lon="-4.5209250">
        <ele>-2.4</ele>
        <time>2021-07-18T08:36:36Z</time>
      </trkpt>
      <trkpt lat="43.3745870" lon="-4.5209420">
        <ele>-2.0</ele>
        <time>2021-07-18T08:36:37Z</time>
      </trkpt>
      <trkpt lat="43.3745870" lon="-4.5209580">
        <ele>-1.6</ele>
        <time>2021-07-18T08:36:38Z</time>
      </trkpt>
      <trkpt lat="43.3745870" lon="-4.5209730">
        <ele>-1.2</ele>
        <time>2021-07-18T08:36:39Z</time>
      </trkpt>
      <trkpt lat="43.3745870" lon="-4.5209880">
        <ele>-1.2</ele>
        <time>2021-07-18T08:36:40Z</time>
      </trkpt>
      <trkpt lat="43.3745850" lon="-4.5211140">
        <ele>-1.2</ele>
        <time>2021-07-18T08:36:49Z</time>
      </trkpt>
      <trkpt lat="43.3745840" lon="-4.5211350">
        <ele>-0.6</ele>
        <time>2021-07-18T08:36:51Z</time>
      </trkpt>
      <trkpt lat="43.3745840" lon="-4.5211490">
        <ele>-0.2</ele>
        <time>2021-07-18T08:36:52Z</time>
      </trkpt>
      <trkpt lat="43.3745860" lon="-4.5211610">
        <ele>0.2</ele>
        <time>2021-07-18T08:36:53Z</time>
      </trkpt>
      <trkpt lat="43.3745860" lon="-4.5211740">
        <ele>0.6</ele>
        <time>2021-07-18T08:36:54Z</time>
      </trkpt>
      <trkpt lat="43.3745870" lon="-4.5211850">
        <ele>1.0</ele>
        <time>2021-07-18T08:36:55Z</time>
      </trkpt>
      <trkpt lat="43.3745820" lon="-4.5212120">
        <ele>1.0</ele>
        <time>2021-07-18T08:36:58Z</time>
      </trkpt>
      <trkpt lat="43.3745820" lon="-4.5212120">
        <ele>1.0</ele>
        <time>2021-07-18T08:36:59Z</time>
      </trkpt>
      <trkpt lat="43.3745940" lon="-4.5214860">
        <ele>3.2</ele>
        <time>2021-07-18T08:37:46Z</time>
      </trkpt>
      <trkpt lat="43.3745940" lon="-4.5215000">
        <ele>3.2</ele>
        <time>2021-07-18T08:37:47Z</time>
      </trkpt>
      <trkpt lat="43.3745920" lon="-4.5215200">
        <ele>3.2</ele>
        <time>2021-07-18T08:37:48Z</time>
      </trkpt>
      <trkpt lat="43.3745900" lon="-4.5215330">
        <ele>3.6</ele>
        <time>2021-07-18T08:37:49Z</time>
      </trkpt>
      <trkpt lat="43.3745880" lon="-4.5215480">
        <ele>4.0</ele>
        <time>2021-07-18T08:37:50Z</time>
      </trkpt>
      <trkpt lat="43.3745900" lon="-4.5215660">
        <ele>4.4</ele>
        <time>2021-07-18T08:37:51Z</time>
      </trkpt>
      <trkpt lat="43.3745900" lon="-4.5215810">
        <ele>4.8</ele>
        <time>2021-07-18T08:37:52Z</time>
      </trkpt>
      <trkpt lat="43.3745880" lon="-4.5215950">
        <ele>5.2</ele>
        <time>2021-07-18T08:37:53Z</time>
      </trkpt>
      <trkpt lat="43.3745900" lon="-4.5216420">
        <ele>5.2</ele>
        <time>2021-07-18T08:37:56Z</time>
      </trkpt>
      <trkpt lat="43.3745880" lon="-4.5216980">
        <ele>5.2</ele>
        <time>2021-07-18T08:38:00Z</time>
      </trkpt>
      <trkpt lat="43.3745880" lon="-4.5217110">
        <ele>5.2</ele>
        <time>2021-07-18T08:38:01Z</time>
      </trkpt>
      <trkpt lat="43.3745830" lon="-4.5217370">
        <ele>5.6</ele>
        <time>2021-07-18T08:38:03Z</time>
      </trkpt>
      <trkpt lat="43.3745800" lon="-4.5217540">
        <ele>6.0</ele>
        <time>2021-07-18T08:38:04Z</time>
      </trkpt>
      <trkpt lat="43.3745770" lon="-4.5217710">
        <ele>6.4</ele>
        <time>2021-07-18T08:38:05Z</time>
      </trkpt>
      <trkpt lat="43.3745750" lon="-4.5217870">
        <ele>6.8</ele>
        <time>2021-07-18T08:38:06Z</time>
      </trkpt>
      <trkpt lat="43.3745730" lon="-4.5218010">
        <ele>7.4</ele>
        <time>2021-07-18T08:38:07Z</time>
      </trkpt>
      <trkpt lat="43.3745650" lon="-4.5219180">
        <ele>7.4</ele>
        <time>2021-07-18T08:38:15Z</time>
      </trkpt>
      <trkpt lat="43.3745630" lon="-4.5219270">
        <ele>7.4</ele>
        <time>2021-07-18T08:38:16Z</time>
      </trkpt>
      <trkpt lat="43.3745630" lon="-4.5219480">
        <ele>7.8</ele>
        <time>2021-07-18T08:38:18Z</time>
      </trkpt>
      <trkpt lat="43.3745610" lon="-4.5219660">
        <ele>8.6</ele>
        <time>2021-07-18T08:38:19Z</time>
      </trkpt>
      <trkpt lat="43.3745610" lon="-4.5219800">
        <ele>9.0</ele>
        <time>2021-07-18T08:38:20Z</time>
      </trkpt>
      <trkpt lat="43.3745550" lon="-4.5219940">
        <ele>9.4</ele>
        <time>2021-07-18T08:38:21Z</time>
      </trkpt>
      <trkpt lat="43.3745520" lon="-4.5220180">
        <ele>9.4</ele>
        <time>2021-07-18T08:38:23Z</time>
      </trkpt>
      <trkpt lat="43.3745490" lon="-4.5221630">
        <ele>10.0</ele>
        <time>2021-07-18T08:38:34Z</time>
      </trkpt>
      <trkpt lat="43.3745450" lon="-4.5221700">
        <ele>10.4</ele>
        <time>2021-07-18T08:38:35Z</time>
      </trkpt>
      <trkpt lat="43.3745440" lon="-4.5221790">
        <ele>10.8</ele>
        <time>2021-07-18T08:38:36Z</time>
      </trkpt>
      <trkpt lat="43.3745420" lon="-4.5221850">
        <ele>11.2</ele>
        <time>2021-07-18T08:38:37Z</time>
      </trkpt>
      <trkpt lat="43.3745410" lon="-4.5221950">
        <ele>11.6</ele>
        <time>2021-07-18T08:38:38Z</time>
      </trkpt>
      <trkpt lat="43.3745400" lon="-4.5222430">
        <ele>11.6</ele>
        <time>2021-07-18T08:38:43Z</time>
      </trkpt>
      <trkpt lat="43.3745300" lon="-4.5223320">
        <ele>12.0</ele>
        <time>2021-07-18T08:38:51Z</time>
      </trkpt>
      <trkpt lat="43.3745290" lon="-4.5223440">
        <ele>12.6</ele>
        <time>2021-07-18T08:38:52Z</time>
      </trkpt>
      <trkpt lat="43.3745270" lon="-4.5223560">
        <ele>13.0</ele>
        <time>2021-07-18T08:38:53Z</time>
      </trkpt>
      <trkpt lat="43.3745260" lon="-4.5223690">
        <ele>13.4</ele>
        <time>2021-07-18T08:38:54Z</time>
      </trkpt>
      <trkpt lat="43.3745240" lon="-4.5223800">
        <ele>13.8</ele>
        <time>2021-07-18T08:38:55Z</time>
      </trkpt>
      <trkpt lat="43.3745220" lon="-4.5224580">
        <ele>13.8</ele>
        <time>2021-07-18T08:39:02Z</time>
      </trkpt>
      <trkpt lat="43.3745250" lon="-4.5225270">
        <ele>14.2</ele>
        <time>2021-07-18T08:39:07Z</time>
      </trkpt>
      <trkpt lat="43.3745220" lon="-4.5225390">
        <ele>15.0</ele>
        <time>2021-07-18T08:39:08Z</time>
      </trkpt>
      <trkpt lat="43.3745210" lon="-4.5225520">
        <ele>15.4</ele>
        <time>2021-07-18T08:39:09Z</time>
      </trkpt>
      <trkpt lat="43.3745220" lon="-4.5225620">
        <ele>15.8</ele>
        <time>2021-07-18T08:39:10Z</time>
      </trkpt>
      <trkpt lat="43.3745220" lon="-4.5225970">
        <ele>15.8</ele>
        <time>2021-07-18T08:39:13Z</time>
      </trkpt>
      <trkpt lat="43.3745230" lon="-4.5226980">
        <ele>16.2</ele>
        <time>2021-07-18T08:39:21Z</time>
      </trkpt>
      <trkpt lat="43.3745240" lon="-4.5227100">
        <ele>16.8</ele>
        <time>2021-07-18T08:39:22Z</time>
      </trkpt>
      <trkpt lat="43.3745260" lon="-4.5227280">
        <ele>17.2</ele>
        <time>2021-07-18T08:39:23Z</time>
      </trkpt>
      <trkpt lat="43.3745270" lon="-4.5227400">
        <ele>17.6</ele>
        <time>2021-07-18T08:39:24Z</time>
      </trkpt>
      <trkpt lat="43.3745280" lon="-4.5227500">
        <ele>18.0</ele>
        <time>2021-07-18T08:39:25Z</time>
      </trkpt>
      <trkpt lat="43.3745330" lon="-4.5228320">
        <ele>18.0</ele>
        <time>2021-07-18T08:39:31Z</time>
      </trkpt>
      <trkpt lat="43.3745470" lon="-4.5229030">
        <ele>18.4</ele>
        <time>2021-07-18T08:39:36Z</time>
      </trkpt>
      <trkpt lat="43.3745520" lon="-4.5229190">
        <ele>18.8</ele>
        <time>2021-07-18T08:39:37Z</time>
      </trkpt>
      <trkpt lat="43.3745570" lon="-4.5229360">
        <ele>19.2</ele>
        <time>2021-07-18T08:39:38Z</time>
      </trkpt>
      <trkpt lat="43.3745580" lon="-4.5229540">
        <ele>19.6</ele>
        <time>2021-07-18T08:39:39Z</time>
      </trkpt>
      <trkpt lat="43.3745590" lon="-4.5229720">
        <ele>20.0</ele>
        <time>2021-07-18T08:39:40Z</time>
      </trkpt>
      <trkpt lat="43.3745640" lon="-4.5230060">
        <ele>20.0</ele>
        <time>2021-07-18T08:39:42Z</time>
      </trkpt>
      <trkpt lat="43.3745800" lon="-4.5231510">
        <ele>20.0</ele>
        <time>2021-07-18T08:39:52Z</time>
      </trkpt>
      <trkpt lat="43.3745840" lon="-4.5231780">
        <ele>20.4</ele>
        <time>2021-07-18T08:39:54Z</time>
      </trkpt>
      <trkpt lat="43.3745870" lon="-4.5231900">
        <ele>20.8</ele>
        <time>2021-07-18T08:39:55Z</time>
      </trkpt>
      <trkpt lat="43.3745890" lon="-4.5232040">
        <ele>21.2</ele>
        <time>2021-07-18T08:39:56Z</time>
      </trkpt>
      <trkpt lat="43.3745890" lon="-4.5232200">
        <ele>21.6</ele>
        <time>2021-07-18T08:39:57Z</time>
      </trkpt>
      <trkpt lat="43.3745900" lon="-4.5232360">
        <ele>22.2</ele>
        <time>2021-07-18T08:39:58Z</time>
      </trkpt>
      <trkpt lat="43.3745990" lon="-4.5232980">
        <ele>22.2</ele>
        <time>2021-07-18T08:40:02Z</time>
      </trkpt>
      <trkpt lat="43.3746080" lon="-4.5234230">
        <ele>22.2</ele>
        <time>2021-07-18T08:40:10Z</time>
      </trkpt>
      <trkpt lat="43.3746130" lon="-4.5234560">
        <ele>22.6</ele>
        <time>2021-07-18T08:40:12Z</time>
      </trkpt>
      <trkpt lat="43.3746160" lon="-4.5234740">
        <ele>23.0</ele>
        <time>2021-07-18T08:40:13Z</time>
      </trkpt>
      <trkpt lat="43.3746180" lon="-4.5234890">
        <ele>23.4</ele>
        <time>2021-07-18T08:40:14Z</time>
      </trkpt>
      <trkpt lat="43.3746210" lon="-4.5235000">
        <ele>23.8</ele>
        <time>2021-07-18T08:40:15Z</time>
      </trkpt>
      <trkpt lat="43.3746250" lon="-4.5235150">
        <ele>24.2</ele>
        <time>2021-07-18T08:40:16Z</time>
      </trkpt>
      <trkpt lat="43.3746280" lon="-4.5235460">
        <ele>24.2</ele>
        <time>2021-07-18T08:40:18Z</time>
      </trkpt>
      <trkpt lat="43.3746360" lon="-4.5236620">
        <ele>24.2</ele>
        <time>2021-07-18T08:40:27Z</time>
      </trkpt>
      <trkpt lat="43.3746380" lon="-4.5236700">
        <ele>24.6</ele>
        <time>2021-07-18T08:40:28Z</time>
      </trkpt>
      <trkpt lat="43.3746400" lon="-4.5236820">
        <ele>25.0</ele>
        <time>2021-07-18T08:40:29Z</time>
      </trkpt>
      <trkpt lat="43.3746380" lon="-4.5236940">
        <ele>25.4</ele>
        <time>2021-07-18T08:40:30Z</time>
      </trkpt>
      <trkpt lat="43.3746380" lon="-4.5237080">
        <ele>25.8</ele>
        <time>2021-07-18T08:40:31Z</time>
      </trkpt>
      <trkpt lat="43.3746390" lon="-4.5237210">
        <ele>26.2</ele>
        <time>2021-07-18T08:40:32Z</time>
      </trkpt>
      <trkpt lat="43.3746410" lon="-4.5237830">
        <ele>26.2</ele>
        <time>2021-07-18T08:40:38Z</time>
      </trkpt>
      <trkpt lat="43.3746340" lon="-4.5238420">
        <ele>26.6</ele>
        <time>2021-07-18T08:40:43Z</time>
      </trkpt>
      <trkpt lat="43.3746350" lon="-4.5238670">
        <ele>27.0</ele>
        <time>2021-07-18T08:40:44Z</time>
      </trkpt>
      <trkpt lat="43.3746350" lon="-4.5238800">
        <ele>27.4</ele>
        <time>2021-07-18T08:40:45Z</time>
      </trkpt>
      <trkpt lat="43.3746340" lon="-4.5238860">
        <ele>27.8</ele>
        <time>2021-07-18T08:40:46Z</time>
      </trkpt>
      <trkpt lat="43.3746340" lon="-4.5239060">
        <ele>28.2</ele>
        <time>2021-07-18T08:40:47Z</time>
      </trkpt>
      <trkpt lat="43.3746370" lon="-4.5239860">
        <ele>28.2</ele>
        <time>2021-07-18T08:40:54Z</time>
      </trkpt>
      <trkpt lat="43.3746420" lon="-4.5240070">
        <ele>28.6</ele>
        <time>2021-07-18T08:40:56Z</time>
      </trkpt>
      <trkpt lat="43.3746420" lon="-4.5240290">
        <ele>29.2</ele>
        <time>2021-07-18T08:40:57Z</time>
      </trkpt>
      <trkpt lat="43.3746420" lon="-4.5240440">
        <ele>29.6</ele>
        <time>2021-07-18T08:40:58Z</time>
      </trkpt>
      <trkpt lat="43.3746450" lon="-4.5240460">
        <ele>30.0</ele>
        <time>2021-07-18T08:40:59Z</time>
      </trkpt>
      <trkpt lat="43.3746490" lon="-4.5240570">
        <ele>30.4</ele>
        <time>2021-07-18T08:41:00Z</time>
      </trkpt>
      <trkpt lat="43.3746500" lon="-4.5240730">
        <ele>30.4</ele>
        <time>2021-07-18T08:41:01Z</time>
      </trkpt>
      <trkpt lat="43.3746410" lon="-4.5241570">
        <ele>30.4</ele>
        <time>2021-07-18T08:41:09Z</time>
      </trkpt>
      <trkpt lat="43.3746450" lon="-4.5242090">
        <ele>30.8</ele>
        <time>2021-07-18T08:41:13Z</time>
      </trkpt>
      <trkpt lat="43.3746460" lon="-4.5242240">
        <ele>31.2</ele>
        <time>2021-07-18T08:41:14Z</time>
      </trkpt>
      <trkpt lat="43.3746460" lon="-4.5242360">
        <ele>31.8</ele>
        <time>2021-07-18T08:41:15Z</time>
      </trkpt>
      <trkpt lat="43.3746470" lon="-4.5242390">
        <ele>32.2</ele>
        <time>2021-07-18T08:41:16Z</time>
      </trkpt>
      <trkpt lat="43.3746430" lon="-4.5245330">
        <ele>34.6</ele>
        <time>2021-07-18T08:45:04Z</time>
      </trkpt>
      <trkpt lat="43.3746440" lon="-4.5245460">
        <ele>34.6</ele>
        <time>2021-07-18T08:45:05Z</time>
      </trkpt>
      <trkpt lat="43.3746490" lon="-4.5246480">
        <ele>34.6</ele>
        <time>2021-07-18T08:45:11Z</time>
      </trkpt>
      <trkpt lat="43.3746500" lon="-4.5247030">
        <ele>35.0</ele>
        <time>2021-07-18T08:45:14Z</time>
      </trkpt>
      <trkpt lat="43.3746500" lon="-4.5247190">
        <ele>35.4</ele>
        <time>2021-07-18T08:45:15Z</time>
      </trkpt>
      <trkpt lat="43.3746510" lon="-4.5247360">
        <ele>35.8</ele>
        <time>2021-07-18T08:45:16Z</time>
      </trkpt>
      <trkpt lat="43.3746510" lon="-4.5247560">
        <ele>36.2</ele>
        <time>2021-07-18T08:45:17Z</time>
      </trkpt>
      <trkpt lat="43.3746510" lon="-4.5247730">
        <ele>36.6</ele>
        <time>2021-07-18T08:45:18Z</time>
      </trkpt>
      <trkpt lat="43.3746450" lon="-4.5248010">
        <ele>36.6</ele>
        <time>2021-07-18T08:45:21Z</time>
      </trkpt>
      <trkpt lat="43.3746540" lon="-4.5249170">
        <ele>36.6</ele>
        <time>2021-07-18T08:45:36Z</time>
      </trkpt>
      <trkpt lat="43.3746550" lon="-4.5249340">
        <ele>36.6</ele>
        <time>2021-07-18T08:45:37Z</time>
      </trkpt>
      <trkpt lat="43.3746580" lon="-4.5249730">
        <ele>36.6</ele>
        <time>2021-07-18T08:45:40Z</time>
      </trkpt>
      <trkpt lat="43.3746570" lon="-4.5250100">
        <ele>37.0</ele>
        <time>2021-07-18T08:45:42Z</time>
      </trkpt>
      <trkpt lat="43.3746590" lon="-4.5250270">
        <ele>37.4</ele>
        <time>2021-07-18T08:45:43Z</time>
      </trkpt>
      <trkpt lat="43.3746590" lon="-4.5250430">
        <ele>38.2</ele>
        <time>2021-07-18T08:45:44Z</time>
      </trkpt>
      <trkpt lat="43.3746590" lon="-4.5250620">
        <ele>38.6</ele>
        <time>2021-07-18T08:45:45Z</time>
      </trkpt>
      <trkpt lat="43.3746560" lon="-4.5251300">
        <ele>38.6</ele>
        <time>2021-07-18T08:45:49Z</time>
      </trkpt>
      <trkpt lat="43.3746580" lon="-4.5251890">
        <ele>38.6</ele>
        <time>2021-07-18T08:45:53Z</time>
      </trkpt>
      <trkpt lat="43.3746580" lon="-4.5252450">
        <ele>38.6</ele>
        <time>2021-07-18T08:45:56Z</time>
      </trkpt>
      <trkpt lat="43.3746580" lon="-4.5252740">
        <ele>39.0</ele>
        <time>2021-07-18T08:45:58Z</time>
      </trkpt>
      <trkpt lat="43.3746570" lon="-4.5252900">
        <ele>39.6</ele>
        <time>2021-07-18T08:45:59Z</time>
      </trkpt>
      <trkpt lat="43.3746570" lon="-4.5253010">
        <ele>40.0</ele>
        <time>2021-07-18T08:46:00Z</time>
      </trkpt>
      <trkpt lat="43.3746590" lon="-4.5253130">
        <ele>40.4</ele>
        <time>2021-07-18T08:46:01Z</time>
      </trkpt>
      <trkpt lat="43.3746590" lon="-4.5253250">
        <ele>40.8</ele>
        <time>2021-07-18T08:46:02Z</time>
      </trkpt>
      <trkpt lat="43.3746620" lon="-4.5253690">
        <ele>40.8</ele>
        <time>2021-07-18T08:46:05Z</time>
      </trkpt>
      <trkpt lat="43.3746680" lon="-4.5254380">
        <ele>41.2</ele>
        <time>2021-07-18T08:46:10Z</time>
      </trkpt>
      <trkpt lat="43.3746680" lon="-4.5254540">
        <ele>41.6</ele>
        <time>2021-07-18T08:46:11Z</time>
      </trkpt>
      <trkpt lat="43.3746690" lon="-4.5254680">
        <ele>42.2</ele>
        <time>2021-07-18T08:46:12Z</time>
      </trkpt>
      <trkpt lat="43.3746700" lon="-4.5254810">
        <ele>42.6</ele>
        <time>2021-07-18T08:46:13Z</time>
      </trkpt>
      <trkpt lat="43.3746680" lon="-4.5254940">
        <ele>43.0</ele>
        <time>2021-07-18T08:46:14Z</time>
      </trkpt>
      <trkpt lat="43.3746560" lon="-4.5256450">
        <ele>43.0</ele>
        <time>2021-07-18T08:46:24Z</time>
      </trkpt>
      <trkpt lat="43.3746560" lon="-4.5256580">
        <ele>43.4</ele>
        <time>2021-07-18T08:46:25Z</time>
      </trkpt>
      <trkpt lat="43.3746540" lon="-4.5256710">
        <ele>43.8</ele>
        <time>2021-07-18T08:46:26Z</time>
      </trkpt>
      <trkpt lat="43.3746520" lon="-4.5256900">
        <ele>44.2</ele>
        <time>2021-07-18T08:46:27Z</time>
      </trkpt>
      <trkpt lat="43.3746530" lon="-4.5257050">
        <ele>44.6</ele>
        <time>2021-07-18T08:46:28Z</time>
      </trkpt>
      <trkpt lat="43.3746520" lon="-4.5257210">
        <ele>45.2</ele>
        <time>2021-07-18T08:46:29Z</time>
      </trkpt>
      <trkpt lat="43.3746570" lon="-4.5257990">
        <ele>45.2</ele>
        <time>2021-07-18T08:46:34Z</time>
      </trkpt>
      <trkpt lat="43.3746560" lon="-4.5258390">
        <ele>45.6</ele>
        <time>2021-07-18T08:46:37Z</time>
      </trkpt>
      <trkpt lat="43.3746540" lon="-4.5258550">
        <ele>46.0</ele>
        <time>2021-07-18T08:46:38Z</time>
      </trkpt>
      <trkpt lat="43.3746510" lon="-4.5258720">
        <ele>46.4</ele>
        <time>2021-07-18T08:46:39Z</time>
      </trkpt>
      <trkpt lat="43.3746530" lon="-4.5258850">
        <ele>46.8</ele>
        <time>2021-07-18T08:46:40Z</time>
      </trkpt>
      <trkpt lat="43.3746520" lon="-4.5259000">
        <ele>47.2</ele>
        <time>2021-07-18T08:46:41Z</time>
      </trkpt>
      <trkpt lat="43.3746500" lon="-4.5259510">
        <ele>47.2</ele>
        <time>2021-07-18T08:46:44Z</time>
      </trkpt>
      <trkpt lat="43.3746480" lon="-4.5261000">
        <ele>47.6</ele>
        <time>2021-07-18T08:46:53Z</time>
      </trkpt>
      <trkpt lat="43.3746470" lon="-4.5261170">
        <ele>48.0</ele>
        <time>2021-07-18T08:46:54Z</time>
      </trkpt>
      <trkpt lat="43.3746470" lon="-4.5261300">
        <ele>48.6</ele>
        <time>2021-07-18T08:46:55Z</time>
      </trkpt>
      <trkpt lat="43.3746480" lon="-4.5261470">
        <ele>49.0</ele>
        <time>2021-07-18T08:46:56Z</time>
      </trkpt>
      <trkpt lat="43.3746510" lon="-4.5261610">
        <ele>49.4</ele>
        <time>2021-07-18T08:46:57Z</time>
      </trkpt>
      <trkpt lat="43.3746570" lon="-4.5262510">
        <ele>49.4</ele>
        <time>2021-07-18T08:47:03Z</time>
      </trkpt>
      <trkpt lat="43.3746590" lon="-4.5262950">
        <ele>49.8</ele>
        <time>2021-07-18T08:47:06Z</time>
      </trkpt>
      <trkpt lat="43.3746580" lon="-4.5263140">
        <ele>50.2</ele>
        <time>2021-07-18T08:47:07Z</time>
      </trkpt>
      <trkpt lat="43.3746570" lon="-4.5263310">
        <ele>50.6</ele>
        <time>2021-07-18T08:47:08Z</time>
      </trkpt>
      <trkpt lat="43.3746590" lon="-4.5263450">
        <ele>51.0</ele>
        <time>2021-07-18T08:47:09Z</time>
      </trkpt>
      <trkpt lat="43.3746550" lon="-4.5263610">
        <ele>51.4</ele>
        <time>2021-07-18T08:47:10Z</time>
      </trkpt>
      <trkpt lat="43.3746510" lon="-4.5264060">
        <ele>51.4</ele>
        <time>2021-07-18T08:47:13Z</time>
      </trkpt>
      <trkpt lat="43.3746400" lon="-4.5265380">
        <ele>51.8</ele>
        <time>2021-07-18T08:47:21Z</time>
      </trkpt>
      <trkpt lat="43.3746370" lon="-4.5265530">
        <ele>52.2</ele>
        <time>2021-07-18T08:47:22Z</time>
      </trkpt>
      <trkpt lat="43.3746360" lon="-4.5265700">
        <ele>53.0</ele>
        <time>2021-07-18T08:47:23Z</time>
      </trkpt>
      <trkpt lat="43.3746330" lon="-4.5265880">
        <ele>53.4</ele>
        <time>2021-07-18T08:47:24Z</time>
      </trkpt>
      <trkpt lat="43.3746080" lon="-4.5267500">
        <ele>53.4</ele>
        <time>2021-07-18T08:47:34Z</time>
      </trkpt>
      <trkpt lat="43.3745900" lon="-4.5268450">
        <ele>54.0</ele>
        <time>2021-07-18T08:47:40Z</time>
      </trkpt>
      <trkpt lat="43.3745870" lon="-4.5268600">
        <ele>54.4</ele>
        <time>2021-07-18T08:47:41Z</time>
      </trkpt>
      <trkpt lat="43.3745850" lon="-4.5268760">
        <ele>54.8</ele>
        <time>2021-07-18T08:47:42Z</time>
      </trkpt>
      <trkpt lat="43.3745850" lon="-4.5268940">
        <ele>55.2</ele>
        <time>2021-07-18T08:47:43Z</time>
      </trkpt>
      <trkpt lat="43.3745840" lon="-4.5269110">
        <ele>55.6</ele>
        <time>2021-07-18T08:47:44Z</time>
      </trkpt>
      <trkpt lat="43.3745820" lon="-4.5269260">
        <ele>55.6</ele>
        <time>2021-07-18T08:47:45Z</time>
      </trkpt>
      <trkpt lat="43.3745620" lon="-4.5270820">
        <ele>55.6</ele>
        <time>2021-07-18T08:47:55Z</time>
      </trkpt>
      <trkpt lat="43.3745600" lon="-4.5270960">
        <ele>56.0</ele>
        <time>2021-07-18T08:47:56Z</time>
      </trkpt>
      <trkpt lat="43.3745590" lon="-4.5271120">
        <ele>56.4</ele>
        <time>2021-07-18T08:47:57Z</time>
      </trkpt>
      <trkpt lat="43.3745570" lon="-4.5271280">
        <ele>56.8</ele>
        <time>2021-07-18T08:47:58Z</time>
      </trkpt>
      <trkpt lat="43.3745560" lon="-4.5271430">
        <ele>57.2</ele>
        <time>2021-07-18T08:47:59Z</time>
      </trkpt>
      <trkpt lat="43.3745550" lon="-4.5271580">
        <ele>57.8</ele>
        <time>2021-07-18T08:48:00Z</time>
      </trkpt>
      <trkpt lat="43.3745550" lon="-4.5271750">
        <ele>57.8</ele>
        <time>2021-07-18T08:48:01Z</time>
      </trkpt>
      <trkpt lat="43.3745470" lon="-4.5272440">
        <ele>57.8</ele>
        <time>2021-07-18T08:48:05Z</time>
      </trkpt>
      <trkpt lat="43.3745470" lon="-4.5273630">
        <ele>58.2</ele>
        <time>2021-07-18T08:48:12Z</time>
      </trkpt>
      <trkpt lat="43.3745460" lon="-4.5273860">
        <ele>58.6</ele>
        <time>2021-07-18T08:48:13Z</time>
      </trkpt>
      <trkpt lat="43.3745460" lon="-4.5274050">
        <ele>59.0</ele>
        <time>2021-07-18T08:48:14Z</time>
      </trkpt>
      <trkpt lat="43.3745470" lon="-4.5274230">
        <ele>59.4</ele>
        <time>2021-07-18T08:48:15Z</time>
      </trkpt>
      <trkpt lat="43.3745480" lon="-4.5274410">
        <ele>59.8</ele>
        <time>2021-07-18T08:48:16Z</time>
      </trkpt>
      <trkpt lat="43.3745730" lon="-4.5276250">
        <ele>59.8</ele>
        <time>2021-07-18T08:48:26Z</time>
      </trkpt>
      <trkpt lat="43.3745900" lon="-4.5277500">
        <ele>60.2</ele>
        <time>2021-07-18T08:48:33Z</time>
      </trkpt>
      <trkpt lat="43.3745910" lon="-4.5277680">
        <ele>60.6</ele>
        <time>2021-07-18T08:48:34Z</time>
      </trkpt>
      <trkpt lat="43.3745920" lon="-4.5277860">
        <ele>61.0</ele>
        <time>2021-07-18T08:48:35Z</time>
      </trkpt>
      <trkpt lat="43.3745930" lon="-4.5278050">
        <ele>61.4</ele>
        <time>2021-07-18T08:48:36Z</time>
      </trkpt>
      <trkpt lat="43.3745950" lon="-4.5278230">
        <ele>61.8</ele>
        <time>2021-07-18T08:48:37Z</time>
      </trkpt>
      <trkpt lat="43.3746190" lon="-4.5280030">
        <ele>61.8</ele>
        <time>2021-07-18T08:48:47Z</time>
      </trkpt>
      <trkpt lat="43.3746280" lon="-4.5280640">
        <ele>62.2</ele>
        <time>2021-07-18T08:48:51Z</time>
      </trkpt>
      <trkpt lat="43.3746300" lon="-4.5280780">
        <ele>62.6</ele>
        <time>2021-07-18T08:48:52Z</time>
      </trkpt>
      <trkpt lat="43.3746340" lon="-4.5280930">
        <ele>63.0</ele>
        <time>2021-07-18T08:48:53Z</time>
      </trkpt>
      <trkpt lat="43.3746390" lon="-4.5281070">
        <ele>63.4</ele>
        <time>2021-07-18T08:48:54Z</time>
      </trkpt>
      <trkpt lat="43.3746430" lon="-4.5281210">
        <ele>63.8</ele>
        <time>2021-07-18T08:48:55Z</time>
      </trkpt>
      <trkpt lat="43.3746740" lon="-4.5282580">
        <ele>63.8</ele>
        <time>2021-07-18T08:49:03Z</time>
      </trkpt>
      <trkpt lat="43.3746900" lon="-4.5283690">
        <ele>64.2</ele>
        <time>2021-07-18T08:49:09Z</time>
      </trkpt>
      <trkpt lat="43.3746910" lon="-4.5283920">
        <ele>64.6</ele>
        <time>2021-07-18T08:49:10Z</time>
      </trkpt>
      <trkpt lat="43.3746910" lon="-4.5284130">
        <ele>65.0</ele>
        <time>2021-07-18T08:49:11Z</time>
      </trkpt>
      <trkpt lat="43.3746900" lon="-4.5284340">
        <ele>65.4</ele>
        <time>2021-07-18T08:49:12Z</time>
      </trkpt>
      <trkpt lat="43.3746910" lon="-4.5284520">
        <ele>65.8</ele>
        <time>2021-07-18T08:49:13Z</time>
      </trkpt>
      <trkpt lat="43.3747050" lon="-4.5286410">
        <ele>65.8</ele>
        <time>2021-07-18T08:49:23Z</time>
      </trkpt>
      <trkpt lat="43.3747220" lon="-4.5287380">
        <ele>66.2</ele>
        <time>2021-07-18T08:49:28Z</time>
      </trkpt>
      <trkpt lat="43.3747250" lon="-4.5287560">
        <ele>66.6</ele>
        <time>2021-07-18T08:49:29Z</time>
      </trkpt>
      <trkpt lat="43.3747270" lon="-4.5287730">
        <ele>67.0</ele>
        <time>2021-07-18T08:49:30Z</time>
      </trkpt>
      <trkpt lat="43.3747290" lon="-4.5287890">
        <ele>67.4</ele>
        <time>2021-07-18T08:49:31Z</time>
      </trkpt>
      <trkpt lat="43.3747290" lon="-4.5288060">
        <ele>67.8</ele>
        <time>2021-07-18T08:49:32Z</time>
      </trkpt>
      <trkpt lat="43.3747290" lon="-4.5288440">
        <ele>67.8</ele>
        <time>2021-07-18T08:49:34Z</time>
      </trkpt>
      <trkpt lat="43.3747350" lon="-4.5289800">
        <ele>67.8</ele>
        <time>2021-07-18T08:49:42Z</time>
      </trkpt>
      <trkpt lat="43.3747400" lon="-4.5291100">
        <ele>68.2</ele>
        <time>2021-07-18T08:49:49Z</time>
      </trkpt>
      <trkpt lat="43.3747410" lon="-4.5291290">
        <ele>68.8</ele>
        <time>2021-07-18T08:49:50Z</time>
      </trkpt>
      <trkpt lat="43.3747400" lon="-4.5291490">
        <ele>69.6</ele>
        <time>2021-07-18T08:49:51Z</time>
      </trkpt>
      <trkpt lat="43.3747410" lon="-4.5291690">
        <ele>70.0</ele>
        <time>2021-07-18T08:49:52Z</time>
      </trkpt>
      <trkpt lat="43.3747400" lon="-4.5293300">
        <ele>70.0</ele>
        <time>2021-07-18T08:50:01Z</time>
      </trkpt>
      <trkpt lat="43.3747350" lon="-4.5294520">
        <ele>70.4</ele>
        <time>2021-07-18T08:50:08Z</time>
      </trkpt>
      <trkpt lat="43.3747360" lon="-4.5294580">
        <ele>70.8</ele>
        <time>2021-07-18T08:50:09Z</time>
      </trkpt>
      <trkpt lat="43.3747330" lon="-4.5294760">
        <ele>72.2</ele>
        <time>2021-07-18T08:50:27Z</time>
      </trkpt>
      <trkpt lat="43.3747310" lon="-4.5295000">
        <ele>72.2</ele>
        <time>2021-07-18T08:50:28Z</time>
      </trkpt>
      <trkpt lat="43.3747310" lon="-4.5296650">
        <ele>72.2</ele>
        <time>2021-07-18T08:50:35Z</time>
      </trkpt>
      <trkpt lat="43.3747290" lon="-4.5297220">
        <ele>72.2</ele>
        <time>2021-07-18T08:50:37Z</time>
      </trkpt>
      <trkpt lat="43.3747190" lon="-4.5298770">
        <ele>72.6</ele>
        <time>2021-07-18T08:50:42Z</time>
      </trkpt>
      <trkpt lat="43.3747190" lon="-4.5299100">
        <ele>73.0</ele>
        <time>2021-07-18T08:50:43Z</time>
      </trkpt>
      <trkpt lat="43.3747190" lon="-4.5299430">
        <ele>73.4</ele>
        <time>2021-07-18T08:50:44Z</time>
      </trkpt>
      <trkpt lat="43.3747190" lon="-4.5299760">
        <ele>73.8</ele>
        <time>2021-07-18T08:50:45Z</time>
      </trkpt>
      <trkpt lat="43.3747200" lon="-4.5300080">
        <ele>74.2</ele>
        <time>2021-07-18T08:50:46Z</time>
      </trkpt>
      <trkpt lat="43.3747080" lon="-4.5302170">
        <ele>74.2</ele>
        <time>2021-07-18T08:50:53Z</time>
      </trkpt>
      <trkpt lat="43.3746780" lon="-4.5304210">
        <ele>74.6</ele>
        <time>2021-07-18T08:51:00Z</time>
      </trkpt>
      <trkpt lat="43.3746730" lon="-4.5304490">
        <ele>75.0</ele>
        <time>2021-07-18T08:51:01Z</time>
      </trkpt>
      <trkpt lat="43.3746690" lon="-4.5304790">
        <ele>75.4</ele>
        <time>2021-07-18T08:51:02Z</time>
      </trkpt>
      <trkpt lat="43.3746660" lon="-4.5305070">
        <ele>75.8</ele>
        <time>2021-07-18T08:51:03Z</time>
      </trkpt>
      <trkpt lat="43.3746600" lon="-4.5305370">
        <ele>76.4</ele>
        <time>2021-07-18T08:51:04Z</time>
      </trkpt>
      <trkpt lat="43.3746290" lon="-4.5307100">
        <ele>76.4</ele>
        <time>2021-07-18T08:51:10Z</time>
      </trkpt>
      <trkpt lat="43.3746140" lon="-4.5308540">
        <ele>76.4</ele>
        <time>2021-07-18T08:51:16Z</time>
      </trkpt>
      <trkpt lat="43.3746050" lon="-4.5310520">
        <ele>76.4</ele>
        <time>2021-07-18T08:51:23Z</time>
      </trkpt>
      <trkpt lat="43.3746070" lon="-4.5310820">
        <ele>76.4</ele>
        <time>2021-07-18T08:51:24Z</time>
      </trkpt>
      <trkpt lat="43.3746040" lon="-4.5311330">
        <ele>76.8</ele>
        <time>2021-07-18T08:51:26Z</time>
      </trkpt>
      <trkpt lat="43.3746030" lon="-4.5311550">
        <ele>77.2</ele>
        <time>2021-07-18T08:51:27Z</time>
      </trkpt>
      <trkpt lat="43.3746020" lon="-4.5311750">
        <ele>77.6</ele>
        <time>2021-07-18T08:51:28Z</time>
      </trkpt>
      <trkpt lat="43.3746010" lon="-4.5311930">
        <ele>78.4</ele>
        <time>2021-07-18T08:51:29Z</time>
      </trkpt>
      <trkpt lat="43.3745990" lon="-4.5312120">
        <ele>78.4</ele>
        <time>2021-07-18T08:51:30Z</time>
      </trkpt>
      <trkpt lat="43.3745980" lon="-4.5312510">
        <ele>78.4</ele>
        <time>2021-07-18T08:51:32Z</time>
      </trkpt>
      <trkpt lat="43.3746000" lon="-4.5313060">
        <ele>78.4</ele>
        <time>2021-07-18T08:51:35Z</time>
      </trkpt>
      <trkpt lat="43.3746010" lon="-4.5313860">
        <ele>78.4</ele>
        <time>2021-07-18T08:51:39Z</time>
      </trkpt>
      <trkpt lat="43.3746000" lon="-4.5314060">
        <ele>78.4</ele>
        <time>2021-07-18T08:51:41Z</time>
      </trkpt>
      <trkpt lat="43.3745980" lon="-4.5314350">
        <ele>78.4</ele>
        <time>2021-07-18T08:52:27Z</time>
      </trkpt>
      <trkpt lat="43.3745980" lon="-4.5314500">
        <ele>78.4</ele>
        <time>2021-07-18T08:52:28Z</time>
      </trkpt>
      <trkpt lat="43.3745940" lon="-4.5315880">
        <ele>78.4</ele>
        <time>2021-07-18T08:52:33Z</time>
      </trkpt>
      <trkpt lat="43.3745920" lon="-4.5317680">
        <ele>78.4</ele>
        <time>2021-07-18T08:52:38Z</time>
      </trkpt>
      <trkpt lat="43.3745890" lon="-4.5318540">
        <ele>78.4</ele>
        <time>2021-07-18T08:52:40Z</time>
      </trkpt>
      <trkpt lat="43.3745910" lon="-4.5319780">
        <ele>78.4</ele>
        <time>2021-07-18T08:52:43Z</time>
      </trkpt>
      <trkpt lat="43.3745980" lon="-4.5322490">
        <ele>78.4</ele>
        <time>2021-07-18T08:52:50Z</time>
      </trkpt>
      <trkpt lat="43.3746000" lon="-4.5323640">
        <ele>78.4</ele>
        <time>2021-07-18T08:52:53Z</time>
      </trkpt>
      <trkpt lat="43.3746050" lon="-4.5325220">
        <ele>78.8</ele>
        <time>2021-07-18T08:52:57Z</time>
      </trkpt>
      <trkpt lat="43.3746080" lon="-4.5325600">
        <ele>79.2</ele>
        <time>2021-07-18T08:52:58Z</time>
      </trkpt>
      <trkpt lat="43.3746130" lon="-4.5325980">
        <ele>79.6</ele>
        <time>2021-07-18T08:52:59Z</time>
      </trkpt>
      <trkpt lat="43.3746150" lon="-4.5326370">
        <ele>80.0</ele>
        <time>2021-07-18T08:53:00Z</time>
      </trkpt>
      <trkpt lat="43.3746170" lon="-4.5326760">
        <ele>80.4</ele>
        <time>2021-07-18T08:53:01Z</time>
      </trkpt>
      <trkpt lat="43.3746310" lon="-4.5328740">
        <ele>80.4</ele>
        <time>2021-07-18T08:53:06Z</time>
      </trkpt>
      <trkpt lat="43.3746600" lon="-4.5332000">
        <ele>80.4</ele>
        <time>2021-07-18T08:53:15Z</time>
      </trkpt>
      <trkpt lat="43.3746920" lon="-4.5334070">
        <ele>80.4</ele>
        <time>2021-07-18T08:53:21Z</time>
      </trkpt>
      <trkpt lat="43.3746720" lon="-4.5336280">
        <ele>80.4</ele>
        <time>2021-07-18T08:53:28Z</time>
      </trkpt>
      <trkpt lat="43.3746540" lon="-4.5338210">
        <ele>80.4</ele>
        <time>2021-07-18T08:53:34Z</time>
      </trkpt>
      <trkpt lat="43.3746320" lon="-4.5339230">
        <ele>80.4</ele>
        <time>2021-07-18T08:53:37Z</time>
      </trkpt>
      <trkpt lat="43.3746280" lon="-4.5339570">
        <ele>80.8</ele>
        <time>2021-07-18T08:53:38Z</time>
      </trkpt>
      <trkpt lat="43.3746250" lon="-4.5339920">
        <ele>81.2</ele>
        <time>2021-07-18T08:53:39Z</time>
      </trkpt>
      <trkpt lat="43.3746250" lon="-4.5340270">
        <ele>81.6</ele>
        <time>2021-07-18T08:53:40Z</time>
      </trkpt>
      <trkpt lat="43.3746260" lon="-4.5340640">
        <ele>82.0</ele>
        <time>2021-07-18T08:53:41Z</time>
      </trkpt>
      <trkpt lat="43.3746260" lon="-4.5341020">
        <ele>82.4</ele>
        <time>2021-07-18T08:53:42Z</time>
      </trkpt>
      <trkpt lat="43.3746410" lon="-4.5342740">
        <ele>82.4</ele>
        <time>2021-07-18T08:53:46Z</time>
      </trkpt>
      <trkpt lat="43.3746520" lon="-4.5343550">
        <ele>82.4</ele>
        <time>2021-07-18T08:53:48Z</time>
      </trkpt>
      <trkpt lat="43.3747040" lon="-4.5347070">
        <ele>82.4</ele>
        <time>2021-07-18T08:53:56Z</time>
      </trkpt>
      <trkpt lat="43.3747520" lon="-4.5348530">
        <ele>82.4</ele>
        <time>2021-07-18T08:53:59Z</time>
      </trkpt>
      <trkpt lat="43.3748120" lon="-4.5350750">
        <ele>82.4</ele>
        <time>2021-07-18T08:54:03Z</time>
      </trkpt>
      <trkpt lat="43.3748580" lon="-4.5352450">
        <ele>82.4</ele>
        <time>2021-07-18T08:54:06Z</time>
      </trkpt>
      <trkpt lat="43.3748860" lon="-4.5353690">
        <ele>82.4</ele>
        <time>2021-07-18T08:54:08Z</time>
      </trkpt>
      <trkpt lat="43.3749080" lon="-4.5354780">
        <ele>82.4</ele>
        <time>2021-07-18T08:54:10Z</time>
      </trkpt>
      <trkpt lat="43.3749340" lon="-4.5356760">
        <ele>82.4</ele>
        <time>2021-07-18T08:54:14Z</time>
      </trkpt>
      <trkpt lat="43.3749430" lon="-4.5357750">
        <ele>82.4</ele>
        <time>2021-07-18T08:54:16Z</time>
      </trkpt>
      <trkpt lat="43.3749510" lon="-4.5358780">
        <ele>82.4</ele>
        <time>2021-07-18T08:54:18Z</time>
      </trkpt>
      <trkpt lat="43.3749820" lon="-4.5361980">
        <ele>82.4</ele>
        <time>2021-07-18T08:54:24Z</time>
      </trkpt>
      <trkpt lat="43.3749870" lon="-4.5362500">
        <ele>82.4</ele>
        <time>2021-07-18T08:54:25Z</time>
      </trkpt>
      <trkpt lat="43.3749940" lon="-4.5363000">
        <ele>82.4</ele>
        <time>2021-07-18T08:54:26Z</time>
      </trkpt>
      <trkpt lat="43.3750320" lon="-4.5365400">
        <ele>82.4</ele>
        <time>2021-07-18T08:54:31Z</time>
      </trkpt>
      <trkpt lat="43.3750500" lon="-4.5366450">
        <ele>82.4</ele>
        <time>2021-07-18T08:54:33Z</time>
      </trkpt>
      <trkpt lat="43.3750920" lon="-4.5369880">
        <ele>82.4</ele>
        <time>2021-07-18T08:54:40Z</time>
      </trkpt>
      <trkpt lat="43.3750940" lon="-4.5372910">
        <ele>82.4</ele>
        <time>2021-07-18T08:54:47Z</time>
      </trkpt>
      <trkpt lat="43.3750890" lon="-4.5376720">
        <ele>82.4</ele>
        <time>2021-07-18T08:54:56Z</time>
      </trkpt>
      <trkpt lat="43.3750780" lon="-4.5378210">
        <ele>82.4</ele>
        <time>2021-07-18T08:55:01Z</time>
      </trkpt>
      <trkpt lat="43.3750790" lon="-4.5380730">
        <ele>82.4</ele>
        <time>2021-07-18T08:55:08Z</time>
      </trkpt>
      <trkpt lat="43.3750710" lon="-4.5383030">
        <ele>82.4</ele>
        <time>2021-07-18T08:55:13Z</time>
      </trkpt>
      <trkpt lat="43.3750690" lon="-4.5383910">
        <ele>82.4</ele>
        <time>2021-07-18T08:55:15Z</time>
      </trkpt>
      <trkpt lat="43.3750800" lon="-4.5385970">
        <ele>82.4</ele>
        <time>2021-07-18T08:55:20Z</time>
      </trkpt>
      <trkpt lat="43.3750910" lon="-4.5387080">
        <ele>82.4</ele>
        <time>2021-07-18T08:55:23Z</time>
      </trkpt>
      <trkpt lat="43.3751000" lon="-4.5389270">
        <ele>82.4</ele>
        <time>2021-07-18T08:55:29Z</time>
      </trkpt>
      <trkpt lat="43.3751030" lon="-4.5389910">
        <ele>82.4</ele>
        <time>2021-07-18T08:55:31Z</time>
      </trkpt>
      <trkpt lat="43.3751080" lon="-4.5390200">
        <ele>82.4</ele>
        <time>2021-07-18T08:55:32Z</time>
      </trkpt>
      <trkpt lat="43.3751050" lon="-4.5391200">
        <ele>82.8</ele>
        <time>2021-07-18T08:55:35Z</time>
      </trkpt>
      <trkpt lat="43.3751070" lon="-4.5391420">
        <ele>83.6</ele>
        <time>2021-07-18T08:55:36Z</time>
      </trkpt>
      <trkpt lat="43.3751050" lon="-4.5391610">
        <ele>84.0</ele>
        <time>2021-07-18T08:55:37Z</time>
      </trkpt>
      <trkpt lat="43.3750960" lon="-4.5391760">
        <ele>84.4</ele>
        <time>2021-07-18T08:55:38Z</time>
      </trkpt>
      <trkpt lat="43.3750880" lon="-4.5392230">
        <ele>84.4</ele>
        <time>2021-07-18T08:55:40Z</time>
      </trkpt>
      <trkpt lat="43.3750900" lon="-4.5392430">
        <ele>84.4</ele>
        <time>2021-07-18T08:55:41Z</time>
      </trkpt>
      <trkpt lat="43.3750920" lon="-4.5394010">
        <ele>84.4</ele>
        <time>2021-07-18T08:55:47Z</time>
      </trkpt>
      <trkpt lat="43.3751130" lon="-4.5396070">
        <ele>84.4</ele>
        <time>2021-07-18T08:55:53Z</time>
      </trkpt>
      <trkpt lat="43.3750790" lon="-4.5397390">
        <ele>84.4</ele>
        <time>2021-07-18T08:55:57Z</time>
      </trkpt>
      <trkpt lat="43.3750630" lon="-4.5397820">
        <ele>84.4</ele>
        <time>2021-07-18T08:55:58Z</time>
      </trkpt>
      <trkpt lat="43.3750530" lon="-4.5398620">
        <ele>84.4</ele>
        <time>2021-07-18T08:56:00Z</time>
      </trkpt>
      <trkpt lat="43.3750450" lon="-4.5399110">
        <ele>84.4</ele>
        <time>2021-07-18T08:56:02Z</time>
      </trkpt>
      <trkpt lat="43.3750410" lon="-4.5399160">
        <ele>84.4</ele>
        <time>2021-07-18T08:56:04Z</time>
      </trkpt>
      <trkpt lat="43.3750380" lon="-4.5399540">
        <ele>84.4</ele>
        <time>2021-07-18T08:56:17Z</time>
      </trkpt>
      <trkpt lat="43.3750310" lon="-4.5399820">
        <ele>84.4</ele>
        <time>2021-07-18T08:56:18Z</time>
      </trkpt>
      <trkpt lat="43.3750050" lon="-4.5401620">
        <ele>84.4</ele>
        <time>2021-07-18T08:56:22Z</time>
      </trkpt>
      <trkpt lat="43.3749650" lon="-4.5403450">
        <ele>84.4</ele>
        <time>2021-07-18T08:56:25Z</time>
      </trkpt>
      <trkpt lat="43.3749520" lon="-4.5404850">
        <ele>84.4</ele>
        <time>2021-07-18T08:56:27Z</time>
      </trkpt>
      <trkpt lat="43.3749460" lon="-4.5406320">
        <ele>84.4</ele>
        <time>2021-07-18T08:56:29Z</time>
      </trkpt>
      <trkpt lat="43.3749530" lon="-4.5408210">
        <ele>84.4</ele>
        <time>2021-07-18T08:56:32Z</time>
      </trkpt>
      <trkpt lat="43.3749600" lon="-4.5409290">
        <ele>84.4</ele>
        <time>2021-07-18T08:56:34Z</time>
      </trkpt>
      <trkpt lat="43.3749660" lon="-4.5410240">
        <ele>84.4</ele>
        <time>2021-07-18T08:56:36Z</time>
      </trkpt>
      <trkpt lat="43.3749760" lon="-4.5411140">
        <ele>84.4</ele>
        <time>2021-07-18T08:56:38Z</time>
      </trkpt>
      <trkpt lat="43.3750030" lon="-4.5412330">
        <ele>84.4</ele>
        <time>2021-07-18T08:56:41Z</time>
      </trkpt>
      <trkpt lat="43.3750170" lon="-4.5413250">
        <ele>84.4</ele>
        <time>2021-07-18T08:56:44Z</time>
      </trkpt>
      <trkpt lat="43.3750080" lon="-4.5413370">
        <ele>84.4</ele>
        <time>2021-07-18T08:56:45Z</time>
      </trkpt>
      <trkpt lat="43.3750290" lon="-4.5413270">
        <ele>84.4</ele>
        <time>2021-07-18T09:00:23Z</time>
      </trkpt>
      <trkpt lat="43.3750340" lon="-4.5413500">
        <ele>84.4</ele>
        <time>2021-07-18T09:00:24Z</time>
      </trkpt>
      <trkpt lat="43.3750450" lon="-4.5414530">
        <ele>84.4</ele>
        <time>2021-07-18T09:00:28Z</time>
      </trkpt>
      <trkpt lat="43.3750520" lon="-4.5415450">
        <ele>84.4</ele>
        <time>2021-07-18T09:00:31Z</time>
      </trkpt>
      <trkpt lat="43.3750800" lon="-4.5417930">
        <ele>84.4</ele>
        <time>2021-07-18T09:00:38Z</time>
      </trkpt>
      <trkpt lat="43.3751190" lon="-4.5418590">
        <ele>84.4</ele>
        <time>2021-07-18T09:00:42Z</time>
      </trkpt>
      <trkpt lat="43.3751760" lon="-4.5418620">
        <ele>84.4</ele>
        <time>2021-07-18T09:00:45Z</time>
      </trkpt>
      <trkpt lat="43.3752110" lon="-4.5418740">
        <ele>84.8</ele>
        <time>2021-07-18T09:00:47Z</time>
      </trkpt>
      <trkpt lat="43.3752210" lon="-4.5418910">
        <ele>85.4</ele>
        <time>2021-07-18T09:00:48Z</time>
      </trkpt>
      <trkpt lat="43.3752290" lon="-4.5419130">
        <ele>85.8</ele>
        <time>2021-07-18T09:00:49Z</time>
      </trkpt>
      <trkpt lat="43.3752390" lon="-4.5419350">
        <ele>86.2</ele>
        <time>2021-07-18T09:00:50Z</time>
      </trkpt>
      <trkpt lat="43.3752520" lon="-4.5419610">
        <ele>86.6</ele>
        <time>2021-07-18T09:00:51Z</time>
      </trkpt>
      <trkpt lat="43.3752880" lon="-4.5420320">
        <ele>86.6</ele>
        <time>2021-07-18T09:00:54Z</time>
      </trkpt>
      <trkpt lat="43.3753010" lon="-4.5420570">
        <ele>86.6</ele>
        <time>2021-07-18T09:00:55Z</time>
      </trkpt>
      <trkpt lat="43.3753250" lon="-4.5420990">
        <ele>87.0</ele>
        <time>2021-07-18T09:00:57Z</time>
      </trkpt>
      <trkpt lat="43.3753370" lon="-4.5421250">
        <ele>87.4</ele>
        <time>2021-07-18T09:00:58Z</time>
      </trkpt>
      <trkpt lat="43.3753470" lon="-4.5421460">
        <ele>87.8</ele>
        <time>2021-07-18T09:00:59Z</time>
      </trkpt>
      <trkpt lat="43.3753580" lon="-4.5421680">
        <ele>88.4</ele>
        <time>2021-07-18T09:01:00Z</time>
      </trkpt>
      <trkpt lat="43.3753700" lon="-4.5421910">
        <ele>88.8</ele>
        <time>2021-07-18T09:01:01Z</time>
      </trkpt>
      <trkpt lat="43.3753810" lon="-4.5422140">
        <ele>88.8</ele>
        <time>2021-07-18T09:01:02Z</time>
      </trkpt>
      <trkpt lat="43.3754830" lon="-4.5423250">
        <ele>88.8</ele>
        <time>2021-07-18T09:01:09Z</time>
      </trkpt>
      <trkpt lat="43.3755160" lon="-4.5423560">
        <ele>89.2</ele>
        <time>2021-07-18T09:01:12Z</time>
      </trkpt>
      <trkpt lat="43.3755290" lon="-4.5423680">
        <ele>89.6</ele>
        <time>2021-07-18T09:01:13Z</time>
      </trkpt>
      <trkpt lat="43.3755400" lon="-4.5423860">
        <ele>90.0</ele>
        <time>2021-07-18T09:01:14Z</time>
      </trkpt>
      <trkpt lat="43.3755530" lon="-4.5424100">
        <ele>90.4</ele>
        <time>2021-07-18T09:01:15Z</time>
      </trkpt>
      <trkpt lat="43.3755650" lon="-4.5424320">
        <ele>90.8</ele>
        <time>2021-07-18T09:01:16Z</time>
      </trkpt>
      <trkpt lat="43.3756380" lon="-4.5425480">
        <ele>90.8</ele>
        <time>2021-07-18T09:01:21Z</time>
      </trkpt>
      <trkpt lat="43.3757300" lon="-4.5426870">
        <ele>90.8</ele>
        <time>2021-07-18T09:01:27Z</time>
      </trkpt>
      <trkpt lat="43.3757570" lon="-4.5427870">
        <ele>91.2</ele>
        <time>2021-07-18T09:01:30Z</time>
      </trkpt>
      <trkpt lat="43.3757640" lon="-4.5428200">
        <ele>91.6</ele>
        <time>2021-07-18T09:01:31Z</time>
      </trkpt>
      <trkpt lat="43.3757740" lon="-4.5428570">
        <ele>92.0</ele>
        <time>2021-07-18T09:01:32Z</time>
      </trkpt>
      <trkpt lat="43.3757850" lon="-4.5428890">
        <ele>92.4</ele>
        <time>2021-07-18T09:01:33Z</time>
      </trkpt>
      <trkpt lat="43.3757960" lon="-4.5429200">
        <ele>92.8</ele>
        <time>2021-07-18T09:01:34Z</time>
      </trkpt>
      <trkpt lat="43.3758420" lon="-4.5431500">
        <ele>92.8</ele>
        <time>2021-07-18T09:01:41Z</time>
      </trkpt>
      <trkpt lat="43.3758740" lon="-4.5433250">
        <ele>92.8</ele>
        <time>2021-07-18T09:01:47Z</time>
      </trkpt>
      <trkpt lat="43.3758800" lon="-4.5434180">
        <ele>92.8</ele>
        <time>2021-07-18T09:01:50Z</time>
      </trkpt>
      <trkpt lat="43.3758780" lon="-4.5436030">
        <ele>92.8</ele>
        <time>2021-07-18T09:01:56Z</time>
      </trkpt>
      <trkpt lat="43.3758810" lon="-4.5436390">
        <ele>92.8</ele>
        <time>2021-07-18T09:01:57Z</time>
      </trkpt>
      <trkpt lat="43.3758850" lon="-4.5438050">
        <ele>92.8</ele>
        <time>2021-07-18T09:02:01Z</time>
      </trkpt>
      <trkpt lat="43.3758870" lon="-4.5438850">
        <ele>92.8</ele>
        <time>2021-07-18T09:02:03Z</time>
      </trkpt>
      <trkpt lat="43.3758840" lon="-4.5439140">
        <ele>92.8</ele>
        <time>2021-07-18T09:02:04Z</time>
      </trkpt>
      <trkpt lat="43.3758840" lon="-4.5439410">
        <ele>92.8</ele>
        <time>2021-07-18T09:02:06Z</time>
      </trkpt>
      <trkpt lat="43.3758920" lon="-4.5440020">
        <ele>92.8</ele>
        <time>2021-07-18T09:02:09Z</time>
      </trkpt>
      <trkpt lat="43.3759380" lon="-4.5442070">
        <ele>92.8</ele>
        <time>2021-07-18T09:02:15Z</time>
      </trkpt>
      <trkpt lat="43.3759870" lon="-4.5444250">
        <ele>92.8</ele>
        <time>2021-07-18T09:02:20Z</time>
      </trkpt>
      <trkpt lat="43.3760040" lon="-4.5444700">
        <ele>92.8</ele>
        <time>2021-07-18T09:02:21Z</time>
      </trkpt>
      <trkpt lat="43.3760400" lon="-4.5445630">
        <ele>92.8</ele>
        <time>2021-07-18T09:02:23Z</time>
      </trkpt>
      <trkpt lat="43.3760850" lon="-4.5446640">
        <ele>92.8</ele>
        <time>2021-07-18T09:02:25Z</time>
      </trkpt>
      <trkpt lat="43.3761550" lon="-4.5448340">
        <ele>92.8</ele>
        <time>2021-07-18T09:02:28Z</time>
      </trkpt>
      <trkpt lat="43.3763070" lon="-4.5452050">
        <ele>92.8</ele>
        <time>2021-07-18T09:02:34Z</time>
      </trkpt>
      <trkpt lat="43.3763610" lon="-4.5453370">
        <ele>92.8</ele>
        <time>2021-07-18T09:02:36Z</time>
      </trkpt>
      <trkpt lat="43.3764640" lon="-4.5455980">
        <ele>92.8</ele>
        <time>2021-07-18T09:02:41Z</time>
      </trkpt>
      <trkpt lat="43.3765140" lon="-4.5457180">
        <ele>92.4</ele>
        <time>2021-07-18T09:02:44Z</time>
      </trkpt>
      <trkpt lat="43.3765320" lon="-4.5457570">
        <ele>92.0</ele>
        <time>2021-07-18T09:02:45Z</time>
      </trkpt>
      <trkpt lat="43.3765500" lon="-4.5457990">
        <ele>91.6</ele>
        <time>2021-07-18T09:02:46Z</time>
      </trkpt>
      <trkpt lat="43.3765690" lon="-4.5458460">
        <ele>91.2</ele>
        <time>2021-07-18T09:02:47Z</time>
      </trkpt>
      <trkpt lat="43.3765870" lon="-4.5458930">
        <ele>90.8</ele>
        <time>2021-07-18T09:02:48Z</time>
      </trkpt>
      <trkpt lat="43.3766480" lon="-4.5460410">
        <ele>90.8</ele>
        <time>2021-07-18T09:02:51Z</time>
      </trkpt>
      <trkpt lat="43.3767290" lon="-4.5462560">
        <ele>90.2</ele>
        <time>2021-07-18T09:02:55Z</time>
      </trkpt>
      <trkpt lat="43.3767550" lon="-4.5463060">
        <ele>89.8</ele>
        <time>2021-07-18T09:02:56Z</time>
      </trkpt>
      <trkpt lat="43.3767810" lon="-4.5463480">
        <ele>89.4</ele>
        <time>2021-07-18T09:02:57Z</time>
      </trkpt>
      <trkpt lat="43.3768080" lon="-4.5463920">
        <ele>89.0</ele>
        <time>2021-07-18T09:02:58Z</time>
      </trkpt>
      <trkpt lat="43.3768330" lon="-4.5464360">
        <ele>88.6</ele>
        <time>2021-07-18T09:02:59Z</time>
      </trkpt>
      <trkpt lat="43.3769620" lon="-4.5466280">
        <ele>88.2</ele>
        <time>2021-07-18T09:03:04Z</time>
      </trkpt>
      <trkpt lat="43.3769850" lon="-4.5466540">
        <ele>87.6</ele>
        <time>2021-07-18T09:03:05Z</time>
      </trkpt>
      <trkpt lat="43.3770060" lon="-4.5466810">
        <ele>87.2</ele>
        <time>2021-07-18T09:03:06Z</time>
      </trkpt>
      <trkpt lat="43.3770250" lon="-4.5467040">
        <ele>86.8</ele>
        <time>2021-07-18T09:03:07Z</time>
      </trkpt>
      <trkpt lat="43.3770410" lon="-4.5467200">
        <ele>86.2</ele>
        <time>2021-07-18T09:03:08Z</time>
      </trkpt>
      <trkpt lat="43.3770800" lon="-4.5467790">
        <ele>85.8</ele>
        <time>2021-07-18T09:03:10Z</time>
      </trkpt>
      <trkpt lat="43.3770980" lon="-4.5468110">
        <ele>85.4</ele>
        <time>2021-07-18T09:03:11Z</time>
      </trkpt>
      <trkpt lat="43.3771120" lon="-4.5468370">
        <ele>85.0</ele>
        <time>2021-07-18T09:03:12Z</time>
      </trkpt>
      <trkpt lat="43.3771240" lon="-4.5468640">
        <ele>84.4</ele>
        <time>2021-07-18T09:03:13Z</time>
      </trkpt>
      <trkpt lat="43.3771360" lon="-4.5468860">
        <ele>84.0</ele>
        <time>2021-07-18T09:03:14Z</time>
      </trkpt>
      <trkpt lat="43.3771560" lon="-4.5469450">
        <ele>84.0</ele>
        <time>2021-07-18T09:03:17Z</time>
      </trkpt>
      <trkpt lat="43.3771750" lon="-4.5469910">
        <ele>83.6</ele>
        <time>2021-07-18T09:03:19Z</time>
      </trkpt>
      <trkpt lat="43.3771820" lon="-4.5470160">
        <ele>83.2</ele>
        <time>2021-07-18T09:03:20Z</time>
      </trkpt>
      <trkpt lat="43.3771920" lon="-4.5470420">
        <ele>82.8</ele>
        <time>2021-07-18T09:03:21Z</time>
      </trkpt>
      <trkpt lat="43.3772020" lon="-4.5470720">
        <ele>82.2</ele>
        <time>2021-07-18T09:03:22Z</time>
      </trkpt>
      <trkpt lat="43.3772140" lon="-4.5470990">
        <ele>81.8</ele>
        <time>2021-07-18T09:03:23Z</time>
      </trkpt>
      <trkpt lat="43.3772440" lon="-4.5471860">
        <ele>81.4</ele>
        <time>2021-07-18T09:03:26Z</time>
      </trkpt>
      <trkpt lat="43.3772560" lon="-4.5472130">
        <ele>81.0</ele>
        <time>2021-07-18T09:03:27Z</time>
      </trkpt>
      <trkpt lat="43.3772680" lon="-4.5472400">
        <ele>80.6</ele>
        <time>2021-07-18T09:03:28Z</time>
      </trkpt>
      <trkpt lat="43.3772780" lon="-4.5472630">
        <ele>80.2</ele>
        <time>2021-07-18T09:03:29Z</time>
      </trkpt>
      <trkpt lat="43.3772900" lon="-4.5472880">
        <ele>79.8</ele>
        <time>2021-07-18T09:03:30Z</time>
      </trkpt>
      <trkpt lat="43.3773270" lon="-4.5474340">
        <ele>79.4</ele>
        <time>2021-07-18T09:03:35Z</time>
      </trkpt>
      <trkpt lat="43.3773360" lon="-4.5474650">
        <ele>79.0</ele>
        <time>2021-07-18T09:03:36Z</time>
      </trkpt>
      <trkpt lat="43.3773410" lon="-4.5474890">
        <ele>78.6</ele>
        <time>2021-07-18T09:03:37Z</time>
      </trkpt>
      <trkpt lat="43.3773440" lon="-4.5475100">
        <ele>78.2</ele>
        <time>2021-07-18T09:03:38Z</time>
      </trkpt>
      <trkpt lat="43.3773490" lon="-4.5475260">
        <ele>77.8</ele>
        <time>2021-07-18T09:03:39Z</time>
      </trkpt>
      <trkpt lat="43.3773670" lon="-4.5475680">
        <ele>77.8</ele>
        <time>2021-07-18T09:03:41Z</time>
      </trkpt>
      <trkpt lat="43.3773890" lon="-4.5476540">
        <ele>77.4</ele>
        <time>2021-07-18T09:03:44Z</time>
      </trkpt>
      <trkpt lat="43.3773980" lon="-4.5476850">
        <ele>77.0</ele>
        <time>2021-07-18T09:03:45Z</time>
      </trkpt>
      <trkpt lat="43.3774010" lon="-4.5477170">
        <ele>76.4</ele>
        <time>2021-07-18T09:03:46Z</time>
      </trkpt>
      <trkpt lat="43.3774090" lon="-4.5477460">
        <ele>76.0</ele>
        <time>2021-07-18T09:03:47Z</time>
      </trkpt>
      <trkpt lat="43.3774170" lon="-4.5477790">
        <ele>75.6</ele>
        <time>2021-07-18T09:03:48Z</time>
      </trkpt>
      <trkpt lat="43.3774420" lon="-4.5479050">
        <ele>75.2</ele>
        <time>2021-07-18T09:03:52Z</time>
      </trkpt>
      <trkpt lat="43.3774460" lon="-4.5479300">
        <ele>74.8</ele>
        <time>2021-07-18T09:03:53Z</time>
      </trkpt>
      <trkpt lat="43.3774480" lon="-4.5479570">
        <ele>74.4</ele>
        <time>2021-07-18T09:03:54Z</time>
      </trkpt>
      <trkpt lat="43.3774560" lon="-4.5479830">
        <ele>74.0</ele>
        <time>2021-07-18T09:03:55Z</time>
      </trkpt>
      <trkpt lat="43.3774640" lon="-4.5480130">
        <ele>73.6</ele>
        <time>2021-07-18T09:03:56Z</time>
      </trkpt>
      <trkpt lat="43.3775100" lon="-4.5481390">
        <ele>73.2</ele>
        <time>2021-07-18T09:04:01Z</time>
      </trkpt>
      <trkpt lat="43.3775230" lon="-4.5481690">
        <ele>72.8</ele>
        <time>2021-07-18T09:04:02Z</time>
      </trkpt>
      <trkpt lat="43.3775350" lon="-4.5481950">
        <ele>72.4</ele>
        <time>2021-07-18T09:04:03Z</time>
      </trkpt>
      <trkpt lat="43.3775470" lon="-4.5482180">
        <ele>72.0</ele>
        <time>2021-07-18T09:04:04Z</time>
      </trkpt>
      <trkpt lat="43.3775580" lon="-4.5482420">
        <ele>71.6</ele>
        <time>2021-07-18T09:04:05Z</time>
      </trkpt>
      <trkpt lat="43.3775840" lon="-4.5483350">
        <ele>71.2</ele>
        <time>2021-07-18T09:04:08Z</time>
      </trkpt>
      <trkpt lat="43.3775940" lon="-4.5483620">
        <ele>70.8</ele>
        <time>2021-07-18T09:04:09Z</time>
      </trkpt>
      <trkpt lat="43.3776010" lon="-4.5483860">
        <ele>70.2</ele>
        <time>2021-07-18T09:04:10Z</time>
      </trkpt>
      <trkpt lat="43.3776080" lon="-4.5484110">
        <ele>69.8</ele>
        <time>2021-07-18T09:04:11Z</time>
      </trkpt>
      <trkpt lat="43.3776140" lon="-4.5484380">
        <ele>69.4</ele>
        <time>2021-07-18T09:04:12Z</time>
      </trkpt>
      <trkpt lat="43.3776340" lon="-4.5485220">
        <ele>69.0</ele>
        <time>2021-07-18T09:04:15Z</time>
      </trkpt>
      <trkpt lat="43.3776430" lon="-4.5485570">
        <ele>68.6</ele>
        <time>2021-07-18T09:04:16Z</time>
      </trkpt>
      <trkpt lat="43.3776530" lon="-4.5485930">
        <ele>68.2</ele>
        <time>2021-07-18T09:04:17Z</time>
      </trkpt>
      <trkpt lat="43.3776640" lon="-4.5486290">
        <ele>67.8</ele>
        <time>2021-07-18T09:04:18Z</time>
      </trkpt>
      <trkpt lat="43.3776720" lon="-4.5486640">
        <ele>67.4</ele>
        <time>2021-07-18T09:04:19Z</time>
      </trkpt>
      <trkpt lat="43.3776930" lon="-4.5488030">
        <ele>67.0</ele>
        <time>2021-07-18T09:04:23Z</time>
      </trkpt>
      <trkpt lat="43.3776950" lon="-4.5488330">
        <ele>66.6</ele>
        <time>2021-07-18T09:04:24Z</time>
      </trkpt>
      <trkpt lat="43.3776970" lon="-4.5488640">
        <ele>66.0</ele>
        <time>2021-07-18T09:04:25Z</time>
      </trkpt>
      <trkpt lat="43.3777030" lon="-4.5488950">
        <ele>65.6</ele>
        <time>2021-07-18T09:04:26Z</time>
      </trkpt>
      <trkpt lat="43.3777110" lon="-4.5489300">
        <ele>65.2</ele>
        <time>2021-07-18T09:04:27Z</time>
      </trkpt>
      <trkpt lat="43.3777540" lon="-4.5490680">
        <ele>64.8</ele>
        <time>2021-07-18T09:04:31Z</time>
      </trkpt>
      <trkpt lat="43.3777640" lon="-4.5491010">
        <ele>64.2</ele>
        <time>2021-07-18T09:04:32Z</time>
      </trkpt>
      <trkpt lat="43.3777720" lon="-4.5491330">
        <ele>63.4</ele>
        <time>2021-07-18T09:04:33Z</time>
      </trkpt>
      <trkpt lat="43.3777800" lon="-4.5491610">
        <ele>63.0</ele>
        <time>2021-07-18T09:04:34Z</time>
      </trkpt>
      <trkpt lat="43.3777990" lon="-4.5492550">
        <ele>62.4</ele>
        <time>2021-07-18T09:04:37Z</time>
      </trkpt>
      <trkpt lat="43.3778090" lon="-4.5492840">
        <ele>62.0</ele>
        <time>2021-07-18T09:04:38Z</time>
      </trkpt>
      <trkpt lat="43.3778180" lon="-4.5493080">
        <ele>61.6</ele>
        <time>2021-07-18T09:04:39Z</time>
      </trkpt>
      <trkpt lat="43.3778260" lon="-4.5493310">
        <ele>61.2</ele>
        <time>2021-07-18T09:04:40Z</time>
      </trkpt>
      <trkpt lat="43.3778310" lon="-4.5493540">
        <ele>60.8</ele>
        <time>2021-07-18T09:04:41Z</time>
      </trkpt>
      <trkpt lat="43.3778380" lon="-4.5493750">
        <ele>60.8</ele>
        <time>2021-07-18T09:04:42Z</time>
      </trkpt>
      <trkpt lat="43.3778490" lon="-4.5494270">
        <ele>60.4</ele>
        <time>2021-07-18T09:04:44Z</time>
      </trkpt>
      <trkpt lat="43.3778500" lon="-4.5494590">
        <ele>60.0</ele>
        <time>2021-07-18T09:04:45Z</time>
      </trkpt>
      <trkpt lat="43.3778520" lon="-4.5494930">
        <ele>59.4</ele>
        <time>2021-07-18T09:04:46Z</time>
      </trkpt>
      <trkpt lat="43.3778530" lon="-4.5495170">
        <ele>59.0</ele>
        <time>2021-07-18T09:04:47Z</time>
      </trkpt>
      <trkpt lat="43.3778590" lon="-4.5495440">
        <ele>58.6</ele>
        <time>2021-07-18T09:04:48Z</time>
      </trkpt>
      <trkpt lat="43.3778780" lon="-4.5495950">
        <ele>58.6</ele>
        <time>2021-07-18T09:04:50Z</time>
      </trkpt>
      <trkpt lat="43.3779040" lon="-4.5496720">
        <ele>58.2</ele>
        <time>2021-07-18T09:04:52Z</time>
      </trkpt>
      <trkpt lat="43.3779130" lon="-4.5497230">
        <ele>57.8</ele>
        <time>2021-07-18T09:04:53Z</time>
      </trkpt>
      <trkpt lat="43.3779150" lon="-4.5497870">
        <ele>57.2</ele>
        <time>2021-07-18T09:04:54Z</time>
      </trkpt>
      <trkpt lat="43.3779210" lon="-4.5498380">
        <ele>56.8</ele>
        <time>2021-07-18T09:04:55Z</time>
      </trkpt>
      <trkpt lat="43.3779350" lon="-4.5498770">
        <ele>56.4</ele>
        <time>2021-07-18T09:04:56Z</time>
      </trkpt>
      <trkpt lat="43.3779470" lon="-4.5499070">
        <ele>56.0</ele>
        <time>2021-07-18T09:04:57Z</time>
      </trkpt>
      <trkpt lat="43.3779540" lon="-4.5499420">
        <ele>55.2</ele>
        <time>2021-07-18T09:04:58Z</time>
      </trkpt>
      <trkpt lat="43.3779680" lon="-4.5499830">
        <ele>54.8</ele>
        <time>2021-07-18T09:04:59Z</time>
      </trkpt>
      <trkpt lat="43.3779760" lon="-4.5500120">
        <ele>54.4</ele>
        <time>2021-07-18T09:05:00Z</time>
      </trkpt>
      <trkpt lat="43.3779910" lon="-4.5500940">
        <ele>54.0</ele>
        <time>2021-07-18T09:05:02Z</time>
      </trkpt>
      <trkpt lat="43.3780000" lon="-4.5501230">
        <ele>53.6</ele>
        <time>2021-07-18T09:05:03Z</time>
      </trkpt>
      <trkpt lat="43.3780040" lon="-4.5501530">
        <ele>53.2</ele>
        <time>2021-07-18T09:05:04Z</time>
      </trkpt>
      <trkpt lat="43.3780080" lon="-4.5501820">
        <ele>52.8</ele>
        <time>2021-07-18T09:05:05Z</time>
      </trkpt>
      <trkpt lat="43.3780130" lon="-4.5502130">
        <ele>52.4</ele>
        <time>2021-07-18T09:05:06Z</time>
      </trkpt>
      <trkpt lat="43.3780410" lon="-4.5503240">
        <ele>52.4</ele>
        <time>2021-07-18T09:05:09Z</time>
      </trkpt>
      <trkpt lat="43.3780530" lon="-4.5503630">
        <ele>52.0</ele>
        <time>2021-07-18T09:05:10Z</time>
      </trkpt>
      <trkpt lat="43.3780640" lon="-4.5503960">
        <ele>51.6</ele>
        <time>2021-07-18T09:05:11Z</time>
      </trkpt>
      <trkpt lat="43.3780820" lon="-4.5504300">
        <ele>51.2</ele>
        <time>2021-07-18T09:05:12Z</time>
      </trkpt>
      <trkpt lat="43.3780990" lon="-4.5504650">
        <ele>50.6</ele>
        <time>2021-07-18T09:05:13Z</time>
      </trkpt>
      <trkpt lat="43.3781120" lon="-4.5505010">
        <ele>50.2</ele>
        <time>2021-07-18T09:05:14Z</time>
      </trkpt>
      <trkpt lat="43.3781480" lon="-4.5505670">
        <ele>49.8</ele>
        <time>2021-07-18T09:05:16Z</time>
      </trkpt>
      <trkpt lat="43.3781670" lon="-4.5506000">
        <ele>49.2</ele>
        <time>2021-07-18T09:05:17Z</time>
      </trkpt>
      <trkpt lat="43.3781860" lon="-4.5506310">
        <ele>48.8</ele>
        <time>2021-07-18T09:05:18Z</time>
      </trkpt>
      <trkpt lat="43.3782040" lon="-4.5506670">
        <ele>48.2</ele>
        <time>2021-07-18T09:05:19Z</time>
      </trkpt>
      <trkpt lat="43.3782260" lon="-4.5507060">
        <ele>47.8</ele>
        <time>2021-07-18T09:05:20Z</time>
      </trkpt>
      <trkpt lat="43.3782800" lon="-4.5507980">
        <ele>47.0</ele>
        <time>2021-07-18T09:05:23Z</time>
      </trkpt>
      <trkpt lat="43.3783020" lon="-4.5508360">
        <ele>46.4</ele>
        <time>2021-07-18T09:05:24Z</time>
      </trkpt>
      <trkpt lat="43.3783160" lon="-4.5508710">
        <ele>46.0</ele>
        <time>2021-07-18T09:05:25Z</time>
      </trkpt>
      <trkpt lat="43.3783320" lon="-4.5509070">
        <ele>45.6</ele>
        <time>2021-07-18T09:05:26Z</time>
      </trkpt>
      <trkpt lat="43.3783870" lon="-4.5510540">
        <ele>45.6</ele>
        <time>2021-07-18T09:05:30Z</time>
      </trkpt>
      <trkpt lat="43.3784100" lon="-4.5511220">
        <ele>45.2</ele>
        <time>2021-07-18T09:05:32Z</time>
      </trkpt>
      <trkpt lat="43.3784180" lon="-4.5511510">
        <ele>44.6</ele>
        <time>2021-07-18T09:05:33Z</time>
      </trkpt>
      <trkpt lat="43.3784260" lon="-4.5511850">
        <ele>44.2</ele>
        <time>2021-07-18T09:05:34Z</time>
      </trkpt>
      <trkpt lat="43.3784340" lon="-4.5512250">
        <ele>43.8</ele>
        <time>2021-07-18T09:05:35Z</time>
      </trkpt>
      <trkpt lat="43.3784440" lon="-4.5512680">
        <ele>43.4</ele>
        <time>2021-07-18T09:05:36Z</time>
      </trkpt>
      <trkpt lat="43.3784770" lon="-4.5514460">
        <ele>43.4</ele>
        <time>2021-07-18T09:05:40Z</time>
      </trkpt>
      <trkpt lat="43.3785690" lon="-4.5516980">
        <ele>42.4</ele>
        <time>2021-07-18T09:05:47Z</time>
      </trkpt>
      <trkpt lat="43.3785870" lon="-4.5517350">
        <ele>42.0</ele>
        <time>2021-07-18T09:05:48Z</time>
      </trkpt>
      <trkpt lat="43.3786040" lon="-4.5517740">
        <ele>41.6</ele>
        <time>2021-07-18T09:05:49Z</time>
      </trkpt>
      <trkpt lat="43.3786210" lon="-4.5518130">
        <ele>41.0</ele>
        <time>2021-07-18T09:05:50Z</time>
      </trkpt>
      <trkpt lat="43.3787240" lon="-4.5520170">
        <ele>41.0</ele>
        <time>2021-07-18T09:05:55Z</time>
      </trkpt>
      <trkpt lat="43.3787900" lon="-4.5521370">
        <ele>40.6</ele>
        <time>2021-07-18T09:05:58Z</time>
      </trkpt>
      <trkpt lat="43.3788130" lon="-4.5521750">
        <ele>40.2</ele>
        <time>2021-07-18T09:05:59Z</time>
      </trkpt>
      <trkpt lat="43.3788350" lon="-4.5522090">
        <ele>39.8</ele>
        <time>2021-07-18T09:06:00Z</time>
      </trkpt>
      <trkpt lat="43.3788550" lon="-4.5522370">
        <ele>39.4</ele>
        <time>2021-07-18T09:06:01Z</time>
      </trkpt>
      <trkpt lat="43.3788750" lon="-4.5522660">
        <ele>39.0</ele>
        <time>2021-07-18T09:06:02Z</time>
      </trkpt>
      <trkpt lat="43.3789480" lon="-4.5524280">
        <ele>39.0</ele>
        <time>2021-07-18T09:06:08Z</time>
      </trkpt>
      <trkpt lat="43.3789960" lon="-4.5525090">
        <ele>39.0</ele>
        <time>2021-07-18T09:06:13Z</time>
      </trkpt>
      <trkpt lat="43.3790080" lon="-4.5525320">
        <ele>39.0</ele>
        <time>2021-07-18T09:06:14Z</time>
      </trkpt>
      <trkpt lat="43.3790310" lon="-4.5525790">
        <ele>39.0</ele>
        <time>2021-07-18T09:06:16Z</time>
      </trkpt>
      <trkpt lat="43.3790510" lon="-4.5526060">
        <ele>39.0</ele>
        <time>2021-07-18T09:06:19Z</time>
      </trkpt>
      <trkpt lat="43.3790720" lon="-4.5526450">
        <ele>39.0</ele>
        <time>2021-07-18T09:06:30Z</time>
      </trkpt>
      <trkpt lat="43.3790990" lon="-4.5526870">
        <ele>39.0</ele>
        <time>2021-07-18T09:06:32Z</time>
      </trkpt>
      <trkpt lat="43.3791320" lon="-4.5527470">
        <ele>39.0</ele>
        <time>2021-07-18T09:06:35Z</time>
      </trkpt>
      <trkpt lat="43.3791600" lon="-4.5527910">
        <ele>39.0</ele>
        <time>2021-07-18T09:06:37Z</time>
      </trkpt>
      <trkpt lat="43.3792060" lon="-4.5528820">
        <ele>39.0</ele>
        <time>2021-07-18T09:06:41Z</time>
      </trkpt>
      <trkpt lat="43.3792220" lon="-4.5529120">
        <ele>39.0</ele>
        <time>2021-07-18T09:06:43Z</time>
      </trkpt>
      <trkpt lat="43.3792210" lon="-4.5529130">
        <ele>39.0</ele>
        <time>2021-07-18T09:06:44Z</time>
      </trkpt>
      <trkpt lat="43.3792390" lon="-4.5529670">
        <ele>39.0</ele>
        <time>2021-07-18T09:07:06Z</time>
      </trkpt>
      <trkpt lat="43.3792570" lon="-4.5529970">
        <ele>39.0</ele>
        <time>2021-07-18T09:07:08Z</time>
      </trkpt>
      <trkpt lat="43.3792780" lon="-4.5530350">
        <ele>39.0</ele>
        <time>2021-07-18T09:07:10Z</time>
      </trkpt>
      <trkpt lat="43.3793290" lon="-4.5531570">
        <ele>39.0</ele>
        <time>2021-07-18T09:07:15Z</time>
      </trkpt>
      <trkpt lat="43.3793580" lon="-4.5531970">
        <ele>39.0</ele>
        <time>2021-07-18T09:07:17Z</time>
      </trkpt>
      <trkpt lat="43.3793910" lon="-4.5532380">
        <ele>39.0</ele>
        <time>2021-07-18T09:07:19Z</time>
      </trkpt>
      <trkpt lat="43.3794260" lon="-4.5532920">
        <ele>39.0</ele>
        <time>2021-07-18T09:07:21Z</time>
      </trkpt>
      <trkpt lat="43.3794880" lon="-4.5533930">
        <ele>39.0</ele>
        <time>2021-07-18T09:07:24Z</time>
      </trkpt>
      <trkpt lat="43.3795290" lon="-4.5534570">
        <ele>39.0</ele>
        <time>2021-07-18T09:07:26Z</time>
      </trkpt>
      <trkpt lat="43.3795730" lon="-4.5535220">
        <ele>39.0</ele>
        <time>2021-07-18T09:07:28Z</time>
      </trkpt>
      <trkpt lat="43.3796160" lon="-4.5535780">
        <ele>38.6</ele>
        <time>2021-07-18T09:07:30Z</time>
      </trkpt>
      <trkpt lat="43.3796380" lon="-4.5535980">
        <ele>38.2</ele>
        <time>2021-07-18T09:07:31Z</time>
      </trkpt>
      <trkpt lat="43.3796610" lon="-4.5536170">
        <ele>37.8</ele>
        <time>2021-07-18T09:07:32Z</time>
      </trkpt>
      <trkpt lat="43.3796810" lon="-4.5536470">
        <ele>37.4</ele>
        <time>2021-07-18T09:07:33Z</time>
      </trkpt>
      <trkpt lat="43.3797010" lon="-4.5536810">
        <ele>37.0</ele>
        <time>2021-07-18T09:07:34Z</time>
      </trkpt>
      <trkpt lat="43.3798160" lon="-4.5538370">
        <ele>37.0</ele>
        <time>2021-07-18T09:07:39Z</time>
      </trkpt>
      <trkpt lat="43.3798330" lon="-4.5538670">
        <ele>37.0</ele>
        <time>2021-07-18T09:07:40Z</time>
      </trkpt>
      <trkpt lat="43.3799250" lon="-4.5539320">
        <ele>37.0</ele>
        <time>2021-07-18T09:07:45Z</time>
      </trkpt>
      <trkpt lat="43.3799360" lon="-4.5539370">
        <ele>36.6</ele>
        <time>2021-07-18T09:07:46Z</time>
      </trkpt>
      <trkpt lat="43.3799410" lon="-4.5539310">
        <ele>36.2</ele>
        <time>2021-07-18T09:07:47Z</time>
      </trkpt>
      <trkpt lat="43.3799500" lon="-4.5539200">
        <ele>35.8</ele>
        <time>2021-07-18T09:07:48Z</time>
      </trkpt>
      <trkpt lat="43.3799530" lon="-4.5538960">
        <ele>35.4</ele>
        <time>2021-07-18T09:07:49Z</time>
      </trkpt>
      <trkpt lat="43.3799540" lon="-4.5538770">
        <ele>34.8</ele>
        <time>2021-07-18T09:07:50Z</time>
      </trkpt>
      <trkpt lat="43.3799560" lon="-4.5538320">
        <ele>34.8</ele>
        <time>2021-07-18T09:07:53Z</time>
      </trkpt>
      <trkpt lat="43.3799560" lon="-4.5538340">
        <ele>34.8</ele>
        <time>2021-07-18T09:07:54Z</time>
      </trkpt>
      <trkpt lat="43.3799880" lon="-4.5538630">
        <ele>34.8</ele>
        <time>2021-07-18T09:08:03Z</time>
      </trkpt>
      <trkpt lat="43.3799930" lon="-4.5538920">
        <ele>34.8</ele>
        <time>2021-07-18T09:08:04Z</time>
      </trkpt>
      <trkpt lat="43.3799910" lon="-4.5539920">
        <ele>34.8</ele>
        <time>2021-07-18T09:08:07Z</time>
      </trkpt>
      <trkpt lat="43.3799910" lon="-4.5540060">
        <ele>34.8</ele>
        <time>2021-07-18T09:08:09Z</time>
      </trkpt>
      <trkpt lat="43.3799670" lon="-4.5540000">
        <ele>34.8</ele>
        <time>2021-07-18T09:08:14Z</time>
      </trkpt>
      <trkpt lat="43.3799650" lon="-4.5539200">
        <ele>34.8</ele>
        <time>2021-07-18T09:08:18Z</time>
      </trkpt>
      <trkpt lat="43.3799760" lon="-4.5538670">
        <ele>34.8</ele>
        <time>2021-07-18T09:08:20Z</time>
      </trkpt>
      <trkpt lat="43.3799840" lon="-4.5538060">
        <ele>34.8</ele>
        <time>2021-07-18T09:08:22Z</time>
      </trkpt>
      <trkpt lat="43.3799950" lon="-4.5537420">
        <ele>34.8</ele>
        <time>2021-07-18T09:08:24Z</time>
      </trkpt>
      <trkpt lat="43.3800050" lon="-4.5536560">
        <ele>34.8</ele>
        <time>2021-07-18T09:08:27Z</time>
      </trkpt>
      <trkpt lat="43.3800130" lon="-4.5535650">
        <ele>34.8</ele>
        <time>2021-07-18T09:08:30Z</time>
      </trkpt>
      <trkpt lat="43.3800180" lon="-4.5535380">
        <ele>34.8</ele>
        <time>2021-07-18T09:08:31Z</time>
      </trkpt>
      <trkpt lat="43.3800200" lon="-4.5535120">
        <ele>35.4</ele>
        <time>2021-07-18T09:08:32Z</time>
      </trkpt>
      <trkpt lat="43.3800230" lon="-4.5534820">
        <ele>35.8</ele>
        <time>2021-07-18T09:08:33Z</time>
      </trkpt>
      <trkpt lat="43.3800260" lon="-4.5534550">
        <ele>36.2</ele>
        <time>2021-07-18T09:08:34Z</time>
      </trkpt>
      <trkpt lat="43.3800300" lon="-4.5534290">
        <ele>36.6</ele>
        <time>2021-07-18T09:08:35Z</time>
      </trkpt>
      <trkpt lat="43.3800320" lon="-4.5534080">
        <ele>37.0</ele>
        <time>2021-07-18T09:08:36Z</time>
      </trkpt>
      <trkpt lat="43.3800500" lon="-4.5533440">
        <ele>37.0</ele>
        <time>2021-07-18T09:08:39Z</time>
      </trkpt>
      <trkpt lat="43.3801240" lon="-4.5532570">
        <ele>37.0</ele>
        <time>2021-07-18T09:08:44Z</time>
      </trkpt>
      <trkpt lat="43.3801720" lon="-4.5532410">
        <ele>37.4</ele>
        <time>2021-07-18T09:08:47Z</time>
      </trkpt>
      <trkpt lat="43.3801860" lon="-4.5532390">
        <ele>37.8</ele>
        <time>2021-07-18T09:08:48Z</time>
      </trkpt>
      <trkpt lat="43.3801990" lon="-4.5532330">
        <ele>38.2</ele>
        <time>2021-07-18T09:08:49Z</time>
      </trkpt>
      <trkpt lat="43.3802150" lon="-4.5532250">
        <ele>38.6</ele>
        <time>2021-07-18T09:08:50Z</time>
      </trkpt>
      <trkpt lat="43.3802320" lon="-4.5532150">
        <ele>39.0</ele>
        <time>2021-07-18T09:08:51Z</time>
      </trkpt>
      <trkpt lat="43.3802720" lon="-4.5531930">
        <ele>39.0</ele>
        <time>2021-07-18T09:08:54Z</time>
      </trkpt>
      <trkpt lat="43.3803080" lon="-4.5531800">
        <ele>39.4</ele>
        <time>2021-07-18T09:08:57Z</time>
      </trkpt>
      <trkpt lat="43.3803200" lon="-4.5531730">
        <ele>39.8</ele>
        <time>2021-07-18T09:08:58Z</time>
      </trkpt>
      <trkpt lat="43.3803290" lon="-4.5531700">
        <ele>40.2</ele>
        <time>2021-07-18T09:08:59Z</time>
      </trkpt>
      <trkpt lat="43.3803430" lon="-4.5531650">
        <ele>40.6</ele>
        <time>2021-07-18T09:09:00Z</time>
      </trkpt>
      <trkpt lat="43.3803520" lon="-4.5531590">
        <ele>41.0</ele>
        <time>2021-07-18T09:09:01Z</time>
      </trkpt>
      <trkpt lat="43.3803530" lon="-4.5531560">
        <ele>41.0</ele>
        <time>2021-07-18T09:09:02Z</time>
      </trkpt>
      <trkpt lat="43.3803760" lon="-4.5531490">
        <ele>41.0</ele>
        <time>2021-07-18T09:09:25Z</time>
      </trkpt>
      <trkpt lat="43.3803940" lon="-4.5531450">
        <ele>41.0</ele>
        <time>2021-07-18T09:09:26Z</time>
      </trkpt>
      <trkpt lat="43.3804130" lon="-4.5531360">
        <ele>41.0</ele>
        <time>2021-07-18T09:09:27Z</time>
      </trkpt>
      <trkpt lat="43.3805680" lon="-4.5531060">
        <ele>41.0</ele>
        <time>2021-07-18T09:09:33Z</time>
      </trkpt>
      <trkpt lat="43.3806510" lon="-4.5531030">
        <ele>41.0</ele>
        <time>2021-07-18T09:09:36Z</time>
      </trkpt>
      <trkpt lat="43.3808110" lon="-4.5530980">
        <ele>41.0</ele>
        <time>2021-07-18T09:09:41Z</time>
      </trkpt>
      <trkpt lat="43.3809320" lon="-4.5530830">
        <ele>41.0</ele>
        <time>2021-07-18T09:09:44Z</time>
      </trkpt>
      <trkpt lat="43.3810050" lon="-4.5530740">
        <ele>41.0</ele>
        <time>2021-07-18T09:09:46Z</time>
      </trkpt>
      <trkpt lat="43.3811150" lon="-4.5530560">
        <ele>41.0</ele>
        <time>2021-07-18T09:09:49Z</time>
      </trkpt>
      <trkpt lat="43.3811510" lon="-4.5530530">
        <ele>41.0</ele>
        <time>2021-07-18T09:09:50Z</time>
      </trkpt>
      <trkpt lat="43.3813210" lon="-4.5530300">
        <ele>41.0</ele>
        <time>2021-07-18T09:09:55Z</time>
      </trkpt>
      <trkpt lat="43.3813820" lon="-4.5530340">
        <ele>41.0</ele>
        <time>2021-07-18T09:09:57Z</time>
      </trkpt>
      <trkpt lat="43.3814130" lon="-4.5530470">
        <ele>41.0</ele>
        <time>2021-07-18T09:09:58Z</time>
      </trkpt>
      <trkpt lat="43.3815080" lon="-4.5531720">
        <ele>41.0</ele>
        <time>2021-07-18T09:10:02Z</time>
      </trkpt>
      <trkpt lat="43.3815120" lon="-4.5532150">
        <ele>41.0</ele>
        <time>2021-07-18T09:10:03Z</time>
      </trkpt>
      <trkpt lat="43.3815490" lon="-4.5533610">
        <ele>41.0</ele>
        <time>2021-07-18T09:10:06Z</time>
      </trkpt>
      <trkpt lat="43.3816410" lon="-4.5537400">
        <ele>41.0</ele>
        <time>2021-07-18T09:10:12Z</time>
      </trkpt>
      <trkpt lat="43.3817520" lon="-4.5542080">
        <ele>41.0</ele>
        <time>2021-07-18T09:10:17Z</time>
      </trkpt>
      <trkpt lat="43.3818040" lon="-4.5544240">
        <ele>40.6</ele>
        <time>2021-07-18T09:10:19Z</time>
      </trkpt>
      <trkpt lat="43.3818280" lon="-4.5545390">
        <ele>39.4</ele>
        <time>2021-07-18T09:10:20Z</time>
      </trkpt>
      <trkpt lat="43.3818540" lon="-4.5546590">
        <ele>39.0</ele>
        <time>2021-07-18T09:10:21Z</time>
      </trkpt>
      <trkpt lat="43.3818820" lon="-4.5547850">
        <ele>38.4</ele>
        <time>2021-07-18T09:10:22Z</time>
      </trkpt>
      <trkpt lat="43.3819050" lon="-4.5549130">
        <ele>38.4</ele>
        <time>2021-07-18T09:10:23Z</time>
      </trkpt>
      <trkpt lat="43.3819450" lon="-4.5551690">
        <ele>38.4</ele>
        <time>2021-07-18T09:10:25Z</time>
      </trkpt>
      <trkpt lat="43.3819660" lon="-4.5552990">
        <ele>38.0</ele>
        <time>2021-07-18T09:10:26Z</time>
      </trkpt>
      <trkpt lat="43.3819890" lon="-4.5554290">
        <ele>37.4</ele>
        <time>2021-07-18T09:10:27Z</time>
      </trkpt>
      <trkpt lat="43.3820120" lon="-4.5555540">
        <ele>37.0</ele>
        <time>2021-07-18T09:10:28Z</time>
      </trkpt>
      <trkpt lat="43.3820380" lon="-4.5556860">
        <ele>36.6</ele>
        <time>2021-07-18T09:10:29Z</time>
      </trkpt>
      <trkpt lat="43.3820670" lon="-4.5558090">
        <ele>36.0</ele>
        <time>2021-07-18T09:10:30Z</time>
      </trkpt>
      <trkpt lat="43.3821650" lon="-4.5561630">
        <ele>35.6</ele>
        <time>2021-07-18T09:10:33Z</time>
      </trkpt>
      <trkpt lat="43.3822000" lon="-4.5562690">
        <ele>35.2</ele>
        <time>2021-07-18T09:10:34Z</time>
      </trkpt>
      <trkpt lat="43.3822270" lon="-4.5563660">
        <ele>34.8</ele>
        <time>2021-07-18T09:10:35Z</time>
      </trkpt>
      <trkpt lat="43.3822490" lon="-4.5564430">
        <ele>34.4</ele>
        <time>2021-07-18T09:10:36Z</time>
      </trkpt>
      <trkpt lat="43.3822660" lon="-4.5565040">
        <ele>34.0</ele>
        <time>2021-07-18T09:10:37Z</time>
      </trkpt>
      <trkpt lat="43.3822820" lon="-4.5565490">
        <ele>33.4</ele>
        <time>2021-07-18T09:10:38Z</time>
      </trkpt>
      <trkpt lat="43.3822970" lon="-4.5565930">
        <ele>33.0</ele>
        <time>2021-07-18T09:10:39Z</time>
      </trkpt>
      <trkpt lat="43.3823110" lon="-4.5566400">
        <ele>32.6</ele>
        <time>2021-07-18T09:10:40Z</time>
      </trkpt>
      <trkpt lat="43.3823210" lon="-4.5566860">
        <ele>32.0</ele>
        <time>2021-07-18T09:10:41Z</time>
      </trkpt>
      <trkpt lat="43.3823310" lon="-4.5567340">
        <ele>31.6</ele>
        <time>2021-07-18T09:10:42Z</time>
      </trkpt>
      <trkpt lat="43.3823530" lon="-4.5568270">
        <ele>31.6</ele>
        <time>2021-07-18T09:10:44Z</time>
      </trkpt>
      <trkpt lat="43.3823730" lon="-4.5569150">
        <ele>31.6</ele>
        <time>2021-07-18T09:10:46Z</time>
      </trkpt>
      <trkpt lat="43.3823860" lon="-4.5569570">
        <ele>31.6</ele>
        <time>2021-07-18T09:10:47Z</time>
      </trkpt>
      <trkpt lat="43.3823970" lon="-4.5569980">
        <ele>31.6</ele>
        <time>2021-07-18T09:10:48Z</time>
      </trkpt>
      <trkpt lat="43.3824320" lon="-4.5570870">
        <ele>31.6</ele>
        <time>2021-07-18T09:10:50Z</time>
      </trkpt>
      <trkpt lat="43.3825110" lon="-4.5572690">
        <ele>31.6</ele>
        <time>2021-07-18T09:10:54Z</time>
      </trkpt>
      <trkpt lat="43.3826290" lon="-4.5574910">
        <ele>31.6</ele>
        <time>2021-07-18T09:10:59Z</time>
      </trkpt>
      <trkpt lat="43.3826900" lon="-4.5576040">
        <ele>31.6</ele>
        <time>2021-07-18T09:11:02Z</time>
      </trkpt>
      <trkpt lat="43.3827420" lon="-4.5577120">
        <ele>31.6</ele>
        <time>2021-07-18T09:11:05Z</time>
      </trkpt>
      <trkpt lat="43.3827820" lon="-4.5578050">
        <ele>31.6</ele>
        <time>2021-07-18T09:11:08Z</time>
      </trkpt>
      <trkpt lat="43.3827950" lon="-4.5578360">
        <ele>31.6</ele>
        <time>2021-07-18T09:11:09Z</time>
      </trkpt>
      <trkpt lat="43.3828360" lon="-4.5579320">
        <ele>31.6</ele>
        <time>2021-07-18T09:11:12Z</time>
      </trkpt>
      <trkpt lat="43.3828510" lon="-4.5579730">
        <ele>32.0</ele>
        <time>2021-07-18T09:11:13Z</time>
      </trkpt>
      <trkpt lat="43.3828630" lon="-4.5580110">
        <ele>32.4</ele>
        <time>2021-07-18T09:11:14Z</time>
      </trkpt>
      <trkpt lat="43.3828750" lon="-4.5580480">
        <ele>32.8</ele>
        <time>2021-07-18T09:11:15Z</time>
      </trkpt>
      <trkpt lat="43.3828880" lon="-4.5580840">
        <ele>33.2</ele>
        <time>2021-07-18T09:11:16Z</time>
      </trkpt>
      <trkpt lat="43.3829000" lon="-4.5581200">
        <ele>33.6</ele>
        <time>2021-07-18T09:11:17Z</time>
      </trkpt>
      <trkpt lat="43.3829110" lon="-4.5581500">
        <ele>33.6</ele>
        <time>2021-07-18T09:11:18Z</time>
      </trkpt>
      <trkpt lat="43.3829330" lon="-4.5582230">
        <ele>33.6</ele>
        <time>2021-07-18T09:11:20Z</time>
      </trkpt>
      <trkpt lat="43.3829760" lon="-4.5583660">
        <ele>33.6</ele>
        <time>2021-07-18T09:11:24Z</time>
      </trkpt>
      <trkpt lat="43.3829960" lon="-4.5584390">
        <ele>33.6</ele>
        <time>2021-07-18T09:11:26Z</time>
      </trkpt>
      <trkpt lat="43.3830050" lon="-4.5584750">
        <ele>34.0</ele>
        <time>2021-07-18T09:11:27Z</time>
      </trkpt>
      <trkpt lat="43.3830140" lon="-4.5585110">
        <ele>34.6</ele>
        <time>2021-07-18T09:11:28Z</time>
      </trkpt>
      <trkpt lat="43.3830230" lon="-4.5585470">
        <ele>35.0</ele>
        <time>2021-07-18T09:11:29Z</time>
      </trkpt>
      <trkpt lat="43.3830300" lon="-4.5585840">
        <ele>35.4</ele>
        <time>2021-07-18T09:11:30Z</time>
      </trkpt>
      <trkpt lat="43.3830390" lon="-4.5586180">
        <ele>35.8</ele>
        <time>2021-07-18T09:11:31Z</time>
      </trkpt>
      <trkpt lat="43.3830890" lon="-4.5588000">
        <ele>35.8</ele>
        <time>2021-07-18T09:11:36Z</time>
      </trkpt>
      <trkpt lat="43.3831150" lon="-4.5589080">
        <ele>36.2</ele>
        <time>2021-07-18T09:11:39Z</time>
      </trkpt>
      <trkpt lat="43.3831240" lon="-4.5589460">
        <ele>36.6</ele>
        <time>2021-07-18T09:11:40Z</time>
      </trkpt>
      <trkpt lat="43.3831320" lon="-4.5589850">
        <ele>37.0</ele>
        <time>2021-07-18T09:11:41Z</time>
      </trkpt>
      <trkpt lat="43.3831420" lon="-4.5590210">
        <ele>37.4</ele>
        <time>2021-07-18T09:11:42Z</time>
      </trkpt>
      <trkpt lat="43.3831530" lon="-4.5590590">
        <ele>37.8</ele>
        <time>2021-07-18T09:11:43Z</time>
      </trkpt>
      <trkpt lat="43.3831870" lon="-4.5591870">
        <ele>37.8</ele>
        <time>2021-07-18T09:11:46Z</time>
      </trkpt>
      <trkpt lat="43.3832790" lon="-4.5595380">
        <ele>37.8</ele>
        <time>2021-07-18T09:11:54Z</time>
      </trkpt>
      <trkpt lat="43.3833130" lon="-4.5597230">
        <ele>37.8</ele>
        <time>2021-07-18T09:11:58Z</time>
      </trkpt>
      <trkpt lat="43.3833490" lon="-4.5599080">
        <ele>37.8</ele>
        <time>2021-07-18T09:12:02Z</time>
      </trkpt>
      <trkpt lat="43.3834000" lon="-4.5601870">
        <ele>37.8</ele>
        <time>2021-07-18T09:12:08Z</time>
      </trkpt>
      <trkpt lat="43.3834070" lon="-4.5602280">
        <ele>37.8</ele>
        <time>2021-07-18T09:12:09Z</time>
      </trkpt>
      <trkpt lat="43.3834220" lon="-4.5603080">
        <ele>37.8</ele>
        <time>2021-07-18T09:12:11Z</time>
      </trkpt>
      <trkpt lat="43.3834290" lon="-4.5603460">
        <ele>37.8</ele>
        <time>2021-07-18T09:12:12Z</time>
      </trkpt>
      <trkpt lat="43.3834370" lon="-4.5603820">
        <ele>37.8</ele>
        <time>2021-07-18T09:12:13Z</time>
      </trkpt>
      <trkpt lat="43.3834670" lon="-4.5605020">
        <ele>37.8</ele>
        <time>2021-07-18T09:12:16Z</time>
      </trkpt>
      <trkpt lat="43.3834990" lon="-4.5606870">
        <ele>37.8</ele>
        <time>2021-07-18T09:12:20Z</time>
      </trkpt>
      <trkpt lat="43.3835250" lon="-4.5608500">
        <ele>37.8</ele>
        <time>2021-07-18T09:12:23Z</time>
      </trkpt>
      <trkpt lat="43.3835440" lon="-4.5609680">
        <ele>37.8</ele>
        <time>2021-07-18T09:12:25Z</time>
      </trkpt>
      <trkpt lat="43.3835560" lon="-4.5610830">
        <ele>37.8</ele>
        <time>2021-07-18T09:12:27Z</time>
      </trkpt>
      <trkpt lat="43.3835540" lon="-4.5611430">
        <ele>37.8</ele>
        <time>2021-07-18T09:12:28Z</time>
      </trkpt>
      <trkpt lat="43.3835510" lon="-4.5612010">
        <ele>37.8</ele>
        <time>2021-07-18T09:12:29Z</time>
      </trkpt>
      <trkpt lat="43.3835510" lon="-4.5612600">
        <ele>37.4</ele>
        <time>2021-07-18T09:12:30Z</time>
      </trkpt>
      <trkpt lat="43.3835570" lon="-4.5613160">
        <ele>37.0</ele>
        <time>2021-07-18T09:12:31Z</time>
      </trkpt>
      <trkpt lat="43.3835630" lon="-4.5613710">
        <ele>36.6</ele>
        <time>2021-07-18T09:12:32Z</time>
      </trkpt>
      <trkpt lat="43.3835660" lon="-4.5614280">
        <ele>36.0</ele>
        <time>2021-07-18T09:12:33Z</time>
      </trkpt>
      <trkpt lat="43.3835700" lon="-4.5614830">
        <ele>35.6</ele>
        <time>2021-07-18T09:12:34Z</time>
      </trkpt>
      <trkpt lat="43.3835710" lon="-4.5615810">
        <ele>35.2</ele>
        <time>2021-07-18T09:12:36Z</time>
      </trkpt>
      <trkpt lat="43.3835740" lon="-4.5616290">
        <ele>34.6</ele>
        <time>2021-07-18T09:12:37Z</time>
      </trkpt>
      <trkpt lat="43.3835740" lon="-4.5616810">
        <ele>34.2</ele>
        <time>2021-07-18T09:12:38Z</time>
      </trkpt>
      <trkpt lat="43.3835730" lon="-4.5617380">
        <ele>33.8</ele>
        <time>2021-07-18T09:12:39Z</time>
      </trkpt>
      <trkpt lat="43.3835700" lon="-4.5617990">
        <ele>33.2</ele>
        <time>2021-07-18T09:12:40Z</time>
      </trkpt>
      <trkpt lat="43.3835680" lon="-4.5618640">
        <ele>33.2</ele>
        <time>2021-07-18T09:12:41Z</time>
      </trkpt>
      <trkpt lat="43.3835700" lon="-4.5620080">
        <ele>32.8</ele>
        <time>2021-07-18T09:12:43Z</time>
      </trkpt>
      <trkpt lat="43.3835710" lon="-4.5620800">
        <ele>32.2</ele>
        <time>2021-07-18T09:12:44Z</time>
      </trkpt>
      <trkpt lat="43.3835720" lon="-4.5621560">
        <ele>31.8</ele>
        <time>2021-07-18T09:12:45Z</time>
      </trkpt>
      <trkpt lat="43.3835740" lon="-4.5622360">
        <ele>31.2</ele>
        <time>2021-07-18T09:12:46Z</time>
      </trkpt>
      <trkpt lat="43.3835780" lon="-4.5623170">
        <ele>30.8</ele>
        <time>2021-07-18T09:12:47Z</time>
      </trkpt>
      <trkpt lat="43.3835830" lon="-4.5623990">
        <ele>29.8</ele>
        <time>2021-07-18T09:12:48Z</time>
      </trkpt>
      <trkpt lat="43.3835870" lon="-4.5624850">
        <ele>29.4</ele>
        <time>2021-07-18T09:12:49Z</time>
      </trkpt>
      <trkpt lat="43.3835920" lon="-4.5625760">
        <ele>29.0</ele>
        <time>2021-07-18T09:12:50Z</time>
      </trkpt>
      <trkpt lat="43.3836000" lon="-4.5626620">
        <ele>28.6</ele>
        <time>2021-07-18T09:12:51Z</time>
      </trkpt>
      <trkpt lat="43.3836210" lon="-4.5628280">
        <ele>28.2</ele>
        <time>2021-07-18T09:12:53Z</time>
      </trkpt>
      <trkpt lat="43.3836320" lon="-4.5629110">
        <ele>27.8</ele>
        <time>2021-07-18T09:12:54Z</time>
      </trkpt>
      <trkpt lat="43.3836400" lon="-4.5629900">
        <ele>27.4</ele>
        <time>2021-07-18T09:12:55Z</time>
      </trkpt>
      <trkpt lat="43.3836450" lon="-4.5630680">
        <ele>27.0</ele>
        <time>2021-07-18T09:12:56Z</time>
      </trkpt>
      <trkpt lat="43.3836490" lon="-4.5631500">
        <ele>26.6</ele>
        <time>2021-07-18T09:12:57Z</time>
      </trkpt>
      <trkpt lat="43.3836510" lon="-4.5633760">
        <ele>26.2</ele>
        <time>2021-07-18T09:13:00Z</time>
      </trkpt>
      <trkpt lat="43.3836460" lon="-4.5634460">
        <ele>25.8</ele>
        <time>2021-07-18T09:13:01Z</time>
      </trkpt>
      <trkpt lat="43.3836390" lon="-4.5635140">
        <ele>25.4</ele>
        <time>2021-07-18T09:13:02Z</time>
      </trkpt>
      <trkpt lat="43.3836310" lon="-4.5635790">
        <ele>25.0</ele>
        <time>2021-07-18T09:13:03Z</time>
      </trkpt>
      <trkpt lat="43.3836220" lon="-4.5636380">
        <ele>24.6</ele>
        <time>2021-07-18T09:13:04Z</time>
      </trkpt>
      <trkpt lat="43.3836060" lon="-4.5637430">
        <ele>24.6</ele>
        <time>2021-07-18T09:13:06Z</time>
      </trkpt>
      <trkpt lat="43.3835960" lon="-4.5638380">
        <ele>24.6</ele>
        <time>2021-07-18T09:13:08Z</time>
      </trkpt>
      <trkpt lat="43.3835890" lon="-4.5638840">
        <ele>24.6</ele>
        <time>2021-07-18T09:13:09Z</time>
      </trkpt>
      <trkpt lat="43.3835740" lon="-4.5639730">
        <ele>24.6</ele>
        <time>2021-07-18T09:13:11Z</time>
      </trkpt>
      <trkpt lat="43.3835590" lon="-4.5640590">
        <ele>24.6</ele>
        <time>2021-07-18T09:13:13Z</time>
      </trkpt>
      <trkpt lat="43.3835470" lon="-4.5641420">
        <ele>24.6</ele>
        <time>2021-07-18T09:13:15Z</time>
      </trkpt>
      <trkpt lat="43.3835380" lon="-4.5642180">
        <ele>24.6</ele>
        <time>2021-07-18T09:13:17Z</time>
      </trkpt>
      <trkpt lat="43.3835330" lon="-4.5642950">
        <ele>24.6</ele>
        <time>2021-07-18T09:13:19Z</time>
      </trkpt>
      <trkpt lat="43.3835280" lon="-4.5643370">
        <ele>24.6</ele>
        <time>2021-07-18T09:13:20Z</time>
      </trkpt>
      <trkpt lat="43.3835150" lon="-4.5644580">
        <ele>24.6</ele>
        <time>2021-07-18T09:13:23Z</time>
      </trkpt>
      <trkpt lat="43.3835060" lon="-4.5645730">
        <ele>24.6</ele>
        <time>2021-07-18T09:13:26Z</time>
      </trkpt>
      <trkpt lat="43.3834990" lon="-4.5646510">
        <ele>25.0</ele>
        <time>2021-07-18T09:13:28Z</time>
      </trkpt>
      <trkpt lat="43.3834990" lon="-4.5646890">
        <ele>25.4</ele>
        <time>2021-07-18T09:13:29Z</time>
      </trkpt>
      <trkpt lat="43.3835000" lon="-4.5647290">
        <ele>25.8</ele>
        <time>2021-07-18T09:13:30Z</time>
      </trkpt>
      <trkpt lat="43.3835010" lon="-4.5647680">
        <ele>26.2</ele>
        <time>2021-07-18T09:13:31Z</time>
      </trkpt>
      <trkpt lat="43.3835020" lon="-4.5648050">
        <ele>26.6</ele>
        <time>2021-07-18T09:13:32Z</time>
      </trkpt>
      <trkpt lat="43.3834980" lon="-4.5649560">
        <ele>26.6</ele>
        <time>2021-07-18T09:13:36Z</time>
      </trkpt>
      <trkpt lat="43.3835250" lon="-4.5652620">
        <ele>26.6</ele>
        <time>2021-07-18T09:13:44Z</time>
      </trkpt>
      <trkpt lat="43.3835810" lon="-4.5655480">
        <ele>26.6</ele>
        <time>2021-07-18T09:13:50Z</time>
      </trkpt>
      <trkpt lat="43.3836030" lon="-4.5656030">
        <ele>26.6</ele>
        <time>2021-07-18T09:13:51Z</time>
      </trkpt>
      <trkpt lat="43.3836840" lon="-4.5657850">
        <ele>26.6</ele>
        <time>2021-07-18T09:13:54Z</time>
      </trkpt>
      <trkpt lat="43.3837070" lon="-4.5658570">
        <ele>26.6</ele>
        <time>2021-07-18T09:13:55Z</time>
      </trkpt>
      <trkpt lat="43.3837530" lon="-4.5660200">
        <ele>26.6</ele>
        <time>2021-07-18T09:13:57Z</time>
      </trkpt>
      <trkpt lat="43.3838010" lon="-4.5661830">
        <ele>26.6</ele>
        <time>2021-07-18T09:13:59Z</time>
      </trkpt>
      <trkpt lat="43.3838470" lon="-4.5663390">
        <ele>26.2</ele>
        <time>2021-07-18T09:14:01Z</time>
      </trkpt>
      <trkpt lat="43.3838690" lon="-4.5664060">
        <ele>25.4</ele>
        <time>2021-07-18T09:14:02Z</time>
      </trkpt>
      <trkpt lat="43.3838910" lon="-4.5664690">
        <ele>25.0</ele>
        <time>2021-07-18T09:14:03Z</time>
      </trkpt>
      <trkpt lat="43.3839130" lon="-4.5665280">
        <ele>24.6</ele>
        <time>2021-07-18T09:14:04Z</time>
      </trkpt>
      <trkpt lat="43.3839350" lon="-4.5665880">
        <ele>24.6</ele>
        <time>2021-07-18T09:14:05Z</time>
      </trkpt>
      <trkpt lat="43.3839770" lon="-4.5666970">
        <ele>24.6</ele>
        <time>2021-07-18T09:14:07Z</time>
      </trkpt>
      <trkpt lat="43.3840120" lon="-4.5667920">
        <ele>24.2</ele>
        <time>2021-07-18T09:14:09Z</time>
      </trkpt>
      <trkpt lat="43.3840260" lon="-4.5668300">
        <ele>23.6</ele>
        <time>2021-07-18T09:14:10Z</time>
      </trkpt>
      <trkpt lat="43.3840370" lon="-4.5668650">
        <ele>23.2</ele>
        <time>2021-07-18T09:14:11Z</time>
      </trkpt>
      <trkpt lat="43.3840460" lon="-4.5668960">
        <ele>22.8</ele>
        <time>2021-07-18T09:14:12Z</time>
      </trkpt>
      <trkpt lat="43.3840540" lon="-4.5669280">
        <ele>22.4</ele>
        <time>2021-07-18T09:14:13Z</time>
      </trkpt>
      <trkpt lat="43.3840410" lon="-4.5670910">
        <ele>22.4</ele>
        <time>2021-07-18T09:14:18Z</time>
      </trkpt>
      <trkpt lat="43.3840390" lon="-4.5671850">
        <ele>22.4</ele>
        <time>2021-07-18T09:14:22Z</time>
      </trkpt>
      <trkpt lat="43.3840630" lon="-4.5671300">
        <ele>20.4</ele>
        <time>2021-07-18T09:15:06Z</time>
      </trkpt>
      <trkpt lat="43.3840680" lon="-4.5671060">
        <ele>20.4</ele>
        <time>2021-07-18T09:15:07Z</time>
      </trkpt>
      <trkpt lat="43.3840680" lon="-4.5670800">
        <ele>20.4</ele>
        <time>2021-07-18T09:15:08Z</time>
      </trkpt>
      <trkpt lat="43.3840550" lon="-4.5670150">
        <ele>20.4</ele>
        <time>2021-07-18T09:15:11Z</time>
      </trkpt>
      <trkpt lat="43.3840500" lon="-4.5670020">
        <ele>20.4</ele>
        <time>2021-07-18T09:15:12Z</time>
      </trkpt>
      <trkpt lat="43.3840410" lon="-4.5669960">
        <ele>20.4</ele>
        <time>2021-07-18T09:15:13Z</time>
      </trkpt>
      <trkpt lat="43.3840340" lon="-4.5669900">
        <ele>20.4</ele>
        <time>2021-07-18T09:15:15Z</time>
      </trkpt>
      <trkpt lat="43.3840530" lon="-4.5669560">
        <ele>20.4</ele>
        <time>2021-07-18T09:15:40Z</time>
      </trkpt>
      <trkpt lat="43.3840450" lon="-4.5669500">
        <ele>20.4</ele>
        <time>2021-07-18T09:15:41Z</time>
      </trkpt>
      <trkpt lat="43.3840370" lon="-4.5669470">
        <ele>20.4</ele>
        <time>2021-07-18T09:15:43Z</time>
      </trkpt>
      <trkpt lat="43.3839910" lon="-4.5669910">
        <ele>20.4</ele>
        <time>2021-07-18T09:19:43Z</time>
      </trkpt>
      <trkpt lat="43.3839770" lon="-4.5669910">
        <ele>20.4</ele>
        <time>2021-07-18T09:19:44Z</time>
      </trkpt>
      <trkpt lat="43.3839420" lon="-4.5669840">
        <ele>20.4</ele>
        <time>2021-07-18T09:19:46Z</time>
      </trkpt>
      <trkpt lat="43.3839040" lon="-4.5669550">
        <ele>20.4</ele>
        <time>2021-07-18T09:19:48Z</time>
      </trkpt>
      <trkpt lat="43.3838650" lon="-4.5668580">
        <ele>20.4</ele>
        <time>2021-07-18T09:19:52Z</time>
      </trkpt>
      <trkpt lat="43.3838570" lon="-4.5668350">
        <ele>20.4</ele>
        <time>2021-07-18T09:19:53Z</time>
      </trkpt>
      <trkpt lat="43.3838250" lon="-4.5667170">
        <ele>20.4</ele>
        <time>2021-07-18T09:19:57Z</time>
      </trkpt>
      <trkpt lat="43.3838000" lon="-4.5666530">
        <ele>20.8</ele>
        <time>2021-07-18T09:19:59Z</time>
      </trkpt>
      <trkpt lat="43.3837850" lon="-4.5666210">
        <ele>21.2</ele>
        <time>2021-07-18T09:20:00Z</time>
      </trkpt>
      <trkpt lat="43.3837690" lon="-4.5665920">
        <ele>21.6</ele>
        <time>2021-07-18T09:20:01Z</time>
      </trkpt>
      <trkpt lat="43.3837510" lon="-4.5665670">
        <ele>22.0</ele>
        <time>2021-07-18T09:20:02Z</time>
      </trkpt>
      <trkpt lat="43.3837280" lon="-4.5665450">
        <ele>22.4</ele>
        <time>2021-07-18T09:20:03Z</time>
      </trkpt>
      <trkpt lat="43.3836540" lon="-4.5664920">
        <ele>22.4</ele>
        <time>2021-07-18T09:20:06Z</time>
      </trkpt>
      <trkpt lat="43.3835500" lon="-4.5664680">
        <ele>22.4</ele>
        <time>2021-07-18T09:20:10Z</time>
      </trkpt>
      <trkpt lat="43.3835170" lon="-4.5664730">
        <ele>22.4</ele>
        <time>2021-07-18T09:20:11Z</time>
      </trkpt>
      <trkpt lat="43.3833340" lon="-4.5664510">
        <ele>22.4</ele>
        <time>2021-07-18T09:20:16Z</time>
      </trkpt>
      <trkpt lat="43.3832670" lon="-4.5663920">
        <ele>22.4</ele>
        <time>2021-07-18T09:20:18Z</time>
      </trkpt>
      <trkpt lat="43.3832100" lon="-4.5663130">
        <ele>22.4</ele>
        <time>2021-07-18T09:20:20Z</time>
      </trkpt>
      <trkpt lat="43.3831650" lon="-4.5661420">
        <ele>22.4</ele>
        <time>2021-07-18T09:20:24Z</time>
      </trkpt>
      <trkpt lat="43.3831930" lon="-4.5660180">
        <ele>22.4</ele>
        <time>2021-07-18T09:20:27Z</time>
      </trkpt>
      <trkpt lat="43.3832130" lon="-4.5659750">
        <ele>22.4</ele>
        <time>2021-07-18T09:20:28Z</time>
      </trkpt>
      <trkpt lat="43.3832620" lon="-4.5658930">
        <ele>22.4</ele>
        <time>2021-07-18T09:20:30Z</time>
      </trkpt>
      <trkpt lat="43.3833560" lon="-4.5658140">
        <ele>22.4</ele>
        <time>2021-07-18T09:20:33Z</time>
      </trkpt>
      <trkpt lat="43.3835390" lon="-4.5658270">
        <ele>22.4</ele>
        <time>2021-07-18T09:20:38Z</time>
      </trkpt>
      <trkpt lat="43.3835710" lon="-4.5658500">
        <ele>22.8</ele>
        <time>2021-07-18T09:20:39Z</time>
      </trkpt>
      <trkpt lat="43.3836020" lon="-4.5658760">
        <ele>23.2</ele>
        <time>2021-07-18T09:20:40Z</time>
      </trkpt>
      <trkpt lat="43.3836300" lon="-4.5659050">
        <ele>23.8</ele>
        <time>2021-07-18T09:20:41Z</time>
      </trkpt>
      <trkpt lat="43.3836530" lon="-4.5659380">
        <ele>24.2</ele>
        <time>2021-07-18T09:20:42Z</time>
      </trkpt>
      <trkpt lat="43.3836730" lon="-4.5659760">
        <ele>24.6</ele>
        <time>2021-07-18T09:20:43Z</time>
      </trkpt>
      <trkpt lat="43.3837150" lon="-4.5662010">
        <ele>24.6</ele>
        <time>2021-07-18T09:20:48Z</time>
      </trkpt>
      <trkpt lat="43.3837850" lon="-4.5664750">
        <ele>24.6</ele>
        <time>2021-07-18T09:20:54Z</time>
      </trkpt>
      <trkpt lat="43.3838330" lon="-4.5665750">
        <ele>24.6</ele>
        <time>2021-07-18T09:20:56Z</time>
      </trkpt>
      <trkpt lat="43.3838810" lon="-4.5666870">
        <ele>24.6</ele>
        <time>2021-07-18T09:20:58Z</time>
      </trkpt>
      <trkpt lat="43.3839310" lon="-4.5668150">
        <ele>24.6</ele>
        <time>2021-07-18T09:21:00Z</time>
      </trkpt>
      <trkpt lat="43.3839770" lon="-4.5669430">
        <ele>24.6</ele>
        <time>2021-07-18T09:21:02Z</time>
      </trkpt>
      <trkpt lat="43.3840200" lon="-4.5670760">
        <ele>24.6</ele>
        <time>2021-07-18T09:21:04Z</time>
      </trkpt>
      <trkpt lat="43.3840870" lon="-4.5672980">
        <ele>24.6</ele>
        <time>2021-07-18T09:21:07Z</time>
      </trkpt>
      <trkpt lat="43.3841100" lon="-4.5673740">
        <ele>24.6</ele>
        <time>2021-07-18T09:21:08Z</time>
      </trkpt>
      <trkpt lat="43.3841590" lon="-4.5675250">
        <ele>24.2</ele>
        <time>2021-07-18T09:21:10Z</time>
      </trkpt>
      <trkpt lat="43.3841840" lon="-4.5676010">
        <ele>23.8</ele>
        <time>2021-07-18T09:21:11Z</time>
      </trkpt>
      <trkpt lat="43.3842090" lon="-4.5676780">
        <ele>23.4</ele>
        <time>2021-07-18T09:21:12Z</time>
      </trkpt>
      <trkpt lat="43.3842330" lon="-4.5677550">
        <ele>23.0</ele>
        <time>2021-07-18T09:21:13Z</time>
      </trkpt>
      <trkpt lat="43.3842590" lon="-4.5678370">
        <ele>22.6</ele>
        <time>2021-07-18T09:21:14Z</time>
      </trkpt>
      <trkpt lat="43.3843110" lon="-4.5679900">
        <ele>22.6</ele>
        <time>2021-07-18T09:21:16Z</time>
      </trkpt>
      <trkpt lat="43.3844210" lon="-4.5682940">
        <ele>22.0</ele>
        <time>2021-07-18T09:21:20Z</time>
      </trkpt>
      <trkpt lat="43.3844490" lon="-4.5683680">
        <ele>21.6</ele>
        <time>2021-07-18T09:21:21Z</time>
      </trkpt>
      <trkpt lat="43.3844760" lon="-4.5684420">
        <ele>21.2</ele>
        <time>2021-07-18T09:21:22Z</time>
      </trkpt>
      <trkpt lat="43.3845010" lon="-4.5685160">
        <ele>20.8</ele>
        <time>2021-07-18T09:21:23Z</time>
      </trkpt>
      <trkpt lat="43.3845270" lon="-4.5685910">
        <ele>20.2</ele>
        <time>2021-07-18T09:21:24Z</time>
      </trkpt>
      <trkpt lat="43.3845800" lon="-4.5687360">
        <ele>20.2</ele>
        <time>2021-07-18T09:21:26Z</time>
      </trkpt>
      <trkpt lat="43.3846350" lon="-4.5688810">
        <ele>19.8</ele>
        <time>2021-07-18T09:21:28Z</time>
      </trkpt>
      <trkpt lat="43.3846620" lon="-4.5689490">
        <ele>19.4</ele>
        <time>2021-07-18T09:21:29Z</time>
      </trkpt>
      <trkpt lat="43.3846870" lon="-4.5690170">
        <ele>19.0</ele>
        <time>2021-07-18T09:21:30Z</time>
      </trkpt>
      <trkpt lat="43.3847110" lon="-4.5690830">
        <ele>18.6</ele>
        <time>2021-07-18T09:21:31Z</time>
      </trkpt>
      <trkpt lat="43.3847370" lon="-4.5691480">
        <ele>18.2</ele>
        <time>2021-07-18T09:21:32Z</time>
      </trkpt>
      <trkpt lat="43.3848270" lon="-4.5694040">
        <ele>18.2</ele>
        <time>2021-07-18T09:21:36Z</time>
      </trkpt>
      <trkpt lat="43.3849530" lon="-4.5697540">
        <ele>18.2</ele>
        <time>2021-07-18T09:21:42Z</time>
      </trkpt>
      <trkpt lat="43.3849750" lon="-4.5698190">
        <ele>18.2</ele>
        <time>2021-07-18T09:21:43Z</time>
      </trkpt>
      <trkpt lat="43.3851510" lon="-4.5703720">
        <ele>17.8</ele>
        <time>2021-07-18T09:21:52Z</time>
      </trkpt>
      <trkpt lat="43.3851700" lon="-4.5704310">
        <ele>17.4</ele>
        <time>2021-07-18T09:21:53Z</time>
      </trkpt>
      <trkpt lat="43.3851870" lon="-4.5704910">
        <ele>17.0</ele>
        <time>2021-07-18T09:21:54Z</time>
      </trkpt>
      <trkpt lat="43.3852040" lon="-4.5705490">
        <ele>16.6</ele>
        <time>2021-07-18T09:21:55Z</time>
      </trkpt>
      <trkpt lat="43.3852200" lon="-4.5706060">
        <ele>16.2</ele>
        <time>2021-07-18T09:21:56Z</time>
      </trkpt>
      <trkpt lat="43.3853030" lon="-4.5708840">
        <ele>16.2</ele>
        <time>2021-07-18T09:22:01Z</time>
      </trkpt>
      <trkpt lat="43.3853610" lon="-4.5710980">
        <ele>16.2</ele>
        <time>2021-07-18T09:22:05Z</time>
      </trkpt>
      <trkpt lat="43.3854110" lon="-4.5713170">
        <ele>16.2</ele>
        <time>2021-07-18T09:22:09Z</time>
      </trkpt>
      <trkpt lat="43.3854410" lon="-4.5714460">
        <ele>16.2</ele>
        <time>2021-07-18T09:22:11Z</time>
      </trkpt>
      <trkpt lat="43.3854870" lon="-4.5716370">
        <ele>16.2</ele>
        <time>2021-07-18T09:22:14Z</time>
      </trkpt>
      <trkpt lat="43.3855570" lon="-4.5719400">
        <ele>16.2</ele>
        <time>2021-07-18T09:22:19Z</time>
      </trkpt>
      <trkpt lat="43.3856480" lon="-4.5722780">
        <ele>16.2</ele>
        <time>2021-07-18T09:22:24Z</time>
      </trkpt>
      <trkpt lat="43.3856850" lon="-4.5724180">
        <ele>16.2</ele>
        <time>2021-07-18T09:22:26Z</time>
      </trkpt>
      <trkpt lat="43.3857180" lon="-4.5725650">
        <ele>16.2</ele>
        <time>2021-07-18T09:22:28Z</time>
      </trkpt>
      <trkpt lat="43.3857590" lon="-4.5727470">
        <ele>15.8</ele>
        <time>2021-07-18T09:22:31Z</time>
      </trkpt>
      <trkpt lat="43.3857710" lon="-4.5727970">
        <ele>15.4</ele>
        <time>2021-07-18T09:22:32Z</time>
      </trkpt>
      <trkpt lat="43.3857830" lon="-4.5728450">
        <ele>15.0</ele>
        <time>2021-07-18T09:22:33Z</time>
      </trkpt>
      <trkpt lat="43.3857980" lon="-4.5728910">
        <ele>14.4</ele>
        <time>2021-07-18T09:22:34Z</time>
      </trkpt>
      <trkpt lat="43.3858090" lon="-4.5729320">
        <ele>14.0</ele>
        <time>2021-07-18T09:22:35Z</time>
      </trkpt>
      <trkpt lat="43.3858480" lon="-4.5730420">
        <ele>14.0</ele>
        <time>2021-07-18T09:22:39Z</time>
      </trkpt>
      <trkpt lat="43.3858450" lon="-4.5730460">
        <ele>14.0</ele>
        <time>2021-07-18T09:22:40Z</time>
      </trkpt>
      <trkpt lat="43.3858290" lon="-4.5730760">
        <ele>12.0</ele>
        <time>2021-07-18T09:23:00Z</time>
      </trkpt>
      <trkpt lat="43.3858110" lon="-4.5730970">
        <ele>12.0</ele>
        <time>2021-07-18T09:23:01Z</time>
      </trkpt>
      <trkpt lat="43.3857970" lon="-4.5731130">
        <ele>12.0</ele>
        <time>2021-07-18T09:23:02Z</time>
      </trkpt>
      <trkpt lat="43.3857850" lon="-4.5731320">
        <ele>12.0</ele>
        <time>2021-07-18T09:23:03Z</time>
      </trkpt>
      <trkpt lat="43.3857570" lon="-4.5731770">
        <ele>12.0</ele>
        <time>2021-07-18T09:23:05Z</time>
      </trkpt>
      <trkpt lat="43.3857280" lon="-4.5732420">
        <ele>12.0</ele>
        <time>2021-07-18T09:23:07Z</time>
      </trkpt>
      <trkpt lat="43.3857150" lon="-4.5732840">
        <ele>12.0</ele>
        <time>2021-07-18T09:23:08Z</time>
      </trkpt>
      <trkpt lat="43.3857050" lon="-4.5735080">
        <ele>12.0</ele>
        <time>2021-07-18T09:23:12Z</time>
      </trkpt>
      <trkpt lat="43.3857290" lon="-4.5736450">
        <ele>12.0</ele>
        <time>2021-07-18T09:23:14Z</time>
      </trkpt>
      <trkpt lat="43.3857640" lon="-4.5737910">
        <ele>12.0</ele>
        <time>2021-07-18T09:23:16Z</time>
      </trkpt>
      <trkpt lat="43.3857820" lon="-4.5738670">
        <ele>12.0</ele>
        <time>2021-07-18T09:23:17Z</time>
      </trkpt>
      <trkpt lat="43.3858410" lon="-4.5741680">
        <ele>12.0</ele>
        <time>2021-07-18T09:23:21Z</time>
      </trkpt>
      <trkpt lat="43.3858600" lon="-4.5742820">
        <ele>11.6</ele>
        <time>2021-07-18T09:23:23Z</time>
      </trkpt>
      <trkpt lat="43.3858680" lon="-4.5743270">
        <ele>11.0</ele>
        <time>2021-07-18T09:23:24Z</time>
      </trkpt>
      <trkpt lat="43.3858740" lon="-4.5743750">
        <ele>10.6</ele>
        <time>2021-07-18T09:23:25Z</time>
      </trkpt>
      <trkpt lat="43.3858810" lon="-4.5744240">
        <ele>10.2</ele>
        <time>2021-07-18T09:23:26Z</time>
      </trkpt>
      <trkpt lat="43.3858920" lon="-4.5744740">
        <ele>9.8</ele>
        <time>2021-07-18T09:23:27Z</time>
      </trkpt>
      <trkpt lat="43.3859120" lon="-4.5745810">
        <ele>9.8</ele>
        <time>2021-07-18T09:23:29Z</time>
      </trkpt>
      <trkpt lat="43.3859310" lon="-4.5746900">
        <ele>9.8</ele>
        <time>2021-07-18T09:23:31Z</time>
      </trkpt>
      <trkpt lat="43.3859510" lon="-4.5747980">
        <ele>9.8</ele>
        <time>2021-07-18T09:23:33Z</time>
      </trkpt>
      <trkpt lat="43.3859580" lon="-4.5748540">
        <ele>9.8</ele>
        <time>2021-07-18T09:23:34Z</time>
      </trkpt>
      <trkpt lat="43.3859700" lon="-4.5749750">
        <ele>9.8</ele>
        <time>2021-07-18T09:23:36Z</time>
      </trkpt>
      <trkpt lat="43.3860100" lon="-4.5753160">
        <ele>9.8</ele>
        <time>2021-07-18T09:23:41Z</time>
      </trkpt>
      <trkpt lat="43.3860310" lon="-4.5754720">
        <ele>9.8</ele>
        <time>2021-07-18T09:23:43Z</time>
      </trkpt>
      <trkpt lat="43.3860560" lon="-4.5756210">
        <ele>9.8</ele>
        <time>2021-07-18T09:23:45Z</time>
      </trkpt>
      <trkpt lat="43.3861300" lon="-4.5757990">
        <ele>9.8</ele>
        <time>2021-07-18T09:23:48Z</time>
      </trkpt>
      <trkpt lat="43.3861580" lon="-4.5758460">
        <ele>9.8</ele>
        <time>2021-07-18T09:23:49Z</time>
      </trkpt>
      <trkpt lat="43.3862200" lon="-4.5759370">
        <ele>9.8</ele>
        <time>2021-07-18T09:23:51Z</time>
      </trkpt>
      <trkpt lat="43.3862480" lon="-4.5759760">
        <ele>9.8</ele>
        <time>2021-07-18T09:23:52Z</time>
      </trkpt>
      <trkpt lat="43.3863030" lon="-4.5760530">
        <ele>9.8</ele>
        <time>2021-07-18T09:23:54Z</time>
      </trkpt>
      <trkpt lat="43.3863300" lon="-4.5760910">
        <ele>9.8</ele>
        <time>2021-07-18T09:23:55Z</time>
      </trkpt>
      <trkpt lat="43.3863780" lon="-4.5761660">
        <ele>9.8</ele>
        <time>2021-07-18T09:23:57Z</time>
      </trkpt>
      <trkpt lat="43.3864270" lon="-4.5762420">
        <ele>9.8</ele>
        <time>2021-07-18T09:23:59Z</time>
      </trkpt>
      <trkpt lat="43.3864730" lon="-4.5763150">
        <ele>9.8</ele>
        <time>2021-07-18T09:24:01Z</time>
      </trkpt>
      <trkpt lat="43.3864970" lon="-4.5763470">
        <ele>9.8</ele>
        <time>2021-07-18T09:24:02Z</time>
      </trkpt>
      <trkpt lat="43.3865650" lon="-4.5764520">
        <ele>9.8</ele>
        <time>2021-07-18T09:24:05Z</time>
      </trkpt>
      <trkpt lat="43.3865890" lon="-4.5764890">
        <ele>9.8</ele>
        <time>2021-07-18T09:24:06Z</time>
      </trkpt>
      <trkpt lat="43.3866790" lon="-4.5766320">
        <ele>9.8</ele>
        <time>2021-07-18T09:24:10Z</time>
      </trkpt>
      <trkpt lat="43.3867030" lon="-4.5766650">
        <ele>9.8</ele>
        <time>2021-07-18T09:24:11Z</time>
      </trkpt>
      <trkpt lat="43.3867980" lon="-4.5767940">
        <ele>10.2</ele>
        <time>2021-07-18T09:24:15Z</time>
      </trkpt>
      <trkpt lat="43.3868210" lon="-4.5768270">
        <ele>10.6</ele>
        <time>2021-07-18T09:24:16Z</time>
      </trkpt>
      <trkpt lat="43.3868400" lon="-4.5768600">
        <ele>11.0</ele>
        <time>2021-07-18T09:24:17Z</time>
      </trkpt>
      <trkpt lat="43.3868580" lon="-4.5768920">
        <ele>11.4</ele>
        <time>2021-07-18T09:24:18Z</time>
      </trkpt>
      <trkpt lat="43.3868720" lon="-4.5769270">
        <ele>11.8</ele>
        <time>2021-07-18T09:24:19Z</time>
      </trkpt>
      <trkpt lat="43.3868880" lon="-4.5769660">
        <ele>11.8</ele>
        <time>2021-07-18T09:24:20Z</time>
      </trkpt>
      <trkpt lat="43.3869710" lon="-4.5772410">
        <ele>11.8</ele>
        <time>2021-07-18T09:24:25Z</time>
      </trkpt>
      <trkpt lat="43.3870320" lon="-4.5775880">
        <ele>11.8</ele>
        <time>2021-07-18T09:24:30Z</time>
      </trkpt>
      <trkpt lat="43.3870450" lon="-4.5776550">
        <ele>11.4</ele>
        <time>2021-07-18T09:24:31Z</time>
      </trkpt>
      <trkpt lat="43.3870570" lon="-4.5777270">
        <ele>10.8</ele>
        <time>2021-07-18T09:24:32Z</time>
      </trkpt>
      <trkpt lat="43.3870640" lon="-4.5777970">
        <ele>10.4</ele>
        <time>2021-07-18T09:24:33Z</time>
      </trkpt>
      <trkpt lat="43.3870660" lon="-4.5778670">
        <ele>10.0</ele>
        <time>2021-07-18T09:24:34Z</time>
      </trkpt>
      <trkpt lat="43.3870660" lon="-4.5779400">
        <ele>9.4</ele>
        <time>2021-07-18T09:24:35Z</time>
      </trkpt>
      <trkpt lat="43.3870660" lon="-4.5780870">
        <ele>9.4</ele>
        <time>2021-07-18T09:24:37Z</time>
      </trkpt>
      <trkpt lat="43.3870630" lon="-4.5781650">
        <ele>9.0</ele>
        <time>2021-07-18T09:24:38Z</time>
      </trkpt>
      <trkpt lat="43.3870600" lon="-4.5782390">
        <ele>8.6</ele>
        <time>2021-07-18T09:24:39Z</time>
      </trkpt>
      <trkpt lat="43.3870600" lon="-4.5783100">
        <ele>8.2</ele>
        <time>2021-07-18T09:24:40Z</time>
      </trkpt>
      <trkpt lat="43.3870590" lon="-4.5783870">
        <ele>7.6</ele>
        <time>2021-07-18T09:24:41Z</time>
      </trkpt>
      <trkpt lat="43.3870570" lon="-4.5784660">
        <ele>7.2</ele>
        <time>2021-07-18T09:24:42Z</time>
      </trkpt>
      <trkpt lat="43.3870560" lon="-4.5785490">
        <ele>7.2</ele>
        <time>2021-07-18T09:24:43Z</time>
      </trkpt>
      <trkpt lat="43.3870530" lon="-4.5786350">
        <ele>6.8</ele>
        <time>2021-07-18T09:24:44Z</time>
      </trkpt>
      <trkpt lat="43.3870540" lon="-4.5787220">
        <ele>6.4</ele>
        <time>2021-07-18T09:24:45Z</time>
      </trkpt>
      <trkpt lat="43.3870530" lon="-4.5788110">
        <ele>6.0</ele>
        <time>2021-07-18T09:24:46Z</time>
      </trkpt>
      <trkpt lat="43.3870540" lon="-4.5789010">
        <ele>5.6</ele>
        <time>2021-07-18T09:24:47Z</time>
      </trkpt>
      <trkpt lat="43.3870570" lon="-4.5789900">
        <ele>5.2</ele>
        <time>2021-07-18T09:24:48Z</time>
      </trkpt>
      <trkpt lat="43.3870730" lon="-4.5792510">
        <ele>5.2</ele>
        <time>2021-07-18T09:24:51Z</time>
      </trkpt>
      <trkpt lat="43.3870810" lon="-4.5793240">
        <ele>5.2</ele>
        <time>2021-07-18T09:24:52Z</time>
      </trkpt>
      <trkpt lat="43.3871420" lon="-4.5795290">
        <ele>5.2</ele>
        <time>2021-07-18T09:24:56Z</time>
      </trkpt>
      <trkpt lat="43.3871650" lon="-4.5795730">
        <ele>5.2</ele>
        <time>2021-07-18T09:24:57Z</time>
      </trkpt>
      <trkpt lat="43.3872040" lon="-4.5796590">
        <ele>5.2</ele>
        <time>2021-07-18T09:24:59Z</time>
      </trkpt>
      <trkpt lat="43.3872230" lon="-4.5796970">
        <ele>5.2</ele>
        <time>2021-07-18T09:25:00Z</time>
      </trkpt>
      <trkpt lat="43.3872440" lon="-4.5797340">
        <ele>5.2</ele>
        <time>2021-07-18T09:25:01Z</time>
      </trkpt>
      <trkpt lat="43.3872870" lon="-4.5798040">
        <ele>5.2</ele>
        <time>2021-07-18T09:25:03Z</time>
      </trkpt>
      <trkpt lat="43.3873100" lon="-4.5798390">
        <ele>5.2</ele>
        <time>2021-07-18T09:25:04Z</time>
      </trkpt>
      <trkpt lat="43.3873550" lon="-4.5799140">
        <ele>5.2</ele>
        <time>2021-07-18T09:25:06Z</time>
      </trkpt>
      <trkpt lat="43.3873980" lon="-4.5799850">
        <ele>5.2</ele>
        <time>2021-07-18T09:25:08Z</time>
      </trkpt>
      <trkpt lat="43.3874630" lon="-4.5800870">
        <ele>5.2</ele>
        <time>2021-07-18T09:25:11Z</time>
      </trkpt>
      <trkpt lat="43.3874830" lon="-4.5801210">
        <ele>5.2</ele>
        <time>2021-07-18T09:25:12Z</time>
      </trkpt>
      <trkpt lat="43.3875250" lon="-4.5801850">
        <ele>5.2</ele>
        <time>2021-07-18T09:25:14Z</time>
      </trkpt>
      <trkpt lat="43.3875870" lon="-4.5802890">
        <ele>5.2</ele>
        <time>2021-07-18T09:25:17Z</time>
      </trkpt>
      <trkpt lat="43.3876650" lon="-4.5804220">
        <ele>5.2</ele>
        <time>2021-07-18T09:25:21Z</time>
      </trkpt>
      <trkpt lat="43.3876820" lon="-4.5804490">
        <ele>5.6</ele>
        <time>2021-07-18T09:25:22Z</time>
      </trkpt>
      <trkpt lat="43.3877000" lon="-4.5804750">
        <ele>6.2</ele>
        <time>2021-07-18T09:25:23Z</time>
      </trkpt>
      <trkpt lat="43.3877190" lon="-4.5805030">
        <ele>6.6</ele>
        <time>2021-07-18T09:25:24Z</time>
      </trkpt>
      <trkpt lat="43.3877380" lon="-4.5805300">
        <ele>7.0</ele>
        <time>2021-07-18T09:25:25Z</time>
      </trkpt>
      <trkpt lat="43.3877550" lon="-4.5805610">
        <ele>7.4</ele>
        <time>2021-07-18T09:25:26Z</time>
      </trkpt>
      <trkpt lat="43.3877910" lon="-4.5806690">
        <ele>7.4</ele>
        <time>2021-07-18T09:25:29Z</time>
      </trkpt>
      <trkpt lat="43.3878380" lon="-4.5809230">
        <ele>7.4</ele>
        <time>2021-07-18T09:25:36Z</time>
      </trkpt>
      <trkpt lat="43.3878890" lon="-4.5811360">
        <ele>7.4</ele>
        <time>2021-07-18T09:25:41Z</time>
      </trkpt>
      <trkpt lat="43.3879470" lon="-4.5814160">
        <ele>7.4</ele>
        <time>2021-07-18T09:25:47Z</time>
      </trkpt>
      <trkpt lat="43.3880340" lon="-4.5818940">
        <ele>7.4</ele>
        <time>2021-07-18T09:25:55Z</time>
      </trkpt>
      <trkpt lat="43.3880480" lon="-4.5819680">
        <ele>7.4</ele>
        <time>2021-07-18T09:25:56Z</time>
      </trkpt>
      <trkpt lat="43.3880620" lon="-4.5820460">
        <ele>7.4</ele>
        <time>2021-07-18T09:25:57Z</time>
      </trkpt>
      <trkpt lat="43.3880770" lon="-4.5821180">
        <ele>7.4</ele>
        <time>2021-07-18T09:25:58Z</time>
      </trkpt>
      <trkpt lat="43.3881180" lon="-4.5823210">
        <ele>7.4</ele>
        <time>2021-07-18T09:26:01Z</time>
      </trkpt>
      <trkpt lat="43.3881930" lon="-4.5827420">
        <ele>7.4</ele>
        <time>2021-07-18T09:26:08Z</time>
      </trkpt>
      <trkpt lat="43.3882270" lon="-4.5829080">
        <ele>7.4</ele>
        <time>2021-07-18T09:26:11Z</time>
      </trkpt>
      <trkpt lat="43.3882650" lon="-4.5831090">
        <ele>7.4</ele>
        <time>2021-07-18T09:26:15Z</time>
      </trkpt>
      <trkpt lat="43.3882950" lon="-4.5833200">
        <ele>7.4</ele>
        <time>2021-07-18T09:26:20Z</time>
      </trkpt>
      <trkpt lat="43.3883030" lon="-4.5834150">
        <ele>7.4</ele>
        <time>2021-07-18T09:26:23Z</time>
      </trkpt>
      <trkpt lat="43.3883220" lon="-4.5835460">
        <ele>7.4</ele>
        <time>2021-07-18T09:26:26Z</time>
      </trkpt>
      <trkpt lat="43.3883540" lon="-4.5836820">
        <ele>7.4</ele>
        <time>2021-07-18T09:26:29Z</time>
      </trkpt>
      <trkpt lat="43.3883640" lon="-4.5837290">
        <ele>7.0</ele>
        <time>2021-07-18T09:26:30Z</time>
      </trkpt>
      <trkpt lat="43.3883730" lon="-4.5837730">
        <ele>6.6</ele>
        <time>2021-07-18T09:26:31Z</time>
      </trkpt>
      <trkpt lat="43.3883840" lon="-4.5838170">
        <ele>6.2</ele>
        <time>2021-07-18T09:26:32Z</time>
      </trkpt>
      <trkpt lat="43.3883940" lon="-4.5838630">
        <ele>5.8</ele>
        <time>2021-07-18T09:26:33Z</time>
      </trkpt>
      <trkpt lat="43.3884070" lon="-4.5839090">
        <ele>5.4</ele>
        <time>2021-07-18T09:26:34Z</time>
      </trkpt>
      <trkpt lat="43.3884170" lon="-4.5839580">
        <ele>5.0</ele>
        <time>2021-07-18T09:26:35Z</time>
      </trkpt>
      <trkpt lat="43.3884280" lon="-4.5840040">
        <ele>4.6</ele>
        <time>2021-07-18T09:26:36Z</time>
      </trkpt>
      <trkpt lat="43.3884390" lon="-4.5840480">
        <ele>4.2</ele>
        <time>2021-07-18T09:26:37Z</time>
      </trkpt>
      <trkpt lat="43.3884490" lon="-4.5840870">
        <ele>3.8</ele>
        <time>2021-07-18T09:26:38Z</time>
      </trkpt>
      <trkpt lat="43.3884570" lon="-4.5841220">
        <ele>3.2</ele>
        <time>2021-07-18T09:26:39Z</time>
      </trkpt>
      <trkpt lat="43.3884690" lon="-4.5841660">
        <ele>2.8</ele>
        <time>2021-07-18T09:26:40Z</time>
      </trkpt>
      <trkpt lat="43.3884780" lon="-4.5842140">
        <ele>2.4</ele>
        <time>2021-07-18T09:26:41Z</time>
      </trkpt>
      <trkpt lat="43.3884870" lon="-4.5842610">
        <ele>1.8</ele>
        <time>2021-07-18T09:26:42Z</time>
      </trkpt>
      <trkpt lat="43.3885010" lon="-4.5843150">
        <ele>1.4</ele>
        <time>2021-07-18T09:26:43Z</time>
      </trkpt>
      <trkpt lat="43.3885150" lon="-4.5843680">
        <ele>0.8</ele>
        <time>2021-07-18T09:26:44Z</time>
      </trkpt>
      <trkpt lat="43.3885410" lon="-4.5844710">
        <ele>0.4</ele>
        <time>2021-07-18T09:26:46Z</time>
      </trkpt>
      <trkpt lat="43.3885520" lon="-4.5845230">
        <ele>0.0</ele>
        <time>2021-07-18T09:26:47Z</time>
      </trkpt>
      <trkpt lat="43.3885650" lon="-4.5845740">
        <ele>-1.0</ele>
        <time>2021-07-18T09:26:48Z</time>
      </trkpt>
      <trkpt lat="43.3885770" lon="-4.5846250">
        <ele>-1.4</ele>
        <time>2021-07-18T09:26:49Z</time>
      </trkpt>
      <trkpt lat="43.3885910" lon="-4.5846770">
        <ele>-2.0</ele>
        <time>2021-07-18T09:26:51Z</time>
      </trkpt>
      <trkpt lat="43.3885980" lon="-4.5847290">
        <ele>-2.4</ele>
        <time>2021-07-18T09:26:52Z</time>
      </trkpt>
      <trkpt lat="43.3886100" lon="-4.5847760">
        <ele>-3.0</ele>
        <time>2021-07-18T09:26:53Z</time>
      </trkpt>
      <trkpt lat="43.3886220" lon="-4.5848200">
        <ele>-3.4</ele>
        <time>2021-07-18T09:26:54Z</time>
      </trkpt>
      <trkpt lat="43.3886310" lon="-4.5848640">
        <ele>-3.8</ele>
        <time>2021-07-18T09:26:55Z</time>
      </trkpt>
      <trkpt lat="43.3886410" lon="-4.5849020">
        <ele>-4.4</ele>
        <time>2021-07-18T09:26:56Z</time>
      </trkpt>
      <trkpt lat="43.3886490" lon="-4.5849340">
        <ele>-4.8</ele>
        <time>2021-07-18T09:26:57Z</time>
      </trkpt>
      <trkpt lat="43.3886610" lon="-4.5849680">
        <ele>-5.4</ele>
        <time>2021-07-18T09:26:58Z</time>
      </trkpt>
      <trkpt lat="43.3886730" lon="-4.5850020">
        <ele>-5.8</ele>
        <time>2021-07-18T09:26:59Z</time>
      </trkpt>
      <trkpt lat="43.3887110" lon="-4.5851780">
        <ele>-6.2</ele>
        <time>2021-07-18T09:27:03Z</time>
      </trkpt>
      <trkpt lat="43.3887160" lon="-4.5852280">
        <ele>-6.6</ele>
        <time>2021-07-18T09:27:04Z</time>
      </trkpt>
      <trkpt lat="43.3887210" lon="-4.5852870">
        <ele>-7.0</ele>
        <time>2021-07-18T09:27:05Z</time>
      </trkpt>
      <trkpt lat="43.3887290" lon="-4.5853530">
        <ele>-7.4</ele>
        <time>2021-07-18T09:27:06Z</time>
      </trkpt>
      <trkpt lat="43.3887420" lon="-4.5854160">
        <ele>-7.8</ele>
        <time>2021-07-18T09:27:07Z</time>
      </trkpt>
      <trkpt lat="43.3887570" lon="-4.5854840">
        <ele>-8.4</ele>
        <time>2021-07-18T09:27:08Z</time>
      </trkpt>
      <trkpt lat="43.3887700" lon="-4.5855500">
        <ele>-8.8</ele>
        <time>2021-07-18T09:27:09Z</time>
      </trkpt>
      <trkpt lat="43.3887860" lon="-4.5856160">
        <ele>-9.4</ele>
        <time>2021-07-18T09:27:10Z</time>
      </trkpt>
      <trkpt lat="43.3888050" lon="-4.5856770">
        <ele>-9.8</ele>
        <time>2021-07-18T09:27:11Z</time>
      </trkpt>
      <trkpt lat="43.3888220" lon="-4.5857370">
        <ele>-10.4</ele>
        <time>2021-07-18T09:27:12Z</time>
      </trkpt>
      <trkpt lat="43.3888390" lon="-4.5857950">
        <ele>-10.8</ele>
        <time>2021-07-18T09:27:13Z</time>
      </trkpt>
      <trkpt lat="43.3888490" lon="-4.5858470">
        <ele>-11.6</ele>
        <time>2021-07-18T09:27:14Z</time>
      </trkpt>
      <trkpt lat="43.3888600" lon="-4.5859000">
        <ele>-12.2</ele>
        <time>2021-07-18T09:27:15Z</time>
      </trkpt>
      <trkpt lat="43.3888750" lon="-4.5859540">
        <ele>-12.6</ele>
        <time>2021-07-18T09:27:16Z</time>
      </trkpt>
      <trkpt lat="43.3888910" lon="-4.5860090">
        <ele>-13.0</ele>
        <time>2021-07-18T09:27:17Z</time>
      </trkpt>
      <trkpt lat="43.3889050" lon="-4.5860630">
        <ele>-13.4</ele>
        <time>2021-07-18T09:27:18Z</time>
      </trkpt>
      <trkpt lat="43.3889150" lon="-4.5861190">
        <ele>-13.8</ele>
        <time>2021-07-18T09:27:19Z</time>
      </trkpt>
      <trkpt lat="43.3889260" lon="-4.5861710">
        <ele>-14.4</ele>
        <time>2021-07-18T09:27:20Z</time>
      </trkpt>
      <trkpt lat="43.3889370" lon="-4.5862180">
        <ele>-14.8</ele>
        <time>2021-07-18T09:27:21Z</time>
      </trkpt>
      <trkpt lat="43.3889520" lon="-4.5862580">
        <ele>-15.2</ele>
        <time>2021-07-18T09:27:22Z</time>
      </trkpt>
      <trkpt lat="43.3889660" lon="-4.5863050">
        <ele>-15.6</ele>
        <time>2021-07-18T09:27:23Z</time>
      </trkpt>
      <trkpt lat="43.3889820" lon="-4.5863490">
        <ele>-16.2</ele>
        <time>2021-07-18T09:27:24Z</time>
      </trkpt>
      <trkpt lat="43.3890050" lon="-4.5863900">
        <ele>-16.6</ele>
        <time>2021-07-18T09:27:25Z</time>
      </trkpt>
      <trkpt lat="43.3891130" lon="-4.5864600">
        <ele>-16.6</ele>
        <time>2021-07-18T09:27:28Z</time>
      </trkpt>
      <trkpt lat="43.3892610" lon="-4.5864990">
        <ele>-17.0</ele>
        <time>2021-07-18T09:27:32Z</time>
      </trkpt>
      <trkpt lat="43.3892840" lon="-4.5865030">
        <ele>-17.4</ele>
        <time>2021-07-18T09:27:33Z</time>
      </trkpt>
      <trkpt lat="43.3893050" lon="-4.5865110">
        <ele>-17.8</ele>
        <time>2021-07-18T09:27:34Z</time>
      </trkpt>
      <trkpt lat="43.3893250" lon="-4.5865230">
        <ele>-18.2</ele>
        <time>2021-07-18T09:27:35Z</time>
      </trkpt>
      <trkpt lat="43.3893430" lon="-4.5865310">
        <ele>-18.6</ele>
        <time>2021-07-18T09:27:36Z</time>
      </trkpt>
      <trkpt lat="43.3893640" lon="-4.5865390">
        <ele>-18.6</ele>
        <time>2021-07-18T09:27:37Z</time>
      </trkpt>
      <trkpt lat="43.3893830" lon="-4.5865510">
        <ele>-18.6</ele>
        <time>2021-07-18T09:27:38Z</time>
      </trkpt>
      <trkpt lat="43.3893990" lon="-4.5865600">
        <ele>-18.6</ele>
        <time>2021-07-18T09:27:39Z</time>
      </trkpt>
      <trkpt lat="43.3894150" lon="-4.5865710">
        <ele>-18.6</ele>
        <time>2021-07-18T09:27:40Z</time>
      </trkpt>
      <trkpt lat="43.3894330" lon="-4.5865760">
        <ele>-18.6</ele>
        <time>2021-07-18T09:27:41Z</time>
      </trkpt>
      <trkpt lat="43.3894630" lon="-4.5865830">
        <ele>-18.6</ele>
        <time>2021-07-18T09:27:43Z</time>
      </trkpt>
      <trkpt lat="43.3894810" lon="-4.5865920">
        <ele>-18.6</ele>
        <time>2021-07-18T09:27:44Z</time>
      </trkpt>
      <trkpt lat="43.3895040" lon="-4.5866110">
        <ele>-18.6</ele>
        <time>2021-07-18T09:27:46Z</time>
      </trkpt>
      <trkpt lat="43.3895130" lon="-4.5866280">
        <ele>-18.2</ele>
        <time>2021-07-18T09:27:47Z</time>
      </trkpt>
      <trkpt lat="43.3895220" lon="-4.5866420">
        <ele>-17.8</ele>
        <time>2021-07-18T09:27:48Z</time>
      </trkpt>
      <trkpt lat="43.3895340" lon="-4.5866560">
        <ele>-17.4</ele>
        <time>2021-07-18T09:27:49Z</time>
      </trkpt>
      <trkpt lat="43.3895460" lon="-4.5866710">
        <ele>-17.0</ele>
        <time>2021-07-18T09:27:50Z</time>
      </trkpt>
      <trkpt lat="43.3895610" lon="-4.5866870">
        <ele>-16.6</ele>
        <time>2021-07-18T09:27:51Z</time>
      </trkpt>
      <trkpt lat="43.3895870" lon="-4.5867210">
        <ele>-16.6</ele>
        <time>2021-07-18T09:27:53Z</time>
      </trkpt>
      <trkpt lat="43.3896050" lon="-4.5867300">
        <ele>-16.2</ele>
        <time>2021-07-18T09:27:54Z</time>
      </trkpt>
      <trkpt lat="43.3896270" lon="-4.5867420">
        <ele>-15.6</ele>
        <time>2021-07-18T09:27:55Z</time>
      </trkpt>
      <trkpt lat="43.3896440" lon="-4.5867560">
        <ele>-15.2</ele>
        <time>2021-07-18T09:27:56Z</time>
      </trkpt>
      <trkpt lat="43.3896610" lon="-4.5867730">
        <ele>-14.8</ele>
        <time>2021-07-18T09:27:57Z</time>
      </trkpt>
      <trkpt lat="43.3896700" lon="-4.5867960">
        <ele>-14.4</ele>
        <time>2021-07-18T09:27:58Z</time>
      </trkpt>
      <trkpt lat="43.3896720" lon="-4.5868370">
        <ele>-14.4</ele>
        <time>2021-07-18T09:28:00Z</time>
      </trkpt>
      <trkpt lat="43.3896610" lon="-4.5869110">
        <ele>-14.0</ele>
        <time>2021-07-18T09:28:03Z</time>
      </trkpt>
      <trkpt lat="43.3896610" lon="-4.5869350">
        <ele>-13.6</ele>
        <time>2021-07-18T09:28:04Z</time>
      </trkpt>
      <trkpt lat="43.3896590" lon="-4.5869620">
        <ele>-13.2</ele>
        <time>2021-07-18T09:28:05Z</time>
      </trkpt>
      <trkpt lat="43.3896610" lon="-4.5869850">
        <ele>-12.6</ele>
        <time>2021-07-18T09:28:06Z</time>
      </trkpt>
      <trkpt lat="43.3896570" lon="-4.5870150">
        <ele>-12.2</ele>
        <time>2021-07-18T09:28:07Z</time>
      </trkpt>
      <trkpt lat="43.3896460" lon="-4.5870960">
        <ele>-12.2</ele>
        <time>2021-07-18T09:28:10Z</time>
      </trkpt>
      <trkpt lat="43.3896470" lon="-4.5871120">
        <ele>-11.8</ele>
        <time>2021-07-18T09:28:11Z</time>
      </trkpt>
      <trkpt lat="43.3896460" lon="-4.5871150">
        <ele>-11.4</ele>
        <time>2021-07-18T09:28:12Z</time>
      </trkpt>
      <trkpt lat="43.3896460" lon="-4.5871190">
        <ele>-11.0</ele>
        <time>2021-07-18T09:28:13Z</time>
      </trkpt>
      <trkpt lat="43.3898640" lon="-4.5871710">
        <ele>-6.8</ele>
        <time>2021-07-18T09:28:46Z</time>
      </trkpt>
      <trkpt lat="43.3898720" lon="-4.5871600">
        <ele>-6.4</ele>
        <time>2021-07-18T09:28:47Z</time>
      </trkpt>
      <trkpt lat="43.3898830" lon="-4.5871540">
        <ele>-6.0</ele>
        <time>2021-07-18T09:28:48Z</time>
      </trkpt>
      <trkpt lat="43.3898960" lon="-4.5871510">
        <ele>-6.0</ele>
        <time>2021-07-18T09:28:49Z</time>
      </trkpt>
      <trkpt lat="43.3899760" lon="-4.5871000">
        <ele>-6.0</ele>
        <time>2021-07-18T09:28:57Z</time>
      </trkpt>
      <trkpt lat="43.3899970" lon="-4.5870850">
        <ele>-5.6</ele>
        <time>2021-07-18T09:28:59Z</time>
      </trkpt>
      <trkpt lat="43.3900090" lon="-4.5870850">
        <ele>-5.2</ele>
        <time>2021-07-18T09:29:00Z</time>
      </trkpt>
      <trkpt lat="43.3900120" lon="-4.5870890">
        <ele>-4.8</ele>
        <time>2021-07-18T09:29:01Z</time>
      </trkpt>
      <trkpt lat="43.3900200" lon="-4.5870880">
        <ele>-4.4</ele>
        <time>2021-07-18T09:29:02Z</time>
      </trkpt>
      <trkpt lat="43.3900300" lon="-4.5870830">
        <ele>-4.0</ele>
        <time>2021-07-18T09:29:03Z</time>
      </trkpt>
      <trkpt lat="43.3900380" lon="-4.5870800">
        <ele>-4.0</ele>
        <time>2021-07-18T09:29:04Z</time>
      </trkpt>
      <trkpt lat="43.3901340" lon="-4.5870740">
        <ele>-4.0</ele>
        <time>2021-07-18T09:29:13Z</time>
      </trkpt>
      <trkpt lat="43.3901540" lon="-4.5870740">
        <ele>-3.6</ele>
        <time>2021-07-18T09:29:15Z</time>
      </trkpt>
      <trkpt lat="43.3901590" lon="-4.5870760">
        <ele>-3.2</ele>
        <time>2021-07-18T09:29:16Z</time>
      </trkpt>
      <trkpt lat="43.3901670" lon="-4.5870760">
        <ele>-2.4</ele>
        <time>2021-07-18T09:29:17Z</time>
      </trkpt>
      <trkpt lat="43.3901820" lon="-4.5870790">
        <ele>-2.0</ele>
        <time>2021-07-18T09:29:18Z</time>
      </trkpt>
      <trkpt lat="43.3902400" lon="-4.5870880">
        <ele>-2.0</ele>
        <time>2021-07-18T09:29:24Z</time>
      </trkpt>
      <trkpt lat="43.3903180" lon="-4.5870770">
        <ele>-1.6</ele>
        <time>2021-07-18T09:29:31Z</time>
      </trkpt>
      <trkpt lat="43.3903260" lon="-4.5870760">
        <ele>-1.2</ele>
        <time>2021-07-18T09:29:32Z</time>
      </trkpt>
      <trkpt lat="43.3903370" lon="-4.5870740">
        <ele>-0.8</ele>
        <time>2021-07-18T09:29:33Z</time>
      </trkpt>
      <trkpt lat="43.3903470" lon="-4.5870730">
        <ele>-0.4</ele>
        <time>2021-07-18T09:29:34Z</time>
      </trkpt>
      <trkpt lat="43.3903590" lon="-4.5870720">
        <ele>0.0</ele>
        <time>2021-07-18T09:29:35Z</time>
      </trkpt>
      <trkpt lat="43.3904400" lon="-4.5870530">
        <ele>0.0</ele>
        <time>2021-07-18T09:29:43Z</time>
      </trkpt>
      <trkpt lat="43.3904710" lon="-4.5870300">
        <ele>0.4</ele>
        <time>2021-07-18T09:29:47Z</time>
      </trkpt>
      <trkpt lat="43.3904790" lon="-4.5870290">
        <ele>0.8</ele>
        <time>2021-07-18T09:29:48Z</time>
      </trkpt>
      <trkpt lat="43.3904860" lon="-4.5870370">
        <ele>1.4</ele>
        <time>2021-07-18T09:29:49Z</time>
      </trkpt>
      <trkpt lat="43.3904960" lon="-4.5870430">
        <ele>1.8</ele>
        <time>2021-07-18T09:29:50Z</time>
      </trkpt>
      <trkpt lat="43.3905050" lon="-4.5870450">
        <ele>2.2</ele>
        <time>2021-07-18T09:29:51Z</time>
      </trkpt>
      <trkpt lat="43.3905890" lon="-4.5870480">
        <ele>2.2</ele>
        <time>2021-07-18T09:30:00Z</time>
      </trkpt>
      <trkpt lat="43.3906220" lon="-4.5870400">
        <ele>2.6</ele>
        <time>2021-07-18T09:30:04Z</time>
      </trkpt>
      <trkpt lat="43.3906340" lon="-4.5870420">
        <ele>3.0</ele>
        <time>2021-07-18T09:30:05Z</time>
      </trkpt>
      <trkpt lat="43.3906380" lon="-4.5870420">
        <ele>3.4</ele>
        <time>2021-07-18T09:30:06Z</time>
      </trkpt>
      <trkpt lat="43.3906510" lon="-4.5870420">
        <ele>4.2</ele>
        <time>2021-07-18T09:30:07Z</time>
      </trkpt>
      <trkpt lat="43.3906630" lon="-4.5870420">
        <ele>4.2</ele>
        <time>2021-07-18T09:30:09Z</time>
      </trkpt>
      <trkpt lat="43.3907410" lon="-4.5870510">
        <ele>4.6</ele>
        <time>2021-07-18T09:30:18Z</time>
      </trkpt>
      <trkpt lat="43.3907480" lon="-4.5870520">
        <ele>5.0</ele>
        <time>2021-07-18T09:30:19Z</time>
      </trkpt>
      <trkpt lat="43.3907570" lon="-4.5870520">
        <ele>5.4</ele>
        <time>2021-07-18T09:30:20Z</time>
      </trkpt>
      <trkpt lat="43.3907740" lon="-4.5870480">
        <ele>5.8</ele>
        <time>2021-07-18T09:30:21Z</time>
      </trkpt>
      <trkpt lat="43.3907830" lon="-4.5870420">
        <ele>6.2</ele>
        <time>2021-07-18T09:30:22Z</time>
      </trkpt>
      <trkpt lat="43.3908520" lon="-4.5870190">
        <ele>6.2</ele>
        <time>2021-07-18T09:30:27Z</time>
      </trkpt>
      <trkpt lat="43.3908950" lon="-4.5870060">
        <ele>6.6</ele>
        <time>2021-07-18T09:30:32Z</time>
      </trkpt>
      <trkpt lat="43.3909130" lon="-4.5870000">
        <ele>7.0</ele>
        <time>2021-07-18T09:30:33Z</time>
      </trkpt>
      <trkpt lat="43.3909250" lon="-4.5869960">
        <ele>7.4</ele>
        <time>2021-07-18T09:30:34Z</time>
      </trkpt>
      <trkpt lat="43.3909310" lon="-4.5869940">
        <ele>7.8</ele>
        <time>2021-07-18T09:30:35Z</time>
      </trkpt>
      <trkpt lat="43.3909420" lon="-4.5869900">
        <ele>8.2</ele>
        <time>2021-07-18T09:30:36Z</time>
      </trkpt>
      <trkpt lat="43.3909530" lon="-4.5869840">
        <ele>8.2</ele>
        <time>2021-07-18T09:30:37Z</time>
      </trkpt>
      <trkpt lat="43.3910510" lon="-4.5869550">
        <ele>8.2</ele>
        <time>2021-07-18T09:30:46Z</time>
      </trkpt>
      <trkpt lat="43.3910710" lon="-4.5869620">
        <ele>8.2</ele>
        <time>2021-07-18T09:30:49Z</time>
      </trkpt>
      <trkpt lat="43.3915650" lon="-4.5872060">
        <ele>12.4</ele>
        <time>2021-07-18T09:35:07Z</time>
      </trkpt>
      <trkpt lat="43.3915750" lon="-4.5872170">
        <ele>12.4</ele>
        <time>2021-07-18T09:35:08Z</time>
      </trkpt>
      <trkpt lat="43.3915860" lon="-4.5872250">
        <ele>12.4</ele>
        <time>2021-07-18T09:35:09Z</time>
      </trkpt>
      <trkpt lat="43.3916530" lon="-4.5872770">
        <ele>12.4</ele>
        <time>2021-07-18T09:35:13Z</time>
      </trkpt>
      <trkpt lat="43.3916740" lon="-4.5872920">
        <ele>12.8</ele>
        <time>2021-07-18T09:35:14Z</time>
      </trkpt>
      <trkpt lat="43.3916900" lon="-4.5873070">
        <ele>13.2</ele>
        <time>2021-07-18T09:35:15Z</time>
      </trkpt>
      <trkpt lat="43.3917060" lon="-4.5873250">
        <ele>13.6</ele>
        <time>2021-07-18T09:35:16Z</time>
      </trkpt>
      <trkpt lat="43.3917220" lon="-4.5873420">
        <ele>14.0</ele>
        <time>2021-07-18T09:35:17Z</time>
      </trkpt>
      <trkpt lat="43.3917380" lon="-4.5873580">
        <ele>14.4</ele>
        <time>2021-07-18T09:35:18Z</time>
      </trkpt>
      <trkpt lat="43.3917720" lon="-4.5873820">
        <ele>14.4</ele>
        <time>2021-07-18T09:35:20Z</time>
      </trkpt>
      <trkpt lat="43.3918200" lon="-4.5874340">
        <ele>14.4</ele>
        <time>2021-07-18T09:35:23Z</time>
      </trkpt>
      <trkpt lat="43.3918520" lon="-4.5874590">
        <ele>14.4</ele>
        <time>2021-07-18T09:35:25Z</time>
      </trkpt>
      <trkpt lat="43.3919400" lon="-4.5875200">
        <ele>14.4</ele>
        <time>2021-07-18T09:35:30Z</time>
      </trkpt>
      <trkpt lat="43.3920610" lon="-4.5875670">
        <ele>14.8</ele>
        <time>2021-07-18T09:35:36Z</time>
      </trkpt>
      <trkpt lat="43.3920800" lon="-4.5875760">
        <ele>15.2</ele>
        <time>2021-07-18T09:35:37Z</time>
      </trkpt>
      <trkpt lat="43.3920950" lon="-4.5875790">
        <ele>15.6</ele>
        <time>2021-07-18T09:35:38Z</time>
      </trkpt>
      <trkpt lat="43.3921110" lon="-4.5875800">
        <ele>16.2</ele>
        <time>2021-07-18T09:35:39Z</time>
      </trkpt>
      <trkpt lat="43.3921270" lon="-4.5875800">
        <ele>16.6</ele>
        <time>2021-07-18T09:35:40Z</time>
      </trkpt>
      <trkpt lat="43.3922310" lon="-4.5875880">
        <ele>16.6</ele>
        <time>2021-07-18T09:35:45Z</time>
      </trkpt>
      <trkpt lat="43.3923830" lon="-4.5876320">
        <ele>17.0</ele>
        <time>2021-07-18T09:35:53Z</time>
      </trkpt>
      <trkpt lat="43.3923980" lon="-4.5876420">
        <ele>17.4</ele>
        <time>2021-07-18T09:35:54Z</time>
      </trkpt>
      <trkpt lat="43.3924180" lon="-4.5876550">
        <ele>17.8</ele>
        <time>2021-07-18T09:35:55Z</time>
      </trkpt>
      <trkpt lat="43.3924380" lon="-4.5876730">
        <ele>18.2</ele>
        <time>2021-07-18T09:35:56Z</time>
      </trkpt>
      <trkpt lat="43.3924510" lon="-4.5876840">
        <ele>18.6</ele>
        <time>2021-07-18T09:35:57Z</time>
      </trkpt>
      <trkpt lat="43.3924630" lon="-4.5876920">
        <ele>18.6</ele>
        <time>2021-07-18T09:35:58Z</time>
      </trkpt>
      <trkpt lat="43.3925510" lon="-4.5877600">
        <ele>18.6</ele>
        <time>2021-07-18T09:36:04Z</time>
      </trkpt>
      <trkpt lat="43.3925670" lon="-4.5877710">
        <ele>19.0</ele>
        <time>2021-07-18T09:36:05Z</time>
      </trkpt>
      <trkpt lat="43.3925840" lon="-4.5877820">
        <ele>19.4</ele>
        <time>2021-07-18T09:36:06Z</time>
      </trkpt>
      <trkpt lat="43.3926000" lon="-4.5877910">
        <ele>19.8</ele>
        <time>2021-07-18T09:36:07Z</time>
      </trkpt>
      <trkpt lat="43.3926220" lon="-4.5877990">
        <ele>20.2</ele>
        <time>2021-07-18T09:36:08Z</time>
      </trkpt>
      <trkpt lat="43.3926440" lon="-4.5878100">
        <ele>20.6</ele>
        <time>2021-07-18T09:36:09Z</time>
      </trkpt>
      <trkpt lat="43.3926820" lon="-4.5878220">
        <ele>20.6</ele>
        <time>2021-07-18T09:36:11Z</time>
      </trkpt>
      <trkpt lat="43.3927850" lon="-4.5878170">
        <ele>20.6</ele>
        <time>2021-07-18T09:36:16Z</time>
      </trkpt>
      <trkpt lat="43.3928320" lon="-4.5878060">
        <ele>20.6</ele>
        <time>2021-07-18T09:36:18Z</time>
      </trkpt>
      <trkpt lat="43.3928730" lon="-4.5877660">
        <ele>20.6</ele>
        <time>2021-07-18T09:36:20Z</time>
      </trkpt>
      <trkpt lat="43.3928930" lon="-4.5877610">
        <ele>20.6</ele>
        <time>2021-07-18T09:36:21Z</time>
      </trkpt>
      <trkpt lat="43.3929170" lon="-4.5877490">
        <ele>21.0</ele>
        <time>2021-07-18T09:36:22Z</time>
      </trkpt>
      <trkpt lat="43.3929370" lon="-4.5877390">
        <ele>21.4</ele>
        <time>2021-07-18T09:36:23Z</time>
      </trkpt>
      <trkpt lat="43.3929560" lon="-4.5877290">
        <ele>21.8</ele>
        <time>2021-07-18T09:36:24Z</time>
      </trkpt>
      <trkpt lat="43.3929800" lon="-4.5877080">
        <ele>22.2</ele>
        <time>2021-07-18T09:36:25Z</time>
      </trkpt>
      <trkpt lat="43.3929990" lon="-4.5876940">
        <ele>22.6</ele>
        <time>2021-07-18T09:36:26Z</time>
      </trkpt>
      <trkpt lat="43.3930650" lon="-4.5876250">
        <ele>22.6</ele>
        <time>2021-07-18T09:36:30Z</time>
      </trkpt>
      <trkpt lat="43.3931480" lon="-4.5875510">
        <ele>23.0</ele>
        <time>2021-07-18T09:36:35Z</time>
      </trkpt>
      <trkpt lat="43.3931620" lon="-4.5875410">
        <ele>23.4</ele>
        <time>2021-07-18T09:36:36Z</time>
      </trkpt>
      <trkpt lat="43.3931760" lon="-4.5875340">
        <ele>23.8</ele>
        <time>2021-07-18T09:36:37Z</time>
      </trkpt>
      <trkpt lat="43.3931890" lon="-4.5875260">
        <ele>24.2</ele>
        <time>2021-07-18T09:36:38Z</time>
      </trkpt>
      <trkpt lat="43.3932020" lon="-4.5875190">
        <ele>24.8</ele>
        <time>2021-07-18T09:36:39Z</time>
      </trkpt>
      <trkpt lat="43.3932970" lon="-4.5875070">
        <ele>24.8</ele>
        <time>2021-07-18T09:36:46Z</time>
      </trkpt>
      <trkpt lat="43.3934040" lon="-4.5874800">
        <ele>25.2</ele>
        <time>2021-07-18T09:36:52Z</time>
      </trkpt>
      <trkpt lat="43.3934250" lon="-4.5874770">
        <ele>25.6</ele>
        <time>2021-07-18T09:36:53Z</time>
      </trkpt>
      <trkpt lat="43.3934410" lon="-4.5874800">
        <ele>26.0</ele>
        <time>2021-07-18T09:36:54Z</time>
      </trkpt>
      <trkpt lat="43.3934570" lon="-4.5874830">
        <ele>26.4</ele>
        <time>2021-07-18T09:36:55Z</time>
      </trkpt>
      <trkpt lat="43.3934710" lon="-4.5874910">
        <ele>26.8</ele>
        <time>2021-07-18T09:36:56Z</time>
      </trkpt>
      <trkpt lat="43.3935430" lon="-4.5875000">
        <ele>26.8</ele>
        <time>2021-07-18T09:37:00Z</time>
      </trkpt>
      <trkpt lat="43.3936490" lon="-4.5874900">
        <ele>26.8</ele>
        <time>2021-07-18T09:37:03Z</time>
      </trkpt>
      <trkpt lat="43.3937380" lon="-4.5875010">
        <ele>26.8</ele>
        <time>2021-07-18T09:37:06Z</time>
      </trkpt>
      <trkpt lat="43.3937930" lon="-4.5875210">
        <ele>26.8</ele>
        <time>2021-07-18T09:37:08Z</time>
      </trkpt>
      <trkpt lat="43.3938400" lon="-4.5875430">
        <ele>26.8</ele>
        <time>2021-07-18T09:37:10Z</time>
      </trkpt>
      <trkpt lat="43.3938860" lon="-4.5875910">
        <ele>26.8</ele>
        <time>2021-07-18T09:37:12Z</time>
      </trkpt>
      <trkpt lat="43.3940210" lon="-4.5878210">
        <ele>26.8</ele>
        <time>2021-07-18T09:37:18Z</time>
      </trkpt>
      <trkpt lat="43.3940760" lon="-4.5879350">
        <ele>26.2</ele>
        <time>2021-07-18T09:37:21Z</time>
      </trkpt>
      <trkpt lat="43.3940920" lon="-4.5879760">
        <ele>25.8</ele>
        <time>2021-07-18T09:37:22Z</time>
      </trkpt>
      <trkpt lat="43.3941060" lon="-4.5880140">
        <ele>25.4</ele>
        <time>2021-07-18T09:37:23Z</time>
      </trkpt>
      <trkpt lat="43.3941220" lon="-4.5880520">
        <ele>25.0</ele>
        <time>2021-07-18T09:37:24Z</time>
      </trkpt>
      <trkpt lat="43.3941370" lon="-4.5880880">
        <ele>24.6</ele>
        <time>2021-07-18T09:37:25Z</time>
      </trkpt>
      <trkpt lat="43.3941510" lon="-4.5881210">
        <ele>24.6</ele>
        <time>2021-07-18T09:37:26Z</time>
      </trkpt>
      <trkpt lat="43.3942140" lon="-4.5882750">
        <ele>24.0</ele>
        <time>2021-07-18T09:37:30Z</time>
      </trkpt>
      <trkpt lat="43.3942290" lon="-4.5883370">
        <ele>22.8</ele>
        <time>2021-07-18T09:37:31Z</time>
      </trkpt>
      <trkpt lat="43.3942290" lon="-4.5883370">
        <ele>22.8</ele>
        <time>2021-07-18T09:37:32Z</time>
      </trkpt>
      <trkpt lat="43.3942350" lon="-4.5883680">
        <ele>22.4</ele>
        <time>2021-07-18T09:37:33Z</time>
      </trkpt>
      <trkpt lat="43.3942590" lon="-4.5884260">
        <ele>22.4</ele>
        <time>2021-07-18T09:37:35Z</time>
      </trkpt>
      <trkpt lat="43.3942720" lon="-4.5884530">
        <ele>22.0</ele>
        <time>2021-07-18T09:37:36Z</time>
      </trkpt>
      <trkpt lat="43.3942810" lon="-4.5884670">
        <ele>21.4</ele>
        <time>2021-07-18T09:37:37Z</time>
      </trkpt>
      <trkpt lat="43.3942940" lon="-4.5884830">
        <ele>21.0</ele>
        <time>2021-07-18T09:37:38Z</time>
      </trkpt>
      <trkpt lat="43.3943100" lon="-4.5884910">
        <ele>20.6</ele>
        <time>2021-07-18T09:37:39Z</time>
      </trkpt>
      <trkpt lat="43.3943310" lon="-4.5884990">
        <ele>20.2</ele>
        <time>2021-07-18T09:37:40Z</time>
      </trkpt>
      <trkpt lat="43.3944150" lon="-4.5885820">
        <ele>20.2</ele>
        <time>2021-07-18T09:37:44Z</time>
      </trkpt>
      <trkpt lat="43.3945170" lon="-4.5887540">
        <ele>20.2</ele>
        <time>2021-07-18T09:37:50Z</time>
      </trkpt>
      <trkpt lat="43.3945290" lon="-4.5887820">
        <ele>20.2</ele>
        <time>2021-07-18T09:37:51Z</time>
      </trkpt>
      <trkpt lat="43.3945430" lon="-4.5888350">
        <ele>19.8</ele>
        <time>2021-07-18T09:37:53Z</time>
      </trkpt>
      <trkpt lat="43.3945550" lon="-4.5888630">
        <ele>19.2</ele>
        <time>2021-07-18T09:37:54Z</time>
      </trkpt>
      <trkpt lat="43.3945690" lon="-4.5888910">
        <ele>18.8</ele>
        <time>2021-07-18T09:37:55Z</time>
      </trkpt>
      <trkpt lat="43.3945850" lon="-4.5889170">
        <ele>18.0</ele>
        <time>2021-07-18T09:37:56Z</time>
      </trkpt>
      <trkpt lat="43.3946120" lon="-4.5889740">
        <ele>18.0</ele>
        <time>2021-07-18T09:37:58Z</time>
      </trkpt>
      <trkpt lat="43.3946670" lon="-4.5891050">
        <ele>18.0</ele>
        <time>2021-07-18T09:38:02Z</time>
      </trkpt>
      <trkpt lat="43.3946960" lon="-4.5891770">
        <ele>18.0</ele>
        <time>2021-07-18T09:38:04Z</time>
      </trkpt>
      <trkpt lat="43.3947400" lon="-4.5892890">
        <ele>18.0</ele>
        <time>2021-07-18T09:38:07Z</time>
      </trkpt>
      <trkpt lat="43.3947670" lon="-4.5893560">
        <ele>18.0</ele>
        <time>2021-07-18T09:38:09Z</time>
      </trkpt>
      <trkpt lat="43.3948100" lon="-4.5895070">
        <ele>18.0</ele>
        <time>2021-07-18T09:38:13Z</time>
      </trkpt>
      <trkpt lat="43.3948250" lon="-4.5895890">
        <ele>18.0</ele>
        <time>2021-07-18T09:38:15Z</time>
      </trkpt>
      <trkpt lat="43.3948610" lon="-4.5898540">
        <ele>18.0</ele>
        <time>2021-07-18T09:38:22Z</time>
      </trkpt>
      <trkpt lat="43.3948990" lon="-4.5899620">
        <ele>18.0</ele>
        <time>2021-07-18T09:38:26Z</time>
      </trkpt>
      <trkpt lat="43.3949210" lon="-4.5900840">
        <ele>18.0</ele>
        <time>2021-07-18T09:38:30Z</time>
      </trkpt>
      <trkpt lat="43.3949210" lon="-4.5902570">
        <ele>18.0</ele>
        <time>2021-07-18T09:38:35Z</time>
      </trkpt>
      <trkpt lat="43.3949190" lon="-4.5903360">
        <ele>18.0</ele>
        <time>2021-07-18T09:38:37Z</time>
      </trkpt>
      <trkpt lat="43.3949200" lon="-4.5903980">
        <ele>18.0</ele>
        <time>2021-07-18T09:38:39Z</time>
      </trkpt>
      <trkpt lat="43.3949260" lon="-4.5904980">
        <ele>18.0</ele>
        <time>2021-07-18T09:38:43Z</time>
      </trkpt>
      <trkpt lat="43.3949170" lon="-4.5905700">
        <ele>18.0</ele>
        <time>2021-07-18T09:38:46Z</time>
      </trkpt>
      <trkpt lat="43.3949040" lon="-4.5906140">
        <ele>18.0</ele>
        <time>2021-07-18T09:38:48Z</time>
      </trkpt>
      <trkpt lat="43.3948860" lon="-4.5906480">
        <ele>18.0</ele>
        <time>2021-07-18T09:38:50Z</time>
      </trkpt>
      <trkpt lat="43.3948790" lon="-4.5906680">
        <ele>18.0</ele>
        <time>2021-07-18T09:38:51Z</time>
      </trkpt>
      <trkpt lat="43.3948790" lon="-4.5906890">
        <ele>18.0</ele>
        <time>2021-07-18T09:38:53Z</time>
      </trkpt>
      <trkpt lat="43.3948810" lon="-4.5906860">
        <ele>18.0</ele>
        <time>2021-07-18T09:38:54Z</time>
      </trkpt>
      <trkpt lat="43.3948780" lon="-4.5907360">
        <ele>18.0</ele>
        <time>2021-07-18T09:39:00Z</time>
      </trkpt>
      <trkpt lat="43.3948780" lon="-4.5907570">
        <ele>18.0</ele>
        <time>2021-07-18T09:39:01Z</time>
      </trkpt>
      <trkpt lat="43.3948760" lon="-4.5908010">
        <ele>18.4</ele>
        <time>2021-07-18T09:39:04Z</time>
      </trkpt>
      <trkpt lat="43.3948750" lon="-4.5908100">
        <ele>18.8</ele>
        <time>2021-07-18T09:39:05Z</time>
      </trkpt>
      <trkpt lat="43.3948740" lon="-4.5908110">
        <ele>19.4</ele>
        <time>2021-07-18T09:39:06Z</time>
      </trkpt>
      <trkpt lat="43.3948730" lon="-4.5908190">
        <ele>19.8</ele>
        <time>2021-07-18T09:39:07Z</time>
      </trkpt>
      <trkpt lat="43.3948720" lon="-4.5908390">
        <ele>20.2</ele>
        <time>2021-07-18T09:39:08Z</time>
      </trkpt>
      <trkpt lat="43.3948830" lon="-4.5908860">
        <ele>20.2</ele>
        <time>2021-07-18T09:39:13Z</time>
      </trkpt>
      <trkpt lat="43.3948820" lon="-4.5909030">
        <ele>20.6</ele>
        <time>2021-07-18T09:39:14Z</time>
      </trkpt>
      <trkpt lat="43.3948820" lon="-4.5909150">
        <ele>21.0</ele>
        <time>2021-07-18T09:39:15Z</time>
      </trkpt>
      <trkpt lat="43.3948830" lon="-4.5909290">
        <ele>21.4</ele>
        <time>2021-07-18T09:39:16Z</time>
      </trkpt>
      <trkpt lat="43.3948840" lon="-4.5909390">
        <ele>22.0</ele>
        <time>2021-07-18T09:39:17Z</time>
      </trkpt>
      <trkpt lat="43.3948810" lon="-4.5909540">
        <ele>22.4</ele>
        <time>2021-07-18T09:39:18Z</time>
      </trkpt>
      <trkpt lat="43.3948790" lon="-4.5909900">
        <ele>22.4</ele>
        <time>2021-07-18T09:39:22Z</time>
      </trkpt>
      <trkpt lat="43.3948750" lon="-4.5910370">
        <ele>22.4</ele>
        <time>2021-07-18T09:39:27Z</time>
      </trkpt>
      <trkpt lat="43.3948700" lon="-4.5910540">
        <ele>22.8</ele>
        <time>2021-07-18T09:39:28Z</time>
      </trkpt>
      <trkpt lat="43.3948700" lon="-4.5910730">
        <ele>23.2</ele>
        <time>2021-07-18T09:39:29Z</time>
      </trkpt>
      <trkpt lat="43.3948720" lon="-4.5910890">
        <ele>23.6</ele>
        <time>2021-07-18T09:39:30Z</time>
      </trkpt>
      <trkpt lat="43.3948710" lon="-4.5911060">
        <ele>24.0</ele>
        <time>2021-07-18T09:39:31Z</time>
      </trkpt>
      <trkpt lat="43.3948670" lon="-4.5911220">
        <ele>24.4</ele>
        <time>2021-07-18T09:39:32Z</time>
      </trkpt>
      <trkpt lat="43.3948650" lon="-4.5911510">
        <ele>24.4</ele>
        <time>2021-07-18T09:39:34Z</time>
      </trkpt>
      <trkpt lat="43.3948370" lon="-4.5912200">
        <ele>24.4</ele>
        <time>2021-07-18T09:39:40Z</time>
      </trkpt>
      <trkpt lat="43.3948270" lon="-4.5912390">
        <ele>25.0</ele>
        <time>2021-07-18T09:39:42Z</time>
      </trkpt>
      <trkpt lat="43.3948270" lon="-4.5912460">
        <ele>25.4</ele>
        <time>2021-07-18T09:39:43Z</time>
      </trkpt>
      <trkpt lat="43.3948240" lon="-4.5912530">
        <ele>25.8</ele>
        <time>2021-07-18T09:39:44Z</time>
      </trkpt>
      <trkpt lat="43.3948160" lon="-4.5912600">
        <ele>26.2</ele>
        <time>2021-07-18T09:39:45Z</time>
      </trkpt>
      <trkpt lat="43.3948130" lon="-4.5912650">
        <ele>26.8</ele>
        <time>2021-07-18T09:39:46Z</time>
      </trkpt>
      <trkpt lat="43.3948020" lon="-4.5912820">
        <ele>26.8</ele>
        <time>2021-07-18T09:39:49Z</time>
      </trkpt>
      <trkpt lat="43.3947780" lon="-4.5913240">
        <ele>27.2</ele>
        <time>2021-07-18T09:39:54Z</time>
      </trkpt>
      <trkpt lat="43.3947780" lon="-4.5913320">
        <ele>27.6</ele>
        <time>2021-07-18T09:39:55Z</time>
      </trkpt>
      <trkpt lat="43.3947760" lon="-4.5913380">
        <ele>28.0</ele>
        <time>2021-07-18T09:39:56Z</time>
      </trkpt>
      <trkpt lat="43.3947730" lon="-4.5913460">
        <ele>28.4</ele>
        <time>2021-07-18T09:39:57Z</time>
      </trkpt>
      <trkpt lat="43.3947680" lon="-4.5913540">
        <ele>28.8</ele>
        <time>2021-07-18T09:39:58Z</time>
      </trkpt>
      <trkpt lat="43.3947640" lon="-4.5913620">
        <ele>28.8</ele>
        <time>2021-07-18T09:39:59Z</time>
      </trkpt>
      <trkpt lat="43.3947350" lon="-4.5913860">
        <ele>28.8</ele>
        <time>2021-07-18T09:40:03Z</time>
      </trkpt>
      <trkpt lat="43.3947290" lon="-4.5913990">
        <ele>29.2</ele>
        <time>2021-07-18T09:40:05Z</time>
      </trkpt>
      <trkpt lat="43.3947200" lon="-4.5914090">
        <ele>29.6</ele>
        <time>2021-07-18T09:40:06Z</time>
      </trkpt>
      <trkpt lat="43.3947140" lon="-4.5914130">
        <ele>30.0</ele>
        <time>2021-07-18T09:40:07Z</time>
      </trkpt>
      <trkpt lat="43.3947090" lon="-4.5914190">
        <ele>30.4</ele>
        <time>2021-07-18T09:40:08Z</time>
      </trkpt>
      <trkpt lat="43.3947080" lon="-4.5914290">
        <ele>31.0</ele>
        <time>2021-07-18T09:40:09Z</time>
      </trkpt>
      <trkpt lat="43.3946850" lon="-4.5914860">
        <ele>31.0</ele>
        <time>2021-07-18T09:40:13Z</time>
      </trkpt>
      <trkpt lat="43.3946640" lon="-4.5915800">
        <ele>31.0</ele>
        <time>2021-07-18T09:40:19Z</time>
      </trkpt>
      <trkpt lat="43.3946530" lon="-4.5916500">
        <ele>31.4</ele>
        <time>2021-07-18T09:40:23Z</time>
      </trkpt>
      <trkpt lat="43.3946480" lon="-4.5916660">
        <ele>31.8</ele>
        <time>2021-07-18T09:40:24Z</time>
      </trkpt>
      <trkpt lat="43.3946420" lon="-4.5916800">
        <ele>32.6</ele>
        <time>2021-07-18T09:40:25Z</time>
      </trkpt>
      <trkpt lat="43.3946360" lon="-4.5916950">
        <ele>33.0</ele>
        <time>2021-07-18T09:40:26Z</time>
      </trkpt>
      <trkpt lat="43.3946140" lon="-4.5917870">
        <ele>33.0</ele>
        <time>2021-07-18T09:40:33Z</time>
      </trkpt>
      <trkpt lat="43.3945880" lon="-4.5918570">
        <ele>33.0</ele>
        <time>2021-07-18T09:40:38Z</time>
      </trkpt>
      <trkpt lat="43.3945850" lon="-4.5918910">
        <ele>33.4</ele>
        <time>2021-07-18T09:40:40Z</time>
      </trkpt>
      <trkpt lat="43.3945830" lon="-4.5919070">
        <ele>33.8</ele>
        <time>2021-07-18T09:40:41Z</time>
      </trkpt>
      <trkpt lat="43.3945770" lon="-4.5919220">
        <ele>34.2</ele>
        <time>2021-07-18T09:40:42Z</time>
      </trkpt>
      <trkpt lat="43.3945710" lon="-4.5919360">
        <ele>34.6</ele>
        <time>2021-07-18T09:40:43Z</time>
      </trkpt>
      <trkpt lat="43.3945640" lon="-4.5919530">
        <ele>35.0</ele>
        <time>2021-07-18T09:40:44Z</time>
      </trkpt>
      <trkpt lat="43.3945390" lon="-4.5920350">
        <ele>35.0</ele>
        <time>2021-07-18T09:40:49Z</time>
      </trkpt>
      <trkpt lat="43.3945140" lon="-4.5921720">
        <ele>35.0</ele>
        <time>2021-07-18T09:40:57Z</time>
      </trkpt>
      <trkpt lat="43.3945010" lon="-4.5922210">
        <ele>35.4</ele>
        <time>2021-07-18T09:41:00Z</time>
      </trkpt>
      <trkpt lat="43.3944940" lon="-4.5922410">
        <ele>35.8</ele>
        <time>2021-07-18T09:41:01Z</time>
      </trkpt>
      <trkpt lat="43.3944900" lon="-4.5922550">
        <ele>36.2</ele>
        <time>2021-07-18T09:41:02Z</time>
      </trkpt>
      <trkpt lat="43.3944860" lon="-4.5922670">
        <ele>36.6</ele>
        <time>2021-07-18T09:41:03Z</time>
      </trkpt>
      <trkpt lat="43.3944790" lon="-4.5922820">
        <ele>37.0</ele>
        <time>2021-07-18T09:41:04Z</time>
      </trkpt>
      <trkpt lat="43.3944740" lon="-4.5922940">
        <ele>37.0</ele>
        <time>2021-07-18T09:41:05Z</time>
      </trkpt>
      <trkpt lat="43.3944540" lon="-4.5923210">
        <ele>37.0</ele>
        <time>2021-07-18T09:41:11Z</time>
      </trkpt>
      <trkpt lat="43.3943550" lon="-4.5924380">
        <ele>43.6</ele>
        <time>2021-07-18T09:41:41Z</time>
      </trkpt>
      <trkpt lat="43.3943570" lon="-4.5924660">
        <ele>43.6</ele>
        <time>2021-07-18T09:41:42Z</time>
      </trkpt>
      <trkpt lat="43.3943530" lon="-4.5924940">
        <ele>43.6</ele>
        <time>2021-07-18T09:41:43Z</time>
      </trkpt>
      <trkpt lat="43.3943260" lon="-4.5926670">
        <ele>43.6</ele>
        <time>2021-07-18T09:41:48Z</time>
      </trkpt>
      <trkpt lat="43.3942990" lon="-4.5929540">
        <ele>43.6</ele>
        <time>2021-07-18T09:41:55Z</time>
      </trkpt>
      <trkpt lat="43.3942800" lon="-4.5931850">
        <ele>43.6</ele>
        <time>2021-07-18T09:42:00Z</time>
      </trkpt>
      <trkpt lat="43.3942760" lon="-4.5932090">
        <ele>43.6</ele>
        <time>2021-07-18T09:42:01Z</time>
      </trkpt>
      <trkpt lat="43.3942790" lon="-4.5932120">
        <ele>43.6</ele>
        <time>2021-07-18T09:42:03Z</time>
      </trkpt>
      <trkpt lat="43.3942710" lon="-4.5932460">
        <ele>41.2</ele>
        <time>2021-07-18T09:42:07Z</time>
      </trkpt>
      <trkpt lat="43.3942550" lon="-4.5934540">
        <ele>41.2</ele>
        <time>2021-07-18T09:42:12Z</time>
      </trkpt>
      <trkpt lat="43.3942420" lon="-4.5935640">
        <ele>41.2</ele>
        <time>2021-07-18T09:42:14Z</time>
      </trkpt>
      <trkpt lat="43.3942390" lon="-4.5936730">
        <ele>41.2</ele>
        <time>2021-07-18T09:42:16Z</time>
      </trkpt>
      <trkpt lat="43.3942330" lon="-4.5937320">
        <ele>41.2</ele>
        <time>2021-07-18T09:42:17Z</time>
      </trkpt>
      <trkpt lat="43.3942340" lon="-4.5937870">
        <ele>40.8</ele>
        <time>2021-07-18T09:42:18Z</time>
      </trkpt>
      <trkpt lat="43.3942300" lon="-4.5938430">
        <ele>40.4</ele>
        <time>2021-07-18T09:42:19Z</time>
      </trkpt>
      <trkpt lat="43.3942260" lon="-4.5938960">
        <ele>40.0</ele>
        <time>2021-07-18T09:42:20Z</time>
      </trkpt>
      <trkpt lat="43.3942220" lon="-4.5939570">
        <ele>39.6</ele>
        <time>2021-07-18T09:42:21Z</time>
      </trkpt>
      <trkpt lat="43.3942190" lon="-4.5940200">
        <ele>39.2</ele>
        <time>2021-07-18T09:42:22Z</time>
      </trkpt>
      <trkpt lat="43.3942170" lon="-4.5941410">
        <ele>38.8</ele>
        <time>2021-07-18T09:42:24Z</time>
      </trkpt>
      <trkpt lat="43.3942170" lon="-4.5942040">
        <ele>38.4</ele>
        <time>2021-07-18T09:42:25Z</time>
      </trkpt>
      <trkpt lat="43.3942130" lon="-4.5942610">
        <ele>37.8</ele>
        <time>2021-07-18T09:42:26Z</time>
      </trkpt>
      <trkpt lat="43.3942100" lon="-4.5943210">
        <ele>37.4</ele>
        <time>2021-07-18T09:42:27Z</time>
      </trkpt>
      <trkpt lat="43.3942060" lon="-4.5943810">
        <ele>36.8</ele>
        <time>2021-07-18T09:42:28Z</time>
      </trkpt>
      <trkpt lat="43.3942040" lon="-4.5944400">
        <ele>36.4</ele>
        <time>2021-07-18T09:42:29Z</time>
      </trkpt>
      <trkpt lat="43.3942040" lon="-4.5945060">
        <ele>35.8</ele>
        <time>2021-07-18T09:42:30Z</time>
      </trkpt>
      <trkpt lat="43.3942060" lon="-4.5945730">
        <ele>35.4</ele>
        <time>2021-07-18T09:42:31Z</time>
      </trkpt>
      <trkpt lat="43.3942080" lon="-4.5946430">
        <ele>34.8</ele>
        <time>2021-07-18T09:42:32Z</time>
      </trkpt>
      <trkpt lat="43.3942070" lon="-4.5947140">
        <ele>34.4</ele>
        <time>2021-07-18T09:42:33Z</time>
      </trkpt>
      <trkpt lat="43.3942140" lon="-4.5947740">
        <ele>34.0</ele>
        <time>2021-07-18T09:42:34Z</time>
      </trkpt>
      <trkpt lat="43.3942190" lon="-4.5948380">
        <ele>33.4</ele>
        <time>2021-07-18T09:42:35Z</time>
      </trkpt>
      <trkpt lat="43.3942260" lon="-4.5948980">
        <ele>33.0</ele>
        <time>2021-07-18T09:42:36Z</time>
      </trkpt>
      <trkpt lat="43.3942320" lon="-4.5949560">
        <ele>32.4</ele>
        <time>2021-07-18T09:42:37Z</time>
      </trkpt>
      <trkpt lat="43.3942400" lon="-4.5950090">
        <ele>31.8</ele>
        <time>2021-07-18T09:42:38Z</time>
      </trkpt>
      <trkpt lat="43.3942470" lon="-4.5950650">
        <ele>31.2</ele>
        <time>2021-07-18T09:42:39Z</time>
      </trkpt>
      <trkpt lat="43.3942520" lon="-4.5951230">
        <ele>30.6</ele>
        <time>2021-07-18T09:42:40Z</time>
      </trkpt>
      <trkpt lat="43.3942520" lon="-4.5951780">
        <ele>30.0</ele>
        <time>2021-07-18T09:42:41Z</time>
      </trkpt>
      <trkpt lat="43.3942540" lon="-4.5952330">
        <ele>29.4</ele>
        <time>2021-07-18T09:42:42Z</time>
      </trkpt>
      <trkpt lat="43.3942550" lon="-4.5952860">
        <ele>28.8</ele>
        <time>2021-07-18T09:42:43Z</time>
      </trkpt>
      <trkpt lat="43.3942530" lon="-4.5953380">
        <ele>28.2</ele>
        <time>2021-07-18T09:42:44Z</time>
      </trkpt>
      <trkpt lat="43.3942460" lon="-4.5953950">
        <ele>27.8</ele>
        <time>2021-07-18T09:42:45Z</time>
      </trkpt>
      <trkpt lat="43.3942400" lon="-4.5954530">
        <ele>27.2</ele>
        <time>2021-07-18T09:42:46Z</time>
      </trkpt>
      <trkpt lat="43.3942160" lon="-4.5955810">
        <ele>26.6</ele>
        <time>2021-07-18T09:42:48Z</time>
      </trkpt>
      <trkpt lat="43.3942010" lon="-4.5956420">
        <ele>26.2</ele>
        <time>2021-07-18T09:42:49Z</time>
      </trkpt>
      <trkpt lat="43.3941830" lon="-4.5956950">
        <ele>25.8</ele>
        <time>2021-07-18T09:42:50Z</time>
      </trkpt>
      <trkpt lat="43.3941670" lon="-4.5957370">
        <ele>25.4</ele>
        <time>2021-07-18T09:42:51Z</time>
      </trkpt>
      <trkpt lat="43.3941500" lon="-4.5957710">
        <ele>24.8</ele>
        <time>2021-07-18T09:42:52Z</time>
      </trkpt>
      <trkpt lat="43.3941220" lon="-4.5958840">
        <ele>24.4</ele>
        <time>2021-07-18T09:42:56Z</time>
      </trkpt>
      <trkpt lat="43.3941290" lon="-4.5959100">
        <ele>24.0</ele>
        <time>2021-07-18T09:42:57Z</time>
      </trkpt>
      <trkpt lat="43.3941420" lon="-4.5959320">
        <ele>23.6</ele>
        <time>2021-07-18T09:42:58Z</time>
      </trkpt>
      <trkpt lat="43.3941560" lon="-4.5959500">
        <ele>23.2</ele>
        <time>2021-07-18T09:42:59Z</time>
      </trkpt>
      <trkpt lat="43.3941720" lon="-4.5959640">
        <ele>22.8</ele>
        <time>2021-07-18T09:43:00Z</time>
      </trkpt>
      <trkpt lat="43.3941970" lon="-4.5959790">
        <ele>22.8</ele>
        <time>2021-07-18T09:43:02Z</time>
      </trkpt>
      <trkpt lat="43.3942030" lon="-4.5959840">
        <ele>22.8</ele>
        <time>2021-07-18T09:43:04Z</time>
      </trkpt>
      <trkpt lat="43.3942060" lon="-4.5959810">
        <ele>22.8</ele>
        <time>2021-07-18T09:43:05Z</time>
      </trkpt>
      <trkpt lat="43.3942130" lon="-4.5959950">
        <ele>22.8</ele>
        <time>2021-07-18T09:43:08Z</time>
      </trkpt>
      <trkpt lat="43.3942280" lon="-4.5960410">
        <ele>22.8</ele>
        <time>2021-07-18T09:43:10Z</time>
      </trkpt>
      <trkpt lat="43.3942430" lon="-4.5960940">
        <ele>22.8</ele>
        <time>2021-07-18T09:43:12Z</time>
      </trkpt>
      <trkpt lat="43.3942600" lon="-4.5961620">
        <ele>22.8</ele>
        <time>2021-07-18T09:43:14Z</time>
      </trkpt>
      <trkpt lat="43.3942560" lon="-4.5962000">
        <ele>22.8</ele>
        <time>2021-07-18T09:43:15Z</time>
      </trkpt>
      <trkpt lat="43.3942280" lon="-4.5963120">
        <ele>22.8</ele>
        <time>2021-07-18T09:43:18Z</time>
      </trkpt>
      <trkpt lat="43.3942160" lon="-4.5963510">
        <ele>22.8</ele>
        <time>2021-07-18T09:43:19Z</time>
      </trkpt>
      <trkpt lat="43.3941820" lon="-4.5964620">
        <ele>22.8</ele>
        <time>2021-07-18T09:43:22Z</time>
      </trkpt>
      <trkpt lat="43.3941510" lon="-4.5965910">
        <ele>22.8</ele>
        <time>2021-07-18T09:43:25Z</time>
      </trkpt>
      <trkpt lat="43.3940870" lon="-4.5968340">
        <ele>22.8</ele>
        <time>2021-07-18T09:43:32Z</time>
      </trkpt>
      <trkpt lat="43.3940770" lon="-4.5968650">
        <ele>22.8</ele>
        <time>2021-07-18T09:43:33Z</time>
      </trkpt>
      <trkpt lat="43.3940650" lon="-4.5968980">
        <ele>22.8</ele>
        <time>2021-07-18T09:43:34Z</time>
      </trkpt>
      <trkpt lat="43.3940590" lon="-4.5969450">
        <ele>22.8</ele>
        <time>2021-07-18T09:43:35Z</time>
      </trkpt>
      <trkpt lat="43.3940380" lon="-4.5970340">
        <ele>22.8</ele>
        <time>2021-07-18T09:43:37Z</time>
      </trkpt>
      <trkpt lat="43.3940250" lon="-4.5970820">
        <ele>22.8</ele>
        <time>2021-07-18T09:43:38Z</time>
      </trkpt>
      <trkpt lat="43.3939930" lon="-4.5972310">
        <ele>22.8</ele>
        <time>2021-07-18T09:43:41Z</time>
      </trkpt>
      <trkpt lat="43.3939600" lon="-4.5973640">
        <ele>22.8</ele>
        <time>2021-07-18T09:43:44Z</time>
      </trkpt>
      <trkpt lat="43.3939500" lon="-4.5974080">
        <ele>22.4</ele>
        <time>2021-07-18T09:43:45Z</time>
      </trkpt>
      <trkpt lat="43.3939410" lon="-4.5974460">
        <ele>22.0</ele>
        <time>2021-07-18T09:43:46Z</time>
      </trkpt>
      <trkpt lat="43.3939310" lon="-4.5974930">
        <ele>21.6</ele>
        <time>2021-07-18T09:43:47Z</time>
      </trkpt>
      <trkpt lat="43.3939220" lon="-4.5975350">
        <ele>21.2</ele>
        <time>2021-07-18T09:43:48Z</time>
      </trkpt>
      <trkpt lat="43.3939130" lon="-4.5975750">
        <ele>20.8</ele>
        <time>2021-07-18T09:43:49Z</time>
      </trkpt>
      <trkpt lat="43.3938940" lon="-4.5976560">
        <ele>20.8</ele>
        <time>2021-07-18T09:43:51Z</time>
      </trkpt>
      <trkpt lat="43.3938620" lon="-4.5977960">
        <ele>20.8</ele>
        <time>2021-07-18T09:43:54Z</time>
      </trkpt>
      <trkpt lat="43.3938430" lon="-4.5978950">
        <ele>20.8</ele>
        <time>2021-07-18T09:43:56Z</time>
      </trkpt>
      <trkpt lat="43.3937600" lon="-4.5983220">
        <ele>20.8</ele>
        <time>2021-07-18T09:44:04Z</time>
      </trkpt>
      <trkpt lat="43.3937080" lon="-4.5985710">
        <ele>20.8</ele>
        <time>2021-07-18T09:44:09Z</time>
      </trkpt>
      <trkpt lat="43.3936630" lon="-4.5987970">
        <ele>20.8</ele>
        <time>2021-07-18T09:44:13Z</time>
      </trkpt>
      <trkpt lat="43.3936030" lon="-4.5992420">
        <ele>20.8</ele>
        <time>2021-07-18T09:44:21Z</time>
      </trkpt>
      <trkpt lat="43.3935240" lon="-4.5997060">
        <ele>20.8</ele>
        <time>2021-07-18T09:44:29Z</time>
      </trkpt>
      <trkpt lat="43.3934720" lon="-4.6001820">
        <ele>20.8</ele>
        <time>2021-07-18T09:44:37Z</time>
      </trkpt>
      <trkpt lat="43.3934400" lon="-4.6004910">
        <ele>20.8</ele>
        <time>2021-07-18T09:44:42Z</time>
      </trkpt>
      <trkpt lat="43.3934210" lon="-4.6006730">
        <ele>20.8</ele>
        <time>2021-07-18T09:44:45Z</time>
      </trkpt>
      <trkpt lat="43.3934020" lon="-4.6008610">
        <ele>20.8</ele>
        <time>2021-07-18T09:44:48Z</time>
      </trkpt>
      <trkpt lat="43.3933770" lon="-4.6011780">
        <ele>20.8</ele>
        <time>2021-07-18T09:44:53Z</time>
      </trkpt>
      <trkpt lat="43.3933470" lon="-4.6016270">
        <ele>20.8</ele>
        <time>2021-07-18T09:45:00Z</time>
      </trkpt>
      <trkpt lat="43.3933420" lon="-4.6017520">
        <ele>20.8</ele>
        <time>2021-07-18T09:45:02Z</time>
      </trkpt>
      <trkpt lat="43.3933240" lon="-4.6019460">
        <ele>20.8</ele>
        <time>2021-07-18T09:45:05Z</time>
      </trkpt>
      <trkpt lat="43.3933160" lon="-4.6020780">
        <ele>20.8</ele>
        <time>2021-07-18T09:45:07Z</time>
      </trkpt>
      <trkpt lat="43.3933070" lon="-4.6022130">
        <ele>20.4</ele>
        <time>2021-07-18T09:45:09Z</time>
      </trkpt>
      <trkpt lat="43.3933030" lon="-4.6022790">
        <ele>20.0</ele>
        <time>2021-07-18T09:45:10Z</time>
      </trkpt>
      <trkpt lat="43.3933000" lon="-4.6023480">
        <ele>19.6</ele>
        <time>2021-07-18T09:45:11Z</time>
      </trkpt>
      <trkpt lat="43.3932980" lon="-4.6024150">
        <ele>19.2</ele>
        <time>2021-07-18T09:45:12Z</time>
      </trkpt>
      <trkpt lat="43.3932940" lon="-4.6024830">
        <ele>18.8</ele>
        <time>2021-07-18T09:45:13Z</time>
      </trkpt>
      <trkpt lat="43.3932830" lon="-4.6028400">
        <ele>18.8</ele>
        <time>2021-07-18T09:45:18Z</time>
      </trkpt>
      <trkpt lat="43.3932790" lon="-4.6035360">
        <ele>18.8</ele>
        <time>2021-07-18T09:45:27Z</time>
      </trkpt>
      <trkpt lat="43.3932800" lon="-4.6036180">
        <ele>18.2</ele>
        <time>2021-07-18T09:45:28Z</time>
      </trkpt>
      <trkpt lat="43.3932800" lon="-4.6036990">
        <ele>17.8</ele>
        <time>2021-07-18T09:45:29Z</time>
      </trkpt>
      <trkpt lat="43.3932820" lon="-4.6037800">
        <ele>17.4</ele>
        <time>2021-07-18T09:45:30Z</time>
      </trkpt>
      <trkpt lat="43.3932850" lon="-4.6038610">
        <ele>17.0</ele>
        <time>2021-07-18T09:45:31Z</time>
      </trkpt>
      <trkpt lat="43.3932880" lon="-4.6039420">
        <ele>16.6</ele>
        <time>2021-07-18T09:45:32Z</time>
      </trkpt>
      <trkpt lat="43.3932970" lon="-4.6041150">
        <ele>16.6</ele>
        <time>2021-07-18T09:45:34Z</time>
      </trkpt>
      <trkpt lat="43.3933050" lon="-4.6042870">
        <ele>16.6</ele>
        <time>2021-07-18T09:45:36Z</time>
      </trkpt>
      <trkpt lat="43.3933210" lon="-4.6047040">
        <ele>16.6</ele>
        <time>2021-07-18T09:45:41Z</time>
      </trkpt>
      <trkpt lat="43.3933310" lon="-4.6048660">
        <ele>16.2</ele>
        <time>2021-07-18T09:45:43Z</time>
      </trkpt>
      <trkpt lat="43.3933350" lon="-4.6049420">
        <ele>15.8</ele>
        <time>2021-07-18T09:45:44Z</time>
      </trkpt>
      <trkpt lat="43.3933390" lon="-4.6050200">
        <ele>15.2</ele>
        <time>2021-07-18T09:45:45Z</time>
      </trkpt>
      <trkpt lat="43.3933410" lon="-4.6050960">
        <ele>14.8</ele>
        <time>2021-07-18T09:45:46Z</time>
      </trkpt>
      <trkpt lat="43.3933420" lon="-4.6051750">
        <ele>14.4</ele>
        <time>2021-07-18T09:45:47Z</time>
      </trkpt>
      <trkpt lat="43.3933420" lon="-4.6052550">
        <ele>14.4</ele>
        <time>2021-07-18T09:45:48Z</time>
      </trkpt>
      <trkpt lat="43.3933350" lon="-4.6056570">
        <ele>14.4</ele>
        <time>2021-07-18T09:45:54Z</time>
      </trkpt>
      <trkpt lat="43.3933350" lon="-4.6057230">
        <ele>14.4</ele>
        <time>2021-07-18T09:45:55Z</time>
      </trkpt>
      <trkpt lat="43.3933360" lon="-4.6058620">
        <ele>14.4</ele>
        <time>2021-07-18T09:45:57Z</time>
      </trkpt>
      <trkpt lat="43.3933340" lon="-4.6060020">
        <ele>14.4</ele>
        <time>2021-07-18T09:45:59Z</time>
      </trkpt>
      <trkpt lat="43.3933250" lon="-4.6061460">
        <ele>14.4</ele>
        <time>2021-07-18T09:46:01Z</time>
      </trkpt>
      <trkpt lat="43.3933200" lon="-4.6062130">
        <ele>14.4</ele>
        <time>2021-07-18T09:46:02Z</time>
      </trkpt>
      <trkpt lat="43.3932690" lon="-4.6066690">
        <ele>14.4</ele>
        <time>2021-07-18T09:46:09Z</time>
      </trkpt>
      <trkpt lat="43.3932580" lon="-4.6067300">
        <ele>14.4</ele>
        <time>2021-07-18T09:46:10Z</time>
      </trkpt>
      <trkpt lat="43.3932160" lon="-4.6069920">
        <ele>14.4</ele>
        <time>2021-07-18T09:46:14Z</time>
      </trkpt>
      <trkpt lat="43.3931940" lon="-4.6071280">
        <ele>14.4</ele>
        <time>2021-07-18T09:46:16Z</time>
      </trkpt>
      <trkpt lat="43.3931790" lon="-4.6071950">
        <ele>14.4</ele>
        <time>2021-07-18T09:46:17Z</time>
      </trkpt>
      <trkpt lat="43.3931340" lon="-4.6074100">
        <ele>14.4</ele>
        <time>2021-07-18T09:46:20Z</time>
      </trkpt>
      <trkpt lat="43.3930900" lon="-4.6076090">
        <ele>14.4</ele>
        <time>2021-07-18T09:46:23Z</time>
      </trkpt>
      <trkpt lat="43.3929800" lon="-4.6080970">
        <ele>14.4</ele>
        <time>2021-07-18T09:46:30Z</time>
      </trkpt>
      <trkpt lat="43.3929010" lon="-4.6084570">
        <ele>14.0</ele>
        <time>2021-07-18T09:46:35Z</time>
      </trkpt>
      <trkpt lat="43.3928870" lon="-4.6085230">
        <ele>13.2</ele>
        <time>2021-07-18T09:46:36Z</time>
      </trkpt>
      <trkpt lat="43.3928700" lon="-4.6085890">
        <ele>12.8</ele>
        <time>2021-07-18T09:46:37Z</time>
      </trkpt>
      <trkpt lat="43.3928540" lon="-4.6086530">
        <ele>12.4</ele>
        <time>2021-07-18T09:46:38Z</time>
      </trkpt>
      <trkpt lat="43.3927530" lon="-4.6090600">
        <ele>12.4</ele>
        <time>2021-07-18T09:46:44Z</time>
      </trkpt>
      <trkpt lat="43.3926860" lon="-4.6093500">
        <ele>12.4</ele>
        <time>2021-07-18T09:46:48Z</time>
      </trkpt>
      <trkpt lat="43.3926300" lon="-4.6096130">
        <ele>12.4</ele>
        <time>2021-07-18T09:46:52Z</time>
      </trkpt>
      <trkpt lat="43.3926180" lon="-4.6096760">
        <ele>12.4</ele>
        <time>2021-07-18T09:46:53Z</time>
      </trkpt>
      <trkpt lat="43.3926000" lon="-4.6098010">
        <ele>12.4</ele>
        <time>2021-07-18T09:46:55Z</time>
      </trkpt>
      <trkpt lat="43.3925410" lon="-4.6101990">
        <ele>12.4</ele>
        <time>2021-07-18T09:47:01Z</time>
      </trkpt>
      <trkpt lat="43.3925150" lon="-4.6104080">
        <ele>12.4</ele>
        <time>2021-07-18T09:47:04Z</time>
      </trkpt>
      <trkpt lat="43.3924650" lon="-4.6109100">
        <ele>12.4</ele>
        <time>2021-07-18T09:47:11Z</time>
      </trkpt>
      <trkpt lat="43.3924180" lon="-4.6114010">
        <ele>12.4</ele>
        <time>2021-07-18T09:47:18Z</time>
      </trkpt>
      <trkpt lat="43.3924040" lon="-4.6115280">
        <ele>12.4</ele>
        <time>2021-07-18T09:47:20Z</time>
      </trkpt>
      <trkpt lat="43.3923600" lon="-4.6119130">
        <ele>12.4</ele>
        <time>2021-07-18T09:47:26Z</time>
      </trkpt>
      <trkpt lat="43.3923290" lon="-4.6121920">
        <ele>12.4</ele>
        <time>2021-07-18T09:47:30Z</time>
      </trkpt>
      <trkpt lat="43.3922940" lon="-4.6125560">
        <ele>12.4</ele>
        <time>2021-07-18T09:47:35Z</time>
      </trkpt>
      <trkpt lat="43.3922650" lon="-4.6128510">
        <ele>12.4</ele>
        <time>2021-07-18T09:47:39Z</time>
      </trkpt>
      <trkpt lat="43.3922440" lon="-4.6130660">
        <ele>12.4</ele>
        <time>2021-07-18T09:47:42Z</time>
      </trkpt>
      <trkpt lat="43.3922010" lon="-4.6135040">
        <ele>12.4</ele>
        <time>2021-07-18T09:47:49Z</time>
      </trkpt>
      <trkpt lat="43.3921650" lon="-4.6138070">
        <ele>12.4</ele>
        <time>2021-07-18T09:47:55Z</time>
      </trkpt>
      <trkpt lat="43.3921570" lon="-4.6138560">
        <ele>12.4</ele>
        <time>2021-07-18T09:47:56Z</time>
      </trkpt>
      <trkpt lat="43.3921330" lon="-4.6141150">
        <ele>12.4</ele>
        <time>2021-07-18T09:48:02Z</time>
      </trkpt>
      <trkpt lat="43.3921260" lon="-4.6142930">
        <ele>12.4</ele>
        <time>2021-07-18T09:48:06Z</time>
      </trkpt>
      <trkpt lat="43.3921270" lon="-4.6143810">
        <ele>12.8</ele>
        <time>2021-07-18T09:48:08Z</time>
      </trkpt>
      <trkpt lat="43.3921260" lon="-4.6144250">
        <ele>13.2</ele>
        <time>2021-07-18T09:48:09Z</time>
      </trkpt>
      <trkpt lat="43.3921260" lon="-4.6144690">
        <ele>13.6</ele>
        <time>2021-07-18T09:48:10Z</time>
      </trkpt>
      <trkpt lat="43.3921250" lon="-4.6145120">
        <ele>14.0</ele>
        <time>2021-07-18T09:48:11Z</time>
      </trkpt>
      <trkpt lat="43.3921240" lon="-4.6145540">
        <ele>14.4</ele>
        <time>2021-07-18T09:48:12Z</time>
      </trkpt>
      <trkpt lat="43.3921230" lon="-4.6145970">
        <ele>14.4</ele>
        <time>2021-07-18T09:48:13Z</time>
      </trkpt>
      <trkpt lat="43.3921320" lon="-4.6148120">
        <ele>14.4</ele>
        <time>2021-07-18T09:48:18Z</time>
      </trkpt>
      <trkpt lat="43.3921340" lon="-4.6148530">
        <ele>14.8</ele>
        <time>2021-07-18T09:48:19Z</time>
      </trkpt>
      <trkpt lat="43.3921390" lon="-4.6148930">
        <ele>15.2</ele>
        <time>2021-07-18T09:48:20Z</time>
      </trkpt>
      <trkpt lat="43.3921460" lon="-4.6149310">
        <ele>15.6</ele>
        <time>2021-07-18T09:48:21Z</time>
      </trkpt>
      <trkpt lat="43.3921510" lon="-4.6149700">
        <ele>16.0</ele>
        <time>2021-07-18T09:48:22Z</time>
      </trkpt>
      <trkpt lat="43.3921560" lon="-4.6150120">
        <ele>16.4</ele>
        <time>2021-07-18T09:48:23Z</time>
      </trkpt>
      <trkpt lat="43.3921780" lon="-4.6152300">
        <ele>16.4</ele>
        <time>2021-07-18T09:48:28Z</time>
      </trkpt>
      <trkpt lat="43.3922230" lon="-4.6155790">
        <ele>16.8</ele>
        <time>2021-07-18T09:48:36Z</time>
      </trkpt>
      <trkpt lat="43.3922280" lon="-4.6156240">
        <ele>17.2</ele>
        <time>2021-07-18T09:48:37Z</time>
      </trkpt>
      <trkpt lat="43.3922300" lon="-4.6156700">
        <ele>17.6</ele>
        <time>2021-07-18T09:48:38Z</time>
      </trkpt>
      <trkpt lat="43.3922360" lon="-4.6157150">
        <ele>18.6</ele>
        <time>2021-07-18T09:48:39Z</time>
      </trkpt>
      <trkpt lat="43.3922560" lon="-4.6159190">
        <ele>18.6</ele>
        <time>2021-07-18T09:48:44Z</time>
      </trkpt>
      <trkpt lat="43.3922550" lon="-4.6160050">
        <ele>18.6</ele>
        <time>2021-07-18T09:48:46Z</time>
      </trkpt>
      <trkpt lat="43.3922440" lon="-4.6161860">
        <ele>18.6</ele>
        <time>2021-07-18T09:48:50Z</time>
      </trkpt>
      <trkpt lat="43.3922350" lon="-4.6163250">
        <ele>18.6</ele>
        <time>2021-07-18T09:48:53Z</time>
      </trkpt>
      <trkpt lat="43.3922150" lon="-4.6164820">
        <ele>18.6</ele>
        <time>2021-07-18T09:48:56Z</time>
      </trkpt>
      <trkpt lat="43.3921780" lon="-4.6166810">
        <ele>18.6</ele>
        <time>2021-07-18T09:49:00Z</time>
      </trkpt>
      <trkpt lat="43.3921640" lon="-4.6167770">
        <ele>18.6</ele>
        <time>2021-07-18T09:49:02Z</time>
      </trkpt>
      <trkpt lat="43.3921540" lon="-4.6168740">
        <ele>18.6</ele>
        <time>2021-07-18T09:49:04Z</time>
      </trkpt>
      <trkpt lat="43.3921300" lon="-4.6170400">
        <ele>18.6</ele>
        <time>2021-07-18T09:49:07Z</time>
      </trkpt>
      <trkpt lat="43.3920930" lon="-4.6172710">
        <ele>18.6</ele>
        <time>2021-07-18T09:49:11Z</time>
      </trkpt>
      <trkpt lat="43.3920890" lon="-4.6173300">
        <ele>18.6</ele>
        <time>2021-07-18T09:49:12Z</time>
      </trkpt>
      <trkpt lat="43.3920840" lon="-4.6174500">
        <ele>18.6</ele>
        <time>2021-07-18T09:49:14Z</time>
      </trkpt>
      <trkpt lat="43.3920790" lon="-4.6175080">
        <ele>18.6</ele>
        <time>2021-07-18T09:49:15Z</time>
      </trkpt>
      <trkpt lat="43.3920790" lon="-4.6176700">
        <ele>18.6</ele>
        <time>2021-07-18T09:49:18Z</time>
      </trkpt>
      <trkpt lat="43.3920820" lon="-4.6178270">
        <ele>18.6</ele>
        <time>2021-07-18T09:49:21Z</time>
      </trkpt>
      <trkpt lat="43.3921170" lon="-4.6182190">
        <ele>18.6</ele>
        <time>2021-07-18T09:49:28Z</time>
      </trkpt>
      <trkpt lat="43.3921490" lon="-4.6186490">
        <ele>18.6</ele>
        <time>2021-07-18T09:49:36Z</time>
      </trkpt>
      <trkpt lat="43.3921530" lon="-4.6190580">
        <ele>18.6</ele>
        <time>2021-07-18T09:49:43Z</time>
      </trkpt>
      <trkpt lat="43.3921640" lon="-4.6195270">
        <ele>18.6</ele>
        <time>2021-07-18T09:49:51Z</time>
      </trkpt>
      <trkpt lat="43.3921770" lon="-4.6199410">
        <ele>18.6</ele>
        <time>2021-07-18T09:49:58Z</time>
      </trkpt>
      <trkpt lat="43.3921660" lon="-4.6204610">
        <ele>18.6</ele>
        <time>2021-07-18T09:50:06Z</time>
      </trkpt>
      <trkpt lat="43.3921660" lon="-4.6210100">
        <ele>18.6</ele>
        <time>2021-07-18T09:50:14Z</time>
      </trkpt>
      <trkpt lat="43.3921600" lon="-4.6215830">
        <ele>18.6</ele>
        <time>2021-07-18T09:50:22Z</time>
      </trkpt>
      <trkpt lat="43.3921600" lon="-4.6221540">
        <ele>18.6</ele>
        <time>2021-07-18T09:50:30Z</time>
      </trkpt>
      <trkpt lat="43.3921600" lon="-4.6222160">
        <ele>18.6</ele>
        <time>2021-07-18T09:50:31Z</time>
      </trkpt>
      <trkpt lat="43.3921570" lon="-4.6223380">
        <ele>18.6</ele>
        <time>2021-07-18T09:50:33Z</time>
      </trkpt>
      <trkpt lat="43.3921570" lon="-4.6225580">
        <ele>18.6</ele>
        <time>2021-07-18T09:50:37Z</time>
      </trkpt>
      <trkpt lat="43.3921570" lon="-4.6226100">
        <ele>18.6</ele>
        <time>2021-07-18T09:50:38Z</time>
      </trkpt>
      <trkpt lat="43.3921580" lon="-4.6226600">
        <ele>18.6</ele>
        <time>2021-07-18T09:50:39Z</time>
      </trkpt>
      <trkpt lat="43.3921700" lon="-4.6228890">
        <ele>18.6</ele>
        <time>2021-07-18T09:50:44Z</time>
      </trkpt>
      <trkpt lat="43.3921770" lon="-4.6229530">
        <ele>18.6</ele>
        <time>2021-07-18T09:50:46Z</time>
      </trkpt>
      <trkpt lat="43.3922160" lon="-4.6231220">
        <ele>18.6</ele>
        <time>2021-07-18T09:50:51Z</time>
      </trkpt>
      <trkpt lat="43.3922240" lon="-4.6231630">
        <ele>18.6</ele>
        <time>2021-07-18T09:50:52Z</time>
      </trkpt>
      <trkpt lat="43.3922350" lon="-4.6232610">
        <ele>18.6</ele>
        <time>2021-07-18T09:50:54Z</time>
      </trkpt>
      <trkpt lat="43.3922500" lon="-4.6235110">
        <ele>18.6</ele>
        <time>2021-07-18T09:50:58Z</time>
      </trkpt>
      <trkpt lat="43.3922730" lon="-4.6239370">
        <ele>18.6</ele>
        <time>2021-07-18T09:51:03Z</time>
      </trkpt>
      <trkpt lat="43.3922840" lon="-4.6242370">
        <ele>18.6</ele>
        <time>2021-07-18T09:51:06Z</time>
      </trkpt>
      <trkpt lat="43.3922970" lon="-4.6244550">
        <ele>18.0</ele>
        <time>2021-07-18T09:51:08Z</time>
      </trkpt>
      <trkpt lat="43.3923010" lon="-4.6245610">
        <ele>17.6</ele>
        <time>2021-07-18T09:51:09Z</time>
      </trkpt>
      <trkpt lat="43.3923040" lon="-4.6246700">
        <ele>17.2</ele>
        <time>2021-07-18T09:51:10Z</time>
      </trkpt>
      <trkpt lat="43.3923070" lon="-4.6247690">
        <ele>16.6</ele>
        <time>2021-07-18T09:51:11Z</time>
      </trkpt>
      <trkpt lat="43.3923080" lon="-4.6248670">
        <ele>16.0</ele>
        <time>2021-07-18T09:51:12Z</time>
      </trkpt>
      <trkpt lat="43.3923090" lon="-4.6249630">
        <ele>15.2</ele>
        <time>2021-07-18T09:51:13Z</time>
      </trkpt>
      <trkpt lat="43.3923120" lon="-4.6250570">
        <ele>14.6</ele>
        <time>2021-07-18T09:51:14Z</time>
      </trkpt>
      <trkpt lat="43.3923150" lon="-4.6251500">
        <ele>14.0</ele>
        <time>2021-07-18T09:51:15Z</time>
      </trkpt>
      <trkpt lat="43.3923240" lon="-4.6252430">
        <ele>14.0</ele>
        <time>2021-07-18T09:51:16Z</time>
      </trkpt>
      <trkpt lat="43.3923370" lon="-4.6253340">
        <ele>13.6</ele>
        <time>2021-07-18T09:51:17Z</time>
      </trkpt>
      <trkpt lat="43.3923560" lon="-4.6254320">
        <ele>13.2</ele>
        <time>2021-07-18T09:51:18Z</time>
      </trkpt>
      <trkpt lat="43.3923750" lon="-4.6255230">
        <ele>12.8</ele>
        <time>2021-07-18T09:51:19Z</time>
      </trkpt>
      <trkpt lat="43.3924020" lon="-4.6256140">
        <ele>12.4</ele>
        <time>2021-07-18T09:51:20Z</time>
      </trkpt>
      <trkpt lat="43.3924280" lon="-4.6257000">
        <ele>11.8</ele>
        <time>2021-07-18T09:51:21Z</time>
      </trkpt>
      <trkpt lat="43.3924600" lon="-4.6258290">
        <ele>11.4</ele>
        <time>2021-07-18T09:51:23Z</time>
      </trkpt>
      <trkpt lat="43.3924770" lon="-4.6258720">
        <ele>11.0</ele>
        <time>2021-07-18T09:51:24Z</time>
      </trkpt>
      <trkpt lat="43.3924970" lon="-4.6259030">
        <ele>10.6</ele>
        <time>2021-07-18T09:51:25Z</time>
      </trkpt>
      <trkpt lat="43.3925150" lon="-4.6259230">
        <ele>10.2</ele>
        <time>2021-07-18T09:51:26Z</time>
      </trkpt>
      <trkpt lat="43.3925370" lon="-4.6259460">
        <ele>9.8</ele>
        <time>2021-07-18T09:51:27Z</time>
      </trkpt>
      <trkpt lat="43.3925670" lon="-4.6259820">
        <ele>9.8</ele>
        <time>2021-07-18T09:51:28Z</time>
      </trkpt>
      <trkpt lat="43.3926410" lon="-4.6260950">
        <ele>9.8</ele>
        <time>2021-07-18T09:51:30Z</time>
      </trkpt>
      <trkpt lat="43.3926760" lon="-4.6261690">
        <ele>9.8</ele>
        <time>2021-07-18T09:51:31Z</time>
      </trkpt>
      <trkpt lat="43.3927390" lon="-4.6263110">
        <ele>9.2</ele>
        <time>2021-07-18T09:51:33Z</time>
      </trkpt>
      <trkpt lat="43.3927660" lon="-4.6263780">
        <ele>8.8</ele>
        <time>2021-07-18T09:51:34Z</time>
      </trkpt>
      <trkpt lat="43.3927910" lon="-4.6264450">
        <ele>8.2</ele>
        <time>2021-07-18T09:51:35Z</time>
      </trkpt>
      <trkpt lat="43.3928150" lon="-4.6265070">
        <ele>7.8</ele>
        <time>2021-07-18T09:51:36Z</time>
      </trkpt>
      <trkpt lat="43.3928370" lon="-4.6265640">
        <ele>7.2</ele>
        <time>2021-07-18T09:51:37Z</time>
      </trkpt>
      <trkpt lat="43.3928560" lon="-4.6266160">
        <ele>6.6</ele>
        <time>2021-07-18T09:51:38Z</time>
      </trkpt>
      <trkpt lat="43.3928740" lon="-4.6266660">
        <ele>6.2</ele>
        <time>2021-07-18T09:51:39Z</time>
      </trkpt>
      <trkpt lat="43.3928940" lon="-4.6267120">
        <ele>5.6</ele>
        <time>2021-07-18T09:51:40Z</time>
      </trkpt>
      <trkpt lat="43.3929160" lon="-4.6267480">
        <ele>5.0</ele>
        <time>2021-07-18T09:51:41Z</time>
      </trkpt>
      <trkpt lat="43.3929380" lon="-4.6267720">
        <ele>4.4</ele>
        <time>2021-07-18T09:51:42Z</time>
      </trkpt>
      <trkpt lat="43.3929640" lon="-4.6267900">
        <ele>3.8</ele>
        <time>2021-07-18T09:51:43Z</time>
      </trkpt>
      <trkpt lat="43.3929990" lon="-4.6268110">
        <ele>3.2</ele>
        <time>2021-07-18T09:51:44Z</time>
      </trkpt>
      <trkpt lat="43.3930400" lon="-4.6268500">
        <ele>2.6</ele>
        <time>2021-07-18T09:51:45Z</time>
      </trkpt>
      <trkpt lat="43.3930770" lon="-4.6268920">
        <ele>2.2</ele>
        <time>2021-07-18T09:51:46Z</time>
      </trkpt>
      <trkpt lat="43.3931100" lon="-4.6269340">
        <ele>1.8</ele>
        <time>2021-07-18T09:51:47Z</time>
      </trkpt>
      <trkpt lat="43.3931420" lon="-4.6269720">
        <ele>1.2</ele>
        <time>2021-07-18T09:51:48Z</time>
      </trkpt>
      <trkpt lat="43.3931760" lon="-4.6270110">
        <ele>0.8</ele>
        <time>2021-07-18T09:51:49Z</time>
      </trkpt>
      <trkpt lat="43.3932130" lon="-4.6270510">
        <ele>0.2</ele>
        <time>2021-07-18T09:51:50Z</time>
      </trkpt>
      <trkpt lat="43.3932500" lon="-4.6270920">
        <ele>0.2</ele>
        <time>2021-07-18T09:51:51Z</time>
      </trkpt>
      <trkpt lat="43.3932850" lon="-4.6271280">
        <ele>0.2</ele>
        <time>2021-07-18T09:51:52Z</time>
      </trkpt>
      <trkpt lat="43.3933420" lon="-4.6271780">
        <ele>0.2</ele>
        <time>2021-07-18T09:51:54Z</time>
      </trkpt>
      <trkpt lat="43.3933780" lon="-4.6272300">
        <ele>0.2</ele>
        <time>2021-07-18T09:51:56Z</time>
      </trkpt>
      <trkpt lat="43.3933840" lon="-4.6272560">
        <ele>0.2</ele>
        <time>2021-07-18T09:51:57Z</time>
      </trkpt>
      <trkpt lat="43.3933720" lon="-4.6273090">
        <ele>0.2</ele>
        <time>2021-07-18T09:51:59Z</time>
      </trkpt>
      <trkpt lat="43.3933680" lon="-4.6273370">
        <ele>0.2</ele>
        <time>2021-07-18T09:52:00Z</time>
      </trkpt>
      <trkpt lat="43.3933570" lon="-4.6273690">
        <ele>0.6</ele>
        <time>2021-07-18T09:52:01Z</time>
      </trkpt>
      <trkpt lat="43.3933420" lon="-4.6274030">
        <ele>1.0</ele>
        <time>2021-07-18T09:52:02Z</time>
      </trkpt>
      <trkpt lat="43.3933330" lon="-4.6274380">
        <ele>1.4</ele>
        <time>2021-07-18T09:52:03Z</time>
      </trkpt>
      <trkpt lat="43.3933240" lon="-4.6274750">
        <ele>1.8</ele>
        <time>2021-07-18T09:52:04Z</time>
      </trkpt>
      <trkpt lat="43.3933200" lon="-4.6275150">
        <ele>2.2</ele>
        <time>2021-07-18T09:52:05Z</time>
      </trkpt>
      <trkpt lat="43.3933430" lon="-4.6276510">
        <ele>2.2</ele>
        <time>2021-07-18T09:52:08Z</time>
      </trkpt>
      <trkpt lat="43.3933620" lon="-4.6276860">
        <ele>2.2</ele>
        <time>2021-07-18T09:52:09Z</time>
      </trkpt>
      <trkpt lat="43.3935050" lon="-4.6278630">
        <ele>2.2</ele>
        <time>2021-07-18T09:52:15Z</time>
      </trkpt>
      <trkpt lat="43.3936880" lon="-4.6280310">
        <ele>2.2</ele>
        <time>2021-07-18T09:52:22Z</time>
      </trkpt>
      <trkpt lat="43.3937390" lon="-4.6280830">
        <ele>2.2</ele>
        <time>2021-07-18T09:52:24Z</time>
      </trkpt>
      <trkpt lat="43.3937660" lon="-4.6281120">
        <ele>2.2</ele>
        <time>2021-07-18T09:52:25Z</time>
      </trkpt>
      <trkpt lat="43.3938160" lon="-4.6281780">
        <ele>2.2</ele>
        <time>2021-07-18T09:52:27Z</time>
      </trkpt>
      <trkpt lat="43.3938610" lon="-4.6282630">
        <ele>2.2</ele>
        <time>2021-07-18T09:52:29Z</time>
      </trkpt>
      <trkpt lat="43.3938860" lon="-4.6283060">
        <ele>2.2</ele>
        <time>2021-07-18T09:52:30Z</time>
      </trkpt>
      <trkpt lat="43.3939510" lon="-4.6284020">
        <ele>2.2</ele>
        <time>2021-07-18T09:52:32Z</time>
      </trkpt>
      <trkpt lat="43.3940210" lon="-4.6285110">
        <ele>1.8</ele>
        <time>2021-07-18T09:52:34Z</time>
      </trkpt>
      <trkpt lat="43.3940520" lon="-4.6285690">
        <ele>1.4</ele>
        <time>2021-07-18T09:52:35Z</time>
      </trkpt>
      <trkpt lat="43.3940780" lon="-4.6286200">
        <ele>1.0</ele>
        <time>2021-07-18T09:52:36Z</time>
      </trkpt>
      <trkpt lat="43.3941020" lon="-4.6286650">
        <ele>0.6</ele>
        <time>2021-07-18T09:52:37Z</time>
      </trkpt>
      <trkpt lat="43.3941250" lon="-4.6287130">
        <ele>0.2</ele>
        <time>2021-07-18T09:52:38Z</time>
      </trkpt>
      <trkpt lat="43.3941460" lon="-4.6287630">
        <ele>0.2</ele>
        <time>2021-07-18T09:52:39Z</time>
      </trkpt>
      <trkpt lat="43.3941640" lon="-4.6288150">
        <ele>-0.2</ele>
        <time>2021-07-18T09:52:40Z</time>
      </trkpt>
      <trkpt lat="43.3941810" lon="-4.6288670">
        <ele>-0.8</ele>
        <time>2021-07-18T09:52:41Z</time>
      </trkpt>
      <trkpt lat="43.3941980" lon="-4.6289180">
        <ele>-1.2</ele>
        <time>2021-07-18T09:52:42Z</time>
      </trkpt>
      <trkpt lat="43.3942140" lon="-4.6289690">
        <ele>-1.6</ele>
        <time>2021-07-18T09:52:43Z</time>
      </trkpt>
      <trkpt lat="43.3942310" lon="-4.6290180">
        <ele>-2.0</ele>
        <time>2021-07-18T09:52:44Z</time>
      </trkpt>
      <trkpt lat="43.3942720" lon="-4.6291300">
        <ele>-2.0</ele>
        <time>2021-07-18T09:52:46Z</time>
      </trkpt>
      <trkpt lat="43.3943740" lon="-4.6295230">
        <ele>-2.0</ele>
        <time>2021-07-18T09:52:52Z</time>
      </trkpt>
      <trkpt lat="43.3944220" lon="-4.6297550">
        <ele>-2.4</ele>
        <time>2021-07-18T09:52:55Z</time>
      </trkpt>
      <trkpt lat="43.3944470" lon="-4.6298310">
        <ele>-2.8</ele>
        <time>2021-07-18T09:52:56Z</time>
      </trkpt>
      <trkpt lat="43.3944740" lon="-4.6299050">
        <ele>-3.2</ele>
        <time>2021-07-18T09:52:57Z</time>
      </trkpt>
      <trkpt lat="43.3945010" lon="-4.6299820">
        <ele>-3.6</ele>
        <time>2021-07-18T09:52:58Z</time>
      </trkpt>
      <trkpt lat="43.3945280" lon="-4.6300600">
        <ele>-4.2</ele>
        <time>2021-07-18T09:52:59Z</time>
      </trkpt>
      <trkpt lat="43.3945500" lon="-4.6301390">
        <ele>-4.2</ele>
        <time>2021-07-18T09:53:00Z</time>
      </trkpt>
      <trkpt lat="43.3946060" lon="-4.6303700">
        <ele>-4.2</ele>
        <time>2021-07-18T09:53:03Z</time>
      </trkpt>
      <trkpt lat="43.3946870" lon="-4.6306690">
        <ele>-4.2</ele>
        <time>2021-07-18T09:53:07Z</time>
      </trkpt>
      <trkpt lat="43.3947470" lon="-4.6308670">
        <ele>-4.2</ele>
        <time>2021-07-18T09:53:10Z</time>
      </trkpt>
      <trkpt lat="43.3947690" lon="-4.6309240">
        <ele>-4.2</ele>
        <time>2021-07-18T09:53:11Z</time>
      </trkpt>
      <trkpt lat="43.3948510" lon="-4.6311200">
        <ele>-4.2</ele>
        <time>2021-07-18T09:53:15Z</time>
      </trkpt>
      <trkpt lat="43.3948710" lon="-4.6311690">
        <ele>-4.2</ele>
        <time>2021-07-18T09:53:16Z</time>
      </trkpt>
      <trkpt lat="43.3948920" lon="-4.6312210">
        <ele>-4.2</ele>
        <time>2021-07-18T09:53:17Z</time>
      </trkpt>
      <trkpt lat="43.3949330" lon="-4.6313170">
        <ele>-4.2</ele>
        <time>2021-07-18T09:53:19Z</time>
      </trkpt>
      <trkpt lat="43.3950110" lon="-4.6315760">
        <ele>-4.2</ele>
        <time>2021-07-18T09:53:24Z</time>
      </trkpt>
      <trkpt lat="43.3950620" lon="-4.6318880">
        <ele>-4.2</ele>
        <time>2021-07-18T09:53:30Z</time>
      </trkpt>
      <trkpt lat="43.3950790" lon="-4.6319880">
        <ele>-4.2</ele>
        <time>2021-07-18T09:53:32Z</time>
      </trkpt>
      <trkpt lat="43.3950980" lon="-4.6320790">
        <ele>-4.2</ele>
        <time>2021-07-18T09:53:34Z</time>
      </trkpt>
      <trkpt lat="43.3951120" lon="-4.6321690">
        <ele>-4.2</ele>
        <time>2021-07-18T09:53:36Z</time>
      </trkpt>
      <trkpt lat="43.3951220" lon="-4.6322570">
        <ele>-4.2</ele>
        <time>2021-07-18T09:53:38Z</time>
      </trkpt>
      <trkpt lat="43.3951220" lon="-4.6322940">
        <ele>-4.2</ele>
        <time>2021-07-18T09:53:39Z</time>
      </trkpt>
      <trkpt lat="43.3951250" lon="-4.6324180">
        <ele>-4.2</ele>
        <time>2021-07-18T09:53:42Z</time>
      </trkpt>
      <trkpt lat="43.3951200" lon="-4.6325460">
        <ele>-4.2</ele>
        <time>2021-07-18T09:53:45Z</time>
      </trkpt>
      <trkpt lat="43.3951180" lon="-4.6325910">
        <ele>-4.2</ele>
        <time>2021-07-18T09:53:46Z</time>
      </trkpt>
      <trkpt lat="43.3951160" lon="-4.6326370">
        <ele>-3.6</ele>
        <time>2021-07-18T09:53:47Z</time>
      </trkpt>
      <trkpt lat="43.3951160" lon="-4.6326830">
        <ele>-3.2</ele>
        <time>2021-07-18T09:53:48Z</time>
      </trkpt>
      <trkpt lat="43.3951160" lon="-4.6327330">
        <ele>-2.8</ele>
        <time>2021-07-18T09:53:49Z</time>
      </trkpt>
      <trkpt lat="43.3951150" lon="-4.6327860">
        <ele>-2.4</ele>
        <time>2021-07-18T09:53:50Z</time>
      </trkpt>
      <trkpt lat="43.3951150" lon="-4.6328410">
        <ele>-2.0</ele>
        <time>2021-07-18T09:53:51Z</time>
      </trkpt>
      <trkpt lat="43.3951200" lon="-4.6329420">
        <ele>-2.0</ele>
        <time>2021-07-18T09:53:53Z</time>
      </trkpt>
      <trkpt lat="43.3951130" lon="-4.6332850">
        <ele>-2.0</ele>
        <time>2021-07-18T09:54:00Z</time>
      </trkpt>
      <trkpt lat="43.3950870" lon="-4.6336230">
        <ele>-2.0</ele>
        <time>2021-07-18T09:54:07Z</time>
      </trkpt>
      <trkpt lat="43.3950670" lon="-4.6339880">
        <ele>-2.0</ele>
        <time>2021-07-18T09:54:15Z</time>
      </trkpt>
      <trkpt lat="43.3950580" lon="-4.6341900">
        <ele>-1.6</ele>
        <time>2021-07-18T09:54:21Z</time>
      </trkpt>
      <trkpt lat="43.3950550" lon="-4.6342180">
        <ele>-1.2</ele>
        <time>2021-07-18T09:54:22Z</time>
      </trkpt>
      <trkpt lat="43.3950530" lon="-4.6342450">
        <ele>-0.4</ele>
        <time>2021-07-18T09:54:23Z</time>
      </trkpt>
      <trkpt lat="43.3950510" lon="-4.6342730">
        <ele>0.0</ele>
        <time>2021-07-18T09:54:24Z</time>
      </trkpt>
      <trkpt lat="43.3950450" lon="-4.6343680">
        <ele>0.4</ele>
        <time>2021-07-18T09:54:28Z</time>
      </trkpt>
      <trkpt lat="43.3950440" lon="-4.6343940">
        <ele>0.8</ele>
        <time>2021-07-18T09:54:29Z</time>
      </trkpt>
      <trkpt lat="43.3950420" lon="-4.6344170">
        <ele>1.2</ele>
        <time>2021-07-18T09:54:30Z</time>
      </trkpt>
      <trkpt lat="43.3950390" lon="-4.6344370">
        <ele>1.6</ele>
        <time>2021-07-18T09:54:31Z</time>
      </trkpt>
      <trkpt lat="43.3950390" lon="-4.6344570">
        <ele>2.0</ele>
        <time>2021-07-18T09:54:32Z</time>
      </trkpt>
      <trkpt lat="43.3950360" lon="-4.6345420">
        <ele>2.4</ele>
        <time>2021-07-18T09:54:36Z</time>
      </trkpt>
      <trkpt lat="43.3950410" lon="-4.6345620">
        <ele>3.0</ele>
        <time>2021-07-18T09:54:37Z</time>
      </trkpt>
      <trkpt lat="43.3950490" lon="-4.6345780">
        <ele>3.4</ele>
        <time>2021-07-18T09:54:38Z</time>
      </trkpt>
      <trkpt lat="43.3950560" lon="-4.6345910">
        <ele>3.8</ele>
        <time>2021-07-18T09:54:39Z</time>
      </trkpt>
      <trkpt lat="43.3950680" lon="-4.6346070">
        <ele>4.2</ele>
        <time>2021-07-18T09:54:40Z</time>
      </trkpt>
      <trkpt lat="43.3950980" lon="-4.6346350">
        <ele>4.2</ele>
        <time>2021-07-18T09:54:42Z</time>
      </trkpt>
      <trkpt lat="43.3951150" lon="-4.6346390">
        <ele>4.2</ele>
        <time>2021-07-18T09:54:43Z</time>
      </trkpt>
      <trkpt lat="43.3952070" lon="-4.6346320">
        <ele>4.6</ele>
        <time>2021-07-18T09:54:48Z</time>
      </trkpt>
      <trkpt lat="43.3952270" lon="-4.6346310">
        <ele>5.0</ele>
        <time>2021-07-18T09:54:49Z</time>
      </trkpt>
      <trkpt lat="43.3952460" lon="-4.6346360">
        <ele>5.4</ele>
        <time>2021-07-18T09:54:50Z</time>
      </trkpt>
      <trkpt lat="43.3952650" lon="-4.6346460">
        <ele>5.8</ele>
        <time>2021-07-18T09:54:51Z</time>
      </trkpt>
      <trkpt lat="43.3952830" lon="-4.6346580">
        <ele>6.2</ele>
        <time>2021-07-18T09:54:52Z</time>
      </trkpt>
      <trkpt lat="43.3952980" lon="-4.6346780">
        <ele>6.2</ele>
        <time>2021-07-18T09:54:53Z</time>
      </trkpt>
      <trkpt lat="43.3953320" lon="-4.6347460">
        <ele>6.2</ele>
        <time>2021-07-18T09:54:56Z</time>
      </trkpt>
      <trkpt lat="43.3953880" lon="-4.6348740">
        <ele>6.2</ele>
        <time>2021-07-18T09:55:01Z</time>
      </trkpt>
      <trkpt lat="43.3954390" lon="-4.6349790">
        <ele>6.2</ele>
        <time>2021-07-18T09:55:06Z</time>
      </trkpt>
      <trkpt lat="43.3954910" lon="-4.6350080">
        <ele>6.2</ele>
        <time>2021-07-18T09:55:10Z</time>
      </trkpt>
      <trkpt lat="43.3955110" lon="-4.6350020">
        <ele>6.6</ele>
        <time>2021-07-18T09:55:11Z</time>
      </trkpt>
      <trkpt lat="43.3955330" lon="-4.6349970">
        <ele>7.6</ele>
        <time>2021-07-18T09:55:12Z</time>
      </trkpt>
      <trkpt lat="43.3955550" lon="-4.6349950">
        <ele>8.0</ele>
        <time>2021-07-18T09:55:13Z</time>
      </trkpt>
      <trkpt lat="43.3955790" lon="-4.6349940">
        <ele>8.6</ele>
        <time>2021-07-18T09:55:14Z</time>
      </trkpt>
      <trkpt lat="43.3956000" lon="-4.6349890">
        <ele>8.6</ele>
        <time>2021-07-18T09:55:15Z</time>
      </trkpt>
      <trkpt lat="43.3957560" lon="-4.6349970">
        <ele>8.6</ele>
        <time>2021-07-18T09:55:22Z</time>
      </trkpt>
      <trkpt lat="43.3959020" lon="-4.6350380">
        <ele>8.6</ele>
        <time>2021-07-18T09:55:29Z</time>
      </trkpt>
      <trkpt lat="43.3959580" lon="-4.6350850">
        <ele>9.0</ele>
        <time>2021-07-18T09:55:32Z</time>
      </trkpt>
      <trkpt lat="43.3959740" lon="-4.6351020">
        <ele>9.4</ele>
        <time>2021-07-18T09:55:33Z</time>
      </trkpt>
      <trkpt lat="43.3959870" lon="-4.6351190">
        <ele>9.8</ele>
        <time>2021-07-18T09:55:34Z</time>
      </trkpt>
      <trkpt lat="43.3960020" lon="-4.6351340">
        <ele>10.2</ele>
        <time>2021-07-18T09:55:35Z</time>
      </trkpt>
      <trkpt lat="43.3960190" lon="-4.6351510">
        <ele>10.6</ele>
        <time>2021-07-18T09:55:36Z</time>
      </trkpt>
      <trkpt lat="43.3960370" lon="-4.6351710">
        <ele>10.6</ele>
        <time>2021-07-18T09:55:37Z</time>
      </trkpt>
      <trkpt lat="43.3961760" lon="-4.6353520">
        <ele>10.6</ele>
        <time>2021-07-18T09:55:46Z</time>
      </trkpt>
      <trkpt lat="43.3962290" lon="-4.6354400">
        <ele>11.0</ele>
        <time>2021-07-18T09:55:50Z</time>
      </trkpt>
      <trkpt lat="43.3962420" lon="-4.6354630">
        <ele>11.4</ele>
        <time>2021-07-18T09:55:51Z</time>
      </trkpt>
      <trkpt lat="43.3962560" lon="-4.6354910">
        <ele>11.8</ele>
        <time>2021-07-18T09:55:52Z</time>
      </trkpt>
      <trkpt lat="43.3962710" lon="-4.6355160">
        <ele>12.2</ele>
        <time>2021-07-18T09:55:53Z</time>
      </trkpt>
      <trkpt lat="43.3962840" lon="-4.6355430">
        <ele>12.6</ele>
        <time>2021-07-18T09:55:54Z</time>
      </trkpt>
      <trkpt lat="43.3963560" lon="-4.6356980">
        <ele>12.6</ele>
        <time>2021-07-18T09:56:00Z</time>
      </trkpt>
      <trkpt lat="43.3964780" lon="-4.6359950">
        <ele>12.6</ele>
        <time>2021-07-18T09:56:10Z</time>
      </trkpt>
      <trkpt lat="43.3965570" lon="-4.6361700">
        <ele>13.2</ele>
        <time>2021-07-18T09:56:16Z</time>
      </trkpt>
      <trkpt lat="43.3965710" lon="-4.6361980">
        <ele>13.6</ele>
        <time>2021-07-18T09:56:17Z</time>
      </trkpt>
      <trkpt lat="43.3965830" lon="-4.6362250">
        <ele>14.0</ele>
        <time>2021-07-18T09:56:18Z</time>
      </trkpt>
      <trkpt lat="43.3965920" lon="-4.6362500">
        <ele>14.4</ele>
        <time>2021-07-18T09:56:19Z</time>
      </trkpt>
      <trkpt lat="43.3966040" lon="-4.6362750">
        <ele>14.8</ele>
        <time>2021-07-18T09:56:20Z</time>
      </trkpt>
      <trkpt lat="43.3966620" lon="-4.6364550">
        <ele>14.8</ele>
        <time>2021-07-18T09:56:27Z</time>
      </trkpt>
      <trkpt lat="43.3967350" lon="-4.6366700">
        <ele>14.8</ele>
        <time>2021-07-18T09:56:35Z</time>
      </trkpt>
      <trkpt lat="43.3967410" lon="-4.6367050">
        <ele>15.2</ele>
        <time>2021-07-18T09:56:36Z</time>
      </trkpt>
      <trkpt lat="43.3967460" lon="-4.6367430">
        <ele>15.6</ele>
        <time>2021-07-18T09:56:37Z</time>
      </trkpt>
      <trkpt lat="43.3967560" lon="-4.6367800">
        <ele>16.0</ele>
        <time>2021-07-18T09:56:38Z</time>
      </trkpt>
      <trkpt lat="43.3967630" lon="-4.6368160">
        <ele>16.4</ele>
        <time>2021-07-18T09:56:39Z</time>
      </trkpt>
      <trkpt lat="43.3967670" lon="-4.6368520">
        <ele>16.8</ele>
        <time>2021-07-18T09:56:40Z</time>
      </trkpt>
      <trkpt lat="43.3967710" lon="-4.6368880">
        <ele>16.8</ele>
        <time>2021-07-18T09:56:41Z</time>
      </trkpt>
      <trkpt lat="43.3967740" lon="-4.6371510">
        <ele>16.8</ele>
        <time>2021-07-18T09:56:48Z</time>
      </trkpt>
      <trkpt lat="43.3967740" lon="-4.6371870">
        <ele>16.8</ele>
        <time>2021-07-18T09:56:49Z</time>
      </trkpt>
      <trkpt lat="43.3967700" lon="-4.6373060">
        <ele>16.8</ele>
        <time>2021-07-18T09:56:52Z</time>
      </trkpt>
      <trkpt lat="43.3967540" lon="-4.6374490">
        <ele>16.8</ele>
        <time>2021-07-18T09:56:55Z</time>
      </trkpt>
      <trkpt lat="43.3967230" lon="-4.6376330">
        <ele>16.8</ele>
        <time>2021-07-18T09:56:58Z</time>
      </trkpt>
      <trkpt lat="43.3966990" lon="-4.6377700">
        <ele>16.8</ele>
        <time>2021-07-18T09:57:00Z</time>
      </trkpt>
      <trkpt lat="43.3966710" lon="-4.6379110">
        <ele>16.8</ele>
        <time>2021-07-18T09:57:02Z</time>
      </trkpt>
      <trkpt lat="43.3966380" lon="-4.6380320">
        <ele>16.8</ele>
        <time>2021-07-18T09:57:04Z</time>
      </trkpt>
      <trkpt lat="43.3966160" lon="-4.6380920">
        <ele>16.8</ele>
        <time>2021-07-18T09:57:05Z</time>
      </trkpt>
      <trkpt lat="43.3965960" lon="-4.6381510">
        <ele>16.8</ele>
        <time>2021-07-18T09:57:06Z</time>
      </trkpt>
      <trkpt lat="43.3965140" lon="-4.6383850">
        <ele>16.8</ele>
        <time>2021-07-18T09:57:11Z</time>
      </trkpt>
      <trkpt lat="43.3964590" lon="-4.6385650">
        <ele>16.8</ele>
        <time>2021-07-18T09:57:16Z</time>
      </trkpt>
      <trkpt lat="43.3964290" lon="-4.6386400">
        <ele>16.8</ele>
        <time>2021-07-18T09:57:18Z</time>
      </trkpt>
      <trkpt lat="43.3963440" lon="-4.6388880">
        <ele>16.8</ele>
        <time>2021-07-18T09:57:25Z</time>
      </trkpt>
      <trkpt lat="43.3963080" lon="-4.6390000">
        <ele>16.8</ele>
        <time>2021-07-18T09:57:28Z</time>
      </trkpt>
      <trkpt lat="43.3962720" lon="-4.6391120">
        <ele>16.8</ele>
        <time>2021-07-18T09:57:31Z</time>
      </trkpt>
      <trkpt lat="43.3962170" lon="-4.6392570">
        <ele>16.8</ele>
        <time>2021-07-18T09:57:35Z</time>
      </trkpt>
      <trkpt lat="43.3961760" lon="-4.6393660">
        <ele>16.8</ele>
        <time>2021-07-18T09:57:38Z</time>
      </trkpt>
      <trkpt lat="43.3961450" lon="-4.6394460">
        <ele>16.8</ele>
        <time>2021-07-18T09:57:40Z</time>
      </trkpt>
      <trkpt lat="43.3960400" lon="-4.6397150">
        <ele>16.8</ele>
        <time>2021-07-18T09:57:46Z</time>
      </trkpt>
      <trkpt lat="43.3958810" lon="-4.6400470">
        <ele>16.8</ele>
        <time>2021-07-18T09:57:53Z</time>
      </trkpt>
      <trkpt lat="43.3957300" lon="-4.6402610">
        <ele>16.8</ele>
        <time>2021-07-18T09:57:58Z</time>
      </trkpt>
      <trkpt lat="43.3956700" lon="-4.6403440">
        <ele>16.8</ele>
        <time>2021-07-18T09:58:00Z</time>
      </trkpt>
      <trkpt lat="43.3956080" lon="-4.6404220">
        <ele>16.8</ele>
        <time>2021-07-18T09:58:02Z</time>
      </trkpt>
      <trkpt lat="43.3954830" lon="-4.6405510">
        <ele>16.8</ele>
        <time>2021-07-18T09:58:06Z</time>
      </trkpt>
      <trkpt lat="43.3954570" lon="-4.6405820">
        <ele>16.8</ele>
        <time>2021-07-18T09:58:07Z</time>
      </trkpt>
      <trkpt lat="43.3952730" lon="-4.6407560">
        <ele>17.2</ele>
        <time>2021-07-18T09:58:13Z</time>
      </trkpt>
      <trkpt lat="43.3952420" lon="-4.6407820">
        <ele>17.6</ele>
        <time>2021-07-18T09:58:14Z</time>
      </trkpt>
      <trkpt lat="43.3952140" lon="-4.6408100">
        <ele>18.2</ele>
        <time>2021-07-18T09:58:15Z</time>
      </trkpt>
      <trkpt lat="43.3951890" lon="-4.6408380">
        <ele>18.6</ele>
        <time>2021-07-18T09:58:16Z</time>
      </trkpt>
      <trkpt lat="43.3951610" lon="-4.6408650">
        <ele>19.0</ele>
        <time>2021-07-18T09:58:17Z</time>
      </trkpt>
      <trkpt lat="43.3950390" lon="-4.6409880">
        <ele>19.0</ele>
        <time>2021-07-18T09:58:22Z</time>
      </trkpt>
      <trkpt lat="43.3948700" lon="-4.6411480">
        <ele>19.0</ele>
        <time>2021-07-18T09:58:29Z</time>
      </trkpt>
      <trkpt lat="43.3948440" lon="-4.6411680">
        <ele>19.4</ele>
        <time>2021-07-18T09:58:30Z</time>
      </trkpt>
      <trkpt lat="43.3948200" lon="-4.6411900">
        <ele>19.8</ele>
        <time>2021-07-18T09:58:31Z</time>
      </trkpt>
      <trkpt lat="43.3948000" lon="-4.6412140">
        <ele>20.2</ele>
        <time>2021-07-18T09:58:32Z</time>
      </trkpt>
      <trkpt lat="43.3947800" lon="-4.6412340">
        <ele>20.6</ele>
        <time>2021-07-18T09:58:33Z</time>
      </trkpt>
      <trkpt lat="43.3947570" lon="-4.6412530">
        <ele>21.0</ele>
        <time>2021-07-18T09:58:34Z</time>
      </trkpt>
      <trkpt lat="43.3947110" lon="-4.6412970">
        <ele>21.0</ele>
        <time>2021-07-18T09:58:36Z</time>
      </trkpt>
      <trkpt lat="43.3945950" lon="-4.6413960">
        <ele>21.0</ele>
        <time>2021-07-18T09:58:41Z</time>
      </trkpt>
      <trkpt lat="43.3945280" lon="-4.6414550">
        <ele>21.0</ele>
        <time>2021-07-18T09:58:44Z</time>
      </trkpt>
      <trkpt lat="43.3945070" lon="-4.6414770">
        <ele>21.4</ele>
        <time>2021-07-18T09:58:45Z</time>
      </trkpt>
      <trkpt lat="43.3944850" lon="-4.6415030">
        <ele>21.8</ele>
        <time>2021-07-18T09:58:46Z</time>
      </trkpt>
      <trkpt lat="43.3944640" lon="-4.6415300">
        <ele>22.2</ele>
        <time>2021-07-18T09:58:47Z</time>
      </trkpt>
      <trkpt lat="43.3944410" lon="-4.6415550">
        <ele>22.8</ele>
        <time>2021-07-18T09:58:48Z</time>
      </trkpt>
      <trkpt lat="43.3944210" lon="-4.6415810">
        <ele>23.2</ele>
        <time>2021-07-18T09:58:49Z</time>
      </trkpt>
      <trkpt lat="43.3943810" lon="-4.6416330">
        <ele>23.2</ele>
        <time>2021-07-18T09:58:51Z</time>
      </trkpt>
      <trkpt lat="43.3942710" lon="-4.6418620">
        <ele>23.6</ele>
        <time>2021-07-18T09:58:59Z</time>
      </trkpt>
      <trkpt lat="43.3942570" lon="-4.6418920">
        <ele>24.0</ele>
        <time>2021-07-18T09:59:00Z</time>
      </trkpt>
      <trkpt lat="43.3942440" lon="-4.6419210">
        <ele>24.4</ele>
        <time>2021-07-18T09:59:01Z</time>
      </trkpt>
      <trkpt lat="43.3942310" lon="-4.6419520">
        <ele>24.8</ele>
        <time>2021-07-18T09:59:02Z</time>
      </trkpt>
      <trkpt lat="43.3942220" lon="-4.6419800">
        <ele>25.2</ele>
        <time>2021-07-18T09:59:03Z</time>
      </trkpt>
      <trkpt lat="43.3941960" lon="-4.6421040">
        <ele>25.2</ele>
        <time>2021-07-18T09:59:07Z</time>
      </trkpt>
      <trkpt lat="43.3941800" lon="-4.6421690">
        <ele>25.6</ele>
        <time>2021-07-18T09:59:09Z</time>
      </trkpt>
      <trkpt lat="43.3941760" lon="-4.6422030">
        <ele>26.0</ele>
        <time>2021-07-18T09:59:10Z</time>
      </trkpt>
      <trkpt lat="43.3941700" lon="-4.6422340">
        <ele>26.4</ele>
        <time>2021-07-18T09:59:11Z</time>
      </trkpt>
      <trkpt lat="43.3941660" lon="-4.6422630">
        <ele>26.8</ele>
        <time>2021-07-18T09:59:12Z</time>
      </trkpt>
      <trkpt lat="43.3941600" lon="-4.6422910">
        <ele>27.2</ele>
        <time>2021-07-18T09:59:13Z</time>
      </trkpt>
      <trkpt lat="43.3941520" lon="-4.6423210">
        <ele>27.2</ele>
        <time>2021-07-18T09:59:14Z</time>
      </trkpt>
      <trkpt lat="43.3941060" lon="-4.6424910">
        <ele>27.6</ele>
        <time>2021-07-18T09:59:20Z</time>
      </trkpt>
      <trkpt lat="43.3940990" lon="-4.6425220">
        <ele>28.0</ele>
        <time>2021-07-18T09:59:21Z</time>
      </trkpt>
      <trkpt lat="43.3940910" lon="-4.6425500">
        <ele>28.4</ele>
        <time>2021-07-18T09:59:22Z</time>
      </trkpt>
      <trkpt lat="43.3940830" lon="-4.6425800">
        <ele>28.8</ele>
        <time>2021-07-18T09:59:23Z</time>
      </trkpt>
      <trkpt lat="43.3940760" lon="-4.6426100">
        <ele>29.2</ele>
        <time>2021-07-18T09:59:24Z</time>
      </trkpt>
      <trkpt lat="43.3940330" lon="-4.6427760">
        <ele>29.6</ele>
        <time>2021-07-18T09:59:30Z</time>
      </trkpt>
      <trkpt lat="43.3940280" lon="-4.6428040">
        <ele>30.0</ele>
        <time>2021-07-18T09:59:31Z</time>
      </trkpt>
      <trkpt lat="43.3940220" lon="-4.6428320">
        <ele>30.4</ele>
        <time>2021-07-18T09:59:32Z</time>
      </trkpt>
      <trkpt lat="43.3940160" lon="-4.6428590">
        <ele>30.8</ele>
        <time>2021-07-18T09:59:33Z</time>
      </trkpt>
      <trkpt lat="43.3940090" lon="-4.6428860">
        <ele>31.4</ele>
        <time>2021-07-18T09:59:34Z</time>
      </trkpt>
      <trkpt lat="43.3939580" lon="-4.6430520">
        <ele>31.4</ele>
        <time>2021-07-18T09:59:40Z</time>
      </trkpt>
      <trkpt lat="43.3939330" lon="-4.6432080">
        <ele>31.4</ele>
        <time>2021-07-18T09:59:46Z</time>
      </trkpt>
      <trkpt lat="43.3939520" lon="-4.6434570">
        <ele>31.4</ele>
        <time>2021-07-18T09:59:52Z</time>
      </trkpt>
      <trkpt lat="43.3939730" lon="-4.6438320">
        <ele>31.4</ele>
        <time>2021-07-18T09:59:59Z</time>
      </trkpt>
      <trkpt lat="43.3939770" lon="-4.6439670">
        <ele>31.4</ele>
        <time>2021-07-18T10:00:01Z</time>
      </trkpt>
      <trkpt lat="43.3939820" lon="-4.6440360">
        <ele>31.4</ele>
        <time>2021-07-18T10:00:02Z</time>
      </trkpt>
      <trkpt lat="43.3939940" lon="-4.6441710">
        <ele>31.4</ele>
        <time>2021-07-18T10:00:04Z</time>
      </trkpt>
      <trkpt lat="43.3940140" lon="-4.6443650">
        <ele>31.4</ele>
        <time>2021-07-18T10:00:07Z</time>
      </trkpt>
      <trkpt lat="43.3940250" lon="-4.6445000">
        <ele>31.4</ele>
        <time>2021-07-18T10:00:09Z</time>
      </trkpt>
      <trkpt lat="43.3940410" lon="-4.6446440">
        <ele>31.4</ele>
        <time>2021-07-18T10:00:12Z</time>
      </trkpt>
      <trkpt lat="43.3940610" lon="-4.6447850">
        <ele>31.4</ele>
        <time>2021-07-18T10:00:14Z</time>
      </trkpt>
      <trkpt lat="43.3940710" lon="-4.6448540">
        <ele>31.4</ele>
        <time>2021-07-18T10:00:15Z</time>
      </trkpt>
      <trkpt lat="43.3940910" lon="-4.6449990">
        <ele>31.4</ele>
        <time>2021-07-18T10:00:17Z</time>
      </trkpt>
      <trkpt lat="43.3941170" lon="-4.6451440">
        <ele>31.4</ele>
        <time>2021-07-18T10:00:19Z</time>
      </trkpt>
      <trkpt lat="43.3941470" lon="-4.6453100">
        <ele>31.4</ele>
        <time>2021-07-18T10:00:21Z</time>
      </trkpt>
      <trkpt lat="43.3941620" lon="-4.6453970">
        <ele>31.4</ele>
        <time>2021-07-18T10:00:22Z</time>
      </trkpt>
      <trkpt lat="43.3942080" lon="-4.6456740">
        <ele>31.4</ele>
        <time>2021-07-18T10:00:25Z</time>
      </trkpt>
      <trkpt lat="43.3942690" lon="-4.6459760">
        <ele>31.4</ele>
        <time>2021-07-18T10:00:28Z</time>
      </trkpt>
      <trkpt lat="43.3942890" lon="-4.6460780">
        <ele>31.4</ele>
        <time>2021-07-18T10:00:29Z</time>
      </trkpt>
      <trkpt lat="43.3943460" lon="-4.6463980">
        <ele>30.8</ele>
        <time>2021-07-18T10:00:32Z</time>
      </trkpt>
      <trkpt lat="43.3943680" lon="-4.6465110">
        <ele>29.6</ele>
        <time>2021-07-18T10:00:33Z</time>
      </trkpt>
      <trkpt lat="43.3943900" lon="-4.6466260">
        <ele>29.2</ele>
        <time>2021-07-18T10:00:34Z</time>
      </trkpt>
      <trkpt lat="43.3944160" lon="-4.6467410">
        <ele>28.6</ele>
        <time>2021-07-18T10:00:35Z</time>
      </trkpt>
      <trkpt lat="43.3944410" lon="-4.6468550">
        <ele>28.2</ele>
        <time>2021-07-18T10:00:36Z</time>
      </trkpt>
      <trkpt lat="43.3944670" lon="-4.6469730">
        <ele>27.8</ele>
        <time>2021-07-18T10:00:37Z</time>
      </trkpt>
      <trkpt lat="43.3944940" lon="-4.6470900">
        <ele>27.4</ele>
        <time>2021-07-18T10:00:38Z</time>
      </trkpt>
      <trkpt lat="43.3945230" lon="-4.6472110">
        <ele>27.0</ele>
        <time>2021-07-18T10:00:39Z</time>
      </trkpt>
      <trkpt lat="43.3945550" lon="-4.6473320">
        <ele>26.6</ele>
        <time>2021-07-18T10:00:40Z</time>
      </trkpt>
      <trkpt lat="43.3945870" lon="-4.6474660">
        <ele>26.0</ele>
        <time>2021-07-18T10:00:41Z</time>
      </trkpt>
      <trkpt lat="43.3946190" lon="-4.6475940">
        <ele>25.6</ele>
        <time>2021-07-18T10:00:42Z</time>
      </trkpt>
      <trkpt lat="43.3946500" lon="-4.6477240">
        <ele>25.2</ele>
        <time>2021-07-18T10:00:43Z</time>
      </trkpt>
      <trkpt lat="43.3946850" lon="-4.6478560">
        <ele>24.6</ele>
        <time>2021-07-18T10:00:44Z</time>
      </trkpt>
      <trkpt lat="43.3947210" lon="-4.6479870">
        <ele>24.2</ele>
        <time>2021-07-18T10:00:45Z</time>
      </trkpt>
      <trkpt lat="43.3947590" lon="-4.6481190">
        <ele>23.8</ele>
        <time>2021-07-18T10:00:46Z</time>
      </trkpt>
      <trkpt lat="43.3947970" lon="-4.6482510">
        <ele>23.4</ele>
        <time>2021-07-18T10:00:47Z</time>
      </trkpt>
      <trkpt lat="43.3948370" lon="-4.6483900">
        <ele>23.0</ele>
        <time>2021-07-18T10:00:48Z</time>
      </trkpt>
      <trkpt lat="43.3948760" lon="-4.6485220">
        <ele>22.4</ele>
        <time>2021-07-18T10:00:49Z</time>
      </trkpt>
      <trkpt lat="43.3949150" lon="-4.6486480">
        <ele>21.6</ele>
        <time>2021-07-18T10:00:50Z</time>
      </trkpt>
      <trkpt lat="43.3949570" lon="-4.6487730">
        <ele>21.0</ele>
        <time>2021-07-18T10:00:51Z</time>
      </trkpt>
      <trkpt lat="43.3949980" lon="-4.6488960">
        <ele>20.4</ele>
        <time>2021-07-18T10:00:52Z</time>
      </trkpt>
      <trkpt lat="43.3950370" lon="-4.6490160">
        <ele>19.8</ele>
        <time>2021-07-18T10:00:53Z</time>
      </trkpt>
      <trkpt lat="43.3950730" lon="-4.6491350">
        <ele>19.4</ele>
        <time>2021-07-18T10:00:54Z</time>
      </trkpt>
      <trkpt lat="43.3951150" lon="-4.6492570">
        <ele>19.0</ele>
        <time>2021-07-18T10:00:55Z</time>
      </trkpt>
      <trkpt lat="43.3951540" lon="-4.6493660">
        <ele>18.4</ele>
        <time>2021-07-18T10:00:56Z</time>
      </trkpt>
      <trkpt lat="43.3951920" lon="-4.6494700">
        <ele>18.0</ele>
        <time>2021-07-18T10:00:57Z</time>
      </trkpt>
      <trkpt lat="43.3952280" lon="-4.6495710">
        <ele>17.6</ele>
        <time>2021-07-18T10:00:58Z</time>
      </trkpt>
      <trkpt lat="43.3953650" lon="-4.6499180">
        <ele>17.6</ele>
        <time>2021-07-18T10:01:02Z</time>
      </trkpt>
      <trkpt lat="43.3954820" lon="-4.6501940">
        <ele>17.2</ele>
        <time>2021-07-18T10:01:06Z</time>
      </trkpt>
      <trkpt lat="43.3955080" lon="-4.6502540">
        <ele>16.8</ele>
        <time>2021-07-18T10:01:07Z</time>
      </trkpt>
      <trkpt lat="43.3955290" lon="-4.6503140">
        <ele>16.4</ele>
        <time>2021-07-18T10:01:08Z</time>
      </trkpt>
      <trkpt lat="43.3955510" lon="-4.6503720">
        <ele>16.0</ele>
        <time>2021-07-18T10:01:09Z</time>
      </trkpt>
      <trkpt lat="43.3955750" lon="-4.6504320">
        <ele>15.6</ele>
        <time>2021-07-18T10:01:10Z</time>
      </trkpt>
      <trkpt lat="43.3955970" lon="-4.6504870">
        <ele>15.6</ele>
        <time>2021-07-18T10:01:11Z</time>
      </trkpt>
      <trkpt lat="43.3956430" lon="-4.6506020">
        <ele>15.6</ele>
        <time>2021-07-18T10:01:13Z</time>
      </trkpt>
      <trkpt lat="43.3956690" lon="-4.6506560">
        <ele>15.6</ele>
        <time>2021-07-18T10:01:14Z</time>
      </trkpt>
      <trkpt lat="43.3957190" lon="-4.6507650">
        <ele>15.6</ele>
        <time>2021-07-18T10:01:16Z</time>
      </trkpt>
      <trkpt lat="43.3957690" lon="-4.6508780">
        <ele>15.6</ele>
        <time>2021-07-18T10:01:18Z</time>
      </trkpt>
      <trkpt lat="43.3958940" lon="-4.6511430">
        <ele>15.6</ele>
        <time>2021-07-18T10:01:23Z</time>
      </trkpt>
      <trkpt lat="43.3960500" lon="-4.6514390">
        <ele>15.6</ele>
        <time>2021-07-18T10:01:29Z</time>
      </trkpt>
      <trkpt lat="43.3961010" lon="-4.6515430">
        <ele>15.6</ele>
        <time>2021-07-18T10:01:31Z</time>
      </trkpt>
      <trkpt lat="43.3961900" lon="-4.6517140">
        <ele>15.6</ele>
        <time>2021-07-18T10:01:34Z</time>
      </trkpt>
      <trkpt lat="43.3962720" lon="-4.6519050">
        <ele>15.6</ele>
        <time>2021-07-18T10:01:37Z</time>
      </trkpt>
      <trkpt lat="43.3963190" lon="-4.6520430">
        <ele>15.6</ele>
        <time>2021-07-18T10:01:39Z</time>
      </trkpt>
      <trkpt lat="43.3963380" lon="-4.6521160">
        <ele>15.6</ele>
        <time>2021-07-18T10:01:40Z</time>
      </trkpt>
      <trkpt lat="43.3963770" lon="-4.6523140">
        <ele>15.6</ele>
        <time>2021-07-18T10:01:43Z</time>
      </trkpt>
      <trkpt lat="43.3963940" lon="-4.6523680">
        <ele>15.0</ele>
        <time>2021-07-18T10:01:44Z</time>
      </trkpt>
      <trkpt lat="43.3964110" lon="-4.6524220">
        <ele>14.6</ele>
        <time>2021-07-18T10:01:45Z</time>
      </trkpt>
      <trkpt lat="43.3964290" lon="-4.6524710">
        <ele>14.2</ele>
        <time>2021-07-18T10:01:46Z</time>
      </trkpt>
      <trkpt lat="43.3964500" lon="-4.6525190">
        <ele>13.4</ele>
        <time>2021-07-18T10:01:47Z</time>
      </trkpt>
      <trkpt lat="43.3964950" lon="-4.6526040">
        <ele>13.4</ele>
        <time>2021-07-18T10:01:49Z</time>
      </trkpt>
      <trkpt lat="43.3965240" lon="-4.6527840">
        <ele>13.4</ele>
        <time>2021-07-18T10:01:53Z</time>
      </trkpt>
      <trkpt lat="43.3964930" lon="-4.6528730">
        <ele>13.4</ele>
        <time>2021-07-18T10:01:55Z</time>
      </trkpt>
      <trkpt lat="43.3964360" lon="-4.6529370">
        <ele>13.4</ele>
        <time>2021-07-18T10:01:57Z</time>
      </trkpt>
      <trkpt lat="43.3963700" lon="-4.6529750">
        <ele>13.4</ele>
        <time>2021-07-18T10:01:59Z</time>
      </trkpt>
      <trkpt lat="43.3962560" lon="-4.6530700">
        <ele>13.4</ele>
        <time>2021-07-18T10:02:03Z</time>
      </trkpt>
      <trkpt lat="43.3962290" lon="-4.6531640">
        <ele>13.4</ele>
        <time>2021-07-18T10:02:05Z</time>
      </trkpt>
      <trkpt lat="43.3962140" lon="-4.6532810">
        <ele>13.4</ele>
        <time>2021-07-18T10:02:07Z</time>
      </trkpt>
      <trkpt lat="43.3961980" lon="-4.6534710">
        <ele>13.4</ele>
        <time>2021-07-18T10:02:10Z</time>
      </trkpt>
      <trkpt lat="43.3961810" lon="-4.6536550">
        <ele>13.4</ele>
        <time>2021-07-18T10:02:13Z</time>
      </trkpt>
      <trkpt lat="43.3961690" lon="-4.6537110">
        <ele>13.4</ele>
        <time>2021-07-18T10:02:14Z</time>
      </trkpt>
      <trkpt lat="43.3961430" lon="-4.6539790">
        <ele>13.4</ele>
        <time>2021-07-18T10:02:19Z</time>
      </trkpt>
      <trkpt lat="43.3961230" lon="-4.6541970">
        <ele>13.4</ele>
        <time>2021-07-18T10:02:23Z</time>
      </trkpt>
      <trkpt lat="43.3960970" lon="-4.6544940">
        <ele>13.4</ele>
        <time>2021-07-18T10:02:29Z</time>
      </trkpt>
      <trkpt lat="43.3960750" lon="-4.6546890">
        <ele>13.4</ele>
        <time>2021-07-18T10:02:34Z</time>
      </trkpt>
      <trkpt lat="43.3960610" lon="-4.6547580">
        <ele>13.4</ele>
        <time>2021-07-18T10:02:36Z</time>
      </trkpt>
      <trkpt lat="43.3960470" lon="-4.6549140">
        <ele>13.4</ele>
        <time>2021-07-18T10:02:40Z</time>
      </trkpt>
      <trkpt lat="43.3960420" lon="-4.6549920">
        <ele>13.4</ele>
        <time>2021-07-18T10:02:42Z</time>
      </trkpt>
      <trkpt lat="43.3960290" lon="-4.6550710">
        <ele>13.8</ele>
        <time>2021-07-18T10:02:44Z</time>
      </trkpt>
      <trkpt lat="43.3960230" lon="-4.6551090">
        <ele>14.2</ele>
        <time>2021-07-18T10:02:45Z</time>
      </trkpt>
      <trkpt lat="43.3960170" lon="-4.6551470">
        <ele>14.6</ele>
        <time>2021-07-18T10:02:46Z</time>
      </trkpt>
      <trkpt lat="43.3960100" lon="-4.6551860">
        <ele>15.0</ele>
        <time>2021-07-18T10:02:47Z</time>
      </trkpt>
      <trkpt lat="43.3960030" lon="-4.6552250">
        <ele>15.4</ele>
        <time>2021-07-18T10:02:48Z</time>
      </trkpt>
      <trkpt lat="43.3960000" lon="-4.6552650">
        <ele>15.4</ele>
        <time>2021-07-18T10:02:49Z</time>
      </trkpt>
      <trkpt lat="43.3959680" lon="-4.6554740">
        <ele>15.4</ele>
        <time>2021-07-18T10:02:55Z</time>
      </trkpt>
      <trkpt lat="43.3959530" lon="-4.6555370">
        <ele>15.8</ele>
        <time>2021-07-18T10:02:57Z</time>
      </trkpt>
      <trkpt lat="43.3959420" lon="-4.6555650">
        <ele>16.4</ele>
        <time>2021-07-18T10:02:58Z</time>
      </trkpt>
      <trkpt lat="43.3959340" lon="-4.6555970">
        <ele>16.8</ele>
        <time>2021-07-18T10:02:59Z</time>
      </trkpt>
      <trkpt lat="43.3959240" lon="-4.6556260">
        <ele>17.2</ele>
        <time>2021-07-18T10:03:00Z</time>
      </trkpt>
      <trkpt lat="43.3959170" lon="-4.6556580">
        <ele>17.6</ele>
        <time>2021-07-18T10:03:01Z</time>
      </trkpt>
      <trkpt lat="43.3958410" lon="-4.6558990">
        <ele>17.6</ele>
        <time>2021-07-18T10:03:09Z</time>
      </trkpt>
      <trkpt lat="43.3958340" lon="-4.6559650">
        <ele>18.0</ele>
        <time>2021-07-18T10:03:11Z</time>
      </trkpt>
      <trkpt lat="43.3958370" lon="-4.6560000">
        <ele>18.4</ele>
        <time>2021-07-18T10:03:12Z</time>
      </trkpt>
      <trkpt lat="43.3958390" lon="-4.6560350">
        <ele>18.8</ele>
        <time>2021-07-18T10:03:13Z</time>
      </trkpt>
      <trkpt lat="43.3958430" lon="-4.6560710">
        <ele>19.2</ele>
        <time>2021-07-18T10:03:14Z</time>
      </trkpt>
      <trkpt lat="43.3958510" lon="-4.6561070">
        <ele>19.6</ele>
        <time>2021-07-18T10:03:15Z</time>
      </trkpt>
      <trkpt lat="43.3958660" lon="-4.6563230">
        <ele>19.6</ele>
        <time>2021-07-18T10:03:21Z</time>
      </trkpt>
      <trkpt lat="43.3958030" lon="-4.6565200">
        <ele>19.6</ele>
        <time>2021-07-18T10:03:27Z</time>
      </trkpt>
      <trkpt lat="43.3956870" lon="-4.6567990">
        <ele>19.6</ele>
        <time>2021-07-18T10:03:35Z</time>
      </trkpt>
      <trkpt lat="43.3956740" lon="-4.6569270">
        <ele>20.0</ele>
        <time>2021-07-18T10:03:38Z</time>
      </trkpt>
      <trkpt lat="43.3956700" lon="-4.6569690">
        <ele>20.4</ele>
        <time>2021-07-18T10:03:39Z</time>
      </trkpt>
      <trkpt lat="43.3956680" lon="-4.6570110">
        <ele>20.8</ele>
        <time>2021-07-18T10:03:40Z</time>
      </trkpt>
      <trkpt lat="43.3956620" lon="-4.6570580">
        <ele>21.2</ele>
        <time>2021-07-18T10:03:41Z</time>
      </trkpt>
      <trkpt lat="43.3956650" lon="-4.6571010">
        <ele>21.6</ele>
        <time>2021-07-18T10:03:42Z</time>
      </trkpt>
      <trkpt lat="43.3956410" lon="-4.6573650">
        <ele>21.6</ele>
        <time>2021-07-18T10:03:48Z</time>
      </trkpt>
      <trkpt lat="43.3956370" lon="-4.6574100">
        <ele>21.6</ele>
        <time>2021-07-18T10:03:49Z</time>
      </trkpt>
      <trkpt lat="43.3956260" lon="-4.6576250">
        <ele>21.6</ele>
        <time>2021-07-18T10:03:54Z</time>
      </trkpt>
      <trkpt lat="43.3956220" lon="-4.6576720">
        <ele>21.6</ele>
        <time>2021-07-18T10:03:55Z</time>
      </trkpt>
      <trkpt lat="43.3956110" lon="-4.6577690">
        <ele>21.6</ele>
        <time>2021-07-18T10:03:57Z</time>
      </trkpt>
      <trkpt lat="43.3955860" lon="-4.6579490">
        <ele>21.6</ele>
        <time>2021-07-18T10:04:01Z</time>
      </trkpt>
      <trkpt lat="43.3955590" lon="-4.6581100">
        <ele>21.6</ele>
        <time>2021-07-18T10:04:05Z</time>
      </trkpt>
      <trkpt lat="43.3955150" lon="-4.6585080">
        <ele>21.6</ele>
        <time>2021-07-18T10:04:13Z</time>
      </trkpt>
      <trkpt lat="43.3955070" lon="-4.6588190">
        <ele>22.0</ele>
        <time>2021-07-18T10:04:19Z</time>
      </trkpt>
      <trkpt lat="43.3955050" lon="-4.6588720">
        <ele>22.4</ele>
        <time>2021-07-18T10:04:20Z</time>
      </trkpt>
      <trkpt lat="43.3955000" lon="-4.6589230">
        <ele>22.8</ele>
        <time>2021-07-18T10:04:21Z</time>
      </trkpt>
      <trkpt lat="43.3954960" lon="-4.6589730">
        <ele>23.2</ele>
        <time>2021-07-18T10:04:22Z</time>
      </trkpt>
      <trkpt lat="43.3954910" lon="-4.6590210">
        <ele>23.6</ele>
        <time>2021-07-18T10:04:23Z</time>
      </trkpt>
      <trkpt lat="43.3954720" lon="-4.6592730">
        <ele>23.6</ele>
        <time>2021-07-18T10:04:28Z</time>
      </trkpt>
      <trkpt lat="43.3954550" lon="-4.6596230">
        <ele>23.6</ele>
        <time>2021-07-18T10:04:35Z</time>
      </trkpt>
      <trkpt lat="43.3954470" lon="-4.6599980">
        <ele>23.6</ele>
        <time>2021-07-18T10:04:43Z</time>
      </trkpt>
      <trkpt lat="43.3954550" lon="-4.6603930">
        <ele>23.6</ele>
        <time>2021-07-18T10:04:51Z</time>
      </trkpt>
      <trkpt lat="43.3954600" lon="-4.6607560">
        <ele>23.6</ele>
        <time>2021-07-18T10:04:58Z</time>
      </trkpt>
      <trkpt lat="43.3954600" lon="-4.6608050">
        <ele>24.0</ele>
        <time>2021-07-18T10:04:59Z</time>
      </trkpt>
      <trkpt lat="43.3954600" lon="-4.6608580">
        <ele>24.4</ele>
        <time>2021-07-18T10:05:00Z</time>
      </trkpt>
      <trkpt lat="43.3954610" lon="-4.6609100">
        <ele>24.8</ele>
        <time>2021-07-18T10:05:01Z</time>
      </trkpt>
      <trkpt lat="43.3954620" lon="-4.6609620">
        <ele>25.2</ele>
        <time>2021-07-18T10:05:02Z</time>
      </trkpt>
      <trkpt lat="43.3954620" lon="-4.6610160">
        <ele>25.6</ele>
        <time>2021-07-18T10:05:03Z</time>
      </trkpt>
      <trkpt lat="43.3954630" lon="-4.6611640">
        <ele>25.6</ele>
        <time>2021-07-18T10:05:06Z</time>
      </trkpt>
      <trkpt lat="43.3954670" lon="-4.6612520">
        <ele>25.6</ele>
        <time>2021-07-18T10:05:08Z</time>
      </trkpt>
      <trkpt lat="43.3954750" lon="-4.6613540">
        <ele>25.6</ele>
        <time>2021-07-18T10:05:10Z</time>
      </trkpt>
      <trkpt lat="43.3954800" lon="-4.6617310">
        <ele>25.6</ele>
        <time>2021-07-18T10:05:17Z</time>
      </trkpt>
      <trkpt lat="43.3954910" lon="-4.6620890">
        <ele>25.6</ele>
        <time>2021-07-18T10:05:24Z</time>
      </trkpt>
      <trkpt lat="43.3954890" lon="-4.6623600">
        <ele>25.6</ele>
        <time>2021-07-18T10:05:29Z</time>
      </trkpt>
      <trkpt lat="43.3954890" lon="-4.6624630">
        <ele>25.6</ele>
        <time>2021-07-18T10:05:31Z</time>
      </trkpt>
      <trkpt lat="43.3954880" lon="-4.6629320">
        <ele>26.0</ele>
        <time>2021-07-18T10:05:40Z</time>
      </trkpt>
      <trkpt lat="43.3954920" lon="-4.6629870">
        <ele>26.4</ele>
        <time>2021-07-18T10:05:41Z</time>
      </trkpt>
      <trkpt lat="43.3954950" lon="-4.6630400">
        <ele>27.0</ele>
        <time>2021-07-18T10:05:42Z</time>
      </trkpt>
      <trkpt lat="43.3954970" lon="-4.6630930">
        <ele>27.4</ele>
        <time>2021-07-18T10:05:43Z</time>
      </trkpt>
      <trkpt lat="43.3954940" lon="-4.6631480">
        <ele>27.8</ele>
        <time>2021-07-18T10:05:44Z</time>
      </trkpt>
      <trkpt lat="43.3954970" lon="-4.6633500">
        <ele>27.8</ele>
        <time>2021-07-18T10:05:48Z</time>
      </trkpt>
      <trkpt lat="43.3954920" lon="-4.6637970">
        <ele>27.8</ele>
        <time>2021-07-18T10:05:57Z</time>
      </trkpt>
      <trkpt lat="43.3954990" lon="-4.6642620">
        <ele>27.8</ele>
        <time>2021-07-18T10:06:06Z</time>
      </trkpt>
      <trkpt lat="43.3955020" lon="-4.6643160">
        <ele>27.8</ele>
        <time>2021-07-18T10:06:07Z</time>
      </trkpt>
      <trkpt lat="43.3955200" lon="-4.6645180">
        <ele>27.8</ele>
        <time>2021-07-18T10:06:12Z</time>
      </trkpt>
      <trkpt lat="43.3955340" lon="-4.6646020">
        <ele>27.8</ele>
        <time>2021-07-18T10:06:16Z</time>
      </trkpt>
      <trkpt lat="43.3955330" lon="-4.6646030">
        <ele>27.8</ele>
        <time>2021-07-18T10:06:17Z</time>
      </trkpt>
      <trkpt lat="43.3955390" lon="-4.6646320">
        <ele>27.8</ele>
        <time>2021-07-18T10:06:32Z</time>
      </trkpt>
      <trkpt lat="43.3955420" lon="-4.6646600">
        <ele>27.8</ele>
        <time>2021-07-18T10:06:33Z</time>
      </trkpt>
      <trkpt lat="43.3955460" lon="-4.6647170">
        <ele>27.8</ele>
        <time>2021-07-18T10:06:35Z</time>
      </trkpt>
      <trkpt lat="43.3955600" lon="-4.6647780">
        <ele>27.8</ele>
        <time>2021-07-18T10:06:37Z</time>
      </trkpt>
      <trkpt lat="43.3956040" lon="-4.6649300">
        <ele>27.8</ele>
        <time>2021-07-18T10:06:41Z</time>
      </trkpt>
      <trkpt lat="43.3956300" lon="-4.6650260">
        <ele>27.8</ele>
        <time>2021-07-18T10:06:43Z</time>
      </trkpt>
      <trkpt lat="43.3956520" lon="-4.6651130">
        <ele>27.8</ele>
        <time>2021-07-18T10:06:45Z</time>
      </trkpt>
      <trkpt lat="43.3956910" lon="-4.6652480">
        <ele>27.8</ele>
        <time>2021-07-18T10:06:48Z</time>
      </trkpt>
      <trkpt lat="43.3957060" lon="-4.6652940">
        <ele>27.4</ele>
        <time>2021-07-18T10:06:49Z</time>
      </trkpt>
      <trkpt lat="43.3957240" lon="-4.6653390">
        <ele>27.0</ele>
        <time>2021-07-18T10:06:50Z</time>
      </trkpt>
      <trkpt lat="43.3957450" lon="-4.6653820">
        <ele>26.6</ele>
        <time>2021-07-18T10:06:51Z</time>
      </trkpt>
      <trkpt lat="43.3957640" lon="-4.6654250">
        <ele>26.2</ele>
        <time>2021-07-18T10:06:52Z</time>
      </trkpt>
      <trkpt lat="43.3957800" lon="-4.6654620">
        <ele>25.8</ele>
        <time>2021-07-18T10:06:53Z</time>
      </trkpt>
      <trkpt lat="43.3958040" lon="-4.6655260">
        <ele>25.8</ele>
        <time>2021-07-18T10:06:55Z</time>
      </trkpt>
      <trkpt lat="43.3958730" lon="-4.6657230">
        <ele>25.2</ele>
        <time>2021-07-18T10:07:00Z</time>
      </trkpt>
      <trkpt lat="43.3958840" lon="-4.6657500">
        <ele>24.8</ele>
        <time>2021-07-18T10:07:01Z</time>
      </trkpt>
      <trkpt lat="43.3958860" lon="-4.6657690">
        <ele>24.4</ele>
        <time>2021-07-18T10:07:02Z</time>
      </trkpt>
      <trkpt lat="43.3958840" lon="-4.6657750">
        <ele>24.0</ele>
        <time>2021-07-18T10:07:03Z</time>
      </trkpt>
      <trkpt lat="43.3958900" lon="-4.6658170">
        <ele>23.6</ele>
        <time>2021-07-18T10:10:56Z</time>
      </trkpt>
      <trkpt lat="43.3959360" lon="-4.6660280">
        <ele>23.6</ele>
        <time>2021-07-18T10:11:02Z</time>
      </trkpt>
      <trkpt lat="43.3960380" lon="-4.6663210">
        <ele>23.6</ele>
        <time>2021-07-18T10:11:07Z</time>
      </trkpt>
      <trkpt lat="43.3960570" lon="-4.6663810">
        <ele>23.2</ele>
        <time>2021-07-18T10:11:08Z</time>
      </trkpt>
      <trkpt lat="43.3960710" lon="-4.6664420">
        <ele>22.8</ele>
        <time>2021-07-18T10:11:09Z</time>
      </trkpt>
      <trkpt lat="43.3960900" lon="-4.6665110">
        <ele>22.4</ele>
        <time>2021-07-18T10:11:10Z</time>
      </trkpt>
      <trkpt lat="43.3961150" lon="-4.6665820">
        <ele>22.0</ele>
        <time>2021-07-18T10:11:11Z</time>
      </trkpt>
      <trkpt lat="43.3961370" lon="-4.6666620">
        <ele>21.6</ele>
        <time>2021-07-18T10:11:12Z</time>
      </trkpt>
      <trkpt lat="43.3961840" lon="-4.6668170">
        <ele>21.6</ele>
        <time>2021-07-18T10:11:14Z</time>
      </trkpt>
      <trkpt lat="43.3962470" lon="-4.6670450">
        <ele>21.2</ele>
        <time>2021-07-18T10:11:17Z</time>
      </trkpt>
      <trkpt lat="43.3962680" lon="-4.6671280">
        <ele>20.6</ele>
        <time>2021-07-18T10:11:18Z</time>
      </trkpt>
      <trkpt lat="43.3962880" lon="-4.6672160">
        <ele>20.2</ele>
        <time>2021-07-18T10:11:19Z</time>
      </trkpt>
      <trkpt lat="43.3963070" lon="-4.6673060">
        <ele>19.8</ele>
        <time>2021-07-18T10:11:20Z</time>
      </trkpt>
      <trkpt lat="43.3963240" lon="-4.6673980">
        <ele>19.2</ele>
        <time>2021-07-18T10:11:21Z</time>
      </trkpt>
      <trkpt lat="43.3963640" lon="-4.6676970">
        <ele>19.2</ele>
        <time>2021-07-18T10:11:24Z</time>
      </trkpt>
      <trkpt lat="43.3963890" lon="-4.6679130">
        <ele>18.8</ele>
        <time>2021-07-18T10:11:26Z</time>
      </trkpt>
      <trkpt lat="43.3963980" lon="-4.6680300">
        <ele>18.4</ele>
        <time>2021-07-18T10:11:27Z</time>
      </trkpt>
      <trkpt lat="43.3964060" lon="-4.6681400">
        <ele>18.0</ele>
        <time>2021-07-18T10:11:28Z</time>
      </trkpt>
      <trkpt lat="43.3964100" lon="-4.6682520">
        <ele>17.6</ele>
        <time>2021-07-18T10:11:29Z</time>
      </trkpt>
      <trkpt lat="43.3964140" lon="-4.6683660">
        <ele>17.2</ele>
        <time>2021-07-18T10:11:30Z</time>
      </trkpt>
      <trkpt lat="43.3964200" lon="-4.6684810">
        <ele>17.2</ele>
        <time>2021-07-18T10:11:31Z</time>
      </trkpt>
      <trkpt lat="43.3964380" lon="-4.6690470">
        <ele>16.8</ele>
        <time>2021-07-18T10:11:36Z</time>
      </trkpt>
      <trkpt lat="43.3964390" lon="-4.6691610">
        <ele>16.2</ele>
        <time>2021-07-18T10:11:37Z</time>
      </trkpt>
      <trkpt lat="43.3964370" lon="-4.6692670">
        <ele>15.8</ele>
        <time>2021-07-18T10:11:38Z</time>
      </trkpt>
      <trkpt lat="43.3964340" lon="-4.6693760">
        <ele>15.0</ele>
        <time>2021-07-18T10:11:39Z</time>
      </trkpt>
      <trkpt lat="43.3964010" lon="-4.6698900">
        <ele>15.0</ele>
        <time>2021-07-18T10:11:44Z</time>
      </trkpt>
      <trkpt lat="43.3963920" lon="-4.6699820">
        <ele>14.4</ele>
        <time>2021-07-18T10:11:45Z</time>
      </trkpt>
      <trkpt lat="43.3963850" lon="-4.6700760">
        <ele>14.0</ele>
        <time>2021-07-18T10:11:46Z</time>
      </trkpt>
      <trkpt lat="43.3963760" lon="-4.6701650">
        <ele>13.6</ele>
        <time>2021-07-18T10:11:47Z</time>
      </trkpt>
      <trkpt lat="43.3963660" lon="-4.6702570">
        <ele>13.2</ele>
        <time>2021-07-18T10:11:48Z</time>
      </trkpt>
      <trkpt lat="43.3963570" lon="-4.6703520">
        <ele>12.8</ele>
        <time>2021-07-18T10:11:49Z</time>
      </trkpt>
      <trkpt lat="43.3963090" lon="-4.6707680">
        <ele>12.8</ele>
        <time>2021-07-18T10:11:54Z</time>
      </trkpt>
      <trkpt lat="43.3962130" lon="-4.6715060">
        <ele>12.8</ele>
        <time>2021-07-18T10:12:04Z</time>
      </trkpt>
      <trkpt lat="43.3961880" lon="-4.6717810">
        <ele>12.8</ele>
        <time>2021-07-18T10:12:08Z</time>
      </trkpt>
      <trkpt lat="43.3961650" lon="-4.6719800">
        <ele>12.8</ele>
        <time>2021-07-18T10:12:11Z</time>
      </trkpt>
      <trkpt lat="43.3961710" lon="-4.6721420">
        <ele>12.8</ele>
        <time>2021-07-18T10:12:14Z</time>
      </trkpt>
      <trkpt lat="43.3961950" lon="-4.6721710">
        <ele>12.8</ele>
        <time>2021-07-18T10:12:15Z</time>
      </trkpt>
      <trkpt lat="43.3962270" lon="-4.6721770">
        <ele>12.4</ele>
        <time>2021-07-18T10:12:16Z</time>
      </trkpt>
      <trkpt lat="43.3962610" lon="-4.6721630">
        <ele>12.0</ele>
        <time>2021-07-18T10:12:17Z</time>
      </trkpt>
      <trkpt lat="43.3962900" lon="-4.6721350">
        <ele>11.6</ele>
        <time>2021-07-18T10:12:18Z</time>
      </trkpt>
      <trkpt lat="43.3963160" lon="-4.6721140">
        <ele>11.0</ele>
        <time>2021-07-18T10:12:19Z</time>
      </trkpt>
      <trkpt lat="43.3963300" lon="-4.6721190">
        <ele>10.6</ele>
        <time>2021-07-18T10:12:20Z</time>
      </trkpt>
      <trkpt lat="43.3963440" lon="-4.6721200">
        <ele>10.6</ele>
        <time>2021-07-18T10:12:22Z</time>
      </trkpt>
      <trkpt lat="43.3963440" lon="-4.6721190">
        <ele>10.6</ele>
        <time>2021-07-18T10:12:23Z</time>
      </trkpt>
      <trkpt lat="43.3962830" lon="-4.6721220">
        <ele>10.6</ele>
        <time>2021-07-18T10:13:14Z</time>
      </trkpt>
      <trkpt lat="43.3962750" lon="-4.6721520">
        <ele>10.6</ele>
        <time>2021-07-18T10:13:15Z</time>
      </trkpt>
      <trkpt lat="43.3962730" lon="-4.6721810">
        <ele>10.6</ele>
        <time>2021-07-18T10:13:16Z</time>
      </trkpt>
      <trkpt lat="43.3962840" lon="-4.6723290">
        <ele>10.6</ele>
        <time>2021-07-18T10:13:20Z</time>
      </trkpt>
      <trkpt lat="43.3962860" lon="-4.6723690">
        <ele>10.6</ele>
        <time>2021-07-18T10:13:21Z</time>
      </trkpt>
      <trkpt lat="43.3962980" lon="-4.6727110">
        <ele>10.6</ele>
        <time>2021-07-18T10:13:29Z</time>
      </trkpt>
      <trkpt lat="43.3963060" lon="-4.6728760">
        <ele>10.6</ele>
        <time>2021-07-18T10:13:33Z</time>
      </trkpt>
      <trkpt lat="43.3963220" lon="-4.6730500">
        <ele>10.6</ele>
        <time>2021-07-18T10:13:37Z</time>
      </trkpt>
      <trkpt lat="43.3963410" lon="-4.6731750">
        <ele>10.6</ele>
        <time>2021-07-18T10:13:41Z</time>
      </trkpt>
      <trkpt lat="43.3963440" lon="-4.6731870">
        <ele>10.6</ele>
        <time>2021-07-18T10:13:43Z</time>
      </trkpt>
      <trkpt lat="43.3963230" lon="-4.6731680">
        <ele>10.6</ele>
        <time>2021-07-18T10:15:07Z</time>
      </trkpt>
      <trkpt lat="43.3963250" lon="-4.6731230">
        <ele>10.6</ele>
        <time>2021-07-18T10:15:09Z</time>
      </trkpt>
      <trkpt lat="43.3963650" lon="-4.6730790">
        <ele>10.6</ele>
        <time>2021-07-18T10:15:13Z</time>
      </trkpt>
      <trkpt lat="43.3963720" lon="-4.6730760">
        <ele>10.6</ele>
        <time>2021-07-18T10:15:14Z</time>
      </trkpt>
      <trkpt lat="43.3963800" lon="-4.6730710">
        <ele>10.6</ele>
        <time>2021-07-18T10:15:18Z</time>
      </trkpt>
      <trkpt lat="43.3963470" lon="-4.6730760">
        <ele>10.6</ele>
        <time>2021-07-18T10:24:26Z</time>
      </trkpt>
      <trkpt lat="43.3963390" lon="-4.6730930">
        <ele>10.6</ele>
        <time>2021-07-18T10:24:27Z</time>
      </trkpt>
      <trkpt lat="43.3963070" lon="-4.6731940">
        <ele>10.6</ele>
        <time>2021-07-18T10:24:33Z</time>
      </trkpt>
      <trkpt lat="43.3962990" lon="-4.6732190">
        <ele>10.6</ele>
        <time>2021-07-18T10:24:36Z</time>
      </trkpt>
      <trkpt lat="43.3962720" lon="-4.6733180">
        <ele>10.6</ele>
        <time>2021-07-18T10:24:42Z</time>
      </trkpt>
      <trkpt lat="43.3962710" lon="-4.6733220">
        <ele>10.6</ele>
        <time>2021-07-18T10:24:44Z</time>
      </trkpt>
      <trkpt lat="43.3962700" lon="-4.6733920">
        <ele>10.6</ele>
        <time>2021-07-18T10:24:47Z</time>
      </trkpt>
      <trkpt lat="43.3963110" lon="-4.6736200">
        <ele>10.6</ele>
        <time>2021-07-18T10:24:53Z</time>
      </trkpt>
      <trkpt lat="43.3963320" lon="-4.6737160">
        <ele>10.6</ele>
        <time>2021-07-18T10:24:55Z</time>
      </trkpt>
      <trkpt lat="43.3963680" lon="-4.6739980">
        <ele>10.6</ele>
        <time>2021-07-18T10:25:00Z</time>
      </trkpt>
      <trkpt lat="43.3964000" lon="-4.6742630">
        <ele>10.6</ele>
        <time>2021-07-18T10:25:05Z</time>
      </trkpt>
      <trkpt lat="43.3964070" lon="-4.6744210">
        <ele>10.6</ele>
        <time>2021-07-18T10:25:08Z</time>
      </trkpt>
      <trkpt lat="43.3963790" lon="-4.6748970">
        <ele>10.6</ele>
        <time>2021-07-18T10:25:16Z</time>
      </trkpt>
      <trkpt lat="43.3963030" lon="-4.6753900">
        <ele>10.6</ele>
        <time>2021-07-18T10:25:24Z</time>
      </trkpt>
      <trkpt lat="43.3962430" lon="-4.6758380">
        <ele>10.6</ele>
        <time>2021-07-18T10:25:32Z</time>
      </trkpt>
      <trkpt lat="43.3962170" lon="-4.6763400">
        <ele>10.6</ele>
        <time>2021-07-18T10:25:40Z</time>
      </trkpt>
      <trkpt lat="43.3962670" lon="-4.6768270">
        <ele>10.6</ele>
        <time>2021-07-18T10:25:48Z</time>
      </trkpt>
      <trkpt lat="43.3963290" lon="-4.6773070">
        <ele>10.6</ele>
        <time>2021-07-18T10:25:56Z</time>
      </trkpt>
      <trkpt lat="43.3963970" lon="-4.6778350">
        <ele>10.6</ele>
        <time>2021-07-18T10:26:05Z</time>
      </trkpt>
      <trkpt lat="43.3964250" lon="-4.6780710">
        <ele>10.6</ele>
        <time>2021-07-18T10:26:09Z</time>
      </trkpt>
      <trkpt lat="43.3964520" lon="-4.6783090">
        <ele>10.6</ele>
        <time>2021-07-18T10:26:13Z</time>
      </trkpt>
      <trkpt lat="43.3965150" lon="-4.6788370">
        <ele>10.6</ele>
        <time>2021-07-18T10:26:22Z</time>
      </trkpt>
      <trkpt lat="43.3965290" lon="-4.6789500">
        <ele>11.0</ele>
        <time>2021-07-18T10:26:24Z</time>
      </trkpt>
      <trkpt lat="43.3965350" lon="-4.6790070">
        <ele>11.6</ele>
        <time>2021-07-18T10:26:25Z</time>
      </trkpt>
      <trkpt lat="43.3965390" lon="-4.6790660">
        <ele>12.0</ele>
        <time>2021-07-18T10:26:26Z</time>
      </trkpt>
      <trkpt lat="43.3965440" lon="-4.6791260">
        <ele>12.4</ele>
        <time>2021-07-18T10:26:27Z</time>
      </trkpt>
      <trkpt lat="43.3965510" lon="-4.6791820">
        <ele>12.8</ele>
        <time>2021-07-18T10:26:28Z</time>
      </trkpt>
      <trkpt lat="43.3965810" lon="-4.6794070">
        <ele>12.8</ele>
        <time>2021-07-18T10:26:32Z</time>
      </trkpt>
      <trkpt lat="43.3965930" lon="-4.6795290">
        <ele>12.8</ele>
        <time>2021-07-18T10:26:34Z</time>
      </trkpt>
      <trkpt lat="43.3966480" lon="-4.6799800">
        <ele>12.8</ele>
        <time>2021-07-18T10:26:41Z</time>
      </trkpt>
      <trkpt lat="43.3967220" lon="-4.6806320">
        <ele>12.8</ele>
        <time>2021-07-18T10:26:51Z</time>
      </trkpt>
      <trkpt lat="43.3967760" lon="-4.6810820">
        <ele>12.8</ele>
        <time>2021-07-18T10:26:58Z</time>
      </trkpt>
      <trkpt lat="43.3967840" lon="-4.6811490">
        <ele>12.8</ele>
        <time>2021-07-18T10:26:59Z</time>
      </trkpt>
      <trkpt lat="43.3968180" lon="-4.6814150">
        <ele>13.2</ele>
        <time>2021-07-18T10:27:03Z</time>
      </trkpt>
      <trkpt lat="43.3968270" lon="-4.6814800">
        <ele>13.6</ele>
        <time>2021-07-18T10:27:04Z</time>
      </trkpt>
      <trkpt lat="43.3968370" lon="-4.6815520">
        <ele>14.0</ele>
        <time>2021-07-18T10:27:05Z</time>
      </trkpt>
      <trkpt lat="43.3968450" lon="-4.6816190">
        <ele>14.4</ele>
        <time>2021-07-18T10:27:06Z</time>
      </trkpt>
      <trkpt lat="43.3968520" lon="-4.6816880">
        <ele>14.8</ele>
        <time>2021-07-18T10:27:07Z</time>
      </trkpt>
      <trkpt lat="43.3969090" lon="-4.6821690">
        <ele>14.8</ele>
        <time>2021-07-18T10:27:14Z</time>
      </trkpt>
      <trkpt lat="43.3969250" lon="-4.6822980">
        <ele>14.8</ele>
        <time>2021-07-18T10:27:16Z</time>
      </trkpt>
      <trkpt lat="43.3969640" lon="-4.6826370">
        <ele>14.8</ele>
        <time>2021-07-18T10:27:21Z</time>
      </trkpt>
      <trkpt lat="43.3969870" lon="-4.6828410">
        <ele>14.8</ele>
        <time>2021-07-18T10:27:24Z</time>
      </trkpt>
      <trkpt lat="43.3970210" lon="-4.6831160">
        <ele>14.8</ele>
        <time>2021-07-18T10:27:28Z</time>
      </trkpt>
      <trkpt lat="43.3970440" lon="-4.6833180">
        <ele>14.8</ele>
        <time>2021-07-18T10:27:31Z</time>
      </trkpt>
      <trkpt lat="43.3970690" lon="-4.6835160">
        <ele>14.8</ele>
        <time>2021-07-18T10:27:34Z</time>
      </trkpt>
      <trkpt lat="43.3970840" lon="-4.6836580">
        <ele>14.8</ele>
        <time>2021-07-18T10:27:36Z</time>
      </trkpt>
      <trkpt lat="43.3971230" lon="-4.6840200">
        <ele>14.8</ele>
        <time>2021-07-18T10:27:41Z</time>
      </trkpt>
      <trkpt lat="43.3971540" lon="-4.6843160">
        <ele>14.8</ele>
        <time>2021-07-18T10:27:45Z</time>
      </trkpt>
      <trkpt lat="43.3971630" lon="-4.6843890">
        <ele>14.4</ele>
        <time>2021-07-18T10:27:46Z</time>
      </trkpt>
      <trkpt lat="43.3971720" lon="-4.6844630">
        <ele>14.0</ele>
        <time>2021-07-18T10:27:47Z</time>
      </trkpt>
      <trkpt lat="43.3971800" lon="-4.6845370">
        <ele>13.6</ele>
        <time>2021-07-18T10:27:48Z</time>
      </trkpt>
      <trkpt lat="43.3971880" lon="-4.6846110">
        <ele>13.2</ele>
        <time>2021-07-18T10:27:49Z</time>
      </trkpt>
      <trkpt lat="43.3971960" lon="-4.6846820">
        <ele>12.8</ele>
        <time>2021-07-18T10:27:50Z</time>
      </trkpt>
      <trkpt lat="43.3972430" lon="-4.6850960">
        <ele>12.8</ele>
        <time>2021-07-18T10:27:56Z</time>
      </trkpt>
      <trkpt lat="43.3972740" lon="-4.6853570">
        <ele>12.8</ele>
        <time>2021-07-18T10:28:00Z</time>
      </trkpt>
      <trkpt lat="43.3973000" lon="-4.6855500">
        <ele>12.8</ele>
        <time>2021-07-18T10:28:03Z</time>
      </trkpt>
      <trkpt lat="43.3973410" lon="-4.6859390">
        <ele>12.8</ele>
        <time>2021-07-18T10:28:09Z</time>
      </trkpt>
      <trkpt lat="43.3973510" lon="-4.6860690">
        <ele>12.8</ele>
        <time>2021-07-18T10:28:11Z</time>
      </trkpt>
      <trkpt lat="43.3973690" lon="-4.6865750">
        <ele>12.8</ele>
        <time>2021-07-18T10:28:19Z</time>
      </trkpt>
      <trkpt lat="43.3973740" lon="-4.6866970">
        <ele>13.2</ele>
        <time>2021-07-18T10:28:21Z</time>
      </trkpt>
      <trkpt lat="43.3973750" lon="-4.6867560">
        <ele>13.6</ele>
        <time>2021-07-18T10:28:22Z</time>
      </trkpt>
      <trkpt lat="43.3973770" lon="-4.6868190">
        <ele>14.0</ele>
        <time>2021-07-18T10:28:23Z</time>
      </trkpt>
      <trkpt lat="43.3973800" lon="-4.6868830">
        <ele>14.4</ele>
        <time>2021-07-18T10:28:24Z</time>
      </trkpt>
      <trkpt lat="43.3973800" lon="-4.6869440">
        <ele>14.8</ele>
        <time>2021-07-18T10:28:25Z</time>
      </trkpt>
      <trkpt lat="43.3973800" lon="-4.6870080">
        <ele>14.8</ele>
        <time>2021-07-18T10:28:26Z</time>
      </trkpt>
      <trkpt lat="43.3973650" lon="-4.6874210">
        <ele>14.8</ele>
        <time>2021-07-18T10:28:32Z</time>
      </trkpt>
      <trkpt lat="43.3973560" lon="-4.6876940">
        <ele>14.8</ele>
        <time>2021-07-18T10:28:36Z</time>
      </trkpt>
      <trkpt lat="43.3973340" lon="-4.6882260">
        <ele>14.8</ele>
        <time>2021-07-18T10:28:44Z</time>
      </trkpt>
      <trkpt lat="43.3972860" lon="-4.6888770">
        <ele>14.8</ele>
        <time>2021-07-18T10:28:54Z</time>
      </trkpt>
      <trkpt lat="43.3972700" lon="-4.6890420">
        <ele>15.2</ele>
        <time>2021-07-18T10:28:57Z</time>
      </trkpt>
      <trkpt lat="43.3972650" lon="-4.6890990">
        <ele>15.6</ele>
        <time>2021-07-18T10:28:58Z</time>
      </trkpt>
      <trkpt lat="43.3972600" lon="-4.6891560">
        <ele>16.0</ele>
        <time>2021-07-18T10:28:59Z</time>
      </trkpt>
      <trkpt lat="43.3972530" lon="-4.6892140">
        <ele>16.4</ele>
        <time>2021-07-18T10:29:00Z</time>
      </trkpt>
      <trkpt lat="43.3972440" lon="-4.6892740">
        <ele>16.8</ele>
        <time>2021-07-18T10:29:01Z</time>
      </trkpt>
      <trkpt lat="43.3971840" lon="-4.6896490">
        <ele>16.8</ele>
        <time>2021-07-18T10:29:07Z</time>
      </trkpt>
      <trkpt lat="43.3971680" lon="-4.6897760">
        <ele>16.8</ele>
        <time>2021-07-18T10:29:09Z</time>
      </trkpt>
      <trkpt lat="43.3971490" lon="-4.6899000">
        <ele>16.8</ele>
        <time>2021-07-18T10:29:11Z</time>
      </trkpt>
      <trkpt lat="43.3971330" lon="-4.6900260">
        <ele>16.8</ele>
        <time>2021-07-18T10:29:13Z</time>
      </trkpt>
      <trkpt lat="43.3971140" lon="-4.6901460">
        <ele>16.8</ele>
        <time>2021-07-18T10:29:15Z</time>
      </trkpt>
      <trkpt lat="43.3970990" lon="-4.6902740">
        <ele>16.8</ele>
        <time>2021-07-18T10:29:17Z</time>
      </trkpt>
      <trkpt lat="43.3969990" lon="-4.6909730">
        <ele>16.8</ele>
        <time>2021-07-18T10:29:27Z</time>
      </trkpt>
      <trkpt lat="43.3969880" lon="-4.6910520">
        <ele>16.8</ele>
        <time>2021-07-18T10:29:28Z</time>
      </trkpt>
      <trkpt lat="43.3969530" lon="-4.6913150">
        <ele>16.8</ele>
        <time>2021-07-18T10:29:31Z</time>
      </trkpt>
      <trkpt lat="43.3969430" lon="-4.6914100">
        <ele>16.4</ele>
        <time>2021-07-18T10:29:32Z</time>
      </trkpt>
      <trkpt lat="43.3969330" lon="-4.6915090">
        <ele>16.0</ele>
        <time>2021-07-18T10:29:33Z</time>
      </trkpt>
      <trkpt lat="43.3969230" lon="-4.6916170">
        <ele>15.6</ele>
        <time>2021-07-18T10:29:34Z</time>
      </trkpt>
      <trkpt lat="43.3969190" lon="-4.6917240">
        <ele>15.2</ele>
        <time>2021-07-18T10:29:35Z</time>
      </trkpt>
      <trkpt lat="43.3969160" lon="-4.6918330">
        <ele>14.8</ele>
        <time>2021-07-18T10:29:36Z</time>
      </trkpt>
      <trkpt lat="43.3969150" lon="-4.6920600">
        <ele>14.8</ele>
        <time>2021-07-18T10:29:38Z</time>
      </trkpt>
      <trkpt lat="43.3969550" lon="-4.6925550">
        <ele>14.8</ele>
        <time>2021-07-18T10:29:42Z</time>
      </trkpt>
      <trkpt lat="43.3969730" lon="-4.6926800">
        <ele>14.8</ele>
        <time>2021-07-18T10:29:43Z</time>
      </trkpt>
      <trkpt lat="43.3970450" lon="-4.6930640">
        <ele>13.8</ele>
        <time>2021-07-18T10:29:46Z</time>
      </trkpt>
      <trkpt lat="43.3970760" lon="-4.6931880">
        <ele>13.2</ele>
        <time>2021-07-18T10:29:47Z</time>
      </trkpt>
      <trkpt lat="43.3971100" lon="-4.6933070">
        <ele>12.6</ele>
        <time>2021-07-18T10:29:48Z</time>
      </trkpt>
      <trkpt lat="43.3971510" lon="-4.6934350">
        <ele>11.8</ele>
        <time>2021-07-18T10:29:49Z</time>
      </trkpt>
      <trkpt lat="43.3971890" lon="-4.6935520">
        <ele>11.2</ele>
        <time>2021-07-18T10:29:50Z</time>
      </trkpt>
      <trkpt lat="43.3972330" lon="-4.6936670">
        <ele>10.4</ele>
        <time>2021-07-18T10:29:51Z</time>
      </trkpt>
      <trkpt lat="43.3972800" lon="-4.6937780">
        <ele>9.6</ele>
        <time>2021-07-18T10:29:52Z</time>
      </trkpt>
      <trkpt lat="43.3973270" lon="-4.6938860">
        <ele>8.8</ele>
        <time>2021-07-18T10:29:53Z</time>
      </trkpt>
      <trkpt lat="43.3973780" lon="-4.6939930">
        <ele>8.0</ele>
        <time>2021-07-18T10:29:54Z</time>
      </trkpt>
      <trkpt lat="43.3974300" lon="-4.6940930">
        <ele>7.2</ele>
        <time>2021-07-18T10:29:55Z</time>
      </trkpt>
      <trkpt lat="43.3974900" lon="-4.6941930">
        <ele>6.8</ele>
        <time>2021-07-18T10:29:56Z</time>
      </trkpt>
      <trkpt lat="43.3975470" lon="-4.6942820">
        <ele>6.4</ele>
        <time>2021-07-18T10:29:57Z</time>
      </trkpt>
      <trkpt lat="43.3976050" lon="-4.6943680">
        <ele>6.0</ele>
        <time>2021-07-18T10:29:58Z</time>
      </trkpt>
      <trkpt lat="43.3976660" lon="-4.6944580">
        <ele>5.6</ele>
        <time>2021-07-18T10:29:59Z</time>
      </trkpt>
      <trkpt lat="43.3977280" lon="-4.6945440">
        <ele>5.2</ele>
        <time>2021-07-18T10:30:00Z</time>
      </trkpt>
      <trkpt lat="43.3978520" lon="-4.6947090">
        <ele>4.8</ele>
        <time>2021-07-18T10:30:02Z</time>
      </trkpt>
      <trkpt lat="43.3979110" lon="-4.6947900">
        <ele>4.4</ele>
        <time>2021-07-18T10:30:03Z</time>
      </trkpt>
      <trkpt lat="43.3979760" lon="-4.6948780">
        <ele>4.0</ele>
        <time>2021-07-18T10:30:04Z</time>
      </trkpt>
      <trkpt lat="43.3980370" lon="-4.6949610">
        <ele>3.4</ele>
        <time>2021-07-18T10:30:05Z</time>
      </trkpt>
      <trkpt lat="43.3980980" lon="-4.6950450">
        <ele>3.0</ele>
        <time>2021-07-18T10:30:06Z</time>
      </trkpt>
      <trkpt lat="43.3983710" lon="-4.6955100">
        <ele>2.6</ele>
        <time>2021-07-18T10:30:11Z</time>
      </trkpt>
      <trkpt lat="43.3984240" lon="-4.6956030">
        <ele>2.2</ele>
        <time>2021-07-18T10:30:12Z</time>
      </trkpt>
      <trkpt lat="43.3984740" lon="-4.6956980">
        <ele>1.8</ele>
        <time>2021-07-18T10:30:13Z</time>
      </trkpt>
      <trkpt lat="43.3985230" lon="-4.6957930">
        <ele>1.2</ele>
        <time>2021-07-18T10:30:14Z</time>
      </trkpt>
      <trkpt lat="43.3985680" lon="-4.6958950">
        <ele>0.6</ele>
        <time>2021-07-18T10:30:15Z</time>
      </trkpt>
      <trkpt lat="43.3986080" lon="-4.6960010">
        <ele>0.0</ele>
        <time>2021-07-18T10:30:16Z</time>
      </trkpt>
      <trkpt lat="43.3986470" lon="-4.6961090">
        <ele>-0.6</ele>
        <time>2021-07-18T10:30:17Z</time>
      </trkpt>
      <trkpt lat="43.3986850" lon="-4.6962200">
        <ele>-1.0</ele>
        <time>2021-07-18T10:30:18Z</time>
      </trkpt>
      <trkpt lat="43.3987230" lon="-4.6963360">
        <ele>-1.6</ele>
        <time>2021-07-18T10:30:19Z</time>
      </trkpt>
      <trkpt lat="43.3987540" lon="-4.6964540">
        <ele>-2.0</ele>
        <time>2021-07-18T10:30:20Z</time>
      </trkpt>
      <trkpt lat="43.3987840" lon="-4.6965730">
        <ele>-2.6</ele>
        <time>2021-07-18T10:30:21Z</time>
      </trkpt>
      <trkpt lat="43.3988100" lon="-4.6966920">
        <ele>-3.2</ele>
        <time>2021-07-18T10:30:22Z</time>
      </trkpt>
      <trkpt lat="43.3988350" lon="-4.6968140">
        <ele>-3.2</ele>
        <time>2021-07-18T10:30:23Z</time>
      </trkpt>
      <trkpt lat="43.3988960" lon="-4.6973100">
        <ele>-3.6</ele>
        <time>2021-07-18T10:30:27Z</time>
      </trkpt>
      <trkpt lat="43.3989010" lon="-4.6974360">
        <ele>-4.0</ele>
        <time>2021-07-18T10:30:28Z</time>
      </trkpt>
      <trkpt lat="43.3989040" lon="-4.6975630">
        <ele>-4.4</ele>
        <time>2021-07-18T10:30:29Z</time>
      </trkpt>
      <trkpt lat="43.3989020" lon="-4.6976890">
        <ele>-4.8</ele>
        <time>2021-07-18T10:30:30Z</time>
      </trkpt>
      <trkpt lat="43.3989000" lon="-4.6978160">
        <ele>-5.4</ele>
        <time>2021-07-18T10:30:31Z</time>
      </trkpt>
      <trkpt lat="43.3988930" lon="-4.6979420">
        <ele>-5.8</ele>
        <time>2021-07-18T10:30:32Z</time>
      </trkpt>
      <trkpt lat="43.3988850" lon="-4.6980640">
        <ele>-6.2</ele>
        <time>2021-07-18T10:30:33Z</time>
      </trkpt>
      <trkpt lat="43.3988730" lon="-4.6981930">
        <ele>-6.6</ele>
        <time>2021-07-18T10:30:34Z</time>
      </trkpt>
      <trkpt lat="43.3988590" lon="-4.6983150">
        <ele>-7.2</ele>
        <time>2021-07-18T10:30:35Z</time>
      </trkpt>
      <trkpt lat="43.3988420" lon="-4.6984380">
        <ele>-7.6</ele>
        <time>2021-07-18T10:30:36Z</time>
      </trkpt>
      <trkpt lat="43.3987430" lon="-4.6989150">
        <ele>-7.6</ele>
        <time>2021-07-18T10:30:40Z</time>
      </trkpt>
      <trkpt lat="43.3987110" lon="-4.6990310">
        <ele>-8.0</ele>
        <time>2021-07-18T10:30:41Z</time>
      </trkpt>
      <trkpt lat="43.3986830" lon="-4.6991390">
        <ele>-8.6</ele>
        <time>2021-07-18T10:30:42Z</time>
      </trkpt>
      <trkpt lat="43.3986550" lon="-4.6992470">
        <ele>-9.2</ele>
        <time>2021-07-18T10:30:43Z</time>
      </trkpt>
      <trkpt lat="43.3986280" lon="-4.6993520">
        <ele>-9.8</ele>
        <time>2021-07-18T10:30:44Z</time>
      </trkpt>
      <trkpt lat="43.3985990" lon="-4.6994570">
        <ele>-10.6</ele>
        <time>2021-07-18T10:30:45Z</time>
      </trkpt>
      <trkpt lat="43.3985720" lon="-4.6995590">
        <ele>-11.2</ele>
        <time>2021-07-18T10:30:46Z</time>
      </trkpt>
      <trkpt lat="43.3985460" lon="-4.6996590">
        <ele>-12.0</ele>
        <time>2021-07-18T10:30:47Z</time>
      </trkpt>
      <trkpt lat="43.3985230" lon="-4.6997580">
        <ele>-12.6</ele>
        <time>2021-07-18T10:30:48Z</time>
      </trkpt>
      <trkpt lat="43.3985000" lon="-4.6998630">
        <ele>-13.0</ele>
        <time>2021-07-18T10:30:49Z</time>
      </trkpt>
      <trkpt lat="43.3984790" lon="-4.6999590">
        <ele>-13.6</ele>
        <time>2021-07-18T10:30:50Z</time>
      </trkpt>
      <trkpt lat="43.3984590" lon="-4.7000530">
        <ele>-14.2</ele>
        <time>2021-07-18T10:30:51Z</time>
      </trkpt>
      <trkpt lat="43.3984390" lon="-4.7001480">
        <ele>-14.8</ele>
        <time>2021-07-18T10:30:52Z</time>
      </trkpt>
      <trkpt lat="43.3984230" lon="-4.7002370">
        <ele>-14.8</ele>
        <time>2021-07-18T10:30:53Z</time>
      </trkpt>
      <trkpt lat="43.3983910" lon="-4.7005590">
        <ele>-14.8</ele>
        <time>2021-07-18T10:30:57Z</time>
      </trkpt>
      <trkpt lat="43.3983860" lon="-4.7006290">
        <ele>-14.8</ele>
        <time>2021-07-18T10:30:58Z</time>
      </trkpt>
      <trkpt lat="43.3983840" lon="-4.7006990">
        <ele>-14.8</ele>
        <time>2021-07-18T10:30:59Z</time>
      </trkpt>
      <trkpt lat="43.3983810" lon="-4.7008390">
        <ele>-14.8</ele>
        <time>2021-07-18T10:31:01Z</time>
      </trkpt>
      <trkpt lat="43.3983810" lon="-4.7009070">
        <ele>-14.8</ele>
        <time>2021-07-18T10:31:02Z</time>
      </trkpt>
      <trkpt lat="43.3983820" lon="-4.7009760">
        <ele>-14.8</ele>
        <time>2021-07-18T10:31:03Z</time>
      </trkpt>
      <trkpt lat="43.3983880" lon="-4.7011150">
        <ele>-14.8</ele>
        <time>2021-07-18T10:31:05Z</time>
      </trkpt>
      <trkpt lat="43.3983960" lon="-4.7012450">
        <ele>-14.8</ele>
        <time>2021-07-18T10:31:07Z</time>
      </trkpt>
      <trkpt lat="43.3984190" lon="-4.7014330">
        <ele>-14.8</ele>
        <time>2021-07-18T10:31:10Z</time>
      </trkpt>
      <trkpt lat="43.3984440" lon="-4.7016190">
        <ele>-14.8</ele>
        <time>2021-07-18T10:31:13Z</time>
      </trkpt>
      <trkpt lat="43.3984720" lon="-4.7017350">
        <ele>-14.4</ele>
        <time>2021-07-18T10:31:15Z</time>
      </trkpt>
      <trkpt lat="43.3984850" lon="-4.7017880">
        <ele>-14.0</ele>
        <time>2021-07-18T10:31:16Z</time>
      </trkpt>
      <trkpt lat="43.3984960" lon="-4.7018400">
        <ele>-13.6</ele>
        <time>2021-07-18T10:31:17Z</time>
      </trkpt>
      <trkpt lat="43.3985070" lon="-4.7018910">
        <ele>-13.2</ele>
        <time>2021-07-18T10:31:18Z</time>
      </trkpt>
      <trkpt lat="43.3985220" lon="-4.7019420">
        <ele>-12.8</ele>
        <time>2021-07-18T10:31:19Z</time>
      </trkpt>
      <trkpt lat="43.3985380" lon="-4.7019900">
        <ele>-12.8</ele>
        <time>2021-07-18T10:31:20Z</time>
      </trkpt>
      <trkpt lat="43.3985820" lon="-4.7021320">
        <ele>-12.8</ele>
        <time>2021-07-18T10:31:23Z</time>
      </trkpt>
      <trkpt lat="43.3986340" lon="-4.7022760">
        <ele>-12.4</ele>
        <time>2021-07-18T10:31:26Z</time>
      </trkpt>
      <trkpt lat="43.3986500" lon="-4.7023240">
        <ele>-12.0</ele>
        <time>2021-07-18T10:31:27Z</time>
      </trkpt>
      <trkpt lat="43.3986650" lon="-4.7023690">
        <ele>-11.4</ele>
        <time>2021-07-18T10:31:28Z</time>
      </trkpt>
      <trkpt lat="43.3986830" lon="-4.7024150">
        <ele>-11.0</ele>
        <time>2021-07-18T10:31:29Z</time>
      </trkpt>
      <trkpt lat="43.3986980" lon="-4.7024620">
        <ele>-10.6</ele>
        <time>2021-07-18T10:31:30Z</time>
      </trkpt>
      <trkpt lat="43.3987470" lon="-4.7026080">
        <ele>-10.6</ele>
        <time>2021-07-18T10:31:33Z</time>
      </trkpt>
      <trkpt lat="43.3988110" lon="-4.7028050">
        <ele>-10.2</ele>
        <time>2021-07-18T10:31:37Z</time>
      </trkpt>
      <trkpt lat="43.3988260" lon="-4.7028540">
        <ele>-9.8</ele>
        <time>2021-07-18T10:31:38Z</time>
      </trkpt>
      <trkpt lat="43.3988430" lon="-4.7029020">
        <ele>-9.4</ele>
        <time>2021-07-18T10:31:39Z</time>
      </trkpt>
      <trkpt lat="43.3988590" lon="-4.7029500">
        <ele>-9.0</ele>
        <time>2021-07-18T10:31:40Z</time>
      </trkpt>
      <trkpt lat="43.3988720" lon="-4.7029980">
        <ele>-8.6</ele>
        <time>2021-07-18T10:31:41Z</time>
      </trkpt>
      <trkpt lat="43.3989120" lon="-4.7031990">
        <ele>-8.6</ele>
        <time>2021-07-18T10:31:45Z</time>
      </trkpt>
      <trkpt lat="43.3989330" lon="-4.7033530">
        <ele>-8.6</ele>
        <time>2021-07-18T10:31:48Z</time>
      </trkpt>
      <trkpt lat="43.3989380" lon="-4.7034090">
        <ele>-8.2</ele>
        <time>2021-07-18T10:31:49Z</time>
      </trkpt>
      <trkpt lat="43.3989420" lon="-4.7034630">
        <ele>-7.4</ele>
        <time>2021-07-18T10:31:50Z</time>
      </trkpt>
      <trkpt lat="43.3989460" lon="-4.7035150">
        <ele>-7.0</ele>
        <time>2021-07-18T10:31:51Z</time>
      </trkpt>
      <trkpt lat="43.3989510" lon="-4.7035630">
        <ele>-6.6</ele>
        <time>2021-07-18T10:31:52Z</time>
      </trkpt>
      <trkpt lat="43.3989600" lon="-4.7037170">
        <ele>-6.6</ele>
        <time>2021-07-18T10:31:55Z</time>
      </trkpt>
      <trkpt lat="43.3989750" lon="-4.7040010">
        <ele>-6.6</ele>
        <time>2021-07-18T10:32:00Z</time>
      </trkpt>
      <trkpt lat="43.3989860" lon="-4.7044300">
        <ele>-6.6</ele>
        <time>2021-07-18T10:32:07Z</time>
      </trkpt>
      <trkpt lat="43.3989970" lon="-4.7045430">
        <ele>-6.2</ele>
        <time>2021-07-18T10:32:09Z</time>
      </trkpt>
      <trkpt lat="43.3990020" lon="-4.7045990">
        <ele>-5.6</ele>
        <time>2021-07-18T10:32:10Z</time>
      </trkpt>
      <trkpt lat="43.3990060" lon="-4.7046520">
        <ele>-5.2</ele>
        <time>2021-07-18T10:32:11Z</time>
      </trkpt>
      <trkpt lat="43.3990070" lon="-4.7047090">
        <ele>-4.8</ele>
        <time>2021-07-18T10:32:12Z</time>
      </trkpt>
      <trkpt lat="43.3990080" lon="-4.7047600">
        <ele>-4.4</ele>
        <time>2021-07-18T10:32:13Z</time>
      </trkpt>
      <trkpt lat="43.3990060" lon="-4.7048660">
        <ele>-4.4</ele>
        <time>2021-07-18T10:32:15Z</time>
      </trkpt>
      <trkpt lat="43.3990220" lon="-4.7053070">
        <ele>-4.4</ele>
        <time>2021-07-18T10:32:23Z</time>
      </trkpt>
      <trkpt lat="43.3990350" lon="-4.7056420">
        <ele>-4.4</ele>
        <time>2021-07-18T10:32:29Z</time>
      </trkpt>
      <trkpt lat="43.3990350" lon="-4.7057000">
        <ele>-4.4</ele>
        <time>2021-07-18T10:32:30Z</time>
      </trkpt>
      <trkpt lat="43.3990490" lon="-4.7059590">
        <ele>-4.4</ele>
        <time>2021-07-18T10:32:34Z</time>
      </trkpt>
      <trkpt lat="43.3990500" lon="-4.7062200">
        <ele>-4.4</ele>
        <time>2021-07-18T10:32:38Z</time>
      </trkpt>
      <trkpt lat="43.3990690" lon="-4.7064680">
        <ele>-4.4</ele>
        <time>2021-07-18T10:32:43Z</time>
      </trkpt>
      <trkpt lat="43.3990780" lon="-4.7066410">
        <ele>-4.4</ele>
        <time>2021-07-18T10:32:46Z</time>
      </trkpt>
      <trkpt lat="43.3990770" lon="-4.7066980">
        <ele>-4.4</ele>
        <time>2021-07-18T10:32:47Z</time>
      </trkpt>
      <trkpt lat="43.3990760" lon="-4.7068130">
        <ele>-4.4</ele>
        <time>2021-07-18T10:32:49Z</time>
      </trkpt>
      <trkpt lat="43.3990780" lon="-4.7069920">
        <ele>-4.4</ele>
        <time>2021-07-18T10:32:52Z</time>
      </trkpt>
      <trkpt lat="43.3990770" lon="-4.7070520">
        <ele>-4.4</ele>
        <time>2021-07-18T10:32:53Z</time>
      </trkpt>
      <trkpt lat="43.3990750" lon="-4.7071730">
        <ele>-4.4</ele>
        <time>2021-07-18T10:32:55Z</time>
      </trkpt>
      <trkpt lat="43.3990570" lon="-4.7074310">
        <ele>-4.4</ele>
        <time>2021-07-18T10:32:59Z</time>
      </trkpt>
      <trkpt lat="43.3990320" lon="-4.7076420">
        <ele>-4.4</ele>
        <time>2021-07-18T10:33:02Z</time>
      </trkpt>
      <trkpt lat="43.3989330" lon="-4.7081270">
        <ele>-4.4</ele>
        <time>2021-07-18T10:33:09Z</time>
      </trkpt>
      <trkpt lat="43.3988810" lon="-4.7083310">
        <ele>-4.4</ele>
        <time>2021-07-18T10:33:12Z</time>
      </trkpt>
      <trkpt lat="43.3987590" lon="-4.7087960">
        <ele>-4.4</ele>
        <time>2021-07-18T10:33:19Z</time>
      </trkpt>
      <trkpt lat="43.3986090" lon="-4.7093520">
        <ele>-4.4</ele>
        <time>2021-07-18T10:33:27Z</time>
      </trkpt>
      <trkpt lat="43.3985140" lon="-4.7097020">
        <ele>-4.4</ele>
        <time>2021-07-18T10:33:32Z</time>
      </trkpt>
      <trkpt lat="43.3984660" lon="-4.7099150">
        <ele>-4.4</ele>
        <time>2021-07-18T10:33:35Z</time>
      </trkpt>
      <trkpt lat="43.3984260" lon="-4.7100540">
        <ele>-4.4</ele>
        <time>2021-07-18T10:33:37Z</time>
      </trkpt>
      <trkpt lat="43.3983530" lon="-4.7103230">
        <ele>-4.4</ele>
        <time>2021-07-18T10:33:41Z</time>
      </trkpt>
      <trkpt lat="43.3983190" lon="-4.7104620">
        <ele>-4.4</ele>
        <time>2021-07-18T10:33:43Z</time>
      </trkpt>
      <trkpt lat="43.3982730" lon="-4.7106630">
        <ele>-4.4</ele>
        <time>2021-07-18T10:33:46Z</time>
      </trkpt>
      <trkpt lat="43.3982260" lon="-4.7108630">
        <ele>-4.4</ele>
        <time>2021-07-18T10:33:49Z</time>
      </trkpt>
      <trkpt lat="43.3981810" lon="-4.7110670">
        <ele>-4.4</ele>
        <time>2021-07-18T10:33:52Z</time>
      </trkpt>
      <trkpt lat="43.3981000" lon="-4.7114570">
        <ele>-4.4</ele>
        <time>2021-07-18T10:33:58Z</time>
      </trkpt>
      <trkpt lat="43.3980140" lon="-4.7119120">
        <ele>-4.0</ele>
        <time>2021-07-18T10:34:05Z</time>
      </trkpt>
      <trkpt lat="43.3980020" lon="-4.7119810">
        <ele>-3.6</ele>
        <time>2021-07-18T10:34:06Z</time>
      </trkpt>
      <trkpt lat="43.3979900" lon="-4.7120450">
        <ele>-3.2</ele>
        <time>2021-07-18T10:34:07Z</time>
      </trkpt>
      <trkpt lat="43.3979800" lon="-4.7121070">
        <ele>-2.8</ele>
        <time>2021-07-18T10:34:08Z</time>
      </trkpt>
      <trkpt lat="43.3979700" lon="-4.7121720">
        <ele>-2.4</ele>
        <time>2021-07-18T10:34:09Z</time>
      </trkpt>
      <trkpt lat="43.3979170" lon="-4.7125370">
        <ele>-2.4</ele>
        <time>2021-07-18T10:34:15Z</time>
      </trkpt>
      <trkpt lat="43.3978700" lon="-4.7128790">
        <ele>-2.4</ele>
        <time>2021-07-18T10:34:21Z</time>
      </trkpt>
      <trkpt lat="43.3978600" lon="-4.7129320">
        <ele>-2.0</ele>
        <time>2021-07-18T10:34:22Z</time>
      </trkpt>
      <trkpt lat="43.3978550" lon="-4.7129850">
        <ele>-1.6</ele>
        <time>2021-07-18T10:34:23Z</time>
      </trkpt>
      <trkpt lat="43.3978460" lon="-4.7130370">
        <ele>-1.2</ele>
        <time>2021-07-18T10:34:24Z</time>
      </trkpt>
      <trkpt lat="43.3978370" lon="-4.7130890">
        <ele>-0.6</ele>
        <time>2021-07-18T10:34:25Z</time>
      </trkpt>
      <trkpt lat="43.3978310" lon="-4.7131430">
        <ele>-0.2</ele>
        <time>2021-07-18T10:34:26Z</time>
      </trkpt>
      <trkpt lat="43.3977840" lon="-4.7134720">
        <ele>-0.2</ele>
        <time>2021-07-18T10:34:32Z</time>
      </trkpt>
      <trkpt lat="43.3977520" lon="-4.7137470">
        <ele>-0.2</ele>
        <time>2021-07-18T10:34:37Z</time>
      </trkpt>
      <trkpt lat="43.3977370" lon="-4.7138520">
        <ele>-0.2</ele>
        <time>2021-07-18T10:34:39Z</time>
      </trkpt>
      <trkpt lat="43.3977010" lon="-4.7140570">
        <ele>0.2</ele>
        <time>2021-07-18T10:34:43Z</time>
      </trkpt>
      <trkpt lat="43.3976920" lon="-4.7141070">
        <ele>0.6</ele>
        <time>2021-07-18T10:34:44Z</time>
      </trkpt>
      <trkpt lat="43.3976820" lon="-4.7141580">
        <ele>1.0</ele>
        <time>2021-07-18T10:34:45Z</time>
      </trkpt>
      <trkpt lat="43.3976760" lon="-4.7142080">
        <ele>1.4</ele>
        <time>2021-07-18T10:34:46Z</time>
      </trkpt>
      <trkpt lat="43.3976680" lon="-4.7142600">
        <ele>1.8</ele>
        <time>2021-07-18T10:34:47Z</time>
      </trkpt>
      <trkpt lat="43.3975900" lon="-4.7147650">
        <ele>1.8</ele>
        <time>2021-07-18T10:34:57Z</time>
      </trkpt>
      <trkpt lat="43.3975160" lon="-4.7152210">
        <ele>1.8</ele>
        <time>2021-07-18T10:35:06Z</time>
      </trkpt>
      <trkpt lat="43.3975010" lon="-4.7153240">
        <ele>1.8</ele>
        <time>2021-07-18T10:35:08Z</time>
      </trkpt>
      <trkpt lat="43.3974640" lon="-4.7155300">
        <ele>2.2</ele>
        <time>2021-07-18T10:35:12Z</time>
      </trkpt>
      <trkpt lat="43.3974550" lon="-4.7155810">
        <ele>2.6</ele>
        <time>2021-07-18T10:35:13Z</time>
      </trkpt>
      <trkpt lat="43.3974500" lon="-4.7156330">
        <ele>3.0</ele>
        <time>2021-07-18T10:35:14Z</time>
      </trkpt>
      <trkpt lat="43.3974450" lon="-4.7156820">
        <ele>3.4</ele>
        <time>2021-07-18T10:35:15Z</time>
      </trkpt>
      <trkpt lat="43.3974390" lon="-4.7157240">
        <ele>3.8</ele>
        <time>2021-07-18T10:35:16Z</time>
      </trkpt>
      <trkpt lat="43.3974550" lon="-4.7158510">
        <ele>3.8</ele>
        <time>2021-07-18T10:35:19Z</time>
      </trkpt>
      <trkpt lat="43.3974710" lon="-4.7159870">
        <ele>3.8</ele>
        <time>2021-07-18T10:35:22Z</time>
      </trkpt>
      <trkpt lat="43.3974980" lon="-4.7160730">
        <ele>3.8</ele>
        <time>2021-07-18T10:35:24Z</time>
      </trkpt>
      <trkpt lat="43.3975190" lon="-4.7161090">
        <ele>3.8</ele>
        <time>2021-07-18T10:35:25Z</time>
      </trkpt>
      <trkpt lat="43.3976140" lon="-4.7163960">
        <ele>3.8</ele>
        <time>2021-07-18T10:35:32Z</time>
      </trkpt>
      <trkpt lat="43.3976110" lon="-4.7164520">
        <ele>3.4</ele>
        <time>2021-07-18T10:35:33Z</time>
      </trkpt>
      <trkpt lat="43.3976080" lon="-4.7165080">
        <ele>3.0</ele>
        <time>2021-07-18T10:35:34Z</time>
      </trkpt>
      <trkpt lat="43.3976080" lon="-4.7165630">
        <ele>2.6</ele>
        <time>2021-07-18T10:35:35Z</time>
      </trkpt>
      <trkpt lat="43.3976100" lon="-4.7166140">
        <ele>2.0</ele>
        <time>2021-07-18T10:35:36Z</time>
      </trkpt>
      <trkpt lat="43.3976140" lon="-4.7166630">
        <ele>1.6</ele>
        <time>2021-07-18T10:35:37Z</time>
      </trkpt>
      <trkpt lat="43.3976180" lon="-4.7167110">
        <ele>1.6</ele>
        <time>2021-07-18T10:35:38Z</time>
      </trkpt>
      <trkpt lat="43.3976310" lon="-4.7168950">
        <ele>1.6</ele>
        <time>2021-07-18T10:35:42Z</time>
      </trkpt>
      <trkpt lat="43.3975900" lon="-4.7170680">
        <ele>1.6</ele>
        <time>2021-07-18T10:35:46Z</time>
      </trkpt>
      <trkpt lat="43.3975100" lon="-4.7171190">
        <ele>1.6</ele>
        <time>2021-07-18T10:35:49Z</time>
      </trkpt>
      <trkpt lat="43.3974790" lon="-4.7171270">
        <ele>1.6</ele>
        <time>2021-07-18T10:35:50Z</time>
      </trkpt>
      <trkpt lat="43.3973180" lon="-4.7172290">
        <ele>1.6</ele>
        <time>2021-07-18T10:35:56Z</time>
      </trkpt>
      <trkpt lat="43.3972720" lon="-4.7173860">
        <ele>1.6</ele>
        <time>2021-07-18T10:36:00Z</time>
      </trkpt>
      <trkpt lat="43.3972760" lon="-4.7174940">
        <ele>1.6</ele>
        <time>2021-07-18T10:36:03Z</time>
      </trkpt>
      <trkpt lat="43.3972670" lon="-4.7176530">
        <ele>1.6</ele>
        <time>2021-07-18T10:36:07Z</time>
      </trkpt>
      <trkpt lat="43.3972700" lon="-4.7178560">
        <ele>1.6</ele>
        <time>2021-07-18T10:36:13Z</time>
      </trkpt>
      <trkpt lat="43.3972520" lon="-4.7180660">
        <ele>2.0</ele>
        <time>2021-07-18T10:36:19Z</time>
      </trkpt>
      <trkpt lat="43.3972450" lon="-4.7180880">
        <ele>2.6</ele>
        <time>2021-07-18T10:36:20Z</time>
      </trkpt>
      <trkpt lat="43.3972320" lon="-4.7181140">
        <ele>3.0</ele>
        <time>2021-07-18T10:36:21Z</time>
      </trkpt>
      <trkpt lat="43.3972240" lon="-4.7181480">
        <ele>3.8</ele>
        <time>2021-07-18T10:36:22Z</time>
      </trkpt>
      <trkpt lat="43.3972030" lon="-4.7182650">
        <ele>3.8</ele>
        <time>2021-07-18T10:36:25Z</time>
      </trkpt>
      <trkpt lat="43.3971780" lon="-4.7183560">
        <ele>4.2</ele>
        <time>2021-07-18T10:36:28Z</time>
      </trkpt>
      <trkpt lat="43.3971670" lon="-4.7183920">
        <ele>4.6</ele>
        <time>2021-07-18T10:36:29Z</time>
      </trkpt>
      <trkpt lat="43.3971580" lon="-4.7184240">
        <ele>5.0</ele>
        <time>2021-07-18T10:36:30Z</time>
      </trkpt>
      <trkpt lat="43.3971500" lon="-4.7184480">
        <ele>5.4</ele>
        <time>2021-07-18T10:36:31Z</time>
      </trkpt>
      <trkpt lat="43.3971410" lon="-4.7184690">
        <ele>5.8</ele>
        <time>2021-07-18T10:36:32Z</time>
      </trkpt>
      <trkpt lat="43.3970860" lon="-4.7186130">
        <ele>5.8</ele>
        <time>2021-07-18T10:36:37Z</time>
      </trkpt>
      <trkpt lat="43.3970130" lon="-4.7187890">
        <ele>6.2</ele>
        <time>2021-07-18T10:36:43Z</time>
      </trkpt>
      <trkpt lat="43.3970040" lon="-4.7188210">
        <ele>6.6</ele>
        <time>2021-07-18T10:36:44Z</time>
      </trkpt>
      <trkpt lat="43.3969960" lon="-4.7188460">
        <ele>7.0</ele>
        <time>2021-07-18T10:36:45Z</time>
      </trkpt>
      <trkpt lat="43.3969890" lon="-4.7188730">
        <ele>7.6</ele>
        <time>2021-07-18T10:36:46Z</time>
      </trkpt>
      <trkpt lat="43.3969840" lon="-4.7188960">
        <ele>8.0</ele>
        <time>2021-07-18T10:36:47Z</time>
      </trkpt>
      <trkpt lat="43.3969680" lon="-4.7190040">
        <ele>8.0</ele>
        <time>2021-07-18T10:36:51Z</time>
      </trkpt>
      <trkpt lat="43.3969310" lon="-4.7192870">
        <ele>8.0</ele>
        <time>2021-07-18T10:36:58Z</time>
      </trkpt>
      <trkpt lat="43.3969250" lon="-4.7194290">
        <ele>8.0</ele>
        <time>2021-07-18T10:37:03Z</time>
      </trkpt>
      <trkpt lat="43.3969110" lon="-4.7194650">
        <ele>8.0</ele>
        <time>2021-07-18T10:37:04Z</time>
      </trkpt>
      <trkpt lat="43.3969000" lon="-4.7195440">
        <ele>8.4</ele>
        <time>2021-07-18T10:37:07Z</time>
      </trkpt>
      <trkpt lat="43.3968920" lon="-4.7195740">
        <ele>8.8</ele>
        <time>2021-07-18T10:37:08Z</time>
      </trkpt>
      <trkpt lat="43.3968790" lon="-4.7196230">
        <ele>9.2</ele>
        <time>2021-07-18T10:37:09Z</time>
      </trkpt>
      <trkpt lat="43.3968720" lon="-4.7196670">
        <ele>9.6</ele>
        <time>2021-07-18T10:37:10Z</time>
      </trkpt>
      <trkpt lat="43.3968590" lon="-4.7197070">
        <ele>10.0</ele>
        <time>2021-07-18T10:37:11Z</time>
      </trkpt>
      <trkpt lat="43.3967780" lon="-4.7199470">
        <ele>10.0</ele>
        <time>2021-07-18T10:37:17Z</time>
      </trkpt>
      <trkpt lat="43.3967030" lon="-4.7202140">
        <ele>10.0</ele>
        <time>2021-07-18T10:37:23Z</time>
      </trkpt>
      <trkpt lat="43.3966530" lon="-4.7204460">
        <ele>10.0</ele>
        <time>2021-07-18T10:37:28Z</time>
      </trkpt>
      <trkpt lat="43.3966140" lon="-4.7205660">
        <ele>10.0</ele>
        <time>2021-07-18T10:37:31Z</time>
      </trkpt>
      <trkpt lat="43.3965710" lon="-4.7206940">
        <ele>10.0</ele>
        <time>2021-07-18T10:37:34Z</time>
      </trkpt>
      <trkpt lat="43.3965260" lon="-4.7208910">
        <ele>10.0</ele>
        <time>2021-07-18T10:37:39Z</time>
      </trkpt>
      <trkpt lat="43.3965020" lon="-4.7210400">
        <ele>10.0</ele>
        <time>2021-07-18T10:37:43Z</time>
      </trkpt>
      <trkpt lat="43.3964960" lon="-4.7211140">
        <ele>10.0</ele>
        <time>2021-07-18T10:37:45Z</time>
      </trkpt>
      <trkpt lat="43.3964590" lon="-4.7213380">
        <ele>10.0</ele>
        <time>2021-07-18T10:37:50Z</time>
      </trkpt>
      <trkpt lat="43.3964050" lon="-4.7215350">
        <ele>10.4</ele>
        <time>2021-07-18T10:37:55Z</time>
      </trkpt>
      <trkpt lat="43.3963960" lon="-4.7215730">
        <ele>10.8</ele>
        <time>2021-07-18T10:37:56Z</time>
      </trkpt>
      <trkpt lat="43.3963920" lon="-4.7216080">
        <ele>11.2</ele>
        <time>2021-07-18T10:37:57Z</time>
      </trkpt>
      <trkpt lat="43.3963860" lon="-4.7216490">
        <ele>11.8</ele>
        <time>2021-07-18T10:37:58Z</time>
      </trkpt>
      <trkpt lat="43.3963880" lon="-4.7216890">
        <ele>12.2</ele>
        <time>2021-07-18T10:37:59Z</time>
      </trkpt>
      <trkpt lat="43.3963800" lon="-4.7217670">
        <ele>12.2</ele>
        <time>2021-07-18T10:38:01Z</time>
      </trkpt>
      <trkpt lat="43.3963280" lon="-4.7220280">
        <ele>12.2</ele>
        <time>2021-07-18T10:38:07Z</time>
      </trkpt>
      <trkpt lat="43.3962640" lon="-4.7222940">
        <ele>12.2</ele>
        <time>2021-07-18T10:38:14Z</time>
      </trkpt>
      <trkpt lat="43.3962520" lon="-4.7223290">
        <ele>12.6</ele>
        <time>2021-07-18T10:38:15Z</time>
      </trkpt>
      <trkpt lat="43.3962430" lon="-4.7223640">
        <ele>13.0</ele>
        <time>2021-07-18T10:38:16Z</time>
      </trkpt>
      <trkpt lat="43.3962400" lon="-4.7223820">
        <ele>13.4</ele>
        <time>2021-07-18T10:38:17Z</time>
      </trkpt>
      <trkpt lat="43.3962390" lon="-4.7223960">
        <ele>13.8</ele>
        <time>2021-07-18T10:38:18Z</time>
      </trkpt>
      <trkpt lat="43.3962400" lon="-4.7223970">
        <ele>14.2</ele>
        <time>2021-07-18T10:38:19Z</time>
      </trkpt>
      <trkpt lat="43.3962400" lon="-4.7224020">
        <ele>14.2</ele>
        <time>2021-07-18T10:38:20Z</time>
      </trkpt>
      <trkpt lat="43.3962270" lon="-4.7224560">
        <ele>14.2</ele>
        <time>2021-07-18T10:39:10Z</time>
      </trkpt>
      <trkpt lat="43.3962260" lon="-4.7224750">
        <ele>14.2</ele>
        <time>2021-07-18T10:39:11Z</time>
      </trkpt>
      <trkpt lat="43.3962250" lon="-4.7224970">
        <ele>14.2</ele>
        <time>2021-07-18T10:39:12Z</time>
      </trkpt>
      <trkpt lat="43.3962190" lon="-4.7225580">
        <ele>14.2</ele>
        <time>2021-07-18T10:39:14Z</time>
      </trkpt>
      <trkpt lat="43.3962060" lon="-4.7226270">
        <ele>14.2</ele>
        <time>2021-07-18T10:39:16Z</time>
      </trkpt>
      <trkpt lat="43.3961880" lon="-4.7227070">
        <ele>14.2</ele>
        <time>2021-07-18T10:39:18Z</time>
      </trkpt>
      <trkpt lat="43.3960920" lon="-4.7229310">
        <ele>14.2</ele>
        <time>2021-07-18T10:39:24Z</time>
      </trkpt>
      <trkpt lat="43.3960700" lon="-4.7229670">
        <ele>14.6</ele>
        <time>2021-07-18T10:39:25Z</time>
      </trkpt>
      <trkpt lat="43.3960520" lon="-4.7230010">
        <ele>15.0</ele>
        <time>2021-07-18T10:39:26Z</time>
      </trkpt>
      <trkpt lat="43.3960360" lon="-4.7230350">
        <ele>15.4</ele>
        <time>2021-07-18T10:39:27Z</time>
      </trkpt>
      <trkpt lat="43.3960230" lon="-4.7230680">
        <ele>15.8</ele>
        <time>2021-07-18T10:39:28Z</time>
      </trkpt>
      <trkpt lat="43.3960120" lon="-4.7231080">
        <ele>16.2</ele>
        <time>2021-07-18T10:39:29Z</time>
      </trkpt>
      <trkpt lat="43.3959940" lon="-4.7231910">
        <ele>16.2</ele>
        <time>2021-07-18T10:39:31Z</time>
      </trkpt>
      <trkpt lat="43.3959690" lon="-4.7233200">
        <ele>16.2</ele>
        <time>2021-07-18T10:39:34Z</time>
      </trkpt>
      <trkpt lat="43.3959200" lon="-4.7235110">
        <ele>16.2</ele>
        <time>2021-07-18T10:39:38Z</time>
      </trkpt>
      <trkpt lat="43.3958820" lon="-4.7237030">
        <ele>16.6</ele>
        <time>2021-07-18T10:39:42Z</time>
      </trkpt>
      <trkpt lat="43.3958730" lon="-4.7237550">
        <ele>17.2</ele>
        <time>2021-07-18T10:39:43Z</time>
      </trkpt>
      <trkpt lat="43.3958610" lon="-4.7238070">
        <ele>17.6</ele>
        <time>2021-07-18T10:39:44Z</time>
      </trkpt>
      <trkpt lat="43.3958510" lon="-4.7238570">
        <ele>18.0</ele>
        <time>2021-07-18T10:39:45Z</time>
      </trkpt>
      <trkpt lat="43.3958420" lon="-4.7239070">
        <ele>18.4</ele>
        <time>2021-07-18T10:39:46Z</time>
      </trkpt>
      <trkpt lat="43.3957690" lon="-4.7242680">
        <ele>18.4</ele>
        <time>2021-07-18T10:39:53Z</time>
      </trkpt>
      <trkpt lat="43.3956880" lon="-4.7246690">
        <ele>18.4</ele>
        <time>2021-07-18T10:40:01Z</time>
      </trkpt>
      <trkpt lat="43.3956130" lon="-4.7250620">
        <ele>18.8</ele>
        <time>2021-07-18T10:40:09Z</time>
      </trkpt>
      <trkpt lat="43.3956020" lon="-4.7251090">
        <ele>19.2</ele>
        <time>2021-07-18T10:40:10Z</time>
      </trkpt>
      <trkpt lat="43.3955880" lon="-4.7251550">
        <ele>19.6</ele>
        <time>2021-07-18T10:40:11Z</time>
      </trkpt>
      <trkpt lat="43.3955730" lon="-4.7252040">
        <ele>20.0</ele>
        <time>2021-07-18T10:40:12Z</time>
      </trkpt>
      <trkpt lat="43.3955650" lon="-4.7252550">
        <ele>20.4</ele>
        <time>2021-07-18T10:40:13Z</time>
      </trkpt>
      <trkpt lat="43.3955390" lon="-4.7254180">
        <ele>20.4</ele>
        <time>2021-07-18T10:40:16Z</time>
      </trkpt>
      <trkpt lat="43.3954820" lon="-4.7257850">
        <ele>20.4</ele>
        <time>2021-07-18T10:40:23Z</time>
      </trkpt>
      <trkpt lat="43.3954040" lon="-4.7261990">
        <ele>20.4</ele>
        <time>2021-07-18T10:40:31Z</time>
      </trkpt>
      <trkpt lat="43.3953920" lon="-4.7262520">
        <ele>20.8</ele>
        <time>2021-07-18T10:40:32Z</time>
      </trkpt>
      <trkpt lat="43.3953800" lon="-4.7263040">
        <ele>21.2</ele>
        <time>2021-07-18T10:40:33Z</time>
      </trkpt>
      <trkpt lat="43.3953690" lon="-4.7263570">
        <ele>21.6</ele>
        <time>2021-07-18T10:40:34Z</time>
      </trkpt>
      <trkpt lat="43.3953610" lon="-4.7264130">
        <ele>22.0</ele>
        <time>2021-07-18T10:40:35Z</time>
      </trkpt>
      <trkpt lat="43.3953490" lon="-4.7264710">
        <ele>22.4</ele>
        <time>2021-07-18T10:40:36Z</time>
      </trkpt>
      <trkpt lat="43.3953310" lon="-4.7265840">
        <ele>22.4</ele>
        <time>2021-07-18T10:40:38Z</time>
      </trkpt>
      <trkpt lat="43.3952740" lon="-4.7269860">
        <ele>22.4</ele>
        <time>2021-07-18T10:40:45Z</time>
      </trkpt>
      <trkpt lat="43.3952660" lon="-4.7274040">
        <ele>22.4</ele>
        <time>2021-07-18T10:40:52Z</time>
      </trkpt>
      <trkpt lat="43.3952960" lon="-4.7279260">
        <ele>22.4</ele>
        <time>2021-07-18T10:41:00Z</time>
      </trkpt>
      <trkpt lat="43.3953650" lon="-4.7284610">
        <ele>22.4</ele>
        <time>2021-07-18T10:41:08Z</time>
      </trkpt>
      <trkpt lat="43.3954870" lon="-4.7289680">
        <ele>22.4</ele>
        <time>2021-07-18T10:41:16Z</time>
      </trkpt>
      <trkpt lat="43.3955910" lon="-4.7292510">
        <ele>22.4</ele>
        <time>2021-07-18T10:41:21Z</time>
      </trkpt>
      <trkpt lat="43.3956330" lon="-4.7293310">
        <ele>22.4</ele>
        <time>2021-07-18T10:41:23Z</time>
      </trkpt>
      <trkpt lat="43.3956720" lon="-4.7294070">
        <ele>22.4</ele>
        <time>2021-07-18T10:41:25Z</time>
      </trkpt>
      <trkpt lat="43.3957270" lon="-4.7295180">
        <ele>22.4</ele>
        <time>2021-07-18T10:41:28Z</time>
      </trkpt>
      <trkpt lat="43.3957700" lon="-4.7296010">
        <ele>22.4</ele>
        <time>2021-07-18T10:41:30Z</time>
      </trkpt>
      <trkpt lat="43.3959300" lon="-4.7299140">
        <ele>22.4</ele>
        <time>2021-07-18T10:41:37Z</time>
      </trkpt>
      <trkpt lat="43.3959560" lon="-4.7299590">
        <ele>22.8</ele>
        <time>2021-07-18T10:41:38Z</time>
      </trkpt>
      <trkpt lat="43.3959830" lon="-4.7300030">
        <ele>23.2</ele>
        <time>2021-07-18T10:41:39Z</time>
      </trkpt>
      <trkpt lat="43.3960090" lon="-4.7300500">
        <ele>23.8</ele>
        <time>2021-07-18T10:41:40Z</time>
      </trkpt>
      <trkpt lat="43.3960350" lon="-4.7300980">
        <ele>24.2</ele>
        <time>2021-07-18T10:41:41Z</time>
      </trkpt>
      <trkpt lat="43.3960640" lon="-4.7301450">
        <ele>24.6</ele>
        <time>2021-07-18T10:41:42Z</time>
      </trkpt>
      <trkpt lat="43.3961550" lon="-4.7302800">
        <ele>24.6</ele>
        <time>2021-07-18T10:41:45Z</time>
      </trkpt>
      <trkpt lat="43.3963270" lon="-4.7305450">
        <ele>24.6</ele>
        <time>2021-07-18T10:41:51Z</time>
      </trkpt>
      <trkpt lat="43.3963850" lon="-4.7306320">
        <ele>24.6</ele>
        <time>2021-07-18T10:41:53Z</time>
      </trkpt>
      <trkpt lat="43.3964590" lon="-4.7307630">
        <ele>24.6</ele>
        <time>2021-07-18T10:41:56Z</time>
      </trkpt>
      <trkpt lat="43.3965760" lon="-4.7309600">
        <ele>24.6</ele>
        <time>2021-07-18T10:42:00Z</time>
      </trkpt>
      <trkpt lat="43.3966360" lon="-4.7310640">
        <ele>24.6</ele>
        <time>2021-07-18T10:42:02Z</time>
      </trkpt>
      <trkpt lat="43.3967150" lon="-4.7312150">
        <ele>24.6</ele>
        <time>2021-07-18T10:42:05Z</time>
      </trkpt>
      <trkpt lat="43.3968190" lon="-4.7313960">
        <ele>24.2</ele>
        <time>2021-07-18T10:42:09Z</time>
      </trkpt>
      <trkpt lat="43.3968450" lon="-4.7314370">
        <ele>23.8</ele>
        <time>2021-07-18T10:42:10Z</time>
      </trkpt>
      <trkpt lat="43.3968690" lon="-4.7314790">
        <ele>23.4</ele>
        <time>2021-07-18T10:42:11Z</time>
      </trkpt>
      <trkpt lat="43.3968940" lon="-4.7315210">
        <ele>23.0</ele>
        <time>2021-07-18T10:42:12Z</time>
      </trkpt>
      <trkpt lat="43.3969200" lon="-4.7315630">
        <ele>22.6</ele>
        <time>2021-07-18T10:42:13Z</time>
      </trkpt>
      <trkpt lat="43.3970550" lon="-4.7317950">
        <ele>22.6</ele>
        <time>2021-07-18T10:42:18Z</time>
      </trkpt>
      <trkpt lat="43.3970810" lon="-4.7318420">
        <ele>22.6</ele>
        <time>2021-07-18T10:42:19Z</time>
      </trkpt>
      <trkpt lat="43.3971360" lon="-4.7319380">
        <ele>22.6</ele>
        <time>2021-07-18T10:42:21Z</time>
      </trkpt>
      <trkpt lat="43.3972180" lon="-4.7320550">
        <ele>22.6</ele>
        <time>2021-07-18T10:42:25Z</time>
      </trkpt>
      <trkpt lat="43.3973190" lon="-4.7322110">
        <ele>22.6</ele>
        <time>2021-07-18T10:42:29Z</time>
      </trkpt>
      <trkpt lat="43.3973770" lon="-4.7323120">
        <ele>22.6</ele>
        <time>2021-07-18T10:42:31Z</time>
      </trkpt>
      <trkpt lat="43.3975040" lon="-4.7325180">
        <ele>22.6</ele>
        <time>2021-07-18T10:42:35Z</time>
      </trkpt>
      <trkpt lat="43.3975680" lon="-4.7326240">
        <ele>22.6</ele>
        <time>2021-07-18T10:42:37Z</time>
      </trkpt>
      <trkpt lat="43.3977360" lon="-4.7329010">
        <ele>22.6</ele>
        <time>2021-07-18T10:42:42Z</time>
      </trkpt>
      <trkpt lat="43.3978040" lon="-4.7330160">
        <ele>22.6</ele>
        <time>2021-07-18T10:42:44Z</time>
      </trkpt>
      <trkpt lat="43.3980110" lon="-4.7333610">
        <ele>22.6</ele>
        <time>2021-07-18T10:42:50Z</time>
      </trkpt>
      <trkpt lat="43.3981810" lon="-4.7336410">
        <ele>22.6</ele>
        <time>2021-07-18T10:42:55Z</time>
      </trkpt>
      <trkpt lat="43.3982750" lon="-4.7337990">
        <ele>22.0</ele>
        <time>2021-07-18T10:42:58Z</time>
      </trkpt>
      <trkpt lat="43.3983070" lon="-4.7338560">
        <ele>21.6</ele>
        <time>2021-07-18T10:42:59Z</time>
      </trkpt>
      <trkpt lat="43.3983400" lon="-4.7339140">
        <ele>21.2</ele>
        <time>2021-07-18T10:43:00Z</time>
      </trkpt>
      <trkpt lat="43.3983710" lon="-4.7339720">
        <ele>20.8</ele>
        <time>2021-07-18T10:43:01Z</time>
      </trkpt>
      <trkpt lat="43.3984020" lon="-4.7340290">
        <ele>20.4</ele>
        <time>2021-07-18T10:43:02Z</time>
      </trkpt>
      <trkpt lat="43.3986200" lon="-4.7343970">
        <ele>20.4</ele>
        <time>2021-07-18T10:43:09Z</time>
      </trkpt>
      <trkpt lat="43.3986490" lon="-4.7344490">
        <ele>20.4</ele>
        <time>2021-07-18T10:43:10Z</time>
      </trkpt>
      <trkpt lat="43.3989260" lon="-4.7349200">
        <ele>20.4</ele>
        <time>2021-07-18T10:43:19Z</time>
      </trkpt>
      <trkpt lat="43.3991810" lon="-4.7353270">
        <ele>20.8</ele>
        <time>2021-07-18T10:43:27Z</time>
      </trkpt>
      <trkpt lat="43.3992080" lon="-4.7353810">
        <ele>21.4</ele>
        <time>2021-07-18T10:43:28Z</time>
      </trkpt>
      <trkpt lat="43.3992330" lon="-4.7354350">
        <ele>21.8</ele>
        <time>2021-07-18T10:43:29Z</time>
      </trkpt>
      <trkpt lat="43.3992610" lon="-4.7354920">
        <ele>22.2</ele>
        <time>2021-07-18T10:43:30Z</time>
      </trkpt>
      <trkpt lat="43.3992910" lon="-4.7355400">
        <ele>22.6</ele>
        <time>2021-07-18T10:43:31Z</time>
      </trkpt>
      <trkpt lat="43.3994690" lon="-4.7358400">
        <ele>22.6</ele>
        <time>2021-07-18T10:43:37Z</time>
      </trkpt>
      <trkpt lat="43.3997170" lon="-4.7362600">
        <ele>22.6</ele>
        <time>2021-07-18T10:43:45Z</time>
      </trkpt>
      <trkpt lat="43.3999940" lon="-4.7367170">
        <ele>22.6</ele>
        <time>2021-07-18T10:43:54Z</time>
      </trkpt>
      <trkpt lat="43.4002430" lon="-4.7371250">
        <ele>22.6</ele>
        <time>2021-07-18T10:44:02Z</time>
      </trkpt>
      <trkpt lat="43.4005590" lon="-4.7376590">
        <ele>22.6</ele>
        <time>2021-07-18T10:44:12Z</time>
      </trkpt>
      <trkpt lat="43.4005910" lon="-4.7377160">
        <ele>23.0</ele>
        <time>2021-07-18T10:44:13Z</time>
      </trkpt>
      <trkpt lat="43.4006230" lon="-4.7377670">
        <ele>23.4</ele>
        <time>2021-07-18T10:44:14Z</time>
      </trkpt>
      <trkpt lat="43.4006560" lon="-4.7378200">
        <ele>23.8</ele>
        <time>2021-07-18T10:44:15Z</time>
      </trkpt>
      <trkpt lat="43.4006870" lon="-4.7378710">
        <ele>24.2</ele>
        <time>2021-07-18T10:44:16Z</time>
      </trkpt>
      <trkpt lat="43.4007180" lon="-4.7379240">
        <ele>24.6</ele>
        <time>2021-07-18T10:44:17Z</time>
      </trkpt>
      <trkpt lat="43.4008790" lon="-4.7381850">
        <ele>24.6</ele>
        <time>2021-07-18T10:44:22Z</time>
      </trkpt>
      <trkpt lat="43.4009810" lon="-4.7383540">
        <ele>24.6</ele>
        <time>2021-07-18T10:44:25Z</time>
      </trkpt>
      <trkpt lat="43.4011890" lon="-4.7386710">
        <ele>24.6</ele>
        <time>2021-07-18T10:44:31Z</time>
      </trkpt>
      <trkpt lat="43.4013230" lon="-4.7389010">
        <ele>24.6</ele>
        <time>2021-07-18T10:44:35Z</time>
      </trkpt>
      <trkpt lat="43.4015030" lon="-4.7391970">
        <ele>24.6</ele>
        <time>2021-07-18T10:44:40Z</time>
      </trkpt>
      <trkpt lat="43.4017370" lon="-4.7395860">
        <ele>24.6</ele>
        <time>2021-07-18T10:44:47Z</time>
      </trkpt>
      <trkpt lat="43.4017700" lon="-4.7396450">
        <ele>24.6</ele>
        <time>2021-07-18T10:44:48Z</time>
      </trkpt>
      <trkpt lat="43.4020000" lon="-4.7400220">
        <ele>24.6</ele>
        <time>2021-07-18T10:44:55Z</time>
      </trkpt>
      <trkpt lat="43.4022980" lon="-4.7405560">
        <ele>24.6</ele>
        <time>2021-07-18T10:45:05Z</time>
      </trkpt>
      <trkpt lat="43.4024160" lon="-4.7407770">
        <ele>24.6</ele>
        <time>2021-07-18T10:45:09Z</time>
      </trkpt>
      <trkpt lat="43.4025210" lon="-4.7409390">
        <ele>24.6</ele>
        <time>2021-07-18T10:45:12Z</time>
      </trkpt>
      <trkpt lat="43.4025640" lon="-4.7409850">
        <ele>24.6</ele>
        <time>2021-07-18T10:45:13Z</time>
      </trkpt>
      <trkpt lat="43.4027420" lon="-4.7411190">
        <ele>24.6</ele>
        <time>2021-07-18T10:45:17Z</time>
      </trkpt>
      <trkpt lat="43.4027960" lon="-4.7412320">
        <ele>25.2</ele>
        <time>2021-07-18T10:45:19Z</time>
      </trkpt>
      <trkpt lat="43.4028160" lon="-4.7412920">
        <ele>25.6</ele>
        <time>2021-07-18T10:45:20Z</time>
      </trkpt>
      <trkpt lat="43.4028290" lon="-4.7413610">
        <ele>26.0</ele>
        <time>2021-07-18T10:45:21Z</time>
      </trkpt>
      <trkpt lat="43.4028320" lon="-4.7414350">
        <ele>26.4</ele>
        <time>2021-07-18T10:45:22Z</time>
      </trkpt>
      <trkpt lat="43.4028290" lon="-4.7415160">
        <ele>26.8</ele>
        <time>2021-07-18T10:45:23Z</time>
      </trkpt>
      <trkpt lat="43.4028240" lon="-4.7415930">
        <ele>26.8</ele>
        <time>2021-07-18T10:45:24Z</time>
      </trkpt>
      <trkpt lat="43.4028260" lon="-4.7417530">
        <ele>26.8</ele>
        <time>2021-07-18T10:45:26Z</time>
      </trkpt>
      <trkpt lat="43.4028860" lon="-4.7419750">
        <ele>26.8</ele>
        <time>2021-07-18T10:45:29Z</time>
      </trkpt>
      <trkpt lat="43.4029080" lon="-4.7420480">
        <ele>26.8</ele>
        <time>2021-07-18T10:45:30Z</time>
      </trkpt>
      <trkpt lat="43.4030220" lon="-4.7425750">
        <ele>26.8</ele>
        <time>2021-07-18T10:45:37Z</time>
      </trkpt>
      <trkpt lat="43.4030700" lon="-4.7429330">
        <ele>26.8</ele>
        <time>2021-07-18T10:45:42Z</time>
      </trkpt>
      <trkpt lat="43.4030830" lon="-4.7430700">
        <ele>26.8</ele>
        <time>2021-07-18T10:45:44Z</time>
      </trkpt>
      <trkpt lat="43.4031140" lon="-4.7436280">
        <ele>26.8</ele>
        <time>2021-07-18T10:45:52Z</time>
      </trkpt>
      <trkpt lat="43.4031140" lon="-4.7437590">
        <ele>26.8</ele>
        <time>2021-07-18T10:45:54Z</time>
      </trkpt>
      <trkpt lat="43.4031060" lon="-4.7441090">
        <ele>26.8</ele>
        <time>2021-07-18T10:46:00Z</time>
      </trkpt>
      <trkpt lat="43.4031110" lon="-4.7442230">
        <ele>26.8</ele>
        <time>2021-07-18T10:46:02Z</time>
      </trkpt>
      <trkpt lat="43.4031140" lon="-4.7444970">
        <ele>26.8</ele>
        <time>2021-07-18T10:46:06Z</time>
      </trkpt>
      <trkpt lat="43.4031170" lon="-4.7451320">
        <ele>26.8</ele>
        <time>2021-07-18T10:46:15Z</time>
      </trkpt>
      <trkpt lat="43.4031280" lon="-4.7454880">
        <ele>26.8</ele>
        <time>2021-07-18T10:46:20Z</time>
      </trkpt>
      <trkpt lat="43.4031580" lon="-4.7457960">
        <ele>26.8</ele>
        <time>2021-07-18T10:46:24Z</time>
      </trkpt>
      <trkpt lat="43.4032090" lon="-4.7460980">
        <ele>26.8</ele>
        <time>2021-07-18T10:46:28Z</time>
      </trkpt>
      <trkpt lat="43.4032720" lon="-4.7463860">
        <ele>26.8</ele>
        <time>2021-07-18T10:46:32Z</time>
      </trkpt>
      <trkpt lat="43.4033590" lon="-4.7466630">
        <ele>26.8</ele>
        <time>2021-07-18T10:46:36Z</time>
      </trkpt>
      <trkpt lat="43.4034270" lon="-4.7468520">
        <ele>26.8</ele>
        <time>2021-07-18T10:46:39Z</time>
      </trkpt>
      <trkpt lat="43.4034710" lon="-4.7469810">
        <ele>26.8</ele>
        <time>2021-07-18T10:46:41Z</time>
      </trkpt>
      <trkpt lat="43.4036060" lon="-4.7474100">
        <ele>26.8</ele>
        <time>2021-07-18T10:46:48Z</time>
      </trkpt>
      <trkpt lat="43.4036500" lon="-4.7475910">
        <ele>27.2</ele>
        <time>2021-07-18T10:46:51Z</time>
      </trkpt>
      <trkpt lat="43.4036630" lon="-4.7476520">
        <ele>27.6</ele>
        <time>2021-07-18T10:46:52Z</time>
      </trkpt>
      <trkpt lat="43.4036760" lon="-4.7477160">
        <ele>28.0</ele>
        <time>2021-07-18T10:46:53Z</time>
      </trkpt>
      <trkpt lat="43.4036900" lon="-4.7477790">
        <ele>28.4</ele>
        <time>2021-07-18T10:46:54Z</time>
      </trkpt>
      <trkpt lat="43.4037050" lon="-4.7478430">
        <ele>28.8</ele>
        <time>2021-07-18T10:46:55Z</time>
      </trkpt>
      <trkpt lat="43.4037180" lon="-4.7479090">
        <ele>28.8</ele>
        <time>2021-07-18T10:46:56Z</time>
      </trkpt>
      <trkpt lat="43.4037500" lon="-4.7481570">
        <ele>28.8</ele>
        <time>2021-07-18T10:47:00Z</time>
      </trkpt>
      <trkpt lat="43.4037640" lon="-4.7482740">
        <ele>28.8</ele>
        <time>2021-07-18T10:47:02Z</time>
      </trkpt>
      <trkpt lat="43.4037740" lon="-4.7483950">
        <ele>28.8</ele>
        <time>2021-07-18T10:47:04Z</time>
      </trkpt>
      <trkpt lat="43.4038060" lon="-4.7489120">
        <ele>28.8</ele>
        <time>2021-07-18T10:47:12Z</time>
      </trkpt>
      <trkpt lat="43.4038230" lon="-4.7493610">
        <ele>28.8</ele>
        <time>2021-07-18T10:47:18Z</time>
      </trkpt>
      <trkpt lat="43.4038230" lon="-4.7494330">
        <ele>28.8</ele>
        <time>2021-07-18T10:47:19Z</time>
      </trkpt>
      <trkpt lat="43.4038270" lon="-4.7495750">
        <ele>28.8</ele>
        <time>2021-07-18T10:47:21Z</time>
      </trkpt>
      <trkpt lat="43.4038320" lon="-4.7497110">
        <ele>28.8</ele>
        <time>2021-07-18T10:47:23Z</time>
      </trkpt>
      <trkpt lat="43.4038360" lon="-4.7499740">
        <ele>28.8</ele>
        <time>2021-07-18T10:47:27Z</time>
      </trkpt>
      <trkpt lat="43.4038540" lon="-4.7505320">
        <ele>28.8</ele>
        <time>2021-07-18T10:47:35Z</time>
      </trkpt>
      <trkpt lat="43.4038640" lon="-4.7508030">
        <ele>28.8</ele>
        <time>2021-07-18T10:47:39Z</time>
      </trkpt>
      <trkpt lat="43.4038640" lon="-4.7510940">
        <ele>28.8</ele>
        <time>2021-07-18T10:47:43Z</time>
      </trkpt>
      <trkpt lat="43.4038710" lon="-4.7512340">
        <ele>28.4</ele>
        <time>2021-07-18T10:47:45Z</time>
      </trkpt>
      <trkpt lat="43.4038720" lon="-4.7513050">
        <ele>28.0</ele>
        <time>2021-07-18T10:47:46Z</time>
      </trkpt>
      <trkpt lat="43.4038790" lon="-4.7513750">
        <ele>27.6</ele>
        <time>2021-07-18T10:47:47Z</time>
      </trkpt>
      <trkpt lat="43.4038820" lon="-4.7514450">
        <ele>27.2</ele>
        <time>2021-07-18T10:47:48Z</time>
      </trkpt>
      <trkpt lat="43.4038840" lon="-4.7515170">
        <ele>26.6</ele>
        <time>2021-07-18T10:47:49Z</time>
      </trkpt>
      <trkpt lat="43.4038910" lon="-4.7516620">
        <ele>26.6</ele>
        <time>2021-07-18T10:47:51Z</time>
      </trkpt>
      <trkpt lat="43.4038930" lon="-4.7518720">
        <ele>26.6</ele>
        <time>2021-07-18T10:47:54Z</time>
      </trkpt>
      <trkpt lat="43.4038940" lon="-4.7520850">
        <ele>26.6</ele>
        <time>2021-07-18T10:47:57Z</time>
      </trkpt>
      <trkpt lat="43.4039020" lon="-4.7523020">
        <ele>26.6</ele>
        <time>2021-07-18T10:48:00Z</time>
      </trkpt>
      <trkpt lat="43.4039080" lon="-4.7526620">
        <ele>26.6</ele>
        <time>2021-07-18T10:48:05Z</time>
      </trkpt>
      <trkpt lat="43.4039180" lon="-4.7529540">
        <ele>26.6</ele>
        <time>2021-07-18T10:48:09Z</time>
      </trkpt>
      <trkpt lat="43.4039240" lon="-4.7531930">
        <ele>26.2</ele>
        <time>2021-07-18T10:48:12Z</time>
      </trkpt>
      <trkpt lat="43.4039280" lon="-4.7532710">
        <ele>25.8</ele>
        <time>2021-07-18T10:48:13Z</time>
      </trkpt>
      <trkpt lat="43.4039280" lon="-4.7533490">
        <ele>25.4</ele>
        <time>2021-07-18T10:48:14Z</time>
      </trkpt>
      <trkpt lat="43.4039310" lon="-4.7534320">
        <ele>25.0</ele>
        <time>2021-07-18T10:48:15Z</time>
      </trkpt>
      <trkpt lat="43.4039320" lon="-4.7535150">
        <ele>24.6</ele>
        <time>2021-07-18T10:48:16Z</time>
      </trkpt>
      <trkpt lat="43.4039330" lon="-4.7536000">
        <ele>24.6</ele>
        <time>2021-07-18T10:48:17Z</time>
      </trkpt>
      <trkpt lat="43.4039360" lon="-4.7537750">
        <ele>24.2</ele>
        <time>2021-07-18T10:48:19Z</time>
      </trkpt>
      <trkpt lat="43.4039400" lon="-4.7538700">
        <ele>23.2</ele>
        <time>2021-07-18T10:48:20Z</time>
      </trkpt>
      <trkpt lat="43.4039450" lon="-4.7539630">
        <ele>22.6</ele>
        <time>2021-07-18T10:48:21Z</time>
      </trkpt>
      <trkpt lat="43.4039480" lon="-4.7540580">
        <ele>22.2</ele>
        <time>2021-07-18T10:48:22Z</time>
      </trkpt>
      <trkpt lat="43.4039530" lon="-4.7542520">
        <ele>22.2</ele>
        <time>2021-07-18T10:48:24Z</time>
      </trkpt>
      <trkpt lat="43.4039640" lon="-4.7544540">
        <ele>22.2</ele>
        <time>2021-07-18T10:48:26Z</time>
      </trkpt>
      <trkpt lat="43.4039780" lon="-4.7547770">
        <ele>21.8</ele>
        <time>2021-07-18T10:48:29Z</time>
      </trkpt>
      <trkpt lat="43.4039820" lon="-4.7548870">
        <ele>21.2</ele>
        <time>2021-07-18T10:48:30Z</time>
      </trkpt>
      <trkpt lat="43.4039890" lon="-4.7549970">
        <ele>20.8</ele>
        <time>2021-07-18T10:48:31Z</time>
      </trkpt>
      <trkpt lat="43.4039970" lon="-4.7551080">
        <ele>20.4</ele>
        <time>2021-07-18T10:48:32Z</time>
      </trkpt>
      <trkpt lat="43.4040050" lon="-4.7552230">
        <ele>19.8</ele>
        <time>2021-07-18T10:48:33Z</time>
      </trkpt>
      <trkpt lat="43.4040530" lon="-4.7559310">
        <ele>19.4</ele>
        <time>2021-07-18T10:48:39Z</time>
      </trkpt>
      <trkpt lat="43.4040620" lon="-4.7560530">
        <ele>19.0</ele>
        <time>2021-07-18T10:48:40Z</time>
      </trkpt>
      <trkpt lat="43.4040730" lon="-4.7561740">
        <ele>18.6</ele>
        <time>2021-07-18T10:48:41Z</time>
      </trkpt>
      <trkpt lat="43.4040850" lon="-4.7563020">
        <ele>18.2</ele>
        <time>2021-07-18T10:48:42Z</time>
      </trkpt>
      <trkpt lat="43.4040970" lon="-4.7564220">
        <ele>17.6</ele>
        <time>2021-07-18T10:48:43Z</time>
      </trkpt>
      <trkpt lat="43.4041090" lon="-4.7565450">
        <ele>17.2</ele>
        <time>2021-07-18T10:48:44Z</time>
      </trkpt>
      <trkpt lat="43.4041230" lon="-4.7566680">
        <ele>16.4</ele>
        <time>2021-07-18T10:48:45Z</time>
      </trkpt>
      <trkpt lat="43.4041340" lon="-4.7567920">
        <ele>16.0</ele>
        <time>2021-07-18T10:48:46Z</time>
      </trkpt>
      <trkpt lat="43.4041450" lon="-4.7569140">
        <ele>15.6</ele>
        <time>2021-07-18T10:48:47Z</time>
      </trkpt>
      <trkpt lat="43.4041880" lon="-4.7572780">
        <ele>15.6</ele>
        <time>2021-07-18T10:48:50Z</time>
      </trkpt>
      <trkpt lat="43.4042500" lon="-4.7579230">
        <ele>15.2</ele>
        <time>2021-07-18T10:48:56Z</time>
      </trkpt>
      <trkpt lat="43.4042570" lon="-4.7580120">
        <ele>14.8</ele>
        <time>2021-07-18T10:48:57Z</time>
      </trkpt>
      <trkpt lat="43.4042640" lon="-4.7580980">
        <ele>14.2</ele>
        <time>2021-07-18T10:48:58Z</time>
      </trkpt>
      <trkpt lat="43.4042720" lon="-4.7581720">
        <ele>13.8</ele>
        <time>2021-07-18T10:48:59Z</time>
      </trkpt>
      <trkpt lat="43.4042800" lon="-4.7582410">
        <ele>13.4</ele>
        <time>2021-07-18T10:49:00Z</time>
      </trkpt>
      <trkpt lat="43.4042820" lon="-4.7583050">
        <ele>13.4</ele>
        <time>2021-07-18T10:49:01Z</time>
      </trkpt>
      <trkpt lat="43.4042870" lon="-4.7584270">
        <ele>13.4</ele>
        <time>2021-07-18T10:49:03Z</time>
      </trkpt>
      <trkpt lat="43.4042860" lon="-4.7584880">
        <ele>13.4</ele>
        <time>2021-07-18T10:49:04Z</time>
      </trkpt>
      <trkpt lat="43.4042860" lon="-4.7585510">
        <ele>13.4</ele>
        <time>2021-07-18T10:49:05Z</time>
      </trkpt>
      <trkpt lat="43.4042870" lon="-4.7586130">
        <ele>13.4</ele>
        <time>2021-07-18T10:49:06Z</time>
      </trkpt>
      <trkpt lat="43.4042860" lon="-4.7586700">
        <ele>13.4</ele>
        <time>2021-07-18T10:49:07Z</time>
      </trkpt>
      <trkpt lat="43.4042860" lon="-4.7587280">
        <ele>13.4</ele>
        <time>2021-07-18T10:49:08Z</time>
      </trkpt>
      <trkpt lat="43.4042890" lon="-4.7587850">
        <ele>13.4</ele>
        <time>2021-07-18T10:49:09Z</time>
      </trkpt>
      <trkpt lat="43.4042900" lon="-4.7588390">
        <ele>13.4</ele>
        <time>2021-07-18T10:49:10Z</time>
      </trkpt>
      <trkpt lat="43.4042920" lon="-4.7589360">
        <ele>13.4</ele>
        <time>2021-07-18T10:49:12Z</time>
      </trkpt>
      <trkpt lat="43.4042880" lon="-4.7589840">
        <ele>13.4</ele>
        <time>2021-07-18T10:49:13Z</time>
      </trkpt>
      <trkpt lat="43.4042830" lon="-4.7590780">
        <ele>13.4</ele>
        <time>2021-07-18T10:49:15Z</time>
      </trkpt>
      <trkpt lat="43.4042850" lon="-4.7591680">
        <ele>13.4</ele>
        <time>2021-07-18T10:49:17Z</time>
      </trkpt>
      <trkpt lat="43.4042850" lon="-4.7592950">
        <ele>13.4</ele>
        <time>2021-07-18T10:49:20Z</time>
      </trkpt>
      <trkpt lat="43.4042860" lon="-4.7593390">
        <ele>13.8</ele>
        <time>2021-07-18T10:49:21Z</time>
      </trkpt>
      <trkpt lat="43.4042830" lon="-4.7593840">
        <ele>14.2</ele>
        <time>2021-07-18T10:49:22Z</time>
      </trkpt>
      <trkpt lat="43.4042840" lon="-4.7594270">
        <ele>14.6</ele>
        <time>2021-07-18T10:49:23Z</time>
      </trkpt>
      <trkpt lat="43.4042860" lon="-4.7594720">
        <ele>15.2</ele>
        <time>2021-07-18T10:49:24Z</time>
      </trkpt>
      <trkpt lat="43.4042880" lon="-4.7595180">
        <ele>15.6</ele>
        <time>2021-07-18T10:49:25Z</time>
      </trkpt>
      <trkpt lat="43.4043070" lon="-4.7596910">
        <ele>15.6</ele>
        <time>2021-07-18T10:49:29Z</time>
      </trkpt>
      <trkpt lat="43.4043170" lon="-4.7597310">
        <ele>16.0</ele>
        <time>2021-07-18T10:49:30Z</time>
      </trkpt>
      <trkpt lat="43.4043320" lon="-4.7597680">
        <ele>16.4</ele>
        <time>2021-07-18T10:49:31Z</time>
      </trkpt>
      <trkpt lat="43.4043470" lon="-4.7598040">
        <ele>16.8</ele>
        <time>2021-07-18T10:49:32Z</time>
      </trkpt>
      <trkpt lat="43.4043690" lon="-4.7598330">
        <ele>17.2</ele>
        <time>2021-07-18T10:49:33Z</time>
      </trkpt>
      <trkpt lat="43.4043990" lon="-4.7598580">
        <ele>17.6</ele>
        <time>2021-07-18T10:49:34Z</time>
      </trkpt>
      <trkpt lat="43.4044300" lon="-4.7598790">
        <ele>17.6</ele>
        <time>2021-07-18T10:49:35Z</time>
      </trkpt>
      <trkpt lat="43.4045570" lon="-4.7598980">
        <ele>17.6</ele>
        <time>2021-07-18T10:49:39Z</time>
      </trkpt>
      <trkpt lat="43.4045970" lon="-4.7599010">
        <ele>17.6</ele>
        <time>2021-07-18T10:49:40Z</time>
      </trkpt>
      <trkpt lat="43.4046400" lon="-4.7599140">
        <ele>17.6</ele>
        <time>2021-07-18T10:49:41Z</time>
      </trkpt>
      <trkpt lat="43.4048720" lon="-4.7599500">
        <ele>17.6</ele>
        <time>2021-07-18T10:49:46Z</time>
      </trkpt>
      <trkpt lat="43.4049190" lon="-4.7599400">
        <ele>17.6</ele>
        <time>2021-07-18T10:49:47Z</time>
      </trkpt>
      <trkpt lat="43.4051070" lon="-4.7598600">
        <ele>17.6</ele>
        <time>2021-07-18T10:49:51Z</time>
      </trkpt>
      <trkpt lat="43.4051540" lon="-4.7598350">
        <ele>17.6</ele>
        <time>2021-07-18T10:49:52Z</time>
      </trkpt>
      <trkpt lat="43.4052450" lon="-4.7597660">
        <ele>17.6</ele>
        <time>2021-07-18T10:49:54Z</time>
      </trkpt>
      <trkpt lat="43.4053260" lon="-4.7596770">
        <ele>17.6</ele>
        <time>2021-07-18T10:49:56Z</time>
      </trkpt>
      <trkpt lat="43.4053550" lon="-4.7596270">
        <ele>17.6</ele>
        <time>2021-07-18T10:49:57Z</time>
      </trkpt>
      <trkpt lat="43.4054290" lon="-4.7595300">
        <ele>17.6</ele>
        <time>2021-07-18T10:49:59Z</time>
      </trkpt>
      <trkpt lat="43.4054720" lon="-4.7594930">
        <ele>17.6</ele>
        <time>2021-07-18T10:50:00Z</time>
      </trkpt>
      <trkpt lat="43.4055180" lon="-4.7594680">
        <ele>17.6</ele>
        <time>2021-07-18T10:50:01Z</time>
      </trkpt>
      <trkpt lat="43.4055610" lon="-4.7594440">
        <ele>17.6</ele>
        <time>2021-07-18T10:50:02Z</time>
      </trkpt>
      <trkpt lat="43.4056090" lon="-4.7594290">
        <ele>17.6</ele>
        <time>2021-07-18T10:50:03Z</time>
      </trkpt>
      <trkpt lat="43.4056600" lon="-4.7594280">
        <ele>17.6</ele>
        <time>2021-07-18T10:50:04Z</time>
      </trkpt>
      <trkpt lat="43.4057090" lon="-4.7594220">
        <ele>17.6</ele>
        <time>2021-07-18T10:50:05Z</time>
      </trkpt>
      <trkpt lat="43.4057670" lon="-4.7594100">
        <ele>17.6</ele>
        <time>2021-07-18T10:50:06Z</time>
      </trkpt>
      <trkpt lat="43.4058210" lon="-4.7593950">
        <ele>17.6</ele>
        <time>2021-07-18T10:50:07Z</time>
      </trkpt>
      <trkpt lat="43.4059270" lon="-4.7593470">
        <ele>17.6</ele>
        <time>2021-07-18T10:50:09Z</time>
      </trkpt>
      <trkpt lat="43.4060390" lon="-4.7592870">
        <ele>17.2</ele>
        <time>2021-07-18T10:50:11Z</time>
      </trkpt>
      <trkpt lat="43.4060950" lon="-4.7592540">
        <ele>16.8</ele>
        <time>2021-07-18T10:50:12Z</time>
      </trkpt>
      <trkpt lat="43.4061500" lon="-4.7592200">
        <ele>16.4</ele>
        <time>2021-07-18T10:50:13Z</time>
      </trkpt>
      <trkpt lat="43.4062040" lon="-4.7591860">
        <ele>16.0</ele>
        <time>2021-07-18T10:50:14Z</time>
      </trkpt>
      <trkpt lat="43.4062620" lon="-4.7591540">
        <ele>15.6</ele>
        <time>2021-07-18T10:50:15Z</time>
      </trkpt>
      <trkpt lat="43.4066780" lon="-4.7588780">
        <ele>15.6</ele>
        <time>2021-07-18T10:50:22Z</time>
      </trkpt>
      <trkpt lat="43.4067410" lon="-4.7588380">
        <ele>15.2</ele>
        <time>2021-07-18T10:50:23Z</time>
      </trkpt>
      <trkpt lat="43.4068040" lon="-4.7587970">
        <ele>14.8</ele>
        <time>2021-07-18T10:50:24Z</time>
      </trkpt>
      <trkpt lat="43.4068640" lon="-4.7587540">
        <ele>14.2</ele>
        <time>2021-07-18T10:50:25Z</time>
      </trkpt>
      <trkpt lat="43.4069270" lon="-4.7587120">
        <ele>13.8</ele>
        <time>2021-07-18T10:50:26Z</time>
      </trkpt>
      <trkpt lat="43.4069850" lon="-4.7586680">
        <ele>13.4</ele>
        <time>2021-07-18T10:50:27Z</time>
      </trkpt>
      <trkpt lat="43.4071670" lon="-4.7585520">
        <ele>13.0</ele>
        <time>2021-07-18T10:50:30Z</time>
      </trkpt>
      <trkpt lat="43.4072280" lon="-4.7585120">
        <ele>12.6</ele>
        <time>2021-07-18T10:50:31Z</time>
      </trkpt>
      <trkpt lat="43.4072880" lon="-4.7584690">
        <ele>12.2</ele>
        <time>2021-07-18T10:50:32Z</time>
      </trkpt>
      <trkpt lat="43.4073480" lon="-4.7584260">
        <ele>11.6</ele>
        <time>2021-07-18T10:50:33Z</time>
      </trkpt>
      <trkpt lat="43.4074090" lon="-4.7583810">
        <ele>11.2</ele>
        <time>2021-07-18T10:50:34Z</time>
      </trkpt>
      <trkpt lat="43.4076720" lon="-4.7581980">
        <ele>11.2</ele>
        <time>2021-07-18T10:50:38Z</time>
      </trkpt>
      <trkpt lat="43.4077410" lon="-4.7581510">
        <ele>11.2</ele>
        <time>2021-07-18T10:50:39Z</time>
      </trkpt>
      <trkpt lat="43.4078080" lon="-4.7581050">
        <ele>10.8</ele>
        <time>2021-07-18T10:50:40Z</time>
      </trkpt>
      <trkpt lat="43.4078770" lon="-4.7580570">
        <ele>10.4</ele>
        <time>2021-07-18T10:50:41Z</time>
      </trkpt>
      <trkpt lat="43.4079480" lon="-4.7580100">
        <ele>10.0</ele>
        <time>2021-07-18T10:50:42Z</time>
      </trkpt>
      <trkpt lat="43.4080160" lon="-4.7579570">
        <ele>9.4</ele>
        <time>2021-07-18T10:50:43Z</time>
      </trkpt>
      <trkpt lat="43.4080910" lon="-4.7579060">
        <ele>9.0</ele>
        <time>2021-07-18T10:50:44Z</time>
      </trkpt>
      <trkpt lat="43.4083130" lon="-4.7577530">
        <ele>8.2</ele>
        <time>2021-07-18T10:50:47Z</time>
      </trkpt>
      <trkpt lat="43.4083850" lon="-4.7577020">
        <ele>7.8</ele>
        <time>2021-07-18T10:50:48Z</time>
      </trkpt>
      <trkpt lat="43.4084620" lon="-4.7576470">
        <ele>7.4</ele>
        <time>2021-07-18T10:50:49Z</time>
      </trkpt>
      <trkpt lat="43.4085410" lon="-4.7575960">
        <ele>7.0</ele>
        <time>2021-07-18T10:50:50Z</time>
      </trkpt>
      <trkpt lat="43.4089250" lon="-4.7573190">
        <ele>6.4</ele>
        <time>2021-07-18T10:50:55Z</time>
      </trkpt>
      <trkpt lat="43.4089960" lon="-4.7572630">
        <ele>5.8</ele>
        <time>2021-07-18T10:50:56Z</time>
      </trkpt>
      <trkpt lat="43.4090680" lon="-4.7572080">
        <ele>5.2</ele>
        <time>2021-07-18T10:50:57Z</time>
      </trkpt>
      <trkpt lat="43.4091330" lon="-4.7571550">
        <ele>4.6</ele>
        <time>2021-07-18T10:50:58Z</time>
      </trkpt>
      <trkpt lat="43.4092030" lon="-4.7571030">
        <ele>4.0</ele>
        <time>2021-07-18T10:50:59Z</time>
      </trkpt>
      <trkpt lat="43.4092690" lon="-4.7570540">
        <ele>3.6</ele>
        <time>2021-07-18T10:51:00Z</time>
      </trkpt>
      <trkpt lat="43.4093330" lon="-4.7570050">
        <ele>3.2</ele>
        <time>2021-07-18T10:51:01Z</time>
      </trkpt>
      <trkpt lat="43.4093950" lon="-4.7569550">
        <ele>2.6</ele>
        <time>2021-07-18T10:51:02Z</time>
      </trkpt>
      <trkpt lat="43.4094530" lon="-4.7569040">
        <ele>2.2</ele>
        <time>2021-07-18T10:51:03Z</time>
      </trkpt>
      <trkpt lat="43.4095060" lon="-4.7568540">
        <ele>1.8</ele>
        <time>2021-07-18T10:51:04Z</time>
      </trkpt>
      <trkpt lat="43.4096180" lon="-4.7567450">
        <ele>1.4</ele>
        <time>2021-07-18T10:51:06Z</time>
      </trkpt>
      <trkpt lat="43.4096730" lon="-4.7566940">
        <ele>1.0</ele>
        <time>2021-07-18T10:51:07Z</time>
      </trkpt>
      <trkpt lat="43.4097270" lon="-4.7566430">
        <ele>0.4</ele>
        <time>2021-07-18T10:51:08Z</time>
      </trkpt>
      <trkpt lat="43.4097790" lon="-4.7565920">
        <ele>0.0</ele>
        <time>2021-07-18T10:51:09Z</time>
      </trkpt>
      <trkpt lat="43.4098310" lon="-4.7565430">
        <ele>-0.4</ele>
        <time>2021-07-18T10:51:10Z</time>
      </trkpt>
      <trkpt lat="43.4099670" lon="-4.7564010">
        <ele>-0.4</ele>
        <time>2021-07-18T10:51:13Z</time>
      </trkpt>
      <trkpt lat="43.4101440" lon="-4.7562110">
        <ele>-0.4</ele>
        <time>2021-07-18T10:51:17Z</time>
      </trkpt>
      <trkpt lat="43.4102280" lon="-4.7561150">
        <ele>-0.4</ele>
        <time>2021-07-18T10:51:19Z</time>
      </trkpt>
      <trkpt lat="43.4103160" lon="-4.7560190">
        <ele>-0.4</ele>
        <time>2021-07-18T10:51:21Z</time>
      </trkpt>
      <trkpt lat="43.4103590" lon="-4.7559690">
        <ele>-0.4</ele>
        <time>2021-07-18T10:51:22Z</time>
      </trkpt>
      <trkpt lat="43.4104940" lon="-4.7558310">
        <ele>-0.4</ele>
        <time>2021-07-18T10:51:25Z</time>
      </trkpt>
      <trkpt lat="43.4106270" lon="-4.7556830">
        <ele>-0.4</ele>
        <time>2021-07-18T10:51:28Z</time>
      </trkpt>
      <trkpt lat="43.4108020" lon="-4.7554930">
        <ele>-0.4</ele>
        <time>2021-07-18T10:51:32Z</time>
      </trkpt>
      <trkpt lat="43.4108450" lon="-4.7554480">
        <ele>-0.8</ele>
        <time>2021-07-18T10:51:33Z</time>
      </trkpt>
      <trkpt lat="43.4108880" lon="-4.7554040">
        <ele>-1.2</ele>
        <time>2021-07-18T10:51:34Z</time>
      </trkpt>
      <trkpt lat="43.4109290" lon="-4.7553590">
        <ele>-1.6</ele>
        <time>2021-07-18T10:51:35Z</time>
      </trkpt>
      <trkpt lat="43.4109720" lon="-4.7553130">
        <ele>-2.0</ele>
        <time>2021-07-18T10:51:36Z</time>
      </trkpt>
      <trkpt lat="43.4110150" lon="-4.7552700">
        <ele>-2.4</ele>
        <time>2021-07-18T10:51:37Z</time>
      </trkpt>
      <trkpt lat="43.4111350" lon="-4.7551370">
        <ele>-2.4</ele>
        <time>2021-07-18T10:51:40Z</time>
      </trkpt>
      <trkpt lat="43.4114540" lon="-4.7547950">
        <ele>-2.4</ele>
        <time>2021-07-18T10:51:48Z</time>
      </trkpt>
      <trkpt lat="43.4115720" lon="-4.7546590">
        <ele>-2.4</ele>
        <time>2021-07-18T10:51:51Z</time>
      </trkpt>
      <trkpt lat="43.4117280" lon="-4.7544890">
        <ele>-2.4</ele>
        <time>2021-07-18T10:51:55Z</time>
      </trkpt>
      <trkpt lat="43.4119790" lon="-4.7542540">
        <ele>-2.4</ele>
        <time>2021-07-18T10:52:01Z</time>
      </trkpt>
      <trkpt lat="43.4120960" lon="-4.7541300">
        <ele>-2.4</ele>
        <time>2021-07-18T10:52:04Z</time>
      </trkpt>
      <trkpt lat="43.4122470" lon="-4.7539520">
        <ele>-2.4</ele>
        <time>2021-07-18T10:52:08Z</time>
      </trkpt>
      <trkpt lat="43.4123700" lon="-4.7538050">
        <ele>-2.4</ele>
        <time>2021-07-18T10:52:11Z</time>
      </trkpt>
      <trkpt lat="43.4125060" lon="-4.7536470">
        <ele>-2.4</ele>
        <time>2021-07-18T10:52:14Z</time>
      </trkpt>
      <trkpt lat="43.4125520" lon="-4.7535940">
        <ele>-2.8</ele>
        <time>2021-07-18T10:52:15Z</time>
      </trkpt>
      <trkpt lat="43.4125980" lon="-4.7535370">
        <ele>-3.2</ele>
        <time>2021-07-18T10:52:16Z</time>
      </trkpt>
      <trkpt lat="43.4126440" lon="-4.7534790">
        <ele>-3.6</ele>
        <time>2021-07-18T10:52:17Z</time>
      </trkpt>
      <trkpt lat="43.4126910" lon="-4.7534250">
        <ele>-4.0</ele>
        <time>2021-07-18T10:52:18Z</time>
      </trkpt>
      <trkpt lat="43.4127400" lon="-4.7533710">
        <ele>-4.6</ele>
        <time>2021-07-18T10:52:19Z</time>
      </trkpt>
      <trkpt lat="43.4128860" lon="-4.7532040">
        <ele>-5.0</ele>
        <time>2021-07-18T10:52:22Z</time>
      </trkpt>
      <trkpt lat="43.4129310" lon="-4.7531510">
        <ele>-5.4</ele>
        <time>2021-07-18T10:52:23Z</time>
      </trkpt>
      <trkpt lat="43.4129760" lon="-4.7530990">
        <ele>-5.8</ele>
        <time>2021-07-18T10:52:24Z</time>
      </trkpt>
      <trkpt lat="43.4130200" lon="-4.7530460">
        <ele>-6.2</ele>
        <time>2021-07-18T10:52:25Z</time>
      </trkpt>
      <trkpt lat="43.4130640" lon="-4.7529940">
        <ele>-6.6</ele>
        <time>2021-07-18T10:52:26Z</time>
      </trkpt>
      <trkpt lat="43.4131430" lon="-4.7528950">
        <ele>-7.0</ele>
        <time>2021-07-18T10:52:28Z</time>
      </trkpt>
      <trkpt lat="43.4131760" lon="-4.7528510">
        <ele>-7.4</ele>
        <time>2021-07-18T10:52:29Z</time>
      </trkpt>
      <trkpt lat="43.4132050" lon="-4.7528120">
        <ele>-7.8</ele>
        <time>2021-07-18T10:52:30Z</time>
      </trkpt>
      <trkpt lat="43.4132310" lon="-4.7527740">
        <ele>-8.2</ele>
        <time>2021-07-18T10:52:31Z</time>
      </trkpt>
      <trkpt lat="43.4132470" lon="-4.7527420">
        <ele>-8.8</ele>
        <time>2021-07-18T10:52:32Z</time>
      </trkpt>
      <trkpt lat="43.4132560" lon="-4.7527170">
        <ele>-9.2</ele>
        <time>2021-07-18T10:52:33Z</time>
      </trkpt>
      <trkpt lat="43.4132650" lon="-4.7526860">
        <ele>-9.8</ele>
        <time>2021-07-18T10:52:34Z</time>
      </trkpt>
      <trkpt lat="43.4132790" lon="-4.7526480">
        <ele>-10.2</ele>
        <time>2021-07-18T10:52:35Z</time>
      </trkpt>
      <trkpt lat="43.4132960" lon="-4.7526000">
        <ele>-10.6</ele>
        <time>2021-07-18T10:52:36Z</time>
      </trkpt>
      <trkpt lat="43.4133230" lon="-4.7525580">
        <ele>-10.6</ele>
        <time>2021-07-18T10:52:37Z</time>
      </trkpt>
      <trkpt lat="43.4134010" lon="-4.7525060">
        <ele>-10.6</ele>
        <time>2021-07-18T10:52:39Z</time>
      </trkpt>
      <trkpt lat="43.4134890" lon="-4.7525190">
        <ele>-10.6</ele>
        <time>2021-07-18T10:52:41Z</time>
      </trkpt>
      <trkpt lat="43.4135330" lon="-4.7525520">
        <ele>-10.6</ele>
        <time>2021-07-18T10:52:42Z</time>
      </trkpt>
      <trkpt lat="43.4136150" lon="-4.7527230">
        <ele>-10.6</ele>
        <time>2021-07-18T10:52:45Z</time>
      </trkpt>
      <trkpt lat="43.4135960" lon="-4.7529610">
        <ele>-10.6</ele>
        <time>2021-07-18T10:52:49Z</time>
      </trkpt>
      <trkpt lat="43.4135840" lon="-4.7530180">
        <ele>-10.6</ele>
        <time>2021-07-18T10:52:50Z</time>
      </trkpt>
      <trkpt lat="43.4135740" lon="-4.7531440">
        <ele>-10.6</ele>
        <time>2021-07-18T10:52:52Z</time>
      </trkpt>
      <trkpt lat="43.4135840" lon="-4.7532700">
        <ele>-10.6</ele>
        <time>2021-07-18T10:52:54Z</time>
      </trkpt>
      <trkpt lat="43.4136150" lon="-4.7533980">
        <ele>-10.6</ele>
        <time>2021-07-18T10:52:56Z</time>
      </trkpt>
      <trkpt lat="43.4136340" lon="-4.7534630">
        <ele>-10.6</ele>
        <time>2021-07-18T10:52:57Z</time>
      </trkpt>
      <trkpt lat="43.4136780" lon="-4.7535910">
        <ele>-10.6</ele>
        <time>2021-07-18T10:52:59Z</time>
      </trkpt>
      <trkpt lat="43.4137060" lon="-4.7536550">
        <ele>-10.6</ele>
        <time>2021-07-18T10:53:00Z</time>
      </trkpt>
      <trkpt lat="43.4138580" lon="-4.7539350">
        <ele>-10.6</ele>
        <time>2021-07-18T10:53:05Z</time>
      </trkpt>
      <trkpt lat="43.4140110" lon="-4.7543010">
        <ele>-10.6</ele>
        <time>2021-07-18T10:53:11Z</time>
      </trkpt>
      <trkpt lat="43.4140640" lon="-4.7545180">
        <ele>-10.6</ele>
        <time>2021-07-18T10:53:14Z</time>
      </trkpt>
      <trkpt lat="43.4140980" lon="-4.7546690">
        <ele>-11.4</ele>
        <time>2021-07-18T10:53:16Z</time>
      </trkpt>
      <trkpt lat="43.4141160" lon="-4.7547420">
        <ele>-11.8</ele>
        <time>2021-07-18T10:53:17Z</time>
      </trkpt>
      <trkpt lat="43.4141330" lon="-4.7548140">
        <ele>-12.2</ele>
        <time>2021-07-18T10:53:18Z</time>
      </trkpt>
      <trkpt lat="43.4141510" lon="-4.7548860">
        <ele>-12.6</ele>
        <time>2021-07-18T10:53:19Z</time>
      </trkpt>
      <trkpt lat="43.4142940" lon="-4.7555070">
        <ele>-12.6</ele>
        <time>2021-07-18T10:53:28Z</time>
      </trkpt>
      <trkpt lat="43.4143840" lon="-4.7558760">
        <ele>-12.6</ele>
        <time>2021-07-18T10:53:33Z</time>
      </trkpt>
      <trkpt lat="43.4144470" lon="-4.7560950">
        <ele>-12.6</ele>
        <time>2021-07-18T10:53:36Z</time>
      </trkpt>
      <trkpt lat="43.4144940" lon="-4.7562350">
        <ele>-12.6</ele>
        <time>2021-07-18T10:53:38Z</time>
      </trkpt>
      <trkpt lat="43.4145410" lon="-4.7563680">
        <ele>-12.6</ele>
        <time>2021-07-18T10:53:40Z</time>
      </trkpt>
      <trkpt lat="43.4146360" lon="-4.7566140">
        <ele>-12.6</ele>
        <time>2021-07-18T10:53:44Z</time>
      </trkpt>
      <trkpt lat="43.4147690" lon="-4.7569190">
        <ele>-12.6</ele>
        <time>2021-07-18T10:53:49Z</time>
      </trkpt>
      <trkpt lat="43.4148260" lon="-4.7570380">
        <ele>-12.6</ele>
        <time>2021-07-18T10:53:51Z</time>
      </trkpt>
      <trkpt lat="43.4148840" lon="-4.7571530">
        <ele>-12.6</ele>
        <time>2021-07-18T10:53:53Z</time>
      </trkpt>
      <trkpt lat="43.4149680" lon="-4.7573190">
        <ele>-12.6</ele>
        <time>2021-07-18T10:53:56Z</time>
      </trkpt>
      <trkpt lat="43.4150950" lon="-4.7575110">
        <ele>-12.6</ele>
        <time>2021-07-18T10:54:00Z</time>
      </trkpt>
      <trkpt lat="43.4152150" lon="-4.7575860">
        <ele>-12.6</ele>
        <time>2021-07-18T10:54:03Z</time>
      </trkpt>
      <trkpt lat="43.4152570" lon="-4.7575860">
        <ele>-12.6</ele>
        <time>2021-07-18T10:54:04Z</time>
      </trkpt>
      <trkpt lat="43.4153790" lon="-4.7575770">
        <ele>-12.6</ele>
        <time>2021-07-18T10:54:07Z</time>
      </trkpt>
      <trkpt lat="43.4154500" lon="-4.7576180">
        <ele>-12.6</ele>
        <time>2021-07-18T10:54:09Z</time>
      </trkpt>
      <trkpt lat="43.4155200" lon="-4.7577660">
        <ele>-12.6</ele>
        <time>2021-07-18T10:54:13Z</time>
      </trkpt>
      <trkpt lat="43.4155310" lon="-4.7578150">
        <ele>-12.6</ele>
        <time>2021-07-18T10:54:14Z</time>
      </trkpt>
      <trkpt lat="43.4155040" lon="-4.7580140">
        <ele>-12.6</ele>
        <time>2021-07-18T10:54:18Z</time>
      </trkpt>
      <trkpt lat="43.4154640" lon="-4.7581640">
        <ele>-12.6</ele>
        <time>2021-07-18T10:54:21Z</time>
      </trkpt>
      <trkpt lat="43.4154650" lon="-4.7582780">
        <ele>-12.6</ele>
        <time>2021-07-18T10:54:23Z</time>
      </trkpt>
      <trkpt lat="43.4155110" lon="-4.7584810">
        <ele>-12.2</ele>
        <time>2021-07-18T10:54:27Z</time>
      </trkpt>
      <trkpt lat="43.4155280" lon="-4.7585260">
        <ele>-11.8</ele>
        <time>2021-07-18T10:54:28Z</time>
      </trkpt>
      <trkpt lat="43.4155450" lon="-4.7585700">
        <ele>-11.4</ele>
        <time>2021-07-18T10:54:29Z</time>
      </trkpt>
      <trkpt lat="43.4155610" lon="-4.7586140">
        <ele>-10.6</ele>
        <time>2021-07-18T10:54:30Z</time>
      </trkpt>
      <trkpt lat="43.4156150" lon="-4.7587410">
        <ele>-10.6</ele>
        <time>2021-07-18T10:54:33Z</time>
      </trkpt>
      <trkpt lat="43.4156790" lon="-4.7588670">
        <ele>-10.2</ele>
        <time>2021-07-18T10:54:36Z</time>
      </trkpt>
      <trkpt lat="43.4157000" lon="-4.7589120">
        <ele>-9.8</ele>
        <time>2021-07-18T10:54:37Z</time>
      </trkpt>
      <trkpt lat="43.4157200" lon="-4.7589580">
        <ele>-9.2</ele>
        <time>2021-07-18T10:54:38Z</time>
      </trkpt>
      <trkpt lat="43.4157420" lon="-4.7590060">
        <ele>-8.8</ele>
        <time>2021-07-18T10:54:39Z</time>
      </trkpt>
      <trkpt lat="43.4157630" lon="-4.7590520">
        <ele>-8.4</ele>
        <time>2021-07-18T10:54:40Z</time>
      </trkpt>
      <trkpt lat="43.4158480" lon="-4.7592280">
        <ele>-8.4</ele>
        <time>2021-07-18T10:54:44Z</time>
      </trkpt>
      <trkpt lat="43.4158850" lon="-4.7593180">
        <ele>-8.4</ele>
        <time>2021-07-18T10:54:46Z</time>
      </trkpt>
      <trkpt lat="43.4159200" lon="-4.7594050">
        <ele>-8.0</ele>
        <time>2021-07-18T10:54:48Z</time>
      </trkpt>
      <trkpt lat="43.4159390" lon="-4.7594460">
        <ele>-7.4</ele>
        <time>2021-07-18T10:54:49Z</time>
      </trkpt>
      <trkpt lat="43.4159580" lon="-4.7594870">
        <ele>-7.0</ele>
        <time>2021-07-18T10:54:50Z</time>
      </trkpt>
      <trkpt lat="43.4159770" lon="-4.7595260">
        <ele>-6.6</ele>
        <time>2021-07-18T10:54:51Z</time>
      </trkpt>
      <trkpt lat="43.4159950" lon="-4.7595670">
        <ele>-6.2</ele>
        <time>2021-07-18T10:54:52Z</time>
      </trkpt>
      <trkpt lat="43.4160340" lon="-4.7596470">
        <ele>-6.2</ele>
        <time>2021-07-18T10:54:54Z</time>
      </trkpt>
      <trkpt lat="43.4161510" lon="-4.7598930">
        <ele>-5.8</ele>
        <time>2021-07-18T10:55:00Z</time>
      </trkpt>
      <trkpt lat="43.4161690" lon="-4.7599390">
        <ele>-5.4</ele>
        <time>2021-07-18T10:55:01Z</time>
      </trkpt>
      <trkpt lat="43.4161890" lon="-4.7599880">
        <ele>-5.0</ele>
        <time>2021-07-18T10:55:02Z</time>
      </trkpt>
      <trkpt lat="43.4162080" lon="-4.7600340">
        <ele>-4.6</ele>
        <time>2021-07-18T10:55:03Z</time>
      </trkpt>
      <trkpt lat="43.4162270" lon="-4.7600760">
        <ele>-4.2</ele>
        <time>2021-07-18T10:55:04Z</time>
      </trkpt>
      <trkpt lat="43.4163570" lon="-4.7603900">
        <ele>-4.2</ele>
        <time>2021-07-18T10:55:12Z</time>
      </trkpt>
      <trkpt lat="43.4163740" lon="-4.7604280">
        <ele>-4.2</ele>
        <time>2021-07-18T10:55:13Z</time>
      </trkpt>
      <trkpt lat="43.4164320" lon="-4.7605630">
        <ele>-4.2</ele>
        <time>2021-07-18T10:55:17Z</time>
      </trkpt>
      <trkpt lat="43.4164820" lon="-4.7606670">
        <ele>-4.2</ele>
        <time>2021-07-18T10:55:20Z</time>
      </trkpt>
      <trkpt lat="43.4165020" lon="-4.7607140">
        <ele>-4.2</ele>
        <time>2021-07-18T10:55:23Z</time>
      </trkpt>
      <trkpt lat="43.4165230" lon="-4.7607520">
        <ele>-6.2</ele>
        <time>2021-07-18T10:57:41Z</time>
      </trkpt>
      <trkpt lat="43.4165330" lon="-4.7607720">
        <ele>-6.2</ele>
        <time>2021-07-18T10:57:42Z</time>
      </trkpt>
      <trkpt lat="43.4166040" lon="-4.7609200">
        <ele>-6.2</ele>
        <time>2021-07-18T10:57:46Z</time>
      </trkpt>
      <trkpt lat="43.4166760" lon="-4.7610990">
        <ele>-6.2</ele>
        <time>2021-07-18T10:57:49Z</time>
      </trkpt>
      <trkpt lat="43.4167640" lon="-4.7613020">
        <ele>-6.2</ele>
        <time>2021-07-18T10:57:52Z</time>
      </trkpt>
      <trkpt lat="43.4170020" lon="-4.7618860">
        <ele>-6.2</ele>
        <time>2021-07-18T10:57:59Z</time>
      </trkpt>
      <trkpt lat="43.4170350" lon="-4.7619760">
        <ele>-6.6</ele>
        <time>2021-07-18T10:58:00Z</time>
      </trkpt>
      <trkpt lat="43.4170690" lon="-4.7620670">
        <ele>-7.2</ele>
        <time>2021-07-18T10:58:01Z</time>
      </trkpt>
      <trkpt lat="43.4171020" lon="-4.7621640">
        <ele>-7.6</ele>
        <time>2021-07-18T10:58:02Z</time>
      </trkpt>
      <trkpt lat="43.4171340" lon="-4.7622550">
        <ele>-8.0</ele>
        <time>2021-07-18T10:58:03Z</time>
      </trkpt>
      <trkpt lat="43.4171610" lon="-4.7623450">
        <ele>-8.6</ele>
        <time>2021-07-18T10:58:04Z</time>
      </trkpt>
      <trkpt lat="43.4172290" lon="-4.7626120">
        <ele>-9.0</ele>
        <time>2021-07-18T10:58:07Z</time>
      </trkpt>
      <trkpt lat="43.4172470" lon="-4.7627010">
        <ele>-9.4</ele>
        <time>2021-07-18T10:58:08Z</time>
      </trkpt>
      <trkpt lat="43.4172630" lon="-4.7627880">
        <ele>-9.8</ele>
        <time>2021-07-18T10:58:09Z</time>
      </trkpt>
      <trkpt lat="43.4172770" lon="-4.7628740">
        <ele>-10.2</ele>
        <time>2021-07-18T10:58:10Z</time>
      </trkpt>
      <trkpt lat="43.4172900" lon="-4.7629530">
        <ele>-10.6</ele>
        <time>2021-07-18T10:58:11Z</time>
      </trkpt>
      <trkpt lat="43.4173100" lon="-4.7631050">
        <ele>-10.6</ele>
        <time>2021-07-18T10:58:13Z</time>
      </trkpt>
      <trkpt lat="43.4173320" lon="-4.7633850">
        <ele>-10.6</ele>
        <time>2021-07-18T10:58:17Z</time>
      </trkpt>
      <trkpt lat="43.4173450" lon="-4.7635230">
        <ele>-10.6</ele>
        <time>2021-07-18T10:58:19Z</time>
      </trkpt>
      <trkpt lat="43.4173500" lon="-4.7635910">
        <ele>-10.6</ele>
        <time>2021-07-18T10:58:20Z</time>
      </trkpt>
      <trkpt lat="43.4173560" lon="-4.7637230">
        <ele>-10.6</ele>
        <time>2021-07-18T10:58:22Z</time>
      </trkpt>
      <trkpt lat="43.4173590" lon="-4.7637900">
        <ele>-10.6</ele>
        <time>2021-07-18T10:58:23Z</time>
      </trkpt>
      <trkpt lat="43.4173690" lon="-4.7639270">
        <ele>-10.6</ele>
        <time>2021-07-18T10:58:25Z</time>
      </trkpt>
      <trkpt lat="43.4173800" lon="-4.7640570">
        <ele>-10.6</ele>
        <time>2021-07-18T10:58:27Z</time>
      </trkpt>
      <trkpt lat="43.4173840" lon="-4.7641210">
        <ele>-10.6</ele>
        <time>2021-07-18T10:58:28Z</time>
      </trkpt>
      <trkpt lat="43.4173920" lon="-4.7642470">
        <ele>-10.6</ele>
        <time>2021-07-18T10:58:30Z</time>
      </trkpt>
      <trkpt lat="43.4173960" lon="-4.7643110">
        <ele>-10.2</ele>
        <time>2021-07-18T10:58:31Z</time>
      </trkpt>
      <trkpt lat="43.4173990" lon="-4.7643790">
        <ele>-9.8</ele>
        <time>2021-07-18T10:58:32Z</time>
      </trkpt>
      <trkpt lat="43.4174030" lon="-4.7644430">
        <ele>-9.4</ele>
        <time>2021-07-18T10:58:33Z</time>
      </trkpt>
      <trkpt lat="43.4174070" lon="-4.7645050">
        <ele>-8.8</ele>
        <time>2021-07-18T10:58:34Z</time>
      </trkpt>
      <trkpt lat="43.4174110" lon="-4.7645660">
        <ele>-8.4</ele>
        <time>2021-07-18T10:58:35Z</time>
      </trkpt>
      <trkpt lat="43.4174180" lon="-4.7646870">
        <ele>-8.4</ele>
        <time>2021-07-18T10:58:37Z</time>
      </trkpt>
      <trkpt lat="43.4174310" lon="-4.7649240">
        <ele>-8.4</ele>
        <time>2021-07-18T10:58:41Z</time>
      </trkpt>
      <trkpt lat="43.4174470" lon="-4.7651690">
        <ele>-8.0</ele>
        <time>2021-07-18T10:58:45Z</time>
      </trkpt>
      <trkpt lat="43.4174500" lon="-4.7652290">
        <ele>-7.6</ele>
        <time>2021-07-18T10:58:46Z</time>
      </trkpt>
      <trkpt lat="43.4174520" lon="-4.7652920">
        <ele>-7.2</ele>
        <time>2021-07-18T10:58:47Z</time>
      </trkpt>
      <trkpt lat="43.4174560" lon="-4.7653510">
        <ele>-6.8</ele>
        <time>2021-07-18T10:58:48Z</time>
      </trkpt>
      <trkpt lat="43.4174610" lon="-4.7654080">
        <ele>-6.4</ele>
        <time>2021-07-18T10:58:49Z</time>
      </trkpt>
      <trkpt lat="43.4174910" lon="-4.7657050">
        <ele>-6.4</ele>
        <time>2021-07-18T10:58:54Z</time>
      </trkpt>
      <trkpt lat="43.4175170" lon="-4.7659350">
        <ele>-6.0</ele>
        <time>2021-07-18T10:58:58Z</time>
      </trkpt>
      <trkpt lat="43.4175260" lon="-4.7659890">
        <ele>-5.6</ele>
        <time>2021-07-18T10:58:59Z</time>
      </trkpt>
      <trkpt lat="43.4175360" lon="-4.7660440">
        <ele>-5.2</ele>
        <time>2021-07-18T10:59:00Z</time>
      </trkpt>
      <trkpt lat="43.4175480" lon="-4.7660990">
        <ele>-4.8</ele>
        <time>2021-07-18T10:59:01Z</time>
      </trkpt>
      <trkpt lat="43.4175590" lon="-4.7661560">
        <ele>-4.4</ele>
        <time>2021-07-18T10:59:02Z</time>
      </trkpt>
      <trkpt lat="43.4175720" lon="-4.7662110">
        <ele>-4.4</ele>
        <time>2021-07-18T10:59:03Z</time>
      </trkpt>
      <trkpt lat="43.4176850" lon="-4.7666360">
        <ele>-4.0</ele>
        <time>2021-07-18T10:59:11Z</time>
      </trkpt>
      <trkpt lat="43.4177000" lon="-4.7666860">
        <ele>-3.6</ele>
        <time>2021-07-18T10:59:12Z</time>
      </trkpt>
      <trkpt lat="43.4177210" lon="-4.7667350">
        <ele>-3.2</ele>
        <time>2021-07-18T10:59:13Z</time>
      </trkpt>
      <trkpt lat="43.4177390" lon="-4.7667850">
        <ele>-2.8</ele>
        <time>2021-07-18T10:59:14Z</time>
      </trkpt>
      <trkpt lat="43.4177570" lon="-4.7668350">
        <ele>-2.4</ele>
        <time>2021-07-18T10:59:15Z</time>
      </trkpt>
      <trkpt lat="43.4178180" lon="-4.7669900">
        <ele>-2.4</ele>
        <time>2021-07-18T10:59:18Z</time>
      </trkpt>
      <trkpt lat="43.4179920" lon="-4.7673830">
        <ele>-2.0</ele>
        <time>2021-07-18T10:59:26Z</time>
      </trkpt>
      <trkpt lat="43.4180160" lon="-4.7674330">
        <ele>-1.0</ele>
        <time>2021-07-18T10:59:27Z</time>
      </trkpt>
      <trkpt lat="43.4180410" lon="-4.7674840">
        <ele>-0.6</ele>
        <time>2021-07-18T10:59:28Z</time>
      </trkpt>
      <trkpt lat="43.4180680" lon="-4.7675320">
        <ele>-0.2</ele>
        <time>2021-07-18T10:59:29Z</time>
      </trkpt>
      <trkpt lat="43.4182020" lon="-4.7677750">
        <ele>-0.2</ele>
        <time>2021-07-18T10:59:34Z</time>
      </trkpt>
      <trkpt lat="43.4184400" lon="-4.7682160">
        <ele>-0.2</ele>
        <time>2021-07-18T10:59:42Z</time>
      </trkpt>
      <trkpt lat="43.4184700" lon="-4.7682720">
        <ele>-0.2</ele>
        <time>2021-07-18T10:59:43Z</time>
      </trkpt>
      <trkpt lat="43.4185590" lon="-4.7684480">
        <ele>-0.2</ele>
        <time>2021-07-18T10:59:46Z</time>
      </trkpt>
      <trkpt lat="43.4186560" lon="-4.7686440">
        <ele>-0.2</ele>
        <time>2021-07-18T10:59:49Z</time>
      </trkpt>
      <trkpt lat="43.4186900" lon="-4.7687120">
        <ele>-0.2</ele>
        <time>2021-07-18T10:59:50Z</time>
      </trkpt>
      <trkpt lat="43.4187610" lon="-4.7688560">
        <ele>-0.2</ele>
        <time>2021-07-18T10:59:52Z</time>
      </trkpt>
      <trkpt lat="43.4188350" lon="-4.7690050">
        <ele>-0.2</ele>
        <time>2021-07-18T10:59:54Z</time>
      </trkpt>
      <trkpt lat="43.4189160" lon="-4.7691620">
        <ele>-0.2</ele>
        <time>2021-07-18T10:59:56Z</time>
      </trkpt>
      <trkpt lat="43.4189570" lon="-4.7692410">
        <ele>-0.2</ele>
        <time>2021-07-18T10:59:57Z</time>
      </trkpt>
      <trkpt lat="43.4190000" lon="-4.7693190">
        <ele>-0.2</ele>
        <time>2021-07-18T10:59:58Z</time>
      </trkpt>
      <trkpt lat="43.4190410" lon="-4.7693990">
        <ele>-0.6</ele>
        <time>2021-07-18T10:59:59Z</time>
      </trkpt>
      <trkpt lat="43.4190830" lon="-4.7694820">
        <ele>-1.2</ele>
        <time>2021-07-18T11:00:00Z</time>
      </trkpt>
      <trkpt lat="43.4191270" lon="-4.7695630">
        <ele>-1.6</ele>
        <time>2021-07-18T11:00:01Z</time>
      </trkpt>
      <trkpt lat="43.4191700" lon="-4.7696460">
        <ele>-2.2</ele>
        <time>2021-07-18T11:00:02Z</time>
      </trkpt>
      <trkpt lat="43.4192160" lon="-4.7697360">
        <ele>-2.6</ele>
        <time>2021-07-18T11:00:03Z</time>
      </trkpt>
      <trkpt lat="43.4193050" lon="-4.7699060">
        <ele>-2.6</ele>
        <time>2021-07-18T11:00:05Z</time>
      </trkpt>
      <trkpt lat="43.4194810" lon="-4.7702370">
        <ele>-3.0</ele>
        <time>2021-07-18T11:00:09Z</time>
      </trkpt>
      <trkpt lat="43.4195270" lon="-4.7703250">
        <ele>-3.4</ele>
        <time>2021-07-18T11:00:10Z</time>
      </trkpt>
      <trkpt lat="43.4195710" lon="-4.7704120">
        <ele>-3.8</ele>
        <time>2021-07-18T11:00:11Z</time>
      </trkpt>
      <trkpt lat="43.4196150" lon="-4.7704990">
        <ele>-4.4</ele>
        <time>2021-07-18T11:00:12Z</time>
      </trkpt>
      <trkpt lat="43.4196590" lon="-4.7705840">
        <ele>-4.8</ele>
        <time>2021-07-18T11:00:13Z</time>
      </trkpt>
      <trkpt lat="43.4197500" lon="-4.7707480">
        <ele>-5.2</ele>
        <time>2021-07-18T11:00:15Z</time>
      </trkpt>
      <trkpt lat="43.4197960" lon="-4.7708240">
        <ele>-6.0</ele>
        <time>2021-07-18T11:00:16Z</time>
      </trkpt>
      <trkpt lat="43.4198410" lon="-4.7708950">
        <ele>-6.6</ele>
        <time>2021-07-18T11:00:17Z</time>
      </trkpt>
      <trkpt lat="43.4198820" lon="-4.7709580">
        <ele>-7.0</ele>
        <time>2021-07-18T11:00:18Z</time>
      </trkpt>
      <trkpt lat="43.4199220" lon="-4.7710140">
        <ele>-7.0</ele>
        <time>2021-07-18T11:00:19Z</time>
      </trkpt>
      <trkpt lat="43.4199660" lon="-4.7710530">
        <ele>-7.0</ele>
        <time>2021-07-18T11:00:20Z</time>
      </trkpt>
      <trkpt lat="43.4200140" lon="-4.7710750">
        <ele>-7.4</ele>
        <time>2021-07-18T11:00:21Z</time>
      </trkpt>
      <trkpt lat="43.4200620" lon="-4.7710880">
        <ele>-7.8</ele>
        <time>2021-07-18T11:00:22Z</time>
      </trkpt>
      <trkpt lat="43.4201120" lon="-4.7711000">
        <ele>-8.4</ele>
        <time>2021-07-18T11:00:23Z</time>
      </trkpt>
      <trkpt lat="43.4201600" lon="-4.7711150">
        <ele>-8.8</ele>
        <time>2021-07-18T11:00:24Z</time>
      </trkpt>
      <trkpt lat="43.4202080" lon="-4.7711410">
        <ele>-9.2</ele>
        <time>2021-07-18T11:00:25Z</time>
      </trkpt>
      <trkpt lat="43.4202940" lon="-4.7712140">
        <ele>-9.2</ele>
        <time>2021-07-18T11:00:27Z</time>
      </trkpt>
      <trkpt lat="43.4204650" lon="-4.7713860">
        <ele>-9.2</ele>
        <time>2021-07-18T11:00:31Z</time>
      </trkpt>
      <trkpt lat="43.4205150" lon="-4.7714150">
        <ele>-9.2</ele>
        <time>2021-07-18T11:00:32Z</time>
      </trkpt>
      <trkpt lat="43.4207180" lon="-4.7714510">
        <ele>-9.2</ele>
        <time>2021-07-18T11:00:36Z</time>
      </trkpt>
      <trkpt lat="43.4207660" lon="-4.7714510">
        <ele>-9.2</ele>
        <time>2021-07-18T11:00:37Z</time>
      </trkpt>
      <trkpt lat="43.4208550" lon="-4.7714510">
        <ele>-9.2</ele>
        <time>2021-07-18T11:00:39Z</time>
      </trkpt>
      <trkpt lat="43.4210270" lon="-4.7714540">
        <ele>-9.2</ele>
        <time>2021-07-18T11:00:43Z</time>
      </trkpt>
      <trkpt lat="43.4210690" lon="-4.7714570">
        <ele>-9.2</ele>
        <time>2021-07-18T11:00:44Z</time>
      </trkpt>
      <trkpt lat="43.4211530" lon="-4.7714610">
        <ele>-9.2</ele>
        <time>2021-07-18T11:00:46Z</time>
      </trkpt>
      <trkpt lat="43.4212350" lon="-4.7714670">
        <ele>-9.2</ele>
        <time>2021-07-18T11:00:48Z</time>
      </trkpt>
      <trkpt lat="43.4213530" lon="-4.7714770">
        <ele>-9.2</ele>
        <time>2021-07-18T11:00:51Z</time>
      </trkpt>
      <trkpt lat="43.4214690" lon="-4.7714930">
        <ele>-9.2</ele>
        <time>2021-07-18T11:00:54Z</time>
      </trkpt>
      <trkpt lat="43.4215480" lon="-4.7715080">
        <ele>-8.8</ele>
        <time>2021-07-18T11:00:56Z</time>
      </trkpt>
      <trkpt lat="43.4215880" lon="-4.7715140">
        <ele>-8.4</ele>
        <time>2021-07-18T11:00:57Z</time>
      </trkpt>
      <trkpt lat="43.4216290" lon="-4.7715190">
        <ele>-8.0</ele>
        <time>2021-07-18T11:00:58Z</time>
      </trkpt>
      <trkpt lat="43.4216690" lon="-4.7715250">
        <ele>-7.6</ele>
        <time>2021-07-18T11:00:59Z</time>
      </trkpt>
      <trkpt lat="43.4217060" lon="-4.7715350">
        <ele>-7.2</ele>
        <time>2021-07-18T11:01:00Z</time>
      </trkpt>
      <trkpt lat="43.4218990" lon="-4.7715730">
        <ele>-6.8</ele>
        <time>2021-07-18T11:01:05Z</time>
      </trkpt>
      <trkpt lat="43.4219400" lon="-4.7715860">
        <ele>-6.2</ele>
        <time>2021-07-18T11:01:06Z</time>
      </trkpt>
      <trkpt lat="43.4219790" lon="-4.7715960">
        <ele>-5.8</ele>
        <time>2021-07-18T11:01:07Z</time>
      </trkpt>
      <trkpt lat="43.4220180" lon="-4.7716040">
        <ele>-5.4</ele>
        <time>2021-07-18T11:01:08Z</time>
      </trkpt>
      <trkpt lat="43.4220580" lon="-4.7716140">
        <ele>-5.0</ele>
        <time>2021-07-18T11:01:09Z</time>
      </trkpt>
      <trkpt lat="43.4222860" lon="-4.7716810">
        <ele>-5.0</ele>
        <time>2021-07-18T11:01:15Z</time>
      </trkpt>
      <trkpt lat="43.4225930" lon="-4.7717840">
        <ele>-4.6</ele>
        <time>2021-07-18T11:01:23Z</time>
      </trkpt>
      <trkpt lat="43.4226310" lon="-4.7717980">
        <ele>-4.2</ele>
        <time>2021-07-18T11:01:24Z</time>
      </trkpt>
      <trkpt lat="43.4226700" lon="-4.7718130">
        <ele>-3.8</ele>
        <time>2021-07-18T11:01:25Z</time>
      </trkpt>
      <trkpt lat="43.4227100" lon="-4.7718250">
        <ele>-3.2</ele>
        <time>2021-07-18T11:01:26Z</time>
      </trkpt>
      <trkpt lat="43.4227510" lon="-4.7718380">
        <ele>-2.8</ele>
        <time>2021-07-18T11:01:27Z</time>
      </trkpt>
      <trkpt lat="43.4229090" lon="-4.7718970">
        <ele>-2.8</ele>
        <time>2021-07-18T11:01:31Z</time>
      </trkpt>
      <trkpt lat="43.4232200" lon="-4.7720180">
        <ele>-2.8</ele>
        <time>2021-07-18T11:01:39Z</time>
      </trkpt>
      <trkpt lat="43.4235700" lon="-4.7721330">
        <ele>-2.8</ele>
        <time>2021-07-18T11:01:48Z</time>
      </trkpt>
      <trkpt lat="43.4238780" lon="-4.7722320">
        <ele>-2.8</ele>
        <time>2021-07-18T11:01:56Z</time>
      </trkpt>
      <trkpt lat="43.4239500" lon="-4.7722520">
        <ele>-2.4</ele>
        <time>2021-07-18T11:01:58Z</time>
      </trkpt>
      <trkpt lat="43.4239870" lon="-4.7722630">
        <ele>-2.0</ele>
        <time>2021-07-18T11:01:59Z</time>
      </trkpt>
      <trkpt lat="43.4240240" lon="-4.7722780">
        <ele>-1.6</ele>
        <time>2021-07-18T11:02:00Z</time>
      </trkpt>
      <trkpt lat="43.4240600" lon="-4.7722920">
        <ele>-1.2</ele>
        <time>2021-07-18T11:02:01Z</time>
      </trkpt>
      <trkpt lat="43.4240960" lon="-4.7723060">
        <ele>-0.8</ele>
        <time>2021-07-18T11:02:02Z</time>
      </trkpt>
      <trkpt lat="43.4242090" lon="-4.7723430">
        <ele>-0.8</ele>
        <time>2021-07-18T11:02:05Z</time>
      </trkpt>
      <trkpt lat="43.4243630" lon="-4.7723990">
        <ele>-0.8</ele>
        <time>2021-07-18T11:02:09Z</time>
      </trkpt>
      <trkpt lat="43.4244440" lon="-4.7724290">
        <ele>-0.8</ele>
        <time>2021-07-18T11:02:11Z</time>
      </trkpt>
      <trkpt lat="43.4244850" lon="-4.7724470">
        <ele>-0.8</ele>
        <time>2021-07-18T11:02:12Z</time>
      </trkpt>
      <trkpt lat="43.4245260" lon="-4.7724620">
        <ele>-0.8</ele>
        <time>2021-07-18T11:02:13Z</time>
      </trkpt>
      <trkpt lat="43.4246120" lon="-4.7724980">
        <ele>-0.8</ele>
        <time>2021-07-18T11:02:15Z</time>
      </trkpt>
      <trkpt lat="43.4248390" lon="-4.7726510">
        <ele>-0.8</ele>
        <time>2021-07-18T11:02:20Z</time>
      </trkpt>
      <trkpt lat="43.4248850" lon="-4.7727050">
        <ele>-0.8</ele>
        <time>2021-07-18T11:02:21Z</time>
      </trkpt>
      <trkpt lat="43.4249940" lon="-4.7729320">
        <ele>-0.8</ele>
        <time>2021-07-18T11:02:24Z</time>
      </trkpt>
      <trkpt lat="43.4250170" lon="-4.7730300">
        <ele>-1.2</ele>
        <time>2021-07-18T11:02:25Z</time>
      </trkpt>
      <trkpt lat="43.4250250" lon="-4.7731340">
        <ele>-1.6</ele>
        <time>2021-07-18T11:02:26Z</time>
      </trkpt>
      <trkpt lat="43.4250220" lon="-4.7732420">
        <ele>-2.0</ele>
        <time>2021-07-18T11:02:27Z</time>
      </trkpt>
      <trkpt lat="43.4250100" lon="-4.7733540">
        <ele>-2.4</ele>
        <time>2021-07-18T11:02:28Z</time>
      </trkpt>
      <trkpt lat="43.4249930" lon="-4.7734670">
        <ele>-3.0</ele>
        <time>2021-07-18T11:02:29Z</time>
      </trkpt>
      <trkpt lat="43.4249750" lon="-4.7735790">
        <ele>-3.6</ele>
        <time>2021-07-18T11:02:30Z</time>
      </trkpt>
      <trkpt lat="43.4249640" lon="-4.7736840">
        <ele>-4.0</ele>
        <time>2021-07-18T11:02:31Z</time>
      </trkpt>
      <trkpt lat="43.4249520" lon="-4.7737840">
        <ele>-4.6</ele>
        <time>2021-07-18T11:02:32Z</time>
      </trkpt>
      <trkpt lat="43.4249290" lon="-4.7738720">
        <ele>-5.2</ele>
        <time>2021-07-18T11:02:33Z</time>
      </trkpt>
      <trkpt lat="43.4248950" lon="-4.7739550">
        <ele>-5.2</ele>
        <time>2021-07-18T11:02:34Z</time>
      </trkpt>
      <trkpt lat="43.4247440" lon="-4.7741280">
        <ele>-5.2</ele>
        <time>2021-07-18T11:02:37Z</time>
      </trkpt>
      <trkpt lat="43.4246930" lon="-4.7741780">
        <ele>-5.6</ele>
        <time>2021-07-18T11:02:38Z</time>
      </trkpt>
      <trkpt lat="43.4246470" lon="-4.7742390">
        <ele>-6.0</ele>
        <time>2021-07-18T11:02:39Z</time>
      </trkpt>
      <trkpt lat="43.4246080" lon="-4.7743130">
        <ele>-6.4</ele>
        <time>2021-07-18T11:02:40Z</time>
      </trkpt>
      <trkpt lat="43.4245790" lon="-4.7743910">
        <ele>-6.8</ele>
        <time>2021-07-18T11:02:41Z</time>
      </trkpt>
      <trkpt lat="43.4245580" lon="-4.7744720">
        <ele>-7.4</ele>
        <time>2021-07-18T11:02:42Z</time>
      </trkpt>
      <trkpt lat="43.4245420" lon="-4.7747260">
        <ele>-7.8</ele>
        <time>2021-07-18T11:02:45Z</time>
      </trkpt>
      <trkpt lat="43.4245470" lon="-4.7748100">
        <ele>-8.2</ele>
        <time>2021-07-18T11:02:46Z</time>
      </trkpt>
      <trkpt lat="43.4245520" lon="-4.7748950">
        <ele>-8.6</ele>
        <time>2021-07-18T11:02:47Z</time>
      </trkpt>
      <trkpt lat="43.4245570" lon="-4.7749720">
        <ele>-9.0</ele>
        <time>2021-07-18T11:02:48Z</time>
      </trkpt>
      <trkpt lat="43.4245630" lon="-4.7750490">
        <ele>-9.4</ele>
        <time>2021-07-18T11:02:49Z</time>
      </trkpt>
      <trkpt lat="43.4245720" lon="-4.7752620">
        <ele>-9.4</ele>
        <time>2021-07-18T11:02:52Z</time>
      </trkpt>
      <trkpt lat="43.4245860" lon="-4.7754080">
        <ele>-9.4</ele>
        <time>2021-07-18T11:02:54Z</time>
      </trkpt>
      <trkpt lat="43.4245920" lon="-4.7755630">
        <ele>-9.4</ele>
        <time>2021-07-18T11:02:56Z</time>
      </trkpt>
      <trkpt lat="43.4245990" lon="-4.7757170">
        <ele>-9.4</ele>
        <time>2021-07-18T11:02:58Z</time>
      </trkpt>
      <trkpt lat="43.4246030" lon="-4.7757940">
        <ele>-9.4</ele>
        <time>2021-07-18T11:02:59Z</time>
      </trkpt>
      <trkpt lat="43.4246300" lon="-4.7763150">
        <ele>-9.4</ele>
        <time>2021-07-18T11:03:06Z</time>
      </trkpt>
      <trkpt lat="43.4246380" lon="-4.7765210">
        <ele>-9.4</ele>
        <time>2021-07-18T11:03:09Z</time>
      </trkpt>
      <trkpt lat="43.4246490" lon="-4.7768040">
        <ele>-9.4</ele>
        <time>2021-07-18T11:03:13Z</time>
      </trkpt>
      <trkpt lat="43.4246580" lon="-4.7771000">
        <ele>-9.4</ele>
        <time>2021-07-18T11:03:17Z</time>
      </trkpt>
      <trkpt lat="43.4246570" lon="-4.7773900">
        <ele>-9.4</ele>
        <time>2021-07-18T11:03:21Z</time>
      </trkpt>
      <trkpt lat="43.4246460" lon="-4.7777420">
        <ele>-9.4</ele>
        <time>2021-07-18T11:03:26Z</time>
      </trkpt>
      <trkpt lat="43.4246300" lon="-4.7780040">
        <ele>-9.4</ele>
        <time>2021-07-18T11:03:30Z</time>
      </trkpt>
      <trkpt lat="43.4246090" lon="-4.7782540">
        <ele>-9.4</ele>
        <time>2021-07-18T11:03:34Z</time>
      </trkpt>
      <trkpt lat="43.4246040" lon="-4.7783860">
        <ele>-9.4</ele>
        <time>2021-07-18T11:03:36Z</time>
      </trkpt>
      <trkpt lat="43.4245960" lon="-4.7785310">
        <ele>-9.4</ele>
        <time>2021-07-18T11:03:38Z</time>
      </trkpt>
      <trkpt lat="43.4245810" lon="-4.7787660">
        <ele>-9.4</ele>
        <time>2021-07-18T11:03:41Z</time>
      </trkpt>
      <trkpt lat="43.4245690" lon="-4.7789150">
        <ele>-9.4</ele>
        <time>2021-07-18T11:03:43Z</time>
      </trkpt>
      <trkpt lat="43.4245590" lon="-4.7790610">
        <ele>-9.4</ele>
        <time>2021-07-18T11:03:45Z</time>
      </trkpt>
      <trkpt lat="43.4245480" lon="-4.7791990">
        <ele>-9.4</ele>
        <time>2021-07-18T11:03:47Z</time>
      </trkpt>
      <trkpt lat="43.4245300" lon="-4.7794090">
        <ele>-9.4</ele>
        <time>2021-07-18T11:03:50Z</time>
      </trkpt>
      <trkpt lat="43.4245200" lon="-4.7796280">
        <ele>-9.4</ele>
        <time>2021-07-18T11:03:53Z</time>
      </trkpt>
      <trkpt lat="43.4244940" lon="-4.7800950">
        <ele>-9.4</ele>
        <time>2021-07-18T11:04:00Z</time>
      </trkpt>
      <trkpt lat="43.4244780" lon="-4.7803670">
        <ele>-9.4</ele>
        <time>2021-07-18T11:04:04Z</time>
      </trkpt>
      <trkpt lat="43.4244680" lon="-4.7805780">
        <ele>-9.4</ele>
        <time>2021-07-18T11:04:07Z</time>
      </trkpt>
      <trkpt lat="43.4244300" lon="-4.7811440">
        <ele>-9.4</ele>
        <time>2021-07-18T11:04:15Z</time>
      </trkpt>
      <trkpt lat="43.4244130" lon="-4.7814840">
        <ele>-9.4</ele>
        <time>2021-07-18T11:04:20Z</time>
      </trkpt>
      <trkpt lat="43.4244000" lon="-4.7816840">
        <ele>-9.4</ele>
        <time>2021-07-18T11:04:23Z</time>
      </trkpt>
      <trkpt lat="43.4243950" lon="-4.7817470">
        <ele>-9.4</ele>
        <time>2021-07-18T11:04:24Z</time>
      </trkpt>
      <trkpt lat="43.4243740" lon="-4.7821390">
        <ele>-9.4</ele>
        <time>2021-07-18T11:04:30Z</time>
      </trkpt>
      <trkpt lat="43.4243670" lon="-4.7822730">
        <ele>-9.4</ele>
        <time>2021-07-18T11:04:32Z</time>
      </trkpt>
      <trkpt lat="43.4243490" lon="-4.7826490">
        <ele>-9.4</ele>
        <time>2021-07-18T11:04:38Z</time>
      </trkpt>
      <trkpt lat="43.4243440" lon="-4.7827070">
        <ele>-9.4</ele>
        <time>2021-07-18T11:04:39Z</time>
      </trkpt>
      <trkpt lat="43.4243240" lon="-4.7829410">
        <ele>-9.4</ele>
        <time>2021-07-18T11:04:43Z</time>
      </trkpt>
      <trkpt lat="43.4243080" lon="-4.7832260">
        <ele>-9.4</ele>
        <time>2021-07-18T11:04:48Z</time>
      </trkpt>
      <trkpt lat="43.4242940" lon="-4.7834830">
        <ele>-9.4</ele>
        <time>2021-07-18T11:04:53Z</time>
      </trkpt>
      <trkpt lat="43.4242890" lon="-4.7835870">
        <ele>-9.4</ele>
        <time>2021-07-18T11:04:55Z</time>
      </trkpt>
      <trkpt lat="43.4242840" lon="-4.7837950">
        <ele>-9.4</ele>
        <time>2021-07-18T11:04:59Z</time>
      </trkpt>
      <trkpt lat="43.4242810" lon="-4.7839040">
        <ele>-9.4</ele>
        <time>2021-07-18T11:05:01Z</time>
      </trkpt>
      <trkpt lat="43.4242780" lon="-4.7839600">
        <ele>-9.4</ele>
        <time>2021-07-18T11:05:02Z</time>
      </trkpt>
      <trkpt lat="43.4242750" lon="-4.7842010">
        <ele>-9.4</ele>
        <time>2021-07-18T11:05:06Z</time>
      </trkpt>
      <trkpt lat="43.4242660" lon="-4.7843780">
        <ele>-9.4</ele>
        <time>2021-07-18T11:05:09Z</time>
      </trkpt>
      <trkpt lat="43.4242610" lon="-4.7844390">
        <ele>-9.4</ele>
        <time>2021-07-18T11:05:10Z</time>
      </trkpt>
      <trkpt lat="43.4242600" lon="-4.7845080">
        <ele>-9.4</ele>
        <time>2021-07-18T11:05:11Z</time>
      </trkpt>
      <trkpt lat="43.4242560" lon="-4.7846540">
        <ele>-9.4</ele>
        <time>2021-07-18T11:05:13Z</time>
      </trkpt>
      <trkpt lat="43.4242470" lon="-4.7848190">
        <ele>-9.4</ele>
        <time>2021-07-18T11:05:15Z</time>
      </trkpt>
      <trkpt lat="43.4241930" lon="-4.7850740">
        <ele>-9.4</ele>
        <time>2021-07-18T11:05:18Z</time>
      </trkpt>
      <trkpt lat="43.4241500" lon="-4.7852410">
        <ele>-9.4</ele>
        <time>2021-07-18T11:05:20Z</time>
      </trkpt>
      <trkpt lat="43.4241110" lon="-4.7853930">
        <ele>-9.8</ele>
        <time>2021-07-18T11:05:22Z</time>
      </trkpt>
      <trkpt lat="43.4240920" lon="-4.7854650">
        <ele>-10.2</ele>
        <time>2021-07-18T11:05:23Z</time>
      </trkpt>
      <trkpt lat="43.4240720" lon="-4.7855340">
        <ele>-10.6</ele>
        <time>2021-07-18T11:05:24Z</time>
      </trkpt>
      <trkpt lat="43.4240520" lon="-4.7855990">
        <ele>-11.2</ele>
        <time>2021-07-18T11:05:25Z</time>
      </trkpt>
      <trkpt lat="43.4240330" lon="-4.7856570">
        <ele>-11.8</ele>
        <time>2021-07-18T11:05:26Z</time>
      </trkpt>
      <trkpt lat="43.4240180" lon="-4.7857040">
        <ele>-12.4</ele>
        <time>2021-07-18T11:05:27Z</time>
      </trkpt>
      <trkpt lat="43.4240090" lon="-4.7857440">
        <ele>-13.0</ele>
        <time>2021-07-18T11:05:28Z</time>
      </trkpt>
      <trkpt lat="43.4240030" lon="-4.7857720">
        <ele>-13.6</ele>
        <time>2021-07-18T11:05:29Z</time>
      </trkpt>
      <trkpt lat="43.4240070" lon="-4.7857950">
        <ele>-14.2</ele>
        <time>2021-07-18T11:05:30Z</time>
      </trkpt>
      <trkpt lat="43.4240200" lon="-4.7858140">
        <ele>-14.8</ele>
        <time>2021-07-18T11:05:31Z</time>
      </trkpt>
      <trkpt lat="43.4240400" lon="-4.7858280">
        <ele>-15.4</ele>
        <time>2021-07-18T11:05:32Z</time>
      </trkpt>
      <trkpt lat="43.4240660" lon="-4.7858350">
        <ele>-16.0</ele>
        <time>2021-07-18T11:05:33Z</time>
      </trkpt>
      <trkpt lat="43.4241000" lon="-4.7858380">
        <ele>-16.0</ele>
        <time>2021-07-18T11:05:34Z</time>
      </trkpt>
      <trkpt lat="43.4241350" lon="-4.7858410">
        <ele>-16.0</ele>
        <time>2021-07-18T11:05:35Z</time>
      </trkpt>
      <trkpt lat="43.4242840" lon="-4.7858830">
        <ele>-16.0</ele>
        <time>2021-07-18T11:05:39Z</time>
      </trkpt>
      <trkpt lat="43.4244800" lon="-4.7859570">
        <ele>-16.4</ele>
        <time>2021-07-18T11:05:44Z</time>
      </trkpt>
      <trkpt lat="43.4245110" lon="-4.7859730">
        <ele>-16.8</ele>
        <time>2021-07-18T11:05:45Z</time>
      </trkpt>
      <trkpt lat="43.4245360" lon="-4.7859850">
        <ele>-17.2</ele>
        <time>2021-07-18T11:05:46Z</time>
      </trkpt>
      <trkpt lat="43.4245540" lon="-4.7859910">
        <ele>-17.6</ele>
        <time>2021-07-18T11:05:47Z</time>
      </trkpt>
      <trkpt lat="43.4245700" lon="-4.7859920">
        <ele>-18.0</ele>
        <time>2021-07-18T11:05:48Z</time>
      </trkpt>
      <trkpt lat="43.4245870" lon="-4.7859870">
        <ele>-18.0</ele>
        <time>2021-07-18T11:05:49Z</time>
      </trkpt>
      <trkpt lat="43.4246010" lon="-4.7859870">
        <ele>-18.0</ele>
        <time>2021-07-18T11:05:51Z</time>
      </trkpt>
      <trkpt lat="43.4246190" lon="-4.7859840">
        <ele>-18.0</ele>
        <time>2021-07-18T11:05:54Z</time>
      </trkpt>
      <trkpt lat="43.4246400" lon="-4.7859810">
        <ele>-18.0</ele>
        <time>2021-07-18T11:05:55Z</time>
      </trkpt>
      <trkpt lat="43.4246610" lon="-4.7859780">
        <ele>-18.4</ele>
        <time>2021-07-18T11:05:56Z</time>
      </trkpt>
      <trkpt lat="43.4246650" lon="-4.7859780">
        <ele>-18.8</ele>
        <time>2021-07-18T11:05:57Z</time>
      </trkpt>
      <trkpt lat="43.4246680" lon="-4.7859780">
        <ele>-19.2</ele>
        <time>2021-07-18T11:05:58Z</time>
      </trkpt>
      <trkpt lat="43.4246930" lon="-4.7859750">
        <ele>-20.2</ele>
        <time>2021-07-18T11:08:00Z</time>
      </trkpt>
      <trkpt lat="43.4247930" lon="-4.7859720">
        <ele>-20.2</ele>
        <time>2021-07-18T11:08:04Z</time>
      </trkpt>
      <trkpt lat="43.4248180" lon="-4.7859770">
        <ele>-20.2</ele>
        <time>2021-07-18T11:08:05Z</time>
      </trkpt>
      <trkpt lat="43.4248590" lon="-4.7859900">
        <ele>-21.0</ele>
        <time>2021-07-18T11:08:07Z</time>
      </trkpt>
      <trkpt lat="43.4248800" lon="-4.7860080">
        <ele>-21.4</ele>
        <time>2021-07-18T11:08:08Z</time>
      </trkpt>
      <trkpt lat="43.4248970" lon="-4.7860270">
        <ele>-21.8</ele>
        <time>2021-07-18T11:08:09Z</time>
      </trkpt>
      <trkpt lat="43.4249100" lon="-4.7860530">
        <ele>-22.4</ele>
        <time>2021-07-18T11:08:10Z</time>
      </trkpt>
      <trkpt lat="43.4249210" lon="-4.7860860">
        <ele>-22.4</ele>
        <time>2021-07-18T11:08:11Z</time>
      </trkpt>
      <trkpt lat="43.4249270" lon="-4.7861180">
        <ele>-22.8</ele>
        <time>2021-07-18T11:08:12Z</time>
      </trkpt>
      <trkpt lat="43.4249330" lon="-4.7861450">
        <ele>-23.2</ele>
        <time>2021-07-18T11:08:13Z</time>
      </trkpt>
      <trkpt lat="43.4249420" lon="-4.7861740">
        <ele>-23.6</ele>
        <time>2021-07-18T11:08:14Z</time>
      </trkpt>
      <trkpt lat="43.4249540" lon="-4.7862020">
        <ele>-24.0</ele>
        <time>2021-07-18T11:08:15Z</time>
      </trkpt>
      <trkpt lat="43.4249680" lon="-4.7862230">
        <ele>-24.4</ele>
        <time>2021-07-18T11:08:16Z</time>
      </trkpt>
      <trkpt lat="43.4249780" lon="-4.7862270">
        <ele>-24.4</ele>
        <time>2021-07-18T11:08:17Z</time>
      </trkpt>
      <trkpt lat="43.4250090" lon="-4.7862470">
        <ele>-24.4</ele>
        <time>2021-07-18T11:08:20Z</time>
      </trkpt>
      <trkpt lat="43.4250580" lon="-4.7862880">
        <ele>-24.4</ele>
        <time>2021-07-18T11:08:23Z</time>
      </trkpt>
      <trkpt lat="43.4251370" lon="-4.7863870">
        <ele>-24.4</ele>
        <time>2021-07-18T11:08:28Z</time>
      </trkpt>
      <trkpt lat="43.4251660" lon="-4.7864140">
        <ele>-24.4</ele>
        <time>2021-07-18T11:08:30Z</time>
      </trkpt>
      <trkpt lat="43.4251860" lon="-4.7864240">
        <ele>-24.4</ele>
        <time>2021-07-18T11:08:33Z</time>
      </trkpt>
      <trkpt lat="43.4256200" lon="-4.7863490">
        <ele>-15.2</ele>
        <time>2021-07-18T11:09:16Z</time>
      </trkpt>
      <trkpt lat="43.4256300" lon="-4.7863470">
        <ele>-14.6</ele>
        <time>2021-07-18T11:09:17Z</time>
      </trkpt>
      <trkpt lat="43.4256420" lon="-4.7863500">
        <ele>-14.2</ele>
        <time>2021-07-18T11:09:18Z</time>
      </trkpt>
      <trkpt lat="43.4256540" lon="-4.7863520">
        <ele>-13.8</ele>
        <time>2021-07-18T11:09:19Z</time>
      </trkpt>
      <trkpt lat="43.4257110" lon="-4.7863840">
        <ele>-13.8</ele>
        <time>2021-07-18T11:09:24Z</time>
      </trkpt>
      <trkpt lat="43.4257230" lon="-4.7863940">
        <ele>-13.8</ele>
        <time>2021-07-18T11:09:25Z</time>
      </trkpt>
      <trkpt lat="43.4257720" lon="-4.7864560">
        <ele>-13.8</ele>
        <time>2021-07-18T11:09:32Z</time>
      </trkpt>
      <trkpt lat="43.4257750" lon="-4.7864630">
        <ele>-13.8</ele>
        <time>2021-07-18T11:09:33Z</time>
      </trkpt>
      <trkpt lat="43.4258420" lon="-4.7865360">
        <ele>-13.8</ele>
        <time>2021-07-18T11:09:46Z</time>
      </trkpt>
      <trkpt lat="43.4259020" lon="-4.7865650">
        <ele>-13.8</ele>
        <time>2021-07-18T11:09:49Z</time>
      </trkpt>
      <trkpt lat="43.4259690" lon="-4.7865750">
        <ele>-13.8</ele>
        <time>2021-07-18T11:09:51Z</time>
      </trkpt>
      <trkpt lat="43.4260590" lon="-4.7865830">
        <ele>-13.8</ele>
        <time>2021-07-18T11:09:53Z</time>
      </trkpt>
      <trkpt lat="43.4261050" lon="-4.7866040">
        <ele>-13.8</ele>
        <time>2021-07-18T11:09:54Z</time>
      </trkpt>
      <trkpt lat="43.4262290" lon="-4.7866310">
        <ele>-13.8</ele>
        <time>2021-07-18T11:09:57Z</time>
      </trkpt>
      <trkpt lat="43.4262630" lon="-4.7866400">
        <ele>-13.8</ele>
        <time>2021-07-18T11:09:58Z</time>
      </trkpt>
      <trkpt lat="43.4262980" lon="-4.7866540">
        <ele>-13.8</ele>
        <time>2021-07-18T11:09:59Z</time>
      </trkpt>
      <trkpt lat="43.4263320" lon="-4.7866740">
        <ele>-13.8</ele>
        <time>2021-07-18T11:10:00Z</time>
      </trkpt>
      <trkpt lat="43.4263910" lon="-4.7867330">
        <ele>-13.8</ele>
        <time>2021-07-18T11:10:02Z</time>
      </trkpt>
      <trkpt lat="43.4264570" lon="-4.7868110">
        <ele>-14.2</ele>
        <time>2021-07-18T11:10:04Z</time>
      </trkpt>
      <trkpt lat="43.4264810" lon="-4.7868550">
        <ele>-14.6</ele>
        <time>2021-07-18T11:10:05Z</time>
      </trkpt>
      <trkpt lat="43.4265030" lon="-4.7869090">
        <ele>-15.2</ele>
        <time>2021-07-18T11:10:06Z</time>
      </trkpt>
      <trkpt lat="43.4265140" lon="-4.7869590">
        <ele>-15.6</ele>
        <time>2021-07-18T11:10:07Z</time>
      </trkpt>
      <trkpt lat="43.4265210" lon="-4.7870120">
        <ele>-16.0</ele>
        <time>2021-07-18T11:10:08Z</time>
      </trkpt>
      <trkpt lat="43.4265280" lon="-4.7870650">
        <ele>-16.0</ele>
        <time>2021-07-18T11:10:09Z</time>
      </trkpt>
      <trkpt lat="43.4265710" lon="-4.7873040">
        <ele>-16.0</ele>
        <time>2021-07-18T11:10:15Z</time>
      </trkpt>
      <trkpt lat="43.4265820" lon="-4.7873650">
        <ele>-16.0</ele>
        <time>2021-07-18T11:10:17Z</time>
      </trkpt>
      <trkpt lat="43.4265910" lon="-4.7874190">
        <ele>-16.0</ele>
        <time>2021-07-18T11:10:19Z</time>
      </trkpt>
      <trkpt lat="43.4265840" lon="-4.7874920">
        <ele>-16.0</ele>
        <time>2021-07-18T11:10:22Z</time>
      </trkpt>
      <trkpt lat="43.4265650" lon="-4.7875580">
        <ele>-16.0</ele>
        <time>2021-07-18T11:10:25Z</time>
      </trkpt>
      <trkpt lat="43.4265570" lon="-4.7876060">
        <ele>-16.0</ele>
        <time>2021-07-18T11:10:27Z</time>
      </trkpt>
      <trkpt lat="43.4265520" lon="-4.7876230">
        <ele>-16.0</ele>
        <time>2021-07-18T11:10:28Z</time>
      </trkpt>
      <trkpt lat="43.4265460" lon="-4.7876440">
        <ele>-16.0</ele>
        <time>2021-07-18T11:10:29Z</time>
      </trkpt>
      <trkpt lat="43.4265480" lon="-4.7877120">
        <ele>-15.6</ele>
        <time>2021-07-18T11:10:32Z</time>
      </trkpt>
      <trkpt lat="43.4265500" lon="-4.7877330">
        <ele>-15.2</ele>
        <time>2021-07-18T11:10:33Z</time>
      </trkpt>
      <trkpt lat="43.4265560" lon="-4.7877540">
        <ele>-14.8</ele>
        <time>2021-07-18T11:10:34Z</time>
      </trkpt>
      <trkpt lat="43.4265640" lon="-4.7877740">
        <ele>-14.0</ele>
        <time>2021-07-18T11:10:35Z</time>
      </trkpt>
      <trkpt lat="43.4265750" lon="-4.7877880">
        <ele>-14.0</ele>
        <time>2021-07-18T11:10:36Z</time>
      </trkpt>
      <trkpt lat="43.4265920" lon="-4.7877930">
        <ele>-14.0</ele>
        <time>2021-07-18T11:10:37Z</time>
      </trkpt>
      <trkpt lat="43.4266360" lon="-4.7877400">
        <ele>-14.0</ele>
        <time>2021-07-18T11:10:40Z</time>
      </trkpt>
      <trkpt lat="43.4266460" lon="-4.7876970">
        <ele>-13.6</ele>
        <time>2021-07-18T11:10:42Z</time>
      </trkpt>
      <trkpt lat="43.4266490" lon="-4.7876710">
        <ele>-13.0</ele>
        <time>2021-07-18T11:10:43Z</time>
      </trkpt>
      <trkpt lat="43.4266520" lon="-4.7876450">
        <ele>-12.6</ele>
        <time>2021-07-18T11:10:44Z</time>
      </trkpt>
      <trkpt lat="43.4266590" lon="-4.7876210">
        <ele>-12.2</ele>
        <time>2021-07-18T11:10:45Z</time>
      </trkpt>
      <trkpt lat="43.4266690" lon="-4.7876000">
        <ele>-11.8</ele>
        <time>2021-07-18T11:10:46Z</time>
      </trkpt>
      <trkpt lat="43.4267270" lon="-4.7875060">
        <ele>-11.8</ele>
        <time>2021-07-18T11:10:51Z</time>
      </trkpt>
      <trkpt lat="43.4267400" lon="-4.7874900">
        <ele>-11.8</ele>
        <time>2021-07-18T11:10:52Z</time>
      </trkpt>
      <trkpt lat="43.4267910" lon="-4.7874100">
        <ele>-11.8</ele>
        <time>2021-07-18T11:10:57Z</time>
      </trkpt>
      <trkpt lat="43.4268030" lon="-4.7873980">
        <ele>-11.4</ele>
        <time>2021-07-18T11:10:58Z</time>
      </trkpt>
      <trkpt lat="43.4268160" lon="-4.7873870">
        <ele>-11.0</ele>
        <time>2021-07-18T11:10:59Z</time>
      </trkpt>
      <trkpt lat="43.4268250" lon="-4.7873730">
        <ele>-10.0</ele>
        <time>2021-07-18T11:11:00Z</time>
      </trkpt>
      <trkpt lat="43.4268360" lon="-4.7873620">
        <ele>-9.6</ele>
        <time>2021-07-18T11:11:01Z</time>
      </trkpt>
      <trkpt lat="43.4268910" lon="-4.7872910">
        <ele>-9.6</ele>
        <time>2021-07-18T11:11:07Z</time>
      </trkpt>
      <trkpt lat="43.4269490" lon="-4.7871930">
        <ele>-9.6</ele>
        <time>2021-07-18T11:11:13Z</time>
      </trkpt>
      <trkpt lat="43.4269930" lon="-4.7870830">
        <ele>-9.2</ele>
        <time>2021-07-18T11:11:17Z</time>
      </trkpt>
      <trkpt lat="43.4270130" lon="-4.7870570">
        <ele>-8.8</ele>
        <time>2021-07-18T11:11:18Z</time>
      </trkpt>
      <trkpt lat="43.4270310" lon="-4.7870330">
        <ele>-8.4</ele>
        <time>2021-07-18T11:11:19Z</time>
      </trkpt>
      <trkpt lat="43.4270520" lon="-4.7870170">
        <ele>-8.0</ele>
        <time>2021-07-18T11:11:20Z</time>
      </trkpt>
      <trkpt lat="43.4270730" lon="-4.7870010">
        <ele>-7.6</ele>
        <time>2021-07-18T11:11:21Z</time>
      </trkpt>
      <trkpt lat="43.4271570" lon="-4.7869800">
        <ele>-7.6</ele>
        <time>2021-07-18T11:11:25Z</time>
      </trkpt>
      <trkpt lat="43.4272750" lon="-4.7869460">
        <ele>-7.0</ele>
        <time>2021-07-18T11:11:31Z</time>
      </trkpt>
      <trkpt lat="43.4272970" lon="-4.7869400">
        <ele>-6.6</ele>
        <time>2021-07-18T11:11:32Z</time>
      </trkpt>
      <trkpt lat="43.4273140" lon="-4.7869360">
        <ele>-6.2</ele>
        <time>2021-07-18T11:11:33Z</time>
      </trkpt>
      <trkpt lat="43.4273290" lon="-4.7869290">
        <ele>-5.8</ele>
        <time>2021-07-18T11:11:34Z</time>
      </trkpt>
      <trkpt lat="43.4273480" lon="-4.7869220">
        <ele>-5.4</ele>
        <time>2021-07-18T11:11:35Z</time>
      </trkpt>
      <trkpt lat="43.4274070" lon="-4.7868880">
        <ele>-5.4</ele>
        <time>2021-07-18T11:11:38Z</time>
      </trkpt>
      <trkpt lat="43.4275520" lon="-4.7867900">
        <ele>-5.4</ele>
        <time>2021-07-18T11:11:45Z</time>
      </trkpt>
      <trkpt lat="43.4277240" lon="-4.7866670">
        <ele>-5.4</ele>
        <time>2021-07-18T11:11:50Z</time>
      </trkpt>
      <trkpt lat="43.4278940" lon="-4.7865550">
        <ele>-5.4</ele>
        <time>2021-07-18T11:11:56Z</time>
      </trkpt>
      <trkpt lat="43.4279110" lon="-4.7865410">
        <ele>-5.4</ele>
        <time>2021-07-18T11:11:57Z</time>
      </trkpt>
      <trkpt lat="43.4279350" lon="-4.7865080">
        <ele>-5.4</ele>
        <time>2021-07-18T11:11:59Z</time>
      </trkpt>
      <trkpt lat="43.4279790" lon="-4.7864460">
        <ele>-5.4</ele>
        <time>2021-07-18T11:12:02Z</time>
      </trkpt>
      <trkpt lat="43.4279970" lon="-4.7864330">
        <ele>-5.0</ele>
        <time>2021-07-18T11:12:03Z</time>
      </trkpt>
      <trkpt lat="43.4280170" lon="-4.7864200">
        <ele>-4.6</ele>
        <time>2021-07-18T11:12:04Z</time>
      </trkpt>
      <trkpt lat="43.4280370" lon="-4.7864060">
        <ele>-4.0</ele>
        <time>2021-07-18T11:12:05Z</time>
      </trkpt>
      <trkpt lat="43.4280590" lon="-4.7863940">
        <ele>-3.6</ele>
        <time>2021-07-18T11:12:06Z</time>
      </trkpt>
      <trkpt lat="43.4280820" lon="-4.7863920">
        <ele>-3.2</ele>
        <time>2021-07-18T11:12:07Z</time>
      </trkpt>
      <trkpt lat="43.4281080" lon="-4.7863990">
        <ele>-3.2</ele>
        <time>2021-07-18T11:12:08Z</time>
      </trkpt>
      <trkpt lat="43.4282140" lon="-4.7865220">
        <ele>-3.2</ele>
        <time>2021-07-18T11:12:13Z</time>
      </trkpt>
      <trkpt lat="43.4282680" lon="-4.7866390">
        <ele>-3.2</ele>
        <time>2021-07-18T11:12:16Z</time>
      </trkpt>
      <trkpt lat="43.4282970" lon="-4.7867210">
        <ele>-3.2</ele>
        <time>2021-07-18T11:12:18Z</time>
      </trkpt>
      <trkpt lat="43.4283370" lon="-4.7868020">
        <ele>-3.2</ele>
        <time>2021-07-18T11:12:20Z</time>
      </trkpt>
      <trkpt lat="43.4284400" lon="-4.7869290">
        <ele>-3.2</ele>
        <time>2021-07-18T11:12:24Z</time>
      </trkpt>
      <trkpt lat="43.4284690" lon="-4.7869530">
        <ele>-3.2</ele>
        <time>2021-07-18T11:12:25Z</time>
      </trkpt>
      <trkpt lat="43.4285770" lon="-4.7870490">
        <ele>-3.2</ele>
        <time>2021-07-18T11:12:29Z</time>
      </trkpt>
      <trkpt lat="43.4286050" lon="-4.7870760">
        <ele>-3.2</ele>
        <time>2021-07-18T11:12:30Z</time>
      </trkpt>
      <trkpt lat="43.4286370" lon="-4.7871010">
        <ele>-3.2</ele>
        <time>2021-07-18T11:12:31Z</time>
      </trkpt>
      <trkpt lat="43.4288510" lon="-4.7872540">
        <ele>-3.2</ele>
        <time>2021-07-18T11:12:37Z</time>
      </trkpt>
      <trkpt lat="43.4288880" lon="-4.7872800">
        <ele>-3.2</ele>
        <time>2021-07-18T11:12:38Z</time>
      </trkpt>
      <trkpt lat="43.4290370" lon="-4.7874010">
        <ele>-3.2</ele>
        <time>2021-07-18T11:12:43Z</time>
      </trkpt>
      <trkpt lat="43.4290520" lon="-4.7874210">
        <ele>-3.2</ele>
        <time>2021-07-18T11:12:44Z</time>
      </trkpt>
      <trkpt lat="43.4290920" lon="-4.7874730">
        <ele>-3.2</ele>
        <time>2021-07-18T11:12:47Z</time>
      </trkpt>
      <trkpt lat="43.4291240" lon="-4.7875110">
        <ele>-3.2</ele>
        <time>2021-07-18T11:12:50Z</time>
      </trkpt>
      <trkpt lat="43.4291500" lon="-4.7875640">
        <ele>-2.8</ele>
        <time>2021-07-18T11:12:53Z</time>
      </trkpt>
      <trkpt lat="43.4291560" lon="-4.7875840">
        <ele>-2.4</ele>
        <time>2021-07-18T11:12:54Z</time>
      </trkpt>
      <trkpt lat="43.4291640" lon="-4.7875980">
        <ele>-2.0</ele>
        <time>2021-07-18T11:12:55Z</time>
      </trkpt>
      <trkpt lat="43.4291720" lon="-4.7876180">
        <ele>-1.6</ele>
        <time>2021-07-18T11:12:56Z</time>
      </trkpt>
      <trkpt lat="43.4291820" lon="-4.7876420">
        <ele>-1.2</ele>
        <time>2021-07-18T11:12:57Z</time>
      </trkpt>
      <trkpt lat="43.4291910" lon="-4.7876730">
        <ele>-1.2</ele>
        <time>2021-07-18T11:12:58Z</time>
      </trkpt>
      <trkpt lat="43.4292440" lon="-4.7879230">
        <ele>-1.2</ele>
        <time>2021-07-18T11:13:05Z</time>
      </trkpt>
      <trkpt lat="43.4292590" lon="-4.7881060">
        <ele>-1.2</ele>
        <time>2021-07-18T11:13:09Z</time>
      </trkpt>
      <trkpt lat="43.4292930" lon="-4.7882500">
        <ele>-1.2</ele>
        <time>2021-07-18T11:13:12Z</time>
      </trkpt>
      <trkpt lat="43.4293510" lon="-4.7884620">
        <ele>-0.8</ele>
        <time>2021-07-18T11:13:17Z</time>
      </trkpt>
      <trkpt lat="43.4293630" lon="-4.7885020">
        <ele>-0.4</ele>
        <time>2021-07-18T11:13:18Z</time>
      </trkpt>
      <trkpt lat="43.4293750" lon="-4.7885440">
        <ele>0.0</ele>
        <time>2021-07-18T11:13:19Z</time>
      </trkpt>
      <trkpt lat="43.4293890" lon="-4.7885840">
        <ele>0.4</ele>
        <time>2021-07-18T11:13:20Z</time>
      </trkpt>
      <trkpt lat="43.4294060" lon="-4.7886200">
        <ele>0.8</ele>
        <time>2021-07-18T11:13:21Z</time>
      </trkpt>
      <trkpt lat="43.4294960" lon="-4.7888000">
        <ele>0.8</ele>
        <time>2021-07-18T11:13:26Z</time>
      </trkpt>
      <trkpt lat="43.4296380" lon="-4.7890340">
        <ele>1.4</ele>
        <time>2021-07-18T11:13:33Z</time>
      </trkpt>
      <trkpt lat="43.4296500" lon="-4.7890750">
        <ele>1.8</ele>
        <time>2021-07-18T11:13:34Z</time>
      </trkpt>
      <trkpt lat="43.4296570" lon="-4.7891180">
        <ele>2.2</ele>
        <time>2021-07-18T11:13:35Z</time>
      </trkpt>
      <trkpt lat="43.4296540" lon="-4.7891660">
        <ele>2.6</ele>
        <time>2021-07-18T11:13:36Z</time>
      </trkpt>
      <trkpt lat="43.4296510" lon="-4.7892080">
        <ele>3.0</ele>
        <time>2021-07-18T11:13:37Z</time>
      </trkpt>
      <trkpt lat="43.4296530" lon="-4.7892480">
        <ele>3.0</ele>
        <time>2021-07-18T11:13:38Z</time>
      </trkpt>
      <trkpt lat="43.4296640" lon="-4.7894520">
        <ele>3.0</ele>
        <time>2021-07-18T11:13:44Z</time>
      </trkpt>
      <trkpt lat="43.4296740" lon="-4.7896560">
        <ele>3.0</ele>
        <time>2021-07-18T11:13:49Z</time>
      </trkpt>
      <trkpt lat="43.4297280" lon="-4.7899550">
        <ele>3.0</ele>
        <time>2021-07-18T11:13:55Z</time>
      </trkpt>
      <trkpt lat="43.4297410" lon="-4.7899980">
        <ele>3.0</ele>
        <time>2021-07-18T11:13:56Z</time>
      </trkpt>
      <trkpt lat="43.4298360" lon="-4.7902060">
        <ele>3.0</ele>
        <time>2021-07-18T11:14:01Z</time>
      </trkpt>
      <trkpt lat="43.4298760" lon="-4.7902920">
        <ele>3.0</ele>
        <time>2021-07-18T11:14:03Z</time>
      </trkpt>
      <trkpt lat="43.4299570" lon="-4.7905640">
        <ele>3.0</ele>
        <time>2021-07-18T11:14:09Z</time>
      </trkpt>
      <trkpt lat="43.4299800" lon="-4.7907460">
        <ele>3.0</ele>
        <time>2021-07-18T11:14:13Z</time>
      </trkpt>
      <trkpt lat="43.4299950" lon="-4.7908100">
        <ele>3.0</ele>
        <time>2021-07-18T11:14:15Z</time>
      </trkpt>
      <trkpt lat="43.4300170" lon="-4.7908890">
        <ele>3.0</ele>
        <time>2021-07-18T11:14:17Z</time>
      </trkpt>
      <trkpt lat="43.4300360" lon="-4.7909370">
        <ele>3.0</ele>
        <time>2021-07-18T11:14:19Z</time>
      </trkpt>
      <trkpt lat="43.4300480" lon="-4.7909400">
        <ele>3.0</ele>
        <time>2021-07-18T11:14:20Z</time>
      </trkpt>
      <trkpt lat="43.4301150" lon="-4.7909730">
        <ele>3.0</ele>
        <time>2021-07-18T11:14:23Z</time>
      </trkpt>
      <trkpt lat="43.4301690" lon="-4.7910070">
        <ele>3.0</ele>
        <time>2021-07-18T11:14:25Z</time>
      </trkpt>
      <trkpt lat="43.4302590" lon="-4.7910750">
        <ele>3.0</ele>
        <time>2021-07-18T11:14:28Z</time>
      </trkpt>
      <trkpt lat="43.4303200" lon="-4.7911150">
        <ele>3.0</ele>
        <time>2021-07-18T11:14:30Z</time>
      </trkpt>
      <trkpt lat="43.4303760" lon="-4.7911480">
        <ele>3.0</ele>
        <time>2021-07-18T11:14:32Z</time>
      </trkpt>
      <trkpt lat="43.4304710" lon="-4.7911890">
        <ele>3.0</ele>
        <time>2021-07-18T11:14:37Z</time>
      </trkpt>
      <trkpt lat="43.4304790" lon="-4.7911920">
        <ele>3.0</ele>
        <time>2021-07-18T11:14:38Z</time>
      </trkpt>
      <trkpt lat="43.4305210" lon="-4.7912020">
        <ele>3.0</ele>
        <time>2021-07-18T11:14:44Z</time>
      </trkpt>
      <trkpt lat="43.4305230" lon="-4.7912030">
        <ele>3.0</ele>
        <time>2021-07-18T11:14:45Z</time>
      </trkpt>
      <trkpt lat="43.4303820" lon="-4.7911470">
        <ele>1.0</ele>
        <time>2021-07-18T11:16:00Z</time>
      </trkpt>
      <trkpt lat="43.4303630" lon="-4.7911390">
        <ele>1.0</ele>
        <time>2021-07-18T11:16:03Z</time>
      </trkpt>
      <trkpt lat="43.4303620" lon="-4.7911400">
        <ele>1.0</ele>
        <time>2021-07-18T11:16:05Z</time>
      </trkpt>
      <trkpt lat="43.4303370" lon="-4.7911230">
        <ele>1.0</ele>
        <time>2021-07-18T11:16:09Z</time>
      </trkpt>
      <trkpt lat="43.4303190" lon="-4.7911100">
        <ele>1.0</ele>
        <time>2021-07-18T11:16:10Z</time>
      </trkpt>
      <trkpt lat="43.4302590" lon="-4.7910710">
        <ele>1.0</ele>
        <time>2021-07-18T11:16:13Z</time>
      </trkpt>
      <trkpt lat="43.4302170" lon="-4.7910440">
        <ele>1.0</ele>
        <time>2021-07-18T11:16:15Z</time>
      </trkpt>
      <trkpt lat="43.4301770" lon="-4.7910110">
        <ele>1.0</ele>
        <time>2021-07-18T11:16:17Z</time>
      </trkpt>
      <trkpt lat="43.4300770" lon="-4.7909370">
        <ele>1.4</ele>
        <time>2021-07-18T11:16:22Z</time>
      </trkpt>
      <trkpt lat="43.4300580" lon="-4.7909300">
        <ele>1.8</ele>
        <time>2021-07-18T11:16:23Z</time>
      </trkpt>
      <trkpt lat="43.4300400" lon="-4.7909320">
        <ele>2.2</ele>
        <time>2021-07-18T11:16:24Z</time>
      </trkpt>
      <trkpt lat="43.4300250" lon="-4.7909460">
        <ele>2.6</ele>
        <time>2021-07-18T11:16:25Z</time>
      </trkpt>
      <trkpt lat="43.4300110" lon="-4.7909640">
        <ele>3.0</ele>
        <time>2021-07-18T11:16:26Z</time>
      </trkpt>
      <trkpt lat="43.4300080" lon="-4.7910150">
        <ele>3.0</ele>
        <time>2021-07-18T11:16:28Z</time>
      </trkpt>
      <trkpt lat="43.4300180" lon="-4.7910480">
        <ele>3.0</ele>
        <time>2021-07-18T11:16:29Z</time>
      </trkpt>
      <trkpt lat="43.4300360" lon="-4.7911740">
        <ele>3.0</ele>
        <time>2021-07-18T11:16:33Z</time>
      </trkpt>
      <trkpt lat="43.4300370" lon="-4.7912230">
        <ele>3.0</ele>
        <time>2021-07-18T11:16:35Z</time>
      </trkpt>
      <trkpt lat="43.4299990" lon="-4.7913850">
        <ele>3.0</ele>
        <time>2021-07-18T11:16:40Z</time>
      </trkpt>
      <trkpt lat="43.4299070" lon="-4.7915640">
        <ele>3.0</ele>
        <time>2021-07-18T11:16:45Z</time>
      </trkpt>
      <trkpt lat="43.4298890" lon="-4.7916210">
        <ele>3.0</ele>
        <time>2021-07-18T11:16:46Z</time>
      </trkpt>
      <trkpt lat="43.4298470" lon="-4.7918190">
        <ele>3.0</ele>
        <time>2021-07-18T11:16:49Z</time>
      </trkpt>
      <trkpt lat="43.4298250" lon="-4.7918860">
        <ele>3.0</ele>
        <time>2021-07-18T11:16:50Z</time>
      </trkpt>
      <trkpt lat="43.4297680" lon="-4.7920050">
        <ele>3.0</ele>
        <time>2021-07-18T11:16:52Z</time>
      </trkpt>
      <trkpt lat="43.4297290" lon="-4.7920430">
        <ele>3.0</ele>
        <time>2021-07-18T11:16:53Z</time>
      </trkpt>
      <trkpt lat="43.4296890" lon="-4.7920620">
        <ele>3.0</ele>
        <time>2021-07-18T11:16:54Z</time>
      </trkpt>
      <trkpt lat="43.4295910" lon="-4.7921080">
        <ele>3.0</ele>
        <time>2021-07-18T11:16:57Z</time>
      </trkpt>
      <trkpt lat="43.4295240" lon="-4.7921400">
        <ele>3.0</ele>
        <time>2021-07-18T11:16:59Z</time>
      </trkpt>
      <trkpt lat="43.4294520" lon="-4.7921700">
        <ele>3.0</ele>
        <time>2021-07-18T11:17:01Z</time>
      </trkpt>
      <trkpt lat="43.4293540" lon="-4.7922910">
        <ele>3.0</ele>
        <time>2021-07-18T11:17:05Z</time>
      </trkpt>
      <trkpt lat="43.4292340" lon="-4.7926210">
        <ele>3.0</ele>
        <time>2021-07-18T11:17:13Z</time>
      </trkpt>
      <trkpt lat="43.4291630" lon="-4.7929110">
        <ele>3.4</ele>
        <time>2021-07-18T11:17:20Z</time>
      </trkpt>
      <trkpt lat="43.4291550" lon="-4.7929420">
        <ele>3.8</ele>
        <time>2021-07-18T11:17:21Z</time>
      </trkpt>
      <trkpt lat="43.4291500" lon="-4.7929730">
        <ele>4.2</ele>
        <time>2021-07-18T11:17:22Z</time>
      </trkpt>
      <trkpt lat="43.4291440" lon="-4.7930030">
        <ele>4.6</ele>
        <time>2021-07-18T11:17:23Z</time>
      </trkpt>
      <trkpt lat="43.4291370" lon="-4.7930350">
        <ele>5.0</ele>
        <time>2021-07-18T11:17:24Z</time>
      </trkpt>
      <trkpt lat="43.4291200" lon="-4.7931130">
        <ele>5.4</ele>
        <time>2021-07-18T11:17:27Z</time>
      </trkpt>
      <trkpt lat="43.4291170" lon="-4.7931360">
        <ele>6.0</ele>
        <time>2021-07-18T11:17:28Z</time>
      </trkpt>
      <trkpt lat="43.4291130" lon="-4.7931580">
        <ele>6.8</ele>
        <time>2021-07-18T11:17:29Z</time>
      </trkpt>
      <trkpt lat="43.4291090" lon="-4.7931770">
        <ele>7.2</ele>
        <time>2021-07-18T11:17:30Z</time>
      </trkpt>
      <trkpt lat="43.4290930" lon="-4.7932100">
        <ele>7.6</ele>
        <time>2021-07-18T11:17:32Z</time>
      </trkpt>
      <trkpt lat="43.4290830" lon="-4.7932260">
        <ele>8.0</ele>
        <time>2021-07-18T11:17:33Z</time>
      </trkpt>
      <trkpt lat="43.4290700" lon="-4.7932380">
        <ele>8.4</ele>
        <time>2021-07-18T11:17:34Z</time>
      </trkpt>
      <trkpt lat="43.4290560" lon="-4.7932510">
        <ele>8.8</ele>
        <time>2021-07-18T11:17:35Z</time>
      </trkpt>
      <trkpt lat="43.4290410" lon="-4.7932670">
        <ele>9.2</ele>
        <time>2021-07-18T11:17:36Z</time>
      </trkpt>
      <trkpt lat="43.4289630" lon="-4.7933140">
        <ele>9.2</ele>
        <time>2021-07-18T11:17:39Z</time>
      </trkpt>
      <trkpt lat="43.4287890" lon="-4.7934790">
        <ele>9.2</ele>
        <time>2021-07-18T11:17:45Z</time>
      </trkpt>
      <trkpt lat="43.4287460" lon="-4.7935720">
        <ele>9.2</ele>
        <time>2021-07-18T11:17:47Z</time>
      </trkpt>
      <trkpt lat="43.4287150" lon="-4.7936960">
        <ele>9.2</ele>
        <time>2021-07-18T11:17:49Z</time>
      </trkpt>
      <trkpt lat="43.4286960" lon="-4.7938290">
        <ele>8.8</ele>
        <time>2021-07-18T11:17:51Z</time>
      </trkpt>
      <trkpt lat="43.4286890" lon="-4.7938980">
        <ele>8.4</ele>
        <time>2021-07-18T11:17:52Z</time>
      </trkpt>
      <trkpt lat="43.4286860" lon="-4.7939720">
        <ele>8.0</ele>
        <time>2021-07-18T11:17:53Z</time>
      </trkpt>
      <trkpt lat="43.4286850" lon="-4.7940440">
        <ele>7.2</ele>
        <time>2021-07-18T11:17:54Z</time>
      </trkpt>
      <trkpt lat="43.4286860" lon="-4.7941860">
        <ele>7.2</ele>
        <time>2021-07-18T11:17:56Z</time>
      </trkpt>
      <trkpt lat="43.4286840" lon="-4.7943160">
        <ele>7.2</ele>
        <time>2021-07-18T11:17:58Z</time>
      </trkpt>
      <trkpt lat="43.4286940" lon="-4.7944870">
        <ele>7.2</ele>
        <time>2021-07-18T11:18:01Z</time>
      </trkpt>
      <trkpt lat="43.4287020" lon="-4.7945360">
        <ele>7.2</ele>
        <time>2021-07-18T11:18:02Z</time>
      </trkpt>
      <trkpt lat="43.4287220" lon="-4.7946340">
        <ele>6.8</ele>
        <time>2021-07-18T11:18:04Z</time>
      </trkpt>
      <trkpt lat="43.4287320" lon="-4.7946800">
        <ele>6.4</ele>
        <time>2021-07-18T11:18:05Z</time>
      </trkpt>
      <trkpt lat="43.4287460" lon="-4.7947270">
        <ele>6.0</ele>
        <time>2021-07-18T11:18:06Z</time>
      </trkpt>
      <trkpt lat="43.4287650" lon="-4.7947710">
        <ele>5.6</ele>
        <time>2021-07-18T11:18:07Z</time>
      </trkpt>
      <trkpt lat="43.4287840" lon="-4.7948140">
        <ele>5.2</ele>
        <time>2021-07-18T11:18:08Z</time>
      </trkpt>
      <trkpt lat="43.4288080" lon="-4.7949510">
        <ele>5.2</ele>
        <time>2021-07-18T11:18:11Z</time>
      </trkpt>
      <trkpt lat="43.4288080" lon="-4.7950930">
        <ele>5.2</ele>
        <time>2021-07-18T11:18:14Z</time>
      </trkpt>
      <trkpt lat="43.4287890" lon="-4.7954050">
        <ele>5.2</ele>
        <time>2021-07-18T11:18:19Z</time>
      </trkpt>
      <trkpt lat="43.4287830" lon="-4.7954760">
        <ele>4.6</ele>
        <time>2021-07-18T11:18:20Z</time>
      </trkpt>
      <trkpt lat="43.4287790" lon="-4.7955460">
        <ele>4.2</ele>
        <time>2021-07-18T11:18:21Z</time>
      </trkpt>
      <trkpt lat="43.4287790" lon="-4.7956130">
        <ele>3.8</ele>
        <time>2021-07-18T11:18:22Z</time>
      </trkpt>
      <trkpt lat="43.4287830" lon="-4.7956770">
        <ele>3.2</ele>
        <time>2021-07-18T11:18:23Z</time>
      </trkpt>
      <trkpt lat="43.4287850" lon="-4.7957360">
        <ele>2.8</ele>
        <time>2021-07-18T11:18:24Z</time>
      </trkpt>
      <trkpt lat="43.4287780" lon="-4.7958460">
        <ele>2.8</ele>
        <time>2021-07-18T11:18:26Z</time>
      </trkpt>
      <trkpt lat="43.4287720" lon="-4.7958990">
        <ele>2.4</ele>
        <time>2021-07-18T11:18:27Z</time>
      </trkpt>
      <trkpt lat="43.4287670" lon="-4.7959410">
        <ele>2.0</ele>
        <time>2021-07-18T11:18:28Z</time>
      </trkpt>
      <trkpt lat="43.4287630" lon="-4.7959780">
        <ele>1.6</ele>
        <time>2021-07-18T11:18:29Z</time>
      </trkpt>
      <trkpt lat="43.4287590" lon="-4.7960130">
        <ele>1.2</ele>
        <time>2021-07-18T11:18:30Z</time>
      </trkpt>
      <trkpt lat="43.4287550" lon="-4.7960480">
        <ele>0.8</ele>
        <time>2021-07-18T11:18:31Z</time>
      </trkpt>
      <trkpt lat="43.4287430" lon="-4.7961450">
        <ele>0.2</ele>
        <time>2021-07-18T11:18:34Z</time>
      </trkpt>
      <trkpt lat="43.4287380" lon="-4.7961730">
        <ele>-0.2</ele>
        <time>2021-07-18T11:18:35Z</time>
      </trkpt>
      <trkpt lat="43.4287330" lon="-4.7961980">
        <ele>-0.6</ele>
        <time>2021-07-18T11:18:36Z</time>
      </trkpt>
      <trkpt lat="43.4287290" lon="-4.7962210">
        <ele>-1.0</ele>
        <time>2021-07-18T11:18:37Z</time>
      </trkpt>
      <trkpt lat="43.4287230" lon="-4.7962420">
        <ele>-1.6</ele>
        <time>2021-07-18T11:18:38Z</time>
      </trkpt>
      <trkpt lat="43.4286660" lon="-4.7963410">
        <ele>-2.0</ele>
        <time>2021-07-18T11:18:42Z</time>
      </trkpt>
      <trkpt lat="43.4286520" lon="-4.7963710">
        <ele>-2.4</ele>
        <time>2021-07-18T11:18:43Z</time>
      </trkpt>
      <trkpt lat="43.4286380" lon="-4.7963970">
        <ele>-3.2</ele>
        <time>2021-07-18T11:18:44Z</time>
      </trkpt>
      <trkpt lat="43.4286270" lon="-4.7964220">
        <ele>-3.6</ele>
        <time>2021-07-18T11:18:45Z</time>
      </trkpt>
      <trkpt lat="43.4285810" lon="-4.7964970">
        <ele>-3.6</ele>
        <time>2021-07-18T11:18:48Z</time>
      </trkpt>
      <trkpt lat="43.4284960" lon="-4.7965460">
        <ele>-3.6</ele>
        <time>2021-07-18T11:18:51Z</time>
      </trkpt>
      <trkpt lat="43.4284630" lon="-4.7965590">
        <ele>-4.0</ele>
        <time>2021-07-18T11:18:52Z</time>
      </trkpt>
      <trkpt lat="43.4284300" lon="-4.7965680">
        <ele>-4.4</ele>
        <time>2021-07-18T11:18:53Z</time>
      </trkpt>
      <trkpt lat="43.4283970" lon="-4.7965760">
        <ele>-4.8</ele>
        <time>2021-07-18T11:18:54Z</time>
      </trkpt>
      <trkpt lat="43.4283670" lon="-4.7965820">
        <ele>-5.2</ele>
        <time>2021-07-18T11:18:55Z</time>
      </trkpt>
      <trkpt lat="43.4283370" lon="-4.7965930">
        <ele>-5.6</ele>
        <time>2021-07-18T11:18:56Z</time>
      </trkpt>
      <trkpt lat="43.4282440" lon="-4.7966380">
        <ele>-5.6</ele>
        <time>2021-07-18T11:18:59Z</time>
      </trkpt>
      <trkpt lat="43.4281360" lon="-4.7967580">
        <ele>-5.6</ele>
        <time>2021-07-18T11:19:03Z</time>
      </trkpt>
      <trkpt lat="43.4281010" lon="-4.7968450">
        <ele>-5.6</ele>
        <time>2021-07-18T11:19:05Z</time>
      </trkpt>
      <trkpt lat="43.4280830" lon="-4.7968930">
        <ele>-6.2</ele>
        <time>2021-07-18T11:19:06Z</time>
      </trkpt>
      <trkpt lat="43.4280660" lon="-4.7969470">
        <ele>-6.6</ele>
        <time>2021-07-18T11:19:07Z</time>
      </trkpt>
      <trkpt lat="43.4280470" lon="-4.7970030">
        <ele>-7.4</ele>
        <time>2021-07-18T11:19:08Z</time>
      </trkpt>
      <trkpt lat="43.4280280" lon="-4.7970590">
        <ele>-7.8</ele>
        <time>2021-07-18T11:19:09Z</time>
      </trkpt>
      <trkpt lat="43.4279360" lon="-4.7972350">
        <ele>-7.8</ele>
        <time>2021-07-18T11:19:13Z</time>
      </trkpt>
      <trkpt lat="43.4279090" lon="-4.7972640">
        <ele>-7.8</ele>
        <time>2021-07-18T11:19:14Z</time>
      </trkpt>
      <trkpt lat="43.4277280" lon="-4.7973680">
        <ele>-8.2</ele>
        <time>2021-07-18T11:19:19Z</time>
      </trkpt>
      <trkpt lat="43.4276760" lon="-4.7973860">
        <ele>-8.6</ele>
        <time>2021-07-18T11:19:20Z</time>
      </trkpt>
      <trkpt lat="43.4276270" lon="-4.7974050">
        <ele>-9.0</ele>
        <time>2021-07-18T11:19:21Z</time>
      </trkpt>
      <trkpt lat="43.4275810" lon="-4.7974210">
        <ele>-9.6</ele>
        <time>2021-07-18T11:19:22Z</time>
      </trkpt>
      <trkpt lat="43.4275370" lon="-4.7974380">
        <ele>-10.0</ele>
        <time>2021-07-18T11:19:23Z</time>
      </trkpt>
      <trkpt lat="43.4274540" lon="-4.7974830">
        <ele>-10.0</ele>
        <time>2021-07-18T11:19:25Z</time>
      </trkpt>
      <trkpt lat="43.4272960" lon="-4.7976030">
        <ele>-10.0</ele>
        <time>2021-07-18T11:19:30Z</time>
      </trkpt>
      <trkpt lat="43.4272340" lon="-4.7976480">
        <ele>-10.0</ele>
        <time>2021-07-18T11:19:32Z</time>
      </trkpt>
      <trkpt lat="43.4272050" lon="-4.7976690">
        <ele>-10.0</ele>
        <time>2021-07-18T11:19:33Z</time>
      </trkpt>
      <trkpt lat="43.4271420" lon="-4.7977120">
        <ele>-10.0</ele>
        <time>2021-07-18T11:19:35Z</time>
      </trkpt>
      <trkpt lat="43.4270790" lon="-4.7977650">
        <ele>-10.0</ele>
        <time>2021-07-18T11:19:37Z</time>
      </trkpt>
      <trkpt lat="43.4269200" lon="-4.7979980">
        <ele>-10.0</ele>
        <time>2021-07-18T11:19:44Z</time>
      </trkpt>
      <trkpt lat="43.4267580" lon="-4.7982210">
        <ele>-10.0</ele>
        <time>2021-07-18T11:19:51Z</time>
      </trkpt>
      <trkpt lat="43.4266780" lon="-4.7982810">
        <ele>-10.0</ele>
        <time>2021-07-18T11:19:54Z</time>
      </trkpt>
      <trkpt lat="43.4266260" lon="-4.7983200">
        <ele>-10.0</ele>
        <time>2021-07-18T11:19:57Z</time>
      </trkpt>
      <trkpt lat="43.4266180" lon="-4.7983350">
        <ele>-10.0</ele>
        <time>2021-07-18T11:19:58Z</time>
      </trkpt>
      <trkpt lat="43.4266190" lon="-4.7984220">
        <ele>-10.0</ele>
        <time>2021-07-18T11:20:01Z</time>
      </trkpt>
      <trkpt lat="43.4266160" lon="-4.7986110">
        <ele>-10.0</ele>
        <time>2021-07-18T11:20:05Z</time>
      </trkpt>
      <trkpt lat="43.4266060" lon="-4.7987200">
        <ele>-10.0</ele>
        <time>2021-07-18T11:20:07Z</time>
      </trkpt>
      <trkpt lat="43.4265820" lon="-4.7990490">
        <ele>-10.4</ele>
        <time>2021-07-18T11:20:13Z</time>
      </trkpt>
      <trkpt lat="43.4265800" lon="-4.7991030">
        <ele>-10.8</ele>
        <time>2021-07-18T11:20:14Z</time>
      </trkpt>
      <trkpt lat="43.4265770" lon="-4.7991560">
        <ele>-11.2</ele>
        <time>2021-07-18T11:20:15Z</time>
      </trkpt>
      <trkpt lat="43.4265720" lon="-4.7992090">
        <ele>-11.6</ele>
        <time>2021-07-18T11:20:16Z</time>
      </trkpt>
      <trkpt lat="43.4265640" lon="-4.7992620">
        <ele>-12.2</ele>
        <time>2021-07-18T11:20:17Z</time>
      </trkpt>
      <trkpt lat="43.4265480" lon="-4.7993650">
        <ele>-12.2</ele>
        <time>2021-07-18T11:20:19Z</time>
      </trkpt>
      <trkpt lat="43.4265320" lon="-4.7995690">
        <ele>-12.2</ele>
        <time>2021-07-18T11:20:23Z</time>
      </trkpt>
      <trkpt lat="43.4265190" lon="-4.7997240">
        <ele>-12.2</ele>
        <time>2021-07-18T11:20:26Z</time>
      </trkpt>
      <trkpt lat="43.4265270" lon="-4.8000410">
        <ele>-12.2</ele>
        <time>2021-07-18T11:20:32Z</time>
      </trkpt>
      <trkpt lat="43.4265280" lon="-4.8000920">
        <ele>-12.2</ele>
        <time>2021-07-18T11:20:33Z</time>
      </trkpt>
      <trkpt lat="43.4265180" lon="-4.8003260">
        <ele>-12.2</ele>
        <time>2021-07-18T11:20:38Z</time>
      </trkpt>
      <trkpt lat="43.4265150" lon="-4.8003670">
        <ele>-12.2</ele>
        <time>2021-07-18T11:20:39Z</time>
      </trkpt>
      <trkpt lat="43.4265130" lon="-4.8004070">
        <ele>-11.8</ele>
        <time>2021-07-18T11:20:40Z</time>
      </trkpt>
      <trkpt lat="43.4265100" lon="-4.8004470">
        <ele>-11.2</ele>
        <time>2021-07-18T11:20:41Z</time>
      </trkpt>
      <trkpt lat="43.4265110" lon="-4.8004870">
        <ele>-10.8</ele>
        <time>2021-07-18T11:20:42Z</time>
      </trkpt>
      <trkpt lat="43.4265140" lon="-4.8005290">
        <ele>-10.4</ele>
        <time>2021-07-18T11:20:43Z</time>
      </trkpt>
      <trkpt lat="43.4265180" lon="-4.8005690">
        <ele>-10.0</ele>
        <time>2021-07-18T11:20:44Z</time>
      </trkpt>
      <trkpt lat="43.4265350" lon="-4.8007000">
        <ele>-10.0</ele>
        <time>2021-07-18T11:20:47Z</time>
      </trkpt>
      <trkpt lat="43.4265540" lon="-4.8008010">
        <ele>-10.0</ele>
        <time>2021-07-18T11:20:49Z</time>
      </trkpt>
      <trkpt lat="43.4265740" lon="-4.8010130">
        <ele>-10.0</ele>
        <time>2021-07-18T11:20:52Z</time>
      </trkpt>
      <trkpt lat="43.4265900" lon="-4.8011610">
        <ele>-10.4</ele>
        <time>2021-07-18T11:20:54Z</time>
      </trkpt>
      <trkpt lat="43.4266040" lon="-4.8012320">
        <ele>-11.0</ele>
        <time>2021-07-18T11:20:55Z</time>
      </trkpt>
      <trkpt lat="43.4266230" lon="-4.8012990">
        <ele>-11.4</ele>
        <time>2021-07-18T11:20:56Z</time>
      </trkpt>
      <trkpt lat="43.4266460" lon="-4.8013630">
        <ele>-11.8</ele>
        <time>2021-07-18T11:20:57Z</time>
      </trkpt>
      <trkpt lat="43.4266770" lon="-4.8014270">
        <ele>-12.2</ele>
        <time>2021-07-18T11:20:58Z</time>
      </trkpt>
      <trkpt lat="43.4267430" lon="-4.8015290">
        <ele>-12.2</ele>
        <time>2021-07-18T11:21:00Z</time>
      </trkpt>
      <trkpt lat="43.4268030" lon="-4.8016280">
        <ele>-12.2</ele>
        <time>2021-07-18T11:21:02Z</time>
      </trkpt>
      <trkpt lat="43.4268590" lon="-4.8017280">
        <ele>-12.2</ele>
        <time>2021-07-18T11:21:04Z</time>
      </trkpt>
      <trkpt lat="43.4269190" lon="-4.8018320">
        <ele>-12.2</ele>
        <time>2021-07-18T11:21:06Z</time>
      </trkpt>
      <trkpt lat="43.4269680" lon="-4.8019130">
        <ele>-12.2</ele>
        <time>2021-07-18T11:21:08Z</time>
      </trkpt>
      <trkpt lat="43.4270080" lon="-4.8019750">
        <ele>-12.2</ele>
        <time>2021-07-18T11:21:10Z</time>
      </trkpt>
      <trkpt lat="43.4270410" lon="-4.8020440">
        <ele>-12.2</ele>
        <time>2021-07-18T11:21:12Z</time>
      </trkpt>
      <trkpt lat="43.4270790" lon="-4.8021170">
        <ele>-12.2</ele>
        <time>2021-07-18T11:21:14Z</time>
      </trkpt>
      <trkpt lat="43.4271820" lon="-4.8022490">
        <ele>-12.2</ele>
        <time>2021-07-18T11:21:18Z</time>
      </trkpt>
      <trkpt lat="43.4272270" lon="-4.8023190">
        <ele>-12.2</ele>
        <time>2021-07-18T11:21:20Z</time>
      </trkpt>
      <trkpt lat="43.4272890" lon="-4.8024330">
        <ele>-12.2</ele>
        <time>2021-07-18T11:21:23Z</time>
      </trkpt>
      <trkpt lat="43.4273300" lon="-4.8025870">
        <ele>-12.2</ele>
        <time>2021-07-18T11:21:27Z</time>
      </trkpt>
      <trkpt lat="43.4273200" lon="-4.8027000">
        <ele>-12.2</ele>
        <time>2021-07-18T11:21:30Z</time>
      </trkpt>
      <trkpt lat="43.4272990" lon="-4.8028000">
        <ele>-12.2</ele>
        <time>2021-07-18T11:21:33Z</time>
      </trkpt>
      <trkpt lat="43.4273010" lon="-4.8028710">
        <ele>-12.2</ele>
        <time>2021-07-18T11:21:35Z</time>
      </trkpt>
      <trkpt lat="43.4273240" lon="-4.8029810">
        <ele>-12.2</ele>
        <time>2021-07-18T11:21:38Z</time>
      </trkpt>
      <trkpt lat="43.4273510" lon="-4.8030800">
        <ele>-12.2</ele>
        <time>2021-07-18T11:21:41Z</time>
      </trkpt>
      <trkpt lat="43.4273720" lon="-4.8031560">
        <ele>-12.2</ele>
        <time>2021-07-18T11:21:43Z</time>
      </trkpt>
      <trkpt lat="43.4274510" lon="-4.8033840">
        <ele>-12.2</ele>
        <time>2021-07-18T11:21:48Z</time>
      </trkpt>
      <trkpt lat="43.4274730" lon="-4.8034120">
        <ele>-12.2</ele>
        <time>2021-07-18T11:21:51Z</time>
      </trkpt>
      <trkpt lat="43.4274830" lon="-4.8034340">
        <ele>-12.2</ele>
        <time>2021-07-18T11:23:28Z</time>
      </trkpt>
      <trkpt lat="43.4274940" lon="-4.8034550">
        <ele>-12.2</ele>
        <time>2021-07-18T11:23:29Z</time>
      </trkpt>
      <trkpt lat="43.4275220" lon="-4.8035520">
        <ele>-12.2</ele>
        <time>2021-07-18T11:23:32Z</time>
      </trkpt>
      <trkpt lat="43.4275240" lon="-4.8035980">
        <ele>-12.2</ele>
        <time>2021-07-18T11:23:33Z</time>
      </trkpt>
      <trkpt lat="43.4275200" lon="-4.8036990">
        <ele>-12.2</ele>
        <time>2021-07-18T11:23:35Z</time>
      </trkpt>
      <trkpt lat="43.4275180" lon="-4.8037550">
        <ele>-12.6</ele>
        <time>2021-07-18T11:23:36Z</time>
      </trkpt>
      <trkpt lat="43.4275190" lon="-4.8038080">
        <ele>-13.0</ele>
        <time>2021-07-18T11:23:37Z</time>
      </trkpt>
      <trkpt lat="43.4275210" lon="-4.8038610">
        <ele>-13.4</ele>
        <time>2021-07-18T11:23:38Z</time>
      </trkpt>
      <trkpt lat="43.4275230" lon="-4.8039120">
        <ele>-13.8</ele>
        <time>2021-07-18T11:23:39Z</time>
      </trkpt>
      <trkpt lat="43.4275270" lon="-4.8039610">
        <ele>-14.2</ele>
        <time>2021-07-18T11:23:40Z</time>
      </trkpt>
      <trkpt lat="43.4275710" lon="-4.8041320">
        <ele>-14.2</ele>
        <time>2021-07-18T11:23:44Z</time>
      </trkpt>
      <trkpt lat="43.4275890" lon="-4.8041740">
        <ele>-14.2</ele>
        <time>2021-07-18T11:23:45Z</time>
      </trkpt>
      <trkpt lat="43.4276540" lon="-4.8043020">
        <ele>-14.6</ele>
        <time>2021-07-18T11:23:48Z</time>
      </trkpt>
      <trkpt lat="43.4276750" lon="-4.8043310">
        <ele>-15.0</ele>
        <time>2021-07-18T11:23:49Z</time>
      </trkpt>
      <trkpt lat="43.4276940" lon="-4.8043580">
        <ele>-15.4</ele>
        <time>2021-07-18T11:23:50Z</time>
      </trkpt>
      <trkpt lat="43.4277110" lon="-4.8043830">
        <ele>-15.8</ele>
        <time>2021-07-18T11:23:51Z</time>
      </trkpt>
      <trkpt lat="43.4277260" lon="-4.8044080">
        <ele>-16.2</ele>
        <time>2021-07-18T11:23:52Z</time>
      </trkpt>
      <trkpt lat="43.4278030" lon="-4.8045470">
        <ele>-16.2</ele>
        <time>2021-07-18T11:23:58Z</time>
      </trkpt>
      <trkpt lat="43.4278430" lon="-4.8046400">
        <ele>-16.2</ele>
        <time>2021-07-18T11:24:01Z</time>
      </trkpt>
      <trkpt lat="43.4278740" lon="-4.8047130">
        <ele>-16.2</ele>
        <time>2021-07-18T11:24:03Z</time>
      </trkpt>
      <trkpt lat="43.4279020" lon="-4.8047870">
        <ele>-16.2</ele>
        <time>2021-07-18T11:24:05Z</time>
      </trkpt>
      <trkpt lat="43.4279410" lon="-4.8048860">
        <ele>-16.2</ele>
        <time>2021-07-18T11:24:08Z</time>
      </trkpt>
      <trkpt lat="43.4279560" lon="-4.8049780">
        <ele>-16.2</ele>
        <time>2021-07-18T11:24:11Z</time>
      </trkpt>
      <trkpt lat="43.4279530" lon="-4.8050160">
        <ele>-16.2</ele>
        <time>2021-07-18T11:24:12Z</time>
      </trkpt>
      <trkpt lat="43.4279280" lon="-4.8051040">
        <ele>-16.2</ele>
        <time>2021-07-18T11:24:14Z</time>
      </trkpt>
      <trkpt lat="43.4279160" lon="-4.8051490">
        <ele>-16.2</ele>
        <time>2021-07-18T11:24:15Z</time>
      </trkpt>
      <trkpt lat="43.4278950" lon="-4.8052360">
        <ele>-16.2</ele>
        <time>2021-07-18T11:24:17Z</time>
      </trkpt>
      <trkpt lat="43.4278770" lon="-4.8054530">
        <ele>-16.2</ele>
        <time>2021-07-18T11:24:22Z</time>
      </trkpt>
      <trkpt lat="43.4278310" lon="-4.8057730">
        <ele>-16.2</ele>
        <time>2021-07-18T11:24:29Z</time>
      </trkpt>
      <trkpt lat="43.4278430" lon="-4.8060380">
        <ele>-16.2</ele>
        <time>2021-07-18T11:24:35Z</time>
      </trkpt>
      <trkpt lat="43.4278440" lon="-4.8062990">
        <ele>-16.2</ele>
        <time>2021-07-18T11:24:42Z</time>
      </trkpt>
      <trkpt lat="43.4278050" lon="-4.8064560">
        <ele>-16.2</ele>
        <time>2021-07-18T11:24:47Z</time>
      </trkpt>
      <trkpt lat="43.4277700" lon="-4.8065090">
        <ele>-16.2</ele>
        <time>2021-07-18T11:24:49Z</time>
      </trkpt>
      <trkpt lat="43.4277000" lon="-4.8065660">
        <ele>-16.2</ele>
        <time>2021-07-18T11:24:52Z</time>
      </trkpt>
      <trkpt lat="43.4275480" lon="-4.8066410">
        <ele>-16.2</ele>
        <time>2021-07-18T11:24:56Z</time>
      </trkpt>
      <trkpt lat="43.4274720" lon="-4.8066790">
        <ele>-16.2</ele>
        <time>2021-07-18T11:24:58Z</time>
      </trkpt>
      <trkpt lat="43.4273740" lon="-4.8067940">
        <ele>-16.2</ele>
        <time>2021-07-18T11:25:02Z</time>
      </trkpt>
      <trkpt lat="43.4273030" lon="-4.8068790">
        <ele>-16.2</ele>
        <time>2021-07-18T11:25:05Z</time>
      </trkpt>
      <trkpt lat="43.4271920" lon="-4.8069940">
        <ele>-16.2</ele>
        <time>2021-07-18T11:25:09Z</time>
      </trkpt>
      <trkpt lat="43.4271100" lon="-4.8070970">
        <ele>-15.8</ele>
        <time>2021-07-18T11:25:13Z</time>
      </trkpt>
      <trkpt lat="43.4270900" lon="-4.8071140">
        <ele>-15.4</ele>
        <time>2021-07-18T11:25:14Z</time>
      </trkpt>
      <trkpt lat="43.4270670" lon="-4.8071340">
        <ele>-15.0</ele>
        <time>2021-07-18T11:25:15Z</time>
      </trkpt>
      <trkpt lat="43.4270440" lon="-4.8071520">
        <ele>-14.6</ele>
        <time>2021-07-18T11:25:16Z</time>
      </trkpt>
      <trkpt lat="43.4270240" lon="-4.8071720">
        <ele>-14.2</ele>
        <time>2021-07-18T11:25:17Z</time>
      </trkpt>
      <trkpt lat="43.4269710" lon="-4.8072400">
        <ele>-14.2</ele>
        <time>2021-07-18T11:25:20Z</time>
      </trkpt>
      <trkpt lat="43.4269140" lon="-4.8073030">
        <ele>-14.2</ele>
        <time>2021-07-18T11:25:23Z</time>
      </trkpt>
      <trkpt lat="43.4268800" lon="-4.8073400">
        <ele>-13.8</ele>
        <time>2021-07-18T11:25:25Z</time>
      </trkpt>
      <trkpt lat="43.4268640" lon="-4.8073610">
        <ele>-13.4</ele>
        <time>2021-07-18T11:25:26Z</time>
      </trkpt>
      <trkpt lat="43.4268530" lon="-4.8073870">
        <ele>-12.8</ele>
        <time>2021-07-18T11:25:27Z</time>
      </trkpt>
      <trkpt lat="43.4268410" lon="-4.8074120">
        <ele>-12.4</ele>
        <time>2021-07-18T11:25:28Z</time>
      </trkpt>
      <trkpt lat="43.4268270" lon="-4.8074330">
        <ele>-12.0</ele>
        <time>2021-07-18T11:25:29Z</time>
      </trkpt>
      <trkpt lat="43.4267960" lon="-4.8074690">
        <ele>-12.0</ele>
        <time>2021-07-18T11:25:31Z</time>
      </trkpt>
      <trkpt lat="43.4267670" lon="-4.8075630">
        <ele>-12.0</ele>
        <time>2021-07-18T11:25:35Z</time>
      </trkpt>
      <trkpt lat="43.4267720" lon="-4.8075800">
        <ele>-12.0</ele>
        <time>2021-07-18T11:25:36Z</time>
      </trkpt>
      <trkpt lat="43.4267760" lon="-4.8075840">
        <ele>-12.0</ele>
        <time>2021-07-18T11:25:37Z</time>
      </trkpt>
      <trkpt lat="43.4271690" lon="-4.8075450">
        <ele>0.0</ele>
        <time>2021-07-19T06:05:46Z</time>
      </trkpt>
      <trkpt lat="43.4271720" lon="-4.8075630">
        <ele>0.0</ele>
        <time>2021-07-19T06:05:47Z</time>
      </trkpt>
      <trkpt lat="43.4271840" lon="-4.8076180">
        <ele>0.0</ele>
        <time>2021-07-19T06:05:50Z</time>
      </trkpt>
      <trkpt lat="43.4271900" lon="-4.8076390">
        <ele>0.8</ele>
        <time>2021-07-19T06:05:51Z</time>
      </trkpt>
      <trkpt lat="43.4271930" lon="-4.8076580">
        <ele>1.8</ele>
        <time>2021-07-19T06:05:52Z</time>
      </trkpt>
      <trkpt lat="43.4271900" lon="-4.8076680">
        <ele>2.8</ele>
        <time>2021-07-19T06:05:53Z</time>
      </trkpt>
      <trkpt lat="43.4271870" lon="-4.8076780">
        <ele>2.8</ele>
        <time>2021-07-19T06:05:54Z</time>
      </trkpt>
      <trkpt lat="43.4271870" lon="-4.8076780">
        <ele>2.8</ele>
        <time>2021-07-19T06:05:55Z</time>
      </trkpt>
      <trkpt lat="43.4271640" lon="-4.8077370">
        <ele>2.8</ele>
        <time>2021-07-19T06:06:06Z</time>
      </trkpt>
      <trkpt lat="43.4271330" lon="-4.8077510">
        <ele>2.8</ele>
        <time>2021-07-19T06:06:08Z</time>
      </trkpt>
      <trkpt lat="43.4270710" lon="-4.8077590">
        <ele>2.8</ele>
        <time>2021-07-19T06:06:11Z</time>
      </trkpt>
      <trkpt lat="43.4270360" lon="-4.8077580">
        <ele>2.8</ele>
        <time>2021-07-19T06:06:13Z</time>
      </trkpt>
      <trkpt lat="43.4270210" lon="-4.8077600">
        <ele>2.8</ele>
        <time>2021-07-19T06:06:14Z</time>
      </trkpt>
      <trkpt lat="43.4269010" lon="-4.8077140">
        <ele>2.8</ele>
        <time>2021-07-19T06:06:21Z</time>
      </trkpt>
      <trkpt lat="43.4267810" lon="-4.8075860">
        <ele>2.8</ele>
        <time>2021-07-19T06:06:28Z</time>
      </trkpt>
      <trkpt lat="43.4268160" lon="-4.8074360">
        <ele>2.8</ele>
        <time>2021-07-19T06:06:32Z</time>
      </trkpt>
      <trkpt lat="43.4268330" lon="-4.8073930">
        <ele>2.8</ele>
        <time>2021-07-19T06:06:33Z</time>
      </trkpt>
      <trkpt lat="43.4269290" lon="-4.8071910">
        <ele>1.8</ele>
        <time>2021-07-19T06:06:38Z</time>
      </trkpt>
      <trkpt lat="43.4269580" lon="-4.8071520">
        <ele>0.8</ele>
        <time>2021-07-19T06:06:39Z</time>
      </trkpt>
      <trkpt lat="43.4269940" lon="-4.8071050">
        <ele>-0.2</ele>
        <time>2021-07-19T06:06:40Z</time>
      </trkpt>
      <trkpt lat="43.4270300" lon="-4.8070530">
        <ele>-1.2</ele>
        <time>2021-07-19T06:06:41Z</time>
      </trkpt>
      <trkpt lat="43.4270630" lon="-4.8070070">
        <ele>-2.2</ele>
        <time>2021-07-19T06:06:42Z</time>
      </trkpt>
      <trkpt lat="43.4272020" lon="-4.8068190">
        <ele>-2.6</ele>
        <time>2021-07-19T06:06:46Z</time>
      </trkpt>
      <trkpt lat="43.4272310" lon="-4.8067810">
        <ele>-3.0</ele>
        <time>2021-07-19T06:06:47Z</time>
      </trkpt>
      <trkpt lat="43.4272610" lon="-4.8067510">
        <ele>-3.4</ele>
        <time>2021-07-19T06:06:48Z</time>
      </trkpt>
      <trkpt lat="43.4272950" lon="-4.8067260">
        <ele>-4.0</ele>
        <time>2021-07-19T06:06:49Z</time>
      </trkpt>
      <trkpt lat="43.4273310" lon="-4.8067000">
        <ele>-4.4</ele>
        <time>2021-07-19T06:06:50Z</time>
      </trkpt>
      <trkpt lat="43.4273710" lon="-4.8066760">
        <ele>-4.4</ele>
        <time>2021-07-19T06:06:51Z</time>
      </trkpt>
      <trkpt lat="43.4274560" lon="-4.8066260">
        <ele>-4.4</ele>
        <time>2021-07-19T06:06:53Z</time>
      </trkpt>
      <trkpt lat="43.4275670" lon="-4.8065450">
        <ele>-4.4</ele>
        <time>2021-07-19T06:06:56Z</time>
      </trkpt>
      <trkpt lat="43.4276350" lon="-4.8064870">
        <ele>-4.8</ele>
        <time>2021-07-19T06:06:58Z</time>
      </trkpt>
      <trkpt lat="43.4276650" lon="-4.8064510">
        <ele>-5.2</ele>
        <time>2021-07-19T06:06:59Z</time>
      </trkpt>
      <trkpt lat="43.4276920" lon="-4.8064230">
        <ele>-5.6</ele>
        <time>2021-07-19T06:07:00Z</time>
      </trkpt>
      <trkpt lat="43.4277130" lon="-4.8064050">
        <ele>-6.0</ele>
        <time>2021-07-19T06:07:01Z</time>
      </trkpt>
      <trkpt lat="43.4277350" lon="-4.8063960">
        <ele>-6.4</ele>
        <time>2021-07-19T06:07:02Z</time>
      </trkpt>
      <trkpt lat="43.4277800" lon="-4.8063950">
        <ele>-6.4</ele>
        <time>2021-07-19T06:07:04Z</time>
      </trkpt>
      <trkpt lat="43.4278110" lon="-4.8064320">
        <ele>-6.4</ele>
        <time>2021-07-19T06:07:06Z</time>
      </trkpt>
      <trkpt lat="43.4278360" lon="-4.8064900">
        <ele>-6.4</ele>
        <time>2021-07-19T06:07:08Z</time>
      </trkpt>
      <trkpt lat="43.4278650" lon="-4.8066070">
        <ele>-6.4</ele>
        <time>2021-07-19T06:07:12Z</time>
      </trkpt>
      <trkpt lat="43.4278880" lon="-4.8067570">
        <ele>-6.4</ele>
        <time>2021-07-19T06:07:16Z</time>
      </trkpt>
      <trkpt lat="43.4278930" lon="-4.8067930">
        <ele>-6.4</ele>
        <time>2021-07-19T06:07:17Z</time>
      </trkpt>
      <trkpt lat="43.4279040" lon="-4.8068650">
        <ele>-6.4</ele>
        <time>2021-07-19T06:07:19Z</time>
      </trkpt>
      <trkpt lat="43.4279070" lon="-4.8069070">
        <ele>-6.0</ele>
        <time>2021-07-19T06:07:20Z</time>
      </trkpt>
      <trkpt lat="43.4279080" lon="-4.8069470">
        <ele>-5.6</ele>
        <time>2021-07-19T06:07:21Z</time>
      </trkpt>
      <trkpt lat="43.4279070" lon="-4.8069870">
        <ele>-5.2</ele>
        <time>2021-07-19T06:07:22Z</time>
      </trkpt>
      <trkpt lat="43.4279020" lon="-4.8070230">
        <ele>-4.8</ele>
        <time>2021-07-19T06:07:23Z</time>
      </trkpt>
      <trkpt lat="43.4279000" lon="-4.8070570">
        <ele>-4.4</ele>
        <time>2021-07-19T06:07:24Z</time>
      </trkpt>
      <trkpt lat="43.4278920" lon="-4.8072350">
        <ele>-4.4</ele>
        <time>2021-07-19T06:07:30Z</time>
      </trkpt>
      <trkpt lat="43.4278940" lon="-4.8072650">
        <ele>-4.4</ele>
        <time>2021-07-19T06:07:31Z</time>
      </trkpt>
      <trkpt lat="43.4278930" lon="-4.8073350">
        <ele>-4.4</ele>
        <time>2021-07-19T06:07:33Z</time>
      </trkpt>
      <trkpt lat="43.4278860" lon="-4.8074950">
        <ele>-4.4</ele>
        <time>2021-07-19T06:07:37Z</time>
      </trkpt>
      <trkpt lat="43.4278540" lon="-4.8077390">
        <ele>-4.4</ele>
        <time>2021-07-19T06:07:43Z</time>
      </trkpt>
      <trkpt lat="43.4278190" lon="-4.8080250">
        <ele>-4.0</ele>
        <time>2021-07-19T06:07:51Z</time>
      </trkpt>
      <trkpt lat="43.4278080" lon="-4.8080600">
        <ele>-3.6</ele>
        <time>2021-07-19T06:07:52Z</time>
      </trkpt>
      <trkpt lat="43.4277970" lon="-4.8080960">
        <ele>-3.2</ele>
        <time>2021-07-19T06:07:53Z</time>
      </trkpt>
      <trkpt lat="43.4277900" lon="-4.8081350">
        <ele>-2.8</ele>
        <time>2021-07-19T06:07:54Z</time>
      </trkpt>
      <trkpt lat="43.4277830" lon="-4.8081740">
        <ele>-2.4</ele>
        <time>2021-07-19T06:07:55Z</time>
      </trkpt>
      <trkpt lat="43.4277600" lon="-4.8082900">
        <ele>-2.4</ele>
        <time>2021-07-19T06:07:58Z</time>
      </trkpt>
      <trkpt lat="43.4277510" lon="-4.8084800">
        <ele>-2.0</ele>
        <time>2021-07-19T06:08:03Z</time>
      </trkpt>
      <trkpt lat="43.4277520" lon="-4.8085150">
        <ele>-1.6</ele>
        <time>2021-07-19T06:08:04Z</time>
      </trkpt>
      <trkpt lat="43.4277550" lon="-4.8085520">
        <ele>-1.2</ele>
        <time>2021-07-19T06:08:05Z</time>
      </trkpt>
      <trkpt lat="43.4277580" lon="-4.8085890">
        <ele>-0.8</ele>
        <time>2021-07-19T06:08:06Z</time>
      </trkpt>
      <trkpt lat="43.4277590" lon="-4.8086280">
        <ele>-0.4</ele>
        <time>2021-07-19T06:08:07Z</time>
      </trkpt>
      <trkpt lat="43.4277700" lon="-4.8088580">
        <ele>-0.4</ele>
        <time>2021-07-19T06:08:12Z</time>
      </trkpt>
      <trkpt lat="43.4277840" lon="-4.8091860">
        <ele>-0.4</ele>
        <time>2021-07-19T06:08:18Z</time>
      </trkpt>
      <trkpt lat="43.4277850" lon="-4.8092380">
        <ele>-0.8</ele>
        <time>2021-07-19T06:08:19Z</time>
      </trkpt>
      <trkpt lat="43.4277870" lon="-4.8092920">
        <ele>-1.2</ele>
        <time>2021-07-19T06:08:20Z</time>
      </trkpt>
      <trkpt lat="43.4277870" lon="-4.8093410">
        <ele>-1.6</ele>
        <time>2021-07-19T06:08:21Z</time>
      </trkpt>
      <trkpt lat="43.4277880" lon="-4.8093890">
        <ele>-2.0</ele>
        <time>2021-07-19T06:08:22Z</time>
      </trkpt>
      <trkpt lat="43.4277910" lon="-4.8094350">
        <ele>-2.6</ele>
        <time>2021-07-19T06:08:23Z</time>
      </trkpt>
      <trkpt lat="43.4277970" lon="-4.8094770">
        <ele>-2.6</ele>
        <time>2021-07-19T06:08:24Z</time>
      </trkpt>
      <trkpt lat="43.4278110" lon="-4.8095550">
        <ele>-2.6</ele>
        <time>2021-07-19T06:08:26Z</time>
      </trkpt>
      <trkpt lat="43.4278220" lon="-4.8095820">
        <ele>-3.0</ele>
        <time>2021-07-19T06:08:27Z</time>
      </trkpt>
      <trkpt lat="43.4278360" lon="-4.8096040">
        <ele>-3.4</ele>
        <time>2021-07-19T06:08:28Z</time>
      </trkpt>
      <trkpt lat="43.4278520" lon="-4.8096230">
        <ele>-3.8</ele>
        <time>2021-07-19T06:08:29Z</time>
      </trkpt>
      <trkpt lat="43.4278690" lon="-4.8096330">
        <ele>-4.2</ele>
        <time>2021-07-19T06:08:30Z</time>
      </trkpt>
      <trkpt lat="43.4278840" lon="-4.8096320">
        <ele>-4.6</ele>
        <time>2021-07-19T06:08:31Z</time>
      </trkpt>
      <trkpt lat="43.4279050" lon="-4.8096300">
        <ele>-4.6</ele>
        <time>2021-07-19T06:08:32Z</time>
      </trkpt>
      <trkpt lat="43.4280140" lon="-4.8096280">
        <ele>-4.6</ele>
        <time>2021-07-19T06:08:36Z</time>
      </trkpt>
      <trkpt lat="43.4280490" lon="-4.8096310">
        <ele>-4.6</ele>
        <time>2021-07-19T06:08:37Z</time>
      </trkpt>
      <trkpt lat="43.4282530" lon="-4.8096440">
        <ele>-4.6</ele>
        <time>2021-07-19T06:08:42Z</time>
      </trkpt>
      <trkpt lat="43.4283360" lon="-4.8096360">
        <ele>-4.6</ele>
        <time>2021-07-19T06:08:44Z</time>
      </trkpt>
      <trkpt lat="43.4283790" lon="-4.8096340">
        <ele>-4.6</ele>
        <time>2021-07-19T06:08:45Z</time>
      </trkpt>
      <trkpt lat="43.4284950" lon="-4.8096420">
        <ele>-4.6</ele>
        <time>2021-07-19T06:08:48Z</time>
      </trkpt>
      <trkpt lat="43.4286130" lon="-4.8096530">
        <ele>-4.6</ele>
        <time>2021-07-19T06:08:51Z</time>
      </trkpt>
      <trkpt lat="43.4286910" lon="-4.8096510">
        <ele>-4.6</ele>
        <time>2021-07-19T06:08:53Z</time>
      </trkpt>
      <trkpt lat="43.4289210" lon="-4.8096390">
        <ele>-4.6</ele>
        <time>2021-07-19T06:08:59Z</time>
      </trkpt>
      <trkpt lat="43.4290500" lon="-4.8096290">
        <ele>-5.0</ele>
        <time>2021-07-19T06:09:03Z</time>
      </trkpt>
      <trkpt lat="43.4290800" lon="-4.8096240">
        <ele>-5.4</ele>
        <time>2021-07-19T06:09:04Z</time>
      </trkpt>
      <trkpt lat="43.4291120" lon="-4.8096170">
        <ele>-5.8</ele>
        <time>2021-07-19T06:09:05Z</time>
      </trkpt>
      <trkpt lat="43.4291480" lon="-4.8096110">
        <ele>-6.2</ele>
        <time>2021-07-19T06:09:06Z</time>
      </trkpt>
      <trkpt lat="43.4291830" lon="-4.8096060">
        <ele>-6.6</ele>
        <time>2021-07-19T06:09:07Z</time>
      </trkpt>
      <trkpt lat="43.4293580" lon="-4.8095840">
        <ele>-6.6</ele>
        <time>2021-07-19T06:09:12Z</time>
      </trkpt>
      <trkpt lat="43.4294330" lon="-4.8095770">
        <ele>-6.6</ele>
        <time>2021-07-19T06:09:14Z</time>
      </trkpt>
      <trkpt lat="43.4295080" lon="-4.8095740">
        <ele>-6.6</ele>
        <time>2021-07-19T06:09:16Z</time>
      </trkpt>
      <trkpt lat="43.4297450" lon="-4.8095380">
        <ele>-6.6</ele>
        <time>2021-07-19T06:09:23Z</time>
      </trkpt>
      <trkpt lat="43.4299050" lon="-4.8094390">
        <ele>-6.6</ele>
        <time>2021-07-19T06:09:29Z</time>
      </trkpt>
      <trkpt lat="43.4300350" lon="-4.8093230">
        <ele>-6.6</ele>
        <time>2021-07-19T06:09:35Z</time>
      </trkpt>
      <trkpt lat="43.4300640" lon="-4.8092810">
        <ele>-6.6</ele>
        <time>2021-07-19T06:09:37Z</time>
      </trkpt>
      <trkpt lat="43.4301950" lon="-4.8091570">
        <ele>-6.6</ele>
        <time>2021-07-19T06:09:45Z</time>
      </trkpt>
      <trkpt lat="43.4301950" lon="-4.8091570">
        <ele>-6.6</ele>
        <time>2021-07-19T06:09:46Z</time>
      </trkpt>
      <trkpt lat="43.4302000" lon="-4.8091500">
        <ele>-8.8</ele>
        <time>2021-07-19T06:11:46Z</time>
      </trkpt>
      <trkpt lat="43.4302150" lon="-4.8091360">
        <ele>-8.8</ele>
        <time>2021-07-19T06:11:47Z</time>
      </trkpt>
      <trkpt lat="43.4302340" lon="-4.8091220">
        <ele>-8.8</ele>
        <time>2021-07-19T06:11:48Z</time>
      </trkpt>
      <trkpt lat="43.4303800" lon="-4.8090020">
        <ele>-8.8</ele>
        <time>2021-07-19T06:11:54Z</time>
      </trkpt>
      <trkpt lat="43.4305000" lon="-4.8089290">
        <ele>-8.8</ele>
        <time>2021-07-19T06:11:58Z</time>
      </trkpt>
      <trkpt lat="43.4306150" lon="-4.8088610">
        <ele>-8.8</ele>
        <time>2021-07-19T06:12:02Z</time>
      </trkpt>
      <trkpt lat="43.4308220" lon="-4.8087790">
        <ele>-8.8</ele>
        <time>2021-07-19T06:12:09Z</time>
      </trkpt>
      <trkpt lat="43.4309530" lon="-4.8088210">
        <ele>-8.8</ele>
        <time>2021-07-19T06:12:13Z</time>
      </trkpt>
      <trkpt lat="43.4310120" lon="-4.8088520">
        <ele>-8.8</ele>
        <time>2021-07-19T06:12:15Z</time>
      </trkpt>
      <trkpt lat="43.4311180" lon="-4.8088680">
        <ele>-8.8</ele>
        <time>2021-07-19T06:12:20Z</time>
      </trkpt>
      <trkpt lat="43.4311890" lon="-4.8087190">
        <ele>-8.8</ele>
        <time>2021-07-19T06:12:25Z</time>
      </trkpt>
      <trkpt lat="43.4312010" lon="-4.8086790">
        <ele>-8.8</ele>
        <time>2021-07-19T06:12:26Z</time>
      </trkpt>
      <trkpt lat="43.4312440" lon="-4.8084680">
        <ele>-8.8</ele>
        <time>2021-07-19T06:12:31Z</time>
      </trkpt>
      <trkpt lat="43.4312380" lon="-4.8083860">
        <ele>-8.8</ele>
        <time>2021-07-19T06:12:33Z</time>
      </trkpt>
      <trkpt lat="43.4311520" lon="-4.8081840">
        <ele>-8.8</ele>
        <time>2021-07-19T06:12:39Z</time>
      </trkpt>
      <trkpt lat="43.4311100" lon="-4.8079750">
        <ele>-8.8</ele>
        <time>2021-07-19T06:12:45Z</time>
      </trkpt>
      <trkpt lat="43.4311210" lon="-4.8077890">
        <ele>-8.8</ele>
        <time>2021-07-19T06:12:49Z</time>
      </trkpt>
      <trkpt lat="43.4311240" lon="-4.8077200">
        <ele>-8.8</ele>
        <time>2021-07-19T06:12:51Z</time>
      </trkpt>
      <trkpt lat="43.4311160" lon="-4.8076510">
        <ele>-9.2</ele>
        <time>2021-07-19T06:12:53Z</time>
      </trkpt>
      <trkpt lat="43.4311070" lon="-4.8076160">
        <ele>-9.6</ele>
        <time>2021-07-19T06:12:54Z</time>
      </trkpt>
      <trkpt lat="43.4311000" lon="-4.8075890">
        <ele>-10.4</ele>
        <time>2021-07-19T06:12:55Z</time>
      </trkpt>
      <trkpt lat="43.4310970" lon="-4.8075660">
        <ele>-10.8</ele>
        <time>2021-07-19T06:12:56Z</time>
      </trkpt>
      <trkpt lat="43.4311070" lon="-4.8075080">
        <ele>-10.8</ele>
        <time>2021-07-19T06:13:00Z</time>
      </trkpt>
      <trkpt lat="43.4311120" lon="-4.8074910">
        <ele>-10.8</ele>
        <time>2021-07-19T06:13:01Z</time>
      </trkpt>
      <trkpt lat="43.4311140" lon="-4.8074690">
        <ele>-10.8</ele>
        <time>2021-07-19T06:13:02Z</time>
      </trkpt>
      <trkpt lat="43.4311150" lon="-4.8074170">
        <ele>-10.8</ele>
        <time>2021-07-19T06:13:05Z</time>
      </trkpt>
      <trkpt lat="43.4311110" lon="-4.8073880">
        <ele>-10.8</ele>
        <time>2021-07-19T06:13:07Z</time>
      </trkpt>
      <trkpt lat="43.4311000" lon="-4.8073690">
        <ele>-10.8</ele>
        <time>2021-07-19T06:13:10Z</time>
      </trkpt>
      <trkpt lat="43.4311380" lon="-4.8074450">
        <ele>-10.8</ele>
        <time>2021-07-19T06:13:21Z</time>
      </trkpt>
      <trkpt lat="43.4311450" lon="-4.8074610">
        <ele>-10.8</ele>
        <time>2021-07-19T06:13:22Z</time>
      </trkpt>
      <trkpt lat="43.4311690" lon="-4.8075200">
        <ele>-11.4</ele>
        <time>2021-07-19T06:13:25Z</time>
      </trkpt>
      <trkpt lat="43.4311780" lon="-4.8075390">
        <ele>-11.8</ele>
        <time>2021-07-19T06:13:26Z</time>
      </trkpt>
      <trkpt lat="43.4311860" lon="-4.8075600">
        <ele>-12.2</ele>
        <time>2021-07-19T06:13:27Z</time>
      </trkpt>
      <trkpt lat="43.4311940" lon="-4.8075790">
        <ele>-12.6</ele>
        <time>2021-07-19T06:13:28Z</time>
      </trkpt>
      <trkpt lat="43.4312000" lon="-4.8075920">
        <ele>-13.0</ele>
        <time>2021-07-19T06:13:29Z</time>
      </trkpt>
      <trkpt lat="43.4312040" lon="-4.8075960">
        <ele>-13.0</ele>
        <time>2021-07-19T06:13:30Z</time>
      </trkpt>
      <trkpt lat="43.4312210" lon="-4.8075960">
        <ele>-13.0</ele>
        <time>2021-07-19T06:13:32Z</time>
      </trkpt>
      <trkpt lat="43.4310720" lon="-4.8073620">
        <ele>-13.0</ele>
        <time>2021-07-19T06:14:07Z</time>
      </trkpt>
      <trkpt lat="43.4310650" lon="-4.8073470">
        <ele>-13.0</ele>
        <time>2021-07-19T06:14:08Z</time>
      </trkpt>
      <trkpt lat="43.4310580" lon="-4.8073290">
        <ele>-13.0</ele>
        <time>2021-07-19T06:14:09Z</time>
      </trkpt>
      <trkpt lat="43.4310310" lon="-4.8072520">
        <ele>-13.0</ele>
        <time>2021-07-19T06:14:12Z</time>
      </trkpt>
      <trkpt lat="43.4310100" lon="-4.8072000">
        <ele>-12.6</ele>
        <time>2021-07-19T06:14:14Z</time>
      </trkpt>
      <trkpt lat="43.4309940" lon="-4.8071780">
        <ele>-12.2</ele>
        <time>2021-07-19T06:14:15Z</time>
      </trkpt>
      <trkpt lat="43.4309760" lon="-4.8071600">
        <ele>-11.8</ele>
        <time>2021-07-19T06:14:16Z</time>
      </trkpt>
      <trkpt lat="43.4309550" lon="-4.8071430">
        <ele>-11.2</ele>
        <time>2021-07-19T06:14:17Z</time>
      </trkpt>
      <trkpt lat="43.4309290" lon="-4.8071240">
        <ele>-10.8</ele>
        <time>2021-07-19T06:14:18Z</time>
      </trkpt>
      <trkpt lat="43.4308130" lon="-4.8070630">
        <ele>-10.8</ele>
        <time>2021-07-19T06:14:22Z</time>
      </trkpt>
      <trkpt lat="43.4306230" lon="-4.8070430">
        <ele>-10.8</ele>
        <time>2021-07-19T06:14:29Z</time>
      </trkpt>
      <trkpt lat="43.4304480" lon="-4.8071330">
        <ele>-10.8</ele>
        <time>2021-07-19T06:14:35Z</time>
      </trkpt>
      <trkpt lat="43.4301800" lon="-4.8072690">
        <ele>-10.8</ele>
        <time>2021-07-19T06:14:41Z</time>
      </trkpt>
      <trkpt lat="43.4300240" lon="-4.8072950">
        <ele>-10.8</ele>
        <time>2021-07-19T06:14:45Z</time>
      </trkpt>
      <trkpt lat="43.4299570" lon="-4.8073160">
        <ele>-10.8</ele>
        <time>2021-07-19T06:14:47Z</time>
      </trkpt>
      <trkpt lat="43.4298960" lon="-4.8073470">
        <ele>-10.8</ele>
        <time>2021-07-19T06:14:49Z</time>
      </trkpt>
      <trkpt lat="43.4298660" lon="-4.8074570">
        <ele>-10.8</ele>
        <time>2021-07-19T06:14:52Z</time>
      </trkpt>
      <trkpt lat="43.4298650" lon="-4.8075020">
        <ele>-10.8</ele>
        <time>2021-07-19T06:14:53Z</time>
      </trkpt>
      <trkpt lat="43.4299000" lon="-4.8077160">
        <ele>-10.8</ele>
        <time>2021-07-19T06:14:58Z</time>
      </trkpt>
      <trkpt lat="43.4299380" lon="-4.8080260">
        <ele>-10.8</ele>
        <time>2021-07-19T06:15:05Z</time>
      </trkpt>
      <trkpt lat="43.4299710" lon="-4.8083050">
        <ele>-10.8</ele>
        <time>2021-07-19T06:15:11Z</time>
      </trkpt>
      <trkpt lat="43.4299750" lon="-4.8083530">
        <ele>-10.8</ele>
        <time>2021-07-19T06:15:12Z</time>
      </trkpt>
      <trkpt lat="43.4299960" lon="-4.8084830">
        <ele>-10.8</ele>
        <time>2021-07-19T06:15:15Z</time>
      </trkpt>
      <trkpt lat="43.4300390" lon="-4.8087250">
        <ele>-10.8</ele>
        <time>2021-07-19T06:15:21Z</time>
      </trkpt>
      <trkpt lat="43.4300640" lon="-4.8088350">
        <ele>-10.0</ele>
        <time>2021-07-19T06:15:24Z</time>
      </trkpt>
      <trkpt lat="43.4300730" lon="-4.8088730">
        <ele>-9.6</ele>
        <time>2021-07-19T06:15:25Z</time>
      </trkpt>
      <trkpt lat="43.4300810" lon="-4.8089090">
        <ele>-9.2</ele>
        <time>2021-07-19T06:15:26Z</time>
      </trkpt>
      <trkpt lat="43.4300930" lon="-4.8089440">
        <ele>-8.8</ele>
        <time>2021-07-19T06:15:27Z</time>
      </trkpt>
      <trkpt lat="43.4301270" lon="-4.8091260">
        <ele>-8.8</ele>
        <time>2021-07-19T06:15:32Z</time>
      </trkpt>
      <trkpt lat="43.4301030" lon="-4.8093350">
        <ele>-8.8</ele>
        <time>2021-07-19T06:15:38Z</time>
      </trkpt>
      <trkpt lat="43.4301350" lon="-4.8094760">
        <ele>-8.8</ele>
        <time>2021-07-19T06:15:42Z</time>
      </trkpt>
      <trkpt lat="43.4302330" lon="-4.8095130">
        <ele>-8.4</ele>
        <time>2021-07-19T06:15:46Z</time>
      </trkpt>
      <trkpt lat="43.4302620" lon="-4.8095220">
        <ele>-8.0</ele>
        <time>2021-07-19T06:15:47Z</time>
      </trkpt>
      <trkpt lat="43.4302880" lon="-4.8095370">
        <ele>-7.6</ele>
        <time>2021-07-19T06:15:48Z</time>
      </trkpt>
      <trkpt lat="43.4303180" lon="-4.8095540">
        <ele>-6.8</ele>
        <time>2021-07-19T06:15:49Z</time>
      </trkpt>
      <trkpt lat="43.4304630" lon="-4.8096600">
        <ele>-6.8</ele>
        <time>2021-07-19T06:15:54Z</time>
      </trkpt>
      <trkpt lat="43.4306690" lon="-4.8098930">
        <ele>-6.8</ele>
        <time>2021-07-19T06:16:02Z</time>
      </trkpt>
      <trkpt lat="43.4308780" lon="-4.8101270">
        <ele>-6.8</ele>
        <time>2021-07-19T06:16:10Z</time>
      </trkpt>
      <trkpt lat="43.4309030" lon="-4.8101540">
        <ele>-6.8</ele>
        <time>2021-07-19T06:16:11Z</time>
      </trkpt>
      <trkpt lat="43.4310890" lon="-4.8102940">
        <ele>-6.8</ele>
        <time>2021-07-19T06:16:18Z</time>
      </trkpt>
      <trkpt lat="43.4311940" lon="-4.8103690">
        <ele>-6.4</ele>
        <time>2021-07-19T06:16:22Z</time>
      </trkpt>
      <trkpt lat="43.4312200" lon="-4.8103850">
        <ele>-6.0</ele>
        <time>2021-07-19T06:16:23Z</time>
      </trkpt>
      <trkpt lat="43.4312450" lon="-4.8104020">
        <ele>-5.4</ele>
        <time>2021-07-19T06:16:24Z</time>
      </trkpt>
      <trkpt lat="43.4312680" lon="-4.8104190">
        <ele>-5.0</ele>
        <time>2021-07-19T06:16:25Z</time>
      </trkpt>
      <trkpt lat="43.4312930" lon="-4.8104350">
        <ele>-4.6</ele>
        <time>2021-07-19T06:16:26Z</time>
      </trkpt>
      <trkpt lat="43.4314340" lon="-4.8105210">
        <ele>-4.6</ele>
        <time>2021-07-19T06:16:32Z</time>
      </trkpt>
      <trkpt lat="43.4314840" lon="-4.8105690">
        <ele>-4.2</ele>
        <time>2021-07-19T06:16:35Z</time>
      </trkpt>
      <trkpt lat="43.4314980" lon="-4.8105890">
        <ele>-3.8</ele>
        <time>2021-07-19T06:16:36Z</time>
      </trkpt>
      <trkpt lat="43.4315170" lon="-4.8106070">
        <ele>-2.8</ele>
        <time>2021-07-19T06:16:37Z</time>
      </trkpt>
      <trkpt lat="43.4315380" lon="-4.8106240">
        <ele>-2.4</ele>
        <time>2021-07-19T06:16:38Z</time>
      </trkpt>
      <trkpt lat="43.4315750" lon="-4.8106600">
        <ele>-2.4</ele>
        <time>2021-07-19T06:16:40Z</time>
      </trkpt>
      <trkpt lat="43.4316360" lon="-4.8107190">
        <ele>-2.0</ele>
        <time>2021-07-19T06:16:43Z</time>
      </trkpt>
      <trkpt lat="43.4316520" lon="-4.8107330">
        <ele>-1.6</ele>
        <time>2021-07-19T06:16:44Z</time>
      </trkpt>
      <trkpt lat="43.4316680" lon="-4.8107480">
        <ele>-1.0</ele>
        <time>2021-07-19T06:16:45Z</time>
      </trkpt>
      <trkpt lat="43.4316860" lon="-4.8107580">
        <ele>-0.6</ele>
        <time>2021-07-19T06:16:46Z</time>
      </trkpt>
      <trkpt lat="43.4317160" lon="-4.8107440">
        <ele>-0.2</ele>
        <time>2021-07-19T06:16:47Z</time>
      </trkpt>
      <trkpt lat="43.4317640" lon="-4.8107570">
        <ele>-0.2</ele>
        <time>2021-07-19T06:16:49Z</time>
      </trkpt>
      <trkpt lat="43.4319770" lon="-4.8108570">
        <ele>-0.2</ele>
        <time>2021-07-19T06:16:57Z</time>
      </trkpt>
      <trkpt lat="43.4321410" lon="-4.8109230">
        <ele>-0.2</ele>
        <time>2021-07-19T06:17:03Z</time>
      </trkpt>
      <trkpt lat="43.4322390" lon="-4.8110250">
        <ele>-0.2</ele>
        <time>2021-07-19T06:17:07Z</time>
      </trkpt>
      <trkpt lat="43.4322970" lon="-4.8110880">
        <ele>-0.2</ele>
        <time>2021-07-19T06:17:09Z</time>
      </trkpt>
      <trkpt lat="43.4324070" lon="-4.8111440">
        <ele>-0.2</ele>
        <time>2021-07-19T06:17:12Z</time>
      </trkpt>
      <trkpt lat="43.4324980" lon="-4.8111780">
        <ele>-0.6</ele>
        <time>2021-07-19T06:17:14Z</time>
      </trkpt>
      <trkpt lat="43.4325520" lon="-4.8111970">
        <ele>-1.0</ele>
        <time>2021-07-19T06:17:15Z</time>
      </trkpt>
      <trkpt lat="43.4326010" lon="-4.8112140">
        <ele>-1.4</ele>
        <time>2021-07-19T06:17:16Z</time>
      </trkpt>
      <trkpt lat="43.4326480" lon="-4.8112400">
        <ele>-1.8</ele>
        <time>2021-07-19T06:17:17Z</time>
      </trkpt>
      <trkpt lat="43.4326950" lon="-4.8112710">
        <ele>-2.4</ele>
        <time>2021-07-19T06:17:18Z</time>
      </trkpt>
      <trkpt lat="43.4327480" lon="-4.8113090">
        <ele>-3.0</ele>
        <time>2021-07-19T06:17:19Z</time>
      </trkpt>
      <trkpt lat="43.4328030" lon="-4.8113540">
        <ele>-3.6</ele>
        <time>2021-07-19T06:17:20Z</time>
      </trkpt>
      <trkpt lat="43.4328530" lon="-4.8114010">
        <ele>-4.2</ele>
        <time>2021-07-19T06:17:21Z</time>
      </trkpt>
      <trkpt lat="43.4329020" lon="-4.8114500">
        <ele>-4.8</ele>
        <time>2021-07-19T06:17:22Z</time>
      </trkpt>
      <trkpt lat="43.4329490" lon="-4.8115080">
        <ele>-5.4</ele>
        <time>2021-07-19T06:17:23Z</time>
      </trkpt>
      <trkpt lat="43.4329890" lon="-4.8115720">
        <ele>-6.0</ele>
        <time>2021-07-19T06:17:24Z</time>
      </trkpt>
      <trkpt lat="43.4330250" lon="-4.8116390">
        <ele>-6.4</ele>
        <time>2021-07-19T06:17:25Z</time>
      </trkpt>
      <trkpt lat="43.4330570" lon="-4.8117100">
        <ele>-7.0</ele>
        <time>2021-07-19T06:17:26Z</time>
      </trkpt>
      <trkpt lat="43.4331950" lon="-4.8120750">
        <ele>-7.0</ele>
        <time>2021-07-19T06:17:31Z</time>
      </trkpt>
      <trkpt lat="43.4332780" lon="-4.8122850">
        <ele>-7.4</ele>
        <time>2021-07-19T06:17:34Z</time>
      </trkpt>
      <trkpt lat="43.4333040" lon="-4.8123570">
        <ele>-8.0</ele>
        <time>2021-07-19T06:17:35Z</time>
      </trkpt>
      <trkpt lat="43.4333290" lon="-4.8124280">
        <ele>-8.4</ele>
        <time>2021-07-19T06:17:36Z</time>
      </trkpt>
      <trkpt lat="43.4333500" lon="-4.8124980">
        <ele>-8.8</ele>
        <time>2021-07-19T06:17:37Z</time>
      </trkpt>
      <trkpt lat="43.4333690" lon="-4.8125690">
        <ele>-9.2</ele>
        <time>2021-07-19T06:17:38Z</time>
      </trkpt>
      <trkpt lat="43.4334060" lon="-4.8127050">
        <ele>-9.2</ele>
        <time>2021-07-19T06:17:40Z</time>
      </trkpt>
      <trkpt lat="43.4334540" lon="-4.8129100">
        <ele>-9.2</ele>
        <time>2021-07-19T06:17:43Z</time>
      </trkpt>
      <trkpt lat="43.4335430" lon="-4.8132220">
        <ele>-9.2</ele>
        <time>2021-07-19T06:17:48Z</time>
      </trkpt>
      <trkpt lat="43.4336120" lon="-4.8133820">
        <ele>-10.0</ele>
        <time>2021-07-19T06:17:51Z</time>
      </trkpt>
      <trkpt lat="43.4336390" lon="-4.8134300">
        <ele>-10.4</ele>
        <time>2021-07-19T06:17:52Z</time>
      </trkpt>
      <trkpt lat="43.4336640" lon="-4.8134790">
        <ele>-10.8</ele>
        <time>2021-07-19T06:17:53Z</time>
      </trkpt>
      <trkpt lat="43.4336900" lon="-4.8135250">
        <ele>-11.2</ele>
        <time>2021-07-19T06:17:54Z</time>
      </trkpt>
      <trkpt lat="43.4337140" lon="-4.8135700">
        <ele>-11.2</ele>
        <time>2021-07-19T06:17:55Z</time>
      </trkpt>
      <trkpt lat="43.4339410" lon="-4.8139490">
        <ele>-11.2</ele>
        <time>2021-07-19T06:18:04Z</time>
      </trkpt>
      <trkpt lat="43.4340790" lon="-4.8142350">
        <ele>-11.2</ele>
        <time>2021-07-19T06:18:11Z</time>
      </trkpt>
      <trkpt lat="43.4340650" lon="-4.8143980">
        <ele>-11.2</ele>
        <time>2021-07-19T06:18:14Z</time>
      </trkpt>
      <trkpt lat="43.4340620" lon="-4.8144540">
        <ele>-11.2</ele>
        <time>2021-07-19T06:18:15Z</time>
      </trkpt>
      <trkpt lat="43.4340410" lon="-4.8146750">
        <ele>-11.2</ele>
        <time>2021-07-19T06:18:19Z</time>
      </trkpt>
      <trkpt lat="43.4340220" lon="-4.8148820">
        <ele>-11.2</ele>
        <time>2021-07-19T06:18:23Z</time>
      </trkpt>
      <trkpt lat="43.4340140" lon="-4.8151410">
        <ele>-11.2</ele>
        <time>2021-07-19T06:18:28Z</time>
      </trkpt>
      <trkpt lat="43.4340210" lon="-4.8152900">
        <ele>-11.2</ele>
        <time>2021-07-19T06:18:31Z</time>
      </trkpt>
      <trkpt lat="43.4340930" lon="-4.8156570">
        <ele>-11.2</ele>
        <time>2021-07-19T06:18:39Z</time>
      </trkpt>
      <trkpt lat="43.4341920" lon="-4.8159140">
        <ele>-11.2</ele>
        <time>2021-07-19T06:18:45Z</time>
      </trkpt>
      <trkpt lat="43.4342340" lon="-4.8159920">
        <ele>-11.2</ele>
        <time>2021-07-19T06:18:47Z</time>
      </trkpt>
      <trkpt lat="43.4343300" lon="-4.8161820">
        <ele>-11.2</ele>
        <time>2021-07-19T06:18:52Z</time>
      </trkpt>
      <trkpt lat="43.4343640" lon="-4.8162620">
        <ele>-11.2</ele>
        <time>2021-07-19T06:18:54Z</time>
      </trkpt>
      <trkpt lat="43.4343820" lon="-4.8162970">
        <ele>-10.8</ele>
        <time>2021-07-19T06:18:55Z</time>
      </trkpt>
      <trkpt lat="43.4344000" lon="-4.8163320">
        <ele>-10.4</ele>
        <time>2021-07-19T06:18:56Z</time>
      </trkpt>
      <trkpt lat="43.4344170" lon="-4.8163670">
        <ele>-10.0</ele>
        <time>2021-07-19T06:18:57Z</time>
      </trkpt>
      <trkpt lat="43.4344350" lon="-4.8164000">
        <ele>-9.6</ele>
        <time>2021-07-19T06:18:58Z</time>
      </trkpt>
      <trkpt lat="43.4344510" lon="-4.8164360">
        <ele>-9.2</ele>
        <time>2021-07-19T06:18:59Z</time>
      </trkpt>
      <trkpt lat="43.4344890" lon="-4.8165520">
        <ele>-9.2</ele>
        <time>2021-07-19T06:19:02Z</time>
      </trkpt>
      <trkpt lat="43.4345480" lon="-4.8168260">
        <ele>-8.8</ele>
        <time>2021-07-19T06:19:09Z</time>
      </trkpt>
      <trkpt lat="43.4345510" lon="-4.8168650">
        <ele>-8.4</ele>
        <time>2021-07-19T06:19:10Z</time>
      </trkpt>
      <trkpt lat="43.4345530" lon="-4.8169010">
        <ele>-7.8</ele>
        <time>2021-07-19T06:19:11Z</time>
      </trkpt>
      <trkpt lat="43.4345560" lon="-4.8169390">
        <ele>-7.4</ele>
        <time>2021-07-19T06:19:12Z</time>
      </trkpt>
      <trkpt lat="43.4345570" lon="-4.8169760">
        <ele>-7.0</ele>
        <time>2021-07-19T06:19:13Z</time>
      </trkpt>
      <trkpt lat="43.4345620" lon="-4.8172150">
        <ele>-7.0</ele>
        <time>2021-07-19T06:19:19Z</time>
      </trkpt>
      <trkpt lat="43.4345620" lon="-4.8172540">
        <ele>-7.0</ele>
        <time>2021-07-19T06:19:20Z</time>
      </trkpt>
      <trkpt lat="43.4345660" lon="-4.8173720">
        <ele>-6.6</ele>
        <time>2021-07-19T06:19:23Z</time>
      </trkpt>
      <trkpt lat="43.4345670" lon="-4.8174100">
        <ele>-6.2</ele>
        <time>2021-07-19T06:19:24Z</time>
      </trkpt>
      <trkpt lat="43.4345620" lon="-4.8174480">
        <ele>-5.8</ele>
        <time>2021-07-19T06:19:25Z</time>
      </trkpt>
      <trkpt lat="43.4345620" lon="-4.8174860">
        <ele>-5.4</ele>
        <time>2021-07-19T06:19:26Z</time>
      </trkpt>
      <trkpt lat="43.4345630" lon="-4.8175250">
        <ele>-5.0</ele>
        <time>2021-07-19T06:19:27Z</time>
      </trkpt>
      <trkpt lat="43.4345620" lon="-4.8175640">
        <ele>-5.0</ele>
        <time>2021-07-19T06:19:28Z</time>
      </trkpt>
      <trkpt lat="43.4345400" lon="-4.8178690">
        <ele>-5.0</ele>
        <time>2021-07-19T06:19:36Z</time>
      </trkpt>
      <trkpt lat="43.4345780" lon="-4.8180650">
        <ele>-5.0</ele>
        <time>2021-07-19T06:19:41Z</time>
      </trkpt>
      <trkpt lat="43.4346370" lon="-4.8184180">
        <ele>-5.0</ele>
        <time>2021-07-19T06:19:49Z</time>
      </trkpt>
      <trkpt lat="43.4347170" lon="-4.8187650">
        <ele>-5.0</ele>
        <time>2021-07-19T06:19:57Z</time>
      </trkpt>
      <trkpt lat="43.4347700" lon="-4.8190490">
        <ele>-5.0</ele>
        <time>2021-07-19T06:20:03Z</time>
      </trkpt>
      <trkpt lat="43.4347840" lon="-4.8192560">
        <ele>-4.6</ele>
        <time>2021-07-19T06:20:07Z</time>
      </trkpt>
      <trkpt lat="43.4347850" lon="-4.8193060">
        <ele>-4.2</ele>
        <time>2021-07-19T06:20:08Z</time>
      </trkpt>
      <trkpt lat="43.4347850" lon="-4.8193580">
        <ele>-3.8</ele>
        <time>2021-07-19T06:20:09Z</time>
      </trkpt>
      <trkpt lat="43.4347840" lon="-4.8194090">
        <ele>-3.4</ele>
        <time>2021-07-19T06:20:10Z</time>
      </trkpt>
      <trkpt lat="43.4347740" lon="-4.8194580">
        <ele>-3.0</ele>
        <time>2021-07-19T06:20:11Z</time>
      </trkpt>
      <trkpt lat="43.4347530" lon="-4.8196260">
        <ele>-3.0</ele>
        <time>2021-07-19T06:20:14Z</time>
      </trkpt>
      <trkpt lat="43.4347260" lon="-4.8198440">
        <ele>-3.0</ele>
        <time>2021-07-19T06:20:18Z</time>
      </trkpt>
      <trkpt lat="43.4346820" lon="-4.8200320">
        <ele>-3.0</ele>
        <time>2021-07-19T06:20:22Z</time>
      </trkpt>
      <trkpt lat="43.4345930" lon="-4.8204890">
        <ele>-3.0</ele>
        <time>2021-07-19T06:20:31Z</time>
      </trkpt>
      <trkpt lat="43.4345210" lon="-4.8209190">
        <ele>-3.0</ele>
        <time>2021-07-19T06:20:39Z</time>
      </trkpt>
      <trkpt lat="43.4344600" lon="-4.8212510">
        <ele>-3.0</ele>
        <time>2021-07-19T06:20:45Z</time>
      </trkpt>
      <trkpt lat="43.4344320" lon="-4.8214100">
        <ele>-3.0</ele>
        <time>2021-07-19T06:20:48Z</time>
      </trkpt>
      <trkpt lat="43.4344040" lon="-4.8215620">
        <ele>-3.0</ele>
        <time>2021-07-19T06:20:51Z</time>
      </trkpt>
      <trkpt lat="43.4343350" lon="-4.8218850">
        <ele>-3.0</ele>
        <time>2021-07-19T06:20:57Z</time>
      </trkpt>
      <trkpt lat="43.4343000" lon="-4.8220490">
        <ele>-3.0</ele>
        <time>2021-07-19T06:21:00Z</time>
      </trkpt>
      <trkpt lat="43.4342560" lon="-4.8224880">
        <ele>-3.0</ele>
        <time>2021-07-19T06:21:08Z</time>
      </trkpt>
      <trkpt lat="43.4342580" lon="-4.8226590">
        <ele>-3.4</ele>
        <time>2021-07-19T06:21:11Z</time>
      </trkpt>
      <trkpt lat="43.4342610" lon="-4.8227150">
        <ele>-3.8</ele>
        <time>2021-07-19T06:21:12Z</time>
      </trkpt>
      <trkpt lat="43.4342660" lon="-4.8227700">
        <ele>-4.2</ele>
        <time>2021-07-19T06:21:13Z</time>
      </trkpt>
      <trkpt lat="43.4342740" lon="-4.8228250">
        <ele>-4.6</ele>
        <time>2021-07-19T06:21:14Z</time>
      </trkpt>
      <trkpt lat="43.4342820" lon="-4.8228850">
        <ele>-5.0</ele>
        <time>2021-07-19T06:21:15Z</time>
      </trkpt>
      <trkpt lat="43.4343030" lon="-4.8230030">
        <ele>-5.0</ele>
        <time>2021-07-19T06:21:17Z</time>
      </trkpt>
      <trkpt lat="43.4343970" lon="-4.8234210">
        <ele>-5.0</ele>
        <time>2021-07-19T06:21:25Z</time>
      </trkpt>
      <trkpt lat="43.4344340" lon="-4.8235560">
        <ele>-5.0</ele>
        <time>2021-07-19T06:21:28Z</time>
      </trkpt>
      <trkpt lat="43.4345030" lon="-4.8237610">
        <ele>-5.0</ele>
        <time>2021-07-19T06:21:33Z</time>
      </trkpt>
      <trkpt lat="43.4345380" lon="-4.8238520">
        <ele>-5.0</ele>
        <time>2021-07-19T06:21:35Z</time>
      </trkpt>
      <trkpt lat="43.4345720" lon="-4.8239470">
        <ele>-5.0</ele>
        <time>2021-07-19T06:21:37Z</time>
      </trkpt>
      <trkpt lat="43.4345900" lon="-4.8239950">
        <ele>-5.4</ele>
        <time>2021-07-19T06:21:38Z</time>
      </trkpt>
      <trkpt lat="43.4346070" lon="-4.8240470">
        <ele>-5.8</ele>
        <time>2021-07-19T06:21:39Z</time>
      </trkpt>
      <trkpt lat="43.4346220" lon="-4.8240910">
        <ele>-6.4</ele>
        <time>2021-07-19T06:21:40Z</time>
      </trkpt>
      <trkpt lat="43.4346320" lon="-4.8241240">
        <ele>-6.8</ele>
        <time>2021-07-19T06:21:41Z</time>
      </trkpt>
      <trkpt lat="43.4346440" lon="-4.8241570">
        <ele>-7.2</ele>
        <time>2021-07-19T06:21:42Z</time>
      </trkpt>
      <trkpt lat="43.4347410" lon="-4.8244030">
        <ele>-7.2</ele>
        <time>2021-07-19T06:21:49Z</time>
      </trkpt>
      <trkpt lat="43.4348400" lon="-4.8246070">
        <ele>-7.2</ele>
        <time>2021-07-19T06:21:55Z</time>
      </trkpt>
      <trkpt lat="43.4348560" lon="-4.8246410">
        <ele>-7.2</ele>
        <time>2021-07-19T06:21:56Z</time>
      </trkpt>
      <trkpt lat="43.4348960" lon="-4.8247740">
        <ele>-7.2</ele>
        <time>2021-07-19T06:21:59Z</time>
      </trkpt>
      <trkpt lat="43.4349040" lon="-4.8248330">
        <ele>-7.2</ele>
        <time>2021-07-19T06:22:00Z</time>
      </trkpt>
      <trkpt lat="43.4349160" lon="-4.8249010">
        <ele>-7.2</ele>
        <time>2021-07-19T06:22:01Z</time>
      </trkpt>
      <trkpt lat="43.4349310" lon="-4.8250310">
        <ele>-7.6</ele>
        <time>2021-07-19T06:22:03Z</time>
      </trkpt>
      <trkpt lat="43.4349330" lon="-4.8251000">
        <ele>-8.0</ele>
        <time>2021-07-19T06:22:04Z</time>
      </trkpt>
      <trkpt lat="43.4349330" lon="-4.8251710">
        <ele>-8.4</ele>
        <time>2021-07-19T06:22:05Z</time>
      </trkpt>
      <trkpt lat="43.4349320" lon="-4.8252440">
        <ele>-8.8</ele>
        <time>2021-07-19T06:22:06Z</time>
      </trkpt>
      <trkpt lat="43.4349250" lon="-4.8253180">
        <ele>-9.2</ele>
        <time>2021-07-19T06:22:07Z</time>
      </trkpt>
      <trkpt lat="43.4349030" lon="-4.8255960">
        <ele>-9.2</ele>
        <time>2021-07-19T06:22:11Z</time>
      </trkpt>
      <trkpt lat="43.4348740" lon="-4.8257900">
        <ele>-9.2</ele>
        <time>2021-07-19T06:22:14Z</time>
      </trkpt>
      <trkpt lat="43.4348620" lon="-4.8258500">
        <ele>-9.2</ele>
        <time>2021-07-19T06:22:15Z</time>
      </trkpt>
      <trkpt lat="43.4348130" lon="-4.8260200">
        <ele>-9.2</ele>
        <time>2021-07-19T06:22:18Z</time>
      </trkpt>
      <trkpt lat="43.4347930" lon="-4.8260710">
        <ele>-9.2</ele>
        <time>2021-07-19T06:22:19Z</time>
      </trkpt>
      <trkpt lat="43.4347450" lon="-4.8261750">
        <ele>-9.2</ele>
        <time>2021-07-19T06:22:21Z</time>
      </trkpt>
      <trkpt lat="43.4347200" lon="-4.8262240">
        <ele>-9.2</ele>
        <time>2021-07-19T06:22:22Z</time>
      </trkpt>
      <trkpt lat="43.4346750" lon="-4.8263170">
        <ele>-9.2</ele>
        <time>2021-07-19T06:22:24Z</time>
      </trkpt>
      <trkpt lat="43.4346280" lon="-4.8264480">
        <ele>-9.2</ele>
        <time>2021-07-19T06:22:27Z</time>
      </trkpt>
      <trkpt lat="43.4346170" lon="-4.8264970">
        <ele>-9.2</ele>
        <time>2021-07-19T06:22:28Z</time>
      </trkpt>
      <trkpt lat="43.4346010" lon="-4.8265840">
        <ele>-9.2</ele>
        <time>2021-07-19T06:22:30Z</time>
      </trkpt>
      <trkpt lat="43.4345810" lon="-4.8267080">
        <ele>-9.2</ele>
        <time>2021-07-19T06:22:33Z</time>
      </trkpt>
      <trkpt lat="43.4345760" lon="-4.8267900">
        <ele>-9.2</ele>
        <time>2021-07-19T06:22:35Z</time>
      </trkpt>
      <trkpt lat="43.4345770" lon="-4.8268780">
        <ele>-9.2</ele>
        <time>2021-07-19T06:22:37Z</time>
      </trkpt>
      <trkpt lat="43.4345750" lon="-4.8270160">
        <ele>-9.2</ele>
        <time>2021-07-19T06:22:40Z</time>
      </trkpt>
      <trkpt lat="43.4345600" lon="-4.8271550">
        <ele>-9.2</ele>
        <time>2021-07-19T06:22:43Z</time>
      </trkpt>
      <trkpt lat="43.4345360" lon="-4.8273710">
        <ele>-8.4</ele>
        <time>2021-07-19T06:22:48Z</time>
      </trkpt>
      <trkpt lat="43.4345320" lon="-4.8274080">
        <ele>-8.0</ele>
        <time>2021-07-19T06:22:49Z</time>
      </trkpt>
      <trkpt lat="43.4345330" lon="-4.8274430">
        <ele>-7.4</ele>
        <time>2021-07-19T06:22:50Z</time>
      </trkpt>
      <trkpt lat="43.4345320" lon="-4.8274820">
        <ele>-7.0</ele>
        <time>2021-07-19T06:22:51Z</time>
      </trkpt>
      <trkpt lat="43.4345050" lon="-4.8276650">
        <ele>-7.0</ele>
        <time>2021-07-19T06:22:56Z</time>
      </trkpt>
      <trkpt lat="43.4345000" lon="-4.8276990">
        <ele>-7.0</ele>
        <time>2021-07-19T06:22:57Z</time>
      </trkpt>
      <trkpt lat="43.4344660" lon="-4.8279580">
        <ele>-7.0</ele>
        <time>2021-07-19T06:23:02Z</time>
      </trkpt>
      <trkpt lat="43.4343920" lon="-4.8282720">
        <ele>-7.0</ele>
        <time>2021-07-19T06:23:09Z</time>
      </trkpt>
      <trkpt lat="43.4342750" lon="-4.8285600">
        <ele>-7.0</ele>
        <time>2021-07-19T06:23:15Z</time>
      </trkpt>
      <trkpt lat="43.4342130" lon="-4.8287010">
        <ele>-7.0</ele>
        <time>2021-07-19T06:23:18Z</time>
      </trkpt>
      <trkpt lat="43.4341600" lon="-4.8288460">
        <ele>-7.0</ele>
        <time>2021-07-19T06:23:21Z</time>
      </trkpt>
      <trkpt lat="43.4341210" lon="-4.8289350">
        <ele>-7.0</ele>
        <time>2021-07-19T06:23:23Z</time>
      </trkpt>
      <trkpt lat="43.4341010" lon="-4.8289790">
        <ele>-7.0</ele>
        <time>2021-07-19T06:23:24Z</time>
      </trkpt>
      <trkpt lat="43.4340830" lon="-4.8290260">
        <ele>-7.0</ele>
        <time>2021-07-19T06:23:25Z</time>
      </trkpt>
      <trkpt lat="43.4340520" lon="-4.8291250">
        <ele>-7.0</ele>
        <time>2021-07-19T06:23:27Z</time>
      </trkpt>
      <trkpt lat="43.4340070" lon="-4.8292700">
        <ele>-7.0</ele>
        <time>2021-07-19T06:23:30Z</time>
      </trkpt>
      <trkpt lat="43.4339920" lon="-4.8293160">
        <ele>-7.0</ele>
        <time>2021-07-19T06:23:31Z</time>
      </trkpt>
      <trkpt lat="43.4339480" lon="-4.8293990">
        <ele>-7.0</ele>
        <time>2021-07-19T06:23:35Z</time>
      </trkpt>
      <trkpt lat="43.4339440" lon="-4.8294020">
        <ele>-7.0</ele>
        <time>2021-07-19T06:23:36Z</time>
      </trkpt>
      <trkpt lat="43.4339300" lon="-4.8294290">
        <ele>-7.0</ele>
        <time>2021-07-19T06:24:13Z</time>
      </trkpt>
      <trkpt lat="43.4339180" lon="-4.8294580">
        <ele>-7.0</ele>
        <time>2021-07-19T06:24:14Z</time>
      </trkpt>
      <trkpt lat="43.4339030" lon="-4.8294780">
        <ele>-7.0</ele>
        <time>2021-07-19T06:24:15Z</time>
      </trkpt>
      <trkpt lat="43.4338300" lon="-4.8296660">
        <ele>-7.0</ele>
        <time>2021-07-19T06:24:20Z</time>
      </trkpt>
      <trkpt lat="43.4337700" lon="-4.8299960">
        <ele>-7.0</ele>
        <time>2021-07-19T06:24:26Z</time>
      </trkpt>
      <trkpt lat="43.4337460" lon="-4.8300470">
        <ele>-7.4</ele>
        <time>2021-07-19T06:24:27Z</time>
      </trkpt>
      <trkpt lat="43.4337160" lon="-4.8301000">
        <ele>-7.8</ele>
        <time>2021-07-19T06:24:28Z</time>
      </trkpt>
      <trkpt lat="43.4336870" lon="-4.8301340">
        <ele>-8.2</ele>
        <time>2021-07-19T06:24:29Z</time>
      </trkpt>
      <trkpt lat="43.4336580" lon="-4.8301730">
        <ele>-8.6</ele>
        <time>2021-07-19T06:24:30Z</time>
      </trkpt>
      <trkpt lat="43.4336260" lon="-4.8302060">
        <ele>-9.0</ele>
        <time>2021-07-19T06:24:31Z</time>
      </trkpt>
      <trkpt lat="43.4334820" lon="-4.8303500">
        <ele>-9.6</ele>
        <time>2021-07-19T06:24:36Z</time>
      </trkpt>
      <trkpt lat="43.4334600" lon="-4.8303690">
        <ele>-10.0</ele>
        <time>2021-07-19T06:24:37Z</time>
      </trkpt>
      <trkpt lat="43.4334540" lon="-4.8303990">
        <ele>-10.4</ele>
        <time>2021-07-19T06:24:38Z</time>
      </trkpt>
      <trkpt lat="43.4334490" lon="-4.8304320">
        <ele>-10.8</ele>
        <time>2021-07-19T06:24:39Z</time>
      </trkpt>
      <trkpt lat="43.4334580" lon="-4.8304740">
        <ele>-11.4</ele>
        <time>2021-07-19T06:24:40Z</time>
      </trkpt>
      <trkpt lat="43.4334660" lon="-4.8305160">
        <ele>-11.4</ele>
        <time>2021-07-19T06:24:41Z</time>
      </trkpt>
      <trkpt lat="43.4334730" lon="-4.8305610">
        <ele>-11.4</ele>
        <time>2021-07-19T06:24:42Z</time>
      </trkpt>
      <trkpt lat="43.4335220" lon="-4.8308720">
        <ele>-11.4</ele>
        <time>2021-07-19T06:24:48Z</time>
      </trkpt>
      <trkpt lat="43.4335400" lon="-4.8313150">
        <ele>-11.4</ele>
        <time>2021-07-19T06:24:55Z</time>
      </trkpt>
      <trkpt lat="43.4335340" lon="-4.8314340">
        <ele>-11.4</ele>
        <time>2021-07-19T06:24:57Z</time>
      </trkpt>
      <trkpt lat="43.4335140" lon="-4.8316080">
        <ele>-11.4</ele>
        <time>2021-07-19T06:25:00Z</time>
      </trkpt>
      <trkpt lat="43.4335070" lon="-4.8316630">
        <ele>-11.8</ele>
        <time>2021-07-19T06:25:01Z</time>
      </trkpt>
      <trkpt lat="43.4335000" lon="-4.8317190">
        <ele>-12.2</ele>
        <time>2021-07-19T06:25:02Z</time>
      </trkpt>
      <trkpt lat="43.4334920" lon="-4.8317820">
        <ele>-12.6</ele>
        <time>2021-07-19T06:25:03Z</time>
      </trkpt>
      <trkpt lat="43.4334820" lon="-4.8318410">
        <ele>-13.0</ele>
        <time>2021-07-19T06:25:04Z</time>
      </trkpt>
      <trkpt lat="43.4334750" lon="-4.8318980">
        <ele>-13.4</ele>
        <time>2021-07-19T06:25:05Z</time>
      </trkpt>
      <trkpt lat="43.4334500" lon="-4.8320720">
        <ele>-13.4</ele>
        <time>2021-07-19T06:25:08Z</time>
      </trkpt>
      <trkpt lat="43.4334270" lon="-4.8322980">
        <ele>-13.4</ele>
        <time>2021-07-19T06:25:12Z</time>
      </trkpt>
      <trkpt lat="43.4334390" lon="-4.8326320">
        <ele>-13.4</ele>
        <time>2021-07-19T06:25:18Z</time>
      </trkpt>
      <trkpt lat="43.4334570" lon="-4.8326770">
        <ele>-13.4</ele>
        <time>2021-07-19T06:25:19Z</time>
      </trkpt>
      <trkpt lat="43.4335140" lon="-4.8328800">
        <ele>-13.4</ele>
        <time>2021-07-19T06:25:23Z</time>
      </trkpt>
      <trkpt lat="43.4335430" lon="-4.8330390">
        <ele>-13.4</ele>
        <time>2021-07-19T06:25:26Z</time>
      </trkpt>
      <trkpt lat="43.4335590" lon="-4.8333320">
        <ele>-13.4</ele>
        <time>2021-07-19T06:25:33Z</time>
      </trkpt>
      <trkpt lat="43.4335530" lon="-4.8333420">
        <ele>-13.4</ele>
        <time>2021-07-19T06:25:35Z</time>
      </trkpt>
      <trkpt lat="43.4335380" lon="-4.8333700">
        <ele>-13.4</ele>
        <time>2021-07-19T06:26:15Z</time>
      </trkpt>
      <trkpt lat="43.4335350" lon="-4.8333820">
        <ele>-13.4</ele>
        <time>2021-07-19T06:26:16Z</time>
      </trkpt>
      <trkpt lat="43.4335150" lon="-4.8334720">
        <ele>-13.4</ele>
        <time>2021-07-19T06:26:19Z</time>
      </trkpt>
      <trkpt lat="43.4335060" lon="-4.8335130">
        <ele>-13.4</ele>
        <time>2021-07-19T06:26:20Z</time>
      </trkpt>
      <trkpt lat="43.4335000" lon="-4.8335560">
        <ele>-13.4</ele>
        <time>2021-07-19T06:26:21Z</time>
      </trkpt>
      <trkpt lat="43.4334920" lon="-4.8337480">
        <ele>-13.4</ele>
        <time>2021-07-19T06:26:25Z</time>
      </trkpt>
      <trkpt lat="43.4335080" lon="-4.8338450">
        <ele>-13.4</ele>
        <time>2021-07-19T06:26:27Z</time>
      </trkpt>
      <trkpt lat="43.4335460" lon="-4.8342350">
        <ele>-13.4</ele>
        <time>2021-07-19T06:26:35Z</time>
      </trkpt>
      <trkpt lat="43.4334470" lon="-4.8343850">
        <ele>-13.4</ele>
        <time>2021-07-19T06:26:39Z</time>
      </trkpt>
      <trkpt lat="43.4333570" lon="-4.8344980">
        <ele>-13.4</ele>
        <time>2021-07-19T06:26:42Z</time>
      </trkpt>
      <trkpt lat="43.4333060" lon="-4.8345900">
        <ele>-13.4</ele>
        <time>2021-07-19T06:26:44Z</time>
      </trkpt>
      <trkpt lat="43.4332800" lon="-4.8346420">
        <ele>-13.4</ele>
        <time>2021-07-19T06:26:45Z</time>
      </trkpt>
      <trkpt lat="43.4331290" lon="-4.8350510">
        <ele>-13.4</ele>
        <time>2021-07-19T06:26:53Z</time>
      </trkpt>
      <trkpt lat="43.4329910" lon="-4.8354760">
        <ele>-13.4</ele>
        <time>2021-07-19T06:27:01Z</time>
      </trkpt>
      <trkpt lat="43.4329870" lon="-4.8355400">
        <ele>-13.4</ele>
        <time>2021-07-19T06:27:02Z</time>
      </trkpt>
      <trkpt lat="43.4329980" lon="-4.8359010">
        <ele>-13.4</ele>
        <time>2021-07-19T06:27:08Z</time>
      </trkpt>
      <trkpt lat="43.4330560" lon="-4.8364000">
        <ele>-13.4</ele>
        <time>2021-07-19T06:27:17Z</time>
      </trkpt>
      <trkpt lat="43.4331610" lon="-4.8369160">
        <ele>-13.4</ele>
        <time>2021-07-19T06:27:26Z</time>
      </trkpt>
      <trkpt lat="43.4332140" lon="-4.8370690">
        <ele>-13.4</ele>
        <time>2021-07-19T06:27:29Z</time>
      </trkpt>
      <trkpt lat="43.4332520" lon="-4.8371650">
        <ele>-13.4</ele>
        <time>2021-07-19T06:27:31Z</time>
      </trkpt>
      <trkpt lat="43.4332950" lon="-4.8372470">
        <ele>-13.4</ele>
        <time>2021-07-19T06:27:33Z</time>
      </trkpt>
      <trkpt lat="43.4334530" lon="-4.8373820">
        <ele>-13.4</ele>
        <time>2021-07-19T06:27:38Z</time>
      </trkpt>
      <trkpt lat="43.4335780" lon="-4.8373830">
        <ele>-13.4</ele>
        <time>2021-07-19T06:27:41Z</time>
      </trkpt>
      <trkpt lat="43.4336100" lon="-4.8373790">
        <ele>-13.4</ele>
        <time>2021-07-19T06:27:42Z</time>
      </trkpt>
      <trkpt lat="43.4337220" lon="-4.8372920">
        <ele>-13.4</ele>
        <time>2021-07-19T06:27:46Z</time>
      </trkpt>
      <trkpt lat="43.4337930" lon="-4.8371400">
        <ele>-13.4</ele>
        <time>2021-07-19T06:27:49Z</time>
      </trkpt>
      <trkpt lat="43.4338130" lon="-4.8370940">
        <ele>-13.4</ele>
        <time>2021-07-19T06:27:50Z</time>
      </trkpt>
      <trkpt lat="43.4338550" lon="-4.8370020">
        <ele>-13.4</ele>
        <time>2021-07-19T06:27:52Z</time>
      </trkpt>
      <trkpt lat="43.4339400" lon="-4.8368160">
        <ele>-13.4</ele>
        <time>2021-07-19T06:27:56Z</time>
      </trkpt>
      <trkpt lat="43.4339780" lon="-4.8367280">
        <ele>-13.4</ele>
        <time>2021-07-19T06:27:58Z</time>
      </trkpt>
      <trkpt lat="43.4341410" lon="-4.8365040">
        <ele>-13.4</ele>
        <time>2021-07-19T06:28:04Z</time>
      </trkpt>
      <trkpt lat="43.4342650" lon="-4.8364410">
        <ele>-13.4</ele>
        <time>2021-07-19T06:28:07Z</time>
      </trkpt>
      <trkpt lat="43.4343490" lon="-4.8364240">
        <ele>-13.4</ele>
        <time>2021-07-19T06:28:09Z</time>
      </trkpt>
      <trkpt lat="43.4344680" lon="-4.8364250">
        <ele>-13.4</ele>
        <time>2021-07-19T06:28:12Z</time>
      </trkpt>
      <trkpt lat="43.4345340" lon="-4.8364450">
        <ele>-13.4</ele>
        <time>2021-07-19T06:28:14Z</time>
      </trkpt>
      <trkpt lat="43.4346060" lon="-4.8364920">
        <ele>-13.4</ele>
        <time>2021-07-19T06:28:16Z</time>
      </trkpt>
      <trkpt lat="43.4346460" lon="-4.8365120">
        <ele>-13.4</ele>
        <time>2021-07-19T06:28:17Z</time>
      </trkpt>
      <trkpt lat="43.4349150" lon="-4.8366830">
        <ele>-13.4</ele>
        <time>2021-07-19T06:28:25Z</time>
      </trkpt>
      <trkpt lat="43.4350870" lon="-4.8368070">
        <ele>-13.4</ele>
        <time>2021-07-19T06:28:30Z</time>
      </trkpt>
      <trkpt lat="43.4352580" lon="-4.8369240">
        <ele>-13.4</ele>
        <time>2021-07-19T06:28:35Z</time>
      </trkpt>
      <trkpt lat="43.4354510" lon="-4.8371310">
        <ele>-13.4</ele>
        <time>2021-07-19T06:28:41Z</time>
      </trkpt>
      <trkpt lat="43.4356720" lon="-4.8374570">
        <ele>-13.4</ele>
        <time>2021-07-19T06:28:49Z</time>
      </trkpt>
      <trkpt lat="43.4359360" lon="-4.8379190">
        <ele>-13.4</ele>
        <time>2021-07-19T06:28:59Z</time>
      </trkpt>
      <trkpt lat="43.4360570" lon="-4.8381660">
        <ele>-13.4</ele>
        <time>2021-07-19T06:29:04Z</time>
      </trkpt>
      <trkpt lat="43.4361680" lon="-4.8383910">
        <ele>-13.4</ele>
        <time>2021-07-19T06:29:09Z</time>
      </trkpt>
      <trkpt lat="43.4363810" lon="-4.8388150">
        <ele>-13.4</ele>
        <time>2021-07-19T06:29:19Z</time>
      </trkpt>
      <trkpt lat="43.4364900" lon="-4.8390300">
        <ele>-13.4</ele>
        <time>2021-07-19T06:29:26Z</time>
      </trkpt>
      <trkpt lat="43.4365010" lon="-4.8390540">
        <ele>-13.4</ele>
        <time>2021-07-19T06:29:41Z</time>
      </trkpt>
      <trkpt lat="43.4365300" lon="-4.8391120">
        <ele>-13.4</ele>
        <time>2021-07-19T06:29:44Z</time>
      </trkpt>
      <trkpt lat="43.4365420" lon="-4.8391370">
        <ele>-13.4</ele>
        <time>2021-07-19T06:29:45Z</time>
      </trkpt>
      <trkpt lat="43.4366390" lon="-4.8393200">
        <ele>-13.4</ele>
        <time>2021-07-19T06:29:51Z</time>
      </trkpt>
      <trkpt lat="43.4367290" lon="-4.8395550">
        <ele>-13.0</ele>
        <time>2021-07-19T06:29:58Z</time>
      </trkpt>
      <trkpt lat="43.4367320" lon="-4.8395960">
        <ele>-12.6</ele>
        <time>2021-07-19T06:29:59Z</time>
      </trkpt>
      <trkpt lat="43.4367310" lon="-4.8396370">
        <ele>-12.2</ele>
        <time>2021-07-19T06:30:00Z</time>
      </trkpt>
      <trkpt lat="43.4367300" lon="-4.8396760">
        <ele>-11.6</ele>
        <time>2021-07-19T06:30:01Z</time>
      </trkpt>
      <trkpt lat="43.4367270" lon="-4.8397160">
        <ele>-11.2</ele>
        <time>2021-07-19T06:30:02Z</time>
      </trkpt>
      <trkpt lat="43.4366870" lon="-4.8398630">
        <ele>-11.2</ele>
        <time>2021-07-19T06:30:06Z</time>
      </trkpt>
      <trkpt lat="43.4366360" lon="-4.8400770">
        <ele>-11.2</ele>
        <time>2021-07-19T06:30:11Z</time>
      </trkpt>
      <trkpt lat="43.4366140" lon="-4.8401700">
        <ele>-11.2</ele>
        <time>2021-07-19T06:30:13Z</time>
      </trkpt>
      <trkpt lat="43.4365170" lon="-4.8405200">
        <ele>-11.2</ele>
        <time>2021-07-19T06:30:20Z</time>
      </trkpt>
      <trkpt lat="43.4364430" lon="-4.8408520">
        <ele>-10.8</ele>
        <time>2021-07-19T06:30:27Z</time>
      </trkpt>
      <trkpt lat="43.4364290" lon="-4.8408990">
        <ele>-10.4</ele>
        <time>2021-07-19T06:30:28Z</time>
      </trkpt>
      <trkpt lat="43.4364150" lon="-4.8409480">
        <ele>-10.0</ele>
        <time>2021-07-19T06:30:29Z</time>
      </trkpt>
      <trkpt lat="43.4364020" lon="-4.8409970">
        <ele>-9.6</ele>
        <time>2021-07-19T06:30:30Z</time>
      </trkpt>
      <trkpt lat="43.4363870" lon="-4.8410460">
        <ele>-9.2</ele>
        <time>2021-07-19T06:30:31Z</time>
      </trkpt>
      <trkpt lat="43.4363320" lon="-4.8412920">
        <ele>-9.2</ele>
        <time>2021-07-19T06:30:36Z</time>
      </trkpt>
      <trkpt lat="43.4362450" lon="-4.8416410">
        <ele>-9.2</ele>
        <time>2021-07-19T06:30:44Z</time>
      </trkpt>
      <trkpt lat="43.4362360" lon="-4.8416840">
        <ele>-9.2</ele>
        <time>2021-07-19T06:30:45Z</time>
      </trkpt>
      <trkpt lat="43.4362180" lon="-4.8417680">
        <ele>-8.8</ele>
        <time>2021-07-19T06:30:47Z</time>
      </trkpt>
      <trkpt lat="43.4362090" lon="-4.8418080">
        <ele>-8.2</ele>
        <time>2021-07-19T06:30:48Z</time>
      </trkpt>
      <trkpt lat="43.4362000" lon="-4.8418490">
        <ele>-7.8</ele>
        <time>2021-07-19T06:30:49Z</time>
      </trkpt>
      <trkpt lat="43.4361900" lon="-4.8418880">
        <ele>-7.4</ele>
        <time>2021-07-19T06:30:50Z</time>
      </trkpt>
      <trkpt lat="43.4361800" lon="-4.8419280">
        <ele>-7.0</ele>
        <time>2021-07-19T06:30:51Z</time>
      </trkpt>
      <trkpt lat="43.4361520" lon="-4.8420500">
        <ele>-7.0</ele>
        <time>2021-07-19T06:30:54Z</time>
      </trkpt>
      <trkpt lat="43.4360920" lon="-4.8423290">
        <ele>-7.0</ele>
        <time>2021-07-19T06:31:01Z</time>
      </trkpt>
      <trkpt lat="43.4360460" lon="-4.8425210">
        <ele>-6.6</ele>
        <time>2021-07-19T06:31:06Z</time>
      </trkpt>
      <trkpt lat="43.4360380" lon="-4.8425600">
        <ele>-6.0</ele>
        <time>2021-07-19T06:31:07Z</time>
      </trkpt>
      <trkpt lat="43.4360310" lon="-4.8425990">
        <ele>-5.6</ele>
        <time>2021-07-19T06:31:08Z</time>
      </trkpt>
      <trkpt lat="43.4360220" lon="-4.8426350">
        <ele>-5.2</ele>
        <time>2021-07-19T06:31:09Z</time>
      </trkpt>
      <trkpt lat="43.4360140" lon="-4.8426710">
        <ele>-4.8</ele>
        <time>2021-07-19T06:31:10Z</time>
      </trkpt>
      <trkpt lat="43.4359580" lon="-4.8428810">
        <ele>-4.8</ele>
        <time>2021-07-19T06:31:16Z</time>
      </trkpt>
      <trkpt lat="43.4359500" lon="-4.8429150">
        <ele>-4.8</ele>
        <time>2021-07-19T06:31:17Z</time>
      </trkpt>
      <trkpt lat="43.4359290" lon="-4.8430240">
        <ele>-4.4</ele>
        <time>2021-07-19T06:31:20Z</time>
      </trkpt>
      <trkpt lat="43.4359200" lon="-4.8430610">
        <ele>-4.0</ele>
        <time>2021-07-19T06:31:21Z</time>
      </trkpt>
      <trkpt lat="43.4359130" lon="-4.8430980">
        <ele>-3.6</ele>
        <time>2021-07-19T06:31:22Z</time>
      </trkpt>
      <trkpt lat="43.4359060" lon="-4.8431370">
        <ele>-3.2</ele>
        <time>2021-07-19T06:31:23Z</time>
      </trkpt>
      <trkpt lat="43.4358990" lon="-4.8431730">
        <ele>-2.8</ele>
        <time>2021-07-19T06:31:24Z</time>
      </trkpt>
      <trkpt lat="43.4358920" lon="-4.8432100">
        <ele>-2.8</ele>
        <time>2021-07-19T06:31:25Z</time>
      </trkpt>
      <trkpt lat="43.4358330" lon="-4.8434620">
        <ele>-2.4</ele>
        <time>2021-07-19T06:31:32Z</time>
      </trkpt>
      <trkpt lat="43.4358250" lon="-4.8435010">
        <ele>-2.0</ele>
        <time>2021-07-19T06:31:33Z</time>
      </trkpt>
      <trkpt lat="43.4358170" lon="-4.8435400">
        <ele>-1.6</ele>
        <time>2021-07-19T06:31:34Z</time>
      </trkpt>
      <trkpt lat="43.4358080" lon="-4.8435770">
        <ele>-1.2</ele>
        <time>2021-07-19T06:31:35Z</time>
      </trkpt>
      <trkpt lat="43.4358000" lon="-4.8436140">
        <ele>-0.8</ele>
        <time>2021-07-19T06:31:36Z</time>
      </trkpt>
      <trkpt lat="43.4357390" lon="-4.8438670">
        <ele>-0.8</ele>
        <time>2021-07-19T06:31:43Z</time>
      </trkpt>
      <trkpt lat="43.4356910" lon="-4.8440920">
        <ele>-0.4</ele>
        <time>2021-07-19T06:31:49Z</time>
      </trkpt>
      <trkpt lat="43.4356820" lon="-4.8441300">
        <ele>0.0</ele>
        <time>2021-07-19T06:31:50Z</time>
      </trkpt>
      <trkpt lat="43.4356710" lon="-4.8441660">
        <ele>0.4</ele>
        <time>2021-07-19T06:31:51Z</time>
      </trkpt>
      <trkpt lat="43.4356620" lon="-4.8442000">
        <ele>0.8</ele>
        <time>2021-07-19T06:31:52Z</time>
      </trkpt>
      <trkpt lat="43.4356530" lon="-4.8442360">
        <ele>1.2</ele>
        <time>2021-07-19T06:31:53Z</time>
      </trkpt>
      <trkpt lat="43.4355900" lon="-4.8445200">
        <ele>1.2</ele>
        <time>2021-07-19T06:32:01Z</time>
      </trkpt>
      <trkpt lat="43.4355760" lon="-4.8445930">
        <ele>1.6</ele>
        <time>2021-07-19T06:32:03Z</time>
      </trkpt>
      <trkpt lat="43.4355660" lon="-4.8446270">
        <ele>2.2</ele>
        <time>2021-07-19T06:32:04Z</time>
      </trkpt>
      <trkpt lat="43.4355570" lon="-4.8446620">
        <ele>2.6</ele>
        <time>2021-07-19T06:32:05Z</time>
      </trkpt>
      <trkpt lat="43.4355480" lon="-4.8446970">
        <ele>3.0</ele>
        <time>2021-07-19T06:32:06Z</time>
      </trkpt>
      <trkpt lat="43.4355400" lon="-4.8447330">
        <ele>3.4</ele>
        <time>2021-07-19T06:32:07Z</time>
      </trkpt>
      <trkpt lat="43.4355130" lon="-4.8448760">
        <ele>3.4</ele>
        <time>2021-07-19T06:32:11Z</time>
      </trkpt>
      <trkpt lat="43.4354680" lon="-4.8450560">
        <ele>3.8</ele>
        <time>2021-07-19T06:32:16Z</time>
      </trkpt>
      <trkpt lat="43.4354570" lon="-4.8450930">
        <ele>4.2</ele>
        <time>2021-07-19T06:32:17Z</time>
      </trkpt>
      <trkpt lat="43.4354500" lon="-4.8451270">
        <ele>4.6</ele>
        <time>2021-07-19T06:32:18Z</time>
      </trkpt>
      <trkpt lat="43.4354440" lon="-4.8451610">
        <ele>5.0</ele>
        <time>2021-07-19T06:32:19Z</time>
      </trkpt>
      <trkpt lat="43.4354400" lon="-4.8451930">
        <ele>5.4</ele>
        <time>2021-07-19T06:32:20Z</time>
      </trkpt>
      <trkpt lat="43.4354270" lon="-4.8454010">
        <ele>5.4</ele>
        <time>2021-07-19T06:32:26Z</time>
      </trkpt>
      <trkpt lat="43.4354900" lon="-4.8456220">
        <ele>5.4</ele>
        <time>2021-07-19T06:32:33Z</time>
      </trkpt>
      <trkpt lat="43.4355560" lon="-4.8457070">
        <ele>5.8</ele>
        <time>2021-07-19T06:32:37Z</time>
      </trkpt>
      <trkpt lat="43.4355750" lon="-4.8457340">
        <ele>6.6</ele>
        <time>2021-07-19T06:32:38Z</time>
      </trkpt>
      <trkpt lat="43.4355950" lon="-4.8457550">
        <ele>7.2</ele>
        <time>2021-07-19T06:32:39Z</time>
      </trkpt>
      <trkpt lat="43.4356180" lon="-4.8457760">
        <ele>7.6</ele>
        <time>2021-07-19T06:32:40Z</time>
      </trkpt>
      <trkpt lat="43.4356420" lon="-4.8457930">
        <ele>7.6</ele>
        <time>2021-07-19T06:32:41Z</time>
      </trkpt>
      <trkpt lat="43.4357940" lon="-4.8458870">
        <ele>7.6</ele>
        <time>2021-07-19T06:32:47Z</time>
      </trkpt>
      <trkpt lat="43.4359160" lon="-4.8459490">
        <ele>7.6</ele>
        <time>2021-07-19T06:32:53Z</time>
      </trkpt>
      <trkpt lat="43.4359270" lon="-4.8459680">
        <ele>7.6</ele>
        <time>2021-07-19T06:32:54Z</time>
      </trkpt>
      <trkpt lat="43.4359300" lon="-4.8459920">
        <ele>7.6</ele>
        <time>2021-07-19T06:32:56Z</time>
      </trkpt>
      <trkpt lat="43.4359450" lon="-4.8460480">
        <ele>7.6</ele>
        <time>2021-07-19T06:33:07Z</time>
      </trkpt>
      <trkpt lat="43.4359370" lon="-4.8460650">
        <ele>7.6</ele>
        <time>2021-07-19T06:33:08Z</time>
      </trkpt>
      <trkpt lat="43.4358850" lon="-4.8461600">
        <ele>8.0</ele>
        <time>2021-07-19T06:33:14Z</time>
      </trkpt>
      <trkpt lat="43.4358830" lon="-4.8461830">
        <ele>8.4</ele>
        <time>2021-07-19T06:33:15Z</time>
      </trkpt>
      <trkpt lat="43.4358800" lon="-4.8462070">
        <ele>8.8</ele>
        <time>2021-07-19T06:33:16Z</time>
      </trkpt>
      <trkpt lat="43.4358760" lon="-4.8462310">
        <ele>9.4</ele>
        <time>2021-07-19T06:33:17Z</time>
      </trkpt>
      <trkpt lat="43.4358710" lon="-4.8462580">
        <ele>9.8</ele>
        <time>2021-07-19T06:33:18Z</time>
      </trkpt>
      <trkpt lat="43.4358530" lon="-4.8464080">
        <ele>9.8</ele>
        <time>2021-07-19T06:33:23Z</time>
      </trkpt>
      <trkpt lat="43.4358480" lon="-4.8465740">
        <ele>10.2</ele>
        <time>2021-07-19T06:33:29Z</time>
      </trkpt>
      <trkpt lat="43.4358470" lon="-4.8465960">
        <ele>10.6</ele>
        <time>2021-07-19T06:33:30Z</time>
      </trkpt>
      <trkpt lat="43.4358490" lon="-4.8466210">
        <ele>11.0</ele>
        <time>2021-07-19T06:33:31Z</time>
      </trkpt>
      <trkpt lat="43.4358500" lon="-4.8466500">
        <ele>11.4</ele>
        <time>2021-07-19T06:33:32Z</time>
      </trkpt>
      <trkpt lat="43.4358540" lon="-4.8466850">
        <ele>11.8</ele>
        <time>2021-07-19T06:33:33Z</time>
      </trkpt>
      <trkpt lat="43.4358620" lon="-4.8467590">
        <ele>11.8</ele>
        <time>2021-07-19T06:33:35Z</time>
      </trkpt>
      <trkpt lat="43.4358930" lon="-4.8469760">
        <ele>11.8</ele>
        <time>2021-07-19T06:33:41Z</time>
      </trkpt>
      <trkpt lat="43.4358950" lon="-4.8470160">
        <ele>11.8</ele>
        <time>2021-07-19T06:33:42Z</time>
      </trkpt>
      <trkpt lat="43.4358780" lon="-4.8472770">
        <ele>11.8</ele>
        <time>2021-07-19T06:33:48Z</time>
      </trkpt>
      <trkpt lat="43.4358590" lon="-4.8474020">
        <ele>11.8</ele>
        <time>2021-07-19T06:33:51Z</time>
      </trkpt>
      <trkpt lat="43.4358260" lon="-4.8475530">
        <ele>11.8</ele>
        <time>2021-07-19T06:33:55Z</time>
      </trkpt>
      <trkpt lat="43.4358140" lon="-4.8475870">
        <ele>11.8</ele>
        <time>2021-07-19T06:33:56Z</time>
      </trkpt>
      <trkpt lat="43.4356790" lon="-4.8478720">
        <ele>11.8</ele>
        <time>2021-07-19T06:34:04Z</time>
      </trkpt>
      <trkpt lat="43.4355410" lon="-4.8480540">
        <ele>11.8</ele>
        <time>2021-07-19T06:34:11Z</time>
      </trkpt>
      <trkpt lat="43.4354370" lon="-4.8482380">
        <ele>11.8</ele>
        <time>2021-07-19T06:34:17Z</time>
      </trkpt>
      <trkpt lat="43.4354040" lon="-4.8483940">
        <ele>12.2</ele>
        <time>2021-07-19T06:34:21Z</time>
      </trkpt>
      <trkpt lat="43.4353960" lon="-4.8484320">
        <ele>12.6</ele>
        <time>2021-07-19T06:34:22Z</time>
      </trkpt>
      <trkpt lat="43.4353890" lon="-4.8484650">
        <ele>13.2</ele>
        <time>2021-07-19T06:34:23Z</time>
      </trkpt>
      <trkpt lat="43.4353830" lon="-4.8484970">
        <ele>13.6</ele>
        <time>2021-07-19T06:34:24Z</time>
      </trkpt>
      <trkpt lat="43.4353780" lon="-4.8485290">
        <ele>14.0</ele>
        <time>2021-07-19T06:34:25Z</time>
      </trkpt>
      <trkpt lat="43.4353770" lon="-4.8487000">
        <ele>14.0</ele>
        <time>2021-07-19T06:34:30Z</time>
      </trkpt>
      <trkpt lat="43.4353800" lon="-4.8489120">
        <ele>14.0</ele>
        <time>2021-07-19T06:34:36Z</time>
      </trkpt>
      <trkpt lat="43.4353800" lon="-4.8489810">
        <ele>14.0</ele>
        <time>2021-07-19T06:34:38Z</time>
      </trkpt>
      <trkpt lat="43.4353850" lon="-4.8492340">
        <ele>14.0</ele>
        <time>2021-07-19T06:34:44Z</time>
      </trkpt>
      <trkpt lat="43.4354060" lon="-4.8493840">
        <ele>14.0</ele>
        <time>2021-07-19T06:34:48Z</time>
      </trkpt>
      <trkpt lat="43.4354110" lon="-4.8494540">
        <ele>14.0</ele>
        <time>2021-07-19T06:34:50Z</time>
      </trkpt>
      <trkpt lat="43.4354200" lon="-4.8495240">
        <ele>14.0</ele>
        <time>2021-07-19T06:34:52Z</time>
      </trkpt>
      <trkpt lat="43.4354390" lon="-4.8496460">
        <ele>14.0</ele>
        <time>2021-07-19T06:34:55Z</time>
      </trkpt>
      <trkpt lat="43.4354440" lon="-4.8497340">
        <ele>14.0</ele>
        <time>2021-07-19T06:34:57Z</time>
      </trkpt>
      <trkpt lat="43.4354520" lon="-4.8500320">
        <ele>14.0</ele>
        <time>2021-07-19T06:35:03Z</time>
      </trkpt>
      <trkpt lat="43.4354430" lon="-4.8501390">
        <ele>14.0</ele>
        <time>2021-07-19T06:35:05Z</time>
      </trkpt>
      <trkpt lat="43.4354010" lon="-4.8504550">
        <ele>14.0</ele>
        <time>2021-07-19T06:35:12Z</time>
      </trkpt>
      <trkpt lat="43.4353340" lon="-4.8507630">
        <ele>14.0</ele>
        <time>2021-07-19T06:35:19Z</time>
      </trkpt>
      <trkpt lat="43.4352740" lon="-4.8510070">
        <ele>14.0</ele>
        <time>2021-07-19T06:35:25Z</time>
      </trkpt>
      <trkpt lat="43.4352190" lon="-4.8511160">
        <ele>14.0</ele>
        <time>2021-07-19T06:35:30Z</time>
      </trkpt>
      <trkpt lat="43.4351780" lon="-4.8511900">
        <ele>14.0</ele>
        <time>2021-07-19T06:35:35Z</time>
      </trkpt>
      <trkpt lat="43.4351650" lon="-4.8512060">
        <ele>14.0</ele>
        <time>2021-07-19T06:35:36Z</time>
      </trkpt>
      <trkpt lat="43.4350790" lon="-4.8513280">
        <ele>14.0</ele>
        <time>2021-07-19T06:35:42Z</time>
      </trkpt>
      <trkpt lat="43.4349750" lon="-4.8514400">
        <ele>14.0</ele>
        <time>2021-07-19T06:35:49Z</time>
      </trkpt>
      <trkpt lat="43.4349150" lon="-4.8515300">
        <ele>14.0</ele>
        <time>2021-07-19T06:35:54Z</time>
      </trkpt>
      <trkpt lat="43.4349110" lon="-4.8515510">
        <ele>14.0</ele>
        <time>2021-07-19T06:35:55Z</time>
      </trkpt>
      <trkpt lat="43.4349140" lon="-4.8516410">
        <ele>14.4</ele>
        <time>2021-07-19T06:35:59Z</time>
      </trkpt>
      <trkpt lat="43.4349150" lon="-4.8516700">
        <ele>14.8</ele>
        <time>2021-07-19T06:36:00Z</time>
      </trkpt>
      <trkpt lat="43.4349170" lon="-4.8516970">
        <ele>15.2</ele>
        <time>2021-07-19T06:36:01Z</time>
      </trkpt>
      <trkpt lat="43.4349200" lon="-4.8517230">
        <ele>15.6</ele>
        <time>2021-07-19T06:36:02Z</time>
      </trkpt>
      <trkpt lat="43.4349220" lon="-4.8517510">
        <ele>16.0</ele>
        <time>2021-07-19T06:36:03Z</time>
      </trkpt>
      <trkpt lat="43.4349150" lon="-4.8519220">
        <ele>16.0</ele>
        <time>2021-07-19T06:36:09Z</time>
      </trkpt>
      <trkpt lat="43.4348980" lon="-4.8521660">
        <ele>16.0</ele>
        <time>2021-07-19T06:36:16Z</time>
      </trkpt>
      <trkpt lat="43.4348710" lon="-4.8525060">
        <ele>16.0</ele>
        <time>2021-07-19T06:36:25Z</time>
      </trkpt>
      <trkpt lat="43.4348460" lon="-4.8528350">
        <ele>16.4</ele>
        <time>2021-07-19T06:36:33Z</time>
      </trkpt>
      <trkpt lat="43.4348430" lon="-4.8528770">
        <ele>16.8</ele>
        <time>2021-07-19T06:36:34Z</time>
      </trkpt>
      <trkpt lat="43.4348380" lon="-4.8529160">
        <ele>17.2</ele>
        <time>2021-07-19T06:36:35Z</time>
      </trkpt>
      <trkpt lat="43.4348330" lon="-4.8529560">
        <ele>17.6</ele>
        <time>2021-07-19T06:36:36Z</time>
      </trkpt>
      <trkpt lat="43.4348230" lon="-4.8529980">
        <ele>18.0</ele>
        <time>2021-07-19T06:36:37Z</time>
      </trkpt>
      <trkpt lat="43.4347780" lon="-4.8531320">
        <ele>18.0</ele>
        <time>2021-07-19T06:36:41Z</time>
      </trkpt>
      <trkpt lat="43.4346330" lon="-4.8533220">
        <ele>18.0</ele>
        <time>2021-07-19T06:36:48Z</time>
      </trkpt>
      <trkpt lat="43.4344230" lon="-4.8534810">
        <ele>18.0</ele>
        <time>2021-07-19T06:36:56Z</time>
      </trkpt>
      <trkpt lat="43.4343890" lon="-4.8535280">
        <ele>18.0</ele>
        <time>2021-07-19T06:37:00Z</time>
      </trkpt>
      <trkpt lat="43.4343880" lon="-4.8535290">
        <ele>18.0</ele>
        <time>2021-07-19T06:37:01Z</time>
      </trkpt>
      <trkpt lat="43.4344010" lon="-4.8537030">
        <ele>18.0</ele>
        <time>2021-07-19T06:37:23Z</time>
      </trkpt>
      <trkpt lat="43.4344080" lon="-4.8537470">
        <ele>18.0</ele>
        <time>2021-07-19T06:37:25Z</time>
      </trkpt>
      <trkpt lat="43.4344110" lon="-4.8537720">
        <ele>18.0</ele>
        <time>2021-07-19T06:37:26Z</time>
      </trkpt>
      <trkpt lat="43.4344160" lon="-4.8538200">
        <ele>18.4</ele>
        <time>2021-07-19T06:37:28Z</time>
      </trkpt>
      <trkpt lat="43.4344200" lon="-4.8538370">
        <ele>18.8</ele>
        <time>2021-07-19T06:37:29Z</time>
      </trkpt>
      <trkpt lat="43.4344240" lon="-4.8538580">
        <ele>19.2</ele>
        <time>2021-07-19T06:37:30Z</time>
      </trkpt>
      <trkpt lat="43.4344300" lon="-4.8538810">
        <ele>19.6</ele>
        <time>2021-07-19T06:37:31Z</time>
      </trkpt>
      <trkpt lat="43.4344320" lon="-4.8539120">
        <ele>20.0</ele>
        <time>2021-07-19T06:37:32Z</time>
      </trkpt>
      <trkpt lat="43.4344400" lon="-4.8539680">
        <ele>20.0</ele>
        <time>2021-07-19T06:37:34Z</time>
      </trkpt>
      <trkpt lat="43.4344560" lon="-4.8541870">
        <ele>20.0</ele>
        <time>2021-07-19T06:37:42Z</time>
      </trkpt>
      <trkpt lat="43.4344620" lon="-4.8542300">
        <ele>20.6</ele>
        <time>2021-07-19T06:37:44Z</time>
      </trkpt>
      <trkpt lat="43.4344640" lon="-4.8542550">
        <ele>21.0</ele>
        <time>2021-07-19T06:37:45Z</time>
      </trkpt>
      <trkpt lat="43.4344700" lon="-4.8542810">
        <ele>21.4</ele>
        <time>2021-07-19T06:37:46Z</time>
      </trkpt>
      <trkpt lat="43.4344760" lon="-4.8543050">
        <ele>21.8</ele>
        <time>2021-07-19T06:37:47Z</time>
      </trkpt>
      <trkpt lat="43.4344810" lon="-4.8543310">
        <ele>22.2</ele>
        <time>2021-07-19T06:37:48Z</time>
      </trkpt>
      <trkpt lat="43.4344980" lon="-4.8544010">
        <ele>22.2</ele>
        <time>2021-07-19T06:37:51Z</time>
      </trkpt>
      <trkpt lat="43.4345280" lon="-4.8544940">
        <ele>22.2</ele>
        <time>2021-07-19T06:37:55Z</time>
      </trkpt>
      <trkpt lat="43.4345430" lon="-4.8545400">
        <ele>22.6</ele>
        <time>2021-07-19T06:37:57Z</time>
      </trkpt>
      <trkpt lat="43.4345490" lon="-4.8545650">
        <ele>23.0</ele>
        <time>2021-07-19T06:37:58Z</time>
      </trkpt>
      <trkpt lat="43.4345560" lon="-4.8545950">
        <ele>23.8</ele>
        <time>2021-07-19T06:37:59Z</time>
      </trkpt>
      <trkpt lat="43.4345630" lon="-4.8546240">
        <ele>24.4</ele>
        <time>2021-07-19T06:38:00Z</time>
      </trkpt>
      <trkpt lat="43.4345860" lon="-4.8547040">
        <ele>24.4</ele>
        <time>2021-07-19T06:38:03Z</time>
      </trkpt>
      <trkpt lat="43.4346280" lon="-4.8548490">
        <ele>24.8</ele>
        <time>2021-07-19T06:38:09Z</time>
      </trkpt>
      <trkpt lat="43.4346380" lon="-4.8548710">
        <ele>25.2</ele>
        <time>2021-07-19T06:38:10Z</time>
      </trkpt>
      <trkpt lat="43.4346470" lon="-4.8548890">
        <ele>25.6</ele>
        <time>2021-07-19T06:38:11Z</time>
      </trkpt>
      <trkpt lat="43.4346540" lon="-4.8549100">
        <ele>26.0</ele>
        <time>2021-07-19T06:38:12Z</time>
      </trkpt>
      <trkpt lat="43.4346630" lon="-4.8549360">
        <ele>26.4</ele>
        <time>2021-07-19T06:38:13Z</time>
      </trkpt>
      <trkpt lat="43.4347130" lon="-4.8550660">
        <ele>26.4</ele>
        <time>2021-07-19T06:38:17Z</time>
      </trkpt>
      <trkpt lat="43.4347730" lon="-4.8553280">
        <ele>26.4</ele>
        <time>2021-07-19T06:38:24Z</time>
      </trkpt>
      <trkpt lat="43.4348340" lon="-4.8555200">
        <ele>26.4</ele>
        <time>2021-07-19T06:38:30Z</time>
      </trkpt>
      <trkpt lat="43.4348510" lon="-4.8555510">
        <ele>26.4</ele>
        <time>2021-07-19T06:38:31Z</time>
      </trkpt>
      <trkpt lat="43.4349410" lon="-4.8556060">
        <ele>26.4</ele>
        <time>2021-07-19T06:38:35Z</time>
      </trkpt>
      <trkpt lat="43.4350330" lon="-4.8556620">
        <ele>26.4</ele>
        <time>2021-07-19T06:38:40Z</time>
      </trkpt>
      <trkpt lat="43.4350490" lon="-4.8556840">
        <ele>26.4</ele>
        <time>2021-07-19T06:38:41Z</time>
      </trkpt>
      <trkpt lat="43.4351010" lon="-4.8558640">
        <ele>26.4</ele>
        <time>2021-07-19T06:38:48Z</time>
      </trkpt>
      <trkpt lat="43.4351010" lon="-4.8559500">
        <ele>26.8</ele>
        <time>2021-07-19T06:38:51Z</time>
      </trkpt>
      <trkpt lat="43.4351010" lon="-4.8559860">
        <ele>27.2</ele>
        <time>2021-07-19T06:38:52Z</time>
      </trkpt>
      <trkpt lat="43.4351060" lon="-4.8560240">
        <ele>27.6</ele>
        <time>2021-07-19T06:38:53Z</time>
      </trkpt>
      <trkpt lat="43.4351110" lon="-4.8560580">
        <ele>28.0</ele>
        <time>2021-07-19T06:38:54Z</time>
      </trkpt>
      <trkpt lat="43.4351140" lon="-4.8560920">
        <ele>28.4</ele>
        <time>2021-07-19T06:38:55Z</time>
      </trkpt>
      <trkpt lat="43.4351410" lon="-4.8562920">
        <ele>28.4</ele>
        <time>2021-07-19T06:39:01Z</time>
      </trkpt>
      <trkpt lat="43.4351480" lon="-4.8564390">
        <ele>28.8</ele>
        <time>2021-07-19T06:39:05Z</time>
      </trkpt>
      <trkpt lat="43.4351520" lon="-4.8564720">
        <ele>29.2</ele>
        <time>2021-07-19T06:39:06Z</time>
      </trkpt>
      <trkpt lat="43.4351570" lon="-4.8565050">
        <ele>29.6</ele>
        <time>2021-07-19T06:39:07Z</time>
      </trkpt>
      <trkpt lat="43.4351580" lon="-4.8565400">
        <ele>30.0</ele>
        <time>2021-07-19T06:39:08Z</time>
      </trkpt>
      <trkpt lat="43.4351590" lon="-4.8565700">
        <ele>30.4</ele>
        <time>2021-07-19T06:39:09Z</time>
      </trkpt>
      <trkpt lat="43.4351840" lon="-4.8567730">
        <ele>30.4</ele>
        <time>2021-07-19T06:39:15Z</time>
      </trkpt>
      <trkpt lat="43.4352370" lon="-4.8570310">
        <ele>30.4</ele>
        <time>2021-07-19T06:39:22Z</time>
      </trkpt>
      <trkpt lat="43.4352980" lon="-4.8573020">
        <ele>30.4</ele>
        <time>2021-07-19T06:39:30Z</time>
      </trkpt>
      <trkpt lat="43.4353120" lon="-4.8573700">
        <ele>30.8</ele>
        <time>2021-07-19T06:39:32Z</time>
      </trkpt>
      <trkpt lat="43.4353170" lon="-4.8574000">
        <ele>31.2</ele>
        <time>2021-07-19T06:39:33Z</time>
      </trkpt>
      <trkpt lat="43.4353210" lon="-4.8574310">
        <ele>31.6</ele>
        <time>2021-07-19T06:39:34Z</time>
      </trkpt>
      <trkpt lat="43.4353260" lon="-4.8574570">
        <ele>32.0</ele>
        <time>2021-07-19T06:39:35Z</time>
      </trkpt>
      <trkpt lat="43.4353290" lon="-4.8574820">
        <ele>32.4</ele>
        <time>2021-07-19T06:39:36Z</time>
      </trkpt>
      <trkpt lat="43.4353380" lon="-4.8575450">
        <ele>32.4</ele>
        <time>2021-07-19T06:39:38Z</time>
      </trkpt>
      <trkpt lat="43.4353870" lon="-4.8577750">
        <ele>32.4</ele>
        <time>2021-07-19T06:39:45Z</time>
      </trkpt>
      <trkpt lat="43.4354060" lon="-4.8578680">
        <ele>32.8</ele>
        <time>2021-07-19T06:39:48Z</time>
      </trkpt>
      <trkpt lat="43.4354110" lon="-4.8578960">
        <ele>33.2</ele>
        <time>2021-07-19T06:39:49Z</time>
      </trkpt>
      <trkpt lat="43.4354140" lon="-4.8579240">
        <ele>33.6</ele>
        <time>2021-07-19T06:39:50Z</time>
      </trkpt>
      <trkpt lat="43.4354180" lon="-4.8579540">
        <ele>34.0</ele>
        <time>2021-07-19T06:39:51Z</time>
      </trkpt>
      <trkpt lat="43.4354230" lon="-4.8579830">
        <ele>34.4</ele>
        <time>2021-07-19T06:39:52Z</time>
      </trkpt>
      <trkpt lat="43.4354750" lon="-4.8581910">
        <ele>34.4</ele>
        <time>2021-07-19T06:39:59Z</time>
      </trkpt>
      <trkpt lat="43.4355440" lon="-4.8584340">
        <ele>34.8</ele>
        <time>2021-07-19T06:40:07Z</time>
      </trkpt>
      <trkpt lat="43.4355520" lon="-4.8584600">
        <ele>35.2</ele>
        <time>2021-07-19T06:40:08Z</time>
      </trkpt>
      <trkpt lat="43.4355580" lon="-4.8584880">
        <ele>35.8</ele>
        <time>2021-07-19T06:40:09Z</time>
      </trkpt>
      <trkpt lat="43.4355650" lon="-4.8585130">
        <ele>36.2</ele>
        <time>2021-07-19T06:40:10Z</time>
      </trkpt>
      <trkpt lat="43.4355700" lon="-4.8585400">
        <ele>36.6</ele>
        <time>2021-07-19T06:40:11Z</time>
      </trkpt>
      <trkpt lat="43.4355900" lon="-4.8586070">
        <ele>36.6</ele>
        <time>2021-07-19T06:40:14Z</time>
      </trkpt>
      <trkpt lat="43.4355980" lon="-4.8586900">
        <ele>36.6</ele>
        <time>2021-07-19T06:40:19Z</time>
      </trkpt>
      <trkpt lat="43.4356430" lon="-4.8588290">
        <ele>36.6</ele>
        <time>2021-07-19T06:41:40Z</time>
      </trkpt>
      <trkpt lat="43.4356500" lon="-4.8588460">
        <ele>36.6</ele>
        <time>2021-07-19T06:41:41Z</time>
      </trkpt>
      <trkpt lat="43.4356630" lon="-4.8589470">
        <ele>36.6</ele>
        <time>2021-07-19T06:41:45Z</time>
      </trkpt>
      <trkpt lat="43.4356650" lon="-4.8589800">
        <ele>36.6</ele>
        <time>2021-07-19T06:41:46Z</time>
      </trkpt>
      <trkpt lat="43.4356830" lon="-4.8591070">
        <ele>36.6</ele>
        <time>2021-07-19T06:41:50Z</time>
      </trkpt>
      <trkpt lat="43.4356790" lon="-4.8592250">
        <ele>36.6</ele>
        <time>2021-07-19T06:41:54Z</time>
      </trkpt>
      <trkpt lat="43.4356750" lon="-4.8592590">
        <ele>37.0</ele>
        <time>2021-07-19T06:41:55Z</time>
      </trkpt>
      <trkpt lat="43.4356680" lon="-4.8592920">
        <ele>37.4</ele>
        <time>2021-07-19T06:41:56Z</time>
      </trkpt>
      <trkpt lat="43.4356640" lon="-4.8593260">
        <ele>37.8</ele>
        <time>2021-07-19T06:41:57Z</time>
      </trkpt>
      <trkpt lat="43.4356620" lon="-4.8593590">
        <ele>38.2</ele>
        <time>2021-07-19T06:41:58Z</time>
      </trkpt>
      <trkpt lat="43.4356560" lon="-4.8593900">
        <ele>38.6</ele>
        <time>2021-07-19T06:41:59Z</time>
      </trkpt>
      <trkpt lat="43.4356470" lon="-4.8594550">
        <ele>38.6</ele>
        <time>2021-07-19T06:42:01Z</time>
      </trkpt>
      <trkpt lat="43.4356210" lon="-4.8595910">
        <ele>38.6</ele>
        <time>2021-07-19T06:42:05Z</time>
      </trkpt>
      <trkpt lat="43.4356100" lon="-4.8596550">
        <ele>38.6</ele>
        <time>2021-07-19T06:42:07Z</time>
      </trkpt>
      <trkpt lat="43.4355980" lon="-4.8597560">
        <ele>39.0</ele>
        <time>2021-07-19T06:42:10Z</time>
      </trkpt>
      <trkpt lat="43.4355900" lon="-4.8597800">
        <ele>39.6</ele>
        <time>2021-07-19T06:42:11Z</time>
      </trkpt>
      <trkpt lat="43.4355860" lon="-4.8598050">
        <ele>40.0</ele>
        <time>2021-07-19T06:42:12Z</time>
      </trkpt>
      <trkpt lat="43.4355850" lon="-4.8598310">
        <ele>40.4</ele>
        <time>2021-07-19T06:42:13Z</time>
      </trkpt>
      <trkpt lat="43.4355820" lon="-4.8598540">
        <ele>40.8</ele>
        <time>2021-07-19T06:42:14Z</time>
      </trkpt>
      <trkpt lat="43.4355730" lon="-4.8599850">
        <ele>40.8</ele>
        <time>2021-07-19T06:42:20Z</time>
      </trkpt>
      <trkpt lat="43.4355600" lon="-4.8600890">
        <ele>41.2</ele>
        <time>2021-07-19T06:42:24Z</time>
      </trkpt>
      <trkpt lat="43.4355540" lon="-4.8601160">
        <ele>41.6</ele>
        <time>2021-07-19T06:42:25Z</time>
      </trkpt>
      <trkpt lat="43.4355490" lon="-4.8601410">
        <ele>42.0</ele>
        <time>2021-07-19T06:42:26Z</time>
      </trkpt>
      <trkpt lat="43.4355440" lon="-4.8601690">
        <ele>42.4</ele>
        <time>2021-07-19T06:42:27Z</time>
      </trkpt>
      <trkpt lat="43.4355390" lon="-4.8602010">
        <ele>42.8</ele>
        <time>2021-07-19T06:42:28Z</time>
      </trkpt>
      <trkpt lat="43.4355180" lon="-4.8603980">
        <ele>42.8</ele>
        <time>2021-07-19T06:42:35Z</time>
      </trkpt>
      <trkpt lat="43.4355040" lon="-4.8605440">
        <ele>43.2</ele>
        <time>2021-07-19T06:42:40Z</time>
      </trkpt>
      <trkpt lat="43.4355010" lon="-4.8605730">
        <ele>43.6</ele>
        <time>2021-07-19T06:42:41Z</time>
      </trkpt>
      <trkpt lat="43.4354930" lon="-4.8606020">
        <ele>44.0</ele>
        <time>2021-07-19T06:42:42Z</time>
      </trkpt>
      <trkpt lat="43.4354850" lon="-4.8606270">
        <ele>44.4</ele>
        <time>2021-07-19T06:42:43Z</time>
      </trkpt>
      <trkpt lat="43.4354780" lon="-4.8606540">
        <ele>44.8</ele>
        <time>2021-07-19T06:42:44Z</time>
      </trkpt>
      <trkpt lat="43.4354590" lon="-4.8607480">
        <ele>44.8</ele>
        <time>2021-07-19T06:42:48Z</time>
      </trkpt>
      <trkpt lat="43.4354550" lon="-4.8607590">
        <ele>44.8</ele>
        <time>2021-07-19T06:42:49Z</time>
      </trkpt>
      <trkpt lat="43.4354600" lon="-4.8608460">
        <ele>44.8</ele>
        <time>2021-07-19T06:43:12Z</time>
      </trkpt>
      <trkpt lat="43.4354580" lon="-4.8608660">
        <ele>44.8</ele>
        <time>2021-07-19T06:43:13Z</time>
      </trkpt>
      <trkpt lat="43.4354580" lon="-4.8608910">
        <ele>44.8</ele>
        <time>2021-07-19T06:43:14Z</time>
      </trkpt>
      <trkpt lat="43.4354410" lon="-4.8609650">
        <ele>45.2</ele>
        <time>2021-07-19T06:43:17Z</time>
      </trkpt>
      <trkpt lat="43.4354380" lon="-4.8609870">
        <ele>45.8</ele>
        <time>2021-07-19T06:43:18Z</time>
      </trkpt>
      <trkpt lat="43.4354350" lon="-4.8610070">
        <ele>46.2</ele>
        <time>2021-07-19T06:43:19Z</time>
      </trkpt>
      <trkpt lat="43.4354320" lon="-4.8610250">
        <ele>46.6</ele>
        <time>2021-07-19T06:43:20Z</time>
      </trkpt>
      <trkpt lat="43.4354270" lon="-4.8610460">
        <ele>47.0</ele>
        <time>2021-07-19T06:43:21Z</time>
      </trkpt>
      <trkpt lat="43.4354230" lon="-4.8610690">
        <ele>47.0</ele>
        <time>2021-07-19T06:43:22Z</time>
      </trkpt>
      <trkpt lat="43.4354020" lon="-4.8612580">
        <ele>47.0</ele>
        <time>2021-07-19T06:43:30Z</time>
      </trkpt>
      <trkpt lat="43.4354010" lon="-4.8612760">
        <ele>47.4</ele>
        <time>2021-07-19T06:43:31Z</time>
      </trkpt>
      <trkpt lat="43.4353970" lon="-4.8612970">
        <ele>47.8</ele>
        <time>2021-07-19T06:43:32Z</time>
      </trkpt>
      <trkpt lat="43.4353950" lon="-4.8613210">
        <ele>48.2</ele>
        <time>2021-07-19T06:43:33Z</time>
      </trkpt>
      <trkpt lat="43.4353950" lon="-4.8613480">
        <ele>48.6</ele>
        <time>2021-07-19T06:43:34Z</time>
      </trkpt>
      <trkpt lat="43.4353930" lon="-4.8613760">
        <ele>49.0</ele>
        <time>2021-07-19T06:43:35Z</time>
      </trkpt>
      <trkpt lat="43.4353910" lon="-4.8614270">
        <ele>49.0</ele>
        <time>2021-07-19T06:43:37Z</time>
      </trkpt>
      <trkpt lat="43.4353800" lon="-4.8615400">
        <ele>49.4</ele>
        <time>2021-07-19T06:43:41Z</time>
      </trkpt>
      <trkpt lat="43.4353770" lon="-4.8615690">
        <ele>49.8</ele>
        <time>2021-07-19T06:43:42Z</time>
      </trkpt>
      <trkpt lat="43.4353690" lon="-4.8616000">
        <ele>50.2</ele>
        <time>2021-07-19T06:43:43Z</time>
      </trkpt>
      <trkpt lat="43.4353620" lon="-4.8616240">
        <ele>50.6</ele>
        <time>2021-07-19T06:43:44Z</time>
      </trkpt>
      <trkpt lat="43.4353540" lon="-4.8616470">
        <ele>51.0</ele>
        <time>2021-07-19T06:43:45Z</time>
      </trkpt>
      <trkpt lat="43.4353190" lon="-4.8618580">
        <ele>51.0</ele>
        <time>2021-07-19T06:43:52Z</time>
      </trkpt>
      <trkpt lat="43.4352650" lon="-4.8620830">
        <ele>51.0</ele>
        <time>2021-07-19T06:43:59Z</time>
      </trkpt>
      <trkpt lat="43.4351920" lon="-4.8623240">
        <ele>51.0</ele>
        <time>2021-07-19T06:44:06Z</time>
      </trkpt>
      <trkpt lat="43.4351610" lon="-4.8624290">
        <ele>51.0</ele>
        <time>2021-07-19T06:44:09Z</time>
      </trkpt>
      <trkpt lat="43.4351290" lon="-4.8625120">
        <ele>51.0</ele>
        <time>2021-07-19T06:44:12Z</time>
      </trkpt>
      <trkpt lat="43.4351150" lon="-4.8625820">
        <ele>51.0</ele>
        <time>2021-07-19T06:44:15Z</time>
      </trkpt>
      <trkpt lat="43.4351290" lon="-4.8626670">
        <ele>51.0</ele>
        <time>2021-07-19T06:44:18Z</time>
      </trkpt>
      <trkpt lat="43.4351340" lon="-4.8626960">
        <ele>51.4</ele>
        <time>2021-07-19T06:44:19Z</time>
      </trkpt>
      <trkpt lat="43.4351350" lon="-4.8627320">
        <ele>52.0</ele>
        <time>2021-07-19T06:44:20Z</time>
      </trkpt>
      <trkpt lat="43.4351340" lon="-4.8627710">
        <ele>52.4</ele>
        <time>2021-07-19T06:44:21Z</time>
      </trkpt>
      <trkpt lat="43.4351330" lon="-4.8628000">
        <ele>52.8</ele>
        <time>2021-07-19T06:44:22Z</time>
      </trkpt>
      <trkpt lat="43.4351330" lon="-4.8628340">
        <ele>53.2</ele>
        <time>2021-07-19T06:44:23Z</time>
      </trkpt>
      <trkpt lat="43.4351350" lon="-4.8628710">
        <ele>53.2</ele>
        <time>2021-07-19T06:44:24Z</time>
      </trkpt>
      <trkpt lat="43.4351200" lon="-4.8631500">
        <ele>53.2</ele>
        <time>2021-07-19T06:44:31Z</time>
      </trkpt>
      <trkpt lat="43.4350800" lon="-4.8634000">
        <ele>53.2</ele>
        <time>2021-07-19T06:44:37Z</time>
      </trkpt>
      <trkpt lat="43.4350730" lon="-4.8634800">
        <ele>53.6</ele>
        <time>2021-07-19T06:44:40Z</time>
      </trkpt>
      <trkpt lat="43.4350730" lon="-4.8635030">
        <ele>54.0</ele>
        <time>2021-07-19T06:44:41Z</time>
      </trkpt>
      <trkpt lat="43.4350720" lon="-4.8635320">
        <ele>54.4</ele>
        <time>2021-07-19T06:44:42Z</time>
      </trkpt>
      <trkpt lat="43.4350700" lon="-4.8635610">
        <ele>55.0</ele>
        <time>2021-07-19T06:44:43Z</time>
      </trkpt>
      <trkpt lat="43.4350650" lon="-4.8635910">
        <ele>55.4</ele>
        <time>2021-07-19T06:44:44Z</time>
      </trkpt>
      <trkpt lat="43.4350690" lon="-4.8636750">
        <ele>55.8</ele>
        <time>2021-07-19T06:44:47Z</time>
      </trkpt>
      <trkpt lat="43.4350700" lon="-4.8637060">
        <ele>56.2</ele>
        <time>2021-07-19T06:44:48Z</time>
      </trkpt>
      <trkpt lat="43.4350730" lon="-4.8637360">
        <ele>56.6</ele>
        <time>2021-07-19T06:44:49Z</time>
      </trkpt>
      <trkpt lat="43.4350720" lon="-4.8637620">
        <ele>57.0</ele>
        <time>2021-07-19T06:44:50Z</time>
      </trkpt>
      <trkpt lat="43.4350670" lon="-4.8637930">
        <ele>57.6</ele>
        <time>2021-07-19T06:44:51Z</time>
      </trkpt>
      <trkpt lat="43.4350450" lon="-4.8639350">
        <ele>57.6</ele>
        <time>2021-07-19T06:44:56Z</time>
      </trkpt>
      <trkpt lat="43.4350340" lon="-4.8640200">
        <ele>57.6</ele>
        <time>2021-07-19T06:44:59Z</time>
      </trkpt>
      <trkpt lat="43.4350260" lon="-4.8640530">
        <ele>57.6</ele>
        <time>2021-07-19T06:45:00Z</time>
      </trkpt>
      <trkpt lat="43.4350200" lon="-4.8641470">
        <ele>58.0</ele>
        <time>2021-07-19T06:45:03Z</time>
      </trkpt>
      <trkpt lat="43.4350160" lon="-4.8641850">
        <ele>58.4</ele>
        <time>2021-07-19T06:45:04Z</time>
      </trkpt>
      <trkpt lat="43.4350110" lon="-4.8642210">
        <ele>58.8</ele>
        <time>2021-07-19T06:45:05Z</time>
      </trkpt>
      <trkpt lat="43.4350070" lon="-4.8642560">
        <ele>59.2</ele>
        <time>2021-07-19T06:45:06Z</time>
      </trkpt>
      <trkpt lat="43.4350030" lon="-4.8642990">
        <ele>59.6</ele>
        <time>2021-07-19T06:45:07Z</time>
      </trkpt>
      <trkpt lat="43.4350020" lon="-4.8643380">
        <ele>59.6</ele>
        <time>2021-07-19T06:45:08Z</time>
      </trkpt>
      <trkpt lat="43.4350060" lon="-4.8646080">
        <ele>59.6</ele>
        <time>2021-07-19T06:45:15Z</time>
      </trkpt>
      <trkpt lat="43.4350100" lon="-4.8647360">
        <ele>59.6</ele>
        <time>2021-07-19T06:45:19Z</time>
      </trkpt>
      <trkpt lat="43.4350030" lon="-4.8647920">
        <ele>59.6</ele>
        <time>2021-07-19T06:45:21Z</time>
      </trkpt>
      <trkpt lat="43.4349970" lon="-4.8648680">
        <ele>59.6</ele>
        <time>2021-07-19T06:45:24Z</time>
      </trkpt>
      <trkpt lat="43.4349960" lon="-4.8649130">
        <ele>59.6</ele>
        <time>2021-07-19T06:45:26Z</time>
      </trkpt>
      <trkpt lat="43.4349990" lon="-4.8649400">
        <ele>59.6</ele>
        <time>2021-07-19T06:45:27Z</time>
      </trkpt>
      <trkpt lat="43.4350000" lon="-4.8650670">
        <ele>59.6</ele>
        <time>2021-07-19T06:45:31Z</time>
      </trkpt>
      <trkpt lat="43.4350040" lon="-4.8651530">
        <ele>59.6</ele>
        <time>2021-07-19T06:45:33Z</time>
      </trkpt>
      <trkpt lat="43.4350190" lon="-4.8654350">
        <ele>59.6</ele>
        <time>2021-07-19T06:45:39Z</time>
      </trkpt>
      <trkpt lat="43.4350360" lon="-4.8656030">
        <ele>59.6</ele>
        <time>2021-07-19T06:45:43Z</time>
      </trkpt>
      <trkpt lat="43.4350510" lon="-4.8656860">
        <ele>59.6</ele>
        <time>2021-07-19T06:45:45Z</time>
      </trkpt>
      <trkpt lat="43.4350630" lon="-4.8657800">
        <ele>59.6</ele>
        <time>2021-07-19T06:45:47Z</time>
      </trkpt>
      <trkpt lat="43.4350810" lon="-4.8658900">
        <ele>59.6</ele>
        <time>2021-07-19T06:45:49Z</time>
      </trkpt>
      <trkpt lat="43.4350850" lon="-4.8659940">
        <ele>59.6</ele>
        <time>2021-07-19T06:45:51Z</time>
      </trkpt>
      <trkpt lat="43.4350740" lon="-4.8662590">
        <ele>59.6</ele>
        <time>2021-07-19T06:45:56Z</time>
      </trkpt>
      <trkpt lat="43.4350660" lon="-4.8663640">
        <ele>59.6</ele>
        <time>2021-07-19T06:45:58Z</time>
      </trkpt>
      <trkpt lat="43.4350760" lon="-4.8666080">
        <ele>59.6</ele>
        <time>2021-07-19T06:46:03Z</time>
      </trkpt>
      <trkpt lat="43.4351500" lon="-4.8668100">
        <ele>59.6</ele>
        <time>2021-07-19T06:46:07Z</time>
      </trkpt>
      <trkpt lat="43.4351630" lon="-4.8668470">
        <ele>59.2</ele>
        <time>2021-07-19T06:46:08Z</time>
      </trkpt>
      <trkpt lat="43.4351740" lon="-4.8668850">
        <ele>58.6</ele>
        <time>2021-07-19T06:46:09Z</time>
      </trkpt>
      <trkpt lat="43.4351730" lon="-4.8669450">
        <ele>58.2</ele>
        <time>2021-07-19T06:46:10Z</time>
      </trkpt>
      <trkpt lat="43.4351760" lon="-4.8669930">
        <ele>57.8</ele>
        <time>2021-07-19T06:46:11Z</time>
      </trkpt>
      <trkpt lat="43.4351820" lon="-4.8670350">
        <ele>57.4</ele>
        <time>2021-07-19T06:46:12Z</time>
      </trkpt>
      <trkpt lat="43.4351930" lon="-4.8670790">
        <ele>57.4</ele>
        <time>2021-07-19T06:46:13Z</time>
      </trkpt>
      <trkpt lat="43.4352010" lon="-4.8671690">
        <ele>56.6</ele>
        <time>2021-07-19T06:46:15Z</time>
      </trkpt>
      <trkpt lat="43.4352160" lon="-4.8672070">
        <ele>56.0</ele>
        <time>2021-07-19T06:46:16Z</time>
      </trkpt>
      <trkpt lat="43.4352380" lon="-4.8672440">
        <ele>55.6</ele>
        <time>2021-07-19T06:46:17Z</time>
      </trkpt>
      <trkpt lat="43.4352650" lon="-4.8672820">
        <ele>55.2</ele>
        <time>2021-07-19T06:46:18Z</time>
      </trkpt>
      <trkpt lat="43.4352910" lon="-4.8673140">
        <ele>55.2</ele>
        <time>2021-07-19T06:46:19Z</time>
      </trkpt>
      <trkpt lat="43.4353350" lon="-4.8673900">
        <ele>54.8</ele>
        <time>2021-07-19T06:46:21Z</time>
      </trkpt>
      <trkpt lat="43.4353560" lon="-4.8674270">
        <ele>54.4</ele>
        <time>2021-07-19T06:46:22Z</time>
      </trkpt>
      <trkpt lat="43.4353840" lon="-4.8674620">
        <ele>53.8</ele>
        <time>2021-07-19T06:46:23Z</time>
      </trkpt>
      <trkpt lat="43.4354130" lon="-4.8674900">
        <ele>53.4</ele>
        <time>2021-07-19T06:46:24Z</time>
      </trkpt>
      <trkpt lat="43.4354420" lon="-4.8675200">
        <ele>52.8</ele>
        <time>2021-07-19T06:46:25Z</time>
      </trkpt>
      <trkpt lat="43.4354720" lon="-4.8675490">
        <ele>52.2</ele>
        <time>2021-07-19T06:46:26Z</time>
      </trkpt>
      <trkpt lat="43.4355000" lon="-4.8675740">
        <ele>51.6</ele>
        <time>2021-07-19T06:46:27Z</time>
      </trkpt>
      <trkpt lat="43.4355280" lon="-4.8675930">
        <ele>51.0</ele>
        <time>2021-07-19T06:46:28Z</time>
      </trkpt>
      <trkpt lat="43.4355600" lon="-4.8676110">
        <ele>50.2</ele>
        <time>2021-07-19T06:46:29Z</time>
      </trkpt>
      <trkpt lat="43.4355830" lon="-4.8676410">
        <ele>49.6</ele>
        <time>2021-07-19T06:46:30Z</time>
      </trkpt>
      <trkpt lat="43.4356040" lon="-4.8676690">
        <ele>49.0</ele>
        <time>2021-07-19T06:46:31Z</time>
      </trkpt>
      <trkpt lat="43.4356210" lon="-4.8677060">
        <ele>48.2</ele>
        <time>2021-07-19T06:46:32Z</time>
      </trkpt>
      <trkpt lat="43.4356340" lon="-4.8677500">
        <ele>47.4</ele>
        <time>2021-07-19T06:46:33Z</time>
      </trkpt>
      <trkpt lat="43.4356480" lon="-4.8677970">
        <ele>46.8</ele>
        <time>2021-07-19T06:46:34Z</time>
      </trkpt>
      <trkpt lat="43.4356640" lon="-4.8678400">
        <ele>46.2</ele>
        <time>2021-07-19T06:46:35Z</time>
      </trkpt>
      <trkpt lat="43.4356800" lon="-4.8678890">
        <ele>45.6</ele>
        <time>2021-07-19T06:46:36Z</time>
      </trkpt>
      <trkpt lat="43.4357010" lon="-4.8679310">
        <ele>45.0</ele>
        <time>2021-07-19T06:46:37Z</time>
      </trkpt>
      <trkpt lat="43.4357220" lon="-4.8679620">
        <ele>44.4</ele>
        <time>2021-07-19T06:46:38Z</time>
      </trkpt>
      <trkpt lat="43.4357470" lon="-4.8679890">
        <ele>43.8</ele>
        <time>2021-07-19T06:46:39Z</time>
      </trkpt>
      <trkpt lat="43.4357810" lon="-4.8680120">
        <ele>42.8</ele>
        <time>2021-07-19T06:46:40Z</time>
      </trkpt>
      <trkpt lat="43.4358120" lon="-4.8680300">
        <ele>42.2</ele>
        <time>2021-07-19T06:46:41Z</time>
      </trkpt>
      <trkpt lat="43.4358370" lon="-4.8680480">
        <ele>41.6</ele>
        <time>2021-07-19T06:46:42Z</time>
      </trkpt>
      <trkpt lat="43.4358620" lon="-4.8680590">
        <ele>41.0</ele>
        <time>2021-07-19T06:46:43Z</time>
      </trkpt>
      <trkpt lat="43.4358850" lon="-4.8680770">
        <ele>40.2</ele>
        <time>2021-07-19T06:46:44Z</time>
      </trkpt>
      <trkpt lat="43.4359120" lon="-4.8680930">
        <ele>39.6</ele>
        <time>2021-07-19T06:46:45Z</time>
      </trkpt>
      <trkpt lat="43.4359420" lon="-4.8681110">
        <ele>39.0</ele>
        <time>2021-07-19T06:46:46Z</time>
      </trkpt>
      <trkpt lat="43.4359690" lon="-4.8681330">
        <ele>38.6</ele>
        <time>2021-07-19T06:46:47Z</time>
      </trkpt>
      <trkpt lat="43.4359960" lon="-4.8681580">
        <ele>38.0</ele>
        <time>2021-07-19T06:46:48Z</time>
      </trkpt>
      <trkpt lat="43.4360290" lon="-4.8681900">
        <ele>37.4</ele>
        <time>2021-07-19T06:46:49Z</time>
      </trkpt>
      <trkpt lat="43.4360550" lon="-4.8682190">
        <ele>36.8</ele>
        <time>2021-07-19T06:46:50Z</time>
      </trkpt>
      <trkpt lat="43.4360800" lon="-4.8682520">
        <ele>36.2</ele>
        <time>2021-07-19T06:46:51Z</time>
      </trkpt>
      <trkpt lat="43.4361040" lon="-4.8682830">
        <ele>35.6</ele>
        <time>2021-07-19T06:46:52Z</time>
      </trkpt>
      <trkpt lat="43.4361360" lon="-4.8683150">
        <ele>34.8</ele>
        <time>2021-07-19T06:46:53Z</time>
      </trkpt>
      <trkpt lat="43.4361670" lon="-4.8683470">
        <ele>34.2</ele>
        <time>2021-07-19T06:46:54Z</time>
      </trkpt>
      <trkpt lat="43.4361980" lon="-4.8683820">
        <ele>33.6</ele>
        <time>2021-07-19T06:46:55Z</time>
      </trkpt>
      <trkpt lat="43.4362300" lon="-4.8684110">
        <ele>32.8</ele>
        <time>2021-07-19T06:46:56Z</time>
      </trkpt>
      <trkpt lat="43.4362630" lon="-4.8684370">
        <ele>32.2</ele>
        <time>2021-07-19T06:46:57Z</time>
      </trkpt>
      <trkpt lat="43.4362890" lon="-4.8684720">
        <ele>30.8</ele>
        <time>2021-07-19T06:46:58Z</time>
      </trkpt>
      <trkpt lat="43.4363150" lon="-4.8685190">
        <ele>30.2</ele>
        <time>2021-07-19T06:46:59Z</time>
      </trkpt>
      <trkpt lat="43.4363380" lon="-4.8685650">
        <ele>29.4</ele>
        <time>2021-07-19T06:47:00Z</time>
      </trkpt>
      <trkpt lat="43.4363600" lon="-4.8686180">
        <ele>28.8</ele>
        <time>2021-07-19T06:47:01Z</time>
      </trkpt>
      <trkpt lat="43.4363760" lon="-4.8686770">
        <ele>28.0</ele>
        <time>2021-07-19T06:47:02Z</time>
      </trkpt>
      <trkpt lat="43.4363920" lon="-4.8687420">
        <ele>27.4</ele>
        <time>2021-07-19T06:47:03Z</time>
      </trkpt>
      <trkpt lat="43.4364020" lon="-4.8687990">
        <ele>26.8</ele>
        <time>2021-07-19T06:47:04Z</time>
      </trkpt>
      <trkpt lat="43.4364080" lon="-4.8688590">
        <ele>26.2</ele>
        <time>2021-07-19T06:47:05Z</time>
      </trkpt>
      <trkpt lat="43.4364140" lon="-4.8689180">
        <ele>25.4</ele>
        <time>2021-07-19T06:47:06Z</time>
      </trkpt>
      <trkpt lat="43.4364150" lon="-4.8689700">
        <ele>24.6</ele>
        <time>2021-07-19T06:47:07Z</time>
      </trkpt>
      <trkpt lat="43.4364190" lon="-4.8690190">
        <ele>24.0</ele>
        <time>2021-07-19T06:47:08Z</time>
      </trkpt>
      <trkpt lat="43.4364260" lon="-4.8690690">
        <ele>23.2</ele>
        <time>2021-07-19T06:47:09Z</time>
      </trkpt>
      <trkpt lat="43.4364420" lon="-4.8691200">
        <ele>22.2</ele>
        <time>2021-07-19T06:47:10Z</time>
      </trkpt>
      <trkpt lat="43.4364650" lon="-4.8691460">
        <ele>21.4</ele>
        <time>2021-07-19T06:47:11Z</time>
      </trkpt>
      <trkpt lat="43.4364930" lon="-4.8691590">
        <ele>20.6</ele>
        <time>2021-07-19T06:47:12Z</time>
      </trkpt>
      <trkpt lat="43.4365240" lon="-4.8691590">
        <ele>20.0</ele>
        <time>2021-07-19T06:47:13Z</time>
      </trkpt>
      <trkpt lat="43.4365560" lon="-4.8691530">
        <ele>19.4</ele>
        <time>2021-07-19T06:47:14Z</time>
      </trkpt>
      <trkpt lat="43.4365830" lon="-4.8691260">
        <ele>18.8</ele>
        <time>2021-07-19T06:47:15Z</time>
      </trkpt>
      <trkpt lat="43.4366090" lon="-4.8690840">
        <ele>18.2</ele>
        <time>2021-07-19T06:47:16Z</time>
      </trkpt>
      <trkpt lat="43.4366310" lon="-4.8690410">
        <ele>17.6</ele>
        <time>2021-07-19T06:47:17Z</time>
      </trkpt>
      <trkpt lat="43.4366700" lon="-4.8689560">
        <ele>17.2</ele>
        <time>2021-07-19T06:47:19Z</time>
      </trkpt>
      <trkpt lat="43.4366860" lon="-4.8689200">
        <ele>16.8</ele>
        <time>2021-07-19T06:47:20Z</time>
      </trkpt>
      <trkpt lat="43.4367060" lon="-4.8688820">
        <ele>16.4</ele>
        <time>2021-07-19T06:47:21Z</time>
      </trkpt>
      <trkpt lat="43.4367280" lon="-4.8688380">
        <ele>16.0</ele>
        <time>2021-07-19T06:47:22Z</time>
      </trkpt>
      <trkpt lat="43.4367510" lon="-4.8687940">
        <ele>15.6</ele>
        <time>2021-07-19T06:47:23Z</time>
      </trkpt>
      <trkpt lat="43.4367760" lon="-4.8687530">
        <ele>15.2</ele>
        <time>2021-07-19T06:47:24Z</time>
      </trkpt>
      <trkpt lat="43.4368050" lon="-4.8687160">
        <ele>14.8</ele>
        <time>2021-07-19T06:47:25Z</time>
      </trkpt>
      <trkpt lat="43.4368250" lon="-4.8686940">
        <ele>14.4</ele>
        <time>2021-07-19T06:47:26Z</time>
      </trkpt>
      <trkpt lat="43.4368530" lon="-4.8686690">
        <ele>13.8</ele>
        <time>2021-07-19T06:47:27Z</time>
      </trkpt>
      <trkpt lat="43.4368860" lon="-4.8686550">
        <ele>13.2</ele>
        <time>2021-07-19T06:47:28Z</time>
      </trkpt>
      <trkpt lat="43.4369210" lon="-4.8686500">
        <ele>12.8</ele>
        <time>2021-07-19T06:47:29Z</time>
      </trkpt>
      <trkpt lat="43.4369590" lon="-4.8686500">
        <ele>12.2</ele>
        <time>2021-07-19T06:47:30Z</time>
      </trkpt>
      <trkpt lat="43.4369980" lon="-4.8686600">
        <ele>11.6</ele>
        <time>2021-07-19T06:47:31Z</time>
      </trkpt>
      <trkpt lat="43.4370320" lon="-4.8686750">
        <ele>11.0</ele>
        <time>2021-07-19T06:47:32Z</time>
      </trkpt>
      <trkpt lat="43.4370690" lon="-4.8686970">
        <ele>10.4</ele>
        <time>2021-07-19T06:47:33Z</time>
      </trkpt>
      <trkpt lat="43.4370970" lon="-4.8687290">
        <ele>9.8</ele>
        <time>2021-07-19T06:47:34Z</time>
      </trkpt>
      <trkpt lat="43.4371210" lon="-4.8687600">
        <ele>9.0</ele>
        <time>2021-07-19T06:47:35Z</time>
      </trkpt>
      <trkpt lat="43.4371290" lon="-4.8688080">
        <ele>8.4</ele>
        <time>2021-07-19T06:47:36Z</time>
      </trkpt>
      <trkpt lat="43.4371350" lon="-4.8688590">
        <ele>7.8</ele>
        <time>2021-07-19T06:47:37Z</time>
      </trkpt>
      <trkpt lat="43.4371450" lon="-4.8689030">
        <ele>7.2</ele>
        <time>2021-07-19T06:47:38Z</time>
      </trkpt>
      <trkpt lat="43.4371500" lon="-4.8689530">
        <ele>6.6</ele>
        <time>2021-07-19T06:47:39Z</time>
      </trkpt>
      <trkpt lat="43.4371560" lon="-4.8690010">
        <ele>6.0</ele>
        <time>2021-07-19T06:47:40Z</time>
      </trkpt>
      <trkpt lat="43.4371580" lon="-4.8690570">
        <ele>5.4</ele>
        <time>2021-07-19T06:47:41Z</time>
      </trkpt>
      <trkpt lat="43.4371530" lon="-4.8691170">
        <ele>4.8</ele>
        <time>2021-07-19T06:47:42Z</time>
      </trkpt>
      <trkpt lat="43.4371470" lon="-4.8691820">
        <ele>4.2</ele>
        <time>2021-07-19T06:47:43Z</time>
      </trkpt>
      <trkpt lat="43.4371440" lon="-4.8692400">
        <ele>3.6</ele>
        <time>2021-07-19T06:47:44Z</time>
      </trkpt>
      <trkpt lat="43.4371420" lon="-4.8693000">
        <ele>3.0</ele>
        <time>2021-07-19T06:47:45Z</time>
      </trkpt>
      <trkpt lat="43.4371370" lon="-4.8693620">
        <ele>2.4</ele>
        <time>2021-07-19T06:47:46Z</time>
      </trkpt>
      <trkpt lat="43.4371330" lon="-4.8694270">
        <ele>1.6</ele>
        <time>2021-07-19T06:47:47Z</time>
      </trkpt>
      <trkpt lat="43.4371270" lon="-4.8694940">
        <ele>0.2</ele>
        <time>2021-07-19T06:47:48Z</time>
      </trkpt>
      <trkpt lat="43.4371220" lon="-4.8695580">
        <ele>-0.6</ele>
        <time>2021-07-19T06:47:49Z</time>
      </trkpt>
      <trkpt lat="43.4371150" lon="-4.8696170">
        <ele>-1.2</ele>
        <time>2021-07-19T06:47:50Z</time>
      </trkpt>
      <trkpt lat="43.4371120" lon="-4.8696790">
        <ele>-2.2</ele>
        <time>2021-07-19T06:47:51Z</time>
      </trkpt>
      <trkpt lat="43.4371120" lon="-4.8697410">
        <ele>-3.0</ele>
        <time>2021-07-19T06:47:52Z</time>
      </trkpt>
      <trkpt lat="43.4371110" lon="-4.8698060">
        <ele>-3.8</ele>
        <time>2021-07-19T06:47:53Z</time>
      </trkpt>
      <trkpt lat="43.4371090" lon="-4.8698670">
        <ele>-4.6</ele>
        <time>2021-07-19T06:47:54Z</time>
      </trkpt>
      <trkpt lat="43.4371090" lon="-4.8699310">
        <ele>-5.2</ele>
        <time>2021-07-19T06:47:55Z</time>
      </trkpt>
      <trkpt lat="43.4371100" lon="-4.8699960">
        <ele>-6.0</ele>
        <time>2021-07-19T06:47:56Z</time>
      </trkpt>
      <trkpt lat="43.4371100" lon="-4.8700630">
        <ele>-6.6</ele>
        <time>2021-07-19T06:47:57Z</time>
      </trkpt>
      <trkpt lat="43.4371070" lon="-4.8701250">
        <ele>-7.4</ele>
        <time>2021-07-19T06:47:58Z</time>
      </trkpt>
      <trkpt lat="43.4371030" lon="-4.8701790">
        <ele>-8.2</ele>
        <time>2021-07-19T06:47:59Z</time>
      </trkpt>
      <trkpt lat="43.4370950" lon="-4.8702220">
        <ele>-8.6</ele>
        <time>2021-07-19T06:48:00Z</time>
      </trkpt>
      <trkpt lat="43.4370860" lon="-4.8702620">
        <ele>-9.2</ele>
        <time>2021-07-19T06:48:01Z</time>
      </trkpt>
      <trkpt lat="43.4370730" lon="-4.8703060">
        <ele>-9.6</ele>
        <time>2021-07-19T06:48:02Z</time>
      </trkpt>
      <trkpt lat="43.4370640" lon="-4.8703460">
        <ele>-10.2</ele>
        <time>2021-07-19T06:48:03Z</time>
      </trkpt>
      <trkpt lat="43.4370600" lon="-4.8703730">
        <ele>-10.6</ele>
        <time>2021-07-19T06:48:04Z</time>
      </trkpt>
      <trkpt lat="43.4370570" lon="-4.8704400">
        <ele>-10.6</ele>
        <time>2021-07-19T06:48:07Z</time>
      </trkpt>
      <trkpt lat="43.4370600" lon="-4.8704380">
        <ele>-10.6</ele>
        <time>2021-07-19T06:48:08Z</time>
      </trkpt>
      <trkpt lat="43.4371360" lon="-4.8704170">
        <ele>-12.6</ele>
        <time>2021-07-19T06:48:23Z</time>
      </trkpt>
      <trkpt lat="43.4371450" lon="-4.8704140">
        <ele>-12.6</ele>
        <time>2021-07-19T06:48:24Z</time>
      </trkpt>
      <trkpt lat="43.4371580" lon="-4.8704140">
        <ele>-12.6</ele>
        <time>2021-07-19T06:48:27Z</time>
      </trkpt>
      <trkpt lat="43.4372170" lon="-4.8704290">
        <ele>-12.6</ele>
        <time>2021-07-19T06:49:49Z</time>
      </trkpt>
      <trkpt lat="43.4372370" lon="-4.8704190">
        <ele>-12.6</ele>
        <time>2021-07-19T06:49:50Z</time>
      </trkpt>
      <trkpt lat="43.4373510" lon="-4.8703920">
        <ele>-12.6</ele>
        <time>2021-07-19T06:49:54Z</time>
      </trkpt>
      <trkpt lat="43.4373810" lon="-4.8703880">
        <ele>-12.6</ele>
        <time>2021-07-19T06:49:55Z</time>
      </trkpt>
      <trkpt lat="43.4376620" lon="-4.8703860">
        <ele>-12.6</ele>
        <time>2021-07-19T06:50:03Z</time>
      </trkpt>
      <trkpt lat="43.4377670" lon="-4.8704140">
        <ele>-12.6</ele>
        <time>2021-07-19T06:50:06Z</time>
      </trkpt>
      <trkpt lat="43.4378680" lon="-4.8704640">
        <ele>-12.6</ele>
        <time>2021-07-19T06:50:09Z</time>
      </trkpt>
      <trkpt lat="43.4379780" lon="-4.8705170">
        <ele>-12.6</ele>
        <time>2021-07-19T06:50:12Z</time>
      </trkpt>
      <trkpt lat="43.4380810" lon="-4.8705690">
        <ele>-12.6</ele>
        <time>2021-07-19T06:50:15Z</time>
      </trkpt>
      <trkpt lat="43.4382100" lon="-4.8706540">
        <ele>-12.6</ele>
        <time>2021-07-19T06:50:19Z</time>
      </trkpt>
      <trkpt lat="43.4383070" lon="-4.8707160">
        <ele>-12.2</ele>
        <time>2021-07-19T06:50:22Z</time>
      </trkpt>
      <trkpt lat="43.4383380" lon="-4.8707370">
        <ele>-11.8</ele>
        <time>2021-07-19T06:50:23Z</time>
      </trkpt>
      <trkpt lat="43.4383710" lon="-4.8707540">
        <ele>-11.4</ele>
        <time>2021-07-19T06:50:24Z</time>
      </trkpt>
      <trkpt lat="43.4384060" lon="-4.8707690">
        <ele>-11.0</ele>
        <time>2021-07-19T06:50:25Z</time>
      </trkpt>
      <trkpt lat="43.4384420" lon="-4.8707840">
        <ele>-10.6</ele>
        <time>2021-07-19T06:50:26Z</time>
      </trkpt>
      <trkpt lat="43.4385820" lon="-4.8708310">
        <ele>-10.6</ele>
        <time>2021-07-19T06:50:30Z</time>
      </trkpt>
      <trkpt lat="43.4388110" lon="-4.8709560">
        <ele>-10.6</ele>
        <time>2021-07-19T06:50:37Z</time>
      </trkpt>
      <trkpt lat="43.4390170" lon="-4.8710550">
        <ele>-10.6</ele>
        <time>2021-07-19T06:50:43Z</time>
      </trkpt>
      <trkpt lat="43.4391510" lon="-4.8711170">
        <ele>-10.6</ele>
        <time>2021-07-19T06:50:47Z</time>
      </trkpt>
      <trkpt lat="43.4392620" lon="-4.8711790">
        <ele>-10.6</ele>
        <time>2021-07-19T06:50:50Z</time>
      </trkpt>
      <trkpt lat="43.4393720" lon="-4.8712500">
        <ele>-10.6</ele>
        <time>2021-07-19T06:50:53Z</time>
      </trkpt>
      <trkpt lat="43.4394750" lon="-4.8713330">
        <ele>-10.6</ele>
        <time>2021-07-19T06:50:56Z</time>
      </trkpt>
      <trkpt lat="43.4395060" lon="-4.8713630">
        <ele>-10.6</ele>
        <time>2021-07-19T06:50:57Z</time>
      </trkpt>
      <trkpt lat="43.4397440" lon="-4.8715980">
        <ele>-10.6</ele>
        <time>2021-07-19T06:51:04Z</time>
      </trkpt>
      <trkpt lat="43.4397810" lon="-4.8716310">
        <ele>-10.6</ele>
        <time>2021-07-19T06:51:05Z</time>
      </trkpt>
      <trkpt lat="43.4400590" lon="-4.8718830">
        <ele>-10.6</ele>
        <time>2021-07-19T06:51:13Z</time>
      </trkpt>
      <trkpt lat="43.4401270" lon="-4.8719440">
        <ele>-10.6</ele>
        <time>2021-07-19T06:51:15Z</time>
      </trkpt>
      <trkpt lat="43.4403320" lon="-4.8721260">
        <ele>-10.6</ele>
        <time>2021-07-19T06:51:21Z</time>
      </trkpt>
      <trkpt lat="43.4405310" lon="-4.8722940">
        <ele>-10.6</ele>
        <time>2021-07-19T06:51:27Z</time>
      </trkpt>
      <trkpt lat="43.4405640" lon="-4.8723170">
        <ele>-10.6</ele>
        <time>2021-07-19T06:51:28Z</time>
      </trkpt>
      <trkpt lat="43.4406250" lon="-4.8723680">
        <ele>-10.6</ele>
        <time>2021-07-19T06:51:30Z</time>
      </trkpt>
      <trkpt lat="43.4406880" lon="-4.8724210">
        <ele>-10.6</ele>
        <time>2021-07-19T06:51:32Z</time>
      </trkpt>
      <trkpt lat="43.4407540" lon="-4.8724780">
        <ele>-10.6</ele>
        <time>2021-07-19T06:51:34Z</time>
      </trkpt>
      <trkpt lat="43.4408100" lon="-4.8725260">
        <ele>-10.6</ele>
        <time>2021-07-19T06:51:36Z</time>
      </trkpt>
      <trkpt lat="43.4408660" lon="-4.8725710">
        <ele>-10.2</ele>
        <time>2021-07-19T06:51:38Z</time>
      </trkpt>
      <trkpt lat="43.4408930" lon="-4.8725910">
        <ele>-9.8</ele>
        <time>2021-07-19T06:51:39Z</time>
      </trkpt>
      <trkpt lat="43.4409160" lon="-4.8726150">
        <ele>-9.4</ele>
        <time>2021-07-19T06:51:40Z</time>
      </trkpt>
      <trkpt lat="43.4409400" lon="-4.8726340">
        <ele>-9.0</ele>
        <time>2021-07-19T06:51:41Z</time>
      </trkpt>
      <trkpt lat="43.4409620" lon="-4.8726580">
        <ele>-8.6</ele>
        <time>2021-07-19T06:51:42Z</time>
      </trkpt>
      <trkpt lat="43.4409850" lon="-4.8726830">
        <ele>-8.6</ele>
        <time>2021-07-19T06:51:43Z</time>
      </trkpt>
      <trkpt lat="43.4410950" lon="-4.8728130">
        <ele>-8.6</ele>
        <time>2021-07-19T06:51:48Z</time>
      </trkpt>
      <trkpt lat="43.4411180" lon="-4.8728400">
        <ele>-8.2</ele>
        <time>2021-07-19T06:51:49Z</time>
      </trkpt>
      <trkpt lat="43.4411360" lon="-4.8728700">
        <ele>-7.8</ele>
        <time>2021-07-19T06:51:50Z</time>
      </trkpt>
      <trkpt lat="43.4411540" lon="-4.8728980">
        <ele>-7.4</ele>
        <time>2021-07-19T06:51:51Z</time>
      </trkpt>
      <trkpt lat="43.4411690" lon="-4.8729300">
        <ele>-7.0</ele>
        <time>2021-07-19T06:51:52Z</time>
      </trkpt>
      <trkpt lat="43.4411850" lon="-4.8729560">
        <ele>-6.6</ele>
        <time>2021-07-19T06:51:53Z</time>
      </trkpt>
      <trkpt lat="43.4412620" lon="-4.8731140">
        <ele>-6.6</ele>
        <time>2021-07-19T06:51:59Z</time>
      </trkpt>
      <trkpt lat="43.4412920" lon="-4.8732250">
        <ele>-6.6</ele>
        <time>2021-07-19T06:52:06Z</time>
      </trkpt>
      <trkpt lat="43.4412930" lon="-4.8732620">
        <ele>-6.6</ele>
        <time>2021-07-19T06:52:19Z</time>
      </trkpt>
      <trkpt lat="43.4412970" lon="-4.8732880">
        <ele>-6.6</ele>
        <time>2021-07-19T06:52:20Z</time>
      </trkpt>
      <trkpt lat="43.4413110" lon="-4.8733530">
        <ele>-6.6</ele>
        <time>2021-07-19T06:52:22Z</time>
      </trkpt>
      <trkpt lat="43.4413180" lon="-4.8733900">
        <ele>-6.6</ele>
        <time>2021-07-19T06:52:23Z</time>
      </trkpt>
      <trkpt lat="43.4413440" lon="-4.8736430">
        <ele>-6.6</ele>
        <time>2021-07-19T06:52:29Z</time>
      </trkpt>
      <trkpt lat="43.4413440" lon="-4.8738520">
        <ele>-6.6</ele>
        <time>2021-07-19T06:52:34Z</time>
      </trkpt>
      <trkpt lat="43.4413450" lon="-4.8738980">
        <ele>-6.2</ele>
        <time>2021-07-19T06:52:35Z</time>
      </trkpt>
      <trkpt lat="43.4413460" lon="-4.8739410">
        <ele>-5.8</ele>
        <time>2021-07-19T06:52:36Z</time>
      </trkpt>
      <trkpt lat="43.4413480" lon="-4.8739880">
        <ele>-5.4</ele>
        <time>2021-07-19T06:52:37Z</time>
      </trkpt>
      <trkpt lat="43.4413470" lon="-4.8740350">
        <ele>-5.0</ele>
        <time>2021-07-19T06:52:38Z</time>
      </trkpt>
      <trkpt lat="43.4413480" lon="-4.8740810">
        <ele>-4.6</ele>
        <time>2021-07-19T06:52:39Z</time>
      </trkpt>
      <trkpt lat="43.4413480" lon="-4.8743710">
        <ele>-4.6</ele>
        <time>2021-07-19T06:52:45Z</time>
      </trkpt>
      <trkpt lat="43.4413700" lon="-4.8745870">
        <ele>-4.6</ele>
        <time>2021-07-19T06:52:50Z</time>
      </trkpt>
      <trkpt lat="43.4413770" lon="-4.8746230">
        <ele>-4.6</ele>
        <time>2021-07-19T06:52:51Z</time>
      </trkpt>
      <trkpt lat="43.4413790" lon="-4.8746620">
        <ele>-4.6</ele>
        <time>2021-07-19T06:52:52Z</time>
      </trkpt>
      <trkpt lat="43.4413800" lon="-4.8747370">
        <ele>-4.6</ele>
        <time>2021-07-19T06:52:54Z</time>
      </trkpt>
      <trkpt lat="43.4413930" lon="-4.8748720">
        <ele>-4.6</ele>
        <time>2021-07-19T06:52:57Z</time>
      </trkpt>
      <trkpt lat="43.4414330" lon="-4.8750280">
        <ele>-4.6</ele>
        <time>2021-07-19T06:53:00Z</time>
      </trkpt>
      <trkpt lat="43.4414960" lon="-4.8752240">
        <ele>-4.6</ele>
        <time>2021-07-19T06:53:03Z</time>
      </trkpt>
      <trkpt lat="43.4416160" lon="-4.8756150">
        <ele>-5.0</ele>
        <time>2021-07-19T06:53:08Z</time>
      </trkpt>
      <trkpt lat="43.4416410" lon="-4.8757060">
        <ele>-5.8</ele>
        <time>2021-07-19T06:53:09Z</time>
      </trkpt>
      <trkpt lat="43.4416660" lon="-4.8757900">
        <ele>-6.2</ele>
        <time>2021-07-19T06:53:10Z</time>
      </trkpt>
      <trkpt lat="43.4416910" lon="-4.8758730">
        <ele>-6.6</ele>
        <time>2021-07-19T06:53:11Z</time>
      </trkpt>
      <trkpt lat="43.4417390" lon="-4.8760310">
        <ele>-7.0</ele>
        <time>2021-07-19T06:53:13Z</time>
      </trkpt>
      <trkpt lat="43.4417610" lon="-4.8761080">
        <ele>-7.4</ele>
        <time>2021-07-19T06:53:14Z</time>
      </trkpt>
      <trkpt lat="43.4417830" lon="-4.8761810">
        <ele>-8.0</ele>
        <time>2021-07-19T06:53:15Z</time>
      </trkpt>
      <trkpt lat="43.4418060" lon="-4.8762570">
        <ele>-8.4</ele>
        <time>2021-07-19T06:53:16Z</time>
      </trkpt>
      <trkpt lat="43.4418270" lon="-4.8763400">
        <ele>-8.8</ele>
        <time>2021-07-19T06:53:17Z</time>
      </trkpt>
      <trkpt lat="43.4418860" lon="-4.8765630">
        <ele>-9.2</ele>
        <time>2021-07-19T06:53:20Z</time>
      </trkpt>
      <trkpt lat="43.4419040" lon="-4.8766290">
        <ele>-9.6</ele>
        <time>2021-07-19T06:53:21Z</time>
      </trkpt>
      <trkpt lat="43.4419200" lon="-4.8766900">
        <ele>-10.0</ele>
        <time>2021-07-19T06:53:22Z</time>
      </trkpt>
      <trkpt lat="43.4419350" lon="-4.8767490">
        <ele>-10.4</ele>
        <time>2021-07-19T06:53:23Z</time>
      </trkpt>
      <trkpt lat="43.4419500" lon="-4.8767990">
        <ele>-11.0</ele>
        <time>2021-07-19T06:53:24Z</time>
      </trkpt>
      <trkpt lat="43.4419870" lon="-4.8769640">
        <ele>-11.0</ele>
        <time>2021-07-19T06:53:28Z</time>
      </trkpt>
      <trkpt lat="43.4419920" lon="-4.8770350">
        <ele>-11.4</ele>
        <time>2021-07-19T06:53:30Z</time>
      </trkpt>
      <trkpt lat="43.4419960" lon="-4.8770710">
        <ele>-11.8</ele>
        <time>2021-07-19T06:53:31Z</time>
      </trkpt>
      <trkpt lat="43.4420030" lon="-4.8771050">
        <ele>-12.2</ele>
        <time>2021-07-19T06:53:32Z</time>
      </trkpt>
      <trkpt lat="43.4420180" lon="-4.8771530">
        <ele>-12.6</ele>
        <time>2021-07-19T06:53:33Z</time>
      </trkpt>
      <trkpt lat="43.4420310" lon="-4.8771990">
        <ele>-13.0</ele>
        <time>2021-07-19T06:53:34Z</time>
      </trkpt>
      <trkpt lat="43.4421500" lon="-4.8776600">
        <ele>-13.0</ele>
        <time>2021-07-19T06:53:43Z</time>
      </trkpt>
      <trkpt lat="43.4421650" lon="-4.8777100">
        <ele>-13.0</ele>
        <time>2021-07-19T06:53:44Z</time>
      </trkpt>
      <trkpt lat="43.4421800" lon="-4.8777610">
        <ele>-13.0</ele>
        <time>2021-07-19T06:53:45Z</time>
      </trkpt>
      <trkpt lat="43.4421950" lon="-4.8778130">
        <ele>-13.0</ele>
        <time>2021-07-19T06:53:46Z</time>
      </trkpt>
      <trkpt lat="43.4422250" lon="-4.8779200">
        <ele>-13.0</ele>
        <time>2021-07-19T06:53:48Z</time>
      </trkpt>
      <trkpt lat="43.4422400" lon="-4.8779730">
        <ele>-13.0</ele>
        <time>2021-07-19T06:53:49Z</time>
      </trkpt>
      <trkpt lat="43.4422660" lon="-4.8780840">
        <ele>-13.0</ele>
        <time>2021-07-19T06:53:51Z</time>
      </trkpt>
      <trkpt lat="43.4423120" lon="-4.8782500">
        <ele>-13.0</ele>
        <time>2021-07-19T06:53:54Z</time>
      </trkpt>
      <trkpt lat="43.4423880" lon="-4.8785280">
        <ele>-13.0</ele>
        <time>2021-07-19T06:53:59Z</time>
      </trkpt>
      <trkpt lat="43.4424610" lon="-4.8788060">
        <ele>-13.0</ele>
        <time>2021-07-19T06:54:04Z</time>
      </trkpt>
      <trkpt lat="43.4424940" lon="-4.8789150">
        <ele>-12.6</ele>
        <time>2021-07-19T06:54:06Z</time>
      </trkpt>
      <trkpt lat="43.4425090" lon="-4.8789690">
        <ele>-12.2</ele>
        <time>2021-07-19T06:54:07Z</time>
      </trkpt>
      <trkpt lat="43.4425240" lon="-4.8790270">
        <ele>-11.8</ele>
        <time>2021-07-19T06:54:08Z</time>
      </trkpt>
      <trkpt lat="43.4425400" lon="-4.8790810">
        <ele>-11.4</ele>
        <time>2021-07-19T06:54:09Z</time>
      </trkpt>
      <trkpt lat="43.4425580" lon="-4.8791400">
        <ele>-10.8</ele>
        <time>2021-07-19T06:54:10Z</time>
      </trkpt>
      <trkpt lat="43.4426290" lon="-4.8793720">
        <ele>-10.8</ele>
        <time>2021-07-19T06:54:14Z</time>
      </trkpt>
      <trkpt lat="43.4427500" lon="-4.8798160">
        <ele>-10.8</ele>
        <time>2021-07-19T06:54:22Z</time>
      </trkpt>
      <trkpt lat="43.4428530" lon="-4.8801970">
        <ele>-10.8</ele>
        <time>2021-07-19T06:54:29Z</time>
      </trkpt>
      <trkpt lat="43.4429180" lon="-4.8804000">
        <ele>-10.8</ele>
        <time>2021-07-19T06:54:33Z</time>
      </trkpt>
      <trkpt lat="43.4430100" lon="-4.8806910">
        <ele>-10.4</ele>
        <time>2021-07-19T06:54:39Z</time>
      </trkpt>
      <trkpt lat="43.4430220" lon="-4.8807410">
        <ele>-10.0</ele>
        <time>2021-07-19T06:54:40Z</time>
      </trkpt>
      <trkpt lat="43.4430340" lon="-4.8807910">
        <ele>-9.6</ele>
        <time>2021-07-19T06:54:41Z</time>
      </trkpt>
      <trkpt lat="43.4430430" lon="-4.8808440">
        <ele>-9.2</ele>
        <time>2021-07-19T06:54:42Z</time>
      </trkpt>
      <trkpt lat="43.4430490" lon="-4.8808980">
        <ele>-8.8</ele>
        <time>2021-07-19T06:54:43Z</time>
      </trkpt>
      <trkpt lat="43.4430520" lon="-4.8812170">
        <ele>-8.8</ele>
        <time>2021-07-19T06:54:49Z</time>
      </trkpt>
      <trkpt lat="43.4429740" lon="-4.8815570">
        <ele>-8.8</ele>
        <time>2021-07-19T06:54:56Z</time>
      </trkpt>
      <trkpt lat="43.4428840" lon="-4.8818710">
        <ele>-8.8</ele>
        <time>2021-07-19T06:55:03Z</time>
      </trkpt>
      <trkpt lat="43.4428290" lon="-4.8819940">
        <ele>-8.4</ele>
        <time>2021-07-19T06:55:06Z</time>
      </trkpt>
      <trkpt lat="43.4428080" lon="-4.8820570">
        <ele>-8.0</ele>
        <time>2021-07-19T06:55:07Z</time>
      </trkpt>
      <trkpt lat="43.4427890" lon="-4.8821150">
        <ele>-7.6</ele>
        <time>2021-07-19T06:55:08Z</time>
      </trkpt>
      <trkpt lat="43.4427710" lon="-4.8821690">
        <ele>-7.2</ele>
        <time>2021-07-19T06:55:09Z</time>
      </trkpt>
      <trkpt lat="43.4427510" lon="-4.8822230">
        <ele>-6.8</ele>
        <time>2021-07-19T06:55:10Z</time>
      </trkpt>
      <trkpt lat="43.4426370" lon="-4.8826230">
        <ele>-6.4</ele>
        <time>2021-07-19T06:55:18Z</time>
      </trkpt>
      <trkpt lat="43.4426290" lon="-4.8826740">
        <ele>-6.0</ele>
        <time>2021-07-19T06:55:19Z</time>
      </trkpt>
      <trkpt lat="43.4426190" lon="-4.8827240">
        <ele>-5.6</ele>
        <time>2021-07-19T06:55:20Z</time>
      </trkpt>
      <trkpt lat="43.4426100" lon="-4.8827720">
        <ele>-5.2</ele>
        <time>2021-07-19T06:55:21Z</time>
      </trkpt>
      <trkpt lat="43.4426010" lon="-4.8828220">
        <ele>-4.8</ele>
        <time>2021-07-19T06:55:22Z</time>
      </trkpt>
      <trkpt lat="43.4425670" lon="-4.8831130">
        <ele>-4.8</ele>
        <time>2021-07-19T06:55:28Z</time>
      </trkpt>
      <trkpt lat="43.4425510" lon="-4.8832900">
        <ele>-4.4</ele>
        <time>2021-07-19T06:55:32Z</time>
      </trkpt>
      <trkpt lat="43.4425490" lon="-4.8833370">
        <ele>-4.0</ele>
        <time>2021-07-19T06:55:33Z</time>
      </trkpt>
      <trkpt lat="43.4425470" lon="-4.8833830">
        <ele>-3.6</ele>
        <time>2021-07-19T06:55:34Z</time>
      </trkpt>
      <trkpt lat="43.4425430" lon="-4.8834300">
        <ele>-3.0</ele>
        <time>2021-07-19T06:55:35Z</time>
      </trkpt>
      <trkpt lat="43.4425400" lon="-4.8834780">
        <ele>-2.6</ele>
        <time>2021-07-19T06:55:36Z</time>
      </trkpt>
      <trkpt lat="43.4425150" lon="-4.8839060">
        <ele>-2.6</ele>
        <time>2021-07-19T06:55:45Z</time>
      </trkpt>
      <trkpt lat="43.4425050" lon="-4.8840320">
        <ele>-2.6</ele>
        <time>2021-07-19T06:55:50Z</time>
      </trkpt>
      <trkpt lat="43.4424890" lon="-4.8840550">
        <ele>-2.6</ele>
        <time>2021-07-19T06:55:53Z</time>
      </trkpt>
      <trkpt lat="43.4424590" lon="-4.8840830">
        <ele>-2.6</ele>
        <time>2021-07-19T06:55:55Z</time>
      </trkpt>
      <trkpt lat="43.4423690" lon="-4.8842220">
        <ele>-2.6</ele>
        <time>2021-07-19T06:56:00Z</time>
      </trkpt>
      <trkpt lat="43.4423460" lon="-4.8842990">
        <ele>-1.8</ele>
        <time>2021-07-19T06:56:02Z</time>
      </trkpt>
      <trkpt lat="43.4423350" lon="-4.8843400">
        <ele>-1.4</ele>
        <time>2021-07-19T06:56:03Z</time>
      </trkpt>
      <trkpt lat="43.4423240" lon="-4.8843770">
        <ele>-1.0</ele>
        <time>2021-07-19T06:56:04Z</time>
      </trkpt>
      <trkpt lat="43.4423120" lon="-4.8844140">
        <ele>-0.6</ele>
        <time>2021-07-19T06:56:05Z</time>
      </trkpt>
      <trkpt lat="43.4422720" lon="-4.8845220">
        <ele>-0.6</ele>
        <time>2021-07-19T06:56:08Z</time>
      </trkpt>
      <trkpt lat="43.4421730" lon="-4.8847740">
        <ele>-0.6</ele>
        <time>2021-07-19T06:56:15Z</time>
      </trkpt>
      <trkpt lat="43.4421260" lon="-4.8848820">
        <ele>-0.2</ele>
        <time>2021-07-19T06:56:18Z</time>
      </trkpt>
      <trkpt lat="43.4421100" lon="-4.8849180">
        <ele>0.2</ele>
        <time>2021-07-19T06:56:19Z</time>
      </trkpt>
      <trkpt lat="43.4420950" lon="-4.8849540">
        <ele>0.8</ele>
        <time>2021-07-19T06:56:20Z</time>
      </trkpt>
      <trkpt lat="43.4420790" lon="-4.8849890">
        <ele>1.2</ele>
        <time>2021-07-19T06:56:21Z</time>
      </trkpt>
      <trkpt lat="43.4420630" lon="-4.8850250">
        <ele>1.6</ele>
        <time>2021-07-19T06:56:22Z</time>
      </trkpt>
      <trkpt lat="43.4419520" lon="-4.8852570">
        <ele>1.6</ele>
        <time>2021-07-19T06:56:28Z</time>
      </trkpt>
      <trkpt lat="43.4418170" lon="-4.8855310">
        <ele>1.6</ele>
        <time>2021-07-19T06:56:35Z</time>
      </trkpt>
      <trkpt lat="43.4417350" lon="-4.8858080">
        <ele>1.6</ele>
        <time>2021-07-19T06:56:42Z</time>
      </trkpt>
      <trkpt lat="43.4417050" lon="-4.8859350">
        <ele>2.0</ele>
        <time>2021-07-19T06:56:45Z</time>
      </trkpt>
      <trkpt lat="43.4416950" lon="-4.8859760">
        <ele>2.4</ele>
        <time>2021-07-19T06:56:46Z</time>
      </trkpt>
      <trkpt lat="43.4416850" lon="-4.8860170">
        <ele>2.8</ele>
        <time>2021-07-19T06:56:47Z</time>
      </trkpt>
      <trkpt lat="43.4416750" lon="-4.8860630">
        <ele>3.2</ele>
        <time>2021-07-19T06:56:48Z</time>
      </trkpt>
      <trkpt lat="43.4416650" lon="-4.8861080">
        <ele>3.6</ele>
        <time>2021-07-19T06:56:49Z</time>
      </trkpt>
      <trkpt lat="43.4416040" lon="-4.8863870">
        <ele>3.6</ele>
        <time>2021-07-19T06:56:56Z</time>
      </trkpt>
      <trkpt lat="43.4415750" lon="-4.8865580">
        <ele>3.6</ele>
        <time>2021-07-19T06:57:01Z</time>
      </trkpt>
      <trkpt lat="43.4415670" lon="-4.8865960">
        <ele>3.6</ele>
        <time>2021-07-19T06:57:02Z</time>
      </trkpt>
      <trkpt lat="43.4415080" lon="-4.8867870">
        <ele>3.6</ele>
        <time>2021-07-19T06:57:07Z</time>
      </trkpt>
      <trkpt lat="43.4414350" lon="-4.8870650">
        <ele>3.6</ele>
        <time>2021-07-19T06:57:14Z</time>
      </trkpt>
      <trkpt lat="43.4414250" lon="-4.8871100">
        <ele>4.0</ele>
        <time>2021-07-19T06:57:15Z</time>
      </trkpt>
      <trkpt lat="43.4414150" lon="-4.8871500">
        <ele>4.8</ele>
        <time>2021-07-19T06:57:16Z</time>
      </trkpt>
      <trkpt lat="43.4414020" lon="-4.8871930">
        <ele>5.2</ele>
        <time>2021-07-19T06:57:17Z</time>
      </trkpt>
      <trkpt lat="43.4413880" lon="-4.8872400">
        <ele>5.6</ele>
        <time>2021-07-19T06:57:18Z</time>
      </trkpt>
      <trkpt lat="43.4413620" lon="-4.8873590">
        <ele>5.6</ele>
        <time>2021-07-19T06:57:21Z</time>
      </trkpt>
      <trkpt lat="43.4412830" lon="-4.8875860">
        <ele>5.6</ele>
        <time>2021-07-19T06:57:27Z</time>
      </trkpt>
      <trkpt lat="43.4412040" lon="-4.8878790">
        <ele>5.6</ele>
        <time>2021-07-19T06:57:34Z</time>
      </trkpt>
      <trkpt lat="43.4411370" lon="-4.8880760">
        <ele>6.0</ele>
        <time>2021-07-19T06:57:39Z</time>
      </trkpt>
      <trkpt lat="43.4411180" lon="-4.8881170">
        <ele>6.4</ele>
        <time>2021-07-19T06:57:40Z</time>
      </trkpt>
      <trkpt lat="43.4411050" lon="-4.8881560">
        <ele>7.2</ele>
        <time>2021-07-19T06:57:41Z</time>
      </trkpt>
      <trkpt lat="43.4410930" lon="-4.8881940">
        <ele>7.6</ele>
        <time>2021-07-19T06:57:42Z</time>
      </trkpt>
      <trkpt lat="43.4409940" lon="-4.8884640">
        <ele>7.6</ele>
        <time>2021-07-19T06:57:49Z</time>
      </trkpt>
      <trkpt lat="43.4408800" lon="-4.8887340">
        <ele>8.0</ele>
        <time>2021-07-19T06:57:57Z</time>
      </trkpt>
      <trkpt lat="43.4408660" lon="-4.8887670">
        <ele>8.4</ele>
        <time>2021-07-19T06:57:58Z</time>
      </trkpt>
      <trkpt lat="43.4408520" lon="-4.8888010">
        <ele>8.8</ele>
        <time>2021-07-19T06:57:59Z</time>
      </trkpt>
      <trkpt lat="43.4408400" lon="-4.8888380">
        <ele>9.2</ele>
        <time>2021-07-19T06:58:00Z</time>
      </trkpt>
      <trkpt lat="43.4408280" lon="-4.8888800">
        <ele>9.6</ele>
        <time>2021-07-19T06:58:01Z</time>
      </trkpt>
      <trkpt lat="43.4408090" lon="-4.8889700">
        <ele>9.6</ele>
        <time>2021-07-19T06:58:03Z</time>
      </trkpt>
      <trkpt lat="43.4407390" lon="-4.8892700">
        <ele>9.6</ele>
        <time>2021-07-19T06:58:10Z</time>
      </trkpt>
      <trkpt lat="43.4406670" lon="-4.8894220">
        <ele>9.6</ele>
        <time>2021-07-19T06:58:15Z</time>
      </trkpt>
      <trkpt lat="43.4405680" lon="-4.8896380">
        <ele>10.0</ele>
        <time>2021-07-19T06:58:22Z</time>
      </trkpt>
      <trkpt lat="43.4405520" lon="-4.8896700">
        <ele>10.4</ele>
        <time>2021-07-19T06:58:23Z</time>
      </trkpt>
      <trkpt lat="43.4405350" lon="-4.8897060">
        <ele>10.8</ele>
        <time>2021-07-19T06:58:24Z</time>
      </trkpt>
      <trkpt lat="43.4405170" lon="-4.8897440">
        <ele>11.2</ele>
        <time>2021-07-19T06:58:25Z</time>
      </trkpt>
      <trkpt lat="43.4405010" lon="-4.8897780">
        <ele>11.6</ele>
        <time>2021-07-19T06:58:26Z</time>
      </trkpt>
      <trkpt lat="43.4404290" lon="-4.8899050">
        <ele>11.6</ele>
        <time>2021-07-19T06:58:30Z</time>
      </trkpt>
      <trkpt lat="43.4403650" lon="-4.8900200">
        <ele>12.0</ele>
        <time>2021-07-19T06:58:34Z</time>
      </trkpt>
      <trkpt lat="43.4403520" lon="-4.8900520">
        <ele>12.4</ele>
        <time>2021-07-19T06:58:35Z</time>
      </trkpt>
      <trkpt lat="43.4403370" lon="-4.8900830">
        <ele>12.8</ele>
        <time>2021-07-19T06:58:36Z</time>
      </trkpt>
      <trkpt lat="43.4403190" lon="-4.8901140">
        <ele>13.2</ele>
        <time>2021-07-19T06:58:37Z</time>
      </trkpt>
      <trkpt lat="43.4403010" lon="-4.8901500">
        <ele>13.6</ele>
        <time>2021-07-19T06:58:38Z</time>
      </trkpt>
      <trkpt lat="43.4401860" lon="-4.8903180">
        <ele>13.6</ele>
        <time>2021-07-19T06:58:44Z</time>
      </trkpt>
      <trkpt lat="43.4401200" lon="-4.8904550">
        <ele>13.6</ele>
        <time>2021-07-19T06:58:50Z</time>
      </trkpt>
      <trkpt lat="43.4400530" lon="-4.8906210">
        <ele>13.6</ele>
        <time>2021-07-19T06:58:55Z</time>
      </trkpt>
      <trkpt lat="43.4399640" lon="-4.8907110">
        <ele>14.0</ele>
        <time>2021-07-19T06:58:59Z</time>
      </trkpt>
      <trkpt lat="43.4399450" lon="-4.8907350">
        <ele>14.4</ele>
        <time>2021-07-19T06:59:00Z</time>
      </trkpt>
      <trkpt lat="43.4399270" lon="-4.8907580">
        <ele>14.8</ele>
        <time>2021-07-19T06:59:01Z</time>
      </trkpt>
      <trkpt lat="43.4399090" lon="-4.8907830">
        <ele>15.2</ele>
        <time>2021-07-19T06:59:02Z</time>
      </trkpt>
      <trkpt lat="43.4398910" lon="-4.8908130">
        <ele>15.6</ele>
        <time>2021-07-19T06:59:03Z</time>
      </trkpt>
      <trkpt lat="43.4398070" lon="-4.8909590">
        <ele>15.6</ele>
        <time>2021-07-19T06:59:08Z</time>
      </trkpt>
      <trkpt lat="43.4397620" lon="-4.8911030">
        <ele>15.6</ele>
        <time>2021-07-19T06:59:14Z</time>
      </trkpt>
      <trkpt lat="43.4397430" lon="-4.8911770">
        <ele>16.0</ele>
        <time>2021-07-19T06:59:18Z</time>
      </trkpt>
      <trkpt lat="43.4397410" lon="-4.8911930">
        <ele>16.4</ele>
        <time>2021-07-19T06:59:19Z</time>
      </trkpt>
      <trkpt lat="43.4397370" lon="-4.8912090">
        <ele>17.2</ele>
        <time>2021-07-19T06:59:20Z</time>
      </trkpt>
      <trkpt lat="43.4397320" lon="-4.8912270">
        <ele>17.8</ele>
        <time>2021-07-19T06:59:21Z</time>
      </trkpt>
      <trkpt lat="43.4397290" lon="-4.8912800">
        <ele>17.8</ele>
        <time>2021-07-19T06:59:23Z</time>
      </trkpt>
      <trkpt lat="43.4397270" lon="-4.8915670">
        <ele>17.8</ele>
        <time>2021-07-19T06:59:31Z</time>
      </trkpt>
      <trkpt lat="43.4397160" lon="-4.8918140">
        <ele>17.8</ele>
        <time>2021-07-19T06:59:37Z</time>
      </trkpt>
      <trkpt lat="43.4397150" lon="-4.8918660">
        <ele>17.8</ele>
        <time>2021-07-19T06:59:38Z</time>
      </trkpt>
      <trkpt lat="43.4397040" lon="-4.8919650">
        <ele>17.8</ele>
        <time>2021-07-19T06:59:40Z</time>
      </trkpt>
      <trkpt lat="43.4397000" lon="-4.8920040">
        <ele>17.8</ele>
        <time>2021-07-19T06:59:41Z</time>
      </trkpt>
      <trkpt lat="43.4396810" lon="-4.8921140">
        <ele>17.8</ele>
        <time>2021-07-19T06:59:44Z</time>
      </trkpt>
      <trkpt lat="43.4396210" lon="-4.8922610">
        <ele>17.8</ele>
        <time>2021-07-19T06:59:49Z</time>
      </trkpt>
      <trkpt lat="43.4396110" lon="-4.8922940">
        <ele>17.8</ele>
        <time>2021-07-19T06:59:50Z</time>
      </trkpt>
      <trkpt lat="43.4395940" lon="-4.8924050">
        <ele>17.8</ele>
        <time>2021-07-19T06:59:53Z</time>
      </trkpt>
      <trkpt lat="43.4395750" lon="-4.8924930">
        <ele>17.8</ele>
        <time>2021-07-19T06:59:56Z</time>
      </trkpt>
      <trkpt lat="43.4395610" lon="-4.8925750">
        <ele>17.8</ele>
        <time>2021-07-19T06:59:59Z</time>
      </trkpt>
      <trkpt lat="43.4395490" lon="-4.8926440">
        <ele>17.8</ele>
        <time>2021-07-19T07:00:01Z</time>
      </trkpt>
      <trkpt lat="43.4395390" lon="-4.8926850">
        <ele>17.2</ele>
        <time>2021-07-19T07:00:02Z</time>
      </trkpt>
      <trkpt lat="43.4395300" lon="-4.8927230">
        <ele>16.8</ele>
        <time>2021-07-19T07:00:03Z</time>
      </trkpt>
      <trkpt lat="43.4395190" lon="-4.8927660">
        <ele>16.4</ele>
        <time>2021-07-19T07:00:04Z</time>
      </trkpt>
      <trkpt lat="43.4395100" lon="-4.8928030">
        <ele>16.0</ele>
        <time>2021-07-19T07:00:05Z</time>
      </trkpt>
      <trkpt lat="43.4395010" lon="-4.8928410">
        <ele>15.6</ele>
        <time>2021-07-19T07:00:06Z</time>
      </trkpt>
      <trkpt lat="43.4394690" lon="-4.8929430">
        <ele>15.6</ele>
        <time>2021-07-19T07:00:09Z</time>
      </trkpt>
      <trkpt lat="43.4394330" lon="-4.8930200">
        <ele>15.6</ele>
        <time>2021-07-19T07:00:11Z</time>
      </trkpt>
      <trkpt lat="43.4393830" lon="-4.8931610">
        <ele>15.6</ele>
        <time>2021-07-19T07:00:15Z</time>
      </trkpt>
      <trkpt lat="43.4393490" lon="-4.8932840">
        <ele>15.6</ele>
        <time>2021-07-19T07:00:18Z</time>
      </trkpt>
      <trkpt lat="43.4393370" lon="-4.8935310">
        <ele>15.6</ele>
        <time>2021-07-19T07:00:23Z</time>
      </trkpt>
      <trkpt lat="43.4393490" lon="-4.8935740">
        <ele>15.6</ele>
        <time>2021-07-19T07:00:24Z</time>
      </trkpt>
      <trkpt lat="43.4393890" lon="-4.8936500">
        <ele>15.6</ele>
        <time>2021-07-19T07:00:26Z</time>
      </trkpt>
      <trkpt lat="43.4394480" lon="-4.8937200">
        <ele>15.6</ele>
        <time>2021-07-19T07:00:28Z</time>
      </trkpt>
      <trkpt lat="43.4396070" lon="-4.8938980">
        <ele>15.6</ele>
        <time>2021-07-19T07:00:33Z</time>
      </trkpt>
      <trkpt lat="43.4396420" lon="-4.8939340">
        <ele>15.6</ele>
        <time>2021-07-19T07:00:34Z</time>
      </trkpt>
      <trkpt lat="43.4397170" lon="-4.8940130">
        <ele>15.6</ele>
        <time>2021-07-19T07:00:36Z</time>
      </trkpt>
      <trkpt lat="43.4397560" lon="-4.8940570">
        <ele>15.2</ele>
        <time>2021-07-19T07:00:37Z</time>
      </trkpt>
      <trkpt lat="43.4397920" lon="-4.8941000">
        <ele>14.8</ele>
        <time>2021-07-19T07:00:38Z</time>
      </trkpt>
      <trkpt lat="43.4398210" lon="-4.8941410">
        <ele>14.4</ele>
        <time>2021-07-19T07:00:39Z</time>
      </trkpt>
      <trkpt lat="43.4398510" lon="-4.8941850">
        <ele>14.0</ele>
        <time>2021-07-19T07:00:40Z</time>
      </trkpt>
      <trkpt lat="43.4398790" lon="-4.8942320">
        <ele>13.6</ele>
        <time>2021-07-19T07:00:41Z</time>
      </trkpt>
      <trkpt lat="43.4399050" lon="-4.8942870">
        <ele>13.6</ele>
        <time>2021-07-19T07:00:42Z</time>
      </trkpt>
      <trkpt lat="43.4399640" lon="-4.8946230">
        <ele>13.6</ele>
        <time>2021-07-19T07:00:47Z</time>
      </trkpt>
      <trkpt lat="43.4399660" lon="-4.8947910">
        <ele>13.6</ele>
        <time>2021-07-19T07:00:51Z</time>
      </trkpt>
      <trkpt lat="43.4399580" lon="-4.8948300">
        <ele>13.6</ele>
        <time>2021-07-19T07:00:52Z</time>
      </trkpt>
      <trkpt lat="43.4399270" lon="-4.8948990">
        <ele>13.6</ele>
        <time>2021-07-19T07:00:54Z</time>
      </trkpt>
      <trkpt lat="43.4398820" lon="-4.8949640">
        <ele>13.6</ele>
        <time>2021-07-19T07:00:56Z</time>
      </trkpt>
      <trkpt lat="43.4398600" lon="-4.8949910">
        <ele>13.6</ele>
        <time>2021-07-19T07:00:57Z</time>
      </trkpt>
      <trkpt lat="43.4397820" lon="-4.8950730">
        <ele>13.6</ele>
        <time>2021-07-19T07:01:00Z</time>
      </trkpt>
      <trkpt lat="43.4397210" lon="-4.8951770">
        <ele>13.6</ele>
        <time>2021-07-19T07:01:03Z</time>
      </trkpt>
      <trkpt lat="43.4395680" lon="-4.8954060">
        <ele>13.6</ele>
        <time>2021-07-19T07:01:10Z</time>
      </trkpt>
      <trkpt lat="43.4395380" lon="-4.8956510">
        <ele>13.6</ele>
        <time>2021-07-19T07:01:16Z</time>
      </trkpt>
      <trkpt lat="43.4395320" lon="-4.8960010">
        <ele>13.6</ele>
        <time>2021-07-19T07:01:23Z</time>
      </trkpt>
      <trkpt lat="43.4395020" lon="-4.8962590">
        <ele>13.6</ele>
        <time>2021-07-19T07:01:29Z</time>
      </trkpt>
      <trkpt lat="43.4394270" lon="-4.8965510">
        <ele>13.6</ele>
        <time>2021-07-19T07:01:36Z</time>
      </trkpt>
      <trkpt lat="43.4393820" lon="-4.8966590">
        <ele>13.6</ele>
        <time>2021-07-19T07:01:39Z</time>
      </trkpt>
      <trkpt lat="43.4392730" lon="-4.8968270">
        <ele>13.6</ele>
        <time>2021-07-19T07:01:45Z</time>
      </trkpt>
      <trkpt lat="43.4391620" lon="-4.8969950">
        <ele>14.0</ele>
        <time>2021-07-19T07:01:50Z</time>
      </trkpt>
      <trkpt lat="43.4391380" lon="-4.8970170">
        <ele>14.4</ele>
        <time>2021-07-19T07:01:51Z</time>
      </trkpt>
      <trkpt lat="43.4391160" lon="-4.8970350">
        <ele>14.8</ele>
        <time>2021-07-19T07:01:52Z</time>
      </trkpt>
      <trkpt lat="43.4390960" lon="-4.8970540">
        <ele>15.2</ele>
        <time>2021-07-19T07:01:53Z</time>
      </trkpt>
      <trkpt lat="43.4390750" lon="-4.8970800">
        <ele>15.6</ele>
        <time>2021-07-19T07:01:54Z</time>
      </trkpt>
      <trkpt lat="43.4390130" lon="-4.8971770">
        <ele>15.6</ele>
        <time>2021-07-19T07:01:57Z</time>
      </trkpt>
      <trkpt lat="43.4389060" lon="-4.8974300">
        <ele>15.6</ele>
        <time>2021-07-19T07:02:03Z</time>
      </trkpt>
      <trkpt lat="43.4387960" lon="-4.8976700">
        <ele>15.6</ele>
        <time>2021-07-19T07:02:10Z</time>
      </trkpt>
      <trkpt lat="43.4386770" lon="-4.8979280">
        <ele>15.6</ele>
        <time>2021-07-19T07:02:18Z</time>
      </trkpt>
      <trkpt lat="43.4386650" lon="-4.8981380">
        <ele>15.6</ele>
        <time>2021-07-19T07:02:23Z</time>
      </trkpt>
      <trkpt lat="43.4386850" lon="-4.8982570">
        <ele>16.0</ele>
        <time>2021-07-19T07:02:26Z</time>
      </trkpt>
      <trkpt lat="43.4386960" lon="-4.8982890">
        <ele>16.4</ele>
        <time>2021-07-19T07:02:27Z</time>
      </trkpt>
      <trkpt lat="43.4387110" lon="-4.8983280">
        <ele>16.8</ele>
        <time>2021-07-19T07:02:28Z</time>
      </trkpt>
      <trkpt lat="43.4387250" lon="-4.8983610">
        <ele>17.2</ele>
        <time>2021-07-19T07:02:29Z</time>
      </trkpt>
      <trkpt lat="43.4387400" lon="-4.8984010">
        <ele>17.6</ele>
        <time>2021-07-19T07:02:30Z</time>
      </trkpt>
      <trkpt lat="43.4388050" lon="-4.8985780">
        <ele>17.6</ele>
        <time>2021-07-19T07:02:35Z</time>
      </trkpt>
      <trkpt lat="43.4388260" lon="-4.8986870">
        <ele>18.0</ele>
        <time>2021-07-19T07:02:38Z</time>
      </trkpt>
      <trkpt lat="43.4388270" lon="-4.8987210">
        <ele>18.4</ele>
        <time>2021-07-19T07:02:39Z</time>
      </trkpt>
      <trkpt lat="43.4388280" lon="-4.8987520">
        <ele>19.0</ele>
        <time>2021-07-19T07:02:40Z</time>
      </trkpt>
      <trkpt lat="43.4388260" lon="-4.8987800">
        <ele>19.4</ele>
        <time>2021-07-19T07:02:41Z</time>
      </trkpt>
      <trkpt lat="43.4388220" lon="-4.8988040">
        <ele>19.8</ele>
        <time>2021-07-19T07:02:42Z</time>
      </trkpt>
      <trkpt lat="43.4388110" lon="-4.8989510">
        <ele>19.8</ele>
        <time>2021-07-19T07:02:47Z</time>
      </trkpt>
      <trkpt lat="43.4387990" lon="-4.8990310">
        <ele>19.8</ele>
        <time>2021-07-19T07:02:50Z</time>
      </trkpt>
      <trkpt lat="43.4387890" lon="-4.8991270">
        <ele>20.2</ele>
        <time>2021-07-19T07:02:54Z</time>
      </trkpt>
      <trkpt lat="43.4387890" lon="-4.8991520">
        <ele>20.6</ele>
        <time>2021-07-19T07:02:55Z</time>
      </trkpt>
      <trkpt lat="43.4387940" lon="-4.8991800">
        <ele>21.0</ele>
        <time>2021-07-19T07:02:56Z</time>
      </trkpt>
      <trkpt lat="43.4387980" lon="-4.8992080">
        <ele>21.4</ele>
        <time>2021-07-19T07:02:57Z</time>
      </trkpt>
      <trkpt lat="43.4387990" lon="-4.8992380">
        <ele>21.8</ele>
        <time>2021-07-19T07:02:58Z</time>
      </trkpt>
      <trkpt lat="43.4388000" lon="-4.8992980">
        <ele>21.8</ele>
        <time>2021-07-19T07:03:00Z</time>
      </trkpt>
      <trkpt lat="43.4388100" lon="-4.8995160">
        <ele>21.8</ele>
        <time>2021-07-19T07:03:07Z</time>
      </trkpt>
      <trkpt lat="43.4388030" lon="-4.8995490">
        <ele>22.2</ele>
        <time>2021-07-19T07:03:08Z</time>
      </trkpt>
      <trkpt lat="43.4387950" lon="-4.8995880">
        <ele>22.6</ele>
        <time>2021-07-19T07:03:09Z</time>
      </trkpt>
      <trkpt lat="43.4387900" lon="-4.8996230">
        <ele>23.0</ele>
        <time>2021-07-19T07:03:10Z</time>
      </trkpt>
      <trkpt lat="43.4387830" lon="-4.8996580">
        <ele>23.4</ele>
        <time>2021-07-19T07:03:11Z</time>
      </trkpt>
      <trkpt lat="43.4387760" lon="-4.8996930">
        <ele>24.0</ele>
        <time>2021-07-19T07:03:12Z</time>
      </trkpt>
      <trkpt lat="43.4387760" lon="-4.8997290">
        <ele>24.0</ele>
        <time>2021-07-19T07:03:13Z</time>
      </trkpt>
      <trkpt lat="43.4387760" lon="-4.8997960">
        <ele>24.4</ele>
        <time>2021-07-19T07:03:15Z</time>
      </trkpt>
      <trkpt lat="43.4387800" lon="-4.8998240">
        <ele>24.8</ele>
        <time>2021-07-19T07:03:16Z</time>
      </trkpt>
      <trkpt lat="43.4387830" lon="-4.8998490">
        <ele>25.2</ele>
        <time>2021-07-19T07:03:17Z</time>
      </trkpt>
      <trkpt lat="43.4387830" lon="-4.8998600">
        <ele>25.6</ele>
        <time>2021-07-19T07:03:18Z</time>
      </trkpt>
      <trkpt lat="43.4387930" lon="-4.8998820">
        <ele>26.0</ele>
        <time>2021-07-19T07:03:19Z</time>
      </trkpt>
      <trkpt lat="43.4388040" lon="-4.8999020">
        <ele>26.0</ele>
        <time>2021-07-19T07:03:20Z</time>
      </trkpt>
      <trkpt lat="43.4388420" lon="-4.8999940">
        <ele>26.4</ele>
        <time>2021-07-19T07:03:24Z</time>
      </trkpt>
      <trkpt lat="43.4388410" lon="-4.9000270">
        <ele>26.8</ele>
        <time>2021-07-19T07:03:25Z</time>
      </trkpt>
      <trkpt lat="43.4388480" lon="-4.9000520">
        <ele>27.2</ele>
        <time>2021-07-19T07:03:26Z</time>
      </trkpt>
      <trkpt lat="43.4388510" lon="-4.9000780">
        <ele>28.2</ele>
        <time>2021-07-19T07:03:27Z</time>
      </trkpt>
      <trkpt lat="43.4388660" lon="-4.9001790">
        <ele>28.2</ele>
        <time>2021-07-19T07:03:31Z</time>
      </trkpt>
      <trkpt lat="43.4388860" lon="-4.9004500">
        <ele>28.2</ele>
        <time>2021-07-19T07:03:37Z</time>
      </trkpt>
      <trkpt lat="43.4389010" lon="-4.9007490">
        <ele>28.2</ele>
        <time>2021-07-19T07:03:43Z</time>
      </trkpt>
      <trkpt lat="43.4388970" lon="-4.9009130">
        <ele>28.2</ele>
        <time>2021-07-19T07:03:47Z</time>
      </trkpt>
      <trkpt lat="43.4388900" lon="-4.9009510">
        <ele>28.2</ele>
        <time>2021-07-19T07:03:49Z</time>
      </trkpt>
      <trkpt lat="43.4388860" lon="-4.9009610">
        <ele>28.2</ele>
        <time>2021-07-19T07:03:51Z</time>
      </trkpt>
      <trkpt lat="43.4389030" lon="-4.9010250">
        <ele>28.2</ele>
        <time>2021-07-19T07:06:43Z</time>
      </trkpt>
      <trkpt lat="43.4389070" lon="-4.9010510">
        <ele>28.2</ele>
        <time>2021-07-19T07:06:44Z</time>
      </trkpt>
      <trkpt lat="43.4389100" lon="-4.9011730">
        <ele>28.2</ele>
        <time>2021-07-19T07:06:47Z</time>
      </trkpt>
      <trkpt lat="43.4389020" lon="-4.9012890">
        <ele>28.2</ele>
        <time>2021-07-19T07:06:49Z</time>
      </trkpt>
      <trkpt lat="43.4388810" lon="-4.9014010">
        <ele>27.8</ele>
        <time>2021-07-19T07:06:51Z</time>
      </trkpt>
      <trkpt lat="43.4388690" lon="-4.9014510">
        <ele>27.4</ele>
        <time>2021-07-19T07:06:52Z</time>
      </trkpt>
      <trkpt lat="43.4388540" lon="-4.9014950">
        <ele>27.0</ele>
        <time>2021-07-19T07:06:53Z</time>
      </trkpt>
      <trkpt lat="43.4388370" lon="-4.9015410">
        <ele>26.6</ele>
        <time>2021-07-19T07:06:54Z</time>
      </trkpt>
      <trkpt lat="43.4388190" lon="-4.9015900">
        <ele>26.2</ele>
        <time>2021-07-19T07:06:55Z</time>
      </trkpt>
      <trkpt lat="43.4387680" lon="-4.9017440">
        <ele>26.2</ele>
        <time>2021-07-19T07:06:58Z</time>
      </trkpt>
      <trkpt lat="43.4387260" lon="-4.9018980">
        <ele>26.2</ele>
        <time>2021-07-19T07:07:01Z</time>
      </trkpt>
      <trkpt lat="43.4387110" lon="-4.9019490">
        <ele>26.2</ele>
        <time>2021-07-19T07:07:02Z</time>
      </trkpt>
      <trkpt lat="43.4386690" lon="-4.9021380">
        <ele>26.2</ele>
        <time>2021-07-19T07:07:06Z</time>
      </trkpt>
      <trkpt lat="43.4386450" lon="-4.9022250">
        <ele>26.2</ele>
        <time>2021-07-19T07:07:08Z</time>
      </trkpt>
      <trkpt lat="43.4386070" lon="-4.9023510">
        <ele>26.2</ele>
        <time>2021-07-19T07:07:11Z</time>
      </trkpt>
      <trkpt lat="43.4385730" lon="-4.9024370">
        <ele>26.2</ele>
        <time>2021-07-19T07:07:13Z</time>
      </trkpt>
      <trkpt lat="43.4385210" lon="-4.9025720">
        <ele>26.2</ele>
        <time>2021-07-19T07:07:16Z</time>
      </trkpt>
      <trkpt lat="43.4384690" lon="-4.9027640">
        <ele>26.2</ele>
        <time>2021-07-19T07:07:20Z</time>
      </trkpt>
      <trkpt lat="43.4384400" lon="-4.9028940">
        <ele>26.2</ele>
        <time>2021-07-19T07:07:23Z</time>
      </trkpt>
      <trkpt lat="43.4384300" lon="-4.9029720">
        <ele>26.2</ele>
        <time>2021-07-19T07:07:25Z</time>
      </trkpt>
      <trkpt lat="43.4384250" lon="-4.9030820">
        <ele>26.2</ele>
        <time>2021-07-19T07:07:28Z</time>
      </trkpt>
      <trkpt lat="43.4384260" lon="-4.9031550">
        <ele>26.2</ele>
        <time>2021-07-19T07:07:30Z</time>
      </trkpt>
      <trkpt lat="43.4384280" lon="-4.9031900">
        <ele>26.2</ele>
        <time>2021-07-19T07:07:31Z</time>
      </trkpt>
      <trkpt lat="43.4384270" lon="-4.9032640">
        <ele>26.2</ele>
        <time>2021-07-19T07:07:33Z</time>
      </trkpt>
      <trkpt lat="43.4384440" lon="-4.9033680">
        <ele>26.2</ele>
        <time>2021-07-19T07:07:36Z</time>
      </trkpt>
      <trkpt lat="43.4384600" lon="-4.9034430">
        <ele>26.2</ele>
        <time>2021-07-19T07:07:38Z</time>
      </trkpt>
      <trkpt lat="43.4385020" lon="-4.9035940">
        <ele>26.6</ele>
        <time>2021-07-19T07:07:42Z</time>
      </trkpt>
      <trkpt lat="43.4385120" lon="-4.9036290">
        <ele>27.0</ele>
        <time>2021-07-19T07:07:43Z</time>
      </trkpt>
      <trkpt lat="43.4385220" lon="-4.9036670">
        <ele>27.4</ele>
        <time>2021-07-19T07:07:44Z</time>
      </trkpt>
      <trkpt lat="43.4385330" lon="-4.9037040">
        <ele>27.8</ele>
        <time>2021-07-19T07:07:45Z</time>
      </trkpt>
      <trkpt lat="43.4385420" lon="-4.9037440">
        <ele>28.2</ele>
        <time>2021-07-19T07:07:46Z</time>
      </trkpt>
      <trkpt lat="43.4385790" lon="-4.9038690">
        <ele>28.2</ele>
        <time>2021-07-19T07:07:49Z</time>
      </trkpt>
      <trkpt lat="43.4386370" lon="-4.9040290">
        <ele>28.2</ele>
        <time>2021-07-19T07:07:53Z</time>
      </trkpt>
      <trkpt lat="43.4387210" lon="-4.9041710">
        <ele>28.2</ele>
        <time>2021-07-19T07:07:57Z</time>
      </trkpt>
      <trkpt lat="43.4387750" lon="-4.9042300">
        <ele>28.2</ele>
        <time>2021-07-19T07:07:59Z</time>
      </trkpt>
      <trkpt lat="43.4388350" lon="-4.9042880">
        <ele>28.2</ele>
        <time>2021-07-19T07:08:01Z</time>
      </trkpt>
      <trkpt lat="43.4388920" lon="-4.9043480">
        <ele>28.2</ele>
        <time>2021-07-19T07:08:03Z</time>
      </trkpt>
      <trkpt lat="43.4389410" lon="-4.9044030">
        <ele>28.2</ele>
        <time>2021-07-19T07:08:05Z</time>
      </trkpt>
      <trkpt lat="43.4389700" lon="-4.9044240">
        <ele>28.2</ele>
        <time>2021-07-19T07:08:06Z</time>
      </trkpt>
      <trkpt lat="43.4390390" lon="-4.9044630">
        <ele>28.2</ele>
        <time>2021-07-19T07:08:08Z</time>
      </trkpt>
      <trkpt lat="43.4390980" lon="-4.9044880">
        <ele>28.2</ele>
        <time>2021-07-19T07:08:10Z</time>
      </trkpt>
      <trkpt lat="43.4391380" lon="-4.9045150">
        <ele>28.2</ele>
        <time>2021-07-19T07:08:12Z</time>
      </trkpt>
      <trkpt lat="43.4392030" lon="-4.9045460">
        <ele>28.2</ele>
        <time>2021-07-19T07:08:15Z</time>
      </trkpt>
      <trkpt lat="43.4392230" lon="-4.9045590">
        <ele>28.2</ele>
        <time>2021-07-19T07:08:16Z</time>
      </trkpt>
      <trkpt lat="43.4392400" lon="-4.9045720">
        <ele>27.8</ele>
        <time>2021-07-19T07:08:17Z</time>
      </trkpt>
      <trkpt lat="43.4392530" lon="-4.9045800">
        <ele>27.4</ele>
        <time>2021-07-19T07:08:18Z</time>
      </trkpt>
      <trkpt lat="43.4392670" lon="-4.9045920">
        <ele>27.0</ele>
        <time>2021-07-19T07:08:19Z</time>
      </trkpt>
      <trkpt lat="43.4392820" lon="-4.9046030">
        <ele>26.6</ele>
        <time>2021-07-19T07:08:20Z</time>
      </trkpt>
      <trkpt lat="43.4392990" lon="-4.9046160">
        <ele>26.2</ele>
        <time>2021-07-19T07:08:21Z</time>
      </trkpt>
      <trkpt lat="43.4393060" lon="-4.9046310">
        <ele>26.2</ele>
        <time>2021-07-19T07:08:22Z</time>
      </trkpt>
      <trkpt lat="43.4393080" lon="-4.9046330">
        <ele>26.2</ele>
        <time>2021-07-19T07:08:23Z</time>
      </trkpt>
      <trkpt lat="43.4393160" lon="-4.9046100">
        <ele>26.2</ele>
        <time>2021-07-19T07:08:33Z</time>
      </trkpt>
      <trkpt lat="43.4393150" lon="-4.9046070">
        <ele>26.2</ele>
        <time>2021-07-19T07:08:34Z</time>
      </trkpt>
      <trkpt lat="43.4392830" lon="-4.9045970">
        <ele>26.2</ele>
        <time>2021-07-19T07:08:37Z</time>
      </trkpt>
      <trkpt lat="43.4392500" lon="-4.9045850">
        <ele>26.2</ele>
        <time>2021-07-19T07:08:39Z</time>
      </trkpt>
      <trkpt lat="43.4392100" lon="-4.9045590">
        <ele>26.2</ele>
        <time>2021-07-19T07:08:41Z</time>
      </trkpt>
      <trkpt lat="43.4391880" lon="-4.9045410">
        <ele>26.2</ele>
        <time>2021-07-19T07:08:42Z</time>
      </trkpt>
      <trkpt lat="43.4391680" lon="-4.9045290">
        <ele>26.2</ele>
        <time>2021-07-19T07:08:43Z</time>
      </trkpt>
      <trkpt lat="43.4390740" lon="-4.9044930">
        <ele>26.2</ele>
        <time>2021-07-19T07:08:50Z</time>
      </trkpt>
      <trkpt lat="43.4390880" lon="-4.9045130">
        <ele>26.2</ele>
        <time>2021-07-19T07:08:53Z</time>
      </trkpt>
      <trkpt lat="43.4390970" lon="-4.9045080">
        <ele>26.2</ele>
        <time>2021-07-19T07:08:55Z</time>
      </trkpt>
      <trkpt lat="43.4391180" lon="-4.9045110">
        <ele>26.2</ele>
        <time>2021-07-19T07:09:17Z</time>
      </trkpt>
      <trkpt lat="43.4391540" lon="-4.9045210">
        <ele>26.2</ele>
        <time>2021-07-19T07:09:19Z</time>
      </trkpt>
      <trkpt lat="43.4392160" lon="-4.9045560">
        <ele>26.2</ele>
        <time>2021-07-19T07:09:22Z</time>
      </trkpt>
      <trkpt lat="43.4392620" lon="-4.9045870">
        <ele>26.2</ele>
        <time>2021-07-19T07:09:24Z</time>
      </trkpt>
      <trkpt lat="43.4393920" lon="-4.9046260">
        <ele>26.2</ele>
        <time>2021-07-19T07:09:29Z</time>
      </trkpt>
      <trkpt lat="43.4394920" lon="-4.9045840">
        <ele>26.2</ele>
        <time>2021-07-19T07:09:32Z</time>
      </trkpt>
      <trkpt lat="43.4396000" lon="-4.9045240">
        <ele>26.2</ele>
        <time>2021-07-19T07:09:35Z</time>
      </trkpt>
      <trkpt lat="43.4397160" lon="-4.9044400">
        <ele>25.8</ele>
        <time>2021-07-19T07:09:38Z</time>
      </trkpt>
      <trkpt lat="43.4397540" lon="-4.9044150">
        <ele>25.4</ele>
        <time>2021-07-19T07:09:39Z</time>
      </trkpt>
      <trkpt lat="43.4397910" lon="-4.9043910">
        <ele>24.4</ele>
        <time>2021-07-19T07:09:40Z</time>
      </trkpt>
      <trkpt lat="43.4398230" lon="-4.9043710">
        <ele>24.0</ele>
        <time>2021-07-19T07:09:41Z</time>
      </trkpt>
      <trkpt lat="43.4398520" lon="-4.9043500">
        <ele>24.0</ele>
        <time>2021-07-19T07:09:42Z</time>
      </trkpt>
      <trkpt lat="43.4399680" lon="-4.9042800">
        <ele>24.0</ele>
        <time>2021-07-19T07:09:46Z</time>
      </trkpt>
      <trkpt lat="43.4400010" lon="-4.9042630">
        <ele>23.6</ele>
        <time>2021-07-19T07:09:47Z</time>
      </trkpt>
      <trkpt lat="43.4400370" lon="-4.9042440">
        <ele>23.2</ele>
        <time>2021-07-19T07:09:48Z</time>
      </trkpt>
      <trkpt lat="43.4400750" lon="-4.9042300">
        <ele>22.8</ele>
        <time>2021-07-19T07:09:49Z</time>
      </trkpt>
      <trkpt lat="43.4401110" lon="-4.9042220">
        <ele>22.4</ele>
        <time>2021-07-19T07:09:50Z</time>
      </trkpt>
      <trkpt lat="43.4401420" lon="-4.9042230">
        <ele>22.0</ele>
        <time>2021-07-19T07:09:51Z</time>
      </trkpt>
      <trkpt lat="43.4402520" lon="-4.9042190">
        <ele>21.6</ele>
        <time>2021-07-19T07:09:55Z</time>
      </trkpt>
      <trkpt lat="43.4402780" lon="-4.9042210">
        <ele>21.2</ele>
        <time>2021-07-19T07:09:56Z</time>
      </trkpt>
      <trkpt lat="43.4403010" lon="-4.9042220">
        <ele>20.8</ele>
        <time>2021-07-19T07:09:57Z</time>
      </trkpt>
      <trkpt lat="43.4403260" lon="-4.9042220">
        <ele>20.4</ele>
        <time>2021-07-19T07:09:58Z</time>
      </trkpt>
      <trkpt lat="43.4403530" lon="-4.9042200">
        <ele>20.0</ele>
        <time>2021-07-19T07:09:59Z</time>
      </trkpt>
      <trkpt lat="43.4404420" lon="-4.9042140">
        <ele>20.0</ele>
        <time>2021-07-19T07:10:02Z</time>
      </trkpt>
      <trkpt lat="43.4406730" lon="-4.9041970">
        <ele>20.0</ele>
        <time>2021-07-19T07:10:08Z</time>
      </trkpt>
      <trkpt lat="43.4409720" lon="-4.9041950">
        <ele>19.6</ele>
        <time>2021-07-19T07:10:14Z</time>
      </trkpt>
      <trkpt lat="43.4410110" lon="-4.9041930">
        <ele>19.2</ele>
        <time>2021-07-19T07:10:15Z</time>
      </trkpt>
      <trkpt lat="43.4410480" lon="-4.9041900">
        <ele>18.8</ele>
        <time>2021-07-19T07:10:16Z</time>
      </trkpt>
      <trkpt lat="43.4410810" lon="-4.9041830">
        <ele>18.4</ele>
        <time>2021-07-19T07:10:17Z</time>
      </trkpt>
      <trkpt lat="43.4411120" lon="-4.9041780">
        <ele>18.0</ele>
        <time>2021-07-19T07:10:18Z</time>
      </trkpt>
      <trkpt lat="43.4412070" lon="-4.9041710">
        <ele>18.0</ele>
        <time>2021-07-19T07:10:21Z</time>
      </trkpt>
      <trkpt lat="43.4414280" lon="-4.9041810">
        <ele>18.0</ele>
        <time>2021-07-19T07:10:27Z</time>
      </trkpt>
      <trkpt lat="43.4414890" lon="-4.9042220">
        <ele>17.2</ele>
        <time>2021-07-19T07:10:29Z</time>
      </trkpt>
      <trkpt lat="43.4415200" lon="-4.9042520">
        <ele>16.8</ele>
        <time>2021-07-19T07:10:30Z</time>
      </trkpt>
      <trkpt lat="43.4415480" lon="-4.9042840">
        <ele>16.4</ele>
        <time>2021-07-19T07:10:31Z</time>
      </trkpt>
      <trkpt lat="43.4415750" lon="-4.9043120">
        <ele>16.0</ele>
        <time>2021-07-19T07:10:32Z</time>
      </trkpt>
      <trkpt lat="43.4417640" lon="-4.9044370">
        <ele>16.0</ele>
        <time>2021-07-19T07:10:38Z</time>
      </trkpt>
      <trkpt lat="43.4418310" lon="-4.9044700">
        <ele>15.6</ele>
        <time>2021-07-19T07:10:40Z</time>
      </trkpt>
      <trkpt lat="43.4418610" lon="-4.9044910">
        <ele>15.2</ele>
        <time>2021-07-19T07:10:41Z</time>
      </trkpt>
      <trkpt lat="43.4418880" lon="-4.9045090">
        <ele>14.8</ele>
        <time>2021-07-19T07:10:42Z</time>
      </trkpt>
      <trkpt lat="43.4419150" lon="-4.9045260">
        <ele>14.4</ele>
        <time>2021-07-19T07:10:43Z</time>
      </trkpt>
      <trkpt lat="43.4419460" lon="-4.9045440">
        <ele>14.0</ele>
        <time>2021-07-19T07:10:44Z</time>
      </trkpt>
      <trkpt lat="43.4419740" lon="-4.9045670">
        <ele>14.0</ele>
        <time>2021-07-19T07:10:45Z</time>
      </trkpt>
      <trkpt lat="43.4420250" lon="-4.9046070">
        <ele>13.6</ele>
        <time>2021-07-19T07:10:47Z</time>
      </trkpt>
      <trkpt lat="43.4420460" lon="-4.9046190">
        <ele>13.2</ele>
        <time>2021-07-19T07:10:48Z</time>
      </trkpt>
      <trkpt lat="43.4420650" lon="-4.9046310">
        <ele>12.8</ele>
        <time>2021-07-19T07:10:49Z</time>
      </trkpt>
      <trkpt lat="43.4420810" lon="-4.9046470">
        <ele>12.4</ele>
        <time>2021-07-19T07:10:50Z</time>
      </trkpt>
      <trkpt lat="43.4420930" lon="-4.9046610">
        <ele>12.0</ele>
        <time>2021-07-19T07:10:51Z</time>
      </trkpt>
      <trkpt lat="43.4421160" lon="-4.9046880">
        <ele>12.0</ele>
        <time>2021-07-19T07:10:54Z</time>
      </trkpt>
      <trkpt lat="43.4421160" lon="-4.9046890">
        <ele>12.0</ele>
        <time>2021-07-19T07:10:55Z</time>
      </trkpt>
      <trkpt lat="43.4421280" lon="-4.9047170">
        <ele>12.0</ele>
        <time>2021-07-19T07:11:25Z</time>
      </trkpt>
      <trkpt lat="43.4421390" lon="-4.9047250">
        <ele>12.0</ele>
        <time>2021-07-19T07:11:26Z</time>
      </trkpt>
      <trkpt lat="43.4421520" lon="-4.9047380">
        <ele>12.0</ele>
        <time>2021-07-19T07:11:27Z</time>
      </trkpt>
      <trkpt lat="43.4421700" lon="-4.9047720">
        <ele>12.0</ele>
        <time>2021-07-19T07:11:29Z</time>
      </trkpt>
      <trkpt lat="43.4421750" lon="-4.9047910">
        <ele>12.0</ele>
        <time>2021-07-19T07:11:30Z</time>
      </trkpt>
      <trkpt lat="43.4422110" lon="-4.9048340">
        <ele>12.0</ele>
        <time>2021-07-19T07:11:33Z</time>
      </trkpt>
      <trkpt lat="43.4422410" lon="-4.9048720">
        <ele>12.0</ele>
        <time>2021-07-19T07:11:35Z</time>
      </trkpt>
      <trkpt lat="43.4423820" lon="-4.9050110">
        <ele>12.0</ele>
        <time>2021-07-19T07:11:41Z</time>
      </trkpt>
      <trkpt lat="43.4425580" lon="-4.9051530">
        <ele>12.0</ele>
        <time>2021-07-19T07:11:48Z</time>
      </trkpt>
      <trkpt lat="43.4425900" lon="-4.9051760">
        <ele>12.0</ele>
        <time>2021-07-19T07:11:50Z</time>
      </trkpt>
      <trkpt lat="43.4426120" lon="-4.9051480">
        <ele>12.0</ele>
        <time>2021-07-19T07:11:52Z</time>
      </trkpt>
      <trkpt lat="43.4425750" lon="-4.9051310">
        <ele>12.0</ele>
        <time>2021-07-19T07:11:55Z</time>
      </trkpt>
      <trkpt lat="43.4425510" lon="-4.9051330">
        <ele>12.0</ele>
        <time>2021-07-19T07:11:56Z</time>
      </trkpt>
      <trkpt lat="43.4424710" lon="-4.9050980">
        <ele>12.0</ele>
        <time>2021-07-19T07:11:59Z</time>
      </trkpt>
      <trkpt lat="43.4424480" lon="-4.9050770">
        <ele>12.0</ele>
        <time>2021-07-19T07:12:00Z</time>
      </trkpt>
      <trkpt lat="43.4423890" lon="-4.9050130">
        <ele>12.0</ele>
        <time>2021-07-19T07:12:03Z</time>
      </trkpt>
      <trkpt lat="43.4423450" lon="-4.9049750">
        <ele>12.0</ele>
        <time>2021-07-19T07:12:05Z</time>
      </trkpt>
      <trkpt lat="43.4422690" lon="-4.9049120">
        <ele>12.0</ele>
        <time>2021-07-19T07:12:09Z</time>
      </trkpt>
      <trkpt lat="43.4422040" lon="-4.9048780">
        <ele>12.0</ele>
        <time>2021-07-19T07:12:13Z</time>
      </trkpt>
      <trkpt lat="43.4421890" lon="-4.9048890">
        <ele>12.0</ele>
        <time>2021-07-19T07:12:14Z</time>
      </trkpt>
      <trkpt lat="43.4421960" lon="-4.9049250">
        <ele>12.0</ele>
        <time>2021-07-19T07:12:18Z</time>
      </trkpt>
      <trkpt lat="43.4421730" lon="-4.9049250">
        <ele>12.0</ele>
        <time>2021-07-19T07:14:17Z</time>
      </trkpt>
      <trkpt lat="43.4421580" lon="-4.9049100">
        <ele>12.0</ele>
        <time>2021-07-19T07:14:18Z</time>
      </trkpt>
      <trkpt lat="43.4421280" lon="-4.9048670">
        <ele>12.0</ele>
        <time>2021-07-19T07:14:20Z</time>
      </trkpt>
      <trkpt lat="43.4421010" lon="-4.9047550">
        <ele>12.0</ele>
        <time>2021-07-19T07:14:23Z</time>
      </trkpt>
      <trkpt lat="43.4420850" lon="-4.9047130">
        <ele>12.0</ele>
        <time>2021-07-19T07:14:24Z</time>
      </trkpt>
      <trkpt lat="43.4419900" lon="-4.9046140">
        <ele>12.0</ele>
        <time>2021-07-19T07:14:27Z</time>
      </trkpt>
      <trkpt lat="43.4419500" lon="-4.9045930">
        <ele>12.0</ele>
        <time>2021-07-19T07:14:28Z</time>
      </trkpt>
      <trkpt lat="43.4418460" lon="-4.9045260">
        <ele>12.0</ele>
        <time>2021-07-19T07:14:31Z</time>
      </trkpt>
      <trkpt lat="43.4417590" lon="-4.9044700">
        <ele>12.0</ele>
        <time>2021-07-19T07:14:34Z</time>
      </trkpt>
      <trkpt lat="43.4417030" lon="-4.9044410">
        <ele>12.4</ele>
        <time>2021-07-19T07:14:36Z</time>
      </trkpt>
      <trkpt lat="43.4416750" lon="-4.9044230">
        <ele>12.8</ele>
        <time>2021-07-19T07:14:37Z</time>
      </trkpt>
      <trkpt lat="43.4416460" lon="-4.9044050">
        <ele>13.2</ele>
        <time>2021-07-19T07:14:38Z</time>
      </trkpt>
      <trkpt lat="43.4416160" lon="-4.9043900">
        <ele>13.6</ele>
        <time>2021-07-19T07:14:39Z</time>
      </trkpt>
      <trkpt lat="43.4415940" lon="-4.9043680">
        <ele>14.0</ele>
        <time>2021-07-19T07:14:40Z</time>
      </trkpt>
      <trkpt lat="43.4415470" lon="-4.9043280">
        <ele>14.0</ele>
        <time>2021-07-19T07:14:42Z</time>
      </trkpt>
      <trkpt lat="43.4415040" lon="-4.9042880">
        <ele>14.0</ele>
        <time>2021-07-19T07:14:44Z</time>
      </trkpt>
      <trkpt lat="43.4414770" lon="-4.9042640">
        <ele>14.0</ele>
        <time>2021-07-19T07:14:45Z</time>
      </trkpt>
      <trkpt lat="43.4414190" lon="-4.9042220">
        <ele>14.0</ele>
        <time>2021-07-19T07:14:47Z</time>
      </trkpt>
      <trkpt lat="43.4413860" lon="-4.9042170">
        <ele>14.4</ele>
        <time>2021-07-19T07:14:48Z</time>
      </trkpt>
      <trkpt lat="43.4413500" lon="-4.9042120">
        <ele>14.8</ele>
        <time>2021-07-19T07:14:49Z</time>
      </trkpt>
      <trkpt lat="43.4413150" lon="-4.9042100">
        <ele>15.2</ele>
        <time>2021-07-19T07:14:50Z</time>
      </trkpt>
      <trkpt lat="43.4412810" lon="-4.9042120">
        <ele>15.6</ele>
        <time>2021-07-19T07:14:51Z</time>
      </trkpt>
      <trkpt lat="43.4412480" lon="-4.9042140">
        <ele>16.0</ele>
        <time>2021-07-19T07:14:52Z</time>
      </trkpt>
      <trkpt lat="43.4410910" lon="-4.9042340">
        <ele>16.0</ele>
        <time>2021-07-19T07:14:57Z</time>
      </trkpt>
      <trkpt lat="43.4408890" lon="-4.9042380">
        <ele>16.0</ele>
        <time>2021-07-19T07:15:03Z</time>
      </trkpt>
      <trkpt lat="43.4408520" lon="-4.9042390">
        <ele>16.4</ele>
        <time>2021-07-19T07:15:04Z</time>
      </trkpt>
      <trkpt lat="43.4408140" lon="-4.9042390">
        <ele>16.8</ele>
        <time>2021-07-19T07:15:05Z</time>
      </trkpt>
      <trkpt lat="43.4407780" lon="-4.9042370">
        <ele>17.2</ele>
        <time>2021-07-19T07:15:06Z</time>
      </trkpt>
      <trkpt lat="43.4407440" lon="-4.9042360">
        <ele>17.6</ele>
        <time>2021-07-19T07:15:07Z</time>
      </trkpt>
      <trkpt lat="43.4407150" lon="-4.9042350">
        <ele>18.0</ele>
        <time>2021-07-19T07:15:08Z</time>
      </trkpt>
      <trkpt lat="43.4406200" lon="-4.9042290">
        <ele>18.0</ele>
        <time>2021-07-19T07:15:11Z</time>
      </trkpt>
      <trkpt lat="43.4404110" lon="-4.9042290">
        <ele>18.0</ele>
        <time>2021-07-19T07:15:18Z</time>
      </trkpt>
      <trkpt lat="43.4402950" lon="-4.9042290">
        <ele>18.4</ele>
        <time>2021-07-19T07:15:22Z</time>
      </trkpt>
      <trkpt lat="43.4402650" lon="-4.9042300">
        <ele>19.0</ele>
        <time>2021-07-19T07:15:23Z</time>
      </trkpt>
      <trkpt lat="43.4402340" lon="-4.9042230">
        <ele>19.4</ele>
        <time>2021-07-19T07:15:24Z</time>
      </trkpt>
      <trkpt lat="43.4402030" lon="-4.9042200">
        <ele>20.2</ele>
        <time>2021-07-19T07:15:25Z</time>
      </trkpt>
      <trkpt lat="43.4400360" lon="-4.9042530">
        <ele>20.2</ele>
        <time>2021-07-19T07:15:31Z</time>
      </trkpt>
      <trkpt lat="43.4399140" lon="-4.9043160">
        <ele>20.6</ele>
        <time>2021-07-19T07:15:36Z</time>
      </trkpt>
      <trkpt lat="43.4398950" lon="-4.9043220">
        <ele>21.0</ele>
        <time>2021-07-19T07:15:37Z</time>
      </trkpt>
      <trkpt lat="43.4398780" lon="-4.9043290">
        <ele>21.4</ele>
        <time>2021-07-19T07:15:38Z</time>
      </trkpt>
      <trkpt lat="43.4398490" lon="-4.9043420">
        <ele>21.8</ele>
        <time>2021-07-19T07:15:39Z</time>
      </trkpt>
      <trkpt lat="43.4398210" lon="-4.9043570">
        <ele>22.2</ele>
        <time>2021-07-19T07:15:40Z</time>
      </trkpt>
      <trkpt lat="43.4397410" lon="-4.9044020">
        <ele>22.2</ele>
        <time>2021-07-19T07:15:43Z</time>
      </trkpt>
      <trkpt lat="43.4395630" lon="-4.9045170">
        <ele>22.6</ele>
        <time>2021-07-19T07:15:50Z</time>
      </trkpt>
      <trkpt lat="43.4395380" lon="-4.9045330">
        <ele>23.0</ele>
        <time>2021-07-19T07:15:51Z</time>
      </trkpt>
      <trkpt lat="43.4395140" lon="-4.9045380">
        <ele>23.6</ele>
        <time>2021-07-19T07:15:52Z</time>
      </trkpt>
      <trkpt lat="43.4394920" lon="-4.9045510">
        <ele>24.0</ele>
        <time>2021-07-19T07:15:53Z</time>
      </trkpt>
      <trkpt lat="43.4394660" lon="-4.9045640">
        <ele>24.4</ele>
        <time>2021-07-19T07:15:54Z</time>
      </trkpt>
      <trkpt lat="43.4394130" lon="-4.9046000">
        <ele>24.4</ele>
        <time>2021-07-19T07:15:56Z</time>
      </trkpt>
      <trkpt lat="43.4393120" lon="-4.9045970">
        <ele>24.4</ele>
        <time>2021-07-19T07:16:00Z</time>
      </trkpt>
      <trkpt lat="43.4391940" lon="-4.9045190">
        <ele>24.4</ele>
        <time>2021-07-19T07:16:06Z</time>
      </trkpt>
      <trkpt lat="43.4391090" lon="-4.9044850">
        <ele>24.4</ele>
        <time>2021-07-19T07:16:11Z</time>
      </trkpt>
      <trkpt lat="43.4390920" lon="-4.9045100">
        <ele>24.4</ele>
        <time>2021-07-19T07:16:13Z</time>
      </trkpt>
      <trkpt lat="43.4390780" lon="-4.9045610">
        <ele>24.4</ele>
        <time>2021-07-19T07:16:15Z</time>
      </trkpt>
      <trkpt lat="43.4390710" lon="-4.9045880">
        <ele>24.8</ele>
        <time>2021-07-19T07:16:16Z</time>
      </trkpt>
      <trkpt lat="43.4390630" lon="-4.9046140">
        <ele>25.2</ele>
        <time>2021-07-19T07:16:17Z</time>
      </trkpt>
      <trkpt lat="43.4390520" lon="-4.9046400">
        <ele>25.6</ele>
        <time>2021-07-19T07:16:18Z</time>
      </trkpt>
      <trkpt lat="43.4390320" lon="-4.9046740">
        <ele>26.0</ele>
        <time>2021-07-19T07:16:19Z</time>
      </trkpt>
      <trkpt lat="43.4390100" lon="-4.9047090">
        <ele>26.4</ele>
        <time>2021-07-19T07:16:20Z</time>
      </trkpt>
      <trkpt lat="43.4389470" lon="-4.9049170">
        <ele>26.4</ele>
        <time>2021-07-19T07:16:26Z</time>
      </trkpt>
      <trkpt lat="43.4389270" lon="-4.9051120">
        <ele>26.4</ele>
        <time>2021-07-19T07:16:33Z</time>
      </trkpt>
      <trkpt lat="43.4389160" lon="-4.9051270">
        <ele>26.4</ele>
        <time>2021-07-19T07:16:34Z</time>
      </trkpt>
      <trkpt lat="43.4389270" lon="-4.9051500">
        <ele>26.4</ele>
        <time>2021-07-19T07:16:37Z</time>
      </trkpt>
      <trkpt lat="43.4389210" lon="-4.9051100">
        <ele>26.4</ele>
        <time>2021-07-19T07:16:43Z</time>
      </trkpt>
      <trkpt lat="43.4389130" lon="-4.9050190">
        <ele>26.4</ele>
        <time>2021-07-19T07:16:46Z</time>
      </trkpt>
      <trkpt lat="43.4388520" lon="-4.9047630">
        <ele>26.4</ele>
        <time>2021-07-19T07:16:52Z</time>
      </trkpt>
      <trkpt lat="43.4388000" lon="-4.9045920">
        <ele>26.4</ele>
        <time>2021-07-19T07:16:56Z</time>
      </trkpt>
      <trkpt lat="43.4387490" lon="-4.9044390">
        <ele>26.4</ele>
        <time>2021-07-19T07:17:00Z</time>
      </trkpt>
      <trkpt lat="43.4386630" lon="-4.9042140">
        <ele>26.4</ele>
        <time>2021-07-19T07:17:06Z</time>
      </trkpt>
      <trkpt lat="43.4386560" lon="-4.9041820">
        <ele>26.4</ele>
        <time>2021-07-19T07:17:07Z</time>
      </trkpt>
      <trkpt lat="43.4386610" lon="-4.9041500">
        <ele>26.4</ele>
        <time>2021-07-19T07:17:08Z</time>
      </trkpt>
      <trkpt lat="43.4386570" lon="-4.9041060">
        <ele>26.4</ele>
        <time>2021-07-19T07:17:10Z</time>
      </trkpt>
      <trkpt lat="43.4386450" lon="-4.9041330">
        <ele>26.4</ele>
        <time>2021-07-19T07:17:14Z</time>
      </trkpt>
      <trkpt lat="43.4386690" lon="-4.9042160">
        <ele>26.4</ele>
        <time>2021-07-19T07:17:17Z</time>
      </trkpt>
      <trkpt lat="43.4387020" lon="-4.9042900">
        <ele>26.4</ele>
        <time>2021-07-19T07:17:19Z</time>
      </trkpt>
      <trkpt lat="43.4387250" lon="-4.9043680">
        <ele>26.4</ele>
        <time>2021-07-19T07:17:21Z</time>
      </trkpt>
      <trkpt lat="43.4387790" lon="-4.9044770">
        <ele>26.4</ele>
        <time>2021-07-19T07:17:24Z</time>
      </trkpt>
      <trkpt lat="43.4388580" lon="-4.9047430">
        <ele>26.4</ele>
        <time>2021-07-19T07:17:30Z</time>
      </trkpt>
      <trkpt lat="43.4388880" lon="-4.9048980">
        <ele>26.4</ele>
        <time>2021-07-19T07:17:33Z</time>
      </trkpt>
      <trkpt lat="43.4388990" lon="-4.9050950">
        <ele>26.4</ele>
        <time>2021-07-19T07:17:37Z</time>
      </trkpt>
      <trkpt lat="43.4388940" lon="-4.9052090">
        <ele>26.4</ele>
        <time>2021-07-19T07:17:40Z</time>
      </trkpt>
      <trkpt lat="43.4388930" lon="-4.9052920">
        <ele>26.4</ele>
        <time>2021-07-19T07:17:42Z</time>
      </trkpt>
      <trkpt lat="43.4388930" lon="-4.9053330">
        <ele>26.8</ele>
        <time>2021-07-19T07:17:43Z</time>
      </trkpt>
      <trkpt lat="43.4388920" lon="-4.9053730">
        <ele>27.2</ele>
        <time>2021-07-19T07:17:44Z</time>
      </trkpt>
      <trkpt lat="43.4388880" lon="-4.9054160">
        <ele>27.6</ele>
        <time>2021-07-19T07:17:45Z</time>
      </trkpt>
      <trkpt lat="43.4388840" lon="-4.9054600">
        <ele>28.0</ele>
        <time>2021-07-19T07:17:46Z</time>
      </trkpt>
      <trkpt lat="43.4388820" lon="-4.9055020">
        <ele>28.4</ele>
        <time>2021-07-19T07:17:47Z</time>
      </trkpt>
      <trkpt lat="43.4388740" lon="-4.9056330">
        <ele>28.4</ele>
        <time>2021-07-19T07:17:50Z</time>
      </trkpt>
      <trkpt lat="43.4388690" lon="-4.9056810">
        <ele>28.4</ele>
        <time>2021-07-19T07:17:51Z</time>
      </trkpt>
      <trkpt lat="43.4388610" lon="-4.9058290">
        <ele>28.4</ele>
        <time>2021-07-19T07:17:54Z</time>
      </trkpt>
      <trkpt lat="43.4388550" lon="-4.9059970">
        <ele>28.4</ele>
        <time>2021-07-19T07:17:58Z</time>
      </trkpt>
      <trkpt lat="43.4388560" lon="-4.9060710">
        <ele>28.8</ele>
        <time>2021-07-19T07:18:00Z</time>
      </trkpt>
      <trkpt lat="43.4388540" lon="-4.9061120">
        <ele>29.4</ele>
        <time>2021-07-19T07:18:01Z</time>
      </trkpt>
      <trkpt lat="43.4388460" lon="-4.9061500">
        <ele>29.8</ele>
        <time>2021-07-19T07:18:02Z</time>
      </trkpt>
      <trkpt lat="43.4388420" lon="-4.9061880">
        <ele>30.2</ele>
        <time>2021-07-19T07:18:03Z</time>
      </trkpt>
      <trkpt lat="43.4388430" lon="-4.9062240">
        <ele>30.6</ele>
        <time>2021-07-19T07:18:04Z</time>
      </trkpt>
      <trkpt lat="43.4388370" lon="-4.9064700">
        <ele>30.6</ele>
        <time>2021-07-19T07:18:10Z</time>
      </trkpt>
      <trkpt lat="43.4388700" lon="-4.9066900">
        <ele>30.6</ele>
        <time>2021-07-19T07:18:14Z</time>
      </trkpt>
      <trkpt lat="43.4388750" lon="-4.9068030">
        <ele>30.6</ele>
        <time>2021-07-19T07:18:16Z</time>
      </trkpt>
      <trkpt lat="43.4389080" lon="-4.9069550">
        <ele>30.6</ele>
        <time>2021-07-19T07:18:19Z</time>
      </trkpt>
      <trkpt lat="43.4389280" lon="-4.9070550">
        <ele>30.6</ele>
        <time>2021-07-19T07:18:21Z</time>
      </trkpt>
      <trkpt lat="43.4389400" lon="-4.9071000">
        <ele>30.6</ele>
        <time>2021-07-19T07:18:22Z</time>
      </trkpt>
      <trkpt lat="43.4389540" lon="-4.9072350">
        <ele>30.6</ele>
        <time>2021-07-19T07:18:25Z</time>
      </trkpt>
      <trkpt lat="43.4389550" lon="-4.9073250">
        <ele>30.6</ele>
        <time>2021-07-19T07:18:27Z</time>
      </trkpt>
      <trkpt lat="43.4390200" lon="-4.9076920">
        <ele>30.6</ele>
        <time>2021-07-19T07:18:34Z</time>
      </trkpt>
      <trkpt lat="43.4391120" lon="-4.9081010">
        <ele>30.6</ele>
        <time>2021-07-19T07:18:41Z</time>
      </trkpt>
      <trkpt lat="43.4391190" lon="-4.9082060">
        <ele>30.6</ele>
        <time>2021-07-19T07:18:43Z</time>
      </trkpt>
      <trkpt lat="43.4391110" lon="-4.9083880">
        <ele>30.6</ele>
        <time>2021-07-19T07:18:46Z</time>
      </trkpt>
      <trkpt lat="43.4391020" lon="-4.9085150">
        <ele>30.6</ele>
        <time>2021-07-19T07:18:48Z</time>
      </trkpt>
      <trkpt lat="43.4391030" lon="-4.9086270">
        <ele>30.6</ele>
        <time>2021-07-19T07:18:50Z</time>
      </trkpt>
      <trkpt lat="43.4390910" lon="-4.9088430">
        <ele>30.6</ele>
        <time>2021-07-19T07:18:54Z</time>
      </trkpt>
      <trkpt lat="43.4390840" lon="-4.9089510">
        <ele>30.2</ele>
        <time>2021-07-19T07:18:56Z</time>
      </trkpt>
      <trkpt lat="43.4390760" lon="-4.9089940">
        <ele>29.8</ele>
        <time>2021-07-19T07:18:57Z</time>
      </trkpt>
      <trkpt lat="43.4390650" lon="-4.9090390">
        <ele>29.4</ele>
        <time>2021-07-19T07:18:58Z</time>
      </trkpt>
      <trkpt lat="43.4390460" lon="-4.9090920">
        <ele>28.8</ele>
        <time>2021-07-19T07:18:59Z</time>
      </trkpt>
      <trkpt lat="43.4390200" lon="-4.9091480">
        <ele>28.4</ele>
        <time>2021-07-19T07:19:00Z</time>
      </trkpt>
      <trkpt lat="43.4389890" lon="-4.9091900">
        <ele>28.4</ele>
        <time>2021-07-19T07:19:01Z</time>
      </trkpt>
      <trkpt lat="43.4389140" lon="-4.9092850">
        <ele>28.4</ele>
        <time>2021-07-19T07:19:03Z</time>
      </trkpt>
      <trkpt lat="43.4388740" lon="-4.9093240">
        <ele>28.4</ele>
        <time>2021-07-19T07:19:04Z</time>
      </trkpt>
      <trkpt lat="43.4388030" lon="-4.9094120">
        <ele>28.4</ele>
        <time>2021-07-19T07:19:06Z</time>
      </trkpt>
      <trkpt lat="43.4387360" lon="-4.9094980">
        <ele>28.4</ele>
        <time>2021-07-19T07:19:08Z</time>
      </trkpt>
      <trkpt lat="43.4386860" lon="-4.9095870">
        <ele>28.4</ele>
        <time>2021-07-19T07:19:10Z</time>
      </trkpt>
      <trkpt lat="43.4385290" lon="-4.9098490">
        <ele>28.4</ele>
        <time>2021-07-19T07:19:15Z</time>
      </trkpt>
      <trkpt lat="43.4384960" lon="-4.9099040">
        <ele>28.4</ele>
        <time>2021-07-19T07:19:16Z</time>
      </trkpt>
      <trkpt lat="43.4384080" lon="-4.9100580">
        <ele>28.4</ele>
        <time>2021-07-19T07:19:19Z</time>
      </trkpt>
      <trkpt lat="43.4383830" lon="-4.9101150">
        <ele>28.4</ele>
        <time>2021-07-19T07:19:20Z</time>
      </trkpt>
      <trkpt lat="43.4383350" lon="-4.9102130">
        <ele>28.4</ele>
        <time>2021-07-19T07:19:22Z</time>
      </trkpt>
      <trkpt lat="43.4383010" lon="-4.9103130">
        <ele>28.4</ele>
        <time>2021-07-19T07:19:24Z</time>
      </trkpt>
      <trkpt lat="43.4382500" lon="-4.9104420">
        <ele>28.4</ele>
        <time>2021-07-19T07:19:27Z</time>
      </trkpt>
      <trkpt lat="43.4382130" lon="-4.9105200">
        <ele>28.4</ele>
        <time>2021-07-19T07:19:29Z</time>
      </trkpt>
      <trkpt lat="43.4381590" lon="-4.9106350">
        <ele>28.4</ele>
        <time>2021-07-19T07:19:32Z</time>
      </trkpt>
      <trkpt lat="43.4381240" lon="-4.9106980">
        <ele>28.4</ele>
        <time>2021-07-19T07:19:34Z</time>
      </trkpt>
      <trkpt lat="43.4380770" lon="-4.9108050">
        <ele>28.4</ele>
        <time>2021-07-19T07:19:37Z</time>
      </trkpt>
      <trkpt lat="43.4380470" lon="-4.9108630">
        <ele>28.4</ele>
        <time>2021-07-19T07:19:39Z</time>
      </trkpt>
      <trkpt lat="43.4380310" lon="-4.9108940">
        <ele>28.4</ele>
        <time>2021-07-19T07:19:40Z</time>
      </trkpt>
      <trkpt lat="43.4380060" lon="-4.9109590">
        <ele>28.4</ele>
        <time>2021-07-19T07:19:42Z</time>
      </trkpt>
      <trkpt lat="43.4379520" lon="-4.9110670">
        <ele>29.0</ele>
        <time>2021-07-19T07:19:46Z</time>
      </trkpt>
      <trkpt lat="43.4379390" lon="-4.9110950">
        <ele>29.4</ele>
        <time>2021-07-19T07:19:47Z</time>
      </trkpt>
      <trkpt lat="43.4379280" lon="-4.9111250">
        <ele>29.8</ele>
        <time>2021-07-19T07:19:48Z</time>
      </trkpt>
      <trkpt lat="43.4379130" lon="-4.9111580">
        <ele>30.2</ele>
        <time>2021-07-19T07:19:49Z</time>
      </trkpt>
      <trkpt lat="43.4378990" lon="-4.9111870">
        <ele>30.6</ele>
        <time>2021-07-19T07:19:50Z</time>
      </trkpt>
      <trkpt lat="43.4378630" lon="-4.9112860">
        <ele>30.6</ele>
        <time>2021-07-19T07:19:53Z</time>
      </trkpt>
      <trkpt lat="43.4378410" lon="-4.9113570">
        <ele>30.6</ele>
        <time>2021-07-19T07:19:55Z</time>
      </trkpt>
      <trkpt lat="43.4377820" lon="-4.9115200">
        <ele>30.6</ele>
        <time>2021-07-19T07:20:00Z</time>
      </trkpt>
      <trkpt lat="43.4377740" lon="-4.9115550">
        <ele>31.0</ele>
        <time>2021-07-19T07:20:01Z</time>
      </trkpt>
      <trkpt lat="43.4377640" lon="-4.9115880">
        <ele>31.4</ele>
        <time>2021-07-19T07:20:02Z</time>
      </trkpt>
      <trkpt lat="43.4377530" lon="-4.9116250">
        <ele>31.8</ele>
        <time>2021-07-19T07:20:03Z</time>
      </trkpt>
      <trkpt lat="43.4377450" lon="-4.9116580">
        <ele>32.2</ele>
        <time>2021-07-19T07:20:04Z</time>
      </trkpt>
      <trkpt lat="43.4377320" lon="-4.9117000">
        <ele>32.6</ele>
        <time>2021-07-19T07:20:05Z</time>
      </trkpt>
      <trkpt lat="43.4377030" lon="-4.9117960">
        <ele>32.6</ele>
        <time>2021-07-19T07:20:08Z</time>
      </trkpt>
      <trkpt lat="43.4376440" lon="-4.9119420">
        <ele>32.6</ele>
        <time>2021-07-19T07:20:13Z</time>
      </trkpt>
      <trkpt lat="43.4376290" lon="-4.9119680">
        <ele>33.0</ele>
        <time>2021-07-19T07:20:14Z</time>
      </trkpt>
      <trkpt lat="43.4376200" lon="-4.9119990">
        <ele>33.4</ele>
        <time>2021-07-19T07:20:15Z</time>
      </trkpt>
      <trkpt lat="43.4376090" lon="-4.9120310">
        <ele>33.8</ele>
        <time>2021-07-19T07:20:16Z</time>
      </trkpt>
      <trkpt lat="43.4375990" lon="-4.9120580">
        <ele>34.2</ele>
        <time>2021-07-19T07:20:17Z</time>
      </trkpt>
      <trkpt lat="43.4375900" lon="-4.9120880">
        <ele>34.6</ele>
        <time>2021-07-19T07:20:18Z</time>
      </trkpt>
      <trkpt lat="43.4375830" lon="-4.9121160">
        <ele>34.6</ele>
        <time>2021-07-19T07:20:19Z</time>
      </trkpt>
      <trkpt lat="43.4375090" lon="-4.9123130">
        <ele>35.2</ele>
        <time>2021-07-19T07:20:26Z</time>
      </trkpt>
      <trkpt lat="43.4374970" lon="-4.9123460">
        <ele>35.6</ele>
        <time>2021-07-19T07:20:27Z</time>
      </trkpt>
      <trkpt lat="43.4374850" lon="-4.9123760">
        <ele>36.0</ele>
        <time>2021-07-19T07:20:28Z</time>
      </trkpt>
      <trkpt lat="43.4374730" lon="-4.9124070">
        <ele>36.4</ele>
        <time>2021-07-19T07:20:29Z</time>
      </trkpt>
      <trkpt lat="43.4374610" lon="-4.9124360">
        <ele>36.8</ele>
        <time>2021-07-19T07:20:30Z</time>
      </trkpt>
      <trkpt lat="43.4373880" lon="-4.9126050">
        <ele>36.8</ele>
        <time>2021-07-19T07:20:36Z</time>
      </trkpt>
      <trkpt lat="43.4373400" lon="-4.9127610">
        <ele>37.2</ele>
        <time>2021-07-19T07:20:42Z</time>
      </trkpt>
      <trkpt lat="43.4373320" lon="-4.9127850">
        <ele>37.6</ele>
        <time>2021-07-19T07:20:43Z</time>
      </trkpt>
      <trkpt lat="43.4373210" lon="-4.9128090">
        <ele>38.0</ele>
        <time>2021-07-19T07:20:44Z</time>
      </trkpt>
      <trkpt lat="43.4373090" lon="-4.9128350">
        <ele>38.4</ele>
        <time>2021-07-19T07:20:45Z</time>
      </trkpt>
      <trkpt lat="43.4372980" lon="-4.9128590">
        <ele>38.8</ele>
        <time>2021-07-19T07:20:46Z</time>
      </trkpt>
      <trkpt lat="43.4372720" lon="-4.9129290">
        <ele>38.8</ele>
        <time>2021-07-19T07:20:49Z</time>
      </trkpt>
      <trkpt lat="43.4372000" lon="-4.9130990">
        <ele>39.2</ele>
        <time>2021-07-19T07:20:55Z</time>
      </trkpt>
      <trkpt lat="43.4371880" lon="-4.9131260">
        <ele>39.6</ele>
        <time>2021-07-19T07:20:56Z</time>
      </trkpt>
      <trkpt lat="43.4371720" lon="-4.9131570">
        <ele>40.0</ele>
        <time>2021-07-19T07:20:57Z</time>
      </trkpt>
      <trkpt lat="43.4371550" lon="-4.9131910">
        <ele>40.4</ele>
        <time>2021-07-19T07:20:58Z</time>
      </trkpt>
      <trkpt lat="43.4371470" lon="-4.9132240">
        <ele>40.8</ele>
        <time>2021-07-19T07:20:59Z</time>
      </trkpt>
      <trkpt lat="43.4371090" lon="-4.9133170">
        <ele>40.8</ele>
        <time>2021-07-19T07:21:02Z</time>
      </trkpt>
      <trkpt lat="43.4370330" lon="-4.9135100">
        <ele>41.2</ele>
        <time>2021-07-19T07:21:08Z</time>
      </trkpt>
      <trkpt lat="43.4370240" lon="-4.9135410">
        <ele>41.6</ele>
        <time>2021-07-19T07:21:09Z</time>
      </trkpt>
      <trkpt lat="43.4370090" lon="-4.9135720">
        <ele>42.0</ele>
        <time>2021-07-19T07:21:10Z</time>
      </trkpt>
      <trkpt lat="43.4369970" lon="-4.9136010">
        <ele>42.8</ele>
        <time>2021-07-19T07:21:11Z</time>
      </trkpt>
      <trkpt lat="43.4368930" lon="-4.9138420">
        <ele>42.8</ele>
        <time>2021-07-19T07:21:19Z</time>
      </trkpt>
      <trkpt lat="43.4368320" lon="-4.9139870">
        <ele>43.2</ele>
        <time>2021-07-19T07:21:24Z</time>
      </trkpt>
      <trkpt lat="43.4368180" lon="-4.9140170">
        <ele>43.6</ele>
        <time>2021-07-19T07:21:25Z</time>
      </trkpt>
      <trkpt lat="43.4368020" lon="-4.9140460">
        <ele>44.0</ele>
        <time>2021-07-19T07:21:26Z</time>
      </trkpt>
      <trkpt lat="43.4367820" lon="-4.9140760">
        <ele>44.4</ele>
        <time>2021-07-19T07:21:27Z</time>
      </trkpt>
      <trkpt lat="43.4367670" lon="-4.9141130">
        <ele>44.8</ele>
        <time>2021-07-19T07:21:28Z</time>
      </trkpt>
      <trkpt lat="43.4367020" lon="-4.9142490">
        <ele>44.8</ele>
        <time>2021-07-19T07:21:32Z</time>
      </trkpt>
      <trkpt lat="43.4365700" lon="-4.9144890">
        <ele>44.8</ele>
        <time>2021-07-19T07:21:39Z</time>
      </trkpt>
      <trkpt lat="43.4365330" lon="-4.9145690">
        <ele>44.8</ele>
        <time>2021-07-19T07:21:41Z</time>
      </trkpt>
      <trkpt lat="43.4364860" lon="-4.9146950">
        <ele>44.8</ele>
        <time>2021-07-19T07:21:44Z</time>
      </trkpt>
      <trkpt lat="43.4364530" lon="-4.9147700">
        <ele>44.8</ele>
        <time>2021-07-19T07:21:46Z</time>
      </trkpt>
      <trkpt lat="43.4364180" lon="-4.9149010">
        <ele>44.8</ele>
        <time>2021-07-19T07:21:49Z</time>
      </trkpt>
      <trkpt lat="43.4363830" lon="-4.9149930">
        <ele>44.8</ele>
        <time>2021-07-19T07:21:51Z</time>
      </trkpt>
      <trkpt lat="43.4363630" lon="-4.9150350">
        <ele>44.8</ele>
        <time>2021-07-19T07:21:52Z</time>
      </trkpt>
      <trkpt lat="43.4362820" lon="-4.9153820">
        <ele>44.8</ele>
        <time>2021-07-19T07:21:58Z</time>
      </trkpt>
      <trkpt lat="43.4362030" lon="-4.9157500">
        <ele>44.8</ele>
        <time>2021-07-19T07:22:04Z</time>
      </trkpt>
      <trkpt lat="43.4361790" lon="-4.9158860">
        <ele>44.8</ele>
        <time>2021-07-19T07:22:06Z</time>
      </trkpt>
      <trkpt lat="43.4361540" lon="-4.9160440">
        <ele>44.8</ele>
        <time>2021-07-19T07:22:09Z</time>
      </trkpt>
      <trkpt lat="43.4361480" lon="-4.9161640">
        <ele>44.8</ele>
        <time>2021-07-19T07:22:11Z</time>
      </trkpt>
      <trkpt lat="43.4361470" lon="-4.9162870">
        <ele>44.4</ele>
        <time>2021-07-19T07:22:13Z</time>
      </trkpt>
      <trkpt lat="43.4361450" lon="-4.9163440">
        <ele>44.0</ele>
        <time>2021-07-19T07:22:14Z</time>
      </trkpt>
      <trkpt lat="43.4361440" lon="-4.9163980">
        <ele>43.6</ele>
        <time>2021-07-19T07:22:15Z</time>
      </trkpt>
      <trkpt lat="43.4361420" lon="-4.9164520">
        <ele>43.2</ele>
        <time>2021-07-19T07:22:16Z</time>
      </trkpt>
      <trkpt lat="43.4361400" lon="-4.9165060">
        <ele>42.8</ele>
        <time>2021-07-19T07:22:17Z</time>
      </trkpt>
      <trkpt lat="43.4361370" lon="-4.9166760">
        <ele>42.8</ele>
        <time>2021-07-19T07:22:20Z</time>
      </trkpt>
      <trkpt lat="43.4361280" lon="-4.9169660">
        <ele>42.8</ele>
        <time>2021-07-19T07:22:25Z</time>
      </trkpt>
      <trkpt lat="43.4361090" lon="-4.9171900">
        <ele>42.8</ele>
        <time>2021-07-19T07:22:29Z</time>
      </trkpt>
      <trkpt lat="43.4360930" lon="-4.9174720">
        <ele>42.8</ele>
        <time>2021-07-19T07:22:34Z</time>
      </trkpt>
      <trkpt lat="43.4360870" lon="-4.9175910">
        <ele>42.8</ele>
        <time>2021-07-19T07:22:36Z</time>
      </trkpt>
      <trkpt lat="43.4360740" lon="-4.9177990">
        <ele>42.8</ele>
        <time>2021-07-19T07:22:40Z</time>
      </trkpt>
      <trkpt lat="43.4360720" lon="-4.9179010">
        <ele>42.8</ele>
        <time>2021-07-19T07:22:42Z</time>
      </trkpt>
      <trkpt lat="43.4360610" lon="-4.9181470">
        <ele>42.8</ele>
        <time>2021-07-19T07:22:47Z</time>
      </trkpt>
      <trkpt lat="43.4360560" lon="-4.9182810">
        <ele>42.8</ele>
        <time>2021-07-19T07:22:50Z</time>
      </trkpt>
      <trkpt lat="43.4360500" lon="-4.9184610">
        <ele>42.8</ele>
        <time>2021-07-19T07:22:54Z</time>
      </trkpt>
      <trkpt lat="43.4360470" lon="-4.9185780">
        <ele>42.8</ele>
        <time>2021-07-19T07:22:57Z</time>
      </trkpt>
      <trkpt lat="43.4360420" lon="-4.9186570">
        <ele>43.2</ele>
        <time>2021-07-19T07:22:59Z</time>
      </trkpt>
      <trkpt lat="43.4360430" lon="-4.9186940">
        <ele>43.6</ele>
        <time>2021-07-19T07:23:00Z</time>
      </trkpt>
      <trkpt lat="43.4360450" lon="-4.9187320">
        <ele>44.0</ele>
        <time>2021-07-19T07:23:01Z</time>
      </trkpt>
      <trkpt lat="43.4360420" lon="-4.9187690">
        <ele>45.0</ele>
        <time>2021-07-19T07:23:02Z</time>
      </trkpt>
      <trkpt lat="43.4360350" lon="-4.9188410">
        <ele>45.0</ele>
        <time>2021-07-19T07:23:04Z</time>
      </trkpt>
      <trkpt lat="43.4360300" lon="-4.9189920">
        <ele>45.0</ele>
        <time>2021-07-19T07:23:08Z</time>
      </trkpt>
      <trkpt lat="43.4360230" lon="-4.9191380">
        <ele>45.0</ele>
        <time>2021-07-19T07:23:12Z</time>
      </trkpt>
      <trkpt lat="43.4360210" lon="-4.9192570">
        <ele>45.4</ele>
        <time>2021-07-19T07:23:15Z</time>
      </trkpt>
      <trkpt lat="43.4360280" lon="-4.9192970">
        <ele>45.8</ele>
        <time>2021-07-19T07:23:16Z</time>
      </trkpt>
      <trkpt lat="43.4360330" lon="-4.9193370">
        <ele>46.2</ele>
        <time>2021-07-19T07:23:17Z</time>
      </trkpt>
      <trkpt lat="43.4360360" lon="-4.9193740">
        <ele>46.6</ele>
        <time>2021-07-19T07:23:18Z</time>
      </trkpt>
      <trkpt lat="43.4360420" lon="-4.9194140">
        <ele>47.0</ele>
        <time>2021-07-19T07:23:19Z</time>
      </trkpt>
      <trkpt lat="43.4360740" lon="-4.9197580">
        <ele>47.0</ele>
        <time>2021-07-19T07:23:28Z</time>
      </trkpt>
      <trkpt lat="43.4360790" lon="-4.9198340">
        <ele>47.4</ele>
        <time>2021-07-19T07:23:30Z</time>
      </trkpt>
      <trkpt lat="43.4360840" lon="-4.9198720">
        <ele>47.8</ele>
        <time>2021-07-19T07:23:31Z</time>
      </trkpt>
      <trkpt lat="43.4360890" lon="-4.9199090">
        <ele>48.2</ele>
        <time>2021-07-19T07:23:32Z</time>
      </trkpt>
      <trkpt lat="43.4360910" lon="-4.9199480">
        <ele>48.6</ele>
        <time>2021-07-19T07:23:33Z</time>
      </trkpt>
      <trkpt lat="43.4360950" lon="-4.9199850">
        <ele>49.0</ele>
        <time>2021-07-19T07:23:34Z</time>
      </trkpt>
      <trkpt lat="43.4361080" lon="-4.9202900">
        <ele>49.0</ele>
        <time>2021-07-19T07:23:40Z</time>
      </trkpt>
      <trkpt lat="43.4361160" lon="-4.9204120">
        <ele>49.0</ele>
        <time>2021-07-19T07:23:42Z</time>
      </trkpt>
      <trkpt lat="43.4361230" lon="-4.9205350">
        <ele>49.0</ele>
        <time>2021-07-19T07:23:44Z</time>
      </trkpt>
      <trkpt lat="43.4361160" lon="-4.9207340">
        <ele>49.0</ele>
        <time>2021-07-19T07:23:47Z</time>
      </trkpt>
      <trkpt lat="43.4361060" lon="-4.9208100">
        <ele>49.0</ele>
        <time>2021-07-19T07:23:48Z</time>
      </trkpt>
      <trkpt lat="43.4360480" lon="-4.9211650">
        <ele>48.6</ele>
        <time>2021-07-19T07:23:52Z</time>
      </trkpt>
      <trkpt lat="43.4360370" lon="-4.9212540">
        <ele>48.2</ele>
        <time>2021-07-19T07:23:53Z</time>
      </trkpt>
      <trkpt lat="43.4360250" lon="-4.9213410">
        <ele>47.6</ele>
        <time>2021-07-19T07:23:54Z</time>
      </trkpt>
      <trkpt lat="43.4360100" lon="-4.9214290">
        <ele>47.2</ele>
        <time>2021-07-19T07:23:55Z</time>
      </trkpt>
      <trkpt lat="43.4359990" lon="-4.9215140">
        <ele>46.8</ele>
        <time>2021-07-19T07:23:56Z</time>
      </trkpt>
      <trkpt lat="43.4359840" lon="-4.9216000">
        <ele>46.4</ele>
        <time>2021-07-19T07:23:57Z</time>
      </trkpt>
      <trkpt lat="43.4359640" lon="-4.9216910">
        <ele>45.8</ele>
        <time>2021-07-19T07:23:58Z</time>
      </trkpt>
      <trkpt lat="43.4359400" lon="-4.9217770">
        <ele>45.4</ele>
        <time>2021-07-19T07:23:59Z</time>
      </trkpt>
      <trkpt lat="43.4359130" lon="-4.9218610">
        <ele>45.0</ele>
        <time>2021-07-19T07:24:00Z</time>
      </trkpt>
      <trkpt lat="43.4358800" lon="-4.9219460">
        <ele>44.6</ele>
        <time>2021-07-19T07:24:01Z</time>
      </trkpt>
      <trkpt lat="43.4358400" lon="-4.9220340">
        <ele>44.2</ele>
        <time>2021-07-19T07:24:02Z</time>
      </trkpt>
      <trkpt lat="43.4357950" lon="-4.9221190">
        <ele>43.8</ele>
        <time>2021-07-19T07:24:03Z</time>
      </trkpt>
      <trkpt lat="43.4357470" lon="-4.9222030">
        <ele>43.2</ele>
        <time>2021-07-19T07:24:04Z</time>
      </trkpt>
      <trkpt lat="43.4356970" lon="-4.9222850">
        <ele>42.8</ele>
        <time>2021-07-19T07:24:05Z</time>
      </trkpt>
      <trkpt lat="43.4356440" lon="-4.9223680">
        <ele>42.4</ele>
        <time>2021-07-19T07:24:06Z</time>
      </trkpt>
      <trkpt lat="43.4355930" lon="-4.9224400">
        <ele>42.0</ele>
        <time>2021-07-19T07:24:07Z</time>
      </trkpt>
      <trkpt lat="43.4355400" lon="-4.9225140">
        <ele>41.4</ele>
        <time>2021-07-19T07:24:08Z</time>
      </trkpt>
      <trkpt lat="43.4354920" lon="-4.9225880">
        <ele>41.0</ele>
        <time>2021-07-19T07:24:09Z</time>
      </trkpt>
      <trkpt lat="43.4354490" lon="-4.9226650">
        <ele>40.6</ele>
        <time>2021-07-19T07:24:10Z</time>
      </trkpt>
      <trkpt lat="43.4354130" lon="-4.9227430">
        <ele>40.0</ele>
        <time>2021-07-19T07:24:11Z</time>
      </trkpt>
      <trkpt lat="43.4353840" lon="-4.9228270">
        <ele>39.6</ele>
        <time>2021-07-19T07:24:12Z</time>
      </trkpt>
      <trkpt lat="43.4353620" lon="-4.9229190">
        <ele>39.0</ele>
        <time>2021-07-19T07:24:13Z</time>
      </trkpt>
      <trkpt lat="43.4353490" lon="-4.9230070">
        <ele>38.4</ele>
        <time>2021-07-19T07:24:14Z</time>
      </trkpt>
      <trkpt lat="43.4353410" lon="-4.9230970">
        <ele>38.0</ele>
        <time>2021-07-19T07:24:15Z</time>
      </trkpt>
      <trkpt lat="43.4353350" lon="-4.9231860">
        <ele>38.0</ele>
        <time>2021-07-19T07:24:16Z</time>
      </trkpt>
      <trkpt lat="43.4353260" lon="-4.9234390">
        <ele>38.0</ele>
        <time>2021-07-19T07:24:19Z</time>
      </trkpt>
      <trkpt lat="43.4353320" lon="-4.9235900">
        <ele>38.0</ele>
        <time>2021-07-19T07:24:21Z</time>
      </trkpt>
      <trkpt lat="43.4353350" lon="-4.9237800">
        <ele>38.0</ele>
        <time>2021-07-19T07:24:24Z</time>
      </trkpt>
      <trkpt lat="43.4353410" lon="-4.9239370">
        <ele>38.0</ele>
        <time>2021-07-19T07:24:28Z</time>
      </trkpt>
      <trkpt lat="43.4353410" lon="-4.9239670">
        <ele>38.0</ele>
        <time>2021-07-19T07:24:29Z</time>
      </trkpt>
      <trkpt lat="43.4353460" lon="-4.9239920">
        <ele>38.0</ele>
        <time>2021-07-19T07:24:30Z</time>
      </trkpt>
      <trkpt lat="43.4353550" lon="-4.9240200">
        <ele>38.0</ele>
        <time>2021-07-19T07:24:31Z</time>
      </trkpt>
      <trkpt lat="43.4353700" lon="-4.9240860">
        <ele>38.0</ele>
        <time>2021-07-19T07:24:33Z</time>
      </trkpt>
      <trkpt lat="43.4353720" lon="-4.9241270">
        <ele>38.0</ele>
        <time>2021-07-19T07:24:34Z</time>
      </trkpt>
      <trkpt lat="43.4354140" lon="-4.9243680">
        <ele>38.0</ele>
        <time>2021-07-19T07:24:39Z</time>
      </trkpt>
      <trkpt lat="43.4354190" lon="-4.9244260">
        <ele>38.0</ele>
        <time>2021-07-19T07:24:40Z</time>
      </trkpt>
      <trkpt lat="43.4354680" lon="-4.9247090">
        <ele>38.0</ele>
        <time>2021-07-19T07:24:46Z</time>
      </trkpt>
      <trkpt lat="43.4354710" lon="-4.9247850">
        <ele>38.0</ele>
        <time>2021-07-19T07:24:48Z</time>
      </trkpt>
      <trkpt lat="43.4354720" lon="-4.9248600">
        <ele>38.0</ele>
        <time>2021-07-19T07:24:50Z</time>
      </trkpt>
      <trkpt lat="43.4354780" lon="-4.9249170">
        <ele>38.0</ele>
        <time>2021-07-19T07:24:52Z</time>
      </trkpt>
      <trkpt lat="43.4354910" lon="-4.9249860">
        <ele>38.0</ele>
        <time>2021-07-19T07:24:55Z</time>
      </trkpt>
      <trkpt lat="43.4354930" lon="-4.9250510">
        <ele>38.0</ele>
        <time>2021-07-19T07:24:58Z</time>
      </trkpt>
      <trkpt lat="43.4354960" lon="-4.9250850">
        <ele>38.0</ele>
        <time>2021-07-19T07:25:00Z</time>
      </trkpt>
      <trkpt lat="43.4354990" lon="-4.9251210">
        <ele>38.4</ele>
        <time>2021-07-19T07:25:02Z</time>
      </trkpt>
      <trkpt lat="43.4355040" lon="-4.9251400">
        <ele>38.8</ele>
        <time>2021-07-19T07:25:03Z</time>
      </trkpt>
      <trkpt lat="43.4355070" lon="-4.9251580">
        <ele>39.2</ele>
        <time>2021-07-19T07:25:04Z</time>
      </trkpt>
      <trkpt lat="43.4355090" lon="-4.9251760">
        <ele>40.0</ele>
        <time>2021-07-19T07:25:05Z</time>
      </trkpt>
      <trkpt lat="43.4355300" lon="-4.9252890">
        <ele>40.0</ele>
        <time>2021-07-19T07:25:10Z</time>
      </trkpt>
      <trkpt lat="43.4355380" lon="-4.9253540">
        <ele>40.4</ele>
        <time>2021-07-19T07:25:13Z</time>
      </trkpt>
      <trkpt lat="43.4355420" lon="-4.9253760">
        <ele>40.8</ele>
        <time>2021-07-19T07:25:14Z</time>
      </trkpt>
      <trkpt lat="43.4355440" lon="-4.9253980">
        <ele>41.2</ele>
        <time>2021-07-19T07:25:15Z</time>
      </trkpt>
      <trkpt lat="43.4355460" lon="-4.9254220">
        <ele>41.8</ele>
        <time>2021-07-19T07:25:16Z</time>
      </trkpt>
      <trkpt lat="43.4355500" lon="-4.9254460">
        <ele>42.2</ele>
        <time>2021-07-19T07:25:17Z</time>
      </trkpt>
      <trkpt lat="43.4355730" lon="-4.9255280">
        <ele>42.2</ele>
        <time>2021-07-19T07:25:21Z</time>
      </trkpt>
      <trkpt lat="43.4355910" lon="-4.9256490">
        <ele>42.6</ele>
        <time>2021-07-19T07:25:25Z</time>
      </trkpt>
      <trkpt lat="43.4355950" lon="-4.9256720">
        <ele>43.0</ele>
        <time>2021-07-19T07:25:26Z</time>
      </trkpt>
      <trkpt lat="43.4355990" lon="-4.9256940">
        <ele>43.4</ele>
        <time>2021-07-19T07:25:27Z</time>
      </trkpt>
      <trkpt lat="43.4355980" lon="-4.9257080">
        <ele>43.8</ele>
        <time>2021-07-19T07:25:28Z</time>
      </trkpt>
      <trkpt lat="43.4355980" lon="-4.9257260">
        <ele>44.2</ele>
        <time>2021-07-19T07:25:29Z</time>
      </trkpt>
      <trkpt lat="43.4355790" lon="-4.9258470">
        <ele>44.2</ele>
        <time>2021-07-19T07:25:35Z</time>
      </trkpt>
      <trkpt lat="43.4355810" lon="-4.9258860">
        <ele>44.6</ele>
        <time>2021-07-19T07:25:36Z</time>
      </trkpt>
      <trkpt lat="43.4355830" lon="-4.9259210">
        <ele>45.0</ele>
        <time>2021-07-19T07:25:37Z</time>
      </trkpt>
      <trkpt lat="43.4355850" lon="-4.9259530">
        <ele>45.4</ele>
        <time>2021-07-19T07:25:38Z</time>
      </trkpt>
      <trkpt lat="43.4355830" lon="-4.9259900">
        <ele>45.8</ele>
        <time>2021-07-19T07:25:39Z</time>
      </trkpt>
      <trkpt lat="43.4355790" lon="-4.9260280">
        <ele>46.2</ele>
        <time>2021-07-19T07:25:40Z</time>
      </trkpt>
      <trkpt lat="43.4355660" lon="-4.9261590">
        <ele>46.2</ele>
        <time>2021-07-19T07:25:45Z</time>
      </trkpt>
      <trkpt lat="43.4355650" lon="-4.9263640">
        <ele>46.6</ele>
        <time>2021-07-19T07:25:53Z</time>
      </trkpt>
      <trkpt lat="43.4355680" lon="-4.9263840">
        <ele>47.0</ele>
        <time>2021-07-19T07:25:54Z</time>
      </trkpt>
      <trkpt lat="43.4355720" lon="-4.9264080">
        <ele>48.0</ele>
        <time>2021-07-19T07:25:55Z</time>
      </trkpt>
      <trkpt lat="43.4355700" lon="-4.9264310">
        <ele>48.4</ele>
        <time>2021-07-19T07:25:56Z</time>
      </trkpt>
      <trkpt lat="43.4355630" lon="-4.9265530">
        <ele>48.4</ele>
        <time>2021-07-19T07:26:02Z</time>
      </trkpt>
      <trkpt lat="43.4355560" lon="-4.9266230">
        <ele>48.4</ele>
        <time>2021-07-19T07:26:05Z</time>
      </trkpt>
      <trkpt lat="43.4355580" lon="-4.9266710">
        <ele>48.8</ele>
        <time>2021-07-19T07:26:07Z</time>
      </trkpt>
      <trkpt lat="43.4355560" lon="-4.9266890">
        <ele>49.2</ele>
        <time>2021-07-19T07:26:08Z</time>
      </trkpt>
      <trkpt lat="43.4355560" lon="-4.9267080">
        <ele>49.6</ele>
        <time>2021-07-19T07:26:09Z</time>
      </trkpt>
      <trkpt lat="43.4355570" lon="-4.9267290">
        <ele>50.0</ele>
        <time>2021-07-19T07:26:10Z</time>
      </trkpt>
      <trkpt lat="43.4355570" lon="-4.9267490">
        <ele>50.4</ele>
        <time>2021-07-19T07:26:11Z</time>
      </trkpt>
      <trkpt lat="43.4355630" lon="-4.9268470">
        <ele>50.4</ele>
        <time>2021-07-19T07:26:15Z</time>
      </trkpt>
      <trkpt lat="43.4355860" lon="-4.9269740">
        <ele>50.8</ele>
        <time>2021-07-19T07:26:21Z</time>
      </trkpt>
      <trkpt lat="43.4355910" lon="-4.9269980">
        <ele>51.2</ele>
        <time>2021-07-19T07:26:22Z</time>
      </trkpt>
      <trkpt lat="43.4355960" lon="-4.9270210">
        <ele>51.6</ele>
        <time>2021-07-19T07:26:23Z</time>
      </trkpt>
      <trkpt lat="43.4355970" lon="-4.9270330">
        <ele>52.0</ele>
        <time>2021-07-19T07:26:24Z</time>
      </trkpt>
      <trkpt lat="43.4355980" lon="-4.9270540">
        <ele>52.4</ele>
        <time>2021-07-19T07:26:25Z</time>
      </trkpt>
      <trkpt lat="43.4355960" lon="-4.9271700">
        <ele>52.4</ele>
        <time>2021-07-19T07:26:30Z</time>
      </trkpt>
      <trkpt lat="43.4355830" lon="-4.9273420">
        <ele>52.4</ele>
        <time>2021-07-19T07:26:36Z</time>
      </trkpt>
      <trkpt lat="43.4355790" lon="-4.9273610">
        <ele>52.8</ele>
        <time>2021-07-19T07:26:37Z</time>
      </trkpt>
      <trkpt lat="43.4355760" lon="-4.9273870">
        <ele>53.4</ele>
        <time>2021-07-19T07:26:38Z</time>
      </trkpt>
      <trkpt lat="43.4355720" lon="-4.9274110">
        <ele>53.8</ele>
        <time>2021-07-19T07:26:39Z</time>
      </trkpt>
      <trkpt lat="43.4355680" lon="-4.9274350">
        <ele>54.2</ele>
        <time>2021-07-19T07:26:40Z</time>
      </trkpt>
      <trkpt lat="43.4355660" lon="-4.9274620">
        <ele>54.6</ele>
        <time>2021-07-19T07:26:41Z</time>
      </trkpt>
      <trkpt lat="43.4355620" lon="-4.9276840">
        <ele>54.6</ele>
        <time>2021-07-19T07:26:49Z</time>
      </trkpt>
      <trkpt lat="43.4355570" lon="-4.9278160">
        <ele>54.6</ele>
        <time>2021-07-19T07:26:53Z</time>
      </trkpt>
      <trkpt lat="43.4355570" lon="-4.9279310">
        <ele>54.6</ele>
        <time>2021-07-19T07:26:56Z</time>
      </trkpt>
      <trkpt lat="43.4355480" lon="-4.9280420">
        <ele>55.0</ele>
        <time>2021-07-19T07:26:59Z</time>
      </trkpt>
      <trkpt lat="43.4355430" lon="-4.9280760">
        <ele>55.4</ele>
        <time>2021-07-19T07:27:00Z</time>
      </trkpt>
      <trkpt lat="43.4355450" lon="-4.9281120">
        <ele>55.8</ele>
        <time>2021-07-19T07:27:01Z</time>
      </trkpt>
      <trkpt lat="43.4355440" lon="-4.9281510">
        <ele>56.2</ele>
        <time>2021-07-19T07:27:02Z</time>
      </trkpt>
      <trkpt lat="43.4355420" lon="-4.9281860">
        <ele>56.6</ele>
        <time>2021-07-19T07:27:03Z</time>
      </trkpt>
      <trkpt lat="43.4355350" lon="-4.9283860">
        <ele>56.6</ele>
        <time>2021-07-19T07:27:09Z</time>
      </trkpt>
      <trkpt lat="43.4355390" lon="-4.9286860">
        <ele>56.6</ele>
        <time>2021-07-19T07:27:17Z</time>
      </trkpt>
      <trkpt lat="43.4355410" lon="-4.9288360">
        <ele>57.0</ele>
        <time>2021-07-19T07:27:21Z</time>
      </trkpt>
      <trkpt lat="43.4355420" lon="-4.9288690">
        <ele>57.6</ele>
        <time>2021-07-19T07:27:22Z</time>
      </trkpt>
      <trkpt lat="43.4355430" lon="-4.9289010">
        <ele>58.0</ele>
        <time>2021-07-19T07:27:23Z</time>
      </trkpt>
      <trkpt lat="43.4355420" lon="-4.9289350">
        <ele>58.4</ele>
        <time>2021-07-19T07:27:24Z</time>
      </trkpt>
      <trkpt lat="43.4355400" lon="-4.9289690">
        <ele>58.8</ele>
        <time>2021-07-19T07:27:25Z</time>
      </trkpt>
      <trkpt lat="43.4355330" lon="-4.9291670">
        <ele>58.8</ele>
        <time>2021-07-19T07:27:31Z</time>
      </trkpt>
      <trkpt lat="43.4355010" lon="-4.9293780">
        <ele>58.8</ele>
        <time>2021-07-19T07:27:37Z</time>
      </trkpt>
      <trkpt lat="43.4354650" lon="-4.9296710">
        <ele>58.8</ele>
        <time>2021-07-19T07:27:44Z</time>
      </trkpt>
      <trkpt lat="43.4354600" lon="-4.9297580">
        <ele>58.8</ele>
        <time>2021-07-19T07:27:46Z</time>
      </trkpt>
      <trkpt lat="43.4354330" lon="-4.9299780">
        <ele>58.8</ele>
        <time>2021-07-19T07:27:51Z</time>
      </trkpt>
      <trkpt lat="43.4354160" lon="-4.9302840">
        <ele>58.8</ele>
        <time>2021-07-19T07:27:58Z</time>
      </trkpt>
      <trkpt lat="43.4354120" lon="-4.9303220">
        <ele>59.2</ele>
        <time>2021-07-19T07:27:59Z</time>
      </trkpt>
      <trkpt lat="43.4354070" lon="-4.9303570">
        <ele>59.6</ele>
        <time>2021-07-19T07:28:00Z</time>
      </trkpt>
      <trkpt lat="43.4354040" lon="-4.9303910">
        <ele>60.2</ele>
        <time>2021-07-19T07:28:01Z</time>
      </trkpt>
      <trkpt lat="43.4354000" lon="-4.9304230">
        <ele>60.6</ele>
        <time>2021-07-19T07:28:02Z</time>
      </trkpt>
      <trkpt lat="43.4353980" lon="-4.9304570">
        <ele>61.0</ele>
        <time>2021-07-19T07:28:03Z</time>
      </trkpt>
      <trkpt lat="43.4353910" lon="-4.9305680">
        <ele>61.0</ele>
        <time>2021-07-19T07:28:06Z</time>
      </trkpt>
      <trkpt lat="43.4353920" lon="-4.9308490">
        <ele>61.0</ele>
        <time>2021-07-19T07:28:12Z</time>
      </trkpt>
      <trkpt lat="43.4354090" lon="-4.9310700">
        <ele>61.0</ele>
        <time>2021-07-19T07:28:16Z</time>
      </trkpt>
      <trkpt lat="43.4354110" lon="-4.9311260">
        <ele>61.0</ele>
        <time>2021-07-19T07:28:17Z</time>
      </trkpt>
      <trkpt lat="43.4354160" lon="-4.9311820">
        <ele>61.0</ele>
        <time>2021-07-19T07:28:18Z</time>
      </trkpt>
      <trkpt lat="43.4354230" lon="-4.9312370">
        <ele>61.0</ele>
        <time>2021-07-19T07:28:19Z</time>
      </trkpt>
      <trkpt lat="43.4354340" lon="-4.9313440">
        <ele>61.0</ele>
        <time>2021-07-19T07:28:21Z</time>
      </trkpt>
      <trkpt lat="43.4354420" lon="-4.9314560">
        <ele>61.0</ele>
        <time>2021-07-19T07:28:23Z</time>
      </trkpt>
      <trkpt lat="43.4354460" lon="-4.9315150">
        <ele>61.0</ele>
        <time>2021-07-19T07:28:24Z</time>
      </trkpt>
      <trkpt lat="43.4354520" lon="-4.9315710">
        <ele>61.0</ele>
        <time>2021-07-19T07:28:25Z</time>
      </trkpt>
      <trkpt lat="43.4354680" lon="-4.9317290">
        <ele>61.0</ele>
        <time>2021-07-19T07:28:28Z</time>
      </trkpt>
      <trkpt lat="43.4354870" lon="-4.9318440">
        <ele>60.6</ele>
        <time>2021-07-19T07:28:30Z</time>
      </trkpt>
      <trkpt lat="43.4354970" lon="-4.9319070">
        <ele>60.2</ele>
        <time>2021-07-19T07:28:31Z</time>
      </trkpt>
      <trkpt lat="43.4355030" lon="-4.9319810">
        <ele>59.8</ele>
        <time>2021-07-19T07:28:32Z</time>
      </trkpt>
      <trkpt lat="43.4355080" lon="-4.9320490">
        <ele>59.4</ele>
        <time>2021-07-19T07:28:33Z</time>
      </trkpt>
      <trkpt lat="43.4355120" lon="-4.9321160">
        <ele>59.0</ele>
        <time>2021-07-19T07:28:34Z</time>
      </trkpt>
      <trkpt lat="43.4355340" lon="-4.9323130">
        <ele>59.0</ele>
        <time>2021-07-19T07:28:37Z</time>
      </trkpt>
      <trkpt lat="43.4355750" lon="-4.9325000">
        <ele>58.6</ele>
        <time>2021-07-19T07:28:40Z</time>
      </trkpt>
      <trkpt lat="43.4355940" lon="-4.9325630">
        <ele>58.2</ele>
        <time>2021-07-19T07:28:41Z</time>
      </trkpt>
      <trkpt lat="43.4356130" lon="-4.9326260">
        <ele>57.6</ele>
        <time>2021-07-19T07:28:42Z</time>
      </trkpt>
      <trkpt lat="43.4356270" lon="-4.9326910">
        <ele>57.2</ele>
        <time>2021-07-19T07:28:43Z</time>
      </trkpt>
      <trkpt lat="43.4356340" lon="-4.9327470">
        <ele>56.8</ele>
        <time>2021-07-19T07:28:44Z</time>
      </trkpt>
      <trkpt lat="43.4356470" lon="-4.9328240">
        <ele>56.4</ele>
        <time>2021-07-19T07:28:46Z</time>
      </trkpt>
      <trkpt lat="43.4356580" lon="-4.9328540">
        <ele>56.0</ele>
        <time>2021-07-19T07:28:47Z</time>
      </trkpt>
      <trkpt lat="43.4356710" lon="-4.9328860">
        <ele>55.2</ele>
        <time>2021-07-19T07:28:48Z</time>
      </trkpt>
      <trkpt lat="43.4356870" lon="-4.9329180">
        <ele>54.8</ele>
        <time>2021-07-19T07:28:49Z</time>
      </trkpt>
      <trkpt lat="43.4357700" lon="-4.9330870">
        <ele>54.8</ele>
        <time>2021-07-19T07:28:53Z</time>
      </trkpt>
      <trkpt lat="43.4358260" lon="-4.9331820">
        <ele>54.2</ele>
        <time>2021-07-19T07:28:55Z</time>
      </trkpt>
      <trkpt lat="43.4358540" lon="-4.9332410">
        <ele>53.8</ele>
        <time>2021-07-19T07:28:56Z</time>
      </trkpt>
      <trkpt lat="43.4358820" lon="-4.9332970">
        <ele>53.4</ele>
        <time>2021-07-19T07:28:57Z</time>
      </trkpt>
      <trkpt lat="43.4359080" lon="-4.9333540">
        <ele>53.0</ele>
        <time>2021-07-19T07:28:58Z</time>
      </trkpt>
      <trkpt lat="43.4359390" lon="-4.9334120">
        <ele>52.6</ele>
        <time>2021-07-19T07:28:59Z</time>
      </trkpt>
      <trkpt lat="43.4360400" lon="-4.9335820">
        <ele>52.6</ele>
        <time>2021-07-19T07:29:02Z</time>
      </trkpt>
      <trkpt lat="43.4360760" lon="-4.9336420">
        <ele>52.2</ele>
        <time>2021-07-19T07:29:03Z</time>
      </trkpt>
      <trkpt lat="43.4361100" lon="-4.9337060">
        <ele>51.8</ele>
        <time>2021-07-19T07:29:04Z</time>
      </trkpt>
      <trkpt lat="43.4361430" lon="-4.9337710">
        <ele>51.2</ele>
        <time>2021-07-19T07:29:05Z</time>
      </trkpt>
      <trkpt lat="43.4361800" lon="-4.9338370">
        <ele>50.8</ele>
        <time>2021-07-19T07:29:06Z</time>
      </trkpt>
      <trkpt lat="43.4362130" lon="-4.9339020">
        <ele>50.4</ele>
        <time>2021-07-19T07:29:07Z</time>
      </trkpt>
      <trkpt lat="43.4362790" lon="-4.9340250">
        <ele>50.0</ele>
        <time>2021-07-19T07:29:09Z</time>
      </trkpt>
      <trkpt lat="43.4363120" lon="-4.9340870">
        <ele>49.4</ele>
        <time>2021-07-19T07:29:10Z</time>
      </trkpt>
      <trkpt lat="43.4363440" lon="-4.9341520">
        <ele>49.0</ele>
        <time>2021-07-19T07:29:11Z</time>
      </trkpt>
      <trkpt lat="43.4363750" lon="-4.9342130">
        <ele>48.6</ele>
        <time>2021-07-19T07:29:12Z</time>
      </trkpt>
      <trkpt lat="43.4364100" lon="-4.9342800">
        <ele>48.2</ele>
        <time>2021-07-19T07:29:13Z</time>
      </trkpt>
      <trkpt lat="43.4364460" lon="-4.9343440">
        <ele>47.8</ele>
        <time>2021-07-19T07:29:14Z</time>
      </trkpt>
      <trkpt lat="43.4364770" lon="-4.9344100">
        <ele>47.4</ele>
        <time>2021-07-19T07:29:15Z</time>
      </trkpt>
      <trkpt lat="43.4365110" lon="-4.9344740">
        <ele>46.8</ele>
        <time>2021-07-19T07:29:16Z</time>
      </trkpt>
      <trkpt lat="43.4365440" lon="-4.9345340">
        <ele>46.4</ele>
        <time>2021-07-19T07:29:17Z</time>
      </trkpt>
      <trkpt lat="43.4365720" lon="-4.9345840">
        <ele>46.0</ele>
        <time>2021-07-19T07:29:18Z</time>
      </trkpt>
      <trkpt lat="43.4366020" lon="-4.9346400">
        <ele>46.0</ele>
        <time>2021-07-19T07:29:19Z</time>
      </trkpt>
      <trkpt lat="43.4366640" lon="-4.9347560">
        <ele>45.6</ele>
        <time>2021-07-19T07:29:21Z</time>
      </trkpt>
      <trkpt lat="43.4366920" lon="-4.9348130">
        <ele>45.2</ele>
        <time>2021-07-19T07:29:22Z</time>
      </trkpt>
      <trkpt lat="43.4367220" lon="-4.9348690">
        <ele>44.6</ele>
        <time>2021-07-19T07:29:23Z</time>
      </trkpt>
      <trkpt lat="43.4367520" lon="-4.9349250">
        <ele>44.2</ele>
        <time>2021-07-19T07:29:24Z</time>
      </trkpt>
      <trkpt lat="43.4367830" lon="-4.9349800">
        <ele>43.8</ele>
        <time>2021-07-19T07:29:25Z</time>
      </trkpt>
      <trkpt lat="43.4368130" lon="-4.9350340">
        <ele>43.8</ele>
        <time>2021-07-19T07:29:26Z</time>
      </trkpt>
      <trkpt lat="43.4368460" lon="-4.9350860">
        <ele>43.4</ele>
        <time>2021-07-19T07:29:27Z</time>
      </trkpt>
      <trkpt lat="43.4368780" lon="-4.9351370">
        <ele>43.0</ele>
        <time>2021-07-19T07:29:28Z</time>
      </trkpt>
      <trkpt lat="43.4369050" lon="-4.9351780">
        <ele>42.6</ele>
        <time>2021-07-19T07:29:29Z</time>
      </trkpt>
      <trkpt lat="43.4369270" lon="-4.9352200">
        <ele>42.2</ele>
        <time>2021-07-19T07:29:30Z</time>
      </trkpt>
      <trkpt lat="43.4369500" lon="-4.9352580">
        <ele>41.8</ele>
        <time>2021-07-19T07:29:31Z</time>
      </trkpt>
      <trkpt lat="43.4369730" lon="-4.9352960">
        <ele>41.4</ele>
        <time>2021-07-19T07:29:32Z</time>
      </trkpt>
      <trkpt lat="43.4369990" lon="-4.9353340">
        <ele>40.8</ele>
        <time>2021-07-19T07:29:33Z</time>
      </trkpt>
      <trkpt lat="43.4370230" lon="-4.9353700">
        <ele>40.4</ele>
        <time>2021-07-19T07:29:34Z</time>
      </trkpt>
      <trkpt lat="43.4370490" lon="-4.9354080">
        <ele>40.0</ele>
        <time>2021-07-19T07:29:35Z</time>
      </trkpt>
      <trkpt lat="43.4370780" lon="-4.9354490">
        <ele>39.6</ele>
        <time>2021-07-19T07:29:36Z</time>
      </trkpt>
      <trkpt lat="43.4371700" lon="-4.9355880">
        <ele>39.6</ele>
        <time>2021-07-19T07:29:39Z</time>
      </trkpt>
      <trkpt lat="43.4372230" lon="-4.9356640">
        <ele>39.2</ele>
        <time>2021-07-19T07:29:41Z</time>
      </trkpt>
      <trkpt lat="43.4372420" lon="-4.9356950">
        <ele>38.8</ele>
        <time>2021-07-19T07:29:42Z</time>
      </trkpt>
      <trkpt lat="43.4372600" lon="-4.9357270">
        <ele>38.2</ele>
        <time>2021-07-19T07:29:43Z</time>
      </trkpt>
      <trkpt lat="43.4372790" lon="-4.9357590">
        <ele>37.8</ele>
        <time>2021-07-19T07:29:44Z</time>
      </trkpt>
      <trkpt lat="43.4372950" lon="-4.9357860">
        <ele>37.4</ele>
        <time>2021-07-19T07:29:45Z</time>
      </trkpt>
      <trkpt lat="43.4373450" lon="-4.9358530">
        <ele>37.4</ele>
        <time>2021-07-19T07:29:49Z</time>
      </trkpt>
      <trkpt lat="43.4373500" lon="-4.9358650">
        <ele>37.4</ele>
        <time>2021-07-19T07:29:51Z</time>
      </trkpt>
      <trkpt lat="43.4373780" lon="-4.9358850">
        <ele>37.4</ele>
        <time>2021-07-19T07:29:56Z</time>
      </trkpt>
      <trkpt lat="43.4373980" lon="-4.9358920">
        <ele>37.4</ele>
        <time>2021-07-19T07:29:57Z</time>
      </trkpt>
      <trkpt lat="43.4374570" lon="-4.9359080">
        <ele>37.4</ele>
        <time>2021-07-19T07:29:59Z</time>
      </trkpt>
      <trkpt lat="43.4375130" lon="-4.9359260">
        <ele>37.4</ele>
        <time>2021-07-19T07:30:01Z</time>
      </trkpt>
      <trkpt lat="43.4375420" lon="-4.9359350">
        <ele>37.4</ele>
        <time>2021-07-19T07:30:02Z</time>
      </trkpt>
      <trkpt lat="43.4375960" lon="-4.9359530">
        <ele>37.4</ele>
        <time>2021-07-19T07:30:04Z</time>
      </trkpt>
      <trkpt lat="43.4376300" lon="-4.9359650">
        <ele>37.4</ele>
        <time>2021-07-19T07:30:06Z</time>
      </trkpt>
      <trkpt lat="43.4376400" lon="-4.9359680">
        <ele>37.4</ele>
        <time>2021-07-19T07:30:07Z</time>
      </trkpt>
      <trkpt lat="43.4376390" lon="-4.9359670">
        <ele>37.4</ele>
        <time>2021-07-19T07:30:08Z</time>
      </trkpt>
      <trkpt lat="43.4376480" lon="-4.9359980">
        <ele>35.4</ele>
        <time>2021-07-19T07:30:18Z</time>
      </trkpt>
      <trkpt lat="43.4376520" lon="-4.9360250">
        <ele>35.4</ele>
        <time>2021-07-19T07:30:19Z</time>
      </trkpt>
      <trkpt lat="43.4376490" lon="-4.9361310">
        <ele>35.4</ele>
        <time>2021-07-19T07:30:22Z</time>
      </trkpt>
      <trkpt lat="43.4376460" lon="-4.9362010">
        <ele>35.4</ele>
        <time>2021-07-19T07:30:24Z</time>
      </trkpt>
      <trkpt lat="43.4376520" lon="-4.9362940">
        <ele>35.4</ele>
        <time>2021-07-19T07:30:27Z</time>
      </trkpt>
      <trkpt lat="43.4376400" lon="-4.9363720">
        <ele>35.4</ele>
        <time>2021-07-19T07:30:29Z</time>
      </trkpt>
      <trkpt lat="43.4375920" lon="-4.9366640">
        <ele>35.4</ele>
        <time>2021-07-19T07:30:35Z</time>
      </trkpt>
      <trkpt lat="43.4375930" lon="-4.9367050">
        <ele>35.4</ele>
        <time>2021-07-19T07:30:36Z</time>
      </trkpt>
      <trkpt lat="43.4375890" lon="-4.9367440">
        <ele>35.0</ele>
        <time>2021-07-19T07:30:37Z</time>
      </trkpt>
      <trkpt lat="43.4375880" lon="-4.9367840">
        <ele>34.6</ele>
        <time>2021-07-19T07:30:38Z</time>
      </trkpt>
      <trkpt lat="43.4375870" lon="-4.9368240">
        <ele>34.2</ele>
        <time>2021-07-19T07:30:39Z</time>
      </trkpt>
      <trkpt lat="43.4375890" lon="-4.9368710">
        <ele>33.8</ele>
        <time>2021-07-19T07:30:40Z</time>
      </trkpt>
      <trkpt lat="43.4375930" lon="-4.9369200">
        <ele>33.2</ele>
        <time>2021-07-19T07:30:41Z</time>
      </trkpt>
      <trkpt lat="43.4376000" lon="-4.9369780">
        <ele>33.2</ele>
        <time>2021-07-19T07:30:42Z</time>
      </trkpt>
      <trkpt lat="43.4376410" lon="-4.9371680">
        <ele>33.2</ele>
        <time>2021-07-19T07:30:45Z</time>
      </trkpt>
      <trkpt lat="43.4377180" lon="-4.9374980">
        <ele>32.8</ele>
        <time>2021-07-19T07:30:50Z</time>
      </trkpt>
      <trkpt lat="43.4377340" lon="-4.9375660">
        <ele>32.4</ele>
        <time>2021-07-19T07:30:51Z</time>
      </trkpt>
      <trkpt lat="43.4377490" lon="-4.9376390">
        <ele>32.0</ele>
        <time>2021-07-19T07:30:52Z</time>
      </trkpt>
      <trkpt lat="43.4377600" lon="-4.9377070">
        <ele>31.2</ele>
        <time>2021-07-19T07:30:53Z</time>
      </trkpt>
      <trkpt lat="43.4377890" lon="-4.9378930">
        <ele>30.8</ele>
        <time>2021-07-19T07:30:56Z</time>
      </trkpt>
      <trkpt lat="43.4377930" lon="-4.9379370">
        <ele>30.4</ele>
        <time>2021-07-19T07:30:57Z</time>
      </trkpt>
      <trkpt lat="43.4377980" lon="-4.9379760">
        <ele>30.0</ele>
        <time>2021-07-19T07:30:58Z</time>
      </trkpt>
      <trkpt lat="43.4378000" lon="-4.9380150">
        <ele>29.6</ele>
        <time>2021-07-19T07:30:59Z</time>
      </trkpt>
      <trkpt lat="43.4378010" lon="-4.9380440">
        <ele>29.2</ele>
        <time>2021-07-19T07:31:00Z</time>
      </trkpt>
      <trkpt lat="43.4378040" lon="-4.9380770">
        <ele>29.2</ele>
        <time>2021-07-19T07:31:03Z</time>
      </trkpt>
      <trkpt lat="43.4378020" lon="-4.9381030">
        <ele>29.2</ele>
        <time>2021-07-19T07:31:05Z</time>
      </trkpt>
      <trkpt lat="43.4378040" lon="-4.9381600">
        <ele>29.2</ele>
        <time>2021-07-19T07:31:07Z</time>
      </trkpt>
      <trkpt lat="43.4378120" lon="-4.9381870">
        <ele>29.2</ele>
        <time>2021-07-19T07:31:08Z</time>
      </trkpt>
      <trkpt lat="43.4378280" lon="-4.9382550">
        <ele>29.2</ele>
        <time>2021-07-19T07:31:10Z</time>
      </trkpt>
      <trkpt lat="43.4378500" lon="-4.9383630">
        <ele>29.2</ele>
        <time>2021-07-19T07:31:12Z</time>
      </trkpt>
      <trkpt lat="43.4378520" lon="-4.9384210">
        <ele>29.2</ele>
        <time>2021-07-19T07:31:13Z</time>
      </trkpt>
      <trkpt lat="43.4378350" lon="-4.9385670">
        <ele>29.2</ele>
        <time>2021-07-19T07:31:16Z</time>
      </trkpt>
      <trkpt lat="43.4378210" lon="-4.9386460">
        <ele>29.2</ele>
        <time>2021-07-19T07:31:18Z</time>
      </trkpt>
      <trkpt lat="43.4377630" lon="-4.9388580">
        <ele>29.2</ele>
        <time>2021-07-19T07:31:23Z</time>
      </trkpt>
      <trkpt lat="43.4377190" lon="-4.9389490">
        <ele>29.2</ele>
        <time>2021-07-19T07:31:25Z</time>
      </trkpt>
      <trkpt lat="43.4376780" lon="-4.9390440">
        <ele>29.2</ele>
        <time>2021-07-19T07:31:27Z</time>
      </trkpt>
      <trkpt lat="43.4376250" lon="-4.9391930">
        <ele>29.2</ele>
        <time>2021-07-19T07:31:30Z</time>
      </trkpt>
      <trkpt lat="43.4376120" lon="-4.9394120">
        <ele>29.2</ele>
        <time>2021-07-19T07:31:35Z</time>
      </trkpt>
      <trkpt lat="43.4376930" lon="-4.9396750">
        <ele>29.2</ele>
        <time>2021-07-19T07:31:41Z</time>
      </trkpt>
      <trkpt lat="43.4377770" lon="-4.9400610">
        <ele>29.2</ele>
        <time>2021-07-19T07:31:48Z</time>
      </trkpt>
      <trkpt lat="43.4378210" lon="-4.9402110">
        <ele>29.2</ele>
        <time>2021-07-19T07:31:51Z</time>
      </trkpt>
      <trkpt lat="43.4378800" lon="-4.9403430">
        <ele>29.2</ele>
        <time>2021-07-19T07:31:54Z</time>
      </trkpt>
      <trkpt lat="43.4378960" lon="-4.9403920">
        <ele>29.2</ele>
        <time>2021-07-19T07:31:55Z</time>
      </trkpt>
      <trkpt lat="43.4379640" lon="-4.9405870">
        <ele>28.8</ele>
        <time>2021-07-19T07:31:59Z</time>
      </trkpt>
      <trkpt lat="43.4379760" lon="-4.9406460">
        <ele>28.4</ele>
        <time>2021-07-19T07:32:00Z</time>
      </trkpt>
      <trkpt lat="43.4379920" lon="-4.9407070">
        <ele>28.0</ele>
        <time>2021-07-19T07:32:01Z</time>
      </trkpt>
      <trkpt lat="43.4380100" lon="-4.9407630">
        <ele>27.6</ele>
        <time>2021-07-19T07:32:02Z</time>
      </trkpt>
      <trkpt lat="43.4380230" lon="-4.9408240">
        <ele>27.2</ele>
        <time>2021-07-19T07:32:03Z</time>
      </trkpt>
      <trkpt lat="43.4380350" lon="-4.9408780">
        <ele>27.2</ele>
        <time>2021-07-19T07:32:04Z</time>
      </trkpt>
      <trkpt lat="43.4380490" lon="-4.9409370">
        <ele>27.2</ele>
        <time>2021-07-19T07:32:05Z</time>
      </trkpt>
      <trkpt lat="43.4381060" lon="-4.9411810">
        <ele>27.2</ele>
        <time>2021-07-19T07:32:09Z</time>
      </trkpt>
      <trkpt lat="43.4381570" lon="-4.9414170">
        <ele>27.2</ele>
        <time>2021-07-19T07:32:13Z</time>
      </trkpt>
      <trkpt lat="43.4381860" lon="-4.9415230">
        <ele>27.2</ele>
        <time>2021-07-19T07:32:15Z</time>
      </trkpt>
      <trkpt lat="43.4382090" lon="-4.9416920">
        <ele>27.2</ele>
        <time>2021-07-19T07:32:18Z</time>
      </trkpt>
      <trkpt lat="43.4382200" lon="-4.9417560">
        <ele>27.2</ele>
        <time>2021-07-19T07:32:19Z</time>
      </trkpt>
      <trkpt lat="43.4383020" lon="-4.9419740">
        <ele>27.2</ele>
        <time>2021-07-19T07:32:23Z</time>
      </trkpt>
      <trkpt lat="43.4383260" lon="-4.9420180">
        <ele>27.2</ele>
        <time>2021-07-19T07:32:24Z</time>
      </trkpt>
      <trkpt lat="43.4384020" lon="-4.9421820">
        <ele>27.2</ele>
        <time>2021-07-19T07:32:28Z</time>
      </trkpt>
      <trkpt lat="43.4384530" lon="-4.9422810">
        <ele>27.2</ele>
        <time>2021-07-19T07:32:31Z</time>
      </trkpt>
      <trkpt lat="43.4385110" lon="-4.9423850">
        <ele>27.2</ele>
        <time>2021-07-19T07:32:35Z</time>
      </trkpt>
      <trkpt lat="43.4385430" lon="-4.9424550">
        <ele>27.2</ele>
        <time>2021-07-19T07:32:37Z</time>
      </trkpt>
      <trkpt lat="43.4385730" lon="-4.9425640">
        <ele>27.2</ele>
        <time>2021-07-19T07:32:40Z</time>
      </trkpt>
      <trkpt lat="43.4385870" lon="-4.9426730">
        <ele>27.2</ele>
        <time>2021-07-19T07:32:43Z</time>
      </trkpt>
      <trkpt lat="43.4385960" lon="-4.9427470">
        <ele>27.2</ele>
        <time>2021-07-19T07:32:45Z</time>
      </trkpt>
      <trkpt lat="43.4385980" lon="-4.9427870">
        <ele>27.6</ele>
        <time>2021-07-19T07:32:46Z</time>
      </trkpt>
      <trkpt lat="43.4385960" lon="-4.9428240">
        <ele>28.0</ele>
        <time>2021-07-19T07:32:47Z</time>
      </trkpt>
      <trkpt lat="43.4385930" lon="-4.9428630">
        <ele>28.4</ele>
        <time>2021-07-19T07:32:48Z</time>
      </trkpt>
      <trkpt lat="43.4385910" lon="-4.9428990">
        <ele>28.8</ele>
        <time>2021-07-19T07:32:49Z</time>
      </trkpt>
      <trkpt lat="43.4385840" lon="-4.9429380">
        <ele>29.2</ele>
        <time>2021-07-19T07:32:50Z</time>
      </trkpt>
      <trkpt lat="43.4385660" lon="-4.9430630">
        <ele>29.2</ele>
        <time>2021-07-19T07:32:53Z</time>
      </trkpt>
      <trkpt lat="43.4385250" lon="-4.9432530">
        <ele>29.2</ele>
        <time>2021-07-19T07:32:58Z</time>
      </trkpt>
      <trkpt lat="43.4385090" lon="-4.9433220">
        <ele>29.6</ele>
        <time>2021-07-19T07:33:00Z</time>
      </trkpt>
      <trkpt lat="43.4385060" lon="-4.9433550">
        <ele>30.0</ele>
        <time>2021-07-19T07:33:01Z</time>
      </trkpt>
      <trkpt lat="43.4385030" lon="-4.9433860">
        <ele>30.4</ele>
        <time>2021-07-19T07:33:02Z</time>
      </trkpt>
      <trkpt lat="43.4385080" lon="-4.9434150">
        <ele>30.8</ele>
        <time>2021-07-19T07:33:03Z</time>
      </trkpt>
      <trkpt lat="43.4385140" lon="-4.9434410">
        <ele>31.2</ele>
        <time>2021-07-19T07:33:04Z</time>
      </trkpt>
      <trkpt lat="43.4385320" lon="-4.9434650">
        <ele>31.2</ele>
        <time>2021-07-19T07:33:05Z</time>
      </trkpt>
      <trkpt lat="43.4386270" lon="-4.9434840">
        <ele>31.2</ele>
        <time>2021-07-19T07:33:08Z</time>
      </trkpt>
      <trkpt lat="43.4387380" lon="-4.9434190">
        <ele>31.2</ele>
        <time>2021-07-19T07:33:11Z</time>
      </trkpt>
      <trkpt lat="43.4388100" lon="-4.9433780">
        <ele>31.2</ele>
        <time>2021-07-19T07:33:13Z</time>
      </trkpt>
      <trkpt lat="43.4389180" lon="-4.9433050">
        <ele>31.2</ele>
        <time>2021-07-19T07:33:17Z</time>
      </trkpt>
      <trkpt lat="43.4389740" lon="-4.9432800">
        <ele>31.2</ele>
        <time>2021-07-19T07:33:19Z</time>
      </trkpt>
      <trkpt lat="43.4390990" lon="-4.9432320">
        <ele>31.2</ele>
        <time>2021-07-19T07:33:23Z</time>
      </trkpt>
      <trkpt lat="43.4392060" lon="-4.9432010">
        <ele>31.2</ele>
        <time>2021-07-19T07:33:27Z</time>
      </trkpt>
      <trkpt lat="43.4393890" lon="-4.9431310">
        <ele>31.2</ele>
        <time>2021-07-19T07:33:33Z</time>
      </trkpt>
      <trkpt lat="43.4395010" lon="-4.9431160">
        <ele>31.2</ele>
        <time>2021-07-19T07:33:38Z</time>
      </trkpt>
      <trkpt lat="43.4397330" lon="-4.9430860">
        <ele>31.2</ele>
        <time>2021-07-19T07:33:46Z</time>
      </trkpt>
      <trkpt lat="43.4399420" lon="-4.9430730">
        <ele>31.2</ele>
        <time>2021-07-19T07:33:52Z</time>
      </trkpt>
      <trkpt lat="43.4399820" lon="-4.9430690">
        <ele>31.2</ele>
        <time>2021-07-19T07:33:53Z</time>
      </trkpt>
      <trkpt lat="43.4401300" lon="-4.9430410">
        <ele>31.2</ele>
        <time>2021-07-19T07:33:57Z</time>
      </trkpt>
      <trkpt lat="43.4401640" lon="-4.9430370">
        <ele>31.6</ele>
        <time>2021-07-19T07:33:58Z</time>
      </trkpt>
      <trkpt lat="43.4401960" lon="-4.9430270">
        <ele>32.0</ele>
        <time>2021-07-19T07:33:59Z</time>
      </trkpt>
      <trkpt lat="43.4402210" lon="-4.9430240">
        <ele>32.4</ele>
        <time>2021-07-19T07:34:00Z</time>
      </trkpt>
      <trkpt lat="43.4402420" lon="-4.9430200">
        <ele>32.8</ele>
        <time>2021-07-19T07:34:01Z</time>
      </trkpt>
      <trkpt lat="43.4402710" lon="-4.9430140">
        <ele>33.2</ele>
        <time>2021-07-19T07:34:02Z</time>
      </trkpt>
      <trkpt lat="43.4403490" lon="-4.9429970">
        <ele>33.2</ele>
        <time>2021-07-19T07:34:06Z</time>
      </trkpt>
      <trkpt lat="43.4405550" lon="-4.9429350">
        <ele>33.6</ele>
        <time>2021-07-19T07:34:12Z</time>
      </trkpt>
      <trkpt lat="43.4405860" lon="-4.9429290">
        <ele>34.2</ele>
        <time>2021-07-19T07:34:13Z</time>
      </trkpt>
      <trkpt lat="43.4406130" lon="-4.9429270">
        <ele>34.6</ele>
        <time>2021-07-19T07:34:14Z</time>
      </trkpt>
      <trkpt lat="43.4406420" lon="-4.9429260">
        <ele>35.0</ele>
        <time>2021-07-19T07:34:15Z</time>
      </trkpt>
      <trkpt lat="43.4406670" lon="-4.9429280">
        <ele>35.4</ele>
        <time>2021-07-19T07:34:16Z</time>
      </trkpt>
      <trkpt lat="43.4407230" lon="-4.9429410">
        <ele>35.4</ele>
        <time>2021-07-19T07:34:18Z</time>
      </trkpt>
      <trkpt lat="43.4408980" lon="-4.9429550">
        <ele>35.4</ele>
        <time>2021-07-19T07:34:24Z</time>
      </trkpt>
      <trkpt lat="43.4410200" lon="-4.9429920">
        <ele>35.8</ele>
        <time>2021-07-19T07:34:29Z</time>
      </trkpt>
      <trkpt lat="43.4410370" lon="-4.9430030">
        <ele>36.4</ele>
        <time>2021-07-19T07:34:30Z</time>
      </trkpt>
      <trkpt lat="43.4410580" lon="-4.9430170">
        <ele>36.8</ele>
        <time>2021-07-19T07:34:31Z</time>
      </trkpt>
      <trkpt lat="43.4410790" lon="-4.9430270">
        <ele>37.2</ele>
        <time>2021-07-19T07:34:32Z</time>
      </trkpt>
      <trkpt lat="43.4411030" lon="-4.9430380">
        <ele>37.6</ele>
        <time>2021-07-19T07:34:33Z</time>
      </trkpt>
      <trkpt lat="43.4411910" lon="-4.9430880">
        <ele>37.6</ele>
        <time>2021-07-19T07:34:37Z</time>
      </trkpt>
      <trkpt lat="43.4413380" lon="-4.9431440">
        <ele>37.6</ele>
        <time>2021-07-19T07:34:43Z</time>
      </trkpt>
      <trkpt lat="43.4414510" lon="-4.9432030">
        <ele>38.0</ele>
        <time>2021-07-19T07:34:48Z</time>
      </trkpt>
      <trkpt lat="43.4414740" lon="-4.9432180">
        <ele>38.4</ele>
        <time>2021-07-19T07:34:49Z</time>
      </trkpt>
      <trkpt lat="43.4414980" lon="-4.9432410">
        <ele>39.0</ele>
        <time>2021-07-19T07:34:50Z</time>
      </trkpt>
      <trkpt lat="43.4415200" lon="-4.9432600">
        <ele>39.4</ele>
        <time>2021-07-19T07:34:51Z</time>
      </trkpt>
      <trkpt lat="43.4415360" lon="-4.9432770">
        <ele>39.8</ele>
        <time>2021-07-19T07:34:52Z</time>
      </trkpt>
      <trkpt lat="43.4416490" lon="-4.9434660">
        <ele>39.8</ele>
        <time>2021-07-19T07:34:59Z</time>
      </trkpt>
      <trkpt lat="43.4417390" lon="-4.9436250">
        <ele>39.8</ele>
        <time>2021-07-19T07:35:04Z</time>
      </trkpt>
      <trkpt lat="43.4417990" lon="-4.9437660">
        <ele>39.8</ele>
        <time>2021-07-19T07:35:07Z</time>
      </trkpt>
      <trkpt lat="43.4418330" lon="-4.9438590">
        <ele>39.8</ele>
        <time>2021-07-19T07:35:09Z</time>
      </trkpt>
      <trkpt lat="43.4418460" lon="-4.9439070">
        <ele>39.8</ele>
        <time>2021-07-19T07:35:10Z</time>
      </trkpt>
      <trkpt lat="43.4418740" lon="-4.9440090">
        <ele>39.8</ele>
        <time>2021-07-19T07:35:12Z</time>
      </trkpt>
      <trkpt lat="43.4419070" lon="-4.9441090">
        <ele>39.8</ele>
        <time>2021-07-19T07:35:14Z</time>
      </trkpt>
      <trkpt lat="43.4419190" lon="-4.9441640">
        <ele>39.4</ele>
        <time>2021-07-19T07:35:15Z</time>
      </trkpt>
      <trkpt lat="43.4419240" lon="-4.9442180">
        <ele>38.8</ele>
        <time>2021-07-19T07:35:16Z</time>
      </trkpt>
      <trkpt lat="43.4419310" lon="-4.9442630">
        <ele>38.4</ele>
        <time>2021-07-19T07:35:17Z</time>
      </trkpt>
      <trkpt lat="43.4419420" lon="-4.9443010">
        <ele>38.0</ele>
        <time>2021-07-19T07:35:18Z</time>
      </trkpt>
      <trkpt lat="43.4419540" lon="-4.9443400">
        <ele>37.4</ele>
        <time>2021-07-19T07:35:19Z</time>
      </trkpt>
      <trkpt lat="43.4419750" lon="-4.9444250">
        <ele>37.4</ele>
        <time>2021-07-19T07:35:21Z</time>
      </trkpt>
      <trkpt lat="43.4419830" lon="-4.9444620">
        <ele>37.4</ele>
        <time>2021-07-19T07:35:22Z</time>
      </trkpt>
      <trkpt lat="43.4419980" lon="-4.9445700">
        <ele>36.6</ele>
        <time>2021-07-19T07:35:25Z</time>
      </trkpt>
      <trkpt lat="43.4420040" lon="-4.9446110">
        <ele>36.2</ele>
        <time>2021-07-19T07:35:26Z</time>
      </trkpt>
      <trkpt lat="43.4420120" lon="-4.9446580">
        <ele>35.8</ele>
        <time>2021-07-19T07:35:27Z</time>
      </trkpt>
      <trkpt lat="43.4420190" lon="-4.9447100">
        <ele>35.2</ele>
        <time>2021-07-19T07:35:28Z</time>
      </trkpt>
      <trkpt lat="43.4420270" lon="-4.9449030">
        <ele>35.2</ele>
        <time>2021-07-19T07:35:32Z</time>
      </trkpt>
      <trkpt lat="43.4420300" lon="-4.9449480">
        <ele>35.2</ele>
        <time>2021-07-19T07:35:33Z</time>
      </trkpt>
      <trkpt lat="43.4420340" lon="-4.9449860">
        <ele>34.8</ele>
        <time>2021-07-19T07:35:34Z</time>
      </trkpt>
      <trkpt lat="43.4420350" lon="-4.9450200">
        <ele>34.4</ele>
        <time>2021-07-19T07:35:35Z</time>
      </trkpt>
      <trkpt lat="43.4420350" lon="-4.9450630">
        <ele>34.0</ele>
        <time>2021-07-19T07:35:36Z</time>
      </trkpt>
      <trkpt lat="43.4420370" lon="-4.9450990">
        <ele>33.4</ele>
        <time>2021-07-19T07:35:37Z</time>
      </trkpt>
      <trkpt lat="43.4420430" lon="-4.9451420">
        <ele>33.0</ele>
        <time>2021-07-19T07:35:38Z</time>
      </trkpt>
      <trkpt lat="43.4420490" lon="-4.9451890">
        <ele>33.0</ele>
        <time>2021-07-19T07:35:39Z</time>
      </trkpt>
      <trkpt lat="43.4420640" lon="-4.9452950">
        <ele>32.6</ele>
        <time>2021-07-19T07:35:42Z</time>
      </trkpt>
      <trkpt lat="43.4420690" lon="-4.9453300">
        <ele>32.2</ele>
        <time>2021-07-19T07:35:43Z</time>
      </trkpt>
      <trkpt lat="43.4420740" lon="-4.9453590">
        <ele>31.6</ele>
        <time>2021-07-19T07:35:44Z</time>
      </trkpt>
      <trkpt lat="43.4420810" lon="-4.9453840">
        <ele>31.2</ele>
        <time>2021-07-19T07:35:45Z</time>
      </trkpt>
      <trkpt lat="43.4420870" lon="-4.9454050">
        <ele>30.8</ele>
        <time>2021-07-19T07:35:46Z</time>
      </trkpt>
      <trkpt lat="43.4421190" lon="-4.9454950">
        <ele>30.4</ele>
        <time>2021-07-19T07:35:49Z</time>
      </trkpt>
      <trkpt lat="43.4421390" lon="-4.9455190">
        <ele>29.4</ele>
        <time>2021-07-19T07:35:50Z</time>
      </trkpt>
      <trkpt lat="43.4421620" lon="-4.9455420">
        <ele>29.0</ele>
        <time>2021-07-19T07:35:51Z</time>
      </trkpt>
      <trkpt lat="43.4421880" lon="-4.9455620">
        <ele>28.6</ele>
        <time>2021-07-19T07:35:52Z</time>
      </trkpt>
      <trkpt lat="43.4422400" lon="-4.9456020">
        <ele>28.2</ele>
        <time>2021-07-19T07:35:54Z</time>
      </trkpt>
      <trkpt lat="43.4422660" lon="-4.9456260">
        <ele>27.8</ele>
        <time>2021-07-19T07:35:55Z</time>
      </trkpt>
      <trkpt lat="43.4422940" lon="-4.9456580">
        <ele>27.4</ele>
        <time>2021-07-19T07:35:56Z</time>
      </trkpt>
      <trkpt lat="43.4423290" lon="-4.9456990">
        <ele>26.8</ele>
        <time>2021-07-19T07:35:57Z</time>
      </trkpt>
      <trkpt lat="43.4423620" lon="-4.9457410">
        <ele>26.4</ele>
        <time>2021-07-19T07:35:58Z</time>
      </trkpt>
      <trkpt lat="43.4425280" lon="-4.9459160">
        <ele>26.4</ele>
        <time>2021-07-19T07:36:03Z</time>
      </trkpt>
      <trkpt lat="43.4425650" lon="-4.9459440">
        <ele>26.4</ele>
        <time>2021-07-19T07:36:07Z</time>
      </trkpt>
      <trkpt lat="43.4426020" lon="-4.9459720">
        <ele>26.4</ele>
        <time>2021-07-19T07:36:08Z</time>
      </trkpt>
      <trkpt lat="43.4426390" lon="-4.9460000">
        <ele>26.4</ele>
        <time>2021-07-19T07:36:09Z</time>
      </trkpt>
      <trkpt lat="43.4426760" lon="-4.9460290">
        <ele>26.4</ele>
        <time>2021-07-19T07:36:10Z</time>
      </trkpt>
      <trkpt lat="43.4427130" lon="-4.9460570">
        <ele>26.4</ele>
        <time>2021-07-19T07:36:11Z</time>
      </trkpt>
      <trkpt lat="43.4427500" lon="-4.9460850">
        <ele>26.4</ele>
        <time>2021-07-19T07:36:13Z</time>
      </trkpt>
      <trkpt lat="43.4427820" lon="-4.9461830">
        <ele>26.4</ele>
        <time>2021-07-19T07:36:16Z</time>
      </trkpt>
      <trkpt lat="43.4427800" lon="-4.9462350">
        <ele>26.4</ele>
        <time>2021-07-19T07:36:18Z</time>
      </trkpt>
      <trkpt lat="43.4427610" lon="-4.9462810">
        <ele>26.4</ele>
        <time>2021-07-19T07:36:20Z</time>
      </trkpt>
      <trkpt lat="43.4427350" lon="-4.9463230">
        <ele>26.4</ele>
        <time>2021-07-19T07:36:22Z</time>
      </trkpt>
      <trkpt lat="43.4427080" lon="-4.9463690">
        <ele>26.4</ele>
        <time>2021-07-19T07:36:25Z</time>
      </trkpt>
      <trkpt lat="43.4426740" lon="-4.9464090">
        <ele>26.4</ele>
        <time>2021-07-19T07:36:28Z</time>
      </trkpt>
      <trkpt lat="43.4426490" lon="-4.9464700">
        <ele>26.8</ele>
        <time>2021-07-19T07:36:31Z</time>
      </trkpt>
      <trkpt lat="43.4426380" lon="-4.9464870">
        <ele>27.2</ele>
        <time>2021-07-19T07:36:32Z</time>
      </trkpt>
      <trkpt lat="43.4426280" lon="-4.9465070">
        <ele>27.6</ele>
        <time>2021-07-19T07:36:33Z</time>
      </trkpt>
      <trkpt lat="43.4426180" lon="-4.9465290">
        <ele>28.0</ele>
        <time>2021-07-19T07:36:34Z</time>
      </trkpt>
      <trkpt lat="43.4426080" lon="-4.9465510">
        <ele>28.4</ele>
        <time>2021-07-19T07:36:35Z</time>
      </trkpt>
      <trkpt lat="43.4425960" lon="-4.9465990">
        <ele>28.4</ele>
        <time>2021-07-19T07:36:37Z</time>
      </trkpt>
      <trkpt lat="43.4425790" lon="-4.9466430">
        <ele>28.4</ele>
        <time>2021-07-19T07:36:39Z</time>
      </trkpt>
      <trkpt lat="43.4425400" lon="-4.9467880">
        <ele>28.4</ele>
        <time>2021-07-19T07:36:46Z</time>
      </trkpt>
      <trkpt lat="43.4425340" lon="-4.9468110">
        <ele>28.8</ele>
        <time>2021-07-19T07:36:47Z</time>
      </trkpt>
      <trkpt lat="43.4425250" lon="-4.9468310">
        <ele>29.2</ele>
        <time>2021-07-19T07:36:48Z</time>
      </trkpt>
      <trkpt lat="43.4425210" lon="-4.9468550">
        <ele>29.6</ele>
        <time>2021-07-19T07:36:49Z</time>
      </trkpt>
      <trkpt lat="43.4425170" lon="-4.9468760">
        <ele>30.0</ele>
        <time>2021-07-19T07:36:50Z</time>
      </trkpt>
      <trkpt lat="43.4425140" lon="-4.9469010">
        <ele>30.4</ele>
        <time>2021-07-19T07:36:51Z</time>
      </trkpt>
      <trkpt lat="43.4424900" lon="-4.9469840">
        <ele>30.4</ele>
        <time>2021-07-19T07:36:55Z</time>
      </trkpt>
      <trkpt lat="43.4424740" lon="-4.9470490">
        <ele>31.0</ele>
        <time>2021-07-19T07:36:58Z</time>
      </trkpt>
      <trkpt lat="43.4424640" lon="-4.9470730">
        <ele>31.4</ele>
        <time>2021-07-19T07:36:59Z</time>
      </trkpt>
      <trkpt lat="43.4424570" lon="-4.9470990">
        <ele>31.8</ele>
        <time>2021-07-19T07:37:00Z</time>
      </trkpt>
      <trkpt lat="43.4424480" lon="-4.9471200">
        <ele>32.2</ele>
        <time>2021-07-19T07:37:01Z</time>
      </trkpt>
      <trkpt lat="43.4424420" lon="-4.9471410">
        <ele>32.6</ele>
        <time>2021-07-19T07:37:02Z</time>
      </trkpt>
      <trkpt lat="43.4424370" lon="-4.9471770">
        <ele>32.6</ele>
        <time>2021-07-19T07:37:04Z</time>
      </trkpt>
      <trkpt lat="43.4424150" lon="-4.9472570">
        <ele>33.0</ele>
        <time>2021-07-19T07:37:08Z</time>
      </trkpt>
      <trkpt lat="43.4424080" lon="-4.9472760">
        <ele>33.4</ele>
        <time>2021-07-19T07:37:09Z</time>
      </trkpt>
      <trkpt lat="43.4424050" lon="-4.9472990">
        <ele>33.8</ele>
        <time>2021-07-19T07:37:10Z</time>
      </trkpt>
      <trkpt lat="43.4424040" lon="-4.9473170">
        <ele>34.2</ele>
        <time>2021-07-19T07:37:11Z</time>
      </trkpt>
      <trkpt lat="43.4424000" lon="-4.9473390">
        <ele>34.6</ele>
        <time>2021-07-19T07:37:12Z</time>
      </trkpt>
      <trkpt lat="43.4423760" lon="-4.9475120">
        <ele>35.0</ele>
        <time>2021-07-19T07:37:20Z</time>
      </trkpt>
      <trkpt lat="43.4423720" lon="-4.9475380">
        <ele>35.4</ele>
        <time>2021-07-19T07:37:21Z</time>
      </trkpt>
      <trkpt lat="43.4423660" lon="-4.9475630">
        <ele>36.0</ele>
        <time>2021-07-19T07:37:22Z</time>
      </trkpt>
      <trkpt lat="43.4423610" lon="-4.9475840">
        <ele>36.4</ele>
        <time>2021-07-19T07:37:23Z</time>
      </trkpt>
      <trkpt lat="43.4423590" lon="-4.9476070">
        <ele>36.8</ele>
        <time>2021-07-19T07:37:24Z</time>
      </trkpt>
      <trkpt lat="43.4423370" lon="-4.9477220">
        <ele>36.8</ele>
        <time>2021-07-19T07:37:28Z</time>
      </trkpt>
      <trkpt lat="43.4422680" lon="-4.9479220">
        <ele>36.8</ele>
        <time>2021-07-19T07:37:34Z</time>
      </trkpt>
      <trkpt lat="43.4422280" lon="-4.9480950">
        <ele>36.8</ele>
        <time>2021-07-19T07:37:38Z</time>
      </trkpt>
      <trkpt lat="43.4422040" lon="-4.9482050">
        <ele>36.8</ele>
        <time>2021-07-19T07:37:40Z</time>
      </trkpt>
      <trkpt lat="43.4421820" lon="-4.9483220">
        <ele>36.8</ele>
        <time>2021-07-19T07:37:42Z</time>
      </trkpt>
      <trkpt lat="43.4421430" lon="-4.9484560">
        <ele>36.8</ele>
        <time>2021-07-19T07:37:45Z</time>
      </trkpt>
      <trkpt lat="43.4421290" lon="-4.9484890">
        <ele>36.8</ele>
        <time>2021-07-19T07:37:46Z</time>
      </trkpt>
      <trkpt lat="43.4420870" lon="-4.9486680">
        <ele>36.8</ele>
        <time>2021-07-19T07:37:52Z</time>
      </trkpt>
      <trkpt lat="43.4420420" lon="-4.9488140">
        <ele>36.8</ele>
        <time>2021-07-19T07:37:56Z</time>
      </trkpt>
      <trkpt lat="43.4420030" lon="-4.9489280">
        <ele>36.8</ele>
        <time>2021-07-19T07:37:59Z</time>
      </trkpt>
      <trkpt lat="43.4419690" lon="-4.9490100">
        <ele>36.8</ele>
        <time>2021-07-19T07:38:01Z</time>
      </trkpt>
      <trkpt lat="43.4419350" lon="-4.9490910">
        <ele>36.8</ele>
        <time>2021-07-19T07:38:03Z</time>
      </trkpt>
      <trkpt lat="43.4419010" lon="-4.9491790">
        <ele>36.8</ele>
        <time>2021-07-19T07:38:05Z</time>
      </trkpt>
      <trkpt lat="43.4418640" lon="-4.9492980">
        <ele>36.8</ele>
        <time>2021-07-19T07:38:08Z</time>
      </trkpt>
      <trkpt lat="43.4418220" lon="-4.9493890">
        <ele>36.8</ele>
        <time>2021-07-19T07:38:11Z</time>
      </trkpt>
      <trkpt lat="43.4417220" lon="-4.9496730">
        <ele>36.8</ele>
        <time>2021-07-19T07:38:18Z</time>
      </trkpt>
      <trkpt lat="43.4416650" lon="-4.9498480">
        <ele>36.8</ele>
        <time>2021-07-19T07:38:22Z</time>
      </trkpt>
      <trkpt lat="43.4416460" lon="-4.9498960">
        <ele>36.8</ele>
        <time>2021-07-19T07:38:23Z</time>
      </trkpt>
      <trkpt lat="43.4415920" lon="-4.9500700">
        <ele>36.4</ele>
        <time>2021-07-19T07:38:27Z</time>
      </trkpt>
      <trkpt lat="43.4415790" lon="-4.9501140">
        <ele>36.0</ele>
        <time>2021-07-19T07:38:28Z</time>
      </trkpt>
      <trkpt lat="43.4415650" lon="-4.9501580">
        <ele>35.6</ele>
        <time>2021-07-19T07:38:29Z</time>
      </trkpt>
      <trkpt lat="43.4415520" lon="-4.9502040">
        <ele>35.2</ele>
        <time>2021-07-19T07:38:30Z</time>
      </trkpt>
      <trkpt lat="43.4415380" lon="-4.9502470">
        <ele>34.8</ele>
        <time>2021-07-19T07:38:31Z</time>
      </trkpt>
      <trkpt lat="43.4414950" lon="-4.9503690">
        <ele>34.8</ele>
        <time>2021-07-19T07:38:34Z</time>
      </trkpt>
      <trkpt lat="43.4414720" lon="-4.9504510">
        <ele>34.8</ele>
        <time>2021-07-19T07:38:36Z</time>
      </trkpt>
      <trkpt lat="43.4413970" lon="-4.9507000">
        <ele>34.8</ele>
        <time>2021-07-19T07:38:42Z</time>
      </trkpt>
      <trkpt lat="43.4413400" lon="-4.9508990">
        <ele>34.8</ele>
        <time>2021-07-19T07:38:47Z</time>
      </trkpt>
      <trkpt lat="43.4413220" lon="-4.9509810">
        <ele>34.8</ele>
        <time>2021-07-19T07:38:49Z</time>
      </trkpt>
      <trkpt lat="43.4413130" lon="-4.9510710">
        <ele>34.8</ele>
        <time>2021-07-19T07:38:52Z</time>
      </trkpt>
      <trkpt lat="43.4412930" lon="-4.9511330">
        <ele>34.8</ele>
        <time>2021-07-19T07:38:54Z</time>
      </trkpt>
      <trkpt lat="43.4412630" lon="-4.9512360">
        <ele>34.8</ele>
        <time>2021-07-19T07:38:57Z</time>
      </trkpt>
      <trkpt lat="43.4412370" lon="-4.9513230">
        <ele>35.2</ele>
        <time>2021-07-19T07:39:00Z</time>
      </trkpt>
      <trkpt lat="43.4412290" lon="-4.9513490">
        <ele>35.6</ele>
        <time>2021-07-19T07:39:01Z</time>
      </trkpt>
      <trkpt lat="43.4412200" lon="-4.9513760">
        <ele>36.0</ele>
        <time>2021-07-19T07:39:02Z</time>
      </trkpt>
      <trkpt lat="43.4412080" lon="-4.9514030">
        <ele>36.6</ele>
        <time>2021-07-19T07:39:03Z</time>
      </trkpt>
      <trkpt lat="43.4411970" lon="-4.9514290">
        <ele>37.0</ele>
        <time>2021-07-19T07:39:04Z</time>
      </trkpt>
      <trkpt lat="43.4411680" lon="-4.9515040">
        <ele>37.0</ele>
        <time>2021-07-19T07:39:07Z</time>
      </trkpt>
      <trkpt lat="43.4411440" lon="-4.9515720">
        <ele>37.0</ele>
        <time>2021-07-19T07:39:09Z</time>
      </trkpt>
      <trkpt lat="43.4411080" lon="-4.9516920">
        <ele>37.0</ele>
        <time>2021-07-19T07:39:11Z</time>
      </trkpt>
      <trkpt lat="43.4410770" lon="-4.9518380">
        <ele>37.0</ele>
        <time>2021-07-19T07:39:13Z</time>
      </trkpt>
      <trkpt lat="43.4410300" lon="-4.9520270">
        <ele>37.0</ele>
        <time>2021-07-19T07:39:16Z</time>
      </trkpt>
      <trkpt lat="43.4409970" lon="-4.9521600">
        <ele>37.0</ele>
        <time>2021-07-19T07:39:19Z</time>
      </trkpt>
      <trkpt lat="43.4409560" lon="-4.9523540">
        <ele>37.0</ele>
        <time>2021-07-19T07:39:25Z</time>
      </trkpt>
      <trkpt lat="43.4409380" lon="-4.9524370">
        <ele>37.4</ele>
        <time>2021-07-19T07:39:28Z</time>
      </trkpt>
      <trkpt lat="43.4409340" lon="-4.9524620">
        <ele>37.8</ele>
        <time>2021-07-19T07:39:29Z</time>
      </trkpt>
      <trkpt lat="43.4409290" lon="-4.9524890">
        <ele>38.2</ele>
        <time>2021-07-19T07:39:30Z</time>
      </trkpt>
      <trkpt lat="43.4409250" lon="-4.9525210">
        <ele>38.6</ele>
        <time>2021-07-19T07:39:31Z</time>
      </trkpt>
      <trkpt lat="43.4409210" lon="-4.9525500">
        <ele>39.0</ele>
        <time>2021-07-19T07:39:32Z</time>
      </trkpt>
      <trkpt lat="43.4408650" lon="-4.9528190">
        <ele>39.0</ele>
        <time>2021-07-19T07:39:40Z</time>
      </trkpt>
      <trkpt lat="43.4408040" lon="-4.9530480">
        <ele>39.0</ele>
        <time>2021-07-19T07:39:44Z</time>
      </trkpt>
      <trkpt lat="43.4407910" lon="-4.9531100">
        <ele>39.0</ele>
        <time>2021-07-19T07:39:45Z</time>
      </trkpt>
      <trkpt lat="43.4407680" lon="-4.9532240">
        <ele>39.0</ele>
        <time>2021-07-19T07:39:47Z</time>
      </trkpt>
      <trkpt lat="43.4407460" lon="-4.9533280">
        <ele>39.0</ele>
        <time>2021-07-19T07:39:49Z</time>
      </trkpt>
      <trkpt lat="43.4407160" lon="-4.9534710">
        <ele>39.0</ele>
        <time>2021-07-19T07:39:52Z</time>
      </trkpt>
      <trkpt lat="43.4406860" lon="-4.9536320">
        <ele>39.0</ele>
        <time>2021-07-19T07:39:56Z</time>
      </trkpt>
      <trkpt lat="43.4406550" lon="-4.9537900">
        <ele>39.0</ele>
        <time>2021-07-19T07:40:00Z</time>
      </trkpt>
      <trkpt lat="43.4406200" lon="-4.9539940">
        <ele>39.0</ele>
        <time>2021-07-19T07:40:05Z</time>
      </trkpt>
      <trkpt lat="43.4406080" lon="-4.9540660">
        <ele>39.0</ele>
        <time>2021-07-19T07:40:07Z</time>
      </trkpt>
      <trkpt lat="43.4405740" lon="-4.9543310">
        <ele>39.0</ele>
        <time>2021-07-19T07:40:14Z</time>
      </trkpt>
      <trkpt lat="43.4405330" lon="-4.9546940">
        <ele>39.0</ele>
        <time>2021-07-19T07:40:22Z</time>
      </trkpt>
      <trkpt lat="43.4405270" lon="-4.9548170">
        <ele>39.0</ele>
        <time>2021-07-19T07:40:25Z</time>
      </trkpt>
      <trkpt lat="43.4405330" lon="-4.9548960">
        <ele>39.0</ele>
        <time>2021-07-19T07:40:27Z</time>
      </trkpt>
      <trkpt lat="43.4405420" lon="-4.9549430">
        <ele>39.0</ele>
        <time>2021-07-19T07:40:28Z</time>
      </trkpt>
      <trkpt lat="43.4405500" lon="-4.9550530">
        <ele>38.6</ele>
        <time>2021-07-19T07:40:30Z</time>
      </trkpt>
      <trkpt lat="43.4405460" lon="-4.9551070">
        <ele>38.2</ele>
        <time>2021-07-19T07:40:31Z</time>
      </trkpt>
      <trkpt lat="43.4405420" lon="-4.9551530">
        <ele>37.8</ele>
        <time>2021-07-19T07:40:32Z</time>
      </trkpt>
      <trkpt lat="43.4405340" lon="-4.9551900">
        <ele>37.4</ele>
        <time>2021-07-19T07:40:33Z</time>
      </trkpt>
      <trkpt lat="43.4405260" lon="-4.9552240">
        <ele>36.8</ele>
        <time>2021-07-19T07:40:34Z</time>
      </trkpt>
      <trkpt lat="43.4405190" lon="-4.9553070">
        <ele>36.8</ele>
        <time>2021-07-19T07:40:37Z</time>
      </trkpt>
      <trkpt lat="43.4405060" lon="-4.9553750">
        <ele>36.8</ele>
        <time>2021-07-19T07:40:39Z</time>
      </trkpt>
      <trkpt lat="43.4404930" lon="-4.9556180">
        <ele>36.8</ele>
        <time>2021-07-19T07:40:43Z</time>
      </trkpt>
      <trkpt lat="43.4404880" lon="-4.9557540">
        <ele>36.8</ele>
        <time>2021-07-19T07:40:45Z</time>
      </trkpt>
      <trkpt lat="43.4404940" lon="-4.9559890">
        <ele>36.8</ele>
        <time>2021-07-19T07:40:49Z</time>
      </trkpt>
      <trkpt lat="43.4404880" lon="-4.9562830">
        <ele>36.8</ele>
        <time>2021-07-19T07:40:54Z</time>
      </trkpt>
      <trkpt lat="43.4404640" lon="-4.9564070">
        <ele>36.8</ele>
        <time>2021-07-19T07:40:56Z</time>
      </trkpt>
      <trkpt lat="43.4404430" lon="-4.9565470">
        <ele>36.8</ele>
        <time>2021-07-19T07:40:58Z</time>
      </trkpt>
      <trkpt lat="43.4404250" lon="-4.9566940">
        <ele>36.4</ele>
        <time>2021-07-19T07:41:01Z</time>
      </trkpt>
      <trkpt lat="43.4404330" lon="-4.9567370">
        <ele>36.0</ele>
        <time>2021-07-19T07:41:02Z</time>
      </trkpt>
      <trkpt lat="43.4404440" lon="-4.9567820">
        <ele>35.6</ele>
        <time>2021-07-19T07:41:03Z</time>
      </trkpt>
      <trkpt lat="43.4404500" lon="-4.9568300">
        <ele>35.2</ele>
        <time>2021-07-19T07:41:04Z</time>
      </trkpt>
      <trkpt lat="43.4404550" lon="-4.9568870">
        <ele>34.6</ele>
        <time>2021-07-19T07:41:05Z</time>
      </trkpt>
      <trkpt lat="43.4404570" lon="-4.9569990">
        <ele>34.6</ele>
        <time>2021-07-19T07:41:07Z</time>
      </trkpt>
      <trkpt lat="43.4404420" lon="-4.9570950">
        <ele>34.6</ele>
        <time>2021-07-19T07:41:09Z</time>
      </trkpt>
      <trkpt lat="43.4404010" lon="-4.9572330">
        <ele>34.6</ele>
        <time>2021-07-19T07:41:12Z</time>
      </trkpt>
      <trkpt lat="43.4403330" lon="-4.9574830">
        <ele>34.6</ele>
        <time>2021-07-19T07:41:17Z</time>
      </trkpt>
      <trkpt lat="43.4403320" lon="-4.9575490">
        <ele>34.6</ele>
        <time>2021-07-19T07:41:18Z</time>
      </trkpt>
      <trkpt lat="43.4403300" lon="-4.9578160">
        <ele>34.6</ele>
        <time>2021-07-19T07:41:22Z</time>
      </trkpt>
      <trkpt lat="43.4403350" lon="-4.9578710">
        <ele>34.6</ele>
        <time>2021-07-19T07:41:23Z</time>
      </trkpt>
      <trkpt lat="43.4403400" lon="-4.9581140">
        <ele>34.6</ele>
        <time>2021-07-19T07:41:27Z</time>
      </trkpt>
      <trkpt lat="43.4403650" lon="-4.9583150">
        <ele>34.6</ele>
        <time>2021-07-19T07:41:30Z</time>
      </trkpt>
      <trkpt lat="43.4403880" lon="-4.9584990">
        <ele>34.6</ele>
        <time>2021-07-19T07:41:33Z</time>
      </trkpt>
      <trkpt lat="43.4404050" lon="-4.9587450">
        <ele>34.6</ele>
        <time>2021-07-19T07:41:37Z</time>
      </trkpt>
      <trkpt lat="43.4404480" lon="-4.9590170">
        <ele>34.6</ele>
        <time>2021-07-19T07:41:42Z</time>
      </trkpt>
      <trkpt lat="43.4404630" lon="-4.9591100">
        <ele>34.6</ele>
        <time>2021-07-19T07:41:44Z</time>
      </trkpt>
      <trkpt lat="43.4405130" lon="-4.9593500">
        <ele>35.0</ele>
        <time>2021-07-19T07:41:49Z</time>
      </trkpt>
      <trkpt lat="43.4405230" lon="-4.9593950">
        <ele>35.4</ele>
        <time>2021-07-19T07:41:50Z</time>
      </trkpt>
      <trkpt lat="43.4405340" lon="-4.9594420">
        <ele>35.8</ele>
        <time>2021-07-19T07:41:51Z</time>
      </trkpt>
      <trkpt lat="43.4405470" lon="-4.9594870">
        <ele>36.4</ele>
        <time>2021-07-19T07:41:52Z</time>
      </trkpt>
      <trkpt lat="43.4405620" lon="-4.9595350">
        <ele>36.8</ele>
        <time>2021-07-19T07:41:53Z</time>
      </trkpt>
      <trkpt lat="43.4406290" lon="-4.9597940">
        <ele>36.8</ele>
        <time>2021-07-19T07:41:58Z</time>
      </trkpt>
      <trkpt lat="43.4407460" lon="-4.9602290">
        <ele>36.8</ele>
        <time>2021-07-19T07:42:05Z</time>
      </trkpt>
      <trkpt lat="43.4407640" lon="-4.9603070">
        <ele>36.8</ele>
        <time>2021-07-19T07:42:06Z</time>
      </trkpt>
      <trkpt lat="43.4408060" lon="-4.9604520">
        <ele>36.8</ele>
        <time>2021-07-19T07:42:08Z</time>
      </trkpt>
      <trkpt lat="43.4408340" lon="-4.9605120">
        <ele>36.8</ele>
        <time>2021-07-19T07:42:09Z</time>
      </trkpt>
      <trkpt lat="43.4408660" lon="-4.9605450">
        <ele>36.2</ele>
        <time>2021-07-19T07:42:10Z</time>
      </trkpt>
      <trkpt lat="43.4408940" lon="-4.9605800">
        <ele>35.8</ele>
        <time>2021-07-19T07:42:11Z</time>
      </trkpt>
      <trkpt lat="43.4409250" lon="-4.9606200">
        <ele>35.2</ele>
        <time>2021-07-19T07:42:12Z</time>
      </trkpt>
      <trkpt lat="43.4409620" lon="-4.9606560">
        <ele>34.8</ele>
        <time>2021-07-19T07:42:13Z</time>
      </trkpt>
      <trkpt lat="43.4409920" lon="-4.9606840">
        <ele>34.2</ele>
        <time>2021-07-19T07:42:14Z</time>
      </trkpt>
      <trkpt lat="43.4410520" lon="-4.9607240">
        <ele>34.2</ele>
        <time>2021-07-19T07:42:16Z</time>
      </trkpt>
      <trkpt lat="43.4410880" lon="-4.9607430">
        <ele>34.2</ele>
        <time>2021-07-19T07:42:17Z</time>
      </trkpt>
      <trkpt lat="43.4412370" lon="-4.9608320">
        <ele>34.2</ele>
        <time>2021-07-19T07:42:21Z</time>
      </trkpt>
      <trkpt lat="43.4413200" lon="-4.9608930">
        <ele>34.2</ele>
        <time>2021-07-19T07:42:23Z</time>
      </trkpt>
      <trkpt lat="43.4413590" lon="-4.9609140">
        <ele>34.2</ele>
        <time>2021-07-19T07:42:24Z</time>
      </trkpt>
      <trkpt lat="43.4415960" lon="-4.9610410">
        <ele>33.8</ele>
        <time>2021-07-19T07:42:30Z</time>
      </trkpt>
      <trkpt lat="43.4416390" lon="-4.9610710">
        <ele>33.4</ele>
        <time>2021-07-19T07:42:31Z</time>
      </trkpt>
      <trkpt lat="43.4416810" lon="-4.9610960">
        <ele>33.0</ele>
        <time>2021-07-19T07:42:32Z</time>
      </trkpt>
      <trkpt lat="43.4417260" lon="-4.9611170">
        <ele>32.6</ele>
        <time>2021-07-19T07:42:33Z</time>
      </trkpt>
      <trkpt lat="43.4417700" lon="-4.9611350">
        <ele>32.2</ele>
        <time>2021-07-19T07:42:34Z</time>
      </trkpt>
      <trkpt lat="43.4419000" lon="-4.9611830">
        <ele>32.2</ele>
        <time>2021-07-19T07:42:37Z</time>
      </trkpt>
      <trkpt lat="43.4419410" lon="-4.9611980">
        <ele>32.2</ele>
        <time>2021-07-19T07:42:38Z</time>
      </trkpt>
      <trkpt lat="43.4419840" lon="-4.9612090">
        <ele>32.2</ele>
        <time>2021-07-19T07:42:39Z</time>
      </trkpt>
      <trkpt lat="43.4421640" lon="-4.9612560">
        <ele>32.2</ele>
        <time>2021-07-19T07:42:43Z</time>
      </trkpt>
      <trkpt lat="43.4422580" lon="-4.9612800">
        <ele>32.2</ele>
        <time>2021-07-19T07:42:45Z</time>
      </trkpt>
      <trkpt lat="43.4424380" lon="-4.9613420">
        <ele>32.2</ele>
        <time>2021-07-19T07:42:49Z</time>
      </trkpt>
      <trkpt lat="43.4425670" lon="-4.9614170">
        <ele>32.2</ele>
        <time>2021-07-19T07:42:52Z</time>
      </trkpt>
      <trkpt lat="43.4426880" lon="-4.9615150">
        <ele>32.2</ele>
        <time>2021-07-19T07:42:55Z</time>
      </trkpt>
      <trkpt lat="43.4430460" lon="-4.9619050">
        <ele>32.2</ele>
        <time>2021-07-19T07:43:05Z</time>
      </trkpt>
      <trkpt lat="43.4431180" lon="-4.9620370">
        <ele>32.2</ele>
        <time>2021-07-19T07:43:09Z</time>
      </trkpt>
      <trkpt lat="43.4431160" lon="-4.9620600">
        <ele>32.2</ele>
        <time>2021-07-19T07:43:12Z</time>
      </trkpt>
      <trkpt lat="43.4430940" lon="-4.9621100">
        <ele>32.2</ele>
        <time>2021-07-19T07:43:15Z</time>
      </trkpt>
      <trkpt lat="43.4430790" lon="-4.9621310">
        <ele>32.2</ele>
        <time>2021-07-19T07:43:16Z</time>
      </trkpt>
      <trkpt lat="43.4430570" lon="-4.9621830">
        <ele>31.8</ele>
        <time>2021-07-19T07:43:18Z</time>
      </trkpt>
      <trkpt lat="43.4430480" lon="-4.9622110">
        <ele>31.2</ele>
        <time>2021-07-19T07:43:19Z</time>
      </trkpt>
      <trkpt lat="43.4430420" lon="-4.9622400">
        <ele>30.8</ele>
        <time>2021-07-19T07:43:20Z</time>
      </trkpt>
      <trkpt lat="43.4430320" lon="-4.9622710">
        <ele>30.4</ele>
        <time>2021-07-19T07:43:21Z</time>
      </trkpt>
      <trkpt lat="43.4430230" lon="-4.9623080">
        <ele>30.0</ele>
        <time>2021-07-19T07:43:22Z</time>
      </trkpt>
      <trkpt lat="43.4430160" lon="-4.9624420">
        <ele>30.0</ele>
        <time>2021-07-19T07:43:25Z</time>
      </trkpt>
      <trkpt lat="43.4430160" lon="-4.9624920">
        <ele>30.0</ele>
        <time>2021-07-19T07:43:26Z</time>
      </trkpt>
      <trkpt lat="43.4430190" lon="-4.9626480">
        <ele>30.0</ele>
        <time>2021-07-19T07:43:29Z</time>
      </trkpt>
      <trkpt lat="43.4430300" lon="-4.9628620">
        <ele>30.0</ele>
        <time>2021-07-19T07:43:33Z</time>
      </trkpt>
      <trkpt lat="43.4430660" lon="-4.9629850">
        <ele>30.0</ele>
        <time>2021-07-19T07:43:36Z</time>
      </trkpt>
      <trkpt lat="43.4430980" lon="-4.9630640">
        <ele>30.0</ele>
        <time>2021-07-19T07:43:38Z</time>
      </trkpt>
      <trkpt lat="43.4431790" lon="-4.9632160">
        <ele>30.0</ele>
        <time>2021-07-19T07:43:42Z</time>
      </trkpt>
      <trkpt lat="43.4432150" lon="-4.9633010">
        <ele>30.0</ele>
        <time>2021-07-19T07:43:44Z</time>
      </trkpt>
      <trkpt lat="43.4433170" lon="-4.9635390">
        <ele>30.0</ele>
        <time>2021-07-19T07:43:50Z</time>
      </trkpt>
      <trkpt lat="43.4433390" lon="-4.9635780">
        <ele>30.0</ele>
        <time>2021-07-19T07:43:51Z</time>
      </trkpt>
      <trkpt lat="43.4433810" lon="-4.9636570">
        <ele>30.0</ele>
        <time>2021-07-19T07:43:53Z</time>
      </trkpt>
      <trkpt lat="43.4434940" lon="-4.9638260">
        <ele>30.0</ele>
        <time>2021-07-19T07:43:58Z</time>
      </trkpt>
      <trkpt lat="43.4435770" lon="-4.9639280">
        <ele>30.0</ele>
        <time>2021-07-19T07:44:02Z</time>
      </trkpt>
      <trkpt lat="43.4436120" lon="-4.9640040">
        <ele>30.0</ele>
        <time>2021-07-19T07:44:05Z</time>
      </trkpt>
      <trkpt lat="43.4436500" lon="-4.9641070">
        <ele>30.0</ele>
        <time>2021-07-19T07:44:09Z</time>
      </trkpt>
      <trkpt lat="43.4436580" lon="-4.9641320">
        <ele>30.4</ele>
        <time>2021-07-19T07:44:10Z</time>
      </trkpt>
      <trkpt lat="43.4436680" lon="-4.9641570">
        <ele>30.8</ele>
        <time>2021-07-19T07:44:11Z</time>
      </trkpt>
      <trkpt lat="43.4436720" lon="-4.9641830">
        <ele>31.2</ele>
        <time>2021-07-19T07:44:12Z</time>
      </trkpt>
      <trkpt lat="43.4436760" lon="-4.9642060">
        <ele>31.6</ele>
        <time>2021-07-19T07:44:13Z</time>
      </trkpt>
      <trkpt lat="43.4436780" lon="-4.9642280">
        <ele>32.0</ele>
        <time>2021-07-19T07:44:14Z</time>
      </trkpt>
      <trkpt lat="43.4436960" lon="-4.9643010">
        <ele>32.0</ele>
        <time>2021-07-19T07:44:17Z</time>
      </trkpt>
      <trkpt lat="43.4437210" lon="-4.9643710">
        <ele>32.0</ele>
        <time>2021-07-19T07:44:20Z</time>
      </trkpt>
      <trkpt lat="43.4437280" lon="-4.9643910">
        <ele>32.4</ele>
        <time>2021-07-19T07:44:21Z</time>
      </trkpt>
      <trkpt lat="43.4437350" lon="-4.9644110">
        <ele>32.8</ele>
        <time>2021-07-19T07:44:22Z</time>
      </trkpt>
      <trkpt lat="43.4437430" lon="-4.9644330">
        <ele>33.2</ele>
        <time>2021-07-19T07:44:23Z</time>
      </trkpt>
      <trkpt lat="43.4437510" lon="-4.9644530">
        <ele>33.6</ele>
        <time>2021-07-19T07:44:24Z</time>
      </trkpt>
      <trkpt lat="43.4437560" lon="-4.9644740">
        <ele>34.0</ele>
        <time>2021-07-19T07:44:25Z</time>
      </trkpt>
      <trkpt lat="43.4437750" lon="-4.9645620">
        <ele>34.0</ele>
        <time>2021-07-19T07:44:29Z</time>
      </trkpt>
      <trkpt lat="43.4437910" lon="-4.9646250">
        <ele>34.6</ele>
        <time>2021-07-19T07:44:32Z</time>
      </trkpt>
      <trkpt lat="43.4437940" lon="-4.9646460">
        <ele>35.0</ele>
        <time>2021-07-19T07:44:33Z</time>
      </trkpt>
      <trkpt lat="43.4437950" lon="-4.9646680">
        <ele>35.4</ele>
        <time>2021-07-19T07:44:34Z</time>
      </trkpt>
      <trkpt lat="43.4437950" lon="-4.9646880">
        <ele>35.8</ele>
        <time>2021-07-19T07:44:35Z</time>
      </trkpt>
      <trkpt lat="43.4437990" lon="-4.9647110">
        <ele>36.2</ele>
        <time>2021-07-19T07:44:36Z</time>
      </trkpt>
      <trkpt lat="43.4438190" lon="-4.9648320">
        <ele>36.2</ele>
        <time>2021-07-19T07:44:40Z</time>
      </trkpt>
      <trkpt lat="43.4438370" lon="-4.9649500">
        <ele>36.6</ele>
        <time>2021-07-19T07:44:45Z</time>
      </trkpt>
      <trkpt lat="43.4438370" lon="-4.9649700">
        <ele>37.2</ele>
        <time>2021-07-19T07:44:46Z</time>
      </trkpt>
      <trkpt lat="43.4438400" lon="-4.9649860">
        <ele>37.6</ele>
        <time>2021-07-19T07:44:47Z</time>
      </trkpt>
      <trkpt lat="43.4438420" lon="-4.9650040">
        <ele>38.0</ele>
        <time>2021-07-19T07:44:48Z</time>
      </trkpt>
      <trkpt lat="43.4438460" lon="-4.9650270">
        <ele>38.4</ele>
        <time>2021-07-19T07:44:49Z</time>
      </trkpt>
      <trkpt lat="43.4438690" lon="-4.9651170">
        <ele>38.4</ele>
        <time>2021-07-19T07:44:52Z</time>
      </trkpt>
      <trkpt lat="43.4438770" lon="-4.9651930">
        <ele>38.8</ele>
        <time>2021-07-19T07:44:55Z</time>
      </trkpt>
      <trkpt lat="43.4438820" lon="-4.9652200">
        <ele>39.2</ele>
        <time>2021-07-19T07:44:56Z</time>
      </trkpt>
      <trkpt lat="43.4438860" lon="-4.9652470">
        <ele>39.6</ele>
        <time>2021-07-19T07:44:57Z</time>
      </trkpt>
      <trkpt lat="43.4438920" lon="-4.9652730">
        <ele>40.0</ele>
        <time>2021-07-19T07:44:58Z</time>
      </trkpt>
      <trkpt lat="43.4439000" lon="-4.9653010">
        <ele>40.4</ele>
        <time>2021-07-19T07:44:59Z</time>
      </trkpt>
      <trkpt lat="43.4439340" lon="-4.9654030">
        <ele>40.4</ele>
        <time>2021-07-19T07:45:04Z</time>
      </trkpt>
      <trkpt lat="43.4439990" lon="-4.9655380">
        <ele>40.8</ele>
        <time>2021-07-19T07:45:10Z</time>
      </trkpt>
      <trkpt lat="43.4440070" lon="-4.9655530">
        <ele>41.2</ele>
        <time>2021-07-19T07:45:11Z</time>
      </trkpt>
      <trkpt lat="43.4440140" lon="-4.9655680">
        <ele>41.8</ele>
        <time>2021-07-19T07:45:12Z</time>
      </trkpt>
      <trkpt lat="43.4440200" lon="-4.9655870">
        <ele>42.2</ele>
        <time>2021-07-19T07:45:13Z</time>
      </trkpt>
      <trkpt lat="43.4440220" lon="-4.9656060">
        <ele>42.6</ele>
        <time>2021-07-19T07:45:14Z</time>
      </trkpt>
      <trkpt lat="43.4440370" lon="-4.9657120">
        <ele>43.0</ele>
        <time>2021-07-19T07:45:18Z</time>
      </trkpt>
      <trkpt lat="43.4440440" lon="-4.9657380">
        <ele>43.8</ele>
        <time>2021-07-19T07:45:19Z</time>
      </trkpt>
      <trkpt lat="43.4440490" lon="-4.9657620">
        <ele>44.2</ele>
        <time>2021-07-19T07:45:20Z</time>
      </trkpt>
      <trkpt lat="43.4440540" lon="-4.9657860">
        <ele>44.8</ele>
        <time>2021-07-19T07:45:21Z</time>
      </trkpt>
      <trkpt lat="43.4440600" lon="-4.9658650">
        <ele>45.2</ele>
        <time>2021-07-19T07:45:24Z</time>
      </trkpt>
      <trkpt lat="43.4440600" lon="-4.9658860">
        <ele>45.6</ele>
        <time>2021-07-19T07:45:25Z</time>
      </trkpt>
      <trkpt lat="43.4440600" lon="-4.9659070">
        <ele>46.0</ele>
        <time>2021-07-19T07:45:26Z</time>
      </trkpt>
      <trkpt lat="43.4440570" lon="-4.9659290">
        <ele>46.4</ele>
        <time>2021-07-19T07:45:27Z</time>
      </trkpt>
      <trkpt lat="43.4440600" lon="-4.9659550">
        <ele>46.8</ele>
        <time>2021-07-19T07:45:28Z</time>
      </trkpt>
      <trkpt lat="43.4440710" lon="-4.9660210">
        <ele>47.2</ele>
        <time>2021-07-19T07:45:31Z</time>
      </trkpt>
      <trkpt lat="43.4440700" lon="-4.9660420">
        <ele>47.6</ele>
        <time>2021-07-19T07:45:32Z</time>
      </trkpt>
      <trkpt lat="43.4440710" lon="-4.9660590">
        <ele>48.0</ele>
        <time>2021-07-19T07:45:33Z</time>
      </trkpt>
      <trkpt lat="43.4440730" lon="-4.9660730">
        <ele>48.4</ele>
        <time>2021-07-19T07:45:34Z</time>
      </trkpt>
      <trkpt lat="43.4440010" lon="-4.9673480">
        <ele>61.2</ele>
        <time>2021-07-19T07:47:46Z</time>
      </trkpt>
      <trkpt lat="43.4440390" lon="-4.9673810">
        <ele>61.2</ele>
        <time>2021-07-19T07:47:48Z</time>
      </trkpt>
      <trkpt lat="43.4441560" lon="-4.9674680">
        <ele>61.2</ele>
        <time>2021-07-19T07:47:54Z</time>
      </trkpt>
      <trkpt lat="43.4441920" lon="-4.9674750">
        <ele>61.2</ele>
        <time>2021-07-19T07:47:56Z</time>
      </trkpt>
      <trkpt lat="43.4442040" lon="-4.9674500">
        <ele>61.2</ele>
        <time>2021-07-19T07:47:58Z</time>
      </trkpt>
      <trkpt lat="43.4441840" lon="-4.9674360">
        <ele>61.2</ele>
        <time>2021-07-19T07:48:00Z</time>
      </trkpt>
      <trkpt lat="43.4441560" lon="-4.9674370">
        <ele>61.2</ele>
        <time>2021-07-19T07:48:02Z</time>
      </trkpt>
      <trkpt lat="43.4440960" lon="-4.9674300">
        <ele>61.2</ele>
        <time>2021-07-19T07:48:06Z</time>
      </trkpt>
      <trkpt lat="43.4440810" lon="-4.9674220">
        <ele>61.2</ele>
        <time>2021-07-19T07:48:07Z</time>
      </trkpt>
      <trkpt lat="43.4440110" lon="-4.9673670">
        <ele>61.2</ele>
        <time>2021-07-19T07:48:12Z</time>
      </trkpt>
      <trkpt lat="43.4439900" lon="-4.9673430">
        <ele>61.6</ele>
        <time>2021-07-19T07:48:14Z</time>
      </trkpt>
      <trkpt lat="43.4439810" lon="-4.9673300">
        <ele>62.0</ele>
        <time>2021-07-19T07:48:15Z</time>
      </trkpt>
      <trkpt lat="43.4439690" lon="-4.9673190">
        <ele>62.4</ele>
        <time>2021-07-19T07:48:16Z</time>
      </trkpt>
      <trkpt lat="43.4439570" lon="-4.9673110">
        <ele>62.8</ele>
        <time>2021-07-19T07:48:17Z</time>
      </trkpt>
      <trkpt lat="43.4439440" lon="-4.9673080">
        <ele>63.2</ele>
        <time>2021-07-19T07:48:18Z</time>
      </trkpt>
      <trkpt lat="43.4439350" lon="-4.9673100">
        <ele>63.2</ele>
        <time>2021-07-19T07:48:19Z</time>
      </trkpt>
      <trkpt lat="43.4439270" lon="-4.9673400">
        <ele>63.2</ele>
        <time>2021-07-19T07:48:21Z</time>
      </trkpt>
      <trkpt lat="43.4439160" lon="-4.9673870">
        <ele>63.2</ele>
        <time>2021-07-19T07:48:24Z</time>
      </trkpt>
      <trkpt lat="43.4438880" lon="-4.9674640">
        <ele>63.2</ele>
        <time>2021-07-19T07:48:28Z</time>
      </trkpt>
      <trkpt lat="43.4438600" lon="-4.9675160">
        <ele>63.2</ele>
        <time>2021-07-19T07:48:31Z</time>
      </trkpt>
      <trkpt lat="43.4438500" lon="-4.9675280">
        <ele>63.6</ele>
        <time>2021-07-19T07:48:32Z</time>
      </trkpt>
      <trkpt lat="43.4438420" lon="-4.9675390">
        <ele>64.0</ele>
        <time>2021-07-19T07:48:33Z</time>
      </trkpt>
      <trkpt lat="43.4438320" lon="-4.9675560">
        <ele>64.4</ele>
        <time>2021-07-19T07:48:34Z</time>
      </trkpt>
      <trkpt lat="43.4438240" lon="-4.9675740">
        <ele>64.8</ele>
        <time>2021-07-19T07:48:35Z</time>
      </trkpt>
      <trkpt lat="43.4438210" lon="-4.9675860">
        <ele>65.4</ele>
        <time>2021-07-19T07:48:36Z</time>
      </trkpt>
      <trkpt lat="43.4437710" lon="-4.9677540">
        <ele>65.4</ele>
        <time>2021-07-19T07:49:07Z</time>
      </trkpt>
      <trkpt lat="43.4437650" lon="-4.9677730">
        <ele>65.4</ele>
        <time>2021-07-19T07:49:08Z</time>
      </trkpt>
      <trkpt lat="43.4437560" lon="-4.9678400">
        <ele>65.8</ele>
        <time>2021-07-19T07:49:12Z</time>
      </trkpt>
      <trkpt lat="43.4437550" lon="-4.9678580">
        <ele>66.2</ele>
        <time>2021-07-19T07:49:13Z</time>
      </trkpt>
      <trkpt lat="43.4437510" lon="-4.9678870">
        <ele>66.6</ele>
        <time>2021-07-19T07:49:14Z</time>
      </trkpt>
      <trkpt lat="43.4437470" lon="-4.9679060">
        <ele>67.0</ele>
        <time>2021-07-19T07:49:15Z</time>
      </trkpt>
      <trkpt lat="43.4437440" lon="-4.9679210">
        <ele>67.4</ele>
        <time>2021-07-19T07:49:16Z</time>
      </trkpt>
      <trkpt lat="43.4437270" lon="-4.9680210">
        <ele>67.4</ele>
        <time>2021-07-19T07:49:21Z</time>
      </trkpt>
      <trkpt lat="43.4437230" lon="-4.9680440">
        <ele>67.4</ele>
        <time>2021-07-19T07:49:22Z</time>
      </trkpt>
      <trkpt lat="43.4437020" lon="-4.9681330">
        <ele>67.4</ele>
        <time>2021-07-19T07:49:28Z</time>
      </trkpt>
      <trkpt lat="43.4437010" lon="-4.9681470">
        <ele>67.8</ele>
        <time>2021-07-19T07:49:29Z</time>
      </trkpt>
      <trkpt lat="43.4436970" lon="-4.9681640">
        <ele>68.2</ele>
        <time>2021-07-19T07:49:30Z</time>
      </trkpt>
      <trkpt lat="43.4436920" lon="-4.9681850">
        <ele>68.6</ele>
        <time>2021-07-19T07:49:31Z</time>
      </trkpt>
      <trkpt lat="43.4436870" lon="-4.9682080">
        <ele>69.0</ele>
        <time>2021-07-19T07:49:32Z</time>
      </trkpt>
      <trkpt lat="43.4436810" lon="-4.9682270">
        <ele>69.4</ele>
        <time>2021-07-19T07:49:33Z</time>
      </trkpt>
      <trkpt lat="43.4436700" lon="-4.9682410">
        <ele>69.4</ele>
        <time>2021-07-19T07:49:34Z</time>
      </trkpt>
      <trkpt lat="43.4436570" lon="-4.9682560">
        <ele>69.4</ele>
        <time>2021-07-19T07:49:35Z</time>
      </trkpt>
      <trkpt lat="43.4435600" lon="-4.9683670">
        <ele>69.4</ele>
        <time>2021-07-19T07:49:41Z</time>
      </trkpt>
      <trkpt lat="43.4435510" lon="-4.9683850">
        <ele>69.4</ele>
        <time>2021-07-19T07:49:42Z</time>
      </trkpt>
      <trkpt lat="43.4435440" lon="-4.9684010">
        <ele>69.4</ele>
        <time>2021-07-19T07:49:43Z</time>
      </trkpt>
      <trkpt lat="43.4435520" lon="-4.9684630">
        <ele>69.4</ele>
        <time>2021-07-19T07:49:47Z</time>
      </trkpt>
      <trkpt lat="43.4435590" lon="-4.9684830">
        <ele>69.4</ele>
        <time>2021-07-19T07:49:48Z</time>
      </trkpt>
      <trkpt lat="43.4436330" lon="-4.9686150">
        <ele>69.4</ele>
        <time>2021-07-19T07:49:55Z</time>
      </trkpt>
      <trkpt lat="43.4436430" lon="-4.9686340">
        <ele>69.4</ele>
        <time>2021-07-19T07:49:56Z</time>
      </trkpt>
      <trkpt lat="43.4437330" lon="-4.9687830">
        <ele>69.8</ele>
        <time>2021-07-19T07:50:04Z</time>
      </trkpt>
      <trkpt lat="43.4437430" lon="-4.9688020">
        <ele>70.2</ele>
        <time>2021-07-19T07:50:05Z</time>
      </trkpt>
      <trkpt lat="43.4437530" lon="-4.9688210">
        <ele>70.6</ele>
        <time>2021-07-19T07:50:06Z</time>
      </trkpt>
      <trkpt lat="43.4437630" lon="-4.9688390">
        <ele>71.0</ele>
        <time>2021-07-19T07:50:07Z</time>
      </trkpt>
      <trkpt lat="43.4437750" lon="-4.9688540">
        <ele>71.4</ele>
        <time>2021-07-19T07:50:08Z</time>
      </trkpt>
      <trkpt lat="43.4438130" lon="-4.9689190">
        <ele>71.4</ele>
        <time>2021-07-19T07:50:12Z</time>
      </trkpt>
      <trkpt lat="43.4438610" lon="-4.9689790">
        <ele>72.0</ele>
        <time>2021-07-19T07:50:16Z</time>
      </trkpt>
      <trkpt lat="43.4438700" lon="-4.9689980">
        <ele>72.4</ele>
        <time>2021-07-19T07:50:17Z</time>
      </trkpt>
      <trkpt lat="43.4438790" lon="-4.9690180">
        <ele>72.8</ele>
        <time>2021-07-19T07:50:18Z</time>
      </trkpt>
      <trkpt lat="43.4438870" lon="-4.9690390">
        <ele>73.2</ele>
        <time>2021-07-19T07:50:19Z</time>
      </trkpt>
      <trkpt lat="43.4438940" lon="-4.9690590">
        <ele>73.8</ele>
        <time>2021-07-19T07:50:20Z</time>
      </trkpt>
      <trkpt lat="43.4439260" lon="-4.9691560">
        <ele>73.8</ele>
        <time>2021-07-19T07:50:27Z</time>
      </trkpt>
      <trkpt lat="43.4443770" lon="-4.9700100">
        <ele>88.4</ele>
        <time>2021-07-19T07:53:16Z</time>
      </trkpt>
      <trkpt lat="43.4443670" lon="-4.9700300">
        <ele>88.4</ele>
        <time>2021-07-19T07:53:17Z</time>
      </trkpt>
      <trkpt lat="43.4443450" lon="-4.9700790">
        <ele>88.4</ele>
        <time>2021-07-19T07:53:19Z</time>
      </trkpt>
      <trkpt lat="43.4443350" lon="-4.9702580">
        <ele>88.4</ele>
        <time>2021-07-19T07:53:25Z</time>
      </trkpt>
      <trkpt lat="43.4443300" lon="-4.9703190">
        <ele>88.8</ele>
        <time>2021-07-19T07:53:27Z</time>
      </trkpt>
      <trkpt lat="43.4443260" lon="-4.9703500">
        <ele>89.2</ele>
        <time>2021-07-19T07:53:28Z</time>
      </trkpt>
      <trkpt lat="43.4443230" lon="-4.9703850">
        <ele>89.6</ele>
        <time>2021-07-19T07:53:29Z</time>
      </trkpt>
      <trkpt lat="43.4443220" lon="-4.9704170">
        <ele>90.0</ele>
        <time>2021-07-19T07:53:30Z</time>
      </trkpt>
      <trkpt lat="43.4443200" lon="-4.9704520">
        <ele>90.4</ele>
        <time>2021-07-19T07:53:31Z</time>
      </trkpt>
      <trkpt lat="43.4443210" lon="-4.9705150">
        <ele>90.4</ele>
        <time>2021-07-19T07:53:33Z</time>
      </trkpt>
      <trkpt lat="43.4443050" lon="-4.9705790">
        <ele>90.4</ele>
        <time>2021-07-19T07:53:37Z</time>
      </trkpt>
      <trkpt lat="43.4442750" lon="-4.9706970">
        <ele>90.4</ele>
        <time>2021-07-19T07:54:43Z</time>
      </trkpt>
      <trkpt lat="43.4442730" lon="-4.9707190">
        <ele>90.4</ele>
        <time>2021-07-19T07:54:44Z</time>
      </trkpt>
      <trkpt lat="43.4442700" lon="-4.9707710">
        <ele>90.4</ele>
        <time>2021-07-19T07:54:46Z</time>
      </trkpt>
      <trkpt lat="43.4442610" lon="-4.9708750">
        <ele>90.4</ele>
        <time>2021-07-19T07:54:49Z</time>
      </trkpt>
      <trkpt lat="43.4442480" lon="-4.9709940">
        <ele>90.4</ele>
        <time>2021-07-19T07:54:52Z</time>
      </trkpt>
      <trkpt lat="43.4442060" lon="-4.9712390">
        <ele>90.0</ele>
        <time>2021-07-19T07:54:58Z</time>
      </trkpt>
      <trkpt lat="43.4441970" lon="-4.9712770">
        <ele>89.6</ele>
        <time>2021-07-19T07:54:59Z</time>
      </trkpt>
      <trkpt lat="43.4441880" lon="-4.9713140">
        <ele>89.2</ele>
        <time>2021-07-19T07:55:00Z</time>
      </trkpt>
      <trkpt lat="43.4441800" lon="-4.9713520">
        <ele>88.8</ele>
        <time>2021-07-19T07:55:01Z</time>
      </trkpt>
      <trkpt lat="43.4441720" lon="-4.9713880">
        <ele>88.4</ele>
        <time>2021-07-19T07:55:02Z</time>
      </trkpt>
      <trkpt lat="43.4441450" lon="-4.9714960">
        <ele>88.4</ele>
        <time>2021-07-19T07:55:05Z</time>
      </trkpt>
      <trkpt lat="43.4441350" lon="-4.9715370">
        <ele>88.0</ele>
        <time>2021-07-19T07:55:06Z</time>
      </trkpt>
      <trkpt lat="43.4441250" lon="-4.9715860">
        <ele>87.4</ele>
        <time>2021-07-19T07:55:07Z</time>
      </trkpt>
      <trkpt lat="43.4441130" lon="-4.9716370">
        <ele>87.0</ele>
        <time>2021-07-19T07:55:08Z</time>
      </trkpt>
      <trkpt lat="43.4441000" lon="-4.9716920">
        <ele>86.6</ele>
        <time>2021-07-19T07:55:09Z</time>
      </trkpt>
      <trkpt lat="43.4440810" lon="-4.9717540">
        <ele>86.2</ele>
        <time>2021-07-19T07:55:10Z</time>
      </trkpt>
      <trkpt lat="43.4440480" lon="-4.9718860">
        <ele>85.8</ele>
        <time>2021-07-19T07:55:12Z</time>
      </trkpt>
      <trkpt lat="43.4440330" lon="-4.9719490">
        <ele>85.4</ele>
        <time>2021-07-19T07:55:13Z</time>
      </trkpt>
      <trkpt lat="43.4440200" lon="-4.9720110">
        <ele>85.0</ele>
        <time>2021-07-19T07:55:14Z</time>
      </trkpt>
      <trkpt lat="43.4440100" lon="-4.9720690">
        <ele>84.4</ele>
        <time>2021-07-19T07:55:15Z</time>
      </trkpt>
      <trkpt lat="43.4440010" lon="-4.9721240">
        <ele>84.0</ele>
        <time>2021-07-19T07:55:16Z</time>
      </trkpt>
      <trkpt lat="43.4439930" lon="-4.9721770">
        <ele>84.0</ele>
        <time>2021-07-19T07:55:17Z</time>
      </trkpt>
      <trkpt lat="43.4439830" lon="-4.9725060">
        <ele>84.0</ele>
        <time>2021-07-19T07:55:24Z</time>
      </trkpt>
      <trkpt lat="43.4439800" lon="-4.9727860">
        <ele>83.6</ele>
        <time>2021-07-19T07:55:30Z</time>
      </trkpt>
      <trkpt lat="43.4439750" lon="-4.9728340">
        <ele>83.2</ele>
        <time>2021-07-19T07:55:31Z</time>
      </trkpt>
      <trkpt lat="43.4439710" lon="-4.9728820">
        <ele>82.8</ele>
        <time>2021-07-19T07:55:32Z</time>
      </trkpt>
      <trkpt lat="43.4439650" lon="-4.9729280">
        <ele>82.4</ele>
        <time>2021-07-19T07:55:33Z</time>
      </trkpt>
      <trkpt lat="43.4439580" lon="-4.9729760">
        <ele>82.0</ele>
        <time>2021-07-19T07:55:34Z</time>
      </trkpt>
      <trkpt lat="43.4439480" lon="-4.9731220">
        <ele>81.4</ele>
        <time>2021-07-19T07:55:37Z</time>
      </trkpt>
      <trkpt lat="43.4439430" lon="-4.9731630">
        <ele>81.0</ele>
        <time>2021-07-19T07:55:38Z</time>
      </trkpt>
      <trkpt lat="43.4439350" lon="-4.9732000">
        <ele>80.6</ele>
        <time>2021-07-19T07:55:39Z</time>
      </trkpt>
      <trkpt lat="43.4439250" lon="-4.9732330">
        <ele>80.2</ele>
        <time>2021-07-19T07:55:40Z</time>
      </trkpt>
      <trkpt lat="43.4439150" lon="-4.9732640">
        <ele>79.8</ele>
        <time>2021-07-19T07:55:41Z</time>
      </trkpt>
      <trkpt lat="43.4438860" lon="-4.9733640">
        <ele>79.2</ele>
        <time>2021-07-19T07:55:44Z</time>
      </trkpt>
      <trkpt lat="43.4438750" lon="-4.9734010">
        <ele>78.8</ele>
        <time>2021-07-19T07:55:45Z</time>
      </trkpt>
      <trkpt lat="43.4438620" lon="-4.9734420">
        <ele>78.4</ele>
        <time>2021-07-19T07:55:46Z</time>
      </trkpt>
      <trkpt lat="43.4438410" lon="-4.9734770">
        <ele>78.0</ele>
        <time>2021-07-19T07:55:47Z</time>
      </trkpt>
      <trkpt lat="43.4438210" lon="-4.9735080">
        <ele>77.4</ele>
        <time>2021-07-19T07:55:48Z</time>
      </trkpt>
      <trkpt lat="43.4437800" lon="-4.9735580">
        <ele>77.0</ele>
        <time>2021-07-19T07:55:50Z</time>
      </trkpt>
      <trkpt lat="43.4437550" lon="-4.9735810">
        <ele>76.6</ele>
        <time>2021-07-19T07:55:51Z</time>
      </trkpt>
      <trkpt lat="43.4437200" lon="-4.9736040">
        <ele>76.0</ele>
        <time>2021-07-19T07:55:52Z</time>
      </trkpt>
      <trkpt lat="43.4436820" lon="-4.9736310">
        <ele>75.6</ele>
        <time>2021-07-19T07:55:53Z</time>
      </trkpt>
      <trkpt lat="43.4436460" lon="-4.9736650">
        <ele>75.2</ele>
        <time>2021-07-19T07:55:54Z</time>
      </trkpt>
      <trkpt lat="43.4436060" lon="-4.9737040">
        <ele>75.2</ele>
        <time>2021-07-19T07:55:55Z</time>
      </trkpt>
      <trkpt lat="43.4435690" lon="-4.9737490">
        <ele>75.2</ele>
        <time>2021-07-19T07:55:56Z</time>
      </trkpt>
      <trkpt lat="43.4435040" lon="-4.9738530">
        <ele>74.8</ele>
        <time>2021-07-19T07:55:58Z</time>
      </trkpt>
      <trkpt lat="43.4434780" lon="-4.9739130">
        <ele>74.4</ele>
        <time>2021-07-19T07:55:59Z</time>
      </trkpt>
      <trkpt lat="43.4434550" lon="-4.9739780">
        <ele>74.0</ele>
        <time>2021-07-19T07:56:00Z</time>
      </trkpt>
      <trkpt lat="43.4434370" lon="-4.9740410">
        <ele>73.0</ele>
        <time>2021-07-19T07:56:01Z</time>
      </trkpt>
      <trkpt lat="43.4434210" lon="-4.9740990">
        <ele>73.0</ele>
        <time>2021-07-19T07:56:02Z</time>
      </trkpt>
      <trkpt lat="43.4433820" lon="-4.9742560">
        <ele>73.0</ele>
        <time>2021-07-19T07:56:05Z</time>
      </trkpt>
      <trkpt lat="43.4433540" lon="-4.9744080">
        <ele>73.0</ele>
        <time>2021-07-19T07:56:09Z</time>
      </trkpt>
      <trkpt lat="43.4433460" lon="-4.9744840">
        <ele>73.0</ele>
        <time>2021-07-19T07:56:11Z</time>
      </trkpt>
      <trkpt lat="43.4433340" lon="-4.9745610">
        <ele>73.0</ele>
        <time>2021-07-19T07:56:13Z</time>
      </trkpt>
      <trkpt lat="43.4433180" lon="-4.9746890">
        <ele>73.0</ele>
        <time>2021-07-19T07:56:16Z</time>
      </trkpt>
      <trkpt lat="43.4433050" lon="-4.9747710">
        <ele>73.0</ele>
        <time>2021-07-19T07:56:18Z</time>
      </trkpt>
      <trkpt lat="43.4432690" lon="-4.9750300">
        <ele>73.0</ele>
        <time>2021-07-19T07:56:24Z</time>
      </trkpt>
      <trkpt lat="43.4432600" lon="-4.9750740">
        <ele>72.6</ele>
        <time>2021-07-19T07:56:25Z</time>
      </trkpt>
      <trkpt lat="43.4432550" lon="-4.9751120">
        <ele>71.8</ele>
        <time>2021-07-19T07:56:26Z</time>
      </trkpt>
      <trkpt lat="43.4432540" lon="-4.9751440">
        <ele>71.4</ele>
        <time>2021-07-19T07:56:27Z</time>
      </trkpt>
      <trkpt lat="43.4432560" lon="-4.9751720">
        <ele>71.0</ele>
        <time>2021-07-19T07:56:28Z</time>
      </trkpt>
      <trkpt lat="43.4432610" lon="-4.9752040">
        <ele>71.0</ele>
        <time>2021-07-19T07:56:29Z</time>
      </trkpt>
      <trkpt lat="43.4432970" lon="-4.9754390">
        <ele>71.0</ele>
        <time>2021-07-19T07:56:35Z</time>
      </trkpt>
      <trkpt lat="43.4433100" lon="-4.9757730">
        <ele>71.0</ele>
        <time>2021-07-19T07:56:41Z</time>
      </trkpt>
      <trkpt lat="43.4433200" lon="-4.9758290">
        <ele>70.6</ele>
        <time>2021-07-19T07:56:42Z</time>
      </trkpt>
      <trkpt lat="43.4433320" lon="-4.9758910">
        <ele>70.2</ele>
        <time>2021-07-19T07:56:43Z</time>
      </trkpt>
      <trkpt lat="43.4433470" lon="-4.9759520">
        <ele>69.8</ele>
        <time>2021-07-19T07:56:44Z</time>
      </trkpt>
      <trkpt lat="43.4433650" lon="-4.9760110">
        <ele>69.4</ele>
        <time>2021-07-19T07:56:45Z</time>
      </trkpt>
      <trkpt lat="43.4433820" lon="-4.9760760">
        <ele>69.0</ele>
        <time>2021-07-19T07:56:46Z</time>
      </trkpt>
      <trkpt lat="43.4434420" lon="-4.9764540">
        <ele>69.0</ele>
        <time>2021-07-19T07:56:52Z</time>
      </trkpt>
      <trkpt lat="43.4434450" lon="-4.9765080">
        <ele>69.0</ele>
        <time>2021-07-19T07:56:53Z</time>
      </trkpt>
      <trkpt lat="43.4434500" lon="-4.9766660">
        <ele>69.0</ele>
        <time>2021-07-19T07:56:56Z</time>
      </trkpt>
      <trkpt lat="43.4434510" lon="-4.9767650">
        <ele>69.0</ele>
        <time>2021-07-19T07:56:58Z</time>
      </trkpt>
      <trkpt lat="43.4434470" lon="-4.9768640">
        <ele>69.0</ele>
        <time>2021-07-19T07:57:00Z</time>
      </trkpt>
      <trkpt lat="43.4434060" lon="-4.9771230">
        <ele>69.0</ele>
        <time>2021-07-19T07:57:05Z</time>
      </trkpt>
      <trkpt lat="43.4433710" lon="-4.9772590">
        <ele>69.0</ele>
        <time>2021-07-19T07:57:09Z</time>
      </trkpt>
      <trkpt lat="43.4433060" lon="-4.9773390">
        <ele>69.0</ele>
        <time>2021-07-19T07:57:12Z</time>
      </trkpt>
      <trkpt lat="43.4432780" lon="-4.9773870">
        <ele>69.0</ele>
        <time>2021-07-19T07:57:14Z</time>
      </trkpt>
      <trkpt lat="43.4432560" lon="-4.9774430">
        <ele>69.0</ele>
        <time>2021-07-19T07:57:16Z</time>
      </trkpt>
      <trkpt lat="43.4432180" lon="-4.9775150">
        <ele>69.0</ele>
        <time>2021-07-19T07:57:18Z</time>
      </trkpt>
      <trkpt lat="43.4431800" lon="-4.9775910">
        <ele>69.0</ele>
        <time>2021-07-19T07:57:20Z</time>
      </trkpt>
      <trkpt lat="43.4430740" lon="-4.9779030">
        <ele>69.0</ele>
        <time>2021-07-19T07:57:27Z</time>
      </trkpt>
      <trkpt lat="43.4430620" lon="-4.9780700">
        <ele>69.0</ele>
        <time>2021-07-19T07:57:30Z</time>
      </trkpt>
      <trkpt lat="43.4430550" lon="-4.9781370">
        <ele>69.0</ele>
        <time>2021-07-19T07:57:31Z</time>
      </trkpt>
      <trkpt lat="43.4430420" lon="-4.9782040">
        <ele>69.0</ele>
        <time>2021-07-19T07:57:32Z</time>
      </trkpt>
      <trkpt lat="43.4430010" lon="-4.9783990">
        <ele>68.4</ele>
        <time>2021-07-19T07:57:35Z</time>
      </trkpt>
      <trkpt lat="43.4429850" lon="-4.9784650">
        <ele>68.0</ele>
        <time>2021-07-19T07:57:36Z</time>
      </trkpt>
      <trkpt lat="43.4429700" lon="-4.9785310">
        <ele>67.6</ele>
        <time>2021-07-19T07:57:37Z</time>
      </trkpt>
      <trkpt lat="43.4429590" lon="-4.9785990">
        <ele>67.2</ele>
        <time>2021-07-19T07:57:38Z</time>
      </trkpt>
      <trkpt lat="43.4429460" lon="-4.9786700">
        <ele>66.8</ele>
        <time>2021-07-19T07:57:39Z</time>
      </trkpt>
      <trkpt lat="43.4429360" lon="-4.9787410">
        <ele>66.8</ele>
        <time>2021-07-19T07:57:40Z</time>
      </trkpt>
      <trkpt lat="43.4428900" lon="-4.9790210">
        <ele>66.8</ele>
        <time>2021-07-19T07:57:44Z</time>
      </trkpt>
      <trkpt lat="43.4428740" lon="-4.9790780">
        <ele>66.8</ele>
        <time>2021-07-19T07:57:45Z</time>
      </trkpt>
      <trkpt lat="43.4428480" lon="-4.9791220">
        <ele>66.8</ele>
        <time>2021-07-19T07:57:46Z</time>
      </trkpt>
      <trkpt lat="43.4427070" lon="-4.9791910">
        <ele>66.8</ele>
        <time>2021-07-19T07:57:50Z</time>
      </trkpt>
      <trkpt lat="43.4426370" lon="-4.9792190">
        <ele>66.2</ele>
        <time>2021-07-19T07:57:52Z</time>
      </trkpt>
      <trkpt lat="43.4426070" lon="-4.9792540">
        <ele>65.8</ele>
        <time>2021-07-19T07:57:53Z</time>
      </trkpt>
      <trkpt lat="43.4425800" lon="-4.9793010">
        <ele>65.4</ele>
        <time>2021-07-19T07:57:54Z</time>
      </trkpt>
      <trkpt lat="43.4425600" lon="-4.9793530">
        <ele>64.8</ele>
        <time>2021-07-19T07:57:55Z</time>
      </trkpt>
      <trkpt lat="43.4425440" lon="-4.9794060">
        <ele>64.4</ele>
        <time>2021-07-19T07:57:56Z</time>
      </trkpt>
      <trkpt lat="43.4425280" lon="-4.9794570">
        <ele>64.4</ele>
        <time>2021-07-19T07:57:57Z</time>
      </trkpt>
      <trkpt lat="43.4424950" lon="-4.9795450">
        <ele>64.4</ele>
        <time>2021-07-19T07:57:59Z</time>
      </trkpt>
      <trkpt lat="43.4424760" lon="-4.9795850">
        <ele>64.0</ele>
        <time>2021-07-19T07:58:00Z</time>
      </trkpt>
      <trkpt lat="43.4424560" lon="-4.9796280">
        <ele>63.4</ele>
        <time>2021-07-19T07:58:01Z</time>
      </trkpt>
      <trkpt lat="43.4424390" lon="-4.9796680">
        <ele>63.0</ele>
        <time>2021-07-19T07:58:02Z</time>
      </trkpt>
      <trkpt lat="43.4424260" lon="-4.9797070">
        <ele>62.4</ele>
        <time>2021-07-19T07:58:03Z</time>
      </trkpt>
      <trkpt lat="43.4424130" lon="-4.9797430">
        <ele>62.0</ele>
        <time>2021-07-19T07:58:04Z</time>
      </trkpt>
      <trkpt lat="43.4424010" lon="-4.9797850">
        <ele>61.0</ele>
        <time>2021-07-19T07:58:05Z</time>
      </trkpt>
      <trkpt lat="43.4423830" lon="-4.9798320">
        <ele>60.6</ele>
        <time>2021-07-19T07:58:06Z</time>
      </trkpt>
      <trkpt lat="43.4423660" lon="-4.9798860">
        <ele>60.2</ele>
        <time>2021-07-19T07:58:07Z</time>
      </trkpt>
      <trkpt lat="43.4423480" lon="-4.9799400">
        <ele>59.8</ele>
        <time>2021-07-19T07:58:08Z</time>
      </trkpt>
      <trkpt lat="43.4423270" lon="-4.9799970">
        <ele>59.4</ele>
        <time>2021-07-19T07:58:09Z</time>
      </trkpt>
      <trkpt lat="43.4423090" lon="-4.9800540">
        <ele>59.0</ele>
        <time>2021-07-19T07:58:10Z</time>
      </trkpt>
      <trkpt lat="43.4422910" lon="-4.9801120">
        <ele>58.6</ele>
        <time>2021-07-19T07:58:11Z</time>
      </trkpt>
      <trkpt lat="43.4422750" lon="-4.9801690">
        <ele>58.0</ele>
        <time>2021-07-19T07:58:12Z</time>
      </trkpt>
      <trkpt lat="43.4422640" lon="-4.9802270">
        <ele>57.6</ele>
        <time>2021-07-19T07:58:13Z</time>
      </trkpt>
      <trkpt lat="43.4422360" lon="-4.9803840">
        <ele>57.2</ele>
        <time>2021-07-19T07:58:16Z</time>
      </trkpt>
      <trkpt lat="43.4422260" lon="-4.9804390">
        <ele>56.8</ele>
        <time>2021-07-19T07:58:17Z</time>
      </trkpt>
      <trkpt lat="43.4422090" lon="-4.9804960">
        <ele>56.2</ele>
        <time>2021-07-19T07:58:18Z</time>
      </trkpt>
      <trkpt lat="43.4421940" lon="-4.9805510">
        <ele>55.8</ele>
        <time>2021-07-19T07:58:19Z</time>
      </trkpt>
      <trkpt lat="43.4421800" lon="-4.9806150">
        <ele>55.4</ele>
        <time>2021-07-19T07:58:20Z</time>
      </trkpt>
      <trkpt lat="43.4421720" lon="-4.9806810">
        <ele>55.4</ele>
        <time>2021-07-19T07:58:21Z</time>
      </trkpt>
      <trkpt lat="43.4421660" lon="-4.9808080">
        <ele>55.0</ele>
        <time>2021-07-19T07:58:23Z</time>
      </trkpt>
      <trkpt lat="43.4421600" lon="-4.9808710">
        <ele>54.4</ele>
        <time>2021-07-19T07:58:24Z</time>
      </trkpt>
      <trkpt lat="43.4421550" lon="-4.9809340">
        <ele>54.0</ele>
        <time>2021-07-19T07:58:25Z</time>
      </trkpt>
      <trkpt lat="43.4421480" lon="-4.9809960">
        <ele>53.6</ele>
        <time>2021-07-19T07:58:26Z</time>
      </trkpt>
      <trkpt lat="43.4421410" lon="-4.9810530">
        <ele>53.0</ele>
        <time>2021-07-19T07:58:27Z</time>
      </trkpt>
      <trkpt lat="43.4421250" lon="-4.9811210">
        <ele>52.4</ele>
        <time>2021-07-19T07:58:28Z</time>
      </trkpt>
      <trkpt lat="43.4421090" lon="-4.9811870">
        <ele>52.0</ele>
        <time>2021-07-19T07:58:29Z</time>
      </trkpt>
      <trkpt lat="43.4420870" lon="-4.9812520">
        <ele>50.8</ele>
        <time>2021-07-19T07:58:30Z</time>
      </trkpt>
      <trkpt lat="43.4420620" lon="-4.9813220">
        <ele>50.4</ele>
        <time>2021-07-19T07:58:31Z</time>
      </trkpt>
      <trkpt lat="43.4420360" lon="-4.9813980">
        <ele>49.8</ele>
        <time>2021-07-19T07:58:32Z</time>
      </trkpt>
      <trkpt lat="43.4420130" lon="-4.9814860">
        <ele>49.4</ele>
        <time>2021-07-19T07:58:33Z</time>
      </trkpt>
      <trkpt lat="43.4419930" lon="-4.9815780">
        <ele>48.8</ele>
        <time>2021-07-19T07:58:34Z</time>
      </trkpt>
      <trkpt lat="43.4419750" lon="-4.9816510">
        <ele>48.2</ele>
        <time>2021-07-19T07:58:35Z</time>
      </trkpt>
      <trkpt lat="43.4419510" lon="-4.9817190">
        <ele>47.8</ele>
        <time>2021-07-19T07:58:36Z</time>
      </trkpt>
      <trkpt lat="43.4419230" lon="-4.9817840">
        <ele>47.2</ele>
        <time>2021-07-19T07:58:37Z</time>
      </trkpt>
      <trkpt lat="43.4418920" lon="-4.9818500">
        <ele>46.8</ele>
        <time>2021-07-19T07:58:38Z</time>
      </trkpt>
      <trkpt lat="43.4418590" lon="-4.9819100">
        <ele>46.2</ele>
        <time>2021-07-19T07:58:39Z</time>
      </trkpt>
      <trkpt lat="43.4418270" lon="-4.9819640">
        <ele>45.8</ele>
        <time>2021-07-19T07:58:40Z</time>
      </trkpt>
      <trkpt lat="43.4417890" lon="-4.9820200">
        <ele>45.4</ele>
        <time>2021-07-19T07:58:41Z</time>
      </trkpt>
      <trkpt lat="43.4417550" lon="-4.9820780">
        <ele>44.8</ele>
        <time>2021-07-19T07:58:42Z</time>
      </trkpt>
      <trkpt lat="43.4417240" lon="-4.9821490">
        <ele>44.4</ele>
        <time>2021-07-19T07:58:43Z</time>
      </trkpt>
      <trkpt lat="43.4416940" lon="-4.9822190">
        <ele>44.0</ele>
        <time>2021-07-19T07:58:44Z</time>
      </trkpt>
      <trkpt lat="43.4416600" lon="-4.9822830">
        <ele>43.6</ele>
        <time>2021-07-19T07:58:45Z</time>
      </trkpt>
      <trkpt lat="43.4416200" lon="-4.9823480">
        <ele>43.6</ele>
        <time>2021-07-19T07:58:46Z</time>
      </trkpt>
      <trkpt lat="43.4414500" lon="-4.9825790">
        <ele>43.0</ele>
        <time>2021-07-19T07:58:50Z</time>
      </trkpt>
      <trkpt lat="43.4414170" lon="-4.9826360">
        <ele>42.6</ele>
        <time>2021-07-19T07:58:51Z</time>
      </trkpt>
      <trkpt lat="43.4413930" lon="-4.9826970">
        <ele>42.2</ele>
        <time>2021-07-19T07:58:52Z</time>
      </trkpt>
      <trkpt lat="43.4413740" lon="-4.9827610">
        <ele>41.6</ele>
        <time>2021-07-19T07:58:53Z</time>
      </trkpt>
      <trkpt lat="43.4413590" lon="-4.9828240">
        <ele>40.6</ele>
        <time>2021-07-19T07:58:54Z</time>
      </trkpt>
      <trkpt lat="43.4413500" lon="-4.9828860">
        <ele>40.2</ele>
        <time>2021-07-19T07:58:55Z</time>
      </trkpt>
      <trkpt lat="43.4413520" lon="-4.9829470">
        <ele>39.6</ele>
        <time>2021-07-19T07:58:56Z</time>
      </trkpt>
      <trkpt lat="43.4413550" lon="-4.9830060">
        <ele>39.0</ele>
        <time>2021-07-19T07:58:57Z</time>
      </trkpt>
      <trkpt lat="43.4413570" lon="-4.9830650">
        <ele>38.6</ele>
        <time>2021-07-19T07:58:58Z</time>
      </trkpt>
      <trkpt lat="43.4413580" lon="-4.9831270">
        <ele>38.2</ele>
        <time>2021-07-19T07:58:59Z</time>
      </trkpt>
      <trkpt lat="43.4413590" lon="-4.9831870">
        <ele>37.6</ele>
        <time>2021-07-19T07:59:00Z</time>
      </trkpt>
      <trkpt lat="43.4413580" lon="-4.9832410">
        <ele>37.2</ele>
        <time>2021-07-19T07:59:01Z</time>
      </trkpt>
      <trkpt lat="43.4413540" lon="-4.9832840">
        <ele>36.8</ele>
        <time>2021-07-19T07:59:02Z</time>
      </trkpt>
      <trkpt lat="43.4413470" lon="-4.9833160">
        <ele>36.2</ele>
        <time>2021-07-19T07:59:03Z</time>
      </trkpt>
      <trkpt lat="43.4413410" lon="-4.9833460">
        <ele>35.8</ele>
        <time>2021-07-19T07:59:04Z</time>
      </trkpt>
      <trkpt lat="43.4413350" lon="-4.9833710">
        <ele>35.2</ele>
        <time>2021-07-19T07:59:05Z</time>
      </trkpt>
      <trkpt lat="43.4413310" lon="-4.9833940">
        <ele>34.8</ele>
        <time>2021-07-19T07:59:06Z</time>
      </trkpt>
      <trkpt lat="43.4413290" lon="-4.9834130">
        <ele>34.4</ele>
        <time>2021-07-19T07:59:07Z</time>
      </trkpt>
      <trkpt lat="43.4413320" lon="-4.9834280">
        <ele>34.4</ele>
        <time>2021-07-19T07:59:08Z</time>
      </trkpt>
      <trkpt lat="43.4413440" lon="-4.9834430">
        <ele>33.8</ele>
        <time>2021-07-19T07:59:09Z</time>
      </trkpt>
      <trkpt lat="43.4413770" lon="-4.9834720">
        <ele>33.4</ele>
        <time>2021-07-19T07:59:10Z</time>
      </trkpt>
      <trkpt lat="43.4414110" lon="-4.9834970">
        <ele>33.0</ele>
        <time>2021-07-19T07:59:11Z</time>
      </trkpt>
      <trkpt lat="43.4414490" lon="-4.9835220">
        <ele>32.6</ele>
        <time>2021-07-19T07:59:12Z</time>
      </trkpt>
      <trkpt lat="43.4414880" lon="-4.9835490">
        <ele>32.2</ele>
        <time>2021-07-19T07:59:13Z</time>
      </trkpt>
      <trkpt lat="43.4416240" lon="-4.9836550">
        <ele>32.2</ele>
        <time>2021-07-19T07:59:16Z</time>
      </trkpt>
      <trkpt lat="43.4417610" lon="-4.9837690">
        <ele>31.4</ele>
        <time>2021-07-19T07:59:19Z</time>
      </trkpt>
      <trkpt lat="43.4418090" lon="-4.9837950">
        <ele>31.0</ele>
        <time>2021-07-19T07:59:20Z</time>
      </trkpt>
      <trkpt lat="43.4418590" lon="-4.9838210">
        <ele>30.6</ele>
        <time>2021-07-19T07:59:21Z</time>
      </trkpt>
      <trkpt lat="43.4419100" lon="-4.9838430">
        <ele>30.2</ele>
        <time>2021-07-19T07:59:23Z</time>
      </trkpt>
      <trkpt lat="43.4419530" lon="-4.9838560">
        <ele>30.2</ele>
        <time>2021-07-19T07:59:24Z</time>
      </trkpt>
      <trkpt lat="43.4419890" lon="-4.9838640">
        <ele>29.6</ele>
        <time>2021-07-19T07:59:25Z</time>
      </trkpt>
      <trkpt lat="43.4420230" lon="-4.9838640">
        <ele>29.2</ele>
        <time>2021-07-19T07:59:26Z</time>
      </trkpt>
      <trkpt lat="43.4420520" lon="-4.9838540">
        <ele>28.8</ele>
        <time>2021-07-19T07:59:27Z</time>
      </trkpt>
      <trkpt lat="43.4420740" lon="-4.9838340">
        <ele>28.4</ele>
        <time>2021-07-19T07:59:28Z</time>
      </trkpt>
      <trkpt lat="43.4420880" lon="-4.9838170">
        <ele>28.0</ele>
        <time>2021-07-19T07:59:29Z</time>
      </trkpt>
      <trkpt lat="43.4421040" lon="-4.9838160">
        <ele>28.0</ele>
        <time>2021-07-19T07:59:30Z</time>
      </trkpt>
      <trkpt lat="43.4421190" lon="-4.9838300">
        <ele>28.0</ele>
        <time>2021-07-19T07:59:33Z</time>
      </trkpt>
      <trkpt lat="43.4421140" lon="-4.9838540">
        <ele>26.0</ele>
        <time>2021-07-19T08:01:29Z</time>
      </trkpt>
      <trkpt lat="43.4421120" lon="-4.9838540">
        <ele>26.0</ele>
        <time>2021-07-19T08:01:30Z</time>
      </trkpt>
      <trkpt lat="43.4421320" lon="-4.9838660">
        <ele>26.0</ele>
        <time>2021-07-19T08:01:36Z</time>
      </trkpt>
      <trkpt lat="43.4421560" lon="-4.9838700">
        <ele>26.0</ele>
        <time>2021-07-19T08:01:37Z</time>
      </trkpt>
      <trkpt lat="43.4423210" lon="-4.9839060">
        <ele>26.0</ele>
        <time>2021-07-19T08:01:41Z</time>
      </trkpt>
      <trkpt lat="43.4423720" lon="-4.9839300">
        <ele>26.0</ele>
        <time>2021-07-19T08:01:42Z</time>
      </trkpt>
      <trkpt lat="43.4425370" lon="-4.9840240">
        <ele>25.4</ele>
        <time>2021-07-19T08:01:45Z</time>
      </trkpt>
      <trkpt lat="43.4425880" lon="-4.9840560">
        <ele>25.0</ele>
        <time>2021-07-19T08:01:46Z</time>
      </trkpt>
      <trkpt lat="43.4426330" lon="-4.9840860">
        <ele>24.6</ele>
        <time>2021-07-19T08:01:47Z</time>
      </trkpt>
      <trkpt lat="43.4426760" lon="-4.9841100">
        <ele>23.8</ele>
        <time>2021-07-19T08:01:48Z</time>
      </trkpt>
      <trkpt lat="43.4427660" lon="-4.9841710">
        <ele>23.8</ele>
        <time>2021-07-19T08:01:50Z</time>
      </trkpt>
      <trkpt lat="43.4428140" lon="-4.9842010">
        <ele>23.2</ele>
        <time>2021-07-19T08:01:51Z</time>
      </trkpt>
      <trkpt lat="43.4428620" lon="-4.9842310">
        <ele>22.8</ele>
        <time>2021-07-19T08:01:52Z</time>
      </trkpt>
      <trkpt lat="43.4429110" lon="-4.9842600">
        <ele>22.2</ele>
        <time>2021-07-19T08:01:53Z</time>
      </trkpt>
      <trkpt lat="43.4429620" lon="-4.9842870">
        <ele>21.8</ele>
        <time>2021-07-19T08:01:54Z</time>
      </trkpt>
      <trkpt lat="43.4430060" lon="-4.9843070">
        <ele>21.4</ele>
        <time>2021-07-19T08:01:55Z</time>
      </trkpt>
      <trkpt lat="43.4430480" lon="-4.9843300">
        <ele>21.4</ele>
        <time>2021-07-19T08:01:56Z</time>
      </trkpt>
      <trkpt lat="43.4432110" lon="-4.9844180">
        <ele>21.4</ele>
        <time>2021-07-19T08:02:01Z</time>
      </trkpt>
      <trkpt lat="43.4432900" lon="-4.9844570">
        <ele>21.4</ele>
        <time>2021-07-19T08:02:04Z</time>
      </trkpt>
      <trkpt lat="43.4433560" lon="-4.9844820">
        <ele>21.4</ele>
        <time>2021-07-19T08:02:06Z</time>
      </trkpt>
      <trkpt lat="43.4434140" lon="-4.9845080">
        <ele>21.4</ele>
        <time>2021-07-19T08:02:08Z</time>
      </trkpt>
      <trkpt lat="43.4435030" lon="-4.9845620">
        <ele>21.4</ele>
        <time>2021-07-19T08:02:11Z</time>
      </trkpt>
      <trkpt lat="43.4435540" lon="-4.9845990">
        <ele>21.4</ele>
        <time>2021-07-19T08:02:13Z</time>
      </trkpt>
      <trkpt lat="43.4435780" lon="-4.9846180">
        <ele>21.8</ele>
        <time>2021-07-19T08:02:14Z</time>
      </trkpt>
      <trkpt lat="43.4436020" lon="-4.9846360">
        <ele>22.2</ele>
        <time>2021-07-19T08:02:15Z</time>
      </trkpt>
      <trkpt lat="43.4436260" lon="-4.9846530">
        <ele>22.6</ele>
        <time>2021-07-19T08:02:16Z</time>
      </trkpt>
      <trkpt lat="43.4436530" lon="-4.9846680">
        <ele>23.0</ele>
        <time>2021-07-19T08:02:17Z</time>
      </trkpt>
      <trkpt lat="43.4436780" lon="-4.9846840">
        <ele>23.4</ele>
        <time>2021-07-19T08:02:18Z</time>
      </trkpt>
      <trkpt lat="43.4437270" lon="-4.9847090">
        <ele>23.4</ele>
        <time>2021-07-19T08:02:20Z</time>
      </trkpt>
      <trkpt lat="43.4437750" lon="-4.9847240">
        <ele>23.4</ele>
        <time>2021-07-19T08:02:22Z</time>
      </trkpt>
      <trkpt lat="43.4438000" lon="-4.9847340">
        <ele>23.8</ele>
        <time>2021-07-19T08:02:23Z</time>
      </trkpt>
      <trkpt lat="43.4438230" lon="-4.9847430">
        <ele>24.2</ele>
        <time>2021-07-19T08:02:24Z</time>
      </trkpt>
      <trkpt lat="43.4438460" lon="-4.9847490">
        <ele>24.6</ele>
        <time>2021-07-19T08:02:25Z</time>
      </trkpt>
      <trkpt lat="43.4438710" lon="-4.9847580">
        <ele>25.2</ele>
        <time>2021-07-19T08:02:26Z</time>
      </trkpt>
      <trkpt lat="43.4438960" lon="-4.9847670">
        <ele>25.6</ele>
        <time>2021-07-19T08:02:27Z</time>
      </trkpt>
      <trkpt lat="43.4439720" lon="-4.9847930">
        <ele>25.6</ele>
        <time>2021-07-19T08:02:30Z</time>
      </trkpt>
      <trkpt lat="43.4440320" lon="-4.9848280">
        <ele>26.0</ele>
        <time>2021-07-19T08:02:33Z</time>
      </trkpt>
      <trkpt lat="43.4440470" lon="-4.9848490">
        <ele>26.4</ele>
        <time>2021-07-19T08:02:34Z</time>
      </trkpt>
      <trkpt lat="43.4440600" lon="-4.9848740">
        <ele>26.8</ele>
        <time>2021-07-19T08:02:35Z</time>
      </trkpt>
      <trkpt lat="43.4440690" lon="-4.9849080">
        <ele>27.2</ele>
        <time>2021-07-19T08:02:36Z</time>
      </trkpt>
      <trkpt lat="43.4440730" lon="-4.9849410">
        <ele>27.6</ele>
        <time>2021-07-19T08:02:37Z</time>
      </trkpt>
      <trkpt lat="43.4440650" lon="-4.9849960">
        <ele>27.6</ele>
        <time>2021-07-19T08:02:39Z</time>
      </trkpt>
      <trkpt lat="43.4439930" lon="-4.9851530">
        <ele>27.6</ele>
        <time>2021-07-19T08:02:44Z</time>
      </trkpt>
      <trkpt lat="43.4439520" lon="-4.9853870">
        <ele>28.0</ele>
        <time>2021-07-19T08:02:49Z</time>
      </trkpt>
      <trkpt lat="43.4439600" lon="-4.9854320">
        <ele>28.4</ele>
        <time>2021-07-19T08:02:50Z</time>
      </trkpt>
      <trkpt lat="43.4439680" lon="-4.9854770">
        <ele>29.0</ele>
        <time>2021-07-19T08:02:51Z</time>
      </trkpt>
      <trkpt lat="43.4439750" lon="-4.9855170">
        <ele>29.4</ele>
        <time>2021-07-19T08:02:52Z</time>
      </trkpt>
      <trkpt lat="43.4439780" lon="-4.9855520">
        <ele>29.8</ele>
        <time>2021-07-19T08:02:53Z</time>
      </trkpt>
      <trkpt lat="43.4439810" lon="-4.9855800">
        <ele>29.8</ele>
        <time>2021-07-19T08:02:54Z</time>
      </trkpt>
      <trkpt lat="43.4439970" lon="-4.9856750">
        <ele>29.8</ele>
        <time>2021-07-19T08:02:59Z</time>
      </trkpt>
      <trkpt lat="43.4440090" lon="-4.9856850">
        <ele>29.8</ele>
        <time>2021-07-19T08:03:00Z</time>
      </trkpt>
      <trkpt lat="43.4440500" lon="-4.9857660">
        <ele>29.8</ele>
        <time>2021-07-19T08:03:03Z</time>
      </trkpt>
      <trkpt lat="43.4440910" lon="-4.9859340">
        <ele>30.2</ele>
        <time>2021-07-19T08:03:07Z</time>
      </trkpt>
      <trkpt lat="43.4440930" lon="-4.9859840">
        <ele>30.6</ele>
        <time>2021-07-19T08:03:08Z</time>
      </trkpt>
      <trkpt lat="43.4440950" lon="-4.9860340">
        <ele>31.0</ele>
        <time>2021-07-19T08:03:09Z</time>
      </trkpt>
      <trkpt lat="43.4440960" lon="-4.9860840">
        <ele>31.4</ele>
        <time>2021-07-19T08:03:10Z</time>
      </trkpt>
      <trkpt lat="43.4440970" lon="-4.9861320">
        <ele>31.8</ele>
        <time>2021-07-19T08:03:11Z</time>
      </trkpt>
      <trkpt lat="43.4440960" lon="-4.9864240">
        <ele>31.8</ele>
        <time>2021-07-19T08:03:16Z</time>
      </trkpt>
      <trkpt lat="43.4441000" lon="-4.9867350">
        <ele>31.8</ele>
        <time>2021-07-19T08:03:21Z</time>
      </trkpt>
      <trkpt lat="43.4441010" lon="-4.9867950">
        <ele>31.8</ele>
        <time>2021-07-19T08:03:22Z</time>
      </trkpt>
      <trkpt lat="43.4441150" lon="-4.9872240">
        <ele>31.8</ele>
        <time>2021-07-19T08:03:29Z</time>
      </trkpt>
      <trkpt lat="43.4441260" lon="-4.9872820">
        <ele>31.8</ele>
        <time>2021-07-19T08:03:30Z</time>
      </trkpt>
      <trkpt lat="43.4441410" lon="-4.9873330">
        <ele>31.8</ele>
        <time>2021-07-19T08:03:31Z</time>
      </trkpt>
      <trkpt lat="43.4442110" lon="-4.9874680">
        <ele>31.8</ele>
        <time>2021-07-19T08:03:34Z</time>
      </trkpt>
      <trkpt lat="43.4442590" lon="-4.9875540">
        <ele>31.8</ele>
        <time>2021-07-19T08:03:36Z</time>
      </trkpt>
      <trkpt lat="43.4443910" lon="-4.9878820">
        <ele>31.8</ele>
        <time>2021-07-19T08:03:42Z</time>
      </trkpt>
      <trkpt lat="43.4444350" lon="-4.9879950">
        <ele>31.8</ele>
        <time>2021-07-19T08:03:44Z</time>
      </trkpt>
      <trkpt lat="43.4444600" lon="-4.9880570">
        <ele>31.8</ele>
        <time>2021-07-19T08:03:45Z</time>
      </trkpt>
      <trkpt lat="43.4444820" lon="-4.9881190">
        <ele>31.8</ele>
        <time>2021-07-19T08:03:46Z</time>
      </trkpt>
      <trkpt lat="43.4445260" lon="-4.9882670">
        <ele>31.8</ele>
        <time>2021-07-19T08:03:48Z</time>
      </trkpt>
      <trkpt lat="43.4445500" lon="-4.9883550">
        <ele>31.8</ele>
        <time>2021-07-19T08:03:49Z</time>
      </trkpt>
      <trkpt lat="43.4446040" lon="-4.9885380">
        <ele>31.8</ele>
        <time>2021-07-19T08:03:51Z</time>
      </trkpt>
      <trkpt lat="43.4446510" lon="-4.9887270">
        <ele>31.8</ele>
        <time>2021-07-19T08:03:53Z</time>
      </trkpt>
      <trkpt lat="43.4446870" lon="-4.9889250">
        <ele>31.4</ele>
        <time>2021-07-19T08:03:55Z</time>
      </trkpt>
      <trkpt lat="43.4447050" lon="-4.9890210">
        <ele>30.8</ele>
        <time>2021-07-19T08:03:56Z</time>
      </trkpt>
      <trkpt lat="43.4447250" lon="-4.9891120">
        <ele>30.4</ele>
        <time>2021-07-19T08:03:57Z</time>
      </trkpt>
      <trkpt lat="43.4447440" lon="-4.9892000">
        <ele>29.8</ele>
        <time>2021-07-19T08:03:58Z</time>
      </trkpt>
      <trkpt lat="43.4447670" lon="-4.9892870">
        <ele>29.4</ele>
        <time>2021-07-19T08:03:59Z</time>
      </trkpt>
      <trkpt lat="43.4448750" lon="-4.9895940">
        <ele>29.4</ele>
        <time>2021-07-19T08:04:03Z</time>
      </trkpt>
      <trkpt lat="43.4449190" lon="-4.9897310">
        <ele>29.4</ele>
        <time>2021-07-19T08:04:05Z</time>
      </trkpt>
      <trkpt lat="43.4449560" lon="-4.9898650">
        <ele>29.4</ele>
        <time>2021-07-19T08:04:07Z</time>
      </trkpt>
      <trkpt lat="43.4449890" lon="-4.9900710">
        <ele>29.4</ele>
        <time>2021-07-19T08:04:10Z</time>
      </trkpt>
      <trkpt lat="43.4449960" lon="-4.9901390">
        <ele>29.4</ele>
        <time>2021-07-19T08:04:11Z</time>
      </trkpt>
      <trkpt lat="43.4450000" lon="-4.9902050">
        <ele>29.4</ele>
        <time>2021-07-19T08:04:12Z</time>
      </trkpt>
      <trkpt lat="43.4450040" lon="-4.9903400">
        <ele>29.4</ele>
        <time>2021-07-19T08:04:14Z</time>
      </trkpt>
      <trkpt lat="43.4450020" lon="-4.9904070">
        <ele>29.0</ele>
        <time>2021-07-19T08:04:15Z</time>
      </trkpt>
      <trkpt lat="43.4450020" lon="-4.9904820">
        <ele>28.0</ele>
        <time>2021-07-19T08:04:16Z</time>
      </trkpt>
      <trkpt lat="43.4449980" lon="-4.9905560">
        <ele>27.6</ele>
        <time>2021-07-19T08:04:17Z</time>
      </trkpt>
      <trkpt lat="43.4449930" lon="-4.9906320">
        <ele>27.2</ele>
        <time>2021-07-19T08:04:18Z</time>
      </trkpt>
      <trkpt lat="43.4449840" lon="-4.9907880">
        <ele>27.2</ele>
        <time>2021-07-19T08:04:20Z</time>
      </trkpt>
      <trkpt lat="43.4449860" lon="-4.9912370">
        <ele>27.2</ele>
        <time>2021-07-19T08:04:26Z</time>
      </trkpt>
      <trkpt lat="43.4450070" lon="-4.9913750">
        <ele>26.8</ele>
        <time>2021-07-19T08:04:28Z</time>
      </trkpt>
      <trkpt lat="43.4450220" lon="-4.9914440">
        <ele>26.4</ele>
        <time>2021-07-19T08:04:29Z</time>
      </trkpt>
      <trkpt lat="43.4450390" lon="-4.9915130">
        <ele>26.0</ele>
        <time>2021-07-19T08:04:30Z</time>
      </trkpt>
      <trkpt lat="43.4450590" lon="-4.9915820">
        <ele>25.4</ele>
        <time>2021-07-19T08:04:31Z</time>
      </trkpt>
      <trkpt lat="43.4450830" lon="-4.9916560">
        <ele>25.0</ele>
        <time>2021-07-19T08:04:32Z</time>
      </trkpt>
      <trkpt lat="43.4452060" lon="-4.9920100">
        <ele>25.0</ele>
        <time>2021-07-19T08:04:38Z</time>
      </trkpt>
      <trkpt lat="43.4452250" lon="-4.9920450">
        <ele>24.6</ele>
        <time>2021-07-19T08:04:39Z</time>
      </trkpt>
      <trkpt lat="43.4452400" lon="-4.9920710">
        <ele>24.2</ele>
        <time>2021-07-19T08:04:40Z</time>
      </trkpt>
      <trkpt lat="43.4452530" lon="-4.9920900">
        <ele>23.2</ele>
        <time>2021-07-19T08:04:41Z</time>
      </trkpt>
      <trkpt lat="43.4452640" lon="-4.9921050">
        <ele>22.8</ele>
        <time>2021-07-19T08:04:42Z</time>
      </trkpt>
      <trkpt lat="43.4453000" lon="-4.9921330">
        <ele>22.8</ele>
        <time>2021-07-19T08:04:46Z</time>
      </trkpt>
      <trkpt lat="43.4453170" lon="-4.9921410">
        <ele>22.8</ele>
        <time>2021-07-19T08:04:54Z</time>
      </trkpt>
      <trkpt lat="43.4453610" lon="-4.9921500">
        <ele>22.8</ele>
        <time>2021-07-19T08:04:56Z</time>
      </trkpt>
      <trkpt lat="43.4454120" lon="-4.9921550">
        <ele>22.8</ele>
        <time>2021-07-19T08:04:58Z</time>
      </trkpt>
      <trkpt lat="43.4454420" lon="-4.9921530">
        <ele>22.8</ele>
        <time>2021-07-19T08:04:59Z</time>
      </trkpt>
      <trkpt lat="43.4455610" lon="-4.9921470">
        <ele>22.4</ele>
        <time>2021-07-19T08:05:02Z</time>
      </trkpt>
      <trkpt lat="43.4456100" lon="-4.9921370">
        <ele>22.0</ele>
        <time>2021-07-19T08:05:03Z</time>
      </trkpt>
      <trkpt lat="43.4456620" lon="-4.9921300">
        <ele>21.6</ele>
        <time>2021-07-19T08:05:04Z</time>
      </trkpt>
      <trkpt lat="43.4457170" lon="-4.9921180">
        <ele>21.0</ele>
        <time>2021-07-19T08:05:05Z</time>
      </trkpt>
      <trkpt lat="43.4457750" lon="-4.9921060">
        <ele>20.6</ele>
        <time>2021-07-19T08:05:06Z</time>
      </trkpt>
      <trkpt lat="43.4459370" lon="-4.9920880">
        <ele>20.6</ele>
        <time>2021-07-19T08:05:09Z</time>
      </trkpt>
      <trkpt lat="43.4459920" lon="-4.9920820">
        <ele>20.6</ele>
        <time>2021-07-19T08:05:10Z</time>
      </trkpt>
      <trkpt lat="43.4460910" lon="-4.9920730">
        <ele>20.2</ele>
        <time>2021-07-19T08:05:12Z</time>
      </trkpt>
      <trkpt lat="43.4461300" lon="-4.9920680">
        <ele>19.8</ele>
        <time>2021-07-19T08:05:13Z</time>
      </trkpt>
      <trkpt lat="43.4461670" lon="-4.9920660">
        <ele>19.4</ele>
        <time>2021-07-19T08:05:14Z</time>
      </trkpt>
      <trkpt lat="43.4462020" lon="-4.9920670">
        <ele>19.0</ele>
        <time>2021-07-19T08:05:15Z</time>
      </trkpt>
      <trkpt lat="43.4462400" lon="-4.9920670">
        <ele>18.6</ele>
        <time>2021-07-19T08:05:16Z</time>
      </trkpt>
      <trkpt lat="43.4463070" lon="-4.9921150">
        <ele>18.6</ele>
        <time>2021-07-19T08:05:18Z</time>
      </trkpt>
      <trkpt lat="43.4463240" lon="-4.9921640">
        <ele>18.2</ele>
        <time>2021-07-19T08:05:19Z</time>
      </trkpt>
      <trkpt lat="43.4463380" lon="-4.9922200">
        <ele>17.8</ele>
        <time>2021-07-19T08:05:20Z</time>
      </trkpt>
      <trkpt lat="43.4463530" lon="-4.9922870">
        <ele>17.4</ele>
        <time>2021-07-19T08:05:21Z</time>
      </trkpt>
      <trkpt lat="43.4463670" lon="-4.9923600">
        <ele>17.0</ele>
        <time>2021-07-19T08:05:22Z</time>
      </trkpt>
      <trkpt lat="43.4463820" lon="-4.9924290">
        <ele>16.6</ele>
        <time>2021-07-19T08:05:23Z</time>
      </trkpt>
      <trkpt lat="43.4464000" lon="-4.9924970">
        <ele>16.6</ele>
        <time>2021-07-19T08:05:24Z</time>
      </trkpt>
      <trkpt lat="43.4464160" lon="-4.9925660">
        <ele>16.6</ele>
        <time>2021-07-19T08:05:25Z</time>
      </trkpt>
      <trkpt lat="43.4464500" lon="-4.9926990">
        <ele>16.6</ele>
        <time>2021-07-19T08:05:27Z</time>
      </trkpt>
      <trkpt lat="43.4464900" lon="-4.9928440">
        <ele>16.6</ele>
        <time>2021-07-19T08:05:29Z</time>
      </trkpt>
      <trkpt lat="43.4465090" lon="-4.9929170">
        <ele>16.6</ele>
        <time>2021-07-19T08:05:30Z</time>
      </trkpt>
      <trkpt lat="43.4465630" lon="-4.9931420">
        <ele>16.6</ele>
        <time>2021-07-19T08:05:33Z</time>
      </trkpt>
      <trkpt lat="43.4465990" lon="-4.9932910">
        <ele>16.6</ele>
        <time>2021-07-19T08:05:35Z</time>
      </trkpt>
      <trkpt lat="43.4466340" lon="-4.9934370">
        <ele>16.6</ele>
        <time>2021-07-19T08:05:37Z</time>
      </trkpt>
      <trkpt lat="43.4466720" lon="-4.9935880">
        <ele>16.6</ele>
        <time>2021-07-19T08:05:39Z</time>
      </trkpt>
      <trkpt lat="43.4466890" lon="-4.9936610">
        <ele>16.6</ele>
        <time>2021-07-19T08:05:40Z</time>
      </trkpt>
      <trkpt lat="43.4467160" lon="-4.9938050">
        <ele>16.6</ele>
        <time>2021-07-19T08:05:42Z</time>
      </trkpt>
      <trkpt lat="43.4467540" lon="-4.9940780">
        <ele>16.6</ele>
        <time>2021-07-19T08:05:46Z</time>
      </trkpt>
      <trkpt lat="43.4467570" lon="-4.9941460">
        <ele>16.6</ele>
        <time>2021-07-19T08:05:47Z</time>
      </trkpt>
      <trkpt lat="43.4467590" lon="-4.9943260">
        <ele>16.6</ele>
        <time>2021-07-19T08:05:50Z</time>
      </trkpt>
      <trkpt lat="43.4467620" lon="-4.9944980">
        <ele>16.6</ele>
        <time>2021-07-19T08:05:53Z</time>
      </trkpt>
      <trkpt lat="43.4467570" lon="-4.9946050">
        <ele>17.0</ele>
        <time>2021-07-19T08:05:55Z</time>
      </trkpt>
      <trkpt lat="43.4467540" lon="-4.9946520">
        <ele>17.4</ele>
        <time>2021-07-19T08:05:56Z</time>
      </trkpt>
      <trkpt lat="43.4467520" lon="-4.9946980">
        <ele>17.8</ele>
        <time>2021-07-19T08:05:57Z</time>
      </trkpt>
      <trkpt lat="43.4467500" lon="-4.9947450">
        <ele>18.2</ele>
        <time>2021-07-19T08:05:58Z</time>
      </trkpt>
      <trkpt lat="43.4467520" lon="-4.9947900">
        <ele>18.6</ele>
        <time>2021-07-19T08:05:59Z</time>
      </trkpt>
      <trkpt lat="43.4467500" lon="-4.9948340">
        <ele>18.6</ele>
        <time>2021-07-19T08:06:00Z</time>
      </trkpt>
      <trkpt lat="43.4467390" lon="-4.9950270">
        <ele>18.6</ele>
        <time>2021-07-19T08:06:04Z</time>
      </trkpt>
      <trkpt lat="43.4467310" lon="-4.9952160">
        <ele>18.6</ele>
        <time>2021-07-19T08:06:08Z</time>
      </trkpt>
      <trkpt lat="43.4466930" lon="-4.9955790">
        <ele>18.6</ele>
        <time>2021-07-19T08:06:15Z</time>
      </trkpt>
      <trkpt lat="43.4466670" lon="-4.9960390">
        <ele>18.6</ele>
        <time>2021-07-19T08:06:21Z</time>
      </trkpt>
      <trkpt lat="43.4466970" lon="-4.9964800">
        <ele>18.6</ele>
        <time>2021-07-19T08:06:25Z</time>
      </trkpt>
      <trkpt lat="43.4467420" lon="-4.9968340">
        <ele>18.6</ele>
        <time>2021-07-19T08:06:28Z</time>
      </trkpt>
      <trkpt lat="43.4467890" lon="-4.9970660">
        <ele>18.2</ele>
        <time>2021-07-19T08:06:30Z</time>
      </trkpt>
      <trkpt lat="43.4468140" lon="-4.9971740">
        <ele>17.8</ele>
        <time>2021-07-19T08:06:31Z</time>
      </trkpt>
      <trkpt lat="43.4468420" lon="-4.9972790">
        <ele>17.4</ele>
        <time>2021-07-19T08:06:32Z</time>
      </trkpt>
      <trkpt lat="43.4468690" lon="-4.9973890">
        <ele>16.8</ele>
        <time>2021-07-19T08:06:33Z</time>
      </trkpt>
      <trkpt lat="43.4468920" lon="-4.9974920">
        <ele>16.4</ele>
        <time>2021-07-19T08:06:34Z</time>
      </trkpt>
      <trkpt lat="43.4469260" lon="-4.9977880">
        <ele>16.0</ele>
        <time>2021-07-19T08:06:37Z</time>
      </trkpt>
      <trkpt lat="43.4469280" lon="-4.9978830">
        <ele>15.6</ele>
        <time>2021-07-19T08:06:38Z</time>
      </trkpt>
      <trkpt lat="43.4469270" lon="-4.9979730">
        <ele>15.2</ele>
        <time>2021-07-19T08:06:39Z</time>
      </trkpt>
      <trkpt lat="43.4469260" lon="-4.9980600">
        <ele>14.8</ele>
        <time>2021-07-19T08:06:40Z</time>
      </trkpt>
      <trkpt lat="43.4469350" lon="-4.9981360">
        <ele>14.4</ele>
        <time>2021-07-19T08:06:41Z</time>
      </trkpt>
      <trkpt lat="43.4469480" lon="-4.9982030">
        <ele>14.4</ele>
        <time>2021-07-19T08:06:42Z</time>
      </trkpt>
      <trkpt lat="43.4469720" lon="-4.9983150">
        <ele>14.4</ele>
        <time>2021-07-19T08:06:44Z</time>
      </trkpt>
      <trkpt lat="43.4470190" lon="-4.9984540">
        <ele>14.4</ele>
        <time>2021-07-19T08:06:47Z</time>
      </trkpt>
      <trkpt lat="43.4471440" lon="-4.9986690">
        <ele>14.4</ele>
        <time>2021-07-19T08:06:52Z</time>
      </trkpt>
      <trkpt lat="43.4472200" lon="-4.9987420">
        <ele>14.4</ele>
        <time>2021-07-19T08:06:54Z</time>
      </trkpt>
      <trkpt lat="43.4473370" lon="-4.9988290">
        <ele>14.4</ele>
        <time>2021-07-19T08:06:57Z</time>
      </trkpt>
      <trkpt lat="43.4474070" lon="-4.9988770">
        <ele>14.4</ele>
        <time>2021-07-19T08:06:59Z</time>
      </trkpt>
      <trkpt lat="43.4474720" lon="-4.9989170">
        <ele>14.4</ele>
        <time>2021-07-19T08:07:01Z</time>
      </trkpt>
      <trkpt lat="43.4475690" lon="-4.9989760">
        <ele>14.4</ele>
        <time>2021-07-19T08:07:04Z</time>
      </trkpt>
      <trkpt lat="43.4476000" lon="-4.9989920">
        <ele>14.8</ele>
        <time>2021-07-19T08:07:05Z</time>
      </trkpt>
      <trkpt lat="43.4476310" lon="-4.9990100">
        <ele>15.2</ele>
        <time>2021-07-19T08:07:06Z</time>
      </trkpt>
      <trkpt lat="43.4476640" lon="-4.9990290">
        <ele>15.6</ele>
        <time>2021-07-19T08:07:07Z</time>
      </trkpt>
      <trkpt lat="43.4476960" lon="-4.9990500">
        <ele>16.0</ele>
        <time>2021-07-19T08:07:08Z</time>
      </trkpt>
      <trkpt lat="43.4477310" lon="-4.9990720">
        <ele>16.4</ele>
        <time>2021-07-19T08:07:09Z</time>
      </trkpt>
      <trkpt lat="43.4478020" lon="-4.9991170">
        <ele>16.4</ele>
        <time>2021-07-19T08:07:11Z</time>
      </trkpt>
      <trkpt lat="43.4479020" lon="-4.9992010">
        <ele>16.4</ele>
        <time>2021-07-19T08:07:14Z</time>
      </trkpt>
      <trkpt lat="43.4479860" lon="-4.9993170">
        <ele>16.4</ele>
        <time>2021-07-19T08:07:17Z</time>
      </trkpt>
      <trkpt lat="43.4480170" lon="-4.9994270">
        <ele>16.4</ele>
        <time>2021-07-19T08:07:19Z</time>
      </trkpt>
      <trkpt lat="43.4480350" lon="-4.9995420">
        <ele>16.4</ele>
        <time>2021-07-19T08:07:21Z</time>
      </trkpt>
      <trkpt lat="43.4480420" lon="-4.9996580">
        <ele>16.4</ele>
        <time>2021-07-19T08:07:23Z</time>
      </trkpt>
      <trkpt lat="43.4480550" lon="-4.9998910">
        <ele>16.4</ele>
        <time>2021-07-19T08:07:27Z</time>
      </trkpt>
      <trkpt lat="43.4480690" lon="-5.0002390">
        <ele>16.4</ele>
        <time>2021-07-19T08:07:33Z</time>
      </trkpt>
      <trkpt lat="43.4480720" lon="-5.0003030">
        <ele>16.4</ele>
        <time>2021-07-19T08:07:34Z</time>
      </trkpt>
      <trkpt lat="43.4481140" lon="-5.0006370">
        <ele>16.4</ele>
        <time>2021-07-19T08:07:40Z</time>
      </trkpt>
      <trkpt lat="43.4481460" lon="-5.0008740">
        <ele>16.8</ele>
        <time>2021-07-19T08:07:45Z</time>
      </trkpt>
      <trkpt lat="43.4481550" lon="-5.0009180">
        <ele>17.4</ele>
        <time>2021-07-19T08:07:46Z</time>
      </trkpt>
      <trkpt lat="43.4481610" lon="-5.0009660">
        <ele>17.8</ele>
        <time>2021-07-19T08:07:47Z</time>
      </trkpt>
      <trkpt lat="43.4481650" lon="-5.0010170">
        <ele>18.2</ele>
        <time>2021-07-19T08:07:48Z</time>
      </trkpt>
      <trkpt lat="43.4481750" lon="-5.0010710">
        <ele>18.6</ele>
        <time>2021-07-19T08:07:49Z</time>
      </trkpt>
      <trkpt lat="43.4481810" lon="-5.0011310">
        <ele>18.6</ele>
        <time>2021-07-19T08:07:50Z</time>
      </trkpt>
      <trkpt lat="43.4481750" lon="-5.0013290">
        <ele>18.6</ele>
        <time>2021-07-19T08:07:53Z</time>
      </trkpt>
      <trkpt lat="43.4481660" lon="-5.0014000">
        <ele>18.6</ele>
        <time>2021-07-19T08:07:54Z</time>
      </trkpt>
      <trkpt lat="43.4481760" lon="-5.0016390">
        <ele>18.6</ele>
        <time>2021-07-19T08:07:57Z</time>
      </trkpt>
      <trkpt lat="43.4481850" lon="-5.0017220">
        <ele>18.6</ele>
        <time>2021-07-19T08:07:58Z</time>
      </trkpt>
      <trkpt lat="43.4482130" lon="-5.0018870">
        <ele>18.6</ele>
        <time>2021-07-19T08:08:00Z</time>
      </trkpt>
      <trkpt lat="43.4482440" lon="-5.0020510">
        <ele>18.6</ele>
        <time>2021-07-19T08:08:02Z</time>
      </trkpt>
      <trkpt lat="43.4482810" lon="-5.0022060">
        <ele>18.2</ele>
        <time>2021-07-19T08:08:04Z</time>
      </trkpt>
      <trkpt lat="43.4483010" lon="-5.0022850">
        <ele>17.8</ele>
        <time>2021-07-19T08:08:05Z</time>
      </trkpt>
      <trkpt lat="43.4483210" lon="-5.0023650">
        <ele>17.4</ele>
        <time>2021-07-19T08:08:06Z</time>
      </trkpt>
      <trkpt lat="43.4483410" lon="-5.0024430">
        <ele>17.0</ele>
        <time>2021-07-19T08:08:07Z</time>
      </trkpt>
      <trkpt lat="43.4483550" lon="-5.0025200">
        <ele>16.6</ele>
        <time>2021-07-19T08:08:08Z</time>
      </trkpt>
      <trkpt lat="43.4483770" lon="-5.0028310">
        <ele>16.6</ele>
        <time>2021-07-19T08:08:12Z</time>
      </trkpt>
      <trkpt lat="43.4483930" lon="-5.0031080">
        <ele>16.6</ele>
        <time>2021-07-19T08:08:16Z</time>
      </trkpt>
      <trkpt lat="43.4484140" lon="-5.0033180">
        <ele>16.6</ele>
        <time>2021-07-19T08:08:19Z</time>
      </trkpt>
      <trkpt lat="43.4484450" lon="-5.0035910">
        <ele>16.6</ele>
        <time>2021-07-19T08:08:23Z</time>
      </trkpt>
      <trkpt lat="43.4484520" lon="-5.0036540">
        <ele>16.2</ele>
        <time>2021-07-19T08:08:24Z</time>
      </trkpt>
      <trkpt lat="43.4484600" lon="-5.0037200">
        <ele>15.8</ele>
        <time>2021-07-19T08:08:25Z</time>
      </trkpt>
      <trkpt lat="43.4484670" lon="-5.0037780">
        <ele>15.4</ele>
        <time>2021-07-19T08:08:26Z</time>
      </trkpt>
      <trkpt lat="43.4484730" lon="-5.0038330">
        <ele>15.0</ele>
        <time>2021-07-19T08:08:27Z</time>
      </trkpt>
      <trkpt lat="43.4484800" lon="-5.0038880">
        <ele>14.6</ele>
        <time>2021-07-19T08:08:28Z</time>
      </trkpt>
      <trkpt lat="43.4485150" lon="-5.0041650">
        <ele>14.6</ele>
        <time>2021-07-19T08:08:32Z</time>
      </trkpt>
      <trkpt lat="43.4485290" lon="-5.0042350">
        <ele>14.6</ele>
        <time>2021-07-19T08:08:33Z</time>
      </trkpt>
      <trkpt lat="43.4485450" lon="-5.0044190">
        <ele>14.6</ele>
        <time>2021-07-19T08:08:36Z</time>
      </trkpt>
      <trkpt lat="43.4485590" lon="-5.0045890">
        <ele>14.6</ele>
        <time>2021-07-19T08:08:39Z</time>
      </trkpt>
      <trkpt lat="43.4485670" lon="-5.0049620">
        <ele>14.6</ele>
        <time>2021-07-19T08:08:46Z</time>
      </trkpt>
      <trkpt lat="43.4486530" lon="-5.0053850">
        <ele>14.6</ele>
        <time>2021-07-19T08:08:54Z</time>
      </trkpt>
      <trkpt lat="43.4487270" lon="-5.0056310">
        <ele>14.6</ele>
        <time>2021-07-19T08:08:59Z</time>
      </trkpt>
      <trkpt lat="43.4487790" lon="-5.0057370">
        <ele>14.6</ele>
        <time>2021-07-19T08:09:01Z</time>
      </trkpt>
      <trkpt lat="43.4488940" lon="-5.0059690">
        <ele>14.6</ele>
        <time>2021-07-19T08:09:05Z</time>
      </trkpt>
      <trkpt lat="43.4489460" lon="-5.0060780">
        <ele>14.6</ele>
        <time>2021-07-19T08:09:07Z</time>
      </trkpt>
      <trkpt lat="43.4490040" lon="-5.0061750">
        <ele>14.6</ele>
        <time>2021-07-19T08:09:09Z</time>
      </trkpt>
      <trkpt lat="43.4490400" lon="-5.0062200">
        <ele>14.6</ele>
        <time>2021-07-19T08:09:10Z</time>
      </trkpt>
      <trkpt lat="43.4491520" lon="-5.0062790">
        <ele>14.6</ele>
        <time>2021-07-19T08:09:13Z</time>
      </trkpt>
      <trkpt lat="43.4492350" lon="-5.0063140">
        <ele>14.6</ele>
        <time>2021-07-19T08:09:15Z</time>
      </trkpt>
      <trkpt lat="43.4493220" lon="-5.0063540">
        <ele>14.6</ele>
        <time>2021-07-19T08:09:17Z</time>
      </trkpt>
      <trkpt lat="43.4494090" lon="-5.0063970">
        <ele>14.6</ele>
        <time>2021-07-19T08:09:19Z</time>
      </trkpt>
      <trkpt lat="43.4494890" lon="-5.0064420">
        <ele>14.6</ele>
        <time>2021-07-19T08:09:21Z</time>
      </trkpt>
      <trkpt lat="43.4496400" lon="-5.0065440">
        <ele>14.6</ele>
        <time>2021-07-19T08:09:25Z</time>
      </trkpt>
      <trkpt lat="43.4497000" lon="-5.0065900">
        <ele>14.6</ele>
        <time>2021-07-19T08:09:27Z</time>
      </trkpt>
      <trkpt lat="43.4497510" lon="-5.0066280">
        <ele>14.6</ele>
        <time>2021-07-19T08:09:29Z</time>
      </trkpt>
      <trkpt lat="43.4497730" lon="-5.0066490">
        <ele>14.6</ele>
        <time>2021-07-19T08:09:30Z</time>
      </trkpt>
      <trkpt lat="43.4498310" lon="-5.0067360">
        <ele>14.6</ele>
        <time>2021-07-19T08:09:33Z</time>
      </trkpt>
      <trkpt lat="43.4498610" lon="-5.0067980">
        <ele>14.6</ele>
        <time>2021-07-19T08:09:35Z</time>
      </trkpt>
      <trkpt lat="43.4499090" lon="-5.0069120">
        <ele>14.6</ele>
        <time>2021-07-19T08:09:38Z</time>
      </trkpt>
      <trkpt lat="43.4499990" lon="-5.0070650">
        <ele>14.6</ele>
        <time>2021-07-19T08:09:42Z</time>
      </trkpt>
      <trkpt lat="43.4501910" lon="-5.0073090">
        <ele>14.6</ele>
        <time>2021-07-19T08:09:48Z</time>
      </trkpt>
      <trkpt lat="43.4503260" lon="-5.0075020">
        <ele>14.6</ele>
        <time>2021-07-19T08:09:53Z</time>
      </trkpt>
      <trkpt lat="43.4504060" lon="-5.0076110">
        <ele>14.6</ele>
        <time>2021-07-19T08:09:56Z</time>
      </trkpt>
      <trkpt lat="43.4505500" lon="-5.0078080">
        <ele>14.6</ele>
        <time>2021-07-19T08:10:01Z</time>
      </trkpt>
      <trkpt lat="43.4505990" lon="-5.0078930">
        <ele>14.6</ele>
        <time>2021-07-19T08:10:03Z</time>
      </trkpt>
      <trkpt lat="43.4506630" lon="-5.0080350">
        <ele>14.6</ele>
        <time>2021-07-19T08:10:06Z</time>
      </trkpt>
      <trkpt lat="43.4507060" lon="-5.0081450">
        <ele>14.6</ele>
        <time>2021-07-19T08:10:08Z</time>
      </trkpt>
      <trkpt lat="43.4507690" lon="-5.0082940">
        <ele>14.6</ele>
        <time>2021-07-19T08:10:11Z</time>
      </trkpt>
      <trkpt lat="43.4508050" lon="-5.0084060">
        <ele>14.6</ele>
        <time>2021-07-19T08:10:13Z</time>
      </trkpt>
      <trkpt lat="43.4508400" lon="-5.0085230">
        <ele>14.6</ele>
        <time>2021-07-19T08:10:15Z</time>
      </trkpt>
      <trkpt lat="43.4508760" lon="-5.0086070">
        <ele>14.6</ele>
        <time>2021-07-19T08:10:17Z</time>
      </trkpt>
      <trkpt lat="43.4509220" lon="-5.0086670">
        <ele>14.6</ele>
        <time>2021-07-19T08:10:21Z</time>
      </trkpt>
      <trkpt lat="43.4509190" lon="-5.0086620">
        <ele>14.6</ele>
        <time>2021-07-19T08:10:22Z</time>
      </trkpt>
      <trkpt lat="43.4509500" lon="-5.0086860">
        <ele>12.6</ele>
        <time>2021-07-19T08:14:28Z</time>
      </trkpt>
      <trkpt lat="43.4509730" lon="-5.0087460">
        <ele>12.6</ele>
        <time>2021-07-19T08:14:30Z</time>
      </trkpt>
      <trkpt lat="43.4510100" lon="-5.0088630">
        <ele>12.6</ele>
        <time>2021-07-19T08:14:33Z</time>
      </trkpt>
      <trkpt lat="43.4510570" lon="-5.0090030">
        <ele>12.6</ele>
        <time>2021-07-19T08:14:36Z</time>
      </trkpt>
      <trkpt lat="43.4511230" lon="-5.0092550">
        <ele>12.6</ele>
        <time>2021-07-19T08:14:41Z</time>
      </trkpt>
      <trkpt lat="43.4511480" lon="-5.0093450">
        <ele>12.6</ele>
        <time>2021-07-19T08:14:43Z</time>
      </trkpt>
      <trkpt lat="43.4511990" lon="-5.0094750">
        <ele>12.6</ele>
        <time>2021-07-19T08:14:46Z</time>
      </trkpt>
      <trkpt lat="43.4512900" lon="-5.0096950">
        <ele>12.6</ele>
        <time>2021-07-19T08:14:51Z</time>
      </trkpt>
      <trkpt lat="43.4513080" lon="-5.0097480">
        <ele>12.0</ele>
        <time>2021-07-19T08:14:52Z</time>
      </trkpt>
      <trkpt lat="43.4513290" lon="-5.0098030">
        <ele>11.6</ele>
        <time>2021-07-19T08:14:53Z</time>
      </trkpt>
      <trkpt lat="43.4513520" lon="-5.0098610">
        <ele>11.0</ele>
        <time>2021-07-19T08:14:54Z</time>
      </trkpt>
      <trkpt lat="43.4514140" lon="-5.0099210">
        <ele>10.6</ele>
        <time>2021-07-19T08:14:55Z</time>
      </trkpt>
      <trkpt lat="43.4514570" lon="-5.0099680">
        <ele>10.2</ele>
        <time>2021-07-19T08:14:56Z</time>
      </trkpt>
      <trkpt lat="43.4514920" lon="-5.0100070">
        <ele>10.2</ele>
        <time>2021-07-19T08:14:57Z</time>
      </trkpt>
      <trkpt lat="43.4515240" lon="-5.0100480">
        <ele>9.6</ele>
        <time>2021-07-19T08:14:58Z</time>
      </trkpt>
      <trkpt lat="43.4515460" lon="-5.0100850">
        <ele>9.2</ele>
        <time>2021-07-19T08:14:59Z</time>
      </trkpt>
      <trkpt lat="43.4515630" lon="-5.0101290">
        <ele>8.4</ele>
        <time>2021-07-19T08:15:00Z</time>
      </trkpt>
      <trkpt lat="43.4515750" lon="-5.0101760">
        <ele>7.8</ele>
        <time>2021-07-19T08:15:01Z</time>
      </trkpt>
      <trkpt lat="43.4516020" lon="-5.0103370">
        <ele>7.8</ele>
        <time>2021-07-19T08:15:05Z</time>
      </trkpt>
      <trkpt lat="43.4515970" lon="-5.0103750">
        <ele>7.8</ele>
        <time>2021-07-19T08:15:06Z</time>
      </trkpt>
      <trkpt lat="43.4515810" lon="-5.0104530">
        <ele>7.8</ele>
        <time>2021-07-19T08:15:08Z</time>
      </trkpt>
      <trkpt lat="43.4515470" lon="-5.0105370">
        <ele>7.8</ele>
        <time>2021-07-19T08:15:10Z</time>
      </trkpt>
      <trkpt lat="43.4515330" lon="-5.0105760">
        <ele>7.8</ele>
        <time>2021-07-19T08:15:11Z</time>
      </trkpt>
      <trkpt lat="43.4515040" lon="-5.0106560">
        <ele>7.8</ele>
        <time>2021-07-19T08:15:13Z</time>
      </trkpt>
      <trkpt lat="43.4514310" lon="-5.0108730">
        <ele>7.8</ele>
        <time>2021-07-19T08:15:17Z</time>
      </trkpt>
      <trkpt lat="43.4514180" lon="-5.0109360">
        <ele>7.8</ele>
        <time>2021-07-19T08:15:18Z</time>
      </trkpt>
      <trkpt lat="43.4513550" lon="-5.0111340">
        <ele>7.8</ele>
        <time>2021-07-19T08:15:21Z</time>
      </trkpt>
      <trkpt lat="43.4512890" lon="-5.0113140">
        <ele>7.8</ele>
        <time>2021-07-19T08:15:24Z</time>
      </trkpt>
      <trkpt lat="43.4512650" lon="-5.0113720">
        <ele>7.8</ele>
        <time>2021-07-19T08:15:25Z</time>
      </trkpt>
      <trkpt lat="43.4512350" lon="-5.0114190">
        <ele>7.8</ele>
        <time>2021-07-19T08:15:26Z</time>
      </trkpt>
      <trkpt lat="43.4511860" lon="-5.0115180">
        <ele>7.8</ele>
        <time>2021-07-19T08:15:28Z</time>
      </trkpt>
      <trkpt lat="43.4511530" lon="-5.0116150">
        <ele>7.8</ele>
        <time>2021-07-19T08:15:30Z</time>
      </trkpt>
      <trkpt lat="43.4510530" lon="-5.0119010">
        <ele>7.8</ele>
        <time>2021-07-19T08:15:36Z</time>
      </trkpt>
      <trkpt lat="43.4509550" lon="-5.0121220">
        <ele>7.8</ele>
        <time>2021-07-19T08:15:41Z</time>
      </trkpt>
      <trkpt lat="43.4509380" lon="-5.0121710">
        <ele>7.8</ele>
        <time>2021-07-19T08:15:42Z</time>
      </trkpt>
      <trkpt lat="43.4509190" lon="-5.0123490">
        <ele>7.8</ele>
        <time>2021-07-19T08:15:46Z</time>
      </trkpt>
      <trkpt lat="43.4509240" lon="-5.0123820">
        <ele>8.2</ele>
        <time>2021-07-19T08:15:47Z</time>
      </trkpt>
      <trkpt lat="43.4509290" lon="-5.0124210">
        <ele>8.8</ele>
        <time>2021-07-19T08:15:48Z</time>
      </trkpt>
      <trkpt lat="43.4509300" lon="-5.0124600">
        <ele>9.6</ele>
        <time>2021-07-19T08:15:49Z</time>
      </trkpt>
      <trkpt lat="43.4509340" lon="-5.0124990">
        <ele>10.0</ele>
        <time>2021-07-19T08:15:50Z</time>
      </trkpt>
      <trkpt lat="43.4509600" lon="-5.0126420">
        <ele>10.0</ele>
        <time>2021-07-19T08:15:54Z</time>
      </trkpt>
      <trkpt lat="43.4509690" lon="-5.0127060">
        <ele>10.4</ele>
        <time>2021-07-19T08:15:56Z</time>
      </trkpt>
      <trkpt lat="43.4509750" lon="-5.0127390">
        <ele>11.0</ele>
        <time>2021-07-19T08:15:57Z</time>
      </trkpt>
      <trkpt lat="43.4509820" lon="-5.0127760">
        <ele>11.4</ele>
        <time>2021-07-19T08:15:58Z</time>
      </trkpt>
      <trkpt lat="43.4509910" lon="-5.0128090">
        <ele>11.8</ele>
        <time>2021-07-19T08:15:59Z</time>
      </trkpt>
      <trkpt lat="43.4509960" lon="-5.0128430">
        <ele>12.2</ele>
        <time>2021-07-19T08:16:00Z</time>
      </trkpt>
      <trkpt lat="43.4510210" lon="-5.0129370">
        <ele>12.2</ele>
        <time>2021-07-19T08:16:03Z</time>
      </trkpt>
      <trkpt lat="43.4510410" lon="-5.0130330">
        <ele>12.8</ele>
        <time>2021-07-19T08:16:06Z</time>
      </trkpt>
      <trkpt lat="43.4510460" lon="-5.0130680">
        <ele>13.2</ele>
        <time>2021-07-19T08:16:07Z</time>
      </trkpt>
      <trkpt lat="43.4510510" lon="-5.0131020">
        <ele>13.6</ele>
        <time>2021-07-19T08:16:08Z</time>
      </trkpt>
      <trkpt lat="43.4510590" lon="-5.0131400">
        <ele>14.0</ele>
        <time>2021-07-19T08:16:09Z</time>
      </trkpt>
      <trkpt lat="43.4510650" lon="-5.0131730">
        <ele>14.4</ele>
        <time>2021-07-19T08:16:10Z</time>
      </trkpt>
      <trkpt lat="43.4510740" lon="-5.0133140">
        <ele>14.4</ele>
        <time>2021-07-19T08:16:14Z</time>
      </trkpt>
      <trkpt lat="43.4510780" lon="-5.0133520">
        <ele>14.8</ele>
        <time>2021-07-19T08:16:15Z</time>
      </trkpt>
      <trkpt lat="43.4510790" lon="-5.0133910">
        <ele>15.2</ele>
        <time>2021-07-19T08:16:16Z</time>
      </trkpt>
      <trkpt lat="43.4510840" lon="-5.0134290">
        <ele>15.6</ele>
        <time>2021-07-19T08:16:17Z</time>
      </trkpt>
      <trkpt lat="43.4510830" lon="-5.0134730">
        <ele>16.0</ele>
        <time>2021-07-19T08:16:18Z</time>
      </trkpt>
      <trkpt lat="43.4510830" lon="-5.0135130">
        <ele>16.4</ele>
        <time>2021-07-19T08:16:19Z</time>
      </trkpt>
      <trkpt lat="43.4510830" lon="-5.0136330">
        <ele>16.4</ele>
        <time>2021-07-19T08:16:22Z</time>
      </trkpt>
      <trkpt lat="43.4510660" lon="-5.0139200">
        <ele>16.4</ele>
        <time>2021-07-19T08:16:29Z</time>
      </trkpt>
      <trkpt lat="43.4510640" lon="-5.0139640">
        <ele>16.4</ele>
        <time>2021-07-19T08:16:30Z</time>
      </trkpt>
      <trkpt lat="43.4510570" lon="-5.0143150">
        <ele>16.4</ele>
        <time>2021-07-19T08:16:38Z</time>
      </trkpt>
      <trkpt lat="43.4510540" lon="-5.0144900">
        <ele>16.8</ele>
        <time>2021-07-19T08:16:42Z</time>
      </trkpt>
      <trkpt lat="43.4510540" lon="-5.0145330">
        <ele>17.2</ele>
        <time>2021-07-19T08:16:43Z</time>
      </trkpt>
      <trkpt lat="43.4510550" lon="-5.0145740">
        <ele>17.6</ele>
        <time>2021-07-19T08:16:44Z</time>
      </trkpt>
      <trkpt lat="43.4510610" lon="-5.0146100">
        <ele>18.0</ele>
        <time>2021-07-19T08:16:45Z</time>
      </trkpt>
      <trkpt lat="43.4510670" lon="-5.0146470">
        <ele>18.4</ele>
        <time>2021-07-19T08:16:46Z</time>
      </trkpt>
      <trkpt lat="43.4510850" lon="-5.0148670">
        <ele>18.4</ele>
        <time>2021-07-19T08:16:52Z</time>
      </trkpt>
      <trkpt lat="43.4510990" lon="-5.0151280">
        <ele>18.4</ele>
        <time>2021-07-19T08:16:58Z</time>
      </trkpt>
      <trkpt lat="43.4511690" lon="-5.0154000">
        <ele>18.4</ele>
        <time>2021-07-19T08:17:03Z</time>
      </trkpt>
      <trkpt lat="43.4512080" lon="-5.0155240">
        <ele>18.4</ele>
        <time>2021-07-19T08:17:05Z</time>
      </trkpt>
      <trkpt lat="43.4512310" lon="-5.0155900">
        <ele>18.4</ele>
        <time>2021-07-19T08:17:06Z</time>
      </trkpt>
      <trkpt lat="43.4512790" lon="-5.0157190">
        <ele>18.4</ele>
        <time>2021-07-19T08:17:08Z</time>
      </trkpt>
      <trkpt lat="43.4513200" lon="-5.0158540">
        <ele>18.4</ele>
        <time>2021-07-19T08:17:10Z</time>
      </trkpt>
      <trkpt lat="43.4513590" lon="-5.0159760">
        <ele>18.4</ele>
        <time>2021-07-19T08:17:12Z</time>
      </trkpt>
      <trkpt lat="43.4513710" lon="-5.0160370">
        <ele>18.4</ele>
        <time>2021-07-19T08:17:13Z</time>
      </trkpt>
      <trkpt lat="43.4514040" lon="-5.0162650">
        <ele>18.4</ele>
        <time>2021-07-19T08:17:17Z</time>
      </trkpt>
      <trkpt lat="43.4514150" lon="-5.0163180">
        <ele>18.4</ele>
        <time>2021-07-19T08:17:18Z</time>
      </trkpt>
      <trkpt lat="43.4515310" lon="-5.0166870">
        <ele>18.4</ele>
        <time>2021-07-19T08:17:25Z</time>
      </trkpt>
      <trkpt lat="43.4515820" lon="-5.0168630">
        <ele>18.4</ele>
        <time>2021-07-19T08:17:28Z</time>
      </trkpt>
      <trkpt lat="43.4516400" lon="-5.0170470">
        <ele>18.0</ele>
        <time>2021-07-19T08:17:31Z</time>
      </trkpt>
      <trkpt lat="43.4516620" lon="-5.0171100">
        <ele>17.6</ele>
        <time>2021-07-19T08:17:32Z</time>
      </trkpt>
      <trkpt lat="43.4516850" lon="-5.0171690">
        <ele>17.2</ele>
        <time>2021-07-19T08:17:33Z</time>
      </trkpt>
      <trkpt lat="43.4517070" lon="-5.0172280">
        <ele>16.8</ele>
        <time>2021-07-19T08:17:34Z</time>
      </trkpt>
      <trkpt lat="43.4517250" lon="-5.0172890">
        <ele>16.4</ele>
        <time>2021-07-19T08:17:35Z</time>
      </trkpt>
      <trkpt lat="43.4517820" lon="-5.0174730">
        <ele>16.4</ele>
        <time>2021-07-19T08:17:38Z</time>
      </trkpt>
      <trkpt lat="43.4518250" lon="-5.0175850">
        <ele>16.4</ele>
        <time>2021-07-19T08:17:40Z</time>
      </trkpt>
      <trkpt lat="43.4519000" lon="-5.0177290">
        <ele>16.4</ele>
        <time>2021-07-19T08:17:43Z</time>
      </trkpt>
      <trkpt lat="43.4519770" lon="-5.0178600">
        <ele>16.4</ele>
        <time>2021-07-19T08:17:46Z</time>
      </trkpt>
      <trkpt lat="43.4520080" lon="-5.0179060">
        <ele>16.4</ele>
        <time>2021-07-19T08:17:47Z</time>
      </trkpt>
      <trkpt lat="43.4521330" lon="-5.0181180">
        <ele>16.0</ele>
        <time>2021-07-19T08:17:51Z</time>
      </trkpt>
      <trkpt lat="43.4521690" lon="-5.0181700">
        <ele>15.2</ele>
        <time>2021-07-19T08:17:52Z</time>
      </trkpt>
      <trkpt lat="43.4522050" lon="-5.0182220">
        <ele>14.8</ele>
        <time>2021-07-19T08:17:53Z</time>
      </trkpt>
      <trkpt lat="43.4522380" lon="-5.0182760">
        <ele>14.4</ele>
        <time>2021-07-19T08:17:54Z</time>
      </trkpt>
      <trkpt lat="43.4522900" lon="-5.0183810">
        <ele>14.4</ele>
        <time>2021-07-19T08:17:56Z</time>
      </trkpt>
      <trkpt lat="43.4523280" lon="-5.0184940">
        <ele>14.4</ele>
        <time>2021-07-19T08:17:58Z</time>
      </trkpt>
      <trkpt lat="43.4523570" lon="-5.0186040">
        <ele>14.4</ele>
        <time>2021-07-19T08:18:00Z</time>
      </trkpt>
      <trkpt lat="43.4524230" lon="-5.0187420">
        <ele>14.4</ele>
        <time>2021-07-19T08:18:03Z</time>
      </trkpt>
      <trkpt lat="43.4524790" lon="-5.0188240">
        <ele>14.4</ele>
        <time>2021-07-19T08:18:05Z</time>
      </trkpt>
      <trkpt lat="43.4526070" lon="-5.0189720">
        <ele>14.4</ele>
        <time>2021-07-19T08:18:09Z</time>
      </trkpt>
      <trkpt lat="43.4527150" lon="-5.0191180">
        <ele>14.4</ele>
        <time>2021-07-19T08:18:13Z</time>
      </trkpt>
      <trkpt lat="43.4527410" lon="-5.0191520">
        <ele>14.4</ele>
        <time>2021-07-19T08:18:14Z</time>
      </trkpt>
      <trkpt lat="43.4527670" lon="-5.0191870">
        <ele>14.4</ele>
        <time>2021-07-19T08:18:15Z</time>
      </trkpt>
      <trkpt lat="43.4527910" lon="-5.0192240">
        <ele>14.4</ele>
        <time>2021-07-19T08:18:16Z</time>
      </trkpt>
      <trkpt lat="43.4528380" lon="-5.0192960">
        <ele>14.4</ele>
        <time>2021-07-19T08:18:18Z</time>
      </trkpt>
      <trkpt lat="43.4528600" lon="-5.0193310">
        <ele>14.4</ele>
        <time>2021-07-19T08:18:19Z</time>
      </trkpt>
      <trkpt lat="43.4528990" lon="-5.0193920">
        <ele>14.4</ele>
        <time>2021-07-19T08:18:21Z</time>
      </trkpt>
      <trkpt lat="43.4529170" lon="-5.0194210">
        <ele>14.4</ele>
        <time>2021-07-19T08:18:22Z</time>
      </trkpt>
      <trkpt lat="43.4529480" lon="-5.0194830">
        <ele>14.4</ele>
        <time>2021-07-19T08:18:24Z</time>
      </trkpt>
      <trkpt lat="43.4529740" lon="-5.0195460">
        <ele>14.4</ele>
        <time>2021-07-19T08:18:26Z</time>
      </trkpt>
      <trkpt lat="43.4529930" lon="-5.0196140">
        <ele>14.4</ele>
        <time>2021-07-19T08:18:28Z</time>
      </trkpt>
      <trkpt lat="43.4530250" lon="-5.0197240">
        <ele>14.4</ele>
        <time>2021-07-19T08:18:31Z</time>
      </trkpt>
      <trkpt lat="43.4530480" lon="-5.0198300">
        <ele>14.4</ele>
        <time>2021-07-19T08:18:34Z</time>
      </trkpt>
      <trkpt lat="43.4530660" lon="-5.0198970">
        <ele>14.8</ele>
        <time>2021-07-19T08:18:36Z</time>
      </trkpt>
      <trkpt lat="43.4530750" lon="-5.0199300">
        <ele>15.2</ele>
        <time>2021-07-19T08:18:37Z</time>
      </trkpt>
      <trkpt lat="43.4530870" lon="-5.0199610">
        <ele>15.6</ele>
        <time>2021-07-19T08:18:38Z</time>
      </trkpt>
      <trkpt lat="43.4530990" lon="-5.0199880">
        <ele>16.2</ele>
        <time>2021-07-19T08:18:39Z</time>
      </trkpt>
      <trkpt lat="43.4531110" lon="-5.0200150">
        <ele>16.6</ele>
        <time>2021-07-19T08:18:40Z</time>
      </trkpt>
      <trkpt lat="43.4531240" lon="-5.0200410">
        <ele>16.6</ele>
        <time>2021-07-19T08:18:41Z</time>
      </trkpt>
      <trkpt lat="43.4531640" lon="-5.0201260">
        <ele>17.0</ele>
        <time>2021-07-19T08:18:44Z</time>
      </trkpt>
      <trkpt lat="43.4531760" lon="-5.0201570">
        <ele>17.4</ele>
        <time>2021-07-19T08:18:45Z</time>
      </trkpt>
      <trkpt lat="43.4531840" lon="-5.0201910">
        <ele>17.8</ele>
        <time>2021-07-19T08:18:46Z</time>
      </trkpt>
      <trkpt lat="43.4531910" lon="-5.0202270">
        <ele>18.2</ele>
        <time>2021-07-19T08:18:47Z</time>
      </trkpt>
      <trkpt lat="43.4532010" lon="-5.0202690">
        <ele>18.8</ele>
        <time>2021-07-19T08:18:48Z</time>
      </trkpt>
      <trkpt lat="43.4532340" lon="-5.0203650">
        <ele>18.8</ele>
        <time>2021-07-19T08:18:50Z</time>
      </trkpt>
      <trkpt lat="43.4532590" lon="-5.0204130">
        <ele>18.8</ele>
        <time>2021-07-19T08:18:51Z</time>
      </trkpt>
      <trkpt lat="43.4533500" lon="-5.0205610">
        <ele>18.8</ele>
        <time>2021-07-19T08:18:54Z</time>
      </trkpt>
      <trkpt lat="43.4534380" lon="-5.0207060">
        <ele>18.8</ele>
        <time>2021-07-19T08:18:57Z</time>
      </trkpt>
      <trkpt lat="43.4535250" lon="-5.0208580">
        <ele>18.8</ele>
        <time>2021-07-19T08:19:00Z</time>
      </trkpt>
      <trkpt lat="43.4536270" lon="-5.0210010">
        <ele>18.8</ele>
        <time>2021-07-19T08:19:03Z</time>
      </trkpt>
      <trkpt lat="43.4536610" lon="-5.0210440">
        <ele>18.8</ele>
        <time>2021-07-19T08:19:04Z</time>
      </trkpt>
      <trkpt lat="43.4537300" lon="-5.0211240">
        <ele>18.4</ele>
        <time>2021-07-19T08:19:06Z</time>
      </trkpt>
      <trkpt lat="43.4537640" lon="-5.0211590">
        <ele>18.0</ele>
        <time>2021-07-19T08:19:07Z</time>
      </trkpt>
      <trkpt lat="43.4538010" lon="-5.0211930">
        <ele>17.6</ele>
        <time>2021-07-19T08:19:08Z</time>
      </trkpt>
      <trkpt lat="43.4538360" lon="-5.0212260">
        <ele>17.2</ele>
        <time>2021-07-19T08:19:09Z</time>
      </trkpt>
      <trkpt lat="43.4538690" lon="-5.0212620">
        <ele>16.6</ele>
        <time>2021-07-19T08:19:10Z</time>
      </trkpt>
      <trkpt lat="43.4539320" lon="-5.0213300">
        <ele>16.6</ele>
        <time>2021-07-19T08:19:12Z</time>
      </trkpt>
      <trkpt lat="43.4539940" lon="-5.0213980">
        <ele>16.6</ele>
        <time>2021-07-19T08:19:14Z</time>
      </trkpt>
      <trkpt lat="43.4540570" lon="-5.0214780">
        <ele>16.6</ele>
        <time>2021-07-19T08:19:16Z</time>
      </trkpt>
      <trkpt lat="43.4541030" lon="-5.0215710">
        <ele>16.6</ele>
        <time>2021-07-19T08:19:18Z</time>
      </trkpt>
      <trkpt lat="43.4542300" lon="-5.0218270">
        <ele>16.6</ele>
        <time>2021-07-19T08:19:24Z</time>
      </trkpt>
      <trkpt lat="43.4543310" lon="-5.0220930">
        <ele>16.6</ele>
        <time>2021-07-19T08:19:30Z</time>
      </trkpt>
      <trkpt lat="43.4543620" lon="-5.0221880">
        <ele>16.6</ele>
        <time>2021-07-19T08:19:32Z</time>
      </trkpt>
      <trkpt lat="43.4544760" lon="-5.0224260">
        <ele>16.6</ele>
        <time>2021-07-19T08:19:38Z</time>
      </trkpt>
      <trkpt lat="43.4545140" lon="-5.0225030">
        <ele>16.6</ele>
        <time>2021-07-19T08:19:40Z</time>
      </trkpt>
      <trkpt lat="43.4546040" lon="-5.0227130">
        <ele>16.6</ele>
        <time>2021-07-19T08:19:45Z</time>
      </trkpt>
      <trkpt lat="43.4547480" lon="-5.0230250">
        <ele>16.6</ele>
        <time>2021-07-19T08:19:52Z</time>
      </trkpt>
      <trkpt lat="43.4547990" lon="-5.0232260">
        <ele>16.6</ele>
        <time>2021-07-19T08:19:56Z</time>
      </trkpt>
      <trkpt lat="43.4548190" lon="-5.0233320">
        <ele>16.6</ele>
        <time>2021-07-19T08:19:58Z</time>
      </trkpt>
      <trkpt lat="43.4548340" lon="-5.0233850">
        <ele>16.6</ele>
        <time>2021-07-19T08:19:59Z</time>
      </trkpt>
      <trkpt lat="43.4548540" lon="-5.0234380">
        <ele>16.2</ele>
        <time>2021-07-19T08:20:00Z</time>
      </trkpt>
      <trkpt lat="43.4548810" lon="-5.0234950">
        <ele>15.8</ele>
        <time>2021-07-19T08:20:01Z</time>
      </trkpt>
      <trkpt lat="43.4549110" lon="-5.0235470">
        <ele>15.2</ele>
        <time>2021-07-19T08:20:02Z</time>
      </trkpt>
      <trkpt lat="43.4549470" lon="-5.0235960">
        <ele>14.8</ele>
        <time>2021-07-19T08:20:03Z</time>
      </trkpt>
      <trkpt lat="43.4549800" lon="-5.0236480">
        <ele>14.4</ele>
        <time>2021-07-19T08:20:04Z</time>
      </trkpt>
      <trkpt lat="43.4550110" lon="-5.0237080">
        <ele>14.4</ele>
        <time>2021-07-19T08:20:05Z</time>
      </trkpt>
      <trkpt lat="43.4550370" lon="-5.0237730">
        <ele>13.8</ele>
        <time>2021-07-19T08:20:06Z</time>
      </trkpt>
      <trkpt lat="43.4550580" lon="-5.0238400">
        <ele>13.4</ele>
        <time>2021-07-19T08:20:07Z</time>
      </trkpt>
      <trkpt lat="43.4550770" lon="-5.0239080">
        <ele>13.0</ele>
        <time>2021-07-19T08:20:08Z</time>
      </trkpt>
      <trkpt lat="43.4550930" lon="-5.0239830">
        <ele>12.6</ele>
        <time>2021-07-19T08:20:09Z</time>
      </trkpt>
      <trkpt lat="43.4551050" lon="-5.0240570">
        <ele>12.2</ele>
        <time>2021-07-19T08:20:10Z</time>
      </trkpt>
      <trkpt lat="43.4551140" lon="-5.0241310">
        <ele>12.2</ele>
        <time>2021-07-19T08:20:11Z</time>
      </trkpt>
      <trkpt lat="43.4551340" lon="-5.0243450">
        <ele>12.2</ele>
        <time>2021-07-19T08:20:14Z</time>
      </trkpt>
      <trkpt lat="43.4551470" lon="-5.0244870">
        <ele>11.8</ele>
        <time>2021-07-19T08:20:16Z</time>
      </trkpt>
      <trkpt lat="43.4551520" lon="-5.0245600">
        <ele>11.4</ele>
        <time>2021-07-19T08:20:17Z</time>
      </trkpt>
      <trkpt lat="43.4551580" lon="-5.0246300">
        <ele>11.0</ele>
        <time>2021-07-19T08:20:18Z</time>
      </trkpt>
      <trkpt lat="43.4551620" lon="-5.0246990">
        <ele>10.4</ele>
        <time>2021-07-19T08:20:19Z</time>
      </trkpt>
      <trkpt lat="43.4551650" lon="-5.0247690">
        <ele>10.0</ele>
        <time>2021-07-19T08:20:20Z</time>
      </trkpt>
      <trkpt lat="43.4551710" lon="-5.0248360">
        <ele>10.0</ele>
        <time>2021-07-19T08:20:21Z</time>
      </trkpt>
      <trkpt lat="43.4552330" lon="-5.0252850">
        <ele>9.6</ele>
        <time>2021-07-19T08:20:28Z</time>
      </trkpt>
      <trkpt lat="43.4552430" lon="-5.0253420">
        <ele>9.2</ele>
        <time>2021-07-19T08:20:29Z</time>
      </trkpt>
      <trkpt lat="43.4552530" lon="-5.0253990">
        <ele>8.8</ele>
        <time>2021-07-19T08:20:30Z</time>
      </trkpt>
      <trkpt lat="43.4552610" lon="-5.0254510">
        <ele>8.4</ele>
        <time>2021-07-19T08:20:31Z</time>
      </trkpt>
      <trkpt lat="43.4552700" lon="-5.0255040">
        <ele>8.0</ele>
        <time>2021-07-19T08:20:32Z</time>
      </trkpt>
      <trkpt lat="43.4552860" lon="-5.0256090">
        <ele>8.0</ele>
        <time>2021-07-19T08:20:34Z</time>
      </trkpt>
      <trkpt lat="43.4552950" lon="-5.0256620">
        <ele>8.0</ele>
        <time>2021-07-19T08:20:35Z</time>
      </trkpt>
      <trkpt lat="43.4553050" lon="-5.0257130">
        <ele>8.0</ele>
        <time>2021-07-19T08:20:36Z</time>
      </trkpt>
      <trkpt lat="43.4553320" lon="-5.0258110">
        <ele>8.0</ele>
        <time>2021-07-19T08:20:38Z</time>
      </trkpt>
      <trkpt lat="43.4553660" lon="-5.0259180">
        <ele>8.0</ele>
        <time>2021-07-19T08:20:41Z</time>
      </trkpt>
      <trkpt lat="43.4553720" lon="-5.0260320">
        <ele>8.0</ele>
        <time>2021-07-19T08:20:44Z</time>
      </trkpt>
      <trkpt lat="43.4553770" lon="-5.0261140">
        <ele>8.4</ele>
        <time>2021-07-19T08:20:46Z</time>
      </trkpt>
      <trkpt lat="43.4553810" lon="-5.0261540">
        <ele>8.8</ele>
        <time>2021-07-19T08:20:47Z</time>
      </trkpt>
      <trkpt lat="43.4553870" lon="-5.0261940">
        <ele>9.2</ele>
        <time>2021-07-19T08:20:48Z</time>
      </trkpt>
      <trkpt lat="43.4553930" lon="-5.0262360">
        <ele>9.6</ele>
        <time>2021-07-19T08:20:49Z</time>
      </trkpt>
      <trkpt lat="43.4553990" lon="-5.0262800">
        <ele>10.0</ele>
        <time>2021-07-19T08:20:50Z</time>
      </trkpt>
      <trkpt lat="43.4554050" lon="-5.0263700">
        <ele>10.0</ele>
        <time>2021-07-19T08:20:52Z</time>
      </trkpt>
      <trkpt lat="43.4554050" lon="-5.0264150">
        <ele>10.0</ele>
        <time>2021-07-19T08:20:53Z</time>
      </trkpt>
      <trkpt lat="43.4554240" lon="-5.0267650">
        <ele>10.0</ele>
        <time>2021-07-19T08:21:00Z</time>
      </trkpt>
      <trkpt lat="43.4554910" lon="-5.0271540">
        <ele>10.0</ele>
        <time>2021-07-19T08:21:08Z</time>
      </trkpt>
      <trkpt lat="43.4555140" lon="-5.0274850">
        <ele>10.0</ele>
        <time>2021-07-19T08:21:15Z</time>
      </trkpt>
      <trkpt lat="43.4555200" lon="-5.0277140">
        <ele>10.0</ele>
        <time>2021-07-19T08:21:21Z</time>
      </trkpt>
      <trkpt lat="43.4555260" lon="-5.0277490">
        <ele>10.4</ele>
        <time>2021-07-19T08:21:22Z</time>
      </trkpt>
      <trkpt lat="43.4555330" lon="-5.0277820">
        <ele>10.8</ele>
        <time>2021-07-19T08:21:23Z</time>
      </trkpt>
      <trkpt lat="43.4555420" lon="-5.0278170">
        <ele>11.2</ele>
        <time>2021-07-19T08:21:24Z</time>
      </trkpt>
      <trkpt lat="43.4555560" lon="-5.0278530">
        <ele>11.6</ele>
        <time>2021-07-19T08:21:25Z</time>
      </trkpt>
      <trkpt lat="43.4555700" lon="-5.0278860">
        <ele>12.0</ele>
        <time>2021-07-19T08:21:26Z</time>
      </trkpt>
      <trkpt lat="43.4555850" lon="-5.0279170">
        <ele>12.0</ele>
        <time>2021-07-19T08:21:27Z</time>
      </trkpt>
      <trkpt lat="43.4556570" lon="-5.0280540">
        <ele>12.0</ele>
        <time>2021-07-19T08:21:31Z</time>
      </trkpt>
      <trkpt lat="43.4556970" lon="-5.0281310">
        <ele>12.0</ele>
        <time>2021-07-19T08:21:33Z</time>
      </trkpt>
      <trkpt lat="43.4557990" lon="-5.0283650">
        <ele>12.0</ele>
        <time>2021-07-19T08:21:39Z</time>
      </trkpt>
      <trkpt lat="43.4559270" lon="-5.0285650">
        <ele>12.4</ele>
        <time>2021-07-19T08:21:45Z</time>
      </trkpt>
      <trkpt lat="43.4559470" lon="-5.0286050">
        <ele>12.8</ele>
        <time>2021-07-19T08:21:46Z</time>
      </trkpt>
      <trkpt lat="43.4559660" lon="-5.0286500">
        <ele>13.4</ele>
        <time>2021-07-19T08:21:47Z</time>
      </trkpt>
      <trkpt lat="43.4559810" lon="-5.0286930">
        <ele>13.8</ele>
        <time>2021-07-19T08:21:48Z</time>
      </trkpt>
      <trkpt lat="43.4559930" lon="-5.0287360">
        <ele>14.2</ele>
        <time>2021-07-19T08:21:49Z</time>
      </trkpt>
      <trkpt lat="43.4560570" lon="-5.0289220">
        <ele>14.2</ele>
        <time>2021-07-19T08:21:54Z</time>
      </trkpt>
      <trkpt lat="43.4561110" lon="-5.0291350">
        <ele>14.6</ele>
        <time>2021-07-19T08:22:00Z</time>
      </trkpt>
      <trkpt lat="43.4561190" lon="-5.0291670">
        <ele>15.0</ele>
        <time>2021-07-19T08:22:01Z</time>
      </trkpt>
      <trkpt lat="43.4561270" lon="-5.0292010">
        <ele>15.4</ele>
        <time>2021-07-19T08:22:02Z</time>
      </trkpt>
      <trkpt lat="43.4561350" lon="-5.0292320">
        <ele>15.8</ele>
        <time>2021-07-19T08:22:03Z</time>
      </trkpt>
      <trkpt lat="43.4561440" lon="-5.0292630">
        <ele>16.2</ele>
        <time>2021-07-19T08:22:04Z</time>
      </trkpt>
      <trkpt lat="43.4562080" lon="-5.0294160">
        <ele>16.2</ele>
        <time>2021-07-19T08:22:09Z</time>
      </trkpt>
      <trkpt lat="43.4562950" lon="-5.0295650">
        <ele>16.6</ele>
        <time>2021-07-19T08:22:14Z</time>
      </trkpt>
      <trkpt lat="43.4563120" lon="-5.0295940">
        <ele>17.0</ele>
        <time>2021-07-19T08:22:15Z</time>
      </trkpt>
      <trkpt lat="43.4563290" lon="-5.0296260">
        <ele>17.4</ele>
        <time>2021-07-19T08:22:16Z</time>
      </trkpt>
      <trkpt lat="43.4563430" lon="-5.0296610">
        <ele>17.8</ele>
        <time>2021-07-19T08:22:17Z</time>
      </trkpt>
      <trkpt lat="43.4563560" lon="-5.0296950">
        <ele>18.2</ele>
        <time>2021-07-19T08:22:18Z</time>
      </trkpt>
      <trkpt lat="43.4564330" lon="-5.0299080">
        <ele>18.2</ele>
        <time>2021-07-19T08:22:24Z</time>
      </trkpt>
      <trkpt lat="43.4565280" lon="-5.0302560">
        <ele>18.2</ele>
        <time>2021-07-19T08:22:33Z</time>
      </trkpt>
      <trkpt lat="43.4565950" lon="-5.0304840">
        <ele>18.2</ele>
        <time>2021-07-19T08:22:40Z</time>
      </trkpt>
      <trkpt lat="43.4566210" lon="-5.0305770">
        <ele>18.2</ele>
        <time>2021-07-19T08:22:43Z</time>
      </trkpt>
      <trkpt lat="43.4566510" lon="-5.0306560">
        <ele>18.2</ele>
        <time>2021-07-19T08:22:46Z</time>
      </trkpt>
      <trkpt lat="43.4566580" lon="-5.0306770">
        <ele>18.2</ele>
        <time>2021-07-19T08:22:47Z</time>
      </trkpt>
      <trkpt lat="43.4566690" lon="-5.0307110">
        <ele>18.2</ele>
        <time>2021-07-19T08:22:49Z</time>
      </trkpt>
      <trkpt lat="43.4566700" lon="-5.0307150">
        <ele>18.2</ele>
        <time>2021-07-19T08:22:50Z</time>
      </trkpt>
      <trkpt lat="43.4566350" lon="-5.0306610">
        <ele>18.2</ele>
        <time>2021-07-19T08:23:13Z</time>
      </trkpt>
      <trkpt lat="43.4566250" lon="-5.0306360">
        <ele>18.2</ele>
        <time>2021-07-19T08:23:14Z</time>
      </trkpt>
      <trkpt lat="43.4565950" lon="-5.0305300">
        <ele>18.2</ele>
        <time>2021-07-19T08:23:17Z</time>
      </trkpt>
      <trkpt lat="43.4565710" lon="-5.0303950">
        <ele>18.2</ele>
        <time>2021-07-19T08:23:20Z</time>
      </trkpt>
      <trkpt lat="43.4564750" lon="-5.0300810">
        <ele>18.2</ele>
        <time>2021-07-19T08:23:26Z</time>
      </trkpt>
      <trkpt lat="43.4564390" lon="-5.0299120">
        <ele>18.2</ele>
        <time>2021-07-19T08:23:29Z</time>
      </trkpt>
      <trkpt lat="43.4563870" lon="-5.0297670">
        <ele>18.2</ele>
        <time>2021-07-19T08:23:32Z</time>
      </trkpt>
      <trkpt lat="43.4563640" lon="-5.0297160">
        <ele>18.2</ele>
        <time>2021-07-19T08:23:33Z</time>
      </trkpt>
      <trkpt lat="43.4562390" lon="-5.0294500">
        <ele>18.2</ele>
        <time>2021-07-19T08:23:39Z</time>
      </trkpt>
      <trkpt lat="43.4561900" lon="-5.0293640">
        <ele>18.2</ele>
        <time>2021-07-19T08:23:41Z</time>
      </trkpt>
      <trkpt lat="43.4561410" lon="-5.0292670">
        <ele>18.2</ele>
        <time>2021-07-19T08:23:43Z</time>
      </trkpt>
      <trkpt lat="43.4561040" lon="-5.0291550">
        <ele>18.2</ele>
        <time>2021-07-19T08:23:45Z</time>
      </trkpt>
      <trkpt lat="43.4560890" lon="-5.0290930">
        <ele>18.2</ele>
        <time>2021-07-19T08:23:46Z</time>
      </trkpt>
      <trkpt lat="43.4560560" lon="-5.0289600">
        <ele>17.8</ele>
        <time>2021-07-19T08:23:48Z</time>
      </trkpt>
      <trkpt lat="43.4560370" lon="-5.0288960">
        <ele>17.4</ele>
        <time>2021-07-19T08:23:49Z</time>
      </trkpt>
      <trkpt lat="43.4560160" lon="-5.0288340">
        <ele>17.0</ele>
        <time>2021-07-19T08:23:50Z</time>
      </trkpt>
      <trkpt lat="43.4559980" lon="-5.0287730">
        <ele>16.6</ele>
        <time>2021-07-19T08:23:51Z</time>
      </trkpt>
      <trkpt lat="43.4559780" lon="-5.0287150">
        <ele>16.2</ele>
        <time>2021-07-19T08:23:52Z</time>
      </trkpt>
      <trkpt lat="43.4559570" lon="-5.0286570">
        <ele>16.2</ele>
        <time>2021-07-19T08:23:53Z</time>
      </trkpt>
      <trkpt lat="43.4559060" lon="-5.0285440">
        <ele>16.2</ele>
        <time>2021-07-19T08:23:55Z</time>
      </trkpt>
      <trkpt lat="43.4558320" lon="-5.0284270">
        <ele>15.8</ele>
        <time>2021-07-19T08:23:58Z</time>
      </trkpt>
      <trkpt lat="43.4558110" lon="-5.0283910">
        <ele>15.4</ele>
        <time>2021-07-19T08:23:59Z</time>
      </trkpt>
      <trkpt lat="43.4557910" lon="-5.0283570">
        <ele>15.0</ele>
        <time>2021-07-19T08:24:00Z</time>
      </trkpt>
      <trkpt lat="43.4557680" lon="-5.0283240">
        <ele>14.2</ele>
        <time>2021-07-19T08:24:01Z</time>
      </trkpt>
      <trkpt lat="43.4557260" lon="-5.0282600">
        <ele>14.2</ele>
        <time>2021-07-19T08:24:03Z</time>
      </trkpt>
      <trkpt lat="43.4556940" lon="-5.0281890">
        <ele>14.2</ele>
        <time>2021-07-19T08:24:05Z</time>
      </trkpt>
      <trkpt lat="43.4556620" lon="-5.0281160">
        <ele>14.2</ele>
        <time>2021-07-19T08:24:07Z</time>
      </trkpt>
      <trkpt lat="43.4556140" lon="-5.0280070">
        <ele>14.2</ele>
        <time>2021-07-19T08:24:10Z</time>
      </trkpt>
      <trkpt lat="43.4555990" lon="-5.0279730">
        <ele>14.2</ele>
        <time>2021-07-19T08:24:11Z</time>
      </trkpt>
      <trkpt lat="43.4555130" lon="-5.0277820">
        <ele>14.2</ele>
        <time>2021-07-19T08:24:17Z</time>
      </trkpt>
      <trkpt lat="43.4555040" lon="-5.0277630">
        <ele>14.2</ele>
        <time>2021-07-19T08:24:19Z</time>
      </trkpt>
      <trkpt lat="43.4555030" lon="-5.0277340">
        <ele>14.2</ele>
        <time>2021-07-19T08:24:33Z</time>
      </trkpt>
      <trkpt lat="43.4555010" lon="-5.0277050">
        <ele>14.2</ele>
        <time>2021-07-19T08:24:34Z</time>
      </trkpt>
      <trkpt lat="43.4554920" lon="-5.0276320">
        <ele>13.8</ele>
        <time>2021-07-19T08:24:36Z</time>
      </trkpt>
      <trkpt lat="43.4554890" lon="-5.0275830">
        <ele>13.4</ele>
        <time>2021-07-19T08:24:37Z</time>
      </trkpt>
      <trkpt lat="43.4554890" lon="-5.0275240">
        <ele>13.0</ele>
        <time>2021-07-19T08:24:38Z</time>
      </trkpt>
      <trkpt lat="43.4554910" lon="-5.0274600">
        <ele>12.6</ele>
        <time>2021-07-19T08:24:39Z</time>
      </trkpt>
      <trkpt lat="43.4554930" lon="-5.0273880">
        <ele>12.2</ele>
        <time>2021-07-19T08:24:40Z</time>
      </trkpt>
      <trkpt lat="43.4554600" lon="-5.0270490">
        <ele>12.2</ele>
        <time>2021-07-19T08:24:45Z</time>
      </trkpt>
      <trkpt lat="43.4554260" lon="-5.0268660">
        <ele>12.2</ele>
        <time>2021-07-19T08:24:48Z</time>
      </trkpt>
      <trkpt lat="43.4553960" lon="-5.0266470">
        <ele>12.2</ele>
        <time>2021-07-19T08:24:52Z</time>
      </trkpt>
      <trkpt lat="43.4553860" lon="-5.0264410">
        <ele>12.2</ele>
        <time>2021-07-19T08:24:56Z</time>
      </trkpt>
      <trkpt lat="43.4553850" lon="-5.0263450">
        <ele>12.2</ele>
        <time>2021-07-19T08:24:58Z</time>
      </trkpt>
      <trkpt lat="43.4553820" lon="-5.0262950">
        <ele>12.2</ele>
        <time>2021-07-19T08:24:59Z</time>
      </trkpt>
      <trkpt lat="43.4553590" lon="-5.0260080">
        <ele>12.2</ele>
        <time>2021-07-19T08:25:06Z</time>
      </trkpt>
      <trkpt lat="43.4553610" lon="-5.0259780">
        <ele>11.6</ele>
        <time>2021-07-19T08:25:07Z</time>
      </trkpt>
      <trkpt lat="43.4553670" lon="-5.0259410">
        <ele>11.2</ele>
        <time>2021-07-19T08:25:08Z</time>
      </trkpt>
      <trkpt lat="43.4553760" lon="-5.0259040">
        <ele>10.8</ele>
        <time>2021-07-19T08:25:09Z</time>
      </trkpt>
      <trkpt lat="43.4553900" lon="-5.0258700">
        <ele>10.4</ele>
        <time>2021-07-19T08:25:10Z</time>
      </trkpt>
      <trkpt lat="43.4554040" lon="-5.0258440">
        <ele>10.0</ele>
        <time>2021-07-19T08:25:11Z</time>
      </trkpt>
      <trkpt lat="43.4554160" lon="-5.0258210">
        <ele>10.0</ele>
        <time>2021-07-19T08:25:13Z</time>
      </trkpt>
      <trkpt lat="43.4554000" lon="-5.0258340">
        <ele>10.0</ele>
        <time>2021-07-19T08:25:38Z</time>
      </trkpt>
      <trkpt lat="43.4553800" lon="-5.0258910">
        <ele>10.0</ele>
        <time>2021-07-19T08:25:40Z</time>
      </trkpt>
      <trkpt lat="43.4553710" lon="-5.0259750">
        <ele>10.0</ele>
        <time>2021-07-19T08:25:42Z</time>
      </trkpt>
      <trkpt lat="43.4553750" lon="-5.0260950">
        <ele>10.0</ele>
        <time>2021-07-19T08:25:45Z</time>
      </trkpt>
      <trkpt lat="43.4553860" lon="-5.0262210">
        <ele>10.0</ele>
        <time>2021-07-19T08:25:48Z</time>
      </trkpt>
      <trkpt lat="43.4553860" lon="-5.0264070">
        <ele>10.0</ele>
        <time>2021-07-19T08:25:52Z</time>
      </trkpt>
      <trkpt lat="43.4553910" lon="-5.0265400">
        <ele>10.0</ele>
        <time>2021-07-19T08:25:55Z</time>
      </trkpt>
      <trkpt lat="43.4554240" lon="-5.0268650">
        <ele>10.0</ele>
        <time>2021-07-19T08:26:02Z</time>
      </trkpt>
      <trkpt lat="43.4554810" lon="-5.0271480">
        <ele>10.0</ele>
        <time>2021-07-19T08:26:08Z</time>
      </trkpt>
      <trkpt lat="43.4555010" lon="-5.0275140">
        <ele>10.0</ele>
        <time>2021-07-19T08:26:16Z</time>
      </trkpt>
      <trkpt lat="43.4555210" lon="-5.0277620">
        <ele>10.0</ele>
        <time>2021-07-19T08:26:22Z</time>
      </trkpt>
      <trkpt lat="43.4555300" lon="-5.0277980">
        <ele>10.6</ele>
        <time>2021-07-19T08:26:23Z</time>
      </trkpt>
      <trkpt lat="43.4555390" lon="-5.0278290">
        <ele>11.0</ele>
        <time>2021-07-19T08:26:24Z</time>
      </trkpt>
      <trkpt lat="43.4555510" lon="-5.0278620">
        <ele>11.4</ele>
        <time>2021-07-19T08:26:25Z</time>
      </trkpt>
      <trkpt lat="43.4555630" lon="-5.0278920">
        <ele>11.8</ele>
        <time>2021-07-19T08:26:26Z</time>
      </trkpt>
      <trkpt lat="43.4555780" lon="-5.0279200">
        <ele>12.2</ele>
        <time>2021-07-19T08:26:27Z</time>
      </trkpt>
      <trkpt lat="43.4556100" lon="-5.0279770">
        <ele>12.2</ele>
        <time>2021-07-19T08:26:29Z</time>
      </trkpt>
      <trkpt lat="43.4556430" lon="-5.0280570">
        <ele>12.2</ele>
        <time>2021-07-19T08:26:33Z</time>
      </trkpt>
      <trkpt lat="43.4556510" lon="-5.0280620">
        <ele>12.2</ele>
        <time>2021-07-19T08:26:34Z</time>
      </trkpt>
      <trkpt lat="43.4556500" lon="-5.0280350">
        <ele>12.2</ele>
        <time>2021-07-19T08:26:37Z</time>
      </trkpt>
      <trkpt lat="43.4556400" lon="-5.0280240">
        <ele>12.2</ele>
        <time>2021-07-19T08:26:38Z</time>
      </trkpt>
      <trkpt lat="43.4555660" lon="-5.0278920">
        <ele>12.2</ele>
        <time>2021-07-19T08:26:43Z</time>
      </trkpt>
      <trkpt lat="43.4554970" lon="-5.0276560">
        <ele>12.2</ele>
        <time>2021-07-19T08:26:48Z</time>
      </trkpt>
      <trkpt lat="43.4554900" lon="-5.0273810">
        <ele>12.2</ele>
        <time>2021-07-19T08:26:52Z</time>
      </trkpt>
      <trkpt lat="43.4554870" lon="-5.0273090">
        <ele>12.2</ele>
        <time>2021-07-19T08:26:53Z</time>
      </trkpt>
      <trkpt lat="43.4554820" lon="-5.0272390">
        <ele>12.2</ele>
        <time>2021-07-19T08:26:54Z</time>
      </trkpt>
      <trkpt lat="43.4554730" lon="-5.0271690">
        <ele>12.2</ele>
        <time>2021-07-19T08:26:55Z</time>
      </trkpt>
      <trkpt lat="43.4554500" lon="-5.0270340">
        <ele>12.2</ele>
        <time>2021-07-19T08:26:57Z</time>
      </trkpt>
      <trkpt lat="43.4554140" lon="-5.0268390">
        <ele>12.2</ele>
        <time>2021-07-19T08:27:00Z</time>
      </trkpt>
      <trkpt lat="43.4553830" lon="-5.0265040">
        <ele>12.2</ele>
        <time>2021-07-19T08:27:06Z</time>
      </trkpt>
      <trkpt lat="43.4553830" lon="-5.0264520">
        <ele>12.2</ele>
        <time>2021-07-19T08:27:07Z</time>
      </trkpt>
      <trkpt lat="43.4553730" lon="-5.0261640">
        <ele>12.2</ele>
        <time>2021-07-19T08:27:13Z</time>
      </trkpt>
      <trkpt lat="43.4553640" lon="-5.0260760">
        <ele>12.2</ele>
        <time>2021-07-19T08:27:15Z</time>
      </trkpt>
      <trkpt lat="43.4553650" lon="-5.0259790">
        <ele>11.4</ele>
        <time>2021-07-19T08:27:17Z</time>
      </trkpt>
      <trkpt lat="43.4553730" lon="-5.0259260">
        <ele>11.0</ele>
        <time>2021-07-19T08:27:18Z</time>
      </trkpt>
      <trkpt lat="43.4553870" lon="-5.0258690">
        <ele>10.6</ele>
        <time>2021-07-19T08:27:19Z</time>
      </trkpt>
      <trkpt lat="43.4554140" lon="-5.0258170">
        <ele>10.2</ele>
        <time>2021-07-19T08:27:20Z</time>
      </trkpt>
      <trkpt lat="43.4554820" lon="-5.0257550">
        <ele>10.2</ele>
        <time>2021-07-19T08:27:22Z</time>
      </trkpt>
      <trkpt lat="43.4555170" lon="-5.0257300">
        <ele>10.2</ele>
        <time>2021-07-19T08:27:23Z</time>
      </trkpt>
      <trkpt lat="43.4557310" lon="-5.0256060">
        <ele>10.2</ele>
        <time>2021-07-19T08:27:29Z</time>
      </trkpt>
      <trkpt lat="43.4558570" lon="-5.0255400">
        <ele>10.2</ele>
        <time>2021-07-19T08:27:33Z</time>
      </trkpt>
      <trkpt lat="43.4558910" lon="-5.0255360">
        <ele>10.2</ele>
        <time>2021-07-19T08:27:34Z</time>
      </trkpt>
      <trkpt lat="43.4559580" lon="-5.0255410">
        <ele>10.2</ele>
        <time>2021-07-19T08:27:36Z</time>
      </trkpt>
      <trkpt lat="43.4560930" lon="-5.0255290">
        <ele>10.2</ele>
        <time>2021-07-19T08:27:40Z</time>
      </trkpt>
      <trkpt lat="43.4563130" lon="-5.0255090">
        <ele>10.2</ele>
        <time>2021-07-19T08:27:47Z</time>
      </trkpt>
      <trkpt lat="43.4564570" lon="-5.0255650">
        <ele>10.2</ele>
        <time>2021-07-19T08:27:52Z</time>
      </trkpt>
      <trkpt lat="43.4565490" lon="-5.0256210">
        <ele>10.2</ele>
        <time>2021-07-19T08:27:56Z</time>
      </trkpt>
      <trkpt lat="43.4566230" lon="-5.0256720">
        <ele>10.2</ele>
        <time>2021-07-19T08:27:59Z</time>
      </trkpt>
      <trkpt lat="43.4567750" lon="-5.0258010">
        <ele>10.2</ele>
        <time>2021-07-19T08:28:05Z</time>
      </trkpt>
      <trkpt lat="43.4568880" lon="-5.0257380">
        <ele>10.2</ele>
        <time>2021-07-19T08:28:09Z</time>
      </trkpt>
      <trkpt lat="43.4570680" lon="-5.0256640">
        <ele>10.2</ele>
        <time>2021-07-19T08:28:15Z</time>
      </trkpt>
      <trkpt lat="43.4571910" lon="-5.0257110">
        <ele>10.2</ele>
        <time>2021-07-19T08:28:20Z</time>
      </trkpt>
      <trkpt lat="43.4573070" lon="-5.0257840">
        <ele>10.2</ele>
        <time>2021-07-19T08:28:25Z</time>
      </trkpt>
      <trkpt lat="43.4573770" lon="-5.0258370">
        <ele>10.2</ele>
        <time>2021-07-19T08:28:28Z</time>
      </trkpt>
      <trkpt lat="43.4574460" lon="-5.0258700">
        <ele>10.2</ele>
        <time>2021-07-19T08:28:31Z</time>
      </trkpt>
      <trkpt lat="43.4574950" lon="-5.0258920">
        <ele>10.6</ele>
        <time>2021-07-19T08:28:34Z</time>
      </trkpt>
      <trkpt lat="43.4575040" lon="-5.0258930">
        <ele>11.0</ele>
        <time>2021-07-19T08:28:35Z</time>
      </trkpt>
      <trkpt lat="43.4575050" lon="-5.0258930">
        <ele>11.6</ele>
        <time>2021-07-19T08:28:36Z</time>
      </trkpt>
      <trkpt lat="43.4575300" lon="-5.0258990">
        <ele>12.4</ele>
        <time>2021-07-19T08:28:43Z</time>
      </trkpt>
      <trkpt lat="43.4575440" lon="-5.0258920">
        <ele>12.4</ele>
        <time>2021-07-19T08:28:44Z</time>
      </trkpt>
      <trkpt lat="43.4576120" lon="-5.0258600">
        <ele>12.4</ele>
        <time>2021-07-19T08:28:47Z</time>
      </trkpt>
      <trkpt lat="43.4576660" lon="-5.0258250">
        <ele>12.4</ele>
        <time>2021-07-19T08:28:49Z</time>
      </trkpt>
      <trkpt lat="43.4577370" lon="-5.0257450">
        <ele>12.4</ele>
        <time>2021-07-19T08:28:53Z</time>
      </trkpt>
      <trkpt lat="43.4577460" lon="-5.0257370">
        <ele>12.4</ele>
        <time>2021-07-19T08:28:54Z</time>
      </trkpt>
      <trkpt lat="43.4577460" lon="-5.0257380">
        <ele>12.4</ele>
        <time>2021-07-19T08:28:55Z</time>
      </trkpt>
      <trkpt lat="43.4577680" lon="-5.0257360">
        <ele>12.4</ele>
        <time>2021-07-19T08:29:03Z</time>
      </trkpt>
      <trkpt lat="43.4577870" lon="-5.0257280">
        <ele>12.4</ele>
        <time>2021-07-19T08:29:04Z</time>
      </trkpt>
      <trkpt lat="43.4578070" lon="-5.0257200">
        <ele>12.4</ele>
        <time>2021-07-19T08:29:05Z</time>
      </trkpt>
      <trkpt lat="43.4579320" lon="-5.0256920">
        <ele>12.4</ele>
        <time>2021-07-19T08:29:10Z</time>
      </trkpt>
      <trkpt lat="43.4579600" lon="-5.0256840">
        <ele>12.4</ele>
        <time>2021-07-19T08:29:11Z</time>
      </trkpt>
      <trkpt lat="43.4581450" lon="-5.0256570">
        <ele>12.4</ele>
        <time>2021-07-19T08:29:18Z</time>
      </trkpt>
      <trkpt lat="43.4582160" lon="-5.0256690">
        <ele>12.4</ele>
        <time>2021-07-19T08:29:22Z</time>
      </trkpt>
      <trkpt lat="43.4582680" lon="-5.0256920">
        <ele>12.4</ele>
        <time>2021-07-19T08:29:25Z</time>
      </trkpt>
      <trkpt lat="43.4583360" lon="-5.0257180">
        <ele>12.8</ele>
        <time>2021-07-19T08:29:30Z</time>
      </trkpt>
      <trkpt lat="43.4583470" lon="-5.0257170">
        <ele>13.2</ele>
        <time>2021-07-19T08:29:31Z</time>
      </trkpt>
      <trkpt lat="43.4583520" lon="-5.0257150">
        <ele>13.6</ele>
        <time>2021-07-19T08:29:32Z</time>
      </trkpt>
      <trkpt lat="43.4583560" lon="-5.0257140">
        <ele>14.0</ele>
        <time>2021-07-19T08:29:33Z</time>
      </trkpt>
      <trkpt lat="43.4582830" lon="-5.0256960">
        <ele>14.4</ele>
        <time>2021-07-19T08:29:47Z</time>
      </trkpt>
      <trkpt lat="43.4582650" lon="-5.0256850">
        <ele>14.4</ele>
        <time>2021-07-19T08:29:48Z</time>
      </trkpt>
      <trkpt lat="43.4581420" lon="-5.0256420">
        <ele>14.4</ele>
        <time>2021-07-19T08:29:52Z</time>
      </trkpt>
      <trkpt lat="43.4581040" lon="-5.0256450">
        <ele>14.4</ele>
        <time>2021-07-19T08:29:53Z</time>
      </trkpt>
      <trkpt lat="43.4580220" lon="-5.0256610">
        <ele>14.4</ele>
        <time>2021-07-19T08:29:55Z</time>
      </trkpt>
      <trkpt lat="43.4579490" lon="-5.0256760">
        <ele>14.4</ele>
        <time>2021-07-19T08:29:57Z</time>
      </trkpt>
      <trkpt lat="43.4579210" lon="-5.0256840">
        <ele>14.0</ele>
        <time>2021-07-19T08:29:58Z</time>
      </trkpt>
      <trkpt lat="43.4578930" lon="-5.0256920">
        <ele>13.6</ele>
        <time>2021-07-19T08:29:59Z</time>
      </trkpt>
      <trkpt lat="43.4578670" lon="-5.0257000">
        <ele>13.2</ele>
        <time>2021-07-19T08:30:00Z</time>
      </trkpt>
      <trkpt lat="43.4578400" lon="-5.0257090">
        <ele>12.8</ele>
        <time>2021-07-19T08:30:01Z</time>
      </trkpt>
      <trkpt lat="43.4578150" lon="-5.0257180">
        <ele>12.4</ele>
        <time>2021-07-19T08:30:02Z</time>
      </trkpt>
      <trkpt lat="43.4577200" lon="-5.0257730">
        <ele>12.4</ele>
        <time>2021-07-19T08:30:06Z</time>
      </trkpt>
      <trkpt lat="43.4576150" lon="-5.0258820">
        <ele>12.4</ele>
        <time>2021-07-19T08:30:11Z</time>
      </trkpt>
      <trkpt lat="43.4574930" lon="-5.0258970">
        <ele>12.4</ele>
        <time>2021-07-19T08:30:16Z</time>
      </trkpt>
      <trkpt lat="43.4574720" lon="-5.0258900">
        <ele>12.4</ele>
        <time>2021-07-19T08:30:17Z</time>
      </trkpt>
      <trkpt lat="43.4573280" lon="-5.0257970">
        <ele>12.4</ele>
        <time>2021-07-19T08:30:22Z</time>
      </trkpt>
      <trkpt lat="43.4572230" lon="-5.0257310">
        <ele>12.4</ele>
        <time>2021-07-19T08:30:25Z</time>
      </trkpt>
      <trkpt lat="43.4571570" lon="-5.0256920">
        <ele>11.8</ele>
        <time>2021-07-19T08:30:27Z</time>
      </trkpt>
      <trkpt lat="43.4571230" lon="-5.0256790">
        <ele>11.4</ele>
        <time>2021-07-19T08:30:28Z</time>
      </trkpt>
      <trkpt lat="43.4570880" lon="-5.0256680">
        <ele>11.0</ele>
        <time>2021-07-19T08:30:29Z</time>
      </trkpt>
      <trkpt lat="43.4570510" lon="-5.0256600">
        <ele>10.6</ele>
        <time>2021-07-19T08:30:30Z</time>
      </trkpt>
      <trkpt lat="43.4570170" lon="-5.0256630">
        <ele>10.2</ele>
        <time>2021-07-19T08:30:31Z</time>
      </trkpt>
      <trkpt lat="43.4569270" lon="-5.0257060">
        <ele>10.2</ele>
        <time>2021-07-19T08:30:34Z</time>
      </trkpt>
      <trkpt lat="43.4568800" lon="-5.0257480">
        <ele>10.2</ele>
        <time>2021-07-19T08:30:36Z</time>
      </trkpt>
      <trkpt lat="43.4568270" lon="-5.0257830">
        <ele>10.2</ele>
        <time>2021-07-19T08:30:38Z</time>
      </trkpt>
      <trkpt lat="43.4567760" lon="-5.0258040">
        <ele>10.2</ele>
        <time>2021-07-19T08:30:40Z</time>
      </trkpt>
      <trkpt lat="43.4566430" lon="-5.0257280">
        <ele>10.2</ele>
        <time>2021-07-19T08:30:45Z</time>
      </trkpt>
      <trkpt lat="43.4565650" lon="-5.0256510">
        <ele>10.2</ele>
        <time>2021-07-19T08:30:48Z</time>
      </trkpt>
      <trkpt lat="43.4564880" lon="-5.0256030">
        <ele>10.2</ele>
        <time>2021-07-19T08:30:51Z</time>
      </trkpt>
      <trkpt lat="43.4563470" lon="-5.0255200">
        <ele>10.2</ele>
        <time>2021-07-19T08:30:58Z</time>
      </trkpt>
      <trkpt lat="43.4563940" lon="-5.0254650">
        <ele>10.2</ele>
        <time>2021-07-19T08:31:02Z</time>
      </trkpt>
      <trkpt lat="43.4564260" lon="-5.0254570">
        <ele>10.2</ele>
        <time>2021-07-19T08:31:03Z</time>
      </trkpt>
      <trkpt lat="43.4565680" lon="-5.0254080">
        <ele>10.2</ele>
        <time>2021-07-19T08:31:07Z</time>
      </trkpt>
      <trkpt lat="43.4566460" lon="-5.0253570">
        <ele>9.8</ele>
        <time>2021-07-19T08:31:09Z</time>
      </trkpt>
      <trkpt lat="43.4566810" lon="-5.0253230">
        <ele>9.4</ele>
        <time>2021-07-19T08:31:10Z</time>
      </trkpt>
      <trkpt lat="43.4567150" lon="-5.0252850">
        <ele>8.8</ele>
        <time>2021-07-19T08:31:11Z</time>
      </trkpt>
      <trkpt lat="43.4567500" lon="-5.0252460">
        <ele>8.4</ele>
        <time>2021-07-19T08:31:12Z</time>
      </trkpt>
      <trkpt lat="43.4567820" lon="-5.0252060">
        <ele>8.0</ele>
        <time>2021-07-19T08:31:13Z</time>
      </trkpt>
      <trkpt lat="43.4568400" lon="-5.0251310">
        <ele>8.0</ele>
        <time>2021-07-19T08:31:15Z</time>
      </trkpt>
      <trkpt lat="43.4568910" lon="-5.0250500">
        <ele>8.0</ele>
        <time>2021-07-19T08:31:17Z</time>
      </trkpt>
      <trkpt lat="43.4569150" lon="-5.0250090">
        <ele>8.0</ele>
        <time>2021-07-19T08:31:18Z</time>
      </trkpt>
      <trkpt lat="43.4569600" lon="-5.0248420">
        <ele>8.0</ele>
        <time>2021-07-19T08:31:22Z</time>
      </trkpt>
      <trkpt lat="43.4569940" lon="-5.0247540">
        <ele>8.0</ele>
        <time>2021-07-19T08:31:26Z</time>
      </trkpt>
      <trkpt lat="43.4570090" lon="-5.0247340">
        <ele>8.0</ele>
        <time>2021-07-19T08:31:40Z</time>
      </trkpt>
      <trkpt lat="43.4570320" lon="-5.0247010">
        <ele>8.0</ele>
        <time>2021-07-19T08:31:42Z</time>
      </trkpt>
      <trkpt lat="43.4570450" lon="-5.0246830">
        <ele>8.0</ele>
        <time>2021-07-19T08:31:43Z</time>
      </trkpt>
      <trkpt lat="43.4570840" lon="-5.0246260">
        <ele>8.0</ele>
        <time>2021-07-19T08:31:45Z</time>
      </trkpt>
      <trkpt lat="43.4571020" lon="-5.0245970">
        <ele>8.0</ele>
        <time>2021-07-19T08:31:46Z</time>
      </trkpt>
      <trkpt lat="43.4571560" lon="-5.0244810">
        <ele>8.0</ele>
        <time>2021-07-19T08:31:49Z</time>
      </trkpt>
      <trkpt lat="43.4571800" lon="-5.0243830">
        <ele>8.0</ele>
        <time>2021-07-19T08:31:51Z</time>
      </trkpt>
      <trkpt lat="43.4572060" lon="-5.0240790">
        <ele>8.0</ele>
        <time>2021-07-19T08:31:57Z</time>
      </trkpt>
      <trkpt lat="43.4572170" lon="-5.0237860">
        <ele>8.0</ele>
        <time>2021-07-19T08:32:03Z</time>
      </trkpt>
      <trkpt lat="43.4572300" lon="-5.0235140">
        <ele>8.0</ele>
        <time>2021-07-19T08:32:09Z</time>
      </trkpt>
      <trkpt lat="43.4572850" lon="-5.0233440">
        <ele>8.0</ele>
        <time>2021-07-19T08:32:14Z</time>
      </trkpt>
      <trkpt lat="43.4573590" lon="-5.0231720">
        <ele>8.0</ele>
        <time>2021-07-19T08:32:19Z</time>
      </trkpt>
      <trkpt lat="43.4574150" lon="-5.0230900">
        <ele>8.0</ele>
        <time>2021-07-19T08:32:22Z</time>
      </trkpt>
      <trkpt lat="43.4575300" lon="-5.0229570">
        <ele>8.0</ele>
        <time>2021-07-19T08:32:27Z</time>
      </trkpt>
      <trkpt lat="43.4575570" lon="-5.0229340">
        <ele>8.0</ele>
        <time>2021-07-19T08:32:28Z</time>
      </trkpt>
      <trkpt lat="43.4576100" lon="-5.0228880">
        <ele>8.0</ele>
        <time>2021-07-19T08:32:30Z</time>
      </trkpt>
      <trkpt lat="43.4577490" lon="-5.0227650">
        <ele>8.0</ele>
        <time>2021-07-19T08:32:35Z</time>
      </trkpt>
      <trkpt lat="43.4579200" lon="-5.0226120">
        <ele>8.0</ele>
        <time>2021-07-19T08:32:41Z</time>
      </trkpt>
      <trkpt lat="43.4580980" lon="-5.0226370">
        <ele>8.0</ele>
        <time>2021-07-19T08:32:46Z</time>
      </trkpt>
      <trkpt lat="43.4582670" lon="-5.0225760">
        <ele>8.0</ele>
        <time>2021-07-19T08:32:51Z</time>
      </trkpt>
      <trkpt lat="43.4584130" lon="-5.0224610">
        <ele>8.0</ele>
        <time>2021-07-19T08:32:56Z</time>
      </trkpt>
      <trkpt lat="43.4584440" lon="-5.0224410">
        <ele>8.4</ele>
        <time>2021-07-19T08:32:57Z</time>
      </trkpt>
      <trkpt lat="43.4584710" lon="-5.0224230">
        <ele>8.8</ele>
        <time>2021-07-19T08:32:58Z</time>
      </trkpt>
      <trkpt lat="43.4584990" lon="-5.0224060">
        <ele>9.2</ele>
        <time>2021-07-19T08:32:59Z</time>
      </trkpt>
      <trkpt lat="43.4585250" lon="-5.0223920">
        <ele>9.6</ele>
        <time>2021-07-19T08:33:00Z</time>
      </trkpt>
      <trkpt lat="43.4585540" lon="-5.0223750">
        <ele>10.0</ele>
        <time>2021-07-19T08:33:01Z</time>
      </trkpt>
      <trkpt lat="43.4586180" lon="-5.0223480">
        <ele>10.0</ele>
        <time>2021-07-19T08:33:03Z</time>
      </trkpt>
      <trkpt lat="43.4587100" lon="-5.0223120">
        <ele>10.6</ele>
        <time>2021-07-19T08:33:06Z</time>
      </trkpt>
      <trkpt lat="43.4587400" lon="-5.0223000">
        <ele>11.0</ele>
        <time>2021-07-19T08:33:07Z</time>
      </trkpt>
      <trkpt lat="43.4587660" lon="-5.0222880">
        <ele>11.4</ele>
        <time>2021-07-19T08:33:08Z</time>
      </trkpt>
      <trkpt lat="43.4587920" lon="-5.0222660">
        <ele>11.8</ele>
        <time>2021-07-19T08:33:09Z</time>
      </trkpt>
      <trkpt lat="43.4588160" lon="-5.0222350">
        <ele>12.2</ele>
        <time>2021-07-19T08:33:10Z</time>
      </trkpt>
      <trkpt lat="43.4589310" lon="-5.0220880">
        <ele>12.2</ele>
        <time>2021-07-19T08:33:15Z</time>
      </trkpt>
      <trkpt lat="43.4589560" lon="-5.0220550">
        <ele>12.2</ele>
        <time>2021-07-19T08:33:17Z</time>
      </trkpt>
      <trkpt lat="43.4590830" lon="-5.0219080">
        <ele>12.6</ele>
        <time>2021-07-19T08:33:22Z</time>
      </trkpt>
      <trkpt lat="43.4591090" lon="-5.0218790">
        <ele>13.0</ele>
        <time>2021-07-19T08:33:23Z</time>
      </trkpt>
      <trkpt lat="43.4591370" lon="-5.0218530">
        <ele>13.4</ele>
        <time>2021-07-19T08:33:24Z</time>
      </trkpt>
      <trkpt lat="43.4591650" lon="-5.0218320">
        <ele>13.8</ele>
        <time>2021-07-19T08:33:25Z</time>
      </trkpt>
      <trkpt lat="43.4591950" lon="-5.0218210">
        <ele>14.2</ele>
        <time>2021-07-19T08:33:26Z</time>
      </trkpt>
      <trkpt lat="43.4592550" lon="-5.0218270">
        <ele>14.2</ele>
        <time>2021-07-19T08:33:28Z</time>
      </trkpt>
      <trkpt lat="43.4594310" lon="-5.0219020">
        <ele>14.2</ele>
        <time>2021-07-19T08:33:34Z</time>
      </trkpt>
      <trkpt lat="43.4595680" lon="-5.0218750">
        <ele>14.2</ele>
        <time>2021-07-19T08:33:39Z</time>
      </trkpt>
      <trkpt lat="43.4596500" lon="-5.0217470">
        <ele>14.2</ele>
        <time>2021-07-19T08:33:43Z</time>
      </trkpt>
      <trkpt lat="43.4597590" lon="-5.0216950">
        <ele>14.2</ele>
        <time>2021-07-19T08:33:47Z</time>
      </trkpt>
      <trkpt lat="43.4598080" lon="-5.0216920">
        <ele>14.6</ele>
        <time>2021-07-19T08:33:49Z</time>
      </trkpt>
      <trkpt lat="43.4598360" lon="-5.0216890">
        <ele>15.0</ele>
        <time>2021-07-19T08:33:50Z</time>
      </trkpt>
      <trkpt lat="43.4598630" lon="-5.0216840">
        <ele>15.4</ele>
        <time>2021-07-19T08:33:51Z</time>
      </trkpt>
      <trkpt lat="43.4598870" lon="-5.0216810">
        <ele>16.2</ele>
        <time>2021-07-19T08:33:52Z</time>
      </trkpt>
      <trkpt lat="43.4599800" lon="-5.0216460">
        <ele>16.6</ele>
        <time>2021-07-19T08:33:56Z</time>
      </trkpt>
      <trkpt lat="43.4600010" lon="-5.0216360">
        <ele>17.2</ele>
        <time>2021-07-19T08:33:57Z</time>
      </trkpt>
      <trkpt lat="43.4600230" lon="-5.0216300">
        <ele>17.6</ele>
        <time>2021-07-19T08:33:58Z</time>
      </trkpt>
      <trkpt lat="43.4600430" lon="-5.0216170">
        <ele>18.0</ele>
        <time>2021-07-19T08:33:59Z</time>
      </trkpt>
      <trkpt lat="43.4600620" lon="-5.0216060">
        <ele>18.4</ele>
        <time>2021-07-19T08:34:00Z</time>
      </trkpt>
      <trkpt lat="43.4601360" lon="-5.0215820">
        <ele>18.8</ele>
        <time>2021-07-19T08:34:04Z</time>
      </trkpt>
      <trkpt lat="43.4601550" lon="-5.0215770">
        <ele>19.2</ele>
        <time>2021-07-19T08:34:05Z</time>
      </trkpt>
      <trkpt lat="43.4601790" lon="-5.0215740">
        <ele>19.6</ele>
        <time>2021-07-19T08:34:06Z</time>
      </trkpt>
      <trkpt lat="43.4602050" lon="-5.0215820">
        <ele>20.2</ele>
        <time>2021-07-19T08:34:07Z</time>
      </trkpt>
      <trkpt lat="43.4602350" lon="-5.0215940">
        <ele>20.6</ele>
        <time>2021-07-19T08:34:08Z</time>
      </trkpt>
      <trkpt lat="43.4603330" lon="-5.0216420">
        <ele>20.6</ele>
        <time>2021-07-19T08:34:11Z</time>
      </trkpt>
      <trkpt lat="43.4604760" lon="-5.0216190">
        <ele>20.6</ele>
        <time>2021-07-19T08:34:15Z</time>
      </trkpt>
      <trkpt lat="43.4606250" lon="-5.0214450">
        <ele>20.6</ele>
        <time>2021-07-19T08:34:20Z</time>
      </trkpt>
      <trkpt lat="43.4606570" lon="-5.0214020">
        <ele>20.2</ele>
        <time>2021-07-19T08:34:21Z</time>
      </trkpt>
      <trkpt lat="43.4606800" lon="-5.0213550">
        <ele>19.6</ele>
        <time>2021-07-19T08:34:22Z</time>
      </trkpt>
      <trkpt lat="43.4606990" lon="-5.0213080">
        <ele>19.2</ele>
        <time>2021-07-19T08:34:23Z</time>
      </trkpt>
      <trkpt lat="43.4607110" lon="-5.0212640">
        <ele>18.8</ele>
        <time>2021-07-19T08:34:24Z</time>
      </trkpt>
      <trkpt lat="43.4607200" lon="-5.0212260">
        <ele>18.4</ele>
        <time>2021-07-19T08:34:25Z</time>
      </trkpt>
      <trkpt lat="43.4607400" lon="-5.0211750">
        <ele>18.4</ele>
        <time>2021-07-19T08:34:27Z</time>
      </trkpt>
      <trkpt lat="43.4607630" lon="-5.0211140">
        <ele>18.4</ele>
        <time>2021-07-19T08:34:30Z</time>
      </trkpt>
      <trkpt lat="43.4607780" lon="-5.0210950">
        <ele>18.4</ele>
        <time>2021-07-19T08:34:34Z</time>
      </trkpt>
      <trkpt lat="43.4607370" lon="-5.0211820">
        <ele>18.4</ele>
        <time>2021-07-19T08:34:47Z</time>
      </trkpt>
      <trkpt lat="43.4607130" lon="-5.0212560">
        <ele>18.4</ele>
        <time>2021-07-19T08:34:51Z</time>
      </trkpt>
      <trkpt lat="43.4607050" lon="-5.0212740">
        <ele>18.4</ele>
        <time>2021-07-19T08:34:52Z</time>
      </trkpt>
      <trkpt lat="43.4606870" lon="-5.0213100">
        <ele>18.4</ele>
        <time>2021-07-19T08:34:54Z</time>
      </trkpt>
      <trkpt lat="43.4606570" lon="-5.0213700">
        <ele>18.4</ele>
        <time>2021-07-19T08:34:58Z</time>
      </trkpt>
      <trkpt lat="43.4606410" lon="-5.0213980">
        <ele>18.4</ele>
        <time>2021-07-19T08:35:00Z</time>
      </trkpt>
      <trkpt lat="43.4606310" lon="-5.0214150">
        <ele>18.4</ele>
        <time>2021-07-19T08:35:03Z</time>
      </trkpt>
      <trkpt lat="43.4605970" lon="-5.0214630">
        <ele>18.4</ele>
        <time>2021-07-19T08:36:38Z</time>
      </trkpt>
      <trkpt lat="43.4605700" lon="-5.0215060">
        <ele>18.4</ele>
        <time>2021-07-19T08:36:41Z</time>
      </trkpt>
      <trkpt lat="43.4605180" lon="-5.0215470">
        <ele>18.4</ele>
        <time>2021-07-19T08:36:44Z</time>
      </trkpt>
      <trkpt lat="43.4604920" lon="-5.0215890">
        <ele>18.4</ele>
        <time>2021-07-19T08:36:46Z</time>
      </trkpt>
      <trkpt lat="43.4604770" lon="-5.0216050">
        <ele>18.4</ele>
        <time>2021-07-19T08:36:47Z</time>
      </trkpt>
      <trkpt lat="43.4603960" lon="-5.0216440">
        <ele>18.4</ele>
        <time>2021-07-19T08:36:51Z</time>
      </trkpt>
      <trkpt lat="43.4603690" lon="-5.0216520">
        <ele>18.4</ele>
        <time>2021-07-19T08:36:52Z</time>
      </trkpt>
      <trkpt lat="43.4602990" lon="-5.0216420">
        <ele>18.4</ele>
        <time>2021-07-19T08:36:55Z</time>
      </trkpt>
      <trkpt lat="43.4602570" lon="-5.0216160">
        <ele>18.4</ele>
        <time>2021-07-19T08:36:57Z</time>
      </trkpt>
      <trkpt lat="43.4602410" lon="-5.0216010">
        <ele>18.8</ele>
        <time>2021-07-19T08:36:58Z</time>
      </trkpt>
      <trkpt lat="43.4602240" lon="-5.0215940">
        <ele>19.2</ele>
        <time>2021-07-19T08:36:59Z</time>
      </trkpt>
      <trkpt lat="43.4602080" lon="-5.0215850">
        <ele>19.6</ele>
        <time>2021-07-19T08:37:00Z</time>
      </trkpt>
      <trkpt lat="43.4601920" lon="-5.0215800">
        <ele>20.0</ele>
        <time>2021-07-19T08:37:01Z</time>
      </trkpt>
      <trkpt lat="43.4601800" lon="-5.0215790">
        <ele>20.4</ele>
        <time>2021-07-19T08:37:02Z</time>
      </trkpt>
      <trkpt lat="43.4601660" lon="-5.0215910">
        <ele>20.4</ele>
        <time>2021-07-19T08:37:03Z</time>
      </trkpt>
      <trkpt lat="43.4601730" lon="-5.0215970">
        <ele>20.4</ele>
        <time>2021-07-19T08:37:06Z</time>
      </trkpt>
      <trkpt lat="43.4601930" lon="-5.0216020">
        <ele>20.4</ele>
        <time>2021-07-19T08:37:08Z</time>
      </trkpt>
      <trkpt lat="43.4602940" lon="-5.0216230">
        <ele>20.4</ele>
        <time>2021-07-19T08:37:13Z</time>
      </trkpt>
      <trkpt lat="43.4604410" lon="-5.0216350">
        <ele>20.4</ele>
        <time>2021-07-19T08:37:18Z</time>
      </trkpt>
      <trkpt lat="43.4604920" lon="-5.0216020">
        <ele>20.4</ele>
        <time>2021-07-19T08:37:20Z</time>
      </trkpt>
      <trkpt lat="43.4605420" lon="-5.0215530">
        <ele>20.4</ele>
        <time>2021-07-19T08:37:22Z</time>
      </trkpt>
      <trkpt lat="43.4605640" lon="-5.0215260">
        <ele>20.4</ele>
        <time>2021-07-19T08:37:23Z</time>
      </trkpt>
      <trkpt lat="43.4605890" lon="-5.0214960">
        <ele>20.4</ele>
        <time>2021-07-19T08:37:24Z</time>
      </trkpt>
      <trkpt lat="43.4606350" lon="-5.0214270">
        <ele>20.0</ele>
        <time>2021-07-19T08:37:26Z</time>
      </trkpt>
      <trkpt lat="43.4606550" lon="-5.0213890">
        <ele>19.6</ele>
        <time>2021-07-19T08:37:27Z</time>
      </trkpt>
      <trkpt lat="43.4606750" lon="-5.0213540">
        <ele>19.2</ele>
        <time>2021-07-19T08:37:28Z</time>
      </trkpt>
      <trkpt lat="43.4606910" lon="-5.0213220">
        <ele>18.8</ele>
        <time>2021-07-19T08:37:29Z</time>
      </trkpt>
      <trkpt lat="43.4607020" lon="-5.0212900">
        <ele>18.4</ele>
        <time>2021-07-19T08:37:30Z</time>
      </trkpt>
      <trkpt lat="43.4607190" lon="-5.0212300">
        <ele>18.4</ele>
        <time>2021-07-19T08:37:32Z</time>
      </trkpt>
      <trkpt lat="43.4607420" lon="-5.0211670">
        <ele>18.4</ele>
        <time>2021-07-19T08:37:35Z</time>
      </trkpt>
      <trkpt lat="43.4607660" lon="-5.0211280">
        <ele>18.4</ele>
        <time>2021-07-19T08:37:40Z</time>
      </trkpt>
      <trkpt lat="43.4607790" lon="-5.0211040">
        <ele>18.4</ele>
        <time>2021-07-19T08:37:43Z</time>
      </trkpt>
      <trkpt lat="43.4607910" lon="-5.0210900">
        <ele>18.4</ele>
        <time>2021-07-19T08:37:47Z</time>
      </trkpt>
      <trkpt lat="43.4606870" lon="-5.0209950">
        <ele>16.4</ele>
        <time>2021-07-19T08:47:26Z</time>
      </trkpt>
      <trkpt lat="43.4606930" lon="-5.0210040">
        <ele>16.4</ele>
        <time>2021-07-19T08:47:27Z</time>
      </trkpt>
      <trkpt lat="43.4606990" lon="-5.0210140">
        <ele>16.8</ele>
        <time>2021-07-19T08:47:28Z</time>
      </trkpt>
      <trkpt lat="43.4607060" lon="-5.0210250">
        <ele>17.2</ele>
        <time>2021-07-19T08:47:29Z</time>
      </trkpt>
      <trkpt lat="43.4607070" lon="-5.0210270">
        <ele>17.6</ele>
        <time>2021-07-19T08:47:30Z</time>
      </trkpt>
      <trkpt lat="43.4607110" lon="-5.0210420">
        <ele>18.0</ele>
        <time>2021-07-19T08:47:31Z</time>
      </trkpt>
      <trkpt lat="43.4607140" lon="-5.0210520">
        <ele>18.4</ele>
        <time>2021-07-19T08:47:32Z</time>
      </trkpt>
      <trkpt lat="43.4607180" lon="-5.0210610">
        <ele>18.4</ele>
        <time>2021-07-19T08:47:33Z</time>
      </trkpt>
      <trkpt lat="43.4607280" lon="-5.0210940">
        <ele>18.4</ele>
        <time>2021-07-19T08:47:36Z</time>
      </trkpt>
      <trkpt lat="43.4607350" lon="-5.0211330">
        <ele>18.4</ele>
        <time>2021-07-19T08:47:40Z</time>
      </trkpt>
      <trkpt lat="43.4607230" lon="-5.0211720">
        <ele>18.4</ele>
        <time>2021-07-19T08:48:01Z</time>
      </trkpt>
      <trkpt lat="43.4607050" lon="-5.0212350">
        <ele>18.4</ele>
        <time>2021-07-19T08:48:04Z</time>
      </trkpt>
      <trkpt lat="43.4606980" lon="-5.0212650">
        <ele>18.4</ele>
        <time>2021-07-19T08:48:06Z</time>
      </trkpt>
      <trkpt lat="43.4606990" lon="-5.0212650">
        <ele>18.4</ele>
        <time>2021-07-19T08:48:07Z</time>
      </trkpt>
      <trkpt lat="43.4607020" lon="-5.0213220">
        <ele>18.4</ele>
        <time>2021-07-19T08:48:11Z</time>
      </trkpt>
      <trkpt lat="43.4606970" lon="-5.0213400">
        <ele>18.4</ele>
        <time>2021-07-19T08:48:12Z</time>
      </trkpt>
      <trkpt lat="43.4606930" lon="-5.0213760">
        <ele>18.4</ele>
        <time>2021-07-19T08:48:14Z</time>
      </trkpt>
      <trkpt lat="43.4606910" lon="-5.0213970">
        <ele>18.4</ele>
        <time>2021-07-19T08:48:17Z</time>
      </trkpt>
      <trkpt lat="43.4606770" lon="-5.0214190">
        <ele>18.4</ele>
        <time>2021-07-19T08:50:41Z</time>
      </trkpt>
      <trkpt lat="43.4606630" lon="-5.0214360">
        <ele>18.4</ele>
        <time>2021-07-19T08:50:42Z</time>
      </trkpt>
      <trkpt lat="43.4606080" lon="-5.0214760">
        <ele>18.4</ele>
        <time>2021-07-19T08:50:45Z</time>
      </trkpt>
      <trkpt lat="43.4605680" lon="-5.0215150">
        <ele>18.4</ele>
        <time>2021-07-19T08:50:47Z</time>
      </trkpt>
      <trkpt lat="43.4605150" lon="-5.0215820">
        <ele>18.4</ele>
        <time>2021-07-19T08:50:50Z</time>
      </trkpt>
      <trkpt lat="43.4604820" lon="-5.0216160">
        <ele>19.2</ele>
        <time>2021-07-19T08:50:52Z</time>
      </trkpt>
      <trkpt lat="43.4604680" lon="-5.0216390">
        <ele>19.8</ele>
        <time>2021-07-19T08:50:53Z</time>
      </trkpt>
      <trkpt lat="43.4604520" lon="-5.0216650">
        <ele>20.2</ele>
        <time>2021-07-19T08:50:54Z</time>
      </trkpt>
      <trkpt lat="43.4604470" lon="-5.0216890">
        <ele>20.6</ele>
        <time>2021-07-19T08:50:55Z</time>
      </trkpt>
      <trkpt lat="43.4604300" lon="-5.0217590">
        <ele>20.6</ele>
        <time>2021-07-19T08:50:58Z</time>
      </trkpt>
      <trkpt lat="43.4604290" lon="-5.0217800">
        <ele>20.6</ele>
        <time>2021-07-19T08:50:59Z</time>
      </trkpt>
      <trkpt lat="43.4604150" lon="-5.0218410">
        <ele>21.0</ele>
        <time>2021-07-19T08:51:02Z</time>
      </trkpt>
      <trkpt lat="43.4604120" lon="-5.0218660">
        <ele>21.4</ele>
        <time>2021-07-19T08:51:03Z</time>
      </trkpt>
      <trkpt lat="43.4604050" lon="-5.0218910">
        <ele>22.0</ele>
        <time>2021-07-19T08:51:04Z</time>
      </trkpt>
      <trkpt lat="43.4603990" lon="-5.0219150">
        <ele>22.4</ele>
        <time>2021-07-19T08:51:05Z</time>
      </trkpt>
      <trkpt lat="43.4603900" lon="-5.0219350">
        <ele>22.8</ele>
        <time>2021-07-19T08:51:06Z</time>
      </trkpt>
      <trkpt lat="43.4603700" lon="-5.0220080">
        <ele>22.8</ele>
        <time>2021-07-19T08:51:09Z</time>
      </trkpt>
      <trkpt lat="43.4603420" lon="-5.0220750">
        <ele>23.2</ele>
        <time>2021-07-19T08:51:12Z</time>
      </trkpt>
      <trkpt lat="43.4603360" lon="-5.0220920">
        <ele>23.6</ele>
        <time>2021-07-19T08:51:13Z</time>
      </trkpt>
      <trkpt lat="43.4603300" lon="-5.0221120">
        <ele>24.2</ele>
        <time>2021-07-19T08:51:14Z</time>
      </trkpt>
      <trkpt lat="43.4603220" lon="-5.0221300">
        <ele>24.6</ele>
        <time>2021-07-19T08:51:15Z</time>
      </trkpt>
      <trkpt lat="43.4603160" lon="-5.0221440">
        <ele>25.0</ele>
        <time>2021-07-19T08:51:16Z</time>
      </trkpt>
      <trkpt lat="43.4602860" lon="-5.0221820">
        <ele>25.0</ele>
        <time>2021-07-19T08:51:19Z</time>
      </trkpt>
      <trkpt lat="43.4602380" lon="-5.0223180">
        <ele>25.0</ele>
        <time>2021-07-19T08:51:24Z</time>
      </trkpt>
      <trkpt lat="43.4602430" lon="-5.0223990">
        <ele>25.4</ele>
        <time>2021-07-19T08:51:27Z</time>
      </trkpt>
      <trkpt lat="43.4602430" lon="-5.0224280">
        <ele>25.8</ele>
        <time>2021-07-19T08:51:28Z</time>
      </trkpt>
      <trkpt lat="43.4602410" lon="-5.0224580">
        <ele>26.2</ele>
        <time>2021-07-19T08:51:29Z</time>
      </trkpt>
      <trkpt lat="43.4602390" lon="-5.0224910">
        <ele>26.6</ele>
        <time>2021-07-19T08:51:30Z</time>
      </trkpt>
      <trkpt lat="43.4602370" lon="-5.0225230">
        <ele>27.0</ele>
        <time>2021-07-19T08:51:31Z</time>
      </trkpt>
      <trkpt lat="43.4602520" lon="-5.0226550">
        <ele>27.0</ele>
        <time>2021-07-19T08:51:36Z</time>
      </trkpt>
      <trkpt lat="43.4602780" lon="-5.0227290">
        <ele>27.4</ele>
        <time>2021-07-19T08:51:39Z</time>
      </trkpt>
      <trkpt lat="43.4602870" lon="-5.0227480">
        <ele>27.8</ele>
        <time>2021-07-19T08:51:40Z</time>
      </trkpt>
      <trkpt lat="43.4602940" lon="-5.0227650">
        <ele>28.2</ele>
        <time>2021-07-19T08:51:41Z</time>
      </trkpt>
      <trkpt lat="43.4603040" lon="-5.0227820">
        <ele>29.2</ele>
        <time>2021-07-19T08:51:42Z</time>
      </trkpt>
      <trkpt lat="43.4603540" lon="-5.0228490">
        <ele>29.2</ele>
        <time>2021-07-19T08:51:47Z</time>
      </trkpt>
      <trkpt lat="43.4603620" lon="-5.0228660">
        <ele>29.6</ele>
        <time>2021-07-19T08:51:49Z</time>
      </trkpt>
      <trkpt lat="43.4603690" lon="-5.0228800">
        <ele>30.0</ele>
        <time>2021-07-19T08:51:50Z</time>
      </trkpt>
      <trkpt lat="43.4603790" lon="-5.0228950">
        <ele>30.4</ele>
        <time>2021-07-19T08:51:51Z</time>
      </trkpt>
      <trkpt lat="43.4603890" lon="-5.0229140">
        <ele>30.8</ele>
        <time>2021-07-19T08:51:52Z</time>
      </trkpt>
      <trkpt lat="43.4604000" lon="-5.0229340">
        <ele>31.2</ele>
        <time>2021-07-19T08:51:53Z</time>
      </trkpt>
      <trkpt lat="43.4604240" lon="-5.0229900">
        <ele>31.2</ele>
        <time>2021-07-19T08:51:55Z</time>
      </trkpt>
      <trkpt lat="43.4604300" lon="-5.0232290">
        <ele>31.2</ele>
        <time>2021-07-19T08:52:01Z</time>
      </trkpt>
      <trkpt lat="43.4604240" lon="-5.0233300">
        <ele>30.8</ele>
        <time>2021-07-19T08:52:03Z</time>
      </trkpt>
      <trkpt lat="43.4604150" lon="-5.0233850">
        <ele>30.4</ele>
        <time>2021-07-19T08:52:04Z</time>
      </trkpt>
      <trkpt lat="43.4604040" lon="-5.0234360">
        <ele>30.0</ele>
        <time>2021-07-19T08:52:05Z</time>
      </trkpt>
      <trkpt lat="43.4603880" lon="-5.0234850">
        <ele>29.0</ele>
        <time>2021-07-19T08:52:06Z</time>
      </trkpt>
      <trkpt lat="43.4603550" lon="-5.0236670">
        <ele>29.0</ele>
        <time>2021-07-19T08:52:10Z</time>
      </trkpt>
      <trkpt lat="43.4603600" lon="-5.0237040">
        <ele>29.0</ele>
        <time>2021-07-19T08:52:11Z</time>
      </trkpt>
      <trkpt lat="43.4603680" lon="-5.0237440">
        <ele>29.0</ele>
        <time>2021-07-19T08:52:13Z</time>
      </trkpt>
      <trkpt lat="43.4603720" lon="-5.0237540">
        <ele>29.0</ele>
        <time>2021-07-19T08:52:15Z</time>
      </trkpt>
      <trkpt lat="43.4603730" lon="-5.0237650">
        <ele>29.0</ele>
        <time>2021-07-19T08:52:16Z</time>
      </trkpt>
      <trkpt lat="43.4604050" lon="-5.0238620">
        <ele>29.0</ele>
        <time>2021-07-19T08:52:20Z</time>
      </trkpt>
      <trkpt lat="43.4604220" lon="-5.0239120">
        <ele>29.0</ele>
        <time>2021-07-19T08:52:22Z</time>
      </trkpt>
      <trkpt lat="43.4604310" lon="-5.0239990">
        <ele>29.0</ele>
        <time>2021-07-19T08:52:26Z</time>
      </trkpt>
      <trkpt lat="43.4604140" lon="-5.0240620">
        <ele>29.0</ele>
        <time>2021-07-19T08:52:29Z</time>
      </trkpt>
      <trkpt lat="43.4604050" lon="-5.0241250">
        <ele>29.0</ele>
        <time>2021-07-19T08:52:31Z</time>
      </trkpt>
      <trkpt lat="43.4604180" lon="-5.0241930">
        <ele>29.0</ele>
        <time>2021-07-19T08:52:33Z</time>
      </trkpt>
      <trkpt lat="43.4604490" lon="-5.0242230">
        <ele>29.0</ele>
        <time>2021-07-19T08:52:35Z</time>
      </trkpt>
      <trkpt lat="43.4604740" lon="-5.0242410">
        <ele>29.0</ele>
        <time>2021-07-19T08:52:37Z</time>
      </trkpt>
      <trkpt lat="43.4605090" lon="-5.0242850">
        <ele>29.0</ele>
        <time>2021-07-19T08:52:41Z</time>
      </trkpt>
      <trkpt lat="43.4605170" lon="-5.0243010">
        <ele>29.0</ele>
        <time>2021-07-19T08:52:44Z</time>
      </trkpt>
      <trkpt lat="43.4605350" lon="-5.0243430">
        <ele>29.0</ele>
        <time>2021-07-19T08:52:50Z</time>
      </trkpt>
      <trkpt lat="43.4605440" lon="-5.0243610">
        <ele>29.0</ele>
        <time>2021-07-19T08:52:51Z</time>
      </trkpt>
      <trkpt lat="43.4605670" lon="-5.0244250">
        <ele>29.0</ele>
        <time>2021-07-19T08:52:55Z</time>
      </trkpt>
      <trkpt lat="43.4605730" lon="-5.0244750">
        <ele>29.0</ele>
        <time>2021-07-19T08:52:57Z</time>
      </trkpt>
      <trkpt lat="43.4605560" lon="-5.0246150">
        <ele>29.0</ele>
        <time>2021-07-19T08:53:02Z</time>
      </trkpt>
      <trkpt lat="43.4605480" lon="-5.0246660">
        <ele>29.6</ele>
        <time>2021-07-19T08:53:04Z</time>
      </trkpt>
      <trkpt lat="43.4605440" lon="-5.0246890">
        <ele>30.0</ele>
        <time>2021-07-19T08:53:05Z</time>
      </trkpt>
      <trkpt lat="43.4605450" lon="-5.0247160">
        <ele>30.4</ele>
        <time>2021-07-19T08:53:06Z</time>
      </trkpt>
      <trkpt lat="43.4605460" lon="-5.0247390">
        <ele>30.8</ele>
        <time>2021-07-19T08:53:07Z</time>
      </trkpt>
      <trkpt lat="43.4605470" lon="-5.0247660">
        <ele>31.2</ele>
        <time>2021-07-19T08:53:08Z</time>
      </trkpt>
      <trkpt lat="43.4605480" lon="-5.0248040">
        <ele>31.2</ele>
        <time>2021-07-19T08:53:10Z</time>
      </trkpt>
      <trkpt lat="43.4605720" lon="-5.0249190">
        <ele>31.8</ele>
        <time>2021-07-19T08:53:15Z</time>
      </trkpt>
      <trkpt lat="43.4605800" lon="-5.0249420">
        <ele>32.2</ele>
        <time>2021-07-19T08:53:16Z</time>
      </trkpt>
      <trkpt lat="43.4605840" lon="-5.0249650">
        <ele>32.6</ele>
        <time>2021-07-19T08:53:17Z</time>
      </trkpt>
      <trkpt lat="43.4605800" lon="-5.0249850">
        <ele>33.0</ele>
        <time>2021-07-19T08:53:18Z</time>
      </trkpt>
      <trkpt lat="43.4605730" lon="-5.0250100">
        <ele>33.4</ele>
        <time>2021-07-19T08:53:19Z</time>
      </trkpt>
      <trkpt lat="43.4605520" lon="-5.0250860">
        <ele>33.4</ele>
        <time>2021-07-19T08:53:22Z</time>
      </trkpt>
      <trkpt lat="43.4605430" lon="-5.0251100">
        <ele>33.4</ele>
        <time>2021-07-19T08:53:23Z</time>
      </trkpt>
      <trkpt lat="43.4605000" lon="-5.0252010">
        <ele>33.4</ele>
        <time>2021-07-19T08:53:27Z</time>
      </trkpt>
      <trkpt lat="43.4604960" lon="-5.0252200">
        <ele>33.4</ele>
        <time>2021-07-19T08:53:28Z</time>
      </trkpt>
      <trkpt lat="43.4604960" lon="-5.0252280">
        <ele>33.4</ele>
        <time>2021-07-19T08:53:30Z</time>
      </trkpt>
      <trkpt lat="43.4604890" lon="-5.0252560">
        <ele>33.4</ele>
        <time>2021-07-19T08:53:36Z</time>
      </trkpt>
      <trkpt lat="43.4604840" lon="-5.0252730">
        <ele>33.4</ele>
        <time>2021-07-19T08:53:37Z</time>
      </trkpt>
      <trkpt lat="43.4604480" lon="-5.0254720">
        <ele>33.4</ele>
        <time>2021-07-19T08:53:46Z</time>
      </trkpt>
      <trkpt lat="43.4604540" lon="-5.0254900">
        <ele>33.4</ele>
        <time>2021-07-19T08:53:47Z</time>
      </trkpt>
      <trkpt lat="43.4604590" lon="-5.0255190">
        <ele>33.8</ele>
        <time>2021-07-19T08:53:49Z</time>
      </trkpt>
      <trkpt lat="43.4604580" lon="-5.0255170">
        <ele>34.2</ele>
        <time>2021-07-19T08:53:50Z</time>
      </trkpt>
      <trkpt lat="43.4604520" lon="-5.0255520">
        <ele>35.6</ele>
        <time>2021-07-19T08:54:01Z</time>
      </trkpt>
      <trkpt lat="43.4604730" lon="-5.0256610">
        <ele>35.6</ele>
        <time>2021-07-19T08:54:07Z</time>
      </trkpt>
      <trkpt lat="43.4604880" lon="-5.0256700">
        <ele>35.6</ele>
        <time>2021-07-19T08:54:09Z</time>
      </trkpt>
      <trkpt lat="43.4604950" lon="-5.0256780">
        <ele>36.0</ele>
        <time>2021-07-19T08:54:10Z</time>
      </trkpt>
      <trkpt lat="43.4604980" lon="-5.0256880">
        <ele>36.4</ele>
        <time>2021-07-19T08:54:11Z</time>
      </trkpt>
      <trkpt lat="43.4604960" lon="-5.0256980">
        <ele>36.8</ele>
        <time>2021-07-19T08:54:12Z</time>
      </trkpt>
      <trkpt lat="43.4604950" lon="-5.0257100">
        <ele>37.2</ele>
        <time>2021-07-19T08:54:13Z</time>
      </trkpt>
      <trkpt lat="43.4604880" lon="-5.0257240">
        <ele>37.6</ele>
        <time>2021-07-19T08:54:14Z</time>
      </trkpt>
      <trkpt lat="43.4604870" lon="-5.0257290">
        <ele>37.6</ele>
        <time>2021-07-19T08:54:16Z</time>
      </trkpt>
      <trkpt lat="43.4604780" lon="-5.0257400">
        <ele>37.6</ele>
        <time>2021-07-19T08:54:20Z</time>
      </trkpt>
      <trkpt lat="43.4604710" lon="-5.0257530">
        <ele>37.6</ele>
        <time>2021-07-19T08:54:21Z</time>
      </trkpt>
      <trkpt lat="43.4604730" lon="-5.0257510">
        <ele>37.6</ele>
        <time>2021-07-19T08:54:22Z</time>
      </trkpt>
      <trkpt lat="43.4604560" lon="-5.0257950">
        <ele>37.6</ele>
        <time>2021-07-19T08:54:29Z</time>
      </trkpt>
      <trkpt lat="43.4604520" lon="-5.0258360">
        <ele>37.6</ele>
        <time>2021-07-19T08:54:31Z</time>
      </trkpt>
      <trkpt lat="43.4604820" lon="-5.0260170">
        <ele>37.6</ele>
        <time>2021-07-19T08:54:38Z</time>
      </trkpt>
      <trkpt lat="43.4604850" lon="-5.0260800">
        <ele>38.0</ele>
        <time>2021-07-19T08:54:40Z</time>
      </trkpt>
      <trkpt lat="43.4604840" lon="-5.0261120">
        <ele>38.4</ele>
        <time>2021-07-19T08:54:41Z</time>
      </trkpt>
      <trkpt lat="43.4604780" lon="-5.0261360">
        <ele>38.8</ele>
        <time>2021-07-19T08:54:42Z</time>
      </trkpt>
      <trkpt lat="43.4604730" lon="-5.0261560">
        <ele>39.4</ele>
        <time>2021-07-19T08:54:43Z</time>
      </trkpt>
      <trkpt lat="43.4604660" lon="-5.0261780">
        <ele>39.8</ele>
        <time>2021-07-19T08:54:44Z</time>
      </trkpt>
      <trkpt lat="43.4604600" lon="-5.0262060">
        <ele>39.8</ele>
        <time>2021-07-19T08:54:45Z</time>
      </trkpt>
      <trkpt lat="43.4604360" lon="-5.0263180">
        <ele>39.8</ele>
        <time>2021-07-19T08:54:49Z</time>
      </trkpt>
      <trkpt lat="43.4603990" lon="-5.0263950">
        <ele>39.8</ele>
        <time>2021-07-19T08:54:52Z</time>
      </trkpt>
      <trkpt lat="43.4603570" lon="-5.0264730">
        <ele>40.2</ele>
        <time>2021-07-19T08:54:55Z</time>
      </trkpt>
      <trkpt lat="43.4603430" lon="-5.0264980">
        <ele>40.6</ele>
        <time>2021-07-19T08:54:56Z</time>
      </trkpt>
      <trkpt lat="43.4603320" lon="-5.0265250">
        <ele>41.0</ele>
        <time>2021-07-19T08:54:57Z</time>
      </trkpt>
      <trkpt lat="43.4603210" lon="-5.0265500">
        <ele>41.4</ele>
        <time>2021-07-19T08:54:58Z</time>
      </trkpt>
      <trkpt lat="43.4603120" lon="-5.0265740">
        <ele>41.8</ele>
        <time>2021-07-19T08:54:59Z</time>
      </trkpt>
      <trkpt lat="43.4603010" lon="-5.0265930">
        <ele>41.8</ele>
        <time>2021-07-19T08:55:00Z</time>
      </trkpt>
      <trkpt lat="43.4602690" lon="-5.0266320">
        <ele>41.8</ele>
        <time>2021-07-19T08:55:02Z</time>
      </trkpt>
      <trkpt lat="43.4601840" lon="-5.0266510">
        <ele>41.8</ele>
        <time>2021-07-19T08:55:05Z</time>
      </trkpt>
      <trkpt lat="43.4600820" lon="-5.0267720">
        <ele>41.8</ele>
        <time>2021-07-19T08:55:10Z</time>
      </trkpt>
      <trkpt lat="43.4600790" lon="-5.0268910">
        <ele>41.8</ele>
        <time>2021-07-19T08:55:13Z</time>
      </trkpt>
      <trkpt lat="43.4600850" lon="-5.0269270">
        <ele>41.4</ele>
        <time>2021-07-19T08:55:14Z</time>
      </trkpt>
      <trkpt lat="43.4600990" lon="-5.0269550">
        <ele>41.0</ele>
        <time>2021-07-19T08:55:15Z</time>
      </trkpt>
      <trkpt lat="43.4601140" lon="-5.0269800">
        <ele>40.4</ele>
        <time>2021-07-19T08:55:16Z</time>
      </trkpt>
      <trkpt lat="43.4601340" lon="-5.0270010">
        <ele>40.0</ele>
        <time>2021-07-19T08:55:17Z</time>
      </trkpt>
      <trkpt lat="43.4601610" lon="-5.0270170">
        <ele>39.6</ele>
        <time>2021-07-19T08:55:18Z</time>
      </trkpt>
      <trkpt lat="43.4601890" lon="-5.0270710">
        <ele>39.6</ele>
        <time>2021-07-19T08:55:20Z</time>
      </trkpt>
      <trkpt lat="43.4601960" lon="-5.0271070">
        <ele>39.6</ele>
        <time>2021-07-19T08:55:21Z</time>
      </trkpt>
      <trkpt lat="43.4601940" lon="-5.0272260">
        <ele>39.6</ele>
        <time>2021-07-19T08:55:24Z</time>
      </trkpt>
      <trkpt lat="43.4601950" lon="-5.0272670">
        <ele>39.6</ele>
        <time>2021-07-19T08:55:25Z</time>
      </trkpt>
      <trkpt lat="43.4601980" lon="-5.0273060">
        <ele>39.6</ele>
        <time>2021-07-19T08:55:26Z</time>
      </trkpt>
      <trkpt lat="43.4601950" lon="-5.0274450">
        <ele>39.6</ele>
        <time>2021-07-19T08:55:30Z</time>
      </trkpt>
      <trkpt lat="43.4601900" lon="-5.0274950">
        <ele>39.6</ele>
        <time>2021-07-19T08:55:32Z</time>
      </trkpt>
      <trkpt lat="43.4601840" lon="-5.0275640">
        <ele>39.6</ele>
        <time>2021-07-19T08:55:36Z</time>
      </trkpt>
      <trkpt lat="43.4601840" lon="-5.0275940">
        <ele>39.6</ele>
        <time>2021-07-19T08:55:38Z</time>
      </trkpt>
      <trkpt lat="43.4601810" lon="-5.0275980">
        <ele>39.6</ele>
        <time>2021-07-19T08:55:40Z</time>
      </trkpt>
      <trkpt lat="43.4601810" lon="-5.0276940">
        <ele>39.6</ele>
        <time>2021-07-19T08:56:06Z</time>
      </trkpt>
      <trkpt lat="43.4601740" lon="-5.0277140">
        <ele>39.6</ele>
        <time>2021-07-19T08:56:07Z</time>
      </trkpt>
      <trkpt lat="43.4601720" lon="-5.0277430">
        <ele>39.6</ele>
        <time>2021-07-19T08:56:08Z</time>
      </trkpt>
      <trkpt lat="43.4601540" lon="-5.0279540">
        <ele>39.6</ele>
        <time>2021-07-19T08:56:14Z</time>
      </trkpt>
      <trkpt lat="43.4601810" lon="-5.0280690">
        <ele>39.6</ele>
        <time>2021-07-19T08:56:18Z</time>
      </trkpt>
      <trkpt lat="43.4601990" lon="-5.0281160">
        <ele>39.6</ele>
        <time>2021-07-19T08:56:20Z</time>
      </trkpt>
      <trkpt lat="43.4602380" lon="-5.0281890">
        <ele>40.0</ele>
        <time>2021-07-19T08:56:23Z</time>
      </trkpt>
      <trkpt lat="43.4602550" lon="-5.0282110">
        <ele>40.6</ele>
        <time>2021-07-19T08:56:24Z</time>
      </trkpt>
      <trkpt lat="43.4602750" lon="-5.0282350">
        <ele>41.0</ele>
        <time>2021-07-19T08:56:25Z</time>
      </trkpt>
      <trkpt lat="43.4602890" lon="-5.0282560">
        <ele>41.4</ele>
        <time>2021-07-19T08:56:26Z</time>
      </trkpt>
      <trkpt lat="43.4603080" lon="-5.0282730">
        <ele>41.8</ele>
        <time>2021-07-19T08:56:27Z</time>
      </trkpt>
      <trkpt lat="43.4603550" lon="-5.0283280">
        <ele>42.2</ele>
        <time>2021-07-19T08:56:30Z</time>
      </trkpt>
      <trkpt lat="43.4603670" lon="-5.0283480">
        <ele>42.6</ele>
        <time>2021-07-19T08:56:31Z</time>
      </trkpt>
      <trkpt lat="43.4603730" lon="-5.0283700">
        <ele>43.0</ele>
        <time>2021-07-19T08:56:32Z</time>
      </trkpt>
      <trkpt lat="43.4603800" lon="-5.0283930">
        <ele>43.4</ele>
        <time>2021-07-19T08:56:33Z</time>
      </trkpt>
      <trkpt lat="43.4603870" lon="-5.0284210">
        <ele>43.8</ele>
        <time>2021-07-19T08:56:34Z</time>
      </trkpt>
      <trkpt lat="43.4604010" lon="-5.0285550">
        <ele>43.8</ele>
        <time>2021-07-19T08:56:38Z</time>
      </trkpt>
      <trkpt lat="43.4604060" lon="-5.0285980">
        <ele>43.8</ele>
        <time>2021-07-19T08:56:39Z</time>
      </trkpt>
      <trkpt lat="43.4604580" lon="-5.0287310">
        <ele>43.8</ele>
        <time>2021-07-19T08:56:43Z</time>
      </trkpt>
      <trkpt lat="43.4605340" lon="-5.0288070">
        <ele>43.8</ele>
        <time>2021-07-19T08:56:48Z</time>
      </trkpt>
      <trkpt lat="43.4605490" lon="-5.0288120">
        <ele>43.8</ele>
        <time>2021-07-19T08:56:49Z</time>
      </trkpt>
      <trkpt lat="43.4605690" lon="-5.0288110">
        <ele>43.8</ele>
        <time>2021-07-19T08:56:53Z</time>
      </trkpt>
      <trkpt lat="43.4605880" lon="-5.0288690">
        <ele>43.8</ele>
        <time>2021-07-19T08:58:22Z</time>
      </trkpt>
      <trkpt lat="43.4605880" lon="-5.0288830">
        <ele>43.8</ele>
        <time>2021-07-19T08:58:23Z</time>
      </trkpt>
      <trkpt lat="43.4606040" lon="-5.0289530">
        <ele>43.8</ele>
        <time>2021-07-19T08:58:26Z</time>
      </trkpt>
      <trkpt lat="43.4606110" lon="-5.0289730">
        <ele>44.2</ele>
        <time>2021-07-19T08:58:27Z</time>
      </trkpt>
      <trkpt lat="43.4606180" lon="-5.0289930">
        <ele>44.6</ele>
        <time>2021-07-19T08:58:28Z</time>
      </trkpt>
      <trkpt lat="43.4606280" lon="-5.0290110">
        <ele>45.0</ele>
        <time>2021-07-19T08:58:29Z</time>
      </trkpt>
      <trkpt lat="43.4606390" lon="-5.0290280">
        <ele>45.4</ele>
        <time>2021-07-19T08:58:30Z</time>
      </trkpt>
      <trkpt lat="43.4606460" lon="-5.0290460">
        <ele>46.0</ele>
        <time>2021-07-19T08:58:31Z</time>
      </trkpt>
      <trkpt lat="43.4606830" lon="-5.0291400">
        <ele>46.0</ele>
        <time>2021-07-19T08:58:36Z</time>
      </trkpt>
      <trkpt lat="43.4607070" lon="-5.0292030">
        <ele>46.0</ele>
        <time>2021-07-19T08:58:40Z</time>
      </trkpt>
      <trkpt lat="43.4607090" lon="-5.0292160">
        <ele>46.0</ele>
        <time>2021-07-19T08:58:41Z</time>
      </trkpt>
      <trkpt lat="43.4607140" lon="-5.0292490">
        <ele>46.4</ele>
        <time>2021-07-19T08:58:43Z</time>
      </trkpt>
      <trkpt lat="43.4607200" lon="-5.0292630">
        <ele>46.8</ele>
        <time>2021-07-19T08:58:44Z</time>
      </trkpt>
      <trkpt lat="43.4607290" lon="-5.0292850">
        <ele>47.2</ele>
        <time>2021-07-19T08:58:45Z</time>
      </trkpt>
      <trkpt lat="43.4607330" lon="-5.0293030">
        <ele>47.6</ele>
        <time>2021-07-19T08:58:46Z</time>
      </trkpt>
      <trkpt lat="43.4607350" lon="-5.0293200">
        <ele>48.0</ele>
        <time>2021-07-19T08:58:47Z</time>
      </trkpt>
      <trkpt lat="43.4607410" lon="-5.0293610">
        <ele>48.0</ele>
        <time>2021-07-19T08:58:49Z</time>
      </trkpt>
      <trkpt lat="43.4607440" lon="-5.0294160">
        <ele>48.0</ele>
        <time>2021-07-19T08:58:52Z</time>
      </trkpt>
      <trkpt lat="43.4607410" lon="-5.0294530">
        <ele>48.0</ele>
        <time>2021-07-19T08:58:56Z</time>
      </trkpt>
      <trkpt lat="43.4607400" lon="-5.0294640">
        <ele>48.0</ele>
        <time>2021-07-19T08:58:57Z</time>
      </trkpt>
      <trkpt lat="43.4607390" lon="-5.0294700">
        <ele>48.0</ele>
        <time>2021-07-19T08:58:58Z</time>
      </trkpt>
      <trkpt lat="43.4607240" lon="-5.0294990">
        <ele>48.0</ele>
        <time>2021-07-19T08:59:02Z</time>
      </trkpt>
      <trkpt lat="43.4607110" lon="-5.0295220">
        <ele>48.0</ele>
        <time>2021-07-19T08:59:04Z</time>
      </trkpt>
      <trkpt lat="43.4607080" lon="-5.0295260">
        <ele>48.0</ele>
        <time>2021-07-19T08:59:05Z</time>
      </trkpt>
      <trkpt lat="43.4607080" lon="-5.0295260">
        <ele>48.0</ele>
        <time>2021-07-19T08:59:07Z</time>
      </trkpt>
      <trkpt lat="43.4606990" lon="-5.0295960">
        <ele>48.0</ele>
        <time>2021-07-19T08:59:10Z</time>
      </trkpt>
      <trkpt lat="43.4606850" lon="-5.0297480">
        <ele>48.0</ele>
        <time>2021-07-19T08:59:14Z</time>
      </trkpt>
      <trkpt lat="43.4607000" lon="-5.0299100">
        <ele>48.0</ele>
        <time>2021-07-19T08:59:18Z</time>
      </trkpt>
      <trkpt lat="43.4607560" lon="-5.0301070">
        <ele>48.0</ele>
        <time>2021-07-19T08:59:25Z</time>
      </trkpt>
      <trkpt lat="43.4607780" lon="-5.0302230">
        <ele>48.0</ele>
        <time>2021-07-19T08:59:30Z</time>
      </trkpt>
      <trkpt lat="43.4607860" lon="-5.0302590">
        <ele>48.0</ele>
        <time>2021-07-19T08:59:34Z</time>
      </trkpt>
      <trkpt lat="43.4607870" lon="-5.0303780">
        <ele>48.0</ele>
        <time>2021-07-19T08:59:41Z</time>
      </trkpt>
      <trkpt lat="43.4607600" lon="-5.0304220">
        <ele>48.0</ele>
        <time>2021-07-19T08:59:44Z</time>
      </trkpt>
      <trkpt lat="43.4607310" lon="-5.0304950">
        <ele>48.0</ele>
        <time>2021-07-19T08:59:48Z</time>
      </trkpt>
      <trkpt lat="43.4607270" lon="-5.0305320">
        <ele>48.0</ele>
        <time>2021-07-19T08:59:51Z</time>
      </trkpt>
      <trkpt lat="43.4607230" lon="-5.0305550">
        <ele>48.0</ele>
        <time>2021-07-19T08:59:53Z</time>
      </trkpt>
      <trkpt lat="43.4607210" lon="-5.0305670">
        <ele>48.0</ele>
        <time>2021-07-19T08:59:54Z</time>
      </trkpt>
      <trkpt lat="43.4607200" lon="-5.0305830">
        <ele>47.6</ele>
        <time>2021-07-19T08:59:55Z</time>
      </trkpt>
      <trkpt lat="43.4607180" lon="-5.0306000">
        <ele>46.8</ele>
        <time>2021-07-19T08:59:56Z</time>
      </trkpt>
      <trkpt lat="43.4607100" lon="-5.0306140">
        <ele>46.4</ele>
        <time>2021-07-19T08:59:57Z</time>
      </trkpt>
      <trkpt lat="43.4607000" lon="-5.0306300">
        <ele>46.0</ele>
        <time>2021-07-19T08:59:58Z</time>
      </trkpt>
      <trkpt lat="43.4606980" lon="-5.0306650">
        <ele>46.0</ele>
        <time>2021-07-19T09:00:00Z</time>
      </trkpt>
      <trkpt lat="43.4606920" lon="-5.0307940">
        <ele>46.0</ele>
        <time>2021-07-19T09:00:07Z</time>
      </trkpt>
      <trkpt lat="43.4607020" lon="-5.0309120">
        <ele>46.0</ele>
        <time>2021-07-19T09:00:13Z</time>
      </trkpt>
      <trkpt lat="43.4607030" lon="-5.0309340">
        <ele>45.6</ele>
        <time>2021-07-19T09:00:14Z</time>
      </trkpt>
      <trkpt lat="43.4607030" lon="-5.0309540">
        <ele>45.2</ele>
        <time>2021-07-19T09:00:15Z</time>
      </trkpt>
      <trkpt lat="43.4607020" lon="-5.0309740">
        <ele>44.8</ele>
        <time>2021-07-19T09:00:16Z</time>
      </trkpt>
      <trkpt lat="43.4607000" lon="-5.0309870">
        <ele>44.2</ele>
        <time>2021-07-19T09:00:17Z</time>
      </trkpt>
      <trkpt lat="43.4606990" lon="-5.0309950">
        <ele>43.8</ele>
        <time>2021-07-19T09:00:18Z</time>
      </trkpt>
      <trkpt lat="43.4606970" lon="-5.0310200">
        <ele>43.8</ele>
        <time>2021-07-19T09:00:20Z</time>
      </trkpt>
      <trkpt lat="43.4606950" lon="-5.0310700">
        <ele>43.8</ele>
        <time>2021-07-19T09:00:25Z</time>
      </trkpt>
      <trkpt lat="43.4606860" lon="-5.0311020">
        <ele>43.8</ele>
        <time>2021-07-19T09:00:37Z</time>
      </trkpt>
      <trkpt lat="43.4606830" lon="-5.0311190">
        <ele>43.8</ele>
        <time>2021-07-19T09:00:38Z</time>
      </trkpt>
      <trkpt lat="43.4606810" lon="-5.0311760">
        <ele>43.4</ele>
        <time>2021-07-19T09:00:41Z</time>
      </trkpt>
      <trkpt lat="43.4606810" lon="-5.0311950">
        <ele>43.0</ele>
        <time>2021-07-19T09:00:42Z</time>
      </trkpt>
      <trkpt lat="43.4606810" lon="-5.0312100">
        <ele>42.6</ele>
        <time>2021-07-19T09:00:43Z</time>
      </trkpt>
      <trkpt lat="43.4606800" lon="-5.0312210">
        <ele>42.0</ele>
        <time>2021-07-19T09:00:44Z</time>
      </trkpt>
      <trkpt lat="43.4606790" lon="-5.0312300">
        <ele>41.6</ele>
        <time>2021-07-19T09:00:45Z</time>
      </trkpt>
      <trkpt lat="43.4606620" lon="-5.0313150">
        <ele>41.6</ele>
        <time>2021-07-19T09:00:52Z</time>
      </trkpt>
      <trkpt lat="43.4606560" lon="-5.0314570">
        <ele>41.6</ele>
        <time>2021-07-19T09:01:05Z</time>
      </trkpt>
      <trkpt lat="43.4606470" lon="-5.0314920">
        <ele>41.6</ele>
        <time>2021-07-19T09:01:07Z</time>
      </trkpt>
      <trkpt lat="43.4606360" lon="-5.0315030">
        <ele>41.6</ele>
        <time>2021-07-19T09:01:08Z</time>
      </trkpt>
      <trkpt lat="43.4606100" lon="-5.0315240">
        <ele>41.6</ele>
        <time>2021-07-19T09:01:10Z</time>
      </trkpt>
      <trkpt lat="43.4605590" lon="-5.0315830">
        <ele>41.6</ele>
        <time>2021-07-19T09:01:16Z</time>
      </trkpt>
      <trkpt lat="43.4605400" lon="-5.0316410">
        <ele>41.6</ele>
        <time>2021-07-19T09:01:22Z</time>
      </trkpt>
      <trkpt lat="43.4605320" lon="-5.0316540">
        <ele>41.6</ele>
        <time>2021-07-19T09:01:23Z</time>
      </trkpt>
      <trkpt lat="43.4604900" lon="-5.0316960">
        <ele>41.2</ele>
        <time>2021-07-19T09:01:29Z</time>
      </trkpt>
      <trkpt lat="43.4605000" lon="-5.0316750">
        <ele>39.6</ele>
        <time>2021-07-19T09:01:50Z</time>
      </trkpt>
      <trkpt lat="43.4605350" lon="-5.0316530">
        <ele>39.6</ele>
        <time>2021-07-19T09:01:53Z</time>
      </trkpt>
      <trkpt lat="43.4605540" lon="-5.0316100">
        <ele>39.6</ele>
        <time>2021-07-19T09:01:56Z</time>
      </trkpt>
      <trkpt lat="43.4605600" lon="-5.0315990">
        <ele>39.6</ele>
        <time>2021-07-19T09:01:57Z</time>
      </trkpt>
      <trkpt lat="43.4605810" lon="-5.0315790">
        <ele>39.6</ele>
        <time>2021-07-19T09:01:59Z</time>
      </trkpt>
      <trkpt lat="43.4606460" lon="-5.0315090">
        <ele>39.6</ele>
        <time>2021-07-19T09:02:06Z</time>
      </trkpt>
      <trkpt lat="43.4606510" lon="-5.0314900">
        <ele>39.6</ele>
        <time>2021-07-19T09:02:07Z</time>
      </trkpt>
      <trkpt lat="43.4606690" lon="-5.0313770">
        <ele>39.6</ele>
        <time>2021-07-19T09:02:13Z</time>
      </trkpt>
      <trkpt lat="43.4606620" lon="-5.0312610">
        <ele>39.6</ele>
        <time>2021-07-19T09:02:20Z</time>
      </trkpt>
      <trkpt lat="43.4606760" lon="-5.0311420">
        <ele>39.6</ele>
        <time>2021-07-19T09:02:27Z</time>
      </trkpt>
      <trkpt lat="43.4606760" lon="-5.0311080">
        <ele>40.0</ele>
        <time>2021-07-19T09:02:29Z</time>
      </trkpt>
      <trkpt lat="43.4606780" lon="-5.0310930">
        <ele>40.4</ele>
        <time>2021-07-19T09:02:30Z</time>
      </trkpt>
      <trkpt lat="43.4606810" lon="-5.0310780">
        <ele>40.8</ele>
        <time>2021-07-19T09:02:31Z</time>
      </trkpt>
      <trkpt lat="43.4606840" lon="-5.0310640">
        <ele>41.2</ele>
        <time>2021-07-19T09:02:32Z</time>
      </trkpt>
      <trkpt lat="43.4606880" lon="-5.0310440">
        <ele>41.6</ele>
        <time>2021-07-19T09:02:33Z</time>
      </trkpt>
      <trkpt lat="43.4606930" lon="-5.0310250">
        <ele>41.6</ele>
        <time>2021-07-19T09:02:34Z</time>
      </trkpt>
      <trkpt lat="43.4607020" lon="-5.0309230">
        <ele>42.0</ele>
        <time>2021-07-19T09:02:39Z</time>
      </trkpt>
      <trkpt lat="43.4607010" lon="-5.0308990">
        <ele>42.4</ele>
        <time>2021-07-19T09:02:40Z</time>
      </trkpt>
      <trkpt lat="43.4606990" lon="-5.0308770">
        <ele>42.8</ele>
        <time>2021-07-19T09:02:41Z</time>
      </trkpt>
      <trkpt lat="43.4606970" lon="-5.0308550">
        <ele>43.2</ele>
        <time>2021-07-19T09:02:42Z</time>
      </trkpt>
      <trkpt lat="43.4606990" lon="-5.0308350">
        <ele>43.6</ele>
        <time>2021-07-19T09:02:43Z</time>
      </trkpt>
      <trkpt lat="43.4606940" lon="-5.0307530">
        <ele>43.6</ele>
        <time>2021-07-19T09:02:47Z</time>
      </trkpt>
      <trkpt lat="43.4606930" lon="-5.0307360">
        <ele>43.6</ele>
        <time>2021-07-19T09:02:48Z</time>
      </trkpt>
      <trkpt lat="43.4607060" lon="-5.0306250">
        <ele>43.6</ele>
        <time>2021-07-19T09:02:54Z</time>
      </trkpt>
      <trkpt lat="43.4607190" lon="-5.0305900">
        <ele>43.6</ele>
        <time>2021-07-19T09:02:56Z</time>
      </trkpt>
      <trkpt lat="43.4607240" lon="-5.0305280">
        <ele>44.2</ele>
        <time>2021-07-19T09:03:00Z</time>
      </trkpt>
      <trkpt lat="43.4607260" lon="-5.0305160">
        <ele>44.6</ele>
        <time>2021-07-19T09:03:01Z</time>
      </trkpt>
      <trkpt lat="43.4607280" lon="-5.0305020">
        <ele>45.0</ele>
        <time>2021-07-19T09:03:02Z</time>
      </trkpt>
      <trkpt lat="43.4607310" lon="-5.0304910">
        <ele>45.4</ele>
        <time>2021-07-19T09:03:03Z</time>
      </trkpt>
      <trkpt lat="43.4607340" lon="-5.0304760">
        <ele>45.8</ele>
        <time>2021-07-19T09:03:04Z</time>
      </trkpt>
      <trkpt lat="43.4607670" lon="-5.0304150">
        <ele>45.8</ele>
        <time>2021-07-19T09:03:08Z</time>
      </trkpt>
      <trkpt lat="43.4608080" lon="-5.0303260">
        <ele>46.4</ele>
        <time>2021-07-19T09:03:14Z</time>
      </trkpt>
      <trkpt lat="43.4608100" lon="-5.0303110">
        <ele>46.8</ele>
        <time>2021-07-19T09:03:15Z</time>
      </trkpt>
      <trkpt lat="43.4608060" lon="-5.0302930">
        <ele>47.2</ele>
        <time>2021-07-19T09:03:16Z</time>
      </trkpt>
      <trkpt lat="43.4608010" lon="-5.0302760">
        <ele>47.6</ele>
        <time>2021-07-19T09:03:17Z</time>
      </trkpt>
      <trkpt lat="43.4607960" lon="-5.0302590">
        <ele>48.0</ele>
        <time>2021-07-19T09:03:18Z</time>
      </trkpt>
      <trkpt lat="43.4607810" lon="-5.0302120">
        <ele>48.0</ele>
        <time>2021-07-19T09:03:21Z</time>
      </trkpt>
      <trkpt lat="43.4607430" lon="-5.0300820">
        <ele>48.0</ele>
        <time>2021-07-19T09:03:28Z</time>
      </trkpt>
      <trkpt lat="43.4607420" lon="-5.0300810">
        <ele>48.0</ele>
        <time>2021-07-19T09:03:29Z</time>
      </trkpt>
      <trkpt lat="43.4607350" lon="-5.0300560">
        <ele>48.0</ele>
        <time>2021-07-19T09:03:37Z</time>
      </trkpt>
      <trkpt lat="43.4607250" lon="-5.0300030">
        <ele>48.0</ele>
        <time>2021-07-19T09:03:39Z</time>
      </trkpt>
      <trkpt lat="43.4606610" lon="-5.0298290">
        <ele>48.0</ele>
        <time>2021-07-19T09:03:44Z</time>
      </trkpt>
      <trkpt lat="43.4606700" lon="-5.0297680">
        <ele>48.0</ele>
        <time>2021-07-19T09:03:46Z</time>
      </trkpt>
      <trkpt lat="43.4606800" lon="-5.0297180">
        <ele>48.0</ele>
        <time>2021-07-19T09:03:48Z</time>
      </trkpt>
      <trkpt lat="43.4606980" lon="-5.0295600">
        <ele>48.0</ele>
        <time>2021-07-19T09:03:54Z</time>
      </trkpt>
      <trkpt lat="43.4607070" lon="-5.0295190">
        <ele>48.0</ele>
        <time>2021-07-19T09:03:57Z</time>
      </trkpt>
      <trkpt lat="43.4607370" lon="-5.0293640">
        <ele>48.0</ele>
        <time>2021-07-19T09:04:14Z</time>
      </trkpt>
      <trkpt lat="43.4607380" lon="-5.0293430">
        <ele>48.0</ele>
        <time>2021-07-19T09:04:15Z</time>
      </trkpt>
      <trkpt lat="43.4607070" lon="-5.0292120">
        <ele>48.0</ele>
        <time>2021-07-19T09:04:22Z</time>
      </trkpt>
      <trkpt lat="43.4606790" lon="-5.0291340">
        <ele>48.0</ele>
        <time>2021-07-19T09:04:26Z</time>
      </trkpt>
      <trkpt lat="43.4606680" lon="-5.0290950">
        <ele>48.0</ele>
        <time>2021-07-19T09:04:28Z</time>
      </trkpt>
      <trkpt lat="43.4606090" lon="-5.0289580">
        <ele>48.0</ele>
        <time>2021-07-19T09:04:36Z</time>
      </trkpt>
      <trkpt lat="43.4606040" lon="-5.0289400">
        <ele>47.6</ele>
        <time>2021-07-19T09:04:37Z</time>
      </trkpt>
      <trkpt lat="43.4605960" lon="-5.0289270">
        <ele>47.2</ele>
        <time>2021-07-19T09:04:38Z</time>
      </trkpt>
      <trkpt lat="43.4605850" lon="-5.0289170">
        <ele>46.8</ele>
        <time>2021-07-19T09:04:39Z</time>
      </trkpt>
      <trkpt lat="43.4605750" lon="-5.0289120">
        <ele>46.4</ele>
        <time>2021-07-19T09:04:40Z</time>
      </trkpt>
      <trkpt lat="43.4605660" lon="-5.0289070">
        <ele>46.0</ele>
        <time>2021-07-19T09:04:41Z</time>
      </trkpt>
      <trkpt lat="43.4605600" lon="-5.0288990">
        <ele>46.0</ele>
        <time>2021-07-19T09:04:43Z</time>
      </trkpt>
      <trkpt lat="43.4605580" lon="-5.0288970">
        <ele>46.0</ele>
        <time>2021-07-19T09:04:49Z</time>
      </trkpt>
      <trkpt lat="43.4605430" lon="-5.0288770">
        <ele>46.0</ele>
        <time>2021-07-19T09:04:50Z</time>
      </trkpt>
      <trkpt lat="43.4604670" lon="-5.0286990">
        <ele>46.0</ele>
        <time>2021-07-19T09:04:55Z</time>
      </trkpt>
      <trkpt lat="43.4604190" lon="-5.0285750">
        <ele>45.6</ele>
        <time>2021-07-19T09:04:58Z</time>
      </trkpt>
      <trkpt lat="43.4604130" lon="-5.0285430">
        <ele>45.0</ele>
        <time>2021-07-19T09:04:59Z</time>
      </trkpt>
      <trkpt lat="43.4604110" lon="-5.0285140">
        <ele>44.6</ele>
        <time>2021-07-19T09:05:00Z</time>
      </trkpt>
      <trkpt lat="43.4604090" lon="-5.0284870">
        <ele>44.2</ele>
        <time>2021-07-19T09:05:01Z</time>
      </trkpt>
      <trkpt lat="43.4604050" lon="-5.0284620">
        <ele>43.8</ele>
        <time>2021-07-19T09:05:02Z</time>
      </trkpt>
      <trkpt lat="43.4603770" lon="-5.0283660">
        <ele>43.8</ele>
        <time>2021-07-19T09:05:06Z</time>
      </trkpt>
      <trkpt lat="43.4602840" lon="-5.0282300">
        <ele>43.8</ele>
        <time>2021-07-19T09:05:12Z</time>
      </trkpt>
      <trkpt lat="43.4602040" lon="-5.0281390">
        <ele>43.4</ele>
        <time>2021-07-19T09:05:17Z</time>
      </trkpt>
      <trkpt lat="43.4601920" lon="-5.0281400">
        <ele>42.8</ele>
        <time>2021-07-19T09:05:18Z</time>
      </trkpt>
      <trkpt lat="43.4601820" lon="-5.0281430">
        <ele>42.4</ele>
        <time>2021-07-19T09:05:19Z</time>
      </trkpt>
      <trkpt lat="43.4601750" lon="-5.0281470">
        <ele>42.0</ele>
        <time>2021-07-19T09:05:20Z</time>
      </trkpt>
      <trkpt lat="43.4601700" lon="-5.0281560">
        <ele>41.6</ele>
        <time>2021-07-19T09:05:21Z</time>
      </trkpt>
      <trkpt lat="43.4601650" lon="-5.0281780">
        <ele>41.6</ele>
        <time>2021-07-19T09:05:23Z</time>
      </trkpt>
      <trkpt lat="43.4601640" lon="-5.0282040">
        <ele>41.6</ele>
        <time>2021-07-19T09:05:25Z</time>
      </trkpt>
      <trkpt lat="43.4601630" lon="-5.0283300">
        <ele>41.6</ele>
        <time>2021-07-19T09:05:30Z</time>
      </trkpt>
      <trkpt lat="43.4601650" lon="-5.0284040">
        <ele>41.2</ele>
        <time>2021-07-19T09:05:32Z</time>
      </trkpt>
      <trkpt lat="43.4601640" lon="-5.0284420">
        <ele>40.8</ele>
        <time>2021-07-19T09:05:33Z</time>
      </trkpt>
      <trkpt lat="43.4601580" lon="-5.0284800">
        <ele>40.4</ele>
        <time>2021-07-19T09:05:34Z</time>
      </trkpt>
      <trkpt lat="43.4601520" lon="-5.0285220">
        <ele>40.0</ele>
        <time>2021-07-19T09:05:35Z</time>
      </trkpt>
      <trkpt lat="43.4601450" lon="-5.0285690">
        <ele>39.6</ele>
        <time>2021-07-19T09:05:36Z</time>
      </trkpt>
      <trkpt lat="43.4601200" lon="-5.0287250">
        <ele>39.6</ele>
        <time>2021-07-19T09:05:39Z</time>
      </trkpt>
      <trkpt lat="43.4601030" lon="-5.0288030">
        <ele>39.6</ele>
        <time>2021-07-19T09:05:41Z</time>
      </trkpt>
      <trkpt lat="43.4600980" lon="-5.0288320">
        <ele>39.6</ele>
        <time>2021-07-19T09:05:42Z</time>
      </trkpt>
      <trkpt lat="43.4600810" lon="-5.0290120">
        <ele>39.6</ele>
        <time>2021-07-19T09:05:48Z</time>
      </trkpt>
      <trkpt lat="43.4600430" lon="-5.0293030">
        <ele>39.6</ele>
        <time>2021-07-19T09:05:54Z</time>
      </trkpt>
      <trkpt lat="43.4600050" lon="-5.0294600">
        <ele>39.6</ele>
        <time>2021-07-19T09:05:59Z</time>
      </trkpt>
      <trkpt lat="43.4599590" lon="-5.0295100">
        <ele>39.6</ele>
        <time>2021-07-19T09:06:02Z</time>
      </trkpt>
      <trkpt lat="43.4599310" lon="-5.0295590">
        <ele>39.6</ele>
        <time>2021-07-19T09:06:04Z</time>
      </trkpt>
      <trkpt lat="43.4599130" lon="-5.0295860">
        <ele>39.6</ele>
        <time>2021-07-19T09:06:05Z</time>
      </trkpt>
      <trkpt lat="43.4597710" lon="-5.0297870">
        <ele>39.6</ele>
        <time>2021-07-19T09:06:12Z</time>
      </trkpt>
      <trkpt lat="43.4597290" lon="-5.0299930">
        <ele>39.6</ele>
        <time>2021-07-19T09:06:17Z</time>
      </trkpt>
      <trkpt lat="43.4597420" lon="-5.0302430">
        <ele>39.6</ele>
        <time>2021-07-19T09:06:22Z</time>
      </trkpt>
      <trkpt lat="43.4597300" lon="-5.0304580">
        <ele>39.6</ele>
        <time>2021-07-19T09:06:27Z</time>
      </trkpt>
      <trkpt lat="43.4596770" lon="-5.0305890">
        <ele>39.6</ele>
        <time>2021-07-19T09:06:30Z</time>
      </trkpt>
      <trkpt lat="43.4596250" lon="-5.0307110">
        <ele>39.6</ele>
        <time>2021-07-19T09:06:32Z</time>
      </trkpt>
      <trkpt lat="43.4595610" lon="-5.0309140">
        <ele>39.6</ele>
        <time>2021-07-19T09:06:35Z</time>
      </trkpt>
      <trkpt lat="43.4595370" lon="-5.0309720">
        <ele>39.2</ele>
        <time>2021-07-19T09:06:36Z</time>
      </trkpt>
      <trkpt lat="43.4595150" lon="-5.0310340">
        <ele>38.8</ele>
        <time>2021-07-19T09:06:37Z</time>
      </trkpt>
      <trkpt lat="43.4594940" lon="-5.0310960">
        <ele>38.2</ele>
        <time>2021-07-19T09:06:38Z</time>
      </trkpt>
      <trkpt lat="43.4594720" lon="-5.0311670">
        <ele>37.8</ele>
        <time>2021-07-19T09:06:39Z</time>
      </trkpt>
      <trkpt lat="43.4594560" lon="-5.0312450">
        <ele>37.4</ele>
        <time>2021-07-19T09:06:40Z</time>
      </trkpt>
      <trkpt lat="43.4594480" lon="-5.0313300">
        <ele>37.4</ele>
        <time>2021-07-19T09:06:41Z</time>
      </trkpt>
      <trkpt lat="43.4594530" lon="-5.0316080">
        <ele>37.4</ele>
        <time>2021-07-19T09:06:44Z</time>
      </trkpt>
      <trkpt lat="43.4594520" lon="-5.0316960">
        <ele>37.0</ele>
        <time>2021-07-19T09:06:45Z</time>
      </trkpt>
      <trkpt lat="43.4594450" lon="-5.0317810">
        <ele>36.6</ele>
        <time>2021-07-19T09:06:46Z</time>
      </trkpt>
      <trkpt lat="43.4594310" lon="-5.0318610">
        <ele>36.2</ele>
        <time>2021-07-19T09:06:47Z</time>
      </trkpt>
      <trkpt lat="43.4594110" lon="-5.0319360">
        <ele>35.6</ele>
        <time>2021-07-19T09:06:48Z</time>
      </trkpt>
      <trkpt lat="43.4593820" lon="-5.0320040">
        <ele>35.2</ele>
        <time>2021-07-19T09:06:49Z</time>
      </trkpt>
      <trkpt lat="43.4593470" lon="-5.0320580">
        <ele>34.6</ele>
        <time>2021-07-19T09:06:50Z</time>
      </trkpt>
      <trkpt lat="43.4593130" lon="-5.0320940">
        <ele>34.2</ele>
        <time>2021-07-19T09:06:51Z</time>
      </trkpt>
      <trkpt lat="43.4592730" lon="-5.0321140">
        <ele>33.6</ele>
        <time>2021-07-19T09:06:52Z</time>
      </trkpt>
      <trkpt lat="43.4592330" lon="-5.0321250">
        <ele>33.0</ele>
        <time>2021-07-19T09:06:53Z</time>
      </trkpt>
      <trkpt lat="43.4591880" lon="-5.0321330">
        <ele>32.4</ele>
        <time>2021-07-19T09:06:54Z</time>
      </trkpt>
      <trkpt lat="43.4591400" lon="-5.0321400">
        <ele>31.2</ele>
        <time>2021-07-19T09:06:55Z</time>
      </trkpt>
      <trkpt lat="43.4589860" lon="-5.0321760">
        <ele>31.2</ele>
        <time>2021-07-19T09:06:58Z</time>
      </trkpt>
      <trkpt lat="43.4589290" lon="-5.0321960">
        <ele>30.8</ele>
        <time>2021-07-19T09:06:59Z</time>
      </trkpt>
      <trkpt lat="43.4588670" lon="-5.0322180">
        <ele>30.4</ele>
        <time>2021-07-19T09:07:00Z</time>
      </trkpt>
      <trkpt lat="43.4587980" lon="-5.0322430">
        <ele>30.0</ele>
        <time>2021-07-19T09:07:01Z</time>
      </trkpt>
      <trkpt lat="43.4587220" lon="-5.0322710">
        <ele>29.4</ele>
        <time>2021-07-19T09:07:02Z</time>
      </trkpt>
      <trkpt lat="43.4586440" lon="-5.0323010">
        <ele>29.0</ele>
        <time>2021-07-19T09:07:03Z</time>
      </trkpt>
      <trkpt lat="43.4584140" lon="-5.0323840">
        <ele>28.6</ele>
        <time>2021-07-19T09:07:06Z</time>
      </trkpt>
      <trkpt lat="43.4583390" lon="-5.0324080">
        <ele>28.2</ele>
        <time>2021-07-19T09:07:07Z</time>
      </trkpt>
      <trkpt lat="43.4582720" lon="-5.0324350">
        <ele>27.8</ele>
        <time>2021-07-19T09:07:08Z</time>
      </trkpt>
      <trkpt lat="43.4582120" lon="-5.0324660">
        <ele>27.4</ele>
        <time>2021-07-19T09:07:09Z</time>
      </trkpt>
      <trkpt lat="43.4581560" lon="-5.0325080">
        <ele>26.8</ele>
        <time>2021-07-19T09:07:10Z</time>
      </trkpt>
      <trkpt lat="43.4580640" lon="-5.0326260">
        <ele>26.8</ele>
        <time>2021-07-19T09:07:12Z</time>
      </trkpt>
      <trkpt lat="43.4579730" lon="-5.0328480">
        <ele>26.8</ele>
        <time>2021-07-19T09:07:15Z</time>
      </trkpt>
      <trkpt lat="43.4579480" lon="-5.0329160">
        <ele>26.8</ele>
        <time>2021-07-19T09:07:16Z</time>
      </trkpt>
      <trkpt lat="43.4579190" lon="-5.0329750">
        <ele>26.8</ele>
        <time>2021-07-19T09:07:17Z</time>
      </trkpt>
      <trkpt lat="43.4578400" lon="-5.0330530">
        <ele>26.8</ele>
        <time>2021-07-19T09:07:19Z</time>
      </trkpt>
      <trkpt lat="43.4577960" lon="-5.0330830">
        <ele>26.4</ele>
        <time>2021-07-19T09:07:20Z</time>
      </trkpt>
      <trkpt lat="43.4577540" lon="-5.0331160">
        <ele>26.0</ele>
        <time>2021-07-19T09:07:21Z</time>
      </trkpt>
      <trkpt lat="43.4577100" lon="-5.0331490">
        <ele>25.6</ele>
        <time>2021-07-19T09:07:22Z</time>
      </trkpt>
      <trkpt lat="43.4576690" lon="-5.0331750">
        <ele>25.2</ele>
        <time>2021-07-19T09:07:23Z</time>
      </trkpt>
      <trkpt lat="43.4576300" lon="-5.0331960">
        <ele>24.8</ele>
        <time>2021-07-19T09:07:24Z</time>
      </trkpt>
      <trkpt lat="43.4575930" lon="-5.0332060">
        <ele>24.8</ele>
        <time>2021-07-19T09:07:25Z</time>
      </trkpt>
      <trkpt lat="43.4574950" lon="-5.0332150">
        <ele>24.8</ele>
        <time>2021-07-19T09:07:28Z</time>
      </trkpt>
      <trkpt lat="43.4574410" lon="-5.0332480">
        <ele>24.8</ele>
        <time>2021-07-19T09:07:30Z</time>
      </trkpt>
      <trkpt lat="43.4573870" lon="-5.0333360">
        <ele>24.8</ele>
        <time>2021-07-19T09:07:32Z</time>
      </trkpt>
      <trkpt lat="43.4573590" lon="-5.0333950">
        <ele>24.8</ele>
        <time>2021-07-19T09:07:33Z</time>
      </trkpt>
      <trkpt lat="43.4573360" lon="-5.0334610">
        <ele>24.8</ele>
        <time>2021-07-19T09:07:34Z</time>
      </trkpt>
      <trkpt lat="43.4572940" lon="-5.0337760">
        <ele>24.8</ele>
        <time>2021-07-19T09:07:38Z</time>
      </trkpt>
      <trkpt lat="43.4572670" lon="-5.0343180">
        <ele>24.8</ele>
        <time>2021-07-19T09:07:45Z</time>
      </trkpt>
      <trkpt lat="43.4572700" lon="-5.0343860">
        <ele>24.8</ele>
        <time>2021-07-19T09:07:46Z</time>
      </trkpt>
      <trkpt lat="43.4572750" lon="-5.0345730">
        <ele>24.8</ele>
        <time>2021-07-19T09:07:49Z</time>
      </trkpt>
      <trkpt lat="43.4572720" lon="-5.0346950">
        <ele>24.8</ele>
        <time>2021-07-19T09:07:51Z</time>
      </trkpt>
      <trkpt lat="43.4572790" lon="-5.0348200">
        <ele>24.8</ele>
        <time>2021-07-19T09:07:53Z</time>
      </trkpt>
      <trkpt lat="43.4572880" lon="-5.0348830">
        <ele>24.4</ele>
        <time>2021-07-19T09:07:54Z</time>
      </trkpt>
      <trkpt lat="43.4573000" lon="-5.0349470">
        <ele>24.0</ele>
        <time>2021-07-19T09:07:55Z</time>
      </trkpt>
      <trkpt lat="43.4573110" lon="-5.0350050">
        <ele>23.6</ele>
        <time>2021-07-19T09:07:56Z</time>
      </trkpt>
      <trkpt lat="43.4573230" lon="-5.0350550">
        <ele>23.2</ele>
        <time>2021-07-19T09:07:57Z</time>
      </trkpt>
      <trkpt lat="43.4573320" lon="-5.0350960">
        <ele>22.8</ele>
        <time>2021-07-19T09:07:58Z</time>
      </trkpt>
      <trkpt lat="43.4573360" lon="-5.0351510">
        <ele>22.8</ele>
        <time>2021-07-19T09:08:01Z</time>
      </trkpt>
      <trkpt lat="43.4573370" lon="-5.0351770">
        <ele>22.8</ele>
        <time>2021-07-19T09:08:22Z</time>
      </trkpt>
      <trkpt lat="43.4573360" lon="-5.0352490">
        <ele>22.8</ele>
        <time>2021-07-19T09:08:24Z</time>
      </trkpt>
      <trkpt lat="43.4573320" lon="-5.0353430">
        <ele>22.8</ele>
        <time>2021-07-19T09:08:26Z</time>
      </trkpt>
      <trkpt lat="43.4573180" lon="-5.0354500">
        <ele>22.8</ele>
        <time>2021-07-19T09:08:28Z</time>
      </trkpt>
      <trkpt lat="43.4573080" lon="-5.0355080">
        <ele>22.8</ele>
        <time>2021-07-19T09:08:29Z</time>
      </trkpt>
      <trkpt lat="43.4572610" lon="-5.0356960">
        <ele>22.8</ele>
        <time>2021-07-19T09:08:32Z</time>
      </trkpt>
      <trkpt lat="43.4572090" lon="-5.0359450">
        <ele>22.4</ele>
        <time>2021-07-19T09:08:36Z</time>
      </trkpt>
      <trkpt lat="43.4571990" lon="-5.0360080">
        <ele>22.0</ele>
        <time>2021-07-19T09:08:37Z</time>
      </trkpt>
      <trkpt lat="43.4571930" lon="-5.0360590">
        <ele>21.4</ele>
        <time>2021-07-19T09:08:38Z</time>
      </trkpt>
      <trkpt lat="43.4571880" lon="-5.0361110">
        <ele>21.0</ele>
        <time>2021-07-19T09:08:39Z</time>
      </trkpt>
      <trkpt lat="43.4571900" lon="-5.0361580">
        <ele>20.6</ele>
        <time>2021-07-19T09:08:40Z</time>
      </trkpt>
      <trkpt lat="43.4572130" lon="-5.0363100">
        <ele>20.6</ele>
        <time>2021-07-19T09:08:43Z</time>
      </trkpt>
      <trkpt lat="43.4572290" lon="-5.0363620">
        <ele>20.6</ele>
        <time>2021-07-19T09:08:44Z</time>
      </trkpt>
      <trkpt lat="43.4572970" lon="-5.0365790">
        <ele>20.6</ele>
        <time>2021-07-19T09:08:48Z</time>
      </trkpt>
      <trkpt lat="43.4573300" lon="-5.0367050">
        <ele>21.0</ele>
        <time>2021-07-19T09:08:50Z</time>
      </trkpt>
      <trkpt lat="43.4573500" lon="-5.0367620">
        <ele>21.4</ele>
        <time>2021-07-19T09:08:51Z</time>
      </trkpt>
      <trkpt lat="43.4573690" lon="-5.0368150">
        <ele>21.8</ele>
        <time>2021-07-19T09:08:52Z</time>
      </trkpt>
      <trkpt lat="43.4573840" lon="-5.0368690">
        <ele>22.2</ele>
        <time>2021-07-19T09:08:53Z</time>
      </trkpt>
      <trkpt lat="43.4574000" lon="-5.0369270">
        <ele>22.8</ele>
        <time>2021-07-19T09:08:54Z</time>
      </trkpt>
      <trkpt lat="43.4574680" lon="-5.0373410">
        <ele>22.8</ele>
        <time>2021-07-19T09:09:00Z</time>
      </trkpt>
      <trkpt lat="43.4575540" lon="-5.0378140">
        <ele>22.4</ele>
        <time>2021-07-19T09:09:06Z</time>
      </trkpt>
      <trkpt lat="43.4575670" lon="-5.0379010">
        <ele>21.8</ele>
        <time>2021-07-19T09:09:07Z</time>
      </trkpt>
      <trkpt lat="43.4575780" lon="-5.0379920">
        <ele>21.4</ele>
        <time>2021-07-19T09:09:08Z</time>
      </trkpt>
      <trkpt lat="43.4575880" lon="-5.0380880">
        <ele>21.0</ele>
        <time>2021-07-19T09:09:09Z</time>
      </trkpt>
      <trkpt lat="43.4575970" lon="-5.0381880">
        <ele>20.6</ele>
        <time>2021-07-19T09:09:10Z</time>
      </trkpt>
      <trkpt lat="43.4576310" lon="-5.0384870">
        <ele>20.2</ele>
        <time>2021-07-19T09:09:13Z</time>
      </trkpt>
      <trkpt lat="43.4576370" lon="-5.0385770">
        <ele>19.6</ele>
        <time>2021-07-19T09:09:14Z</time>
      </trkpt>
      <trkpt lat="43.4576430" lon="-5.0386720">
        <ele>19.0</ele>
        <time>2021-07-19T09:09:15Z</time>
      </trkpt>
      <trkpt lat="43.4576490" lon="-5.0387720">
        <ele>18.6</ele>
        <time>2021-07-19T09:09:16Z</time>
      </trkpt>
      <trkpt lat="43.4576600" lon="-5.0388760">
        <ele>18.0</ele>
        <time>2021-07-19T09:09:17Z</time>
      </trkpt>
      <trkpt lat="43.4576880" lon="-5.0390870">
        <ele>17.6</ele>
        <time>2021-07-19T09:09:19Z</time>
      </trkpt>
      <trkpt lat="43.4577060" lon="-5.0391920">
        <ele>17.2</ele>
        <time>2021-07-19T09:09:20Z</time>
      </trkpt>
      <trkpt lat="43.4577280" lon="-5.0393060">
        <ele>16.8</ele>
        <time>2021-07-19T09:09:21Z</time>
      </trkpt>
      <trkpt lat="43.4577520" lon="-5.0394090">
        <ele>16.2</ele>
        <time>2021-07-19T09:09:22Z</time>
      </trkpt>
      <trkpt lat="43.4577750" lon="-5.0395090">
        <ele>15.8</ele>
        <time>2021-07-19T09:09:23Z</time>
      </trkpt>
      <trkpt lat="43.4577980" lon="-5.0396030">
        <ele>15.4</ele>
        <time>2021-07-19T09:09:24Z</time>
      </trkpt>
      <trkpt lat="43.4578230" lon="-5.0396940">
        <ele>15.0</ele>
        <time>2021-07-19T09:09:25Z</time>
      </trkpt>
      <trkpt lat="43.4578490" lon="-5.0397790">
        <ele>14.6</ele>
        <time>2021-07-19T09:09:26Z</time>
      </trkpt>
      <trkpt lat="43.4578770" lon="-5.0398570">
        <ele>14.2</ele>
        <time>2021-07-19T09:09:27Z</time>
      </trkpt>
      <trkpt lat="43.4579040" lon="-5.0399310">
        <ele>13.8</ele>
        <time>2021-07-19T09:09:28Z</time>
      </trkpt>
      <trkpt lat="43.4579580" lon="-5.0400720">
        <ele>13.8</ele>
        <time>2021-07-19T09:09:30Z</time>
      </trkpt>
      <trkpt lat="43.4580580" lon="-5.0403310">
        <ele>13.8</ele>
        <time>2021-07-19T09:09:35Z</time>
      </trkpt>
      <trkpt lat="43.4581440" lon="-5.0405430">
        <ele>13.8</ele>
        <time>2021-07-19T09:09:40Z</time>
      </trkpt>
      <trkpt lat="43.4581630" lon="-5.0406230">
        <ele>13.8</ele>
        <time>2021-07-19T09:09:42Z</time>
      </trkpt>
      <trkpt lat="43.4582330" lon="-5.0408560">
        <ele>13.8</ele>
        <time>2021-07-19T09:09:47Z</time>
      </trkpt>
      <trkpt lat="43.4582700" lon="-5.0409770">
        <ele>13.8</ele>
        <time>2021-07-19T09:09:49Z</time>
      </trkpt>
      <trkpt lat="43.4582960" lon="-5.0411130">
        <ele>13.8</ele>
        <time>2021-07-19T09:09:51Z</time>
      </trkpt>
      <trkpt lat="43.4583120" lon="-5.0412510">
        <ele>13.4</ele>
        <time>2021-07-19T09:09:53Z</time>
      </trkpt>
      <trkpt lat="43.4583170" lon="-5.0413220">
        <ele>13.0</ele>
        <time>2021-07-19T09:09:54Z</time>
      </trkpt>
      <trkpt lat="43.4583250" lon="-5.0413940">
        <ele>12.4</ele>
        <time>2021-07-19T09:09:55Z</time>
      </trkpt>
      <trkpt lat="43.4583370" lon="-5.0414670">
        <ele>12.0</ele>
        <time>2021-07-19T09:09:56Z</time>
      </trkpt>
      <trkpt lat="43.4583470" lon="-5.0415370">
        <ele>11.6</ele>
        <time>2021-07-19T09:09:57Z</time>
      </trkpt>
      <trkpt lat="43.4583550" lon="-5.0416060">
        <ele>11.6</ele>
        <time>2021-07-19T09:09:58Z</time>
      </trkpt>
      <trkpt lat="43.4583610" lon="-5.0416750">
        <ele>11.6</ele>
        <time>2021-07-19T09:09:59Z</time>
      </trkpt>
      <trkpt lat="43.4583900" lon="-5.0418910">
        <ele>11.6</ele>
        <time>2021-07-19T09:10:02Z</time>
      </trkpt>
      <trkpt lat="43.4584100" lon="-5.0420330">
        <ele>11.6</ele>
        <time>2021-07-19T09:10:04Z</time>
      </trkpt>
      <trkpt lat="43.4584410" lon="-5.0423210">
        <ele>11.6</ele>
        <time>2021-07-19T09:10:08Z</time>
      </trkpt>
      <trkpt lat="43.4584440" lon="-5.0425960">
        <ele>11.6</ele>
        <time>2021-07-19T09:10:12Z</time>
      </trkpt>
      <trkpt lat="43.4584320" lon="-5.0426660">
        <ele>11.2</ele>
        <time>2021-07-19T09:10:13Z</time>
      </trkpt>
      <trkpt lat="43.4584210" lon="-5.0427330">
        <ele>10.8</ele>
        <time>2021-07-19T09:10:14Z</time>
      </trkpt>
      <trkpt lat="43.4584070" lon="-5.0427990">
        <ele>10.2</ele>
        <time>2021-07-19T09:10:15Z</time>
      </trkpt>
      <trkpt lat="43.4583950" lon="-5.0428640">
        <ele>9.8</ele>
        <time>2021-07-19T09:10:16Z</time>
      </trkpt>
      <trkpt lat="43.4583790" lon="-5.0429260">
        <ele>9.4</ele>
        <time>2021-07-19T09:10:17Z</time>
      </trkpt>
      <trkpt lat="43.4583060" lon="-5.0431850">
        <ele>9.4</ele>
        <time>2021-07-19T09:10:21Z</time>
      </trkpt>
      <trkpt lat="43.4582900" lon="-5.0432510">
        <ele>9.4</ele>
        <time>2021-07-19T09:10:22Z</time>
      </trkpt>
      <trkpt lat="43.4582590" lon="-5.0433920">
        <ele>9.4</ele>
        <time>2021-07-19T09:10:24Z</time>
      </trkpt>
      <trkpt lat="43.4582220" lon="-5.0435970">
        <ele>9.4</ele>
        <time>2021-07-19T09:10:27Z</time>
      </trkpt>
      <trkpt lat="43.4582070" lon="-5.0436660">
        <ele>9.4</ele>
        <time>2021-07-19T09:10:28Z</time>
      </trkpt>
      <trkpt lat="43.4581970" lon="-5.0440130">
        <ele>9.4</ele>
        <time>2021-07-19T09:10:33Z</time>
      </trkpt>
      <trkpt lat="43.4582070" lon="-5.0442800">
        <ele>8.6</ele>
        <time>2021-07-19T09:10:38Z</time>
      </trkpt>
      <trkpt lat="43.4582110" lon="-5.0443150">
        <ele>8.2</ele>
        <time>2021-07-19T09:10:39Z</time>
      </trkpt>
      <trkpt lat="43.4582150" lon="-5.0443550">
        <ele>7.6</ele>
        <time>2021-07-19T09:10:40Z</time>
      </trkpt>
      <trkpt lat="43.4582260" lon="-5.0443960">
        <ele>7.2</ele>
        <time>2021-07-19T09:10:41Z</time>
      </trkpt>
      <trkpt lat="43.4582630" lon="-5.0444840">
        <ele>7.2</ele>
        <time>2021-07-19T09:10:43Z</time>
      </trkpt>
      <trkpt lat="43.4583090" lon="-5.0445850">
        <ele>7.2</ele>
        <time>2021-07-19T09:10:45Z</time>
      </trkpt>
      <trkpt lat="43.4583350" lon="-5.0446410">
        <ele>7.2</ele>
        <time>2021-07-19T09:10:46Z</time>
      </trkpt>
      <trkpt lat="43.4583630" lon="-5.0446960">
        <ele>7.2</ele>
        <time>2021-07-19T09:10:47Z</time>
      </trkpt>
      <trkpt lat="43.4584210" lon="-5.0448070">
        <ele>7.2</ele>
        <time>2021-07-19T09:10:49Z</time>
      </trkpt>
      <trkpt lat="43.4584850" lon="-5.0449190">
        <ele>7.2</ele>
        <time>2021-07-19T09:10:51Z</time>
      </trkpt>
      <trkpt lat="43.4585880" lon="-5.0450740">
        <ele>7.2</ele>
        <time>2021-07-19T09:10:54Z</time>
      </trkpt>
      <trkpt lat="43.4586900" lon="-5.0452170">
        <ele>7.2</ele>
        <time>2021-07-19T09:10:57Z</time>
      </trkpt>
      <trkpt lat="43.4589800" lon="-5.0455800">
        <ele>7.2</ele>
        <time>2021-07-19T09:11:05Z</time>
      </trkpt>
      <trkpt lat="43.4591890" lon="-5.0458840">
        <ele>7.2</ele>
        <time>2021-07-19T09:11:11Z</time>
      </trkpt>
      <trkpt lat="43.4592540" lon="-5.0459920">
        <ele>7.2</ele>
        <time>2021-07-19T09:11:13Z</time>
      </trkpt>
      <trkpt lat="43.4593660" lon="-5.0462130">
        <ele>7.2</ele>
        <time>2021-07-19T09:11:17Z</time>
      </trkpt>
      <trkpt lat="43.4594550" lon="-5.0464630">
        <ele>7.2</ele>
        <time>2021-07-19T09:11:21Z</time>
      </trkpt>
      <trkpt lat="43.4595370" lon="-5.0469460">
        <ele>7.2</ele>
        <time>2021-07-19T09:11:28Z</time>
      </trkpt>
      <trkpt lat="43.4595590" lon="-5.0476030">
        <ele>7.2</ele>
        <time>2021-07-19T09:11:37Z</time>
      </trkpt>
      <trkpt lat="43.4595480" lon="-5.0482640">
        <ele>7.2</ele>
        <time>2021-07-19T09:11:46Z</time>
      </trkpt>
      <trkpt lat="43.4595640" lon="-5.0489190">
        <ele>7.2</ele>
        <time>2021-07-19T09:11:55Z</time>
      </trkpt>
      <trkpt lat="43.4596480" lon="-5.0493240">
        <ele>7.2</ele>
        <time>2021-07-19T09:12:01Z</time>
      </trkpt>
      <trkpt lat="43.4597730" lon="-5.0498350">
        <ele>7.2</ele>
        <time>2021-07-19T09:12:09Z</time>
      </trkpt>
      <trkpt lat="43.4598220" lon="-5.0500140">
        <ele>7.6</ele>
        <time>2021-07-19T09:12:12Z</time>
      </trkpt>
      <trkpt lat="43.4598390" lon="-5.0500730">
        <ele>8.2</ele>
        <time>2021-07-19T09:12:13Z</time>
      </trkpt>
      <trkpt lat="43.4598560" lon="-5.0501250">
        <ele>8.6</ele>
        <time>2021-07-19T09:12:14Z</time>
      </trkpt>
      <trkpt lat="43.4598720" lon="-5.0501770">
        <ele>9.0</ele>
        <time>2021-07-19T09:12:15Z</time>
      </trkpt>
      <trkpt lat="43.4598900" lon="-5.0502310">
        <ele>9.4</ele>
        <time>2021-07-19T09:12:16Z</time>
      </trkpt>
      <trkpt lat="43.4599060" lon="-5.0502820">
        <ele>9.4</ele>
        <time>2021-07-19T09:12:17Z</time>
      </trkpt>
      <trkpt lat="43.4599700" lon="-5.0505690">
        <ele>9.4</ele>
        <time>2021-07-19T09:12:23Z</time>
      </trkpt>
      <trkpt lat="43.4599760" lon="-5.0506170">
        <ele>9.4</ele>
        <time>2021-07-19T09:12:24Z</time>
      </trkpt>
      <trkpt lat="43.4599950" lon="-5.0508000">
        <ele>9.8</ele>
        <time>2021-07-19T09:12:28Z</time>
      </trkpt>
      <trkpt lat="43.4599980" lon="-5.0508430">
        <ele>10.4</ele>
        <time>2021-07-19T09:12:29Z</time>
      </trkpt>
      <trkpt lat="43.4600020" lon="-5.0508870">
        <ele>10.8</ele>
        <time>2021-07-19T09:12:30Z</time>
      </trkpt>
      <trkpt lat="43.4600050" lon="-5.0509310">
        <ele>11.2</ele>
        <time>2021-07-19T09:12:31Z</time>
      </trkpt>
      <trkpt lat="43.4600020" lon="-5.0509730">
        <ele>11.6</ele>
        <time>2021-07-19T09:12:32Z</time>
      </trkpt>
      <trkpt lat="43.4599970" lon="-5.0512280">
        <ele>11.6</ele>
        <time>2021-07-19T09:12:38Z</time>
      </trkpt>
      <trkpt lat="43.4599920" lon="-5.0512720">
        <ele>12.0</ele>
        <time>2021-07-19T09:12:39Z</time>
      </trkpt>
      <trkpt lat="43.4599870" lon="-5.0513140">
        <ele>12.6</ele>
        <time>2021-07-19T09:12:40Z</time>
      </trkpt>
      <trkpt lat="43.4599800" lon="-5.0513590">
        <ele>13.4</ele>
        <time>2021-07-19T09:12:41Z</time>
      </trkpt>
      <trkpt lat="43.4599750" lon="-5.0514050">
        <ele>14.0</ele>
        <time>2021-07-19T09:12:42Z</time>
      </trkpt>
      <trkpt lat="43.4599560" lon="-5.0515380">
        <ele>14.0</ele>
        <time>2021-07-19T09:12:45Z</time>
      </trkpt>
      <trkpt lat="43.4599370" lon="-5.0517200">
        <ele>14.4</ele>
        <time>2021-07-19T09:12:49Z</time>
      </trkpt>
      <trkpt lat="43.4599320" lon="-5.0517650">
        <ele>14.8</ele>
        <time>2021-07-19T09:12:50Z</time>
      </trkpt>
      <trkpt lat="43.4599280" lon="-5.0518120">
        <ele>15.2</ele>
        <time>2021-07-19T09:12:51Z</time>
      </trkpt>
      <trkpt lat="43.4599210" lon="-5.0518610">
        <ele>15.6</ele>
        <time>2021-07-19T09:12:52Z</time>
      </trkpt>
      <trkpt lat="43.4599150" lon="-5.0519100">
        <ele>16.0</ele>
        <time>2021-07-19T09:12:53Z</time>
      </trkpt>
      <trkpt lat="43.4598820" lon="-5.0522510">
        <ele>16.0</ele>
        <time>2021-07-19T09:13:00Z</time>
      </trkpt>
      <trkpt lat="43.4598780" lon="-5.0526390">
        <ele>16.0</ele>
        <time>2021-07-19T09:13:07Z</time>
      </trkpt>
      <trkpt lat="43.4598780" lon="-5.0528110">
        <ele>16.4</ele>
        <time>2021-07-19T09:13:10Z</time>
      </trkpt>
      <trkpt lat="43.4598780" lon="-5.0528670">
        <ele>16.8</ele>
        <time>2021-07-19T09:13:11Z</time>
      </trkpt>
      <trkpt lat="43.4598780" lon="-5.0529280">
        <ele>17.2</ele>
        <time>2021-07-19T09:13:12Z</time>
      </trkpt>
      <trkpt lat="43.4598830" lon="-5.0529870">
        <ele>17.6</ele>
        <time>2021-07-19T09:13:13Z</time>
      </trkpt>
      <trkpt lat="43.4598930" lon="-5.0530460">
        <ele>18.2</ele>
        <time>2021-07-19T09:13:14Z</time>
      </trkpt>
      <trkpt lat="43.4599010" lon="-5.0531050">
        <ele>18.2</ele>
        <time>2021-07-19T09:13:15Z</time>
      </trkpt>
      <trkpt lat="43.4599340" lon="-5.0532950">
        <ele>18.2</ele>
        <time>2021-07-19T09:13:18Z</time>
      </trkpt>
      <trkpt lat="43.4599850" lon="-5.0535070">
        <ele>18.2</ele>
        <time>2021-07-19T09:13:21Z</time>
      </trkpt>
      <trkpt lat="43.4600050" lon="-5.0535850">
        <ele>17.6</ele>
        <time>2021-07-19T09:13:22Z</time>
      </trkpt>
      <trkpt lat="43.4600230" lon="-5.0536670">
        <ele>17.2</ele>
        <time>2021-07-19T09:13:23Z</time>
      </trkpt>
      <trkpt lat="43.4600440" lon="-5.0537510">
        <ele>16.8</ele>
        <time>2021-07-19T09:13:24Z</time>
      </trkpt>
      <trkpt lat="43.4600670" lon="-5.0538380">
        <ele>16.4</ele>
        <time>2021-07-19T09:13:25Z</time>
      </trkpt>
      <trkpt lat="43.4600890" lon="-5.0539260">
        <ele>15.8</ele>
        <time>2021-07-19T09:13:26Z</time>
      </trkpt>
      <trkpt lat="43.4601350" lon="-5.0541070">
        <ele>15.8</ele>
        <time>2021-07-19T09:13:28Z</time>
      </trkpt>
      <trkpt lat="43.4601580" lon="-5.0541960">
        <ele>15.8</ele>
        <time>2021-07-19T09:13:29Z</time>
      </trkpt>
      <trkpt lat="43.4601980" lon="-5.0543700">
        <ele>15.8</ele>
        <time>2021-07-19T09:13:31Z</time>
      </trkpt>
      <trkpt lat="43.4602150" lon="-5.0544580">
        <ele>15.4</ele>
        <time>2021-07-19T09:13:32Z</time>
      </trkpt>
      <trkpt lat="43.4602230" lon="-5.0545520">
        <ele>14.8</ele>
        <time>2021-07-19T09:13:33Z</time>
      </trkpt>
      <trkpt lat="43.4602250" lon="-5.0546510">
        <ele>14.4</ele>
        <time>2021-07-19T09:13:34Z</time>
      </trkpt>
      <trkpt lat="43.4602190" lon="-5.0547540">
        <ele>13.8</ele>
        <time>2021-07-19T09:13:35Z</time>
      </trkpt>
      <trkpt lat="43.4602030" lon="-5.0548620">
        <ele>13.2</ele>
        <time>2021-07-19T09:13:36Z</time>
      </trkpt>
      <trkpt lat="43.4601770" lon="-5.0549670">
        <ele>12.8</ele>
        <time>2021-07-19T09:13:37Z</time>
      </trkpt>
      <trkpt lat="43.4601490" lon="-5.0550660">
        <ele>12.2</ele>
        <time>2021-07-19T09:13:38Z</time>
      </trkpt>
      <trkpt lat="43.4601190" lon="-5.0551590">
        <ele>11.6</ele>
        <time>2021-07-19T09:13:39Z</time>
      </trkpt>
      <trkpt lat="43.4600850" lon="-5.0552410">
        <ele>11.0</ele>
        <time>2021-07-19T09:13:40Z</time>
      </trkpt>
      <trkpt lat="43.4600510" lon="-5.0553120">
        <ele>10.6</ele>
        <time>2021-07-19T09:13:41Z</time>
      </trkpt>
      <trkpt lat="43.4600170" lon="-5.0553780">
        <ele>10.2</ele>
        <time>2021-07-19T09:13:42Z</time>
      </trkpt>
      <trkpt lat="43.4599830" lon="-5.0554380">
        <ele>9.8</ele>
        <time>2021-07-19T09:13:43Z</time>
      </trkpt>
      <trkpt lat="43.4599530" lon="-5.0554990">
        <ele>9.2</ele>
        <time>2021-07-19T09:13:44Z</time>
      </trkpt>
      <trkpt lat="43.4599250" lon="-5.0555570">
        <ele>8.8</ele>
        <time>2021-07-19T09:13:45Z</time>
      </trkpt>
      <trkpt lat="43.4599000" lon="-5.0556210">
        <ele>8.4</ele>
        <time>2021-07-19T09:13:46Z</time>
      </trkpt>
      <trkpt lat="43.4598740" lon="-5.0556880">
        <ele>7.8</ele>
        <time>2021-07-19T09:13:47Z</time>
      </trkpt>
      <trkpt lat="43.4598500" lon="-5.0557610">
        <ele>7.4</ele>
        <time>2021-07-19T09:13:48Z</time>
      </trkpt>
      <trkpt lat="43.4598240" lon="-5.0558380">
        <ele>6.8</ele>
        <time>2021-07-19T09:13:49Z</time>
      </trkpt>
      <trkpt lat="43.4598030" lon="-5.0559230">
        <ele>6.4</ele>
        <time>2021-07-19T09:13:50Z</time>
      </trkpt>
      <trkpt lat="43.4597690" lon="-5.0561100">
        <ele>6.4</ele>
        <time>2021-07-19T09:13:52Z</time>
      </trkpt>
      <trkpt lat="43.4597570" lon="-5.0562020">
        <ele>6.4</ele>
        <time>2021-07-19T09:13:53Z</time>
      </trkpt>
      <trkpt lat="43.4597460" lon="-5.0562970">
        <ele>6.4</ele>
        <time>2021-07-19T09:13:54Z</time>
      </trkpt>
      <trkpt lat="43.4597360" lon="-5.0563920">
        <ele>6.4</ele>
        <time>2021-07-19T09:13:55Z</time>
      </trkpt>
      <trkpt lat="43.4597180" lon="-5.0565790">
        <ele>6.4</ele>
        <time>2021-07-19T09:13:57Z</time>
      </trkpt>
      <trkpt lat="43.4597060" lon="-5.0567640">
        <ele>6.0</ele>
        <time>2021-07-19T09:13:59Z</time>
      </trkpt>
      <trkpt lat="43.4597030" lon="-5.0568530">
        <ele>5.6</ele>
        <time>2021-07-19T09:14:00Z</time>
      </trkpt>
      <trkpt lat="43.4596990" lon="-5.0569380">
        <ele>5.0</ele>
        <time>2021-07-19T09:14:01Z</time>
      </trkpt>
      <trkpt lat="43.4596940" lon="-5.0570190">
        <ele>4.6</ele>
        <time>2021-07-19T09:14:02Z</time>
      </trkpt>
      <trkpt lat="43.4596910" lon="-5.0570960">
        <ele>4.2</ele>
        <time>2021-07-19T09:14:03Z</time>
      </trkpt>
      <trkpt lat="43.4596890" lon="-5.0572390">
        <ele>4.2</ele>
        <time>2021-07-19T09:14:05Z</time>
      </trkpt>
      <trkpt lat="43.4596950" lon="-5.0574580">
        <ele>4.2</ele>
        <time>2021-07-19T09:14:08Z</time>
      </trkpt>
      <trkpt lat="43.4596920" lon="-5.0576060">
        <ele>3.8</ele>
        <time>2021-07-19T09:14:10Z</time>
      </trkpt>
      <trkpt lat="43.4596870" lon="-5.0576830">
        <ele>3.4</ele>
        <time>2021-07-19T09:14:11Z</time>
      </trkpt>
      <trkpt lat="43.4596830" lon="-5.0577600">
        <ele>2.8</ele>
        <time>2021-07-19T09:14:12Z</time>
      </trkpt>
      <trkpt lat="43.4596830" lon="-5.0578370">
        <ele>2.4</ele>
        <time>2021-07-19T09:14:13Z</time>
      </trkpt>
      <trkpt lat="43.4596820" lon="-5.0579130">
        <ele>2.0</ele>
        <time>2021-07-19T09:14:14Z</time>
      </trkpt>
      <trkpt lat="43.4596810" lon="-5.0579870">
        <ele>2.0</ele>
        <time>2021-07-19T09:14:15Z</time>
      </trkpt>
      <trkpt lat="43.4597040" lon="-5.0584520">
        <ele>1.0</ele>
        <time>2021-07-19T09:14:21Z</time>
      </trkpt>
      <trkpt lat="43.4597130" lon="-5.0585240">
        <ele>0.6</ele>
        <time>2021-07-19T09:14:22Z</time>
      </trkpt>
      <trkpt lat="43.4597240" lon="-5.0585950">
        <ele>0.2</ele>
        <time>2021-07-19T09:14:23Z</time>
      </trkpt>
      <trkpt lat="43.4597320" lon="-5.0586620">
        <ele>-0.4</ele>
        <time>2021-07-19T09:14:24Z</time>
      </trkpt>
      <trkpt lat="43.4597510" lon="-5.0587840">
        <ele>-0.8</ele>
        <time>2021-07-19T09:14:26Z</time>
      </trkpt>
      <trkpt lat="43.4597610" lon="-5.0588260">
        <ele>-1.2</ele>
        <time>2021-07-19T09:14:27Z</time>
      </trkpt>
      <trkpt lat="43.4597710" lon="-5.0588550">
        <ele>-1.6</ele>
        <time>2021-07-19T09:14:28Z</time>
      </trkpt>
      <trkpt lat="43.4597750" lon="-5.0588800">
        <ele>-2.0</ele>
        <time>2021-07-19T09:14:29Z</time>
      </trkpt>
      <trkpt lat="43.4597830" lon="-5.0588990">
        <ele>-2.4</ele>
        <time>2021-07-19T09:14:30Z</time>
      </trkpt>
      <trkpt lat="43.4597870" lon="-5.0589180">
        <ele>-2.4</ele>
        <time>2021-07-19T09:14:32Z</time>
      </trkpt>
      <trkpt lat="43.4597970" lon="-5.0589490">
        <ele>-4.6</ele>
        <time>2021-07-19T09:14:39Z</time>
      </trkpt>
      <trkpt lat="43.4598550" lon="-5.0591060">
        <ele>-4.6</ele>
        <time>2021-07-19T09:14:45Z</time>
      </trkpt>
      <trkpt lat="43.4598740" lon="-5.0591440">
        <ele>-4.6</ele>
        <time>2021-07-19T09:14:47Z</time>
      </trkpt>
      <trkpt lat="43.4599220" lon="-5.0592340">
        <ele>-4.6</ele>
        <time>2021-07-19T09:14:50Z</time>
      </trkpt>
      <trkpt lat="43.4600540" lon="-5.0593770">
        <ele>-5.0</ele>
        <time>2021-07-19T09:14:54Z</time>
      </trkpt>
      <trkpt lat="43.4600760" lon="-5.0594160">
        <ele>-5.4</ele>
        <time>2021-07-19T09:14:55Z</time>
      </trkpt>
      <trkpt lat="43.4601000" lon="-5.0594550">
        <ele>-5.8</ele>
        <time>2021-07-19T09:14:56Z</time>
      </trkpt>
      <trkpt lat="43.4601180" lon="-5.0594980">
        <ele>-6.4</ele>
        <time>2021-07-19T09:14:57Z</time>
      </trkpt>
      <trkpt lat="43.4601340" lon="-5.0595410">
        <ele>-7.0</ele>
        <time>2021-07-19T09:14:58Z</time>
      </trkpt>
      <trkpt lat="43.4601500" lon="-5.0595790">
        <ele>-7.4</ele>
        <time>2021-07-19T09:14:59Z</time>
      </trkpt>
      <trkpt lat="43.4601620" lon="-5.0596060">
        <ele>-8.0</ele>
        <time>2021-07-19T09:15:00Z</time>
      </trkpt>
      <trkpt lat="43.4601760" lon="-5.0596260">
        <ele>-8.6</ele>
        <time>2021-07-19T09:15:01Z</time>
      </trkpt>
      <trkpt lat="43.4601890" lon="-5.0596530">
        <ele>-9.2</ele>
        <time>2021-07-19T09:15:02Z</time>
      </trkpt>
      <trkpt lat="43.4602010" lon="-5.0596790">
        <ele>-9.6</ele>
        <time>2021-07-19T09:15:03Z</time>
      </trkpt>
      <trkpt lat="43.4602120" lon="-5.0597010">
        <ele>-10.0</ele>
        <time>2021-07-19T09:15:04Z</time>
      </trkpt>
      <trkpt lat="43.4602280" lon="-5.0597200">
        <ele>-10.4</ele>
        <time>2021-07-19T09:15:05Z</time>
      </trkpt>
      <trkpt lat="43.4602440" lon="-5.0597310">
        <ele>-10.8</ele>
        <time>2021-07-19T09:15:06Z</time>
      </trkpt>
      <trkpt lat="43.4602650" lon="-5.0597380">
        <ele>-11.4</ele>
        <time>2021-07-19T09:15:07Z</time>
      </trkpt>
      <trkpt lat="43.4602810" lon="-5.0597460">
        <ele>-11.8</ele>
        <time>2021-07-19T09:15:08Z</time>
      </trkpt>
      <trkpt lat="43.4603000" lon="-5.0597630">
        <ele>-12.4</ele>
        <time>2021-07-19T09:15:09Z</time>
      </trkpt>
      <trkpt lat="43.4603230" lon="-5.0597850">
        <ele>-13.4</ele>
        <time>2021-07-19T09:15:10Z</time>
      </trkpt>
      <trkpt lat="43.4603730" lon="-5.0598180">
        <ele>-13.4</ele>
        <time>2021-07-19T09:15:12Z</time>
      </trkpt>
      <trkpt lat="43.4603930" lon="-5.0598330">
        <ele>-13.4</ele>
        <time>2021-07-19T09:15:13Z</time>
      </trkpt>
      <trkpt lat="43.4604340" lon="-5.0598670">
        <ele>-13.4</ele>
        <time>2021-07-19T09:15:15Z</time>
      </trkpt>
      <trkpt lat="43.4604960" lon="-5.0599150">
        <ele>-13.4</ele>
        <time>2021-07-19T09:15:18Z</time>
      </trkpt>
      <trkpt lat="43.4605600" lon="-5.0599520">
        <ele>-13.4</ele>
        <time>2021-07-19T09:15:21Z</time>
      </trkpt>
      <trkpt lat="43.4606200" lon="-5.0599680">
        <ele>-13.4</ele>
        <time>2021-07-19T09:15:25Z</time>
      </trkpt>
      <trkpt lat="43.4606640" lon="-5.0599640">
        <ele>-13.4</ele>
        <time>2021-07-19T09:15:28Z</time>
      </trkpt>
      <trkpt lat="43.4607950" lon="-5.0599860">
        <ele>-13.8</ele>
        <time>2021-07-19T09:15:37Z</time>
      </trkpt>
      <trkpt lat="43.4608160" lon="-5.0599740">
        <ele>-14.4</ele>
        <time>2021-07-19T09:15:38Z</time>
      </trkpt>
      <trkpt lat="43.4608390" lon="-5.0599560">
        <ele>-14.8</ele>
        <time>2021-07-19T09:15:39Z</time>
      </trkpt>
      <trkpt lat="43.4608580" lon="-5.0599450">
        <ele>-15.2</ele>
        <time>2021-07-19T09:15:40Z</time>
      </trkpt>
      <trkpt lat="43.4608740" lon="-5.0599330">
        <ele>-15.6</ele>
        <time>2021-07-19T09:15:41Z</time>
      </trkpt>
      <trkpt lat="43.4608980" lon="-5.0599100">
        <ele>-15.6</ele>
        <time>2021-07-19T09:15:43Z</time>
      </trkpt>
      <trkpt lat="43.4608920" lon="-5.0599090">
        <ele>-15.6</ele>
        <time>2021-07-19T09:15:50Z</time>
      </trkpt>
      <trkpt lat="43.4608870" lon="-5.0599070">
        <ele>-15.6</ele>
        <time>2021-07-19T09:15:52Z</time>
      </trkpt>
      <trkpt lat="43.4608810" lon="-5.0599050">
        <ele>-15.6</ele>
        <time>2021-07-19T09:15:54Z</time>
      </trkpt>
      <trkpt lat="43.4608750" lon="-5.0599040">
        <ele>-15.6</ele>
        <time>2021-07-19T09:15:56Z</time>
      </trkpt>
      <trkpt lat="43.4608690" lon="-5.0599020">
        <ele>-15.6</ele>
        <time>2021-07-19T09:15:57Z</time>
      </trkpt>
      <trkpt lat="43.4608140" lon="-5.0599520">
        <ele>-15.6</ele>
        <time>2021-07-19T09:16:00Z</time>
      </trkpt>
      <trkpt lat="43.4607950" lon="-5.0599710">
        <ele>-15.6</ele>
        <time>2021-07-19T09:16:01Z</time>
      </trkpt>
      <trkpt lat="43.4607570" lon="-5.0599990">
        <ele>-15.6</ele>
        <time>2021-07-19T09:16:03Z</time>
      </trkpt>
      <trkpt lat="43.4607480" lon="-5.0600100">
        <ele>-15.6</ele>
        <time>2021-07-19T09:16:09Z</time>
      </trkpt>
      <trkpt lat="43.4607880" lon="-5.0599810">
        <ele>-15.6</ele>
        <time>2021-07-19T09:16:12Z</time>
      </trkpt>
      <trkpt lat="43.4608290" lon="-5.0599510">
        <ele>-13.4</ele>
        <time>2021-07-19T09:16:23Z</time>
      </trkpt>
      <trkpt lat="43.4608690" lon="-5.0599210">
        <ele>-13.4</ele>
        <time>2021-07-19T09:16:24Z</time>
      </trkpt>
      <trkpt lat="43.4609020" lon="-5.0598950">
        <ele>-13.4</ele>
        <time>2021-07-19T09:16:26Z</time>
      </trkpt>
      <trkpt lat="43.4609700" lon="-5.0598250">
        <ele>-13.4</ele>
        <time>2021-07-19T09:17:13Z</time>
      </trkpt>
      <trkpt lat="43.4609890" lon="-5.0598020">
        <ele>-13.4</ele>
        <time>2021-07-19T09:17:14Z</time>
      </trkpt>
      <trkpt lat="43.4610800" lon="-5.0597280">
        <ele>-13.4</ele>
        <time>2021-07-19T09:17:20Z</time>
      </trkpt>
      <trkpt lat="43.4610930" lon="-5.0597220">
        <ele>-13.4</ele>
        <time>2021-07-19T09:17:21Z</time>
      </trkpt>
      <trkpt lat="43.4611100" lon="-5.0597140">
        <ele>-13.8</ele>
        <time>2021-07-19T09:17:23Z</time>
      </trkpt>
      <trkpt lat="43.4611190" lon="-5.0597100">
        <ele>-14.2</ele>
        <time>2021-07-19T09:17:24Z</time>
      </trkpt>
      <trkpt lat="43.4611240" lon="-5.0597080">
        <ele>-14.8</ele>
        <time>2021-07-19T09:17:25Z</time>
      </trkpt>
      <trkpt lat="43.4611260" lon="-5.0597030">
        <ele>-15.2</ele>
        <time>2021-07-19T09:17:26Z</time>
      </trkpt>
      <trkpt lat="43.4611280" lon="-5.0597020">
        <ele>-15.6</ele>
        <time>2021-07-19T09:17:27Z</time>
      </trkpt>
      <trkpt lat="43.4611340" lon="-5.0597050">
        <ele>-15.6</ele>
        <time>2021-07-19T09:17:28Z</time>
      </trkpt>
      <trkpt lat="43.4611490" lon="-5.0597220">
        <ele>-15.6</ele>
        <time>2021-07-19T09:17:31Z</time>
      </trkpt>
      <trkpt lat="43.4613310" lon="-5.0596770">
        <ele>-19.8</ele>
        <time>2021-07-19T09:18:16Z</time>
      </trkpt>
      <trkpt lat="43.4613570" lon="-5.0596640">
        <ele>-19.8</ele>
        <time>2021-07-19T09:18:17Z</time>
      </trkpt>
      <trkpt lat="43.4614050" lon="-5.0596200">
        <ele>-19.8</ele>
        <time>2021-07-19T09:18:19Z</time>
      </trkpt>
      <trkpt lat="43.4614050" lon="-5.0596200">
        <ele>-19.8</ele>
        <time>2021-07-19T09:18:20Z</time>
      </trkpt>
      <trkpt lat="43.4614180" lon="-5.0596420">
        <ele>-19.8</ele>
        <time>2021-07-19T09:18:26Z</time>
      </trkpt>
      <trkpt lat="43.4614270" lon="-5.0596620">
        <ele>-19.8</ele>
        <time>2021-07-19T09:18:27Z</time>
      </trkpt>
      <trkpt lat="43.4614510" lon="-5.0596950">
        <ele>-19.8</ele>
        <time>2021-07-19T09:18:29Z</time>
      </trkpt>
      <trkpt lat="43.4614880" lon="-5.0597400">
        <ele>-19.8</ele>
        <time>2021-07-19T09:18:33Z</time>
      </trkpt>
      <trkpt lat="43.4615290" lon="-5.0597140">
        <ele>-19.8</ele>
        <time>2021-07-19T09:18:34Z</time>
      </trkpt>
      <trkpt lat="43.4616550" lon="-5.0597340">
        <ele>-19.8</ele>
        <time>2021-07-19T09:19:06Z</time>
      </trkpt>
      <trkpt lat="43.4616600" lon="-5.0597510">
        <ele>-19.8</ele>
        <time>2021-07-19T09:19:08Z</time>
      </trkpt>
      <trkpt lat="43.4616990" lon="-5.0597770">
        <ele>-19.8</ele>
        <time>2021-07-19T09:19:10Z</time>
      </trkpt>
      <trkpt lat="43.4617370" lon="-5.0598040">
        <ele>-19.8</ele>
        <time>2021-07-19T09:19:13Z</time>
      </trkpt>
      <trkpt lat="43.4617710" lon="-5.0598340">
        <ele>-19.8</ele>
        <time>2021-07-19T09:19:15Z</time>
      </trkpt>
      <trkpt lat="43.4618150" lon="-5.0598330">
        <ele>-19.8</ele>
        <time>2021-07-19T09:19:18Z</time>
      </trkpt>
      <trkpt lat="43.4618810" lon="-5.0597960">
        <ele>-19.8</ele>
        <time>2021-07-19T09:19:20Z</time>
      </trkpt>
      <trkpt lat="43.4619100" lon="-5.0597970">
        <ele>-19.8</ele>
        <time>2021-07-19T09:19:38Z</time>
      </trkpt>
      <trkpt lat="43.4619290" lon="-5.0598050">
        <ele>-19.8</ele>
        <time>2021-07-19T09:19:39Z</time>
      </trkpt>
      <trkpt lat="43.4619530" lon="-5.0598170">
        <ele>-19.8</ele>
        <time>2021-07-19T09:19:40Z</time>
      </trkpt>
      <trkpt lat="43.4619730" lon="-5.0598300">
        <ele>-19.8</ele>
        <time>2021-07-19T09:19:41Z</time>
      </trkpt>
      <trkpt lat="43.4620110" lon="-5.0598740">
        <ele>-19.8</ele>
        <time>2021-07-19T09:19:43Z</time>
      </trkpt>
      <trkpt lat="43.4620460" lon="-5.0599140">
        <ele>-19.8</ele>
        <time>2021-07-19T09:19:45Z</time>
      </trkpt>
      <trkpt lat="43.4621170" lon="-5.0599820">
        <ele>-19.8</ele>
        <time>2021-07-19T09:19:50Z</time>
      </trkpt>
      <trkpt lat="43.4621210" lon="-5.0599870">
        <ele>-19.8</ele>
        <time>2021-07-19T09:19:51Z</time>
      </trkpt>
      <trkpt lat="43.4620650" lon="-5.0600140">
        <ele>-19.8</ele>
        <time>2021-07-19T09:20:17Z</time>
      </trkpt>
      <trkpt lat="43.4620510" lon="-5.0600170">
        <ele>-19.8</ele>
        <time>2021-07-19T09:20:18Z</time>
      </trkpt>
      <trkpt lat="43.4620460" lon="-5.0600310">
        <ele>-19.8</ele>
        <time>2021-07-19T09:20:19Z</time>
      </trkpt>
      <trkpt lat="43.4620400" lon="-5.0600410">
        <ele>-19.8</ele>
        <time>2021-07-19T09:20:20Z</time>
      </trkpt>
      <trkpt lat="43.4620380" lon="-5.0600480">
        <ele>-19.8</ele>
        <time>2021-07-19T09:20:22Z</time>
      </trkpt>
      <trkpt lat="43.4620470" lon="-5.0601070">
        <ele>-19.8</ele>
        <time>2021-07-19T09:22:02Z</time>
      </trkpt>
      <trkpt lat="43.4620520" lon="-5.0601400">
        <ele>-19.8</ele>
        <time>2021-07-19T09:22:03Z</time>
      </trkpt>
      <trkpt lat="43.4620580" lon="-5.0602690">
        <ele>-19.8</ele>
        <time>2021-07-19T09:22:08Z</time>
      </trkpt>
      <trkpt lat="43.4620390" lon="-5.0602690">
        <ele>-19.8</ele>
        <time>2021-07-19T09:22:09Z</time>
      </trkpt>
      <trkpt lat="43.4619580" lon="-5.0602800">
        <ele>-19.8</ele>
        <time>2021-07-19T09:22:13Z</time>
      </trkpt>
      <trkpt lat="43.4618860" lon="-5.0603690">
        <ele>-19.8</ele>
        <time>2021-07-19T09:22:16Z</time>
      </trkpt>
      <trkpt lat="43.4618570" lon="-5.0604260">
        <ele>-19.8</ele>
        <time>2021-07-19T09:22:18Z</time>
      </trkpt>
      <trkpt lat="43.4617970" lon="-5.0606410">
        <ele>-19.8</ele>
        <time>2021-07-19T09:22:25Z</time>
      </trkpt>
      <trkpt lat="43.4617760" lon="-5.0606640">
        <ele>-19.8</ele>
        <time>2021-07-19T09:22:26Z</time>
      </trkpt>
      <trkpt lat="43.4616970" lon="-5.0607360">
        <ele>-19.8</ele>
        <time>2021-07-19T09:22:30Z</time>
      </trkpt>
      <trkpt lat="43.4616850" lon="-5.0607550">
        <ele>-19.8</ele>
        <time>2021-07-19T09:22:33Z</time>
      </trkpt>
      <trkpt lat="43.4616690" lon="-5.0607710">
        <ele>-19.8</ele>
        <time>2021-07-19T09:22:37Z</time>
      </trkpt>
      <trkpt lat="43.4616200" lon="-5.0608960">
        <ele>-19.8</ele>
        <time>2021-07-19T09:22:44Z</time>
      </trkpt>
      <trkpt lat="43.4616240" lon="-5.0609220">
        <ele>-19.8</ele>
        <time>2021-07-19T09:22:47Z</time>
      </trkpt>
      <trkpt lat="43.4616430" lon="-5.0608960">
        <ele>-19.8</ele>
        <time>2021-07-19T09:22:55Z</time>
      </trkpt>
      <trkpt lat="43.4616410" lon="-5.0608860">
        <ele>-19.8</ele>
        <time>2021-07-19T09:22:56Z</time>
      </trkpt>
      <trkpt lat="43.4616490" lon="-5.0608530">
        <ele>-19.8</ele>
        <time>2021-07-19T09:22:59Z</time>
      </trkpt>
      <trkpt lat="43.4616680" lon="-5.0608180">
        <ele>-19.8</ele>
        <time>2021-07-19T09:23:03Z</time>
      </trkpt>
      <trkpt lat="43.4616910" lon="-5.0607990">
        <ele>-19.8</ele>
        <time>2021-07-19T09:23:08Z</time>
      </trkpt>
      <trkpt lat="43.4616870" lon="-5.0608360">
        <ele>-19.8</ele>
        <time>2021-07-19T09:23:12Z</time>
      </trkpt>
      <trkpt lat="43.4616960" lon="-5.0609190">
        <ele>-19.8</ele>
        <time>2021-07-19T09:23:16Z</time>
      </trkpt>
      <trkpt lat="43.4617010" lon="-5.0609350">
        <ele>-19.8</ele>
        <time>2021-07-19T09:23:17Z</time>
      </trkpt>
      <trkpt lat="43.4617370" lon="-5.0609700">
        <ele>-19.8</ele>
        <time>2021-07-19T09:23:21Z</time>
      </trkpt>
      <trkpt lat="43.4617490" lon="-5.0609630">
        <ele>-19.8</ele>
        <time>2021-07-19T09:23:22Z</time>
      </trkpt>
      <trkpt lat="43.4617580" lon="-5.0609590">
        <ele>-19.8</ele>
        <time>2021-07-19T09:23:24Z</time>
      </trkpt>
      <trkpt lat="43.4618170" lon="-5.0609330">
        <ele>-19.8</ele>
        <time>2021-07-19T09:23:30Z</time>
      </trkpt>
      <trkpt lat="43.4618460" lon="-5.0609140">
        <ele>-19.8</ele>
        <time>2021-07-19T09:23:32Z</time>
      </trkpt>
      <trkpt lat="43.4618930" lon="-5.0608840">
        <ele>-19.8</ele>
        <time>2021-07-19T09:23:36Z</time>
      </trkpt>
      <trkpt lat="43.4619140" lon="-5.0608750">
        <ele>-19.8</ele>
        <time>2021-07-19T09:23:38Z</time>
      </trkpt>
      <trkpt lat="43.4619400" lon="-5.0608610">
        <ele>-19.8</ele>
        <time>2021-07-19T09:23:40Z</time>
      </trkpt>
      <trkpt lat="43.4620050" lon="-5.0608080">
        <ele>-19.8</ele>
        <time>2021-07-19T09:23:46Z</time>
      </trkpt>
      <trkpt lat="43.4619940" lon="-5.0608350">
        <ele>-19.8</ele>
        <time>2021-07-19T09:23:50Z</time>
      </trkpt>
      <trkpt lat="43.4619910" lon="-5.0608320">
        <ele>-19.8</ele>
        <time>2021-07-19T09:23:51Z</time>
      </trkpt>
      <trkpt lat="43.4619640" lon="-5.0608360">
        <ele>-19.8</ele>
        <time>2021-07-19T09:24:51Z</time>
      </trkpt>
      <trkpt lat="43.4619260" lon="-5.0608590">
        <ele>-19.8</ele>
        <time>2021-07-19T09:24:53Z</time>
      </trkpt>
      <trkpt lat="43.4618880" lon="-5.0608820">
        <ele>-19.8</ele>
        <time>2021-07-19T09:24:55Z</time>
      </trkpt>
      <trkpt lat="43.4617790" lon="-5.0609540">
        <ele>-19.8</ele>
        <time>2021-07-19T09:25:00Z</time>
      </trkpt>
      <trkpt lat="43.4617310" lon="-5.0609500">
        <ele>-19.8</ele>
        <time>2021-07-19T09:25:03Z</time>
      </trkpt>
      <trkpt lat="43.4617140" lon="-5.0609190">
        <ele>-19.8</ele>
        <time>2021-07-19T09:25:05Z</time>
      </trkpt>
      <trkpt lat="43.4616950" lon="-5.0608640">
        <ele>-19.8</ele>
        <time>2021-07-19T09:25:08Z</time>
      </trkpt>
      <trkpt lat="43.4617100" lon="-5.0608320">
        <ele>-19.8</ele>
        <time>2021-07-19T09:25:10Z</time>
      </trkpt>
      <trkpt lat="43.4617170" lon="-5.0608210">
        <ele>-19.8</ele>
        <time>2021-07-19T09:25:11Z</time>
      </trkpt>
      <trkpt lat="43.4617200" lon="-5.0608060">
        <ele>-19.8</ele>
        <time>2021-07-19T09:25:12Z</time>
      </trkpt>
      <trkpt lat="43.4616820" lon="-5.0608110">
        <ele>-19.8</ele>
        <time>2021-07-19T09:25:15Z</time>
      </trkpt>
      <trkpt lat="43.4616570" lon="-5.0608480">
        <ele>-19.8</ele>
        <time>2021-07-19T09:25:18Z</time>
      </trkpt>
      <trkpt lat="43.4616450" lon="-5.0608850">
        <ele>-19.8</ele>
        <time>2021-07-19T09:25:20Z</time>
      </trkpt>
      <trkpt lat="43.4616420" lon="-5.0609030">
        <ele>-19.8</ele>
        <time>2021-07-19T09:25:21Z</time>
      </trkpt>
      <trkpt lat="43.4616420" lon="-5.0609370">
        <ele>-19.8</ele>
        <time>2021-07-19T09:25:23Z</time>
      </trkpt>
      <trkpt lat="43.4616330" lon="-5.0609510">
        <ele>-19.8</ele>
        <time>2021-07-19T09:25:25Z</time>
      </trkpt>
      <trkpt lat="43.4616410" lon="-5.0609890">
        <ele>-19.8</ele>
        <time>2021-07-19T09:25:27Z</time>
      </trkpt>
      <trkpt lat="43.4616560" lon="-5.0610250">
        <ele>-19.8</ele>
        <time>2021-07-19T09:25:29Z</time>
      </trkpt>
      <trkpt lat="43.4616610" lon="-5.0610610">
        <ele>-19.8</ele>
        <time>2021-07-19T09:25:32Z</time>
      </trkpt>
      <trkpt lat="43.4616690" lon="-5.0610770">
        <ele>-19.8</ele>
        <time>2021-07-19T09:25:54Z</time>
      </trkpt>
      <trkpt lat="43.4617340" lon="-5.0612550">
        <ele>-19.4</ele>
        <time>2021-07-19T09:26:00Z</time>
      </trkpt>
      <trkpt lat="43.4617500" lon="-5.0612980">
        <ele>-19.0</ele>
        <time>2021-07-19T09:26:01Z</time>
      </trkpt>
      <trkpt lat="43.4617680" lon="-5.0613470">
        <ele>-18.6</ele>
        <time>2021-07-19T09:26:02Z</time>
      </trkpt>
      <trkpt lat="43.4617870" lon="-5.0614010">
        <ele>-18.2</ele>
        <time>2021-07-19T09:26:03Z</time>
      </trkpt>
      <trkpt lat="43.4618020" lon="-5.0614630">
        <ele>-17.6</ele>
        <time>2021-07-19T09:26:04Z</time>
      </trkpt>
      <trkpt lat="43.4618440" lon="-5.0616000">
        <ele>-17.6</ele>
        <time>2021-07-19T09:26:06Z</time>
      </trkpt>
      <trkpt lat="43.4618860" lon="-5.0617500">
        <ele>-17.6</ele>
        <time>2021-07-19T09:26:08Z</time>
      </trkpt>
      <trkpt lat="43.4619500" lon="-5.0619610">
        <ele>-17.6</ele>
        <time>2021-07-19T09:26:11Z</time>
      </trkpt>
      <trkpt lat="43.4619960" lon="-5.0621050">
        <ele>-17.6</ele>
        <time>2021-07-19T09:26:13Z</time>
      </trkpt>
      <trkpt lat="43.4620790" lon="-5.0623720">
        <ele>-17.6</ele>
        <time>2021-07-19T09:26:17Z</time>
      </trkpt>
      <trkpt lat="43.4621680" lon="-5.0626580">
        <ele>-17.6</ele>
        <time>2021-07-19T09:26:21Z</time>
      </trkpt>
      <trkpt lat="43.4623040" lon="-5.0630880">
        <ele>-17.6</ele>
        <time>2021-07-19T09:26:27Z</time>
      </trkpt>
      <trkpt lat="43.4623450" lon="-5.0632290">
        <ele>-17.6</ele>
        <time>2021-07-19T09:26:29Z</time>
      </trkpt>
      <trkpt lat="43.4624600" lon="-5.0636010">
        <ele>-17.6</ele>
        <time>2021-07-19T09:26:34Z</time>
      </trkpt>
      <trkpt lat="43.4625540" lon="-5.0638770">
        <ele>-17.6</ele>
        <time>2021-07-19T09:26:38Z</time>
      </trkpt>
      <trkpt lat="43.4626820" lon="-5.0642820">
        <ele>-17.6</ele>
        <time>2021-07-19T09:26:45Z</time>
      </trkpt>
      <trkpt lat="43.4627270" lon="-5.0644240">
        <ele>-17.6</ele>
        <time>2021-07-19T09:26:48Z</time>
      </trkpt>
      <trkpt lat="43.4628010" lon="-5.0645220">
        <ele>-17.6</ele>
        <time>2021-07-19T09:26:51Z</time>
      </trkpt>
      <trkpt lat="43.4628670" lon="-5.0644860">
        <ele>-17.6</ele>
        <time>2021-07-19T09:26:53Z</time>
      </trkpt>
      <trkpt lat="43.4628970" lon="-5.0644570">
        <ele>-17.6</ele>
        <time>2021-07-19T09:26:54Z</time>
      </trkpt>
      <trkpt lat="43.4629280" lon="-5.0644280">
        <ele>-17.6</ele>
        <time>2021-07-19T09:26:55Z</time>
      </trkpt>
      <trkpt lat="43.4629920" lon="-5.0643730">
        <ele>-17.6</ele>
        <time>2021-07-19T09:26:57Z</time>
      </trkpt>
      <trkpt lat="43.4630510" lon="-5.0643430">
        <ele>-17.6</ele>
        <time>2021-07-19T09:26:59Z</time>
      </trkpt>
      <trkpt lat="43.4630730" lon="-5.0643400">
        <ele>-17.6</ele>
        <time>2021-07-19T09:27:00Z</time>
      </trkpt>
      <trkpt lat="43.4631310" lon="-5.0643670">
        <ele>-17.6</ele>
        <time>2021-07-19T09:27:02Z</time>
      </trkpt>
      <trkpt lat="43.4631700" lon="-5.0644420">
        <ele>-17.6</ele>
        <time>2021-07-19T09:27:04Z</time>
      </trkpt>
      <trkpt lat="43.4632710" lon="-5.0647510">
        <ele>-17.6</ele>
        <time>2021-07-19T09:27:10Z</time>
      </trkpt>
      <trkpt lat="43.4633490" lon="-5.0650230">
        <ele>-17.6</ele>
        <time>2021-07-19T09:27:15Z</time>
      </trkpt>
      <trkpt lat="43.4633820" lon="-5.0651210">
        <ele>-17.6</ele>
        <time>2021-07-19T09:27:17Z</time>
      </trkpt>
      <trkpt lat="43.4634410" lon="-5.0652990">
        <ele>-17.6</ele>
        <time>2021-07-19T09:27:21Z</time>
      </trkpt>
      <trkpt lat="43.4634620" lon="-5.0653730">
        <ele>-17.6</ele>
        <time>2021-07-19T09:27:23Z</time>
      </trkpt>
      <trkpt lat="43.4635440" lon="-5.0654810">
        <ele>-17.6</ele>
        <time>2021-07-19T09:27:28Z</time>
      </trkpt>
      <trkpt lat="43.4636340" lon="-5.0655870">
        <ele>-17.6</ele>
        <time>2021-07-19T09:27:32Z</time>
      </trkpt>
      <trkpt lat="43.4636640" lon="-5.0656110">
        <ele>-17.6</ele>
        <time>2021-07-19T09:27:33Z</time>
      </trkpt>
      <trkpt lat="43.4637850" lon="-5.0658230">
        <ele>-17.6</ele>
        <time>2021-07-19T09:27:38Z</time>
      </trkpt>
      <trkpt lat="43.4638690" lon="-5.0660460">
        <ele>-17.6</ele>
        <time>2021-07-19T09:27:43Z</time>
      </trkpt>
      <trkpt lat="43.4638900" lon="-5.0661180">
        <ele>-17.6</ele>
        <time>2021-07-19T09:27:45Z</time>
      </trkpt>
      <trkpt lat="43.4639260" lon="-5.0661680">
        <ele>-17.6</ele>
        <time>2021-07-19T09:27:48Z</time>
      </trkpt>
      <trkpt lat="43.4639300" lon="-5.0661900">
        <ele>-17.6</ele>
        <time>2021-07-19T09:27:49Z</time>
      </trkpt>
      <trkpt lat="43.4639450" lon="-5.0662350">
        <ele>-17.6</ele>
        <time>2021-07-19T09:27:51Z</time>
      </trkpt>
      <trkpt lat="43.4639930" lon="-5.0662840">
        <ele>-17.6</ele>
        <time>2021-07-19T09:27:54Z</time>
      </trkpt>
      <trkpt lat="43.4640900" lon="-5.0663520">
        <ele>-17.6</ele>
        <time>2021-07-19T09:27:58Z</time>
      </trkpt>
      <trkpt lat="43.4641970" lon="-5.0664080">
        <ele>-17.6</ele>
        <time>2021-07-19T09:28:01Z</time>
      </trkpt>
      <trkpt lat="43.4644270" lon="-5.0665070">
        <ele>-17.6</ele>
        <time>2021-07-19T09:28:07Z</time>
      </trkpt>
      <trkpt lat="43.4646660" lon="-5.0665480">
        <ele>-17.6</ele>
        <time>2021-07-19T09:28:13Z</time>
      </trkpt>
      <trkpt lat="43.4647740" lon="-5.0665840">
        <ele>-17.6</ele>
        <time>2021-07-19T09:28:18Z</time>
      </trkpt>
      <trkpt lat="43.4648080" lon="-5.0665750">
        <ele>-17.6</ele>
        <time>2021-07-19T09:28:20Z</time>
      </trkpt>
      <trkpt lat="43.4648410" lon="-5.0665460">
        <ele>-17.6</ele>
        <time>2021-07-19T09:28:23Z</time>
      </trkpt>
      <trkpt lat="43.4649820" lon="-5.0667020">
        <ele>-19.8</ele>
        <time>2021-07-19T09:48:25Z</time>
      </trkpt>
      <trkpt lat="43.4650110" lon="-5.0667310">
        <ele>-19.8</ele>
        <time>2021-07-19T09:48:27Z</time>
      </trkpt>
      <trkpt lat="43.4650410" lon="-5.0667380">
        <ele>-19.8</ele>
        <time>2021-07-19T09:48:29Z</time>
      </trkpt>
      <trkpt lat="43.4650890" lon="-5.0667620">
        <ele>-19.8</ele>
        <time>2021-07-19T09:48:32Z</time>
      </trkpt>
      <trkpt lat="43.4651090" lon="-5.0667700">
        <ele>-19.8</ele>
        <time>2021-07-19T09:48:33Z</time>
      </trkpt>
      <trkpt lat="43.4651910" lon="-5.0667920">
        <ele>-19.8</ele>
        <time>2021-07-19T09:48:39Z</time>
      </trkpt>
      <trkpt lat="43.4652760" lon="-5.0668350">
        <ele>-19.8</ele>
        <time>2021-07-19T09:48:46Z</time>
      </trkpt>
      <trkpt lat="43.4652880" lon="-5.0668390">
        <ele>-19.8</ele>
        <time>2021-07-19T09:48:47Z</time>
      </trkpt>
      <trkpt lat="43.4653650" lon="-5.0668590">
        <ele>-19.8</ele>
        <time>2021-07-19T09:48:53Z</time>
      </trkpt>
      <trkpt lat="43.4654250" lon="-5.0668650">
        <ele>-19.8</ele>
        <time>2021-07-19T09:49:00Z</time>
      </trkpt>
      <trkpt lat="43.4654300" lon="-5.0668620">
        <ele>-19.8</ele>
        <time>2021-07-19T09:49:01Z</time>
      </trkpt>
      <trkpt lat="43.4654320" lon="-5.0669030">
        <ele>-17.6</ele>
        <time>2021-07-19T09:49:06Z</time>
      </trkpt>
      <trkpt lat="43.4654330" lon="-5.0669370">
        <ele>-17.6</ele>
        <time>2021-07-19T09:49:08Z</time>
      </trkpt>
      <trkpt lat="43.4654290" lon="-5.0669860">
        <ele>-17.6</ele>
        <time>2021-07-19T09:49:12Z</time>
      </trkpt>
      <trkpt lat="43.4654210" lon="-5.0669090">
        <ele>-17.6</ele>
        <time>2021-07-19T09:49:40Z</time>
      </trkpt>
      <trkpt lat="43.4654280" lon="-5.0668940">
        <ele>-17.6</ele>
        <time>2021-07-19T09:49:41Z</time>
      </trkpt>
      <trkpt lat="43.4654640" lon="-5.0668420">
        <ele>-17.6</ele>
        <time>2021-07-19T09:49:46Z</time>
      </trkpt>
      <trkpt lat="43.4654310" lon="-5.0668330">
        <ele>-17.6</ele>
        <time>2021-07-19T09:50:35Z</time>
      </trkpt>
      <trkpt lat="43.4654220" lon="-5.0668430">
        <ele>-17.6</ele>
        <time>2021-07-19T09:50:36Z</time>
      </trkpt>
      <trkpt lat="43.4653910" lon="-5.0668650">
        <ele>-17.6</ele>
        <time>2021-07-19T09:50:38Z</time>
      </trkpt>
      <trkpt lat="43.4653490" lon="-5.0668590">
        <ele>-17.6</ele>
        <time>2021-07-19T09:50:40Z</time>
      </trkpt>
      <trkpt lat="43.4652730" lon="-5.0668310">
        <ele>-17.6</ele>
        <time>2021-07-19T09:50:43Z</time>
      </trkpt>
      <trkpt lat="43.4652410" lon="-5.0668120">
        <ele>-17.6</ele>
        <time>2021-07-19T09:50:44Z</time>
      </trkpt>
      <trkpt lat="43.4651740" lon="-5.0667870">
        <ele>-17.6</ele>
        <time>2021-07-19T09:50:46Z</time>
      </trkpt>
      <trkpt lat="43.4650190" lon="-5.0667310">
        <ele>-17.6</ele>
        <time>2021-07-19T09:50:51Z</time>
      </trkpt>
      <trkpt lat="43.4649700" lon="-5.0667020">
        <ele>-17.6</ele>
        <time>2021-07-19T09:50:53Z</time>
      </trkpt>
      <trkpt lat="43.4649200" lon="-5.0666820">
        <ele>-17.6</ele>
        <time>2021-07-19T09:50:55Z</time>
      </trkpt>
      <trkpt lat="43.4648970" lon="-5.0666980">
        <ele>-17.6</ele>
        <time>2021-07-19T09:50:56Z</time>
      </trkpt>
      <trkpt lat="43.4648730" lon="-5.0668550">
        <ele>-17.6</ele>
        <time>2021-07-19T09:51:00Z</time>
      </trkpt>
      <trkpt lat="43.4648620" lon="-5.0669490">
        <ele>-17.6</ele>
        <time>2021-07-19T09:51:02Z</time>
      </trkpt>
      <trkpt lat="43.4648520" lon="-5.0670400">
        <ele>-17.6</ele>
        <time>2021-07-19T09:51:04Z</time>
      </trkpt>
      <trkpt lat="43.4648440" lon="-5.0671260">
        <ele>-17.6</ele>
        <time>2021-07-19T09:51:06Z</time>
      </trkpt>
      <trkpt lat="43.4648350" lon="-5.0672240">
        <ele>-17.6</ele>
        <time>2021-07-19T09:51:08Z</time>
      </trkpt>
      <trkpt lat="43.4648240" lon="-5.0673620">
        <ele>-17.6</ele>
        <time>2021-07-19T09:51:11Z</time>
      </trkpt>
      <trkpt lat="43.4648140" lon="-5.0674520">
        <ele>-17.6</ele>
        <time>2021-07-19T09:51:13Z</time>
      </trkpt>
      <trkpt lat="43.4647990" lon="-5.0676060">
        <ele>-17.6</ele>
        <time>2021-07-19T09:51:17Z</time>
      </trkpt>
      <trkpt lat="43.4647960" lon="-5.0676420">
        <ele>-17.6</ele>
        <time>2021-07-19T09:51:18Z</time>
      </trkpt>
      <trkpt lat="43.4647830" lon="-5.0677750">
        <ele>-17.6</ele>
        <time>2021-07-19T09:51:23Z</time>
      </trkpt>
      <trkpt lat="43.4647830" lon="-5.0677770">
        <ele>-17.6</ele>
        <time>2021-07-19T09:51:24Z</time>
      </trkpt>
      <trkpt lat="43.4647710" lon="-5.0678200">
        <ele>-17.6</ele>
        <time>2021-07-19T09:51:35Z</time>
      </trkpt>
      <trkpt lat="43.4647640" lon="-5.0678840">
        <ele>-17.6</ele>
        <time>2021-07-19T09:51:37Z</time>
      </trkpt>
      <trkpt lat="43.4647500" lon="-5.0681120">
        <ele>-17.6</ele>
        <time>2021-07-19T09:51:43Z</time>
      </trkpt>
      <trkpt lat="43.4647320" lon="-5.0683980">
        <ele>-17.6</ele>
        <time>2021-07-19T09:51:49Z</time>
      </trkpt>
      <trkpt lat="43.4647030" lon="-5.0687620">
        <ele>-17.6</ele>
        <time>2021-07-19T09:51:56Z</time>
      </trkpt>
      <trkpt lat="43.4647230" lon="-5.0691820">
        <ele>-17.6</ele>
        <time>2021-07-19T09:52:04Z</time>
      </trkpt>
      <trkpt lat="43.4647350" lon="-5.0693410">
        <ele>-17.2</ele>
        <time>2021-07-19T09:52:07Z</time>
      </trkpt>
      <trkpt lat="43.4647410" lon="-5.0693990">
        <ele>-16.8</ele>
        <time>2021-07-19T09:52:08Z</time>
      </trkpt>
      <trkpt lat="43.4647530" lon="-5.0694550">
        <ele>-16.4</ele>
        <time>2021-07-19T09:52:09Z</time>
      </trkpt>
      <trkpt lat="43.4647590" lon="-5.0695120">
        <ele>-16.0</ele>
        <time>2021-07-19T09:52:10Z</time>
      </trkpt>
      <trkpt lat="43.4647640" lon="-5.0695690">
        <ele>-15.6</ele>
        <time>2021-07-19T09:52:11Z</time>
      </trkpt>
      <trkpt lat="43.4648040" lon="-5.0699620">
        <ele>-15.6</ele>
        <time>2021-07-19T09:52:18Z</time>
      </trkpt>
      <trkpt lat="43.4648310" lon="-5.0702030">
        <ele>-15.6</ele>
        <time>2021-07-19T09:52:22Z</time>
      </trkpt>
      <trkpt lat="43.4648480" lon="-5.0703850">
        <ele>-15.6</ele>
        <time>2021-07-19T09:52:25Z</time>
      </trkpt>
      <trkpt lat="43.4648670" lon="-5.0705000">
        <ele>-15.6</ele>
        <time>2021-07-19T09:52:27Z</time>
      </trkpt>
      <trkpt lat="43.4648840" lon="-5.0707470">
        <ele>-15.6</ele>
        <time>2021-07-19T09:52:31Z</time>
      </trkpt>
      <trkpt lat="43.4649300" lon="-5.0711050">
        <ele>-15.6</ele>
        <time>2021-07-19T09:52:37Z</time>
      </trkpt>
      <trkpt lat="43.4649420" lon="-5.0711630">
        <ele>-15.6</ele>
        <time>2021-07-19T09:52:38Z</time>
      </trkpt>
      <trkpt lat="43.4650410" lon="-5.0716300">
        <ele>-15.6</ele>
        <time>2021-07-19T09:52:46Z</time>
      </trkpt>
      <trkpt lat="43.4650610" lon="-5.0717450">
        <ele>-15.6</ele>
        <time>2021-07-19T09:52:48Z</time>
      </trkpt>
      <trkpt lat="43.4651420" lon="-5.0721030">
        <ele>-15.6</ele>
        <time>2021-07-19T09:52:54Z</time>
      </trkpt>
      <trkpt lat="43.4651980" lon="-5.0724070">
        <ele>-15.6</ele>
        <time>2021-07-19T09:52:59Z</time>
      </trkpt>
      <trkpt lat="43.4652290" lon="-5.0725200">
        <ele>-15.6</ele>
        <time>2021-07-19T09:53:01Z</time>
      </trkpt>
      <trkpt lat="43.4652380" lon="-5.0725770">
        <ele>-15.6</ele>
        <time>2021-07-19T09:53:02Z</time>
      </trkpt>
      <trkpt lat="43.4653000" lon="-5.0728840">
        <ele>-15.6</ele>
        <time>2021-07-19T09:53:07Z</time>
      </trkpt>
      <trkpt lat="43.4653900" lon="-5.0733050">
        <ele>-15.6</ele>
        <time>2021-07-19T09:53:14Z</time>
      </trkpt>
      <trkpt lat="43.4654180" lon="-5.0734240">
        <ele>-15.6</ele>
        <time>2021-07-19T09:53:16Z</time>
      </trkpt>
      <trkpt lat="43.4654420" lon="-5.0735460">
        <ele>-15.6</ele>
        <time>2021-07-19T09:53:18Z</time>
      </trkpt>
      <trkpt lat="43.4654720" lon="-5.0737140">
        <ele>-15.6</ele>
        <time>2021-07-19T09:53:21Z</time>
      </trkpt>
      <trkpt lat="43.4654930" lon="-5.0738230">
        <ele>-16.0</ele>
        <time>2021-07-19T09:53:23Z</time>
      </trkpt>
      <trkpt lat="43.4654990" lon="-5.0738800">
        <ele>-16.4</ele>
        <time>2021-07-19T09:53:24Z</time>
      </trkpt>
      <trkpt lat="43.4655100" lon="-5.0739410">
        <ele>-16.8</ele>
        <time>2021-07-19T09:53:25Z</time>
      </trkpt>
      <trkpt lat="43.4655180" lon="-5.0740080">
        <ele>-17.2</ele>
        <time>2021-07-19T09:53:26Z</time>
      </trkpt>
      <trkpt lat="43.4655280" lon="-5.0740700">
        <ele>-17.6</ele>
        <time>2021-07-19T09:53:27Z</time>
      </trkpt>
      <trkpt lat="43.4655560" lon="-5.0743660">
        <ele>-17.6</ele>
        <time>2021-07-19T09:53:32Z</time>
      </trkpt>
      <trkpt lat="43.4655740" lon="-5.0744850">
        <ele>-17.6</ele>
        <time>2021-07-19T09:53:34Z</time>
      </trkpt>
      <trkpt lat="43.4655860" lon="-5.0746030">
        <ele>-17.6</ele>
        <time>2021-07-19T09:53:36Z</time>
      </trkpt>
      <trkpt lat="43.4656170" lon="-5.0748750">
        <ele>-17.6</ele>
        <time>2021-07-19T09:53:41Z</time>
      </trkpt>
      <trkpt lat="43.4656320" lon="-5.0750130">
        <ele>-17.6</ele>
        <time>2021-07-19T09:53:44Z</time>
      </trkpt>
      <trkpt lat="43.4656850" lon="-5.0751440">
        <ele>-17.6</ele>
        <time>2021-07-19T09:53:47Z</time>
      </trkpt>
      <trkpt lat="43.4657680" lon="-5.0753890">
        <ele>-17.6</ele>
        <time>2021-07-19T09:53:52Z</time>
      </trkpt>
      <trkpt lat="43.4658190" lon="-5.0756550">
        <ele>-17.6</ele>
        <time>2021-07-19T09:53:57Z</time>
      </trkpt>
      <trkpt lat="43.4659490" lon="-5.0759130">
        <ele>-17.6</ele>
        <time>2021-07-19T09:54:02Z</time>
      </trkpt>
      <trkpt lat="43.4659960" lon="-5.0760240">
        <ele>-17.6</ele>
        <time>2021-07-19T09:54:04Z</time>
      </trkpt>
      <trkpt lat="43.4660860" lon="-5.0762360">
        <ele>-17.6</ele>
        <time>2021-07-19T09:54:08Z</time>
      </trkpt>
      <trkpt lat="43.4661360" lon="-5.0763390">
        <ele>-17.6</ele>
        <time>2021-07-19T09:54:10Z</time>
      </trkpt>
      <trkpt lat="43.4663420" lon="-5.0767660">
        <ele>-17.6</ele>
        <time>2021-07-19T09:54:18Z</time>
      </trkpt>
      <trkpt lat="43.4663950" lon="-5.0768790">
        <ele>-17.6</ele>
        <time>2021-07-19T09:54:20Z</time>
      </trkpt>
      <trkpt lat="43.4664800" lon="-5.0770550">
        <ele>-17.6</ele>
        <time>2021-07-19T09:54:23Z</time>
      </trkpt>
      <trkpt lat="43.4665360" lon="-5.0771760">
        <ele>-18.0</ele>
        <time>2021-07-19T09:54:25Z</time>
      </trkpt>
      <trkpt lat="43.4665650" lon="-5.0772400">
        <ele>-18.4</ele>
        <time>2021-07-19T09:54:26Z</time>
      </trkpt>
      <trkpt lat="43.4665910" lon="-5.0773010">
        <ele>-18.8</ele>
        <time>2021-07-19T09:54:27Z</time>
      </trkpt>
      <trkpt lat="43.4666270" lon="-5.0773520">
        <ele>-19.2</ele>
        <time>2021-07-19T09:54:28Z</time>
      </trkpt>
      <trkpt lat="43.4666600" lon="-5.0774060">
        <ele>-19.6</ele>
        <time>2021-07-19T09:54:29Z</time>
      </trkpt>
      <trkpt lat="43.4667480" lon="-5.0775580">
        <ele>-19.6</ele>
        <time>2021-07-19T09:54:32Z</time>
      </trkpt>
      <trkpt lat="43.4668050" lon="-5.0776640">
        <ele>-19.6</ele>
        <time>2021-07-19T09:54:34Z</time>
      </trkpt>
      <trkpt lat="43.4668870" lon="-5.0778130">
        <ele>-19.6</ele>
        <time>2021-07-19T09:54:37Z</time>
      </trkpt>
      <trkpt lat="43.4669330" lon="-5.0779020">
        <ele>-19.6</ele>
        <time>2021-07-19T09:54:39Z</time>
      </trkpt>
      <trkpt lat="43.4670530" lon="-5.0781670">
        <ele>-19.6</ele>
        <time>2021-07-19T09:54:44Z</time>
      </trkpt>
      <trkpt lat="43.4670720" lon="-5.0782240">
        <ele>-19.6</ele>
        <time>2021-07-19T09:54:45Z</time>
      </trkpt>
      <trkpt lat="43.4670890" lon="-5.0782790">
        <ele>-19.6</ele>
        <time>2021-07-19T09:54:46Z</time>
      </trkpt>
      <trkpt lat="43.4671830" lon="-5.0786520">
        <ele>-19.6</ele>
        <time>2021-07-19T09:54:52Z</time>
      </trkpt>
      <trkpt lat="43.4672440" lon="-5.0789060">
        <ele>-19.6</ele>
        <time>2021-07-19T09:54:56Z</time>
      </trkpt>
      <trkpt lat="43.4672850" lon="-5.0791000">
        <ele>-19.6</ele>
        <time>2021-07-19T09:54:59Z</time>
      </trkpt>
      <trkpt lat="43.4672920" lon="-5.0791700">
        <ele>-19.6</ele>
        <time>2021-07-19T09:55:00Z</time>
      </trkpt>
      <trkpt lat="43.4673340" lon="-5.0794490">
        <ele>-19.6</ele>
        <time>2021-07-19T09:55:04Z</time>
      </trkpt>
      <trkpt lat="43.4673450" lon="-5.0795190">
        <ele>-19.6</ele>
        <time>2021-07-19T09:55:05Z</time>
      </trkpt>
      <trkpt lat="43.4673720" lon="-5.0797310">
        <ele>-19.6</ele>
        <time>2021-07-19T09:55:08Z</time>
      </trkpt>
      <trkpt lat="43.4674110" lon="-5.0800710">
        <ele>-19.6</ele>
        <time>2021-07-19T09:55:13Z</time>
      </trkpt>
      <trkpt lat="43.4674370" lon="-5.0803270">
        <ele>-19.6</ele>
        <time>2021-07-19T09:55:17Z</time>
      </trkpt>
      <trkpt lat="43.4674630" lon="-5.0806010">
        <ele>-19.6</ele>
        <time>2021-07-19T09:55:21Z</time>
      </trkpt>
      <trkpt lat="43.4675160" lon="-5.0810750">
        <ele>-19.6</ele>
        <time>2021-07-19T09:55:28Z</time>
      </trkpt>
      <trkpt lat="43.4675210" lon="-5.0811460">
        <ele>-19.6</ele>
        <time>2021-07-19T09:55:29Z</time>
      </trkpt>
      <trkpt lat="43.4675830" lon="-5.0817770">
        <ele>-19.6</ele>
        <time>2021-07-19T09:55:38Z</time>
      </trkpt>
      <trkpt lat="43.4676340" lon="-5.0822610">
        <ele>-19.6</ele>
        <time>2021-07-19T09:55:45Z</time>
      </trkpt>
      <trkpt lat="43.4676810" lon="-5.0828030">
        <ele>-19.6</ele>
        <time>2021-07-19T09:55:53Z</time>
      </trkpt>
      <trkpt lat="43.4677110" lon="-5.0830660">
        <ele>-19.6</ele>
        <time>2021-07-19T09:55:57Z</time>
      </trkpt>
      <trkpt lat="43.4677240" lon="-5.0833270">
        <ele>-19.6</ele>
        <time>2021-07-19T09:56:01Z</time>
      </trkpt>
      <trkpt lat="43.4677560" lon="-5.0838770">
        <ele>-19.6</ele>
        <time>2021-07-19T09:56:09Z</time>
      </trkpt>
      <trkpt lat="43.4677710" lon="-5.0841350">
        <ele>-19.6</ele>
        <time>2021-07-19T09:56:13Z</time>
      </trkpt>
      <trkpt lat="43.4677850" lon="-5.0842500">
        <ele>-19.6</ele>
        <time>2021-07-19T09:56:15Z</time>
      </trkpt>
      <trkpt lat="43.4677950" lon="-5.0843640">
        <ele>-19.6</ele>
        <time>2021-07-19T09:56:17Z</time>
      </trkpt>
      <trkpt lat="43.4678020" lon="-5.0846260">
        <ele>-19.6</ele>
        <time>2021-07-19T09:56:22Z</time>
      </trkpt>
      <trkpt lat="43.4678220" lon="-5.0848680">
        <ele>-19.6</ele>
        <time>2021-07-19T09:56:26Z</time>
      </trkpt>
      <trkpt lat="43.4678300" lon="-5.0849960">
        <ele>-19.6</ele>
        <time>2021-07-19T09:56:28Z</time>
      </trkpt>
      <trkpt lat="43.4678510" lon="-5.0855000">
        <ele>-19.6</ele>
        <time>2021-07-19T09:56:36Z</time>
      </trkpt>
      <trkpt lat="43.4678670" lon="-5.0860370">
        <ele>-19.6</ele>
        <time>2021-07-19T09:56:44Z</time>
      </trkpt>
      <trkpt lat="43.4678830" lon="-5.0865810">
        <ele>-19.6</ele>
        <time>2021-07-19T09:56:52Z</time>
      </trkpt>
      <trkpt lat="43.4679010" lon="-5.0871060">
        <ele>-19.6</ele>
        <time>2021-07-19T09:57:00Z</time>
      </trkpt>
      <trkpt lat="43.4679050" lon="-5.0871660">
        <ele>-19.6</ele>
        <time>2021-07-19T09:57:01Z</time>
      </trkpt>
      <trkpt lat="43.4679170" lon="-5.0874410">
        <ele>-19.6</ele>
        <time>2021-07-19T09:57:06Z</time>
      </trkpt>
      <trkpt lat="43.4679490" lon="-5.0876640">
        <ele>-19.6</ele>
        <time>2021-07-19T09:57:11Z</time>
      </trkpt>
      <trkpt lat="43.4679740" lon="-5.0876860">
        <ele>-19.6</ele>
        <time>2021-07-19T09:57:12Z</time>
      </trkpt>
      <trkpt lat="43.4680770" lon="-5.0878270">
        <ele>-19.6</ele>
        <time>2021-07-19T09:57:17Z</time>
      </trkpt>
      <trkpt lat="43.4680780" lon="-5.0878630">
        <ele>-19.2</ele>
        <time>2021-07-19T09:57:18Z</time>
      </trkpt>
      <trkpt lat="43.4680760" lon="-5.0879030">
        <ele>-18.8</ele>
        <time>2021-07-19T09:57:19Z</time>
      </trkpt>
      <trkpt lat="43.4680670" lon="-5.0879410">
        <ele>-18.4</ele>
        <time>2021-07-19T09:57:20Z</time>
      </trkpt>
      <trkpt lat="43.4680540" lon="-5.0879770">
        <ele>-18.0</ele>
        <time>2021-07-19T09:57:21Z</time>
      </trkpt>
      <trkpt lat="43.4680360" lon="-5.0880100">
        <ele>-17.6</ele>
        <time>2021-07-19T09:57:22Z</time>
      </trkpt>
      <trkpt lat="43.4679810" lon="-5.0880890">
        <ele>-17.6</ele>
        <time>2021-07-19T09:57:25Z</time>
      </trkpt>
      <trkpt lat="43.4679380" lon="-5.0881910">
        <ele>-17.6</ele>
        <time>2021-07-19T09:57:28Z</time>
      </trkpt>
      <trkpt lat="43.4679410" lon="-5.0883690">
        <ele>-17.6</ele>
        <time>2021-07-19T09:57:32Z</time>
      </trkpt>
      <trkpt lat="43.4679540" lon="-5.0885340">
        <ele>-17.6</ele>
        <time>2021-07-19T09:57:35Z</time>
      </trkpt>
      <trkpt lat="43.4679590" lon="-5.0887340">
        <ele>-17.6</ele>
        <time>2021-07-19T09:57:38Z</time>
      </trkpt>
      <trkpt lat="43.4679580" lon="-5.0892530">
        <ele>-17.6</ele>
        <time>2021-07-19T09:57:46Z</time>
      </trkpt>
      <trkpt lat="43.4679640" lon="-5.0893100">
        <ele>-17.6</ele>
        <time>2021-07-19T09:57:47Z</time>
      </trkpt>
      <trkpt lat="43.4679690" lon="-5.0895430">
        <ele>-17.6</ele>
        <time>2021-07-19T09:57:51Z</time>
      </trkpt>
      <trkpt lat="43.4679690" lon="-5.0896170">
        <ele>-17.6</ele>
        <time>2021-07-19T09:57:52Z</time>
      </trkpt>
      <trkpt lat="43.4679530" lon="-5.0900470">
        <ele>-17.6</ele>
        <time>2021-07-19T09:57:58Z</time>
      </trkpt>
      <trkpt lat="43.4679230" lon="-5.0904550">
        <ele>-17.6</ele>
        <time>2021-07-19T09:58:04Z</time>
      </trkpt>
      <trkpt lat="43.4679220" lon="-5.0905200">
        <ele>-17.6</ele>
        <time>2021-07-19T09:58:05Z</time>
      </trkpt>
      <trkpt lat="43.4679140" lon="-5.0905800">
        <ele>-17.6</ele>
        <time>2021-07-19T09:58:06Z</time>
      </trkpt>
      <trkpt lat="43.4679020" lon="-5.0908260">
        <ele>-17.6</ele>
        <time>2021-07-19T09:58:10Z</time>
      </trkpt>
      <trkpt lat="43.4678990" lon="-5.0908830">
        <ele>-17.6</ele>
        <time>2021-07-19T09:58:11Z</time>
      </trkpt>
      <trkpt lat="43.4678760" lon="-5.0911560">
        <ele>-17.6</ele>
        <time>2021-07-19T09:58:16Z</time>
      </trkpt>
      <trkpt lat="43.4678710" lon="-5.0912070">
        <ele>-17.2</ele>
        <time>2021-07-19T09:58:17Z</time>
      </trkpt>
      <trkpt lat="43.4678680" lon="-5.0912560">
        <ele>-16.8</ele>
        <time>2021-07-19T09:58:18Z</time>
      </trkpt>
      <trkpt lat="43.4678650" lon="-5.0913110">
        <ele>-16.4</ele>
        <time>2021-07-19T09:58:19Z</time>
      </trkpt>
      <trkpt lat="43.4678610" lon="-5.0913620">
        <ele>-16.0</ele>
        <time>2021-07-19T09:58:20Z</time>
      </trkpt>
      <trkpt lat="43.4678550" lon="-5.0914130">
        <ele>-15.4</ele>
        <time>2021-07-19T09:58:21Z</time>
      </trkpt>
      <trkpt lat="43.4678500" lon="-5.0915680">
        <ele>-15.4</ele>
        <time>2021-07-19T09:58:24Z</time>
      </trkpt>
      <trkpt lat="43.4678350" lon="-5.0917160">
        <ele>-15.0</ele>
        <time>2021-07-19T09:58:27Z</time>
      </trkpt>
      <trkpt lat="43.4678300" lon="-5.0917620">
        <ele>-14.6</ele>
        <time>2021-07-19T09:58:28Z</time>
      </trkpt>
      <trkpt lat="43.4678260" lon="-5.0918090">
        <ele>-14.2</ele>
        <time>2021-07-19T09:58:29Z</time>
      </trkpt>
      <trkpt lat="43.4678200" lon="-5.0918570">
        <ele>-13.8</ele>
        <time>2021-07-19T09:58:30Z</time>
      </trkpt>
      <trkpt lat="43.4678110" lon="-5.0919030">
        <ele>-13.4</ele>
        <time>2021-07-19T09:58:31Z</time>
      </trkpt>
      <trkpt lat="43.4677470" lon="-5.0921770">
        <ele>-13.4</ele>
        <time>2021-07-19T09:58:37Z</time>
      </trkpt>
      <trkpt lat="43.4677330" lon="-5.0923640">
        <ele>-13.0</ele>
        <time>2021-07-19T09:58:41Z</time>
      </trkpt>
      <trkpt lat="43.4677280" lon="-5.0924060">
        <ele>-12.6</ele>
        <time>2021-07-19T09:58:42Z</time>
      </trkpt>
      <trkpt lat="43.4677220" lon="-5.0924510">
        <ele>-12.2</ele>
        <time>2021-07-19T09:58:43Z</time>
      </trkpt>
      <trkpt lat="43.4677150" lon="-5.0924970">
        <ele>-11.8</ele>
        <time>2021-07-19T09:58:44Z</time>
      </trkpt>
      <trkpt lat="43.4677060" lon="-5.0925380">
        <ele>-11.4</ele>
        <time>2021-07-19T09:58:45Z</time>
      </trkpt>
      <trkpt lat="43.4676600" lon="-5.0927520">
        <ele>-11.4</ele>
        <time>2021-07-19T09:58:50Z</time>
      </trkpt>
      <trkpt lat="43.4676180" lon="-5.0929890">
        <ele>-11.0</ele>
        <time>2021-07-19T09:58:56Z</time>
      </trkpt>
      <trkpt lat="43.4676110" lon="-5.0930300">
        <ele>-10.6</ele>
        <time>2021-07-19T09:58:57Z</time>
      </trkpt>
      <trkpt lat="43.4676070" lon="-5.0930710">
        <ele>-10.2</ele>
        <time>2021-07-19T09:58:58Z</time>
      </trkpt>
      <trkpt lat="43.4676050" lon="-5.0931160">
        <ele>-9.8</ele>
        <time>2021-07-19T09:58:59Z</time>
      </trkpt>
      <trkpt lat="43.4676000" lon="-5.0931620">
        <ele>-9.4</ele>
        <time>2021-07-19T09:59:00Z</time>
      </trkpt>
      <trkpt lat="43.4675930" lon="-5.0933720">
        <ele>-9.4</ele>
        <time>2021-07-19T09:59:05Z</time>
      </trkpt>
      <trkpt lat="43.4676060" lon="-5.0936130">
        <ele>-9.4</ele>
        <time>2021-07-19T09:59:11Z</time>
      </trkpt>
      <trkpt lat="43.4676210" lon="-5.0937290">
        <ele>-8.8</ele>
        <time>2021-07-19T09:59:14Z</time>
      </trkpt>
      <trkpt lat="43.4676250" lon="-5.0937700">
        <ele>-8.4</ele>
        <time>2021-07-19T09:59:15Z</time>
      </trkpt>
      <trkpt lat="43.4676300" lon="-5.0938130">
        <ele>-7.6</ele>
        <time>2021-07-19T09:59:16Z</time>
      </trkpt>
      <trkpt lat="43.4676310" lon="-5.0938490">
        <ele>-7.2</ele>
        <time>2021-07-19T09:59:17Z</time>
      </trkpt>
      <trkpt lat="43.4676730" lon="-5.0941130">
        <ele>-7.2</ele>
        <time>2021-07-19T09:59:24Z</time>
      </trkpt>
      <trkpt lat="43.4677150" lon="-5.0943370">
        <ele>-6.8</ele>
        <time>2021-07-19T09:59:30Z</time>
      </trkpt>
      <trkpt lat="43.4677190" lon="-5.0943770">
        <ele>-6.4</ele>
        <time>2021-07-19T09:59:31Z</time>
      </trkpt>
      <trkpt lat="43.4677210" lon="-5.0944170">
        <ele>-6.0</ele>
        <time>2021-07-19T09:59:32Z</time>
      </trkpt>
      <trkpt lat="43.4677170" lon="-5.0944540">
        <ele>-5.6</ele>
        <time>2021-07-19T09:59:33Z</time>
      </trkpt>
      <trkpt lat="43.4677200" lon="-5.0944940">
        <ele>-5.2</ele>
        <time>2021-07-19T09:59:34Z</time>
      </trkpt>
      <trkpt lat="43.4677290" lon="-5.0945740">
        <ele>-5.2</ele>
        <time>2021-07-19T09:59:36Z</time>
      </trkpt>
      <trkpt lat="43.4677680" lon="-5.0947520">
        <ele>-5.2</ele>
        <time>2021-07-19T09:59:41Z</time>
      </trkpt>
      <trkpt lat="43.4678120" lon="-5.0950200">
        <ele>-4.8</ele>
        <time>2021-07-19T09:59:48Z</time>
      </trkpt>
      <trkpt lat="43.4678180" lon="-5.0950570">
        <ele>-4.4</ele>
        <time>2021-07-19T09:59:49Z</time>
      </trkpt>
      <trkpt lat="43.4678200" lon="-5.0950930">
        <ele>-4.0</ele>
        <time>2021-07-19T09:59:50Z</time>
      </trkpt>
      <trkpt lat="43.4678280" lon="-5.0951220">
        <ele>-3.6</ele>
        <time>2021-07-19T09:59:51Z</time>
      </trkpt>
      <trkpt lat="43.4678350" lon="-5.0951550">
        <ele>-3.2</ele>
        <time>2021-07-19T09:59:52Z</time>
      </trkpt>
      <trkpt lat="43.4678490" lon="-5.0952480">
        <ele>-3.2</ele>
        <time>2021-07-19T09:59:55Z</time>
      </trkpt>
      <trkpt lat="43.4678930" lon="-5.0954490">
        <ele>-3.2</ele>
        <time>2021-07-19T10:00:01Z</time>
      </trkpt>
      <trkpt lat="43.4678990" lon="-5.0954810">
        <ele>-2.6</ele>
        <time>2021-07-19T10:00:02Z</time>
      </trkpt>
      <trkpt lat="43.4679060" lon="-5.0955120">
        <ele>-2.2</ele>
        <time>2021-07-19T10:00:03Z</time>
      </trkpt>
      <trkpt lat="43.4679110" lon="-5.0955460">
        <ele>-1.8</ele>
        <time>2021-07-19T10:00:04Z</time>
      </trkpt>
      <trkpt lat="43.4679170" lon="-5.0955740">
        <ele>-1.4</ele>
        <time>2021-07-19T10:00:05Z</time>
      </trkpt>
      <trkpt lat="43.4679210" lon="-5.0956090">
        <ele>-1.0</ele>
        <time>2021-07-19T10:00:06Z</time>
      </trkpt>
      <trkpt lat="43.4679250" lon="-5.0956830">
        <ele>-1.0</ele>
        <time>2021-07-19T10:00:08Z</time>
      </trkpt>
      <trkpt lat="43.4679360" lon="-5.0958580">
        <ele>-0.6</ele>
        <time>2021-07-19T10:00:13Z</time>
      </trkpt>
      <trkpt lat="43.4679420" lon="-5.0958840">
        <ele>-0.2</ele>
        <time>2021-07-19T10:00:14Z</time>
      </trkpt>
      <trkpt lat="43.4679440" lon="-5.0959160">
        <ele>0.2</ele>
        <time>2021-07-19T10:00:15Z</time>
      </trkpt>
      <trkpt lat="43.4679470" lon="-5.0959450">
        <ele>0.6</ele>
        <time>2021-07-19T10:00:16Z</time>
      </trkpt>
      <trkpt lat="43.4679500" lon="-5.0959730">
        <ele>1.2</ele>
        <time>2021-07-19T10:00:17Z</time>
      </trkpt>
      <trkpt lat="43.4679510" lon="-5.0960030">
        <ele>1.2</ele>
        <time>2021-07-19T10:00:18Z</time>
      </trkpt>
      <trkpt lat="43.4679260" lon="-5.0962160">
        <ele>1.2</ele>
        <time>2021-07-19T10:00:25Z</time>
      </trkpt>
      <trkpt lat="43.4678960" lon="-5.0963690">
        <ele>2.0</ele>
        <time>2021-07-19T10:00:30Z</time>
      </trkpt>
      <trkpt lat="43.4678900" lon="-5.0964030">
        <ele>2.4</ele>
        <time>2021-07-19T10:00:31Z</time>
      </trkpt>
      <trkpt lat="43.4678840" lon="-5.0964340">
        <ele>2.8</ele>
        <time>2021-07-19T10:00:32Z</time>
      </trkpt>
      <trkpt lat="43.4678820" lon="-5.0964630">
        <ele>3.2</ele>
        <time>2021-07-19T10:00:33Z</time>
      </trkpt>
      <trkpt lat="43.4678700" lon="-5.0966480">
        <ele>3.2</ele>
        <time>2021-07-19T10:00:39Z</time>
      </trkpt>
      <trkpt lat="43.4678500" lon="-5.0968640">
        <ele>3.6</ele>
        <time>2021-07-19T10:00:45Z</time>
      </trkpt>
      <trkpt lat="43.4678490" lon="-5.0969050">
        <ele>4.0</ele>
        <time>2021-07-19T10:00:46Z</time>
      </trkpt>
      <trkpt lat="43.4678460" lon="-5.0969410">
        <ele>4.4</ele>
        <time>2021-07-19T10:00:47Z</time>
      </trkpt>
      <trkpt lat="43.4678430" lon="-5.0969750">
        <ele>4.8</ele>
        <time>2021-07-19T10:00:48Z</time>
      </trkpt>
      <trkpt lat="43.4678450" lon="-5.0970090">
        <ele>5.2</ele>
        <time>2021-07-19T10:00:49Z</time>
      </trkpt>
      <trkpt lat="43.4678360" lon="-5.0971500">
        <ele>5.2</ele>
        <time>2021-07-19T10:00:53Z</time>
      </trkpt>
      <trkpt lat="43.4678310" lon="-5.0973660">
        <ele>5.2</ele>
        <time>2021-07-19T10:00:59Z</time>
      </trkpt>
      <trkpt lat="43.4678230" lon="-5.0974530">
        <ele>5.8</ele>
        <time>2021-07-19T10:01:02Z</time>
      </trkpt>
      <trkpt lat="43.4678240" lon="-5.0974830">
        <ele>6.2</ele>
        <time>2021-07-19T10:01:03Z</time>
      </trkpt>
      <trkpt lat="43.4678260" lon="-5.0975140">
        <ele>6.6</ele>
        <time>2021-07-19T10:01:04Z</time>
      </trkpt>
      <trkpt lat="43.4678220" lon="-5.0975440">
        <ele>7.0</ele>
        <time>2021-07-19T10:01:05Z</time>
      </trkpt>
      <trkpt lat="43.4678240" lon="-5.0975780">
        <ele>7.4</ele>
        <time>2021-07-19T10:01:06Z</time>
      </trkpt>
      <trkpt lat="43.4678300" lon="-5.0978050">
        <ele>7.4</ele>
        <time>2021-07-19T10:01:12Z</time>
      </trkpt>
      <trkpt lat="43.4678730" lon="-5.0980280">
        <ele>7.4</ele>
        <time>2021-07-19T10:01:18Z</time>
      </trkpt>
      <trkpt lat="43.4678690" lon="-5.0982900">
        <ele>7.4</ele>
        <time>2021-07-19T10:01:24Z</time>
      </trkpt>
      <trkpt lat="43.4678700" lon="-5.0983350">
        <ele>7.4</ele>
        <time>2021-07-19T10:01:25Z</time>
      </trkpt>
      <trkpt lat="43.4678620" lon="-5.0984650">
        <ele>7.4</ele>
        <time>2021-07-19T10:01:28Z</time>
      </trkpt>
      <trkpt lat="43.4678470" lon="-5.0986560">
        <ele>7.4</ele>
        <time>2021-07-19T10:01:32Z</time>
      </trkpt>
      <trkpt lat="43.4678350" lon="-5.0988200">
        <ele>7.4</ele>
        <time>2021-07-19T10:01:35Z</time>
      </trkpt>
      <trkpt lat="43.4678280" lon="-5.0989510">
        <ele>7.4</ele>
        <time>2021-07-19T10:01:37Z</time>
      </trkpt>
      <trkpt lat="43.4678230" lon="-5.0990220">
        <ele>7.4</ele>
        <time>2021-07-19T10:01:38Z</time>
      </trkpt>
      <trkpt lat="43.4677930" lon="-5.0992430">
        <ele>7.4</ele>
        <time>2021-07-19T10:01:41Z</time>
      </trkpt>
      <trkpt lat="43.4677470" lon="-5.0994790">
        <ele>7.4</ele>
        <time>2021-07-19T10:01:44Z</time>
      </trkpt>
      <trkpt lat="43.4676660" lon="-5.0998650">
        <ele>7.4</ele>
        <time>2021-07-19T10:01:50Z</time>
      </trkpt>
      <trkpt lat="43.4676160" lon="-5.1001560">
        <ele>7.4</ele>
        <time>2021-07-19T10:01:56Z</time>
      </trkpt>
      <trkpt lat="43.4675970" lon="-5.1002660">
        <ele>7.4</ele>
        <time>2021-07-19T10:01:58Z</time>
      </trkpt>
      <trkpt lat="43.4675700" lon="-5.1003780">
        <ele>7.4</ele>
        <time>2021-07-19T10:02:00Z</time>
      </trkpt>
      <trkpt lat="43.4675440" lon="-5.1004960">
        <ele>7.4</ele>
        <time>2021-07-19T10:02:02Z</time>
      </trkpt>
      <trkpt lat="43.4675100" lon="-5.1006910">
        <ele>7.4</ele>
        <time>2021-07-19T10:02:05Z</time>
      </trkpt>
      <trkpt lat="43.4674740" lon="-5.1008750">
        <ele>7.4</ele>
        <time>2021-07-19T10:02:08Z</time>
      </trkpt>
      <trkpt lat="43.4674700" lon="-5.1009390">
        <ele>7.4</ele>
        <time>2021-07-19T10:02:09Z</time>
      </trkpt>
      <trkpt lat="43.4674820" lon="-5.1011560">
        <ele>7.0</ele>
        <time>2021-07-19T10:02:12Z</time>
      </trkpt>
      <trkpt lat="43.4675030" lon="-5.1012460">
        <ele>6.6</ele>
        <time>2021-07-19T10:02:13Z</time>
      </trkpt>
      <trkpt lat="43.4675230" lon="-5.1013330">
        <ele>6.2</ele>
        <time>2021-07-19T10:02:14Z</time>
      </trkpt>
      <trkpt lat="43.4675450" lon="-5.1014250">
        <ele>5.6</ele>
        <time>2021-07-19T10:02:15Z</time>
      </trkpt>
      <trkpt lat="43.4675710" lon="-5.1015130">
        <ele>5.2</ele>
        <time>2021-07-19T10:02:16Z</time>
      </trkpt>
      <trkpt lat="43.4676330" lon="-5.1017590">
        <ele>5.2</ele>
        <time>2021-07-19T10:02:19Z</time>
      </trkpt>
      <trkpt lat="43.4676420" lon="-5.1018290">
        <ele>4.8</ele>
        <time>2021-07-19T10:02:20Z</time>
      </trkpt>
      <trkpt lat="43.4676540" lon="-5.1018930">
        <ele>4.2</ele>
        <time>2021-07-19T10:02:21Z</time>
      </trkpt>
      <trkpt lat="43.4676640" lon="-5.1019530">
        <ele>3.8</ele>
        <time>2021-07-19T10:02:22Z</time>
      </trkpt>
      <trkpt lat="43.4676700" lon="-5.1020110">
        <ele>3.2</ele>
        <time>2021-07-19T10:02:23Z</time>
      </trkpt>
      <trkpt lat="43.4676780" lon="-5.1020620">
        <ele>2.6</ele>
        <time>2021-07-19T10:02:24Z</time>
      </trkpt>
      <trkpt lat="43.4676810" lon="-5.1021060">
        <ele>2.2</ele>
        <time>2021-07-19T10:02:25Z</time>
      </trkpt>
      <trkpt lat="43.4676880" lon="-5.1021500">
        <ele>1.6</ele>
        <time>2021-07-19T10:02:26Z</time>
      </trkpt>
      <trkpt lat="43.4676930" lon="-5.1021960">
        <ele>1.0</ele>
        <time>2021-07-19T10:02:27Z</time>
      </trkpt>
      <trkpt lat="43.4676970" lon="-5.1022470">
        <ele>0.4</ele>
        <time>2021-07-19T10:02:28Z</time>
      </trkpt>
      <trkpt lat="43.4677100" lon="-5.1023460">
        <ele>0.4</ele>
        <time>2021-07-19T10:02:30Z</time>
      </trkpt>
      <trkpt lat="43.4677880" lon="-5.1026460">
        <ele>0.4</ele>
        <time>2021-07-19T10:02:35Z</time>
      </trkpt>
      <trkpt lat="43.4678010" lon="-5.1027170">
        <ele>0.0</ele>
        <time>2021-07-19T10:02:36Z</time>
      </trkpt>
      <trkpt lat="43.4678210" lon="-5.1027870">
        <ele>-0.4</ele>
        <time>2021-07-19T10:02:37Z</time>
      </trkpt>
      <trkpt lat="43.4678450" lon="-5.1028520">
        <ele>-0.8</ele>
        <time>2021-07-19T10:02:38Z</time>
      </trkpt>
      <trkpt lat="43.4678690" lon="-5.1029150">
        <ele>-1.2</ele>
        <time>2021-07-19T10:02:39Z</time>
      </trkpt>
      <trkpt lat="43.4678920" lon="-5.1029810">
        <ele>-1.6</ele>
        <time>2021-07-19T10:02:40Z</time>
      </trkpt>
      <trkpt lat="43.4679140" lon="-5.1030420">
        <ele>-1.6</ele>
        <time>2021-07-19T10:02:41Z</time>
      </trkpt>
      <trkpt lat="43.4679910" lon="-5.1032110">
        <ele>-1.6</ele>
        <time>2021-07-19T10:02:44Z</time>
      </trkpt>
      <trkpt lat="43.4680400" lon="-5.1032980">
        <ele>-1.6</ele>
        <time>2021-07-19T10:02:46Z</time>
      </trkpt>
      <trkpt lat="43.4681150" lon="-5.1034430">
        <ele>-1.6</ele>
        <time>2021-07-19T10:02:49Z</time>
      </trkpt>
      <trkpt lat="43.4681370" lon="-5.1034990">
        <ele>-1.6</ele>
        <time>2021-07-19T10:02:50Z</time>
      </trkpt>
      <trkpt lat="43.4681580" lon="-5.1035500">
        <ele>-1.6</ele>
        <time>2021-07-19T10:02:51Z</time>
      </trkpt>
      <trkpt lat="43.4681780" lon="-5.1036040">
        <ele>-1.6</ele>
        <time>2021-07-19T10:02:52Z</time>
      </trkpt>
      <trkpt lat="43.4682150" lon="-5.1037080">
        <ele>-1.6</ele>
        <time>2021-07-19T10:02:54Z</time>
      </trkpt>
      <trkpt lat="43.4682580" lon="-5.1037880">
        <ele>-1.6</ele>
        <time>2021-07-19T10:02:56Z</time>
      </trkpt>
      <trkpt lat="43.4682900" lon="-5.1038800">
        <ele>-1.6</ele>
        <time>2021-07-19T10:02:58Z</time>
      </trkpt>
      <trkpt lat="43.4683440" lon="-5.1039880">
        <ele>-1.6</ele>
        <time>2021-07-19T10:03:01Z</time>
      </trkpt>
      <trkpt lat="43.4683930" lon="-5.1040920">
        <ele>-1.6</ele>
        <time>2021-07-19T10:03:04Z</time>
      </trkpt>
      <trkpt lat="43.4684210" lon="-5.1041990">
        <ele>-1.6</ele>
        <time>2021-07-19T10:03:07Z</time>
      </trkpt>
      <trkpt lat="43.4684640" lon="-5.1043050">
        <ele>-1.6</ele>
        <time>2021-07-19T10:03:10Z</time>
      </trkpt>
      <trkpt lat="43.4684830" lon="-5.1043620">
        <ele>-1.6</ele>
        <time>2021-07-19T10:03:12Z</time>
      </trkpt>
      <trkpt lat="43.4685130" lon="-5.1044520">
        <ele>-1.2</ele>
        <time>2021-07-19T10:03:15Z</time>
      </trkpt>
      <trkpt lat="43.4685260" lon="-5.1044850">
        <ele>-0.8</ele>
        <time>2021-07-19T10:03:16Z</time>
      </trkpt>
      <trkpt lat="43.4685350" lon="-5.1045160">
        <ele>-0.4</ele>
        <time>2021-07-19T10:03:17Z</time>
      </trkpt>
      <trkpt lat="43.4685460" lon="-5.1045460">
        <ele>0.0</ele>
        <time>2021-07-19T10:03:18Z</time>
      </trkpt>
      <trkpt lat="43.4685600" lon="-5.1045770">
        <ele>0.4</ele>
        <time>2021-07-19T10:03:19Z</time>
      </trkpt>
      <trkpt lat="43.4686200" lon="-5.1046970">
        <ele>0.4</ele>
        <time>2021-07-19T10:03:23Z</time>
      </trkpt>
      <trkpt lat="43.4686630" lon="-5.1047980">
        <ele>0.8</ele>
        <time>2021-07-19T10:03:26Z</time>
      </trkpt>
      <trkpt lat="43.4686790" lon="-5.1048300">
        <ele>1.2</ele>
        <time>2021-07-19T10:03:27Z</time>
      </trkpt>
      <trkpt lat="43.4686930" lon="-5.1048630">
        <ele>1.6</ele>
        <time>2021-07-19T10:03:28Z</time>
      </trkpt>
      <trkpt lat="43.4687070" lon="-5.1048910">
        <ele>2.2</ele>
        <time>2021-07-19T10:03:29Z</time>
      </trkpt>
      <trkpt lat="43.4687200" lon="-5.1049160">
        <ele>2.6</ele>
        <time>2021-07-19T10:03:30Z</time>
      </trkpt>
      <trkpt lat="43.4688170" lon="-5.1050820">
        <ele>3.0</ele>
        <time>2021-07-19T10:03:37Z</time>
      </trkpt>
      <trkpt lat="43.4688290" lon="-5.1051050">
        <ele>3.4</ele>
        <time>2021-07-19T10:03:38Z</time>
      </trkpt>
      <trkpt lat="43.4688390" lon="-5.1051400">
        <ele>3.8</ele>
        <time>2021-07-19T10:03:39Z</time>
      </trkpt>
      <trkpt lat="43.4688440" lon="-5.1051690">
        <ele>4.2</ele>
        <time>2021-07-19T10:03:40Z</time>
      </trkpt>
      <trkpt lat="43.4688520" lon="-5.1051960">
        <ele>4.6</ele>
        <time>2021-07-19T10:03:41Z</time>
      </trkpt>
      <trkpt lat="43.4688500" lon="-5.1053090">
        <ele>4.6</ele>
        <time>2021-07-19T10:03:44Z</time>
      </trkpt>
      <trkpt lat="43.4688140" lon="-5.1055780">
        <ele>5.0</ele>
        <time>2021-07-19T10:03:50Z</time>
      </trkpt>
      <trkpt lat="43.4688080" lon="-5.1056140">
        <ele>5.4</ele>
        <time>2021-07-19T10:03:51Z</time>
      </trkpt>
      <trkpt lat="43.4688030" lon="-5.1056510">
        <ele>5.8</ele>
        <time>2021-07-19T10:03:52Z</time>
      </trkpt>
      <trkpt lat="43.4688030" lon="-5.1056830">
        <ele>6.4</ele>
        <time>2021-07-19T10:03:53Z</time>
      </trkpt>
      <trkpt lat="43.4688030" lon="-5.1057170">
        <ele>6.8</ele>
        <time>2021-07-19T10:03:54Z</time>
      </trkpt>
      <trkpt lat="43.4687770" lon="-5.1058990">
        <ele>6.8</ele>
        <time>2021-07-19T10:03:58Z</time>
      </trkpt>
      <trkpt lat="43.4687700" lon="-5.1062140">
        <ele>6.8</ele>
        <time>2021-07-19T10:04:06Z</time>
      </trkpt>
      <trkpt lat="43.4688120" lon="-5.1063690">
        <ele>7.6</ele>
        <time>2021-07-19T10:04:12Z</time>
      </trkpt>
      <trkpt lat="43.4688200" lon="-5.1063940">
        <ele>8.0</ele>
        <time>2021-07-19T10:04:13Z</time>
      </trkpt>
      <trkpt lat="43.4688280" lon="-5.1064140">
        <ele>8.4</ele>
        <time>2021-07-19T10:04:14Z</time>
      </trkpt>
      <trkpt lat="43.4688390" lon="-5.1064370">
        <ele>8.8</ele>
        <time>2021-07-19T10:04:15Z</time>
      </trkpt>
      <trkpt lat="43.4688800" lon="-5.1065300">
        <ele>8.8</ele>
        <time>2021-07-19T10:04:20Z</time>
      </trkpt>
      <trkpt lat="43.4688870" lon="-5.1065500">
        <ele>9.2</ele>
        <time>2021-07-19T10:04:21Z</time>
      </trkpt>
      <trkpt lat="43.4688940" lon="-5.1065630">
        <ele>9.6</ele>
        <time>2021-07-19T10:04:22Z</time>
      </trkpt>
      <trkpt lat="43.4689050" lon="-5.1065830">
        <ele>10.0</ele>
        <time>2021-07-19T10:04:23Z</time>
      </trkpt>
      <trkpt lat="43.4689120" lon="-5.1065980">
        <ele>10.4</ele>
        <time>2021-07-19T10:04:24Z</time>
      </trkpt>
      <trkpt lat="43.4689210" lon="-5.1066090">
        <ele>10.8</ele>
        <time>2021-07-19T10:04:25Z</time>
      </trkpt>
      <trkpt lat="43.4689410" lon="-5.1066350">
        <ele>10.8</ele>
        <time>2021-07-19T10:04:27Z</time>
      </trkpt>
      <trkpt lat="43.4689560" lon="-5.1066800">
        <ele>11.4</ele>
        <time>2021-07-19T10:04:30Z</time>
      </trkpt>
      <trkpt lat="43.4689610" lon="-5.1066940">
        <ele>11.8</ele>
        <time>2021-07-19T10:04:31Z</time>
      </trkpt>
      <trkpt lat="43.4689650" lon="-5.1067100">
        <ele>12.2</ele>
        <time>2021-07-19T10:04:32Z</time>
      </trkpt>
      <trkpt lat="43.4689700" lon="-5.1067260">
        <ele>12.6</ele>
        <time>2021-07-19T10:04:33Z</time>
      </trkpt>
      <trkpt lat="43.4689760" lon="-5.1067410">
        <ele>13.0</ele>
        <time>2021-07-19T10:04:34Z</time>
      </trkpt>
      <trkpt lat="43.4689970" lon="-5.1067960">
        <ele>13.0</ele>
        <time>2021-07-19T10:04:37Z</time>
      </trkpt>
      <trkpt lat="43.4690020" lon="-5.1068070">
        <ele>13.4</ele>
        <time>2021-07-19T10:04:38Z</time>
      </trkpt>
      <trkpt lat="43.4690100" lon="-5.1068190">
        <ele>13.8</ele>
        <time>2021-07-19T10:04:39Z</time>
      </trkpt>
      <trkpt lat="43.4690130" lon="-5.1068330">
        <ele>14.2</ele>
        <time>2021-07-19T10:04:40Z</time>
      </trkpt>
      <trkpt lat="43.4690160" lon="-5.1068510">
        <ele>14.6</ele>
        <time>2021-07-19T10:04:41Z</time>
      </trkpt>
      <trkpt lat="43.4690210" lon="-5.1068670">
        <ele>15.0</ele>
        <time>2021-07-19T10:04:42Z</time>
      </trkpt>
      <trkpt lat="43.4690370" lon="-5.1069090">
        <ele>15.0</ele>
        <time>2021-07-19T10:04:44Z</time>
      </trkpt>
      <trkpt lat="43.4690490" lon="-5.1069630">
        <ele>15.4</ele>
        <time>2021-07-19T10:04:47Z</time>
      </trkpt>
      <trkpt lat="43.4690570" lon="-5.1069810">
        <ele>15.8</ele>
        <time>2021-07-19T10:04:48Z</time>
      </trkpt>
      <trkpt lat="43.4690610" lon="-5.1070020">
        <ele>16.2</ele>
        <time>2021-07-19T10:04:49Z</time>
      </trkpt>
      <trkpt lat="43.4690680" lon="-5.1070210">
        <ele>16.6</ele>
        <time>2021-07-19T10:04:50Z</time>
      </trkpt>
      <trkpt lat="43.4690750" lon="-5.1070400">
        <ele>17.0</ele>
        <time>2021-07-19T10:04:51Z</time>
      </trkpt>
      <trkpt lat="43.4690900" lon="-5.1071210">
        <ele>17.6</ele>
        <time>2021-07-19T10:04:55Z</time>
      </trkpt>
      <trkpt lat="43.4690990" lon="-5.1071370">
        <ele>18.0</ele>
        <time>2021-07-19T10:04:56Z</time>
      </trkpt>
      <trkpt lat="43.4691030" lon="-5.1071490">
        <ele>18.4</ele>
        <time>2021-07-19T10:04:57Z</time>
      </trkpt>
      <trkpt lat="43.4691100" lon="-5.1071600">
        <ele>18.8</ele>
        <time>2021-07-19T10:04:58Z</time>
      </trkpt>
      <trkpt lat="43.4691070" lon="-5.1071640">
        <ele>19.2</ele>
        <time>2021-07-19T10:04:59Z</time>
      </trkpt>
      <trkpt lat="43.4691200" lon="-5.1072390">
        <ele>19.6</ele>
        <time>2021-07-19T10:05:03Z</time>
      </trkpt>
      <trkpt lat="43.4691170" lon="-5.1072620">
        <ele>20.0</ele>
        <time>2021-07-19T10:05:04Z</time>
      </trkpt>
      <trkpt lat="43.4691190" lon="-5.1072850">
        <ele>20.4</ele>
        <time>2021-07-19T10:05:05Z</time>
      </trkpt>
      <trkpt lat="43.4691230" lon="-5.1073080">
        <ele>20.8</ele>
        <time>2021-07-19T10:05:06Z</time>
      </trkpt>
      <trkpt lat="43.4691260" lon="-5.1073330">
        <ele>21.2</ele>
        <time>2021-07-19T10:05:07Z</time>
      </trkpt>
      <trkpt lat="43.4691320" lon="-5.1073820">
        <ele>21.2</ele>
        <time>2021-07-19T10:05:09Z</time>
      </trkpt>
      <trkpt lat="43.4691330" lon="-5.1074430">
        <ele>21.6</ele>
        <time>2021-07-19T10:05:12Z</time>
      </trkpt>
      <trkpt lat="43.4691310" lon="-5.1074600">
        <ele>22.0</ele>
        <time>2021-07-19T10:05:13Z</time>
      </trkpt>
      <trkpt lat="43.4691300" lon="-5.1074750">
        <ele>22.6</ele>
        <time>2021-07-19T10:05:14Z</time>
      </trkpt>
      <trkpt lat="43.4691320" lon="-5.1074910">
        <ele>23.0</ele>
        <time>2021-07-19T10:05:15Z</time>
      </trkpt>
      <trkpt lat="43.4691320" lon="-5.1075060">
        <ele>23.4</ele>
        <time>2021-07-19T10:05:16Z</time>
      </trkpt>
      <trkpt lat="43.4691110" lon="-5.1076170">
        <ele>23.4</ele>
        <time>2021-07-19T10:05:21Z</time>
      </trkpt>
      <trkpt lat="43.4691090" lon="-5.1076350">
        <ele>23.8</ele>
        <time>2021-07-19T10:05:22Z</time>
      </trkpt>
      <trkpt lat="43.4691090" lon="-5.1076450">
        <ele>24.2</ele>
        <time>2021-07-19T10:05:23Z</time>
      </trkpt>
      <trkpt lat="43.4691000" lon="-5.1076590">
        <ele>24.6</ele>
        <time>2021-07-19T10:05:24Z</time>
      </trkpt>
      <trkpt lat="43.4690940" lon="-5.1076800">
        <ele>25.0</ele>
        <time>2021-07-19T10:05:25Z</time>
      </trkpt>
      <trkpt lat="43.4690920" lon="-5.1077020">
        <ele>25.4</ele>
        <time>2021-07-19T10:05:26Z</time>
      </trkpt>
      <trkpt lat="43.4690910" lon="-5.1077270">
        <ele>25.4</ele>
        <time>2021-07-19T10:05:27Z</time>
      </trkpt>
      <trkpt lat="43.4690910" lon="-5.1078170">
        <ele>25.8</ele>
        <time>2021-07-19T10:05:31Z</time>
      </trkpt>
      <trkpt lat="43.4690860" lon="-5.1078340">
        <ele>26.2</ele>
        <time>2021-07-19T10:05:32Z</time>
      </trkpt>
      <trkpt lat="43.4690890" lon="-5.1078550">
        <ele>26.6</ele>
        <time>2021-07-19T10:05:33Z</time>
      </trkpt>
      <trkpt lat="43.4690870" lon="-5.1078800">
        <ele>27.2</ele>
        <time>2021-07-19T10:05:34Z</time>
      </trkpt>
      <trkpt lat="43.4690860" lon="-5.1078960">
        <ele>27.6</ele>
        <time>2021-07-19T10:05:35Z</time>
      </trkpt>
      <trkpt lat="43.4690820" lon="-5.1080440">
        <ele>28.0</ele>
        <time>2021-07-19T10:05:42Z</time>
      </trkpt>
      <trkpt lat="43.4690810" lon="-5.1080630">
        <ele>28.4</ele>
        <time>2021-07-19T10:05:43Z</time>
      </trkpt>
      <trkpt lat="43.4690760" lon="-5.1080800">
        <ele>28.8</ele>
        <time>2021-07-19T10:05:44Z</time>
      </trkpt>
      <trkpt lat="43.4690730" lon="-5.1081000">
        <ele>29.2</ele>
        <time>2021-07-19T10:05:45Z</time>
      </trkpt>
      <trkpt lat="43.4690690" lon="-5.1081170">
        <ele>29.8</ele>
        <time>2021-07-19T10:05:46Z</time>
      </trkpt>
      <trkpt lat="43.4690720" lon="-5.1081950">
        <ele>29.8</ele>
        <time>2021-07-19T10:05:51Z</time>
      </trkpt>
      <trkpt lat="43.4690650" lon="-5.1082340">
        <ele>30.2</ele>
        <time>2021-07-19T10:05:53Z</time>
      </trkpt>
      <trkpt lat="43.4690610" lon="-5.1082510">
        <ele>30.6</ele>
        <time>2021-07-19T10:05:54Z</time>
      </trkpt>
      <trkpt lat="43.4690540" lon="-5.1082690">
        <ele>31.0</ele>
        <time>2021-07-19T10:05:55Z</time>
      </trkpt>
      <trkpt lat="43.4690480" lon="-5.1082800">
        <ele>31.4</ele>
        <time>2021-07-19T10:05:56Z</time>
      </trkpt>
      <trkpt lat="43.4690390" lon="-5.1083010">
        <ele>31.8</ele>
        <time>2021-07-19T10:05:57Z</time>
      </trkpt>
      <trkpt lat="43.4690320" lon="-5.1083410">
        <ele>31.8</ele>
        <time>2021-07-19T10:05:59Z</time>
      </trkpt>
      <trkpt lat="43.4690100" lon="-5.1084420">
        <ele>32.4</ele>
        <time>2021-07-19T10:06:04Z</time>
      </trkpt>
      <trkpt lat="43.4690040" lon="-5.1084690">
        <ele>32.8</ele>
        <time>2021-07-19T10:06:05Z</time>
      </trkpt>
      <trkpt lat="43.4689980" lon="-5.1084890">
        <ele>33.2</ele>
        <time>2021-07-19T10:06:06Z</time>
      </trkpt>
      <trkpt lat="43.4689930" lon="-5.1085060">
        <ele>33.6</ele>
        <time>2021-07-19T10:06:07Z</time>
      </trkpt>
      <trkpt lat="43.4689890" lon="-5.1085210">
        <ele>34.2</ele>
        <time>2021-07-19T10:06:08Z</time>
      </trkpt>
      <trkpt lat="43.4689760" lon="-5.1086070">
        <ele>34.6</ele>
        <time>2021-07-19T10:06:14Z</time>
      </trkpt>
      <trkpt lat="43.4689720" lon="-5.1086240">
        <ele>35.0</ele>
        <time>2021-07-19T10:06:15Z</time>
      </trkpt>
      <trkpt lat="43.4689680" lon="-5.1086390">
        <ele>36.0</ele>
        <time>2021-07-19T10:06:16Z</time>
      </trkpt>
      <trkpt lat="43.4689650" lon="-5.1086530">
        <ele>36.4</ele>
        <time>2021-07-19T10:06:17Z</time>
      </trkpt>
      <trkpt lat="43.4689190" lon="-5.1087440">
        <ele>36.8</ele>
        <time>2021-07-19T10:06:23Z</time>
      </trkpt>
      <trkpt lat="43.4689130" lon="-5.1087580">
        <ele>37.2</ele>
        <time>2021-07-19T10:06:24Z</time>
      </trkpt>
      <trkpt lat="43.4689080" lon="-5.1087700">
        <ele>37.6</ele>
        <time>2021-07-19T10:06:25Z</time>
      </trkpt>
      <trkpt lat="43.4688990" lon="-5.1087850">
        <ele>38.0</ele>
        <time>2021-07-19T10:06:26Z</time>
      </trkpt>
      <trkpt lat="43.4688940" lon="-5.1088020">
        <ele>38.4</ele>
        <time>2021-07-19T10:06:27Z</time>
      </trkpt>
      <trkpt lat="43.4688570" lon="-5.1088690">
        <ele>38.4</ele>
        <time>2021-07-19T10:06:31Z</time>
      </trkpt>
      <trkpt lat="43.4688380" lon="-5.1089030">
        <ele>38.8</ele>
        <time>2021-07-19T10:06:33Z</time>
      </trkpt>
      <trkpt lat="43.4688260" lon="-5.1089190">
        <ele>39.2</ele>
        <time>2021-07-19T10:06:34Z</time>
      </trkpt>
      <trkpt lat="43.4688150" lon="-5.1089340">
        <ele>39.6</ele>
        <time>2021-07-19T10:06:35Z</time>
      </trkpt>
      <trkpt lat="43.4688040" lon="-5.1089480">
        <ele>40.2</ele>
        <time>2021-07-19T10:06:36Z</time>
      </trkpt>
      <trkpt lat="43.4687940" lon="-5.1089640">
        <ele>40.6</ele>
        <time>2021-07-19T10:06:37Z</time>
      </trkpt>
      <trkpt lat="43.4687860" lon="-5.1089760">
        <ele>40.6</ele>
        <time>2021-07-19T10:06:38Z</time>
      </trkpt>
      <trkpt lat="43.4687630" lon="-5.1090070">
        <ele>41.0</ele>
        <time>2021-07-19T10:06:41Z</time>
      </trkpt>
      <trkpt lat="43.4687480" lon="-5.1090180">
        <ele>41.4</ele>
        <time>2021-07-19T10:06:42Z</time>
      </trkpt>
      <trkpt lat="43.4687390" lon="-5.1090270">
        <ele>41.8</ele>
        <time>2021-07-19T10:06:43Z</time>
      </trkpt>
      <trkpt lat="43.4687280" lon="-5.1090370">
        <ele>42.2</ele>
        <time>2021-07-19T10:06:44Z</time>
      </trkpt>
      <trkpt lat="43.4687150" lon="-5.1090480">
        <ele>42.6</ele>
        <time>2021-07-19T10:06:45Z</time>
      </trkpt>
      <trkpt lat="43.4686310" lon="-5.1091250">
        <ele>43.0</ele>
        <time>2021-07-19T10:06:52Z</time>
      </trkpt>
      <trkpt lat="43.4686180" lon="-5.1091330">
        <ele>43.4</ele>
        <time>2021-07-19T10:06:53Z</time>
      </trkpt>
      <trkpt lat="43.4686060" lon="-5.1091400">
        <ele>43.8</ele>
        <time>2021-07-19T10:06:54Z</time>
      </trkpt>
      <trkpt lat="43.4685930" lon="-5.1091500">
        <ele>44.2</ele>
        <time>2021-07-19T10:06:55Z</time>
      </trkpt>
      <trkpt lat="43.4685800" lon="-5.1091610">
        <ele>44.8</ele>
        <time>2021-07-19T10:06:56Z</time>
      </trkpt>
      <trkpt lat="43.4685160" lon="-5.1092200">
        <ele>44.8</ele>
        <time>2021-07-19T10:07:01Z</time>
      </trkpt>
      <trkpt lat="43.4684890" lon="-5.1092470">
        <ele>45.2</ele>
        <time>2021-07-19T10:07:03Z</time>
      </trkpt>
      <trkpt lat="43.4684770" lon="-5.1092630">
        <ele>45.6</ele>
        <time>2021-07-19T10:07:04Z</time>
      </trkpt>
      <trkpt lat="43.4684630" lon="-5.1092770">
        <ele>46.6</ele>
        <time>2021-07-19T10:07:05Z</time>
      </trkpt>
      <trkpt lat="43.4684480" lon="-5.1092890">
        <ele>47.0</ele>
        <time>2021-07-19T10:07:06Z</time>
      </trkpt>
      <trkpt lat="43.4684320" lon="-5.1093010">
        <ele>47.0</ele>
        <time>2021-07-19T10:07:07Z</time>
      </trkpt>
      <trkpt lat="43.4684210" lon="-5.1093170">
        <ele>47.0</ele>
        <time>2021-07-19T10:07:08Z</time>
      </trkpt>
      <trkpt lat="43.4683690" lon="-5.1093780">
        <ele>47.0</ele>
        <time>2021-07-19T10:07:12Z</time>
      </trkpt>
      <trkpt lat="43.4683200" lon="-5.1094480">
        <ele>47.0</ele>
        <time>2021-07-19T10:07:16Z</time>
      </trkpt>
      <trkpt lat="43.4682800" lon="-5.1095060">
        <ele>47.4</ele>
        <time>2021-07-19T10:07:19Z</time>
      </trkpt>
      <trkpt lat="43.4682660" lon="-5.1095250">
        <ele>47.8</ele>
        <time>2021-07-19T10:07:20Z</time>
      </trkpt>
      <trkpt lat="43.4682530" lon="-5.1095450">
        <ele>48.2</ele>
        <time>2021-07-19T10:07:21Z</time>
      </trkpt>
      <trkpt lat="43.4682370" lon="-5.1095660">
        <ele>48.6</ele>
        <time>2021-07-19T10:07:22Z</time>
      </trkpt>
      <trkpt lat="43.4682210" lon="-5.1095870">
        <ele>49.0</ele>
        <time>2021-07-19T10:07:23Z</time>
      </trkpt>
      <trkpt lat="43.4682050" lon="-5.1096070">
        <ele>49.0</ele>
        <time>2021-07-19T10:07:24Z</time>
      </trkpt>
      <trkpt lat="43.4681000" lon="-5.1097480">
        <ele>49.0</ele>
        <time>2021-07-19T10:07:31Z</time>
      </trkpt>
      <trkpt lat="43.4679970" lon="-5.1098870">
        <ele>49.4</ele>
        <time>2021-07-19T10:07:37Z</time>
      </trkpt>
      <trkpt lat="43.4679780" lon="-5.1099100">
        <ele>49.8</ele>
        <time>2021-07-19T10:07:38Z</time>
      </trkpt>
      <trkpt lat="43.4679580" lon="-5.1099320">
        <ele>50.2</ele>
        <time>2021-07-19T10:07:39Z</time>
      </trkpt>
      <trkpt lat="43.4679380" lon="-5.1099510">
        <ele>50.6</ele>
        <time>2021-07-19T10:07:40Z</time>
      </trkpt>
      <trkpt lat="43.4679200" lon="-5.1099740">
        <ele>51.0</ele>
        <time>2021-07-19T10:07:41Z</time>
      </trkpt>
      <trkpt lat="43.4678440" lon="-5.1100480">
        <ele>51.0</ele>
        <time>2021-07-19T10:07:45Z</time>
      </trkpt>
      <trkpt lat="43.4677250" lon="-5.1101670">
        <ele>51.0</ele>
        <time>2021-07-19T10:07:52Z</time>
      </trkpt>
      <trkpt lat="43.4676940" lon="-5.1101960">
        <ele>52.0</ele>
        <time>2021-07-19T10:07:54Z</time>
      </trkpt>
      <trkpt lat="43.4676800" lon="-5.1102090">
        <ele>52.4</ele>
        <time>2021-07-19T10:07:55Z</time>
      </trkpt>
      <trkpt lat="43.4676670" lon="-5.1102210">
        <ele>52.8</ele>
        <time>2021-07-19T10:07:56Z</time>
      </trkpt>
      <trkpt lat="43.4676530" lon="-5.1102330">
        <ele>53.2</ele>
        <time>2021-07-19T10:07:57Z</time>
      </trkpt>
      <trkpt lat="43.4676270" lon="-5.1102610">
        <ele>53.2</ele>
        <time>2021-07-19T10:07:59Z</time>
      </trkpt>
      <trkpt lat="43.4676110" lon="-5.1102890">
        <ele>53.2</ele>
        <time>2021-07-19T10:08:01Z</time>
      </trkpt>
      <trkpt lat="43.4676110" lon="-5.1102990">
        <ele>53.2</ele>
        <time>2021-07-19T10:08:02Z</time>
      </trkpt>
      <trkpt lat="43.4675980" lon="-5.1103100">
        <ele>53.2</ele>
        <time>2021-07-19T10:08:15Z</time>
      </trkpt>
      <trkpt lat="43.4675840" lon="-5.1103190">
        <ele>53.2</ele>
        <time>2021-07-19T10:08:16Z</time>
      </trkpt>
      <trkpt lat="43.4674910" lon="-5.1103380">
        <ele>53.2</ele>
        <time>2021-07-19T10:08:21Z</time>
      </trkpt>
      <trkpt lat="43.4673630" lon="-5.1104180">
        <ele>53.6</ele>
        <time>2021-07-19T10:08:27Z</time>
      </trkpt>
      <trkpt lat="43.4673430" lon="-5.1104290">
        <ele>54.0</ele>
        <time>2021-07-19T10:08:28Z</time>
      </trkpt>
      <trkpt lat="43.4673230" lon="-5.1104410">
        <ele>54.4</ele>
        <time>2021-07-19T10:08:29Z</time>
      </trkpt>
      <trkpt lat="43.4673010" lon="-5.1104550">
        <ele>54.8</ele>
        <time>2021-07-19T10:08:30Z</time>
      </trkpt>
      <trkpt lat="43.4672770" lon="-5.1104690">
        <ele>55.2</ele>
        <time>2021-07-19T10:08:31Z</time>
      </trkpt>
      <trkpt lat="43.4671740" lon="-5.1105550">
        <ele>55.2</ele>
        <time>2021-07-19T10:08:36Z</time>
      </trkpt>
      <trkpt lat="43.4671100" lon="-5.1106140">
        <ele>55.8</ele>
        <time>2021-07-19T10:08:40Z</time>
      </trkpt>
      <trkpt lat="43.4670930" lon="-5.1106310">
        <ele>56.2</ele>
        <time>2021-07-19T10:08:41Z</time>
      </trkpt>
      <trkpt lat="43.4670800" lon="-5.1106500">
        <ele>56.6</ele>
        <time>2021-07-19T10:08:42Z</time>
      </trkpt>
      <trkpt lat="43.4670720" lon="-5.1106700">
        <ele>57.0</ele>
        <time>2021-07-19T10:08:43Z</time>
      </trkpt>
      <trkpt lat="43.4670670" lon="-5.1106920">
        <ele>57.4</ele>
        <time>2021-07-19T10:08:44Z</time>
      </trkpt>
      <trkpt lat="43.4670290" lon="-5.1107870">
        <ele>57.8</ele>
        <time>2021-07-19T10:08:49Z</time>
      </trkpt>
      <trkpt lat="43.4670200" lon="-5.1108010">
        <ele>58.2</ele>
        <time>2021-07-19T10:08:50Z</time>
      </trkpt>
      <trkpt lat="43.4670110" lon="-5.1108190">
        <ele>58.6</ele>
        <time>2021-07-19T10:08:51Z</time>
      </trkpt>
      <trkpt lat="43.4670010" lon="-5.1108370">
        <ele>59.0</ele>
        <time>2021-07-19T10:08:52Z</time>
      </trkpt>
      <trkpt lat="43.4669920" lon="-5.1108510">
        <ele>59.6</ele>
        <time>2021-07-19T10:08:53Z</time>
      </trkpt>
      <trkpt lat="43.4669770" lon="-5.1108850">
        <ele>59.6</ele>
        <time>2021-07-19T10:08:55Z</time>
      </trkpt>
      <trkpt lat="43.4669300" lon="-5.1109700">
        <ele>60.0</ele>
        <time>2021-07-19T10:09:00Z</time>
      </trkpt>
      <trkpt lat="43.4669210" lon="-5.1109880">
        <ele>60.4</ele>
        <time>2021-07-19T10:09:01Z</time>
      </trkpt>
      <trkpt lat="43.4669120" lon="-5.1110050">
        <ele>60.8</ele>
        <time>2021-07-19T10:09:02Z</time>
      </trkpt>
      <trkpt lat="43.4669040" lon="-5.1110220">
        <ele>61.2</ele>
        <time>2021-07-19T10:09:03Z</time>
      </trkpt>
      <trkpt lat="43.4668960" lon="-5.1110390">
        <ele>61.6</ele>
        <time>2021-07-19T10:09:04Z</time>
      </trkpt>
      <trkpt lat="43.4668360" lon="-5.1111540">
        <ele>62.0</ele>
        <time>2021-07-19T10:09:11Z</time>
      </trkpt>
      <trkpt lat="43.4668280" lon="-5.1111690">
        <ele>62.4</ele>
        <time>2021-07-19T10:09:12Z</time>
      </trkpt>
      <trkpt lat="43.4668190" lon="-5.1111830">
        <ele>63.0</ele>
        <time>2021-07-19T10:09:13Z</time>
      </trkpt>
      <trkpt lat="43.4668100" lon="-5.1111970">
        <ele>63.4</ele>
        <time>2021-07-19T10:09:14Z</time>
      </trkpt>
      <trkpt lat="43.4668020" lon="-5.1112090">
        <ele>63.8</ele>
        <time>2021-07-19T10:09:15Z</time>
      </trkpt>
      <trkpt lat="43.4667720" lon="-5.1112500">
        <ele>63.8</ele>
        <time>2021-07-19T10:09:18Z</time>
      </trkpt>
      <trkpt lat="43.4667590" lon="-5.1112620">
        <ele>63.8</ele>
        <time>2021-07-19T10:09:19Z</time>
      </trkpt>
      <trkpt lat="43.4667320" lon="-5.1113300">
        <ele>64.2</ele>
        <time>2021-07-19T10:09:23Z</time>
      </trkpt>
      <trkpt lat="43.4667250" lon="-5.1113500">
        <ele>64.6</ele>
        <time>2021-07-19T10:09:24Z</time>
      </trkpt>
      <trkpt lat="43.4667170" lon="-5.1113730">
        <ele>65.0</ele>
        <time>2021-07-19T10:09:25Z</time>
      </trkpt>
      <trkpt lat="43.4667090" lon="-5.1113970">
        <ele>65.4</ele>
        <time>2021-07-19T10:09:26Z</time>
      </trkpt>
      <trkpt lat="43.4666990" lon="-5.1114170">
        <ele>65.8</ele>
        <time>2021-07-19T10:09:27Z</time>
      </trkpt>
      <trkpt lat="43.4666810" lon="-5.1114860">
        <ele>65.8</ele>
        <time>2021-07-19T10:09:30Z</time>
      </trkpt>
      <trkpt lat="43.4666740" lon="-5.1115720">
        <ele>66.8</ele>
        <time>2021-07-19T10:09:34Z</time>
      </trkpt>
      <trkpt lat="43.4666730" lon="-5.1115900">
        <ele>67.2</ele>
        <time>2021-07-19T10:09:35Z</time>
      </trkpt>
      <trkpt lat="43.4666750" lon="-5.1116080">
        <ele>67.6</ele>
        <time>2021-07-19T10:09:36Z</time>
      </trkpt>
      <trkpt lat="43.4666760" lon="-5.1116290">
        <ele>68.0</ele>
        <time>2021-07-19T10:09:37Z</time>
      </trkpt>
      <trkpt lat="43.4666880" lon="-5.1117540">
        <ele>68.0</ele>
        <time>2021-07-19T10:09:43Z</time>
      </trkpt>
      <trkpt lat="43.4666910" lon="-5.1117780">
        <ele>68.4</ele>
        <time>2021-07-19T10:09:44Z</time>
      </trkpt>
      <trkpt lat="43.4666940" lon="-5.1118010">
        <ele>68.8</ele>
        <time>2021-07-19T10:09:45Z</time>
      </trkpt>
      <trkpt lat="43.4666970" lon="-5.1118250">
        <ele>69.2</ele>
        <time>2021-07-19T10:09:46Z</time>
      </trkpt>
      <trkpt lat="43.4667030" lon="-5.1118480">
        <ele>69.6</ele>
        <time>2021-07-19T10:09:47Z</time>
      </trkpt>
      <trkpt lat="43.4667090" lon="-5.1118710">
        <ele>70.2</ele>
        <time>2021-07-19T10:09:48Z</time>
      </trkpt>
      <trkpt lat="43.4667260" lon="-5.1119490">
        <ele>70.2</ele>
        <time>2021-07-19T10:09:51Z</time>
      </trkpt>
      <trkpt lat="43.4667500" lon="-5.1120890">
        <ele>70.6</ele>
        <time>2021-07-19T10:09:56Z</time>
      </trkpt>
      <trkpt lat="43.4667580" lon="-5.1121150">
        <ele>71.0</ele>
        <time>2021-07-19T10:09:57Z</time>
      </trkpt>
      <trkpt lat="43.4667670" lon="-5.1121390">
        <ele>71.8</ele>
        <time>2021-07-19T10:09:58Z</time>
      </trkpt>
      <trkpt lat="43.4667750" lon="-5.1121640">
        <ele>72.2</ele>
        <time>2021-07-19T10:09:59Z</time>
      </trkpt>
      <trkpt lat="43.4668220" lon="-5.1123310">
        <ele>72.6</ele>
        <time>2021-07-19T10:10:06Z</time>
      </trkpt>
      <trkpt lat="43.4668280" lon="-5.1123540">
        <ele>73.0</ele>
        <time>2021-07-19T10:10:07Z</time>
      </trkpt>
      <trkpt lat="43.4668310" lon="-5.1123770">
        <ele>73.4</ele>
        <time>2021-07-19T10:10:08Z</time>
      </trkpt>
      <trkpt lat="43.4668370" lon="-5.1123990">
        <ele>73.8</ele>
        <time>2021-07-19T10:10:09Z</time>
      </trkpt>
      <trkpt lat="43.4668450" lon="-5.1124180">
        <ele>74.2</ele>
        <time>2021-07-19T10:10:10Z</time>
      </trkpt>
      <trkpt lat="43.4668660" lon="-5.1125110">
        <ele>74.2</ele>
        <time>2021-07-19T10:10:14Z</time>
      </trkpt>
      <trkpt lat="43.4669240" lon="-5.1127010">
        <ele>74.2</ele>
        <time>2021-07-19T10:10:20Z</time>
      </trkpt>
      <trkpt lat="43.4670260" lon="-5.1129570">
        <ele>74.2</ele>
        <time>2021-07-19T10:10:27Z</time>
      </trkpt>
      <trkpt lat="43.4670560" lon="-5.1130070">
        <ele>74.2</ele>
        <time>2021-07-19T10:10:28Z</time>
      </trkpt>
      <trkpt lat="43.4671200" lon="-5.1130960">
        <ele>74.2</ele>
        <time>2021-07-19T10:10:30Z</time>
      </trkpt>
      <trkpt lat="43.4671720" lon="-5.1131670">
        <ele>74.2</ele>
        <time>2021-07-19T10:10:32Z</time>
      </trkpt>
      <trkpt lat="43.4671890" lon="-5.1131980">
        <ele>74.2</ele>
        <time>2021-07-19T10:10:33Z</time>
      </trkpt>
      <trkpt lat="43.4672350" lon="-5.1133030">
        <ele>74.2</ele>
        <time>2021-07-19T10:10:36Z</time>
      </trkpt>
      <trkpt lat="43.4672770" lon="-5.1133890">
        <ele>74.2</ele>
        <time>2021-07-19T10:10:38Z</time>
      </trkpt>
      <trkpt lat="43.4673340" lon="-5.1134850">
        <ele>74.2</ele>
        <time>2021-07-19T10:10:40Z</time>
      </trkpt>
      <trkpt lat="43.4674080" lon="-5.1135760">
        <ele>74.2</ele>
        <time>2021-07-19T10:10:42Z</time>
      </trkpt>
      <trkpt lat="43.4674930" lon="-5.1136570">
        <ele>74.2</ele>
        <time>2021-07-19T10:10:44Z</time>
      </trkpt>
      <trkpt lat="43.4675360" lon="-5.1136960">
        <ele>73.6</ele>
        <time>2021-07-19T10:10:45Z</time>
      </trkpt>
      <trkpt lat="43.4675780" lon="-5.1137330">
        <ele>73.2</ele>
        <time>2021-07-19T10:10:46Z</time>
      </trkpt>
      <trkpt lat="43.4676200" lon="-5.1137700">
        <ele>72.8</ele>
        <time>2021-07-19T10:10:47Z</time>
      </trkpt>
      <trkpt lat="43.4676600" lon="-5.1138070">
        <ele>72.2</ele>
        <time>2021-07-19T10:10:48Z</time>
      </trkpt>
      <trkpt lat="43.4676980" lon="-5.1138450">
        <ele>71.2</ele>
        <time>2021-07-19T10:10:49Z</time>
      </trkpt>
      <trkpt lat="43.4677350" lon="-5.1138880">
        <ele>70.6</ele>
        <time>2021-07-19T10:10:50Z</time>
      </trkpt>
      <trkpt lat="43.4677720" lon="-5.1139340">
        <ele>70.0</ele>
        <time>2021-07-19T10:10:51Z</time>
      </trkpt>
      <trkpt lat="43.4678130" lon="-5.1139880">
        <ele>69.6</ele>
        <time>2021-07-19T10:10:52Z</time>
      </trkpt>
      <trkpt lat="43.4678570" lon="-5.1140430">
        <ele>69.0</ele>
        <time>2021-07-19T10:10:53Z</time>
      </trkpt>
      <trkpt lat="43.4679010" lon="-5.1141000">
        <ele>68.4</ele>
        <time>2021-07-19T10:10:54Z</time>
      </trkpt>
      <trkpt lat="43.4679440" lon="-5.1141560">
        <ele>68.0</ele>
        <time>2021-07-19T10:10:55Z</time>
      </trkpt>
      <trkpt lat="43.4679850" lon="-5.1142160">
        <ele>67.4</ele>
        <time>2021-07-19T10:10:56Z</time>
      </trkpt>
      <trkpt lat="43.4680230" lon="-5.1142740">
        <ele>66.8</ele>
        <time>2021-07-19T10:10:57Z</time>
      </trkpt>
      <trkpt lat="43.4680640" lon="-5.1143340">
        <ele>66.2</ele>
        <time>2021-07-19T10:10:58Z</time>
      </trkpt>
      <trkpt lat="43.4681040" lon="-5.1143930">
        <ele>65.6</ele>
        <time>2021-07-19T10:10:59Z</time>
      </trkpt>
      <trkpt lat="43.4681470" lon="-5.1144510">
        <ele>65.2</ele>
        <time>2021-07-19T10:11:00Z</time>
      </trkpt>
      <trkpt lat="43.4681920" lon="-5.1145100">
        <ele>64.6</ele>
        <time>2021-07-19T10:11:01Z</time>
      </trkpt>
      <trkpt lat="43.4682400" lon="-5.1145680">
        <ele>64.0</ele>
        <time>2021-07-19T10:11:02Z</time>
      </trkpt>
      <trkpt lat="43.4682890" lon="-5.1146280">
        <ele>63.4</ele>
        <time>2021-07-19T10:11:03Z</time>
      </trkpt>
      <trkpt lat="43.4683340" lon="-5.1146870">
        <ele>63.0</ele>
        <time>2021-07-19T10:11:04Z</time>
      </trkpt>
      <trkpt lat="43.4683790" lon="-5.1147460">
        <ele>62.4</ele>
        <time>2021-07-19T10:11:05Z</time>
      </trkpt>
      <trkpt lat="43.4684220" lon="-5.1147990">
        <ele>61.8</ele>
        <time>2021-07-19T10:11:06Z</time>
      </trkpt>
      <trkpt lat="43.4684660" lon="-5.1148500">
        <ele>61.2</ele>
        <time>2021-07-19T10:11:07Z</time>
      </trkpt>
      <trkpt lat="43.4685090" lon="-5.1148960">
        <ele>60.6</ele>
        <time>2021-07-19T10:11:08Z</time>
      </trkpt>
      <trkpt lat="43.4685520" lon="-5.1149390">
        <ele>60.0</ele>
        <time>2021-07-19T10:11:09Z</time>
      </trkpt>
      <trkpt lat="43.4685960" lon="-5.1149810">
        <ele>59.4</ele>
        <time>2021-07-19T10:11:10Z</time>
      </trkpt>
      <trkpt lat="43.4686420" lon="-5.1150210">
        <ele>58.8</ele>
        <time>2021-07-19T10:11:11Z</time>
      </trkpt>
      <trkpt lat="43.4686910" lon="-5.1150570">
        <ele>58.2</ele>
        <time>2021-07-19T10:11:12Z</time>
      </trkpt>
      <trkpt lat="43.4687390" lon="-5.1150850">
        <ele>57.0</ele>
        <time>2021-07-19T10:11:13Z</time>
      </trkpt>
      <trkpt lat="43.4687870" lon="-5.1151090">
        <ele>56.4</ele>
        <time>2021-07-19T10:11:14Z</time>
      </trkpt>
      <trkpt lat="43.4688370" lon="-5.1151270">
        <ele>55.8</ele>
        <time>2021-07-19T10:11:15Z</time>
      </trkpt>
      <trkpt lat="43.4688870" lon="-5.1151380">
        <ele>55.4</ele>
        <time>2021-07-19T10:11:16Z</time>
      </trkpt>
      <trkpt lat="43.4689380" lon="-5.1151430">
        <ele>54.8</ele>
        <time>2021-07-19T10:11:17Z</time>
      </trkpt>
      <trkpt lat="43.4689880" lon="-5.1151440">
        <ele>54.2</ele>
        <time>2021-07-19T10:11:18Z</time>
      </trkpt>
      <trkpt lat="43.4690300" lon="-5.1151480">
        <ele>53.6</ele>
        <time>2021-07-19T10:11:19Z</time>
      </trkpt>
      <trkpt lat="43.4690700" lon="-5.1151520">
        <ele>53.2</ele>
        <time>2021-07-19T10:11:20Z</time>
      </trkpt>
      <trkpt lat="43.4691070" lon="-5.1151610">
        <ele>52.6</ele>
        <time>2021-07-19T10:11:21Z</time>
      </trkpt>
      <trkpt lat="43.4691400" lon="-5.1151760">
        <ele>52.0</ele>
        <time>2021-07-19T10:11:22Z</time>
      </trkpt>
      <trkpt lat="43.4691690" lon="-5.1152020">
        <ele>51.6</ele>
        <time>2021-07-19T10:11:23Z</time>
      </trkpt>
      <trkpt lat="43.4691940" lon="-5.1152290">
        <ele>51.2</ele>
        <time>2021-07-19T10:11:24Z</time>
      </trkpt>
      <trkpt lat="43.4692150" lon="-5.1152540">
        <ele>50.6</ele>
        <time>2021-07-19T10:11:25Z</time>
      </trkpt>
      <trkpt lat="43.4692350" lon="-5.1152680">
        <ele>50.2</ele>
        <time>2021-07-19T10:11:26Z</time>
      </trkpt>
      <trkpt lat="43.4692530" lon="-5.1152770">
        <ele>49.8</ele>
        <time>2021-07-19T10:11:27Z</time>
      </trkpt>
      <trkpt lat="43.4692690" lon="-5.1152840">
        <ele>49.2</ele>
        <time>2021-07-19T10:11:28Z</time>
      </trkpt>
      <trkpt lat="43.4692780" lon="-5.1152880">
        <ele>48.8</ele>
        <time>2021-07-19T10:11:29Z</time>
      </trkpt>
      <trkpt lat="43.4692890" lon="-5.1152960">
        <ele>48.2</ele>
        <time>2021-07-19T10:11:30Z</time>
      </trkpt>
      <trkpt lat="43.4692980" lon="-5.1153090">
        <ele>47.8</ele>
        <time>2021-07-19T10:11:31Z</time>
      </trkpt>
      <trkpt lat="43.4693060" lon="-5.1153280">
        <ele>47.2</ele>
        <time>2021-07-19T10:11:32Z</time>
      </trkpt>
      <trkpt lat="43.4693800" lon="-5.1154810">
        <ele>47.2</ele>
        <time>2021-07-19T10:11:36Z</time>
      </trkpt>
      <trkpt lat="43.4694280" lon="-5.1155940">
        <ele>46.4</ele>
        <time>2021-07-19T10:11:38Z</time>
      </trkpt>
      <trkpt lat="43.4694630" lon="-5.1156710">
        <ele>45.8</ele>
        <time>2021-07-19T10:11:39Z</time>
      </trkpt>
      <trkpt lat="43.4695300" lon="-5.1157710">
        <ele>45.4</ele>
        <time>2021-07-19T10:11:40Z</time>
      </trkpt>
      <trkpt lat="43.4695760" lon="-5.1158530">
        <ele>45.0</ele>
        <time>2021-07-19T10:11:41Z</time>
      </trkpt>
      <trkpt lat="43.4696190" lon="-5.1159320">
        <ele>44.6</ele>
        <time>2021-07-19T10:11:42Z</time>
      </trkpt>
      <trkpt lat="43.4696670" lon="-5.1160040">
        <ele>44.2</ele>
        <time>2021-07-19T10:11:43Z</time>
      </trkpt>
      <trkpt lat="43.4697130" lon="-5.1160670">
        <ele>43.8</ele>
        <time>2021-07-19T10:11:44Z</time>
      </trkpt>
      <trkpt lat="43.4697470" lon="-5.1161230">
        <ele>43.4</ele>
        <time>2021-07-19T10:11:45Z</time>
      </trkpt>
      <trkpt lat="43.4697770" lon="-5.1161850">
        <ele>43.0</ele>
        <time>2021-07-19T10:11:46Z</time>
      </trkpt>
      <trkpt lat="43.4698170" lon="-5.1164750">
        <ele>43.0</ele>
        <time>2021-07-19T10:11:50Z</time>
      </trkpt>
      <trkpt lat="43.4698140" lon="-5.1165470">
        <ele>42.4</ele>
        <time>2021-07-19T10:11:51Z</time>
      </trkpt>
      <trkpt lat="43.4698100" lon="-5.1166160">
        <ele>42.0</ele>
        <time>2021-07-19T10:11:52Z</time>
      </trkpt>
      <trkpt lat="43.4698070" lon="-5.1166820">
        <ele>41.6</ele>
        <time>2021-07-19T10:11:53Z</time>
      </trkpt>
      <trkpt lat="43.4698050" lon="-5.1167440">
        <ele>41.2</ele>
        <time>2021-07-19T10:11:54Z</time>
      </trkpt>
      <trkpt lat="43.4698000" lon="-5.1168040">
        <ele>40.8</ele>
        <time>2021-07-19T10:11:55Z</time>
      </trkpt>
      <trkpt lat="43.4697920" lon="-5.1168630">
        <ele>40.8</ele>
        <time>2021-07-19T10:11:56Z</time>
      </trkpt>
      <trkpt lat="43.4697690" lon="-5.1169860">
        <ele>40.8</ele>
        <time>2021-07-19T10:11:58Z</time>
      </trkpt>
      <trkpt lat="43.4697330" lon="-5.1172580">
        <ele>40.8</ele>
        <time>2021-07-19T10:12:02Z</time>
      </trkpt>
      <trkpt lat="43.4697290" lon="-5.1173930">
        <ele>40.4</ele>
        <time>2021-07-19T10:12:04Z</time>
      </trkpt>
      <trkpt lat="43.4697280" lon="-5.1174650">
        <ele>40.0</ele>
        <time>2021-07-19T10:12:05Z</time>
      </trkpt>
      <trkpt lat="43.4697270" lon="-5.1175370">
        <ele>39.6</ele>
        <time>2021-07-19T10:12:06Z</time>
      </trkpt>
      <trkpt lat="43.4697250" lon="-5.1176100">
        <ele>39.0</ele>
        <time>2021-07-19T10:12:07Z</time>
      </trkpt>
      <trkpt lat="43.4697270" lon="-5.1176860">
        <ele>38.6</ele>
        <time>2021-07-19T10:12:08Z</time>
      </trkpt>
      <trkpt lat="43.4697340" lon="-5.1177650">
        <ele>38.6</ele>
        <time>2021-07-19T10:12:09Z</time>
      </trkpt>
      <trkpt lat="43.4697540" lon="-5.1179220">
        <ele>38.6</ele>
        <time>2021-07-19T10:12:11Z</time>
      </trkpt>
      <trkpt lat="43.4697790" lon="-5.1181200">
        <ele>38.2</ele>
        <time>2021-07-19T10:12:14Z</time>
      </trkpt>
      <trkpt lat="43.4697860" lon="-5.1181820">
        <ele>37.8</ele>
        <time>2021-07-19T10:12:15Z</time>
      </trkpt>
      <trkpt lat="43.4697920" lon="-5.1182460">
        <ele>37.4</ele>
        <time>2021-07-19T10:12:16Z</time>
      </trkpt>
      <trkpt lat="43.4697980" lon="-5.1183130">
        <ele>37.0</ele>
        <time>2021-07-19T10:12:17Z</time>
      </trkpt>
      <trkpt lat="43.4698100" lon="-5.1183850">
        <ele>36.4</ele>
        <time>2021-07-19T10:12:18Z</time>
      </trkpt>
      <trkpt lat="43.4698600" lon="-5.1185330">
        <ele>36.4</ele>
        <time>2021-07-19T10:12:20Z</time>
      </trkpt>
      <trkpt lat="43.4698860" lon="-5.1186020">
        <ele>36.4</ele>
        <time>2021-07-19T10:12:21Z</time>
      </trkpt>
      <trkpt lat="43.4699390" lon="-5.1187360">
        <ele>36.4</ele>
        <time>2021-07-19T10:12:23Z</time>
      </trkpt>
      <trkpt lat="43.4699900" lon="-5.1188750">
        <ele>36.4</ele>
        <time>2021-07-19T10:12:25Z</time>
      </trkpt>
      <trkpt lat="43.4700350" lon="-5.1190180">
        <ele>35.6</ele>
        <time>2021-07-19T10:12:27Z</time>
      </trkpt>
      <trkpt lat="43.4700570" lon="-5.1190870">
        <ele>35.2</ele>
        <time>2021-07-19T10:12:28Z</time>
      </trkpt>
      <trkpt lat="43.4700790" lon="-5.1191560">
        <ele>34.8</ele>
        <time>2021-07-19T10:12:29Z</time>
      </trkpt>
      <trkpt lat="43.4701030" lon="-5.1192240">
        <ele>34.2</ele>
        <time>2021-07-19T10:12:30Z</time>
      </trkpt>
      <trkpt lat="43.4701520" lon="-5.1193500">
        <ele>34.2</ele>
        <time>2021-07-19T10:12:32Z</time>
      </trkpt>
      <trkpt lat="43.4701930" lon="-5.1194700">
        <ele>34.2</ele>
        <time>2021-07-19T10:12:34Z</time>
      </trkpt>
      <trkpt lat="43.4702310" lon="-5.1196170">
        <ele>33.8</ele>
        <time>2021-07-19T10:12:37Z</time>
      </trkpt>
      <trkpt lat="43.4702410" lon="-5.1196690">
        <ele>33.4</ele>
        <time>2021-07-19T10:12:38Z</time>
      </trkpt>
      <trkpt lat="43.4702530" lon="-5.1197200">
        <ele>33.0</ele>
        <time>2021-07-19T10:12:39Z</time>
      </trkpt>
      <trkpt lat="43.4702650" lon="-5.1197750">
        <ele>32.6</ele>
        <time>2021-07-19T10:12:40Z</time>
      </trkpt>
      <trkpt lat="43.4702770" lon="-5.1198320">
        <ele>32.2</ele>
        <time>2021-07-19T10:12:41Z</time>
      </trkpt>
      <trkpt lat="43.4702950" lon="-5.1199570">
        <ele>32.2</ele>
        <time>2021-07-19T10:12:44Z</time>
      </trkpt>
      <trkpt lat="43.4703400" lon="-5.1200990">
        <ele>31.8</ele>
        <time>2021-07-19T10:12:47Z</time>
      </trkpt>
      <trkpt lat="43.4703600" lon="-5.1201570">
        <ele>31.4</ele>
        <time>2021-07-19T10:12:48Z</time>
      </trkpt>
      <trkpt lat="43.4703830" lon="-5.1202170">
        <ele>31.0</ele>
        <time>2021-07-19T10:12:49Z</time>
      </trkpt>
      <trkpt lat="43.4704100" lon="-5.1202780">
        <ele>30.6</ele>
        <time>2021-07-19T10:12:50Z</time>
      </trkpt>
      <trkpt lat="43.4704380" lon="-5.1203330">
        <ele>30.2</ele>
        <time>2021-07-19T10:12:51Z</time>
      </trkpt>
      <trkpt lat="43.4704850" lon="-5.1204460">
        <ele>30.2</ele>
        <time>2021-07-19T10:12:53Z</time>
      </trkpt>
      <trkpt lat="43.4704990" lon="-5.1205080">
        <ele>30.2</ele>
        <time>2021-07-19T10:12:54Z</time>
      </trkpt>
      <trkpt lat="43.4705430" lon="-5.1207970">
        <ele>30.2</ele>
        <time>2021-07-19T10:12:59Z</time>
      </trkpt>
      <trkpt lat="43.4705910" lon="-5.1210970">
        <ele>29.8</ele>
        <time>2021-07-19T10:13:02Z</time>
      </trkpt>
      <trkpt lat="43.4706170" lon="-5.1211980">
        <ele>29.4</ele>
        <time>2021-07-19T10:13:03Z</time>
      </trkpt>
      <trkpt lat="43.4706440" lon="-5.1212950">
        <ele>29.0</ele>
        <time>2021-07-19T10:13:04Z</time>
      </trkpt>
      <trkpt lat="43.4706680" lon="-5.1213980">
        <ele>28.6</ele>
        <time>2021-07-19T10:13:05Z</time>
      </trkpt>
      <trkpt lat="43.4706900" lon="-5.1214860">
        <ele>28.2</ele>
        <time>2021-07-19T10:13:06Z</time>
      </trkpt>
      <trkpt lat="43.4707730" lon="-5.1218070">
        <ele>28.2</ele>
        <time>2021-07-19T10:13:10Z</time>
      </trkpt>
      <trkpt lat="43.4707910" lon="-5.1218790">
        <ele>27.8</ele>
        <time>2021-07-19T10:13:11Z</time>
      </trkpt>
      <trkpt lat="43.4708080" lon="-5.1219530">
        <ele>27.4</ele>
        <time>2021-07-19T10:13:12Z</time>
      </trkpt>
      <trkpt lat="43.4708250" lon="-5.1220300">
        <ele>26.8</ele>
        <time>2021-07-19T10:13:13Z</time>
      </trkpt>
      <trkpt lat="43.4708420" lon="-5.1221000">
        <ele>26.4</ele>
        <time>2021-07-19T10:13:14Z</time>
      </trkpt>
      <trkpt lat="43.4708630" lon="-5.1221650">
        <ele>26.0</ele>
        <time>2021-07-19T10:13:15Z</time>
      </trkpt>
      <trkpt lat="43.4709080" lon="-5.1222840">
        <ele>26.0</ele>
        <time>2021-07-19T10:13:17Z</time>
      </trkpt>
      <trkpt lat="43.4709340" lon="-5.1223370">
        <ele>26.0</ele>
        <time>2021-07-19T10:13:18Z</time>
      </trkpt>
      <trkpt lat="43.4710130" lon="-5.1225560">
        <ele>26.0</ele>
        <time>2021-07-19T10:13:22Z</time>
      </trkpt>
      <trkpt lat="43.4710600" lon="-5.1226810">
        <ele>26.0</ele>
        <time>2021-07-19T10:13:25Z</time>
      </trkpt>
      <trkpt lat="43.4710980" lon="-5.1227710">
        <ele>26.0</ele>
        <time>2021-07-19T10:13:27Z</time>
      </trkpt>
      <trkpt lat="43.4711220" lon="-5.1228160">
        <ele>26.0</ele>
        <time>2021-07-19T10:13:28Z</time>
      </trkpt>
      <trkpt lat="43.4711650" lon="-5.1229030">
        <ele>26.0</ele>
        <time>2021-07-19T10:13:30Z</time>
      </trkpt>
      <trkpt lat="43.4711850" lon="-5.1229440">
        <ele>26.0</ele>
        <time>2021-07-19T10:13:31Z</time>
      </trkpt>
      <trkpt lat="43.4712240" lon="-5.1230260">
        <ele>26.0</ele>
        <time>2021-07-19T10:13:33Z</time>
      </trkpt>
      <trkpt lat="43.4712790" lon="-5.1231320">
        <ele>26.0</ele>
        <time>2021-07-19T10:13:36Z</time>
      </trkpt>
      <trkpt lat="43.4713440" lon="-5.1232460">
        <ele>26.0</ele>
        <time>2021-07-19T10:13:39Z</time>
      </trkpt>
      <trkpt lat="43.4714180" lon="-5.1233540">
        <ele>26.0</ele>
        <time>2021-07-19T10:13:42Z</time>
      </trkpt>
      <trkpt lat="43.4714890" lon="-5.1234620">
        <ele>26.0</ele>
        <time>2021-07-19T10:13:45Z</time>
      </trkpt>
      <trkpt lat="43.4715110" lon="-5.1234990">
        <ele>26.0</ele>
        <time>2021-07-19T10:13:46Z</time>
      </trkpt>
      <trkpt lat="43.4715600" lon="-5.1235670">
        <ele>26.4</ele>
        <time>2021-07-19T10:13:48Z</time>
      </trkpt>
      <trkpt lat="43.4715870" lon="-5.1235980">
        <ele>26.8</ele>
        <time>2021-07-19T10:13:49Z</time>
      </trkpt>
      <trkpt lat="43.4716110" lon="-5.1236290">
        <ele>27.2</ele>
        <time>2021-07-19T10:13:50Z</time>
      </trkpt>
      <trkpt lat="43.4716360" lon="-5.1236540">
        <ele>27.6</ele>
        <time>2021-07-19T10:13:51Z</time>
      </trkpt>
      <trkpt lat="43.4716610" lon="-5.1236760">
        <ele>28.0</ele>
        <time>2021-07-19T10:13:52Z</time>
      </trkpt>
      <trkpt lat="43.4717910" lon="-5.1237720">
        <ele>28.0</ele>
        <time>2021-07-19T10:13:57Z</time>
      </trkpt>
      <trkpt lat="43.4718480" lon="-5.1237930">
        <ele>28.0</ele>
        <time>2021-07-19T10:13:59Z</time>
      </trkpt>
      <trkpt lat="43.4720710" lon="-5.1237930">
        <ele>28.0</ele>
        <time>2021-07-19T10:14:07Z</time>
      </trkpt>
      <trkpt lat="43.4722390" lon="-5.1237960">
        <ele>28.0</ele>
        <time>2021-07-19T10:14:11Z</time>
      </trkpt>
      <trkpt lat="43.4724020" lon="-5.1238020">
        <ele>28.0</ele>
        <time>2021-07-19T10:14:14Z</time>
      </trkpt>
      <trkpt lat="43.4725080" lon="-5.1238590">
        <ele>28.0</ele>
        <time>2021-07-19T10:14:16Z</time>
      </trkpt>
      <trkpt lat="43.4725970" lon="-5.1239510">
        <ele>28.0</ele>
        <time>2021-07-19T10:14:18Z</time>
      </trkpt>
      <trkpt lat="43.4726920" lon="-5.1241060">
        <ele>28.0</ele>
        <time>2021-07-19T10:14:21Z</time>
      </trkpt>
      <trkpt lat="43.4727380" lon="-5.1242110">
        <ele>28.0</ele>
        <time>2021-07-19T10:14:23Z</time>
      </trkpt>
      <trkpt lat="43.4728060" lon="-5.1243820">
        <ele>28.0</ele>
        <time>2021-07-19T10:14:27Z</time>
      </trkpt>
      <trkpt lat="43.4729410" lon="-5.1247270">
        <ele>28.0</ele>
        <time>2021-07-19T10:14:36Z</time>
      </trkpt>
      <trkpt lat="43.4730030" lon="-5.1248910">
        <ele>28.6</ele>
        <time>2021-07-19T10:14:41Z</time>
      </trkpt>
      <trkpt lat="43.4730110" lon="-5.1249230">
        <ele>29.0</ele>
        <time>2021-07-19T10:14:42Z</time>
      </trkpt>
      <trkpt lat="43.4730220" lon="-5.1249550">
        <ele>29.4</ele>
        <time>2021-07-19T10:14:43Z</time>
      </trkpt>
      <trkpt lat="43.4730350" lon="-5.1249880">
        <ele>29.8</ele>
        <time>2021-07-19T10:14:44Z</time>
      </trkpt>
      <trkpt lat="43.4730490" lon="-5.1250190">
        <ele>30.2</ele>
        <time>2021-07-19T10:14:45Z</time>
      </trkpt>
      <trkpt lat="43.4731090" lon="-5.1251270">
        <ele>30.2</ele>
        <time>2021-07-19T10:14:49Z</time>
      </trkpt>
      <trkpt lat="43.4731950" lon="-5.1252930">
        <ele>30.6</ele>
        <time>2021-07-19T10:14:57Z</time>
      </trkpt>
      <trkpt lat="43.4732050" lon="-5.1253120">
        <ele>31.0</ele>
        <time>2021-07-19T10:14:58Z</time>
      </trkpt>
      <trkpt lat="43.4732150" lon="-5.1253290">
        <ele>31.4</ele>
        <time>2021-07-19T10:14:59Z</time>
      </trkpt>
      <trkpt lat="43.4732260" lon="-5.1253420">
        <ele>31.8</ele>
        <time>2021-07-19T10:15:00Z</time>
      </trkpt>
      <trkpt lat="43.4732370" lon="-5.1253560">
        <ele>32.2</ele>
        <time>2021-07-19T10:15:01Z</time>
      </trkpt>
      <trkpt lat="43.4732800" lon="-5.1254040">
        <ele>32.2</ele>
        <time>2021-07-19T10:15:05Z</time>
      </trkpt>
      <trkpt lat="43.4732940" lon="-5.1254110">
        <ele>32.2</ele>
        <time>2021-07-19T10:15:06Z</time>
      </trkpt>
      <trkpt lat="43.4733060" lon="-5.1254170">
        <ele>32.6</ele>
        <time>2021-07-19T10:15:07Z</time>
      </trkpt>
      <trkpt lat="43.4733190" lon="-5.1254210">
        <ele>33.2</ele>
        <time>2021-07-19T10:15:08Z</time>
      </trkpt>
      <trkpt lat="43.4733330" lon="-5.1254220">
        <ele>33.6</ele>
        <time>2021-07-19T10:15:09Z</time>
      </trkpt>
      <trkpt lat="43.4733470" lon="-5.1254210">
        <ele>34.0</ele>
        <time>2021-07-19T10:15:10Z</time>
      </trkpt>
      <trkpt lat="43.4733610" lon="-5.1254190">
        <ele>34.4</ele>
        <time>2021-07-19T10:15:11Z</time>
      </trkpt>
      <trkpt lat="43.4733890" lon="-5.1254160">
        <ele>34.4</ele>
        <time>2021-07-19T10:15:13Z</time>
      </trkpt>
      <trkpt lat="43.4734720" lon="-5.1254080">
        <ele>34.4</ele>
        <time>2021-07-19T10:15:19Z</time>
      </trkpt>
      <trkpt lat="43.4735120" lon="-5.1254100">
        <ele>34.8</ele>
        <time>2021-07-19T10:15:21Z</time>
      </trkpt>
      <trkpt lat="43.4735260" lon="-5.1254160">
        <ele>35.2</ele>
        <time>2021-07-19T10:15:22Z</time>
      </trkpt>
      <trkpt lat="43.4735380" lon="-5.1254220">
        <ele>35.6</ele>
        <time>2021-07-19T10:15:23Z</time>
      </trkpt>
      <trkpt lat="43.4735490" lon="-5.1254330">
        <ele>36.0</ele>
        <time>2021-07-19T10:15:24Z</time>
      </trkpt>
      <trkpt lat="43.4735600" lon="-5.1254430">
        <ele>36.6</ele>
        <time>2021-07-19T10:15:25Z</time>
      </trkpt>
      <trkpt lat="43.4736490" lon="-5.1254770">
        <ele>37.0</ele>
        <time>2021-07-19T10:15:31Z</time>
      </trkpt>
      <trkpt lat="43.4736590" lon="-5.1254790">
        <ele>37.4</ele>
        <time>2021-07-19T10:15:32Z</time>
      </trkpt>
      <trkpt lat="43.4736700" lon="-5.1254810">
        <ele>37.8</ele>
        <time>2021-07-19T10:15:33Z</time>
      </trkpt>
      <trkpt lat="43.4736820" lon="-5.1254860">
        <ele>38.4</ele>
        <time>2021-07-19T10:15:34Z</time>
      </trkpt>
      <trkpt lat="43.4736910" lon="-5.1254900">
        <ele>38.8</ele>
        <time>2021-07-19T10:15:35Z</time>
      </trkpt>
      <trkpt lat="43.4737100" lon="-5.1254920">
        <ele>38.8</ele>
        <time>2021-07-19T10:15:37Z</time>
      </trkpt>
      <trkpt lat="43.4737890" lon="-5.1254910">
        <ele>39.2</ele>
        <time>2021-07-19T10:15:43Z</time>
      </trkpt>
      <trkpt lat="43.4738030" lon="-5.1254890">
        <ele>40.0</ele>
        <time>2021-07-19T10:15:44Z</time>
      </trkpt>
      <trkpt lat="43.4738170" lon="-5.1254880">
        <ele>40.4</ele>
        <time>2021-07-19T10:15:45Z</time>
      </trkpt>
      <trkpt lat="43.4738290" lon="-5.1254850">
        <ele>40.8</ele>
        <time>2021-07-19T10:15:46Z</time>
      </trkpt>
      <trkpt lat="43.4739520" lon="-5.1254690">
        <ele>40.8</ele>
        <time>2021-07-19T10:15:54Z</time>
      </trkpt>
      <trkpt lat="43.4739940" lon="-5.1254620">
        <ele>41.2</ele>
        <time>2021-07-19T10:15:56Z</time>
      </trkpt>
      <trkpt lat="43.4740110" lon="-5.1254620">
        <ele>41.6</ele>
        <time>2021-07-19T10:15:57Z</time>
      </trkpt>
      <trkpt lat="43.4740280" lon="-5.1254660">
        <ele>42.0</ele>
        <time>2021-07-19T10:15:58Z</time>
      </trkpt>
      <trkpt lat="43.4740450" lon="-5.1254700">
        <ele>42.4</ele>
        <time>2021-07-19T10:15:59Z</time>
      </trkpt>
      <trkpt lat="43.4740590" lon="-5.1254730">
        <ele>43.0</ele>
        <time>2021-07-19T10:16:00Z</time>
      </trkpt>
      <trkpt lat="43.4740710" lon="-5.1254710">
        <ele>43.0</ele>
        <time>2021-07-19T10:16:01Z</time>
      </trkpt>
      <trkpt lat="43.4741390" lon="-5.1255090">
        <ele>43.0</ele>
        <time>2021-07-19T10:16:06Z</time>
      </trkpt>
      <trkpt lat="43.4741770" lon="-5.1255390">
        <ele>43.4</ele>
        <time>2021-07-19T10:16:08Z</time>
      </trkpt>
      <trkpt lat="43.4741960" lon="-5.1255550">
        <ele>44.2</ele>
        <time>2021-07-19T10:16:09Z</time>
      </trkpt>
      <trkpt lat="43.4742140" lon="-5.1255720">
        <ele>44.6</ele>
        <time>2021-07-19T10:16:10Z</time>
      </trkpt>
      <trkpt lat="43.4742350" lon="-5.1255900">
        <ele>45.0</ele>
        <time>2021-07-19T10:16:11Z</time>
      </trkpt>
      <trkpt lat="43.4742800" lon="-5.1256310">
        <ele>45.0</ele>
        <time>2021-07-19T10:16:13Z</time>
      </trkpt>
      <trkpt lat="43.4743970" lon="-5.1257220">
        <ele>45.0</ele>
        <time>2021-07-19T10:16:18Z</time>
      </trkpt>
      <trkpt lat="43.4744220" lon="-5.1257410">
        <ele>45.0</ele>
        <time>2021-07-19T10:16:19Z</time>
      </trkpt>
      <trkpt lat="43.4745860" lon="-5.1259000">
        <ele>45.0</ele>
        <time>2021-07-19T10:16:24Z</time>
      </trkpt>
      <trkpt lat="43.4746610" lon="-5.1259880">
        <ele>45.0</ele>
        <time>2021-07-19T10:16:26Z</time>
      </trkpt>
      <trkpt lat="43.4747280" lon="-5.1260480">
        <ele>45.0</ele>
        <time>2021-07-19T10:16:28Z</time>
      </trkpt>
      <trkpt lat="43.4747550" lon="-5.1260730">
        <ele>45.0</ele>
        <time>2021-07-19T10:16:29Z</time>
      </trkpt>
      <trkpt lat="43.4748110" lon="-5.1261210">
        <ele>44.6</ele>
        <time>2021-07-19T10:16:31Z</time>
      </trkpt>
      <trkpt lat="43.4748450" lon="-5.1261440">
        <ele>44.0</ele>
        <time>2021-07-19T10:16:32Z</time>
      </trkpt>
      <trkpt lat="43.4748870" lon="-5.1261680">
        <ele>43.6</ele>
        <time>2021-07-19T10:16:33Z</time>
      </trkpt>
      <trkpt lat="43.4749350" lon="-5.1261960">
        <ele>42.6</ele>
        <time>2021-07-19T10:16:34Z</time>
      </trkpt>
      <trkpt lat="43.4749800" lon="-5.1262280">
        <ele>42.6</ele>
        <time>2021-07-19T10:16:35Z</time>
      </trkpt>
      <trkpt lat="43.4750220" lon="-5.1262630">
        <ele>42.6</ele>
        <time>2021-07-19T10:16:36Z</time>
      </trkpt>
      <trkpt lat="43.4750590" lon="-5.1262980">
        <ele>42.2</ele>
        <time>2021-07-19T10:16:37Z</time>
      </trkpt>
      <trkpt lat="43.4750910" lon="-5.1263270">
        <ele>41.6</ele>
        <time>2021-07-19T10:16:38Z</time>
      </trkpt>
      <trkpt lat="43.4751210" lon="-5.1263580">
        <ele>41.0</ele>
        <time>2021-07-19T10:16:39Z</time>
      </trkpt>
      <trkpt lat="43.4751550" lon="-5.1263910">
        <ele>40.6</ele>
        <time>2021-07-19T10:16:40Z</time>
      </trkpt>
      <trkpt lat="43.4751960" lon="-5.1264320">
        <ele>40.0</ele>
        <time>2021-07-19T10:16:41Z</time>
      </trkpt>
      <trkpt lat="43.4752350" lon="-5.1264730">
        <ele>39.6</ele>
        <time>2021-07-19T10:16:42Z</time>
      </trkpt>
      <trkpt lat="43.4752720" lon="-5.1265060">
        <ele>39.0</ele>
        <time>2021-07-19T10:16:43Z</time>
      </trkpt>
      <trkpt lat="43.4752980" lon="-5.1265260">
        <ele>38.4</ele>
        <time>2021-07-19T10:16:44Z</time>
      </trkpt>
      <trkpt lat="43.4753200" lon="-5.1265450">
        <ele>37.8</ele>
        <time>2021-07-19T10:16:45Z</time>
      </trkpt>
      <trkpt lat="43.4753420" lon="-5.1265750">
        <ele>37.0</ele>
        <time>2021-07-19T10:16:46Z</time>
      </trkpt>
      <trkpt lat="43.4753660" lon="-5.1266100">
        <ele>36.4</ele>
        <time>2021-07-19T10:16:47Z</time>
      </trkpt>
      <trkpt lat="43.4753940" lon="-5.1266480">
        <ele>35.8</ele>
        <time>2021-07-19T10:16:48Z</time>
      </trkpt>
      <trkpt lat="43.4754260" lon="-5.1266890">
        <ele>35.4</ele>
        <time>2021-07-19T10:16:49Z</time>
      </trkpt>
      <trkpt lat="43.4754510" lon="-5.1267230">
        <ele>34.8</ele>
        <time>2021-07-19T10:16:50Z</time>
      </trkpt>
      <trkpt lat="43.4754710" lon="-5.1267520">
        <ele>34.2</ele>
        <time>2021-07-19T10:16:51Z</time>
      </trkpt>
      <trkpt lat="43.4754840" lon="-5.1267740">
        <ele>33.6</ele>
        <time>2021-07-19T10:16:52Z</time>
      </trkpt>
      <trkpt lat="43.4755130" lon="-5.1268300">
        <ele>33.2</ele>
        <time>2021-07-19T10:16:54Z</time>
      </trkpt>
      <trkpt lat="43.4755310" lon="-5.1268630">
        <ele>32.8</ele>
        <time>2021-07-19T10:16:55Z</time>
      </trkpt>
      <trkpt lat="43.4755540" lon="-5.1268990">
        <ele>32.4</ele>
        <time>2021-07-19T10:16:56Z</time>
      </trkpt>
      <trkpt lat="43.4755800" lon="-5.1269360">
        <ele>31.8</ele>
        <time>2021-07-19T10:16:57Z</time>
      </trkpt>
      <trkpt lat="43.4756110" lon="-5.1269770">
        <ele>31.4</ele>
        <time>2021-07-19T10:16:58Z</time>
      </trkpt>
      <trkpt lat="43.4757710" lon="-5.1271830">
        <ele>31.0</ele>
        <time>2021-07-19T10:17:03Z</time>
      </trkpt>
      <trkpt lat="43.4758030" lon="-5.1272250">
        <ele>30.6</ele>
        <time>2021-07-19T10:17:04Z</time>
      </trkpt>
      <trkpt lat="43.4758380" lon="-5.1272640">
        <ele>30.2</ele>
        <time>2021-07-19T10:17:05Z</time>
      </trkpt>
      <trkpt lat="43.4758790" lon="-5.1273050">
        <ele>29.8</ele>
        <time>2021-07-19T10:17:06Z</time>
      </trkpt>
      <trkpt lat="43.4759170" lon="-5.1273450">
        <ele>29.4</ele>
        <time>2021-07-19T10:17:07Z</time>
      </trkpt>
      <trkpt lat="43.4759520" lon="-5.1273850">
        <ele>28.8</ele>
        <time>2021-07-19T10:17:08Z</time>
      </trkpt>
      <trkpt lat="43.4759850" lon="-5.1274240">
        <ele>28.4</ele>
        <time>2021-07-19T10:17:09Z</time>
      </trkpt>
      <trkpt lat="43.4760160" lon="-5.1274600">
        <ele>27.8</ele>
        <time>2021-07-19T10:17:10Z</time>
      </trkpt>
      <trkpt lat="43.4760450" lon="-5.1274910">
        <ele>27.0</ele>
        <time>2021-07-19T10:17:11Z</time>
      </trkpt>
      <trkpt lat="43.4760700" lon="-5.1275160">
        <ele>26.4</ele>
        <time>2021-07-19T10:17:12Z</time>
      </trkpt>
      <trkpt lat="43.4760920" lon="-5.1275380">
        <ele>25.6</ele>
        <time>2021-07-19T10:17:13Z</time>
      </trkpt>
      <trkpt lat="43.4761160" lon="-5.1275600">
        <ele>25.0</ele>
        <time>2021-07-19T10:17:14Z</time>
      </trkpt>
      <trkpt lat="43.4761380" lon="-5.1275770">
        <ele>24.4</ele>
        <time>2021-07-19T10:17:15Z</time>
      </trkpt>
      <trkpt lat="43.4761550" lon="-5.1275930">
        <ele>23.8</ele>
        <time>2021-07-19T10:17:16Z</time>
      </trkpt>
      <trkpt lat="43.4761740" lon="-5.1276070">
        <ele>23.2</ele>
        <time>2021-07-19T10:17:17Z</time>
      </trkpt>
      <trkpt lat="43.4761920" lon="-5.1276210">
        <ele>22.6</ele>
        <time>2021-07-19T10:17:18Z</time>
      </trkpt>
      <trkpt lat="43.4762100" lon="-5.1276300">
        <ele>22.0</ele>
        <time>2021-07-19T10:17:19Z</time>
      </trkpt>
      <trkpt lat="43.4762280" lon="-5.1276430">
        <ele>21.6</ele>
        <time>2021-07-19T10:17:20Z</time>
      </trkpt>
      <trkpt lat="43.4762520" lon="-5.1276560">
        <ele>21.2</ele>
        <time>2021-07-19T10:17:21Z</time>
      </trkpt>
      <trkpt lat="43.4762780" lon="-5.1276630">
        <ele>20.6</ele>
        <time>2021-07-19T10:17:22Z</time>
      </trkpt>
      <trkpt lat="43.4763120" lon="-5.1276610">
        <ele>20.2</ele>
        <time>2021-07-19T10:17:23Z</time>
      </trkpt>
      <trkpt lat="43.4763550" lon="-5.1276590">
        <ele>19.8</ele>
        <time>2021-07-19T10:17:24Z</time>
      </trkpt>
      <trkpt lat="43.4764010" lon="-5.1276590">
        <ele>19.4</ele>
        <time>2021-07-19T10:17:25Z</time>
      </trkpt>
      <trkpt lat="43.4764480" lon="-5.1276610">
        <ele>19.0</ele>
        <time>2021-07-19T10:17:26Z</time>
      </trkpt>
      <trkpt lat="43.4764950" lon="-5.1276580">
        <ele>18.6</ele>
        <time>2021-07-19T10:17:27Z</time>
      </trkpt>
      <trkpt lat="43.4765400" lon="-5.1276520">
        <ele>18.2</ele>
        <time>2021-07-19T10:17:28Z</time>
      </trkpt>
      <trkpt lat="43.4766140" lon="-5.1276540">
        <ele>17.8</ele>
        <time>2021-07-19T10:17:30Z</time>
      </trkpt>
      <trkpt lat="43.4766460" lon="-5.1276570">
        <ele>17.2</ele>
        <time>2021-07-19T10:17:31Z</time>
      </trkpt>
      <trkpt lat="43.4766740" lon="-5.1276550">
        <ele>16.8</ele>
        <time>2021-07-19T10:17:32Z</time>
      </trkpt>
      <trkpt lat="43.4767040" lon="-5.1276580">
        <ele>16.4</ele>
        <time>2021-07-19T10:17:33Z</time>
      </trkpt>
      <trkpt lat="43.4767320" lon="-5.1276640">
        <ele>16.0</ele>
        <time>2021-07-19T10:17:34Z</time>
      </trkpt>
      <trkpt lat="43.4767570" lon="-5.1276790">
        <ele>16.0</ele>
        <time>2021-07-19T10:17:35Z</time>
      </trkpt>
      <trkpt lat="43.4768070" lon="-5.1277390">
        <ele>16.0</ele>
        <time>2021-07-19T10:17:39Z</time>
      </trkpt>
      <trkpt lat="43.4768180" lon="-5.1277650">
        <ele>16.0</ele>
        <time>2021-07-19T10:17:49Z</time>
      </trkpt>
      <trkpt lat="43.4768890" lon="-5.1279090">
        <ele>16.0</ele>
        <time>2021-07-19T10:17:55Z</time>
      </trkpt>
      <trkpt lat="43.4768990" lon="-5.1280500">
        <ele>16.0</ele>
        <time>2021-07-19T10:17:59Z</time>
      </trkpt>
      <trkpt lat="43.4768910" lon="-5.1281280">
        <ele>16.0</ele>
        <time>2021-07-19T10:18:01Z</time>
      </trkpt>
      <trkpt lat="43.4768850" lon="-5.1281720">
        <ele>16.0</ele>
        <time>2021-07-19T10:18:02Z</time>
      </trkpt>
      <trkpt lat="43.4768710" lon="-5.1283330">
        <ele>16.0</ele>
        <time>2021-07-19T10:18:05Z</time>
      </trkpt>
      <trkpt lat="43.4768510" lon="-5.1284940">
        <ele>15.4</ele>
        <time>2021-07-19T10:18:08Z</time>
      </trkpt>
      <trkpt lat="43.4768440" lon="-5.1285530">
        <ele>15.0</ele>
        <time>2021-07-19T10:18:09Z</time>
      </trkpt>
      <trkpt lat="43.4768360" lon="-5.1286210">
        <ele>14.6</ele>
        <time>2021-07-19T10:18:10Z</time>
      </trkpt>
      <trkpt lat="43.4768280" lon="-5.1286930">
        <ele>14.2</ele>
        <time>2021-07-19T10:18:11Z</time>
      </trkpt>
      <trkpt lat="43.4768260" lon="-5.1287590">
        <ele>13.6</ele>
        <time>2021-07-19T10:18:12Z</time>
      </trkpt>
      <trkpt lat="43.4768250" lon="-5.1288230">
        <ele>13.2</ele>
        <time>2021-07-19T10:18:13Z</time>
      </trkpt>
      <trkpt lat="43.4768250" lon="-5.1288810">
        <ele>12.8</ele>
        <time>2021-07-19T10:18:14Z</time>
      </trkpt>
      <trkpt lat="43.4768260" lon="-5.1289350">
        <ele>12.4</ele>
        <time>2021-07-19T10:18:15Z</time>
      </trkpt>
      <trkpt lat="43.4768310" lon="-5.1289870">
        <ele>12.0</ele>
        <time>2021-07-19T10:18:16Z</time>
      </trkpt>
      <trkpt lat="43.4768370" lon="-5.1290350">
        <ele>11.4</ele>
        <time>2021-07-19T10:18:17Z</time>
      </trkpt>
      <trkpt lat="43.4768400" lon="-5.1290740">
        <ele>11.0</ele>
        <time>2021-07-19T10:18:18Z</time>
      </trkpt>
      <trkpt lat="43.4768380" lon="-5.1291120">
        <ele>10.6</ele>
        <time>2021-07-19T10:18:19Z</time>
      </trkpt>
      <trkpt lat="43.4768330" lon="-5.1291540">
        <ele>10.0</ele>
        <time>2021-07-19T10:18:20Z</time>
      </trkpt>
      <trkpt lat="43.4768270" lon="-5.1291990">
        <ele>9.6</ele>
        <time>2021-07-19T10:18:21Z</time>
      </trkpt>
      <trkpt lat="43.4768220" lon="-5.1292400">
        <ele>9.0</ele>
        <time>2021-07-19T10:18:22Z</time>
      </trkpt>
      <trkpt lat="43.4768180" lon="-5.1293100">
        <ele>8.6</ele>
        <time>2021-07-19T10:18:24Z</time>
      </trkpt>
      <trkpt lat="43.4768180" lon="-5.1293460">
        <ele>8.0</ele>
        <time>2021-07-19T10:18:25Z</time>
      </trkpt>
      <trkpt lat="43.4768200" lon="-5.1293810">
        <ele>7.6</ele>
        <time>2021-07-19T10:18:26Z</time>
      </trkpt>
      <trkpt lat="43.4768210" lon="-5.1294110">
        <ele>7.2</ele>
        <time>2021-07-19T10:18:27Z</time>
      </trkpt>
      <trkpt lat="43.4768230" lon="-5.1294450">
        <ele>6.6</ele>
        <time>2021-07-19T10:18:28Z</time>
      </trkpt>
      <trkpt lat="43.4768270" lon="-5.1295150">
        <ele>6.2</ele>
        <time>2021-07-19T10:18:30Z</time>
      </trkpt>
      <trkpt lat="43.4768420" lon="-5.1295560">
        <ele>5.6</ele>
        <time>2021-07-19T10:18:31Z</time>
      </trkpt>
      <trkpt lat="43.4768560" lon="-5.1295980">
        <ele>5.2</ele>
        <time>2021-07-19T10:18:32Z</time>
      </trkpt>
      <trkpt lat="43.4768690" lon="-5.1296440">
        <ele>4.8</ele>
        <time>2021-07-19T10:18:33Z</time>
      </trkpt>
      <trkpt lat="43.4768810" lon="-5.1296900">
        <ele>4.2</ele>
        <time>2021-07-19T10:18:34Z</time>
      </trkpt>
      <trkpt lat="43.4769760" lon="-5.1299120">
        <ele>3.8</ele>
        <time>2021-07-19T10:18:40Z</time>
      </trkpt>
      <trkpt lat="43.4769980" lon="-5.1299450">
        <ele>3.4</ele>
        <time>2021-07-19T10:18:41Z</time>
      </trkpt>
      <trkpt lat="43.4770230" lon="-5.1299790">
        <ele>2.8</ele>
        <time>2021-07-19T10:18:42Z</time>
      </trkpt>
      <trkpt lat="43.4770500" lon="-5.1300140">
        <ele>2.4</ele>
        <time>2021-07-19T10:18:43Z</time>
      </trkpt>
      <trkpt lat="43.4770750" lon="-5.1300460">
        <ele>2.0</ele>
        <time>2021-07-19T10:18:44Z</time>
      </trkpt>
      <trkpt lat="43.4771060" lon="-5.1300780">
        <ele>2.0</ele>
        <time>2021-07-19T10:18:45Z</time>
      </trkpt>
      <trkpt lat="43.4771320" lon="-5.1301100">
        <ele>1.6</ele>
        <time>2021-07-19T10:18:46Z</time>
      </trkpt>
      <trkpt lat="43.4771550" lon="-5.1301380">
        <ele>1.0</ele>
        <time>2021-07-19T10:18:47Z</time>
      </trkpt>
      <trkpt lat="43.4771730" lon="-5.1301620">
        <ele>0.6</ele>
        <time>2021-07-19T10:18:48Z</time>
      </trkpt>
      <trkpt lat="43.4772020" lon="-5.1301800">
        <ele>0.2</ele>
        <time>2021-07-19T10:18:49Z</time>
      </trkpt>
      <trkpt lat="43.4772270" lon="-5.1302040">
        <ele>-0.4</ele>
        <time>2021-07-19T10:18:50Z</time>
      </trkpt>
      <trkpt lat="43.4772520" lon="-5.1302320">
        <ele>-0.8</ele>
        <time>2021-07-19T10:18:51Z</time>
      </trkpt>
      <trkpt lat="43.4772770" lon="-5.1302650">
        <ele>-1.4</ele>
        <time>2021-07-19T10:18:52Z</time>
      </trkpt>
      <trkpt lat="43.4773000" lon="-5.1302990">
        <ele>-2.0</ele>
        <time>2021-07-19T10:18:53Z</time>
      </trkpt>
      <trkpt lat="43.4773200" lon="-5.1303200">
        <ele>-2.4</ele>
        <time>2021-07-19T10:18:54Z</time>
      </trkpt>
      <trkpt lat="43.4773340" lon="-5.1303270">
        <ele>-2.4</ele>
        <time>2021-07-19T10:18:55Z</time>
      </trkpt>
      <trkpt lat="43.4773380" lon="-5.1303240">
        <ele>-2.8</ele>
        <time>2021-07-19T10:18:57Z</time>
      </trkpt>
      <trkpt lat="43.4773450" lon="-5.1303490">
        <ele>-4.4</ele>
        <time>2021-07-19T10:19:20Z</time>
      </trkpt>
      <trkpt lat="43.4773610" lon="-5.1303820">
        <ele>-4.4</ele>
        <time>2021-07-19T10:19:21Z</time>
      </trkpt>
      <trkpt lat="43.4774210" lon="-5.1305320">
        <ele>-4.4</ele>
        <time>2021-07-19T10:19:24Z</time>
      </trkpt>
      <trkpt lat="43.4774480" lon="-5.1305920">
        <ele>-4.4</ele>
        <time>2021-07-19T10:19:25Z</time>
      </trkpt>
      <trkpt lat="43.4775030" lon="-5.1307690">
        <ele>-4.4</ele>
        <time>2021-07-19T10:19:28Z</time>
      </trkpt>
      <trkpt lat="43.4775130" lon="-5.1308220">
        <ele>-5.0</ele>
        <time>2021-07-19T10:19:29Z</time>
      </trkpt>
      <trkpt lat="43.4775270" lon="-5.1308710">
        <ele>-5.4</ele>
        <time>2021-07-19T10:19:30Z</time>
      </trkpt>
      <trkpt lat="43.4775370" lon="-5.1309120">
        <ele>-5.8</ele>
        <time>2021-07-19T10:19:31Z</time>
      </trkpt>
      <trkpt lat="43.4775430" lon="-5.1309500">
        <ele>-6.4</ele>
        <time>2021-07-19T10:19:32Z</time>
      </trkpt>
      <trkpt lat="43.4775490" lon="-5.1309880">
        <ele>-6.8</ele>
        <time>2021-07-19T10:19:33Z</time>
      </trkpt>
      <trkpt lat="43.4775550" lon="-5.1310230">
        <ele>-7.4</ele>
        <time>2021-07-19T10:19:34Z</time>
      </trkpt>
      <trkpt lat="43.4775640" lon="-5.1310560">
        <ele>-8.0</ele>
        <time>2021-07-19T10:19:35Z</time>
      </trkpt>
      <trkpt lat="43.4775810" lon="-5.1310800">
        <ele>-8.4</ele>
        <time>2021-07-19T10:19:36Z</time>
      </trkpt>
      <trkpt lat="43.4776010" lon="-5.1311040">
        <ele>-9.0</ele>
        <time>2021-07-19T10:19:37Z</time>
      </trkpt>
      <trkpt lat="43.4776200" lon="-5.1311270">
        <ele>-9.4</ele>
        <time>2021-07-19T10:19:38Z</time>
      </trkpt>
      <trkpt lat="43.4776360" lon="-5.1311500">
        <ele>-9.8</ele>
        <time>2021-07-19T10:19:39Z</time>
      </trkpt>
      <trkpt lat="43.4776530" lon="-5.1311740">
        <ele>-10.4</ele>
        <time>2021-07-19T10:19:40Z</time>
      </trkpt>
      <trkpt lat="43.4776680" lon="-5.1311890">
        <ele>-10.8</ele>
        <time>2021-07-19T10:19:41Z</time>
      </trkpt>
      <trkpt lat="43.4776790" lon="-5.1311970">
        <ele>-11.4</ele>
        <time>2021-07-19T10:19:42Z</time>
      </trkpt>
      <trkpt lat="43.4776830" lon="-5.1311980">
        <ele>-11.8</ele>
        <time>2021-07-19T10:19:43Z</time>
      </trkpt>
      <trkpt lat="43.4777080" lon="-5.1312110">
        <ele>-13.4</ele>
        <time>2021-07-19T10:19:52Z</time>
      </trkpt>
      <trkpt lat="43.4777300" lon="-5.1312190">
        <ele>-13.4</ele>
        <time>2021-07-19T10:19:53Z</time>
      </trkpt>
      <trkpt lat="43.4777840" lon="-5.1312420">
        <ele>-13.4</ele>
        <time>2021-07-19T10:19:55Z</time>
      </trkpt>
      <trkpt lat="43.4778750" lon="-5.1313180">
        <ele>-13.4</ele>
        <time>2021-07-19T10:19:58Z</time>
      </trkpt>
      <trkpt lat="43.4780370" lon="-5.1315400">
        <ele>-13.4</ele>
        <time>2021-07-19T10:20:04Z</time>
      </trkpt>
      <trkpt lat="43.4780700" lon="-5.1316080">
        <ele>-13.4</ele>
        <time>2021-07-19T10:20:06Z</time>
      </trkpt>
      <trkpt lat="43.4781370" lon="-5.1317980">
        <ele>-13.4</ele>
        <time>2021-07-19T10:20:10Z</time>
      </trkpt>
      <trkpt lat="43.4781590" lon="-5.1319640">
        <ele>-13.4</ele>
        <time>2021-07-19T10:20:13Z</time>
      </trkpt>
      <trkpt lat="43.4781570" lon="-5.1320880">
        <ele>-13.4</ele>
        <time>2021-07-19T10:20:15Z</time>
      </trkpt>
      <trkpt lat="43.4781570" lon="-5.1321530">
        <ele>-14.2</ele>
        <time>2021-07-19T10:20:16Z</time>
      </trkpt>
      <trkpt lat="43.4781610" lon="-5.1322190">
        <ele>-14.8</ele>
        <time>2021-07-19T10:20:17Z</time>
      </trkpt>
      <trkpt lat="43.4781700" lon="-5.1322870">
        <ele>-15.2</ele>
        <time>2021-07-19T10:20:18Z</time>
      </trkpt>
      <trkpt lat="43.4781900" lon="-5.1323560">
        <ele>-15.6</ele>
        <time>2021-07-19T10:20:19Z</time>
      </trkpt>
      <trkpt lat="43.4782180" lon="-5.1324210">
        <ele>-15.6</ele>
        <time>2021-07-19T10:20:20Z</time>
      </trkpt>
      <trkpt lat="43.4782860" lon="-5.1325350">
        <ele>-15.6</ele>
        <time>2021-07-19T10:20:22Z</time>
      </trkpt>
      <trkpt lat="43.4783930" lon="-5.1326910">
        <ele>-15.6</ele>
        <time>2021-07-19T10:20:25Z</time>
      </trkpt>
      <trkpt lat="43.4784310" lon="-5.1327390">
        <ele>-15.6</ele>
        <time>2021-07-19T10:20:26Z</time>
      </trkpt>
      <trkpt lat="43.4786330" lon="-5.1329600">
        <ele>-16.0</ele>
        <time>2021-07-19T10:20:31Z</time>
      </trkpt>
      <trkpt lat="43.4786730" lon="-5.1330030">
        <ele>-16.4</ele>
        <time>2021-07-19T10:20:32Z</time>
      </trkpt>
      <trkpt lat="43.4787090" lon="-5.1330480">
        <ele>-16.8</ele>
        <time>2021-07-19T10:20:33Z</time>
      </trkpt>
      <trkpt lat="43.4787430" lon="-5.1331000">
        <ele>-17.2</ele>
        <time>2021-07-19T10:20:34Z</time>
      </trkpt>
      <trkpt lat="43.4787730" lon="-5.1331490">
        <ele>-17.6</ele>
        <time>2021-07-19T10:20:35Z</time>
      </trkpt>
      <trkpt lat="43.4788210" lon="-5.1332530">
        <ele>-17.6</ele>
        <time>2021-07-19T10:20:37Z</time>
      </trkpt>
      <trkpt lat="43.4788440" lon="-5.1333080">
        <ele>-17.6</ele>
        <time>2021-07-19T10:20:38Z</time>
      </trkpt>
      <trkpt lat="43.4788710" lon="-5.1333650">
        <ele>-17.6</ele>
        <time>2021-07-19T10:20:39Z</time>
      </trkpt>
      <trkpt lat="43.4789740" lon="-5.1335870">
        <ele>-17.6</ele>
        <time>2021-07-19T10:20:43Z</time>
      </trkpt>
      <trkpt lat="43.4790800" lon="-5.1337950">
        <ele>-17.6</ele>
        <time>2021-07-19T10:20:47Z</time>
      </trkpt>
      <trkpt lat="43.4791520" lon="-5.1339500">
        <ele>-17.6</ele>
        <time>2021-07-19T10:20:50Z</time>
      </trkpt>
      <trkpt lat="43.4792650" lon="-5.1341750">
        <ele>-17.6</ele>
        <time>2021-07-19T10:20:55Z</time>
      </trkpt>
      <trkpt lat="43.4793390" lon="-5.1342850">
        <ele>-17.6</ele>
        <time>2021-07-19T10:21:00Z</time>
      </trkpt>
      <trkpt lat="43.4793460" lon="-5.1342870">
        <ele>-18.0</ele>
        <time>2021-07-19T10:21:01Z</time>
      </trkpt>
      <trkpt lat="43.4793490" lon="-5.1342870">
        <ele>-18.4</ele>
        <time>2021-07-19T10:21:02Z</time>
      </trkpt>
      <trkpt lat="43.4793680" lon="-5.1343010">
        <ele>-19.6</ele>
        <time>2021-07-19T10:21:19Z</time>
      </trkpt>
      <trkpt lat="43.4793800" lon="-5.1343070">
        <ele>-19.6</ele>
        <time>2021-07-19T10:21:20Z</time>
      </trkpt>
      <trkpt lat="43.4794270" lon="-5.1343030">
        <ele>-19.6</ele>
        <time>2021-07-19T10:21:23Z</time>
      </trkpt>
      <trkpt lat="43.4794830" lon="-5.1342950">
        <ele>-19.6</ele>
        <time>2021-07-19T10:21:25Z</time>
      </trkpt>
      <trkpt lat="43.4795440" lon="-5.1342820">
        <ele>-19.6</ele>
        <time>2021-07-19T10:21:27Z</time>
      </trkpt>
      <trkpt lat="43.4796690" lon="-5.1342490">
        <ele>-19.6</ele>
        <time>2021-07-19T10:21:31Z</time>
      </trkpt>
      <trkpt lat="43.4797000" lon="-5.1342390">
        <ele>-19.6</ele>
        <time>2021-07-19T10:21:32Z</time>
      </trkpt>
      <trkpt lat="43.4798290" lon="-5.1342210">
        <ele>-19.6</ele>
        <time>2021-07-19T10:21:37Z</time>
      </trkpt>
      <trkpt lat="43.4798490" lon="-5.1342220">
        <ele>-19.6</ele>
        <time>2021-07-19T10:21:38Z</time>
      </trkpt>
      <trkpt lat="43.4798950" lon="-5.1342270">
        <ele>-19.6</ele>
        <time>2021-07-19T10:21:41Z</time>
      </trkpt>
      <trkpt lat="43.4799040" lon="-5.1342220">
        <ele>-19.6</ele>
        <time>2021-07-19T10:21:43Z</time>
      </trkpt>
      <trkpt lat="43.4798750" lon="-5.1342300">
        <ele>-19.6</ele>
        <time>2021-07-19T10:23:08Z</time>
      </trkpt>
      <trkpt lat="43.4798370" lon="-5.1342210">
        <ele>-19.6</ele>
        <time>2021-07-19T10:23:10Z</time>
      </trkpt>
      <trkpt lat="43.4797580" lon="-5.1342410">
        <ele>-19.6</ele>
        <time>2021-07-19T10:23:13Z</time>
      </trkpt>
      <trkpt lat="43.4797300" lon="-5.1342510">
        <ele>-19.6</ele>
        <time>2021-07-19T10:23:14Z</time>
      </trkpt>
      <trkpt lat="43.4795700" lon="-5.1343030">
        <ele>-19.6</ele>
        <time>2021-07-19T10:23:20Z</time>
      </trkpt>
      <trkpt lat="43.4795310" lon="-5.1343560">
        <ele>-19.6</ele>
        <time>2021-07-19T10:23:24Z</time>
      </trkpt>
      <trkpt lat="43.4795280" lon="-5.1343980">
        <ele>-19.6</ele>
        <time>2021-07-19T10:23:28Z</time>
      </trkpt>
      <trkpt lat="43.4794850" lon="-5.1343900">
        <ele>-19.6</ele>
        <time>2021-07-19T10:23:40Z</time>
      </trkpt>
      <trkpt lat="43.4794690" lon="-5.1343900">
        <ele>-19.6</ele>
        <time>2021-07-19T10:23:41Z</time>
      </trkpt>
      <trkpt lat="43.4794470" lon="-5.1344010">
        <ele>-19.6</ele>
        <time>2021-07-19T10:23:44Z</time>
      </trkpt>
      <trkpt lat="43.4794770" lon="-5.1344440">
        <ele>-19.6</ele>
        <time>2021-07-19T10:24:16Z</time>
      </trkpt>
      <trkpt lat="43.4794890" lon="-5.1344850">
        <ele>-19.6</ele>
        <time>2021-07-19T10:24:18Z</time>
      </trkpt>
      <trkpt lat="43.4794730" lon="-5.1345810">
        <ele>-19.6</ele>
        <time>2021-07-19T10:24:21Z</time>
      </trkpt>
      <trkpt lat="43.4794600" lon="-5.1346320">
        <ele>-19.6</ele>
        <time>2021-07-19T10:24:23Z</time>
      </trkpt>
      <trkpt lat="43.4794530" lon="-5.1347220">
        <ele>-19.6</ele>
        <time>2021-07-19T10:24:27Z</time>
      </trkpt>
      <trkpt lat="43.4794310" lon="-5.1349420">
        <ele>-19.6</ele>
        <time>2021-07-19T10:24:34Z</time>
      </trkpt>
      <trkpt lat="43.4794270" lon="-5.1350520">
        <ele>-19.6</ele>
        <time>2021-07-19T10:24:39Z</time>
      </trkpt>
      <trkpt lat="43.4794240" lon="-5.1350870">
        <ele>-19.6</ele>
        <time>2021-07-19T10:24:42Z</time>
      </trkpt>
      <trkpt lat="43.4794230" lon="-5.1350890">
        <ele>-19.6</ele>
        <time>2021-07-19T10:24:43Z</time>
      </trkpt>
      <trkpt lat="43.4794200" lon="-5.1351230">
        <ele>-19.6</ele>
        <time>2021-07-19T10:24:50Z</time>
      </trkpt>
      <trkpt lat="43.4794190" lon="-5.1351470">
        <ele>-19.6</ele>
        <time>2021-07-19T10:24:51Z</time>
      </trkpt>
      <trkpt lat="43.4793910" lon="-5.1352640">
        <ele>-19.6</ele>
        <time>2021-07-19T10:24:55Z</time>
      </trkpt>
      <trkpt lat="43.4793890" lon="-5.1352910">
        <ele>-19.6</ele>
        <time>2021-07-19T10:24:56Z</time>
      </trkpt>
      <trkpt lat="43.4793700" lon="-5.1354110">
        <ele>-19.6</ele>
        <time>2021-07-19T10:25:00Z</time>
      </trkpt>
      <trkpt lat="43.4793670" lon="-5.1355130">
        <ele>-19.6</ele>
        <time>2021-07-19T10:25:03Z</time>
      </trkpt>
      <trkpt lat="43.4793780" lon="-5.1355660">
        <ele>-19.6</ele>
        <time>2021-07-19T10:25:05Z</time>
      </trkpt>
      <trkpt lat="43.4793980" lon="-5.1356210">
        <ele>-19.6</ele>
        <time>2021-07-19T10:25:07Z</time>
      </trkpt>
      <trkpt lat="43.4794110" lon="-5.1356600">
        <ele>-19.6</ele>
        <time>2021-07-19T10:25:08Z</time>
      </trkpt>
      <trkpt lat="43.4794630" lon="-5.1357870">
        <ele>-19.6</ele>
        <time>2021-07-19T10:25:11Z</time>
      </trkpt>
      <trkpt lat="43.4794990" lon="-5.1358700">
        <ele>-19.6</ele>
        <time>2021-07-19T10:25:13Z</time>
      </trkpt>
      <trkpt lat="43.4795130" lon="-5.1359120">
        <ele>-19.6</ele>
        <time>2021-07-19T10:25:14Z</time>
      </trkpt>
      <trkpt lat="43.4795340" lon="-5.1359960">
        <ele>-19.6</ele>
        <time>2021-07-19T10:25:16Z</time>
      </trkpt>
      <trkpt lat="43.4795410" lon="-5.1361140">
        <ele>-19.6</ele>
        <time>2021-07-19T10:25:19Z</time>
      </trkpt>
      <trkpt lat="43.4795260" lon="-5.1362940">
        <ele>-19.6</ele>
        <time>2021-07-19T10:25:23Z</time>
      </trkpt>
      <trkpt lat="43.4795230" lon="-5.1363440">
        <ele>-19.6</ele>
        <time>2021-07-19T10:25:24Z</time>
      </trkpt>
      <trkpt lat="43.4794990" lon="-5.1366100">
        <ele>-19.6</ele>
        <time>2021-07-19T10:25:30Z</time>
      </trkpt>
      <trkpt lat="43.4794830" lon="-5.1368260">
        <ele>-19.6</ele>
        <time>2021-07-19T10:25:37Z</time>
      </trkpt>
      <trkpt lat="43.4794600" lon="-5.1368580">
        <ele>-19.6</ele>
        <time>2021-07-19T10:25:40Z</time>
      </trkpt>
      <trkpt lat="43.4794350" lon="-5.1368610">
        <ele>-19.6</ele>
        <time>2021-07-19T10:25:42Z</time>
      </trkpt>
      <trkpt lat="43.4794060" lon="-5.1368710">
        <ele>-19.6</ele>
        <time>2021-07-19T10:25:44Z</time>
      </trkpt>
      <trkpt lat="43.4793680" lon="-5.1368860">
        <ele>-19.6</ele>
        <time>2021-07-19T10:25:47Z</time>
      </trkpt>
      <trkpt lat="43.4792610" lon="-5.1369420">
        <ele>-19.6</ele>
        <time>2021-07-19T10:25:53Z</time>
      </trkpt>
      <trkpt lat="43.4791930" lon="-5.1369530">
        <ele>-19.6</ele>
        <time>2021-07-19T10:25:56Z</time>
      </trkpt>
      <trkpt lat="43.4790930" lon="-5.1369630">
        <ele>-19.6</ele>
        <time>2021-07-19T10:26:00Z</time>
      </trkpt>
      <trkpt lat="43.4789070" lon="-5.1369640">
        <ele>-19.6</ele>
        <time>2021-07-19T10:26:07Z</time>
      </trkpt>
      <trkpt lat="43.4787670" lon="-5.1368820">
        <ele>-19.6</ele>
        <time>2021-07-19T10:26:13Z</time>
      </trkpt>
      <trkpt lat="43.4786810" lon="-5.1368490">
        <ele>-19.6</ele>
        <time>2021-07-19T10:26:19Z</time>
      </trkpt>
      <trkpt lat="43.4786490" lon="-5.1368370">
        <ele>-17.6</ele>
        <time>2021-07-19T10:26:25Z</time>
      </trkpt>
      <trkpt lat="43.4786300" lon="-5.1368410">
        <ele>-17.6</ele>
        <time>2021-07-19T10:26:27Z</time>
      </trkpt>
      <trkpt lat="43.4785660" lon="-5.1368470">
        <ele>-17.6</ele>
        <time>2021-07-19T10:26:34Z</time>
      </trkpt>
      <trkpt lat="43.4785550" lon="-5.1368570">
        <ele>-17.6</ele>
        <time>2021-07-19T10:26:36Z</time>
      </trkpt>
      <trkpt lat="43.4785140" lon="-5.1368850">
        <ele>-17.2</ele>
        <time>2021-07-19T10:26:41Z</time>
      </trkpt>
      <trkpt lat="43.4785060" lon="-5.1368920">
        <ele>-16.8</ele>
        <time>2021-07-19T10:26:42Z</time>
      </trkpt>
      <trkpt lat="43.4784990" lon="-5.1369020">
        <ele>-16.2</ele>
        <time>2021-07-19T10:26:43Z</time>
      </trkpt>
      <trkpt lat="43.4784910" lon="-5.1369100">
        <ele>-15.8</ele>
        <time>2021-07-19T10:26:44Z</time>
      </trkpt>
      <trkpt lat="43.4784850" lon="-5.1369210">
        <ele>-15.4</ele>
        <time>2021-07-19T10:26:45Z</time>
      </trkpt>
      <trkpt lat="43.4784630" lon="-5.1369560">
        <ele>-15.4</ele>
        <time>2021-07-19T10:26:48Z</time>
      </trkpt>
      <trkpt lat="43.4784550" lon="-5.1369720">
        <ele>-15.4</ele>
        <time>2021-07-19T10:26:49Z</time>
      </trkpt>
      <trkpt lat="43.4784280" lon="-5.1370230">
        <ele>-15.4</ele>
        <time>2021-07-19T10:26:54Z</time>
      </trkpt>
      <trkpt lat="43.4784250" lon="-5.1370330">
        <ele>-15.4</ele>
        <time>2021-07-19T10:26:56Z</time>
      </trkpt>
      <trkpt lat="43.4782300" lon="-5.1375410">
        <ele>-9.2</ele>
        <time>2021-07-19T10:28:08Z</time>
      </trkpt>
      <trkpt lat="43.4782190" lon="-5.1375900">
        <ele>-9.2</ele>
        <time>2021-07-19T10:28:12Z</time>
      </trkpt>
      <trkpt lat="43.4781900" lon="-5.1376850">
        <ele>-9.2</ele>
        <time>2021-07-19T10:28:20Z</time>
      </trkpt>
      <trkpt lat="43.4781510" lon="-5.1378120">
        <ele>-9.2</ele>
        <time>2021-07-19T10:28:28Z</time>
      </trkpt>
      <trkpt lat="43.4781250" lon="-5.1379290">
        <ele>-9.2</ele>
        <time>2021-07-19T10:28:35Z</time>
      </trkpt>
      <trkpt lat="43.4781130" lon="-5.1379600">
        <ele>-9.2</ele>
        <time>2021-07-19T10:28:37Z</time>
      </trkpt>
      <trkpt lat="43.4780860" lon="-5.1380560">
        <ele>-8.8</ele>
        <time>2021-07-19T10:28:43Z</time>
      </trkpt>
      <trkpt lat="43.4780840" lon="-5.1380680">
        <ele>-8.4</ele>
        <time>2021-07-19T10:28:44Z</time>
      </trkpt>
      <trkpt lat="43.4780840" lon="-5.1380800">
        <ele>-8.0</ele>
        <time>2021-07-19T10:28:45Z</time>
      </trkpt>
      <trkpt lat="43.4780810" lon="-5.1380920">
        <ele>-7.6</ele>
        <time>2021-07-19T10:28:46Z</time>
      </trkpt>
      <trkpt lat="43.4780780" lon="-5.1381040">
        <ele>-7.2</ele>
        <time>2021-07-19T10:28:47Z</time>
      </trkpt>
      <trkpt lat="43.4780760" lon="-5.1381160">
        <ele>-7.2</ele>
        <time>2021-07-19T10:28:49Z</time>
      </trkpt>
      <trkpt lat="43.4780460" lon="-5.1383870">
        <ele>-7.2</ele>
        <time>2021-07-19T10:29:32Z</time>
      </trkpt>
      <trkpt lat="43.4780470" lon="-5.1384040">
        <ele>-7.2</ele>
        <time>2021-07-19T10:29:33Z</time>
      </trkpt>
      <trkpt lat="43.4780500" lon="-5.1384200">
        <ele>-6.8</ele>
        <time>2021-07-19T10:29:34Z</time>
      </trkpt>
      <trkpt lat="43.4780550" lon="-5.1384340">
        <ele>-6.4</ele>
        <time>2021-07-19T10:29:35Z</time>
      </trkpt>
      <trkpt lat="43.4780600" lon="-5.1384450">
        <ele>-6.0</ele>
        <time>2021-07-19T10:29:36Z</time>
      </trkpt>
      <trkpt lat="43.4780620" lon="-5.1384610">
        <ele>-5.6</ele>
        <time>2021-07-19T10:29:37Z</time>
      </trkpt>
      <trkpt lat="43.4780620" lon="-5.1384690">
        <ele>-5.2</ele>
        <time>2021-07-19T10:29:38Z</time>
      </trkpt>
      <trkpt lat="43.4780640" lon="-5.1384980">
        <ele>-5.2</ele>
        <time>2021-07-19T10:29:40Z</time>
      </trkpt>
      <trkpt lat="43.4780490" lon="-5.1386330">
        <ele>-5.2</ele>
        <time>2021-07-19T10:29:47Z</time>
      </trkpt>
      <trkpt lat="43.4780450" lon="-5.1386550">
        <ele>-5.2</ele>
        <time>2021-07-19T10:29:48Z</time>
      </trkpt>
      <trkpt lat="43.4780380" lon="-5.1387180">
        <ele>-5.2</ele>
        <time>2021-07-19T10:29:52Z</time>
      </trkpt>
      <trkpt lat="43.4780300" lon="-5.1387500">
        <ele>-5.2</ele>
        <time>2021-07-19T10:29:54Z</time>
      </trkpt>
      <trkpt lat="43.4780040" lon="-5.1389220">
        <ele>-5.2</ele>
        <time>2021-07-19T10:30:03Z</time>
      </trkpt>
      <trkpt lat="43.4779820" lon="-5.1390400">
        <ele>-5.2</ele>
        <time>2021-07-19T10:30:11Z</time>
      </trkpt>
      <trkpt lat="43.4779690" lon="-5.1391530">
        <ele>-5.2</ele>
        <time>2021-07-19T10:30:18Z</time>
      </trkpt>
      <trkpt lat="43.4779730" lon="-5.1391520">
        <ele>-5.2</ele>
        <time>2021-07-19T10:30:19Z</time>
      </trkpt>
      <trkpt lat="43.4779650" lon="-5.1391840">
        <ele>-5.2</ele>
        <time>2021-07-19T10:30:27Z</time>
      </trkpt>
      <trkpt lat="43.4779550" lon="-5.1392080">
        <ele>-5.2</ele>
        <time>2021-07-19T10:30:28Z</time>
      </trkpt>
      <trkpt lat="43.4779520" lon="-5.1392220">
        <ele>-5.2</ele>
        <time>2021-07-19T10:30:29Z</time>
      </trkpt>
      <trkpt lat="43.4779310" lon="-5.1393000">
        <ele>-5.2</ele>
        <time>2021-07-19T10:30:33Z</time>
      </trkpt>
      <trkpt lat="43.4779150" lon="-5.1393530">
        <ele>-5.2</ele>
        <time>2021-07-19T10:30:36Z</time>
      </trkpt>
      <trkpt lat="43.4779150" lon="-5.1393700">
        <ele>-4.8</ele>
        <time>2021-07-19T10:30:37Z</time>
      </trkpt>
      <trkpt lat="43.4779150" lon="-5.1393880">
        <ele>-4.4</ele>
        <time>2021-07-19T10:30:38Z</time>
      </trkpt>
      <trkpt lat="43.4779160" lon="-5.1394050">
        <ele>-4.0</ele>
        <time>2021-07-19T10:30:39Z</time>
      </trkpt>
      <trkpt lat="43.4779150" lon="-5.1394270">
        <ele>-3.4</ele>
        <time>2021-07-19T10:30:40Z</time>
      </trkpt>
      <trkpt lat="43.4779140" lon="-5.1394470">
        <ele>-3.0</ele>
        <time>2021-07-19T10:30:41Z</time>
      </trkpt>
      <trkpt lat="43.4779050" lon="-5.1395080">
        <ele>-3.0</ele>
        <time>2021-07-19T10:30:44Z</time>
      </trkpt>
      <trkpt lat="43.4779010" lon="-5.1396440">
        <ele>-3.0</ele>
        <time>2021-07-19T10:30:52Z</time>
      </trkpt>
      <trkpt lat="43.4779030" lon="-5.1397310">
        <ele>-2.6</ele>
        <time>2021-07-19T10:30:58Z</time>
      </trkpt>
      <trkpt lat="43.4779020" lon="-5.1397450">
        <ele>-1.8</ele>
        <time>2021-07-19T10:30:59Z</time>
      </trkpt>
      <trkpt lat="43.4779030" lon="-5.1397550">
        <ele>-1.4</ele>
        <time>2021-07-19T10:31:00Z</time>
      </trkpt>
      <trkpt lat="43.4779010" lon="-5.1397660">
        <ele>-1.0</ele>
        <time>2021-07-19T10:31:01Z</time>
      </trkpt>
      <trkpt lat="43.4778960" lon="-5.1398390">
        <ele>-1.0</ele>
        <time>2021-07-19T10:31:07Z</time>
      </trkpt>
      <trkpt lat="43.4779030" lon="-5.1399180">
        <ele>-1.0</ele>
        <time>2021-07-19T10:31:13Z</time>
      </trkpt>
      <trkpt lat="43.4779040" lon="-5.1399310">
        <ele>-0.6</ele>
        <time>2021-07-19T10:31:14Z</time>
      </trkpt>
      <trkpt lat="43.4779060" lon="-5.1399450">
        <ele>-0.2</ele>
        <time>2021-07-19T10:31:15Z</time>
      </trkpt>
      <trkpt lat="43.4779080" lon="-5.1399630">
        <ele>0.2</ele>
        <time>2021-07-19T10:31:16Z</time>
      </trkpt>
      <trkpt lat="43.4779120" lon="-5.1399820">
        <ele>0.6</ele>
        <time>2021-07-19T10:31:17Z</time>
      </trkpt>
      <trkpt lat="43.4779180" lon="-5.1399980">
        <ele>1.0</ele>
        <time>2021-07-19T10:31:18Z</time>
      </trkpt>
      <trkpt lat="43.4779410" lon="-5.1400490">
        <ele>1.0</ele>
        <time>2021-07-19T10:31:21Z</time>
      </trkpt>
      <trkpt lat="43.4779460" lon="-5.1400610">
        <ele>1.0</ele>
        <time>2021-07-19T10:31:22Z</time>
      </trkpt>
      <trkpt lat="43.4779600" lon="-5.1401000">
        <ele>1.0</ele>
        <time>2021-07-19T10:31:28Z</time>
      </trkpt>
      <trkpt lat="43.4780110" lon="-5.1402270">
        <ele>1.0</ele>
        <time>2021-07-19T10:31:40Z</time>
      </trkpt>
      <trkpt lat="43.4780220" lon="-5.1402860">
        <ele>1.0</ele>
        <time>2021-07-19T10:31:44Z</time>
      </trkpt>
      <trkpt lat="43.4780250" lon="-5.1403000">
        <ele>1.4</ele>
        <time>2021-07-19T10:31:45Z</time>
      </trkpt>
      <trkpt lat="43.4780290" lon="-5.1403170">
        <ele>1.8</ele>
        <time>2021-07-19T10:31:46Z</time>
      </trkpt>
      <trkpt lat="43.4780320" lon="-5.1403320">
        <ele>2.2</ele>
        <time>2021-07-19T10:31:47Z</time>
      </trkpt>
      <trkpt lat="43.4780360" lon="-5.1403490">
        <ele>3.0</ele>
        <time>2021-07-19T10:31:48Z</time>
      </trkpt>
      <trkpt lat="43.4780490" lon="-5.1403940">
        <ele>3.0</ele>
        <time>2021-07-19T10:31:52Z</time>
      </trkpt>
      <trkpt lat="43.4780580" lon="-5.1404940">
        <ele>3.0</ele>
        <time>2021-07-19T10:31:59Z</time>
      </trkpt>
      <trkpt lat="43.4780560" lon="-5.1405090">
        <ele>3.0</ele>
        <time>2021-07-19T10:32:00Z</time>
      </trkpt>
      <trkpt lat="43.4780490" lon="-5.1405770">
        <ele>3.4</ele>
        <time>2021-07-19T10:32:06Z</time>
      </trkpt>
      <trkpt lat="43.4780490" lon="-5.1405920">
        <ele>3.8</ele>
        <time>2021-07-19T10:32:07Z</time>
      </trkpt>
      <trkpt lat="43.4780460" lon="-5.1406050">
        <ele>4.2</ele>
        <time>2021-07-19T10:32:08Z</time>
      </trkpt>
      <trkpt lat="43.4780460" lon="-5.1406190">
        <ele>4.8</ele>
        <time>2021-07-19T10:32:09Z</time>
      </trkpt>
      <trkpt lat="43.4780460" lon="-5.1406310">
        <ele>5.2</ele>
        <time>2021-07-19T10:32:10Z</time>
      </trkpt>
      <trkpt lat="43.4780450" lon="-5.1406530">
        <ele>5.2</ele>
        <time>2021-07-19T10:32:12Z</time>
      </trkpt>
      <trkpt lat="43.4780450" lon="-5.1406810">
        <ele>5.2</ele>
        <time>2021-07-19T10:32:14Z</time>
      </trkpt>
      <trkpt lat="43.4780280" lon="-5.1407450">
        <ele>5.2</ele>
        <time>2021-07-19T10:32:21Z</time>
      </trkpt>
      <trkpt lat="43.4780270" lon="-5.1407880">
        <ele>5.2</ele>
        <time>2021-07-19T10:32:27Z</time>
      </trkpt>
      <trkpt lat="43.4780190" lon="-5.1408270">
        <ele>5.6</ele>
        <time>2021-07-19T10:32:31Z</time>
      </trkpt>
      <trkpt lat="43.4780190" lon="-5.1408260">
        <ele>6.0</ele>
        <time>2021-07-19T10:32:32Z</time>
      </trkpt>
      <trkpt lat="43.4779750" lon="-5.1410650">
        <ele>9.2</ele>
        <time>2021-07-19T10:32:56Z</time>
      </trkpt>
      <trkpt lat="43.4779750" lon="-5.1410730">
        <ele>9.2</ele>
        <time>2021-07-19T10:32:57Z</time>
      </trkpt>
      <trkpt lat="43.4779600" lon="-5.1411440">
        <ele>9.2</ele>
        <time>2021-07-19T10:33:03Z</time>
      </trkpt>
      <trkpt lat="43.4779200" lon="-5.1412540">
        <ele>9.6</ele>
        <time>2021-07-19T10:33:11Z</time>
      </trkpt>
      <trkpt lat="43.4779140" lon="-5.1412650">
        <ele>10.0</ele>
        <time>2021-07-19T10:33:12Z</time>
      </trkpt>
      <trkpt lat="43.4779100" lon="-5.1412800">
        <ele>10.4</ele>
        <time>2021-07-19T10:33:13Z</time>
      </trkpt>
      <trkpt lat="43.4779060" lon="-5.1412940">
        <ele>11.0</ele>
        <time>2021-07-19T10:33:14Z</time>
      </trkpt>
      <trkpt lat="43.4779010" lon="-5.1413080">
        <ele>11.4</ele>
        <time>2021-07-19T10:33:15Z</time>
      </trkpt>
      <trkpt lat="43.4778900" lon="-5.1413350">
        <ele>11.4</ele>
        <time>2021-07-19T10:33:18Z</time>
      </trkpt>
      <trkpt lat="43.4778520" lon="-5.1414000">
        <ele>11.4</ele>
        <time>2021-07-19T10:33:25Z</time>
      </trkpt>
      <trkpt lat="43.4778290" lon="-5.1414570">
        <ele>11.4</ele>
        <time>2021-07-19T10:33:31Z</time>
      </trkpt>
      <trkpt lat="43.4778260" lon="-5.1414700">
        <ele>11.4</ele>
        <time>2021-07-19T10:33:32Z</time>
      </trkpt>
      <trkpt lat="43.4778200" lon="-5.1414830">
        <ele>11.8</ele>
        <time>2021-07-19T10:33:33Z</time>
      </trkpt>
      <trkpt lat="43.4778140" lon="-5.1414970">
        <ele>12.2</ele>
        <time>2021-07-19T10:33:34Z</time>
      </trkpt>
      <trkpt lat="43.4778120" lon="-5.1415130">
        <ele>12.6</ele>
        <time>2021-07-19T10:33:35Z</time>
      </trkpt>
      <trkpt lat="43.4778090" lon="-5.1415240">
        <ele>13.0</ele>
        <time>2021-07-19T10:33:36Z</time>
      </trkpt>
      <trkpt lat="43.4778050" lon="-5.1415380">
        <ele>13.4</ele>
        <time>2021-07-19T10:33:37Z</time>
      </trkpt>
      <trkpt lat="43.4777990" lon="-5.1415530">
        <ele>13.4</ele>
        <time>2021-07-19T10:33:38Z</time>
      </trkpt>
      <trkpt lat="43.4777760" lon="-5.1415920">
        <ele>13.4</ele>
        <time>2021-07-19T10:33:41Z</time>
      </trkpt>
      <trkpt lat="43.4777410" lon="-5.1416420">
        <ele>13.4</ele>
        <time>2021-07-19T10:33:45Z</time>
      </trkpt>
      <trkpt lat="43.4776890" lon="-5.1417250">
        <ele>13.4</ele>
        <time>2021-07-19T10:33:51Z</time>
      </trkpt>
      <trkpt lat="43.4776230" lon="-5.1418340">
        <ele>13.4</ele>
        <time>2021-07-19T10:33:59Z</time>
      </trkpt>
      <trkpt lat="43.4776130" lon="-5.1418590">
        <ele>13.8</ele>
        <time>2021-07-19T10:34:01Z</time>
      </trkpt>
      <trkpt lat="43.4776060" lon="-5.1418720">
        <ele>14.2</ele>
        <time>2021-07-19T10:34:02Z</time>
      </trkpt>
      <trkpt lat="43.4776000" lon="-5.1418900">
        <ele>14.6</ele>
        <time>2021-07-19T10:34:03Z</time>
      </trkpt>
      <trkpt lat="43.4775960" lon="-5.1419040">
        <ele>15.0</ele>
        <time>2021-07-19T10:34:04Z</time>
      </trkpt>
      <trkpt lat="43.4775900" lon="-5.1419210">
        <ele>15.4</ele>
        <time>2021-07-19T10:34:05Z</time>
      </trkpt>
      <trkpt lat="43.4775840" lon="-5.1419350">
        <ele>15.4</ele>
        <time>2021-07-19T10:34:06Z</time>
      </trkpt>
      <trkpt lat="43.4775620" lon="-5.1420160">
        <ele>15.4</ele>
        <time>2021-07-19T10:34:13Z</time>
      </trkpt>
      <trkpt lat="43.4775240" lon="-5.1421220">
        <ele>15.8</ele>
        <time>2021-07-19T10:34:21Z</time>
      </trkpt>
      <trkpt lat="43.4775180" lon="-5.1421350">
        <ele>16.4</ele>
        <time>2021-07-19T10:34:22Z</time>
      </trkpt>
      <trkpt lat="43.4775140" lon="-5.1421480">
        <ele>16.8</ele>
        <time>2021-07-19T10:34:23Z</time>
      </trkpt>
      <trkpt lat="43.4775070" lon="-5.1421640">
        <ele>17.2</ele>
        <time>2021-07-19T10:34:24Z</time>
      </trkpt>
      <trkpt lat="43.4775000" lon="-5.1421770">
        <ele>17.6</ele>
        <time>2021-07-19T10:34:25Z</time>
      </trkpt>
      <trkpt lat="43.4774800" lon="-5.1422160">
        <ele>17.6</ele>
        <time>2021-07-19T10:34:28Z</time>
      </trkpt>
      <trkpt lat="43.4774740" lon="-5.1422540">
        <ele>17.6</ele>
        <time>2021-07-19T10:34:32Z</time>
      </trkpt>
      <trkpt lat="43.4774560" lon="-5.1423190">
        <ele>17.6</ele>
        <time>2021-07-19T10:34:37Z</time>
      </trkpt>
      <trkpt lat="43.4774530" lon="-5.1423410">
        <ele>17.6</ele>
        <time>2021-07-19T10:34:38Z</time>
      </trkpt>
      <trkpt lat="43.4774190" lon="-5.1424840">
        <ele>17.6</ele>
        <time>2021-07-19T10:34:44Z</time>
      </trkpt>
      <trkpt lat="43.4774100" lon="-5.1425260">
        <ele>18.0</ele>
        <time>2021-07-19T10:34:46Z</time>
      </trkpt>
      <trkpt lat="43.4774030" lon="-5.1425460">
        <ele>18.4</ele>
        <time>2021-07-19T10:34:47Z</time>
      </trkpt>
      <trkpt lat="43.4773940" lon="-5.1425590">
        <ele>18.8</ele>
        <time>2021-07-19T10:34:48Z</time>
      </trkpt>
      <trkpt lat="43.4773880" lon="-5.1425740">
        <ele>19.2</ele>
        <time>2021-07-19T10:34:49Z</time>
      </trkpt>
      <trkpt lat="43.4773810" lon="-5.1425870">
        <ele>19.6</ele>
        <time>2021-07-19T10:34:50Z</time>
      </trkpt>
      <trkpt lat="43.4773760" lon="-5.1426030">
        <ele>19.6</ele>
        <time>2021-07-19T10:34:51Z</time>
      </trkpt>
      <trkpt lat="43.4773660" lon="-5.1426310">
        <ele>19.6</ele>
        <time>2021-07-19T10:34:53Z</time>
      </trkpt>
      <trkpt lat="43.4773350" lon="-5.1426760">
        <ele>19.6</ele>
        <time>2021-07-19T10:34:57Z</time>
      </trkpt>
      <trkpt lat="43.4772880" lon="-5.1427480">
        <ele>20.0</ele>
        <time>2021-07-19T10:35:01Z</time>
      </trkpt>
      <trkpt lat="43.4772770" lon="-5.1427680">
        <ele>20.6</ele>
        <time>2021-07-19T10:35:02Z</time>
      </trkpt>
      <trkpt lat="43.4772720" lon="-5.1427910">
        <ele>21.0</ele>
        <time>2021-07-19T10:35:03Z</time>
      </trkpt>
      <trkpt lat="43.4772600" lon="-5.1428110">
        <ele>21.4</ele>
        <time>2021-07-19T10:35:04Z</time>
      </trkpt>
      <trkpt lat="43.4772530" lon="-5.1428320">
        <ele>21.8</ele>
        <time>2021-07-19T10:35:05Z</time>
      </trkpt>
      <trkpt lat="43.4772400" lon="-5.1428790">
        <ele>22.6</ele>
        <time>2021-07-19T10:35:07Z</time>
      </trkpt>
      <trkpt lat="43.4772310" lon="-5.1429020">
        <ele>23.0</ele>
        <time>2021-07-19T10:35:08Z</time>
      </trkpt>
      <trkpt lat="43.4772230" lon="-5.1429240">
        <ele>23.4</ele>
        <time>2021-07-19T10:35:09Z</time>
      </trkpt>
      <trkpt lat="43.4772170" lon="-5.1429460">
        <ele>23.8</ele>
        <time>2021-07-19T10:35:10Z</time>
      </trkpt>
      <trkpt lat="43.4771850" lon="-5.1430330">
        <ele>24.2</ele>
        <time>2021-07-19T10:35:14Z</time>
      </trkpt>
      <trkpt lat="43.4771740" lon="-5.1430530">
        <ele>24.6</ele>
        <time>2021-07-19T10:35:15Z</time>
      </trkpt>
      <trkpt lat="43.4771650" lon="-5.1430730">
        <ele>25.2</ele>
        <time>2021-07-19T10:35:16Z</time>
      </trkpt>
      <trkpt lat="43.4771570" lon="-5.1430900">
        <ele>25.6</ele>
        <time>2021-07-19T10:35:17Z</time>
      </trkpt>
      <trkpt lat="43.4771460" lon="-5.1431100">
        <ele>26.0</ele>
        <time>2021-07-19T10:35:18Z</time>
      </trkpt>
      <trkpt lat="43.4770900" lon="-5.1432200">
        <ele>26.4</ele>
        <time>2021-07-19T10:35:24Z</time>
      </trkpt>
      <trkpt lat="43.4770780" lon="-5.1432370">
        <ele>26.8</ele>
        <time>2021-07-19T10:35:25Z</time>
      </trkpt>
      <trkpt lat="43.4770670" lon="-5.1432530">
        <ele>27.2</ele>
        <time>2021-07-19T10:35:26Z</time>
      </trkpt>
      <trkpt lat="43.4770560" lon="-5.1432660">
        <ele>27.6</ele>
        <time>2021-07-19T10:35:27Z</time>
      </trkpt>
      <trkpt lat="43.4770460" lon="-5.1432790">
        <ele>28.0</ele>
        <time>2021-07-19T10:35:28Z</time>
      </trkpt>
      <trkpt lat="43.4770000" lon="-5.1433560">
        <ele>28.0</ele>
        <time>2021-07-19T10:35:33Z</time>
      </trkpt>
      <trkpt lat="43.4769620" lon="-5.1434800">
        <ele>28.0</ele>
        <time>2021-07-19T10:35:39Z</time>
      </trkpt>
      <trkpt lat="43.4769540" lon="-5.1436180">
        <ele>28.0</ele>
        <time>2021-07-19T10:35:46Z</time>
      </trkpt>
      <trkpt lat="43.4769300" lon="-5.1437390">
        <ele>28.0</ele>
        <time>2021-07-19T10:35:51Z</time>
      </trkpt>
      <trkpt lat="43.4769090" lon="-5.1437850">
        <ele>28.0</ele>
        <time>2021-07-19T10:35:53Z</time>
      </trkpt>
      <trkpt lat="43.4768710" lon="-5.1438710">
        <ele>28.0</ele>
        <time>2021-07-19T10:35:56Z</time>
      </trkpt>
      <trkpt lat="43.4768490" lon="-5.1439210">
        <ele>28.4</ele>
        <time>2021-07-19T10:35:58Z</time>
      </trkpt>
      <trkpt lat="43.4768360" lon="-5.1439540">
        <ele>29.0</ele>
        <time>2021-07-19T10:35:59Z</time>
      </trkpt>
      <trkpt lat="43.4768220" lon="-5.1439830">
        <ele>29.4</ele>
        <time>2021-07-19T10:36:00Z</time>
      </trkpt>
      <trkpt lat="43.4768110" lon="-5.1440080">
        <ele>29.8</ele>
        <time>2021-07-19T10:36:01Z</time>
      </trkpt>
      <trkpt lat="43.4767960" lon="-5.1440350">
        <ele>30.2</ele>
        <time>2021-07-19T10:36:02Z</time>
      </trkpt>
      <trkpt lat="43.4767570" lon="-5.1441390">
        <ele>30.2</ele>
        <time>2021-07-19T10:36:07Z</time>
      </trkpt>
      <trkpt lat="43.4767120" lon="-5.1441640">
        <ele>30.6</ele>
        <time>2021-07-19T10:36:09Z</time>
      </trkpt>
      <trkpt lat="43.4766900" lon="-5.1441720">
        <ele>31.0</ele>
        <time>2021-07-19T10:36:10Z</time>
      </trkpt>
      <trkpt lat="43.4766720" lon="-5.1441820">
        <ele>31.6</ele>
        <time>2021-07-19T10:36:11Z</time>
      </trkpt>
      <trkpt lat="43.4766530" lon="-5.1441900">
        <ele>32.0</ele>
        <time>2021-07-19T10:36:12Z</time>
      </trkpt>
      <trkpt lat="43.4766330" lon="-5.1442010">
        <ele>32.4</ele>
        <time>2021-07-19T10:36:13Z</time>
      </trkpt>
      <trkpt lat="43.4766180" lon="-5.1442150">
        <ele>32.4</ele>
        <time>2021-07-19T10:36:14Z</time>
      </trkpt>
      <trkpt lat="43.4765730" lon="-5.1442490">
        <ele>32.8</ele>
        <time>2021-07-19T10:36:17Z</time>
      </trkpt>
      <trkpt lat="43.4765570" lon="-5.1442560">
        <ele>33.2</ele>
        <time>2021-07-19T10:36:18Z</time>
      </trkpt>
      <trkpt lat="43.4765440" lon="-5.1442630">
        <ele>33.8</ele>
        <time>2021-07-19T10:36:19Z</time>
      </trkpt>
      <trkpt lat="43.4765290" lon="-5.1442700">
        <ele>34.2</ele>
        <time>2021-07-19T10:36:20Z</time>
      </trkpt>
      <trkpt lat="43.4765140" lon="-5.1442750">
        <ele>34.6</ele>
        <time>2021-07-19T10:36:21Z</time>
      </trkpt>
      <trkpt lat="43.4764990" lon="-5.1442850">
        <ele>34.6</ele>
        <time>2021-07-19T10:36:22Z</time>
      </trkpt>
      <trkpt lat="43.4764500" lon="-5.1443060">
        <ele>35.0</ele>
        <time>2021-07-19T10:36:25Z</time>
      </trkpt>
      <trkpt lat="43.4764350" lon="-5.1443100">
        <ele>35.4</ele>
        <time>2021-07-19T10:36:26Z</time>
      </trkpt>
      <trkpt lat="43.4764190" lon="-5.1443180">
        <ele>35.8</ele>
        <time>2021-07-19T10:36:27Z</time>
      </trkpt>
      <trkpt lat="43.4764030" lon="-5.1443280">
        <ele>36.2</ele>
        <time>2021-07-19T10:36:28Z</time>
      </trkpt>
      <trkpt lat="43.4763880" lon="-5.1443330">
        <ele>36.8</ele>
        <time>2021-07-19T10:36:29Z</time>
      </trkpt>
      <trkpt lat="43.4763200" lon="-5.1443700">
        <ele>36.8</ele>
        <time>2021-07-19T10:36:35Z</time>
      </trkpt>
      <trkpt lat="43.4759320" lon="-5.1443140">
        <ele>43.0</ele>
        <time>2021-07-19T10:37:47Z</time>
      </trkpt>
      <trkpt lat="43.4759230" lon="-5.1443090">
        <ele>43.0</ele>
        <time>2021-07-19T10:37:48Z</time>
      </trkpt>
      <trkpt lat="43.4758900" lon="-5.1442830">
        <ele>43.4</ele>
        <time>2021-07-19T10:37:51Z</time>
      </trkpt>
      <trkpt lat="43.4758780" lon="-5.1442750">
        <ele>43.8</ele>
        <time>2021-07-19T10:37:52Z</time>
      </trkpt>
      <trkpt lat="43.4758680" lon="-5.1442700">
        <ele>44.2</ele>
        <time>2021-07-19T10:37:53Z</time>
      </trkpt>
      <trkpt lat="43.4758570" lon="-5.1442690">
        <ele>44.6</ele>
        <time>2021-07-19T10:37:54Z</time>
      </trkpt>
      <trkpt lat="43.4758440" lon="-5.1442670">
        <ele>45.2</ele>
        <time>2021-07-19T10:37:55Z</time>
      </trkpt>
      <trkpt lat="43.4758320" lon="-5.1442610">
        <ele>45.2</ele>
        <time>2021-07-19T10:37:56Z</time>
      </trkpt>
      <trkpt lat="43.4757710" lon="-5.1442480">
        <ele>45.2</ele>
        <time>2021-07-19T10:38:01Z</time>
      </trkpt>
      <trkpt lat="43.4757490" lon="-5.1442520">
        <ele>45.6</ele>
        <time>2021-07-19T10:38:03Z</time>
      </trkpt>
      <trkpt lat="43.4757370" lon="-5.1442590">
        <ele>46.0</ele>
        <time>2021-07-19T10:38:04Z</time>
      </trkpt>
      <trkpt lat="43.4757250" lon="-5.1442670">
        <ele>46.4</ele>
        <time>2021-07-19T10:38:05Z</time>
      </trkpt>
      <trkpt lat="43.4757140" lon="-5.1442750">
        <ele>46.8</ele>
        <time>2021-07-19T10:38:06Z</time>
      </trkpt>
      <trkpt lat="43.4757020" lon="-5.1442780">
        <ele>47.2</ele>
        <time>2021-07-19T10:38:07Z</time>
      </trkpt>
      <trkpt lat="43.4756810" lon="-5.1442820">
        <ele>47.2</ele>
        <time>2021-07-19T10:38:10Z</time>
      </trkpt>
      <trkpt lat="43.4756550" lon="-5.1443250">
        <ele>47.2</ele>
        <time>2021-07-19T10:39:47Z</time>
      </trkpt>
      <trkpt lat="43.4756440" lon="-5.1443370">
        <ele>47.2</ele>
        <time>2021-07-19T10:39:48Z</time>
      </trkpt>
      <trkpt lat="43.4756220" lon="-5.1443800">
        <ele>47.2</ele>
        <time>2021-07-19T10:39:50Z</time>
      </trkpt>
      <trkpt lat="43.4755890" lon="-5.1444600">
        <ele>47.2</ele>
        <time>2021-07-19T10:39:53Z</time>
      </trkpt>
      <trkpt lat="43.4755500" lon="-5.1445550">
        <ele>47.2</ele>
        <time>2021-07-19T10:39:57Z</time>
      </trkpt>
      <trkpt lat="43.4755050" lon="-5.1446560">
        <ele>47.2</ele>
        <time>2021-07-19T10:40:01Z</time>
      </trkpt>
      <trkpt lat="43.4754480" lon="-5.1448200">
        <ele>47.8</ele>
        <time>2021-07-19T10:40:07Z</time>
      </trkpt>
      <trkpt lat="43.4754330" lon="-5.1448450">
        <ele>48.2</ele>
        <time>2021-07-19T10:40:08Z</time>
      </trkpt>
      <trkpt lat="43.4754210" lon="-5.1448690">
        <ele>48.6</ele>
        <time>2021-07-19T10:40:09Z</time>
      </trkpt>
      <trkpt lat="43.4754100" lon="-5.1448880">
        <ele>49.0</ele>
        <time>2021-07-19T10:40:10Z</time>
      </trkpt>
      <trkpt lat="43.4753970" lon="-5.1449070">
        <ele>49.4</ele>
        <time>2021-07-19T10:40:11Z</time>
      </trkpt>
      <trkpt lat="43.4753350" lon="-5.1450130">
        <ele>49.4</ele>
        <time>2021-07-19T10:40:16Z</time>
      </trkpt>
      <trkpt lat="43.4753060" lon="-5.1450790">
        <ele>49.4</ele>
        <time>2021-07-19T10:40:19Z</time>
      </trkpt>
      <trkpt lat="43.4752980" lon="-5.1451050">
        <ele>49.8</ele>
        <time>2021-07-19T10:40:20Z</time>
      </trkpt>
      <trkpt lat="43.4752910" lon="-5.1451260">
        <ele>50.2</ele>
        <time>2021-07-19T10:40:21Z</time>
      </trkpt>
      <trkpt lat="43.4752780" lon="-5.1451430">
        <ele>50.6</ele>
        <time>2021-07-19T10:40:22Z</time>
      </trkpt>
      <trkpt lat="43.4752670" lon="-5.1451670">
        <ele>51.0</ele>
        <time>2021-07-19T10:40:23Z</time>
      </trkpt>
      <trkpt lat="43.4752560" lon="-5.1451880">
        <ele>51.4</ele>
        <time>2021-07-19T10:40:24Z</time>
      </trkpt>
      <trkpt lat="43.4752410" lon="-5.1452340">
        <ele>51.4</ele>
        <time>2021-07-19T10:40:26Z</time>
      </trkpt>
      <trkpt lat="43.4752070" lon="-5.1453090">
        <ele>51.8</ele>
        <time>2021-07-19T10:40:30Z</time>
      </trkpt>
      <trkpt lat="43.4751970" lon="-5.1453250">
        <ele>52.2</ele>
        <time>2021-07-19T10:40:31Z</time>
      </trkpt>
      <trkpt lat="43.4751860" lon="-5.1453400">
        <ele>52.8</ele>
        <time>2021-07-19T10:40:32Z</time>
      </trkpt>
      <trkpt lat="43.4751710" lon="-5.1453540">
        <ele>53.2</ele>
        <time>2021-07-19T10:40:33Z</time>
      </trkpt>
      <trkpt lat="43.4751570" lon="-5.1453660">
        <ele>53.6</ele>
        <time>2021-07-19T10:40:34Z</time>
      </trkpt>
      <trkpt lat="43.4751360" lon="-5.1453980">
        <ele>53.6</ele>
        <time>2021-07-19T10:40:36Z</time>
      </trkpt>
      <trkpt lat="43.4751120" lon="-5.1454890">
        <ele>54.0</ele>
        <time>2021-07-19T10:40:40Z</time>
      </trkpt>
      <trkpt lat="43.4751050" lon="-5.1455110">
        <ele>54.4</ele>
        <time>2021-07-19T10:40:41Z</time>
      </trkpt>
      <trkpt lat="43.4751000" lon="-5.1455340">
        <ele>54.8</ele>
        <time>2021-07-19T10:40:42Z</time>
      </trkpt>
      <trkpt lat="43.4750950" lon="-5.1455550">
        <ele>55.2</ele>
        <time>2021-07-19T10:40:43Z</time>
      </trkpt>
      <trkpt lat="43.4750860" lon="-5.1455770">
        <ele>55.6</ele>
        <time>2021-07-19T10:40:44Z</time>
      </trkpt>
      <trkpt lat="43.4750500" lon="-5.1456890">
        <ele>55.6</ele>
        <time>2021-07-19T10:40:49Z</time>
      </trkpt>
      <trkpt lat="43.4750410" lon="-5.1457100">
        <ele>56.0</ele>
        <time>2021-07-19T10:40:50Z</time>
      </trkpt>
      <trkpt lat="43.4750330" lon="-5.1457310">
        <ele>56.4</ele>
        <time>2021-07-19T10:40:51Z</time>
      </trkpt>
      <trkpt lat="43.4750240" lon="-5.1457540">
        <ele>57.4</ele>
        <time>2021-07-19T10:40:52Z</time>
      </trkpt>
      <trkpt lat="43.4750110" lon="-5.1457750">
        <ele>57.8</ele>
        <time>2021-07-19T10:40:53Z</time>
      </trkpt>
      <trkpt lat="43.4749580" lon="-5.1459050">
        <ele>57.8</ele>
        <time>2021-07-19T10:40:58Z</time>
      </trkpt>
      <trkpt lat="43.4748920" lon="-5.1460580">
        <ele>57.8</ele>
        <time>2021-07-19T10:41:03Z</time>
      </trkpt>
      <trkpt lat="43.4748130" lon="-5.1462800">
        <ele>57.8</ele>
        <time>2021-07-19T10:41:10Z</time>
      </trkpt>
      <trkpt lat="43.4747300" lon="-5.1464700">
        <ele>57.8</ele>
        <time>2021-07-19T10:41:16Z</time>
      </trkpt>
      <trkpt lat="43.4746740" lon="-5.1466170">
        <ele>57.8</ele>
        <time>2021-07-19T10:41:21Z</time>
      </trkpt>
      <trkpt lat="43.4746610" lon="-5.1466520">
        <ele>57.8</ele>
        <time>2021-07-19T10:41:22Z</time>
      </trkpt>
      <trkpt lat="43.4745710" lon="-5.1468570">
        <ele>57.8</ele>
        <time>2021-07-19T10:41:29Z</time>
      </trkpt>
      <trkpt lat="43.4745460" lon="-5.1469020">
        <ele>58.2</ele>
        <time>2021-07-19T10:41:31Z</time>
      </trkpt>
      <trkpt lat="43.4745300" lon="-5.1469240">
        <ele>58.6</ele>
        <time>2021-07-19T10:41:32Z</time>
      </trkpt>
      <trkpt lat="43.4745130" lon="-5.1469460">
        <ele>59.0</ele>
        <time>2021-07-19T10:41:33Z</time>
      </trkpt>
      <trkpt lat="43.4744950" lon="-5.1469650">
        <ele>59.4</ele>
        <time>2021-07-19T10:41:34Z</time>
      </trkpt>
      <trkpt lat="43.4744790" lon="-5.1469800">
        <ele>59.8</ele>
        <time>2021-07-19T10:41:35Z</time>
      </trkpt>
      <trkpt lat="43.4744210" lon="-5.1470420">
        <ele>59.8</ele>
        <time>2021-07-19T10:41:39Z</time>
      </trkpt>
      <trkpt lat="43.4744000" lon="-5.1470740">
        <ele>59.8</ele>
        <time>2021-07-19T10:41:42Z</time>
      </trkpt>
      <trkpt lat="43.4743870" lon="-5.1470720">
        <ele>59.8</ele>
        <time>2021-07-19T10:43:10Z</time>
      </trkpt>
      <trkpt lat="43.4743680" lon="-5.1470820">
        <ele>59.8</ele>
        <time>2021-07-19T10:43:11Z</time>
      </trkpt>
      <trkpt lat="43.4743530" lon="-5.1471350">
        <ele>59.8</ele>
        <time>2021-07-19T10:43:13Z</time>
      </trkpt>
      <trkpt lat="43.4743570" lon="-5.1472100">
        <ele>59.8</ele>
        <time>2021-07-19T10:43:15Z</time>
      </trkpt>
      <trkpt lat="43.4743640" lon="-5.1473430">
        <ele>59.8</ele>
        <time>2021-07-19T10:43:18Z</time>
      </trkpt>
      <trkpt lat="43.4743730" lon="-5.1476590">
        <ele>59.8</ele>
        <time>2021-07-19T10:43:24Z</time>
      </trkpt>
      <trkpt lat="43.4743660" lon="-5.1480000">
        <ele>59.8</ele>
        <time>2021-07-19T10:43:30Z</time>
      </trkpt>
      <trkpt lat="43.4743080" lon="-5.1483990">
        <ele>59.8</ele>
        <time>2021-07-19T10:43:36Z</time>
      </trkpt>
      <trkpt lat="43.4742080" lon="-5.1486780">
        <ele>59.8</ele>
        <time>2021-07-19T10:43:41Z</time>
      </trkpt>
      <trkpt lat="43.4740260" lon="-5.1490330">
        <ele>59.8</ele>
        <time>2021-07-19T10:43:47Z</time>
      </trkpt>
      <trkpt lat="43.4739930" lon="-5.1490950">
        <ele>59.8</ele>
        <time>2021-07-19T10:43:48Z</time>
      </trkpt>
      <trkpt lat="43.4739390" lon="-5.1492240">
        <ele>59.8</ele>
        <time>2021-07-19T10:43:50Z</time>
      </trkpt>
      <trkpt lat="43.4738990" lon="-5.1493590">
        <ele>59.8</ele>
        <time>2021-07-19T10:43:52Z</time>
      </trkpt>
      <trkpt lat="43.4738890" lon="-5.1494300">
        <ele>59.8</ele>
        <time>2021-07-19T10:43:53Z</time>
      </trkpt>
      <trkpt lat="43.4739070" lon="-5.1497100">
        <ele>59.8</ele>
        <time>2021-07-19T10:43:57Z</time>
      </trkpt>
      <trkpt lat="43.4739450" lon="-5.1498350">
        <ele>59.8</ele>
        <time>2021-07-19T10:43:59Z</time>
      </trkpt>
      <trkpt lat="43.4739940" lon="-5.1499580">
        <ele>59.8</ele>
        <time>2021-07-19T10:44:01Z</time>
      </trkpt>
      <trkpt lat="43.4740250" lon="-5.1500160">
        <ele>59.8</ele>
        <time>2021-07-19T10:44:02Z</time>
      </trkpt>
      <trkpt lat="43.4742070" lon="-5.1502000">
        <ele>59.8</ele>
        <time>2021-07-19T10:44:06Z</time>
      </trkpt>
      <trkpt lat="43.4743400" lon="-5.1503020">
        <ele>59.8</ele>
        <time>2021-07-19T10:44:09Z</time>
      </trkpt>
      <trkpt lat="43.4744520" lon="-5.1504370">
        <ele>59.8</ele>
        <time>2021-07-19T10:44:12Z</time>
      </trkpt>
      <trkpt lat="43.4745230" lon="-5.1506120">
        <ele>59.8</ele>
        <time>2021-07-19T10:44:15Z</time>
      </trkpt>
      <trkpt lat="43.4745390" lon="-5.1506850">
        <ele>59.8</ele>
        <time>2021-07-19T10:44:16Z</time>
      </trkpt>
      <trkpt lat="43.4745390" lon="-5.1509500">
        <ele>59.8</ele>
        <time>2021-07-19T10:44:19Z</time>
      </trkpt>
      <trkpt lat="43.4745230" lon="-5.1510380">
        <ele>59.8</ele>
        <time>2021-07-19T10:44:20Z</time>
      </trkpt>
      <trkpt lat="43.4744960" lon="-5.1511190">
        <ele>59.8</ele>
        <time>2021-07-19T10:44:21Z</time>
      </trkpt>
      <trkpt lat="43.4744540" lon="-5.1511950">
        <ele>59.2</ele>
        <time>2021-07-19T10:44:22Z</time>
      </trkpt>
      <trkpt lat="43.4744030" lon="-5.1512610">
        <ele>58.8</ele>
        <time>2021-07-19T10:44:23Z</time>
      </trkpt>
      <trkpt lat="43.4743440" lon="-5.1513140">
        <ele>58.4</ele>
        <time>2021-07-19T10:44:24Z</time>
      </trkpt>
      <trkpt lat="43.4742780" lon="-5.1513560">
        <ele>57.8</ele>
        <time>2021-07-19T10:44:25Z</time>
      </trkpt>
      <trkpt lat="43.4742060" lon="-5.1513940">
        <ele>57.4</ele>
        <time>2021-07-19T10:44:26Z</time>
      </trkpt>
      <trkpt lat="43.4740150" lon="-5.1514770">
        <ele>57.4</ele>
        <time>2021-07-19T10:44:29Z</time>
      </trkpt>
      <trkpt lat="43.4739600" lon="-5.1515070">
        <ele>56.8</ele>
        <time>2021-07-19T10:44:30Z</time>
      </trkpt>
      <trkpt lat="43.4739040" lon="-5.1515470">
        <ele>56.2</ele>
        <time>2021-07-19T10:44:31Z</time>
      </trkpt>
      <trkpt lat="43.4738480" lon="-5.1516000">
        <ele>55.8</ele>
        <time>2021-07-19T10:44:32Z</time>
      </trkpt>
      <trkpt lat="43.4737990" lon="-5.1516690">
        <ele>55.2</ele>
        <time>2021-07-19T10:44:33Z</time>
      </trkpt>
      <trkpt lat="43.4737560" lon="-5.1517550">
        <ele>54.6</ele>
        <time>2021-07-19T10:44:34Z</time>
      </trkpt>
      <trkpt lat="43.4736740" lon="-5.1520390">
        <ele>54.2</ele>
        <time>2021-07-19T10:44:37Z</time>
      </trkpt>
      <trkpt lat="43.4736540" lon="-5.1521380">
        <ele>53.8</ele>
        <time>2021-07-19T10:44:38Z</time>
      </trkpt>
      <trkpt lat="43.4736340" lon="-5.1522350">
        <ele>53.4</ele>
        <time>2021-07-19T10:44:39Z</time>
      </trkpt>
      <trkpt lat="43.4736130" lon="-5.1523340">
        <ele>53.0</ele>
        <time>2021-07-19T10:44:40Z</time>
      </trkpt>
      <trkpt lat="43.4735890" lon="-5.1524370">
        <ele>52.6</ele>
        <time>2021-07-19T10:44:41Z</time>
      </trkpt>
      <trkpt lat="43.4734950" lon="-5.1527200">
        <ele>52.6</ele>
        <time>2021-07-19T10:44:44Z</time>
      </trkpt>
      <trkpt lat="43.4734490" lon="-5.1528130">
        <ele>52.6</ele>
        <time>2021-07-19T10:44:45Z</time>
      </trkpt>
      <trkpt lat="43.4733250" lon="-5.1530750">
        <ele>52.2</ele>
        <time>2021-07-19T10:44:48Z</time>
      </trkpt>
      <trkpt lat="43.4732830" lon="-5.1531560">
        <ele>51.8</ele>
        <time>2021-07-19T10:44:49Z</time>
      </trkpt>
      <trkpt lat="43.4732430" lon="-5.1532350">
        <ele>51.4</ele>
        <time>2021-07-19T10:44:50Z</time>
      </trkpt>
      <trkpt lat="43.4732070" lon="-5.1533160">
        <ele>51.0</ele>
        <time>2021-07-19T10:44:51Z</time>
      </trkpt>
      <trkpt lat="43.4731790" lon="-5.1534060">
        <ele>50.4</ele>
        <time>2021-07-19T10:44:52Z</time>
      </trkpt>
      <trkpt lat="43.4731640" lon="-5.1534960">
        <ele>49.8</ele>
        <time>2021-07-19T10:44:53Z</time>
      </trkpt>
      <trkpt lat="43.4731610" lon="-5.1535860">
        <ele>49.4</ele>
        <time>2021-07-19T10:44:54Z</time>
      </trkpt>
      <trkpt lat="43.4731660" lon="-5.1536720">
        <ele>48.8</ele>
        <time>2021-07-19T10:44:55Z</time>
      </trkpt>
      <trkpt lat="43.4731780" lon="-5.1537490">
        <ele>48.2</ele>
        <time>2021-07-19T10:44:56Z</time>
      </trkpt>
      <trkpt lat="43.4731940" lon="-5.1538250">
        <ele>47.8</ele>
        <time>2021-07-19T10:44:57Z</time>
      </trkpt>
      <trkpt lat="43.4732160" lon="-5.1538950">
        <ele>46.8</ele>
        <time>2021-07-19T10:44:58Z</time>
      </trkpt>
      <trkpt lat="43.4732440" lon="-5.1539620">
        <ele>46.4</ele>
        <time>2021-07-19T10:44:59Z</time>
      </trkpt>
      <trkpt lat="43.4732800" lon="-5.1540320">
        <ele>46.0</ele>
        <time>2021-07-19T10:45:00Z</time>
      </trkpt>
      <trkpt lat="43.4734240" lon="-5.1542150">
        <ele>46.0</ele>
        <time>2021-07-19T10:45:03Z</time>
      </trkpt>
      <trkpt lat="43.4734820" lon="-5.1542680">
        <ele>45.6</ele>
        <time>2021-07-19T10:45:04Z</time>
      </trkpt>
      <trkpt lat="43.4735450" lon="-5.1543210">
        <ele>45.2</ele>
        <time>2021-07-19T10:45:05Z</time>
      </trkpt>
      <trkpt lat="43.4736110" lon="-5.1543770">
        <ele>44.8</ele>
        <time>2021-07-19T10:45:06Z</time>
      </trkpt>
      <trkpt lat="43.4736780" lon="-5.1544440">
        <ele>44.4</ele>
        <time>2021-07-19T10:45:07Z</time>
      </trkpt>
      <trkpt lat="43.4737440" lon="-5.1545250">
        <ele>44.0</ele>
        <time>2021-07-19T10:45:08Z</time>
      </trkpt>
      <trkpt lat="43.4739040" lon="-5.1547950">
        <ele>44.0</ele>
        <time>2021-07-19T10:45:11Z</time>
      </trkpt>
      <trkpt lat="43.4739450" lon="-5.1548970">
        <ele>44.0</ele>
        <time>2021-07-19T10:45:12Z</time>
      </trkpt>
      <trkpt lat="43.4739770" lon="-5.1550020">
        <ele>43.4</ele>
        <time>2021-07-19T10:45:13Z</time>
      </trkpt>
      <trkpt lat="43.4740020" lon="-5.1551120">
        <ele>43.0</ele>
        <time>2021-07-19T10:45:14Z</time>
      </trkpt>
      <trkpt lat="43.4740240" lon="-5.1552330">
        <ele>42.6</ele>
        <time>2021-07-19T10:45:15Z</time>
      </trkpt>
      <trkpt lat="43.4740420" lon="-5.1553480">
        <ele>42.2</ele>
        <time>2021-07-19T10:45:16Z</time>
      </trkpt>
      <trkpt lat="43.4740560" lon="-5.1554600">
        <ele>41.6</ele>
        <time>2021-07-19T10:45:17Z</time>
      </trkpt>
      <trkpt lat="43.4740770" lon="-5.1556690">
        <ele>41.2</ele>
        <time>2021-07-19T10:45:19Z</time>
      </trkpt>
      <trkpt lat="43.4740780" lon="-5.1557640">
        <ele>40.6</ele>
        <time>2021-07-19T10:45:20Z</time>
      </trkpt>
      <trkpt lat="43.4740690" lon="-5.1558500">
        <ele>40.2</ele>
        <time>2021-07-19T10:45:21Z</time>
      </trkpt>
      <trkpt lat="43.4740450" lon="-5.1559270">
        <ele>39.6</ele>
        <time>2021-07-19T10:45:22Z</time>
      </trkpt>
      <trkpt lat="43.4740040" lon="-5.1559970">
        <ele>38.6</ele>
        <time>2021-07-19T10:45:23Z</time>
      </trkpt>
      <trkpt lat="43.4739510" lon="-5.1560520">
        <ele>38.0</ele>
        <time>2021-07-19T10:45:24Z</time>
      </trkpt>
      <trkpt lat="43.4738900" lon="-5.1560860">
        <ele>37.4</ele>
        <time>2021-07-19T10:45:25Z</time>
      </trkpt>
      <trkpt lat="43.4738230" lon="-5.1561060">
        <ele>36.8</ele>
        <time>2021-07-19T10:45:26Z</time>
      </trkpt>
      <trkpt lat="43.4737540" lon="-5.1561140">
        <ele>36.2</ele>
        <time>2021-07-19T10:45:27Z</time>
      </trkpt>
      <trkpt lat="43.4736880" lon="-5.1561090">
        <ele>35.6</ele>
        <time>2021-07-19T10:45:28Z</time>
      </trkpt>
      <trkpt lat="43.4736240" lon="-5.1560950">
        <ele>35.0</ele>
        <time>2021-07-19T10:45:29Z</time>
      </trkpt>
      <trkpt lat="43.4735670" lon="-5.1560650">
        <ele>34.6</ele>
        <time>2021-07-19T10:45:30Z</time>
      </trkpt>
      <trkpt lat="43.4735100" lon="-5.1560240">
        <ele>34.0</ele>
        <time>2021-07-19T10:45:31Z</time>
      </trkpt>
      <trkpt lat="43.4734580" lon="-5.1559780">
        <ele>33.6</ele>
        <time>2021-07-19T10:45:32Z</time>
      </trkpt>
      <trkpt lat="43.4734110" lon="-5.1559220">
        <ele>33.2</ele>
        <time>2021-07-19T10:45:33Z</time>
      </trkpt>
      <trkpt lat="43.4733700" lon="-5.1558570">
        <ele>32.6</ele>
        <time>2021-07-19T10:45:34Z</time>
      </trkpt>
      <trkpt lat="43.4733380" lon="-5.1557820">
        <ele>32.2</ele>
        <time>2021-07-19T10:45:35Z</time>
      </trkpt>
      <trkpt lat="43.4732890" lon="-5.1556120">
        <ele>32.2</ele>
        <time>2021-07-19T10:45:37Z</time>
      </trkpt>
      <trkpt lat="43.4732650" lon="-5.1555220">
        <ele>31.8</ele>
        <time>2021-07-19T10:45:38Z</time>
      </trkpt>
      <trkpt lat="43.4732410" lon="-5.1554250">
        <ele>31.2</ele>
        <time>2021-07-19T10:45:39Z</time>
      </trkpt>
      <trkpt lat="43.4732190" lon="-5.1553340">
        <ele>30.8</ele>
        <time>2021-07-19T10:45:40Z</time>
      </trkpt>
      <trkpt lat="43.4731890" lon="-5.1552520">
        <ele>30.4</ele>
        <time>2021-07-19T10:45:41Z</time>
      </trkpt>
      <trkpt lat="43.4731510" lon="-5.1551790">
        <ele>29.8</ele>
        <time>2021-07-19T10:45:42Z</time>
      </trkpt>
      <trkpt lat="43.4731080" lon="-5.1551210">
        <ele>29.8</ele>
        <time>2021-07-19T10:45:43Z</time>
      </trkpt>
      <trkpt lat="43.4730040" lon="-5.1550420">
        <ele>29.4</ele>
        <time>2021-07-19T10:45:45Z</time>
      </trkpt>
      <trkpt lat="43.4729500" lon="-5.1550180">
        <ele>29.0</ele>
        <time>2021-07-19T10:45:46Z</time>
      </trkpt>
      <trkpt lat="43.4728900" lon="-5.1550010">
        <ele>28.6</ele>
        <time>2021-07-19T10:45:47Z</time>
      </trkpt>
      <trkpt lat="43.4728330" lon="-5.1549880">
        <ele>27.4</ele>
        <time>2021-07-19T10:45:48Z</time>
      </trkpt>
      <trkpt lat="43.4727750" lon="-5.1549760">
        <ele>27.0</ele>
        <time>2021-07-19T10:45:49Z</time>
      </trkpt>
      <trkpt lat="43.4727180" lon="-5.1549650">
        <ele>26.4</ele>
        <time>2021-07-19T10:45:50Z</time>
      </trkpt>
      <trkpt lat="43.4726620" lon="-5.1549560">
        <ele>25.8</ele>
        <time>2021-07-19T10:45:51Z</time>
      </trkpt>
      <trkpt lat="43.4726070" lon="-5.1549480">
        <ele>25.2</ele>
        <time>2021-07-19T10:45:52Z</time>
      </trkpt>
      <trkpt lat="43.4725060" lon="-5.1549310">
        <ele>25.2</ele>
        <time>2021-07-19T10:45:54Z</time>
      </trkpt>
      <trkpt lat="43.4724170" lon="-5.1549210">
        <ele>24.8</ele>
        <time>2021-07-19T10:45:56Z</time>
      </trkpt>
      <trkpt lat="43.4723800" lon="-5.1549220">
        <ele>24.4</ele>
        <time>2021-07-19T10:45:57Z</time>
      </trkpt>
      <trkpt lat="43.4723500" lon="-5.1549310">
        <ele>24.0</ele>
        <time>2021-07-19T10:45:58Z</time>
      </trkpt>
      <trkpt lat="43.4723270" lon="-5.1549420">
        <ele>23.6</ele>
        <time>2021-07-19T10:45:59Z</time>
      </trkpt>
      <trkpt lat="43.4723070" lon="-5.1549600">
        <ele>23.2</ele>
        <time>2021-07-19T10:46:00Z</time>
      </trkpt>
      <trkpt lat="43.4722780" lon="-5.1550140">
        <ele>22.6</ele>
        <time>2021-07-19T10:46:02Z</time>
      </trkpt>
      <trkpt lat="43.4722680" lon="-5.1550460">
        <ele>22.2</ele>
        <time>2021-07-19T10:46:03Z</time>
      </trkpt>
      <trkpt lat="43.4722610" lon="-5.1550880">
        <ele>21.8</ele>
        <time>2021-07-19T10:46:04Z</time>
      </trkpt>
      <trkpt lat="43.4722580" lon="-5.1551300">
        <ele>21.4</ele>
        <time>2021-07-19T10:46:05Z</time>
      </trkpt>
      <trkpt lat="43.4722510" lon="-5.1551720">
        <ele>21.0</ele>
        <time>2021-07-19T10:46:06Z</time>
      </trkpt>
      <trkpt lat="43.4722420" lon="-5.1552160">
        <ele>20.4</ele>
        <time>2021-07-19T10:46:07Z</time>
      </trkpt>
      <trkpt lat="43.4722330" lon="-5.1552650">
        <ele>20.0</ele>
        <time>2021-07-19T10:46:08Z</time>
      </trkpt>
      <trkpt lat="43.4722250" lon="-5.1553150">
        <ele>19.6</ele>
        <time>2021-07-19T10:46:09Z</time>
      </trkpt>
      <trkpt lat="43.4722180" lon="-5.1553530">
        <ele>19.2</ele>
        <time>2021-07-19T10:46:10Z</time>
      </trkpt>
      <trkpt lat="43.4722120" lon="-5.1553860">
        <ele>18.8</ele>
        <time>2021-07-19T10:46:11Z</time>
      </trkpt>
      <trkpt lat="43.4722030" lon="-5.1554160">
        <ele>17.8</ele>
        <time>2021-07-19T10:46:12Z</time>
      </trkpt>
      <trkpt lat="43.4721930" lon="-5.1554510">
        <ele>17.4</ele>
        <time>2021-07-19T10:46:13Z</time>
      </trkpt>
      <trkpt lat="43.4721840" lon="-5.1554920">
        <ele>17.0</ele>
        <time>2021-07-19T10:46:14Z</time>
      </trkpt>
      <trkpt lat="43.4721750" lon="-5.1555350">
        <ele>16.4</ele>
        <time>2021-07-19T10:46:15Z</time>
      </trkpt>
      <trkpt lat="43.4721570" lon="-5.1556240">
        <ele>16.4</ele>
        <time>2021-07-19T10:46:17Z</time>
      </trkpt>
      <trkpt lat="43.4721310" lon="-5.1556930">
        <ele>16.0</ele>
        <time>2021-07-19T10:46:19Z</time>
      </trkpt>
      <trkpt lat="43.4721180" lon="-5.1557250">
        <ele>15.6</ele>
        <time>2021-07-19T10:46:20Z</time>
      </trkpt>
      <trkpt lat="43.4721080" lon="-5.1557510">
        <ele>15.0</ele>
        <time>2021-07-19T10:46:21Z</time>
      </trkpt>
      <trkpt lat="43.4720980" lon="-5.1557710">
        <ele>14.6</ele>
        <time>2021-07-19T10:46:22Z</time>
      </trkpt>
      <trkpt lat="43.4720880" lon="-5.1557970">
        <ele>14.0</ele>
        <time>2021-07-19T10:46:23Z</time>
      </trkpt>
      <trkpt lat="43.4720500" lon="-5.1559360">
        <ele>13.6</ele>
        <time>2021-07-19T10:46:27Z</time>
      </trkpt>
      <trkpt lat="43.4720380" lon="-5.1559760">
        <ele>13.2</ele>
        <time>2021-07-19T10:46:28Z</time>
      </trkpt>
      <trkpt lat="43.4720260" lon="-5.1560130">
        <ele>12.8</ele>
        <time>2021-07-19T10:46:29Z</time>
      </trkpt>
      <trkpt lat="43.4720130" lon="-5.1560490">
        <ele>12.4</ele>
        <time>2021-07-19T10:46:30Z</time>
      </trkpt>
      <trkpt lat="43.4719990" lon="-5.1560840">
        <ele>12.0</ele>
        <time>2021-07-19T10:46:31Z</time>
      </trkpt>
      <trkpt lat="43.4719640" lon="-5.1561800">
        <ele>12.0</ele>
        <time>2021-07-19T10:46:34Z</time>
      </trkpt>
      <trkpt lat="43.4718940" lon="-5.1564030">
        <ele>12.0</ele>
        <time>2021-07-19T10:46:40Z</time>
      </trkpt>
      <trkpt lat="43.4717910" lon="-5.1566310">
        <ele>12.0</ele>
        <time>2021-07-19T10:46:46Z</time>
      </trkpt>
      <trkpt lat="43.4717700" lon="-5.1566560">
        <ele>12.0</ele>
        <time>2021-07-19T10:46:47Z</time>
      </trkpt>
      <trkpt lat="43.4717250" lon="-5.1566840">
        <ele>12.0</ele>
        <time>2021-07-19T10:46:49Z</time>
      </trkpt>
      <trkpt lat="43.4716850" lon="-5.1567180">
        <ele>12.0</ele>
        <time>2021-07-19T10:46:51Z</time>
      </trkpt>
      <trkpt lat="43.4716620" lon="-5.1567320">
        <ele>12.0</ele>
        <time>2021-07-19T10:46:52Z</time>
      </trkpt>
      <trkpt lat="43.4716410" lon="-5.1567350">
        <ele>12.0</ele>
        <time>2021-07-19T10:46:53Z</time>
      </trkpt>
      <trkpt lat="43.4716000" lon="-5.1567320">
        <ele>12.0</ele>
        <time>2021-07-19T10:46:55Z</time>
      </trkpt>
      <trkpt lat="43.4715810" lon="-5.1567390">
        <ele>12.0</ele>
        <time>2021-07-19T10:46:56Z</time>
      </trkpt>
      <trkpt lat="43.4715630" lon="-5.1567640">
        <ele>12.0</ele>
        <time>2021-07-19T10:46:57Z</time>
      </trkpt>
      <trkpt lat="43.4715500" lon="-5.1568020">
        <ele>12.4</ele>
        <time>2021-07-19T10:46:58Z</time>
      </trkpt>
      <trkpt lat="43.4715410" lon="-5.1568450">
        <ele>12.8</ele>
        <time>2021-07-19T10:46:59Z</time>
      </trkpt>
      <trkpt lat="43.4715360" lon="-5.1568910">
        <ele>13.4</ele>
        <time>2021-07-19T10:47:00Z</time>
      </trkpt>
      <trkpt lat="43.4715290" lon="-5.1569360">
        <ele>13.8</ele>
        <time>2021-07-19T10:47:01Z</time>
      </trkpt>
      <trkpt lat="43.4715260" lon="-5.1569840">
        <ele>14.2</ele>
        <time>2021-07-19T10:47:02Z</time>
      </trkpt>
      <trkpt lat="43.4715290" lon="-5.1571300">
        <ele>14.2</ele>
        <time>2021-07-19T10:47:05Z</time>
      </trkpt>
      <trkpt lat="43.4715360" lon="-5.1571770">
        <ele>14.2</ele>
        <time>2021-07-19T10:47:06Z</time>
      </trkpt>
      <trkpt lat="43.4715850" lon="-5.1573900">
        <ele>14.2</ele>
        <time>2021-07-19T10:47:12Z</time>
      </trkpt>
      <trkpt lat="43.4715850" lon="-5.1573950">
        <ele>14.2</ele>
        <time>2021-07-19T10:47:13Z</time>
      </trkpt>
      <trkpt lat="43.4715930" lon="-5.1574480">
        <ele>14.2</ele>
        <time>2021-07-19T10:47:29Z</time>
      </trkpt>
      <trkpt lat="43.4716020" lon="-5.1574670">
        <ele>14.2</ele>
        <time>2021-07-19T10:47:30Z</time>
      </trkpt>
      <trkpt lat="43.4717100" lon="-5.1575910">
        <ele>14.2</ele>
        <time>2021-07-19T10:47:35Z</time>
      </trkpt>
      <trkpt lat="43.4719090" lon="-5.1577010">
        <ele>14.2</ele>
        <time>2021-07-19T10:47:41Z</time>
      </trkpt>
      <trkpt lat="43.4721290" lon="-5.1577760">
        <ele>14.2</ele>
        <time>2021-07-19T10:47:47Z</time>
      </trkpt>
      <trkpt lat="43.4721680" lon="-5.1577990">
        <ele>14.2</ele>
        <time>2021-07-19T10:47:48Z</time>
      </trkpt>
      <trkpt lat="43.4722390" lon="-5.1578610">
        <ele>14.2</ele>
        <time>2021-07-19T10:47:50Z</time>
      </trkpt>
      <trkpt lat="43.4722740" lon="-5.1578980">
        <ele>14.6</ele>
        <time>2021-07-19T10:47:51Z</time>
      </trkpt>
      <trkpt lat="43.4723080" lon="-5.1579360">
        <ele>15.4</ele>
        <time>2021-07-19T10:47:52Z</time>
      </trkpt>
      <trkpt lat="43.4723420" lon="-5.1579740">
        <ele>15.8</ele>
        <time>2021-07-19T10:47:53Z</time>
      </trkpt>
      <trkpt lat="43.4723750" lon="-5.1580130">
        <ele>16.2</ele>
        <time>2021-07-19T10:47:54Z</time>
      </trkpt>
      <trkpt lat="43.4725320" lon="-5.1582050">
        <ele>16.2</ele>
        <time>2021-07-19T10:47:59Z</time>
      </trkpt>
      <trkpt lat="43.4726490" lon="-5.1584720">
        <ele>16.2</ele>
        <time>2021-07-19T10:48:04Z</time>
      </trkpt>
      <trkpt lat="43.4726770" lon="-5.1585900">
        <ele>16.2</ele>
        <time>2021-07-19T10:48:06Z</time>
      </trkpt>
      <trkpt lat="43.4727110" lon="-5.1588340">
        <ele>16.2</ele>
        <time>2021-07-19T10:48:10Z</time>
      </trkpt>
      <trkpt lat="43.4727500" lon="-5.1590990">
        <ele>16.2</ele>
        <time>2021-07-19T10:48:14Z</time>
      </trkpt>
      <trkpt lat="43.4727800" lon="-5.1592340">
        <ele>16.2</ele>
        <time>2021-07-19T10:48:16Z</time>
      </trkpt>
      <trkpt lat="43.4728010" lon="-5.1592990">
        <ele>16.2</ele>
        <time>2021-07-19T10:48:17Z</time>
      </trkpt>
      <trkpt lat="43.4728770" lon="-5.1594980">
        <ele>16.2</ele>
        <time>2021-07-19T10:48:20Z</time>
      </trkpt>
      <trkpt lat="43.4729630" lon="-5.1596930">
        <ele>16.2</ele>
        <time>2021-07-19T10:48:23Z</time>
      </trkpt>
      <trkpt lat="43.4730240" lon="-5.1598270">
        <ele>16.2</ele>
        <time>2021-07-19T10:48:25Z</time>
      </trkpt>
      <trkpt lat="43.4731190" lon="-5.1600210">
        <ele>16.2</ele>
        <time>2021-07-19T10:48:28Z</time>
      </trkpt>
      <trkpt lat="43.4732160" lon="-5.1602070">
        <ele>16.2</ele>
        <time>2021-07-19T10:48:31Z</time>
      </trkpt>
      <trkpt lat="43.4732800" lon="-5.1603420">
        <ele>15.8</ele>
        <time>2021-07-19T10:48:33Z</time>
      </trkpt>
      <trkpt lat="43.4733140" lon="-5.1604150">
        <ele>15.4</ele>
        <time>2021-07-19T10:48:34Z</time>
      </trkpt>
      <trkpt lat="43.4733460" lon="-5.1604880">
        <ele>15.0</ele>
        <time>2021-07-19T10:48:35Z</time>
      </trkpt>
      <trkpt lat="43.4733770" lon="-5.1605640">
        <ele>14.6</ele>
        <time>2021-07-19T10:48:36Z</time>
      </trkpt>
      <trkpt lat="43.4734070" lon="-5.1606410">
        <ele>14.0</ele>
        <time>2021-07-19T10:48:37Z</time>
      </trkpt>
      <trkpt lat="43.4734360" lon="-5.1607190">
        <ele>14.0</ele>
        <time>2021-07-19T10:48:38Z</time>
      </trkpt>
      <trkpt lat="43.4734590" lon="-5.1607980">
        <ele>14.0</ele>
        <time>2021-07-19T10:48:39Z</time>
      </trkpt>
      <trkpt lat="43.4734830" lon="-5.1610300">
        <ele>14.0</ele>
        <time>2021-07-19T10:48:42Z</time>
      </trkpt>
      <trkpt lat="43.4734550" lon="-5.1611900">
        <ele>13.6</ele>
        <time>2021-07-19T10:48:44Z</time>
      </trkpt>
      <trkpt lat="43.4734330" lon="-5.1612690">
        <ele>13.2</ele>
        <time>2021-07-19T10:48:45Z</time>
      </trkpt>
      <trkpt lat="43.4734080" lon="-5.1613460">
        <ele>12.8</ele>
        <time>2021-07-19T10:48:46Z</time>
      </trkpt>
      <trkpt lat="43.4733810" lon="-5.1614240">
        <ele>12.4</ele>
        <time>2021-07-19T10:48:47Z</time>
      </trkpt>
      <trkpt lat="43.4733540" lon="-5.1615040">
        <ele>12.0</ele>
        <time>2021-07-19T10:48:48Z</time>
      </trkpt>
      <trkpt lat="43.4733040" lon="-5.1616630">
        <ele>12.0</ele>
        <time>2021-07-19T10:48:50Z</time>
      </trkpt>
      <trkpt lat="43.4732450" lon="-5.1618840">
        <ele>12.0</ele>
        <time>2021-07-19T10:48:53Z</time>
      </trkpt>
      <trkpt lat="43.4732300" lon="-5.1620340">
        <ele>11.6</ele>
        <time>2021-07-19T10:48:55Z</time>
      </trkpt>
      <trkpt lat="43.4732290" lon="-5.1621120">
        <ele>11.2</ele>
        <time>2021-07-19T10:48:56Z</time>
      </trkpt>
      <trkpt lat="43.4732310" lon="-5.1621960">
        <ele>10.8</ele>
        <time>2021-07-19T10:48:57Z</time>
      </trkpt>
      <trkpt lat="43.4732390" lon="-5.1622700">
        <ele>10.4</ele>
        <time>2021-07-19T10:48:58Z</time>
      </trkpt>
      <trkpt lat="43.4732580" lon="-5.1623370">
        <ele>10.0</ele>
        <time>2021-07-19T10:48:59Z</time>
      </trkpt>
      <trkpt lat="43.4732860" lon="-5.1623990">
        <ele>10.0</ele>
        <time>2021-07-19T10:49:00Z</time>
      </trkpt>
      <trkpt lat="43.4733200" lon="-5.1624570">
        <ele>10.0</ele>
        <time>2021-07-19T10:49:01Z</time>
      </trkpt>
      <trkpt lat="43.4733970" lon="-5.1625580">
        <ele>10.0</ele>
        <time>2021-07-19T10:49:03Z</time>
      </trkpt>
      <trkpt lat="43.4734700" lon="-5.1626460">
        <ele>10.0</ele>
        <time>2021-07-19T10:49:05Z</time>
      </trkpt>
      <trkpt lat="43.4735050" lon="-5.1626890">
        <ele>10.0</ele>
        <time>2021-07-19T10:49:06Z</time>
      </trkpt>
      <trkpt lat="43.4736050" lon="-5.1628340">
        <ele>10.4</ele>
        <time>2021-07-19T10:49:09Z</time>
      </trkpt>
      <trkpt lat="43.4736370" lon="-5.1628860">
        <ele>10.8</ele>
        <time>2021-07-19T10:49:10Z</time>
      </trkpt>
      <trkpt lat="43.4736650" lon="-5.1629420">
        <ele>11.2</ele>
        <time>2021-07-19T10:49:11Z</time>
      </trkpt>
      <trkpt lat="43.4736900" lon="-5.1630000">
        <ele>11.6</ele>
        <time>2021-07-19T10:49:12Z</time>
      </trkpt>
      <trkpt lat="43.4737070" lon="-5.1630580">
        <ele>12.0</ele>
        <time>2021-07-19T10:49:13Z</time>
      </trkpt>
      <trkpt lat="43.4737200" lon="-5.1632550">
        <ele>12.0</ele>
        <time>2021-07-19T10:49:16Z</time>
      </trkpt>
      <trkpt lat="43.4737100" lon="-5.1633900">
        <ele>12.0</ele>
        <time>2021-07-19T10:49:18Z</time>
      </trkpt>
      <trkpt lat="43.4736910" lon="-5.1637140">
        <ele>12.0</ele>
        <time>2021-07-19T10:49:23Z</time>
      </trkpt>
      <trkpt lat="43.4736790" lon="-5.1639610">
        <ele>12.4</ele>
        <time>2021-07-19T10:49:27Z</time>
      </trkpt>
      <trkpt lat="43.4736770" lon="-5.1640180">
        <ele>12.8</ele>
        <time>2021-07-19T10:49:28Z</time>
      </trkpt>
      <trkpt lat="43.4736740" lon="-5.1640740">
        <ele>13.2</ele>
        <time>2021-07-19T10:49:29Z</time>
      </trkpt>
      <trkpt lat="43.4736740" lon="-5.1641290">
        <ele>13.6</ele>
        <time>2021-07-19T10:49:30Z</time>
      </trkpt>
      <trkpt lat="43.4736740" lon="-5.1641840">
        <ele>14.0</ele>
        <time>2021-07-19T10:49:31Z</time>
      </trkpt>
      <trkpt lat="43.4736600" lon="-5.1645200">
        <ele>14.0</ele>
        <time>2021-07-19T10:49:37Z</time>
      </trkpt>
      <trkpt lat="43.4736250" lon="-5.1647830">
        <ele>14.4</ele>
        <time>2021-07-19T10:49:42Z</time>
      </trkpt>
      <trkpt lat="43.4736190" lon="-5.1648370">
        <ele>14.8</ele>
        <time>2021-07-19T10:49:43Z</time>
      </trkpt>
      <trkpt lat="43.4736140" lon="-5.1648910">
        <ele>15.2</ele>
        <time>2021-07-19T10:49:44Z</time>
      </trkpt>
      <trkpt lat="43.4736080" lon="-5.1649430">
        <ele>15.6</ele>
        <time>2021-07-19T10:49:45Z</time>
      </trkpt>
      <trkpt lat="43.4736030" lon="-5.1649950">
        <ele>16.0</ele>
        <time>2021-07-19T10:49:46Z</time>
      </trkpt>
      <trkpt lat="43.4735460" lon="-5.1653650">
        <ele>16.0</ele>
        <time>2021-07-19T10:49:53Z</time>
      </trkpt>
      <trkpt lat="43.4734910" lon="-5.1656960">
        <ele>16.6</ele>
        <time>2021-07-19T10:49:59Z</time>
      </trkpt>
      <trkpt lat="43.4734830" lon="-5.1657510">
        <ele>17.0</ele>
        <time>2021-07-19T10:50:00Z</time>
      </trkpt>
      <trkpt lat="43.4734730" lon="-5.1658050">
        <ele>17.4</ele>
        <time>2021-07-19T10:50:01Z</time>
      </trkpt>
      <trkpt lat="43.4734620" lon="-5.1658590">
        <ele>17.8</ele>
        <time>2021-07-19T10:50:02Z</time>
      </trkpt>
      <trkpt lat="43.4734530" lon="-5.1659150">
        <ele>18.2</ele>
        <time>2021-07-19T10:50:03Z</time>
      </trkpt>
      <trkpt lat="43.4733950" lon="-5.1662710">
        <ele>18.2</ele>
        <time>2021-07-19T10:50:09Z</time>
      </trkpt>
      <trkpt lat="43.4733830" lon="-5.1663290">
        <ele>18.2</ele>
        <time>2021-07-19T10:50:10Z</time>
      </trkpt>
      <trkpt lat="43.4733430" lon="-5.1665580">
        <ele>18.2</ele>
        <time>2021-07-19T10:50:14Z</time>
      </trkpt>
      <trkpt lat="43.4732820" lon="-5.1668770">
        <ele>18.2</ele>
        <time>2021-07-19T10:50:20Z</time>
      </trkpt>
      <trkpt lat="43.4732730" lon="-5.1669210">
        <ele>18.2</ele>
        <time>2021-07-19T10:50:21Z</time>
      </trkpt>
      <trkpt lat="43.4732380" lon="-5.1671030">
        <ele>18.2</ele>
        <time>2021-07-19T10:50:26Z</time>
      </trkpt>
      <trkpt lat="43.4732360" lon="-5.1671350">
        <ele>18.2</ele>
        <time>2021-07-19T10:50:27Z</time>
      </trkpt>
      <trkpt lat="43.4732380" lon="-5.1671910">
        <ele>18.2</ele>
        <time>2021-07-19T10:50:30Z</time>
      </trkpt>
      <trkpt lat="43.4732410" lon="-5.1672010">
        <ele>18.2</ele>
        <time>2021-07-19T10:50:31Z</time>
      </trkpt>
      <trkpt lat="43.4732700" lon="-5.1683210">
        <ele>34.6</ele>
        <time>2021-07-19T10:53:05Z</time>
      </trkpt>
      <trkpt lat="43.4732690" lon="-5.1683360">
        <ele>34.6</ele>
        <time>2021-07-19T10:53:06Z</time>
      </trkpt>
      <trkpt lat="43.4732640" lon="-5.1683910">
        <ele>35.0</ele>
        <time>2021-07-19T10:53:10Z</time>
      </trkpt>
      <trkpt lat="43.4732640" lon="-5.1684050">
        <ele>35.4</ele>
        <time>2021-07-19T10:53:11Z</time>
      </trkpt>
      <trkpt lat="43.4732600" lon="-5.1684230">
        <ele>35.8</ele>
        <time>2021-07-19T10:53:12Z</time>
      </trkpt>
      <trkpt lat="43.4732570" lon="-5.1684410">
        <ele>36.8</ele>
        <time>2021-07-19T10:53:13Z</time>
      </trkpt>
      <trkpt lat="43.4732020" lon="-5.1685690">
        <ele>36.8</ele>
        <time>2021-07-19T10:53:22Z</time>
      </trkpt>
      <trkpt lat="43.4731900" lon="-5.1686100">
        <ele>37.2</ele>
        <time>2021-07-19T10:53:25Z</time>
      </trkpt>
      <trkpt lat="43.4731850" lon="-5.1686210">
        <ele>37.6</ele>
        <time>2021-07-19T10:53:26Z</time>
      </trkpt>
      <trkpt lat="43.4731810" lon="-5.1686330">
        <ele>38.0</ele>
        <time>2021-07-19T10:53:27Z</time>
      </trkpt>
      <trkpt lat="43.4731720" lon="-5.1686450">
        <ele>38.4</ele>
        <time>2021-07-19T10:53:28Z</time>
      </trkpt>
      <trkpt lat="43.4731640" lon="-5.1686590">
        <ele>38.8</ele>
        <time>2021-07-19T10:53:29Z</time>
      </trkpt>
      <trkpt lat="43.4731590" lon="-5.1686750">
        <ele>38.8</ele>
        <time>2021-07-19T10:53:30Z</time>
      </trkpt>
      <trkpt lat="43.4731230" lon="-5.1687900">
        <ele>38.8</ele>
        <time>2021-07-19T10:53:38Z</time>
      </trkpt>
      <trkpt lat="43.4731060" lon="-5.1688260">
        <ele>39.2</ele>
        <time>2021-07-19T10:53:41Z</time>
      </trkpt>
      <trkpt lat="43.4731000" lon="-5.1688410">
        <ele>39.6</ele>
        <time>2021-07-19T10:53:42Z</time>
      </trkpt>
      <trkpt lat="43.4730970" lon="-5.1688570">
        <ele>40.0</ele>
        <time>2021-07-19T10:53:43Z</time>
      </trkpt>
      <trkpt lat="43.4730890" lon="-5.1688740">
        <ele>40.4</ele>
        <time>2021-07-19T10:53:44Z</time>
      </trkpt>
      <trkpt lat="43.4730840" lon="-5.1688900">
        <ele>40.8</ele>
        <time>2021-07-19T10:53:45Z</time>
      </trkpt>
      <trkpt lat="43.4730830" lon="-5.1689030">
        <ele>40.8</ele>
        <time>2021-07-19T10:53:46Z</time>
      </trkpt>
      <trkpt lat="43.4730290" lon="-5.1689910">
        <ele>40.8</ele>
        <time>2021-07-19T10:53:53Z</time>
      </trkpt>
      <trkpt lat="43.4730080" lon="-5.1690330">
        <ele>41.2</ele>
        <time>2021-07-19T10:53:56Z</time>
      </trkpt>
      <trkpt lat="43.4730020" lon="-5.1690480">
        <ele>41.6</ele>
        <time>2021-07-19T10:53:57Z</time>
      </trkpt>
      <trkpt lat="43.4729970" lon="-5.1690630">
        <ele>42.0</ele>
        <time>2021-07-19T10:53:58Z</time>
      </trkpt>
      <trkpt lat="43.4729920" lon="-5.1690740">
        <ele>42.4</ele>
        <time>2021-07-19T10:53:59Z</time>
      </trkpt>
      <trkpt lat="43.4729860" lon="-5.1690830">
        <ele>42.8</ele>
        <time>2021-07-19T10:54:00Z</time>
      </trkpt>
      <trkpt lat="43.4729700" lon="-5.1691130">
        <ele>42.8</ele>
        <time>2021-07-19T10:54:02Z</time>
      </trkpt>
      <trkpt lat="43.4729310" lon="-5.1692140">
        <ele>43.2</ele>
        <time>2021-07-19T10:54:09Z</time>
      </trkpt>
      <trkpt lat="43.4729290" lon="-5.1692300">
        <ele>43.6</ele>
        <time>2021-07-19T10:54:10Z</time>
      </trkpt>
      <trkpt lat="43.4729260" lon="-5.1692440">
        <ele>44.0</ele>
        <time>2021-07-19T10:54:11Z</time>
      </trkpt>
      <trkpt lat="43.4729230" lon="-5.1692600">
        <ele>44.4</ele>
        <time>2021-07-19T10:54:12Z</time>
      </trkpt>
      <trkpt lat="43.4729200" lon="-5.1692750">
        <ele>45.0</ele>
        <time>2021-07-19T10:54:13Z</time>
      </trkpt>
      <trkpt lat="43.4729020" lon="-5.1693460">
        <ele>45.0</ele>
        <time>2021-07-19T10:54:18Z</time>
      </trkpt>
      <trkpt lat="43.4728910" lon="-5.1693750">
        <ele>45.4</ele>
        <time>2021-07-19T10:54:20Z</time>
      </trkpt>
      <trkpt lat="43.4728850" lon="-5.1693900">
        <ele>45.8</ele>
        <time>2021-07-19T10:54:21Z</time>
      </trkpt>
      <trkpt lat="43.4728790" lon="-5.1694090">
        <ele>46.2</ele>
        <time>2021-07-19T10:54:22Z</time>
      </trkpt>
      <trkpt lat="43.4728760" lon="-5.1694260">
        <ele>46.6</ele>
        <time>2021-07-19T10:54:23Z</time>
      </trkpt>
      <trkpt lat="43.4728740" lon="-5.1694410">
        <ele>47.0</ele>
        <time>2021-07-19T10:54:24Z</time>
      </trkpt>
      <trkpt lat="43.4728620" lon="-5.1694880">
        <ele>47.0</ele>
        <time>2021-07-19T10:54:27Z</time>
      </trkpt>
      <trkpt lat="43.4728480" lon="-5.1695690">
        <ele>47.4</ele>
        <time>2021-07-19T10:54:32Z</time>
      </trkpt>
      <trkpt lat="43.4728440" lon="-5.1695880">
        <ele>47.8</ele>
        <time>2021-07-19T10:54:33Z</time>
      </trkpt>
      <trkpt lat="43.4728410" lon="-5.1696050">
        <ele>48.2</ele>
        <time>2021-07-19T10:54:34Z</time>
      </trkpt>
      <trkpt lat="43.4728380" lon="-5.1696220">
        <ele>48.6</ele>
        <time>2021-07-19T10:54:35Z</time>
      </trkpt>
      <trkpt lat="43.4728340" lon="-5.1696370">
        <ele>49.0</ele>
        <time>2021-07-19T10:54:36Z</time>
      </trkpt>
      <trkpt lat="43.4728100" lon="-5.1697370">
        <ele>49.6</ele>
        <time>2021-07-19T10:54:43Z</time>
      </trkpt>
      <trkpt lat="43.4728080" lon="-5.1697510">
        <ele>50.0</ele>
        <time>2021-07-19T10:54:44Z</time>
      </trkpt>
      <trkpt lat="43.4728080" lon="-5.1697650">
        <ele>50.4</ele>
        <time>2021-07-19T10:54:45Z</time>
      </trkpt>
      <trkpt lat="43.4728070" lon="-5.1697790">
        <ele>50.8</ele>
        <time>2021-07-19T10:54:46Z</time>
      </trkpt>
      <trkpt lat="43.4728070" lon="-5.1697930">
        <ele>51.2</ele>
        <time>2021-07-19T10:54:47Z</time>
      </trkpt>
      <trkpt lat="43.4728120" lon="-5.1698860">
        <ele>51.2</ele>
        <time>2021-07-19T10:54:54Z</time>
      </trkpt>
      <trkpt lat="43.4728040" lon="-5.1699270">
        <ele>51.2</ele>
        <time>2021-07-19T10:54:57Z</time>
      </trkpt>
      <trkpt lat="43.4727920" lon="-5.1700410">
        <ele>51.6</ele>
        <time>2021-07-19T10:55:03Z</time>
      </trkpt>
      <trkpt lat="43.4727890" lon="-5.1700670">
        <ele>52.0</ele>
        <time>2021-07-19T10:55:04Z</time>
      </trkpt>
      <trkpt lat="43.4727890" lon="-5.1700920">
        <ele>52.4</ele>
        <time>2021-07-19T10:55:05Z</time>
      </trkpt>
      <trkpt lat="43.4727880" lon="-5.1701220">
        <ele>52.8</ele>
        <time>2021-07-19T10:55:06Z</time>
      </trkpt>
      <trkpt lat="43.4727890" lon="-5.1701540">
        <ele>53.2</ele>
        <time>2021-07-19T10:55:07Z</time>
      </trkpt>
      <trkpt lat="43.4727820" lon="-5.1702180">
        <ele>53.2</ele>
        <time>2021-07-19T10:55:09Z</time>
      </trkpt>
      <trkpt lat="43.4727660" lon="-5.1703890">
        <ele>53.2</ele>
        <time>2021-07-19T10:55:15Z</time>
      </trkpt>
      <trkpt lat="43.4727640" lon="-5.1705750">
        <ele>53.2</ele>
        <time>2021-07-19T10:55:21Z</time>
      </trkpt>
      <trkpt lat="43.4727580" lon="-5.1706420">
        <ele>53.6</ele>
        <time>2021-07-19T10:55:23Z</time>
      </trkpt>
      <trkpt lat="43.4727540" lon="-5.1706760">
        <ele>54.0</ele>
        <time>2021-07-19T10:55:24Z</time>
      </trkpt>
      <trkpt lat="43.4727500" lon="-5.1707110">
        <ele>54.4</ele>
        <time>2021-07-19T10:55:25Z</time>
      </trkpt>
      <trkpt lat="43.4727460" lon="-5.1707420">
        <ele>54.8</ele>
        <time>2021-07-19T10:55:26Z</time>
      </trkpt>
      <trkpt lat="43.4727470" lon="-5.1707750">
        <ele>55.2</ele>
        <time>2021-07-19T10:55:27Z</time>
      </trkpt>
      <trkpt lat="43.4727550" lon="-5.1708150">
        <ele>55.2</ele>
        <time>2021-07-19T10:55:28Z</time>
      </trkpt>
      <trkpt lat="43.4727940" lon="-5.1709240">
        <ele>55.2</ele>
        <time>2021-07-19T10:55:31Z</time>
      </trkpt>
      <trkpt lat="43.4728300" lon="-5.1709830">
        <ele>55.2</ele>
        <time>2021-07-19T10:55:33Z</time>
      </trkpt>
      <trkpt lat="43.4728520" lon="-5.1710050">
        <ele>54.8</ele>
        <time>2021-07-19T10:55:34Z</time>
      </trkpt>
      <trkpt lat="43.4728780" lon="-5.1710200">
        <ele>54.4</ele>
        <time>2021-07-19T10:55:35Z</time>
      </trkpt>
      <trkpt lat="43.4729060" lon="-5.1710360">
        <ele>53.8</ele>
        <time>2021-07-19T10:55:36Z</time>
      </trkpt>
      <trkpt lat="43.4729310" lon="-5.1710500">
        <ele>53.4</ele>
        <time>2021-07-19T10:55:37Z</time>
      </trkpt>
      <trkpt lat="43.4729570" lon="-5.1710650">
        <ele>53.0</ele>
        <time>2021-07-19T10:55:38Z</time>
      </trkpt>
      <trkpt lat="43.4729800" lon="-5.1710860">
        <ele>52.4</ele>
        <time>2021-07-19T10:55:39Z</time>
      </trkpt>
      <trkpt lat="43.4730000" lon="-5.1711150">
        <ele>52.0</ele>
        <time>2021-07-19T10:55:40Z</time>
      </trkpt>
      <trkpt lat="43.4730190" lon="-5.1711460">
        <ele>51.4</ele>
        <time>2021-07-19T10:55:41Z</time>
      </trkpt>
      <trkpt lat="43.4730330" lon="-5.1711810">
        <ele>50.4</ele>
        <time>2021-07-19T10:55:42Z</time>
      </trkpt>
      <trkpt lat="43.4730380" lon="-5.1712160">
        <ele>50.0</ele>
        <time>2021-07-19T10:55:43Z</time>
      </trkpt>
      <trkpt lat="43.4730450" lon="-5.1712570">
        <ele>49.4</ele>
        <time>2021-07-19T10:55:44Z</time>
      </trkpt>
      <trkpt lat="43.4730550" lon="-5.1712930">
        <ele>49.0</ele>
        <time>2021-07-19T10:55:45Z</time>
      </trkpt>
      <trkpt lat="43.4730640" lon="-5.1713190">
        <ele>48.4</ele>
        <time>2021-07-19T10:55:46Z</time>
      </trkpt>
      <trkpt lat="43.4730670" lon="-5.1713470">
        <ele>47.8</ele>
        <time>2021-07-19T10:55:47Z</time>
      </trkpt>
      <trkpt lat="43.4730680" lon="-5.1713750">
        <ele>47.4</ele>
        <time>2021-07-19T10:55:48Z</time>
      </trkpt>
      <trkpt lat="43.4730690" lon="-5.1714040">
        <ele>46.8</ele>
        <time>2021-07-19T10:55:49Z</time>
      </trkpt>
      <trkpt lat="43.4730690" lon="-5.1714370">
        <ele>46.2</ele>
        <time>2021-07-19T10:55:50Z</time>
      </trkpt>
      <trkpt lat="43.4730640" lon="-5.1715120">
        <ele>45.8</ele>
        <time>2021-07-19T10:55:52Z</time>
      </trkpt>
      <trkpt lat="43.4730650" lon="-5.1715470">
        <ele>45.4</ele>
        <time>2021-07-19T10:55:53Z</time>
      </trkpt>
      <trkpt lat="43.4730650" lon="-5.1715830">
        <ele>44.8</ele>
        <time>2021-07-19T10:55:54Z</time>
      </trkpt>
      <trkpt lat="43.4730630" lon="-5.1716200">
        <ele>44.4</ele>
        <time>2021-07-19T10:55:55Z</time>
      </trkpt>
      <trkpt lat="43.4730610" lon="-5.1716570">
        <ele>44.0</ele>
        <time>2021-07-19T10:55:56Z</time>
      </trkpt>
      <trkpt lat="43.4730580" lon="-5.1716900">
        <ele>43.4</ele>
        <time>2021-07-19T10:55:57Z</time>
      </trkpt>
      <trkpt lat="43.4730580" lon="-5.1717190">
        <ele>43.0</ele>
        <time>2021-07-19T10:55:58Z</time>
      </trkpt>
      <trkpt lat="43.4730590" lon="-5.1717410">
        <ele>42.6</ele>
        <time>2021-07-19T10:55:59Z</time>
      </trkpt>
      <trkpt lat="43.4730580" lon="-5.1717610">
        <ele>42.2</ele>
        <time>2021-07-19T10:56:00Z</time>
      </trkpt>
      <trkpt lat="43.4730580" lon="-5.1717850">
        <ele>41.6</ele>
        <time>2021-07-19T10:56:01Z</time>
      </trkpt>
      <trkpt lat="43.4730640" lon="-5.1718090">
        <ele>41.2</ele>
        <time>2021-07-19T10:56:02Z</time>
      </trkpt>
      <trkpt lat="43.4730710" lon="-5.1718320">
        <ele>40.8</ele>
        <time>2021-07-19T10:56:03Z</time>
      </trkpt>
      <trkpt lat="43.4730730" lon="-5.1718530">
        <ele>40.2</ele>
        <time>2021-07-19T10:56:04Z</time>
      </trkpt>
      <trkpt lat="43.4730760" lon="-5.1718700">
        <ele>39.8</ele>
        <time>2021-07-19T10:56:05Z</time>
      </trkpt>
      <trkpt lat="43.4730830" lon="-5.1718870">
        <ele>39.4</ele>
        <time>2021-07-19T10:56:06Z</time>
      </trkpt>
      <trkpt lat="43.4730940" lon="-5.1719050">
        <ele>38.4</ele>
        <time>2021-07-19T10:56:07Z</time>
      </trkpt>
      <trkpt lat="43.4731040" lon="-5.1719210">
        <ele>37.8</ele>
        <time>2021-07-19T10:56:08Z</time>
      </trkpt>
      <trkpt lat="43.4731130" lon="-5.1719340">
        <ele>37.4</ele>
        <time>2021-07-19T10:56:09Z</time>
      </trkpt>
      <trkpt lat="43.4731250" lon="-5.1719510">
        <ele>36.8</ele>
        <time>2021-07-19T10:56:10Z</time>
      </trkpt>
      <trkpt lat="43.4731410" lon="-5.1719670">
        <ele>36.4</ele>
        <time>2021-07-19T10:56:11Z</time>
      </trkpt>
      <trkpt lat="43.4731610" lon="-5.1719930">
        <ele>35.8</ele>
        <time>2021-07-19T10:56:12Z</time>
      </trkpt>
      <trkpt lat="43.4731770" lon="-5.1720230">
        <ele>35.4</ele>
        <time>2021-07-19T10:56:13Z</time>
      </trkpt>
      <trkpt lat="43.4731910" lon="-5.1720580">
        <ele>34.8</ele>
        <time>2021-07-19T10:56:14Z</time>
      </trkpt>
      <trkpt lat="43.4732000" lon="-5.1720890">
        <ele>34.4</ele>
        <time>2021-07-19T10:56:15Z</time>
      </trkpt>
      <trkpt lat="43.4732010" lon="-5.1721210">
        <ele>34.0</ele>
        <time>2021-07-19T10:56:16Z</time>
      </trkpt>
      <trkpt lat="43.4732070" lon="-5.1721440">
        <ele>33.6</ele>
        <time>2021-07-19T10:56:17Z</time>
      </trkpt>
      <trkpt lat="43.4731940" lon="-5.1721800">
        <ele>33.0</ele>
        <time>2021-07-19T10:56:18Z</time>
      </trkpt>
      <trkpt lat="43.4731860" lon="-5.1722080">
        <ele>32.6</ele>
        <time>2021-07-19T10:56:19Z</time>
      </trkpt>
      <trkpt lat="43.4731820" lon="-5.1722480">
        <ele>32.2</ele>
        <time>2021-07-19T10:56:21Z</time>
      </trkpt>
      <trkpt lat="43.4731820" lon="-5.1722570">
        <ele>31.8</ele>
        <time>2021-07-19T10:56:22Z</time>
      </trkpt>
      <trkpt lat="43.4731840" lon="-5.1722660">
        <ele>31.4</ele>
        <time>2021-07-19T10:56:23Z</time>
      </trkpt>
      <trkpt lat="43.4731860" lon="-5.1722740">
        <ele>31.0</ele>
        <time>2021-07-19T10:56:24Z</time>
      </trkpt>
      <trkpt lat="43.4731850" lon="-5.1722900">
        <ele>30.6</ele>
        <time>2021-07-19T10:56:25Z</time>
      </trkpt>
      <trkpt lat="43.4731840" lon="-5.1723830">
        <ele>30.2</ele>
        <time>2021-07-19T10:56:29Z</time>
      </trkpt>
      <trkpt lat="43.4731880" lon="-5.1724060">
        <ele>29.8</ele>
        <time>2021-07-19T10:56:30Z</time>
      </trkpt>
      <trkpt lat="43.4731870" lon="-5.1724280">
        <ele>28.8</ele>
        <time>2021-07-19T10:56:31Z</time>
      </trkpt>
      <trkpt lat="43.4731840" lon="-5.1724620">
        <ele>28.4</ele>
        <time>2021-07-19T10:56:32Z</time>
      </trkpt>
      <trkpt lat="43.4731740" lon="-5.1725190">
        <ele>28.4</ele>
        <time>2021-07-19T10:56:34Z</time>
      </trkpt>
      <trkpt lat="43.4731690" lon="-5.1725420">
        <ele>28.0</ele>
        <time>2021-07-19T10:56:35Z</time>
      </trkpt>
      <trkpt lat="43.4731640" lon="-5.1725640">
        <ele>27.6</ele>
        <time>2021-07-19T10:56:36Z</time>
      </trkpt>
      <trkpt lat="43.4731580" lon="-5.1725890">
        <ele>27.2</ele>
        <time>2021-07-19T10:56:37Z</time>
      </trkpt>
      <trkpt lat="43.4731570" lon="-5.1726120">
        <ele>26.8</ele>
        <time>2021-07-19T10:56:38Z</time>
      </trkpt>
      <trkpt lat="43.4731610" lon="-5.1726400">
        <ele>26.4</ele>
        <time>2021-07-19T10:56:39Z</time>
      </trkpt>
      <trkpt lat="43.4731750" lon="-5.1727180">
        <ele>26.0</ele>
        <time>2021-07-19T10:56:42Z</time>
      </trkpt>
      <trkpt lat="43.4731750" lon="-5.1727480">
        <ele>25.4</ele>
        <time>2021-07-19T10:56:43Z</time>
      </trkpt>
      <trkpt lat="43.4731730" lon="-5.1727740">
        <ele>25.0</ele>
        <time>2021-07-19T10:56:44Z</time>
      </trkpt>
      <trkpt lat="43.4731780" lon="-5.1727980">
        <ele>24.6</ele>
        <time>2021-07-19T10:56:45Z</time>
      </trkpt>
      <trkpt lat="43.4731860" lon="-5.1728160">
        <ele>24.0</ele>
        <time>2021-07-19T10:56:46Z</time>
      </trkpt>
      <trkpt lat="43.4731940" lon="-5.1728360">
        <ele>24.0</ele>
        <time>2021-07-19T10:56:47Z</time>
      </trkpt>
      <trkpt lat="43.4732290" lon="-5.1728800">
        <ele>23.6</ele>
        <time>2021-07-19T10:56:49Z</time>
      </trkpt>
      <trkpt lat="43.4732470" lon="-5.1729080">
        <ele>23.2</ele>
        <time>2021-07-19T10:56:50Z</time>
      </trkpt>
      <trkpt lat="43.4732670" lon="-5.1729330">
        <ele>22.6</ele>
        <time>2021-07-19T10:56:51Z</time>
      </trkpt>
      <trkpt lat="43.4732870" lon="-5.1729680">
        <ele>22.2</ele>
        <time>2021-07-19T10:56:52Z</time>
      </trkpt>
      <trkpt lat="43.4733060" lon="-5.1730000">
        <ele>21.6</ele>
        <time>2021-07-19T10:56:53Z</time>
      </trkpt>
      <trkpt lat="43.4733230" lon="-5.1730320">
        <ele>21.0</ele>
        <time>2021-07-19T10:56:54Z</time>
      </trkpt>
      <trkpt lat="43.4733350" lon="-5.1730630">
        <ele>20.4</ele>
        <time>2021-07-19T10:56:55Z</time>
      </trkpt>
      <trkpt lat="43.4733450" lon="-5.1731000">
        <ele>19.2</ele>
        <time>2021-07-19T10:56:56Z</time>
      </trkpt>
      <trkpt lat="43.4733510" lon="-5.1731490">
        <ele>18.6</ele>
        <time>2021-07-19T10:56:57Z</time>
      </trkpt>
      <trkpt lat="43.4733500" lon="-5.1732010">
        <ele>18.0</ele>
        <time>2021-07-19T10:56:58Z</time>
      </trkpt>
      <trkpt lat="43.4733550" lon="-5.1732420">
        <ele>17.4</ele>
        <time>2021-07-19T10:56:59Z</time>
      </trkpt>
      <trkpt lat="43.4733640" lon="-5.1732820">
        <ele>16.8</ele>
        <time>2021-07-19T10:57:00Z</time>
      </trkpt>
      <trkpt lat="43.4733730" lon="-5.1733310">
        <ele>16.4</ele>
        <time>2021-07-19T10:57:01Z</time>
      </trkpt>
      <trkpt lat="43.4733800" lon="-5.1733690">
        <ele>16.0</ele>
        <time>2021-07-19T10:57:02Z</time>
      </trkpt>
      <trkpt lat="43.4733810" lon="-5.1734290">
        <ele>15.6</ele>
        <time>2021-07-19T10:57:03Z</time>
      </trkpt>
      <trkpt lat="43.4733710" lon="-5.1735020">
        <ele>15.2</ele>
        <time>2021-07-19T10:57:04Z</time>
      </trkpt>
      <trkpt lat="43.4733840" lon="-5.1735510">
        <ele>14.8</ele>
        <time>2021-07-19T10:57:05Z</time>
      </trkpt>
      <trkpt lat="43.4734000" lon="-5.1736730">
        <ele>14.4</ele>
        <time>2021-07-19T10:57:07Z</time>
      </trkpt>
      <trkpt lat="43.4734130" lon="-5.1737250">
        <ele>13.8</ele>
        <time>2021-07-19T10:57:08Z</time>
      </trkpt>
      <trkpt lat="43.4734330" lon="-5.1737810">
        <ele>13.4</ele>
        <time>2021-07-19T10:57:09Z</time>
      </trkpt>
      <trkpt lat="43.4734570" lon="-5.1738360">
        <ele>12.8</ele>
        <time>2021-07-19T10:57:10Z</time>
      </trkpt>
      <trkpt lat="43.4734810" lon="-5.1738930">
        <ele>12.4</ele>
        <time>2021-07-19T10:57:11Z</time>
      </trkpt>
      <trkpt lat="43.4735670" lon="-5.1740570">
        <ele>12.0</ele>
        <time>2021-07-19T10:57:14Z</time>
      </trkpt>
      <trkpt lat="43.4735900" lon="-5.1741070">
        <ele>11.6</ele>
        <time>2021-07-19T10:57:15Z</time>
      </trkpt>
      <trkpt lat="43.4736240" lon="-5.1741630">
        <ele>11.0</ele>
        <time>2021-07-19T10:57:16Z</time>
      </trkpt>
      <trkpt lat="43.4736560" lon="-5.1742150">
        <ele>10.6</ele>
        <time>2021-07-19T10:57:17Z</time>
      </trkpt>
      <trkpt lat="43.4736870" lon="-5.1742700">
        <ele>10.2</ele>
        <time>2021-07-19T10:57:18Z</time>
      </trkpt>
      <trkpt lat="43.4737370" lon="-5.1743590">
        <ele>10.2</ele>
        <time>2021-07-19T10:57:20Z</time>
      </trkpt>
      <trkpt lat="43.4738240" lon="-5.1746040">
        <ele>9.8</ele>
        <time>2021-07-19T10:57:25Z</time>
      </trkpt>
      <trkpt lat="43.4738350" lon="-5.1746590">
        <ele>9.2</ele>
        <time>2021-07-19T10:57:26Z</time>
      </trkpt>
      <trkpt lat="43.4738470" lon="-5.1747090">
        <ele>8.8</ele>
        <time>2021-07-19T10:57:27Z</time>
      </trkpt>
      <trkpt lat="43.4738610" lon="-5.1747550">
        <ele>8.4</ele>
        <time>2021-07-19T10:57:28Z</time>
      </trkpt>
      <trkpt lat="43.4738760" lon="-5.1747950">
        <ele>8.0</ele>
        <time>2021-07-19T10:57:29Z</time>
      </trkpt>
      <trkpt lat="43.4739030" lon="-5.1748600">
        <ele>8.0</ele>
        <time>2021-07-19T10:57:32Z</time>
      </trkpt>
      <trkpt lat="43.4739290" lon="-5.1749130">
        <ele>8.0</ele>
        <time>2021-07-19T10:57:34Z</time>
      </trkpt>
      <trkpt lat="43.4739530" lon="-5.1749660">
        <ele>8.0</ele>
        <time>2021-07-19T10:57:36Z</time>
      </trkpt>
      <trkpt lat="43.4739750" lon="-5.1750250">
        <ele>8.0</ele>
        <time>2021-07-19T10:57:38Z</time>
      </trkpt>
      <trkpt lat="43.4740060" lon="-5.1751110">
        <ele>8.0</ele>
        <time>2021-07-19T10:57:41Z</time>
      </trkpt>
      <trkpt lat="43.4740190" lon="-5.1752450">
        <ele>8.0</ele>
        <time>2021-07-19T10:57:46Z</time>
      </trkpt>
      <trkpt lat="43.4740210" lon="-5.1752780">
        <ele>8.0</ele>
        <time>2021-07-19T10:57:47Z</time>
      </trkpt>
      <trkpt lat="43.4740000" lon="-5.1754940">
        <ele>8.0</ele>
        <time>2021-07-19T10:57:51Z</time>
      </trkpt>
      <trkpt lat="43.4739670" lon="-5.1758260">
        <ele>7.6</ele>
        <time>2021-07-19T10:57:57Z</time>
      </trkpt>
      <trkpt lat="43.4739590" lon="-5.1758820">
        <ele>7.0</ele>
        <time>2021-07-19T10:57:58Z</time>
      </trkpt>
      <trkpt lat="43.4739490" lon="-5.1759400">
        <ele>6.6</ele>
        <time>2021-07-19T10:57:59Z</time>
      </trkpt>
      <trkpt lat="43.4739390" lon="-5.1759990">
        <ele>6.2</ele>
        <time>2021-07-19T10:58:00Z</time>
      </trkpt>
      <trkpt lat="43.4739270" lon="-5.1760570">
        <ele>5.6</ele>
        <time>2021-07-19T10:58:01Z</time>
      </trkpt>
      <trkpt lat="43.4738970" lon="-5.1761570">
        <ele>5.6</ele>
        <time>2021-07-19T10:58:03Z</time>
      </trkpt>
      <trkpt lat="43.4738800" lon="-5.1762360">
        <ele>5.6</ele>
        <time>2021-07-19T10:58:05Z</time>
      </trkpt>
      <trkpt lat="43.4738720" lon="-5.1762720">
        <ele>5.2</ele>
        <time>2021-07-19T10:58:06Z</time>
      </trkpt>
      <trkpt lat="43.4738690" lon="-5.1763100">
        <ele>4.8</ele>
        <time>2021-07-19T10:58:07Z</time>
      </trkpt>
      <trkpt lat="43.4738660" lon="-5.1763540">
        <ele>4.4</ele>
        <time>2021-07-19T10:58:08Z</time>
      </trkpt>
      <trkpt lat="43.4738650" lon="-5.1763980">
        <ele>4.0</ele>
        <time>2021-07-19T10:58:09Z</time>
      </trkpt>
      <trkpt lat="43.4738660" lon="-5.1764380">
        <ele>3.6</ele>
        <time>2021-07-19T10:58:10Z</time>
      </trkpt>
      <trkpt lat="43.4738690" lon="-5.1764730">
        <ele>3.6</ele>
        <time>2021-07-19T10:58:11Z</time>
      </trkpt>
      <trkpt lat="43.4738680" lon="-5.1765950">
        <ele>3.6</ele>
        <time>2021-07-19T10:58:15Z</time>
      </trkpt>
      <trkpt lat="43.4738670" lon="-5.1766910">
        <ele>3.6</ele>
        <time>2021-07-19T10:58:18Z</time>
      </trkpt>
      <trkpt lat="43.4738590" lon="-5.1768340">
        <ele>3.6</ele>
        <time>2021-07-19T10:58:23Z</time>
      </trkpt>
      <trkpt lat="43.4738680" lon="-5.1769080">
        <ele>3.6</ele>
        <time>2021-07-19T10:58:25Z</time>
      </trkpt>
      <trkpt lat="43.4739190" lon="-5.1770550">
        <ele>3.6</ele>
        <time>2021-07-19T10:58:30Z</time>
      </trkpt>
      <trkpt lat="43.4739390" lon="-5.1771550">
        <ele>3.6</ele>
        <time>2021-07-19T10:58:35Z</time>
      </trkpt>
      <trkpt lat="43.4739550" lon="-5.1772010">
        <ele>3.6</ele>
        <time>2021-07-19T10:58:37Z</time>
      </trkpt>
      <trkpt lat="43.4739610" lon="-5.1772180">
        <ele>3.6</ele>
        <time>2021-07-19T10:58:38Z</time>
      </trkpt>
      <trkpt lat="43.4739950" lon="-5.1772940">
        <ele>3.6</ele>
        <time>2021-07-19T10:58:42Z</time>
      </trkpt>
      <trkpt lat="43.4740190" lon="-5.1773720">
        <ele>3.6</ele>
        <time>2021-07-19T10:58:45Z</time>
      </trkpt>
      <trkpt lat="43.4740480" lon="-5.1774540">
        <ele>3.2</ele>
        <time>2021-07-19T10:58:48Z</time>
      </trkpt>
      <trkpt lat="43.4740560" lon="-5.1774810">
        <ele>2.8</ele>
        <time>2021-07-19T10:58:49Z</time>
      </trkpt>
      <trkpt lat="43.4740640" lon="-5.1775120">
        <ele>2.4</ele>
        <time>2021-07-19T10:58:50Z</time>
      </trkpt>
      <trkpt lat="43.4740720" lon="-5.1775380">
        <ele>1.8</ele>
        <time>2021-07-19T10:58:51Z</time>
      </trkpt>
      <trkpt lat="43.4740830" lon="-5.1775640">
        <ele>1.4</ele>
        <time>2021-07-19T10:58:52Z</time>
      </trkpt>
      <trkpt lat="43.4740940" lon="-5.1775970">
        <ele>1.4</ele>
        <time>2021-07-19T10:58:53Z</time>
      </trkpt>
      <trkpt lat="43.4741120" lon="-5.1776640">
        <ele>1.0</ele>
        <time>2021-07-19T10:58:55Z</time>
      </trkpt>
      <trkpt lat="43.4741190" lon="-5.1776970">
        <ele>0.6</ele>
        <time>2021-07-19T10:58:56Z</time>
      </trkpt>
      <trkpt lat="43.4741250" lon="-5.1777350">
        <ele>0.2</ele>
        <time>2021-07-19T10:58:57Z</time>
      </trkpt>
      <trkpt lat="43.4741300" lon="-5.1777690">
        <ele>-0.2</ele>
        <time>2021-07-19T10:58:58Z</time>
      </trkpt>
      <trkpt lat="43.4741310" lon="-5.1778070">
        <ele>-0.6</ele>
        <time>2021-07-19T10:58:59Z</time>
      </trkpt>
      <trkpt lat="43.4741230" lon="-5.1778480">
        <ele>-1.0</ele>
        <time>2021-07-19T10:59:00Z</time>
      </trkpt>
      <trkpt lat="43.4741150" lon="-5.1778860">
        <ele>-2.0</ele>
        <time>2021-07-19T10:59:01Z</time>
      </trkpt>
      <trkpt lat="43.4741060" lon="-5.1779200">
        <ele>-2.4</ele>
        <time>2021-07-19T10:59:02Z</time>
      </trkpt>
      <trkpt lat="43.4740980" lon="-5.1779580">
        <ele>-2.8</ele>
        <time>2021-07-19T10:59:03Z</time>
      </trkpt>
      <trkpt lat="43.4740860" lon="-5.1780030">
        <ele>-3.2</ele>
        <time>2021-07-19T10:59:04Z</time>
      </trkpt>
      <trkpt lat="43.4740690" lon="-5.1780640">
        <ele>-3.6</ele>
        <time>2021-07-19T10:59:05Z</time>
      </trkpt>
      <trkpt lat="43.4740480" lon="-5.1781250">
        <ele>-4.0</ele>
        <time>2021-07-19T10:59:06Z</time>
      </trkpt>
      <trkpt lat="43.4740340" lon="-5.1781770">
        <ele>-4.4</ele>
        <time>2021-07-19T10:59:07Z</time>
      </trkpt>
      <trkpt lat="43.4740150" lon="-5.1782270">
        <ele>-4.8</ele>
        <time>2021-07-19T10:59:08Z</time>
      </trkpt>
      <trkpt lat="43.4740030" lon="-5.1782730">
        <ele>-5.2</ele>
        <time>2021-07-19T10:59:09Z</time>
      </trkpt>
      <trkpt lat="43.4739930" lon="-5.1783250">
        <ele>-5.8</ele>
        <time>2021-07-19T10:59:10Z</time>
      </trkpt>
      <trkpt lat="43.4739890" lon="-5.1783740">
        <ele>-6.2</ele>
        <time>2021-07-19T10:59:11Z</time>
      </trkpt>
      <trkpt lat="43.4739880" lon="-5.1784170">
        <ele>-6.6</ele>
        <time>2021-07-19T10:59:12Z</time>
      </trkpt>
      <trkpt lat="43.4739890" lon="-5.1784560">
        <ele>-7.0</ele>
        <time>2021-07-19T10:59:13Z</time>
      </trkpt>
      <trkpt lat="43.4739720" lon="-5.1785750">
        <ele>-7.0</ele>
        <time>2021-07-19T10:59:17Z</time>
      </trkpt>
      <trkpt lat="43.4739600" lon="-5.1786040">
        <ele>-7.4</ele>
        <time>2021-07-19T10:59:18Z</time>
      </trkpt>
      <trkpt lat="43.4739460" lon="-5.1786310">
        <ele>-7.8</ele>
        <time>2021-07-19T10:59:19Z</time>
      </trkpt>
      <trkpt lat="43.4739300" lon="-5.1786660">
        <ele>-8.4</ele>
        <time>2021-07-19T10:59:20Z</time>
      </trkpt>
      <trkpt lat="43.4739210" lon="-5.1787030">
        <ele>-8.8</ele>
        <time>2021-07-19T10:59:21Z</time>
      </trkpt>
      <trkpt lat="43.4739210" lon="-5.1787350">
        <ele>-9.2</ele>
        <time>2021-07-19T10:59:22Z</time>
      </trkpt>
      <trkpt lat="43.4739150" lon="-5.1789350">
        <ele>-9.2</ele>
        <time>2021-07-19T10:59:27Z</time>
      </trkpt>
      <trkpt lat="43.4739230" lon="-5.1789780">
        <ele>-9.2</ele>
        <time>2021-07-19T10:59:30Z</time>
      </trkpt>
      <trkpt lat="43.4739500" lon="-5.1795190">
        <ele>-9.0</ele>
        <time>2021-07-19T11:00:55Z</time>
      </trkpt>
      <trkpt lat="43.4739500" lon="-5.1795380">
        <ele>-8.6</ele>
        <time>2021-07-19T11:00:56Z</time>
      </trkpt>
      <trkpt lat="43.4739520" lon="-5.1795550">
        <ele>-8.2</ele>
        <time>2021-07-19T11:00:57Z</time>
      </trkpt>
      <trkpt lat="43.4739530" lon="-5.1795690">
        <ele>-7.8</ele>
        <time>2021-07-19T11:00:58Z</time>
      </trkpt>
      <trkpt lat="43.4739560" lon="-5.1795900">
        <ele>-7.4</ele>
        <time>2021-07-19T11:00:59Z</time>
      </trkpt>
      <trkpt lat="43.4739590" lon="-5.1796120">
        <ele>-7.0</ele>
        <time>2021-07-19T11:01:00Z</time>
      </trkpt>
      <trkpt lat="43.4739670" lon="-5.1796700">
        <ele>-7.0</ele>
        <time>2021-07-19T11:01:03Z</time>
      </trkpt>
      <trkpt lat="43.4739710" lon="-5.1796900">
        <ele>-7.0</ele>
        <time>2021-07-19T11:01:04Z</time>
      </trkpt>
      <trkpt lat="43.4739770" lon="-5.1797400">
        <ele>-6.6</ele>
        <time>2021-07-19T11:01:07Z</time>
      </trkpt>
      <trkpt lat="43.4739780" lon="-5.1797590">
        <ele>-6.0</ele>
        <time>2021-07-19T11:01:08Z</time>
      </trkpt>
      <trkpt lat="43.4739790" lon="-5.1797790">
        <ele>-5.6</ele>
        <time>2021-07-19T11:01:09Z</time>
      </trkpt>
      <trkpt lat="43.4739830" lon="-5.1797970">
        <ele>-5.2</ele>
        <time>2021-07-19T11:01:10Z</time>
      </trkpt>
      <trkpt lat="43.4739880" lon="-5.1798200">
        <ele>-4.8</ele>
        <time>2021-07-19T11:01:11Z</time>
      </trkpt>
      <trkpt lat="43.4739930" lon="-5.1798410">
        <ele>-4.8</ele>
        <time>2021-07-19T11:01:12Z</time>
      </trkpt>
      <trkpt lat="43.4740150" lon="-5.1799120">
        <ele>-4.8</ele>
        <time>2021-07-19T11:01:19Z</time>
      </trkpt>
      <trkpt lat="43.4739960" lon="-5.1800180">
        <ele>-4.8</ele>
        <time>2021-07-19T11:01:37Z</time>
      </trkpt>
      <trkpt lat="43.4739850" lon="-5.1800740">
        <ele>-4.8</ele>
        <time>2021-07-19T11:01:40Z</time>
      </trkpt>
      <trkpt lat="43.4739900" lon="-5.1801540">
        <ele>-4.4</ele>
        <time>2021-07-19T11:01:43Z</time>
      </trkpt>
      <trkpt lat="43.4739930" lon="-5.1801790">
        <ele>-4.0</ele>
        <time>2021-07-19T11:01:44Z</time>
      </trkpt>
      <trkpt lat="43.4739940" lon="-5.1802040">
        <ele>-3.6</ele>
        <time>2021-07-19T11:01:45Z</time>
      </trkpt>
      <trkpt lat="43.4739910" lon="-5.1802260">
        <ele>-3.2</ele>
        <time>2021-07-19T11:01:46Z</time>
      </trkpt>
      <trkpt lat="43.4739860" lon="-5.1802510">
        <ele>-2.8</ele>
        <time>2021-07-19T11:01:47Z</time>
      </trkpt>
      <trkpt lat="43.4739680" lon="-5.1804280">
        <ele>-2.8</ele>
        <time>2021-07-19T11:01:55Z</time>
      </trkpt>
      <trkpt lat="43.4739640" lon="-5.1804790">
        <ele>-2.4</ele>
        <time>2021-07-19T11:01:57Z</time>
      </trkpt>
      <trkpt lat="43.4739630" lon="-5.1805050">
        <ele>-1.8</ele>
        <time>2021-07-19T11:01:58Z</time>
      </trkpt>
      <trkpt lat="43.4739620" lon="-5.1805330">
        <ele>-1.4</ele>
        <time>2021-07-19T11:01:59Z</time>
      </trkpt>
      <trkpt lat="43.4739620" lon="-5.1805650">
        <ele>-1.0</ele>
        <time>2021-07-19T11:02:00Z</time>
      </trkpt>
      <trkpt lat="43.4739640" lon="-5.1805950">
        <ele>-0.6</ele>
        <time>2021-07-19T11:02:01Z</time>
      </trkpt>
      <trkpt lat="43.4739650" lon="-5.1806550">
        <ele>-0.6</ele>
        <time>2021-07-19T11:02:03Z</time>
      </trkpt>
      <trkpt lat="43.4739920" lon="-5.1808690">
        <ele>-0.6</ele>
        <time>2021-07-19T11:02:10Z</time>
      </trkpt>
      <trkpt lat="43.4739970" lon="-5.1808980">
        <ele>-0.2</ele>
        <time>2021-07-19T11:02:11Z</time>
      </trkpt>
      <trkpt lat="43.4740090" lon="-5.1809250">
        <ele>0.2</ele>
        <time>2021-07-19T11:02:12Z</time>
      </trkpt>
      <trkpt lat="43.4740150" lon="-5.1809580">
        <ele>0.6</ele>
        <time>2021-07-19T11:02:13Z</time>
      </trkpt>
      <trkpt lat="43.4740230" lon="-5.1809860">
        <ele>1.0</ele>
        <time>2021-07-19T11:02:14Z</time>
      </trkpt>
      <trkpt lat="43.4740330" lon="-5.1810140">
        <ele>1.6</ele>
        <time>2021-07-19T11:02:15Z</time>
      </trkpt>
      <trkpt lat="43.4740400" lon="-5.1810380">
        <ele>1.6</ele>
        <time>2021-07-19T11:02:16Z</time>
      </trkpt>
      <trkpt lat="43.4741160" lon="-5.1811960">
        <ele>1.6</ele>
        <time>2021-07-19T11:02:23Z</time>
      </trkpt>
      <trkpt lat="43.4741320" lon="-5.1812210">
        <ele>2.0</ele>
        <time>2021-07-19T11:02:24Z</time>
      </trkpt>
      <trkpt lat="43.4741460" lon="-5.1812450">
        <ele>2.4</ele>
        <time>2021-07-19T11:02:25Z</time>
      </trkpt>
      <trkpt lat="43.4741600" lon="-5.1812690">
        <ele>2.8</ele>
        <time>2021-07-19T11:02:26Z</time>
      </trkpt>
      <trkpt lat="43.4741720" lon="-5.1812980">
        <ele>3.2</ele>
        <time>2021-07-19T11:02:27Z</time>
      </trkpt>
      <trkpt lat="43.4741830" lon="-5.1813220">
        <ele>3.6</ele>
        <time>2021-07-19T11:02:28Z</time>
      </trkpt>
      <trkpt lat="43.4742080" lon="-5.1814110">
        <ele>3.6</ele>
        <time>2021-07-19T11:02:31Z</time>
      </trkpt>
      <trkpt lat="43.4742350" lon="-5.1816060">
        <ele>3.6</ele>
        <time>2021-07-19T11:02:37Z</time>
      </trkpt>
      <trkpt lat="43.4742180" lon="-5.1817620">
        <ele>4.4</ele>
        <time>2021-07-19T11:02:42Z</time>
      </trkpt>
      <trkpt lat="43.4742090" lon="-5.1817900">
        <ele>4.8</ele>
        <time>2021-07-19T11:02:43Z</time>
      </trkpt>
      <trkpt lat="43.4742050" lon="-5.1818160">
        <ele>5.2</ele>
        <time>2021-07-19T11:02:44Z</time>
      </trkpt>
      <trkpt lat="43.4741980" lon="-5.1818410">
        <ele>5.6</ele>
        <time>2021-07-19T11:02:45Z</time>
      </trkpt>
      <trkpt lat="43.4741540" lon="-5.1820200">
        <ele>5.6</ele>
        <time>2021-07-19T11:02:52Z</time>
      </trkpt>
      <trkpt lat="43.4741320" lon="-5.1820880">
        <ele>6.0</ele>
        <time>2021-07-19T11:02:55Z</time>
      </trkpt>
      <trkpt lat="43.4741250" lon="-5.1821120">
        <ele>6.6</ele>
        <time>2021-07-19T11:02:56Z</time>
      </trkpt>
      <trkpt lat="43.4741230" lon="-5.1821350">
        <ele>7.0</ele>
        <time>2021-07-19T11:02:57Z</time>
      </trkpt>
      <trkpt lat="43.4741240" lon="-5.1821590">
        <ele>7.4</ele>
        <time>2021-07-19T11:02:58Z</time>
      </trkpt>
      <trkpt lat="43.4741300" lon="-5.1821860">
        <ele>7.8</ele>
        <time>2021-07-19T11:02:59Z</time>
      </trkpt>
      <trkpt lat="43.4742130" lon="-5.1824150">
        <ele>7.8</ele>
        <time>2021-07-19T11:03:06Z</time>
      </trkpt>
      <trkpt lat="43.4742410" lon="-5.1824910">
        <ele>7.8</ele>
        <time>2021-07-19T11:03:10Z</time>
      </trkpt>
      <trkpt lat="43.4742480" lon="-5.1825010">
        <ele>7.8</ele>
        <time>2021-07-19T11:03:11Z</time>
      </trkpt>
      <trkpt lat="43.4742500" lon="-5.1825200">
        <ele>7.8</ele>
        <time>2021-07-19T11:03:13Z</time>
      </trkpt>
      <trkpt lat="43.4742590" lon="-5.1825570">
        <ele>7.8</ele>
        <time>2021-07-19T11:03:15Z</time>
      </trkpt>
      <trkpt lat="43.4742650" lon="-5.1825770">
        <ele>7.8</ele>
        <time>2021-07-19T11:03:16Z</time>
      </trkpt>
      <trkpt lat="43.4743270" lon="-5.1827470">
        <ele>7.8</ele>
        <time>2021-07-19T11:03:22Z</time>
      </trkpt>
      <trkpt lat="43.4743890" lon="-5.1829070">
        <ele>7.8</ele>
        <time>2021-07-19T11:03:27Z</time>
      </trkpt>
      <trkpt lat="43.4744170" lon="-5.1829880">
        <ele>7.8</ele>
        <time>2021-07-19T11:03:29Z</time>
      </trkpt>
      <trkpt lat="43.4745400" lon="-5.1833310">
        <ele>7.8</ele>
        <time>2021-07-19T11:03:38Z</time>
      </trkpt>
      <trkpt lat="43.4745510" lon="-5.1833790">
        <ele>7.8</ele>
        <time>2021-07-19T11:03:39Z</time>
      </trkpt>
      <trkpt lat="43.4745600" lon="-5.1834690">
        <ele>7.8</ele>
        <time>2021-07-19T11:03:41Z</time>
      </trkpt>
      <trkpt lat="43.4745590" lon="-5.1835720">
        <ele>7.8</ele>
        <time>2021-07-19T11:03:43Z</time>
      </trkpt>
      <trkpt lat="43.4745230" lon="-5.1840110">
        <ele>7.8</ele>
        <time>2021-07-19T11:03:51Z</time>
      </trkpt>
      <trkpt lat="43.4744880" lon="-5.1842030">
        <ele>7.8</ele>
        <time>2021-07-19T11:03:55Z</time>
      </trkpt>
      <trkpt lat="43.4744740" lon="-5.1842320">
        <ele>7.8</ele>
        <time>2021-07-19T11:03:56Z</time>
      </trkpt>
      <trkpt lat="43.4744210" lon="-5.1843060">
        <ele>7.8</ele>
        <time>2021-07-19T11:04:00Z</time>
      </trkpt>
      <trkpt lat="43.4744070" lon="-5.1843250">
        <ele>7.8</ele>
        <time>2021-07-19T11:04:01Z</time>
      </trkpt>
      <trkpt lat="43.4743790" lon="-5.1843640">
        <ele>7.8</ele>
        <time>2021-07-19T11:04:03Z</time>
      </trkpt>
      <trkpt lat="43.4743630" lon="-5.1843850">
        <ele>7.8</ele>
        <time>2021-07-19T11:04:04Z</time>
      </trkpt>
      <trkpt lat="43.4743320" lon="-5.1844310">
        <ele>7.8</ele>
        <time>2021-07-19T11:04:06Z</time>
      </trkpt>
      <trkpt lat="43.4743050" lon="-5.1844840">
        <ele>7.8</ele>
        <time>2021-07-19T11:04:08Z</time>
      </trkpt>
      <trkpt lat="43.4742880" lon="-5.1845080">
        <ele>7.8</ele>
        <time>2021-07-19T11:04:09Z</time>
      </trkpt>
      <trkpt lat="43.4742370" lon="-5.1845750">
        <ele>7.8</ele>
        <time>2021-07-19T11:04:12Z</time>
      </trkpt>
      <trkpt lat="43.4742230" lon="-5.1845940">
        <ele>8.2</ele>
        <time>2021-07-19T11:04:13Z</time>
      </trkpt>
      <trkpt lat="43.4742120" lon="-5.1846110">
        <ele>8.6</ele>
        <time>2021-07-19T11:04:14Z</time>
      </trkpt>
      <trkpt lat="43.4742040" lon="-5.1846260">
        <ele>9.0</ele>
        <time>2021-07-19T11:04:15Z</time>
      </trkpt>
      <trkpt lat="43.4742000" lon="-5.1846420">
        <ele>9.4</ele>
        <time>2021-07-19T11:04:16Z</time>
      </trkpt>
      <trkpt lat="43.4742020" lon="-5.1846680">
        <ele>9.8</ele>
        <time>2021-07-19T11:04:17Z</time>
      </trkpt>
      <trkpt lat="43.4742270" lon="-5.1847090">
        <ele>9.8</ele>
        <time>2021-07-19T11:04:19Z</time>
      </trkpt>
      <trkpt lat="43.4742910" lon="-5.1847710">
        <ele>9.8</ele>
        <time>2021-07-19T11:04:21Z</time>
      </trkpt>
      <trkpt lat="43.4743600" lon="-5.1848470">
        <ele>9.8</ele>
        <time>2021-07-19T11:04:23Z</time>
      </trkpt>
      <trkpt lat="43.4744570" lon="-5.1849810">
        <ele>9.8</ele>
        <time>2021-07-19T11:04:28Z</time>
      </trkpt>
      <trkpt lat="43.4745850" lon="-5.1852020">
        <ele>9.8</ele>
        <time>2021-07-19T11:04:35Z</time>
      </trkpt>
      <trkpt lat="43.4747030" lon="-5.1854420">
        <ele>9.8</ele>
        <time>2021-07-19T11:04:42Z</time>
      </trkpt>
      <trkpt lat="43.4747700" lon="-5.1855920">
        <ele>9.8</ele>
        <time>2021-07-19T11:04:47Z</time>
      </trkpt>
      <trkpt lat="43.4748200" lon="-5.1856650">
        <ele>9.8</ele>
        <time>2021-07-19T11:04:50Z</time>
      </trkpt>
      <trkpt lat="43.4748630" lon="-5.1857310">
        <ele>10.2</ele>
        <time>2021-07-19T11:04:54Z</time>
      </trkpt>
      <trkpt lat="43.4748710" lon="-5.1857440">
        <ele>10.6</ele>
        <time>2021-07-19T11:04:55Z</time>
      </trkpt>
      <trkpt lat="43.4748770" lon="-5.1857610">
        <ele>11.0</ele>
        <time>2021-07-19T11:04:56Z</time>
      </trkpt>
      <trkpt lat="43.4748840" lon="-5.1857800">
        <ele>11.4</ele>
        <time>2021-07-19T11:04:57Z</time>
      </trkpt>
      <trkpt lat="43.4748950" lon="-5.1857990">
        <ele>11.8</ele>
        <time>2021-07-19T11:04:58Z</time>
      </trkpt>
      <trkpt lat="43.4749280" lon="-5.1858580">
        <ele>11.8</ele>
        <time>2021-07-19T11:05:01Z</time>
      </trkpt>
      <trkpt lat="43.4749380" lon="-5.1858750">
        <ele>11.8</ele>
        <time>2021-07-19T11:05:02Z</time>
      </trkpt>
      <trkpt lat="43.4749440" lon="-5.1858950">
        <ele>12.2</ele>
        <time>2021-07-19T11:05:03Z</time>
      </trkpt>
      <trkpt lat="43.4749550" lon="-5.1859100">
        <ele>12.6</ele>
        <time>2021-07-19T11:05:04Z</time>
      </trkpt>
      <trkpt lat="43.4749660" lon="-5.1859250">
        <ele>13.2</ele>
        <time>2021-07-19T11:05:05Z</time>
      </trkpt>
      <trkpt lat="43.4749760" lon="-5.1859430">
        <ele>13.6</ele>
        <time>2021-07-19T11:05:06Z</time>
      </trkpt>
      <trkpt lat="43.4749870" lon="-5.1859640">
        <ele>14.0</ele>
        <time>2021-07-19T11:05:07Z</time>
      </trkpt>
      <trkpt lat="43.4749970" lon="-5.1859830">
        <ele>14.0</ele>
        <time>2021-07-19T11:05:08Z</time>
      </trkpt>
      <trkpt lat="43.4750620" lon="-5.1860700">
        <ele>14.4</ele>
        <time>2021-07-19T11:05:13Z</time>
      </trkpt>
      <trkpt lat="43.4750700" lon="-5.1860900">
        <ele>14.8</ele>
        <time>2021-07-19T11:05:14Z</time>
      </trkpt>
      <trkpt lat="43.4750780" lon="-5.1861100">
        <ele>15.2</ele>
        <time>2021-07-19T11:05:15Z</time>
      </trkpt>
      <trkpt lat="43.4750840" lon="-5.1861330">
        <ele>15.6</ele>
        <time>2021-07-19T11:05:16Z</time>
      </trkpt>
      <trkpt lat="43.4750900" lon="-5.1861540">
        <ele>16.0</ele>
        <time>2021-07-19T11:05:17Z</time>
      </trkpt>
      <trkpt lat="43.4751410" lon="-5.1862690">
        <ele>16.0</ele>
        <time>2021-07-19T11:05:23Z</time>
      </trkpt>
      <trkpt lat="43.4751870" lon="-5.1864320">
        <ele>16.0</ele>
        <time>2021-07-19T11:05:30Z</time>
      </trkpt>
      <trkpt lat="43.4751860" lon="-5.1865370">
        <ele>16.4</ele>
        <time>2021-07-19T11:05:35Z</time>
      </trkpt>
      <trkpt lat="43.4751830" lon="-5.1865520">
        <ele>16.8</ele>
        <time>2021-07-19T11:05:36Z</time>
      </trkpt>
      <trkpt lat="43.4751810" lon="-5.1865690">
        <ele>17.2</ele>
        <time>2021-07-19T11:05:37Z</time>
      </trkpt>
      <trkpt lat="43.4751760" lon="-5.1865950">
        <ele>17.8</ele>
        <time>2021-07-19T11:05:38Z</time>
      </trkpt>
      <trkpt lat="43.4751750" lon="-5.1866150">
        <ele>18.2</ele>
        <time>2021-07-19T11:05:39Z</time>
      </trkpt>
      <trkpt lat="43.4751800" lon="-5.1866300">
        <ele>18.2</ele>
        <time>2021-07-19T11:05:40Z</time>
      </trkpt>
      <trkpt lat="43.4752050" lon="-5.1866340">
        <ele>18.2</ele>
        <time>2021-07-19T11:05:42Z</time>
      </trkpt>
      <trkpt lat="43.4753080" lon="-5.1867050">
        <ele>18.2</ele>
        <time>2021-07-19T11:05:47Z</time>
      </trkpt>
      <trkpt lat="43.4753290" lon="-5.1867390">
        <ele>17.6</ele>
        <time>2021-07-19T11:05:48Z</time>
      </trkpt>
      <trkpt lat="43.4753470" lon="-5.1867790">
        <ele>17.2</ele>
        <time>2021-07-19T11:05:49Z</time>
      </trkpt>
      <trkpt lat="43.4753660" lon="-5.1868210">
        <ele>16.8</ele>
        <time>2021-07-19T11:05:50Z</time>
      </trkpt>
      <trkpt lat="43.4753840" lon="-5.1868570">
        <ele>16.2</ele>
        <time>2021-07-19T11:05:51Z</time>
      </trkpt>
      <trkpt lat="43.4754020" lon="-5.1868850">
        <ele>15.8</ele>
        <time>2021-07-19T11:05:52Z</time>
      </trkpt>
      <trkpt lat="43.4754230" lon="-5.1869080">
        <ele>15.4</ele>
        <time>2021-07-19T11:05:53Z</time>
      </trkpt>
      <trkpt lat="43.4754350" lon="-5.1869360">
        <ele>15.0</ele>
        <time>2021-07-19T11:05:54Z</time>
      </trkpt>
      <trkpt lat="43.4754360" lon="-5.1869710">
        <ele>14.4</ele>
        <time>2021-07-19T11:05:55Z</time>
      </trkpt>
      <trkpt lat="43.4754330" lon="-5.1870010">
        <ele>14.0</ele>
        <time>2021-07-19T11:05:56Z</time>
      </trkpt>
      <trkpt lat="43.4754250" lon="-5.1870330">
        <ele>13.6</ele>
        <time>2021-07-19T11:05:57Z</time>
      </trkpt>
      <trkpt lat="43.4754060" lon="-5.1871070">
        <ele>13.6</ele>
        <time>2021-07-19T11:05:59Z</time>
      </trkpt>
      <trkpt lat="43.4753950" lon="-5.1871400">
        <ele>13.6</ele>
        <time>2021-07-19T11:06:00Z</time>
      </trkpt>
      <trkpt lat="43.4753850" lon="-5.1871680">
        <ele>13.6</ele>
        <time>2021-07-19T11:06:01Z</time>
      </trkpt>
      <trkpt lat="43.4753650" lon="-5.1872540">
        <ele>13.6</ele>
        <time>2021-07-19T11:06:04Z</time>
      </trkpt>
      <trkpt lat="43.4753350" lon="-5.1873780">
        <ele>13.6</ele>
        <time>2021-07-19T11:06:08Z</time>
      </trkpt>
      <trkpt lat="43.4753160" lon="-5.1874730">
        <ele>13.6</ele>
        <time>2021-07-19T11:06:11Z</time>
      </trkpt>
      <trkpt lat="43.4753090" lon="-5.1876080">
        <ele>13.6</ele>
        <time>2021-07-19T11:06:14Z</time>
      </trkpt>
      <trkpt lat="43.4753060" lon="-5.1877450">
        <ele>13.6</ele>
        <time>2021-07-19T11:06:16Z</time>
      </trkpt>
      <trkpt lat="43.4753080" lon="-5.1878130">
        <ele>13.2</ele>
        <time>2021-07-19T11:06:17Z</time>
      </trkpt>
      <trkpt lat="43.4753120" lon="-5.1878760">
        <ele>12.6</ele>
        <time>2021-07-19T11:06:18Z</time>
      </trkpt>
      <trkpt lat="43.4753130" lon="-5.1879410">
        <ele>12.2</ele>
        <time>2021-07-19T11:06:19Z</time>
      </trkpt>
      <trkpt lat="43.4753140" lon="-5.1880080">
        <ele>11.8</ele>
        <time>2021-07-19T11:06:20Z</time>
      </trkpt>
      <trkpt lat="43.4753140" lon="-5.1880760">
        <ele>11.4</ele>
        <time>2021-07-19T11:06:21Z</time>
      </trkpt>
      <trkpt lat="43.4753450" lon="-5.1882550">
        <ele>11.4</ele>
        <time>2021-07-19T11:06:25Z</time>
      </trkpt>
      <trkpt lat="43.4753460" lon="-5.1883210">
        <ele>11.4</ele>
        <time>2021-07-19T11:06:28Z</time>
      </trkpt>
      <trkpt lat="43.4753360" lon="-5.1883320">
        <ele>11.4</ele>
        <time>2021-07-19T11:06:29Z</time>
      </trkpt>
      <trkpt lat="43.4752960" lon="-5.1883800">
        <ele>11.4</ele>
        <time>2021-07-19T11:06:32Z</time>
      </trkpt>
      <trkpt lat="43.4752800" lon="-5.1884020">
        <ele>11.4</ele>
        <time>2021-07-19T11:06:33Z</time>
      </trkpt>
      <trkpt lat="43.4752390" lon="-5.1884370">
        <ele>11.4</ele>
        <time>2021-07-19T11:06:35Z</time>
      </trkpt>
      <trkpt lat="43.4752190" lon="-5.1884470">
        <ele>11.4</ele>
        <time>2021-07-19T11:06:36Z</time>
      </trkpt>
      <trkpt lat="43.4751880" lon="-5.1884810">
        <ele>11.4</ele>
        <time>2021-07-19T11:06:38Z</time>
      </trkpt>
      <trkpt lat="43.4751680" lon="-5.1885330">
        <ele>11.4</ele>
        <time>2021-07-19T11:06:40Z</time>
      </trkpt>
      <trkpt lat="43.4751580" lon="-5.1885700">
        <ele>11.4</ele>
        <time>2021-07-19T11:06:41Z</time>
      </trkpt>
      <trkpt lat="43.4751440" lon="-5.1888060">
        <ele>11.4</ele>
        <time>2021-07-19T11:06:46Z</time>
      </trkpt>
      <trkpt lat="43.4751000" lon="-5.1891410">
        <ele>11.4</ele>
        <time>2021-07-19T11:06:53Z</time>
      </trkpt>
      <trkpt lat="43.4750090" lon="-5.1895130">
        <ele>11.4</ele>
        <time>2021-07-19T11:07:02Z</time>
      </trkpt>
      <trkpt lat="43.4749460" lon="-5.1897920">
        <ele>11.4</ele>
        <time>2021-07-19T11:07:09Z</time>
      </trkpt>
      <trkpt lat="43.4749090" lon="-5.1899060">
        <ele>11.4</ele>
        <time>2021-07-19T11:07:12Z</time>
      </trkpt>
      <trkpt lat="43.4748530" lon="-5.1900930">
        <ele>11.4</ele>
        <time>2021-07-19T11:07:17Z</time>
      </trkpt>
      <trkpt lat="43.4748340" lon="-5.1901670">
        <ele>11.4</ele>
        <time>2021-07-19T11:07:19Z</time>
      </trkpt>
      <trkpt lat="43.4747910" lon="-5.1902740">
        <ele>11.4</ele>
        <time>2021-07-19T11:07:22Z</time>
      </trkpt>
      <trkpt lat="43.4747710" lon="-5.1903620">
        <ele>11.4</ele>
        <time>2021-07-19T11:07:25Z</time>
      </trkpt>
      <trkpt lat="43.4747100" lon="-5.1905160">
        <ele>11.4</ele>
        <time>2021-07-19T11:07:30Z</time>
      </trkpt>
      <trkpt lat="43.4747000" lon="-5.1905590">
        <ele>11.4</ele>
        <time>2021-07-19T11:07:31Z</time>
      </trkpt>
      <trkpt lat="43.4746930" lon="-5.1906360">
        <ele>11.4</ele>
        <time>2021-07-19T11:07:33Z</time>
      </trkpt>
      <trkpt lat="43.4746810" lon="-5.1907220">
        <ele>11.4</ele>
        <time>2021-07-19T11:07:35Z</time>
      </trkpt>
      <trkpt lat="43.4746710" lon="-5.1907680">
        <ele>11.4</ele>
        <time>2021-07-19T11:07:36Z</time>
      </trkpt>
      <trkpt lat="43.4746550" lon="-5.1908180">
        <ele>11.0</ele>
        <time>2021-07-19T11:07:37Z</time>
      </trkpt>
      <trkpt lat="43.4746420" lon="-5.1908690">
        <ele>10.6</ele>
        <time>2021-07-19T11:07:38Z</time>
      </trkpt>
      <trkpt lat="43.4746300" lon="-5.1909230">
        <ele>9.6</ele>
        <time>2021-07-19T11:07:39Z</time>
      </trkpt>
      <trkpt lat="43.4746200" lon="-5.1909830">
        <ele>9.2</ele>
        <time>2021-07-19T11:07:40Z</time>
      </trkpt>
      <trkpt lat="43.4746100" lon="-5.1910470">
        <ele>9.2</ele>
        <time>2021-07-19T11:07:41Z</time>
      </trkpt>
      <trkpt lat="43.4745730" lon="-5.1913420">
        <ele>9.2</ele>
        <time>2021-07-19T11:07:45Z</time>
      </trkpt>
      <trkpt lat="43.4745730" lon="-5.1914220">
        <ele>9.2</ele>
        <time>2021-07-19T11:07:46Z</time>
      </trkpt>
      <trkpt lat="43.4745790" lon="-5.1915010">
        <ele>9.2</ele>
        <time>2021-07-19T11:07:47Z</time>
      </trkpt>
      <trkpt lat="43.4745740" lon="-5.1916490">
        <ele>9.2</ele>
        <time>2021-07-19T11:07:49Z</time>
      </trkpt>
      <trkpt lat="43.4745680" lon="-5.1917150">
        <ele>8.8</ele>
        <time>2021-07-19T11:07:50Z</time>
      </trkpt>
      <trkpt lat="43.4745560" lon="-5.1917770">
        <ele>8.4</ele>
        <time>2021-07-19T11:07:51Z</time>
      </trkpt>
      <trkpt lat="43.4745470" lon="-5.1918470">
        <ele>8.0</ele>
        <time>2021-07-19T11:07:52Z</time>
      </trkpt>
      <trkpt lat="43.4745430" lon="-5.1919200">
        <ele>7.6</ele>
        <time>2021-07-19T11:07:53Z</time>
      </trkpt>
      <trkpt lat="43.4745440" lon="-5.1919940">
        <ele>7.0</ele>
        <time>2021-07-19T11:07:54Z</time>
      </trkpt>
      <trkpt lat="43.4745490" lon="-5.1922000">
        <ele>6.6</ele>
        <time>2021-07-19T11:07:57Z</time>
      </trkpt>
      <trkpt lat="43.4745470" lon="-5.1922420">
        <ele>6.2</ele>
        <time>2021-07-19T11:07:58Z</time>
      </trkpt>
      <trkpt lat="43.4745440" lon="-5.1922850">
        <ele>5.6</ele>
        <time>2021-07-19T11:07:59Z</time>
      </trkpt>
      <trkpt lat="43.4745350" lon="-5.1923310">
        <ele>5.2</ele>
        <time>2021-07-19T11:08:00Z</time>
      </trkpt>
      <trkpt lat="43.4745180" lon="-5.1923750">
        <ele>4.6</ele>
        <time>2021-07-19T11:08:01Z</time>
      </trkpt>
      <trkpt lat="43.4744940" lon="-5.1924240">
        <ele>4.6</ele>
        <time>2021-07-19T11:08:02Z</time>
      </trkpt>
      <trkpt lat="43.4744690" lon="-5.1924700">
        <ele>4.2</ele>
        <time>2021-07-19T11:08:03Z</time>
      </trkpt>
      <trkpt lat="43.4744390" lon="-5.1925160">
        <ele>3.8</ele>
        <time>2021-07-19T11:08:04Z</time>
      </trkpt>
      <trkpt lat="43.4744090" lon="-5.1925560">
        <ele>3.4</ele>
        <time>2021-07-19T11:08:05Z</time>
      </trkpt>
      <trkpt lat="43.4743820" lon="-5.1925930">
        <ele>3.0</ele>
        <time>2021-07-19T11:08:06Z</time>
      </trkpt>
      <trkpt lat="43.4743560" lon="-5.1926290">
        <ele>2.4</ele>
        <time>2021-07-19T11:08:07Z</time>
      </trkpt>
      <trkpt lat="43.4743260" lon="-5.1926900">
        <ele>2.0</ele>
        <time>2021-07-19T11:08:09Z</time>
      </trkpt>
      <trkpt lat="43.4743190" lon="-5.1927270">
        <ele>1.6</ele>
        <time>2021-07-19T11:08:10Z</time>
      </trkpt>
      <trkpt lat="43.4743110" lon="-5.1927730">
        <ele>1.2</ele>
        <time>2021-07-19T11:08:11Z</time>
      </trkpt>
      <trkpt lat="43.4743050" lon="-5.1928220">
        <ele>0.8</ele>
        <time>2021-07-19T11:08:12Z</time>
      </trkpt>
      <trkpt lat="43.4743030" lon="-5.1928800">
        <ele>0.2</ele>
        <time>2021-07-19T11:08:13Z</time>
      </trkpt>
      <trkpt lat="43.4743170" lon="-5.1931000">
        <ele>0.2</ele>
        <time>2021-07-19T11:08:16Z</time>
      </trkpt>
      <trkpt lat="43.4743430" lon="-5.1933150">
        <ele>-0.2</ele>
        <time>2021-07-19T11:08:19Z</time>
      </trkpt>
      <trkpt lat="43.4743450" lon="-5.1933810">
        <ele>-0.6</ele>
        <time>2021-07-19T11:08:20Z</time>
      </trkpt>
      <trkpt lat="43.4743520" lon="-5.1934490">
        <ele>-1.2</ele>
        <time>2021-07-19T11:08:21Z</time>
      </trkpt>
      <trkpt lat="43.4743630" lon="-5.1935160">
        <ele>-1.6</ele>
        <time>2021-07-19T11:08:22Z</time>
      </trkpt>
      <trkpt lat="43.4743730" lon="-5.1935870">
        <ele>-2.0</ele>
        <time>2021-07-19T11:08:23Z</time>
      </trkpt>
      <trkpt lat="43.4743780" lon="-5.1936570">
        <ele>-2.6</ele>
        <time>2021-07-19T11:08:24Z</time>
      </trkpt>
      <trkpt lat="43.4743850" lon="-5.1937180">
        <ele>-3.0</ele>
        <time>2021-07-19T11:08:25Z</time>
      </trkpt>
      <trkpt lat="43.4743870" lon="-5.1937800">
        <ele>-3.6</ele>
        <time>2021-07-19T11:08:26Z</time>
      </trkpt>
      <trkpt lat="43.4743840" lon="-5.1938450">
        <ele>-4.2</ele>
        <time>2021-07-19T11:08:27Z</time>
      </trkpt>
      <trkpt lat="43.4743790" lon="-5.1939120">
        <ele>-5.6</ele>
        <time>2021-07-19T11:08:28Z</time>
      </trkpt>
      <trkpt lat="43.4743720" lon="-5.1939850">
        <ele>-6.4</ele>
        <time>2021-07-19T11:08:29Z</time>
      </trkpt>
      <trkpt lat="43.4743640" lon="-5.1940650">
        <ele>-7.0</ele>
        <time>2021-07-19T11:08:30Z</time>
      </trkpt>
      <trkpt lat="43.4743630" lon="-5.1941410">
        <ele>-7.6</ele>
        <time>2021-07-19T11:08:31Z</time>
      </trkpt>
      <trkpt lat="43.4743550" lon="-5.1942310">
        <ele>-8.2</ele>
        <time>2021-07-19T11:08:32Z</time>
      </trkpt>
      <trkpt lat="43.4743510" lon="-5.1943090">
        <ele>-8.8</ele>
        <time>2021-07-19T11:08:33Z</time>
      </trkpt>
      <trkpt lat="43.4743480" lon="-5.1943800">
        <ele>-9.4</ele>
        <time>2021-07-19T11:08:34Z</time>
      </trkpt>
      <trkpt lat="43.4743480" lon="-5.1944470">
        <ele>-10.0</ele>
        <time>2021-07-19T11:08:35Z</time>
      </trkpt>
      <trkpt lat="43.4743510" lon="-5.1945140">
        <ele>-10.8</ele>
        <time>2021-07-19T11:08:36Z</time>
      </trkpt>
      <trkpt lat="43.4743550" lon="-5.1945630">
        <ele>-11.4</ele>
        <time>2021-07-19T11:08:37Z</time>
      </trkpt>
      <trkpt lat="43.4743610" lon="-5.1946160">
        <ele>-12.2</ele>
        <time>2021-07-19T11:08:38Z</time>
      </trkpt>
      <trkpt lat="43.4743750" lon="-5.1946610">
        <ele>-12.8</ele>
        <time>2021-07-19T11:08:39Z</time>
      </trkpt>
      <trkpt lat="43.4743900" lon="-5.1947160">
        <ele>-13.4</ele>
        <time>2021-07-19T11:08:40Z</time>
      </trkpt>
      <trkpt lat="43.4744410" lon="-5.1948680">
        <ele>-14.0</ele>
        <time>2021-07-19T11:08:43Z</time>
      </trkpt>
      <trkpt lat="43.4744510" lon="-5.1949010">
        <ele>-14.4</ele>
        <time>2021-07-19T11:08:44Z</time>
      </trkpt>
      <trkpt lat="43.4744620" lon="-5.1949360">
        <ele>-14.8</ele>
        <time>2021-07-19T11:08:45Z</time>
      </trkpt>
      <trkpt lat="43.4744760" lon="-5.1949620">
        <ele>-15.4</ele>
        <time>2021-07-19T11:08:46Z</time>
      </trkpt>
      <trkpt lat="43.4744850" lon="-5.1949850">
        <ele>-16.0</ele>
        <time>2021-07-19T11:08:47Z</time>
      </trkpt>
      <trkpt lat="43.4744960" lon="-5.1950040">
        <ele>-16.6</ele>
        <time>2021-07-19T11:08:48Z</time>
      </trkpt>
      <trkpt lat="43.4745090" lon="-5.1950180">
        <ele>-17.2</ele>
        <time>2021-07-19T11:08:49Z</time>
      </trkpt>
      <trkpt lat="43.4745220" lon="-5.1950410">
        <ele>-17.8</ele>
        <time>2021-07-19T11:08:50Z</time>
      </trkpt>
      <trkpt lat="43.4745410" lon="-5.1950690">
        <ele>-18.4</ele>
        <time>2021-07-19T11:08:51Z</time>
      </trkpt>
      <trkpt lat="43.4745640" lon="-5.1950970">
        <ele>-18.8</ele>
        <time>2021-07-19T11:08:52Z</time>
      </trkpt>
      <trkpt lat="43.4745890" lon="-5.1951330">
        <ele>-19.6</ele>
        <time>2021-07-19T11:08:53Z</time>
      </trkpt>
      <trkpt lat="43.4746080" lon="-5.1951640">
        <ele>-20.0</ele>
        <time>2021-07-19T11:08:54Z</time>
      </trkpt>
      <trkpt lat="43.4746240" lon="-5.1951870">
        <ele>-20.4</ele>
        <time>2021-07-19T11:08:55Z</time>
      </trkpt>
      <trkpt lat="43.4746550" lon="-5.1952000">
        <ele>-20.4</ele>
        <time>2021-07-19T11:08:57Z</time>
      </trkpt>
      <trkpt lat="43.4746620" lon="-5.1952020">
        <ele>-20.4</ele>
        <time>2021-07-19T11:08:59Z</time>
      </trkpt>
      <trkpt lat="43.4746800" lon="-5.1952250">
        <ele>-20.4</ele>
        <time>2021-07-19T11:09:01Z</time>
      </trkpt>
      <trkpt lat="43.4746880" lon="-5.1952380">
        <ele>-20.4</ele>
        <time>2021-07-19T11:09:02Z</time>
      </trkpt>
      <trkpt lat="43.4747010" lon="-5.1952510">
        <ele>-20.4</ele>
        <time>2021-07-19T11:09:05Z</time>
      </trkpt>
      <trkpt lat="43.4746960" lon="-5.1953410">
        <ele>-20.4</ele>
        <time>2021-07-19T11:10:27Z</time>
      </trkpt>
      <trkpt lat="43.4747000" lon="-5.1953630">
        <ele>-20.4</ele>
        <time>2021-07-19T11:10:28Z</time>
      </trkpt>
      <trkpt lat="43.4747330" lon="-5.1954210">
        <ele>-20.4</ele>
        <time>2021-07-19T11:10:33Z</time>
      </trkpt>
      <trkpt lat="43.4747330" lon="-5.1954240">
        <ele>-20.4</ele>
        <time>2021-07-19T11:10:34Z</time>
      </trkpt>
      <trkpt lat="43.4747470" lon="-5.1954440">
        <ele>-20.4</ele>
        <time>2021-07-19T11:11:10Z</time>
      </trkpt>
      <trkpt lat="43.4747620" lon="-5.1954710">
        <ele>-20.4</ele>
        <time>2021-07-19T11:11:12Z</time>
      </trkpt>
      <trkpt lat="43.4747830" lon="-5.1955140">
        <ele>-20.4</ele>
        <time>2021-07-19T11:11:16Z</time>
      </trkpt>
      <trkpt lat="43.4747830" lon="-5.1955180">
        <ele>-20.4</ele>
        <time>2021-07-19T11:11:17Z</time>
      </trkpt>
      <trkpt lat="43.4747940" lon="-5.1955480">
        <ele>-20.4</ele>
        <time>2021-07-19T11:11:26Z</time>
      </trkpt>
      <trkpt lat="43.4748000" lon="-5.1955670">
        <ele>-20.4</ele>
        <time>2021-07-19T11:11:27Z</time>
      </trkpt>
      <trkpt lat="43.4748170" lon="-5.1956100">
        <ele>-20.4</ele>
        <time>2021-07-19T11:11:30Z</time>
      </trkpt>
      <trkpt lat="43.4748280" lon="-5.1956550">
        <ele>-20.4</ele>
        <time>2021-07-19T11:11:32Z</time>
      </trkpt>
      <trkpt lat="43.4748450" lon="-5.1957000">
        <ele>-20.4</ele>
        <time>2021-07-19T11:11:34Z</time>
      </trkpt>
      <trkpt lat="43.4748680" lon="-5.1957380">
        <ele>-20.4</ele>
        <time>2021-07-19T11:11:36Z</time>
      </trkpt>
      <trkpt lat="43.4749020" lon="-5.1957940">
        <ele>-20.4</ele>
        <time>2021-07-19T11:11:39Z</time>
      </trkpt>
      <trkpt lat="43.4749090" lon="-5.1958160">
        <ele>-20.4</ele>
        <time>2021-07-19T11:11:40Z</time>
      </trkpt>
      <trkpt lat="43.4749290" lon="-5.1958790">
        <ele>-20.4</ele>
        <time>2021-07-19T11:11:43Z</time>
      </trkpt>
      <trkpt lat="43.4749320" lon="-5.1959040">
        <ele>-20.0</ele>
        <time>2021-07-19T11:11:44Z</time>
      </trkpt>
      <trkpt lat="43.4749370" lon="-5.1959270">
        <ele>-19.6</ele>
        <time>2021-07-19T11:11:45Z</time>
      </trkpt>
      <trkpt lat="43.4749390" lon="-5.1959480">
        <ele>-18.6</ele>
        <time>2021-07-19T11:11:46Z</time>
      </trkpt>
      <trkpt lat="43.4749410" lon="-5.1959690">
        <ele>-18.2</ele>
        <time>2021-07-19T11:11:47Z</time>
      </trkpt>
      <trkpt lat="43.4749370" lon="-5.1959870">
        <ele>-18.2</ele>
        <time>2021-07-19T11:11:48Z</time>
      </trkpt>
      <trkpt lat="43.4749350" lon="-5.1959950">
        <ele>-18.2</ele>
        <time>2021-07-19T11:11:50Z</time>
      </trkpt>
      <trkpt lat="43.4749330" lon="-5.1960780">
        <ele>-18.2</ele>
        <time>2021-07-19T11:12:25Z</time>
      </trkpt>
      <trkpt lat="43.4749320" lon="-5.1960950">
        <ele>-17.8</ele>
        <time>2021-07-19T11:12:26Z</time>
      </trkpt>
      <trkpt lat="43.4749310" lon="-5.1961170">
        <ele>-17.4</ele>
        <time>2021-07-19T11:12:27Z</time>
      </trkpt>
      <trkpt lat="43.4749290" lon="-5.1961350">
        <ele>-17.0</ele>
        <time>2021-07-19T11:12:28Z</time>
      </trkpt>
      <trkpt lat="43.4749300" lon="-5.1961510">
        <ele>-16.4</ele>
        <time>2021-07-19T11:12:29Z</time>
      </trkpt>
      <trkpt lat="43.4749330" lon="-5.1961680">
        <ele>-16.0</ele>
        <time>2021-07-19T11:12:30Z</time>
      </trkpt>
      <trkpt lat="43.4749320" lon="-5.1962230">
        <ele>-16.0</ele>
        <time>2021-07-19T11:12:33Z</time>
      </trkpt>
      <trkpt lat="43.4749400" lon="-5.1962620">
        <ele>-15.2</ele>
        <time>2021-07-19T11:12:35Z</time>
      </trkpt>
      <trkpt lat="43.4749430" lon="-5.1962770">
        <ele>-14.8</ele>
        <time>2021-07-19T11:12:36Z</time>
      </trkpt>
      <trkpt lat="43.4749480" lon="-5.1962950">
        <ele>-14.4</ele>
        <time>2021-07-19T11:12:37Z</time>
      </trkpt>
      <trkpt lat="43.4749480" lon="-5.1963140">
        <ele>-13.8</ele>
        <time>2021-07-19T11:12:38Z</time>
      </trkpt>
      <trkpt lat="43.4749450" lon="-5.1963750">
        <ele>-13.8</ele>
        <time>2021-07-19T11:12:41Z</time>
      </trkpt>
      <trkpt lat="43.4749430" lon="-5.1964720">
        <ele>-13.8</ele>
        <time>2021-07-19T11:12:48Z</time>
      </trkpt>
      <trkpt lat="43.4749450" lon="-5.1965290">
        <ele>-13.8</ele>
        <time>2021-07-19T11:12:51Z</time>
      </trkpt>
      <trkpt lat="43.4749520" lon="-5.1965960">
        <ele>-13.8</ele>
        <time>2021-07-19T11:12:54Z</time>
      </trkpt>
      <trkpt lat="43.4749720" lon="-5.1966810">
        <ele>-13.8</ele>
        <time>2021-07-19T11:12:57Z</time>
      </trkpt>
      <trkpt lat="43.4750090" lon="-5.1968700">
        <ele>-13.8</ele>
        <time>2021-07-19T11:13:04Z</time>
      </trkpt>
      <trkpt lat="43.4750640" lon="-5.1970200">
        <ele>-13.8</ele>
        <time>2021-07-19T11:13:09Z</time>
      </trkpt>
      <trkpt lat="43.4750980" lon="-5.1971500">
        <ele>-13.8</ele>
        <time>2021-07-19T11:13:13Z</time>
      </trkpt>
      <trkpt lat="43.4750890" lon="-5.1971820">
        <ele>-13.8</ele>
        <time>2021-07-19T11:13:14Z</time>
      </trkpt>
      <trkpt lat="43.4750720" lon="-5.1973130">
        <ele>-13.8</ele>
        <time>2021-07-19T11:13:18Z</time>
      </trkpt>
      <trkpt lat="43.4750700" lon="-5.1974490">
        <ele>-13.4</ele>
        <time>2021-07-19T11:13:22Z</time>
      </trkpt>
      <trkpt lat="43.4750700" lon="-5.1974830">
        <ele>-13.0</ele>
        <time>2021-07-19T11:13:23Z</time>
      </trkpt>
      <trkpt lat="43.4750680" lon="-5.1975190">
        <ele>-12.6</ele>
        <time>2021-07-19T11:13:24Z</time>
      </trkpt>
      <trkpt lat="43.4750670" lon="-5.1975550">
        <ele>-11.8</ele>
        <time>2021-07-19T11:13:25Z</time>
      </trkpt>
      <trkpt lat="43.4750570" lon="-5.1977110">
        <ele>-11.8</ele>
        <time>2021-07-19T11:13:29Z</time>
      </trkpt>
      <trkpt lat="43.4750500" lon="-5.1977850">
        <ele>-11.8</ele>
        <time>2021-07-19T11:13:31Z</time>
      </trkpt>
      <trkpt lat="43.4750500" lon="-5.1980070">
        <ele>-11.8</ele>
        <time>2021-07-19T11:13:37Z</time>
      </trkpt>
      <trkpt lat="43.4750170" lon="-5.1982720">
        <ele>-11.8</ele>
        <time>2021-07-19T11:13:45Z</time>
      </trkpt>
      <trkpt lat="43.4750090" lon="-5.1983760">
        <ele>-11.4</ele>
        <time>2021-07-19T11:13:50Z</time>
      </trkpt>
      <trkpt lat="43.4750110" lon="-5.1983880">
        <ele>-11.0</ele>
        <time>2021-07-19T11:13:51Z</time>
      </trkpt>
      <trkpt lat="43.4750130" lon="-5.1984080">
        <ele>-10.6</ele>
        <time>2021-07-19T11:13:52Z</time>
      </trkpt>
      <trkpt lat="43.4750130" lon="-5.1984240">
        <ele>-10.2</ele>
        <time>2021-07-19T11:13:53Z</time>
      </trkpt>
      <trkpt lat="43.4750120" lon="-5.1984390">
        <ele>-9.8</ele>
        <time>2021-07-19T11:13:54Z</time>
      </trkpt>
      <trkpt lat="43.4750070" lon="-5.1985330">
        <ele>-9.8</ele>
        <time>2021-07-19T11:14:00Z</time>
      </trkpt>
      <trkpt lat="43.4750270" lon="-5.1986710">
        <ele>-9.8</ele>
        <time>2021-07-19T11:14:05Z</time>
      </trkpt>
      <trkpt lat="43.4750270" lon="-5.1986940">
        <ele>-9.8</ele>
        <time>2021-07-19T11:14:06Z</time>
      </trkpt>
      <trkpt lat="43.4750420" lon="-5.1989220">
        <ele>-9.8</ele>
        <time>2021-07-19T11:14:14Z</time>
      </trkpt>
      <trkpt lat="43.4750420" lon="-5.1990340">
        <ele>-9.8</ele>
        <time>2021-07-19T11:14:18Z</time>
      </trkpt>
      <trkpt lat="43.4750490" lon="-5.1991070">
        <ele>-9.8</ele>
        <time>2021-07-19T11:14:21Z</time>
      </trkpt>
      <trkpt lat="43.4750480" lon="-5.1992060">
        <ele>-9.4</ele>
        <time>2021-07-19T11:14:25Z</time>
      </trkpt>
      <trkpt lat="43.4750470" lon="-5.1992310">
        <ele>-9.0</ele>
        <time>2021-07-19T11:14:26Z</time>
      </trkpt>
      <trkpt lat="43.4750460" lon="-5.1992540">
        <ele>-8.6</ele>
        <time>2021-07-19T11:14:27Z</time>
      </trkpt>
      <trkpt lat="43.4750480" lon="-5.1992810">
        <ele>-8.2</ele>
        <time>2021-07-19T11:14:28Z</time>
      </trkpt>
      <trkpt lat="43.4750490" lon="-5.1993090">
        <ele>-7.8</ele>
        <time>2021-07-19T11:14:29Z</time>
      </trkpt>
      <trkpt lat="43.4750610" lon="-5.1994650">
        <ele>-7.8</ele>
        <time>2021-07-19T11:14:35Z</time>
      </trkpt>
      <trkpt lat="43.4750900" lon="-5.1996670">
        <ele>-7.8</ele>
        <time>2021-07-19T11:14:43Z</time>
      </trkpt>
      <trkpt lat="43.4751020" lon="-5.1997680">
        <ele>-7.4</ele>
        <time>2021-07-19T11:14:47Z</time>
      </trkpt>
      <trkpt lat="43.4751030" lon="-5.1997910">
        <ele>-7.0</ele>
        <time>2021-07-19T11:14:48Z</time>
      </trkpt>
      <trkpt lat="43.4751060" lon="-5.1998120">
        <ele>-6.6</ele>
        <time>2021-07-19T11:14:49Z</time>
      </trkpt>
      <trkpt lat="43.4751100" lon="-5.1998340">
        <ele>-6.0</ele>
        <time>2021-07-19T11:14:50Z</time>
      </trkpt>
      <trkpt lat="43.4751100" lon="-5.1998580">
        <ele>-5.6</ele>
        <time>2021-07-19T11:14:51Z</time>
      </trkpt>
      <trkpt lat="43.4751220" lon="-5.2001350">
        <ele>-5.6</ele>
        <time>2021-07-19T11:15:02Z</time>
      </trkpt>
      <trkpt lat="43.4751220" lon="-5.2001620">
        <ele>-5.2</ele>
        <time>2021-07-19T11:15:03Z</time>
      </trkpt>
      <trkpt lat="43.4751220" lon="-5.2001840">
        <ele>-4.8</ele>
        <time>2021-07-19T11:15:04Z</time>
      </trkpt>
      <trkpt lat="43.4751250" lon="-5.2002110">
        <ele>-4.4</ele>
        <time>2021-07-19T11:15:05Z</time>
      </trkpt>
      <trkpt lat="43.4751240" lon="-5.2002370">
        <ele>-4.0</ele>
        <time>2021-07-19T11:15:06Z</time>
      </trkpt>
      <trkpt lat="43.4751280" lon="-5.2002620">
        <ele>-3.6</ele>
        <time>2021-07-19T11:15:07Z</time>
      </trkpt>
      <trkpt lat="43.4751230" lon="-5.2003390">
        <ele>-3.6</ele>
        <time>2021-07-19T11:15:10Z</time>
      </trkpt>
      <trkpt lat="43.4751140" lon="-5.2006030">
        <ele>-3.2</ele>
        <time>2021-07-19T11:15:21Z</time>
      </trkpt>
      <trkpt lat="43.4751130" lon="-5.2006250">
        <ele>-2.8</ele>
        <time>2021-07-19T11:15:22Z</time>
      </trkpt>
      <trkpt lat="43.4751090" lon="-5.2006470">
        <ele>-2.4</ele>
        <time>2021-07-19T11:15:23Z</time>
      </trkpt>
      <trkpt lat="43.4751050" lon="-5.2006660">
        <ele>-2.0</ele>
        <time>2021-07-19T11:15:24Z</time>
      </trkpt>
      <trkpt lat="43.4751010" lon="-5.2006840">
        <ele>-1.6</ele>
        <time>2021-07-19T11:15:25Z</time>
      </trkpt>
      <trkpt lat="43.4750930" lon="-5.2007780">
        <ele>-1.6</ele>
        <time>2021-07-19T11:15:29Z</time>
      </trkpt>
      <trkpt lat="43.4750920" lon="-5.2009270">
        <ele>-1.6</ele>
        <time>2021-07-19T11:15:35Z</time>
      </trkpt>
      <trkpt lat="43.4750850" lon="-5.2011350">
        <ele>-1.6</ele>
        <time>2021-07-19T11:15:42Z</time>
      </trkpt>
      <trkpt lat="43.4750850" lon="-5.2011710">
        <ele>-1.2</ele>
        <time>2021-07-19T11:15:43Z</time>
      </trkpt>
      <trkpt lat="43.4750860" lon="-5.2012030">
        <ele>-0.8</ele>
        <time>2021-07-19T11:15:44Z</time>
      </trkpt>
      <trkpt lat="43.4750870" lon="-5.2012410">
        <ele>-0.4</ele>
        <time>2021-07-19T11:15:45Z</time>
      </trkpt>
      <trkpt lat="43.4750880" lon="-5.2012820">
        <ele>0.0</ele>
        <time>2021-07-19T11:15:46Z</time>
      </trkpt>
      <trkpt lat="43.4750890" lon="-5.2013130">
        <ele>0.4</ele>
        <time>2021-07-19T11:15:47Z</time>
      </trkpt>
      <trkpt lat="43.4750930" lon="-5.2013750">
        <ele>0.4</ele>
        <time>2021-07-19T11:15:49Z</time>
      </trkpt>
      <trkpt lat="43.4751060" lon="-5.2014660">
        <ele>0.4</ele>
        <time>2021-07-19T11:15:52Z</time>
      </trkpt>
      <trkpt lat="43.4751020" lon="-5.2015930">
        <ele>0.4</ele>
        <time>2021-07-19T11:15:55Z</time>
      </trkpt>
      <trkpt lat="43.4751020" lon="-5.2016400">
        <ele>0.4</ele>
        <time>2021-07-19T11:15:56Z</time>
      </trkpt>
      <trkpt lat="43.4751010" lon="-5.2017480">
        <ele>0.4</ele>
        <time>2021-07-19T11:15:58Z</time>
      </trkpt>
      <trkpt lat="43.4750960" lon="-5.2018550">
        <ele>0.4</ele>
        <time>2021-07-19T11:16:00Z</time>
      </trkpt>
      <trkpt lat="43.4750950" lon="-5.2019730">
        <ele>0.4</ele>
        <time>2021-07-19T11:16:02Z</time>
      </trkpt>
      <trkpt lat="43.4750880" lon="-5.2020970">
        <ele>0.4</ele>
        <time>2021-07-19T11:16:04Z</time>
      </trkpt>
      <trkpt lat="43.4750850" lon="-5.2021550">
        <ele>0.4</ele>
        <time>2021-07-19T11:16:05Z</time>
      </trkpt>
      <trkpt lat="43.4750610" lon="-5.2023290">
        <ele>0.4</ele>
        <time>2021-07-19T11:16:08Z</time>
      </trkpt>
      <trkpt lat="43.4750360" lon="-5.2024790">
        <ele>0.0</ele>
        <time>2021-07-19T11:16:11Z</time>
      </trkpt>
      <trkpt lat="43.4750230" lon="-5.2025250">
        <ele>-0.4</ele>
        <time>2021-07-19T11:16:12Z</time>
      </trkpt>
      <trkpt lat="43.4750050" lon="-5.2025670">
        <ele>-0.8</ele>
        <time>2021-07-19T11:16:13Z</time>
      </trkpt>
      <trkpt lat="43.4749850" lon="-5.2026050">
        <ele>-1.2</ele>
        <time>2021-07-19T11:16:14Z</time>
      </trkpt>
      <trkpt lat="43.4749650" lon="-5.2026380">
        <ele>-1.6</ele>
        <time>2021-07-19T11:16:15Z</time>
      </trkpt>
      <trkpt lat="43.4748700" lon="-5.2027570">
        <ele>-1.6</ele>
        <time>2021-07-19T11:16:19Z</time>
      </trkpt>
      <trkpt lat="43.4748110" lon="-5.2029370">
        <ele>-1.6</ele>
        <time>2021-07-19T11:16:23Z</time>
      </trkpt>
      <trkpt lat="43.4748140" lon="-5.2029790">
        <ele>-1.6</ele>
        <time>2021-07-19T11:16:24Z</time>
      </trkpt>
      <trkpt lat="43.4748260" lon="-5.2030410">
        <ele>-2.0</ele>
        <time>2021-07-19T11:16:26Z</time>
      </trkpt>
      <trkpt lat="43.4748270" lon="-5.2030680">
        <ele>-2.6</ele>
        <time>2021-07-19T11:16:27Z</time>
      </trkpt>
      <trkpt lat="43.4748290" lon="-5.2030850">
        <ele>-3.0</ele>
        <time>2021-07-19T11:16:28Z</time>
      </trkpt>
      <trkpt lat="43.4748310" lon="-5.2030900">
        <ele>-3.4</ele>
        <time>2021-07-19T11:16:29Z</time>
      </trkpt>
      <trkpt lat="43.4748340" lon="-5.2031240">
        <ele>-3.8</ele>
        <time>2021-07-19T11:16:45Z</time>
      </trkpt>
      <trkpt lat="43.4748340" lon="-5.2031450">
        <ele>-3.8</ele>
        <time>2021-07-19T11:16:46Z</time>
      </trkpt>
      <trkpt lat="43.4748340" lon="-5.2032280">
        <ele>-3.8</ele>
        <time>2021-07-19T11:16:49Z</time>
      </trkpt>
      <trkpt lat="43.4748390" lon="-5.2032900">
        <ele>-3.8</ele>
        <time>2021-07-19T11:16:51Z</time>
      </trkpt>
      <trkpt lat="43.4748400" lon="-5.2033240">
        <ele>-3.8</ele>
        <time>2021-07-19T11:16:52Z</time>
      </trkpt>
      <trkpt lat="43.4748690" lon="-5.2035810">
        <ele>-3.8</ele>
        <time>2021-07-19T11:17:00Z</time>
      </trkpt>
      <trkpt lat="43.4748840" lon="-5.2037080">
        <ele>-3.8</ele>
        <time>2021-07-19T11:17:04Z</time>
      </trkpt>
      <trkpt lat="43.4748890" lon="-5.2037510">
        <ele>-4.2</ele>
        <time>2021-07-19T11:17:06Z</time>
      </trkpt>
      <trkpt lat="43.4748920" lon="-5.2037720">
        <ele>-5.2</ele>
        <time>2021-07-19T11:17:07Z</time>
      </trkpt>
      <trkpt lat="43.4748950" lon="-5.2037990">
        <ele>-5.6</ele>
        <time>2021-07-19T11:17:08Z</time>
      </trkpt>
      <trkpt lat="43.4748980" lon="-5.2038300">
        <ele>-6.2</ele>
        <time>2021-07-19T11:17:09Z</time>
      </trkpt>
      <trkpt lat="43.4748990" lon="-5.2039090">
        <ele>-6.6</ele>
        <time>2021-07-19T11:17:12Z</time>
      </trkpt>
      <trkpt lat="43.4748980" lon="-5.2039300">
        <ele>-7.0</ele>
        <time>2021-07-19T11:17:13Z</time>
      </trkpt>
      <trkpt lat="43.4749010" lon="-5.2039530">
        <ele>-7.4</ele>
        <time>2021-07-19T11:17:14Z</time>
      </trkpt>
      <trkpt lat="43.4749080" lon="-5.2039680">
        <ele>-7.8</ele>
        <time>2021-07-19T11:17:15Z</time>
      </trkpt>
      <trkpt lat="43.4749150" lon="-5.2039740">
        <ele>-8.2</ele>
        <time>2021-07-19T11:17:16Z</time>
      </trkpt>
      <trkpt lat="43.4749180" lon="-5.2039740">
        <ele>-8.2</ele>
        <time>2021-07-19T11:17:17Z</time>
      </trkpt>
      <trkpt lat="43.4749600" lon="-5.2039470">
        <ele>-8.2</ele>
        <time>2021-07-19T11:17:23Z</time>
      </trkpt>
      <trkpt lat="43.4749690" lon="-5.2039330">
        <ele>-8.2</ele>
        <time>2021-07-19T11:17:24Z</time>
      </trkpt>
      <trkpt lat="43.4749830" lon="-5.2039020">
        <ele>-8.2</ele>
        <time>2021-07-19T11:17:26Z</time>
      </trkpt>
      <trkpt lat="43.4749980" lon="-5.2038810">
        <ele>-8.2</ele>
        <time>2021-07-19T11:17:28Z</time>
      </trkpt>
      <trkpt lat="43.4750100" lon="-5.2038920">
        <ele>-8.2</ele>
        <time>2021-07-19T11:17:31Z</time>
      </trkpt>
      <trkpt lat="43.4749840" lon="-5.2039030">
        <ele>-8.2</ele>
        <time>2021-07-19T11:18:15Z</time>
      </trkpt>
      <trkpt lat="43.4749230" lon="-5.2039520">
        <ele>-8.2</ele>
        <time>2021-07-19T11:18:19Z</time>
      </trkpt>
      <trkpt lat="43.4748720" lon="-5.2039930">
        <ele>-8.2</ele>
        <time>2021-07-19T11:18:22Z</time>
      </trkpt>
      <trkpt lat="43.4747990" lon="-5.2040100">
        <ele>-8.2</ele>
        <time>2021-07-19T11:18:26Z</time>
      </trkpt>
      <trkpt lat="43.4747790" lon="-5.2040120">
        <ele>-8.2</ele>
        <time>2021-07-19T11:18:27Z</time>
      </trkpt>
      <trkpt lat="43.4747580" lon="-5.2040140">
        <ele>-8.2</ele>
        <time>2021-07-19T11:18:28Z</time>
      </trkpt>
      <trkpt lat="43.4747160" lon="-5.2040100">
        <ele>-8.2</ele>
        <time>2021-07-19T11:18:32Z</time>
      </trkpt>
      <trkpt lat="43.4746910" lon="-5.2040170">
        <ele>-8.2</ele>
        <time>2021-07-19T11:18:36Z</time>
      </trkpt>
      <trkpt lat="43.4746590" lon="-5.2040250">
        <ele>-8.6</ele>
        <time>2021-07-19T11:18:38Z</time>
      </trkpt>
      <trkpt lat="43.4746410" lon="-5.2040330">
        <ele>-9.0</ele>
        <time>2021-07-19T11:18:39Z</time>
      </trkpt>
      <trkpt lat="43.4746210" lon="-5.2040470">
        <ele>-9.4</ele>
        <time>2021-07-19T11:18:40Z</time>
      </trkpt>
      <trkpt lat="43.4745970" lon="-5.2040670">
        <ele>-9.8</ele>
        <time>2021-07-19T11:18:41Z</time>
      </trkpt>
      <trkpt lat="43.4745710" lon="-5.2040890">
        <ele>-10.2</ele>
        <time>2021-07-19T11:18:42Z</time>
      </trkpt>
      <trkpt lat="43.4745450" lon="-5.2041060">
        <ele>-10.8</ele>
        <time>2021-07-19T11:18:43Z</time>
      </trkpt>
      <trkpt lat="43.4745180" lon="-5.2041250">
        <ele>-11.2</ele>
        <time>2021-07-19T11:18:44Z</time>
      </trkpt>
      <trkpt lat="43.4744890" lon="-5.2041480">
        <ele>-11.6</ele>
        <time>2021-07-19T11:18:45Z</time>
      </trkpt>
      <trkpt lat="43.4744600" lon="-5.2041720">
        <ele>-12.4</ele>
        <time>2021-07-19T11:18:46Z</time>
      </trkpt>
      <trkpt lat="43.4744340" lon="-5.2042010">
        <ele>-12.4</ele>
        <time>2021-07-19T11:18:47Z</time>
      </trkpt>
      <trkpt lat="43.4744110" lon="-5.2042340">
        <ele>-12.8</ele>
        <time>2021-07-19T11:18:48Z</time>
      </trkpt>
      <trkpt lat="43.4743880" lon="-5.2042650">
        <ele>-13.2</ele>
        <time>2021-07-19T11:18:49Z</time>
      </trkpt>
      <trkpt lat="43.4743640" lon="-5.2042930">
        <ele>-13.6</ele>
        <time>2021-07-19T11:18:50Z</time>
      </trkpt>
      <trkpt lat="43.4743410" lon="-5.2043170">
        <ele>-14.0</ele>
        <time>2021-07-19T11:18:51Z</time>
      </trkpt>
      <trkpt lat="43.4743170" lon="-5.2043440">
        <ele>-14.4</ele>
        <time>2021-07-19T11:18:52Z</time>
      </trkpt>
      <trkpt lat="43.4742950" lon="-5.2043730">
        <ele>-14.4</ele>
        <time>2021-07-19T11:18:53Z</time>
      </trkpt>
      <trkpt lat="43.4741580" lon="-5.2045590">
        <ele>-15.0</ele>
        <time>2021-07-19T11:19:00Z</time>
      </trkpt>
      <trkpt lat="43.4741440" lon="-5.2045830">
        <ele>-15.4</ele>
        <time>2021-07-19T11:19:01Z</time>
      </trkpt>
      <trkpt lat="43.4741310" lon="-5.2046030">
        <ele>-15.8</ele>
        <time>2021-07-19T11:19:02Z</time>
      </trkpt>
      <trkpt lat="43.4741200" lon="-5.2046220">
        <ele>-16.2</ele>
        <time>2021-07-19T11:19:03Z</time>
      </trkpt>
      <trkpt lat="43.4741120" lon="-5.2046410">
        <ele>-16.6</ele>
        <time>2021-07-19T11:19:04Z</time>
      </trkpt>
      <trkpt lat="43.4741020" lon="-5.2046840">
        <ele>-16.6</ele>
        <time>2021-07-19T11:19:06Z</time>
      </trkpt>
      <trkpt lat="43.4741010" lon="-5.2047050">
        <ele>-16.6</ele>
        <time>2021-07-19T11:19:07Z</time>
      </trkpt>
      <trkpt lat="43.4741150" lon="-5.2047930">
        <ele>-16.6</ele>
        <time>2021-07-19T11:19:10Z</time>
      </trkpt>
      <trkpt lat="43.4741340" lon="-5.2048580">
        <ele>-16.6</ele>
        <time>2021-07-19T11:19:12Z</time>
      </trkpt>
      <trkpt lat="43.4741430" lon="-5.2048940">
        <ele>-16.6</ele>
        <time>2021-07-19T11:19:13Z</time>
      </trkpt>
      <trkpt lat="43.4741600" lon="-5.2049740">
        <ele>-16.6</ele>
        <time>2021-07-19T11:19:15Z</time>
      </trkpt>
      <trkpt lat="43.4741890" lon="-5.2050900">
        <ele>-16.6</ele>
        <time>2021-07-19T11:19:18Z</time>
      </trkpt>
      <trkpt lat="43.4742220" lon="-5.2053800">
        <ele>-16.6</ele>
        <time>2021-07-19T11:19:25Z</time>
      </trkpt>
      <trkpt lat="43.4742350" lon="-5.2055970">
        <ele>-16.6</ele>
        <time>2021-07-19T11:19:30Z</time>
      </trkpt>
      <trkpt lat="43.4742410" lon="-5.2056810">
        <ele>-16.6</ele>
        <time>2021-07-19T11:19:32Z</time>
      </trkpt>
      <trkpt lat="43.4742490" lon="-5.2057600">
        <ele>-16.6</ele>
        <time>2021-07-19T11:19:34Z</time>
      </trkpt>
      <trkpt lat="43.4742580" lon="-5.2058800">
        <ele>-16.6</ele>
        <time>2021-07-19T11:19:37Z</time>
      </trkpt>
      <trkpt lat="43.4742640" lon="-5.2059490">
        <ele>-16.6</ele>
        <time>2021-07-19T11:19:39Z</time>
      </trkpt>
      <trkpt lat="43.4742440" lon="-5.2060560">
        <ele>-16.6</ele>
        <time>2021-07-19T11:19:42Z</time>
      </trkpt>
      <trkpt lat="43.4742220" lon="-5.2061260">
        <ele>-16.2</ele>
        <time>2021-07-19T11:19:44Z</time>
      </trkpt>
      <trkpt lat="43.4742140" lon="-5.2061590">
        <ele>-15.8</ele>
        <time>2021-07-19T11:19:45Z</time>
      </trkpt>
      <trkpt lat="43.4742070" lon="-5.2061920">
        <ele>-15.4</ele>
        <time>2021-07-19T11:19:46Z</time>
      </trkpt>
      <trkpt lat="43.4742010" lon="-5.2062290">
        <ele>-15.0</ele>
        <time>2021-07-19T11:19:47Z</time>
      </trkpt>
      <trkpt lat="43.4741970" lon="-5.2062670">
        <ele>-14.6</ele>
        <time>2021-07-19T11:19:48Z</time>
      </trkpt>
      <trkpt lat="43.4741890" lon="-5.2063980">
        <ele>-14.6</ele>
        <time>2021-07-19T11:19:51Z</time>
      </trkpt>
      <trkpt lat="43.4741630" lon="-5.2067060">
        <ele>-14.6</ele>
        <time>2021-07-19T11:19:57Z</time>
      </trkpt>
      <trkpt lat="43.4741670" lon="-5.2068560">
        <ele>-15.4</ele>
        <time>2021-07-19T11:20:00Z</time>
      </trkpt>
      <trkpt lat="43.4741630" lon="-5.2069060">
        <ele>-15.8</ele>
        <time>2021-07-19T11:20:01Z</time>
      </trkpt>
      <trkpt lat="43.4741560" lon="-5.2069570">
        <ele>-16.2</ele>
        <time>2021-07-19T11:20:02Z</time>
      </trkpt>
      <trkpt lat="43.4741460" lon="-5.2070060">
        <ele>-16.6</ele>
        <time>2021-07-19T11:20:03Z</time>
      </trkpt>
      <trkpt lat="43.4741270" lon="-5.2071120">
        <ele>-16.6</ele>
        <time>2021-07-19T11:20:05Z</time>
      </trkpt>
      <trkpt lat="43.4741070" lon="-5.2072290">
        <ele>-16.6</ele>
        <time>2021-07-19T11:20:07Z</time>
      </trkpt>
      <trkpt lat="43.4740820" lon="-5.2073400">
        <ele>-16.6</ele>
        <time>2021-07-19T11:20:09Z</time>
      </trkpt>
      <trkpt lat="43.4740670" lon="-5.2074390">
        <ele>-16.6</ele>
        <time>2021-07-19T11:20:11Z</time>
      </trkpt>
      <trkpt lat="43.4740590" lon="-5.2074870">
        <ele>-17.2</ele>
        <time>2021-07-19T11:20:12Z</time>
      </trkpt>
      <trkpt lat="43.4740490" lon="-5.2075330">
        <ele>-17.6</ele>
        <time>2021-07-19T11:20:13Z</time>
      </trkpt>
      <trkpt lat="43.4740410" lon="-5.2075820">
        <ele>-18.0</ele>
        <time>2021-07-19T11:20:14Z</time>
      </trkpt>
      <trkpt lat="43.4740350" lon="-5.2076350">
        <ele>-18.4</ele>
        <time>2021-07-19T11:20:15Z</time>
      </trkpt>
      <trkpt lat="43.4740290" lon="-5.2076860">
        <ele>-18.8</ele>
        <time>2021-07-19T11:20:16Z</time>
      </trkpt>
      <trkpt lat="43.4739890" lon="-5.2078780">
        <ele>-18.8</ele>
        <time>2021-07-19T11:20:20Z</time>
      </trkpt>
      <trkpt lat="43.4739450" lon="-5.2081140">
        <ele>-18.8</ele>
        <time>2021-07-19T11:20:26Z</time>
      </trkpt>
      <trkpt lat="43.4739180" lon="-5.2081920">
        <ele>-18.8</ele>
        <time>2021-07-19T11:20:29Z</time>
      </trkpt>
      <trkpt lat="43.4739090" lon="-5.2082390">
        <ele>-18.8</ele>
        <time>2021-07-19T11:20:31Z</time>
      </trkpt>
      <trkpt lat="43.4739140" lon="-5.2083080">
        <ele>-19.2</ele>
        <time>2021-07-19T11:20:33Z</time>
      </trkpt>
      <trkpt lat="43.4739190" lon="-5.2083420">
        <ele>-19.6</ele>
        <time>2021-07-19T11:20:34Z</time>
      </trkpt>
      <trkpt lat="43.4739240" lon="-5.2083750">
        <ele>-20.0</ele>
        <time>2021-07-19T11:20:35Z</time>
      </trkpt>
      <trkpt lat="43.4739290" lon="-5.2083980">
        <ele>-20.4</ele>
        <time>2021-07-19T11:20:36Z</time>
      </trkpt>
      <trkpt lat="43.4739320" lon="-5.2084180">
        <ele>-21.0</ele>
        <time>2021-07-19T11:20:37Z</time>
      </trkpt>
      <trkpt lat="43.4739350" lon="-5.2084680">
        <ele>-21.0</ele>
        <time>2021-07-19T11:20:39Z</time>
      </trkpt>
      <trkpt lat="43.4739440" lon="-5.2085050">
        <ele>-21.0</ele>
        <time>2021-07-19T11:20:41Z</time>
      </trkpt>
      <trkpt lat="43.4739470" lon="-5.2085100">
        <ele>-21.0</ele>
        <time>2021-07-19T11:20:42Z</time>
      </trkpt>
      <trkpt lat="43.4739520" lon="-5.2085320">
        <ele>-21.0</ele>
        <time>2021-07-19T11:20:47Z</time>
      </trkpt>
      <trkpt lat="43.4739530" lon="-5.2085540">
        <ele>-21.0</ele>
        <time>2021-07-19T11:20:48Z</time>
      </trkpt>
      <trkpt lat="43.4739510" lon="-5.2085780">
        <ele>-21.0</ele>
        <time>2021-07-19T11:20:49Z</time>
      </trkpt>
      <trkpt lat="43.4739480" lon="-5.2087880">
        <ele>-21.0</ele>
        <time>2021-07-19T11:20:55Z</time>
      </trkpt>
      <trkpt lat="43.4739650" lon="-5.2090350">
        <ele>-21.0</ele>
        <time>2021-07-19T11:21:01Z</time>
      </trkpt>
      <trkpt lat="43.4739760" lon="-5.2092280">
        <ele>-21.0</ele>
        <time>2021-07-19T11:21:06Z</time>
      </trkpt>
      <trkpt lat="43.4739720" lon="-5.2094240">
        <ele>-21.0</ele>
        <time>2021-07-19T11:21:11Z</time>
      </trkpt>
      <trkpt lat="43.4739740" lon="-5.2094990">
        <ele>-21.0</ele>
        <time>2021-07-19T11:21:13Z</time>
      </trkpt>
      <trkpt lat="43.4740100" lon="-5.2096500">
        <ele>-20.4</ele>
        <time>2021-07-19T11:21:17Z</time>
      </trkpt>
      <trkpt lat="43.4740250" lon="-5.2096880">
        <ele>-20.0</ele>
        <time>2021-07-19T11:21:18Z</time>
      </trkpt>
      <trkpt lat="43.4740390" lon="-5.2097260">
        <ele>-19.6</ele>
        <time>2021-07-19T11:21:19Z</time>
      </trkpt>
      <trkpt lat="43.4740510" lon="-5.2097630">
        <ele>-19.2</ele>
        <time>2021-07-19T11:21:20Z</time>
      </trkpt>
      <trkpt lat="43.4740590" lon="-5.2097970">
        <ele>-18.8</ele>
        <time>2021-07-19T11:21:21Z</time>
      </trkpt>
      <trkpt lat="43.4740970" lon="-5.2098980">
        <ele>-18.8</ele>
        <time>2021-07-19T11:21:25Z</time>
      </trkpt>
      <trkpt lat="43.4741040" lon="-5.2099950">
        <ele>-18.8</ele>
        <time>2021-07-19T11:21:29Z</time>
      </trkpt>
      <trkpt lat="43.4740970" lon="-5.2100180">
        <ele>-18.8</ele>
        <time>2021-07-19T11:21:30Z</time>
      </trkpt>
      <trkpt lat="43.4740720" lon="-5.2101030">
        <ele>-18.4</ele>
        <time>2021-07-19T11:21:34Z</time>
      </trkpt>
      <trkpt lat="43.4740670" lon="-5.2101270">
        <ele>-18.0</ele>
        <time>2021-07-19T11:21:35Z</time>
      </trkpt>
      <trkpt lat="43.4740600" lon="-5.2101540">
        <ele>-17.6</ele>
        <time>2021-07-19T11:21:36Z</time>
      </trkpt>
      <trkpt lat="43.4740530" lon="-5.2101820">
        <ele>-17.2</ele>
        <time>2021-07-19T11:21:37Z</time>
      </trkpt>
      <trkpt lat="43.4740460" lon="-5.2102110">
        <ele>-16.6</ele>
        <time>2021-07-19T11:21:38Z</time>
      </trkpt>
      <trkpt lat="43.4740090" lon="-5.2103820">
        <ele>-16.6</ele>
        <time>2021-07-19T11:21:44Z</time>
      </trkpt>
      <trkpt lat="43.4740060" lon="-5.2104110">
        <ele>-16.6</ele>
        <time>2021-07-19T11:21:45Z</time>
      </trkpt>
      <trkpt lat="43.4739990" lon="-5.2106300">
        <ele>-16.6</ele>
        <time>2021-07-19T11:21:51Z</time>
      </trkpt>
      <trkpt lat="43.4740000" lon="-5.2108100">
        <ele>-16.6</ele>
        <time>2021-07-19T11:21:55Z</time>
      </trkpt>
      <trkpt lat="43.4739970" lon="-5.2109470">
        <ele>-16.6</ele>
        <time>2021-07-19T11:21:58Z</time>
      </trkpt>
      <trkpt lat="43.4739950" lon="-5.2110520">
        <ele>-16.6</ele>
        <time>2021-07-19T11:22:00Z</time>
      </trkpt>
      <trkpt lat="43.4739990" lon="-5.2111010">
        <ele>-16.6</ele>
        <time>2021-07-19T11:22:01Z</time>
      </trkpt>
      <trkpt lat="43.4740040" lon="-5.2111490">
        <ele>-16.6</ele>
        <time>2021-07-19T11:22:02Z</time>
      </trkpt>
      <trkpt lat="43.4740160" lon="-5.2112460">
        <ele>-16.6</ele>
        <time>2021-07-19T11:22:04Z</time>
      </trkpt>
      <trkpt lat="43.4740210" lon="-5.2112920">
        <ele>-16.6</ele>
        <time>2021-07-19T11:22:05Z</time>
      </trkpt>
      <trkpt lat="43.4740750" lon="-5.2116230">
        <ele>-16.6</ele>
        <time>2021-07-19T11:22:12Z</time>
      </trkpt>
      <trkpt lat="43.4740930" lon="-5.2117240">
        <ele>-17.2</ele>
        <time>2021-07-19T11:22:14Z</time>
      </trkpt>
      <trkpt lat="43.4740990" lon="-5.2117730">
        <ele>-17.6</ele>
        <time>2021-07-19T11:22:15Z</time>
      </trkpt>
      <trkpt lat="43.4741030" lon="-5.2118220">
        <ele>-18.0</ele>
        <time>2021-07-19T11:22:16Z</time>
      </trkpt>
      <trkpt lat="43.4741030" lon="-5.2118710">
        <ele>-18.4</ele>
        <time>2021-07-19T11:22:17Z</time>
      </trkpt>
      <trkpt lat="43.4741000" lon="-5.2119120">
        <ele>-18.8</ele>
        <time>2021-07-19T11:22:18Z</time>
      </trkpt>
      <trkpt lat="43.4740940" lon="-5.2119540">
        <ele>-18.8</ele>
        <time>2021-07-19T11:22:19Z</time>
      </trkpt>
      <trkpt lat="43.4740720" lon="-5.2121280">
        <ele>-18.8</ele>
        <time>2021-07-19T11:22:23Z</time>
      </trkpt>
      <trkpt lat="43.4740650" lon="-5.2121800">
        <ele>-18.8</ele>
        <time>2021-07-19T11:22:25Z</time>
      </trkpt>
      <trkpt lat="43.4740670" lon="-5.2123770">
        <ele>-18.8</ele>
        <time>2021-07-19T11:22:30Z</time>
      </trkpt>
      <trkpt lat="43.4740210" lon="-5.2126860">
        <ele>-18.8</ele>
        <time>2021-07-19T11:22:37Z</time>
      </trkpt>
      <trkpt lat="43.4739660" lon="-5.2128970">
        <ele>-18.8</ele>
        <time>2021-07-19T11:22:42Z</time>
      </trkpt>
      <trkpt lat="43.4739370" lon="-5.2129820">
        <ele>-18.8</ele>
        <time>2021-07-19T11:22:44Z</time>
      </trkpt>
      <trkpt lat="43.4739050" lon="-5.2130730">
        <ele>-18.8</ele>
        <time>2021-07-19T11:22:46Z</time>
      </trkpt>
      <trkpt lat="43.4738730" lon="-5.2131670">
        <ele>-19.2</ele>
        <time>2021-07-19T11:22:48Z</time>
      </trkpt>
      <trkpt lat="43.4738560" lon="-5.2132120">
        <ele>-19.6</ele>
        <time>2021-07-19T11:22:49Z</time>
      </trkpt>
      <trkpt lat="43.4738390" lon="-5.2132580">
        <ele>-20.0</ele>
        <time>2021-07-19T11:22:50Z</time>
      </trkpt>
      <trkpt lat="43.4738260" lon="-5.2133050">
        <ele>-20.4</ele>
        <time>2021-07-19T11:22:51Z</time>
      </trkpt>
      <trkpt lat="43.4738110" lon="-5.2133540">
        <ele>-21.0</ele>
        <time>2021-07-19T11:22:52Z</time>
      </trkpt>
      <trkpt lat="43.4737000" lon="-5.2137140">
        <ele>-21.0</ele>
        <time>2021-07-19T11:23:00Z</time>
      </trkpt>
      <trkpt lat="43.4736680" lon="-5.2138350">
        <ele>-21.0</ele>
        <time>2021-07-19T11:23:04Z</time>
      </trkpt>
      <trkpt lat="43.4736600" lon="-5.2138700">
        <ele>-21.0</ele>
        <time>2021-07-19T11:23:05Z</time>
      </trkpt>
      <trkpt lat="43.4736350" lon="-5.2139460">
        <ele>-21.0</ele>
        <time>2021-07-19T11:23:07Z</time>
      </trkpt>
      <trkpt lat="43.4736190" lon="-5.2139830">
        <ele>-21.0</ele>
        <time>2021-07-19T11:23:08Z</time>
      </trkpt>
      <trkpt lat="43.4735890" lon="-5.2140640">
        <ele>-21.0</ele>
        <time>2021-07-19T11:23:10Z</time>
      </trkpt>
      <trkpt lat="43.4735610" lon="-5.2141480">
        <ele>-21.0</ele>
        <time>2021-07-19T11:23:12Z</time>
      </trkpt>
      <trkpt lat="43.4734650" lon="-5.2144460">
        <ele>-21.0</ele>
        <time>2021-07-19T11:23:19Z</time>
      </trkpt>
      <trkpt lat="43.4733640" lon="-5.2147500">
        <ele>-21.0</ele>
        <time>2021-07-19T11:23:27Z</time>
      </trkpt>
      <trkpt lat="43.4733180" lon="-5.2148910">
        <ele>-21.0</ele>
        <time>2021-07-19T11:23:31Z</time>
      </trkpt>
      <trkpt lat="43.4733010" lon="-5.2150010">
        <ele>-21.0</ele>
        <time>2021-07-19T11:23:34Z</time>
      </trkpt>
      <trkpt lat="43.4732640" lon="-5.2151290">
        <ele>-21.0</ele>
        <time>2021-07-19T11:23:38Z</time>
      </trkpt>
      <trkpt lat="43.4732640" lon="-5.2151670">
        <ele>-21.0</ele>
        <time>2021-07-19T11:23:39Z</time>
      </trkpt>
      <trkpt lat="43.4732730" lon="-5.2153360">
        <ele>-21.0</ele>
        <time>2021-07-19T11:23:43Z</time>
      </trkpt>
      <trkpt lat="43.4732610" lon="-5.2154250">
        <ele>-21.0</ele>
        <time>2021-07-19T11:23:45Z</time>
      </trkpt>
      <trkpt lat="43.4731770" lon="-5.2155850">
        <ele>-21.0</ele>
        <time>2021-07-19T11:23:50Z</time>
      </trkpt>
      <trkpt lat="43.4731170" lon="-5.2156640">
        <ele>-21.0</ele>
        <time>2021-07-19T11:23:54Z</time>
      </trkpt>
      <trkpt lat="43.4730780" lon="-5.2157200">
        <ele>-20.4</ele>
        <time>2021-07-19T11:23:57Z</time>
      </trkpt>
      <trkpt lat="43.4730690" lon="-5.2157400">
        <ele>-20.0</ele>
        <time>2021-07-19T11:23:58Z</time>
      </trkpt>
      <trkpt lat="43.4730620" lon="-5.2157590">
        <ele>-19.6</ele>
        <time>2021-07-19T11:23:59Z</time>
      </trkpt>
      <trkpt lat="43.4730590" lon="-5.2157740">
        <ele>-19.0</ele>
        <time>2021-07-19T11:24:00Z</time>
      </trkpt>
      <trkpt lat="43.4730580" lon="-5.2157850">
        <ele>-18.6</ele>
        <time>2021-07-19T11:24:01Z</time>
      </trkpt>
      <trkpt lat="43.4730600" lon="-5.2157890">
        <ele>-18.6</ele>
        <time>2021-07-19T11:24:02Z</time>
      </trkpt>
      <trkpt lat="43.4730590" lon="-5.2158240">
        <ele>-18.6</ele>
        <time>2021-07-19T11:24:12Z</time>
      </trkpt>
      <trkpt lat="43.4731130" lon="-5.2159500">
        <ele>-18.6</ele>
        <time>2021-07-19T11:24:17Z</time>
      </trkpt>
      <trkpt lat="43.4732120" lon="-5.2161770">
        <ele>-18.6</ele>
        <time>2021-07-19T11:24:23Z</time>
      </trkpt>
      <trkpt lat="43.4732320" lon="-5.2162230">
        <ele>-18.6</ele>
        <time>2021-07-19T11:24:24Z</time>
      </trkpt>
      <trkpt lat="43.4733660" lon="-5.2165190">
        <ele>-18.6</ele>
        <time>2021-07-19T11:24:30Z</time>
      </trkpt>
      <trkpt lat="43.4735410" lon="-5.2169140">
        <ele>-18.6</ele>
        <time>2021-07-19T11:24:37Z</time>
      </trkpt>
      <trkpt lat="43.4735700" lon="-5.2169760">
        <ele>-18.6</ele>
        <time>2021-07-19T11:24:38Z</time>
      </trkpt>
      <trkpt lat="43.4736540" lon="-5.2171580">
        <ele>-18.6</ele>
        <time>2021-07-19T11:24:41Z</time>
      </trkpt>
      <trkpt lat="43.4737360" lon="-5.2173370">
        <ele>-18.6</ele>
        <time>2021-07-19T11:24:44Z</time>
      </trkpt>
      <trkpt lat="43.4737910" lon="-5.2174600">
        <ele>-18.6</ele>
        <time>2021-07-19T11:24:46Z</time>
      </trkpt>
      <trkpt lat="43.4738470" lon="-5.2175770">
        <ele>-18.6</ele>
        <time>2021-07-19T11:24:48Z</time>
      </trkpt>
      <trkpt lat="43.4738740" lon="-5.2176350">
        <ele>-18.6</ele>
        <time>2021-07-19T11:24:49Z</time>
      </trkpt>
      <trkpt lat="43.4740100" lon="-5.2179340">
        <ele>-18.6</ele>
        <time>2021-07-19T11:24:54Z</time>
      </trkpt>
      <trkpt lat="43.4740690" lon="-5.2180600">
        <ele>-18.6</ele>
        <time>2021-07-19T11:24:56Z</time>
      </trkpt>
      <trkpt lat="43.4742750" lon="-5.2185010">
        <ele>-18.6</ele>
        <time>2021-07-19T11:25:03Z</time>
      </trkpt>
      <trkpt lat="43.4743030" lon="-5.2185550">
        <ele>-18.6</ele>
        <time>2021-07-19T11:25:04Z</time>
      </trkpt>
      <trkpt lat="43.4743910" lon="-5.2186790">
        <ele>-18.6</ele>
        <time>2021-07-19T11:25:07Z</time>
      </trkpt>
      <trkpt lat="43.4744900" lon="-5.2186920">
        <ele>-18.6</ele>
        <time>2021-07-19T11:25:10Z</time>
      </trkpt>
      <trkpt lat="43.4745960" lon="-5.2185420">
        <ele>-18.6</ele>
        <time>2021-07-19T11:25:14Z</time>
      </trkpt>
      <trkpt lat="43.4746830" lon="-5.2184040">
        <ele>-18.6</ele>
        <time>2021-07-19T11:25:17Z</time>
      </trkpt>
      <trkpt lat="43.4747090" lon="-5.2183530">
        <ele>-18.6</ele>
        <time>2021-07-19T11:25:18Z</time>
      </trkpt>
      <trkpt lat="43.4747730" lon="-5.2182030">
        <ele>-18.6</ele>
        <time>2021-07-19T11:25:21Z</time>
      </trkpt>
      <trkpt lat="43.4748280" lon="-5.2181270">
        <ele>-18.6</ele>
        <time>2021-07-19T11:25:23Z</time>
      </trkpt>
      <trkpt lat="43.4748960" lon="-5.2181200">
        <ele>-18.6</ele>
        <time>2021-07-19T11:25:25Z</time>
      </trkpt>
      <trkpt lat="43.4749430" lon="-5.2181940">
        <ele>-18.6</ele>
        <time>2021-07-19T11:25:28Z</time>
      </trkpt>
      <trkpt lat="43.4750140" lon="-5.2182950">
        <ele>-18.6</ele>
        <time>2021-07-19T11:25:31Z</time>
      </trkpt>
      <trkpt lat="43.4750440" lon="-5.2183320">
        <ele>-18.6</ele>
        <time>2021-07-19T11:25:32Z</time>
      </trkpt>
      <trkpt lat="43.4750690" lon="-5.2183750">
        <ele>-18.2</ele>
        <time>2021-07-19T11:25:33Z</time>
      </trkpt>
      <trkpt lat="43.4750900" lon="-5.2184200">
        <ele>-17.8</ele>
        <time>2021-07-19T11:25:34Z</time>
      </trkpt>
      <trkpt lat="43.4751130" lon="-5.2184660">
        <ele>-17.4</ele>
        <time>2021-07-19T11:25:35Z</time>
      </trkpt>
      <trkpt lat="43.4751340" lon="-5.2185120">
        <ele>-17.0</ele>
        <time>2021-07-19T11:25:36Z</time>
      </trkpt>
      <trkpt lat="43.4751570" lon="-5.2185610">
        <ele>-16.6</ele>
        <time>2021-07-19T11:25:37Z</time>
      </trkpt>
      <trkpt lat="43.4752070" lon="-5.2186520">
        <ele>-16.6</ele>
        <time>2021-07-19T11:25:39Z</time>
      </trkpt>
      <trkpt lat="43.4752610" lon="-5.2187380">
        <ele>-16.2</ele>
        <time>2021-07-19T11:25:41Z</time>
      </trkpt>
      <trkpt lat="43.4752910" lon="-5.2187770">
        <ele>-15.8</ele>
        <time>2021-07-19T11:25:42Z</time>
      </trkpt>
      <trkpt lat="43.4753220" lon="-5.2188160">
        <ele>-15.0</ele>
        <time>2021-07-19T11:25:43Z</time>
      </trkpt>
      <trkpt lat="43.4753520" lon="-5.2188580">
        <ele>-14.6</ele>
        <time>2021-07-19T11:25:44Z</time>
      </trkpt>
      <trkpt lat="43.4754380" lon="-5.2189940">
        <ele>-14.6</ele>
        <time>2021-07-19T11:25:47Z</time>
      </trkpt>
      <trkpt lat="43.4754630" lon="-5.2190440">
        <ele>-14.6</ele>
        <time>2021-07-19T11:25:48Z</time>
      </trkpt>
      <trkpt lat="43.4756390" lon="-5.2193900">
        <ele>-14.6</ele>
        <time>2021-07-19T11:25:55Z</time>
      </trkpt>
      <trkpt lat="43.4757790" lon="-5.2197770">
        <ele>-14.6</ele>
        <time>2021-07-19T11:26:02Z</time>
      </trkpt>
      <trkpt lat="43.4758730" lon="-5.2200480">
        <ele>-14.6</ele>
        <time>2021-07-19T11:26:07Z</time>
      </trkpt>
      <trkpt lat="43.4759100" lon="-5.2201650">
        <ele>-14.6</ele>
        <time>2021-07-19T11:26:09Z</time>
      </trkpt>
      <trkpt lat="43.4759790" lon="-5.2204830">
        <ele>-14.6</ele>
        <time>2021-07-19T11:26:14Z</time>
      </trkpt>
      <trkpt lat="43.4759890" lon="-5.2205450">
        <ele>-14.6</ele>
        <time>2021-07-19T11:26:15Z</time>
      </trkpt>
      <trkpt lat="43.4760540" lon="-5.2209920">
        <ele>-14.6</ele>
        <time>2021-07-19T11:26:23Z</time>
      </trkpt>
      <trkpt lat="43.4760720" lon="-5.2213890">
        <ele>-14.6</ele>
        <time>2021-07-19T11:26:30Z</time>
      </trkpt>
      <trkpt lat="43.4759800" lon="-5.2215510">
        <ele>-14.6</ele>
        <time>2021-07-19T11:26:34Z</time>
      </trkpt>
      <trkpt lat="43.4758150" lon="-5.2216900">
        <ele>-14.6</ele>
        <time>2021-07-19T11:26:40Z</time>
      </trkpt>
      <trkpt lat="43.4757940" lon="-5.2217040">
        <ele>-14.2</ele>
        <time>2021-07-19T11:26:41Z</time>
      </trkpt>
      <trkpt lat="43.4757810" lon="-5.2217230">
        <ele>-13.6</ele>
        <time>2021-07-19T11:26:42Z</time>
      </trkpt>
      <trkpt lat="43.4757720" lon="-5.2217440">
        <ele>-13.2</ele>
        <time>2021-07-19T11:26:43Z</time>
      </trkpt>
      <trkpt lat="43.4757710" lon="-5.2217650">
        <ele>-12.8</ele>
        <time>2021-07-19T11:26:44Z</time>
      </trkpt>
      <trkpt lat="43.4757750" lon="-5.2217810">
        <ele>-12.4</ele>
        <time>2021-07-19T11:26:45Z</time>
      </trkpt>
      <trkpt lat="43.4758260" lon="-5.2219140">
        <ele>-12.4</ele>
        <time>2021-07-19T11:26:50Z</time>
      </trkpt>
      <trkpt lat="43.4759340" lon="-5.2221800">
        <ele>-12.4</ele>
        <time>2021-07-19T11:26:56Z</time>
      </trkpt>
      <trkpt lat="43.4760230" lon="-5.2223820">
        <ele>-12.4</ele>
        <time>2021-07-19T11:27:01Z</time>
      </trkpt>
      <trkpt lat="43.4760520" lon="-5.2224560">
        <ele>-12.4</ele>
        <time>2021-07-19T11:27:03Z</time>
      </trkpt>
      <trkpt lat="43.4760890" lon="-5.2225230">
        <ele>-12.4</ele>
        <time>2021-07-19T11:27:07Z</time>
      </trkpt>
      <trkpt lat="43.4760870" lon="-5.2225320">
        <ele>-12.4</ele>
        <time>2021-07-19T11:27:21Z</time>
      </trkpt>
      <trkpt lat="43.4760790" lon="-5.2225580">
        <ele>-12.4</ele>
        <time>2021-07-19T11:27:22Z</time>
      </trkpt>
      <trkpt lat="43.4760230" lon="-5.2226510">
        <ele>-12.4</ele>
        <time>2021-07-19T11:27:25Z</time>
      </trkpt>
      <trkpt lat="43.4759250" lon="-5.2227500">
        <ele>-12.4</ele>
        <time>2021-07-19T11:27:29Z</time>
      </trkpt>
      <trkpt lat="43.4758730" lon="-5.2227990">
        <ele>-12.4</ele>
        <time>2021-07-19T11:27:31Z</time>
      </trkpt>
      <trkpt lat="43.4757740" lon="-5.2229940">
        <ele>-12.4</ele>
        <time>2021-07-19T11:27:37Z</time>
      </trkpt>
      <trkpt lat="43.4757850" lon="-5.2230440">
        <ele>-12.0</ele>
        <time>2021-07-19T11:27:38Z</time>
      </trkpt>
      <trkpt lat="43.4757970" lon="-5.2230970">
        <ele>-11.6</ele>
        <time>2021-07-19T11:27:39Z</time>
      </trkpt>
      <trkpt lat="43.4758120" lon="-5.2231520">
        <ele>-11.2</ele>
        <time>2021-07-19T11:27:40Z</time>
      </trkpt>
      <trkpt lat="43.4758270" lon="-5.2232120">
        <ele>-10.8</ele>
        <time>2021-07-19T11:27:41Z</time>
      </trkpt>
      <trkpt lat="43.4758440" lon="-5.2232750">
        <ele>-10.4</ele>
        <time>2021-07-19T11:27:42Z</time>
      </trkpt>
      <trkpt lat="43.4759450" lon="-5.2235970">
        <ele>-10.4</ele>
        <time>2021-07-19T11:27:47Z</time>
      </trkpt>
      <trkpt lat="43.4759980" lon="-5.2237140">
        <ele>-10.4</ele>
        <time>2021-07-19T11:27:49Z</time>
      </trkpt>
      <trkpt lat="43.4761120" lon="-5.2239390">
        <ele>-10.4</ele>
        <time>2021-07-19T11:27:53Z</time>
      </trkpt>
      <trkpt lat="43.4761920" lon="-5.2241120">
        <ele>-10.4</ele>
        <time>2021-07-19T11:27:56Z</time>
      </trkpt>
      <trkpt lat="43.4762490" lon="-5.2242270">
        <ele>-10.8</ele>
        <time>2021-07-19T11:27:58Z</time>
      </trkpt>
      <trkpt lat="43.4762780" lon="-5.2242810">
        <ele>-11.4</ele>
        <time>2021-07-19T11:27:59Z</time>
      </trkpt>
      <trkpt lat="43.4763040" lon="-5.2243280">
        <ele>-11.8</ele>
        <time>2021-07-19T11:28:00Z</time>
      </trkpt>
      <trkpt lat="43.4763280" lon="-5.2243710">
        <ele>-12.2</ele>
        <time>2021-07-19T11:28:01Z</time>
      </trkpt>
      <trkpt lat="43.4763530" lon="-5.2244170">
        <ele>-12.6</ele>
        <time>2021-07-19T11:28:02Z</time>
      </trkpt>
      <trkpt lat="43.4764330" lon="-5.2245510">
        <ele>-12.6</ele>
        <time>2021-07-19T11:28:05Z</time>
      </trkpt>
      <trkpt lat="43.4764630" lon="-5.2245870">
        <ele>-12.6</ele>
        <time>2021-07-19T11:28:06Z</time>
      </trkpt>
      <trkpt lat="43.4765320" lon="-5.2246320">
        <ele>-12.6</ele>
        <time>2021-07-19T11:28:08Z</time>
      </trkpt>
      <trkpt lat="43.4766100" lon="-5.2246410">
        <ele>-12.6</ele>
        <time>2021-07-19T11:28:10Z</time>
      </trkpt>
      <trkpt lat="43.4766490" lon="-5.2246380">
        <ele>-12.6</ele>
        <time>2021-07-19T11:28:11Z</time>
      </trkpt>
      <trkpt lat="43.4766890" lon="-5.2246280">
        <ele>-12.6</ele>
        <time>2021-07-19T11:28:12Z</time>
      </trkpt>
      <trkpt lat="43.4767620" lon="-5.2246120">
        <ele>-12.6</ele>
        <time>2021-07-19T11:28:14Z</time>
      </trkpt>
      <trkpt lat="43.4767940" lon="-5.2246050">
        <ele>-12.6</ele>
        <time>2021-07-19T11:28:15Z</time>
      </trkpt>
      <trkpt lat="43.4768260" lon="-5.2245940">
        <ele>-12.6</ele>
        <time>2021-07-19T11:28:16Z</time>
      </trkpt>
      <trkpt lat="43.4769300" lon="-5.2245960">
        <ele>-12.6</ele>
        <time>2021-07-19T11:28:21Z</time>
      </trkpt>
      <trkpt lat="43.4769780" lon="-5.2246620">
        <ele>-12.6</ele>
        <time>2021-07-19T11:28:25Z</time>
      </trkpt>
      <trkpt lat="43.4769790" lon="-5.2246630">
        <ele>-12.6</ele>
        <time>2021-07-19T11:28:26Z</time>
      </trkpt>
      <trkpt lat="43.4769920" lon="-5.2246680">
        <ele>-12.6</ele>
        <time>2021-07-19T11:28:28Z</time>
      </trkpt>
      <trkpt lat="43.4770090" lon="-5.2246700">
        <ele>-12.6</ele>
        <time>2021-07-19T11:28:29Z</time>
      </trkpt>
      <trkpt lat="43.4770770" lon="-5.2247320">
        <ele>-12.6</ele>
        <time>2021-07-19T11:28:32Z</time>
      </trkpt>
      <trkpt lat="43.4770980" lon="-5.2247740">
        <ele>-12.6</ele>
        <time>2021-07-19T11:28:33Z</time>
      </trkpt>
      <trkpt lat="43.4771640" lon="-5.2249120">
        <ele>-12.6</ele>
        <time>2021-07-19T11:28:36Z</time>
      </trkpt>
      <trkpt lat="43.4771880" lon="-5.2249610">
        <ele>-12.6</ele>
        <time>2021-07-19T11:28:37Z</time>
      </trkpt>
      <trkpt lat="43.4772110" lon="-5.2250150">
        <ele>-12.6</ele>
        <time>2021-07-19T11:28:38Z</time>
      </trkpt>
      <trkpt lat="43.4773390" lon="-5.2253130">
        <ele>-12.6</ele>
        <time>2021-07-19T11:28:43Z</time>
      </trkpt>
      <trkpt lat="43.4773960" lon="-5.2254390">
        <ele>-12.6</ele>
        <time>2021-07-19T11:28:45Z</time>
      </trkpt>
      <trkpt lat="43.4775430" lon="-5.2257600">
        <ele>-12.6</ele>
        <time>2021-07-19T11:28:50Z</time>
      </trkpt>
      <trkpt lat="43.4775980" lon="-5.2258790">
        <ele>-12.6</ele>
        <time>2021-07-19T11:28:52Z</time>
      </trkpt>
      <trkpt lat="43.4777290" lon="-5.2261600">
        <ele>-12.6</ele>
        <time>2021-07-19T11:28:57Z</time>
      </trkpt>
      <trkpt lat="43.4778030" lon="-5.2263230">
        <ele>-12.6</ele>
        <time>2021-07-19T11:29:00Z</time>
      </trkpt>
      <trkpt lat="43.4779850" lon="-5.2267230">
        <ele>-12.6</ele>
        <time>2021-07-19T11:29:07Z</time>
      </trkpt>
      <trkpt lat="43.4781140" lon="-5.2270010">
        <ele>-12.6</ele>
        <time>2021-07-19T11:29:12Z</time>
      </trkpt>
      <trkpt lat="43.4782110" lon="-5.2272290">
        <ele>-12.6</ele>
        <time>2021-07-19T11:29:16Z</time>
      </trkpt>
      <trkpt lat="43.4784470" lon="-5.2277490">
        <ele>-12.6</ele>
        <time>2021-07-19T11:29:25Z</time>
      </trkpt>
      <trkpt lat="43.4785460" lon="-5.2279610">
        <ele>-12.6</ele>
        <time>2021-07-19T11:29:29Z</time>
      </trkpt>
      <trkpt lat="43.4786350" lon="-5.2281580">
        <ele>-12.6</ele>
        <time>2021-07-19T11:29:33Z</time>
      </trkpt>
      <trkpt lat="43.4788290" lon="-5.2285830">
        <ele>-12.6</ele>
        <time>2021-07-19T11:29:41Z</time>
      </trkpt>
      <trkpt lat="43.4789220" lon="-5.2287960">
        <ele>-13.0</ele>
        <time>2021-07-19T11:29:45Z</time>
      </trkpt>
      <trkpt lat="43.4789440" lon="-5.2288490">
        <ele>-13.4</ele>
        <time>2021-07-19T11:29:46Z</time>
      </trkpt>
      <trkpt lat="43.4789680" lon="-5.2289010">
        <ele>-13.8</ele>
        <time>2021-07-19T11:29:47Z</time>
      </trkpt>
      <trkpt lat="43.4789920" lon="-5.2289510">
        <ele>-14.4</ele>
        <time>2021-07-19T11:29:48Z</time>
      </trkpt>
      <trkpt lat="43.4790170" lon="-5.2290010">
        <ele>-14.8</ele>
        <time>2021-07-19T11:29:49Z</time>
      </trkpt>
      <trkpt lat="43.4790410" lon="-5.2290510">
        <ele>-14.8</ele>
        <time>2021-07-19T11:29:50Z</time>
      </trkpt>
      <trkpt lat="43.4790840" lon="-5.2291470">
        <ele>-14.8</ele>
        <time>2021-07-19T11:29:52Z</time>
      </trkpt>
      <trkpt lat="43.4791310" lon="-5.2292300">
        <ele>-14.8</ele>
        <time>2021-07-19T11:29:54Z</time>
      </trkpt>
      <trkpt lat="43.4791910" lon="-5.2293450">
        <ele>-14.8</ele>
        <time>2021-07-19T11:29:57Z</time>
      </trkpt>
      <trkpt lat="43.4792630" lon="-5.2294910">
        <ele>-14.8</ele>
        <time>2021-07-19T11:30:02Z</time>
      </trkpt>
      <trkpt lat="43.4793230" lon="-5.2296340">
        <ele>-14.8</ele>
        <time>2021-07-19T11:30:08Z</time>
      </trkpt>
      <trkpt lat="43.4794350" lon="-5.2298670">
        <ele>-14.8</ele>
        <time>2021-07-19T11:30:15Z</time>
      </trkpt>
      <trkpt lat="43.4794760" lon="-5.2299600">
        <ele>-14.8</ele>
        <time>2021-07-19T11:30:17Z</time>
      </trkpt>
      <trkpt lat="43.4795170" lon="-5.2300550">
        <ele>-14.8</ele>
        <time>2021-07-19T11:30:19Z</time>
      </trkpt>
      <trkpt lat="43.4795780" lon="-5.2301940">
        <ele>-14.8</ele>
        <time>2021-07-19T11:30:22Z</time>
      </trkpt>
      <trkpt lat="43.4797130" lon="-5.2305110">
        <ele>-14.8</ele>
        <time>2021-07-19T11:30:29Z</time>
      </trkpt>
      <trkpt lat="43.4797340" lon="-5.2305490">
        <ele>-14.8</ele>
        <time>2021-07-19T11:30:30Z</time>
      </trkpt>
      <trkpt lat="43.4798250" lon="-5.2307340">
        <ele>-14.8</ele>
        <time>2021-07-19T11:30:35Z</time>
      </trkpt>
      <trkpt lat="43.4798780" lon="-5.2308310">
        <ele>-14.8</ele>
        <time>2021-07-19T11:30:38Z</time>
      </trkpt>
      <trkpt lat="43.4799270" lon="-5.2308930">
        <ele>-14.8</ele>
        <time>2021-07-19T11:30:41Z</time>
      </trkpt>
      <trkpt lat="43.4799590" lon="-5.2308970">
        <ele>-14.8</ele>
        <time>2021-07-19T11:30:43Z</time>
      </trkpt>
      <trkpt lat="43.4799910" lon="-5.2308790">
        <ele>-14.8</ele>
        <time>2021-07-19T11:30:46Z</time>
      </trkpt>
      <trkpt lat="43.4800090" lon="-5.2308570">
        <ele>-14.8</ele>
        <time>2021-07-19T11:30:54Z</time>
      </trkpt>
      <trkpt lat="43.4800580" lon="-5.2307930">
        <ele>-14.8</ele>
        <time>2021-07-19T11:30:57Z</time>
      </trkpt>
      <trkpt lat="43.4800750" lon="-5.2307620">
        <ele>-15.2</ele>
        <time>2021-07-19T11:30:58Z</time>
      </trkpt>
      <trkpt lat="43.4800940" lon="-5.2307290">
        <ele>-15.6</ele>
        <time>2021-07-19T11:30:59Z</time>
      </trkpt>
      <trkpt lat="43.4801150" lon="-5.2306950">
        <ele>-16.0</ele>
        <time>2021-07-19T11:31:00Z</time>
      </trkpt>
      <trkpt lat="43.4801310" lon="-5.2306650">
        <ele>-16.4</ele>
        <time>2021-07-19T11:31:01Z</time>
      </trkpt>
      <trkpt lat="43.4801460" lon="-5.2306360">
        <ele>-16.8</ele>
        <time>2021-07-19T11:31:02Z</time>
      </trkpt>
      <trkpt lat="43.4801760" lon="-5.2305660">
        <ele>-16.8</ele>
        <time>2021-07-19T11:31:05Z</time>
      </trkpt>
      <trkpt lat="43.4801810" lon="-5.2305440">
        <ele>-16.8</ele>
        <time>2021-07-19T11:31:07Z</time>
      </trkpt>
      <trkpt lat="43.4802080" lon="-5.2305640">
        <ele>-16.8</ele>
        <time>2021-07-19T11:32:10Z</time>
      </trkpt>
      <trkpt lat="43.4802140" lon="-5.2305830">
        <ele>-16.8</ele>
        <time>2021-07-19T11:32:11Z</time>
      </trkpt>
      <trkpt lat="43.4801970" lon="-5.2306430">
        <ele>-16.8</ele>
        <time>2021-07-19T11:32:14Z</time>
      </trkpt>
      <trkpt lat="43.4801820" lon="-5.2306670">
        <ele>-16.8</ele>
        <time>2021-07-19T11:32:15Z</time>
      </trkpt>
      <trkpt lat="43.4801520" lon="-5.2307330">
        <ele>-16.8</ele>
        <time>2021-07-19T11:32:17Z</time>
      </trkpt>
      <trkpt lat="43.4801060" lon="-5.2308480">
        <ele>-16.8</ele>
        <time>2021-07-19T11:32:20Z</time>
      </trkpt>
      <trkpt lat="43.4800680" lon="-5.2310540">
        <ele>-16.8</ele>
        <time>2021-07-19T11:32:25Z</time>
      </trkpt>
      <trkpt lat="43.4800670" lon="-5.2311450">
        <ele>-16.8</ele>
        <time>2021-07-19T11:32:27Z</time>
      </trkpt>
      <trkpt lat="43.4800880" lon="-5.2313070">
        <ele>-16.8</ele>
        <time>2021-07-19T11:32:30Z</time>
      </trkpt>
      <trkpt lat="43.4801260" lon="-5.2314250">
        <ele>-16.8</ele>
        <time>2021-07-19T11:32:32Z</time>
      </trkpt>
      <trkpt lat="43.4801770" lon="-5.2315430">
        <ele>-16.8</ele>
        <time>2021-07-19T11:32:34Z</time>
      </trkpt>
      <trkpt lat="43.4802780" lon="-5.2317630">
        <ele>-16.8</ele>
        <time>2021-07-19T11:32:38Z</time>
      </trkpt>
      <trkpt lat="43.4804390" lon="-5.2321240">
        <ele>-16.8</ele>
        <time>2021-07-19T11:32:44Z</time>
      </trkpt>
      <trkpt lat="43.4805150" lon="-5.2322960">
        <ele>-16.8</ele>
        <time>2021-07-19T11:32:47Z</time>
      </trkpt>
      <trkpt lat="43.4805860" lon="-5.2324560">
        <ele>-16.4</ele>
        <time>2021-07-19T11:32:50Z</time>
      </trkpt>
      <trkpt lat="43.4806090" lon="-5.2325060">
        <ele>-16.0</ele>
        <time>2021-07-19T11:32:51Z</time>
      </trkpt>
      <trkpt lat="43.4806290" lon="-5.2325550">
        <ele>-15.6</ele>
        <time>2021-07-19T11:32:52Z</time>
      </trkpt>
      <trkpt lat="43.4806490" lon="-5.2325980">
        <ele>-15.0</ele>
        <time>2021-07-19T11:32:53Z</time>
      </trkpt>
      <trkpt lat="43.4806720" lon="-5.2326450">
        <ele>-14.6</ele>
        <time>2021-07-19T11:32:55Z</time>
      </trkpt>
      <trkpt lat="43.4806930" lon="-5.2326900">
        <ele>-14.6</ele>
        <time>2021-07-19T11:32:56Z</time>
      </trkpt>
      <trkpt lat="43.4808140" lon="-5.2329240">
        <ele>-14.6</ele>
        <time>2021-07-19T11:33:03Z</time>
      </trkpt>
      <trkpt lat="43.4809150" lon="-5.2331270">
        <ele>-14.6</ele>
        <time>2021-07-19T11:33:08Z</time>
      </trkpt>
      <trkpt lat="43.4809380" lon="-5.2331770">
        <ele>-14.2</ele>
        <time>2021-07-19T11:33:09Z</time>
      </trkpt>
      <trkpt lat="43.4809570" lon="-5.2332290">
        <ele>-13.8</ele>
        <time>2021-07-19T11:33:10Z</time>
      </trkpt>
      <trkpt lat="43.4809790" lon="-5.2332780">
        <ele>-13.4</ele>
        <time>2021-07-19T11:33:11Z</time>
      </trkpt>
      <trkpt lat="43.4810020" lon="-5.2333200">
        <ele>-13.0</ele>
        <time>2021-07-19T11:33:12Z</time>
      </trkpt>
      <trkpt lat="43.4810230" lon="-5.2333660">
        <ele>-12.4</ele>
        <time>2021-07-19T11:33:13Z</time>
      </trkpt>
      <trkpt lat="43.4811460" lon="-5.2336290">
        <ele>-12.4</ele>
        <time>2021-07-19T11:33:19Z</time>
      </trkpt>
      <trkpt lat="43.4812220" lon="-5.2337990">
        <ele>-12.0</ele>
        <time>2021-07-19T11:33:23Z</time>
      </trkpt>
      <trkpt lat="43.4812430" lon="-5.2338370">
        <ele>-11.6</ele>
        <time>2021-07-19T11:33:24Z</time>
      </trkpt>
      <trkpt lat="43.4812640" lon="-5.2338800">
        <ele>-11.2</ele>
        <time>2021-07-19T11:33:25Z</time>
      </trkpt>
      <trkpt lat="43.4812840" lon="-5.2339180">
        <ele>-10.8</ele>
        <time>2021-07-19T11:33:26Z</time>
      </trkpt>
      <trkpt lat="43.4813010" lon="-5.2339620">
        <ele>-10.4</ele>
        <time>2021-07-19T11:33:27Z</time>
      </trkpt>
      <trkpt lat="43.4814320" lon="-5.2342590">
        <ele>-10.0</ele>
        <time>2021-07-19T11:33:34Z</time>
      </trkpt>
      <trkpt lat="43.4814480" lon="-5.2342990">
        <ele>-9.6</ele>
        <time>2021-07-19T11:33:35Z</time>
      </trkpt>
      <trkpt lat="43.4814630" lon="-5.2343390">
        <ele>-9.2</ele>
        <time>2021-07-19T11:33:36Z</time>
      </trkpt>
      <trkpt lat="43.4814790" lon="-5.2343820">
        <ele>-8.8</ele>
        <time>2021-07-19T11:33:37Z</time>
      </trkpt>
      <trkpt lat="43.4814920" lon="-5.2344240">
        <ele>-8.4</ele>
        <time>2021-07-19T11:33:38Z</time>
      </trkpt>
      <trkpt lat="43.4815200" lon="-5.2345690">
        <ele>-8.4</ele>
        <time>2021-07-19T11:33:41Z</time>
      </trkpt>
      <trkpt lat="43.4815680" lon="-5.2349740">
        <ele>-8.0</ele>
        <time>2021-07-19T11:33:49Z</time>
      </trkpt>
      <trkpt lat="43.4815740" lon="-5.2350270">
        <ele>-7.4</ele>
        <time>2021-07-19T11:33:50Z</time>
      </trkpt>
      <trkpt lat="43.4815790" lon="-5.2350800">
        <ele>-7.0</ele>
        <time>2021-07-19T11:33:51Z</time>
      </trkpt>
      <trkpt lat="43.4815850" lon="-5.2351330">
        <ele>-6.6</ele>
        <time>2021-07-19T11:33:52Z</time>
      </trkpt>
      <trkpt lat="43.4815910" lon="-5.2351840">
        <ele>-6.2</ele>
        <time>2021-07-19T11:33:53Z</time>
      </trkpt>
      <trkpt lat="43.4816110" lon="-5.2353840">
        <ele>-6.2</ele>
        <time>2021-07-19T11:33:57Z</time>
      </trkpt>
      <trkpt lat="43.4816450" lon="-5.2358440">
        <ele>-6.2</ele>
        <time>2021-07-19T11:34:06Z</time>
      </trkpt>
      <trkpt lat="43.4816500" lon="-5.2358960">
        <ele>-5.8</ele>
        <time>2021-07-19T11:34:07Z</time>
      </trkpt>
      <trkpt lat="43.4816580" lon="-5.2359450">
        <ele>-5.4</ele>
        <time>2021-07-19T11:34:08Z</time>
      </trkpt>
      <trkpt lat="43.4816680" lon="-5.2359910">
        <ele>-5.0</ele>
        <time>2021-07-19T11:34:09Z</time>
      </trkpt>
      <trkpt lat="43.4816760" lon="-5.2360410">
        <ele>-4.6</ele>
        <time>2021-07-19T11:34:10Z</time>
      </trkpt>
      <trkpt lat="43.4816850" lon="-5.2360920">
        <ele>-4.2</ele>
        <time>2021-07-19T11:34:11Z</time>
      </trkpt>
      <trkpt lat="43.4816940" lon="-5.2361360">
        <ele>-4.2</ele>
        <time>2021-07-19T11:34:12Z</time>
      </trkpt>
      <trkpt lat="43.4817420" lon="-5.2364720">
        <ele>-4.2</ele>
        <time>2021-07-19T11:34:19Z</time>
      </trkpt>
      <trkpt lat="43.4817550" lon="-5.2365700">
        <ele>-3.8</ele>
        <time>2021-07-19T11:34:21Z</time>
      </trkpt>
      <trkpt lat="43.4817630" lon="-5.2366190">
        <ele>-3.4</ele>
        <time>2021-07-19T11:34:22Z</time>
      </trkpt>
      <trkpt lat="43.4817690" lon="-5.2366690">
        <ele>-2.6</ele>
        <time>2021-07-19T11:34:23Z</time>
      </trkpt>
      <trkpt lat="43.4817750" lon="-5.2367200">
        <ele>-2.0</ele>
        <time>2021-07-19T11:34:24Z</time>
      </trkpt>
      <trkpt lat="43.4817950" lon="-5.2368710">
        <ele>-2.0</ele>
        <time>2021-07-19T11:34:27Z</time>
      </trkpt>
      <trkpt lat="43.4818480" lon="-5.2372240">
        <ele>-2.0</ele>
        <time>2021-07-19T11:34:34Z</time>
      </trkpt>
      <trkpt lat="43.4818570" lon="-5.2373220">
        <ele>-1.6</ele>
        <time>2021-07-19T11:34:36Z</time>
      </trkpt>
      <trkpt lat="43.4818620" lon="-5.2373740">
        <ele>-1.2</ele>
        <time>2021-07-19T11:34:37Z</time>
      </trkpt>
      <trkpt lat="43.4818660" lon="-5.2374290">
        <ele>-0.8</ele>
        <time>2021-07-19T11:34:38Z</time>
      </trkpt>
      <trkpt lat="43.4818690" lon="-5.2374820">
        <ele>-0.4</ele>
        <time>2021-07-19T11:34:39Z</time>
      </trkpt>
      <trkpt lat="43.4818750" lon="-5.2375320">
        <ele>0.0</ele>
        <time>2021-07-19T11:34:40Z</time>
      </trkpt>
      <trkpt lat="43.4819030" lon="-5.2379640">
        <ele>0.0</ele>
        <time>2021-07-19T11:34:49Z</time>
      </trkpt>
      <trkpt lat="43.4819100" lon="-5.2380100">
        <ele>0.4</ele>
        <time>2021-07-19T11:34:50Z</time>
      </trkpt>
      <trkpt lat="43.4819160" lon="-5.2380570">
        <ele>0.8</ele>
        <time>2021-07-19T11:34:51Z</time>
      </trkpt>
      <trkpt lat="43.4819220" lon="-5.2381030">
        <ele>1.4</ele>
        <time>2021-07-19T11:34:52Z</time>
      </trkpt>
      <trkpt lat="43.4819270" lon="-5.2381490">
        <ele>1.8</ele>
        <time>2021-07-19T11:34:53Z</time>
      </trkpt>
      <trkpt lat="43.4819320" lon="-5.2381980">
        <ele>2.2</ele>
        <time>2021-07-19T11:34:54Z</time>
      </trkpt>
      <trkpt lat="43.4819470" lon="-5.2383420">
        <ele>2.2</ele>
        <time>2021-07-19T11:34:57Z</time>
      </trkpt>
      <trkpt lat="43.4819890" lon="-5.2387400">
        <ele>2.2</ele>
        <time>2021-07-19T11:35:06Z</time>
      </trkpt>
      <trkpt lat="43.4820000" lon="-5.2389040">
        <ele>2.6</ele>
        <time>2021-07-19T11:35:10Z</time>
      </trkpt>
      <trkpt lat="43.4820050" lon="-5.2389450">
        <ele>3.0</ele>
        <time>2021-07-19T11:35:11Z</time>
      </trkpt>
      <trkpt lat="43.4820070" lon="-5.2389870">
        <ele>4.0</ele>
        <time>2021-07-19T11:35:12Z</time>
      </trkpt>
      <trkpt lat="43.4820110" lon="-5.2390300">
        <ele>4.4</ele>
        <time>2021-07-19T11:35:13Z</time>
      </trkpt>
      <trkpt lat="43.4820440" lon="-5.2393250">
        <ele>4.4</ele>
        <time>2021-07-19T11:35:20Z</time>
      </trkpt>
      <trkpt lat="43.4820870" lon="-5.2396970">
        <ele>4.4</ele>
        <time>2021-07-19T11:35:27Z</time>
      </trkpt>
      <trkpt lat="43.4821230" lon="-5.2400020">
        <ele>4.4</ele>
        <time>2021-07-19T11:35:32Z</time>
      </trkpt>
      <trkpt lat="43.4821440" lon="-5.2401960">
        <ele>4.4</ele>
        <time>2021-07-19T11:35:35Z</time>
      </trkpt>
      <trkpt lat="43.4821690" lon="-5.2404020">
        <ele>4.4</ele>
        <time>2021-07-19T11:35:38Z</time>
      </trkpt>
      <trkpt lat="43.4821940" lon="-5.2406080">
        <ele>4.4</ele>
        <time>2021-07-19T11:35:41Z</time>
      </trkpt>
      <trkpt lat="43.4822100" lon="-5.2407420">
        <ele>4.4</ele>
        <time>2021-07-19T11:35:43Z</time>
      </trkpt>
      <trkpt lat="43.4822190" lon="-5.2408080">
        <ele>4.4</ele>
        <time>2021-07-19T11:35:44Z</time>
      </trkpt>
      <trkpt lat="43.4822890" lon="-5.2414790">
        <ele>4.4</ele>
        <time>2021-07-19T11:35:54Z</time>
      </trkpt>
      <trkpt lat="43.4823300" lon="-5.2417870">
        <ele>4.4</ele>
        <time>2021-07-19T11:35:59Z</time>
      </trkpt>
      <trkpt lat="43.4823530" lon="-5.2419780">
        <ele>4.4</ele>
        <time>2021-07-19T11:36:02Z</time>
      </trkpt>
      <trkpt lat="43.4823580" lon="-5.2420440">
        <ele>4.0</ele>
        <time>2021-07-19T11:36:03Z</time>
      </trkpt>
      <trkpt lat="43.4823650" lon="-5.2421060">
        <ele>3.6</ele>
        <time>2021-07-19T11:36:04Z</time>
      </trkpt>
      <trkpt lat="43.4823730" lon="-5.2421700">
        <ele>3.2</ele>
        <time>2021-07-19T11:36:05Z</time>
      </trkpt>
      <trkpt lat="43.4823810" lon="-5.2422330">
        <ele>2.8</ele>
        <time>2021-07-19T11:36:06Z</time>
      </trkpt>
      <trkpt lat="43.4823870" lon="-5.2422980">
        <ele>2.4</ele>
        <time>2021-07-19T11:36:07Z</time>
      </trkpt>
      <trkpt lat="43.4824050" lon="-5.2424300">
        <ele>2.4</ele>
        <time>2021-07-19T11:36:09Z</time>
      </trkpt>
      <trkpt lat="43.4824120" lon="-5.2424980">
        <ele>2.4</ele>
        <time>2021-07-19T11:36:10Z</time>
      </trkpt>
      <trkpt lat="43.4824610" lon="-5.2429440">
        <ele>2.4</ele>
        <time>2021-07-19T11:36:17Z</time>
      </trkpt>
      <trkpt lat="43.4824630" lon="-5.2430040">
        <ele>2.4</ele>
        <time>2021-07-19T11:36:18Z</time>
      </trkpt>
      <trkpt lat="43.4824970" lon="-5.2432650">
        <ele>2.4</ele>
        <time>2021-07-19T11:36:22Z</time>
      </trkpt>
      <trkpt lat="43.4825510" lon="-5.2437980">
        <ele>2.4</ele>
        <time>2021-07-19T11:36:30Z</time>
      </trkpt>
      <trkpt lat="43.4826170" lon="-5.2443380">
        <ele>2.4</ele>
        <time>2021-07-19T11:36:39Z</time>
      </trkpt>
      <trkpt lat="43.4826500" lon="-5.2446140">
        <ele>2.4</ele>
        <time>2021-07-19T11:36:44Z</time>
      </trkpt>
      <trkpt lat="43.4826680" lon="-5.2447820">
        <ele>2.4</ele>
        <time>2021-07-19T11:36:47Z</time>
      </trkpt>
      <trkpt lat="43.4826800" lon="-5.2448980">
        <ele>2.4</ele>
        <time>2021-07-19T11:36:49Z</time>
      </trkpt>
      <trkpt lat="43.4827010" lon="-5.2450730">
        <ele>2.4</ele>
        <time>2021-07-19T11:36:52Z</time>
      </trkpt>
      <trkpt lat="43.4827210" lon="-5.2451910">
        <ele>2.4</ele>
        <time>2021-07-19T11:36:54Z</time>
      </trkpt>
      <trkpt lat="43.4827440" lon="-5.2453740">
        <ele>2.4</ele>
        <time>2021-07-19T11:36:57Z</time>
      </trkpt>
      <trkpt lat="43.4827650" lon="-5.2455540">
        <ele>2.4</ele>
        <time>2021-07-19T11:37:00Z</time>
      </trkpt>
      <trkpt lat="43.4827810" lon="-5.2456750">
        <ele>2.4</ele>
        <time>2021-07-19T11:37:02Z</time>
      </trkpt>
      <trkpt lat="43.4828170" lon="-5.2459010">
        <ele>2.8</ele>
        <time>2021-07-19T11:37:06Z</time>
      </trkpt>
      <trkpt lat="43.4828270" lon="-5.2459560">
        <ele>3.2</ele>
        <time>2021-07-19T11:37:07Z</time>
      </trkpt>
      <trkpt lat="43.4828330" lon="-5.2460150">
        <ele>3.6</ele>
        <time>2021-07-19T11:37:08Z</time>
      </trkpt>
      <trkpt lat="43.4828390" lon="-5.2460740">
        <ele>4.0</ele>
        <time>2021-07-19T11:37:09Z</time>
      </trkpt>
      <trkpt lat="43.4828460" lon="-5.2461340">
        <ele>4.4</ele>
        <time>2021-07-19T11:37:10Z</time>
      </trkpt>
      <trkpt lat="43.4828660" lon="-5.2463110">
        <ele>4.4</ele>
        <time>2021-07-19T11:37:13Z</time>
      </trkpt>
      <trkpt lat="43.4829170" lon="-5.2467690">
        <ele>4.8</ele>
        <time>2021-07-19T11:37:21Z</time>
      </trkpt>
      <trkpt lat="43.4829200" lon="-5.2468230">
        <ele>5.2</ele>
        <time>2021-07-19T11:37:22Z</time>
      </trkpt>
      <trkpt lat="43.4829250" lon="-5.2468800">
        <ele>5.6</ele>
        <time>2021-07-19T11:37:23Z</time>
      </trkpt>
      <trkpt lat="43.4829310" lon="-5.2469370">
        <ele>6.0</ele>
        <time>2021-07-19T11:37:24Z</time>
      </trkpt>
      <trkpt lat="43.4829370" lon="-5.2469980">
        <ele>6.6</ele>
        <time>2021-07-19T11:37:25Z</time>
      </trkpt>
      <trkpt lat="43.4829700" lon="-5.2473490">
        <ele>6.6</ele>
        <time>2021-07-19T11:37:31Z</time>
      </trkpt>
      <trkpt lat="43.4829730" lon="-5.2474100">
        <ele>7.0</ele>
        <time>2021-07-19T11:37:32Z</time>
      </trkpt>
      <trkpt lat="43.4829820" lon="-5.2474680">
        <ele>7.4</ele>
        <time>2021-07-19T11:37:33Z</time>
      </trkpt>
      <trkpt lat="43.4829860" lon="-5.2475230">
        <ele>7.8</ele>
        <time>2021-07-19T11:37:34Z</time>
      </trkpt>
      <trkpt lat="43.4829890" lon="-5.2475770">
        <ele>8.2</ele>
        <time>2021-07-19T11:37:35Z</time>
      </trkpt>
      <trkpt lat="43.4829970" lon="-5.2476300">
        <ele>8.6</ele>
        <time>2021-07-19T11:37:36Z</time>
      </trkpt>
      <trkpt lat="43.4830210" lon="-5.2478510">
        <ele>8.6</ele>
        <time>2021-07-19T11:37:40Z</time>
      </trkpt>
      <trkpt lat="43.4830690" lon="-5.2483030">
        <ele>8.6</ele>
        <time>2021-07-19T11:37:48Z</time>
      </trkpt>
      <trkpt lat="43.4831020" lon="-5.2485780">
        <ele>9.0</ele>
        <time>2021-07-19T11:37:53Z</time>
      </trkpt>
      <trkpt lat="43.4831080" lon="-5.2486330">
        <ele>9.4</ele>
        <time>2021-07-19T11:37:54Z</time>
      </trkpt>
      <trkpt lat="43.4831190" lon="-5.2486900">
        <ele>9.8</ele>
        <time>2021-07-19T11:37:55Z</time>
      </trkpt>
      <trkpt lat="43.4831280" lon="-5.2487480">
        <ele>10.2</ele>
        <time>2021-07-19T11:37:56Z</time>
      </trkpt>
      <trkpt lat="43.4831310" lon="-5.2488020">
        <ele>10.6</ele>
        <time>2021-07-19T11:37:57Z</time>
      </trkpt>
      <trkpt lat="43.4831600" lon="-5.2491030">
        <ele>10.6</ele>
        <time>2021-07-19T11:38:02Z</time>
      </trkpt>
      <trkpt lat="43.4831910" lon="-5.2493990">
        <ele>10.6</ele>
        <time>2021-07-19T11:38:07Z</time>
      </trkpt>
      <trkpt lat="43.4832180" lon="-5.2497220">
        <ele>10.6</ele>
        <time>2021-07-19T11:38:12Z</time>
      </trkpt>
      <trkpt lat="43.4832370" lon="-5.2498510">
        <ele>10.6</ele>
        <time>2021-07-19T11:38:14Z</time>
      </trkpt>
      <trkpt lat="43.4832520" lon="-5.2499850">
        <ele>10.6</ele>
        <time>2021-07-19T11:38:16Z</time>
      </trkpt>
      <trkpt lat="43.4832590" lon="-5.2501040">
        <ele>10.6</ele>
        <time>2021-07-19T11:38:18Z</time>
      </trkpt>
      <trkpt lat="43.4832650" lon="-5.2501640">
        <ele>10.6</ele>
        <time>2021-07-19T11:38:19Z</time>
      </trkpt>
      <trkpt lat="43.4832800" lon="-5.2502820">
        <ele>10.6</ele>
        <time>2021-07-19T11:38:21Z</time>
      </trkpt>
      <trkpt lat="43.4832930" lon="-5.2503940">
        <ele>10.6</ele>
        <time>2021-07-19T11:38:23Z</time>
      </trkpt>
      <trkpt lat="43.4833010" lon="-5.2505040">
        <ele>10.6</ele>
        <time>2021-07-19T11:38:25Z</time>
      </trkpt>
      <trkpt lat="43.4833090" lon="-5.2505560">
        <ele>10.2</ele>
        <time>2021-07-19T11:38:26Z</time>
      </trkpt>
      <trkpt lat="43.4833220" lon="-5.2506070">
        <ele>9.8</ele>
        <time>2021-07-19T11:38:27Z</time>
      </trkpt>
      <trkpt lat="43.4833330" lon="-5.2506610">
        <ele>9.2</ele>
        <time>2021-07-19T11:38:28Z</time>
      </trkpt>
      <trkpt lat="43.4833410" lon="-5.2507210">
        <ele>8.4</ele>
        <time>2021-07-19T11:38:29Z</time>
      </trkpt>
      <trkpt lat="43.4833530" lon="-5.2508520">
        <ele>8.4</ele>
        <time>2021-07-19T11:38:31Z</time>
      </trkpt>
      <trkpt lat="43.4834230" lon="-5.2513100">
        <ele>8.4</ele>
        <time>2021-07-19T11:38:38Z</time>
      </trkpt>
      <trkpt lat="43.4834660" lon="-5.2516420">
        <ele>8.4</ele>
        <time>2021-07-19T11:38:43Z</time>
      </trkpt>
      <trkpt lat="43.4834810" lon="-5.2517730">
        <ele>8.4</ele>
        <time>2021-07-19T11:38:45Z</time>
      </trkpt>
      <trkpt lat="43.4834920" lon="-5.2518360">
        <ele>8.4</ele>
        <time>2021-07-19T11:38:46Z</time>
      </trkpt>
      <trkpt lat="43.4835280" lon="-5.2520970">
        <ele>8.4</ele>
        <time>2021-07-19T11:38:50Z</time>
      </trkpt>
      <trkpt lat="43.4835500" lon="-5.2523580">
        <ele>8.0</ele>
        <time>2021-07-19T11:38:54Z</time>
      </trkpt>
      <trkpt lat="43.4835560" lon="-5.2524210">
        <ele>7.6</ele>
        <time>2021-07-19T11:38:55Z</time>
      </trkpt>
      <trkpt lat="43.4835640" lon="-5.2524880">
        <ele>7.0</ele>
        <time>2021-07-19T11:38:56Z</time>
      </trkpt>
      <trkpt lat="43.4835710" lon="-5.2525500">
        <ele>6.6</ele>
        <time>2021-07-19T11:38:57Z</time>
      </trkpt>
      <trkpt lat="43.4835790" lon="-5.2526140">
        <ele>6.2</ele>
        <time>2021-07-19T11:38:58Z</time>
      </trkpt>
      <trkpt lat="43.4836210" lon="-5.2529390">
        <ele>6.2</ele>
        <time>2021-07-19T11:39:03Z</time>
      </trkpt>
      <trkpt lat="43.4836590" lon="-5.2534840">
        <ele>6.2</ele>
        <time>2021-07-19T11:39:11Z</time>
      </trkpt>
      <trkpt lat="43.4836660" lon="-5.2535550">
        <ele>6.2</ele>
        <time>2021-07-19T11:39:12Z</time>
      </trkpt>
      <trkpt lat="43.4837250" lon="-5.2541100">
        <ele>6.2</ele>
        <time>2021-07-19T11:39:20Z</time>
      </trkpt>
      <trkpt lat="43.4837390" lon="-5.2542490">
        <ele>6.2</ele>
        <time>2021-07-19T11:39:22Z</time>
      </trkpt>
      <trkpt lat="43.4837460" lon="-5.2543190">
        <ele>5.8</ele>
        <time>2021-07-19T11:39:23Z</time>
      </trkpt>
      <trkpt lat="43.4837540" lon="-5.2543890">
        <ele>5.2</ele>
        <time>2021-07-19T11:39:24Z</time>
      </trkpt>
      <trkpt lat="43.4837620" lon="-5.2544580">
        <ele>4.8</ele>
        <time>2021-07-19T11:39:25Z</time>
      </trkpt>
      <trkpt lat="43.4837680" lon="-5.2545350">
        <ele>4.4</ele>
        <time>2021-07-19T11:39:26Z</time>
      </trkpt>
      <trkpt lat="43.4837740" lon="-5.2546060">
        <ele>4.0</ele>
        <time>2021-07-19T11:39:27Z</time>
      </trkpt>
      <trkpt lat="43.4838180" lon="-5.2549720">
        <ele>4.0</ele>
        <time>2021-07-19T11:39:32Z</time>
      </trkpt>
      <trkpt lat="43.4838470" lon="-5.2552770">
        <ele>3.4</ele>
        <time>2021-07-19T11:39:36Z</time>
      </trkpt>
      <trkpt lat="43.4838550" lon="-5.2553480">
        <ele>3.0</ele>
        <time>2021-07-19T11:39:37Z</time>
      </trkpt>
      <trkpt lat="43.4838710" lon="-5.2554150">
        <ele>2.6</ele>
        <time>2021-07-19T11:39:38Z</time>
      </trkpt>
      <trkpt lat="43.4838970" lon="-5.2554730">
        <ele>2.2</ele>
        <time>2021-07-19T11:39:39Z</time>
      </trkpt>
      <trkpt lat="43.4839290" lon="-5.2555240">
        <ele>1.8</ele>
        <time>2021-07-19T11:39:40Z</time>
      </trkpt>
      <trkpt lat="43.4840530" lon="-5.2556470">
        <ele>1.8</ele>
        <time>2021-07-19T11:39:43Z</time>
      </trkpt>
      <trkpt lat="43.4840900" lon="-5.2556990">
        <ele>1.8</ele>
        <time>2021-07-19T11:39:44Z</time>
      </trkpt>
      <trkpt lat="43.4841400" lon="-5.2558830">
        <ele>1.8</ele>
        <time>2021-07-19T11:39:47Z</time>
      </trkpt>
      <trkpt lat="43.4841020" lon="-5.2561460">
        <ele>1.8</ele>
        <time>2021-07-19T11:39:51Z</time>
      </trkpt>
      <trkpt lat="43.4840500" lon="-5.2562450">
        <ele>1.8</ele>
        <time>2021-07-19T11:39:53Z</time>
      </trkpt>
      <trkpt lat="43.4840270" lon="-5.2562930">
        <ele>1.4</ele>
        <time>2021-07-19T11:39:54Z</time>
      </trkpt>
      <trkpt lat="43.4840110" lon="-5.2563400">
        <ele>1.0</ele>
        <time>2021-07-19T11:39:55Z</time>
      </trkpt>
      <trkpt lat="43.4839980" lon="-5.2563920">
        <ele>0.6</ele>
        <time>2021-07-19T11:39:56Z</time>
      </trkpt>
      <trkpt lat="43.4839860" lon="-5.2564460">
        <ele>0.2</ele>
        <time>2021-07-19T11:39:57Z</time>
      </trkpt>
      <trkpt lat="43.4839830" lon="-5.2565020">
        <ele>-0.2</ele>
        <time>2021-07-19T11:39:58Z</time>
      </trkpt>
      <trkpt lat="43.4839870" lon="-5.2565590">
        <ele>-0.2</ele>
        <time>2021-07-19T11:39:59Z</time>
      </trkpt>
      <trkpt lat="43.4840000" lon="-5.2566770">
        <ele>-0.2</ele>
        <time>2021-07-19T11:40:01Z</time>
      </trkpt>
      <trkpt lat="43.4840180" lon="-5.2567940">
        <ele>-0.2</ele>
        <time>2021-07-19T11:40:03Z</time>
      </trkpt>
      <trkpt lat="43.4840320" lon="-5.2569160">
        <ele>-0.2</ele>
        <time>2021-07-19T11:40:05Z</time>
      </trkpt>
      <trkpt lat="43.4840480" lon="-5.2570930">
        <ele>-0.2</ele>
        <time>2021-07-19T11:40:08Z</time>
      </trkpt>
      <trkpt lat="43.4840680" lon="-5.2572730">
        <ele>-0.2</ele>
        <time>2021-07-19T11:40:11Z</time>
      </trkpt>
      <trkpt lat="43.4840990" lon="-5.2576150">
        <ele>-0.6</ele>
        <time>2021-07-19T11:40:17Z</time>
      </trkpt>
      <trkpt lat="43.4841050" lon="-5.2576690">
        <ele>-1.0</ele>
        <time>2021-07-19T11:40:18Z</time>
      </trkpt>
      <trkpt lat="43.4841110" lon="-5.2577260">
        <ele>-1.4</ele>
        <time>2021-07-19T11:40:19Z</time>
      </trkpt>
      <trkpt lat="43.4841190" lon="-5.2577800">
        <ele>-1.8</ele>
        <time>2021-07-19T11:40:20Z</time>
      </trkpt>
      <trkpt lat="43.4841260" lon="-5.2578330">
        <ele>-2.2</ele>
        <time>2021-07-19T11:40:21Z</time>
      </trkpt>
      <trkpt lat="43.4841530" lon="-5.2580910">
        <ele>-2.2</ele>
        <time>2021-07-19T11:40:26Z</time>
      </trkpt>
      <trkpt lat="43.4841830" lon="-5.2583340">
        <ele>-2.2</ele>
        <time>2021-07-19T11:40:30Z</time>
      </trkpt>
      <trkpt lat="43.4841960" lon="-5.2584550">
        <ele>-2.2</ele>
        <time>2021-07-19T11:40:32Z</time>
      </trkpt>
      <trkpt lat="43.4842270" lon="-5.2587450">
        <ele>-2.2</ele>
        <time>2021-07-19T11:40:37Z</time>
      </trkpt>
      <trkpt lat="43.4842630" lon="-5.2590860">
        <ele>-2.2</ele>
        <time>2021-07-19T11:40:43Z</time>
      </trkpt>
      <trkpt lat="43.4842910" lon="-5.2593820">
        <ele>-2.2</ele>
        <time>2021-07-19T11:40:48Z</time>
      </trkpt>
      <trkpt lat="43.4843040" lon="-5.2595060">
        <ele>-2.2</ele>
        <time>2021-07-19T11:40:50Z</time>
      </trkpt>
      <trkpt lat="43.4843190" lon="-5.2596220">
        <ele>-2.2</ele>
        <time>2021-07-19T11:40:52Z</time>
      </trkpt>
      <trkpt lat="43.4843590" lon="-5.2599610">
        <ele>-2.2</ele>
        <time>2021-07-19T11:40:58Z</time>
      </trkpt>
      <trkpt lat="43.4843640" lon="-5.2600130">
        <ele>-2.2</ele>
        <time>2021-07-19T11:40:59Z</time>
      </trkpt>
      <trkpt lat="43.4844130" lon="-5.2604330">
        <ele>-2.2</ele>
        <time>2021-07-19T11:41:07Z</time>
      </trkpt>
      <trkpt lat="43.4844270" lon="-5.2606320">
        <ele>-2.2</ele>
        <time>2021-07-19T11:41:11Z</time>
      </trkpt>
      <trkpt lat="43.4844550" lon="-5.2607460">
        <ele>-2.2</ele>
        <time>2021-07-19T11:41:14Z</time>
      </trkpt>
      <trkpt lat="43.4845570" lon="-5.2608180">
        <ele>-2.2</ele>
        <time>2021-07-19T11:41:18Z</time>
      </trkpt>
      <trkpt lat="43.4845960" lon="-5.2608720">
        <ele>-2.2</ele>
        <time>2021-07-19T11:41:20Z</time>
      </trkpt>
      <trkpt lat="43.4846270" lon="-5.2609740">
        <ele>-2.2</ele>
        <time>2021-07-19T11:41:23Z</time>
      </trkpt>
      <trkpt lat="43.4846490" lon="-5.2610150">
        <ele>-2.2</ele>
        <time>2021-07-19T11:41:27Z</time>
      </trkpt>
      <trkpt lat="43.4846590" lon="-5.2610180">
        <ele>-2.2</ele>
        <time>2021-07-19T11:41:29Z</time>
      </trkpt>
      <trkpt lat="43.4846670" lon="-5.2610550">
        <ele>-4.2</ele>
        <time>2021-07-19T11:44:12Z</time>
      </trkpt>
      <trkpt lat="43.4846660" lon="-5.2610830">
        <ele>-4.2</ele>
        <time>2021-07-19T11:44:13Z</time>
      </trkpt>
      <trkpt lat="43.4846550" lon="-5.2611070">
        <ele>-4.2</ele>
        <time>2021-07-19T11:44:14Z</time>
      </trkpt>
      <trkpt lat="43.4846320" lon="-5.2611630">
        <ele>-4.2</ele>
        <time>2021-07-19T11:44:16Z</time>
      </trkpt>
      <trkpt lat="43.4845520" lon="-5.2613390">
        <ele>-4.2</ele>
        <time>2021-07-19T11:44:21Z</time>
      </trkpt>
      <trkpt lat="43.4845260" lon="-5.2615560">
        <ele>-4.2</ele>
        <time>2021-07-19T11:44:26Z</time>
      </trkpt>
      <trkpt lat="43.4845410" lon="-5.2617140">
        <ele>-4.2</ele>
        <time>2021-07-19T11:44:29Z</time>
      </trkpt>
      <trkpt lat="43.4845580" lon="-5.2618850">
        <ele>-4.2</ele>
        <time>2021-07-19T11:44:32Z</time>
      </trkpt>
      <trkpt lat="43.4845630" lon="-5.2619370">
        <ele>-4.2</ele>
        <time>2021-07-19T11:44:33Z</time>
      </trkpt>
      <trkpt lat="43.4846150" lon="-5.2620600">
        <ele>-4.2</ele>
        <time>2021-07-19T11:44:37Z</time>
      </trkpt>
      <trkpt lat="43.4846470" lon="-5.2620810">
        <ele>-4.2</ele>
        <time>2021-07-19T11:44:39Z</time>
      </trkpt>
      <trkpt lat="43.4846670" lon="-5.2621360">
        <ele>-4.2</ele>
        <time>2021-07-19T11:44:41Z</time>
      </trkpt>
      <trkpt lat="43.4846660" lon="-5.2621770">
        <ele>-4.2</ele>
        <time>2021-07-19T11:44:42Z</time>
      </trkpt>
      <trkpt lat="43.4846160" lon="-5.2623170">
        <ele>-4.2</ele>
        <time>2021-07-19T11:44:46Z</time>
      </trkpt>
      <trkpt lat="43.4846160" lon="-5.2624110">
        <ele>-4.2</ele>
        <time>2021-07-19T11:44:48Z</time>
      </trkpt>
      <trkpt lat="43.4846370" lon="-5.2625620">
        <ele>-4.2</ele>
        <time>2021-07-19T11:44:51Z</time>
      </trkpt>
      <trkpt lat="43.4846700" lon="-5.2629010">
        <ele>-4.2</ele>
        <time>2021-07-19T11:44:57Z</time>
      </trkpt>
      <trkpt lat="43.4846810" lon="-5.2629560">
        <ele>-4.2</ele>
        <time>2021-07-19T11:44:58Z</time>
      </trkpt>
      <trkpt lat="43.4847050" lon="-5.2631870">
        <ele>-4.2</ele>
        <time>2021-07-19T11:45:02Z</time>
      </trkpt>
      <trkpt lat="43.4847640" lon="-5.2637070">
        <ele>-4.2</ele>
        <time>2021-07-19T11:45:11Z</time>
      </trkpt>
      <trkpt lat="43.4847760" lon="-5.2638120">
        <ele>-4.2</ele>
        <time>2021-07-19T11:45:13Z</time>
      </trkpt>
      <trkpt lat="43.4848100" lon="-5.2641390">
        <ele>-4.2</ele>
        <time>2021-07-19T11:45:19Z</time>
      </trkpt>
      <trkpt lat="43.4848280" lon="-5.2643150">
        <ele>-4.2</ele>
        <time>2021-07-19T11:45:22Z</time>
      </trkpt>
      <trkpt lat="43.4848680" lon="-5.2646740">
        <ele>-4.2</ele>
        <time>2021-07-19T11:45:28Z</time>
      </trkpt>
      <trkpt lat="43.4848760" lon="-5.2647350">
        <ele>-4.2</ele>
        <time>2021-07-19T11:45:29Z</time>
      </trkpt>
      <trkpt lat="43.4849010" lon="-5.2649060">
        <ele>-4.2</ele>
        <time>2021-07-19T11:45:32Z</time>
      </trkpt>
      <trkpt lat="43.4849370" lon="-5.2651870">
        <ele>-4.2</ele>
        <time>2021-07-19T11:45:37Z</time>
      </trkpt>
      <trkpt lat="43.4849940" lon="-5.2655870">
        <ele>-4.2</ele>
        <time>2021-07-19T11:45:44Z</time>
      </trkpt>
      <trkpt lat="43.4849950" lon="-5.2656970">
        <ele>-4.2</ele>
        <time>2021-07-19T11:45:46Z</time>
      </trkpt>
      <trkpt lat="43.4850340" lon="-5.2660330">
        <ele>-4.2</ele>
        <time>2021-07-19T11:45:52Z</time>
      </trkpt>
      <trkpt lat="43.4850490" lon="-5.2661970">
        <ele>-4.2</ele>
        <time>2021-07-19T11:45:55Z</time>
      </trkpt>
      <trkpt lat="43.4850990" lon="-5.2666330">
        <ele>-4.2</ele>
        <time>2021-07-19T11:46:03Z</time>
      </trkpt>
      <trkpt lat="43.4851190" lon="-5.2668160">
        <ele>-4.2</ele>
        <time>2021-07-19T11:46:07Z</time>
      </trkpt>
      <trkpt lat="43.4851260" lon="-5.2668910">
        <ele>-4.2</ele>
        <time>2021-07-19T11:46:09Z</time>
      </trkpt>
      <trkpt lat="43.4851310" lon="-5.2669390">
        <ele>-4.6</ele>
        <time>2021-07-19T11:46:11Z</time>
      </trkpt>
      <trkpt lat="43.4851350" lon="-5.2669530">
        <ele>-5.0</ele>
        <time>2021-07-19T11:46:12Z</time>
      </trkpt>
      <trkpt lat="43.4851390" lon="-5.2669760">
        <ele>-5.4</ele>
        <time>2021-07-19T11:46:13Z</time>
      </trkpt>
      <trkpt lat="43.4851450" lon="-5.2669920">
        <ele>-6.0</ele>
        <time>2021-07-19T11:46:14Z</time>
      </trkpt>
      <trkpt lat="43.4851520" lon="-5.2670100">
        <ele>-6.4</ele>
        <time>2021-07-19T11:46:15Z</time>
      </trkpt>
      <trkpt lat="43.4851580" lon="-5.2670330">
        <ele>-6.4</ele>
        <time>2021-07-19T11:46:16Z</time>
      </trkpt>
      <trkpt lat="43.4851690" lon="-5.2670650">
        <ele>-6.4</ele>
        <time>2021-07-19T11:46:17Z</time>
      </trkpt>
      <trkpt lat="43.4851820" lon="-5.2671390">
        <ele>-6.4</ele>
        <time>2021-07-19T11:46:19Z</time>
      </trkpt>
      <trkpt lat="43.4851840" lon="-5.2671800">
        <ele>-6.4</ele>
        <time>2021-07-19T11:46:20Z</time>
      </trkpt>
      <trkpt lat="43.4851970" lon="-5.2672750">
        <ele>-6.4</ele>
        <time>2021-07-19T11:46:22Z</time>
      </trkpt>
      <trkpt lat="43.4852290" lon="-5.2675240">
        <ele>-6.4</ele>
        <time>2021-07-19T11:46:27Z</time>
      </trkpt>
      <trkpt lat="43.4852480" lon="-5.2677090">
        <ele>-6.4</ele>
        <time>2021-07-19T11:46:31Z</time>
      </trkpt>
      <trkpt lat="43.4852710" lon="-5.2678670">
        <ele>-6.4</ele>
        <time>2021-07-19T11:46:34Z</time>
      </trkpt>
      <trkpt lat="43.4852780" lon="-5.2679180">
        <ele>-6.4</ele>
        <time>2021-07-19T11:46:35Z</time>
      </trkpt>
      <trkpt lat="43.4853130" lon="-5.2682780">
        <ele>-6.4</ele>
        <time>2021-07-19T11:46:43Z</time>
      </trkpt>
      <trkpt lat="43.4853270" lon="-5.2683960">
        <ele>-6.4</ele>
        <time>2021-07-19T11:46:45Z</time>
      </trkpt>
      <trkpt lat="43.4853380" lon="-5.2685720">
        <ele>-6.4</ele>
        <time>2021-07-19T11:46:48Z</time>
      </trkpt>
      <trkpt lat="43.4853610" lon="-5.2688920">
        <ele>-6.4</ele>
        <time>2021-07-19T11:46:54Z</time>
      </trkpt>
      <trkpt lat="43.4853920" lon="-5.2691870">
        <ele>-6.4</ele>
        <time>2021-07-19T11:46:59Z</time>
      </trkpt>
      <trkpt lat="43.4854010" lon="-5.2693000">
        <ele>-6.4</ele>
        <time>2021-07-19T11:47:01Z</time>
      </trkpt>
      <trkpt lat="43.4854150" lon="-5.2695040">
        <ele>-6.4</ele>
        <time>2021-07-19T11:47:05Z</time>
      </trkpt>
      <trkpt lat="43.4854130" lon="-5.2695850">
        <ele>-6.4</ele>
        <time>2021-07-19T11:47:07Z</time>
      </trkpt>
      <trkpt lat="43.4854230" lon="-5.2698120">
        <ele>-6.4</ele>
        <time>2021-07-19T11:47:12Z</time>
      </trkpt>
      <trkpt lat="43.4854530" lon="-5.2699550">
        <ele>-6.4</ele>
        <time>2021-07-19T11:47:16Z</time>
      </trkpt>
      <trkpt lat="43.4854710" lon="-5.2699790">
        <ele>-6.4</ele>
        <time>2021-07-19T11:47:17Z</time>
      </trkpt>
      <trkpt lat="43.4854700" lon="-5.2701240">
        <ele>-6.4</ele>
        <time>2021-07-19T11:47:21Z</time>
      </trkpt>
      <trkpt lat="43.4853620" lon="-5.2701740">
        <ele>-6.4</ele>
        <time>2021-07-19T11:47:25Z</time>
      </trkpt>
      <trkpt lat="43.4853140" lon="-5.2701980">
        <ele>-6.4</ele>
        <time>2021-07-19T11:47:27Z</time>
      </trkpt>
      <trkpt lat="43.4852870" lon="-5.2702420">
        <ele>-6.4</ele>
        <time>2021-07-19T11:47:29Z</time>
      </trkpt>
      <trkpt lat="43.4852810" lon="-5.2702470">
        <ele>-6.4</ele>
        <time>2021-07-19T11:47:31Z</time>
      </trkpt>
      <trkpt lat="43.4852560" lon="-5.2702770">
        <ele>-6.4</ele>
        <time>2021-07-19T11:47:35Z</time>
      </trkpt>
      <trkpt lat="43.4852240" lon="-5.2703630">
        <ele>-6.4</ele>
        <time>2021-07-19T11:49:46Z</time>
      </trkpt>
      <trkpt lat="43.4852190" lon="-5.2703910">
        <ele>-6.4</ele>
        <time>2021-07-19T11:49:47Z</time>
      </trkpt>
      <trkpt lat="43.4851870" lon="-5.2704320">
        <ele>-6.4</ele>
        <time>2021-07-19T11:49:48Z</time>
      </trkpt>
      <trkpt lat="43.4851570" lon="-5.2704930">
        <ele>-6.4</ele>
        <time>2021-07-19T11:49:50Z</time>
      </trkpt>
      <trkpt lat="43.4851420" lon="-5.2705240">
        <ele>-6.4</ele>
        <time>2021-07-19T11:49:51Z</time>
      </trkpt>
      <trkpt lat="43.4851020" lon="-5.2705960">
        <ele>-6.4</ele>
        <time>2021-07-19T11:49:53Z</time>
      </trkpt>
      <trkpt lat="43.4850610" lon="-5.2706740">
        <ele>-6.4</ele>
        <time>2021-07-19T11:49:55Z</time>
      </trkpt>
      <trkpt lat="43.4850080" lon="-5.2708260">
        <ele>-6.4</ele>
        <time>2021-07-19T11:49:58Z</time>
      </trkpt>
      <trkpt lat="43.4848620" lon="-5.2712130">
        <ele>-6.4</ele>
        <time>2021-07-19T11:50:06Z</time>
      </trkpt>
      <trkpt lat="43.4847920" lon="-5.2714180">
        <ele>-6.4</ele>
        <time>2021-07-19T11:50:10Z</time>
      </trkpt>
      <trkpt lat="43.4847400" lon="-5.2715770">
        <ele>-6.4</ele>
        <time>2021-07-19T11:50:13Z</time>
      </trkpt>
      <trkpt lat="43.4846780" lon="-5.2718090">
        <ele>-6.4</ele>
        <time>2021-07-19T11:50:17Z</time>
      </trkpt>
      <trkpt lat="43.4846740" lon="-5.2719360">
        <ele>-6.4</ele>
        <time>2021-07-19T11:50:19Z</time>
      </trkpt>
      <trkpt lat="43.4846670" lon="-5.2720470">
        <ele>-6.0</ele>
        <time>2021-07-19T11:50:21Z</time>
      </trkpt>
      <trkpt lat="43.4846640" lon="-5.2720980">
        <ele>-5.6</ele>
        <time>2021-07-19T11:50:22Z</time>
      </trkpt>
      <trkpt lat="43.4846620" lon="-5.2721480">
        <ele>-5.2</ele>
        <time>2021-07-19T11:50:23Z</time>
      </trkpt>
      <trkpt lat="43.4846640" lon="-5.2721970">
        <ele>-4.8</ele>
        <time>2021-07-19T11:50:24Z</time>
      </trkpt>
      <trkpt lat="43.4846640" lon="-5.2722400">
        <ele>-4.4</ele>
        <time>2021-07-19T11:50:25Z</time>
      </trkpt>
      <trkpt lat="43.4846620" lon="-5.2722810">
        <ele>-4.4</ele>
        <time>2021-07-19T11:50:26Z</time>
      </trkpt>
      <trkpt lat="43.4846090" lon="-5.2725080">
        <ele>-4.4</ele>
        <time>2021-07-19T11:50:32Z</time>
      </trkpt>
      <trkpt lat="43.4844480" lon="-5.2727800">
        <ele>-4.4</ele>
        <time>2021-07-19T11:50:38Z</time>
      </trkpt>
      <trkpt lat="43.4844150" lon="-5.2728150">
        <ele>-4.4</ele>
        <time>2021-07-19T11:50:39Z</time>
      </trkpt>
      <trkpt lat="43.4843520" lon="-5.2728890">
        <ele>-4.4</ele>
        <time>2021-07-19T11:50:41Z</time>
      </trkpt>
      <trkpt lat="43.4843600" lon="-5.2729460">
        <ele>-4.4</ele>
        <time>2021-07-19T11:50:42Z</time>
      </trkpt>
      <trkpt lat="43.4843980" lon="-5.2730780">
        <ele>-4.4</ele>
        <time>2021-07-19T11:50:44Z</time>
      </trkpt>
      <trkpt lat="43.4844460" lon="-5.2732290">
        <ele>-4.8</ele>
        <time>2021-07-19T11:50:46Z</time>
      </trkpt>
      <trkpt lat="43.4844750" lon="-5.2733040">
        <ele>-5.2</ele>
        <time>2021-07-19T11:50:47Z</time>
      </trkpt>
      <trkpt lat="43.4845050" lon="-5.2733740">
        <ele>-5.6</ele>
        <time>2021-07-19T11:50:48Z</time>
      </trkpt>
      <trkpt lat="43.4845500" lon="-5.2734440">
        <ele>-6.0</ele>
        <time>2021-07-19T11:50:49Z</time>
      </trkpt>
      <trkpt lat="43.4845990" lon="-5.2735020">
        <ele>-6.4</ele>
        <time>2021-07-19T11:50:50Z</time>
      </trkpt>
      <trkpt lat="43.4847060" lon="-5.2736030">
        <ele>-6.8</ele>
        <time>2021-07-19T11:50:52Z</time>
      </trkpt>
      <trkpt lat="43.4847570" lon="-5.2736500">
        <ele>-7.2</ele>
        <time>2021-07-19T11:50:53Z</time>
      </trkpt>
      <trkpt lat="43.4848050" lon="-5.2736960">
        <ele>-7.6</ele>
        <time>2021-07-19T11:50:54Z</time>
      </trkpt>
      <trkpt lat="43.4848520" lon="-5.2737410">
        <ele>-8.0</ele>
        <time>2021-07-19T11:50:55Z</time>
      </trkpt>
      <trkpt lat="43.4849010" lon="-5.2737880">
        <ele>-8.6</ele>
        <time>2021-07-19T11:50:56Z</time>
      </trkpt>
      <trkpt lat="43.4849480" lon="-5.2738290">
        <ele>-9.0</ele>
        <time>2021-07-19T11:50:57Z</time>
      </trkpt>
      <trkpt lat="43.4849960" lon="-5.2738700">
        <ele>-9.4</ele>
        <time>2021-07-19T11:50:58Z</time>
      </trkpt>
      <trkpt lat="43.4850430" lon="-5.2739160">
        <ele>-9.8</ele>
        <time>2021-07-19T11:50:59Z</time>
      </trkpt>
      <trkpt lat="43.4850890" lon="-5.2739670">
        <ele>-10.2</ele>
        <time>2021-07-19T11:51:00Z</time>
      </trkpt>
      <trkpt lat="43.4851350" lon="-5.2740240">
        <ele>-10.6</ele>
        <time>2021-07-19T11:51:01Z</time>
      </trkpt>
      <trkpt lat="43.4852700" lon="-5.2742210">
        <ele>-10.6</ele>
        <time>2021-07-19T11:51:04Z</time>
      </trkpt>
      <trkpt lat="43.4853090" lon="-5.2742830">
        <ele>-11.0</ele>
        <time>2021-07-19T11:51:05Z</time>
      </trkpt>
      <trkpt lat="43.4853470" lon="-5.2743380">
        <ele>-11.6</ele>
        <time>2021-07-19T11:51:06Z</time>
      </trkpt>
      <trkpt lat="43.4853850" lon="-5.2743890">
        <ele>-12.0</ele>
        <time>2021-07-19T11:51:07Z</time>
      </trkpt>
      <trkpt lat="43.4854160" lon="-5.2744350">
        <ele>-12.4</ele>
        <time>2021-07-19T11:51:08Z</time>
      </trkpt>
      <trkpt lat="43.4854440" lon="-5.2744770">
        <ele>-13.0</ele>
        <time>2021-07-19T11:51:09Z</time>
      </trkpt>
      <trkpt lat="43.4854720" lon="-5.2745130">
        <ele>-13.4</ele>
        <time>2021-07-19T11:51:10Z</time>
      </trkpt>
      <trkpt lat="43.4854950" lon="-5.2745390">
        <ele>-13.8</ele>
        <time>2021-07-19T11:51:11Z</time>
      </trkpt>
      <trkpt lat="43.4855160" lon="-5.2745610">
        <ele>-14.4</ele>
        <time>2021-07-19T11:51:12Z</time>
      </trkpt>
      <trkpt lat="43.4855330" lon="-5.2745780">
        <ele>-14.8</ele>
        <time>2021-07-19T11:51:13Z</time>
      </trkpt>
      <trkpt lat="43.4855480" lon="-5.2745950">
        <ele>-15.2</ele>
        <time>2021-07-19T11:51:14Z</time>
      </trkpt>
      <trkpt lat="43.4855570" lon="-5.2746060">
        <ele>-15.2</ele>
        <time>2021-07-19T11:51:15Z</time>
      </trkpt>
      <trkpt lat="43.4855570" lon="-5.2746060">
        <ele>-15.2</ele>
        <time>2021-07-19T11:51:16Z</time>
      </trkpt>
      <trkpt lat="43.4855680" lon="-5.2746390">
        <ele>-15.2</ele>
        <time>2021-07-19T11:51:19Z</time>
      </trkpt>
      <trkpt lat="43.4855710" lon="-5.2746630">
        <ele>-15.2</ele>
        <time>2021-07-19T11:51:20Z</time>
      </trkpt>
      <trkpt lat="43.4855730" lon="-5.2746880">
        <ele>-15.2</ele>
        <time>2021-07-19T11:51:21Z</time>
      </trkpt>
      <trkpt lat="43.4855830" lon="-5.2748540">
        <ele>-15.2</ele>
        <time>2021-07-19T11:51:25Z</time>
      </trkpt>
      <trkpt lat="43.4855720" lon="-5.2752400">
        <ele>-15.2</ele>
        <time>2021-07-19T11:51:31Z</time>
      </trkpt>
      <trkpt lat="43.4855500" lon="-5.2753610">
        <ele>-15.6</ele>
        <time>2021-07-19T11:51:33Z</time>
      </trkpt>
      <trkpt lat="43.4855370" lon="-5.2754180">
        <ele>-16.0</ele>
        <time>2021-07-19T11:51:34Z</time>
      </trkpt>
      <trkpt lat="43.4855190" lon="-5.2754760">
        <ele>-16.6</ele>
        <time>2021-07-19T11:51:35Z</time>
      </trkpt>
      <trkpt lat="43.4854980" lon="-5.2755360">
        <ele>-17.0</ele>
        <time>2021-07-19T11:51:36Z</time>
      </trkpt>
      <trkpt lat="43.4854820" lon="-5.2755920">
        <ele>-17.4</ele>
        <time>2021-07-19T11:51:37Z</time>
      </trkpt>
      <trkpt lat="43.4854640" lon="-5.2756530">
        <ele>-17.4</ele>
        <time>2021-07-19T11:51:38Z</time>
      </trkpt>
      <trkpt lat="43.4853880" lon="-5.2759050">
        <ele>-17.4</ele>
        <time>2021-07-19T11:51:42Z</time>
      </trkpt>
      <trkpt lat="43.4853390" lon="-5.2760950">
        <ele>-17.4</ele>
        <time>2021-07-19T11:51:45Z</time>
      </trkpt>
      <trkpt lat="43.4853230" lon="-5.2761600">
        <ele>-17.4</ele>
        <time>2021-07-19T11:51:46Z</time>
      </trkpt>
      <trkpt lat="43.4852610" lon="-5.2763600">
        <ele>-17.4</ele>
        <time>2021-07-19T11:51:49Z</time>
      </trkpt>
      <trkpt lat="43.4851700" lon="-5.2766720">
        <ele>-17.4</ele>
        <time>2021-07-19T11:51:54Z</time>
      </trkpt>
      <trkpt lat="43.4850140" lon="-5.2770880">
        <ele>-17.4</ele>
        <time>2021-07-19T11:52:01Z</time>
      </trkpt>
      <trkpt lat="43.4849410" lon="-5.2773370">
        <ele>-17.4</ele>
        <time>2021-07-19T11:52:05Z</time>
      </trkpt>
      <trkpt lat="43.4849260" lon="-5.2774610">
        <ele>-17.4</ele>
        <time>2021-07-19T11:52:07Z</time>
      </trkpt>
      <trkpt lat="43.4849160" lon="-5.2775980">
        <ele>-17.4</ele>
        <time>2021-07-19T11:52:09Z</time>
      </trkpt>
      <trkpt lat="43.4848790" lon="-5.2778960">
        <ele>-17.4</ele>
        <time>2021-07-19T11:52:13Z</time>
      </trkpt>
      <trkpt lat="43.4848350" lon="-5.2781230">
        <ele>-17.4</ele>
        <time>2021-07-19T11:52:16Z</time>
      </trkpt>
      <trkpt lat="43.4847890" lon="-5.2783480">
        <ele>-17.4</ele>
        <time>2021-07-19T11:52:19Z</time>
      </trkpt>
      <trkpt lat="43.4847650" lon="-5.2784850">
        <ele>-17.4</ele>
        <time>2021-07-19T11:52:21Z</time>
      </trkpt>
      <trkpt lat="43.4846810" lon="-5.2790010">
        <ele>-17.4</ele>
        <time>2021-07-19T11:52:28Z</time>
      </trkpt>
      <trkpt lat="43.4846160" lon="-5.2794640">
        <ele>-17.4</ele>
        <time>2021-07-19T11:52:34Z</time>
      </trkpt>
      <trkpt lat="43.4846080" lon="-5.2795320">
        <ele>-17.4</ele>
        <time>2021-07-19T11:52:35Z</time>
      </trkpt>
      <trkpt lat="43.4845410" lon="-5.2800610">
        <ele>-17.4</ele>
        <time>2021-07-19T11:52:43Z</time>
      </trkpt>
      <trkpt lat="43.4844780" lon="-5.2805350">
        <ele>-17.4</ele>
        <time>2021-07-19T11:52:51Z</time>
      </trkpt>
      <trkpt lat="43.4844300" lon="-5.2807760">
        <ele>-17.0</ele>
        <time>2021-07-19T11:52:55Z</time>
      </trkpt>
      <trkpt lat="43.4844150" lon="-5.2808420">
        <ele>-16.6</ele>
        <time>2021-07-19T11:52:56Z</time>
      </trkpt>
      <trkpt lat="43.4843960" lon="-5.2809070">
        <ele>-16.2</ele>
        <time>2021-07-19T11:52:57Z</time>
      </trkpt>
      <trkpt lat="43.4843770" lon="-5.2809730">
        <ele>-15.8</ele>
        <time>2021-07-19T11:52:58Z</time>
      </trkpt>
      <trkpt lat="43.4843610" lon="-5.2810430">
        <ele>-15.4</ele>
        <time>2021-07-19T11:52:59Z</time>
      </trkpt>
      <trkpt lat="43.4842730" lon="-5.2814150">
        <ele>-15.4</ele>
        <time>2021-07-19T11:53:04Z</time>
      </trkpt>
      <trkpt lat="43.4842120" lon="-5.2816460">
        <ele>-15.4</ele>
        <time>2021-07-19T11:53:07Z</time>
      </trkpt>
      <trkpt lat="43.4841470" lon="-5.2819620">
        <ele>-15.4</ele>
        <time>2021-07-19T11:53:11Z</time>
      </trkpt>
      <trkpt lat="43.4841320" lon="-5.2820400">
        <ele>-15.8</ele>
        <time>2021-07-19T11:53:12Z</time>
      </trkpt>
      <trkpt lat="43.4841160" lon="-5.2821200">
        <ele>-16.2</ele>
        <time>2021-07-19T11:53:13Z</time>
      </trkpt>
      <trkpt lat="43.4840990" lon="-5.2822000">
        <ele>-16.6</ele>
        <time>2021-07-19T11:53:14Z</time>
      </trkpt>
      <trkpt lat="43.4840820" lon="-5.2822810">
        <ele>-17.2</ele>
        <time>2021-07-19T11:53:15Z</time>
      </trkpt>
      <trkpt lat="43.4840670" lon="-5.2823620">
        <ele>-17.6</ele>
        <time>2021-07-19T11:53:16Z</time>
      </trkpt>
      <trkpt lat="43.4840420" lon="-5.2825270">
        <ele>-17.6</ele>
        <time>2021-07-19T11:53:18Z</time>
      </trkpt>
      <trkpt lat="43.4840190" lon="-5.2827620">
        <ele>-17.6</ele>
        <time>2021-07-19T11:53:21Z</time>
      </trkpt>
      <trkpt lat="43.4840130" lon="-5.2828360">
        <ele>-17.6</ele>
        <time>2021-07-19T11:53:22Z</time>
      </trkpt>
      <trkpt lat="43.4840070" lon="-5.2829090">
        <ele>-17.6</ele>
        <time>2021-07-19T11:53:23Z</time>
      </trkpt>
      <trkpt lat="43.4839890" lon="-5.2831880">
        <ele>-17.6</ele>
        <time>2021-07-19T11:53:27Z</time>
      </trkpt>
      <trkpt lat="43.4839730" lon="-5.2833280">
        <ele>-17.6</ele>
        <time>2021-07-19T11:53:29Z</time>
      </trkpt>
      <trkpt lat="43.4839690" lon="-5.2834010">
        <ele>-17.6</ele>
        <time>2021-07-19T11:53:30Z</time>
      </trkpt>
      <trkpt lat="43.4839620" lon="-5.2835490">
        <ele>-17.6</ele>
        <time>2021-07-19T11:53:32Z</time>
      </trkpt>
      <trkpt lat="43.4839540" lon="-5.2837010">
        <ele>-17.6</ele>
        <time>2021-07-19T11:53:34Z</time>
      </trkpt>
      <trkpt lat="43.4839490" lon="-5.2837740">
        <ele>-17.6</ele>
        <time>2021-07-19T11:53:35Z</time>
      </trkpt>
      <trkpt lat="43.4838670" lon="-5.2844280">
        <ele>-17.6</ele>
        <time>2021-07-19T11:53:44Z</time>
      </trkpt>
      <trkpt lat="43.4837830" lon="-5.2849880">
        <ele>-17.6</ele>
        <time>2021-07-19T11:53:52Z</time>
      </trkpt>
      <trkpt lat="43.4837830" lon="-5.2852120">
        <ele>-17.6</ele>
        <time>2021-07-19T11:53:55Z</time>
      </trkpt>
      <trkpt lat="43.4838090" lon="-5.2853650">
        <ele>-17.6</ele>
        <time>2021-07-19T11:53:57Z</time>
      </trkpt>
      <trkpt lat="43.4838530" lon="-5.2855120">
        <ele>-17.6</ele>
        <time>2021-07-19T11:53:59Z</time>
      </trkpt>
      <trkpt lat="43.4838780" lon="-5.2855820">
        <ele>-17.6</ele>
        <time>2021-07-19T11:54:00Z</time>
      </trkpt>
      <trkpt lat="43.4839360" lon="-5.2857130">
        <ele>-17.6</ele>
        <time>2021-07-19T11:54:02Z</time>
      </trkpt>
      <trkpt lat="43.4840380" lon="-5.2859000">
        <ele>-17.6</ele>
        <time>2021-07-19T11:54:05Z</time>
      </trkpt>
      <trkpt lat="43.4841200" lon="-5.2860820">
        <ele>-17.6</ele>
        <time>2021-07-19T11:54:08Z</time>
      </trkpt>
      <trkpt lat="43.4842610" lon="-5.2864630">
        <ele>-17.6</ele>
        <time>2021-07-19T11:54:14Z</time>
      </trkpt>
      <trkpt lat="43.4844230" lon="-5.2868970">
        <ele>-17.6</ele>
        <time>2021-07-19T11:54:21Z</time>
      </trkpt>
      <trkpt lat="43.4844410" lon="-5.2869550">
        <ele>-17.6</ele>
        <time>2021-07-19T11:54:22Z</time>
      </trkpt>
      <trkpt lat="43.4844730" lon="-5.2870640">
        <ele>-17.6</ele>
        <time>2021-07-19T11:54:24Z</time>
      </trkpt>
      <trkpt lat="43.4845260" lon="-5.2872330">
        <ele>-17.6</ele>
        <time>2021-07-19T11:54:27Z</time>
      </trkpt>
      <trkpt lat="43.4845440" lon="-5.2874140">
        <ele>-17.6</ele>
        <time>2021-07-19T11:54:31Z</time>
      </trkpt>
      <trkpt lat="43.4845330" lon="-5.2874720">
        <ele>-17.6</ele>
        <time>2021-07-19T11:54:33Z</time>
      </trkpt>
      <trkpt lat="43.4845340" lon="-5.2874970">
        <ele>-17.6</ele>
        <time>2021-07-19T11:54:35Z</time>
      </trkpt>
      <trkpt lat="43.4845420" lon="-5.2875350">
        <ele>-17.6</ele>
        <time>2021-07-19T12:07:30Z</time>
      </trkpt>
      <trkpt lat="43.4845480" lon="-5.2875580">
        <ele>-17.6</ele>
        <time>2021-07-19T12:07:31Z</time>
      </trkpt>
      <trkpt lat="43.4845600" lon="-5.2876050">
        <ele>-17.6</ele>
        <time>2021-07-19T12:07:33Z</time>
      </trkpt>
      <trkpt lat="43.4845770" lon="-5.2877150">
        <ele>-17.6</ele>
        <time>2021-07-19T12:07:36Z</time>
      </trkpt>
      <trkpt lat="43.4845900" lon="-5.2878370">
        <ele>-17.6</ele>
        <time>2021-07-19T12:07:39Z</time>
      </trkpt>
      <trkpt lat="43.4846290" lon="-5.2880520">
        <ele>-17.6</ele>
        <time>2021-07-19T12:07:44Z</time>
      </trkpt>
      <trkpt lat="43.4846470" lon="-5.2881590">
        <ele>-17.6</ele>
        <time>2021-07-19T12:07:46Z</time>
      </trkpt>
      <trkpt lat="43.4846580" lon="-5.2882820">
        <ele>-17.6</ele>
        <time>2021-07-19T12:07:48Z</time>
      </trkpt>
      <trkpt lat="43.4846720" lon="-5.2884090">
        <ele>-17.6</ele>
        <time>2021-07-19T12:07:50Z</time>
      </trkpt>
      <trkpt lat="43.4846810" lon="-5.2885440">
        <ele>-17.6</ele>
        <time>2021-07-19T12:07:52Z</time>
      </trkpt>
      <trkpt lat="43.4846820" lon="-5.2887450">
        <ele>-17.6</ele>
        <time>2021-07-19T12:07:55Z</time>
      </trkpt>
      <trkpt lat="43.4846770" lon="-5.2888140">
        <ele>-17.6</ele>
        <time>2021-07-19T12:07:56Z</time>
      </trkpt>
      <trkpt lat="43.4846680" lon="-5.2888860">
        <ele>-17.6</ele>
        <time>2021-07-19T12:07:57Z</time>
      </trkpt>
      <trkpt lat="43.4846370" lon="-5.2891030">
        <ele>-17.6</ele>
        <time>2021-07-19T12:08:00Z</time>
      </trkpt>
      <trkpt lat="43.4845880" lon="-5.2893720">
        <ele>-17.6</ele>
        <time>2021-07-19T12:08:04Z</time>
      </trkpt>
      <trkpt lat="43.4845240" lon="-5.2896070">
        <ele>-17.6</ele>
        <time>2021-07-19T12:08:09Z</time>
      </trkpt>
      <trkpt lat="43.4844200" lon="-5.2900030">
        <ele>-17.6</ele>
        <time>2021-07-19T12:08:17Z</time>
      </trkpt>
      <trkpt lat="43.4843740" lon="-5.2902040">
        <ele>-17.6</ele>
        <time>2021-07-19T12:08:21Z</time>
      </trkpt>
      <trkpt lat="43.4843590" lon="-5.2902500">
        <ele>-17.2</ele>
        <time>2021-07-19T12:08:22Z</time>
      </trkpt>
      <trkpt lat="43.4843490" lon="-5.2902960">
        <ele>-16.6</ele>
        <time>2021-07-19T12:08:23Z</time>
      </trkpt>
      <trkpt lat="43.4843390" lon="-5.2903410">
        <ele>-16.2</ele>
        <time>2021-07-19T12:08:24Z</time>
      </trkpt>
      <trkpt lat="43.4843270" lon="-5.2903830">
        <ele>-15.8</ele>
        <time>2021-07-19T12:08:25Z</time>
      </trkpt>
      <trkpt lat="43.4843170" lon="-5.2904270">
        <ele>-15.4</ele>
        <time>2021-07-19T12:08:26Z</time>
      </trkpt>
      <trkpt lat="43.4842820" lon="-5.2905950">
        <ele>-15.4</ele>
        <time>2021-07-19T12:08:30Z</time>
      </trkpt>
      <trkpt lat="43.4842750" lon="-5.2906350">
        <ele>-15.0</ele>
        <time>2021-07-19T12:08:31Z</time>
      </trkpt>
      <trkpt lat="43.4842660" lon="-5.2906730">
        <ele>-14.6</ele>
        <time>2021-07-19T12:08:32Z</time>
      </trkpt>
      <trkpt lat="43.4842580" lon="-5.2907150">
        <ele>-14.2</ele>
        <time>2021-07-19T12:08:33Z</time>
      </trkpt>
      <trkpt lat="43.4842480" lon="-5.2907550">
        <ele>-13.8</ele>
        <time>2021-07-19T12:08:34Z</time>
      </trkpt>
      <trkpt lat="43.4842410" lon="-5.2907950">
        <ele>-13.4</ele>
        <time>2021-07-19T12:08:35Z</time>
      </trkpt>
      <trkpt lat="43.4842110" lon="-5.2909590">
        <ele>-13.4</ele>
        <time>2021-07-19T12:08:39Z</time>
      </trkpt>
      <trkpt lat="43.4842040" lon="-5.2910000">
        <ele>-13.0</ele>
        <time>2021-07-19T12:08:40Z</time>
      </trkpt>
      <trkpt lat="43.4841960" lon="-5.2910400">
        <ele>-12.6</ele>
        <time>2021-07-19T12:08:41Z</time>
      </trkpt>
      <trkpt lat="43.4841880" lon="-5.2910790">
        <ele>-12.0</ele>
        <time>2021-07-19T12:08:42Z</time>
      </trkpt>
      <trkpt lat="43.4841850" lon="-5.2911200">
        <ele>-11.6</ele>
        <time>2021-07-19T12:08:43Z</time>
      </trkpt>
      <trkpt lat="43.4841810" lon="-5.2911660">
        <ele>-11.2</ele>
        <time>2021-07-19T12:08:44Z</time>
      </trkpt>
      <trkpt lat="43.4841630" lon="-5.2912960">
        <ele>-11.2</ele>
        <time>2021-07-19T12:08:47Z</time>
      </trkpt>
      <trkpt lat="43.4841240" lon="-5.2915680">
        <ele>-11.2</ele>
        <time>2021-07-19T12:08:53Z</time>
      </trkpt>
      <trkpt lat="43.4841170" lon="-5.2916140">
        <ele>-10.8</ele>
        <time>2021-07-19T12:08:54Z</time>
      </trkpt>
      <trkpt lat="43.4841110" lon="-5.2916590">
        <ele>-10.4</ele>
        <time>2021-07-19T12:08:55Z</time>
      </trkpt>
      <trkpt lat="43.4841040" lon="-5.2917040">
        <ele>-9.6</ele>
        <time>2021-07-19T12:08:56Z</time>
      </trkpt>
      <trkpt lat="43.4840950" lon="-5.2917500">
        <ele>-9.2</ele>
        <time>2021-07-19T12:08:57Z</time>
      </trkpt>
      <trkpt lat="43.4840580" lon="-5.2919790">
        <ele>-9.2</ele>
        <time>2021-07-19T12:09:02Z</time>
      </trkpt>
      <trkpt lat="43.4840420" lon="-5.2920690">
        <ele>-9.2</ele>
        <time>2021-07-19T12:09:04Z</time>
      </trkpt>
      <trkpt lat="43.4840000" lon="-5.2923020">
        <ele>-9.2</ele>
        <time>2021-07-19T12:09:09Z</time>
      </trkpt>
      <trkpt lat="43.4839800" lon="-5.2924490">
        <ele>-8.8</ele>
        <time>2021-07-19T12:09:12Z</time>
      </trkpt>
      <trkpt lat="43.4839740" lon="-5.2924980">
        <ele>-8.4</ele>
        <time>2021-07-19T12:09:13Z</time>
      </trkpt>
      <trkpt lat="43.4839680" lon="-5.2925510">
        <ele>-8.0</ele>
        <time>2021-07-19T12:09:14Z</time>
      </trkpt>
      <trkpt lat="43.4839630" lon="-5.2926000">
        <ele>-7.6</ele>
        <time>2021-07-19T12:09:15Z</time>
      </trkpt>
      <trkpt lat="43.4839590" lon="-5.2926510">
        <ele>-7.2</ele>
        <time>2021-07-19T12:09:16Z</time>
      </trkpt>
      <trkpt lat="43.4839470" lon="-5.2930810">
        <ele>-7.2</ele>
        <time>2021-07-19T12:09:24Z</time>
      </trkpt>
      <trkpt lat="43.4839750" lon="-5.2935570">
        <ele>-7.2</ele>
        <time>2021-07-19T12:09:33Z</time>
      </trkpt>
      <trkpt lat="43.4840060" lon="-5.2938690">
        <ele>-7.2</ele>
        <time>2021-07-19T12:09:39Z</time>
      </trkpt>
      <trkpt lat="43.4840240" lon="-5.2940800">
        <ele>-6.8</ele>
        <time>2021-07-19T12:09:43Z</time>
      </trkpt>
      <trkpt lat="43.4840300" lon="-5.2941330">
        <ele>-6.2</ele>
        <time>2021-07-19T12:09:44Z</time>
      </trkpt>
      <trkpt lat="43.4840330" lon="-5.2941840">
        <ele>-5.4</ele>
        <time>2021-07-19T12:09:45Z</time>
      </trkpt>
      <trkpt lat="43.4840360" lon="-5.2942350">
        <ele>-5.0</ele>
        <time>2021-07-19T12:09:46Z</time>
      </trkpt>
      <trkpt lat="43.4840540" lon="-5.2944300">
        <ele>-5.0</ele>
        <time>2021-07-19T12:09:50Z</time>
      </trkpt>
      <trkpt lat="43.4840770" lon="-5.2946290">
        <ele>-5.0</ele>
        <time>2021-07-19T12:09:54Z</time>
      </trkpt>
      <trkpt lat="43.4841100" lon="-5.2949630">
        <ele>-5.0</ele>
        <time>2021-07-19T12:10:00Z</time>
      </trkpt>
      <trkpt lat="43.4841370" lon="-5.2952410">
        <ele>-4.6</ele>
        <time>2021-07-19T12:10:05Z</time>
      </trkpt>
      <trkpt lat="43.4841410" lon="-5.2953000">
        <ele>-4.2</ele>
        <time>2021-07-19T12:10:06Z</time>
      </trkpt>
      <trkpt lat="43.4841490" lon="-5.2953540">
        <ele>-3.8</ele>
        <time>2021-07-19T12:10:07Z</time>
      </trkpt>
      <trkpt lat="43.4841540" lon="-5.2954090">
        <ele>-3.4</ele>
        <time>2021-07-19T12:10:08Z</time>
      </trkpt>
      <trkpt lat="43.4841590" lon="-5.2954630">
        <ele>-3.0</ele>
        <time>2021-07-19T12:10:09Z</time>
      </trkpt>
      <trkpt lat="43.4841660" lon="-5.2955160">
        <ele>-3.0</ele>
        <time>2021-07-19T12:10:10Z</time>
      </trkpt>
      <trkpt lat="43.4842380" lon="-5.2960510">
        <ele>-3.0</ele>
        <time>2021-07-19T12:10:20Z</time>
      </trkpt>
      <trkpt lat="43.4842640" lon="-5.2965930">
        <ele>-3.0</ele>
        <time>2021-07-19T12:10:30Z</time>
      </trkpt>
      <trkpt lat="43.4842520" lon="-5.2967960">
        <ele>-2.6</ele>
        <time>2021-07-19T12:10:34Z</time>
      </trkpt>
      <trkpt lat="43.4842470" lon="-5.2968510">
        <ele>-1.8</ele>
        <time>2021-07-19T12:10:35Z</time>
      </trkpt>
      <trkpt lat="43.4842410" lon="-5.2969070">
        <ele>-1.4</ele>
        <time>2021-07-19T12:10:36Z</time>
      </trkpt>
      <trkpt lat="43.4842370" lon="-5.2969610">
        <ele>-1.0</ele>
        <time>2021-07-19T12:10:37Z</time>
      </trkpt>
      <trkpt lat="43.4842320" lon="-5.2972380">
        <ele>-1.0</ele>
        <time>2021-07-19T12:10:42Z</time>
      </trkpt>
      <trkpt lat="43.4842260" lon="-5.2973360">
        <ele>-1.0</ele>
        <time>2021-07-19T12:10:44Z</time>
      </trkpt>
      <trkpt lat="43.4842090" lon="-5.2974540">
        <ele>-1.0</ele>
        <time>2021-07-19T12:10:47Z</time>
      </trkpt>
      <trkpt lat="43.4841660" lon="-5.2975570">
        <ele>-1.0</ele>
        <time>2021-07-19T12:10:50Z</time>
      </trkpt>
      <trkpt lat="43.4840790" lon="-5.2976540">
        <ele>-1.0</ele>
        <time>2021-07-19T12:10:53Z</time>
      </trkpt>
      <trkpt lat="43.4839990" lon="-5.2977360">
        <ele>-1.0</ele>
        <time>2021-07-19T12:10:55Z</time>
      </trkpt>
      <trkpt lat="43.4837600" lon="-5.2979730">
        <ele>-1.4</ele>
        <time>2021-07-19T12:11:01Z</time>
      </trkpt>
      <trkpt lat="43.4837260" lon="-5.2980080">
        <ele>-1.8</ele>
        <time>2021-07-19T12:11:02Z</time>
      </trkpt>
      <trkpt lat="43.4836940" lon="-5.2980430">
        <ele>-2.4</ele>
        <time>2021-07-19T12:11:03Z</time>
      </trkpt>
      <trkpt lat="43.4836630" lon="-5.2980730">
        <ele>-2.8</ele>
        <time>2021-07-19T12:11:04Z</time>
      </trkpt>
      <trkpt lat="43.4836370" lon="-5.2980970">
        <ele>-3.4</ele>
        <time>2021-07-19T12:11:05Z</time>
      </trkpt>
      <trkpt lat="43.4836130" lon="-5.2981210">
        <ele>-3.8</ele>
        <time>2021-07-19T12:11:06Z</time>
      </trkpt>
      <trkpt lat="43.4835930" lon="-5.2981360">
        <ele>-4.4</ele>
        <time>2021-07-19T12:11:07Z</time>
      </trkpt>
      <trkpt lat="43.4835780" lon="-5.2981490">
        <ele>-5.0</ele>
        <time>2021-07-19T12:11:08Z</time>
      </trkpt>
      <trkpt lat="43.4835680" lon="-5.2981570">
        <ele>-5.6</ele>
        <time>2021-07-19T12:11:09Z</time>
      </trkpt>
      <trkpt lat="43.4835690" lon="-5.2981570">
        <ele>-5.6</ele>
        <time>2021-07-19T12:11:10Z</time>
      </trkpt>
      <trkpt lat="43.4835440" lon="-5.2981710">
        <ele>-5.6</ele>
        <time>2021-07-19T12:11:35Z</time>
      </trkpt>
      <trkpt lat="43.4835170" lon="-5.2981830">
        <ele>-5.6</ele>
        <time>2021-07-19T12:11:36Z</time>
      </trkpt>
      <trkpt lat="43.4834420" lon="-5.2981990">
        <ele>-6.0</ele>
        <time>2021-07-19T12:11:38Z</time>
      </trkpt>
      <trkpt lat="43.4833950" lon="-5.2982040">
        <ele>-6.4</ele>
        <time>2021-07-19T12:11:39Z</time>
      </trkpt>
      <trkpt lat="43.4833450" lon="-5.2982100">
        <ele>-6.8</ele>
        <time>2021-07-19T12:11:40Z</time>
      </trkpt>
      <trkpt lat="43.4832910" lon="-5.2982080">
        <ele>-7.2</ele>
        <time>2021-07-19T12:11:41Z</time>
      </trkpt>
      <trkpt lat="43.4832350" lon="-5.2981960">
        <ele>-7.6</ele>
        <time>2021-07-19T12:11:42Z</time>
      </trkpt>
      <trkpt lat="43.4831170" lon="-5.2981590">
        <ele>-7.6</ele>
        <time>2021-07-19T12:11:44Z</time>
      </trkpt>
      <trkpt lat="43.4830510" lon="-5.2981400">
        <ele>-7.6</ele>
        <time>2021-07-19T12:11:45Z</time>
      </trkpt>
      <trkpt lat="43.4829890" lon="-5.2981330">
        <ele>-7.6</ele>
        <time>2021-07-19T12:11:46Z</time>
      </trkpt>
      <trkpt lat="43.4828650" lon="-5.2981560">
        <ele>-7.6</ele>
        <time>2021-07-19T12:11:48Z</time>
      </trkpt>
      <trkpt lat="43.4826500" lon="-5.2982910">
        <ele>-7.6</ele>
        <time>2021-07-19T12:11:52Z</time>
      </trkpt>
      <trkpt lat="43.4825760" lon="-5.2984030">
        <ele>-8.0</ele>
        <time>2021-07-19T12:11:54Z</time>
      </trkpt>
      <trkpt lat="43.4825500" lon="-5.2984710">
        <ele>-8.4</ele>
        <time>2021-07-19T12:11:55Z</time>
      </trkpt>
      <trkpt lat="43.4825350" lon="-5.2985420">
        <ele>-8.8</ele>
        <time>2021-07-19T12:11:56Z</time>
      </trkpt>
      <trkpt lat="43.4825280" lon="-5.2986120">
        <ele>-9.2</ele>
        <time>2021-07-19T12:11:57Z</time>
      </trkpt>
      <trkpt lat="43.4825280" lon="-5.2986790">
        <ele>-9.6</ele>
        <time>2021-07-19T12:11:58Z</time>
      </trkpt>
      <trkpt lat="43.4825280" lon="-5.2987450">
        <ele>-9.6</ele>
        <time>2021-07-19T12:11:59Z</time>
      </trkpt>
      <trkpt lat="43.4825300" lon="-5.2988110">
        <ele>-9.6</ele>
        <time>2021-07-19T12:12:00Z</time>
      </trkpt>
      <trkpt lat="43.4825080" lon="-5.2991520">
        <ele>-9.6</ele>
        <time>2021-07-19T12:12:05Z</time>
      </trkpt>
      <trkpt lat="43.4824940" lon="-5.2992200">
        <ele>-9.6</ele>
        <time>2021-07-19T12:12:06Z</time>
      </trkpt>
      <trkpt lat="43.4824480" lon="-5.2994230">
        <ele>-9.6</ele>
        <time>2021-07-19T12:12:09Z</time>
      </trkpt>
      <trkpt lat="43.4823600" lon="-5.2996690">
        <ele>-9.6</ele>
        <time>2021-07-19T12:12:13Z</time>
      </trkpt>
      <trkpt lat="43.4821790" lon="-5.3001690">
        <ele>-9.6</ele>
        <time>2021-07-19T12:12:21Z</time>
      </trkpt>
      <trkpt lat="43.4821320" lon="-5.3003000">
        <ele>-9.6</ele>
        <time>2021-07-19T12:12:23Z</time>
      </trkpt>
      <trkpt lat="43.4820460" lon="-5.3006420">
        <ele>-9.6</ele>
        <time>2021-07-19T12:12:28Z</time>
      </trkpt>
      <trkpt lat="43.4820390" lon="-5.3007120">
        <ele>-9.6</ele>
        <time>2021-07-19T12:12:29Z</time>
      </trkpt>
      <trkpt lat="43.4820460" lon="-5.3008600">
        <ele>-9.6</ele>
        <time>2021-07-19T12:12:31Z</time>
      </trkpt>
      <trkpt lat="43.4820810" lon="-5.3009960">
        <ele>-9.6</ele>
        <time>2021-07-19T12:12:33Z</time>
      </trkpt>
      <trkpt lat="43.4821260" lon="-5.3011160">
        <ele>-9.6</ele>
        <time>2021-07-19T12:12:35Z</time>
      </trkpt>
      <trkpt lat="43.4822040" lon="-5.3013510">
        <ele>-9.6</ele>
        <time>2021-07-19T12:12:39Z</time>
      </trkpt>
      <trkpt lat="43.4822150" lon="-5.3014110">
        <ele>-9.6</ele>
        <time>2021-07-19T12:12:40Z</time>
      </trkpt>
      <trkpt lat="43.4822040" lon="-5.3016330">
        <ele>-9.6</ele>
        <time>2021-07-19T12:12:44Z</time>
      </trkpt>
      <trkpt lat="43.4821220" lon="-5.3018480">
        <ele>-9.6</ele>
        <time>2021-07-19T12:12:48Z</time>
      </trkpt>
      <trkpt lat="43.4820860" lon="-5.3018980">
        <ele>-9.6</ele>
        <time>2021-07-19T12:12:49Z</time>
      </trkpt>
      <trkpt lat="43.4820490" lon="-5.3019430">
        <ele>-9.6</ele>
        <time>2021-07-19T12:12:50Z</time>
      </trkpt>
      <trkpt lat="43.4818510" lon="-5.3021910">
        <ele>-9.6</ele>
        <time>2021-07-19T12:12:56Z</time>
      </trkpt>
      <trkpt lat="43.4816040" lon="-5.3024680">
        <ele>-9.6</ele>
        <time>2021-07-19T12:13:03Z</time>
      </trkpt>
      <trkpt lat="43.4814280" lon="-5.3026380">
        <ele>-9.2</ele>
        <time>2021-07-19T12:13:09Z</time>
      </trkpt>
      <trkpt lat="43.4814030" lon="-5.3026640">
        <ele>-8.8</ele>
        <time>2021-07-19T12:13:10Z</time>
      </trkpt>
      <trkpt lat="43.4813810" lon="-5.3026840">
        <ele>-8.2</ele>
        <time>2021-07-19T12:13:11Z</time>
      </trkpt>
      <trkpt lat="43.4813590" lon="-5.3027070">
        <ele>-7.8</ele>
        <time>2021-07-19T12:13:12Z</time>
      </trkpt>
      <trkpt lat="43.4813390" lon="-5.3027320">
        <ele>-7.4</ele>
        <time>2021-07-19T12:13:13Z</time>
      </trkpt>
      <trkpt lat="43.4812490" lon="-5.3028260">
        <ele>-7.4</ele>
        <time>2021-07-19T12:13:17Z</time>
      </trkpt>
      <trkpt lat="43.4812250" lon="-5.3028460">
        <ele>-7.0</ele>
        <time>2021-07-19T12:13:18Z</time>
      </trkpt>
      <trkpt lat="43.4812040" lon="-5.3028700">
        <ele>-6.6</ele>
        <time>2021-07-19T12:13:19Z</time>
      </trkpt>
      <trkpt lat="43.4811840" lon="-5.3028920">
        <ele>-6.2</ele>
        <time>2021-07-19T12:13:20Z</time>
      </trkpt>
      <trkpt lat="43.4811620" lon="-5.3029180">
        <ele>-5.8</ele>
        <time>2021-07-19T12:13:21Z</time>
      </trkpt>
      <trkpt lat="43.4811450" lon="-5.3029400">
        <ele>-5.4</ele>
        <time>2021-07-19T12:13:22Z</time>
      </trkpt>
      <trkpt lat="43.4811090" lon="-5.3029810">
        <ele>-5.4</ele>
        <time>2021-07-19T12:13:24Z</time>
      </trkpt>
      <trkpt lat="43.4810540" lon="-5.3030490">
        <ele>-5.4</ele>
        <time>2021-07-19T12:13:27Z</time>
      </trkpt>
      <trkpt lat="43.4810420" lon="-5.3030710">
        <ele>-4.4</ele>
        <time>2021-07-19T12:13:28Z</time>
      </trkpt>
      <trkpt lat="43.4810290" lon="-5.3030970">
        <ele>-4.0</ele>
        <time>2021-07-19T12:13:29Z</time>
      </trkpt>
      <trkpt lat="43.4810180" lon="-5.3031200">
        <ele>-3.6</ele>
        <time>2021-07-19T12:13:30Z</time>
      </trkpt>
      <trkpt lat="43.4810110" lon="-5.3031500">
        <ele>-3.2</ele>
        <time>2021-07-19T12:13:31Z</time>
      </trkpt>
      <trkpt lat="43.4809910" lon="-5.3032700">
        <ele>-2.8</ele>
        <time>2021-07-19T12:13:35Z</time>
      </trkpt>
      <trkpt lat="43.4809980" lon="-5.3032980">
        <ele>-2.4</ele>
        <time>2021-07-19T12:13:36Z</time>
      </trkpt>
      <trkpt lat="43.4810080" lon="-5.3033250">
        <ele>-2.0</ele>
        <time>2021-07-19T12:13:37Z</time>
      </trkpt>
      <trkpt lat="43.4810210" lon="-5.3033470">
        <ele>-1.4</ele>
        <time>2021-07-19T12:13:38Z</time>
      </trkpt>
      <trkpt lat="43.4810370" lon="-5.3033620">
        <ele>-1.0</ele>
        <time>2021-07-19T12:13:39Z</time>
      </trkpt>
      <trkpt lat="43.4811020" lon="-5.3033890">
        <ele>-0.6</ele>
        <time>2021-07-19T12:13:42Z</time>
      </trkpt>
      <trkpt lat="43.4811230" lon="-5.3033910">
        <ele>-0.2</ele>
        <time>2021-07-19T12:13:43Z</time>
      </trkpt>
      <trkpt lat="43.4811440" lon="-5.3033980">
        <ele>0.2</ele>
        <time>2021-07-19T12:13:44Z</time>
      </trkpt>
      <trkpt lat="43.4811660" lon="-5.3034050">
        <ele>0.8</ele>
        <time>2021-07-19T12:13:45Z</time>
      </trkpt>
      <trkpt lat="43.4811850" lon="-5.3034060">
        <ele>1.2</ele>
        <time>2021-07-19T12:13:46Z</time>
      </trkpt>
      <trkpt lat="43.4812510" lon="-5.3034070">
        <ele>1.2</ele>
        <time>2021-07-19T12:13:49Z</time>
      </trkpt>
      <trkpt lat="43.4813120" lon="-5.3034130">
        <ele>1.6</ele>
        <time>2021-07-19T12:13:52Z</time>
      </trkpt>
      <trkpt lat="43.4813320" lon="-5.3034120">
        <ele>2.4</ele>
        <time>2021-07-19T12:13:53Z</time>
      </trkpt>
      <trkpt lat="43.4813560" lon="-5.3034060">
        <ele>3.0</ele>
        <time>2021-07-19T12:13:54Z</time>
      </trkpt>
      <trkpt lat="43.4813760" lon="-5.3034060">
        <ele>3.4</ele>
        <time>2021-07-19T12:13:55Z</time>
      </trkpt>
      <trkpt lat="43.4815210" lon="-5.3034370">
        <ele>3.4</ele>
        <time>2021-07-19T12:14:02Z</time>
      </trkpt>
      <trkpt lat="43.4815570" lon="-5.3034610">
        <ele>3.8</ele>
        <time>2021-07-19T12:14:04Z</time>
      </trkpt>
      <trkpt lat="43.4815740" lon="-5.3034720">
        <ele>4.2</ele>
        <time>2021-07-19T12:14:05Z</time>
      </trkpt>
      <trkpt lat="43.4815890" lon="-5.3034840">
        <ele>4.6</ele>
        <time>2021-07-19T12:14:06Z</time>
      </trkpt>
      <trkpt lat="43.4816000" lon="-5.3035020">
        <ele>5.0</ele>
        <time>2021-07-19T12:14:07Z</time>
      </trkpt>
      <trkpt lat="43.4816090" lon="-5.3035240">
        <ele>5.6</ele>
        <time>2021-07-19T12:14:08Z</time>
      </trkpt>
      <trkpt lat="43.4816430" lon="-5.3036810">
        <ele>5.6</ele>
        <time>2021-07-19T12:14:15Z</time>
      </trkpt>
      <trkpt lat="43.4816370" lon="-5.3037020">
        <ele>6.0</ele>
        <time>2021-07-19T12:14:16Z</time>
      </trkpt>
      <trkpt lat="43.4816250" lon="-5.3037230">
        <ele>6.4</ele>
        <time>2021-07-19T12:14:17Z</time>
      </trkpt>
      <trkpt lat="43.4816150" lon="-5.3037460">
        <ele>7.2</ele>
        <time>2021-07-19T12:14:18Z</time>
      </trkpt>
      <trkpt lat="43.4816050" lon="-5.3037680">
        <ele>7.6</ele>
        <time>2021-07-19T12:14:19Z</time>
      </trkpt>
      <trkpt lat="43.4815940" lon="-5.3037890">
        <ele>7.6</ele>
        <time>2021-07-19T12:14:20Z</time>
      </trkpt>
      <trkpt lat="43.4815530" lon="-5.3038450">
        <ele>7.6</ele>
        <time>2021-07-19T12:14:23Z</time>
      </trkpt>
      <trkpt lat="43.4815070" lon="-5.3038890">
        <ele>8.0</ele>
        <time>2021-07-19T12:14:26Z</time>
      </trkpt>
      <trkpt lat="43.4814890" lon="-5.3039000">
        <ele>8.6</ele>
        <time>2021-07-19T12:14:27Z</time>
      </trkpt>
      <trkpt lat="43.4814740" lon="-5.3039160">
        <ele>9.0</ele>
        <time>2021-07-19T12:14:28Z</time>
      </trkpt>
      <trkpt lat="43.4814560" lon="-5.3039310">
        <ele>9.4</ele>
        <time>2021-07-19T12:14:29Z</time>
      </trkpt>
      <trkpt lat="43.4814380" lon="-5.3039440">
        <ele>9.8</ele>
        <time>2021-07-19T12:14:30Z</time>
      </trkpt>
      <trkpt lat="43.4813910" lon="-5.3039980">
        <ele>9.8</ele>
        <time>2021-07-19T12:14:33Z</time>
      </trkpt>
      <trkpt lat="43.4813200" lon="-5.3041280">
        <ele>9.8</ele>
        <time>2021-07-19T12:14:39Z</time>
      </trkpt>
      <trkpt lat="43.4812940" lon="-5.3041970">
        <ele>10.2</ele>
        <time>2021-07-19T12:14:42Z</time>
      </trkpt>
      <trkpt lat="43.4812880" lon="-5.3042220">
        <ele>11.0</ele>
        <time>2021-07-19T12:14:43Z</time>
      </trkpt>
      <trkpt lat="43.4812810" lon="-5.3042470">
        <ele>11.4</ele>
        <time>2021-07-19T12:14:44Z</time>
      </trkpt>
      <trkpt lat="43.4812760" lon="-5.3042750">
        <ele>11.8</ele>
        <time>2021-07-19T12:14:45Z</time>
      </trkpt>
      <trkpt lat="43.4812700" lon="-5.3043280">
        <ele>11.8</ele>
        <time>2021-07-19T12:14:47Z</time>
      </trkpt>
      <trkpt lat="43.4812550" lon="-5.3044530">
        <ele>12.4</ele>
        <time>2021-07-19T12:14:52Z</time>
      </trkpt>
      <trkpt lat="43.4812560" lon="-5.3044790">
        <ele>12.8</ele>
        <time>2021-07-19T12:14:53Z</time>
      </trkpt>
      <trkpt lat="43.4812530" lon="-5.3045050">
        <ele>13.2</ele>
        <time>2021-07-19T12:14:54Z</time>
      </trkpt>
      <trkpt lat="43.4812520" lon="-5.3045270">
        <ele>13.6</ele>
        <time>2021-07-19T12:14:55Z</time>
      </trkpt>
      <trkpt lat="43.4812500" lon="-5.3045520">
        <ele>14.0</ele>
        <time>2021-07-19T12:14:56Z</time>
      </trkpt>
      <trkpt lat="43.4812390" lon="-5.3046930">
        <ele>14.4</ele>
        <time>2021-07-19T12:15:02Z</time>
      </trkpt>
      <trkpt lat="43.4812450" lon="-5.3047190">
        <ele>14.8</ele>
        <time>2021-07-19T12:15:03Z</time>
      </trkpt>
      <trkpt lat="43.4812460" lon="-5.3047420">
        <ele>15.4</ele>
        <time>2021-07-19T12:15:04Z</time>
      </trkpt>
      <trkpt lat="43.4812470" lon="-5.3047660">
        <ele>15.8</ele>
        <time>2021-07-19T12:15:05Z</time>
      </trkpt>
      <trkpt lat="43.4812480" lon="-5.3047890">
        <ele>16.2</ele>
        <time>2021-07-19T12:15:06Z</time>
      </trkpt>
      <trkpt lat="43.4812480" lon="-5.3049230">
        <ele>16.6</ele>
        <time>2021-07-19T12:15:12Z</time>
      </trkpt>
      <trkpt lat="43.4812470" lon="-5.3049440">
        <ele>17.0</ele>
        <time>2021-07-19T12:15:13Z</time>
      </trkpt>
      <trkpt lat="43.4812490" lon="-5.3049620">
        <ele>17.4</ele>
        <time>2021-07-19T12:15:14Z</time>
      </trkpt>
      <trkpt lat="43.4812500" lon="-5.3049850">
        <ele>17.8</ele>
        <time>2021-07-19T12:15:15Z</time>
      </trkpt>
      <trkpt lat="43.4812480" lon="-5.3050090">
        <ele>18.2</ele>
        <time>2021-07-19T12:15:16Z</time>
      </trkpt>
      <trkpt lat="43.4812440" lon="-5.3051300">
        <ele>18.6</ele>
        <time>2021-07-19T12:15:21Z</time>
      </trkpt>
      <trkpt lat="43.4812430" lon="-5.3051520">
        <ele>19.0</ele>
        <time>2021-07-19T12:15:22Z</time>
      </trkpt>
      <trkpt lat="43.4812430" lon="-5.3051740">
        <ele>19.4</ele>
        <time>2021-07-19T12:15:23Z</time>
      </trkpt>
      <trkpt lat="43.4812430" lon="-5.3051970">
        <ele>19.8</ele>
        <time>2021-07-19T12:15:24Z</time>
      </trkpt>
      <trkpt lat="43.4812410" lon="-5.3052190">
        <ele>20.2</ele>
        <time>2021-07-19T12:15:25Z</time>
      </trkpt>
      <trkpt lat="43.4812460" lon="-5.3053320">
        <ele>20.2</ele>
        <time>2021-07-19T12:15:30Z</time>
      </trkpt>
      <trkpt lat="43.4812440" lon="-5.3053800">
        <ele>21.0</ele>
        <time>2021-07-19T12:15:32Z</time>
      </trkpt>
      <trkpt lat="43.4812480" lon="-5.3054050">
        <ele>21.4</ele>
        <time>2021-07-19T12:15:33Z</time>
      </trkpt>
      <trkpt lat="43.4812520" lon="-5.3054270">
        <ele>21.8</ele>
        <time>2021-07-19T12:15:34Z</time>
      </trkpt>
      <trkpt lat="43.4812550" lon="-5.3054480">
        <ele>22.2</ele>
        <time>2021-07-19T12:15:35Z</time>
      </trkpt>
      <trkpt lat="43.4812570" lon="-5.3054960">
        <ele>22.2</ele>
        <time>2021-07-19T12:15:37Z</time>
      </trkpt>
      <trkpt lat="43.4812560" lon="-5.3055870">
        <ele>22.8</ele>
        <time>2021-07-19T12:15:41Z</time>
      </trkpt>
      <trkpt lat="43.4812550" lon="-5.3056110">
        <ele>23.2</ele>
        <time>2021-07-19T12:15:42Z</time>
      </trkpt>
      <trkpt lat="43.4812550" lon="-5.3056340">
        <ele>23.6</ele>
        <time>2021-07-19T12:15:43Z</time>
      </trkpt>
      <trkpt lat="43.4812560" lon="-5.3056560">
        <ele>24.0</ele>
        <time>2021-07-19T12:15:44Z</time>
      </trkpt>
      <trkpt lat="43.4812570" lon="-5.3056760">
        <ele>24.4</ele>
        <time>2021-07-19T12:15:45Z</time>
      </trkpt>
      <trkpt lat="43.4812640" lon="-5.3058040">
        <ele>24.8</ele>
        <time>2021-07-19T12:15:51Z</time>
      </trkpt>
      <trkpt lat="43.4812660" lon="-5.3058260">
        <ele>25.2</ele>
        <time>2021-07-19T12:15:52Z</time>
      </trkpt>
      <trkpt lat="43.4812690" lon="-5.3058490">
        <ele>25.6</ele>
        <time>2021-07-19T12:15:53Z</time>
      </trkpt>
      <trkpt lat="43.4812700" lon="-5.3058720">
        <ele>26.0</ele>
        <time>2021-07-19T12:15:54Z</time>
      </trkpt>
      <trkpt lat="43.4812700" lon="-5.3058960">
        <ele>26.4</ele>
        <time>2021-07-19T12:15:55Z</time>
      </trkpt>
      <trkpt lat="43.4812770" lon="-5.3060260">
        <ele>26.8</ele>
        <time>2021-07-19T12:16:01Z</time>
      </trkpt>
      <trkpt lat="43.4812810" lon="-5.3060470">
        <ele>27.2</ele>
        <time>2021-07-19T12:16:02Z</time>
      </trkpt>
      <trkpt lat="43.4812810" lon="-5.3060720">
        <ele>27.8</ele>
        <time>2021-07-19T12:16:03Z</time>
      </trkpt>
      <trkpt lat="43.4812800" lon="-5.3060950">
        <ele>28.2</ele>
        <time>2021-07-19T12:16:04Z</time>
      </trkpt>
      <trkpt lat="43.4812850" lon="-5.3061160">
        <ele>28.6</ele>
        <time>2021-07-19T12:16:05Z</time>
      </trkpt>
      <trkpt lat="43.4812920" lon="-5.3062070">
        <ele>28.6</ele>
        <time>2021-07-19T12:16:09Z</time>
      </trkpt>
      <trkpt lat="43.4812980" lon="-5.3062540">
        <ele>29.0</ele>
        <time>2021-07-19T12:16:11Z</time>
      </trkpt>
      <trkpt lat="43.4812990" lon="-5.3062780">
        <ele>29.4</ele>
        <time>2021-07-19T12:16:12Z</time>
      </trkpt>
      <trkpt lat="43.4813000" lon="-5.3063010">
        <ele>29.8</ele>
        <time>2021-07-19T12:16:13Z</time>
      </trkpt>
      <trkpt lat="43.4813010" lon="-5.3063270">
        <ele>30.2</ele>
        <time>2021-07-19T12:16:14Z</time>
      </trkpt>
      <trkpt lat="43.4813000" lon="-5.3063510">
        <ele>30.6</ele>
        <time>2021-07-19T12:16:15Z</time>
      </trkpt>
      <trkpt lat="43.4813010" lon="-5.3064290">
        <ele>30.6</ele>
        <time>2021-07-19T12:16:18Z</time>
      </trkpt>
      <trkpt lat="43.4812780" lon="-5.3066260">
        <ele>30.6</ele>
        <time>2021-07-19T12:16:25Z</time>
      </trkpt>
      <trkpt lat="43.4812650" lon="-5.3066860">
        <ele>31.0</ele>
        <time>2021-07-19T12:16:27Z</time>
      </trkpt>
      <trkpt lat="43.4812560" lon="-5.3067170">
        <ele>31.4</ele>
        <time>2021-07-19T12:16:28Z</time>
      </trkpt>
      <trkpt lat="43.4812480" lon="-5.3067510">
        <ele>31.8</ele>
        <time>2021-07-19T12:16:29Z</time>
      </trkpt>
      <trkpt lat="43.4812420" lon="-5.3067850">
        <ele>32.2</ele>
        <time>2021-07-19T12:16:30Z</time>
      </trkpt>
      <trkpt lat="43.4812360" lon="-5.3068180">
        <ele>32.6</ele>
        <time>2021-07-19T12:16:31Z</time>
      </trkpt>
      <trkpt lat="43.4811640" lon="-5.3070570">
        <ele>32.6</ele>
        <time>2021-07-19T12:16:38Z</time>
      </trkpt>
      <trkpt lat="43.4811120" lon="-5.3072210">
        <ele>32.6</ele>
        <time>2021-07-19T12:16:43Z</time>
      </trkpt>
      <trkpt lat="43.4810780" lon="-5.3073120">
        <ele>32.6</ele>
        <time>2021-07-19T12:16:46Z</time>
      </trkpt>
      <trkpt lat="43.4810530" lon="-5.3073720">
        <ele>33.0</ele>
        <time>2021-07-19T12:16:48Z</time>
      </trkpt>
      <trkpt lat="43.4810390" lon="-5.3074020">
        <ele>33.4</ele>
        <time>2021-07-19T12:16:49Z</time>
      </trkpt>
      <trkpt lat="43.4810270" lon="-5.3074320">
        <ele>33.8</ele>
        <time>2021-07-19T12:16:50Z</time>
      </trkpt>
      <trkpt lat="43.4810160" lon="-5.3074610">
        <ele>34.2</ele>
        <time>2021-07-19T12:16:51Z</time>
      </trkpt>
      <trkpt lat="43.4810050" lon="-5.3074910">
        <ele>34.8</ele>
        <time>2021-07-19T12:16:52Z</time>
      </trkpt>
      <trkpt lat="43.4809720" lon="-5.3075760">
        <ele>34.8</ele>
        <time>2021-07-19T12:16:55Z</time>
      </trkpt>
      <trkpt lat="43.4808900" lon="-5.3077740">
        <ele>34.8</ele>
        <time>2021-07-19T12:17:02Z</time>
      </trkpt>
      <trkpt lat="43.4808690" lon="-5.3078380">
        <ele>35.2</ele>
        <time>2021-07-19T12:17:04Z</time>
      </trkpt>
      <trkpt lat="43.4808580" lon="-5.3078720">
        <ele>35.6</ele>
        <time>2021-07-19T12:17:05Z</time>
      </trkpt>
      <trkpt lat="43.4808510" lon="-5.3079040">
        <ele>36.0</ele>
        <time>2021-07-19T12:17:06Z</time>
      </trkpt>
      <trkpt lat="43.4808410" lon="-5.3079390">
        <ele>36.4</ele>
        <time>2021-07-19T12:17:07Z</time>
      </trkpt>
      <trkpt lat="43.4808300" lon="-5.3079750">
        <ele>36.8</ele>
        <time>2021-07-19T12:17:08Z</time>
      </trkpt>
      <trkpt lat="43.4808230" lon="-5.3080120">
        <ele>36.8</ele>
        <time>2021-07-19T12:17:09Z</time>
      </trkpt>
      <trkpt lat="43.4807760" lon="-5.3083430">
        <ele>36.8</ele>
        <time>2021-07-19T12:17:17Z</time>
      </trkpt>
      <trkpt lat="43.4807250" lon="-5.3087000">
        <ele>36.8</ele>
        <time>2021-07-19T12:17:25Z</time>
      </trkpt>
      <trkpt lat="43.4807180" lon="-5.3087450">
        <ele>37.2</ele>
        <time>2021-07-19T12:17:26Z</time>
      </trkpt>
      <trkpt lat="43.4807100" lon="-5.3087890">
        <ele>37.6</ele>
        <time>2021-07-19T12:17:27Z</time>
      </trkpt>
      <trkpt lat="43.4807010" lon="-5.3088310">
        <ele>38.0</ele>
        <time>2021-07-19T12:17:28Z</time>
      </trkpt>
      <trkpt lat="43.4806910" lon="-5.3088710">
        <ele>38.4</ele>
        <time>2021-07-19T12:17:29Z</time>
      </trkpt>
      <trkpt lat="43.4806850" lon="-5.3089070">
        <ele>38.8</ele>
        <time>2021-07-19T12:17:30Z</time>
      </trkpt>
      <trkpt lat="43.4806690" lon="-5.3090310">
        <ele>38.8</ele>
        <time>2021-07-19T12:17:33Z</time>
      </trkpt>
      <trkpt lat="43.4806470" lon="-5.3092280">
        <ele>39.2</ele>
        <time>2021-07-19T12:17:38Z</time>
      </trkpt>
      <trkpt lat="43.4806400" lon="-5.3092690">
        <ele>39.6</ele>
        <time>2021-07-19T12:17:39Z</time>
      </trkpt>
      <trkpt lat="43.4806290" lon="-5.3093040">
        <ele>40.2</ele>
        <time>2021-07-19T12:17:40Z</time>
      </trkpt>
      <trkpt lat="43.4806220" lon="-5.3093420">
        <ele>40.6</ele>
        <time>2021-07-19T12:17:41Z</time>
      </trkpt>
      <trkpt lat="43.4806200" lon="-5.3093800">
        <ele>41.0</ele>
        <time>2021-07-19T12:17:42Z</time>
      </trkpt>
      <trkpt lat="43.4805760" lon="-5.3096100">
        <ele>41.0</ele>
        <time>2021-07-19T12:17:48Z</time>
      </trkpt>
      <trkpt lat="43.4805510" lon="-5.3097910">
        <ele>41.4</ele>
        <time>2021-07-19T12:17:53Z</time>
      </trkpt>
      <trkpt lat="43.4805400" lon="-5.3098270">
        <ele>41.8</ele>
        <time>2021-07-19T12:17:54Z</time>
      </trkpt>
      <trkpt lat="43.4805310" lon="-5.3098640">
        <ele>42.2</ele>
        <time>2021-07-19T12:17:55Z</time>
      </trkpt>
      <trkpt lat="43.4805220" lon="-5.3098990">
        <ele>42.6</ele>
        <time>2021-07-19T12:17:56Z</time>
      </trkpt>
      <trkpt lat="43.4805100" lon="-5.3099330">
        <ele>43.0</ele>
        <time>2021-07-19T12:17:57Z</time>
      </trkpt>
      <trkpt lat="43.4804800" lon="-5.3100760">
        <ele>43.8</ele>
        <time>2021-07-19T12:18:01Z</time>
      </trkpt>
      <trkpt lat="43.4804710" lon="-5.3101070">
        <ele>44.2</ele>
        <time>2021-07-19T12:18:02Z</time>
      </trkpt>
      <trkpt lat="43.4804630" lon="-5.3101380">
        <ele>44.8</ele>
        <time>2021-07-19T12:18:03Z</time>
      </trkpt>
      <trkpt lat="43.4804540" lon="-5.3101700">
        <ele>45.2</ele>
        <time>2021-07-19T12:18:04Z</time>
      </trkpt>
      <trkpt lat="43.4803710" lon="-5.3104040">
        <ele>45.2</ele>
        <time>2021-07-19T12:18:12Z</time>
      </trkpt>
      <trkpt lat="43.4803050" lon="-5.3104720">
        <ele>45.6</ele>
        <time>2021-07-19T12:18:15Z</time>
      </trkpt>
      <trkpt lat="43.4802820" lon="-5.3104890">
        <ele>46.0</ele>
        <time>2021-07-19T12:18:16Z</time>
      </trkpt>
      <trkpt lat="43.4802550" lon="-5.3105060">
        <ele>46.4</ele>
        <time>2021-07-19T12:18:17Z</time>
      </trkpt>
      <trkpt lat="43.4802300" lon="-5.3105230">
        <ele>46.8</ele>
        <time>2021-07-19T12:18:18Z</time>
      </trkpt>
      <trkpt lat="43.4802010" lon="-5.3105400">
        <ele>47.2</ele>
        <time>2021-07-19T12:18:19Z</time>
      </trkpt>
      <trkpt lat="43.4800260" lon="-5.3106130">
        <ele>47.2</ele>
        <time>2021-07-19T12:18:25Z</time>
      </trkpt>
      <trkpt lat="43.4799960" lon="-5.3106270">
        <ele>47.2</ele>
        <time>2021-07-19T12:18:26Z</time>
      </trkpt>
      <trkpt lat="43.4799630" lon="-5.3106400">
        <ele>47.2</ele>
        <time>2021-07-19T12:18:27Z</time>
      </trkpt>
      <trkpt lat="43.4798340" lon="-5.3106690">
        <ele>47.6</ele>
        <time>2021-07-19T12:18:31Z</time>
      </trkpt>
      <trkpt lat="43.4798020" lon="-5.3106620">
        <ele>48.0</ele>
        <time>2021-07-19T12:18:32Z</time>
      </trkpt>
      <trkpt lat="43.4797700" lon="-5.3106460">
        <ele>48.4</ele>
        <time>2021-07-19T12:18:33Z</time>
      </trkpt>
      <trkpt lat="43.4797380" lon="-5.3106200">
        <ele>48.8</ele>
        <time>2021-07-19T12:18:34Z</time>
      </trkpt>
      <trkpt lat="43.4797090" lon="-5.3105920">
        <ele>49.2</ele>
        <time>2021-07-19T12:18:35Z</time>
      </trkpt>
      <trkpt lat="43.4796150" lon="-5.3104930">
        <ele>49.2</ele>
        <time>2021-07-19T12:18:38Z</time>
      </trkpt>
      <trkpt lat="43.4793750" lon="-5.3103410">
        <ele>49.2</ele>
        <time>2021-07-19T12:18:45Z</time>
      </trkpt>
      <trkpt lat="43.4791720" lon="-5.3102990">
        <ele>49.2</ele>
        <time>2021-07-19T12:18:51Z</time>
      </trkpt>
      <trkpt lat="43.4791390" lon="-5.3103090">
        <ele>49.6</ele>
        <time>2021-07-19T12:18:52Z</time>
      </trkpt>
      <trkpt lat="43.4791070" lon="-5.3103260">
        <ele>50.0</ele>
        <time>2021-07-19T12:18:53Z</time>
      </trkpt>
      <trkpt lat="43.4790790" lon="-5.3103470">
        <ele>50.4</ele>
        <time>2021-07-19T12:18:54Z</time>
      </trkpt>
      <trkpt lat="43.4790510" lon="-5.3103700">
        <ele>50.8</ele>
        <time>2021-07-19T12:18:55Z</time>
      </trkpt>
      <trkpt lat="43.4790280" lon="-5.3103970">
        <ele>51.2</ele>
        <time>2021-07-19T12:18:56Z</time>
      </trkpt>
      <trkpt lat="43.4789100" lon="-5.3105900">
        <ele>51.2</ele>
        <time>2021-07-19T12:19:02Z</time>
      </trkpt>
      <trkpt lat="43.4788900" lon="-5.3106280">
        <ele>51.8</ele>
        <time>2021-07-19T12:19:03Z</time>
      </trkpt>
      <trkpt lat="43.4788700" lon="-5.3106630">
        <ele>52.2</ele>
        <time>2021-07-19T12:19:04Z</time>
      </trkpt>
      <trkpt lat="43.4788520" lon="-5.3107060">
        <ele>52.6</ele>
        <time>2021-07-19T12:19:05Z</time>
      </trkpt>
      <trkpt lat="43.4788350" lon="-5.3107470">
        <ele>53.0</ele>
        <time>2021-07-19T12:19:06Z</time>
      </trkpt>
      <trkpt lat="43.4788170" lon="-5.3107820">
        <ele>53.6</ele>
        <time>2021-07-19T12:19:07Z</time>
      </trkpt>
      <trkpt lat="43.4787850" lon="-5.3108530">
        <ele>53.6</ele>
        <time>2021-07-19T12:19:09Z</time>
      </trkpt>
      <trkpt lat="43.4787700" lon="-5.3108900">
        <ele>54.0</ele>
        <time>2021-07-19T12:19:10Z</time>
      </trkpt>
      <trkpt lat="43.4787560" lon="-5.3109250">
        <ele>54.4</ele>
        <time>2021-07-19T12:19:11Z</time>
      </trkpt>
      <trkpt lat="43.4787380" lon="-5.3109600">
        <ele>54.8</ele>
        <time>2021-07-19T12:19:12Z</time>
      </trkpt>
      <trkpt lat="43.4787200" lon="-5.3109930">
        <ele>55.2</ele>
        <time>2021-07-19T12:19:13Z</time>
      </trkpt>
      <trkpt lat="43.4787020" lon="-5.3110280">
        <ele>55.6</ele>
        <time>2021-07-19T12:19:14Z</time>
      </trkpt>
      <trkpt lat="43.4786500" lon="-5.3111310">
        <ele>55.6</ele>
        <time>2021-07-19T12:19:17Z</time>
      </trkpt>
      <trkpt lat="43.4785830" lon="-5.3114140">
        <ele>55.6</ele>
        <time>2021-07-19T12:19:23Z</time>
      </trkpt>
      <trkpt lat="43.4786390" lon="-5.3116150">
        <ele>55.6</ele>
        <time>2021-07-19T12:19:26Z</time>
      </trkpt>
      <trkpt lat="43.4787970" lon="-5.3118580">
        <ele>55.6</ele>
        <time>2021-07-19T12:19:30Z</time>
      </trkpt>
      <trkpt lat="43.4789620" lon="-5.3120850">
        <ele>55.6</ele>
        <time>2021-07-19T12:19:34Z</time>
      </trkpt>
      <trkpt lat="43.4790870" lon="-5.3123320">
        <ele>55.6</ele>
        <time>2021-07-19T12:19:38Z</time>
      </trkpt>
      <trkpt lat="43.4791100" lon="-5.3124680">
        <ele>55.6</ele>
        <time>2021-07-19T12:19:40Z</time>
      </trkpt>
      <trkpt lat="43.4791300" lon="-5.3126110">
        <ele>55.6</ele>
        <time>2021-07-19T12:19:42Z</time>
      </trkpt>
      <trkpt lat="43.4791410" lon="-5.3126800">
        <ele>55.6</ele>
        <time>2021-07-19T12:19:43Z</time>
      </trkpt>
      <trkpt lat="43.4791600" lon="-5.3127540">
        <ele>55.6</ele>
        <time>2021-07-19T12:19:44Z</time>
      </trkpt>
      <trkpt lat="43.4792410" lon="-5.3130820">
        <ele>55.6</ele>
        <time>2021-07-19T12:19:48Z</time>
      </trkpt>
      <trkpt lat="43.4792650" lon="-5.3132550">
        <ele>55.6</ele>
        <time>2021-07-19T12:19:50Z</time>
      </trkpt>
      <trkpt lat="43.4792720" lon="-5.3133350">
        <ele>55.6</ele>
        <time>2021-07-19T12:19:51Z</time>
      </trkpt>
      <trkpt lat="43.4792760" lon="-5.3134150">
        <ele>55.6</ele>
        <time>2021-07-19T12:19:52Z</time>
      </trkpt>
      <trkpt lat="43.4792730" lon="-5.3134930">
        <ele>55.2</ele>
        <time>2021-07-19T12:19:53Z</time>
      </trkpt>
      <trkpt lat="43.4792570" lon="-5.3135700">
        <ele>54.8</ele>
        <time>2021-07-19T12:19:54Z</time>
      </trkpt>
      <trkpt lat="43.4792360" lon="-5.3136470">
        <ele>54.2</ele>
        <time>2021-07-19T12:19:55Z</time>
      </trkpt>
      <trkpt lat="43.4792120" lon="-5.3137270">
        <ele>53.8</ele>
        <time>2021-07-19T12:19:56Z</time>
      </trkpt>
      <trkpt lat="43.4791870" lon="-5.3138110">
        <ele>53.4</ele>
        <time>2021-07-19T12:19:57Z</time>
      </trkpt>
      <trkpt lat="43.4791340" lon="-5.3139700">
        <ele>53.4</ele>
        <time>2021-07-19T12:19:59Z</time>
      </trkpt>
      <trkpt lat="43.4790670" lon="-5.3141010">
        <ele>53.4</ele>
        <time>2021-07-19T12:20:01Z</time>
      </trkpt>
      <trkpt lat="43.4790030" lon="-5.3141940">
        <ele>53.4</ele>
        <time>2021-07-19T12:20:03Z</time>
      </trkpt>
      <trkpt lat="43.4789120" lon="-5.3144260">
        <ele>53.4</ele>
        <time>2021-07-19T12:20:08Z</time>
      </trkpt>
      <trkpt lat="43.4788780" lon="-5.3147160">
        <ele>53.4</ele>
        <time>2021-07-19T12:20:14Z</time>
      </trkpt>
      <trkpt lat="43.4788690" lon="-5.3147620">
        <ele>53.4</ele>
        <time>2021-07-19T12:20:15Z</time>
      </trkpt>
      <trkpt lat="43.4788390" lon="-5.3148430">
        <ele>53.4</ele>
        <time>2021-07-19T12:20:17Z</time>
      </trkpt>
      <trkpt lat="43.4788020" lon="-5.3149120">
        <ele>53.4</ele>
        <time>2021-07-19T12:20:19Z</time>
      </trkpt>
      <trkpt lat="43.4787790" lon="-5.3149410">
        <ele>53.8</ele>
        <time>2021-07-19T12:20:20Z</time>
      </trkpt>
      <trkpt lat="43.4787630" lon="-5.3149760">
        <ele>54.2</ele>
        <time>2021-07-19T12:20:21Z</time>
      </trkpt>
      <trkpt lat="43.4787450" lon="-5.3150060">
        <ele>54.6</ele>
        <time>2021-07-19T12:20:22Z</time>
      </trkpt>
      <trkpt lat="43.4787280" lon="-5.3150330">
        <ele>55.0</ele>
        <time>2021-07-19T12:20:23Z</time>
      </trkpt>
      <trkpt lat="43.4787090" lon="-5.3150580">
        <ele>55.4</ele>
        <time>2021-07-19T12:20:24Z</time>
      </trkpt>
      <trkpt lat="43.4786670" lon="-5.3151070">
        <ele>55.4</ele>
        <time>2021-07-19T12:20:26Z</time>
      </trkpt>
      <trkpt lat="43.4785960" lon="-5.3151880">
        <ele>55.8</ele>
        <time>2021-07-19T12:20:30Z</time>
      </trkpt>
      <trkpt lat="43.4785790" lon="-5.3152060">
        <ele>56.2</ele>
        <time>2021-07-19T12:20:31Z</time>
      </trkpt>
      <trkpt lat="43.4785600" lon="-5.3152240">
        <ele>56.6</ele>
        <time>2021-07-19T12:20:32Z</time>
      </trkpt>
      <trkpt lat="43.4785430" lon="-5.3152400">
        <ele>57.0</ele>
        <time>2021-07-19T12:20:33Z</time>
      </trkpt>
      <trkpt lat="43.4785260" lon="-5.3152640">
        <ele>57.6</ele>
        <time>2021-07-19T12:20:34Z</time>
      </trkpt>
      <trkpt lat="43.4784970" lon="-5.3153700">
        <ele>57.6</ele>
        <time>2021-07-19T12:20:38Z</time>
      </trkpt>
      <trkpt lat="43.4785010" lon="-5.3153960">
        <ele>58.0</ele>
        <time>2021-07-19T12:20:39Z</time>
      </trkpt>
      <trkpt lat="43.4785040" lon="-5.3154200">
        <ele>58.4</ele>
        <time>2021-07-19T12:20:40Z</time>
      </trkpt>
      <trkpt lat="43.4785170" lon="-5.3154460">
        <ele>58.8</ele>
        <time>2021-07-19T12:20:41Z</time>
      </trkpt>
      <trkpt lat="43.4785320" lon="-5.3154670">
        <ele>59.4</ele>
        <time>2021-07-19T12:20:42Z</time>
      </trkpt>
      <trkpt lat="43.4785480" lon="-5.3154870">
        <ele>59.8</ele>
        <time>2021-07-19T12:20:43Z</time>
      </trkpt>
      <trkpt lat="43.4785800" lon="-5.3155280">
        <ele>59.8</ele>
        <time>2021-07-19T12:20:45Z</time>
      </trkpt>
      <trkpt lat="43.4786060" lon="-5.3155690">
        <ele>60.2</ele>
        <time>2021-07-19T12:20:47Z</time>
      </trkpt>
      <trkpt lat="43.4786230" lon="-5.3155870">
        <ele>60.6</ele>
        <time>2021-07-19T12:20:48Z</time>
      </trkpt>
      <trkpt lat="43.4786390" lon="-5.3156090">
        <ele>61.0</ele>
        <time>2021-07-19T12:20:49Z</time>
      </trkpt>
      <trkpt lat="43.4786550" lon="-5.3156230">
        <ele>61.4</ele>
        <time>2021-07-19T12:20:50Z</time>
      </trkpt>
      <trkpt lat="43.4786690" lon="-5.3156470">
        <ele>61.8</ele>
        <time>2021-07-19T12:20:51Z</time>
      </trkpt>
      <trkpt lat="43.4786970" lon="-5.3156920">
        <ele>61.8</ele>
        <time>2021-07-19T12:20:53Z</time>
      </trkpt>
      <trkpt lat="43.4787570" lon="-5.3158010">
        <ele>62.2</ele>
        <time>2021-07-19T12:20:58Z</time>
      </trkpt>
      <trkpt lat="43.4787670" lon="-5.3158210">
        <ele>62.6</ele>
        <time>2021-07-19T12:20:59Z</time>
      </trkpt>
      <trkpt lat="43.4787740" lon="-5.3158430">
        <ele>63.0</ele>
        <time>2021-07-19T12:21:00Z</time>
      </trkpt>
      <trkpt lat="43.4787840" lon="-5.3158670">
        <ele>63.4</ele>
        <time>2021-07-19T12:21:01Z</time>
      </trkpt>
      <trkpt lat="43.4787960" lon="-5.3158910">
        <ele>63.8</ele>
        <time>2021-07-19T12:21:02Z</time>
      </trkpt>
      <trkpt lat="43.4788350" lon="-5.3159910">
        <ele>64.4</ele>
        <time>2021-07-19T12:21:07Z</time>
      </trkpt>
      <trkpt lat="43.4788420" lon="-5.3160140">
        <ele>64.8</ele>
        <time>2021-07-19T12:21:08Z</time>
      </trkpt>
      <trkpt lat="43.4788540" lon="-5.3160380">
        <ele>65.2</ele>
        <time>2021-07-19T12:21:09Z</time>
      </trkpt>
      <trkpt lat="43.4788630" lon="-5.3160600">
        <ele>65.6</ele>
        <time>2021-07-19T12:21:10Z</time>
      </trkpt>
      <trkpt lat="43.4788700" lon="-5.3160890">
        <ele>66.0</ele>
        <time>2021-07-19T12:21:11Z</time>
      </trkpt>
      <trkpt lat="43.4788980" lon="-5.3161720">
        <ele>66.0</ele>
        <time>2021-07-19T12:21:14Z</time>
      </trkpt>
      <trkpt lat="43.4789300" lon="-5.3162920">
        <ele>66.4</ele>
        <time>2021-07-19T12:21:19Z</time>
      </trkpt>
      <trkpt lat="43.4789370" lon="-5.3163190">
        <ele>66.8</ele>
        <time>2021-07-19T12:21:20Z</time>
      </trkpt>
      <trkpt lat="43.4789420" lon="-5.3163460">
        <ele>67.4</ele>
        <time>2021-07-19T12:21:21Z</time>
      </trkpt>
      <trkpt lat="43.4789500" lon="-5.3163780">
        <ele>67.8</ele>
        <time>2021-07-19T12:21:22Z</time>
      </trkpt>
      <trkpt lat="43.4789540" lon="-5.3164080">
        <ele>68.2</ele>
        <time>2021-07-19T12:21:23Z</time>
      </trkpt>
      <trkpt lat="43.4789720" lon="-5.3165400">
        <ele>68.2</ele>
        <time>2021-07-19T12:21:28Z</time>
      </trkpt>
      <trkpt lat="43.4789720" lon="-5.3165880">
        <ele>68.2</ele>
        <time>2021-07-19T12:21:30Z</time>
      </trkpt>
      <trkpt lat="43.4789600" lon="-5.3166720">
        <ele>68.2</ele>
        <time>2021-07-19T12:21:34Z</time>
      </trkpt>
      <trkpt lat="43.4789610" lon="-5.3166760">
        <ele>68.2</ele>
        <time>2021-07-19T12:21:36Z</time>
      </trkpt>
      <trkpt lat="43.4789500" lon="-5.3167050">
        <ele>68.2</ele>
        <time>2021-07-19T12:21:39Z</time>
      </trkpt>
      <trkpt lat="43.4789420" lon="-5.3167320">
        <ele>68.2</ele>
        <time>2021-07-19T12:21:40Z</time>
      </trkpt>
      <trkpt lat="43.4789180" lon="-5.3168180">
        <ele>68.2</ele>
        <time>2021-07-19T12:21:43Z</time>
      </trkpt>
      <trkpt lat="43.4788630" lon="-5.3169250">
        <ele>68.2</ele>
        <time>2021-07-19T12:21:46Z</time>
      </trkpt>
      <trkpt lat="43.4787730" lon="-5.3170400">
        <ele>68.2</ele>
        <time>2021-07-19T12:21:49Z</time>
      </trkpt>
      <trkpt lat="43.4787000" lon="-5.3171240">
        <ele>68.2</ele>
        <time>2021-07-19T12:21:51Z</time>
      </trkpt>
      <trkpt lat="43.4786300" lon="-5.3172120">
        <ele>68.2</ele>
        <time>2021-07-19T12:21:53Z</time>
      </trkpt>
      <trkpt lat="43.4786030" lon="-5.3172640">
        <ele>68.2</ele>
        <time>2021-07-19T12:21:54Z</time>
      </trkpt>
      <trkpt lat="43.4785720" lon="-5.3173800">
        <ele>68.2</ele>
        <time>2021-07-19T12:21:56Z</time>
      </trkpt>
      <trkpt lat="43.4785800" lon="-5.3174910">
        <ele>68.2</ele>
        <time>2021-07-19T12:21:58Z</time>
      </trkpt>
      <trkpt lat="43.4786330" lon="-5.3176030">
        <ele>67.8</ele>
        <time>2021-07-19T12:22:00Z</time>
      </trkpt>
      <trkpt lat="43.4786830" lon="-5.3176660">
        <ele>67.4</ele>
        <time>2021-07-19T12:22:01Z</time>
      </trkpt>
      <trkpt lat="43.4787340" lon="-5.3177210">
        <ele>67.0</ele>
        <time>2021-07-19T12:22:02Z</time>
      </trkpt>
      <trkpt lat="43.4787690" lon="-5.3177750">
        <ele>66.6</ele>
        <time>2021-07-19T12:22:03Z</time>
      </trkpt>
      <trkpt lat="43.4787950" lon="-5.3178300">
        <ele>66.2</ele>
        <time>2021-07-19T12:22:04Z</time>
      </trkpt>
      <trkpt lat="43.4788150" lon="-5.3178990">
        <ele>65.6</ele>
        <time>2021-07-19T12:22:05Z</time>
      </trkpt>
      <trkpt lat="43.4788310" lon="-5.3179610">
        <ele>65.0</ele>
        <time>2021-07-19T12:22:06Z</time>
      </trkpt>
      <trkpt lat="43.4788420" lon="-5.3180170">
        <ele>64.0</ele>
        <time>2021-07-19T12:22:07Z</time>
      </trkpt>
      <trkpt lat="43.4788540" lon="-5.3180780">
        <ele>63.4</ele>
        <time>2021-07-19T12:22:08Z</time>
      </trkpt>
      <trkpt lat="43.4788800" lon="-5.3181860">
        <ele>63.0</ele>
        <time>2021-07-19T12:22:10Z</time>
      </trkpt>
      <trkpt lat="43.4789020" lon="-5.3182400">
        <ele>62.6</ele>
        <time>2021-07-19T12:22:11Z</time>
      </trkpt>
      <trkpt lat="43.4789250" lon="-5.3183050">
        <ele>62.2</ele>
        <time>2021-07-19T12:22:12Z</time>
      </trkpt>
      <trkpt lat="43.4789530" lon="-5.3183770">
        <ele>61.8</ele>
        <time>2021-07-19T12:22:13Z</time>
      </trkpt>
      <trkpt lat="43.4789790" lon="-5.3184560">
        <ele>61.2</ele>
        <time>2021-07-19T12:22:14Z</time>
      </trkpt>
      <trkpt lat="43.4789980" lon="-5.3185310">
        <ele>60.8</ele>
        <time>2021-07-19T12:22:15Z</time>
      </trkpt>
      <trkpt lat="43.4790080" lon="-5.3186060">
        <ele>60.4</ele>
        <time>2021-07-19T12:22:16Z</time>
      </trkpt>
      <trkpt lat="43.4790120" lon="-5.3186880">
        <ele>60.0</ele>
        <time>2021-07-19T12:22:17Z</time>
      </trkpt>
      <trkpt lat="43.4790140" lon="-5.3187750">
        <ele>59.6</ele>
        <time>2021-07-19T12:22:18Z</time>
      </trkpt>
      <trkpt lat="43.4790180" lon="-5.3188610">
        <ele>59.0</ele>
        <time>2021-07-19T12:22:19Z</time>
      </trkpt>
      <trkpt lat="43.4790190" lon="-5.3189520">
        <ele>58.2</ele>
        <time>2021-07-19T12:22:20Z</time>
      </trkpt>
      <trkpt lat="43.4790210" lon="-5.3190390">
        <ele>57.6</ele>
        <time>2021-07-19T12:22:21Z</time>
      </trkpt>
      <trkpt lat="43.4790320" lon="-5.3191300">
        <ele>57.0</ele>
        <time>2021-07-19T12:22:22Z</time>
      </trkpt>
      <trkpt lat="43.4790450" lon="-5.3192220">
        <ele>56.4</ele>
        <time>2021-07-19T12:22:23Z</time>
      </trkpt>
      <trkpt lat="43.4790610" lon="-5.3193150">
        <ele>56.0</ele>
        <time>2021-07-19T12:22:24Z</time>
      </trkpt>
      <trkpt lat="43.4790800" lon="-5.3194050">
        <ele>55.4</ele>
        <time>2021-07-19T12:22:25Z</time>
      </trkpt>
      <trkpt lat="43.4791000" lon="-5.3194940">
        <ele>54.8</ele>
        <time>2021-07-19T12:22:26Z</time>
      </trkpt>
      <trkpt lat="43.4791150" lon="-5.3195820">
        <ele>54.2</ele>
        <time>2021-07-19T12:22:27Z</time>
      </trkpt>
      <trkpt lat="43.4791250" lon="-5.3196660">
        <ele>53.4</ele>
        <time>2021-07-19T12:22:28Z</time>
      </trkpt>
      <trkpt lat="43.4791340" lon="-5.3197490">
        <ele>52.8</ele>
        <time>2021-07-19T12:22:29Z</time>
      </trkpt>
      <trkpt lat="43.4791390" lon="-5.3198300">
        <ele>52.0</ele>
        <time>2021-07-19T12:22:30Z</time>
      </trkpt>
      <trkpt lat="43.4791380" lon="-5.3199080">
        <ele>51.6</ele>
        <time>2021-07-19T12:22:31Z</time>
      </trkpt>
      <trkpt lat="43.4791360" lon="-5.3199910">
        <ele>50.4</ele>
        <time>2021-07-19T12:22:32Z</time>
      </trkpt>
      <trkpt lat="43.4791370" lon="-5.3200770">
        <ele>49.8</ele>
        <time>2021-07-19T12:22:33Z</time>
      </trkpt>
      <trkpt lat="43.4791400" lon="-5.3201630">
        <ele>49.2</ele>
        <time>2021-07-19T12:22:34Z</time>
      </trkpt>
      <trkpt lat="43.4791470" lon="-5.3202560">
        <ele>48.6</ele>
        <time>2021-07-19T12:22:35Z</time>
      </trkpt>
      <trkpt lat="43.4791540" lon="-5.3203440">
        <ele>48.0</ele>
        <time>2021-07-19T12:22:36Z</time>
      </trkpt>
      <trkpt lat="43.4791600" lon="-5.3204240">
        <ele>47.2</ele>
        <time>2021-07-19T12:22:37Z</time>
      </trkpt>
      <trkpt lat="43.4791600" lon="-5.3204980">
        <ele>46.6</ele>
        <time>2021-07-19T12:22:38Z</time>
      </trkpt>
      <trkpt lat="43.4791590" lon="-5.3205660">
        <ele>46.0</ele>
        <time>2021-07-19T12:22:39Z</time>
      </trkpt>
      <trkpt lat="43.4791560" lon="-5.3206360">
        <ele>45.2</ele>
        <time>2021-07-19T12:22:40Z</time>
      </trkpt>
      <trkpt lat="43.4791480" lon="-5.3207170">
        <ele>44.4</ele>
        <time>2021-07-19T12:22:41Z</time>
      </trkpt>
      <trkpt lat="43.4791360" lon="-5.3207960">
        <ele>43.6</ele>
        <time>2021-07-19T12:22:42Z</time>
      </trkpt>
      <trkpt lat="43.4791220" lon="-5.3208750">
        <ele>42.8</ele>
        <time>2021-07-19T12:22:43Z</time>
      </trkpt>
      <trkpt lat="43.4790740" lon="-5.3209760">
        <ele>42.0</ele>
        <time>2021-07-19T12:22:44Z</time>
      </trkpt>
      <trkpt lat="43.4790170" lon="-5.3210710">
        <ele>42.0</ele>
        <time>2021-07-19T12:22:45Z</time>
      </trkpt>
      <trkpt lat="43.4789600" lon="-5.3211720">
        <ele>41.6</ele>
        <time>2021-07-19T12:22:46Z</time>
      </trkpt>
      <trkpt lat="43.4789050" lon="-5.3212850">
        <ele>41.0</ele>
        <time>2021-07-19T12:22:47Z</time>
      </trkpt>
      <trkpt lat="43.4788580" lon="-5.3214040">
        <ele>40.6</ele>
        <time>2021-07-19T12:22:48Z</time>
      </trkpt>
      <trkpt lat="43.4788160" lon="-5.3215210">
        <ele>39.8</ele>
        <time>2021-07-19T12:22:49Z</time>
      </trkpt>
      <trkpt lat="43.4787790" lon="-5.3216380">
        <ele>39.2</ele>
        <time>2021-07-19T12:22:50Z</time>
      </trkpt>
      <trkpt lat="43.4787530" lon="-5.3217430">
        <ele>38.2</ele>
        <time>2021-07-19T12:22:51Z</time>
      </trkpt>
      <trkpt lat="43.4787310" lon="-5.3218360">
        <ele>37.2</ele>
        <time>2021-07-19T12:22:52Z</time>
      </trkpt>
      <trkpt lat="43.4787190" lon="-5.3219130">
        <ele>36.2</ele>
        <time>2021-07-19T12:22:53Z</time>
      </trkpt>
      <trkpt lat="43.4787060" lon="-5.3219840">
        <ele>35.2</ele>
        <time>2021-07-19T12:22:54Z</time>
      </trkpt>
      <trkpt lat="43.4786990" lon="-5.3220490">
        <ele>34.2</ele>
        <time>2021-07-19T12:22:55Z</time>
      </trkpt>
      <trkpt lat="43.4787000" lon="-5.3221170">
        <ele>33.2</ele>
        <time>2021-07-19T12:22:56Z</time>
      </trkpt>
      <trkpt lat="43.4787070" lon="-5.3221830">
        <ele>31.4</ele>
        <time>2021-07-19T12:22:57Z</time>
      </trkpt>
      <trkpt lat="43.4787040" lon="-5.3222520">
        <ele>30.6</ele>
        <time>2021-07-19T12:22:58Z</time>
      </trkpt>
      <trkpt lat="43.4786990" lon="-5.3223150">
        <ele>30.0</ele>
        <time>2021-07-19T12:22:59Z</time>
      </trkpt>
      <trkpt lat="43.4786860" lon="-5.3223760">
        <ele>29.2</ele>
        <time>2021-07-19T12:23:00Z</time>
      </trkpt>
      <trkpt lat="43.4786690" lon="-5.3224540">
        <ele>28.4</ele>
        <time>2021-07-19T12:23:01Z</time>
      </trkpt>
      <trkpt lat="43.4786460" lon="-5.3225440">
        <ele>27.6</ele>
        <time>2021-07-19T12:23:02Z</time>
      </trkpt>
      <trkpt lat="43.4785530" lon="-5.3228610">
        <ele>27.2</ele>
        <time>2021-07-19T12:23:05Z</time>
      </trkpt>
      <trkpt lat="43.4785200" lon="-5.3229530">
        <ele>26.6</ele>
        <time>2021-07-19T12:23:06Z</time>
      </trkpt>
      <trkpt lat="43.4784860" lon="-5.3230370">
        <ele>26.2</ele>
        <time>2021-07-19T12:23:07Z</time>
      </trkpt>
      <trkpt lat="43.4784650" lon="-5.3230930">
        <ele>25.8</ele>
        <time>2021-07-19T12:23:08Z</time>
      </trkpt>
      <trkpt lat="43.4784520" lon="-5.3231230">
        <ele>25.4</ele>
        <time>2021-07-19T12:23:09Z</time>
      </trkpt>
      <trkpt lat="43.4784580" lon="-5.3231550">
        <ele>25.4</ele>
        <time>2021-07-19T12:23:10Z</time>
      </trkpt>
      <trkpt lat="43.4784670" lon="-5.3232160">
        <ele>25.4</ele>
        <time>2021-07-19T12:23:12Z</time>
      </trkpt>
      <trkpt lat="43.4784830" lon="-5.3232800">
        <ele>25.4</ele>
        <time>2021-07-19T12:23:14Z</time>
      </trkpt>
      <trkpt lat="43.4785020" lon="-5.3233400">
        <ele>25.4</ele>
        <time>2021-07-19T12:23:16Z</time>
      </trkpt>
      <trkpt lat="43.4785130" lon="-5.3234060">
        <ele>25.4</ele>
        <time>2021-07-19T12:23:18Z</time>
      </trkpt>
      <trkpt lat="43.4785150" lon="-5.3234810">
        <ele>25.4</ele>
        <time>2021-07-19T12:23:20Z</time>
      </trkpt>
      <trkpt lat="43.4784080" lon="-5.3237920">
        <ele>25.4</ele>
        <time>2021-07-19T12:23:27Z</time>
      </trkpt>
      <trkpt lat="43.4783480" lon="-5.3239540">
        <ele>25.4</ele>
        <time>2021-07-19T12:23:30Z</time>
      </trkpt>
      <trkpt lat="43.4783750" lon="-5.3240730">
        <ele>25.4</ele>
        <time>2021-07-19T12:23:32Z</time>
      </trkpt>
      <trkpt lat="43.4784510" lon="-5.3241570">
        <ele>25.4</ele>
        <time>2021-07-19T12:23:35Z</time>
      </trkpt>
      <trkpt lat="43.4784850" lon="-5.3242010">
        <ele>25.4</ele>
        <time>2021-07-19T12:23:37Z</time>
      </trkpt>
      <trkpt lat="43.4785290" lon="-5.3242590">
        <ele>25.4</ele>
        <time>2021-07-19T12:23:40Z</time>
      </trkpt>
      <trkpt lat="43.4785630" lon="-5.3242960">
        <ele>25.4</ele>
        <time>2021-07-19T12:23:42Z</time>
      </trkpt>
      <trkpt lat="43.4786040" lon="-5.3243240">
        <ele>25.4</ele>
        <time>2021-07-19T12:23:44Z</time>
      </trkpt>
      <trkpt lat="43.4786640" lon="-5.3243380">
        <ele>25.4</ele>
        <time>2021-07-19T12:23:47Z</time>
      </trkpt>
      <trkpt lat="43.4787280" lon="-5.3243640">
        <ele>25.4</ele>
        <time>2021-07-19T12:23:50Z</time>
      </trkpt>
      <trkpt lat="43.4788290" lon="-5.3243980">
        <ele>25.4</ele>
        <time>2021-07-19T12:23:53Z</time>
      </trkpt>
      <trkpt lat="43.4789280" lon="-5.3244870">
        <ele>25.4</ele>
        <time>2021-07-19T12:23:57Z</time>
      </trkpt>
      <trkpt lat="43.4789400" lon="-5.3245300">
        <ele>25.4</ele>
        <time>2021-07-19T12:23:58Z</time>
      </trkpt>
      <trkpt lat="43.4789430" lon="-5.3247260">
        <ele>25.4</ele>
        <time>2021-07-19T12:24:03Z</time>
      </trkpt>
      <trkpt lat="43.4789300" lon="-5.3249380">
        <ele>25.4</ele>
        <time>2021-07-19T12:24:09Z</time>
      </trkpt>
      <trkpt lat="43.4789160" lon="-5.3250130">
        <ele>25.4</ele>
        <time>2021-07-19T12:24:11Z</time>
      </trkpt>
      <trkpt lat="43.4788440" lon="-5.3252450">
        <ele>25.4</ele>
        <time>2021-07-19T12:24:17Z</time>
      </trkpt>
      <trkpt lat="43.4788230" lon="-5.3252920">
        <ele>25.4</ele>
        <time>2021-07-19T12:24:20Z</time>
      </trkpt>
      <trkpt lat="43.4788250" lon="-5.3252880">
        <ele>25.4</ele>
        <time>2021-07-19T12:24:21Z</time>
      </trkpt>
      <trkpt lat="43.4788150" lon="-5.3253020">
        <ele>25.4</ele>
        <time>2021-07-19T12:24:59Z</time>
      </trkpt>
      <trkpt lat="43.4787260" lon="-5.3254210">
        <ele>25.4</ele>
        <time>2021-07-19T12:25:04Z</time>
      </trkpt>
      <trkpt lat="43.4786790" lon="-5.3254870">
        <ele>25.4</ele>
        <time>2021-07-19T12:25:06Z</time>
      </trkpt>
      <trkpt lat="43.4786330" lon="-5.3255560">
        <ele>25.4</ele>
        <time>2021-07-19T12:25:08Z</time>
      </trkpt>
      <trkpt lat="43.4785710" lon="-5.3256750">
        <ele>25.4</ele>
        <time>2021-07-19T12:25:11Z</time>
      </trkpt>
      <trkpt lat="43.4785050" lon="-5.3259450">
        <ele>25.4</ele>
        <time>2021-07-19T12:25:17Z</time>
      </trkpt>
      <trkpt lat="43.4784890" lon="-5.3260310">
        <ele>25.4</ele>
        <time>2021-07-19T12:25:19Z</time>
      </trkpt>
      <trkpt lat="43.4784690" lon="-5.3261980">
        <ele>25.4</ele>
        <time>2021-07-19T12:25:23Z</time>
      </trkpt>
      <trkpt lat="43.4784590" lon="-5.3262780">
        <ele>25.4</ele>
        <time>2021-07-19T12:25:25Z</time>
      </trkpt>
      <trkpt lat="43.4784410" lon="-5.3263940">
        <ele>25.4</ele>
        <time>2021-07-19T12:25:28Z</time>
      </trkpt>
      <trkpt lat="43.4784330" lon="-5.3264320">
        <ele>25.8</ele>
        <time>2021-07-19T12:25:29Z</time>
      </trkpt>
      <trkpt lat="43.4784240" lon="-5.3264660">
        <ele>26.2</ele>
        <time>2021-07-19T12:25:30Z</time>
      </trkpt>
      <trkpt lat="43.4784130" lon="-5.3265030">
        <ele>26.6</ele>
        <time>2021-07-19T12:25:31Z</time>
      </trkpt>
      <trkpt lat="43.4784000" lon="-5.3265390">
        <ele>27.0</ele>
        <time>2021-07-19T12:25:32Z</time>
      </trkpt>
      <trkpt lat="43.4783860" lon="-5.3265740">
        <ele>27.4</ele>
        <time>2021-07-19T12:25:33Z</time>
      </trkpt>
      <trkpt lat="43.4783110" lon="-5.3267050">
        <ele>27.4</ele>
        <time>2021-07-19T12:25:37Z</time>
      </trkpt>
      <trkpt lat="43.4782620" lon="-5.3267700">
        <ele>27.4</ele>
        <time>2021-07-19T12:25:39Z</time>
      </trkpt>
      <trkpt lat="43.4782090" lon="-5.3268340">
        <ele>27.8</ele>
        <time>2021-07-19T12:25:41Z</time>
      </trkpt>
      <trkpt lat="43.4781820" lon="-5.3268690">
        <ele>28.2</ele>
        <time>2021-07-19T12:25:42Z</time>
      </trkpt>
      <trkpt lat="43.4781590" lon="-5.3269050">
        <ele>28.6</ele>
        <time>2021-07-19T12:25:43Z</time>
      </trkpt>
      <trkpt lat="43.4781460" lon="-5.3269510">
        <ele>29.2</ele>
        <time>2021-07-19T12:25:44Z</time>
      </trkpt>
      <trkpt lat="43.4781400" lon="-5.3270000">
        <ele>29.6</ele>
        <time>2021-07-19T12:25:45Z</time>
      </trkpt>
      <trkpt lat="43.4781460" lon="-5.3273010">
        <ele>29.6</ele>
        <time>2021-07-19T12:25:52Z</time>
      </trkpt>
      <trkpt lat="43.4781720" lon="-5.3275670">
        <ele>30.0</ele>
        <time>2021-07-19T12:25:59Z</time>
      </trkpt>
      <trkpt lat="43.4781790" lon="-5.3276030">
        <ele>30.4</ele>
        <time>2021-07-19T12:26:00Z</time>
      </trkpt>
      <trkpt lat="43.4781850" lon="-5.3276350">
        <ele>30.8</ele>
        <time>2021-07-19T12:26:01Z</time>
      </trkpt>
      <trkpt lat="43.4781900" lon="-5.3276650">
        <ele>31.2</ele>
        <time>2021-07-19T12:26:02Z</time>
      </trkpt>
      <trkpt lat="43.4781950" lon="-5.3276950">
        <ele>31.6</ele>
        <time>2021-07-19T12:26:03Z</time>
      </trkpt>
      <trkpt lat="43.4782160" lon="-5.3278210">
        <ele>31.6</ele>
        <time>2021-07-19T12:26:07Z</time>
      </trkpt>
      <trkpt lat="43.4782320" lon="-5.3279380">
        <ele>32.0</ele>
        <time>2021-07-19T12:26:11Z</time>
      </trkpt>
      <trkpt lat="43.4782360" lon="-5.3279690">
        <ele>32.4</ele>
        <time>2021-07-19T12:26:12Z</time>
      </trkpt>
      <trkpt lat="43.4782390" lon="-5.3279990">
        <ele>32.8</ele>
        <time>2021-07-19T12:26:13Z</time>
      </trkpt>
      <trkpt lat="43.4782410" lon="-5.3280310">
        <ele>33.2</ele>
        <time>2021-07-19T12:26:14Z</time>
      </trkpt>
      <trkpt lat="43.4782410" lon="-5.3280610">
        <ele>33.6</ele>
        <time>2021-07-19T12:26:15Z</time>
      </trkpt>
      <trkpt lat="43.4782480" lon="-5.3282750">
        <ele>33.6</ele>
        <time>2021-07-19T12:26:22Z</time>
      </trkpt>
      <trkpt lat="43.4782460" lon="-5.3283060">
        <ele>34.0</ele>
        <time>2021-07-19T12:26:23Z</time>
      </trkpt>
      <trkpt lat="43.4782440" lon="-5.3283360">
        <ele>34.4</ele>
        <time>2021-07-19T12:26:24Z</time>
      </trkpt>
      <trkpt lat="43.4782410" lon="-5.3283640">
        <ele>34.8</ele>
        <time>2021-07-19T12:26:25Z</time>
      </trkpt>
      <trkpt lat="43.4782370" lon="-5.3283940">
        <ele>35.2</ele>
        <time>2021-07-19T12:26:26Z</time>
      </trkpt>
      <trkpt lat="43.4782340" lon="-5.3284240">
        <ele>35.6</ele>
        <time>2021-07-19T12:26:27Z</time>
      </trkpt>
      <trkpt lat="43.4782210" lon="-5.3284850">
        <ele>35.6</ele>
        <time>2021-07-19T12:26:29Z</time>
      </trkpt>
      <trkpt lat="43.4781780" lon="-5.3286300">
        <ele>36.0</ele>
        <time>2021-07-19T12:26:34Z</time>
      </trkpt>
      <trkpt lat="43.4781680" lon="-5.3286590">
        <ele>36.4</ele>
        <time>2021-07-19T12:26:35Z</time>
      </trkpt>
      <trkpt lat="43.4781550" lon="-5.3286850">
        <ele>36.8</ele>
        <time>2021-07-19T12:26:36Z</time>
      </trkpt>
      <trkpt lat="43.4781410" lon="-5.3287110">
        <ele>37.2</ele>
        <time>2021-07-19T12:26:37Z</time>
      </trkpt>
      <trkpt lat="43.4781270" lon="-5.3287340">
        <ele>37.6</ele>
        <time>2021-07-19T12:26:38Z</time>
      </trkpt>
      <trkpt lat="43.4780820" lon="-5.3288380">
        <ele>37.6</ele>
        <time>2021-07-19T12:26:42Z</time>
      </trkpt>
      <trkpt lat="43.4780190" lon="-5.3289810">
        <ele>38.0</ele>
        <time>2021-07-19T12:26:47Z</time>
      </trkpt>
      <trkpt lat="43.4780050" lon="-5.3290140">
        <ele>38.6</ele>
        <time>2021-07-19T12:26:48Z</time>
      </trkpt>
      <trkpt lat="43.4779930" lon="-5.3290480">
        <ele>39.0</ele>
        <time>2021-07-19T12:26:49Z</time>
      </trkpt>
      <trkpt lat="43.4779790" lon="-5.3290850">
        <ele>39.4</ele>
        <time>2021-07-19T12:26:50Z</time>
      </trkpt>
      <trkpt lat="43.4779580" lon="-5.3291270">
        <ele>39.8</ele>
        <time>2021-07-19T12:26:51Z</time>
      </trkpt>
      <trkpt lat="43.4778640" lon="-5.3293760">
        <ele>39.8</ele>
        <time>2021-07-19T12:26:57Z</time>
      </trkpt>
      <trkpt lat="43.4778000" lon="-5.3295980">
        <ele>39.8</ele>
        <time>2021-07-19T12:27:02Z</time>
      </trkpt>
      <trkpt lat="43.4777690" lon="-5.3297120">
        <ele>39.8</ele>
        <time>2021-07-19T12:27:04Z</time>
      </trkpt>
      <trkpt lat="43.4777490" lon="-5.3297760">
        <ele>39.8</ele>
        <time>2021-07-19T12:27:05Z</time>
      </trkpt>
      <trkpt lat="43.4777170" lon="-5.3299250">
        <ele>39.8</ele>
        <time>2021-07-19T12:27:07Z</time>
      </trkpt>
      <trkpt lat="43.4777060" lon="-5.3300090">
        <ele>39.8</ele>
        <time>2021-07-19T12:27:08Z</time>
      </trkpt>
      <trkpt lat="43.4777030" lon="-5.3300990">
        <ele>39.8</ele>
        <time>2021-07-19T12:27:09Z</time>
      </trkpt>
      <trkpt lat="43.4777240" lon="-5.3302700">
        <ele>39.8</ele>
        <time>2021-07-19T12:27:11Z</time>
      </trkpt>
      <trkpt lat="43.4777440" lon="-5.3303500">
        <ele>39.8</ele>
        <time>2021-07-19T12:27:12Z</time>
      </trkpt>
      <trkpt lat="43.4777640" lon="-5.3304260">
        <ele>39.8</ele>
        <time>2021-07-19T12:27:13Z</time>
      </trkpt>
      <trkpt lat="43.4777790" lon="-5.3304960">
        <ele>39.8</ele>
        <time>2021-07-19T12:27:14Z</time>
      </trkpt>
      <trkpt lat="43.4777990" lon="-5.3306250">
        <ele>39.8</ele>
        <time>2021-07-19T12:27:16Z</time>
      </trkpt>
      <trkpt lat="43.4778170" lon="-5.3307240">
        <ele>39.8</ele>
        <time>2021-07-19T12:27:18Z</time>
      </trkpt>
      <trkpt lat="43.4779180" lon="-5.3309540">
        <ele>39.8</ele>
        <time>2021-07-19T12:27:24Z</time>
      </trkpt>
      <trkpt lat="43.4779430" lon="-5.3309670">
        <ele>39.8</ele>
        <time>2021-07-19T12:27:25Z</time>
      </trkpt>
      <trkpt lat="43.4780040" lon="-5.3309640">
        <ele>39.8</ele>
        <time>2021-07-19T12:27:28Z</time>
      </trkpt>
      <trkpt lat="43.4780640" lon="-5.3309490">
        <ele>39.8</ele>
        <time>2021-07-19T12:27:31Z</time>
      </trkpt>
      <trkpt lat="43.4781260" lon="-5.3309310">
        <ele>39.8</ele>
        <time>2021-07-19T12:27:34Z</time>
      </trkpt>
      <trkpt lat="43.4781710" lon="-5.3309200">
        <ele>39.8</ele>
        <time>2021-07-19T12:27:36Z</time>
      </trkpt>
      <trkpt lat="43.4782140" lon="-5.3309070">
        <ele>40.2</ele>
        <time>2021-07-19T12:27:38Z</time>
      </trkpt>
      <trkpt lat="43.4782360" lon="-5.3309010">
        <ele>40.6</ele>
        <time>2021-07-19T12:27:39Z</time>
      </trkpt>
      <trkpt lat="43.4782590" lon="-5.3308950">
        <ele>41.0</ele>
        <time>2021-07-19T12:27:40Z</time>
      </trkpt>
      <trkpt lat="43.4782810" lon="-5.3308880">
        <ele>41.4</ele>
        <time>2021-07-19T12:27:41Z</time>
      </trkpt>
      <trkpt lat="43.4783040" lon="-5.3308820">
        <ele>41.8</ele>
        <time>2021-07-19T12:27:42Z</time>
      </trkpt>
      <trkpt lat="43.4784150" lon="-5.3308640">
        <ele>41.8</ele>
        <time>2021-07-19T12:27:47Z</time>
      </trkpt>
      <trkpt lat="43.4784590" lon="-5.3308660">
        <ele>42.2</ele>
        <time>2021-07-19T12:27:49Z</time>
      </trkpt>
      <trkpt lat="43.4784780" lon="-5.3308740">
        <ele>42.6</ele>
        <time>2021-07-19T12:27:50Z</time>
      </trkpt>
      <trkpt lat="43.4784970" lon="-5.3308830">
        <ele>43.0</ele>
        <time>2021-07-19T12:27:51Z</time>
      </trkpt>
      <trkpt lat="43.4785150" lon="-5.3308940">
        <ele>43.4</ele>
        <time>2021-07-19T12:27:52Z</time>
      </trkpt>
      <trkpt lat="43.4785330" lon="-5.3309090">
        <ele>43.8</ele>
        <time>2021-07-19T12:27:53Z</time>
      </trkpt>
      <trkpt lat="43.4785750" lon="-5.3309710">
        <ele>43.8</ele>
        <time>2021-07-19T12:27:56Z</time>
      </trkpt>
      <trkpt lat="43.4786010" lon="-5.3310840">
        <ele>44.2</ele>
        <time>2021-07-19T12:28:00Z</time>
      </trkpt>
      <trkpt lat="43.4786030" lon="-5.3311160">
        <ele>44.8</ele>
        <time>2021-07-19T12:28:01Z</time>
      </trkpt>
      <trkpt lat="43.4786030" lon="-5.3311470">
        <ele>45.2</ele>
        <time>2021-07-19T12:28:02Z</time>
      </trkpt>
      <trkpt lat="43.4786040" lon="-5.3311760">
        <ele>45.6</ele>
        <time>2021-07-19T12:28:03Z</time>
      </trkpt>
      <trkpt lat="43.4786050" lon="-5.3312050">
        <ele>46.2</ele>
        <time>2021-07-19T12:28:04Z</time>
      </trkpt>
      <trkpt lat="43.4786020" lon="-5.3313690">
        <ele>46.2</ele>
        <time>2021-07-19T12:28:10Z</time>
      </trkpt>
      <trkpt lat="43.4786010" lon="-5.3313950">
        <ele>46.6</ele>
        <time>2021-07-19T12:28:11Z</time>
      </trkpt>
      <trkpt lat="43.4786000" lon="-5.3314200">
        <ele>47.0</ele>
        <time>2021-07-19T12:28:12Z</time>
      </trkpt>
      <trkpt lat="43.4786010" lon="-5.3314470">
        <ele>47.4</ele>
        <time>2021-07-19T12:28:13Z</time>
      </trkpt>
      <trkpt lat="43.4786030" lon="-5.3314750">
        <ele>47.8</ele>
        <time>2021-07-19T12:28:14Z</time>
      </trkpt>
      <trkpt lat="43.4786050" lon="-5.3315000">
        <ele>48.2</ele>
        <time>2021-07-19T12:28:15Z</time>
      </trkpt>
      <trkpt lat="43.4786040" lon="-5.3315900">
        <ele>48.2</ele>
        <time>2021-07-19T12:28:18Z</time>
      </trkpt>
      <trkpt lat="43.4786030" lon="-5.3316390">
        <ele>48.8</ele>
        <time>2021-07-19T12:28:20Z</time>
      </trkpt>
      <trkpt lat="43.4786020" lon="-5.3316640">
        <ele>49.2</ele>
        <time>2021-07-19T12:28:21Z</time>
      </trkpt>
      <trkpt lat="43.4786010" lon="-5.3316880">
        <ele>49.6</ele>
        <time>2021-07-19T12:28:22Z</time>
      </trkpt>
      <trkpt lat="43.4786040" lon="-5.3317120">
        <ele>50.0</ele>
        <time>2021-07-19T12:28:23Z</time>
      </trkpt>
      <trkpt lat="43.4786050" lon="-5.3317390">
        <ele>50.4</ele>
        <time>2021-07-19T12:28:24Z</time>
      </trkpt>
      <trkpt lat="43.4786130" lon="-5.3319270">
        <ele>51.0</ele>
        <time>2021-07-19T12:28:31Z</time>
      </trkpt>
      <trkpt lat="43.4786150" lon="-5.3319490">
        <ele>51.4</ele>
        <time>2021-07-19T12:28:32Z</time>
      </trkpt>
      <trkpt lat="43.4786170" lon="-5.3319710">
        <ele>51.8</ele>
        <time>2021-07-19T12:28:33Z</time>
      </trkpt>
      <trkpt lat="43.4786180" lon="-5.3319930">
        <ele>52.4</ele>
        <time>2021-07-19T12:28:34Z</time>
      </trkpt>
      <trkpt lat="43.4786190" lon="-5.3320170">
        <ele>52.8</ele>
        <time>2021-07-19T12:28:35Z</time>
      </trkpt>
      <trkpt lat="43.4786220" lon="-5.3321200">
        <ele>52.8</ele>
        <time>2021-07-19T12:28:39Z</time>
      </trkpt>
      <trkpt lat="43.4786250" lon="-5.3321710">
        <ele>53.2</ele>
        <time>2021-07-19T12:28:41Z</time>
      </trkpt>
      <trkpt lat="43.4786280" lon="-5.3321940">
        <ele>53.6</ele>
        <time>2021-07-19T12:28:42Z</time>
      </trkpt>
      <trkpt lat="43.4786320" lon="-5.3322190">
        <ele>54.6</ele>
        <time>2021-07-19T12:28:43Z</time>
      </trkpt>
      <trkpt lat="43.4786350" lon="-5.3322460">
        <ele>55.0</ele>
        <time>2021-07-19T12:28:44Z</time>
      </trkpt>
      <trkpt lat="43.4786430" lon="-5.3323220">
        <ele>55.0</ele>
        <time>2021-07-19T12:28:47Z</time>
      </trkpt>
      <trkpt lat="43.4786410" lon="-5.3324050">
        <ele>55.4</ele>
        <time>2021-07-19T12:28:50Z</time>
      </trkpt>
      <trkpt lat="43.4786400" lon="-5.3324320">
        <ele>55.8</ele>
        <time>2021-07-19T12:28:51Z</time>
      </trkpt>
      <trkpt lat="43.4786400" lon="-5.3324580">
        <ele>56.2</ele>
        <time>2021-07-19T12:28:52Z</time>
      </trkpt>
      <trkpt lat="43.4786380" lon="-5.3324820">
        <ele>56.6</ele>
        <time>2021-07-19T12:28:53Z</time>
      </trkpt>
      <trkpt lat="43.4786390" lon="-5.3325100">
        <ele>57.0</ele>
        <time>2021-07-19T12:28:54Z</time>
      </trkpt>
      <trkpt lat="43.4786380" lon="-5.3325630">
        <ele>57.0</ele>
        <time>2021-07-19T12:28:56Z</time>
      </trkpt>
      <trkpt lat="43.4786420" lon="-5.3326740">
        <ele>57.4</ele>
        <time>2021-07-19T12:29:00Z</time>
      </trkpt>
      <trkpt lat="43.4786430" lon="-5.3327000">
        <ele>57.8</ele>
        <time>2021-07-19T12:29:01Z</time>
      </trkpt>
      <trkpt lat="43.4786420" lon="-5.3327250">
        <ele>58.2</ele>
        <time>2021-07-19T12:29:02Z</time>
      </trkpt>
      <trkpt lat="43.4786420" lon="-5.3327470">
        <ele>58.6</ele>
        <time>2021-07-19T12:29:03Z</time>
      </trkpt>
      <trkpt lat="43.4786420" lon="-5.3327690">
        <ele>59.0</ele>
        <time>2021-07-19T12:29:04Z</time>
      </trkpt>
      <trkpt lat="43.4786510" lon="-5.3329280">
        <ele>59.6</ele>
        <time>2021-07-19T12:29:10Z</time>
      </trkpt>
      <trkpt lat="43.4786510" lon="-5.3329560">
        <ele>60.0</ele>
        <time>2021-07-19T12:29:11Z</time>
      </trkpt>
      <trkpt lat="43.4786500" lon="-5.3329840">
        <ele>60.4</ele>
        <time>2021-07-19T12:29:12Z</time>
      </trkpt>
      <trkpt lat="43.4786490" lon="-5.3330100">
        <ele>60.8</ele>
        <time>2021-07-19T12:29:13Z</time>
      </trkpt>
      <trkpt lat="43.4786510" lon="-5.3330360">
        <ele>61.2</ele>
        <time>2021-07-19T12:29:14Z</time>
      </trkpt>
      <trkpt lat="43.4786620" lon="-5.3331360">
        <ele>61.2</ele>
        <time>2021-07-19T12:29:18Z</time>
      </trkpt>
      <trkpt lat="43.4786660" lon="-5.3331880">
        <ele>61.2</ele>
        <time>2021-07-19T12:29:20Z</time>
      </trkpt>
      <trkpt lat="43.4786680" lon="-5.3332130">
        <ele>61.6</ele>
        <time>2021-07-19T12:29:21Z</time>
      </trkpt>
      <trkpt lat="43.4786690" lon="-5.3332400">
        <ele>62.0</ele>
        <time>2021-07-19T12:29:22Z</time>
      </trkpt>
      <trkpt lat="43.4786700" lon="-5.3332670">
        <ele>62.4</ele>
        <time>2021-07-19T12:29:23Z</time>
      </trkpt>
      <trkpt lat="43.4786690" lon="-5.3332920">
        <ele>63.0</ele>
        <time>2021-07-19T12:29:24Z</time>
      </trkpt>
      <trkpt lat="43.4786690" lon="-5.3333180">
        <ele>63.4</ele>
        <time>2021-07-19T12:29:25Z</time>
      </trkpt>
      <trkpt lat="43.4786730" lon="-5.3333730">
        <ele>63.4</ele>
        <time>2021-07-19T12:29:27Z</time>
      </trkpt>
      <trkpt lat="43.4786820" lon="-5.3335030">
        <ele>64.2</ele>
        <time>2021-07-19T12:29:32Z</time>
      </trkpt>
      <trkpt lat="43.4786840" lon="-5.3335280">
        <ele>64.6</ele>
        <time>2021-07-19T12:29:33Z</time>
      </trkpt>
      <trkpt lat="43.4786850" lon="-5.3335560">
        <ele>65.0</ele>
        <time>2021-07-19T12:29:34Z</time>
      </trkpt>
      <trkpt lat="43.4786870" lon="-5.3335850">
        <ele>65.4</ele>
        <time>2021-07-19T12:29:35Z</time>
      </trkpt>
      <trkpt lat="43.4786850" lon="-5.3336120">
        <ele>65.4</ele>
        <time>2021-07-19T12:29:36Z</time>
      </trkpt>
      <trkpt lat="43.4786920" lon="-5.3337740">
        <ele>65.4</ele>
        <time>2021-07-19T12:29:42Z</time>
      </trkpt>
      <trkpt lat="43.4786920" lon="-5.3338010">
        <ele>65.8</ele>
        <time>2021-07-19T12:29:43Z</time>
      </trkpt>
      <trkpt lat="43.4786920" lon="-5.3338310">
        <ele>66.4</ele>
        <time>2021-07-19T12:29:44Z</time>
      </trkpt>
      <trkpt lat="43.4786920" lon="-5.3338600">
        <ele>66.8</ele>
        <time>2021-07-19T12:29:45Z</time>
      </trkpt>
      <trkpt lat="43.4786940" lon="-5.3338900">
        <ele>67.2</ele>
        <time>2021-07-19T12:29:46Z</time>
      </trkpt>
      <trkpt lat="43.4786940" lon="-5.3339150">
        <ele>67.6</ele>
        <time>2021-07-19T12:29:47Z</time>
      </trkpt>
      <trkpt lat="43.4786930" lon="-5.3339900">
        <ele>67.6</ele>
        <time>2021-07-19T12:29:50Z</time>
      </trkpt>
      <trkpt lat="43.4786980" lon="-5.3341090">
        <ele>68.0</ele>
        <time>2021-07-19T12:29:55Z</time>
      </trkpt>
      <trkpt lat="43.4786990" lon="-5.3341330">
        <ele>68.6</ele>
        <time>2021-07-19T12:29:56Z</time>
      </trkpt>
      <trkpt lat="43.4787000" lon="-5.3341570">
        <ele>69.4</ele>
        <time>2021-07-19T12:29:57Z</time>
      </trkpt>
      <trkpt lat="43.4787000" lon="-5.3341830">
        <ele>69.8</ele>
        <time>2021-07-19T12:29:58Z</time>
      </trkpt>
      <trkpt lat="43.4786790" lon="-5.3343600">
        <ele>70.2</ele>
        <time>2021-07-19T12:30:05Z</time>
      </trkpt>
      <trkpt lat="43.4786790" lon="-5.3343830">
        <ele>70.6</ele>
        <time>2021-07-19T12:30:06Z</time>
      </trkpt>
      <trkpt lat="43.4786780" lon="-5.3344050">
        <ele>71.0</ele>
        <time>2021-07-19T12:30:07Z</time>
      </trkpt>
      <trkpt lat="43.4786780" lon="-5.3344280">
        <ele>71.4</ele>
        <time>2021-07-19T12:30:08Z</time>
      </trkpt>
      <trkpt lat="43.4786810" lon="-5.3344530">
        <ele>71.8</ele>
        <time>2021-07-19T12:30:09Z</time>
      </trkpt>
      <trkpt lat="43.4786760" lon="-5.3345490">
        <ele>71.8</ele>
        <time>2021-07-19T12:30:13Z</time>
      </trkpt>
      <trkpt lat="43.4786770" lon="-5.3346230">
        <ele>72.2</ele>
        <time>2021-07-19T12:30:16Z</time>
      </trkpt>
      <trkpt lat="43.4786760" lon="-5.3346470">
        <ele>72.6</ele>
        <time>2021-07-19T12:30:17Z</time>
      </trkpt>
      <trkpt lat="43.4786740" lon="-5.3346690">
        <ele>73.0</ele>
        <time>2021-07-19T12:30:18Z</time>
      </trkpt>
      <trkpt lat="43.4786700" lon="-5.3346920">
        <ele>73.4</ele>
        <time>2021-07-19T12:30:19Z</time>
      </trkpt>
      <trkpt lat="43.4786640" lon="-5.3347160">
        <ele>73.8</ele>
        <time>2021-07-19T12:30:20Z</time>
      </trkpt>
      <trkpt lat="43.4786560" lon="-5.3348390">
        <ele>74.4</ele>
        <time>2021-07-19T12:30:26Z</time>
      </trkpt>
      <trkpt lat="43.4786560" lon="-5.3348620">
        <ele>74.8</ele>
        <time>2021-07-19T12:30:27Z</time>
      </trkpt>
      <trkpt lat="43.4786570" lon="-5.3348870">
        <ele>75.2</ele>
        <time>2021-07-19T12:30:28Z</time>
      </trkpt>
      <trkpt lat="43.4786540" lon="-5.3349100">
        <ele>75.6</ele>
        <time>2021-07-19T12:30:29Z</time>
      </trkpt>
      <trkpt lat="43.4786470" lon="-5.3349330">
        <ele>76.0</ele>
        <time>2021-07-19T12:30:30Z</time>
      </trkpt>
      <trkpt lat="43.4786300" lon="-5.3350100">
        <ele>76.0</ele>
        <time>2021-07-19T12:30:33Z</time>
      </trkpt>
      <trkpt lat="43.4786100" lon="-5.3350990">
        <ele>76.4</ele>
        <time>2021-07-19T12:30:37Z</time>
      </trkpt>
      <trkpt lat="43.4786070" lon="-5.3351170">
        <ele>76.8</ele>
        <time>2021-07-19T12:30:38Z</time>
      </trkpt>
      <trkpt lat="43.4786050" lon="-5.3351410">
        <ele>77.4</ele>
        <time>2021-07-19T12:30:39Z</time>
      </trkpt>
      <trkpt lat="43.4786000" lon="-5.3351690">
        <ele>77.8</ele>
        <time>2021-07-19T12:30:40Z</time>
      </trkpt>
      <trkpt lat="43.4786000" lon="-5.3352000">
        <ele>78.2</ele>
        <time>2021-07-19T12:30:41Z</time>
      </trkpt>
      <trkpt lat="43.4785990" lon="-5.3353510">
        <ele>78.6</ele>
        <time>2021-07-19T12:30:47Z</time>
      </trkpt>
      <trkpt lat="43.4786010" lon="-5.3353760">
        <ele>79.0</ele>
        <time>2021-07-19T12:30:48Z</time>
      </trkpt>
      <trkpt lat="43.4786070" lon="-5.3354020">
        <ele>79.4</ele>
        <time>2021-07-19T12:30:49Z</time>
      </trkpt>
      <trkpt lat="43.4786090" lon="-5.3354290">
        <ele>79.8</ele>
        <time>2021-07-19T12:30:50Z</time>
      </trkpt>
      <trkpt lat="43.4786120" lon="-5.3354570">
        <ele>80.2</ele>
        <time>2021-07-19T12:30:51Z</time>
      </trkpt>
      <trkpt lat="43.4786180" lon="-5.3355370">
        <ele>80.2</ele>
        <time>2021-07-19T12:30:54Z</time>
      </trkpt>
      <trkpt lat="43.4786330" lon="-5.3356530">
        <ele>80.6</ele>
        <time>2021-07-19T12:30:59Z</time>
      </trkpt>
      <trkpt lat="43.4786360" lon="-5.3356790">
        <ele>81.0</ele>
        <time>2021-07-19T12:31:00Z</time>
      </trkpt>
      <trkpt lat="43.4786390" lon="-5.3357110">
        <ele>81.4</ele>
        <time>2021-07-19T12:31:01Z</time>
      </trkpt>
      <trkpt lat="43.4786410" lon="-5.3357390">
        <ele>81.8</ele>
        <time>2021-07-19T12:31:02Z</time>
      </trkpt>
      <trkpt lat="43.4786450" lon="-5.3357690">
        <ele>82.2</ele>
        <time>2021-07-19T12:31:03Z</time>
      </trkpt>
      <trkpt lat="43.4786860" lon="-5.3359600">
        <ele>82.2</ele>
        <time>2021-07-19T12:31:09Z</time>
      </trkpt>
      <trkpt lat="43.4787510" lon="-5.3362070">
        <ele>82.8</ele>
        <time>2021-07-19T12:31:17Z</time>
      </trkpt>
      <trkpt lat="43.4787590" lon="-5.3362340">
        <ele>83.2</ele>
        <time>2021-07-19T12:31:18Z</time>
      </trkpt>
      <trkpt lat="43.4787660" lon="-5.3362640">
        <ele>83.6</ele>
        <time>2021-07-19T12:31:19Z</time>
      </trkpt>
      <trkpt lat="43.4787760" lon="-5.3362930">
        <ele>84.2</ele>
        <time>2021-07-19T12:31:20Z</time>
      </trkpt>
      <trkpt lat="43.4787850" lon="-5.3363260">
        <ele>84.6</ele>
        <time>2021-07-19T12:31:21Z</time>
      </trkpt>
      <trkpt lat="43.4788210" lon="-5.3364430">
        <ele>84.6</ele>
        <time>2021-07-19T12:31:24Z</time>
      </trkpt>
      <trkpt lat="43.4788930" lon="-5.3366610">
        <ele>84.6</ele>
        <time>2021-07-19T12:31:30Z</time>
      </trkpt>
      <trkpt lat="43.4789180" lon="-5.3367310">
        <ele>84.6</ele>
        <time>2021-07-19T12:31:32Z</time>
      </trkpt>
      <trkpt lat="43.4789490" lon="-5.3368590">
        <ele>85.0</ele>
        <time>2021-07-19T12:31:36Z</time>
      </trkpt>
      <trkpt lat="43.4789590" lon="-5.3368910">
        <ele>85.4</ele>
        <time>2021-07-19T12:31:37Z</time>
      </trkpt>
      <trkpt lat="43.4789670" lon="-5.3369230">
        <ele>85.8</ele>
        <time>2021-07-19T12:31:38Z</time>
      </trkpt>
      <trkpt lat="43.4789770" lon="-5.3369560">
        <ele>86.2</ele>
        <time>2021-07-19T12:31:39Z</time>
      </trkpt>
      <trkpt lat="43.4789860" lon="-5.3369880">
        <ele>86.6</ele>
        <time>2021-07-19T12:31:40Z</time>
      </trkpt>
      <trkpt lat="43.4790570" lon="-5.3371920">
        <ele>86.6</ele>
        <time>2021-07-19T12:31:46Z</time>
      </trkpt>
      <trkpt lat="43.4791460" lon="-5.3374020">
        <ele>87.0</ele>
        <time>2021-07-19T12:31:53Z</time>
      </trkpt>
      <trkpt lat="43.4791590" lon="-5.3374290">
        <ele>87.4</ele>
        <time>2021-07-19T12:31:54Z</time>
      </trkpt>
      <trkpt lat="43.4791740" lon="-5.3374560">
        <ele>87.8</ele>
        <time>2021-07-19T12:31:55Z</time>
      </trkpt>
      <trkpt lat="43.4791880" lon="-5.3374820">
        <ele>88.2</ele>
        <time>2021-07-19T12:31:56Z</time>
      </trkpt>
      <trkpt lat="43.4792010" lon="-5.3375100">
        <ele>88.6</ele>
        <time>2021-07-19T12:31:57Z</time>
      </trkpt>
      <trkpt lat="43.4792870" lon="-5.3376510">
        <ele>88.6</ele>
        <time>2021-07-19T12:32:03Z</time>
      </trkpt>
      <trkpt lat="43.4792990" lon="-5.3376740">
        <ele>89.0</ele>
        <time>2021-07-19T12:32:04Z</time>
      </trkpt>
      <trkpt lat="43.4793130" lon="-5.3377000">
        <ele>89.6</ele>
        <time>2021-07-19T12:32:05Z</time>
      </trkpt>
      <trkpt lat="43.4793230" lon="-5.3377270">
        <ele>90.0</ele>
        <time>2021-07-19T12:32:06Z</time>
      </trkpt>
      <trkpt lat="43.4793340" lon="-5.3377540">
        <ele>90.4</ele>
        <time>2021-07-19T12:32:07Z</time>
      </trkpt>
      <trkpt lat="43.4793470" lon="-5.3377830">
        <ele>90.8</ele>
        <time>2021-07-19T12:32:08Z</time>
      </trkpt>
      <trkpt lat="43.4793700" lon="-5.3378360">
        <ele>90.8</ele>
        <time>2021-07-19T12:32:10Z</time>
      </trkpt>
      <trkpt lat="43.4794160" lon="-5.3379360">
        <ele>91.2</ele>
        <time>2021-07-19T12:32:14Z</time>
      </trkpt>
      <trkpt lat="43.4794280" lon="-5.3379610">
        <ele>91.6</ele>
        <time>2021-07-19T12:32:15Z</time>
      </trkpt>
      <trkpt lat="43.4794380" lon="-5.3379870">
        <ele>92.0</ele>
        <time>2021-07-19T12:32:16Z</time>
      </trkpt>
      <trkpt lat="43.4794480" lon="-5.3380130">
        <ele>92.4</ele>
        <time>2021-07-19T12:32:17Z</time>
      </trkpt>
      <trkpt lat="43.4794590" lon="-5.3380410">
        <ele>92.8</ele>
        <time>2021-07-19T12:32:18Z</time>
      </trkpt>
      <trkpt lat="43.4795460" lon="-5.3382670">
        <ele>92.8</ele>
        <time>2021-07-19T12:32:26Z</time>
      </trkpt>
      <trkpt lat="43.4795550" lon="-5.3383000">
        <ele>93.2</ele>
        <time>2021-07-19T12:32:27Z</time>
      </trkpt>
      <trkpt lat="43.4795670" lon="-5.3383340">
        <ele>93.6</ele>
        <time>2021-07-19T12:32:28Z</time>
      </trkpt>
      <trkpt lat="43.4795780" lon="-5.3383670">
        <ele>94.0</ele>
        <time>2021-07-19T12:32:29Z</time>
      </trkpt>
      <trkpt lat="43.4795900" lon="-5.3383970">
        <ele>94.4</ele>
        <time>2021-07-19T12:32:30Z</time>
      </trkpt>
      <trkpt lat="43.4796010" lon="-5.3384250">
        <ele>95.0</ele>
        <time>2021-07-19T12:32:31Z</time>
      </trkpt>
      <trkpt lat="43.4796340" lon="-5.3385140">
        <ele>95.0</ele>
        <time>2021-07-19T12:32:34Z</time>
      </trkpt>
      <trkpt lat="43.4797100" lon="-5.3387220">
        <ele>95.0</ele>
        <time>2021-07-19T12:32:41Z</time>
      </trkpt>
      <trkpt lat="43.4797590" lon="-5.3388620">
        <ele>95.4</ele>
        <time>2021-07-19T12:32:46Z</time>
      </trkpt>
      <trkpt lat="43.4797670" lon="-5.3388890">
        <ele>95.8</ele>
        <time>2021-07-19T12:32:47Z</time>
      </trkpt>
      <trkpt lat="43.4797750" lon="-5.3389170">
        <ele>96.2</ele>
        <time>2021-07-19T12:32:48Z</time>
      </trkpt>
      <trkpt lat="43.4797860" lon="-5.3389430">
        <ele>96.6</ele>
        <time>2021-07-19T12:32:49Z</time>
      </trkpt>
      <trkpt lat="43.4797970" lon="-5.3389690">
        <ele>97.2</ele>
        <time>2021-07-19T12:32:50Z</time>
      </trkpt>
      <trkpt lat="43.4798570" lon="-5.3391380">
        <ele>97.2</ele>
        <time>2021-07-19T12:32:57Z</time>
      </trkpt>
      <trkpt lat="43.4798750" lon="-5.3391850">
        <ele>97.6</ele>
        <time>2021-07-19T12:32:59Z</time>
      </trkpt>
      <trkpt lat="43.4798840" lon="-5.3392100">
        <ele>98.0</ele>
        <time>2021-07-19T12:33:00Z</time>
      </trkpt>
      <trkpt lat="43.4798910" lon="-5.3392370">
        <ele>98.4</ele>
        <time>2021-07-19T12:33:01Z</time>
      </trkpt>
      <trkpt lat="43.4798990" lon="-5.3392610">
        <ele>98.8</ele>
        <time>2021-07-19T12:33:02Z</time>
      </trkpt>
      <trkpt lat="43.4799060" lon="-5.3392840">
        <ele>99.2</ele>
        <time>2021-07-19T12:33:03Z</time>
      </trkpt>
      <trkpt lat="43.4799220" lon="-5.3393300">
        <ele>99.2</ele>
        <time>2021-07-19T12:33:05Z</time>
      </trkpt>
      <trkpt lat="43.4799350" lon="-5.3394700">
        <ele>99.6</ele>
        <time>2021-07-19T12:33:11Z</time>
      </trkpt>
      <trkpt lat="43.4799280" lon="-5.3394900">
        <ele>100.2</ele>
        <time>2021-07-19T12:33:12Z</time>
      </trkpt>
      <trkpt lat="43.4799220" lon="-5.3395120">
        <ele>100.6</ele>
        <time>2021-07-19T12:33:13Z</time>
      </trkpt>
      <trkpt lat="43.4799170" lon="-5.3395390">
        <ele>101.0</ele>
        <time>2021-07-19T12:33:14Z</time>
      </trkpt>
      <trkpt lat="43.4799120" lon="-5.3395670">
        <ele>101.4</ele>
        <time>2021-07-19T12:33:15Z</time>
      </trkpt>
      <trkpt lat="43.4799100" lon="-5.3396400">
        <ele>101.4</ele>
        <time>2021-07-19T12:33:18Z</time>
      </trkpt>
      <trkpt lat="43.4799370" lon="-5.3397960">
        <ele>101.8</ele>
        <time>2021-07-19T12:33:25Z</time>
      </trkpt>
      <trkpt lat="43.4799410" lon="-5.3398200">
        <ele>102.2</ele>
        <time>2021-07-19T12:33:26Z</time>
      </trkpt>
      <trkpt lat="43.4799480" lon="-5.3398440">
        <ele>102.6</ele>
        <time>2021-07-19T12:33:27Z</time>
      </trkpt>
      <trkpt lat="43.4799540" lon="-5.3398670">
        <ele>103.0</ele>
        <time>2021-07-19T12:33:28Z</time>
      </trkpt>
      <trkpt lat="43.4799590" lon="-5.3398910">
        <ele>103.4</ele>
        <time>2021-07-19T12:33:29Z</time>
      </trkpt>
      <trkpt lat="43.4799750" lon="-5.3399610">
        <ele>103.4</ele>
        <time>2021-07-19T12:33:32Z</time>
      </trkpt>
      <trkpt lat="43.4799970" lon="-5.3400560">
        <ele>103.8</ele>
        <time>2021-07-19T12:33:36Z</time>
      </trkpt>
      <trkpt lat="43.4800010" lon="-5.3400820">
        <ele>104.2</ele>
        <time>2021-07-19T12:33:37Z</time>
      </trkpt>
      <trkpt lat="43.4800070" lon="-5.3401090">
        <ele>104.6</ele>
        <time>2021-07-19T12:33:38Z</time>
      </trkpt>
      <trkpt lat="43.4800120" lon="-5.3401350">
        <ele>105.2</ele>
        <time>2021-07-19T12:33:39Z</time>
      </trkpt>
      <trkpt lat="43.4800170" lon="-5.3401580">
        <ele>105.6</ele>
        <time>2021-07-19T12:33:40Z</time>
      </trkpt>
      <trkpt lat="43.4800370" lon="-5.3402390">
        <ele>106.0</ele>
        <time>2021-07-19T12:33:44Z</time>
      </trkpt>
      <trkpt lat="43.4800410" lon="-5.3402580">
        <ele>106.4</ele>
        <time>2021-07-19T12:33:45Z</time>
      </trkpt>
      <trkpt lat="43.4800430" lon="-5.3402790">
        <ele>106.8</ele>
        <time>2021-07-19T12:33:46Z</time>
      </trkpt>
      <trkpt lat="43.4800470" lon="-5.3402990">
        <ele>107.2</ele>
        <time>2021-07-19T12:33:47Z</time>
      </trkpt>
      <trkpt lat="43.4800490" lon="-5.3403230">
        <ele>107.6</ele>
        <time>2021-07-19T12:33:48Z</time>
      </trkpt>
      <trkpt lat="43.4800630" lon="-5.3404310">
        <ele>108.0</ele>
        <time>2021-07-19T12:33:53Z</time>
      </trkpt>
      <trkpt lat="43.4800660" lon="-5.3404530">
        <ele>108.4</ele>
        <time>2021-07-19T12:33:54Z</time>
      </trkpt>
      <trkpt lat="43.4800700" lon="-5.3404740">
        <ele>108.8</ele>
        <time>2021-07-19T12:33:55Z</time>
      </trkpt>
      <trkpt lat="43.4800760" lon="-5.3404920">
        <ele>109.2</ele>
        <time>2021-07-19T12:33:56Z</time>
      </trkpt>
      <trkpt lat="43.4800840" lon="-5.3405100">
        <ele>109.6</ele>
        <time>2021-07-19T12:33:57Z</time>
      </trkpt>
      <trkpt lat="43.4801220" lon="-5.3406230">
        <ele>110.2</ele>
        <time>2021-07-19T12:34:02Z</time>
      </trkpt>
      <trkpt lat="43.4801310" lon="-5.3406440">
        <ele>110.6</ele>
        <time>2021-07-19T12:34:03Z</time>
      </trkpt>
      <trkpt lat="43.4801350" lon="-5.3406670">
        <ele>111.6</ele>
        <time>2021-07-19T12:34:04Z</time>
      </trkpt>
      <trkpt lat="43.4801390" lon="-5.3406860">
        <ele>112.0</ele>
        <time>2021-07-19T12:34:05Z</time>
      </trkpt>
      <trkpt lat="43.4801490" lon="-5.3407170">
        <ele>112.0</ele>
        <time>2021-07-19T12:34:08Z</time>
      </trkpt>
      <trkpt lat="43.4801660" lon="-5.3407950">
        <ele>112.0</ele>
        <time>2021-07-19T12:34:21Z</time>
      </trkpt>
      <trkpt lat="43.4801770" lon="-5.3408270">
        <ele>112.4</ele>
        <time>2021-07-19T12:34:23Z</time>
      </trkpt>
      <trkpt lat="43.4801800" lon="-5.3408410">
        <ele>112.8</ele>
        <time>2021-07-19T12:34:24Z</time>
      </trkpt>
      <trkpt lat="43.4801840" lon="-5.3408550">
        <ele>113.2</ele>
        <time>2021-07-19T12:34:25Z</time>
      </trkpt>
      <trkpt lat="43.4801890" lon="-5.3408710">
        <ele>113.6</ele>
        <time>2021-07-19T12:34:26Z</time>
      </trkpt>
      <trkpt lat="43.4801940" lon="-5.3408900">
        <ele>114.0</ele>
        <time>2021-07-19T12:34:27Z</time>
      </trkpt>
      <trkpt lat="43.4802190" lon="-5.3410090">
        <ele>114.0</ele>
        <time>2021-07-19T12:34:34Z</time>
      </trkpt>
      <trkpt lat="43.4802360" lon="-5.3410610">
        <ele>114.4</ele>
        <time>2021-07-19T12:34:37Z</time>
      </trkpt>
      <trkpt lat="43.4802420" lon="-5.3410790">
        <ele>114.8</ele>
        <time>2021-07-19T12:34:38Z</time>
      </trkpt>
      <trkpt lat="43.4802450" lon="-5.3410960">
        <ele>115.4</ele>
        <time>2021-07-19T12:34:39Z</time>
      </trkpt>
      <trkpt lat="43.4802460" lon="-5.3411160">
        <ele>115.8</ele>
        <time>2021-07-19T12:34:40Z</time>
      </trkpt>
      <trkpt lat="43.4802470" lon="-5.3411340">
        <ele>116.2</ele>
        <time>2021-07-19T12:34:41Z</time>
      </trkpt>
      <trkpt lat="43.4802540" lon="-5.3411650">
        <ele>116.2</ele>
        <time>2021-07-19T12:34:43Z</time>
      </trkpt>
      <trkpt lat="43.4802970" lon="-5.3412910">
        <ele>116.2</ele>
        <time>2021-07-19T12:34:51Z</time>
      </trkpt>
      <trkpt lat="43.4802990" lon="-5.3413100">
        <ele>116.6</ele>
        <time>2021-07-19T12:34:52Z</time>
      </trkpt>
      <trkpt lat="43.4803000" lon="-5.3413260">
        <ele>117.4</ele>
        <time>2021-07-19T12:34:53Z</time>
      </trkpt>
      <trkpt lat="43.4803030" lon="-5.3413410">
        <ele>118.0</ele>
        <time>2021-07-19T12:34:54Z</time>
      </trkpt>
      <trkpt lat="43.4803080" lon="-5.3413570">
        <ele>118.4</ele>
        <time>2021-07-19T12:34:55Z</time>
      </trkpt>
      <trkpt lat="43.4803340" lon="-5.3414110">
        <ele>118.4</ele>
        <time>2021-07-19T12:34:59Z</time>
      </trkpt>
      <trkpt lat="43.4803460" lon="-5.3414740">
        <ele>118.8</ele>
        <time>2021-07-19T12:35:03Z</time>
      </trkpt>
      <trkpt lat="43.4803480" lon="-5.3414870">
        <ele>119.2</ele>
        <time>2021-07-19T12:35:04Z</time>
      </trkpt>
      <trkpt lat="43.4803500" lon="-5.3415020">
        <ele>119.6</ele>
        <time>2021-07-19T12:35:05Z</time>
      </trkpt>
      <trkpt lat="43.4803560" lon="-5.3415150">
        <ele>120.0</ele>
        <time>2021-07-19T12:35:06Z</time>
      </trkpt>
      <trkpt lat="43.4803630" lon="-5.3415300">
        <ele>120.4</ele>
        <time>2021-07-19T12:35:07Z</time>
      </trkpt>
      <trkpt lat="43.4803740" lon="-5.3415620">
        <ele>120.4</ele>
        <time>2021-07-19T12:35:09Z</time>
      </trkpt>
      <trkpt lat="43.4804080" lon="-5.3416620">
        <ele>120.4</ele>
        <time>2021-07-19T12:35:16Z</time>
      </trkpt>
      <trkpt lat="43.4804110" lon="-5.3416750">
        <ele>120.8</ele>
        <time>2021-07-19T12:35:17Z</time>
      </trkpt>
      <trkpt lat="43.4804180" lon="-5.3416850">
        <ele>121.6</ele>
        <time>2021-07-19T12:35:18Z</time>
      </trkpt>
      <trkpt lat="43.4804250" lon="-5.3416950">
        <ele>122.0</ele>
        <time>2021-07-19T12:35:19Z</time>
      </trkpt>
      <trkpt lat="43.4804320" lon="-5.3417060">
        <ele>122.4</ele>
        <time>2021-07-19T12:35:20Z</time>
      </trkpt>
      <trkpt lat="43.4804600" lon="-5.3417770">
        <ele>122.4</ele>
        <time>2021-07-19T12:35:25Z</time>
      </trkpt>
      <trkpt lat="43.4804730" lon="-5.3418320">
        <ele>122.8</ele>
        <time>2021-07-19T12:35:29Z</time>
      </trkpt>
      <trkpt lat="43.4804740" lon="-5.3418450">
        <ele>123.2</ele>
        <time>2021-07-19T12:35:30Z</time>
      </trkpt>
      <trkpt lat="43.4804750" lon="-5.3418600">
        <ele>123.6</ele>
        <time>2021-07-19T12:35:31Z</time>
      </trkpt>
      <trkpt lat="43.4804780" lon="-5.3418750">
        <ele>124.2</ele>
        <time>2021-07-19T12:35:32Z</time>
      </trkpt>
      <trkpt lat="43.4804830" lon="-5.3418930">
        <ele>124.6</ele>
        <time>2021-07-19T12:35:33Z</time>
      </trkpt>
      <trkpt lat="43.4804840" lon="-5.3419310">
        <ele>124.6</ele>
        <time>2021-07-19T12:35:35Z</time>
      </trkpt>
      <trkpt lat="43.4805150" lon="-5.3420220">
        <ele>124.6</ele>
        <time>2021-07-19T12:35:42Z</time>
      </trkpt>
      <trkpt lat="43.4805210" lon="-5.3420370">
        <ele>125.0</ele>
        <time>2021-07-19T12:35:43Z</time>
      </trkpt>
      <trkpt lat="43.4805260" lon="-5.3420530">
        <ele>125.4</ele>
        <time>2021-07-19T12:35:44Z</time>
      </trkpt>
      <trkpt lat="43.4805320" lon="-5.3420670">
        <ele>125.8</ele>
        <time>2021-07-19T12:35:45Z</time>
      </trkpt>
      <trkpt lat="43.4805380" lon="-5.3420810">
        <ele>126.2</ele>
        <time>2021-07-19T12:35:46Z</time>
      </trkpt>
      <trkpt lat="43.4805460" lon="-5.3420960">
        <ele>126.6</ele>
        <time>2021-07-19T12:35:47Z</time>
      </trkpt>
      <trkpt lat="43.4805610" lon="-5.3421620">
        <ele>126.6</ele>
        <time>2021-07-19T12:35:51Z</time>
      </trkpt>
      <trkpt lat="43.4805760" lon="-5.3422680">
        <ele>127.0</ele>
        <time>2021-07-19T12:35:57Z</time>
      </trkpt>
      <trkpt lat="43.4805800" lon="-5.3422850">
        <ele>127.4</ele>
        <time>2021-07-19T12:35:58Z</time>
      </trkpt>
      <trkpt lat="43.4805870" lon="-5.3423040">
        <ele>127.8</ele>
        <time>2021-07-19T12:35:59Z</time>
      </trkpt>
      <trkpt lat="43.4805920" lon="-5.3423230">
        <ele>128.2</ele>
        <time>2021-07-19T12:36:00Z</time>
      </trkpt>
      <trkpt lat="43.4805940" lon="-5.3423420">
        <ele>128.6</ele>
        <time>2021-07-19T12:36:01Z</time>
      </trkpt>
      <trkpt lat="43.4806090" lon="-5.3424100">
        <ele>128.6</ele>
        <time>2021-07-19T12:36:05Z</time>
      </trkpt>
      <trkpt lat="43.4806110" lon="-5.3424260">
        <ele>128.6</ele>
        <time>2021-07-19T12:36:06Z</time>
      </trkpt>
      <trkpt lat="43.4806380" lon="-5.3425270">
        <ele>128.6</ele>
        <time>2021-07-19T12:36:12Z</time>
      </trkpt>
      <trkpt lat="43.4806650" lon="-5.3426100">
        <ele>129.2</ele>
        <time>2021-07-19T12:36:17Z</time>
      </trkpt>
      <trkpt lat="43.4806720" lon="-5.3426260">
        <ele>129.6</ele>
        <time>2021-07-19T12:36:18Z</time>
      </trkpt>
      <trkpt lat="43.4806800" lon="-5.3426400">
        <ele>130.0</ele>
        <time>2021-07-19T12:36:19Z</time>
      </trkpt>
      <trkpt lat="43.4806860" lon="-5.3426550">
        <ele>130.4</ele>
        <time>2021-07-19T12:36:20Z</time>
      </trkpt>
      <trkpt lat="43.4806910" lon="-5.3426700">
        <ele>130.8</ele>
        <time>2021-07-19T12:36:21Z</time>
      </trkpt>
      <trkpt lat="43.4806960" lon="-5.3426850">
        <ele>130.8</ele>
        <time>2021-07-19T12:36:22Z</time>
      </trkpt>
      <trkpt lat="43.4807510" lon="-5.3428320">
        <ele>130.8</ele>
        <time>2021-07-19T12:36:31Z</time>
      </trkpt>
      <trkpt lat="43.4807670" lon="-5.3429050">
        <ele>131.2</ele>
        <time>2021-07-19T12:36:35Z</time>
      </trkpt>
      <trkpt lat="43.4807700" lon="-5.3429200">
        <ele>131.6</ele>
        <time>2021-07-19T12:36:36Z</time>
      </trkpt>
      <trkpt lat="43.4807710" lon="-5.3429350">
        <ele>132.0</ele>
        <time>2021-07-19T12:36:37Z</time>
      </trkpt>
      <trkpt lat="43.4807720" lon="-5.3429530">
        <ele>132.4</ele>
        <time>2021-07-19T12:36:38Z</time>
      </trkpt>
      <trkpt lat="43.4807730" lon="-5.3429680">
        <ele>132.8</ele>
        <time>2021-07-19T12:36:39Z</time>
      </trkpt>
      <trkpt lat="43.4807760" lon="-5.3429850">
        <ele>132.8</ele>
        <time>2021-07-19T12:36:40Z</time>
      </trkpt>
      <trkpt lat="43.4808000" lon="-5.3431290">
        <ele>132.8</ele>
        <time>2021-07-19T12:36:48Z</time>
      </trkpt>
      <trkpt lat="43.4808090" lon="-5.3431960">
        <ele>132.8</ele>
        <time>2021-07-19T12:36:53Z</time>
      </trkpt>
      <trkpt lat="43.4808080" lon="-5.3431980">
        <ele>132.8</ele>
        <time>2021-07-19T12:36:54Z</time>
      </trkpt>
      <trkpt lat="43.4808280" lon="-5.3432820">
        <ele>134.8</ele>
        <time>2021-07-19T12:37:27Z</time>
      </trkpt>
      <trkpt lat="43.4808330" lon="-5.3432980">
        <ele>134.8</ele>
        <time>2021-07-19T12:37:28Z</time>
      </trkpt>
      <trkpt lat="43.4808590" lon="-5.3434000">
        <ele>134.8</ele>
        <time>2021-07-19T12:37:34Z</time>
      </trkpt>
      <trkpt lat="43.4808860" lon="-5.3434590">
        <ele>134.8</ele>
        <time>2021-07-19T12:37:39Z</time>
      </trkpt>
      <trkpt lat="43.4808930" lon="-5.3434800">
        <ele>134.8</ele>
        <time>2021-07-19T12:37:42Z</time>
      </trkpt>
      <trkpt lat="43.4808940" lon="-5.3434850">
        <ele>134.8</ele>
        <time>2021-07-19T12:37:43Z</time>
      </trkpt>
      <trkpt lat="43.4809100" lon="-5.3435860">
        <ele>134.8</ele>
        <time>2021-07-19T12:38:32Z</time>
      </trkpt>
      <trkpt lat="43.4809150" lon="-5.3436000">
        <ele>134.8</ele>
        <time>2021-07-19T12:38:33Z</time>
      </trkpt>
      <trkpt lat="43.4809190" lon="-5.3436110">
        <ele>134.8</ele>
        <time>2021-07-19T12:38:34Z</time>
      </trkpt>
      <trkpt lat="43.4809230" lon="-5.3436170">
        <ele>134.8</ele>
        <time>2021-07-19T12:38:36Z</time>
      </trkpt>
      <trkpt lat="43.4809060" lon="-5.3435400">
        <ele>134.8</ele>
        <time>2021-07-19T12:38:57Z</time>
      </trkpt>
      <trkpt lat="43.4808990" lon="-5.3435280">
        <ele>134.8</ele>
        <time>2021-07-19T12:38:58Z</time>
      </trkpt>
      <trkpt lat="43.4808990" lon="-5.3435250">
        <ele>134.8</ele>
        <time>2021-07-19T12:38:59Z</time>
      </trkpt>
      <trkpt lat="43.4809320" lon="-5.3435790">
        <ele>134.8</ele>
        <time>2021-07-19T12:39:05Z</time>
      </trkpt>
      <trkpt lat="43.4809430" lon="-5.3436220">
        <ele>134.8</ele>
        <time>2021-07-19T12:39:08Z</time>
      </trkpt>
      <trkpt lat="43.4809480" lon="-5.3436380">
        <ele>134.8</ele>
        <time>2021-07-19T12:39:11Z</time>
      </trkpt>
      <trkpt lat="43.4809800" lon="-5.3436070">
        <ele>134.8</ele>
        <time>2021-07-19T12:39:49Z</time>
      </trkpt>
      <trkpt lat="43.4809940" lon="-5.3436200">
        <ele>134.8</ele>
        <time>2021-07-19T12:39:50Z</time>
      </trkpt>
      <trkpt lat="43.4810740" lon="-5.3437200">
        <ele>134.8</ele>
        <time>2021-07-19T12:39:55Z</time>
      </trkpt>
      <trkpt lat="43.4811050" lon="-5.3437710">
        <ele>134.8</ele>
        <time>2021-07-19T12:39:57Z</time>
      </trkpt>
      <trkpt lat="43.4812270" lon="-5.3439160">
        <ele>134.8</ele>
        <time>2021-07-19T12:40:03Z</time>
      </trkpt>
      <trkpt lat="43.4813310" lon="-5.3439770">
        <ele>134.8</ele>
        <time>2021-07-19T12:40:08Z</time>
      </trkpt>
      <trkpt lat="43.4813740" lon="-5.3439920">
        <ele>134.8</ele>
        <time>2021-07-19T12:40:10Z</time>
      </trkpt>
      <trkpt lat="43.4814480" lon="-5.3440070">
        <ele>135.2</ele>
        <time>2021-07-19T12:40:14Z</time>
      </trkpt>
      <trkpt lat="43.4814660" lon="-5.3440140">
        <ele>136.2</ele>
        <time>2021-07-19T12:40:15Z</time>
      </trkpt>
      <trkpt lat="43.4814810" lon="-5.3440250">
        <ele>136.6</ele>
        <time>2021-07-19T12:40:16Z</time>
      </trkpt>
      <trkpt lat="43.4814970" lon="-5.3440430">
        <ele>137.0</ele>
        <time>2021-07-19T12:40:17Z</time>
      </trkpt>
      <trkpt lat="43.4815740" lon="-5.3441420">
        <ele>137.0</ele>
        <time>2021-07-19T12:40:22Z</time>
      </trkpt>
      <trkpt lat="43.4815930" lon="-5.3441560">
        <ele>137.0</ele>
        <time>2021-07-19T12:40:23Z</time>
      </trkpt>
      <trkpt lat="43.4816430" lon="-5.3441900">
        <ele>137.4</ele>
        <time>2021-07-19T12:40:26Z</time>
      </trkpt>
      <trkpt lat="43.4816580" lon="-5.3441970">
        <ele>137.8</ele>
        <time>2021-07-19T12:40:27Z</time>
      </trkpt>
      <trkpt lat="43.4816740" lon="-5.3442000">
        <ele>138.2</ele>
        <time>2021-07-19T12:40:28Z</time>
      </trkpt>
      <trkpt lat="43.4816890" lon="-5.3442070">
        <ele>138.6</ele>
        <time>2021-07-19T12:40:29Z</time>
      </trkpt>
      <trkpt lat="43.4817040" lon="-5.3442160">
        <ele>139.0</ele>
        <time>2021-07-19T12:40:30Z</time>
      </trkpt>
      <trkpt lat="43.4817730" lon="-5.3442420">
        <ele>139.0</ele>
        <time>2021-07-19T12:40:34Z</time>
      </trkpt>
      <trkpt lat="43.4818100" lon="-5.3442590">
        <ele>139.4</ele>
        <time>2021-07-19T12:40:36Z</time>
      </trkpt>
      <trkpt lat="43.4818300" lon="-5.3442690">
        <ele>139.8</ele>
        <time>2021-07-19T12:40:37Z</time>
      </trkpt>
      <trkpt lat="43.4818480" lon="-5.3442750">
        <ele>140.2</ele>
        <time>2021-07-19T12:40:38Z</time>
      </trkpt>
      <trkpt lat="43.4818640" lon="-5.3442830">
        <ele>140.6</ele>
        <time>2021-07-19T12:40:39Z</time>
      </trkpt>
      <trkpt lat="43.4818800" lon="-5.3442930">
        <ele>141.2</ele>
        <time>2021-07-19T12:40:40Z</time>
      </trkpt>
      <trkpt lat="43.4819830" lon="-5.3443440">
        <ele>141.2</ele>
        <time>2021-07-19T12:40:46Z</time>
      </trkpt>
      <trkpt lat="43.4820000" lon="-5.3443550">
        <ele>141.6</ele>
        <time>2021-07-19T12:40:47Z</time>
      </trkpt>
      <trkpt lat="43.4820160" lon="-5.3443650">
        <ele>142.0</ele>
        <time>2021-07-19T12:40:48Z</time>
      </trkpt>
      <trkpt lat="43.4820320" lon="-5.3443740">
        <ele>142.4</ele>
        <time>2021-07-19T12:40:49Z</time>
      </trkpt>
      <trkpt lat="43.4820470" lon="-5.3443830">
        <ele>142.8</ele>
        <time>2021-07-19T12:40:50Z</time>
      </trkpt>
      <trkpt lat="43.4820600" lon="-5.3443860">
        <ele>143.2</ele>
        <time>2021-07-19T12:40:51Z</time>
      </trkpt>
      <trkpt lat="43.4821030" lon="-5.3444140">
        <ele>143.2</ele>
        <time>2021-07-19T12:40:54Z</time>
      </trkpt>
      <trkpt lat="43.4821940" lon="-5.3444980">
        <ele>143.6</ele>
        <time>2021-07-19T12:41:00Z</time>
      </trkpt>
      <trkpt lat="43.4822070" lon="-5.3445130">
        <ele>144.0</ele>
        <time>2021-07-19T12:41:01Z</time>
      </trkpt>
      <trkpt lat="43.4822200" lon="-5.3445280">
        <ele>144.4</ele>
        <time>2021-07-19T12:41:02Z</time>
      </trkpt>
      <trkpt lat="43.4822330" lon="-5.3445430">
        <ele>145.0</ele>
        <time>2021-07-19T12:41:03Z</time>
      </trkpt>
      <trkpt lat="43.4822440" lon="-5.3445590">
        <ele>145.4</ele>
        <time>2021-07-19T12:41:04Z</time>
      </trkpt>
      <trkpt lat="43.4823000" lon="-5.3446540">
        <ele>145.4</ele>
        <time>2021-07-19T12:41:09Z</time>
      </trkpt>
      <trkpt lat="43.4823360" lon="-5.3447780">
        <ele>145.8</ele>
        <time>2021-07-19T12:41:14Z</time>
      </trkpt>
      <trkpt lat="43.4823420" lon="-5.3448040">
        <ele>146.2</ele>
        <time>2021-07-19T12:41:15Z</time>
      </trkpt>
      <trkpt lat="43.4823510" lon="-5.3448290">
        <ele>146.6</ele>
        <time>2021-07-19T12:41:16Z</time>
      </trkpt>
      <trkpt lat="43.4823570" lon="-5.3448570">
        <ele>147.0</ele>
        <time>2021-07-19T12:41:17Z</time>
      </trkpt>
      <trkpt lat="43.4823620" lon="-5.3448910">
        <ele>147.4</ele>
        <time>2021-07-19T12:41:18Z</time>
      </trkpt>
      <trkpt lat="43.4823720" lon="-5.3450400">
        <ele>147.4</ele>
        <time>2021-07-19T12:41:22Z</time>
      </trkpt>
      <trkpt lat="43.4823260" lon="-5.3452720">
        <ele>147.4</ele>
        <time>2021-07-19T12:41:28Z</time>
      </trkpt>
      <trkpt lat="43.4822480" lon="-5.3454670">
        <ele>147.8</ele>
        <time>2021-07-19T12:41:34Z</time>
      </trkpt>
      <trkpt lat="43.4822390" lon="-5.3454960">
        <ele>148.2</ele>
        <time>2021-07-19T12:41:35Z</time>
      </trkpt>
      <trkpt lat="43.4822320" lon="-5.3455250">
        <ele>148.6</ele>
        <time>2021-07-19T12:41:36Z</time>
      </trkpt>
      <trkpt lat="43.4822230" lon="-5.3455550">
        <ele>149.0</ele>
        <time>2021-07-19T12:41:37Z</time>
      </trkpt>
      <trkpt lat="43.4822180" lon="-5.3455870">
        <ele>149.4</ele>
        <time>2021-07-19T12:41:38Z</time>
      </trkpt>
      <trkpt lat="43.4822020" lon="-5.3456850">
        <ele>149.4</ele>
        <time>2021-07-19T12:41:41Z</time>
      </trkpt>
      <trkpt lat="43.4822340" lon="-5.3459090">
        <ele>149.4</ele>
        <time>2021-07-19T12:41:49Z</time>
      </trkpt>
      <trkpt lat="43.4822680" lon="-5.3459950">
        <ele>149.8</ele>
        <time>2021-07-19T12:41:52Z</time>
      </trkpt>
      <trkpt lat="43.4822790" lon="-5.3460250">
        <ele>150.2</ele>
        <time>2021-07-19T12:41:53Z</time>
      </trkpt>
      <trkpt lat="43.4822890" lon="-5.3460490">
        <ele>150.8</ele>
        <time>2021-07-19T12:41:54Z</time>
      </trkpt>
      <trkpt lat="43.4822980" lon="-5.3460760">
        <ele>151.6</ele>
        <time>2021-07-19T12:41:55Z</time>
      </trkpt>
      <trkpt lat="43.4823120" lon="-5.3461000">
        <ele>151.6</ele>
        <time>2021-07-19T12:41:56Z</time>
      </trkpt>
      <trkpt lat="43.4824400" lon="-5.3463670">
        <ele>151.6</ele>
        <time>2021-07-19T12:42:06Z</time>
      </trkpt>
      <trkpt lat="43.4824840" lon="-5.3464620">
        <ele>152.0</ele>
        <time>2021-07-19T12:42:09Z</time>
      </trkpt>
      <trkpt lat="43.4824980" lon="-5.3464890">
        <ele>152.4</ele>
        <time>2021-07-19T12:42:10Z</time>
      </trkpt>
      <trkpt lat="43.4825110" lon="-5.3465170">
        <ele>152.8</ele>
        <time>2021-07-19T12:42:11Z</time>
      </trkpt>
      <trkpt lat="43.4825230" lon="-5.3465420">
        <ele>153.2</ele>
        <time>2021-07-19T12:42:12Z</time>
      </trkpt>
      <trkpt lat="43.4825340" lon="-5.3465710">
        <ele>153.8</ele>
        <time>2021-07-19T12:42:13Z</time>
      </trkpt>
      <trkpt lat="43.4825850" lon="-5.3467790">
        <ele>153.8</ele>
        <time>2021-07-19T12:42:19Z</time>
      </trkpt>
      <trkpt lat="43.4825840" lon="-5.3470550">
        <ele>153.8</ele>
        <time>2021-07-19T12:42:26Z</time>
      </trkpt>
      <trkpt lat="43.4825390" lon="-5.3472850">
        <ele>153.8</ele>
        <time>2021-07-19T12:42:33Z</time>
      </trkpt>
      <trkpt lat="43.4825140" lon="-5.3474470">
        <ele>154.2</ele>
        <time>2021-07-19T12:42:37Z</time>
      </trkpt>
      <trkpt lat="43.4825090" lon="-5.3474970">
        <ele>154.6</ele>
        <time>2021-07-19T12:42:38Z</time>
      </trkpt>
      <trkpt lat="43.4825040" lon="-5.3475530">
        <ele>155.0</ele>
        <time>2021-07-19T12:42:39Z</time>
      </trkpt>
      <trkpt lat="43.4825010" lon="-5.3476130">
        <ele>155.4</ele>
        <time>2021-07-19T12:42:40Z</time>
      </trkpt>
      <trkpt lat="43.4825040" lon="-5.3476810">
        <ele>155.8</ele>
        <time>2021-07-19T12:42:41Z</time>
      </trkpt>
      <trkpt lat="43.4825130" lon="-5.3479120">
        <ele>155.8</ele>
        <time>2021-07-19T12:42:44Z</time>
      </trkpt>
      <trkpt lat="43.4825350" lon="-5.3481610">
        <ele>155.4</ele>
        <time>2021-07-19T12:42:47Z</time>
      </trkpt>
      <trkpt lat="43.4825450" lon="-5.3482410">
        <ele>154.8</ele>
        <time>2021-07-19T12:42:48Z</time>
      </trkpt>
      <trkpt lat="43.4825620" lon="-5.3483200">
        <ele>154.4</ele>
        <time>2021-07-19T12:42:49Z</time>
      </trkpt>
      <trkpt lat="43.4825820" lon="-5.3483970">
        <ele>154.0</ele>
        <time>2021-07-19T12:42:50Z</time>
      </trkpt>
      <trkpt lat="43.4826050" lon="-5.3484750">
        <ele>153.6</ele>
        <time>2021-07-19T12:42:51Z</time>
      </trkpt>
      <trkpt lat="43.4826610" lon="-5.3486150">
        <ele>153.6</ele>
        <time>2021-07-19T12:42:53Z</time>
      </trkpt>
      <trkpt lat="43.4827610" lon="-5.3488030">
        <ele>153.6</ele>
        <time>2021-07-19T12:42:56Z</time>
      </trkpt>
      <trkpt lat="43.4828650" lon="-5.3489910">
        <ele>153.6</ele>
        <time>2021-07-19T12:42:59Z</time>
      </trkpt>
      <trkpt lat="43.4829330" lon="-5.3491120">
        <ele>153.2</ele>
        <time>2021-07-19T12:43:01Z</time>
      </trkpt>
      <trkpt lat="43.4829620" lon="-5.3491750">
        <ele>152.8</ele>
        <time>2021-07-19T12:43:02Z</time>
      </trkpt>
      <trkpt lat="43.4829900" lon="-5.3492380">
        <ele>152.4</ele>
        <time>2021-07-19T12:43:03Z</time>
      </trkpt>
      <trkpt lat="43.4830170" lon="-5.3493020">
        <ele>152.0</ele>
        <time>2021-07-19T12:43:04Z</time>
      </trkpt>
      <trkpt lat="43.4830450" lon="-5.3493640">
        <ele>151.6</ele>
        <time>2021-07-19T12:43:05Z</time>
      </trkpt>
      <trkpt lat="43.4831200" lon="-5.3495440">
        <ele>151.6</ele>
        <time>2021-07-19T12:43:08Z</time>
      </trkpt>
      <trkpt lat="43.4831430" lon="-5.3496570">
        <ele>151.6</ele>
        <time>2021-07-19T12:43:10Z</time>
      </trkpt>
      <trkpt lat="43.4831500" lon="-5.3498350">
        <ele>151.6</ele>
        <time>2021-07-19T12:43:13Z</time>
      </trkpt>
      <trkpt lat="43.4831440" lon="-5.3500200">
        <ele>151.6</ele>
        <time>2021-07-19T12:43:16Z</time>
      </trkpt>
      <trkpt lat="43.4831400" lon="-5.3501410">
        <ele>151.6</ele>
        <time>2021-07-19T12:43:18Z</time>
      </trkpt>
      <trkpt lat="43.4831420" lon="-5.3502020">
        <ele>151.6</ele>
        <time>2021-07-19T12:43:19Z</time>
      </trkpt>
      <trkpt lat="43.4831630" lon="-5.3503820">
        <ele>151.6</ele>
        <time>2021-07-19T12:43:22Z</time>
      </trkpt>
      <trkpt lat="43.4831730" lon="-5.3504390">
        <ele>151.6</ele>
        <time>2021-07-19T12:43:23Z</time>
      </trkpt>
      <trkpt lat="43.4831970" lon="-5.3506120">
        <ele>151.6</ele>
        <time>2021-07-19T12:43:26Z</time>
      </trkpt>
      <trkpt lat="43.4832160" lon="-5.3507840">
        <ele>151.6</ele>
        <time>2021-07-19T12:43:29Z</time>
      </trkpt>
      <trkpt lat="43.4832340" lon="-5.3509000">
        <ele>151.6</ele>
        <time>2021-07-19T12:43:31Z</time>
      </trkpt>
      <trkpt lat="43.4832480" lon="-5.3510150">
        <ele>151.6</ele>
        <time>2021-07-19T12:43:33Z</time>
      </trkpt>
      <trkpt lat="43.4832550" lon="-5.3510690">
        <ele>152.0</ele>
        <time>2021-07-19T12:43:34Z</time>
      </trkpt>
      <trkpt lat="43.4832630" lon="-5.3511220">
        <ele>152.4</ele>
        <time>2021-07-19T12:43:35Z</time>
      </trkpt>
      <trkpt lat="43.4832740" lon="-5.3511780">
        <ele>152.8</ele>
        <time>2021-07-19T12:43:36Z</time>
      </trkpt>
      <trkpt lat="43.4832810" lon="-5.3512310">
        <ele>153.4</ele>
        <time>2021-07-19T12:43:37Z</time>
      </trkpt>
      <trkpt lat="43.4832880" lon="-5.3512870">
        <ele>153.8</ele>
        <time>2021-07-19T12:43:38Z</time>
      </trkpt>
      <trkpt lat="43.4833050" lon="-5.3513970">
        <ele>153.8</ele>
        <time>2021-07-19T12:43:40Z</time>
      </trkpt>
      <trkpt lat="43.4834010" lon="-5.3518050">
        <ele>153.8</ele>
        <time>2021-07-19T12:43:47Z</time>
      </trkpt>
      <trkpt lat="43.4834190" lon="-5.3518560">
        <ele>153.8</ele>
        <time>2021-07-19T12:43:48Z</time>
      </trkpt>
      <trkpt lat="43.4835440" lon="-5.3522080">
        <ele>153.8</ele>
        <time>2021-07-19T12:43:53Z</time>
      </trkpt>
      <trkpt lat="43.4837360" lon="-5.3526940">
        <ele>153.8</ele>
        <time>2021-07-19T12:43:58Z</time>
      </trkpt>
      <trkpt lat="43.4837740" lon="-5.3528020">
        <ele>152.6</ele>
        <time>2021-07-19T12:43:59Z</time>
      </trkpt>
      <trkpt lat="43.4838060" lon="-5.3529090">
        <ele>151.8</ele>
        <time>2021-07-19T12:44:00Z</time>
      </trkpt>
      <trkpt lat="43.4838310" lon="-5.3530150">
        <ele>151.0</ele>
        <time>2021-07-19T12:44:01Z</time>
      </trkpt>
      <trkpt lat="43.4838550" lon="-5.3531180">
        <ele>150.2</ele>
        <time>2021-07-19T12:44:02Z</time>
      </trkpt>
      <trkpt lat="43.4838790" lon="-5.3532180">
        <ele>149.4</ele>
        <time>2021-07-19T12:44:03Z</time>
      </trkpt>
      <trkpt lat="43.4838990" lon="-5.3533180">
        <ele>149.0</ele>
        <time>2021-07-19T12:44:04Z</time>
      </trkpt>
      <trkpt lat="43.4839190" lon="-5.3534190">
        <ele>148.4</ele>
        <time>2021-07-19T12:44:05Z</time>
      </trkpt>
      <trkpt lat="43.4839330" lon="-5.3535240">
        <ele>147.8</ele>
        <time>2021-07-19T12:44:06Z</time>
      </trkpt>
      <trkpt lat="43.4839420" lon="-5.3536210">
        <ele>147.2</ele>
        <time>2021-07-19T12:44:07Z</time>
      </trkpt>
      <trkpt lat="43.4839480" lon="-5.3537180">
        <ele>146.6</ele>
        <time>2021-07-19T12:44:08Z</time>
      </trkpt>
      <trkpt lat="43.4839560" lon="-5.3538180">
        <ele>146.0</ele>
        <time>2021-07-19T12:44:09Z</time>
      </trkpt>
      <trkpt lat="43.4839660" lon="-5.3539240">
        <ele>145.6</ele>
        <time>2021-07-19T12:44:10Z</time>
      </trkpt>
      <trkpt lat="43.4839770" lon="-5.3540310">
        <ele>145.0</ele>
        <time>2021-07-19T12:44:11Z</time>
      </trkpt>
      <trkpt lat="43.4839940" lon="-5.3541470">
        <ele>144.4</ele>
        <time>2021-07-19T12:44:12Z</time>
      </trkpt>
      <trkpt lat="43.4840240" lon="-5.3542680">
        <ele>143.8</ele>
        <time>2021-07-19T12:44:13Z</time>
      </trkpt>
      <trkpt lat="43.4840610" lon="-5.3543840">
        <ele>143.0</ele>
        <time>2021-07-19T12:44:14Z</time>
      </trkpt>
      <trkpt lat="43.4841020" lon="-5.3544980">
        <ele>142.4</ele>
        <time>2021-07-19T12:44:15Z</time>
      </trkpt>
      <trkpt lat="43.4841420" lon="-5.3545960">
        <ele>141.8</ele>
        <time>2021-07-19T12:44:16Z</time>
      </trkpt>
      <trkpt lat="43.4841860" lon="-5.3546770">
        <ele>141.2</ele>
        <time>2021-07-19T12:44:17Z</time>
      </trkpt>
      <trkpt lat="43.4842390" lon="-5.3547470">
        <ele>140.6</ele>
        <time>2021-07-19T12:44:18Z</time>
      </trkpt>
      <trkpt lat="43.4842990" lon="-5.3548050">
        <ele>139.6</ele>
        <time>2021-07-19T12:44:19Z</time>
      </trkpt>
      <trkpt lat="43.4843650" lon="-5.3548540">
        <ele>138.6</ele>
        <time>2021-07-19T12:44:20Z</time>
      </trkpt>
      <trkpt lat="43.4844310" lon="-5.3548920">
        <ele>137.8</ele>
        <time>2021-07-19T12:44:21Z</time>
      </trkpt>
      <trkpt lat="43.4845000" lon="-5.3549160">
        <ele>136.8</ele>
        <time>2021-07-19T12:44:22Z</time>
      </trkpt>
      <trkpt lat="43.4845580" lon="-5.3549300">
        <ele>135.0</ele>
        <time>2021-07-19T12:44:23Z</time>
      </trkpt>
      <trkpt lat="43.4846110" lon="-5.3549400">
        <ele>134.0</ele>
        <time>2021-07-19T12:44:24Z</time>
      </trkpt>
      <trkpt lat="43.4846580" lon="-5.3549450">
        <ele>133.0</ele>
        <time>2021-07-19T12:44:25Z</time>
      </trkpt>
      <trkpt lat="43.4847050" lon="-5.3549570">
        <ele>132.0</ele>
        <time>2021-07-19T12:44:26Z</time>
      </trkpt>
      <trkpt lat="43.4847490" lon="-5.3549740">
        <ele>131.0</ele>
        <time>2021-07-19T12:44:27Z</time>
      </trkpt>
      <trkpt lat="43.4847870" lon="-5.3550000">
        <ele>130.0</ele>
        <time>2021-07-19T12:44:28Z</time>
      </trkpt>
      <trkpt lat="43.4848220" lon="-5.3550370">
        <ele>129.2</ele>
        <time>2021-07-19T12:44:29Z</time>
      </trkpt>
      <trkpt lat="43.4848500" lon="-5.3550840">
        <ele>128.6</ele>
        <time>2021-07-19T12:44:30Z</time>
      </trkpt>
      <trkpt lat="43.4848700" lon="-5.3551410">
        <ele>128.0</ele>
        <time>2021-07-19T12:44:31Z</time>
      </trkpt>
      <trkpt lat="43.4848800" lon="-5.3552070">
        <ele>127.2</ele>
        <time>2021-07-19T12:44:32Z</time>
      </trkpt>
      <trkpt lat="43.4848830" lon="-5.3552800">
        <ele>126.6</ele>
        <time>2021-07-19T12:44:33Z</time>
      </trkpt>
      <trkpt lat="43.4848790" lon="-5.3553550">
        <ele>125.8</ele>
        <time>2021-07-19T12:44:34Z</time>
      </trkpt>
      <trkpt lat="43.4848630" lon="-5.3554420">
        <ele>125.2</ele>
        <time>2021-07-19T12:44:35Z</time>
      </trkpt>
      <trkpt lat="43.4848420" lon="-5.3555350">
        <ele>124.4</ele>
        <time>2021-07-19T12:44:36Z</time>
      </trkpt>
      <trkpt lat="43.4848160" lon="-5.3556430">
        <ele>124.0</ele>
        <time>2021-07-19T12:44:37Z</time>
      </trkpt>
      <trkpt lat="43.4847890" lon="-5.3557550">
        <ele>123.6</ele>
        <time>2021-07-19T12:44:38Z</time>
      </trkpt>
      <trkpt lat="43.4847660" lon="-5.3558710">
        <ele>123.2</ele>
        <time>2021-07-19T12:44:39Z</time>
      </trkpt>
      <trkpt lat="43.4847500" lon="-5.3559840">
        <ele>122.8</ele>
        <time>2021-07-19T12:44:40Z</time>
      </trkpt>
      <trkpt lat="43.4847400" lon="-5.3560960">
        <ele>122.4</ele>
        <time>2021-07-19T12:44:41Z</time>
      </trkpt>
      <trkpt lat="43.4847330" lon="-5.3563170">
        <ele>122.0</ele>
        <time>2021-07-19T12:44:43Z</time>
      </trkpt>
      <trkpt lat="43.4847390" lon="-5.3564240">
        <ele>121.6</ele>
        <time>2021-07-19T12:44:44Z</time>
      </trkpt>
      <trkpt lat="43.4847520" lon="-5.3565320">
        <ele>121.0</ele>
        <time>2021-07-19T12:44:45Z</time>
      </trkpt>
      <trkpt lat="43.4847700" lon="-5.3566350">
        <ele>120.6</ele>
        <time>2021-07-19T12:44:46Z</time>
      </trkpt>
      <trkpt lat="43.4847950" lon="-5.3567260">
        <ele>120.2</ele>
        <time>2021-07-19T12:44:47Z</time>
      </trkpt>
      <trkpt lat="43.4848610" lon="-5.3569820">
        <ele>120.2</ele>
        <time>2021-07-19T12:44:50Z</time>
      </trkpt>
      <trkpt lat="43.4849460" lon="-5.3573120">
        <ele>120.2</ele>
        <time>2021-07-19T12:44:55Z</time>
      </trkpt>
      <trkpt lat="43.4849790" lon="-5.3574330">
        <ele>120.2</ele>
        <time>2021-07-19T12:44:57Z</time>
      </trkpt>
      <trkpt lat="43.4850130" lon="-5.3576170">
        <ele>120.2</ele>
        <time>2021-07-19T12:45:00Z</time>
      </trkpt>
      <trkpt lat="43.4850250" lon="-5.3576720">
        <ele>120.2</ele>
        <time>2021-07-19T12:45:01Z</time>
      </trkpt>
      <trkpt lat="43.4850600" lon="-5.3578390">
        <ele>120.2</ele>
        <time>2021-07-19T12:45:04Z</time>
      </trkpt>
      <trkpt lat="43.4851060" lon="-5.3580570">
        <ele>120.2</ele>
        <time>2021-07-19T12:45:08Z</time>
      </trkpt>
      <trkpt lat="43.4851280" lon="-5.3581650">
        <ele>120.2</ele>
        <time>2021-07-19T12:45:10Z</time>
      </trkpt>
      <trkpt lat="43.4851700" lon="-5.3583610">
        <ele>120.2</ele>
        <time>2021-07-19T12:45:14Z</time>
      </trkpt>
      <trkpt lat="43.4851940" lon="-5.3584900">
        <ele>120.2</ele>
        <time>2021-07-19T12:45:17Z</time>
      </trkpt>
      <trkpt lat="43.4851900" lon="-5.3586710">
        <ele>120.2</ele>
        <time>2021-07-19T12:45:23Z</time>
      </trkpt>
      <trkpt lat="43.4851410" lon="-5.3588050">
        <ele>120.6</ele>
        <time>2021-07-19T12:45:27Z</time>
      </trkpt>
      <trkpt lat="43.4851300" lon="-5.3588390">
        <ele>121.0</ele>
        <time>2021-07-19T12:45:28Z</time>
      </trkpt>
      <trkpt lat="43.4851170" lon="-5.3588700">
        <ele>121.4</ele>
        <time>2021-07-19T12:45:29Z</time>
      </trkpt>
      <trkpt lat="43.4851050" lon="-5.3589000">
        <ele>121.8</ele>
        <time>2021-07-19T12:45:30Z</time>
      </trkpt>
      <trkpt lat="43.4850980" lon="-5.3589270">
        <ele>122.2</ele>
        <time>2021-07-19T12:45:31Z</time>
      </trkpt>
      <trkpt lat="43.4851060" lon="-5.3590160">
        <ele>122.2</ele>
        <time>2021-07-19T12:45:35Z</time>
      </trkpt>
      <trkpt lat="43.4851190" lon="-5.3590180">
        <ele>122.2</ele>
        <time>2021-07-19T12:45:38Z</time>
      </trkpt>
      <trkpt lat="43.4851280" lon="-5.3589760">
        <ele>122.2</ele>
        <time>2021-07-19T12:45:53Z</time>
      </trkpt>
      <trkpt lat="43.4851380" lon="-5.3589480">
        <ele>122.2</ele>
        <time>2021-07-19T12:45:54Z</time>
      </trkpt>
      <trkpt lat="43.4851430" lon="-5.3588620">
        <ele>122.2</ele>
        <time>2021-07-19T12:45:57Z</time>
      </trkpt>
      <trkpt lat="43.4851430" lon="-5.3587970">
        <ele>122.2</ele>
        <time>2021-07-19T12:45:59Z</time>
      </trkpt>
      <trkpt lat="43.4851800" lon="-5.3586070">
        <ele>122.2</ele>
        <time>2021-07-19T12:46:04Z</time>
      </trkpt>
      <trkpt lat="43.4852290" lon="-5.3586030">
        <ele>122.2</ele>
        <time>2021-07-19T12:46:06Z</time>
      </trkpt>
      <trkpt lat="43.4852540" lon="-5.3586080">
        <ele>122.2</ele>
        <time>2021-07-19T12:46:07Z</time>
      </trkpt>
      <trkpt lat="43.4853750" lon="-5.3587140">
        <ele>122.2</ele>
        <time>2021-07-19T12:46:12Z</time>
      </trkpt>
      <trkpt lat="43.4854450" lon="-5.3588440">
        <ele>122.2</ele>
        <time>2021-07-19T12:46:16Z</time>
      </trkpt>
      <trkpt lat="43.4854770" lon="-5.3589050">
        <ele>122.2</ele>
        <time>2021-07-19T12:46:18Z</time>
      </trkpt>
      <trkpt lat="43.4854950" lon="-5.3589500">
        <ele>121.8</ele>
        <time>2021-07-19T12:46:19Z</time>
      </trkpt>
      <trkpt lat="43.4855140" lon="-5.3590040">
        <ele>121.4</ele>
        <time>2021-07-19T12:46:20Z</time>
      </trkpt>
      <trkpt lat="43.4855330" lon="-5.3590590">
        <ele>121.0</ele>
        <time>2021-07-19T12:46:21Z</time>
      </trkpt>
      <trkpt lat="43.4855470" lon="-5.3591080">
        <ele>120.6</ele>
        <time>2021-07-19T12:46:22Z</time>
      </trkpt>
      <trkpt lat="43.4855520" lon="-5.3591590">
        <ele>120.2</ele>
        <time>2021-07-19T12:46:23Z</time>
      </trkpt>
      <trkpt lat="43.4855440" lon="-5.3592590">
        <ele>120.2</ele>
        <time>2021-07-19T12:46:25Z</time>
      </trkpt>
      <trkpt lat="43.4855290" lon="-5.3593740">
        <ele>120.2</ele>
        <time>2021-07-19T12:46:27Z</time>
      </trkpt>
      <trkpt lat="43.4855150" lon="-5.3594420">
        <ele>119.6</ele>
        <time>2021-07-19T12:46:28Z</time>
      </trkpt>
      <trkpt lat="43.4855020" lon="-5.3595170">
        <ele>119.2</ele>
        <time>2021-07-19T12:46:29Z</time>
      </trkpt>
      <trkpt lat="43.4854880" lon="-5.3595990">
        <ele>118.8</ele>
        <time>2021-07-19T12:46:30Z</time>
      </trkpt>
      <trkpt lat="43.4854720" lon="-5.3596860">
        <ele>118.2</ele>
        <time>2021-07-19T12:46:31Z</time>
      </trkpt>
      <trkpt lat="43.4854520" lon="-5.3597720">
        <ele>117.8</ele>
        <time>2021-07-19T12:46:32Z</time>
      </trkpt>
      <trkpt lat="43.4854150" lon="-5.3599520">
        <ele>117.4</ele>
        <time>2021-07-19T12:46:34Z</time>
      </trkpt>
      <trkpt lat="43.4854050" lon="-5.3600390">
        <ele>116.8</ele>
        <time>2021-07-19T12:46:35Z</time>
      </trkpt>
      <trkpt lat="43.4854020" lon="-5.3601220">
        <ele>116.4</ele>
        <time>2021-07-19T12:46:36Z</time>
      </trkpt>
      <trkpt lat="43.4854100" lon="-5.3602090">
        <ele>116.0</ele>
        <time>2021-07-19T12:46:37Z</time>
      </trkpt>
      <trkpt lat="43.4854250" lon="-5.3602910">
        <ele>115.4</ele>
        <time>2021-07-19T12:46:38Z</time>
      </trkpt>
      <trkpt lat="43.4854690" lon="-5.3604610">
        <ele>115.4</ele>
        <time>2021-07-19T12:46:40Z</time>
      </trkpt>
      <trkpt lat="43.4854950" lon="-5.3605390">
        <ele>115.4</ele>
        <time>2021-07-19T12:46:41Z</time>
      </trkpt>
      <trkpt lat="43.4855820" lon="-5.3608360">
        <ele>115.4</ele>
        <time>2021-07-19T12:46:45Z</time>
      </trkpt>
      <trkpt lat="43.4855970" lon="-5.3609080">
        <ele>115.4</ele>
        <time>2021-07-19T12:46:46Z</time>
      </trkpt>
      <trkpt lat="43.4856230" lon="-5.3610490">
        <ele>115.4</ele>
        <time>2021-07-19T12:46:48Z</time>
      </trkpt>
      <trkpt lat="43.4856430" lon="-5.3611250">
        <ele>115.4</ele>
        <time>2021-07-19T12:46:49Z</time>
      </trkpt>
      <trkpt lat="43.4856670" lon="-5.3612710">
        <ele>115.0</ele>
        <time>2021-07-19T12:46:51Z</time>
      </trkpt>
      <trkpt lat="43.4856780" lon="-5.3613450">
        <ele>114.0</ele>
        <time>2021-07-19T12:46:52Z</time>
      </trkpt>
      <trkpt lat="43.4856940" lon="-5.3614320">
        <ele>113.4</ele>
        <time>2021-07-19T12:46:53Z</time>
      </trkpt>
      <trkpt lat="43.4857160" lon="-5.3615230">
        <ele>112.8</ele>
        <time>2021-07-19T12:46:54Z</time>
      </trkpt>
      <trkpt lat="43.4857430" lon="-5.3616110">
        <ele>112.2</ele>
        <time>2021-07-19T12:46:55Z</time>
      </trkpt>
      <trkpt lat="43.4857720" lon="-5.3616930">
        <ele>111.6</ele>
        <time>2021-07-19T12:46:56Z</time>
      </trkpt>
      <trkpt lat="43.4858070" lon="-5.3617740">
        <ele>111.0</ele>
        <time>2021-07-19T12:46:57Z</time>
      </trkpt>
      <trkpt lat="43.4858380" lon="-5.3618570">
        <ele>110.4</ele>
        <time>2021-07-19T12:46:58Z</time>
      </trkpt>
      <trkpt lat="43.4858650" lon="-5.3619310">
        <ele>109.6</ele>
        <time>2021-07-19T12:46:59Z</time>
      </trkpt>
      <trkpt lat="43.4858880" lon="-5.3619980">
        <ele>108.6</ele>
        <time>2021-07-19T12:47:00Z</time>
      </trkpt>
      <trkpt lat="43.4859120" lon="-5.3620590">
        <ele>107.8</ele>
        <time>2021-07-19T12:47:01Z</time>
      </trkpt>
      <trkpt lat="43.4859430" lon="-5.3621190">
        <ele>107.0</ele>
        <time>2021-07-19T12:47:02Z</time>
      </trkpt>
      <trkpt lat="43.4859800" lon="-5.3621660">
        <ele>106.4</ele>
        <time>2021-07-19T12:47:03Z</time>
      </trkpt>
      <trkpt lat="43.4860280" lon="-5.3622030">
        <ele>105.6</ele>
        <time>2021-07-19T12:47:04Z</time>
      </trkpt>
      <trkpt lat="43.4860840" lon="-5.3622300">
        <ele>104.8</ele>
        <time>2021-07-19T12:47:05Z</time>
      </trkpt>
      <trkpt lat="43.4861410" lon="-5.3622390">
        <ele>104.2</ele>
        <time>2021-07-19T12:47:06Z</time>
      </trkpt>
      <trkpt lat="43.4861990" lon="-5.3622330">
        <ele>103.6</ele>
        <time>2021-07-19T12:47:07Z</time>
      </trkpt>
      <trkpt lat="43.4862550" lon="-5.3622220">
        <ele>103.0</ele>
        <time>2021-07-19T12:47:08Z</time>
      </trkpt>
      <trkpt lat="43.4863060" lon="-5.3622190">
        <ele>102.4</ele>
        <time>2021-07-19T12:47:09Z</time>
      </trkpt>
      <trkpt lat="43.4863550" lon="-5.3622180">
        <ele>101.8</ele>
        <time>2021-07-19T12:47:10Z</time>
      </trkpt>
      <trkpt lat="43.4864030" lon="-5.3622280">
        <ele>101.8</ele>
        <time>2021-07-19T12:47:11Z</time>
      </trkpt>
      <trkpt lat="43.4864530" lon="-5.3622480">
        <ele>101.8</ele>
        <time>2021-07-19T12:47:12Z</time>
      </trkpt>
      <trkpt lat="43.4865550" lon="-5.3623230">
        <ele>101.2</ele>
        <time>2021-07-19T12:47:14Z</time>
      </trkpt>
      <trkpt lat="43.4866090" lon="-5.3623720">
        <ele>100.8</ele>
        <time>2021-07-19T12:47:15Z</time>
      </trkpt>
      <trkpt lat="43.4866610" lon="-5.3624300">
        <ele>100.0</ele>
        <time>2021-07-19T12:47:16Z</time>
      </trkpt>
      <trkpt lat="43.4867140" lon="-5.3624900">
        <ele>99.6</ele>
        <time>2021-07-19T12:47:17Z</time>
      </trkpt>
      <trkpt lat="43.4867630" lon="-5.3625470">
        <ele>99.0</ele>
        <time>2021-07-19T12:47:18Z</time>
      </trkpt>
      <trkpt lat="43.4868090" lon="-5.3625940">
        <ele>98.6</ele>
        <time>2021-07-19T12:47:19Z</time>
      </trkpt>
      <trkpt lat="43.4868520" lon="-5.3626320">
        <ele>97.8</ele>
        <time>2021-07-19T12:47:20Z</time>
      </trkpt>
      <trkpt lat="43.4868980" lon="-5.3626650">
        <ele>97.0</ele>
        <time>2021-07-19T12:47:21Z</time>
      </trkpt>
      <trkpt lat="43.4869450" lon="-5.3626840">
        <ele>96.2</ele>
        <time>2021-07-19T12:47:22Z</time>
      </trkpt>
      <trkpt lat="43.4869960" lon="-5.3626880">
        <ele>95.6</ele>
        <time>2021-07-19T12:47:23Z</time>
      </trkpt>
      <trkpt lat="43.4870500" lon="-5.3626640">
        <ele>94.8</ele>
        <time>2021-07-19T12:47:24Z</time>
      </trkpt>
      <trkpt lat="43.4871010" lon="-5.3626270">
        <ele>94.0</ele>
        <time>2021-07-19T12:47:25Z</time>
      </trkpt>
      <trkpt lat="43.4871520" lon="-5.3625740">
        <ele>93.2</ele>
        <time>2021-07-19T12:47:26Z</time>
      </trkpt>
      <trkpt lat="43.4871990" lon="-5.3625160">
        <ele>92.4</ele>
        <time>2021-07-19T12:47:27Z</time>
      </trkpt>
      <trkpt lat="43.4872430" lon="-5.3624580">
        <ele>92.0</ele>
        <time>2021-07-19T12:47:28Z</time>
      </trkpt>
      <trkpt lat="43.4872850" lon="-5.3623990">
        <ele>91.6</ele>
        <time>2021-07-19T12:47:29Z</time>
      </trkpt>
      <trkpt lat="43.4873270" lon="-5.3623440">
        <ele>91.0</ele>
        <time>2021-07-19T12:47:30Z</time>
      </trkpt>
      <trkpt lat="43.4873690" lon="-5.3622880">
        <ele>90.6</ele>
        <time>2021-07-19T12:47:31Z</time>
      </trkpt>
      <trkpt lat="43.4874120" lon="-5.3622310">
        <ele>90.2</ele>
        <time>2021-07-19T12:47:32Z</time>
      </trkpt>
      <trkpt lat="43.4874590" lon="-5.3621750">
        <ele>89.6</ele>
        <time>2021-07-19T12:47:33Z</time>
      </trkpt>
      <trkpt lat="43.4875030" lon="-5.3621270">
        <ele>89.2</ele>
        <time>2021-07-19T12:47:34Z</time>
      </trkpt>
      <trkpt lat="43.4875500" lon="-5.3620810">
        <ele>88.8</ele>
        <time>2021-07-19T12:47:35Z</time>
      </trkpt>
      <trkpt lat="43.4875960" lon="-5.3620400">
        <ele>88.4</ele>
        <time>2021-07-19T12:47:36Z</time>
      </trkpt>
      <trkpt lat="43.4876430" lon="-5.3620010">
        <ele>87.8</ele>
        <time>2021-07-19T12:47:37Z</time>
      </trkpt>
      <trkpt lat="43.4876930" lon="-5.3619610">
        <ele>87.2</ele>
        <time>2021-07-19T12:47:38Z</time>
      </trkpt>
      <trkpt lat="43.4877450" lon="-5.3619170">
        <ele>86.6</ele>
        <time>2021-07-19T12:47:39Z</time>
      </trkpt>
      <trkpt lat="43.4877960" lon="-5.3618720">
        <ele>86.0</ele>
        <time>2021-07-19T12:47:40Z</time>
      </trkpt>
      <trkpt lat="43.4878550" lon="-5.3618330">
        <ele>85.0</ele>
        <time>2021-07-19T12:47:41Z</time>
      </trkpt>
      <trkpt lat="43.4879120" lon="-5.3617940">
        <ele>84.4</ele>
        <time>2021-07-19T12:47:42Z</time>
      </trkpt>
      <trkpt lat="43.4879690" lon="-5.3617580">
        <ele>83.8</ele>
        <time>2021-07-19T12:47:43Z</time>
      </trkpt>
      <trkpt lat="43.4880270" lon="-5.3617280">
        <ele>83.2</ele>
        <time>2021-07-19T12:47:44Z</time>
      </trkpt>
      <trkpt lat="43.4880830" lon="-5.3617090">
        <ele>82.6</ele>
        <time>2021-07-19T12:47:45Z</time>
      </trkpt>
      <trkpt lat="43.4881390" lon="-5.3617030">
        <ele>82.0</ele>
        <time>2021-07-19T12:47:46Z</time>
      </trkpt>
      <trkpt lat="43.4881950" lon="-5.3616930">
        <ele>81.4</ele>
        <time>2021-07-19T12:47:47Z</time>
      </trkpt>
      <trkpt lat="43.4882510" lon="-5.3616930">
        <ele>80.8</ele>
        <time>2021-07-19T12:47:48Z</time>
      </trkpt>
      <trkpt lat="43.4883090" lon="-5.3617030">
        <ele>80.8</ele>
        <time>2021-07-19T12:47:49Z</time>
      </trkpt>
      <trkpt lat="43.4884880" lon="-5.3617560">
        <ele>80.2</ele>
        <time>2021-07-19T12:47:52Z</time>
      </trkpt>
      <trkpt lat="43.4885490" lon="-5.3617920">
        <ele>79.8</ele>
        <time>2021-07-19T12:47:53Z</time>
      </trkpt>
      <trkpt lat="43.4886050" lon="-5.3618320">
        <ele>79.4</ele>
        <time>2021-07-19T12:47:54Z</time>
      </trkpt>
      <trkpt lat="43.4886660" lon="-5.3618870">
        <ele>79.0</ele>
        <time>2021-07-19T12:47:55Z</time>
      </trkpt>
      <trkpt lat="43.4887290" lon="-5.3619400">
        <ele>78.4</ele>
        <time>2021-07-19T12:47:56Z</time>
      </trkpt>
      <trkpt lat="43.4887890" lon="-5.3619890">
        <ele>77.8</ele>
        <time>2021-07-19T12:47:57Z</time>
      </trkpt>
      <trkpt lat="43.4888410" lon="-5.3620370">
        <ele>77.0</ele>
        <time>2021-07-19T12:47:58Z</time>
      </trkpt>
      <trkpt lat="43.4888910" lon="-5.3620820">
        <ele>76.2</ele>
        <time>2021-07-19T12:47:59Z</time>
      </trkpt>
      <trkpt lat="43.4889370" lon="-5.3621260">
        <ele>75.4</ele>
        <time>2021-07-19T12:48:00Z</time>
      </trkpt>
      <trkpt lat="43.4889840" lon="-5.3621690">
        <ele>74.6</ele>
        <time>2021-07-19T12:48:01Z</time>
      </trkpt>
      <trkpt lat="43.4890270" lon="-5.3622150">
        <ele>73.8</ele>
        <time>2021-07-19T12:48:02Z</time>
      </trkpt>
      <trkpt lat="43.4890680" lon="-5.3622650">
        <ele>73.0</ele>
        <time>2021-07-19T12:48:03Z</time>
      </trkpt>
      <trkpt lat="43.4891030" lon="-5.3623190">
        <ele>72.4</ele>
        <time>2021-07-19T12:48:04Z</time>
      </trkpt>
      <trkpt lat="43.4891300" lon="-5.3623760">
        <ele>71.8</ele>
        <time>2021-07-19T12:48:05Z</time>
      </trkpt>
      <trkpt lat="43.4891530" lon="-5.3624330">
        <ele>70.6</ele>
        <time>2021-07-19T12:48:06Z</time>
      </trkpt>
      <trkpt lat="43.4891670" lon="-5.3624880">
        <ele>70.0</ele>
        <time>2021-07-19T12:48:07Z</time>
      </trkpt>
      <trkpt lat="43.4891750" lon="-5.3625470">
        <ele>69.4</ele>
        <time>2021-07-19T12:48:08Z</time>
      </trkpt>
      <trkpt lat="43.4891690" lon="-5.3625970">
        <ele>69.0</ele>
        <time>2021-07-19T12:48:09Z</time>
      </trkpt>
      <trkpt lat="43.4891630" lon="-5.3626540">
        <ele>68.6</ele>
        <time>2021-07-19T12:48:10Z</time>
      </trkpt>
      <trkpt lat="43.4891510" lon="-5.3627180">
        <ele>68.2</ele>
        <time>2021-07-19T12:48:11Z</time>
      </trkpt>
      <trkpt lat="43.4891370" lon="-5.3627740">
        <ele>67.8</ele>
        <time>2021-07-19T12:48:12Z</time>
      </trkpt>
      <trkpt lat="43.4891080" lon="-5.3628350">
        <ele>67.2</ele>
        <time>2021-07-19T12:48:13Z</time>
      </trkpt>
      <trkpt lat="43.4890760" lon="-5.3628900">
        <ele>66.6</ele>
        <time>2021-07-19T12:48:14Z</time>
      </trkpt>
      <trkpt lat="43.4890440" lon="-5.3629500">
        <ele>65.8</ele>
        <time>2021-07-19T12:48:15Z</time>
      </trkpt>
      <trkpt lat="43.4890120" lon="-5.3630150">
        <ele>64.8</ele>
        <time>2021-07-19T12:48:16Z</time>
      </trkpt>
      <trkpt lat="43.4889790" lon="-5.3630900">
        <ele>64.0</ele>
        <time>2021-07-19T12:48:17Z</time>
      </trkpt>
      <trkpt lat="43.4889400" lon="-5.3631710">
        <ele>63.2</ele>
        <time>2021-07-19T12:48:18Z</time>
      </trkpt>
      <trkpt lat="43.4888980" lon="-5.3632530">
        <ele>62.4</ele>
        <time>2021-07-19T12:48:19Z</time>
      </trkpt>
      <trkpt lat="43.4888530" lon="-5.3633230">
        <ele>61.6</ele>
        <time>2021-07-19T12:48:20Z</time>
      </trkpt>
      <trkpt lat="43.4888090" lon="-5.3633920">
        <ele>60.8</ele>
        <time>2021-07-19T12:48:21Z</time>
      </trkpt>
      <trkpt lat="43.4887680" lon="-5.3634540">
        <ele>60.0</ele>
        <time>2021-07-19T12:48:22Z</time>
      </trkpt>
      <trkpt lat="43.4887290" lon="-5.3635180">
        <ele>59.2</ele>
        <time>2021-07-19T12:48:23Z</time>
      </trkpt>
      <trkpt lat="43.4886890" lon="-5.3635830">
        <ele>58.4</ele>
        <time>2021-07-19T12:48:24Z</time>
      </trkpt>
      <trkpt lat="43.4886530" lon="-5.3636440">
        <ele>57.6</ele>
        <time>2021-07-19T12:48:25Z</time>
      </trkpt>
      <trkpt lat="43.4886260" lon="-5.3637080">
        <ele>56.8</ele>
        <time>2021-07-19T12:48:26Z</time>
      </trkpt>
      <trkpt lat="43.4886020" lon="-5.3637740">
        <ele>56.0</ele>
        <time>2021-07-19T12:48:27Z</time>
      </trkpt>
      <trkpt lat="43.4885900" lon="-5.3638410">
        <ele>55.2</ele>
        <time>2021-07-19T12:48:28Z</time>
      </trkpt>
      <trkpt lat="43.4885910" lon="-5.3639200">
        <ele>54.6</ele>
        <time>2021-07-19T12:48:29Z</time>
      </trkpt>
      <trkpt lat="43.4886060" lon="-5.3639920">
        <ele>54.0</ele>
        <time>2021-07-19T12:48:30Z</time>
      </trkpt>
      <trkpt lat="43.4886290" lon="-5.3640550">
        <ele>52.6</ele>
        <time>2021-07-19T12:48:31Z</time>
      </trkpt>
      <trkpt lat="43.4886680" lon="-5.3641060">
        <ele>52.2</ele>
        <time>2021-07-19T12:48:32Z</time>
      </trkpt>
      <trkpt lat="43.4887140" lon="-5.3641270">
        <ele>51.6</ele>
        <time>2021-07-19T12:48:33Z</time>
      </trkpt>
      <trkpt lat="43.4887610" lon="-5.3641280">
        <ele>51.0</ele>
        <time>2021-07-19T12:48:34Z</time>
      </trkpt>
      <trkpt lat="43.4888090" lon="-5.3641120">
        <ele>50.4</ele>
        <time>2021-07-19T12:48:35Z</time>
      </trkpt>
      <trkpt lat="43.4888970" lon="-5.3640680">
        <ele>50.4</ele>
        <time>2021-07-19T12:48:37Z</time>
      </trkpt>
      <trkpt lat="43.4889430" lon="-5.3640470">
        <ele>50.0</ele>
        <time>2021-07-19T12:48:38Z</time>
      </trkpt>
      <trkpt lat="43.4889880" lon="-5.3640460">
        <ele>49.6</ele>
        <time>2021-07-19T12:48:39Z</time>
      </trkpt>
      <trkpt lat="43.4890360" lon="-5.3640410">
        <ele>49.0</ele>
        <time>2021-07-19T12:48:40Z</time>
      </trkpt>
      <trkpt lat="43.4890850" lon="-5.3640430">
        <ele>48.6</ele>
        <time>2021-07-19T12:48:41Z</time>
      </trkpt>
      <trkpt lat="43.4891310" lon="-5.3640570">
        <ele>48.0</ele>
        <time>2021-07-19T12:48:42Z</time>
      </trkpt>
      <trkpt lat="43.4891700" lon="-5.3640620">
        <ele>47.4</ele>
        <time>2021-07-19T12:48:43Z</time>
      </trkpt>
      <trkpt lat="43.4892090" lon="-5.3640610">
        <ele>46.8</ele>
        <time>2021-07-19T12:48:44Z</time>
      </trkpt>
      <trkpt lat="43.4892520" lon="-5.3640190">
        <ele>46.2</ele>
        <time>2021-07-19T12:48:45Z</time>
      </trkpt>
      <trkpt lat="43.4892850" lon="-5.3639650">
        <ele>45.6</ele>
        <time>2021-07-19T12:48:46Z</time>
      </trkpt>
      <trkpt lat="43.4893560" lon="-5.3638400">
        <ele>45.6</ele>
        <time>2021-07-19T12:48:48Z</time>
      </trkpt>
      <trkpt lat="43.4893990" lon="-5.3637830">
        <ele>45.6</ele>
        <time>2021-07-19T12:48:49Z</time>
      </trkpt>
      <trkpt lat="43.4894480" lon="-5.3637240">
        <ele>45.2</ele>
        <time>2021-07-19T12:48:50Z</time>
      </trkpt>
      <trkpt lat="43.4894990" lon="-5.3636690">
        <ele>44.8</ele>
        <time>2021-07-19T12:48:51Z</time>
      </trkpt>
      <trkpt lat="43.4895500" lon="-5.3636140">
        <ele>44.4</ele>
        <time>2021-07-19T12:48:52Z</time>
      </trkpt>
      <trkpt lat="43.4896030" lon="-5.3635500">
        <ele>43.8</ele>
        <time>2021-07-19T12:48:53Z</time>
      </trkpt>
      <trkpt lat="43.4896540" lon="-5.3634820">
        <ele>43.4</ele>
        <time>2021-07-19T12:48:54Z</time>
      </trkpt>
      <trkpt lat="43.4897120" lon="-5.3634110">
        <ele>42.4</ele>
        <time>2021-07-19T12:48:55Z</time>
      </trkpt>
      <trkpt lat="43.4897680" lon="-5.3633430">
        <ele>41.8</ele>
        <time>2021-07-19T12:48:56Z</time>
      </trkpt>
      <trkpt lat="43.4898270" lon="-5.3632660">
        <ele>41.0</ele>
        <time>2021-07-19T12:48:57Z</time>
      </trkpt>
      <trkpt lat="43.4898830" lon="-5.3631870">
        <ele>40.4</ele>
        <time>2021-07-19T12:48:58Z</time>
      </trkpt>
      <trkpt lat="43.4899390" lon="-5.3631040">
        <ele>39.6</ele>
        <time>2021-07-19T12:48:59Z</time>
      </trkpt>
      <trkpt lat="43.4899900" lon="-5.3630160">
        <ele>38.8</ele>
        <time>2021-07-19T12:49:00Z</time>
      </trkpt>
      <trkpt lat="43.4900360" lon="-5.3629240">
        <ele>38.2</ele>
        <time>2021-07-19T12:49:01Z</time>
      </trkpt>
      <trkpt lat="43.4900700" lon="-5.3628360">
        <ele>37.4</ele>
        <time>2021-07-19T12:49:02Z</time>
      </trkpt>
      <trkpt lat="43.4901050" lon="-5.3627560">
        <ele>36.6</ele>
        <time>2021-07-19T12:49:03Z</time>
      </trkpt>
      <trkpt lat="43.4901450" lon="-5.3626800">
        <ele>36.0</ele>
        <time>2021-07-19T12:49:04Z</time>
      </trkpt>
      <trkpt lat="43.4901810" lon="-5.3626060">
        <ele>35.4</ele>
        <time>2021-07-19T12:49:05Z</time>
      </trkpt>
      <trkpt lat="43.4902160" lon="-5.3625460">
        <ele>34.6</ele>
        <time>2021-07-19T12:49:06Z</time>
      </trkpt>
      <trkpt lat="43.4902510" lon="-5.3624940">
        <ele>33.8</ele>
        <time>2021-07-19T12:49:07Z</time>
      </trkpt>
      <trkpt lat="43.4902900" lon="-5.3624550">
        <ele>33.2</ele>
        <time>2021-07-19T12:49:08Z</time>
      </trkpt>
      <trkpt lat="43.4903320" lon="-5.3624230">
        <ele>32.4</ele>
        <time>2021-07-19T12:49:09Z</time>
      </trkpt>
      <trkpt lat="43.4903800" lon="-5.3624100">
        <ele>31.6</ele>
        <time>2021-07-19T12:49:10Z</time>
      </trkpt>
      <trkpt lat="43.4904320" lon="-5.3624060">
        <ele>31.0</ele>
        <time>2021-07-19T12:49:11Z</time>
      </trkpt>
      <trkpt lat="43.4904900" lon="-5.3624100">
        <ele>30.2</ele>
        <time>2021-07-19T12:49:12Z</time>
      </trkpt>
      <trkpt lat="43.4905480" lon="-5.3624220">
        <ele>29.6</ele>
        <time>2021-07-19T12:49:13Z</time>
      </trkpt>
      <trkpt lat="43.4906640" lon="-5.3624630">
        <ele>29.6</ele>
        <time>2021-07-19T12:49:15Z</time>
      </trkpt>
      <trkpt lat="43.4907240" lon="-5.3624950">
        <ele>29.6</ele>
        <time>2021-07-19T12:49:16Z</time>
      </trkpt>
      <trkpt lat="43.4909110" lon="-5.3626180">
        <ele>29.0</ele>
        <time>2021-07-19T12:49:19Z</time>
      </trkpt>
      <trkpt lat="43.4909810" lon="-5.3626620">
        <ele>28.2</ele>
        <time>2021-07-19T12:49:20Z</time>
      </trkpt>
      <trkpt lat="43.4910480" lon="-5.3627070">
        <ele>27.8</ele>
        <time>2021-07-19T12:49:21Z</time>
      </trkpt>
      <trkpt lat="43.4911100" lon="-5.3627480">
        <ele>27.4</ele>
        <time>2021-07-19T12:49:22Z</time>
      </trkpt>
      <trkpt lat="43.4914770" lon="-5.3629980">
        <ele>27.4</ele>
        <time>2021-07-19T12:49:28Z</time>
      </trkpt>
      <trkpt lat="43.4916430" lon="-5.3631380">
        <ele>26.8</ele>
        <time>2021-07-19T12:49:31Z</time>
      </trkpt>
      <trkpt lat="43.4916980" lon="-5.3631880">
        <ele>26.4</ele>
        <time>2021-07-19T12:49:32Z</time>
      </trkpt>
      <trkpt lat="43.4917490" lon="-5.3632410">
        <ele>25.8</ele>
        <time>2021-07-19T12:49:33Z</time>
      </trkpt>
      <trkpt lat="43.4918000" lon="-5.3632940">
        <ele>25.4</ele>
        <time>2021-07-19T12:49:34Z</time>
      </trkpt>
      <trkpt lat="43.4918560" lon="-5.3633450">
        <ele>24.8</ele>
        <time>2021-07-19T12:49:35Z</time>
      </trkpt>
      <trkpt lat="43.4919110" lon="-5.3633900">
        <ele>24.8</ele>
        <time>2021-07-19T12:49:36Z</time>
      </trkpt>
      <trkpt lat="43.4920320" lon="-5.3634640">
        <ele>24.4</ele>
        <time>2021-07-19T12:49:38Z</time>
      </trkpt>
      <trkpt lat="43.4920960" lon="-5.3634950">
        <ele>24.0</ele>
        <time>2021-07-19T12:49:39Z</time>
      </trkpt>
      <trkpt lat="43.4921600" lon="-5.3635170">
        <ele>23.6</ele>
        <time>2021-07-19T12:49:40Z</time>
      </trkpt>
      <trkpt lat="43.4922230" lon="-5.3635380">
        <ele>23.2</ele>
        <time>2021-07-19T12:49:41Z</time>
      </trkpt>
      <trkpt lat="43.4922850" lon="-5.3635610">
        <ele>22.8</ele>
        <time>2021-07-19T12:49:42Z</time>
      </trkpt>
      <trkpt lat="43.4925790" lon="-5.3637070">
        <ele>22.4</ele>
        <time>2021-07-19T12:49:47Z</time>
      </trkpt>
      <trkpt lat="43.4926290" lon="-5.3637430">
        <ele>22.0</ele>
        <time>2021-07-19T12:49:48Z</time>
      </trkpt>
      <trkpt lat="43.4926750" lon="-5.3637770">
        <ele>21.4</ele>
        <time>2021-07-19T12:49:49Z</time>
      </trkpt>
      <trkpt lat="43.4927180" lon="-5.3638140">
        <ele>21.0</ele>
        <time>2021-07-19T12:49:50Z</time>
      </trkpt>
      <trkpt lat="43.4927570" lon="-5.3638480">
        <ele>20.6</ele>
        <time>2021-07-19T12:49:51Z</time>
      </trkpt>
      <trkpt lat="43.4927950" lon="-5.3638760">
        <ele>20.2</ele>
        <time>2021-07-19T12:49:52Z</time>
      </trkpt>
      <trkpt lat="43.4928350" lon="-5.3639040">
        <ele>19.8</ele>
        <time>2021-07-19T12:49:53Z</time>
      </trkpt>
      <trkpt lat="43.4928770" lon="-5.3639360">
        <ele>19.4</ele>
        <time>2021-07-19T12:49:54Z</time>
      </trkpt>
      <trkpt lat="43.4929230" lon="-5.3639580">
        <ele>19.0</ele>
        <time>2021-07-19T12:49:55Z</time>
      </trkpt>
      <trkpt lat="43.4929650" lon="-5.3639670">
        <ele>18.6</ele>
        <time>2021-07-19T12:49:56Z</time>
      </trkpt>
      <trkpt lat="43.4930060" lon="-5.3639700">
        <ele>18.2</ele>
        <time>2021-07-19T12:49:57Z</time>
      </trkpt>
      <trkpt lat="43.4930430" lon="-5.3639510">
        <ele>17.6</ele>
        <time>2021-07-19T12:49:58Z</time>
      </trkpt>
      <trkpt lat="43.4930840" lon="-5.3639180">
        <ele>17.2</ele>
        <time>2021-07-19T12:49:59Z</time>
      </trkpt>
      <trkpt lat="43.4931220" lon="-5.3638810">
        <ele>16.8</ele>
        <time>2021-07-19T12:50:00Z</time>
      </trkpt>
      <trkpt lat="43.4931630" lon="-5.3638350">
        <ele>16.2</ele>
        <time>2021-07-19T12:50:01Z</time>
      </trkpt>
      <trkpt lat="43.4932070" lon="-5.3637790">
        <ele>16.2</ele>
        <time>2021-07-19T12:50:02Z</time>
      </trkpt>
      <trkpt lat="43.4932550" lon="-5.3637190">
        <ele>15.8</ele>
        <time>2021-07-19T12:50:03Z</time>
      </trkpt>
      <trkpt lat="43.4933160" lon="-5.3636600">
        <ele>15.4</ele>
        <time>2021-07-19T12:50:04Z</time>
      </trkpt>
      <trkpt lat="43.4933770" lon="-5.3636150">
        <ele>15.0</ele>
        <time>2021-07-19T12:50:05Z</time>
      </trkpt>
      <trkpt lat="43.4934360" lon="-5.3635790">
        <ele>14.6</ele>
        <time>2021-07-19T12:50:06Z</time>
      </trkpt>
      <trkpt lat="43.4934960" lon="-5.3635580">
        <ele>14.2</ele>
        <time>2021-07-19T12:50:07Z</time>
      </trkpt>
      <trkpt lat="43.4936070" lon="-5.3635790">
        <ele>14.2</ele>
        <time>2021-07-19T12:50:09Z</time>
      </trkpt>
      <trkpt lat="43.4937230" lon="-5.3637150">
        <ele>14.2</ele>
        <time>2021-07-19T12:50:12Z</time>
      </trkpt>
      <trkpt lat="43.4938230" lon="-5.3638190">
        <ele>14.2</ele>
        <time>2021-07-19T12:50:15Z</time>
      </trkpt>
      <trkpt lat="43.4938910" lon="-5.3638710">
        <ele>14.2</ele>
        <time>2021-07-19T12:50:17Z</time>
      </trkpt>
      <trkpt lat="43.4939610" lon="-5.3639210">
        <ele>14.2</ele>
        <time>2021-07-19T12:50:19Z</time>
      </trkpt>
      <trkpt lat="43.4940290" lon="-5.3639660">
        <ele>14.2</ele>
        <time>2021-07-19T12:50:21Z</time>
      </trkpt>
      <trkpt lat="43.4940800" lon="-5.3639970">
        <ele>14.2</ele>
        <time>2021-07-19T12:50:23Z</time>
      </trkpt>
      <trkpt lat="43.4940980" lon="-5.3640090">
        <ele>14.2</ele>
        <time>2021-07-19T12:50:24Z</time>
      </trkpt>
      <trkpt lat="43.4941250" lon="-5.3640320">
        <ele>14.2</ele>
        <time>2021-07-19T12:50:28Z</time>
      </trkpt>
      <trkpt lat="43.4940970" lon="-5.3640710">
        <ele>14.2</ele>
        <time>2021-07-19T12:50:34Z</time>
      </trkpt>
      <trkpt lat="43.4940980" lon="-5.3640840">
        <ele>13.8</ele>
        <time>2021-07-19T12:50:35Z</time>
      </trkpt>
      <trkpt lat="43.4941030" lon="-5.3641080">
        <ele>13.4</ele>
        <time>2021-07-19T12:50:36Z</time>
      </trkpt>
      <trkpt lat="43.4941160" lon="-5.3641440">
        <ele>13.0</ele>
        <time>2021-07-19T12:50:37Z</time>
      </trkpt>
      <trkpt lat="43.4941220" lon="-5.3641830">
        <ele>12.6</ele>
        <time>2021-07-19T12:50:38Z</time>
      </trkpt>
      <trkpt lat="43.4941270" lon="-5.3642260">
        <ele>12.2</ele>
        <time>2021-07-19T12:50:39Z</time>
      </trkpt>
      <trkpt lat="43.4941310" lon="-5.3642770">
        <ele>12.2</ele>
        <time>2021-07-19T12:50:40Z</time>
      </trkpt>
      <trkpt lat="43.4941350" lon="-5.3644200">
        <ele>11.6</ele>
        <time>2021-07-19T12:50:43Z</time>
      </trkpt>
      <trkpt lat="43.4941350" lon="-5.3644720">
        <ele>11.2</ele>
        <time>2021-07-19T12:50:44Z</time>
      </trkpt>
      <trkpt lat="43.4941260" lon="-5.3645210">
        <ele>10.8</ele>
        <time>2021-07-19T12:50:45Z</time>
      </trkpt>
      <trkpt lat="43.4941220" lon="-5.3645690">
        <ele>10.4</ele>
        <time>2021-07-19T12:50:46Z</time>
      </trkpt>
      <trkpt lat="43.4941190" lon="-5.3646190">
        <ele>9.8</ele>
        <time>2021-07-19T12:50:47Z</time>
      </trkpt>
      <trkpt lat="43.4941230" lon="-5.3646690">
        <ele>9.2</ele>
        <time>2021-07-19T12:50:48Z</time>
      </trkpt>
      <trkpt lat="43.4941340" lon="-5.3647200">
        <ele>8.6</ele>
        <time>2021-07-19T12:50:49Z</time>
      </trkpt>
      <trkpt lat="43.4941510" lon="-5.3647680">
        <ele>8.2</ele>
        <time>2021-07-19T12:50:50Z</time>
      </trkpt>
      <trkpt lat="43.4941740" lon="-5.3648150">
        <ele>7.6</ele>
        <time>2021-07-19T12:50:51Z</time>
      </trkpt>
      <trkpt lat="43.4941880" lon="-5.3648590">
        <ele>7.6</ele>
        <time>2021-07-19T12:50:52Z</time>
      </trkpt>
      <trkpt lat="43.4942280" lon="-5.3651400">
        <ele>7.6</ele>
        <time>2021-07-19T12:50:57Z</time>
      </trkpt>
      <trkpt lat="43.4942510" lon="-5.3653130">
        <ele>7.6</ele>
        <time>2021-07-19T12:51:00Z</time>
      </trkpt>
      <trkpt lat="43.4942520" lon="-5.3654390">
        <ele>7.6</ele>
        <time>2021-07-19T12:51:02Z</time>
      </trkpt>
      <trkpt lat="43.4942810" lon="-5.3656770">
        <ele>7.6</ele>
        <time>2021-07-19T12:51:06Z</time>
      </trkpt>
      <trkpt lat="43.4943110" lon="-5.3657920">
        <ele>7.6</ele>
        <time>2021-07-19T12:51:08Z</time>
      </trkpt>
      <trkpt lat="43.4943220" lon="-5.3660310">
        <ele>7.6</ele>
        <time>2021-07-19T12:51:13Z</time>
      </trkpt>
      <trkpt lat="43.4943310" lon="-5.3662700">
        <ele>7.2</ele>
        <time>2021-07-19T12:51:17Z</time>
      </trkpt>
      <trkpt lat="43.4943360" lon="-5.3663330">
        <ele>6.8</ele>
        <time>2021-07-19T12:51:18Z</time>
      </trkpt>
      <trkpt lat="43.4943440" lon="-5.3663980">
        <ele>6.4</ele>
        <time>2021-07-19T12:51:19Z</time>
      </trkpt>
      <trkpt lat="43.4943500" lon="-5.3664660">
        <ele>6.0</ele>
        <time>2021-07-19T12:51:20Z</time>
      </trkpt>
      <trkpt lat="43.4943530" lon="-5.3665270">
        <ele>5.6</ele>
        <time>2021-07-19T12:51:21Z</time>
      </trkpt>
      <trkpt lat="43.4943620" lon="-5.3667660">
        <ele>5.6</ele>
        <time>2021-07-19T12:51:25Z</time>
      </trkpt>
      <trkpt lat="43.4943230" lon="-5.3669980">
        <ele>5.6</ele>
        <time>2021-07-19T12:51:30Z</time>
      </trkpt>
      <trkpt lat="43.4942890" lon="-5.3670740">
        <ele>5.2</ele>
        <time>2021-07-19T12:51:32Z</time>
      </trkpt>
      <trkpt lat="43.4942680" lon="-5.3671210">
        <ele>4.8</ele>
        <time>2021-07-19T12:51:33Z</time>
      </trkpt>
      <trkpt lat="43.4942490" lon="-5.3671730">
        <ele>4.4</ele>
        <time>2021-07-19T12:51:34Z</time>
      </trkpt>
      <trkpt lat="43.4942430" lon="-5.3672370">
        <ele>3.8</ele>
        <time>2021-07-19T12:51:35Z</time>
      </trkpt>
      <trkpt lat="43.4942430" lon="-5.3672950">
        <ele>3.4</ele>
        <time>2021-07-19T12:51:36Z</time>
      </trkpt>
      <trkpt lat="43.4942590" lon="-5.3673990">
        <ele>3.4</ele>
        <time>2021-07-19T12:51:38Z</time>
      </trkpt>
      <trkpt lat="43.4942660" lon="-5.3675120">
        <ele>3.4</ele>
        <time>2021-07-19T12:51:40Z</time>
      </trkpt>
      <trkpt lat="43.4942690" lon="-5.3675670">
        <ele>3.0</ele>
        <time>2021-07-19T12:51:41Z</time>
      </trkpt>
      <trkpt lat="43.4942650" lon="-5.3676270">
        <ele>2.6</ele>
        <time>2021-07-19T12:51:42Z</time>
      </trkpt>
      <trkpt lat="43.4942610" lon="-5.3676820">
        <ele>2.2</ele>
        <time>2021-07-19T12:51:43Z</time>
      </trkpt>
      <trkpt lat="43.4942630" lon="-5.3677450">
        <ele>1.8</ele>
        <time>2021-07-19T12:51:44Z</time>
      </trkpt>
      <trkpt lat="43.4942820" lon="-5.3678200">
        <ele>1.4</ele>
        <time>2021-07-19T12:51:45Z</time>
      </trkpt>
      <trkpt lat="43.4943030" lon="-5.3678930">
        <ele>1.4</ele>
        <time>2021-07-19T12:51:46Z</time>
      </trkpt>
      <trkpt lat="43.4943450" lon="-5.3681600">
        <ele>1.4</ele>
        <time>2021-07-19T12:51:50Z</time>
      </trkpt>
      <trkpt lat="43.4943520" lon="-5.3682130">
        <ele>1.4</ele>
        <time>2021-07-19T12:51:51Z</time>
      </trkpt>
      <trkpt lat="43.4943640" lon="-5.3683800">
        <ele>0.8</ele>
        <time>2021-07-19T12:51:54Z</time>
      </trkpt>
      <trkpt lat="43.4943660" lon="-5.3684380">
        <ele>0.4</ele>
        <time>2021-07-19T12:51:55Z</time>
      </trkpt>
      <trkpt lat="43.4943630" lon="-5.3684900">
        <ele>0.0</ele>
        <time>2021-07-19T12:51:56Z</time>
      </trkpt>
      <trkpt lat="43.4943630" lon="-5.3685350">
        <ele>-0.4</ele>
        <time>2021-07-19T12:51:57Z</time>
      </trkpt>
      <trkpt lat="43.4943640" lon="-5.3685700">
        <ele>-0.8</ele>
        <time>2021-07-19T12:51:58Z</time>
      </trkpt>
      <trkpt lat="43.4943570" lon="-5.3686380">
        <ele>-0.8</ele>
        <time>2021-07-19T12:52:00Z</time>
      </trkpt>
      <trkpt lat="43.4943520" lon="-5.3687040">
        <ele>-0.8</ele>
        <time>2021-07-19T12:52:02Z</time>
      </trkpt>
      <trkpt lat="43.4943450" lon="-5.3687600">
        <ele>-0.8</ele>
        <time>2021-07-19T12:52:04Z</time>
      </trkpt>
      <trkpt lat="43.4943340" lon="-5.3688310">
        <ele>-0.8</ele>
        <time>2021-07-19T12:52:06Z</time>
      </trkpt>
      <trkpt lat="43.4943090" lon="-5.3689770">
        <ele>-0.8</ele>
        <time>2021-07-19T12:52:09Z</time>
      </trkpt>
      <trkpt lat="43.4942970" lon="-5.3690280">
        <ele>-0.8</ele>
        <time>2021-07-19T12:52:10Z</time>
      </trkpt>
      <trkpt lat="43.4943050" lon="-5.3692400">
        <ele>-0.8</ele>
        <time>2021-07-19T12:52:14Z</time>
      </trkpt>
      <trkpt lat="43.4943110" lon="-5.3692870">
        <ele>-0.8</ele>
        <time>2021-07-19T12:52:15Z</time>
      </trkpt>
      <trkpt lat="43.4943350" lon="-5.3694570">
        <ele>-0.8</ele>
        <time>2021-07-19T12:52:19Z</time>
      </trkpt>
      <trkpt lat="43.4943190" lon="-5.3697090">
        <ele>-0.8</ele>
        <time>2021-07-19T12:52:24Z</time>
      </trkpt>
      <trkpt lat="43.4943080" lon="-5.3698180">
        <ele>-0.8</ele>
        <time>2021-07-19T12:52:26Z</time>
      </trkpt>
      <trkpt lat="43.4943090" lon="-5.3699660">
        <ele>-0.8</ele>
        <time>2021-07-19T12:52:29Z</time>
      </trkpt>
      <trkpt lat="43.4943110" lon="-5.3700620">
        <ele>-1.2</ele>
        <time>2021-07-19T12:52:31Z</time>
      </trkpt>
      <trkpt lat="43.4943120" lon="-5.3701030">
        <ele>-1.6</ele>
        <time>2021-07-19T12:52:32Z</time>
      </trkpt>
      <trkpt lat="43.4943130" lon="-5.3701450">
        <ele>-2.0</ele>
        <time>2021-07-19T12:52:33Z</time>
      </trkpt>
      <trkpt lat="43.4943100" lon="-5.3701870">
        <ele>-2.6</ele>
        <time>2021-07-19T12:52:34Z</time>
      </trkpt>
      <trkpt lat="43.4943130" lon="-5.3702310">
        <ele>-3.0</ele>
        <time>2021-07-19T12:52:35Z</time>
      </trkpt>
      <trkpt lat="43.4943240" lon="-5.3704610">
        <ele>-3.0</ele>
        <time>2021-07-19T12:52:39Z</time>
      </trkpt>
      <trkpt lat="43.4943340" lon="-5.3705670">
        <ele>-3.0</ele>
        <time>2021-07-19T12:52:41Z</time>
      </trkpt>
      <trkpt lat="43.4943460" lon="-5.3706620">
        <ele>-3.0</ele>
        <time>2021-07-19T12:52:43Z</time>
      </trkpt>
      <trkpt lat="43.4943870" lon="-5.3708130">
        <ele>-3.0</ele>
        <time>2021-07-19T12:52:47Z</time>
      </trkpt>
      <trkpt lat="43.4943990" lon="-5.3708780">
        <ele>-3.0</ele>
        <time>2021-07-19T12:52:49Z</time>
      </trkpt>
      <trkpt lat="43.4944080" lon="-5.3709370">
        <ele>-3.0</ele>
        <time>2021-07-19T12:52:51Z</time>
      </trkpt>
      <trkpt lat="43.4944470" lon="-5.3710310">
        <ele>-3.0</ele>
        <time>2021-07-19T12:52:54Z</time>
      </trkpt>
      <trkpt lat="43.4944600" lon="-5.3711120">
        <ele>-3.4</ele>
        <time>2021-07-19T12:52:56Z</time>
      </trkpt>
      <trkpt lat="43.4944680" lon="-5.3711500">
        <ele>-3.8</ele>
        <time>2021-07-19T12:52:57Z</time>
      </trkpt>
      <trkpt lat="43.4944770" lon="-5.3711960">
        <ele>-4.2</ele>
        <time>2021-07-19T12:52:58Z</time>
      </trkpt>
      <trkpt lat="43.4944830" lon="-5.3712360">
        <ele>-4.6</ele>
        <time>2021-07-19T12:52:59Z</time>
      </trkpt>
      <trkpt lat="43.4944880" lon="-5.3712740">
        <ele>-5.0</ele>
        <time>2021-07-19T12:53:00Z</time>
      </trkpt>
      <trkpt lat="43.4945040" lon="-5.3713940">
        <ele>-5.0</ele>
        <time>2021-07-19T12:53:03Z</time>
      </trkpt>
      <trkpt lat="43.4945100" lon="-5.3714940">
        <ele>-5.0</ele>
        <time>2021-07-19T12:53:05Z</time>
      </trkpt>
      <trkpt lat="43.4945040" lon="-5.3716000">
        <ele>-5.4</ele>
        <time>2021-07-19T12:53:07Z</time>
      </trkpt>
      <trkpt lat="43.4944950" lon="-5.3716590">
        <ele>-5.8</ele>
        <time>2021-07-19T12:53:08Z</time>
      </trkpt>
      <trkpt lat="43.4944850" lon="-5.3717030">
        <ele>-6.2</ele>
        <time>2021-07-19T12:53:09Z</time>
      </trkpt>
      <trkpt lat="43.4944780" lon="-5.3717480">
        <ele>-6.6</ele>
        <time>2021-07-19T12:53:10Z</time>
      </trkpt>
      <trkpt lat="43.4944710" lon="-5.3717920">
        <ele>-7.0</ele>
        <time>2021-07-19T12:53:11Z</time>
      </trkpt>
      <trkpt lat="43.4944580" lon="-5.3719400">
        <ele>-7.0</ele>
        <time>2021-07-19T12:53:14Z</time>
      </trkpt>
      <trkpt lat="43.4944140" lon="-5.3723520">
        <ele>-7.0</ele>
        <time>2021-07-19T12:53:23Z</time>
      </trkpt>
      <trkpt lat="43.4943910" lon="-5.3724520">
        <ele>-7.0</ele>
        <time>2021-07-19T12:53:27Z</time>
      </trkpt>
      <trkpt lat="43.4943700" lon="-5.3725490">
        <ele>-9.0</ele>
        <time>2021-07-19T12:54:39Z</time>
      </trkpt>
      <trkpt lat="43.4943640" lon="-5.3725830">
        <ele>-9.0</ele>
        <time>2021-07-19T12:54:40Z</time>
      </trkpt>
      <trkpt lat="43.4943670" lon="-5.3727450">
        <ele>-9.0</ele>
        <time>2021-07-19T12:54:44Z</time>
      </trkpt>
      <trkpt lat="43.4943950" lon="-5.3729910">
        <ele>-9.0</ele>
        <time>2021-07-19T12:54:50Z</time>
      </trkpt>
      <trkpt lat="43.4944200" lon="-5.3732290">
        <ele>-9.0</ele>
        <time>2021-07-19T12:54:56Z</time>
      </trkpt>
      <trkpt lat="43.4944880" lon="-5.3734430">
        <ele>-9.0</ele>
        <time>2021-07-19T12:55:00Z</time>
      </trkpt>
      <trkpt lat="43.4945500" lon="-5.3737290">
        <ele>-9.0</ele>
        <time>2021-07-19T12:55:05Z</time>
      </trkpt>
      <trkpt lat="43.4945790" lon="-5.3738230">
        <ele>-9.0</ele>
        <time>2021-07-19T12:55:07Z</time>
      </trkpt>
      <trkpt lat="43.4946460" lon="-5.3739560">
        <ele>-9.4</ele>
        <time>2021-07-19T12:55:10Z</time>
      </trkpt>
      <trkpt lat="43.4946810" lon="-5.3739930">
        <ele>-9.8</ele>
        <time>2021-07-19T12:55:11Z</time>
      </trkpt>
      <trkpt lat="43.4947150" lon="-5.3740260">
        <ele>-10.2</ele>
        <time>2021-07-19T12:55:12Z</time>
      </trkpt>
      <trkpt lat="43.4947480" lon="-5.3740500">
        <ele>-10.8</ele>
        <time>2021-07-19T12:55:13Z</time>
      </trkpt>
      <trkpt lat="43.4947830" lon="-5.3740580">
        <ele>-11.2</ele>
        <time>2021-07-19T12:55:14Z</time>
      </trkpt>
      <trkpt lat="43.4948150" lon="-5.3740640">
        <ele>-11.2</ele>
        <time>2021-07-19T12:55:15Z</time>
      </trkpt>
      <trkpt lat="43.4948490" lon="-5.3740640">
        <ele>-11.2</ele>
        <time>2021-07-19T12:55:16Z</time>
      </trkpt>
      <trkpt lat="43.4949780" lon="-5.3740530">
        <ele>-11.2</ele>
        <time>2021-07-19T12:55:19Z</time>
      </trkpt>
      <trkpt lat="43.4950190" lon="-5.3740550">
        <ele>-11.6</ele>
        <time>2021-07-19T12:55:20Z</time>
      </trkpt>
      <trkpt lat="43.4950670" lon="-5.3740520">
        <ele>-12.0</ele>
        <time>2021-07-19T12:55:21Z</time>
      </trkpt>
      <trkpt lat="43.4951050" lon="-5.3740540">
        <ele>-12.4</ele>
        <time>2021-07-19T12:55:22Z</time>
      </trkpt>
      <trkpt lat="43.4951370" lon="-5.3740520">
        <ele>-12.8</ele>
        <time>2021-07-19T12:55:23Z</time>
      </trkpt>
      <trkpt lat="43.4951680" lon="-5.3740460">
        <ele>-13.2</ele>
        <time>2021-07-19T12:55:24Z</time>
      </trkpt>
      <trkpt lat="43.4952530" lon="-5.3740190">
        <ele>-13.2</ele>
        <time>2021-07-19T12:55:27Z</time>
      </trkpt>
      <trkpt lat="43.4952770" lon="-5.3740260">
        <ele>-13.2</ele>
        <time>2021-07-19T12:55:28Z</time>
      </trkpt>
      <trkpt lat="43.4952950" lon="-5.3740320">
        <ele>-13.2</ele>
        <time>2021-07-19T12:55:29Z</time>
      </trkpt>
      <trkpt lat="43.4953820" lon="-5.3741200">
        <ele>-13.2</ele>
        <time>2021-07-19T12:55:33Z</time>
      </trkpt>
      <trkpt lat="43.4954080" lon="-5.3741470">
        <ele>-13.2</ele>
        <time>2021-07-19T12:55:34Z</time>
      </trkpt>
      <trkpt lat="43.4954970" lon="-5.3743710">
        <ele>-13.2</ele>
        <time>2021-07-19T12:55:39Z</time>
      </trkpt>
      <trkpt lat="43.4955440" lon="-5.3745200">
        <ele>-13.2</ele>
        <time>2021-07-19T12:55:42Z</time>
      </trkpt>
      <trkpt lat="43.4956370" lon="-5.3747290">
        <ele>-13.2</ele>
        <time>2021-07-19T12:55:46Z</time>
      </trkpt>
      <trkpt lat="43.4956860" lon="-5.3748290">
        <ele>-13.2</ele>
        <time>2021-07-19T12:55:48Z</time>
      </trkpt>
      <trkpt lat="43.4957760" lon="-5.3750550">
        <ele>-13.2</ele>
        <time>2021-07-19T12:55:52Z</time>
      </trkpt>
      <trkpt lat="43.4959660" lon="-5.3753980">
        <ele>-13.2</ele>
        <time>2021-07-19T12:56:00Z</time>
      </trkpt>
      <trkpt lat="43.4961300" lon="-5.3756400">
        <ele>-13.2</ele>
        <time>2021-07-19T12:56:07Z</time>
      </trkpt>
      <trkpt lat="43.4963700" lon="-5.3758780">
        <ele>-13.2</ele>
        <time>2021-07-19T12:56:16Z</time>
      </trkpt>
      <trkpt lat="43.4964750" lon="-5.3759970">
        <ele>-13.2</ele>
        <time>2021-07-19T12:56:22Z</time>
      </trkpt>
      <trkpt lat="43.4964740" lon="-5.3760070">
        <ele>-13.2</ele>
        <time>2021-07-19T12:56:27Z</time>
      </trkpt>
      <trkpt lat="43.4965230" lon="-5.3760140">
        <ele>-15.2</ele>
        <time>2021-07-19T12:58:48Z</time>
      </trkpt>
      <trkpt lat="43.4965800" lon="-5.3760150">
        <ele>-15.2</ele>
        <time>2021-07-19T12:58:52Z</time>
      </trkpt>
      <trkpt lat="43.4966210" lon="-5.3760290">
        <ele>-15.2</ele>
        <time>2021-07-19T12:58:56Z</time>
      </trkpt>
      <trkpt lat="43.4966980" lon="-5.3760460">
        <ele>-15.2</ele>
        <time>2021-07-19T12:58:59Z</time>
      </trkpt>
      <trkpt lat="43.4968920" lon="-5.3760830">
        <ele>-15.2</ele>
        <time>2021-07-19T12:59:04Z</time>
      </trkpt>
      <trkpt lat="43.4971030" lon="-5.3760980">
        <ele>-15.2</ele>
        <time>2021-07-19T12:59:09Z</time>
      </trkpt>
      <trkpt lat="43.4972840" lon="-5.3761750">
        <ele>-15.2</ele>
        <time>2021-07-19T12:59:14Z</time>
      </trkpt>
      <trkpt lat="43.4974470" lon="-5.3763350">
        <ele>-15.2</ele>
        <time>2021-07-19T12:59:20Z</time>
      </trkpt>
      <trkpt lat="43.4975840" lon="-5.3765170">
        <ele>-15.2</ele>
        <time>2021-07-19T12:59:25Z</time>
      </trkpt>
      <trkpt lat="43.4977040" lon="-5.3766320">
        <ele>-15.2</ele>
        <time>2021-07-19T12:59:30Z</time>
      </trkpt>
      <trkpt lat="43.4977220" lon="-5.3766600">
        <ele>-15.2</ele>
        <time>2021-07-19T12:59:31Z</time>
      </trkpt>
      <trkpt lat="43.4977750" lon="-5.3767720">
        <ele>-15.2</ele>
        <time>2021-07-19T12:59:35Z</time>
      </trkpt>
      <trkpt lat="43.4977890" lon="-5.3768190">
        <ele>-14.4</ele>
        <time>2021-07-19T12:59:37Z</time>
      </trkpt>
      <trkpt lat="43.4978000" lon="-5.3768500">
        <ele>-14.0</ele>
        <time>2021-07-19T12:59:38Z</time>
      </trkpt>
      <trkpt lat="43.4978120" lon="-5.3768870">
        <ele>-13.6</ele>
        <time>2021-07-19T12:59:39Z</time>
      </trkpt>
      <trkpt lat="43.4978300" lon="-5.3769220">
        <ele>-13.2</ele>
        <time>2021-07-19T12:59:40Z</time>
      </trkpt>
      <trkpt lat="43.4979060" lon="-5.3770280">
        <ele>-13.2</ele>
        <time>2021-07-19T12:59:43Z</time>
      </trkpt>
      <trkpt lat="43.4980270" lon="-5.3772290">
        <ele>-13.2</ele>
        <time>2021-07-19T12:59:49Z</time>
      </trkpt>
      <trkpt lat="43.4980670" lon="-5.3772820">
        <ele>-13.2</ele>
        <time>2021-07-19T12:59:51Z</time>
      </trkpt>
      <trkpt lat="43.4981110" lon="-5.3773400">
        <ele>-12.8</ele>
        <time>2021-07-19T12:59:53Z</time>
      </trkpt>
      <trkpt lat="43.4981350" lon="-5.3773660">
        <ele>-12.4</ele>
        <time>2021-07-19T12:59:54Z</time>
      </trkpt>
      <trkpt lat="43.4981570" lon="-5.3773930">
        <ele>-12.0</ele>
        <time>2021-07-19T12:59:55Z</time>
      </trkpt>
      <trkpt lat="43.4981800" lon="-5.3774140">
        <ele>-11.6</ele>
        <time>2021-07-19T12:59:56Z</time>
      </trkpt>
      <trkpt lat="43.4982000" lon="-5.3774270">
        <ele>-11.2</ele>
        <time>2021-07-19T12:59:57Z</time>
      </trkpt>
      <trkpt lat="43.4983090" lon="-5.3775590">
        <ele>-11.2</ele>
        <time>2021-07-19T13:00:02Z</time>
      </trkpt>
      <trkpt lat="43.4983550" lon="-5.3776150">
        <ele>-11.2</ele>
        <time>2021-07-19T13:00:04Z</time>
      </trkpt>
      <trkpt lat="43.4984370" lon="-5.3777290">
        <ele>-10.8</ele>
        <time>2021-07-19T13:00:08Z</time>
      </trkpt>
      <trkpt lat="43.4984490" lon="-5.3777620">
        <ele>-10.4</ele>
        <time>2021-07-19T13:00:09Z</time>
      </trkpt>
      <trkpt lat="43.4984680" lon="-5.3777910">
        <ele>-10.0</ele>
        <time>2021-07-19T13:00:10Z</time>
      </trkpt>
      <trkpt lat="43.4984890" lon="-5.3778230">
        <ele>-9.4</ele>
        <time>2021-07-19T13:00:11Z</time>
      </trkpt>
      <trkpt lat="43.4985070" lon="-5.3778510">
        <ele>-9.0</ele>
        <time>2021-07-19T13:00:12Z</time>
      </trkpt>
      <trkpt lat="43.4986430" lon="-5.3780650">
        <ele>-8.6</ele>
        <time>2021-07-19T13:00:19Z</time>
      </trkpt>
      <trkpt lat="43.4986680" lon="-5.3780930">
        <ele>-8.2</ele>
        <time>2021-07-19T13:00:20Z</time>
      </trkpt>
      <trkpt lat="43.4986970" lon="-5.3781210">
        <ele>-7.8</ele>
        <time>2021-07-19T13:00:21Z</time>
      </trkpt>
      <trkpt lat="43.4987290" lon="-5.3781500">
        <ele>-7.4</ele>
        <time>2021-07-19T13:00:22Z</time>
      </trkpt>
      <trkpt lat="43.4987620" lon="-5.3781770">
        <ele>-7.0</ele>
        <time>2021-07-19T13:00:23Z</time>
      </trkpt>
      <trkpt lat="43.4988770" lon="-5.3783320">
        <ele>-7.0</ele>
        <time>2021-07-19T13:00:27Z</time>
      </trkpt>
      <trkpt lat="43.4990240" lon="-5.3785220">
        <ele>-7.0</ele>
        <time>2021-07-19T13:00:32Z</time>
      </trkpt>
      <trkpt lat="43.4991280" lon="-5.3786480">
        <ele>-7.0</ele>
        <time>2021-07-19T13:00:35Z</time>
      </trkpt>
      <trkpt lat="43.4993420" lon="-5.3788960">
        <ele>-7.0</ele>
        <time>2021-07-19T13:00:40Z</time>
      </trkpt>
      <trkpt lat="43.4994320" lon="-5.3789880">
        <ele>-7.4</ele>
        <time>2021-07-19T13:00:42Z</time>
      </trkpt>
      <trkpt lat="43.4994730" lon="-5.3790350">
        <ele>-7.8</ele>
        <time>2021-07-19T13:00:43Z</time>
      </trkpt>
      <trkpt lat="43.4995090" lon="-5.3790830">
        <ele>-8.2</ele>
        <time>2021-07-19T13:00:44Z</time>
      </trkpt>
      <trkpt lat="43.4995410" lon="-5.3791380">
        <ele>-8.6</ele>
        <time>2021-07-19T13:00:45Z</time>
      </trkpt>
      <trkpt lat="43.4995660" lon="-5.3791960">
        <ele>-9.0</ele>
        <time>2021-07-19T13:00:46Z</time>
      </trkpt>
      <trkpt lat="43.4995910" lon="-5.3792580">
        <ele>-9.0</ele>
        <time>2021-07-19T13:00:47Z</time>
      </trkpt>
      <trkpt lat="43.4996160" lon="-5.3793160">
        <ele>-9.0</ele>
        <time>2021-07-19T13:00:48Z</time>
      </trkpt>
      <trkpt lat="43.4997540" lon="-5.3796420">
        <ele>-9.0</ele>
        <time>2021-07-19T13:00:54Z</time>
      </trkpt>
      <trkpt lat="43.4997720" lon="-5.3796940">
        <ele>-9.0</ele>
        <time>2021-07-19T13:00:55Z</time>
      </trkpt>
      <trkpt lat="43.4998880" lon="-5.3800050">
        <ele>-9.0</ele>
        <time>2021-07-19T13:01:02Z</time>
      </trkpt>
      <trkpt lat="43.4999860" lon="-5.3802740">
        <ele>-9.0</ele>
        <time>2021-07-19T13:01:08Z</time>
      </trkpt>
      <trkpt lat="43.5000370" lon="-5.3804430">
        <ele>-9.0</ele>
        <time>2021-07-19T13:01:13Z</time>
      </trkpt>
      <trkpt lat="43.5000430" lon="-5.3804620">
        <ele>-9.0</ele>
        <time>2021-07-19T13:01:14Z</time>
      </trkpt>
      <trkpt lat="43.5000470" lon="-5.3804670">
        <ele>-9.0</ele>
        <time>2021-07-19T13:01:15Z</time>
      </trkpt>
      <trkpt lat="43.5000470" lon="-5.3804840">
        <ele>-9.0</ele>
        <time>2021-07-19T13:02:58Z</time>
      </trkpt>
      <trkpt lat="43.5000690" lon="-5.3805160">
        <ele>-9.0</ele>
        <time>2021-07-19T13:03:00Z</time>
      </trkpt>
      <trkpt lat="43.5001770" lon="-5.3806240">
        <ele>-9.0</ele>
        <time>2021-07-19T13:03:04Z</time>
      </trkpt>
      <trkpt lat="43.5002520" lon="-5.3806920">
        <ele>-9.0</ele>
        <time>2021-07-19T13:03:06Z</time>
      </trkpt>
      <trkpt lat="43.5002900" lon="-5.3807260">
        <ele>-9.4</ele>
        <time>2021-07-19T13:03:07Z</time>
      </trkpt>
      <trkpt lat="43.5003280" lon="-5.3807600">
        <ele>-9.8</ele>
        <time>2021-07-19T13:03:08Z</time>
      </trkpt>
      <trkpt lat="43.5003630" lon="-5.3808040">
        <ele>-10.2</ele>
        <time>2021-07-19T13:03:09Z</time>
      </trkpt>
      <trkpt lat="43.5003870" lon="-5.3808640">
        <ele>-10.6</ele>
        <time>2021-07-19T13:03:10Z</time>
      </trkpt>
      <trkpt lat="43.5003990" lon="-5.3809360">
        <ele>-11.0</ele>
        <time>2021-07-19T13:03:11Z</time>
      </trkpt>
      <trkpt lat="43.5004030" lon="-5.3810130">
        <ele>-11.6</ele>
        <time>2021-07-19T13:03:12Z</time>
      </trkpt>
      <trkpt lat="43.5003980" lon="-5.3810920">
        <ele>-12.0</ele>
        <time>2021-07-19T13:03:13Z</time>
      </trkpt>
      <trkpt lat="43.5003900" lon="-5.3811680">
        <ele>-12.4</ele>
        <time>2021-07-19T13:03:14Z</time>
      </trkpt>
      <trkpt lat="43.5003860" lon="-5.3812440">
        <ele>-12.8</ele>
        <time>2021-07-19T13:03:15Z</time>
      </trkpt>
      <trkpt lat="43.5003870" lon="-5.3813160">
        <ele>-13.2</ele>
        <time>2021-07-19T13:03:16Z</time>
      </trkpt>
      <trkpt lat="43.5004100" lon="-5.3814530">
        <ele>-13.2</ele>
        <time>2021-07-19T13:03:18Z</time>
      </trkpt>
      <trkpt lat="43.5004450" lon="-5.3815690">
        <ele>-13.2</ele>
        <time>2021-07-19T13:03:20Z</time>
      </trkpt>
      <trkpt lat="43.5004750" lon="-5.3816780">
        <ele>-13.2</ele>
        <time>2021-07-19T13:03:22Z</time>
      </trkpt>
      <trkpt lat="43.5004860" lon="-5.3817350">
        <ele>-13.2</ele>
        <time>2021-07-19T13:03:23Z</time>
      </trkpt>
      <trkpt lat="43.5005010" lon="-5.3818480">
        <ele>-13.2</ele>
        <time>2021-07-19T13:03:25Z</time>
      </trkpt>
      <trkpt lat="43.5005170" lon="-5.3819600">
        <ele>-13.2</ele>
        <time>2021-07-19T13:03:27Z</time>
      </trkpt>
      <trkpt lat="43.5005270" lon="-5.3820640">
        <ele>-13.2</ele>
        <time>2021-07-19T13:03:29Z</time>
      </trkpt>
      <trkpt lat="43.5005380" lon="-5.3821650">
        <ele>-13.2</ele>
        <time>2021-07-19T13:03:31Z</time>
      </trkpt>
      <trkpt lat="43.5005450" lon="-5.3822640">
        <ele>-13.2</ele>
        <time>2021-07-19T13:03:33Z</time>
      </trkpt>
      <trkpt lat="43.5005540" lon="-5.3823550">
        <ele>-13.2</ele>
        <time>2021-07-19T13:03:35Z</time>
      </trkpt>
      <trkpt lat="43.5005660" lon="-5.3824530">
        <ele>-13.2</ele>
        <time>2021-07-19T13:03:37Z</time>
      </trkpt>
      <trkpt lat="43.5005720" lon="-5.3825090">
        <ele>-12.8</ele>
        <time>2021-07-19T13:03:38Z</time>
      </trkpt>
      <trkpt lat="43.5005770" lon="-5.3825650">
        <ele>-12.4</ele>
        <time>2021-07-19T13:03:39Z</time>
      </trkpt>
      <trkpt lat="43.5005820" lon="-5.3826190">
        <ele>-12.0</ele>
        <time>2021-07-19T13:03:40Z</time>
      </trkpt>
      <trkpt lat="43.5005860" lon="-5.3826740">
        <ele>-11.6</ele>
        <time>2021-07-19T13:03:41Z</time>
      </trkpt>
      <trkpt lat="43.5005890" lon="-5.3827230">
        <ele>-11.2</ele>
        <time>2021-07-19T13:03:42Z</time>
      </trkpt>
      <trkpt lat="43.5005940" lon="-5.3828180">
        <ele>-11.2</ele>
        <time>2021-07-19T13:03:44Z</time>
      </trkpt>
      <trkpt lat="43.5006100" lon="-5.3831430">
        <ele>-11.2</ele>
        <time>2021-07-19T13:03:51Z</time>
      </trkpt>
      <trkpt lat="43.5006240" lon="-5.3831940">
        <ele>-11.2</ele>
        <time>2021-07-19T13:03:52Z</time>
      </trkpt>
      <trkpt lat="43.5006830" lon="-5.3833710">
        <ele>-11.2</ele>
        <time>2021-07-19T13:03:55Z</time>
      </trkpt>
      <trkpt lat="43.5008240" lon="-5.3838280">
        <ele>-11.2</ele>
        <time>2021-07-19T13:04:02Z</time>
      </trkpt>
      <trkpt lat="43.5008840" lon="-5.3840880">
        <ele>-11.2</ele>
        <time>2021-07-19T13:04:06Z</time>
      </trkpt>
      <trkpt lat="43.5009030" lon="-5.3842090">
        <ele>-11.2</ele>
        <time>2021-07-19T13:04:08Z</time>
      </trkpt>
      <trkpt lat="43.5009150" lon="-5.3843270">
        <ele>-11.2</ele>
        <time>2021-07-19T13:04:10Z</time>
      </trkpt>
      <trkpt lat="43.5009270" lon="-5.3844580">
        <ele>-11.2</ele>
        <time>2021-07-19T13:04:12Z</time>
      </trkpt>
      <trkpt lat="43.5009370" lon="-5.3845890">
        <ele>-11.2</ele>
        <time>2021-07-19T13:04:14Z</time>
      </trkpt>
      <trkpt lat="43.5009470" lon="-5.3847240">
        <ele>-11.2</ele>
        <time>2021-07-19T13:04:16Z</time>
      </trkpt>
      <trkpt lat="43.5009780" lon="-5.3849760">
        <ele>-11.2</ele>
        <time>2021-07-19T13:04:20Z</time>
      </trkpt>
      <trkpt lat="43.5009930" lon="-5.3850980">
        <ele>-11.2</ele>
        <time>2021-07-19T13:04:22Z</time>
      </trkpt>
      <trkpt lat="43.5010020" lon="-5.3851620">
        <ele>-11.2</ele>
        <time>2021-07-19T13:04:23Z</time>
      </trkpt>
      <trkpt lat="43.5010080" lon="-5.3852280">
        <ele>-11.2</ele>
        <time>2021-07-19T13:04:24Z</time>
      </trkpt>
      <trkpt lat="43.5010120" lon="-5.3855810">
        <ele>-11.2</ele>
        <time>2021-07-19T13:04:29Z</time>
      </trkpt>
      <trkpt lat="43.5009860" lon="-5.3861500">
        <ele>-11.2</ele>
        <time>2021-07-19T13:04:37Z</time>
      </trkpt>
      <trkpt lat="43.5009990" lon="-5.3865010">
        <ele>-11.6</ele>
        <time>2021-07-19T13:04:42Z</time>
      </trkpt>
      <trkpt lat="43.5010000" lon="-5.3865720">
        <ele>-12.0</ele>
        <time>2021-07-19T13:04:43Z</time>
      </trkpt>
      <trkpt lat="43.5010010" lon="-5.3866400">
        <ele>-12.4</ele>
        <time>2021-07-19T13:04:44Z</time>
      </trkpt>
      <trkpt lat="43.5010010" lon="-5.3867070">
        <ele>-12.8</ele>
        <time>2021-07-19T13:04:45Z</time>
      </trkpt>
      <trkpt lat="43.5010060" lon="-5.3867670">
        <ele>-13.2</ele>
        <time>2021-07-19T13:04:46Z</time>
      </trkpt>
      <trkpt lat="43.5010200" lon="-5.3868920">
        <ele>-13.2</ele>
        <time>2021-07-19T13:04:48Z</time>
      </trkpt>
      <trkpt lat="43.5010540" lon="-5.3870240">
        <ele>-13.2</ele>
        <time>2021-07-19T13:04:50Z</time>
      </trkpt>
      <trkpt lat="43.5011060" lon="-5.3871610">
        <ele>-13.2</ele>
        <time>2021-07-19T13:04:52Z</time>
      </trkpt>
      <trkpt lat="43.5011580" lon="-5.3873120">
        <ele>-13.2</ele>
        <time>2021-07-19T13:04:54Z</time>
      </trkpt>
      <trkpt lat="43.5011770" lon="-5.3873910">
        <ele>-13.2</ele>
        <time>2021-07-19T13:04:55Z</time>
      </trkpt>
      <trkpt lat="43.5012040" lon="-5.3876460">
        <ele>-13.2</ele>
        <time>2021-07-19T13:04:58Z</time>
      </trkpt>
      <trkpt lat="43.5012040" lon="-5.3878130">
        <ele>-13.2</ele>
        <time>2021-07-19T13:05:00Z</time>
      </trkpt>
      <trkpt lat="43.5012070" lon="-5.3880550">
        <ele>-13.2</ele>
        <time>2021-07-19T13:05:03Z</time>
      </trkpt>
      <trkpt lat="43.5012150" lon="-5.3881380">
        <ele>-13.2</ele>
        <time>2021-07-19T13:05:04Z</time>
      </trkpt>
      <trkpt lat="43.5012400" lon="-5.3882910">
        <ele>-13.2</ele>
        <time>2021-07-19T13:05:06Z</time>
      </trkpt>
      <trkpt lat="43.5012710" lon="-5.3884470">
        <ele>-13.6</ele>
        <time>2021-07-19T13:05:08Z</time>
      </trkpt>
      <trkpt lat="43.5012880" lon="-5.3885180">
        <ele>-14.0</ele>
        <time>2021-07-19T13:05:09Z</time>
      </trkpt>
      <trkpt lat="43.5013040" lon="-5.3885870">
        <ele>-14.6</ele>
        <time>2021-07-19T13:05:10Z</time>
      </trkpt>
      <trkpt lat="43.5013150" lon="-5.3886540">
        <ele>-15.0</ele>
        <time>2021-07-19T13:05:11Z</time>
      </trkpt>
      <trkpt lat="43.5013210" lon="-5.3887250">
        <ele>-15.4</ele>
        <time>2021-07-19T13:05:12Z</time>
      </trkpt>
      <trkpt lat="43.5013000" lon="-5.3888780">
        <ele>-15.8</ele>
        <time>2021-07-19T13:05:15Z</time>
      </trkpt>
      <trkpt lat="43.5012900" lon="-5.3889150">
        <ele>-16.4</ele>
        <time>2021-07-19T13:05:16Z</time>
      </trkpt>
      <trkpt lat="43.5012760" lon="-5.3889490">
        <ele>-16.8</ele>
        <time>2021-07-19T13:05:17Z</time>
      </trkpt>
      <trkpt lat="43.5012600" lon="-5.3889850">
        <ele>-17.4</ele>
        <time>2021-07-19T13:05:18Z</time>
      </trkpt>
      <trkpt lat="43.5012430" lon="-5.3890240">
        <ele>-17.8</ele>
        <time>2021-07-19T13:05:19Z</time>
      </trkpt>
      <trkpt lat="43.5012010" lon="-5.3891130">
        <ele>-17.8</ele>
        <time>2021-07-19T13:05:21Z</time>
      </trkpt>
      <trkpt lat="43.5011350" lon="-5.3892980">
        <ele>-17.8</ele>
        <time>2021-07-19T13:05:25Z</time>
      </trkpt>
      <trkpt lat="43.5011000" lon="-5.3894420">
        <ele>-17.8</ele>
        <time>2021-07-19T13:05:28Z</time>
      </trkpt>
      <trkpt lat="43.5010460" lon="-5.3896340">
        <ele>-17.8</ele>
        <time>2021-07-19T13:05:32Z</time>
      </trkpt>
      <trkpt lat="43.5010150" lon="-5.3896740">
        <ele>-17.8</ele>
        <time>2021-07-19T13:05:33Z</time>
      </trkpt>
      <trkpt lat="43.5009790" lon="-5.3897090">
        <ele>-17.8</ele>
        <time>2021-07-19T13:05:34Z</time>
      </trkpt>
      <trkpt lat="43.5009140" lon="-5.3897720">
        <ele>-17.8</ele>
        <time>2021-07-19T13:05:36Z</time>
      </trkpt>
      <trkpt lat="43.5008780" lon="-5.3897990">
        <ele>-17.8</ele>
        <time>2021-07-19T13:05:37Z</time>
      </trkpt>
      <trkpt lat="43.5008020" lon="-5.3898530">
        <ele>-17.8</ele>
        <time>2021-07-19T13:05:39Z</time>
      </trkpt>
      <trkpt lat="43.5007360" lon="-5.3899040">
        <ele>-17.8</ele>
        <time>2021-07-19T13:05:41Z</time>
      </trkpt>
      <trkpt lat="43.5006720" lon="-5.3899500">
        <ele>-17.8</ele>
        <time>2021-07-19T13:05:43Z</time>
      </trkpt>
      <trkpt lat="43.5005740" lon="-5.3899760">
        <ele>-17.8</ele>
        <time>2021-07-19T13:05:46Z</time>
      </trkpt>
      <trkpt lat="43.5005030" lon="-5.3899920">
        <ele>-17.0</ele>
        <time>2021-07-19T13:05:48Z</time>
      </trkpt>
      <trkpt lat="43.5004640" lon="-5.3899950">
        <ele>-16.6</ele>
        <time>2021-07-19T13:05:49Z</time>
      </trkpt>
      <trkpt lat="43.5004250" lon="-5.3899900">
        <ele>-16.2</ele>
        <time>2021-07-19T13:05:50Z</time>
      </trkpt>
      <trkpt lat="43.5003860" lon="-5.3899870">
        <ele>-15.8</ele>
        <time>2021-07-19T13:05:51Z</time>
      </trkpt>
      <trkpt lat="43.5003250" lon="-5.3899880">
        <ele>-15.8</ele>
        <time>2021-07-19T13:05:53Z</time>
      </trkpt>
      <trkpt lat="43.5002660" lon="-5.3900260">
        <ele>-15.4</ele>
        <time>2021-07-19T13:05:56Z</time>
      </trkpt>
      <trkpt lat="43.5002550" lon="-5.3900500">
        <ele>-15.0</ele>
        <time>2021-07-19T13:05:57Z</time>
      </trkpt>
      <trkpt lat="43.5002460" lon="-5.3900790">
        <ele>-14.4</ele>
        <time>2021-07-19T13:05:58Z</time>
      </trkpt>
      <trkpt lat="43.5002340" lon="-5.3901140">
        <ele>-14.0</ele>
        <time>2021-07-19T13:05:59Z</time>
      </trkpt>
      <trkpt lat="43.5002220" lon="-5.3901520">
        <ele>-13.6</ele>
        <time>2021-07-19T13:06:00Z</time>
      </trkpt>
      <trkpt lat="43.5002090" lon="-5.3901940">
        <ele>-13.6</ele>
        <time>2021-07-19T13:06:01Z</time>
      </trkpt>
      <trkpt lat="43.5001720" lon="-5.3903330">
        <ele>-13.6</ele>
        <time>2021-07-19T13:06:04Z</time>
      </trkpt>
      <trkpt lat="43.5001710" lon="-5.3905260">
        <ele>-13.6</ele>
        <time>2021-07-19T13:06:08Z</time>
      </trkpt>
      <trkpt lat="43.5001770" lon="-5.3905650">
        <ele>-13.6</ele>
        <time>2021-07-19T13:06:09Z</time>
      </trkpt>
      <trkpt lat="43.5002040" lon="-5.3907010">
        <ele>-13.2</ele>
        <time>2021-07-19T13:06:13Z</time>
      </trkpt>
      <trkpt lat="43.5002120" lon="-5.3907290">
        <ele>-12.8</ele>
        <time>2021-07-19T13:06:14Z</time>
      </trkpt>
      <trkpt lat="43.5002200" lon="-5.3907550">
        <ele>-12.2</ele>
        <time>2021-07-19T13:06:15Z</time>
      </trkpt>
      <trkpt lat="43.5002270" lon="-5.3907810">
        <ele>-11.8</ele>
        <time>2021-07-19T13:06:16Z</time>
      </trkpt>
      <trkpt lat="43.5002330" lon="-5.3908060">
        <ele>-11.4</ele>
        <time>2021-07-19T13:06:17Z</time>
      </trkpt>
      <trkpt lat="43.5002520" lon="-5.3909120">
        <ele>-11.0</ele>
        <time>2021-07-19T13:06:21Z</time>
      </trkpt>
      <trkpt lat="43.5002570" lon="-5.3909380">
        <ele>-10.6</ele>
        <time>2021-07-19T13:06:22Z</time>
      </trkpt>
      <trkpt lat="43.5002620" lon="-5.3909620">
        <ele>-10.2</ele>
        <time>2021-07-19T13:06:23Z</time>
      </trkpt>
      <trkpt lat="43.5002710" lon="-5.3909800">
        <ele>-9.8</ele>
        <time>2021-07-19T13:06:24Z</time>
      </trkpt>
      <trkpt lat="43.5002810" lon="-5.3909990">
        <ele>-9.4</ele>
        <time>2021-07-19T13:06:25Z</time>
      </trkpt>
      <trkpt lat="43.5003040" lon="-5.3910540">
        <ele>-9.0</ele>
        <time>2021-07-19T13:06:28Z</time>
      </trkpt>
      <trkpt lat="43.5003110" lon="-5.3910750">
        <ele>-8.6</ele>
        <time>2021-07-19T13:06:29Z</time>
      </trkpt>
      <trkpt lat="43.5003190" lon="-5.3910940">
        <ele>-8.2</ele>
        <time>2021-07-19T13:06:30Z</time>
      </trkpt>
      <trkpt lat="43.5003270" lon="-5.3911110">
        <ele>-7.6</ele>
        <time>2021-07-19T13:06:31Z</time>
      </trkpt>
      <trkpt lat="43.5003360" lon="-5.3911290">
        <ele>-7.2</ele>
        <time>2021-07-19T13:06:32Z</time>
      </trkpt>
      <trkpt lat="43.5003690" lon="-5.3912230">
        <ele>-6.4</ele>
        <time>2021-07-19T13:06:37Z</time>
      </trkpt>
      <trkpt lat="43.5003760" lon="-5.3912430">
        <ele>-6.0</ele>
        <time>2021-07-19T13:06:38Z</time>
      </trkpt>
      <trkpt lat="43.5003810" lon="-5.3912610">
        <ele>-5.6</ele>
        <time>2021-07-19T13:06:39Z</time>
      </trkpt>
      <trkpt lat="43.5003870" lon="-5.3912830">
        <ele>-5.0</ele>
        <time>2021-07-19T13:06:40Z</time>
      </trkpt>
      <trkpt lat="43.5004140" lon="-5.3913620">
        <ele>-4.6</ele>
        <time>2021-07-19T13:06:44Z</time>
      </trkpt>
      <trkpt lat="43.5004210" lon="-5.3913810">
        <ele>-4.2</ele>
        <time>2021-07-19T13:06:45Z</time>
      </trkpt>
      <trkpt lat="43.5004270" lon="-5.3914010">
        <ele>-3.8</ele>
        <time>2021-07-19T13:06:46Z</time>
      </trkpt>
      <trkpt lat="43.5004340" lon="-5.3914230">
        <ele>-3.4</ele>
        <time>2021-07-19T13:06:47Z</time>
      </trkpt>
      <trkpt lat="43.5004410" lon="-5.3914440">
        <ele>-3.0</ele>
        <time>2021-07-19T13:06:48Z</time>
      </trkpt>
      <trkpt lat="43.5004960" lon="-5.3915510">
        <ele>-2.6</ele>
        <time>2021-07-19T13:06:54Z</time>
      </trkpt>
      <trkpt lat="43.5005040" lon="-5.3915710">
        <ele>-2.2</ele>
        <time>2021-07-19T13:06:55Z</time>
      </trkpt>
      <trkpt lat="43.5005110" lon="-5.3915900">
        <ele>-1.6</ele>
        <time>2021-07-19T13:06:56Z</time>
      </trkpt>
      <trkpt lat="43.5005200" lon="-5.3916100">
        <ele>-1.2</ele>
        <time>2021-07-19T13:06:57Z</time>
      </trkpt>
      <trkpt lat="43.5005300" lon="-5.3916280">
        <ele>-0.8</ele>
        <time>2021-07-19T13:06:58Z</time>
      </trkpt>
      <trkpt lat="43.5005620" lon="-5.3916800">
        <ele>-0.4</ele>
        <time>2021-07-19T13:07:01Z</time>
      </trkpt>
      <trkpt lat="43.5005720" lon="-5.3916970">
        <ele>0.4</ele>
        <time>2021-07-19T13:07:02Z</time>
      </trkpt>
      <trkpt lat="43.5005810" lon="-5.3917120">
        <ele>0.8</ele>
        <time>2021-07-19T13:07:03Z</time>
      </trkpt>
      <trkpt lat="43.5005900" lon="-5.3917290">
        <ele>1.2</ele>
        <time>2021-07-19T13:07:04Z</time>
      </trkpt>
      <trkpt lat="43.5006200" lon="-5.3918040">
        <ele>1.6</ele>
        <time>2021-07-19T13:07:08Z</time>
      </trkpt>
      <trkpt lat="43.5006260" lon="-5.3918250">
        <ele>2.0</ele>
        <time>2021-07-19T13:07:09Z</time>
      </trkpt>
      <trkpt lat="43.5006320" lon="-5.3918460">
        <ele>2.6</ele>
        <time>2021-07-19T13:07:10Z</time>
      </trkpt>
      <trkpt lat="43.5006410" lon="-5.3918660">
        <ele>3.0</ele>
        <time>2021-07-19T13:07:11Z</time>
      </trkpt>
      <trkpt lat="43.5006480" lon="-5.3918870">
        <ele>3.4</ele>
        <time>2021-07-19T13:07:12Z</time>
      </trkpt>
      <trkpt lat="43.5006740" lon="-5.3919660">
        <ele>3.4</ele>
        <time>2021-07-19T13:07:16Z</time>
      </trkpt>
      <trkpt lat="43.5006790" lon="-5.3919800">
        <ele>3.8</ele>
        <time>2021-07-19T13:07:17Z</time>
      </trkpt>
      <trkpt lat="43.5006820" lon="-5.3919980">
        <ele>4.2</ele>
        <time>2021-07-19T13:07:18Z</time>
      </trkpt>
      <trkpt lat="43.5006870" lon="-5.3920200">
        <ele>4.6</ele>
        <time>2021-07-19T13:07:19Z</time>
      </trkpt>
      <trkpt lat="43.5006920" lon="-5.3920410">
        <ele>5.0</ele>
        <time>2021-07-19T13:07:20Z</time>
      </trkpt>
      <trkpt lat="43.5006980" lon="-5.3920580">
        <ele>5.4</ele>
        <time>2021-07-19T13:07:21Z</time>
      </trkpt>
      <trkpt lat="43.5007050" lon="-5.3920800">
        <ele>5.4</ele>
        <time>2021-07-19T13:07:22Z</time>
      </trkpt>
      <trkpt lat="43.5007320" lon="-5.3922650">
        <ele>5.4</ele>
        <time>2021-07-19T13:07:29Z</time>
      </trkpt>
      <trkpt lat="43.5007370" lon="-5.3924060">
        <ele>5.8</ele>
        <time>2021-07-19T13:07:34Z</time>
      </trkpt>
      <trkpt lat="43.5007370" lon="-5.3924380">
        <ele>6.2</ele>
        <time>2021-07-19T13:07:35Z</time>
      </trkpt>
      <trkpt lat="43.5007380" lon="-5.3924670">
        <ele>6.6</ele>
        <time>2021-07-19T13:07:36Z</time>
      </trkpt>
      <trkpt lat="43.5007410" lon="-5.3924990">
        <ele>7.0</ele>
        <time>2021-07-19T13:07:37Z</time>
      </trkpt>
      <trkpt lat="43.5007400" lon="-5.3925300">
        <ele>7.4</ele>
        <time>2021-07-19T13:07:38Z</time>
      </trkpt>
      <trkpt lat="43.5007400" lon="-5.3925620">
        <ele>7.4</ele>
        <time>2021-07-19T13:07:39Z</time>
      </trkpt>
      <trkpt lat="43.5007450" lon="-5.3927410">
        <ele>7.4</ele>
        <time>2021-07-19T13:07:45Z</time>
      </trkpt>
      <trkpt lat="43.5007310" lon="-5.3928760">
        <ele>7.4</ele>
        <time>2021-07-19T13:07:50Z</time>
      </trkpt>
      <trkpt lat="43.5007280" lon="-5.3929000">
        <ele>7.8</ele>
        <time>2021-07-19T13:07:51Z</time>
      </trkpt>
      <trkpt lat="43.5007270" lon="-5.3929230">
        <ele>8.2</ele>
        <time>2021-07-19T13:07:52Z</time>
      </trkpt>
      <trkpt lat="43.5007260" lon="-5.3929460">
        <ele>8.6</ele>
        <time>2021-07-19T13:07:53Z</time>
      </trkpt>
      <trkpt lat="43.5007250" lon="-5.3929680">
        <ele>9.0</ele>
        <time>2021-07-19T13:07:54Z</time>
      </trkpt>
      <trkpt lat="43.5007250" lon="-5.3929890">
        <ele>9.6</ele>
        <time>2021-07-19T13:07:55Z</time>
      </trkpt>
      <trkpt lat="43.5007180" lon="-5.3930650">
        <ele>9.6</ele>
        <time>2021-07-19T13:07:59Z</time>
      </trkpt>
      <trkpt lat="43.5007170" lon="-5.3930880">
        <ele>9.6</ele>
        <time>2021-07-19T13:08:00Z</time>
      </trkpt>
      <trkpt lat="43.5007180" lon="-5.3931310">
        <ele>10.0</ele>
        <time>2021-07-19T13:08:02Z</time>
      </trkpt>
      <trkpt lat="43.5007180" lon="-5.3931520">
        <ele>10.4</ele>
        <time>2021-07-19T13:08:03Z</time>
      </trkpt>
      <trkpt lat="43.5007170" lon="-5.3931750">
        <ele>10.8</ele>
        <time>2021-07-19T13:08:04Z</time>
      </trkpt>
      <trkpt lat="43.5007120" lon="-5.3931960">
        <ele>11.2</ele>
        <time>2021-07-19T13:08:05Z</time>
      </trkpt>
      <trkpt lat="43.5007090" lon="-5.3932200">
        <ele>11.6</ele>
        <time>2021-07-19T13:08:06Z</time>
      </trkpt>
      <trkpt lat="43.5006930" lon="-5.3933490">
        <ele>12.0</ele>
        <time>2021-07-19T13:08:12Z</time>
      </trkpt>
      <trkpt lat="43.5006920" lon="-5.3933700">
        <ele>12.4</ele>
        <time>2021-07-19T13:08:13Z</time>
      </trkpt>
      <trkpt lat="43.5006910" lon="-5.3933910">
        <ele>13.0</ele>
        <time>2021-07-19T13:08:14Z</time>
      </trkpt>
      <trkpt lat="43.5006900" lon="-5.3934140">
        <ele>13.4</ele>
        <time>2021-07-19T13:08:15Z</time>
      </trkpt>
      <trkpt lat="43.5006860" lon="-5.3934360">
        <ele>13.8</ele>
        <time>2021-07-19T13:08:16Z</time>
      </trkpt>
      <trkpt lat="43.5006660" lon="-5.3935010">
        <ele>14.2</ele>
        <time>2021-07-19T13:08:19Z</time>
      </trkpt>
      <trkpt lat="43.5006580" lon="-5.3935230">
        <ele>14.6</ele>
        <time>2021-07-19T13:08:20Z</time>
      </trkpt>
      <trkpt lat="43.5006520" lon="-5.3935450">
        <ele>15.0</ele>
        <time>2021-07-19T13:08:21Z</time>
      </trkpt>
      <trkpt lat="43.5006460" lon="-5.3935680">
        <ele>15.4</ele>
        <time>2021-07-19T13:08:22Z</time>
      </trkpt>
      <trkpt lat="43.5006410" lon="-5.3935890">
        <ele>15.8</ele>
        <time>2021-07-19T13:08:23Z</time>
      </trkpt>
      <trkpt lat="43.5006140" lon="-5.3936750">
        <ele>16.2</ele>
        <time>2021-07-19T13:08:27Z</time>
      </trkpt>
      <trkpt lat="43.5006070" lon="-5.3936940">
        <ele>16.6</ele>
        <time>2021-07-19T13:08:28Z</time>
      </trkpt>
      <trkpt lat="43.5005970" lon="-5.3937130">
        <ele>17.2</ele>
        <time>2021-07-19T13:08:29Z</time>
      </trkpt>
      <trkpt lat="43.5005850" lon="-5.3937310">
        <ele>17.6</ele>
        <time>2021-07-19T13:08:30Z</time>
      </trkpt>
      <trkpt lat="43.5005750" lon="-5.3937500">
        <ele>18.0</ele>
        <time>2021-07-19T13:08:31Z</time>
      </trkpt>
      <trkpt lat="43.5005300" lon="-5.3938530">
        <ele>18.0</ele>
        <time>2021-07-19T13:08:36Z</time>
      </trkpt>
      <trkpt lat="43.5005100" lon="-5.3938920">
        <ele>18.4</ele>
        <time>2021-07-19T13:08:38Z</time>
      </trkpt>
      <trkpt lat="43.5005010" lon="-5.3939100">
        <ele>18.8</ele>
        <time>2021-07-19T13:08:39Z</time>
      </trkpt>
      <trkpt lat="43.5004900" lon="-5.3939280">
        <ele>19.2</ele>
        <time>2021-07-19T13:08:40Z</time>
      </trkpt>
      <trkpt lat="43.5004800" lon="-5.3939470">
        <ele>20.0</ele>
        <time>2021-07-19T13:08:41Z</time>
      </trkpt>
      <trkpt lat="43.5004480" lon="-5.3940060">
        <ele>20.0</ele>
        <time>2021-07-19T13:08:44Z</time>
      </trkpt>
      <trkpt lat="43.5003760" lon="-5.3941200">
        <ele>20.0</ele>
        <time>2021-07-19T13:08:50Z</time>
      </trkpt>
      <trkpt lat="43.5003280" lon="-5.3941950">
        <ele>20.4</ele>
        <time>2021-07-19T13:08:54Z</time>
      </trkpt>
      <trkpt lat="43.5003170" lon="-5.3942120">
        <ele>21.0</ele>
        <time>2021-07-19T13:08:55Z</time>
      </trkpt>
      <trkpt lat="43.5003060" lon="-5.3942280">
        <ele>21.4</ele>
        <time>2021-07-19T13:08:56Z</time>
      </trkpt>
      <trkpt lat="43.5002980" lon="-5.3942450">
        <ele>21.8</ele>
        <time>2021-07-19T13:08:57Z</time>
      </trkpt>
      <trkpt lat="43.5002890" lon="-5.3942630">
        <ele>22.2</ele>
        <time>2021-07-19T13:08:58Z</time>
      </trkpt>
      <trkpt lat="43.5002250" lon="-5.3943180">
        <ele>22.2</ele>
        <time>2021-07-19T13:09:03Z</time>
      </trkpt>
      <trkpt lat="43.5001840" lon="-5.3943140">
        <ele>22.2</ele>
        <time>2021-07-19T13:09:06Z</time>
      </trkpt>
      <trkpt lat="43.5001730" lon="-5.3943000">
        <ele>22.6</ele>
        <time>2021-07-19T13:09:07Z</time>
      </trkpt>
      <trkpt lat="43.5001620" lon="-5.3942860">
        <ele>23.0</ele>
        <time>2021-07-19T13:09:08Z</time>
      </trkpt>
      <trkpt lat="43.5001500" lon="-5.3942740">
        <ele>23.6</ele>
        <time>2021-07-19T13:09:09Z</time>
      </trkpt>
      <trkpt lat="43.5001380" lon="-5.3942630">
        <ele>24.0</ele>
        <time>2021-07-19T13:09:10Z</time>
      </trkpt>
      <trkpt lat="43.5001270" lon="-5.3942530">
        <ele>24.4</ele>
        <time>2021-07-19T13:09:11Z</time>
      </trkpt>
      <trkpt lat="43.5001220" lon="-5.3942290">
        <ele>24.4</ele>
        <time>2021-07-19T13:09:13Z</time>
      </trkpt>
      <trkpt lat="43.5001350" lon="-5.3942050">
        <ele>24.4</ele>
        <time>2021-07-19T13:09:15Z</time>
      </trkpt>
      <trkpt lat="43.5001450" lon="-5.3942020">
        <ele>24.4</ele>
        <time>2021-07-19T13:09:17Z</time>
      </trkpt>
      <trkpt lat="43.5001740" lon="-5.3942760">
        <ele>24.4</ele>
        <time>2021-07-19T13:13:18Z</time>
      </trkpt>
      <trkpt lat="43.5001830" lon="-5.3942920">
        <ele>24.4</ele>
        <time>2021-07-19T13:13:19Z</time>
      </trkpt>
      <trkpt lat="43.5001920" lon="-5.3943620">
        <ele>24.4</ele>
        <time>2021-07-19T13:13:22Z</time>
      </trkpt>
      <trkpt lat="43.5001820" lon="-5.3944210">
        <ele>24.4</ele>
        <time>2021-07-19T13:13:24Z</time>
      </trkpt>
      <trkpt lat="43.5001350" lon="-5.3945090">
        <ele>24.4</ele>
        <time>2021-07-19T13:13:28Z</time>
      </trkpt>
      <trkpt lat="43.5001120" lon="-5.3945560">
        <ele>24.4</ele>
        <time>2021-07-19T13:13:30Z</time>
      </trkpt>
      <trkpt lat="43.5000940" lon="-5.3946140">
        <ele>24.4</ele>
        <time>2021-07-19T13:13:32Z</time>
      </trkpt>
      <trkpt lat="43.5000560" lon="-5.3947520">
        <ele>24.4</ele>
        <time>2021-07-19T13:13:35Z</time>
      </trkpt>
      <trkpt lat="43.4999530" lon="-5.3951450">
        <ele>24.4</ele>
        <time>2021-07-19T13:13:40Z</time>
      </trkpt>
      <trkpt lat="43.4999130" lon="-5.3955260">
        <ele>24.4</ele>
        <time>2021-07-19T13:13:44Z</time>
      </trkpt>
      <trkpt lat="43.4999120" lon="-5.3956120">
        <ele>24.4</ele>
        <time>2021-07-19T13:13:45Z</time>
      </trkpt>
      <trkpt lat="43.4999040" lon="-5.3958460">
        <ele>24.4</ele>
        <time>2021-07-19T13:13:49Z</time>
      </trkpt>
      <trkpt lat="43.4998970" lon="-5.3958790">
        <ele>24.0</ele>
        <time>2021-07-19T13:13:50Z</time>
      </trkpt>
      <trkpt lat="43.4998890" lon="-5.3959130">
        <ele>23.6</ele>
        <time>2021-07-19T13:13:51Z</time>
      </trkpt>
      <trkpt lat="43.4998810" lon="-5.3959450">
        <ele>23.2</ele>
        <time>2021-07-19T13:13:52Z</time>
      </trkpt>
      <trkpt lat="43.4998690" lon="-5.3959810">
        <ele>22.8</ele>
        <time>2021-07-19T13:13:53Z</time>
      </trkpt>
      <trkpt lat="43.4998560" lon="-5.3960150">
        <ele>22.4</ele>
        <time>2021-07-19T13:13:54Z</time>
      </trkpt>
      <trkpt lat="43.4998440" lon="-5.3960500">
        <ele>22.4</ele>
        <time>2021-07-19T13:13:55Z</time>
      </trkpt>
      <trkpt lat="43.4998140" lon="-5.3961570">
        <ele>22.4</ele>
        <time>2021-07-19T13:13:58Z</time>
      </trkpt>
      <trkpt lat="43.4997940" lon="-5.3962320">
        <ele>22.8</ele>
        <time>2021-07-19T13:14:00Z</time>
      </trkpt>
      <trkpt lat="43.4997820" lon="-5.3962660">
        <ele>23.2</ele>
        <time>2021-07-19T13:14:01Z</time>
      </trkpt>
      <trkpt lat="43.4997680" lon="-5.3963000">
        <ele>24.2</ele>
        <time>2021-07-19T13:14:02Z</time>
      </trkpt>
      <trkpt lat="43.4997550" lon="-5.3963290">
        <ele>24.6</ele>
        <time>2021-07-19T13:14:03Z</time>
      </trkpt>
      <trkpt lat="43.4997360" lon="-5.3963930">
        <ele>24.6</ele>
        <time>2021-07-19T13:14:05Z</time>
      </trkpt>
      <trkpt lat="43.4996960" lon="-5.3964830">
        <ele>25.0</ele>
        <time>2021-07-19T13:14:08Z</time>
      </trkpt>
      <trkpt lat="43.4996850" lon="-5.3965130">
        <ele>25.4</ele>
        <time>2021-07-19T13:14:09Z</time>
      </trkpt>
      <trkpt lat="43.4996750" lon="-5.3965460">
        <ele>25.8</ele>
        <time>2021-07-19T13:14:10Z</time>
      </trkpt>
      <trkpt lat="43.4996640" lon="-5.3965760">
        <ele>26.2</ele>
        <time>2021-07-19T13:14:11Z</time>
      </trkpt>
      <trkpt lat="43.4996500" lon="-5.3966030">
        <ele>26.6</ele>
        <time>2021-07-19T13:14:12Z</time>
      </trkpt>
      <trkpt lat="43.4995930" lon="-5.3967270">
        <ele>26.6</ele>
        <time>2021-07-19T13:14:16Z</time>
      </trkpt>
      <trkpt lat="43.4995810" lon="-5.3967610">
        <ele>26.6</ele>
        <time>2021-07-19T13:14:17Z</time>
      </trkpt>
      <trkpt lat="43.4995300" lon="-5.3968500">
        <ele>27.0</ele>
        <time>2021-07-19T13:14:20Z</time>
      </trkpt>
      <trkpt lat="43.4995120" lon="-5.3968740">
        <ele>27.4</ele>
        <time>2021-07-19T13:14:21Z</time>
      </trkpt>
      <trkpt lat="43.4994940" lon="-5.3969010">
        <ele>27.8</ele>
        <time>2021-07-19T13:14:22Z</time>
      </trkpt>
      <trkpt lat="43.4994750" lon="-5.3969260">
        <ele>28.4</ele>
        <time>2021-07-19T13:14:23Z</time>
      </trkpt>
      <trkpt lat="43.4994550" lon="-5.3969520">
        <ele>28.8</ele>
        <time>2021-07-19T13:14:24Z</time>
      </trkpt>
      <trkpt lat="43.4993630" lon="-5.3970760">
        <ele>28.8</ele>
        <time>2021-07-19T13:14:29Z</time>
      </trkpt>
      <trkpt lat="43.4993380" lon="-5.3971130">
        <ele>28.8</ele>
        <time>2021-07-19T13:14:31Z</time>
      </trkpt>
      <trkpt lat="43.4993250" lon="-5.3971330">
        <ele>28.8</ele>
        <time>2021-07-19T13:14:34Z</time>
      </trkpt>
      <trkpt lat="43.4993040" lon="-5.3971520">
        <ele>28.8</ele>
        <time>2021-07-19T13:14:40Z</time>
      </trkpt>
      <trkpt lat="43.4992030" lon="-5.3972680">
        <ele>29.2</ele>
        <time>2021-07-19T13:14:45Z</time>
      </trkpt>
      <trkpt lat="43.4991820" lon="-5.3972920">
        <ele>29.6</ele>
        <time>2021-07-19T13:14:46Z</time>
      </trkpt>
      <trkpt lat="43.4991620" lon="-5.3973180">
        <ele>30.0</ele>
        <time>2021-07-19T13:14:47Z</time>
      </trkpt>
      <trkpt lat="43.4991390" lon="-5.3973410">
        <ele>30.4</ele>
        <time>2021-07-19T13:14:48Z</time>
      </trkpt>
      <trkpt lat="43.4991160" lon="-5.3973640">
        <ele>30.8</ele>
        <time>2021-07-19T13:14:49Z</time>
      </trkpt>
      <trkpt lat="43.4989970" lon="-5.3974600">
        <ele>30.8</ele>
        <time>2021-07-19T13:14:54Z</time>
      </trkpt>
      <trkpt lat="43.4988340" lon="-5.3976100">
        <ele>30.8</ele>
        <time>2021-07-19T13:15:02Z</time>
      </trkpt>
      <trkpt lat="43.4988210" lon="-5.3976300">
        <ele>31.2</ele>
        <time>2021-07-19T13:15:03Z</time>
      </trkpt>
      <trkpt lat="43.4988090" lon="-5.3976490">
        <ele>31.8</ele>
        <time>2021-07-19T13:15:04Z</time>
      </trkpt>
      <trkpt lat="43.4987990" lon="-5.3976710">
        <ele>32.2</ele>
        <time>2021-07-19T13:15:05Z</time>
      </trkpt>
      <trkpt lat="43.4987890" lon="-5.3976920">
        <ele>32.6</ele>
        <time>2021-07-19T13:15:06Z</time>
      </trkpt>
      <trkpt lat="43.4987820" lon="-5.3977140">
        <ele>33.0</ele>
        <time>2021-07-19T13:15:07Z</time>
      </trkpt>
      <trkpt lat="43.4987770" lon="-5.3977370">
        <ele>33.0</ele>
        <time>2021-07-19T13:15:08Z</time>
      </trkpt>
      <trkpt lat="43.4987340" lon="-5.3978490">
        <ele>33.4</ele>
        <time>2021-07-19T13:15:13Z</time>
      </trkpt>
      <trkpt lat="43.4987330" lon="-5.3978740">
        <ele>33.8</ele>
        <time>2021-07-19T13:15:14Z</time>
      </trkpt>
      <trkpt lat="43.4987330" lon="-5.3978990">
        <ele>34.6</ele>
        <time>2021-07-19T13:15:15Z</time>
      </trkpt>
      <trkpt lat="43.4987330" lon="-5.3979240">
        <ele>35.2</ele>
        <time>2021-07-19T13:15:16Z</time>
      </trkpt>
      <trkpt lat="43.4987270" lon="-5.3980190">
        <ele>35.6</ele>
        <time>2021-07-19T13:15:20Z</time>
      </trkpt>
      <trkpt lat="43.4987290" lon="-5.3980430">
        <ele>36.0</ele>
        <time>2021-07-19T13:15:21Z</time>
      </trkpt>
      <trkpt lat="43.4987310" lon="-5.3980680">
        <ele>36.4</ele>
        <time>2021-07-19T13:15:22Z</time>
      </trkpt>
      <trkpt lat="43.4987310" lon="-5.3980920">
        <ele>37.0</ele>
        <time>2021-07-19T13:15:23Z</time>
      </trkpt>
      <trkpt lat="43.4987360" lon="-5.3981170">
        <ele>37.4</ele>
        <time>2021-07-19T13:15:24Z</time>
      </trkpt>
      <trkpt lat="43.4987560" lon="-5.3982660">
        <ele>37.4</ele>
        <time>2021-07-19T13:15:30Z</time>
      </trkpt>
      <trkpt lat="43.4987810" lon="-5.3983910">
        <ele>37.8</ele>
        <time>2021-07-19T13:15:35Z</time>
      </trkpt>
      <trkpt lat="43.4987870" lon="-5.3984180">
        <ele>38.2</ele>
        <time>2021-07-19T13:15:36Z</time>
      </trkpt>
      <trkpt lat="43.4987950" lon="-5.3984490">
        <ele>38.6</ele>
        <time>2021-07-19T13:15:37Z</time>
      </trkpt>
      <trkpt lat="43.4988020" lon="-5.3984800">
        <ele>39.2</ele>
        <time>2021-07-19T13:15:38Z</time>
      </trkpt>
      <trkpt lat="43.4988100" lon="-5.3985120">
        <ele>39.6</ele>
        <time>2021-07-19T13:15:39Z</time>
      </trkpt>
      <trkpt lat="43.4988370" lon="-5.3987650">
        <ele>39.6</ele>
        <time>2021-07-19T13:15:46Z</time>
      </trkpt>
      <trkpt lat="43.4988380" lon="-5.3989760">
        <ele>40.0</ele>
        <time>2021-07-19T13:15:52Z</time>
      </trkpt>
      <trkpt lat="43.4988350" lon="-5.3990100">
        <ele>40.4</ele>
        <time>2021-07-19T13:15:53Z</time>
      </trkpt>
      <trkpt lat="43.4988350" lon="-5.3990460">
        <ele>41.0</ele>
        <time>2021-07-19T13:15:54Z</time>
      </trkpt>
      <trkpt lat="43.4988320" lon="-5.3990800">
        <ele>41.4</ele>
        <time>2021-07-19T13:15:55Z</time>
      </trkpt>
      <trkpt lat="43.4988280" lon="-5.3991190">
        <ele>41.8</ele>
        <time>2021-07-19T13:15:56Z</time>
      </trkpt>
      <trkpt lat="43.4988000" lon="-5.3992590">
        <ele>41.8</ele>
        <time>2021-07-19T13:16:00Z</time>
      </trkpt>
      <trkpt lat="43.4987360" lon="-5.3995500">
        <ele>41.8</ele>
        <time>2021-07-19T13:16:08Z</time>
      </trkpt>
      <trkpt lat="43.4987060" lon="-5.3996900">
        <ele>42.2</ele>
        <time>2021-07-19T13:16:12Z</time>
      </trkpt>
      <trkpt lat="43.4987080" lon="-5.3997230">
        <ele>42.6</ele>
        <time>2021-07-19T13:16:13Z</time>
      </trkpt>
      <trkpt lat="43.4987060" lon="-5.3997600">
        <ele>43.0</ele>
        <time>2021-07-19T13:16:14Z</time>
      </trkpt>
      <trkpt lat="43.4987040" lon="-5.3998000">
        <ele>43.4</ele>
        <time>2021-07-19T13:16:15Z</time>
      </trkpt>
      <trkpt lat="43.4987070" lon="-5.3998380">
        <ele>44.0</ele>
        <time>2021-07-19T13:16:16Z</time>
      </trkpt>
      <trkpt lat="43.4987340" lon="-5.3999790">
        <ele>44.0</ele>
        <time>2021-07-19T13:16:20Z</time>
      </trkpt>
      <trkpt lat="43.4988160" lon="-5.4002890">
        <ele>44.0</ele>
        <time>2021-07-19T13:16:27Z</time>
      </trkpt>
      <trkpt lat="43.4988200" lon="-5.4005320">
        <ele>44.0</ele>
        <time>2021-07-19T13:16:33Z</time>
      </trkpt>
      <trkpt lat="43.4988200" lon="-5.4005730">
        <ele>44.4</ele>
        <time>2021-07-19T13:16:34Z</time>
      </trkpt>
      <trkpt lat="43.4988220" lon="-5.4006140">
        <ele>44.8</ele>
        <time>2021-07-19T13:16:35Z</time>
      </trkpt>
      <trkpt lat="43.4988240" lon="-5.4006550">
        <ele>45.2</ele>
        <time>2021-07-19T13:16:36Z</time>
      </trkpt>
      <trkpt lat="43.4988260" lon="-5.4006970">
        <ele>45.6</ele>
        <time>2021-07-19T13:16:37Z</time>
      </trkpt>
      <trkpt lat="43.4988290" lon="-5.4007370">
        <ele>46.0</ele>
        <time>2021-07-19T13:16:38Z</time>
      </trkpt>
      <trkpt lat="43.4988580" lon="-5.4008960">
        <ele>46.0</ele>
        <time>2021-07-19T13:16:42Z</time>
      </trkpt>
      <trkpt lat="43.4989220" lon="-5.4010930">
        <ele>46.0</ele>
        <time>2021-07-19T13:16:48Z</time>
      </trkpt>
      <trkpt lat="43.4989680" lon="-5.4011710">
        <ele>46.0</ele>
        <time>2021-07-19T13:16:52Z</time>
      </trkpt>
      <trkpt lat="43.4989810" lon="-5.4012070">
        <ele>46.0</ele>
        <time>2021-07-19T13:16:53Z</time>
      </trkpt>
      <trkpt lat="43.4990770" lon="-5.4014570">
        <ele>46.0</ele>
        <time>2021-07-19T13:16:59Z</time>
      </trkpt>
      <trkpt lat="43.4991000" lon="-5.4015120">
        <ele>46.0</ele>
        <time>2021-07-19T13:17:00Z</time>
      </trkpt>
      <trkpt lat="43.4991200" lon="-5.4015690">
        <ele>45.6</ele>
        <time>2021-07-19T13:17:01Z</time>
      </trkpt>
      <trkpt lat="43.4991390" lon="-5.4016310">
        <ele>45.0</ele>
        <time>2021-07-19T13:17:02Z</time>
      </trkpt>
      <trkpt lat="43.4991550" lon="-5.4016800">
        <ele>44.6</ele>
        <time>2021-07-19T13:17:03Z</time>
      </trkpt>
      <trkpt lat="43.4991710" lon="-5.4017270">
        <ele>44.2</ele>
        <time>2021-07-19T13:17:04Z</time>
      </trkpt>
      <trkpt lat="43.4991860" lon="-5.4017760">
        <ele>43.6</ele>
        <time>2021-07-19T13:17:06Z</time>
      </trkpt>
      <trkpt lat="43.4992040" lon="-5.4018230">
        <ele>43.2</ele>
        <time>2021-07-19T13:17:07Z</time>
      </trkpt>
      <trkpt lat="43.4992230" lon="-5.4018630">
        <ele>42.8</ele>
        <time>2021-07-19T13:17:08Z</time>
      </trkpt>
      <trkpt lat="43.4992470" lon="-5.4019050">
        <ele>42.2</ele>
        <time>2021-07-19T13:17:09Z</time>
      </trkpt>
      <trkpt lat="43.4992750" lon="-5.4019480">
        <ele>41.8</ele>
        <time>2021-07-19T13:17:10Z</time>
      </trkpt>
      <trkpt lat="43.4993030" lon="-5.4019960">
        <ele>41.4</ele>
        <time>2021-07-19T13:17:11Z</time>
      </trkpt>
      <trkpt lat="43.4993340" lon="-5.4020460">
        <ele>40.8</ele>
        <time>2021-07-19T13:17:12Z</time>
      </trkpt>
      <trkpt lat="43.4993690" lon="-5.4021030">
        <ele>40.4</ele>
        <time>2021-07-19T13:17:13Z</time>
      </trkpt>
      <trkpt lat="43.4993990" lon="-5.4021590">
        <ele>40.0</ele>
        <time>2021-07-19T13:17:14Z</time>
      </trkpt>
      <trkpt lat="43.4994240" lon="-5.4022140">
        <ele>39.4</ele>
        <time>2021-07-19T13:17:15Z</time>
      </trkpt>
      <trkpt lat="43.4994500" lon="-5.4022620">
        <ele>38.8</ele>
        <time>2021-07-19T13:17:16Z</time>
      </trkpt>
      <trkpt lat="43.4994700" lon="-5.4023040">
        <ele>38.2</ele>
        <time>2021-07-19T13:17:17Z</time>
      </trkpt>
      <trkpt lat="43.4994840" lon="-5.4023430">
        <ele>37.4</ele>
        <time>2021-07-19T13:17:18Z</time>
      </trkpt>
      <trkpt lat="43.4994940" lon="-5.4023870">
        <ele>36.8</ele>
        <time>2021-07-19T13:17:19Z</time>
      </trkpt>
      <trkpt lat="43.4995010" lon="-5.4024300">
        <ele>36.0</ele>
        <time>2021-07-19T13:17:20Z</time>
      </trkpt>
      <trkpt lat="43.4995040" lon="-5.4024760">
        <ele>35.6</ele>
        <time>2021-07-19T13:17:21Z</time>
      </trkpt>
      <trkpt lat="43.4995060" lon="-5.4025180">
        <ele>35.2</ele>
        <time>2021-07-19T13:17:22Z</time>
      </trkpt>
      <trkpt lat="43.4995050" lon="-5.4025610">
        <ele>34.8</ele>
        <time>2021-07-19T13:17:23Z</time>
      </trkpt>
      <trkpt lat="43.4995030" lon="-5.4026050">
        <ele>34.4</ele>
        <time>2021-07-19T13:17:24Z</time>
      </trkpt>
      <trkpt lat="43.4994960" lon="-5.4026500">
        <ele>33.8</ele>
        <time>2021-07-19T13:17:25Z</time>
      </trkpt>
      <trkpt lat="43.4994830" lon="-5.4027040">
        <ele>33.4</ele>
        <time>2021-07-19T13:17:26Z</time>
      </trkpt>
      <trkpt lat="43.4994630" lon="-5.4027600">
        <ele>33.0</ele>
        <time>2021-07-19T13:17:27Z</time>
      </trkpt>
      <trkpt lat="43.4994390" lon="-5.4028180">
        <ele>32.4</ele>
        <time>2021-07-19T13:17:28Z</time>
      </trkpt>
      <trkpt lat="43.4994150" lon="-5.4028760">
        <ele>31.8</ele>
        <time>2021-07-19T13:17:29Z</time>
      </trkpt>
      <trkpt lat="43.4993960" lon="-5.4029300">
        <ele>31.4</ele>
        <time>2021-07-19T13:17:30Z</time>
      </trkpt>
      <trkpt lat="43.4993830" lon="-5.4029820">
        <ele>30.8</ele>
        <time>2021-07-19T13:17:31Z</time>
      </trkpt>
      <trkpt lat="43.4993780" lon="-5.4030330">
        <ele>30.2</ele>
        <time>2021-07-19T13:17:32Z</time>
      </trkpt>
      <trkpt lat="43.4993780" lon="-5.4030790">
        <ele>29.8</ele>
        <time>2021-07-19T13:17:33Z</time>
      </trkpt>
      <trkpt lat="43.4993890" lon="-5.4031100">
        <ele>29.4</ele>
        <time>2021-07-19T13:17:34Z</time>
      </trkpt>
      <trkpt lat="43.4993990" lon="-5.4031300">
        <ele>29.0</ele>
        <time>2021-07-19T13:17:35Z</time>
      </trkpt>
      <trkpt lat="43.4994160" lon="-5.4031410">
        <ele>28.6</ele>
        <time>2021-07-19T13:17:36Z</time>
      </trkpt>
      <trkpt lat="43.4994350" lon="-5.4031480">
        <ele>28.2</ele>
        <time>2021-07-19T13:17:37Z</time>
      </trkpt>
      <trkpt lat="43.4994580" lon="-5.4031480">
        <ele>28.2</ele>
        <time>2021-07-19T13:17:38Z</time>
      </trkpt>
      <trkpt lat="43.4996020" lon="-5.4031780">
        <ele>28.2</ele>
        <time>2021-07-19T13:17:43Z</time>
      </trkpt>
      <trkpt lat="43.4996250" lon="-5.4031910">
        <ele>28.2</ele>
        <time>2021-07-19T13:17:44Z</time>
      </trkpt>
      <trkpt lat="43.4996710" lon="-5.4032130">
        <ele>28.2</ele>
        <time>2021-07-19T13:17:46Z</time>
      </trkpt>
      <trkpt lat="43.4997160" lon="-5.4032380">
        <ele>28.2</ele>
        <time>2021-07-19T13:17:48Z</time>
      </trkpt>
      <trkpt lat="43.4997820" lon="-5.4032640">
        <ele>28.2</ele>
        <time>2021-07-19T13:17:51Z</time>
      </trkpt>
      <trkpt lat="43.4998940" lon="-5.4033470">
        <ele>27.6</ele>
        <time>2021-07-19T13:17:56Z</time>
      </trkpt>
      <trkpt lat="43.4999140" lon="-5.4033690">
        <ele>27.2</ele>
        <time>2021-07-19T13:17:57Z</time>
      </trkpt>
      <trkpt lat="43.4999470" lon="-5.4033980">
        <ele>26.8</ele>
        <time>2021-07-19T13:17:58Z</time>
      </trkpt>
      <trkpt lat="43.4999840" lon="-5.4034240">
        <ele>26.4</ele>
        <time>2021-07-19T13:17:59Z</time>
      </trkpt>
      <trkpt lat="43.5000340" lon="-5.4034740">
        <ele>26.0</ele>
        <time>2021-07-19T13:18:00Z</time>
      </trkpt>
      <trkpt lat="43.5001670" lon="-5.4035800">
        <ele>26.0</ele>
        <time>2021-07-19T13:18:03Z</time>
      </trkpt>
      <trkpt lat="43.5003010" lon="-5.4037000">
        <ele>26.0</ele>
        <time>2021-07-19T13:18:06Z</time>
      </trkpt>
      <trkpt lat="43.5003370" lon="-5.4037360">
        <ele>25.6</ele>
        <time>2021-07-19T13:18:07Z</time>
      </trkpt>
      <trkpt lat="43.5003700" lon="-5.4037760">
        <ele>25.2</ele>
        <time>2021-07-19T13:18:08Z</time>
      </trkpt>
      <trkpt lat="43.5004060" lon="-5.4038180">
        <ele>24.4</ele>
        <time>2021-07-19T13:18:09Z</time>
      </trkpt>
      <trkpt lat="43.5004490" lon="-5.4038870">
        <ele>24.0</ele>
        <time>2021-07-19T13:18:10Z</time>
      </trkpt>
      <trkpt lat="43.5005180" lon="-5.4039960">
        <ele>23.6</ele>
        <time>2021-07-19T13:18:12Z</time>
      </trkpt>
      <trkpt lat="43.5005560" lon="-5.4040640">
        <ele>23.2</ele>
        <time>2021-07-19T13:18:13Z</time>
      </trkpt>
      <trkpt lat="43.5005940" lon="-5.4041320">
        <ele>22.6</ele>
        <time>2021-07-19T13:18:14Z</time>
      </trkpt>
      <trkpt lat="43.5006310" lon="-5.4041970">
        <ele>22.2</ele>
        <time>2021-07-19T13:18:15Z</time>
      </trkpt>
      <trkpt lat="43.5006690" lon="-5.4042580">
        <ele>21.8</ele>
        <time>2021-07-19T13:18:16Z</time>
      </trkpt>
      <trkpt lat="43.5007900" lon="-5.4044310">
        <ele>21.8</ele>
        <time>2021-07-19T13:18:19Z</time>
      </trkpt>
      <trkpt lat="43.5008250" lon="-5.4044850">
        <ele>21.8</ele>
        <time>2021-07-19T13:18:20Z</time>
      </trkpt>
      <trkpt lat="43.5009110" lon="-5.4047000">
        <ele>21.8</ele>
        <time>2021-07-19T13:18:25Z</time>
      </trkpt>
      <trkpt lat="43.5009270" lon="-5.4048150">
        <ele>21.8</ele>
        <time>2021-07-19T13:18:28Z</time>
      </trkpt>
      <trkpt lat="43.5009390" lon="-5.4049060">
        <ele>21.8</ele>
        <time>2021-07-19T13:18:30Z</time>
      </trkpt>
      <trkpt lat="43.5009540" lon="-5.4049950">
        <ele>21.8</ele>
        <time>2021-07-19T13:18:32Z</time>
      </trkpt>
      <trkpt lat="43.5010020" lon="-5.4052170">
        <ele>21.8</ele>
        <time>2021-07-19T13:18:37Z</time>
      </trkpt>
      <trkpt lat="43.5010640" lon="-5.4055850">
        <ele>21.8</ele>
        <time>2021-07-19T13:18:45Z</time>
      </trkpt>
      <trkpt lat="43.5010950" lon="-5.4058100">
        <ele>21.8</ele>
        <time>2021-07-19T13:18:51Z</time>
      </trkpt>
      <trkpt lat="43.5011380" lon="-5.4061090">
        <ele>21.8</ele>
        <time>2021-07-19T13:18:58Z</time>
      </trkpt>
      <trkpt lat="43.5011570" lon="-5.4063320">
        <ele>21.8</ele>
        <time>2021-07-19T13:19:03Z</time>
      </trkpt>
      <trkpt lat="43.5011730" lon="-5.4064700">
        <ele>21.8</ele>
        <time>2021-07-19T13:19:07Z</time>
      </trkpt>
      <trkpt lat="43.5011720" lon="-5.4065030">
        <ele>22.2</ele>
        <time>2021-07-19T13:19:08Z</time>
      </trkpt>
      <trkpt lat="43.5011760" lon="-5.4065350">
        <ele>22.6</ele>
        <time>2021-07-19T13:19:09Z</time>
      </trkpt>
      <trkpt lat="43.5011770" lon="-5.4065710">
        <ele>23.0</ele>
        <time>2021-07-19T13:19:10Z</time>
      </trkpt>
      <trkpt lat="43.5011790" lon="-5.4066080">
        <ele>23.4</ele>
        <time>2021-07-19T13:19:11Z</time>
      </trkpt>
      <trkpt lat="43.5011770" lon="-5.4066450">
        <ele>23.8</ele>
        <time>2021-07-19T13:19:12Z</time>
      </trkpt>
      <trkpt lat="43.5011820" lon="-5.4068520">
        <ele>23.8</ele>
        <time>2021-07-19T13:19:17Z</time>
      </trkpt>
      <trkpt lat="43.5011640" lon="-5.4071930">
        <ele>23.8</ele>
        <time>2021-07-19T13:19:24Z</time>
      </trkpt>
      <trkpt lat="43.5011740" lon="-5.4074900">
        <ele>23.8</ele>
        <time>2021-07-19T13:19:30Z</time>
      </trkpt>
      <trkpt lat="43.5011870" lon="-5.4076470">
        <ele>23.8</ele>
        <time>2021-07-19T13:19:35Z</time>
      </trkpt>
      <trkpt lat="43.5011900" lon="-5.4076720">
        <ele>24.2</ele>
        <time>2021-07-19T13:19:36Z</time>
      </trkpt>
      <trkpt lat="43.5011940" lon="-5.4076980">
        <ele>24.6</ele>
        <time>2021-07-19T13:19:37Z</time>
      </trkpt>
      <trkpt lat="43.5011990" lon="-5.4077260">
        <ele>25.0</ele>
        <time>2021-07-19T13:19:38Z</time>
      </trkpt>
      <trkpt lat="43.5012030" lon="-5.4077550">
        <ele>25.4</ele>
        <time>2021-07-19T13:19:39Z</time>
      </trkpt>
      <trkpt lat="43.5012060" lon="-5.4077800">
        <ele>25.8</ele>
        <time>2021-07-19T13:19:40Z</time>
      </trkpt>
      <trkpt lat="43.5012140" lon="-5.4078800">
        <ele>25.8</ele>
        <time>2021-07-19T13:19:44Z</time>
      </trkpt>
      <trkpt lat="43.5012170" lon="-5.4079340">
        <ele>26.2</ele>
        <time>2021-07-19T13:19:46Z</time>
      </trkpt>
      <trkpt lat="43.5012170" lon="-5.4079540">
        <ele>26.8</ele>
        <time>2021-07-19T13:19:47Z</time>
      </trkpt>
      <trkpt lat="43.5012160" lon="-5.4079660">
        <ele>27.6</ele>
        <time>2021-07-19T13:19:48Z</time>
      </trkpt>
      <trkpt lat="43.5012160" lon="-5.4079790">
        <ele>28.0</ele>
        <time>2021-07-19T13:19:49Z</time>
      </trkpt>
      <trkpt lat="43.5012170" lon="-5.4079960">
        <ele>28.0</ele>
        <time>2021-07-19T13:19:50Z</time>
      </trkpt>
      <trkpt lat="43.5012230" lon="-5.4080680">
        <ele>28.4</ele>
        <time>2021-07-19T13:19:53Z</time>
      </trkpt>
      <trkpt lat="43.5012260" lon="-5.4080970">
        <ele>28.8</ele>
        <time>2021-07-19T13:19:54Z</time>
      </trkpt>
      <trkpt lat="43.5012290" lon="-5.4081210">
        <ele>29.2</ele>
        <time>2021-07-19T13:19:55Z</time>
      </trkpt>
      <trkpt lat="43.5012340" lon="-5.4081480">
        <ele>29.6</ele>
        <time>2021-07-19T13:19:56Z</time>
      </trkpt>
      <trkpt lat="43.5012340" lon="-5.4081820">
        <ele>30.0</ele>
        <time>2021-07-19T13:19:57Z</time>
      </trkpt>
      <trkpt lat="43.5012460" lon="-5.4084450">
        <ele>30.0</ele>
        <time>2021-07-19T13:20:04Z</time>
      </trkpt>
      <trkpt lat="43.5012370" lon="-5.4087320">
        <ele>30.0</ele>
        <time>2021-07-19T13:20:11Z</time>
      </trkpt>
      <trkpt lat="43.5012520" lon="-5.4088630">
        <ele>30.0</ele>
        <time>2021-07-19T13:20:14Z</time>
      </trkpt>
      <trkpt lat="43.5012600" lon="-5.4089630">
        <ele>30.0</ele>
        <time>2021-07-19T13:20:16Z</time>
      </trkpt>
      <trkpt lat="43.5012530" lon="-5.4090140">
        <ele>30.0</ele>
        <time>2021-07-19T13:20:17Z</time>
      </trkpt>
      <trkpt lat="43.5012450" lon="-5.4090930">
        <ele>30.0</ele>
        <time>2021-07-19T13:20:19Z</time>
      </trkpt>
      <trkpt lat="43.5012320" lon="-5.4091730">
        <ele>30.0</ele>
        <time>2021-07-19T13:20:21Z</time>
      </trkpt>
      <trkpt lat="43.5012180" lon="-5.4092580">
        <ele>29.6</ele>
        <time>2021-07-19T13:20:23Z</time>
      </trkpt>
      <trkpt lat="43.5012150" lon="-5.4093020">
        <ele>29.2</ele>
        <time>2021-07-19T13:20:24Z</time>
      </trkpt>
      <trkpt lat="43.5012150" lon="-5.4093460">
        <ele>28.6</ele>
        <time>2021-07-19T13:20:25Z</time>
      </trkpt>
      <trkpt lat="43.5012060" lon="-5.4093960">
        <ele>28.2</ele>
        <time>2021-07-19T13:20:26Z</time>
      </trkpt>
      <trkpt lat="43.5011910" lon="-5.4094510">
        <ele>27.6</ele>
        <time>2021-07-19T13:20:27Z</time>
      </trkpt>
      <trkpt lat="43.5011720" lon="-5.4095160">
        <ele>27.2</ele>
        <time>2021-07-19T13:20:28Z</time>
      </trkpt>
      <trkpt lat="43.5011480" lon="-5.4095770">
        <ele>26.6</ele>
        <time>2021-07-19T13:20:29Z</time>
      </trkpt>
      <trkpt lat="43.5011240" lon="-5.4096310">
        <ele>26.0</ele>
        <time>2021-07-19T13:20:30Z</time>
      </trkpt>
      <trkpt lat="43.5010920" lon="-5.4096840">
        <ele>25.4</ele>
        <time>2021-07-19T13:20:31Z</time>
      </trkpt>
      <trkpt lat="43.5010470" lon="-5.4097400">
        <ele>24.6</ele>
        <time>2021-07-19T13:20:32Z</time>
      </trkpt>
      <trkpt lat="43.5010010" lon="-5.4097970">
        <ele>24.0</ele>
        <time>2021-07-19T13:20:33Z</time>
      </trkpt>
      <trkpt lat="43.5009640" lon="-5.4098610">
        <ele>23.4</ele>
        <time>2021-07-19T13:20:34Z</time>
      </trkpt>
      <trkpt lat="43.5009280" lon="-5.4099260">
        <ele>22.8</ele>
        <time>2021-07-19T13:20:35Z</time>
      </trkpt>
      <trkpt lat="43.5008240" lon="-5.4101110">
        <ele>22.8</ele>
        <time>2021-07-19T13:20:38Z</time>
      </trkpt>
      <trkpt lat="43.5007590" lon="-5.4102130">
        <ele>22.8</ele>
        <time>2021-07-19T13:20:40Z</time>
      </trkpt>
      <trkpt lat="43.5006700" lon="-5.4103420">
        <ele>22.8</ele>
        <time>2021-07-19T13:20:43Z</time>
      </trkpt>
      <trkpt lat="43.5006010" lon="-5.4104390">
        <ele>22.8</ele>
        <time>2021-07-19T13:20:46Z</time>
      </trkpt>
      <trkpt lat="43.5004320" lon="-5.4106540">
        <ele>22.8</ele>
        <time>2021-07-19T13:20:53Z</time>
      </trkpt>
      <trkpt lat="43.5002930" lon="-5.4108030">
        <ele>22.8</ele>
        <time>2021-07-19T13:20:59Z</time>
      </trkpt>
      <trkpt lat="43.5002710" lon="-5.4108170">
        <ele>22.8</ele>
        <time>2021-07-19T13:21:00Z</time>
      </trkpt>
      <trkpt lat="43.5002140" lon="-5.4108420">
        <ele>22.8</ele>
        <time>2021-07-19T13:21:03Z</time>
      </trkpt>
      <trkpt lat="43.5001570" lon="-5.4108360">
        <ele>22.8</ele>
        <time>2021-07-19T13:21:06Z</time>
      </trkpt>
      <trkpt lat="43.5000510" lon="-5.4108800">
        <ele>22.8</ele>
        <time>2021-07-19T13:21:12Z</time>
      </trkpt>
      <trkpt lat="43.4999620" lon="-5.4109770">
        <ele>22.8</ele>
        <time>2021-07-19T13:21:16Z</time>
      </trkpt>
      <trkpt lat="43.4999290" lon="-5.4110050">
        <ele>22.4</ele>
        <time>2021-07-19T13:21:17Z</time>
      </trkpt>
      <trkpt lat="43.4998980" lon="-5.4110400">
        <ele>22.0</ele>
        <time>2021-07-19T13:21:18Z</time>
      </trkpt>
      <trkpt lat="43.4998650" lon="-5.4110720">
        <ele>21.4</ele>
        <time>2021-07-19T13:21:19Z</time>
      </trkpt>
      <trkpt lat="43.4998330" lon="-5.4111090">
        <ele>21.0</ele>
        <time>2021-07-19T13:21:20Z</time>
      </trkpt>
      <trkpt lat="43.4998010" lon="-5.4111450">
        <ele>20.6</ele>
        <time>2021-07-19T13:21:21Z</time>
      </trkpt>
      <trkpt lat="43.4997370" lon="-5.4112180">
        <ele>20.2</ele>
        <time>2021-07-19T13:21:23Z</time>
      </trkpt>
      <trkpt lat="43.4997050" lon="-5.4112490">
        <ele>19.8</ele>
        <time>2021-07-19T13:21:24Z</time>
      </trkpt>
      <trkpt lat="43.4996730" lon="-5.4112770">
        <ele>19.4</ele>
        <time>2021-07-19T13:21:25Z</time>
      </trkpt>
      <trkpt lat="43.4996410" lon="-5.4113090">
        <ele>18.6</ele>
        <time>2021-07-19T13:21:26Z</time>
      </trkpt>
      <trkpt lat="43.4995490" lon="-5.4114240">
        <ele>18.6</ele>
        <time>2021-07-19T13:21:29Z</time>
      </trkpt>
      <trkpt lat="43.4995150" lon="-5.4114650">
        <ele>18.2</ele>
        <time>2021-07-19T13:21:30Z</time>
      </trkpt>
      <trkpt lat="43.4994820" lon="-5.4115020">
        <ele>17.8</ele>
        <time>2021-07-19T13:21:31Z</time>
      </trkpt>
      <trkpt lat="43.4994520" lon="-5.4115450">
        <ele>17.4</ele>
        <time>2021-07-19T13:21:32Z</time>
      </trkpt>
      <trkpt lat="43.4994170" lon="-5.4115820">
        <ele>17.0</ele>
        <time>2021-07-19T13:21:33Z</time>
      </trkpt>
      <trkpt lat="43.4993820" lon="-5.4116170">
        <ele>16.4</ele>
        <time>2021-07-19T13:21:34Z</time>
      </trkpt>
      <trkpt lat="43.4992270" lon="-5.4117930">
        <ele>16.4</ele>
        <time>2021-07-19T13:21:38Z</time>
      </trkpt>
      <trkpt lat="43.4991870" lon="-5.4118460">
        <ele>16.4</ele>
        <time>2021-07-19T13:21:39Z</time>
      </trkpt>
      <trkpt lat="43.4991420" lon="-5.4119010">
        <ele>16.0</ele>
        <time>2021-07-19T13:21:40Z</time>
      </trkpt>
      <trkpt lat="43.4991020" lon="-5.4119520">
        <ele>15.6</ele>
        <time>2021-07-19T13:21:41Z</time>
      </trkpt>
      <trkpt lat="43.4990600" lon="-5.4120070">
        <ele>15.2</ele>
        <time>2021-07-19T13:21:42Z</time>
      </trkpt>
      <trkpt lat="43.4990240" lon="-5.4120600">
        <ele>14.6</ele>
        <time>2021-07-19T13:21:43Z</time>
      </trkpt>
      <trkpt lat="43.4989930" lon="-5.4121100">
        <ele>14.2</ele>
        <time>2021-07-19T13:21:44Z</time>
      </trkpt>
      <trkpt lat="43.4989640" lon="-5.4121610">
        <ele>14.2</ele>
        <time>2021-07-19T13:21:45Z</time>
      </trkpt>
      <trkpt lat="43.4989370" lon="-5.4122070">
        <ele>14.2</ele>
        <time>2021-07-19T13:21:46Z</time>
      </trkpt>
      <trkpt lat="43.4988190" lon="-5.4124100">
        <ele>13.8</ele>
        <time>2021-07-19T13:21:50Z</time>
      </trkpt>
      <trkpt lat="43.4987840" lon="-5.4124530">
        <ele>13.0</ele>
        <time>2021-07-19T13:21:51Z</time>
      </trkpt>
      <trkpt lat="43.4987540" lon="-5.4124870">
        <ele>12.6</ele>
        <time>2021-07-19T13:21:52Z</time>
      </trkpt>
      <trkpt lat="43.4987300" lon="-5.4125180">
        <ele>12.2</ele>
        <time>2021-07-19T13:21:53Z</time>
      </trkpt>
      <trkpt lat="43.4986880" lon="-5.4125620">
        <ele>11.8</ele>
        <time>2021-07-19T13:21:55Z</time>
      </trkpt>
      <trkpt lat="43.4986870" lon="-5.4125640">
        <ele>11.2</ele>
        <time>2021-07-19T13:21:56Z</time>
      </trkpt>
      <trkpt lat="43.4986830" lon="-5.4125660">
        <ele>10.8</ele>
        <time>2021-07-19T13:21:57Z</time>
      </trkpt>
      <trkpt lat="43.4986710" lon="-5.4125810">
        <ele>10.0</ele>
        <time>2021-07-19T13:22:07Z</time>
      </trkpt>
      <trkpt lat="43.4986170" lon="-5.4126190">
        <ele>10.0</ele>
        <time>2021-07-19T13:22:09Z</time>
      </trkpt>
      <trkpt lat="43.4985410" lon="-5.4126770">
        <ele>10.0</ele>
        <time>2021-07-19T13:22:11Z</time>
      </trkpt>
      <trkpt lat="43.4984500" lon="-5.4127510">
        <ele>9.4</ele>
        <time>2021-07-19T13:22:13Z</time>
      </trkpt>
      <trkpt lat="43.4984060" lon="-5.4127970">
        <ele>9.0</ele>
        <time>2021-07-19T13:22:14Z</time>
      </trkpt>
      <trkpt lat="43.4983640" lon="-5.4128540">
        <ele>8.6</ele>
        <time>2021-07-19T13:22:15Z</time>
      </trkpt>
      <trkpt lat="43.4983260" lon="-5.4129080">
        <ele>6.8</ele>
        <time>2021-07-19T13:22:16Z</time>
      </trkpt>
      <trkpt lat="43.4982860" lon="-5.4129590">
        <ele>6.0</ele>
        <time>2021-07-19T13:22:17Z</time>
      </trkpt>
      <trkpt lat="43.4982420" lon="-5.4130090">
        <ele>5.0</ele>
        <time>2021-07-19T13:22:18Z</time>
      </trkpt>
      <trkpt lat="43.4981940" lon="-5.4130630">
        <ele>4.2</ele>
        <time>2021-07-19T13:22:19Z</time>
      </trkpt>
      <trkpt lat="43.4981440" lon="-5.4131240">
        <ele>3.4</ele>
        <time>2021-07-19T13:22:20Z</time>
      </trkpt>
      <trkpt lat="43.4980930" lon="-5.4131880">
        <ele>2.6</ele>
        <time>2021-07-19T13:22:21Z</time>
      </trkpt>
      <trkpt lat="43.4980430" lon="-5.4132680">
        <ele>1.8</ele>
        <time>2021-07-19T13:22:22Z</time>
      </trkpt>
      <trkpt lat="43.4979820" lon="-5.4133410">
        <ele>0.8</ele>
        <time>2021-07-19T13:22:23Z</time>
      </trkpt>
      <trkpt lat="43.4979100" lon="-5.4134110">
        <ele>0.4</ele>
        <time>2021-07-19T13:22:24Z</time>
      </trkpt>
      <trkpt lat="43.4978330" lon="-5.4134700">
        <ele>-0.2</ele>
        <time>2021-07-19T13:22:25Z</time>
      </trkpt>
      <trkpt lat="43.4977570" lon="-5.4135300">
        <ele>-1.0</ele>
        <time>2021-07-19T13:22:26Z</time>
      </trkpt>
      <trkpt lat="43.4976920" lon="-5.4135730">
        <ele>-1.8</ele>
        <time>2021-07-19T13:22:27Z</time>
      </trkpt>
      <trkpt lat="43.4976310" lon="-5.4136040">
        <ele>-2.4</ele>
        <time>2021-07-19T13:22:28Z</time>
      </trkpt>
      <trkpt lat="43.4975760" lon="-5.4136280">
        <ele>-3.2</ele>
        <time>2021-07-19T13:22:29Z</time>
      </trkpt>
      <trkpt lat="43.4975300" lon="-5.4136380">
        <ele>-4.0</ele>
        <time>2021-07-19T13:22:30Z</time>
      </trkpt>
      <trkpt lat="43.4974140" lon="-5.4136280">
        <ele>-4.0</ele>
        <time>2021-07-19T13:22:34Z</time>
      </trkpt>
      <trkpt lat="43.4973730" lon="-5.4136120">
        <ele>-4.0</ele>
        <time>2021-07-19T13:22:36Z</time>
      </trkpt>
      <trkpt lat="43.4973340" lon="-5.4135810">
        <ele>-4.0</ele>
        <time>2021-07-19T13:22:38Z</time>
      </trkpt>
      <trkpt lat="43.4973020" lon="-5.4135460">
        <ele>-4.0</ele>
        <time>2021-07-19T13:22:40Z</time>
      </trkpt>
      <trkpt lat="43.4972860" lon="-5.4135330">
        <ele>-4.0</ele>
        <time>2021-07-19T13:22:41Z</time>
      </trkpt>
      <trkpt lat="43.4971730" lon="-5.4134400">
        <ele>-4.0</ele>
        <time>2021-07-19T13:22:48Z</time>
      </trkpt>
      <trkpt lat="43.4970410" lon="-5.4133950">
        <ele>-4.0</ele>
        <time>2021-07-19T13:22:53Z</time>
      </trkpt>
      <trkpt lat="43.4969070" lon="-5.4134290">
        <ele>-4.0</ele>
        <time>2021-07-19T13:22:57Z</time>
      </trkpt>
      <trkpt lat="43.4968730" lon="-5.4134490">
        <ele>-4.0</ele>
        <time>2021-07-19T13:22:58Z</time>
      </trkpt>
      <trkpt lat="43.4967730" lon="-5.4135690">
        <ele>-4.0</ele>
        <time>2021-07-19T13:23:02Z</time>
      </trkpt>
      <trkpt lat="43.4967270" lon="-5.4137280">
        <ele>-4.0</ele>
        <time>2021-07-19T13:23:05Z</time>
      </trkpt>
      <trkpt lat="43.4967130" lon="-5.4138470">
        <ele>-4.0</ele>
        <time>2021-07-19T13:23:07Z</time>
      </trkpt>
      <trkpt lat="43.4966240" lon="-5.4141220">
        <ele>-3.6</ele>
        <time>2021-07-19T13:23:12Z</time>
      </trkpt>
      <trkpt lat="43.4965940" lon="-5.4141640">
        <ele>-3.2</ele>
        <time>2021-07-19T13:23:13Z</time>
      </trkpt>
      <trkpt lat="43.4965630" lon="-5.4141990">
        <ele>-2.8</ele>
        <time>2021-07-19T13:23:14Z</time>
      </trkpt>
      <trkpt lat="43.4965330" lon="-5.4142360">
        <ele>-2.2</ele>
        <time>2021-07-19T13:23:15Z</time>
      </trkpt>
      <trkpt lat="43.4965010" lon="-5.4142710">
        <ele>-1.8</ele>
        <time>2021-07-19T13:23:16Z</time>
      </trkpt>
      <trkpt lat="43.4964350" lon="-5.4143180">
        <ele>-1.8</ele>
        <time>2021-07-19T13:23:18Z</time>
      </trkpt>
      <trkpt lat="43.4963680" lon="-5.4143600">
        <ele>-1.4</ele>
        <time>2021-07-19T13:23:20Z</time>
      </trkpt>
      <trkpt lat="43.4963370" lon="-5.4143790">
        <ele>-1.0</ele>
        <time>2021-07-19T13:23:21Z</time>
      </trkpt>
      <trkpt lat="43.4963060" lon="-5.4143970">
        <ele>-0.6</ele>
        <time>2021-07-19T13:23:22Z</time>
      </trkpt>
      <trkpt lat="43.4962720" lon="-5.4144160">
        <ele>-0.2</ele>
        <time>2021-07-19T13:23:23Z</time>
      </trkpt>
      <trkpt lat="43.4962400" lon="-5.4144350">
        <ele>0.2</ele>
        <time>2021-07-19T13:23:24Z</time>
      </trkpt>
      <trkpt lat="43.4961500" lon="-5.4144970">
        <ele>0.2</ele>
        <time>2021-07-19T13:23:27Z</time>
      </trkpt>
      <trkpt lat="43.4959390" lon="-5.4146150">
        <ele>0.2</ele>
        <time>2021-07-19T13:23:33Z</time>
      </trkpt>
      <trkpt lat="43.4959000" lon="-5.4146420">
        <ele>0.2</ele>
        <time>2021-07-19T13:23:34Z</time>
      </trkpt>
      <trkpt lat="43.4955270" lon="-5.4148840">
        <ele>0.2</ele>
        <time>2021-07-19T13:23:44Z</time>
      </trkpt>
      <trkpt lat="43.4952400" lon="-5.4150810">
        <ele>0.2</ele>
        <time>2021-07-19T13:23:51Z</time>
      </trkpt>
      <trkpt lat="43.4949460" lon="-5.4153170">
        <ele>0.2</ele>
        <time>2021-07-19T13:23:58Z</time>
      </trkpt>
      <trkpt lat="43.4949060" lon="-5.4153520">
        <ele>0.6</ele>
        <time>2021-07-19T13:23:59Z</time>
      </trkpt>
      <trkpt lat="43.4948650" lon="-5.4153830">
        <ele>1.0</ele>
        <time>2021-07-19T13:24:00Z</time>
      </trkpt>
      <trkpt lat="43.4948270" lon="-5.4154120">
        <ele>1.4</ele>
        <time>2021-07-19T13:24:01Z</time>
      </trkpt>
      <trkpt lat="43.4947890" lon="-5.4154430">
        <ele>1.8</ele>
        <time>2021-07-19T13:24:02Z</time>
      </trkpt>
      <trkpt lat="43.4947510" lon="-5.4154730">
        <ele>2.2</ele>
        <time>2021-07-19T13:24:03Z</time>
      </trkpt>
      <trkpt lat="43.4946050" lon="-5.4155890">
        <ele>2.2</ele>
        <time>2021-07-19T13:24:07Z</time>
      </trkpt>
      <trkpt lat="43.4945140" lon="-5.4156740">
        <ele>2.6</ele>
        <time>2021-07-19T13:24:10Z</time>
      </trkpt>
      <trkpt lat="43.4944840" lon="-5.4156980">
        <ele>3.0</ele>
        <time>2021-07-19T13:24:11Z</time>
      </trkpt>
      <trkpt lat="43.4944530" lon="-5.4157210">
        <ele>3.4</ele>
        <time>2021-07-19T13:24:12Z</time>
      </trkpt>
      <trkpt lat="43.4944190" lon="-5.4157450">
        <ele>3.8</ele>
        <time>2021-07-19T13:24:13Z</time>
      </trkpt>
      <trkpt lat="43.4943880" lon="-5.4157680">
        <ele>4.2</ele>
        <time>2021-07-19T13:24:14Z</time>
      </trkpt>
      <trkpt lat="43.4943300" lon="-5.4158110">
        <ele>4.2</ele>
        <time>2021-07-19T13:24:16Z</time>
      </trkpt>
      <trkpt lat="43.4940660" lon="-5.4160210">
        <ele>4.2</ele>
        <time>2021-07-19T13:24:24Z</time>
      </trkpt>
      <trkpt lat="43.4940330" lon="-5.4160470">
        <ele>4.6</ele>
        <time>2021-07-19T13:24:25Z</time>
      </trkpt>
      <trkpt lat="43.4940030" lon="-5.4160710">
        <ele>5.2</ele>
        <time>2021-07-19T13:24:26Z</time>
      </trkpt>
      <trkpt lat="43.4939710" lon="-5.4160970">
        <ele>5.6</ele>
        <time>2021-07-19T13:24:27Z</time>
      </trkpt>
      <trkpt lat="43.4939400" lon="-5.4161170">
        <ele>6.0</ele>
        <time>2021-07-19T13:24:28Z</time>
      </trkpt>
      <trkpt lat="43.4939100" lon="-5.4161400">
        <ele>6.4</ele>
        <time>2021-07-19T13:24:29Z</time>
      </trkpt>
      <trkpt lat="43.4938520" lon="-5.4161830">
        <ele>6.4</ele>
        <time>2021-07-19T13:24:31Z</time>
      </trkpt>
      <trkpt lat="43.4936970" lon="-5.4163020">
        <ele>6.8</ele>
        <time>2021-07-19T13:24:37Z</time>
      </trkpt>
      <trkpt lat="43.4936690" lon="-5.4163220">
        <ele>7.2</ele>
        <time>2021-07-19T13:24:38Z</time>
      </trkpt>
      <trkpt lat="43.4936390" lon="-5.4163350">
        <ele>7.6</ele>
        <time>2021-07-19T13:24:39Z</time>
      </trkpt>
      <trkpt lat="43.4936140" lon="-5.4163540">
        <ele>8.0</ele>
        <time>2021-07-19T13:24:40Z</time>
      </trkpt>
      <trkpt lat="43.4935890" lon="-5.4163720">
        <ele>8.6</ele>
        <time>2021-07-19T13:24:41Z</time>
      </trkpt>
      <trkpt lat="43.4935140" lon="-5.4164310">
        <ele>9.0</ele>
        <time>2021-07-19T13:24:45Z</time>
      </trkpt>
      <trkpt lat="43.4934940" lon="-5.4164480">
        <ele>9.4</ele>
        <time>2021-07-19T13:24:46Z</time>
      </trkpt>
      <trkpt lat="43.4934780" lon="-5.4164630">
        <ele>9.8</ele>
        <time>2021-07-19T13:24:47Z</time>
      </trkpt>
      <trkpt lat="43.4934610" lon="-5.4164760">
        <ele>10.2</ele>
        <time>2021-07-19T13:24:48Z</time>
      </trkpt>
      <trkpt lat="43.4934400" lon="-5.4164910">
        <ele>10.6</ele>
        <time>2021-07-19T13:24:49Z</time>
      </trkpt>
      <trkpt lat="43.4933840" lon="-5.4165420">
        <ele>10.6</ele>
        <time>2021-07-19T13:24:52Z</time>
      </trkpt>
      <trkpt lat="43.4933670" lon="-5.4165620">
        <ele>11.0</ele>
        <time>2021-07-19T13:24:53Z</time>
      </trkpt>
      <trkpt lat="43.4933490" lon="-5.4165760">
        <ele>11.4</ele>
        <time>2021-07-19T13:24:54Z</time>
      </trkpt>
      <trkpt lat="43.4933300" lon="-5.4165830">
        <ele>11.8</ele>
        <time>2021-07-19T13:24:55Z</time>
      </trkpt>
      <trkpt lat="43.4933130" lon="-5.4165910">
        <ele>12.4</ele>
        <time>2021-07-19T13:24:56Z</time>
      </trkpt>
      <trkpt lat="43.4932950" lon="-5.4166060">
        <ele>12.8</ele>
        <time>2021-07-19T13:24:57Z</time>
      </trkpt>
      <trkpt lat="43.4932570" lon="-5.4166220">
        <ele>12.8</ele>
        <time>2021-07-19T13:24:59Z</time>
      </trkpt>
      <trkpt lat="43.4931310" lon="-5.4167100">
        <ele>12.8</ele>
        <time>2021-07-19T13:25:05Z</time>
      </trkpt>
      <trkpt lat="43.4931120" lon="-5.4167330">
        <ele>13.2</ele>
        <time>2021-07-19T13:25:06Z</time>
      </trkpt>
      <trkpt lat="43.4930920" lon="-5.4167500">
        <ele>13.6</ele>
        <time>2021-07-19T13:25:07Z</time>
      </trkpt>
      <trkpt lat="43.4930700" lon="-5.4167650">
        <ele>14.4</ele>
        <time>2021-07-19T13:25:08Z</time>
      </trkpt>
      <trkpt lat="43.4930480" lon="-5.4167800">
        <ele>14.8</ele>
        <time>2021-07-19T13:25:09Z</time>
      </trkpt>
      <trkpt lat="43.4929590" lon="-5.4168400">
        <ele>14.8</ele>
        <time>2021-07-19T13:25:13Z</time>
      </trkpt>
      <trkpt lat="43.4928050" lon="-5.4169500">
        <ele>14.8</ele>
        <time>2021-07-19T13:25:20Z</time>
      </trkpt>
      <trkpt lat="43.4926280" lon="-5.4171500">
        <ele>14.8</ele>
        <time>2021-07-19T13:25:29Z</time>
      </trkpt>
      <trkpt lat="43.4926370" lon="-5.4172040">
        <ele>14.8</ele>
        <time>2021-07-19T13:25:30Z</time>
      </trkpt>
      <trkpt lat="43.4926740" lon="-5.4173140">
        <ele>14.8</ele>
        <time>2021-07-19T13:25:32Z</time>
      </trkpt>
      <trkpt lat="43.4927220" lon="-5.4174280">
        <ele>14.8</ele>
        <time>2021-07-19T13:25:34Z</time>
      </trkpt>
      <trkpt lat="43.4928190" lon="-5.4176510">
        <ele>14.8</ele>
        <time>2021-07-19T13:25:38Z</time>
      </trkpt>
      <trkpt lat="43.4928670" lon="-5.4177640">
        <ele>14.8</ele>
        <time>2021-07-19T13:25:40Z</time>
      </trkpt>
      <trkpt lat="43.4929190" lon="-5.4178770">
        <ele>14.8</ele>
        <time>2021-07-19T13:25:42Z</time>
      </trkpt>
      <trkpt lat="43.4929490" lon="-5.4179380">
        <ele>14.8</ele>
        <time>2021-07-19T13:25:43Z</time>
      </trkpt>
      <trkpt lat="43.4929730" lon="-5.4180050">
        <ele>14.8</ele>
        <time>2021-07-19T13:25:44Z</time>
      </trkpt>
      <trkpt lat="43.4929920" lon="-5.4180720">
        <ele>14.8</ele>
        <time>2021-07-19T13:25:45Z</time>
      </trkpt>
      <trkpt lat="43.4930190" lon="-5.4182270">
        <ele>14.8</ele>
        <time>2021-07-19T13:25:47Z</time>
      </trkpt>
      <trkpt lat="43.4930150" lon="-5.4185980">
        <ele>14.8</ele>
        <time>2021-07-19T13:25:51Z</time>
      </trkpt>
      <trkpt lat="43.4930100" lon="-5.4187530">
        <ele>14.4</ele>
        <time>2021-07-19T13:25:53Z</time>
      </trkpt>
      <trkpt lat="43.4930070" lon="-5.4188310">
        <ele>13.8</ele>
        <time>2021-07-19T13:25:54Z</time>
      </trkpt>
      <trkpt lat="43.4930050" lon="-5.4189000">
        <ele>13.2</ele>
        <time>2021-07-19T13:25:55Z</time>
      </trkpt>
      <trkpt lat="43.4930000" lon="-5.4189570">
        <ele>12.6</ele>
        <time>2021-07-19T13:25:56Z</time>
      </trkpt>
      <trkpt lat="43.4929980" lon="-5.4190190">
        <ele>11.2</ele>
        <time>2021-07-19T13:25:57Z</time>
      </trkpt>
      <trkpt lat="43.4929930" lon="-5.4190920">
        <ele>10.6</ele>
        <time>2021-07-19T13:25:58Z</time>
      </trkpt>
      <trkpt lat="43.4929880" lon="-5.4191710">
        <ele>10.0</ele>
        <time>2021-07-19T13:25:59Z</time>
      </trkpt>
      <trkpt lat="43.4929790" lon="-5.4193390">
        <ele>10.0</ele>
        <time>2021-07-19T13:26:01Z</time>
      </trkpt>
      <trkpt lat="43.4929720" lon="-5.4194240">
        <ele>10.0</ele>
        <time>2021-07-19T13:26:02Z</time>
      </trkpt>
      <trkpt lat="43.4929620" lon="-5.4195110">
        <ele>9.6</ele>
        <time>2021-07-19T13:26:03Z</time>
      </trkpt>
      <trkpt lat="43.4929550" lon="-5.4196010">
        <ele>9.2</ele>
        <time>2021-07-19T13:26:04Z</time>
      </trkpt>
      <trkpt lat="43.4929460" lon="-5.4196860">
        <ele>8.8</ele>
        <time>2021-07-19T13:26:05Z</time>
      </trkpt>
      <trkpt lat="43.4929380" lon="-5.4197750">
        <ele>8.2</ele>
        <time>2021-07-19T13:26:06Z</time>
      </trkpt>
      <trkpt lat="43.4929300" lon="-5.4198610">
        <ele>7.8</ele>
        <time>2021-07-19T13:26:07Z</time>
      </trkpt>
      <trkpt lat="43.4929160" lon="-5.4199480">
        <ele>7.4</ele>
        <time>2021-07-19T13:26:08Z</time>
      </trkpt>
      <trkpt lat="43.4928990" lon="-5.4200390">
        <ele>6.8</ele>
        <time>2021-07-19T13:26:09Z</time>
      </trkpt>
      <trkpt lat="43.4928790" lon="-5.4201310">
        <ele>6.4</ele>
        <time>2021-07-19T13:26:10Z</time>
      </trkpt>
      <trkpt lat="43.4928590" lon="-5.4202290">
        <ele>5.8</ele>
        <time>2021-07-19T13:26:11Z</time>
      </trkpt>
      <trkpt lat="43.4928350" lon="-5.4203220">
        <ele>5.4</ele>
        <time>2021-07-19T13:26:12Z</time>
      </trkpt>
      <trkpt lat="43.4928120" lon="-5.4204160">
        <ele>5.0</ele>
        <time>2021-07-19T13:26:13Z</time>
      </trkpt>
      <trkpt lat="43.4927850" lon="-5.4205120">
        <ele>4.4</ele>
        <time>2021-07-19T13:26:14Z</time>
      </trkpt>
      <trkpt lat="43.4927570" lon="-5.4206000">
        <ele>3.8</ele>
        <time>2021-07-19T13:26:15Z</time>
      </trkpt>
      <trkpt lat="43.4927280" lon="-5.4206830">
        <ele>3.0</ele>
        <time>2021-07-19T13:26:16Z</time>
      </trkpt>
      <trkpt lat="43.4926950" lon="-5.4207650">
        <ele>2.2</ele>
        <time>2021-07-19T13:26:17Z</time>
      </trkpt>
      <trkpt lat="43.4926570" lon="-5.4208490">
        <ele>1.4</ele>
        <time>2021-07-19T13:26:18Z</time>
      </trkpt>
      <trkpt lat="43.4926140" lon="-5.4209270">
        <ele>0.6</ele>
        <time>2021-07-19T13:26:19Z</time>
      </trkpt>
      <trkpt lat="43.4925680" lon="-5.4210040">
        <ele>-0.2</ele>
        <time>2021-07-19T13:26:20Z</time>
      </trkpt>
      <trkpt lat="43.4925220" lon="-5.4210810">
        <ele>-1.0</ele>
        <time>2021-07-19T13:26:21Z</time>
      </trkpt>
      <trkpt lat="43.4924790" lon="-5.4211490">
        <ele>-1.6</ele>
        <time>2021-07-19T13:26:22Z</time>
      </trkpt>
      <trkpt lat="43.4924420" lon="-5.4212110">
        <ele>-2.8</ele>
        <time>2021-07-19T13:26:23Z</time>
      </trkpt>
      <trkpt lat="43.4924050" lon="-5.4212710">
        <ele>-3.6</ele>
        <time>2021-07-19T13:26:24Z</time>
      </trkpt>
      <trkpt lat="43.4923690" lon="-5.4213380">
        <ele>-4.2</ele>
        <time>2021-07-19T13:26:25Z</time>
      </trkpt>
      <trkpt lat="43.4923370" lon="-5.4214120">
        <ele>-5.0</ele>
        <time>2021-07-19T13:26:26Z</time>
      </trkpt>
      <trkpt lat="43.4923110" lon="-5.4214940">
        <ele>-5.8</ele>
        <time>2021-07-19T13:26:27Z</time>
      </trkpt>
      <trkpt lat="43.4922900" lon="-5.4215810">
        <ele>-6.4</ele>
        <time>2021-07-19T13:26:28Z</time>
      </trkpt>
      <trkpt lat="43.4922770" lon="-5.4216710">
        <ele>-7.0</ele>
        <time>2021-07-19T13:26:29Z</time>
      </trkpt>
      <trkpt lat="43.4922600" lon="-5.4217590">
        <ele>-7.6</ele>
        <time>2021-07-19T13:26:30Z</time>
      </trkpt>
      <trkpt lat="43.4922430" lon="-5.4218380">
        <ele>-8.2</ele>
        <time>2021-07-19T13:26:31Z</time>
      </trkpt>
      <trkpt lat="43.4922230" lon="-5.4219110">
        <ele>-8.8</ele>
        <time>2021-07-19T13:26:32Z</time>
      </trkpt>
      <trkpt lat="43.4921990" lon="-5.4219730">
        <ele>-9.6</ele>
        <time>2021-07-19T13:26:33Z</time>
      </trkpt>
      <trkpt lat="43.4921750" lon="-5.4220240">
        <ele>-10.2</ele>
        <time>2021-07-19T13:26:34Z</time>
      </trkpt>
      <trkpt lat="43.4921530" lon="-5.4220720">
        <ele>-10.8</ele>
        <time>2021-07-19T13:26:35Z</time>
      </trkpt>
      <trkpt lat="43.4921290" lon="-5.4221120">
        <ele>-11.6</ele>
        <time>2021-07-19T13:26:36Z</time>
      </trkpt>
      <trkpt lat="43.4920930" lon="-5.4221500">
        <ele>-12.2</ele>
        <time>2021-07-19T13:26:37Z</time>
      </trkpt>
      <trkpt lat="43.4920460" lon="-5.4221860">
        <ele>-13.0</ele>
        <time>2021-07-19T13:26:38Z</time>
      </trkpt>
      <trkpt lat="43.4919970" lon="-5.4222200">
        <ele>-13.6</ele>
        <time>2021-07-19T13:26:39Z</time>
      </trkpt>
      <trkpt lat="43.4919050" lon="-5.4222890">
        <ele>-13.6</ele>
        <time>2021-07-19T13:26:41Z</time>
      </trkpt>
      <trkpt lat="43.4918660" lon="-5.4223280">
        <ele>-14.0</ele>
        <time>2021-07-19T13:26:42Z</time>
      </trkpt>
      <trkpt lat="43.4918240" lon="-5.4223740">
        <ele>-14.4</ele>
        <time>2021-07-19T13:26:43Z</time>
      </trkpt>
      <trkpt lat="43.4917840" lon="-5.4224130">
        <ele>-14.8</ele>
        <time>2021-07-19T13:26:44Z</time>
      </trkpt>
      <trkpt lat="43.4917510" lon="-5.4224440">
        <ele>-15.2</ele>
        <time>2021-07-19T13:26:45Z</time>
      </trkpt>
      <trkpt lat="43.4917240" lon="-5.4224760">
        <ele>-15.6</ele>
        <time>2021-07-19T13:26:46Z</time>
      </trkpt>
      <trkpt lat="43.4916680" lon="-5.4225400">
        <ele>-15.6</ele>
        <time>2021-07-19T13:26:48Z</time>
      </trkpt>
      <trkpt lat="43.4916400" lon="-5.4225720">
        <ele>-15.6</ele>
        <time>2021-07-19T13:26:49Z</time>
      </trkpt>
      <trkpt lat="43.4916130" lon="-5.4226040">
        <ele>-15.6</ele>
        <time>2021-07-19T13:26:50Z</time>
      </trkpt>
      <trkpt lat="43.4915590" lon="-5.4226600">
        <ele>-15.6</ele>
        <time>2021-07-19T13:26:52Z</time>
      </trkpt>
      <trkpt lat="43.4915100" lon="-5.4227070">
        <ele>-15.6</ele>
        <time>2021-07-19T13:26:54Z</time>
      </trkpt>
      <trkpt lat="43.4914930" lon="-5.4227280">
        <ele>-15.6</ele>
        <time>2021-07-19T13:26:55Z</time>
      </trkpt>
      <trkpt lat="43.4914770" lon="-5.4227480">
        <ele>-15.2</ele>
        <time>2021-07-19T13:26:56Z</time>
      </trkpt>
      <trkpt lat="43.4914600" lon="-5.4227650">
        <ele>-14.8</ele>
        <time>2021-07-19T13:26:57Z</time>
      </trkpt>
      <trkpt lat="43.4914380" lon="-5.4227810">
        <ele>-14.4</ele>
        <time>2021-07-19T13:26:58Z</time>
      </trkpt>
      <trkpt lat="43.4914220" lon="-5.4227990">
        <ele>-14.0</ele>
        <time>2021-07-19T13:26:59Z</time>
      </trkpt>
      <trkpt lat="43.4914030" lon="-5.4228280">
        <ele>-13.6</ele>
        <time>2021-07-19T13:27:00Z</time>
      </trkpt>
      <trkpt lat="43.4913840" lon="-5.4228460">
        <ele>-13.6</ele>
        <time>2021-07-19T13:27:01Z</time>
      </trkpt>
      <trkpt lat="43.4913520" lon="-5.4228740">
        <ele>-13.6</ele>
        <time>2021-07-19T13:27:03Z</time>
      </trkpt>
      <trkpt lat="43.4913270" lon="-5.4228990">
        <ele>-13.0</ele>
        <time>2021-07-19T13:27:05Z</time>
      </trkpt>
      <trkpt lat="43.4913130" lon="-5.4229120">
        <ele>-12.6</ele>
        <time>2021-07-19T13:27:06Z</time>
      </trkpt>
      <trkpt lat="43.4912970" lon="-5.4229250">
        <ele>-12.2</ele>
        <time>2021-07-19T13:27:07Z</time>
      </trkpt>
      <trkpt lat="43.4912820" lon="-5.4229390">
        <ele>-11.8</ele>
        <time>2021-07-19T13:27:08Z</time>
      </trkpt>
      <trkpt lat="43.4912680" lon="-5.4229550">
        <ele>-11.4</ele>
        <time>2021-07-19T13:27:09Z</time>
      </trkpt>
      <trkpt lat="43.4912240" lon="-5.4229900">
        <ele>-11.4</ele>
        <time>2021-07-19T13:27:12Z</time>
      </trkpt>
      <trkpt lat="43.4911760" lon="-5.4230250">
        <ele>-11.0</ele>
        <time>2021-07-19T13:27:15Z</time>
      </trkpt>
      <trkpt lat="43.4911570" lon="-5.4230300">
        <ele>-10.4</ele>
        <time>2021-07-19T13:27:16Z</time>
      </trkpt>
      <trkpt lat="43.4911380" lon="-5.4230420">
        <ele>-10.0</ele>
        <time>2021-07-19T13:27:17Z</time>
      </trkpt>
      <trkpt lat="43.4911230" lon="-5.4230460">
        <ele>-9.6</ele>
        <time>2021-07-19T13:27:18Z</time>
      </trkpt>
      <trkpt lat="43.4911040" lon="-5.4230420">
        <ele>-9.2</ele>
        <time>2021-07-19T13:27:19Z</time>
      </trkpt>
      <trkpt lat="43.4910910" lon="-5.4230420">
        <ele>-9.2</ele>
        <time>2021-07-19T13:27:20Z</time>
      </trkpt>
      <trkpt lat="43.4910270" lon="-5.4230420">
        <ele>-9.2</ele>
        <time>2021-07-19T13:27:24Z</time>
      </trkpt>
      <trkpt lat="43.4910130" lon="-5.4230360">
        <ele>-8.8</ele>
        <time>2021-07-19T13:27:25Z</time>
      </trkpt>
      <trkpt lat="43.4909990" lon="-5.4230210">
        <ele>-8.2</ele>
        <time>2021-07-19T13:27:26Z</time>
      </trkpt>
      <trkpt lat="43.4909880" lon="-5.4230060">
        <ele>-7.8</ele>
        <time>2021-07-19T13:27:27Z</time>
      </trkpt>
      <trkpt lat="43.4909750" lon="-5.4229910">
        <ele>-7.4</ele>
        <time>2021-07-19T13:27:28Z</time>
      </trkpt>
      <trkpt lat="43.4909620" lon="-5.4229740">
        <ele>-7.0</ele>
        <time>2021-07-19T13:27:29Z</time>
      </trkpt>
      <trkpt lat="43.4909530" lon="-5.4228840">
        <ele>-6.6</ele>
        <time>2021-07-19T13:27:33Z</time>
      </trkpt>
      <trkpt lat="43.4909530" lon="-5.4228590">
        <ele>-6.2</ele>
        <time>2021-07-19T13:27:34Z</time>
      </trkpt>
      <trkpt lat="43.4909580" lon="-5.4228390">
        <ele>-5.8</ele>
        <time>2021-07-19T13:27:35Z</time>
      </trkpt>
      <trkpt lat="43.4909650" lon="-5.4228170">
        <ele>-5.4</ele>
        <time>2021-07-19T13:27:36Z</time>
      </trkpt>
      <trkpt lat="43.4909660" lon="-5.4227940">
        <ele>-4.8</ele>
        <time>2021-07-19T13:27:37Z</time>
      </trkpt>
      <trkpt lat="43.4909720" lon="-5.4227350">
        <ele>-4.8</ele>
        <time>2021-07-19T13:27:40Z</time>
      </trkpt>
      <trkpt lat="43.4909740" lon="-5.4226810">
        <ele>-4.4</ele>
        <time>2021-07-19T13:27:43Z</time>
      </trkpt>
      <trkpt lat="43.4909770" lon="-5.4226590">
        <ele>-4.0</ele>
        <time>2021-07-19T13:27:44Z</time>
      </trkpt>
      <trkpt lat="43.4909740" lon="-5.4226360">
        <ele>-3.6</ele>
        <time>2021-07-19T13:27:45Z</time>
      </trkpt>
      <trkpt lat="43.4909720" lon="-5.4226140">
        <ele>-3.2</ele>
        <time>2021-07-19T13:27:46Z</time>
      </trkpt>
      <trkpt lat="43.4909730" lon="-5.4225930">
        <ele>-2.8</ele>
        <time>2021-07-19T13:27:47Z</time>
      </trkpt>
      <trkpt lat="43.4909660" lon="-5.4224870">
        <ele>-2.8</ele>
        <time>2021-07-19T13:27:52Z</time>
      </trkpt>
      <trkpt lat="43.4909650" lon="-5.4224650">
        <ele>-2.4</ele>
        <time>2021-07-19T13:27:53Z</time>
      </trkpt>
      <trkpt lat="43.4909640" lon="-5.4224440">
        <ele>-2.0</ele>
        <time>2021-07-19T13:27:54Z</time>
      </trkpt>
      <trkpt lat="43.4909600" lon="-5.4224270">
        <ele>-1.4</ele>
        <time>2021-07-19T13:27:55Z</time>
      </trkpt>
      <trkpt lat="43.4909550" lon="-5.4224120">
        <ele>-1.0</ele>
        <time>2021-07-19T13:27:56Z</time>
      </trkpt>
      <trkpt lat="43.4909530" lon="-5.4223940">
        <ele>-0.6</ele>
        <time>2021-07-19T13:27:57Z</time>
      </trkpt>
      <trkpt lat="43.4909330" lon="-5.4223420">
        <ele>-0.6</ele>
        <time>2021-07-19T13:28:00Z</time>
      </trkpt>
      <trkpt lat="43.4909030" lon="-5.4222840">
        <ele>-0.2</ele>
        <time>2021-07-19T13:28:04Z</time>
      </trkpt>
      <trkpt lat="43.4908970" lon="-5.4222680">
        <ele>0.2</ele>
        <time>2021-07-19T13:28:05Z</time>
      </trkpt>
      <trkpt lat="43.4908900" lon="-5.4222540">
        <ele>0.6</ele>
        <time>2021-07-19T13:28:06Z</time>
      </trkpt>
      <trkpt lat="43.4908810" lon="-5.4222380">
        <ele>1.0</ele>
        <time>2021-07-19T13:28:07Z</time>
      </trkpt>
      <trkpt lat="43.4908720" lon="-5.4222230">
        <ele>1.4</ele>
        <time>2021-07-19T13:28:08Z</time>
      </trkpt>
      <trkpt lat="43.4908090" lon="-5.4221100">
        <ele>1.8</ele>
        <time>2021-07-19T13:28:15Z</time>
      </trkpt>
      <trkpt lat="43.4908010" lon="-5.4220910">
        <ele>2.4</ele>
        <time>2021-07-19T13:28:16Z</time>
      </trkpt>
      <trkpt lat="43.4907920" lon="-5.4220740">
        <ele>2.8</ele>
        <time>2021-07-19T13:28:17Z</time>
      </trkpt>
      <trkpt lat="43.4907800" lon="-5.4220570">
        <ele>3.2</ele>
        <time>2021-07-19T13:28:18Z</time>
      </trkpt>
      <trkpt lat="43.4907690" lon="-5.4220470">
        <ele>3.8</ele>
        <time>2021-07-19T13:28:19Z</time>
      </trkpt>
      <trkpt lat="43.4906990" lon="-5.4219840">
        <ele>3.8</ele>
        <time>2021-07-19T13:28:24Z</time>
      </trkpt>
      <trkpt lat="43.4906260" lon="-5.4219460">
        <ele>4.2</ele>
        <time>2021-07-19T13:28:29Z</time>
      </trkpt>
      <trkpt lat="43.4906090" lon="-5.4219360">
        <ele>4.6</ele>
        <time>2021-07-19T13:28:30Z</time>
      </trkpt>
      <trkpt lat="43.4905940" lon="-5.4219330">
        <ele>5.0</ele>
        <time>2021-07-19T13:28:31Z</time>
      </trkpt>
      <trkpt lat="43.4905740" lon="-5.4219290">
        <ele>5.4</ele>
        <time>2021-07-19T13:28:32Z</time>
      </trkpt>
      <trkpt lat="43.4905590" lon="-5.4219190">
        <ele>5.8</ele>
        <time>2021-07-19T13:28:33Z</time>
      </trkpt>
      <trkpt lat="43.4904790" lon="-5.4218890">
        <ele>5.8</ele>
        <time>2021-07-19T13:28:38Z</time>
      </trkpt>
      <trkpt lat="43.4904040" lon="-5.4218640">
        <ele>6.2</ele>
        <time>2021-07-19T13:28:43Z</time>
      </trkpt>
      <trkpt lat="43.4903870" lon="-5.4218550">
        <ele>6.8</ele>
        <time>2021-07-19T13:28:44Z</time>
      </trkpt>
      <trkpt lat="43.4903690" lon="-5.4218500">
        <ele>7.2</ele>
        <time>2021-07-19T13:28:45Z</time>
      </trkpt>
      <trkpt lat="43.4903510" lon="-5.4218460">
        <ele>7.6</ele>
        <time>2021-07-19T13:28:46Z</time>
      </trkpt>
      <trkpt lat="43.4903330" lon="-5.4218380">
        <ele>8.0</ele>
        <time>2021-07-19T13:28:47Z</time>
      </trkpt>
      <trkpt lat="43.4902370" lon="-5.4217820">
        <ele>8.0</ele>
        <time>2021-07-19T13:28:53Z</time>
      </trkpt>
      <trkpt lat="43.4902030" lon="-5.4217710">
        <ele>8.4</ele>
        <time>2021-07-19T13:28:55Z</time>
      </trkpt>
      <trkpt lat="43.4901920" lon="-5.4217570">
        <ele>8.8</ele>
        <time>2021-07-19T13:28:56Z</time>
      </trkpt>
      <trkpt lat="43.4901780" lon="-5.4217440">
        <ele>9.2</ele>
        <time>2021-07-19T13:28:57Z</time>
      </trkpt>
      <trkpt lat="43.4901600" lon="-5.4217380">
        <ele>9.8</ele>
        <time>2021-07-19T13:28:58Z</time>
      </trkpt>
      <trkpt lat="43.4901430" lon="-5.4217300">
        <ele>10.2</ele>
        <time>2021-07-19T13:28:59Z</time>
      </trkpt>
      <trkpt lat="43.4900390" lon="-5.4216580">
        <ele>10.2</ele>
        <time>2021-07-19T13:29:06Z</time>
      </trkpt>
      <trkpt lat="43.4900080" lon="-5.4216350">
        <ele>10.6</ele>
        <time>2021-07-19T13:29:08Z</time>
      </trkpt>
      <trkpt lat="43.4899930" lon="-5.4216210">
        <ele>11.0</ele>
        <time>2021-07-19T13:29:09Z</time>
      </trkpt>
      <trkpt lat="43.4899780" lon="-5.4216090">
        <ele>11.4</ele>
        <time>2021-07-19T13:29:10Z</time>
      </trkpt>
      <trkpt lat="43.4899620" lon="-5.4215990">
        <ele>11.8</ele>
        <time>2021-07-19T13:29:11Z</time>
      </trkpt>
      <trkpt lat="43.4899450" lon="-5.4215890">
        <ele>12.2</ele>
        <time>2021-07-19T13:29:12Z</time>
      </trkpt>
      <trkpt lat="43.4899160" lon="-5.4215700">
        <ele>12.2</ele>
        <time>2021-07-19T13:29:14Z</time>
      </trkpt>
      <trkpt lat="43.4898540" lon="-5.4215300">
        <ele>12.6</ele>
        <time>2021-07-19T13:29:18Z</time>
      </trkpt>
      <trkpt lat="43.4898370" lon="-5.4215160">
        <ele>13.0</ele>
        <time>2021-07-19T13:29:19Z</time>
      </trkpt>
      <trkpt lat="43.4898190" lon="-5.4215000">
        <ele>13.4</ele>
        <time>2021-07-19T13:29:20Z</time>
      </trkpt>
      <trkpt lat="43.4898000" lon="-5.4214890">
        <ele>13.8</ele>
        <time>2021-07-19T13:29:21Z</time>
      </trkpt>
      <trkpt lat="43.4897840" lon="-5.4214790">
        <ele>14.4</ele>
        <time>2021-07-19T13:29:22Z</time>
      </trkpt>
      <trkpt lat="43.4896990" lon="-5.4214270">
        <ele>14.4</ele>
        <time>2021-07-19T13:29:27Z</time>
      </trkpt>
      <trkpt lat="43.4895520" lon="-5.4213270">
        <ele>14.4</ele>
        <time>2021-07-19T13:29:36Z</time>
      </trkpt>
      <trkpt lat="43.4895040" lon="-5.4212930">
        <ele>14.8</ele>
        <time>2021-07-19T13:29:39Z</time>
      </trkpt>
      <trkpt lat="43.4894930" lon="-5.4212680">
        <ele>15.2</ele>
        <time>2021-07-19T13:29:40Z</time>
      </trkpt>
      <trkpt lat="43.4894740" lon="-5.4212530">
        <ele>16.0</ele>
        <time>2021-07-19T13:29:41Z</time>
      </trkpt>
      <trkpt lat="43.4894540" lon="-5.4212430">
        <ele>16.4</ele>
        <time>2021-07-19T13:29:42Z</time>
      </trkpt>
      <trkpt lat="43.4894380" lon="-5.4212280">
        <ele>16.4</ele>
        <time>2021-07-19T13:29:43Z</time>
      </trkpt>
      <trkpt lat="43.4893240" lon="-5.4211120">
        <ele>16.4</ele>
        <time>2021-07-19T13:29:50Z</time>
      </trkpt>
      <trkpt lat="43.4892680" lon="-5.4210270">
        <ele>16.4</ele>
        <time>2021-07-19T13:29:54Z</time>
      </trkpt>
      <trkpt lat="43.4892190" lon="-5.4209570">
        <ele>16.4</ele>
        <time>2021-07-19T13:29:58Z</time>
      </trkpt>
      <trkpt lat="43.4891940" lon="-5.4209910">
        <ele>16.4</ele>
        <time>2021-07-19T13:30:01Z</time>
      </trkpt>
      <trkpt lat="43.4892000" lon="-5.4210140">
        <ele>16.4</ele>
        <time>2021-07-19T13:30:02Z</time>
      </trkpt>
      <trkpt lat="43.4892430" lon="-5.4210850">
        <ele>16.4</ele>
        <time>2021-07-19T13:30:05Z</time>
      </trkpt>
      <trkpt lat="43.4892640" lon="-5.4211020">
        <ele>16.4</ele>
        <time>2021-07-19T13:30:06Z</time>
      </trkpt>
      <trkpt lat="43.4893760" lon="-5.4212330">
        <ele>16.4</ele>
        <time>2021-07-19T13:30:11Z</time>
      </trkpt>
      <trkpt lat="43.4894130" lon="-5.4212750">
        <ele>16.4</ele>
        <time>2021-07-19T13:30:13Z</time>
      </trkpt>
      <trkpt lat="43.4894380" lon="-5.4213590">
        <ele>16.4</ele>
        <time>2021-07-19T13:30:16Z</time>
      </trkpt>
      <trkpt lat="43.4894400" lon="-5.4213870">
        <ele>16.4</ele>
        <time>2021-07-19T13:30:17Z</time>
      </trkpt>
      <trkpt lat="43.4894440" lon="-5.4214260">
        <ele>16.0</ele>
        <time>2021-07-19T13:30:18Z</time>
      </trkpt>
      <trkpt lat="43.4894410" lon="-5.4214720">
        <ele>15.6</ele>
        <time>2021-07-19T13:30:19Z</time>
      </trkpt>
      <trkpt lat="43.4894390" lon="-5.4215170">
        <ele>15.0</ele>
        <time>2021-07-19T13:30:20Z</time>
      </trkpt>
      <trkpt lat="43.4894350" lon="-5.4215650">
        <ele>14.6</ele>
        <time>2021-07-19T13:30:21Z</time>
      </trkpt>
      <trkpt lat="43.4894330" lon="-5.4216140">
        <ele>14.2</ele>
        <time>2021-07-19T13:30:22Z</time>
      </trkpt>
      <trkpt lat="43.4894190" lon="-5.4217160">
        <ele>13.8</ele>
        <time>2021-07-19T13:30:24Z</time>
      </trkpt>
      <trkpt lat="43.4894070" lon="-5.4217660">
        <ele>13.2</ele>
        <time>2021-07-19T13:30:25Z</time>
      </trkpt>
      <trkpt lat="43.4893940" lon="-5.4218130">
        <ele>12.4</ele>
        <time>2021-07-19T13:30:26Z</time>
      </trkpt>
      <trkpt lat="43.4893890" lon="-5.4218580">
        <ele>11.6</ele>
        <time>2021-07-19T13:30:27Z</time>
      </trkpt>
      <trkpt lat="43.4893790" lon="-5.4218970">
        <ele>10.8</ele>
        <time>2021-07-19T13:30:28Z</time>
      </trkpt>
      <trkpt lat="43.4893610" lon="-5.4219390">
        <ele>10.2</ele>
        <time>2021-07-19T13:30:29Z</time>
      </trkpt>
      <trkpt lat="43.4893400" lon="-5.4219910">
        <ele>8.6</ele>
        <time>2021-07-19T13:30:30Z</time>
      </trkpt>
      <trkpt lat="43.4893180" lon="-5.4220430">
        <ele>8.0</ele>
        <time>2021-07-19T13:30:31Z</time>
      </trkpt>
      <trkpt lat="43.4892910" lon="-5.4220890">
        <ele>7.2</ele>
        <time>2021-07-19T13:30:32Z</time>
      </trkpt>
      <trkpt lat="43.4892340" lon="-5.4222070">
        <ele>6.8</ele>
        <time>2021-07-19T13:30:34Z</time>
      </trkpt>
      <trkpt lat="43.4892100" lon="-5.4222680">
        <ele>6.4</ele>
        <time>2021-07-19T13:30:35Z</time>
      </trkpt>
      <trkpt lat="43.4891970" lon="-5.4223250">
        <ele>6.0</ele>
        <time>2021-07-19T13:30:36Z</time>
      </trkpt>
      <trkpt lat="43.4891920" lon="-5.4223860">
        <ele>5.6</ele>
        <time>2021-07-19T13:30:37Z</time>
      </trkpt>
      <trkpt lat="43.4891900" lon="-5.4224450">
        <ele>5.2</ele>
        <time>2021-07-19T13:30:38Z</time>
      </trkpt>
      <trkpt lat="43.4891850" lon="-5.4225110">
        <ele>5.2</ele>
        <time>2021-07-19T13:30:40Z</time>
      </trkpt>
      <trkpt lat="43.4891770" lon="-5.4225450">
        <ele>5.2</ele>
        <time>2021-07-19T13:30:41Z</time>
      </trkpt>
      <trkpt lat="43.4891740" lon="-5.4225760">
        <ele>5.2</ele>
        <time>2021-07-19T13:30:42Z</time>
      </trkpt>
      <trkpt lat="43.4891640" lon="-5.4226060">
        <ele>5.2</ele>
        <time>2021-07-19T13:30:43Z</time>
      </trkpt>
      <trkpt lat="43.4891410" lon="-5.4226580">
        <ele>5.2</ele>
        <time>2021-07-19T13:30:45Z</time>
      </trkpt>
      <trkpt lat="43.4891170" lon="-5.4227180">
        <ele>5.6</ele>
        <time>2021-07-19T13:30:47Z</time>
      </trkpt>
      <trkpt lat="43.4891030" lon="-5.4227510">
        <ele>6.0</ele>
        <time>2021-07-19T13:30:48Z</time>
      </trkpt>
      <trkpt lat="43.4890980" lon="-5.4227810">
        <ele>6.4</ele>
        <time>2021-07-19T13:30:49Z</time>
      </trkpt>
      <trkpt lat="43.4890960" lon="-5.4228090">
        <ele>6.8</ele>
        <time>2021-07-19T13:30:50Z</time>
      </trkpt>
      <trkpt lat="43.4890900" lon="-5.4228370">
        <ele>7.2</ele>
        <time>2021-07-19T13:30:51Z</time>
      </trkpt>
      <trkpt lat="43.4890730" lon="-5.4228850">
        <ele>7.2</ele>
        <time>2021-07-19T13:30:53Z</time>
      </trkpt>
      <trkpt lat="43.4890320" lon="-5.4230340">
        <ele>7.2</ele>
        <time>2021-07-19T13:30:57Z</time>
      </trkpt>
      <trkpt lat="43.4890140" lon="-5.4231230">
        <ele>7.2</ele>
        <time>2021-07-19T13:30:59Z</time>
      </trkpt>
      <trkpt lat="43.4889810" lon="-5.4233470">
        <ele>6.8</ele>
        <time>2021-07-19T13:31:04Z</time>
      </trkpt>
      <trkpt lat="43.4889780" lon="-5.4233980">
        <ele>6.4</ele>
        <time>2021-07-19T13:31:05Z</time>
      </trkpt>
      <trkpt lat="43.4889780" lon="-5.4234400">
        <ele>5.8</ele>
        <time>2021-07-19T13:31:06Z</time>
      </trkpt>
      <trkpt lat="43.4889710" lon="-5.4234790">
        <ele>5.4</ele>
        <time>2021-07-19T13:31:07Z</time>
      </trkpt>
      <trkpt lat="43.4889630" lon="-5.4235040">
        <ele>5.0</ele>
        <time>2021-07-19T13:31:08Z</time>
      </trkpt>
      <trkpt lat="43.4889550" lon="-5.4235480">
        <ele>5.0</ele>
        <time>2021-07-19T13:31:10Z</time>
      </trkpt>
      <trkpt lat="43.4889540" lon="-5.4235440">
        <ele>4.6</ele>
        <time>2021-07-19T13:31:11Z</time>
      </trkpt>
      <trkpt lat="43.4889520" lon="-5.4235460">
        <ele>4.2</ele>
        <time>2021-07-19T13:31:12Z</time>
      </trkpt>
      <trkpt lat="43.4889510" lon="-5.4235860">
        <ele>3.0</ele>
        <time>2021-07-19T13:32:15Z</time>
      </trkpt>
      <trkpt lat="43.4889530" lon="-5.4236140">
        <ele>3.0</ele>
        <time>2021-07-19T13:32:16Z</time>
      </trkpt>
      <trkpt lat="43.4889260" lon="-5.4237910">
        <ele>3.0</ele>
        <time>2021-07-19T13:32:20Z</time>
      </trkpt>
      <trkpt lat="43.4889030" lon="-5.4238750">
        <ele>2.4</ele>
        <time>2021-07-19T13:32:22Z</time>
      </trkpt>
      <trkpt lat="43.4888920" lon="-5.4239170">
        <ele>2.0</ele>
        <time>2021-07-19T13:32:23Z</time>
      </trkpt>
      <trkpt lat="43.4888830" lon="-5.4239660">
        <ele>1.6</ele>
        <time>2021-07-19T13:32:24Z</time>
      </trkpt>
      <trkpt lat="43.4888710" lon="-5.4240110">
        <ele>1.2</ele>
        <time>2021-07-19T13:32:25Z</time>
      </trkpt>
      <trkpt lat="43.4888610" lon="-5.4240510">
        <ele>0.8</ele>
        <time>2021-07-19T13:32:26Z</time>
      </trkpt>
      <trkpt lat="43.4888500" lon="-5.4240940">
        <ele>0.8</ele>
        <time>2021-07-19T13:32:27Z</time>
      </trkpt>
      <trkpt lat="43.4888370" lon="-5.4241340">
        <ele>0.4</ele>
        <time>2021-07-19T13:32:28Z</time>
      </trkpt>
      <trkpt lat="43.4888230" lon="-5.4241690">
        <ele>0.0</ele>
        <time>2021-07-19T13:32:29Z</time>
      </trkpt>
      <trkpt lat="43.4888090" lon="-5.4242030">
        <ele>-0.6</ele>
        <time>2021-07-19T13:32:30Z</time>
      </trkpt>
      <trkpt lat="43.4887960" lon="-5.4242460">
        <ele>-1.0</ele>
        <time>2021-07-19T13:32:31Z</time>
      </trkpt>
      <trkpt lat="43.4887800" lon="-5.4242890">
        <ele>-1.4</ele>
        <time>2021-07-19T13:32:32Z</time>
      </trkpt>
      <trkpt lat="43.4887680" lon="-5.4243420">
        <ele>-2.4</ele>
        <time>2021-07-19T13:32:33Z</time>
      </trkpt>
      <trkpt lat="43.4887550" lon="-5.4243930">
        <ele>-2.8</ele>
        <time>2021-07-19T13:32:34Z</time>
      </trkpt>
      <trkpt lat="43.4887430" lon="-5.4244450">
        <ele>-3.4</ele>
        <time>2021-07-19T13:32:35Z</time>
      </trkpt>
      <trkpt lat="43.4887320" lon="-5.4244960">
        <ele>-3.8</ele>
        <time>2021-07-19T13:32:36Z</time>
      </trkpt>
      <trkpt lat="43.4887210" lon="-5.4246020">
        <ele>-4.2</ele>
        <time>2021-07-19T13:32:38Z</time>
      </trkpt>
      <trkpt lat="43.4887160" lon="-5.4246600">
        <ele>-4.8</ele>
        <time>2021-07-19T13:32:39Z</time>
      </trkpt>
      <trkpt lat="43.4887090" lon="-5.4247190">
        <ele>-5.2</ele>
        <time>2021-07-19T13:32:40Z</time>
      </trkpt>
      <trkpt lat="43.4887050" lon="-5.4247710">
        <ele>-5.6</ele>
        <time>2021-07-19T13:32:41Z</time>
      </trkpt>
      <trkpt lat="43.4887030" lon="-5.4248190">
        <ele>-6.0</ele>
        <time>2021-07-19T13:32:42Z</time>
      </trkpt>
      <trkpt lat="43.4887030" lon="-5.4249740">
        <ele>-6.0</ele>
        <time>2021-07-19T13:32:46Z</time>
      </trkpt>
      <trkpt lat="43.4886890" lon="-5.4250440">
        <ele>-6.0</ele>
        <time>2021-07-19T13:32:48Z</time>
      </trkpt>
      <trkpt lat="43.4886820" lon="-5.4251180">
        <ele>-6.0</ele>
        <time>2021-07-19T13:32:50Z</time>
      </trkpt>
      <trkpt lat="43.4886670" lon="-5.4251500">
        <ele>-6.0</ele>
        <time>2021-07-19T13:32:51Z</time>
      </trkpt>
      <trkpt lat="43.4885700" lon="-5.4252710">
        <ele>-6.0</ele>
        <time>2021-07-19T13:32:55Z</time>
      </trkpt>
      <trkpt lat="43.4885350" lon="-5.4253420">
        <ele>-6.0</ele>
        <time>2021-07-19T13:32:58Z</time>
      </trkpt>
      <trkpt lat="43.4884130" lon="-5.4255640">
        <ele>-6.4</ele>
        <time>2021-07-19T13:33:03Z</time>
      </trkpt>
      <trkpt lat="43.4883800" lon="-5.4256060">
        <ele>-6.8</ele>
        <time>2021-07-19T13:33:04Z</time>
      </trkpt>
      <trkpt lat="43.4883520" lon="-5.4256470">
        <ele>-7.2</ele>
        <time>2021-07-19T13:33:05Z</time>
      </trkpt>
      <trkpt lat="43.4883210" lon="-5.4256810">
        <ele>-7.8</ele>
        <time>2021-07-19T13:33:06Z</time>
      </trkpt>
      <trkpt lat="43.4882870" lon="-5.4257150">
        <ele>-8.2</ele>
        <time>2021-07-19T13:33:07Z</time>
      </trkpt>
      <trkpt lat="43.4882140" lon="-5.4257650">
        <ele>-8.2</ele>
        <time>2021-07-19T13:33:09Z</time>
      </trkpt>
      <trkpt lat="43.4880600" lon="-5.4259100">
        <ele>-8.2</ele>
        <time>2021-07-19T13:33:14Z</time>
      </trkpt>
      <trkpt lat="43.4880370" lon="-5.4259420">
        <ele>-8.2</ele>
        <time>2021-07-19T13:33:15Z</time>
      </trkpt>
      <trkpt lat="43.4879730" lon="-5.4260360">
        <ele>-8.2</ele>
        <time>2021-07-19T13:33:19Z</time>
      </trkpt>
      <trkpt lat="43.4879620" lon="-5.4260380">
        <ele>-8.2</ele>
        <time>2021-07-19T13:33:20Z</time>
      </trkpt>
      <trkpt lat="43.4879550" lon="-5.4260460">
        <ele>-8.2</ele>
        <time>2021-07-19T13:33:21Z</time>
      </trkpt>
      <trkpt lat="43.4879330" lon="-5.4260860">
        <ele>-8.2</ele>
        <time>2021-07-19T13:33:23Z</time>
      </trkpt>
      <trkpt lat="43.4878940" lon="-5.4261490">
        <ele>-8.6</ele>
        <time>2021-07-19T13:33:25Z</time>
      </trkpt>
      <trkpt lat="43.4878660" lon="-5.4261740">
        <ele>-9.0</ele>
        <time>2021-07-19T13:33:26Z</time>
      </trkpt>
      <trkpt lat="43.4878400" lon="-5.4262060">
        <ele>-9.4</ele>
        <time>2021-07-19T13:33:27Z</time>
      </trkpt>
      <trkpt lat="43.4878140" lon="-5.4262360">
        <ele>-9.8</ele>
        <time>2021-07-19T13:33:28Z</time>
      </trkpt>
      <trkpt lat="43.4877890" lon="-5.4262670">
        <ele>-10.2</ele>
        <time>2021-07-19T13:33:29Z</time>
      </trkpt>
      <trkpt lat="43.4876800" lon="-5.4263850">
        <ele>-10.2</ele>
        <time>2021-07-19T13:33:33Z</time>
      </trkpt>
      <trkpt lat="43.4874790" lon="-5.4266210">
        <ele>-10.2</ele>
        <time>2021-07-19T13:33:40Z</time>
      </trkpt>
      <trkpt lat="43.4872740" lon="-5.4268290">
        <ele>-10.2</ele>
        <time>2021-07-19T13:33:47Z</time>
      </trkpt>
      <trkpt lat="43.4870700" lon="-5.4270750">
        <ele>-10.2</ele>
        <time>2021-07-19T13:33:54Z</time>
      </trkpt>
      <trkpt lat="43.4868950" lon="-5.4272710">
        <ele>-10.2</ele>
        <time>2021-07-19T13:34:00Z</time>
      </trkpt>
      <trkpt lat="43.4868290" lon="-5.4273460">
        <ele>-10.2</ele>
        <time>2021-07-19T13:34:02Z</time>
      </trkpt>
      <trkpt lat="43.4866180" lon="-5.4275700">
        <ele>-10.2</ele>
        <time>2021-07-19T13:34:09Z</time>
      </trkpt>
      <trkpt lat="43.4865730" lon="-5.4276370">
        <ele>-10.2</ele>
        <time>2021-07-19T13:34:11Z</time>
      </trkpt>
      <trkpt lat="43.4864460" lon="-5.4277760">
        <ele>-10.2</ele>
        <time>2021-07-19T13:34:15Z</time>
      </trkpt>
      <trkpt lat="43.4863860" lon="-5.4278390">
        <ele>-10.2</ele>
        <time>2021-07-19T13:34:17Z</time>
      </trkpt>
      <trkpt lat="43.4863020" lon="-5.4279370">
        <ele>-10.2</ele>
        <time>2021-07-19T13:34:20Z</time>
      </trkpt>
      <trkpt lat="43.4862280" lon="-5.4280310">
        <ele>-10.2</ele>
        <time>2021-07-19T13:34:23Z</time>
      </trkpt>
      <trkpt lat="43.4861790" lon="-5.4280900">
        <ele>-10.2</ele>
        <time>2021-07-19T13:34:25Z</time>
      </trkpt>
      <trkpt lat="43.4860880" lon="-5.4281790">
        <ele>-10.2</ele>
        <time>2021-07-19T13:34:28Z</time>
      </trkpt>
      <trkpt lat="43.4859760" lon="-5.4282900">
        <ele>-10.2</ele>
        <time>2021-07-19T13:34:32Z</time>
      </trkpt>
      <trkpt lat="43.4858930" lon="-5.4283800">
        <ele>-10.2</ele>
        <time>2021-07-19T13:34:35Z</time>
      </trkpt>
      <trkpt lat="43.4858140" lon="-5.4284790">
        <ele>-10.2</ele>
        <time>2021-07-19T13:34:38Z</time>
      </trkpt>
      <trkpt lat="43.4856380" lon="-5.4286640">
        <ele>-10.2</ele>
        <time>2021-07-19T13:34:45Z</time>
      </trkpt>
      <trkpt lat="43.4855770" lon="-5.4287340">
        <ele>-10.2</ele>
        <time>2021-07-19T13:34:47Z</time>
      </trkpt>
      <trkpt lat="43.4854690" lon="-5.4288880">
        <ele>-10.2</ele>
        <time>2021-07-19T13:34:51Z</time>
      </trkpt>
      <trkpt lat="43.4853470" lon="-5.4290230">
        <ele>-10.2</ele>
        <time>2021-07-19T13:34:56Z</time>
      </trkpt>
      <trkpt lat="43.4852690" lon="-5.4291050">
        <ele>-10.2</ele>
        <time>2021-07-19T13:34:59Z</time>
      </trkpt>
      <trkpt lat="43.4852170" lon="-5.4291640">
        <ele>-10.2</ele>
        <time>2021-07-19T13:35:01Z</time>
      </trkpt>
      <trkpt lat="43.4851620" lon="-5.4292340">
        <ele>-10.2</ele>
        <time>2021-07-19T13:35:03Z</time>
      </trkpt>
      <trkpt lat="43.4850450" lon="-5.4293530">
        <ele>-10.2</ele>
        <time>2021-07-19T13:35:07Z</time>
      </trkpt>
      <trkpt lat="43.4849810" lon="-5.4294210">
        <ele>-10.2</ele>
        <time>2021-07-19T13:35:09Z</time>
      </trkpt>
      <trkpt lat="43.4849120" lon="-5.4294920">
        <ele>-10.2</ele>
        <time>2021-07-19T13:35:11Z</time>
      </trkpt>
      <trkpt lat="43.4848270" lon="-5.4295900">
        <ele>-10.2</ele>
        <time>2021-07-19T13:35:14Z</time>
      </trkpt>
      <trkpt lat="43.4847990" lon="-5.4296260">
        <ele>-10.2</ele>
        <time>2021-07-19T13:35:15Z</time>
      </trkpt>
      <trkpt lat="43.4846830" lon="-5.4297590">
        <ele>-10.2</ele>
        <time>2021-07-19T13:35:19Z</time>
      </trkpt>
      <trkpt lat="43.4845340" lon="-5.4299130">
        <ele>-10.2</ele>
        <time>2021-07-19T13:35:24Z</time>
      </trkpt>
      <trkpt lat="43.4844530" lon="-5.4300130">
        <ele>-10.2</ele>
        <time>2021-07-19T13:35:27Z</time>
      </trkpt>
      <trkpt lat="43.4844050" lon="-5.4300740">
        <ele>-10.2</ele>
        <time>2021-07-19T13:35:29Z</time>
      </trkpt>
      <trkpt lat="43.4842340" lon="-5.4302660">
        <ele>-10.2</ele>
        <time>2021-07-19T13:35:35Z</time>
      </trkpt>
      <trkpt lat="43.4839980" lon="-5.4305290">
        <ele>-10.2</ele>
        <time>2021-07-19T13:35:43Z</time>
      </trkpt>
      <trkpt lat="43.4838010" lon="-5.4307390">
        <ele>-10.2</ele>
        <time>2021-07-19T13:35:51Z</time>
      </trkpt>
      <trkpt lat="43.4837140" lon="-5.4308390">
        <ele>-10.2</ele>
        <time>2021-07-19T13:35:56Z</time>
      </trkpt>
      <trkpt lat="43.4836620" lon="-5.4309020">
        <ele>-10.2</ele>
        <time>2021-07-19T13:35:58Z</time>
      </trkpt>
      <trkpt lat="43.4835050" lon="-5.4310670">
        <ele>-10.2</ele>
        <time>2021-07-19T13:36:04Z</time>
      </trkpt>
      <trkpt lat="43.4833340" lon="-5.4312460">
        <ele>-10.2</ele>
        <time>2021-07-19T13:36:10Z</time>
      </trkpt>
      <trkpt lat="43.4832420" lon="-5.4313420">
        <ele>-10.2</ele>
        <time>2021-07-19T13:36:13Z</time>
      </trkpt>
      <trkpt lat="43.4831810" lon="-5.4314180">
        <ele>-10.2</ele>
        <time>2021-07-19T13:36:15Z</time>
      </trkpt>
      <trkpt lat="43.4831520" lon="-5.4314500">
        <ele>-10.2</ele>
        <time>2021-07-19T13:36:16Z</time>
      </trkpt>
      <trkpt lat="43.4830890" lon="-5.4315340">
        <ele>-10.2</ele>
        <time>2021-07-19T13:36:18Z</time>
      </trkpt>
      <trkpt lat="43.4829250" lon="-5.4317230">
        <ele>-10.6</ele>
        <time>2021-07-19T13:36:23Z</time>
      </trkpt>
      <trkpt lat="43.4828960" lon="-5.4317620">
        <ele>-11.0</ele>
        <time>2021-07-19T13:36:24Z</time>
      </trkpt>
      <trkpt lat="43.4828710" lon="-5.4318040">
        <ele>-11.4</ele>
        <time>2021-07-19T13:36:25Z</time>
      </trkpt>
      <trkpt lat="43.4828450" lon="-5.4318400">
        <ele>-11.8</ele>
        <time>2021-07-19T13:36:26Z</time>
      </trkpt>
      <trkpt lat="43.4828180" lon="-5.4318830">
        <ele>-12.4</ele>
        <time>2021-07-19T13:36:27Z</time>
      </trkpt>
      <trkpt lat="43.4827510" lon="-5.4319560">
        <ele>-12.4</ele>
        <time>2021-07-19T13:36:29Z</time>
      </trkpt>
      <trkpt lat="43.4826860" lon="-5.4320200">
        <ele>-12.4</ele>
        <time>2021-07-19T13:36:31Z</time>
      </trkpt>
      <trkpt lat="43.4824360" lon="-5.4322360">
        <ele>-12.4</ele>
        <time>2021-07-19T13:36:39Z</time>
      </trkpt>
      <trkpt lat="43.4823210" lon="-5.4323840">
        <ele>-12.4</ele>
        <time>2021-07-19T13:36:45Z</time>
      </trkpt>
      <trkpt lat="43.4822710" lon="-5.4324370">
        <ele>-12.8</ele>
        <time>2021-07-19T13:36:47Z</time>
      </trkpt>
      <trkpt lat="43.4822480" lon="-5.4324690">
        <ele>-13.2</ele>
        <time>2021-07-19T13:36:48Z</time>
      </trkpt>
      <trkpt lat="43.4822210" lon="-5.4325030">
        <ele>-13.6</ele>
        <time>2021-07-19T13:36:49Z</time>
      </trkpt>
      <trkpt lat="43.4821950" lon="-5.4325420">
        <ele>-14.0</ele>
        <time>2021-07-19T13:36:50Z</time>
      </trkpt>
      <trkpt lat="43.4821720" lon="-5.4325800">
        <ele>-14.4</ele>
        <time>2021-07-19T13:36:51Z</time>
      </trkpt>
      <trkpt lat="43.4821170" lon="-5.4326350">
        <ele>-14.4</ele>
        <time>2021-07-19T13:36:53Z</time>
      </trkpt>
      <trkpt lat="43.4819600" lon="-5.4328420">
        <ele>-14.4</ele>
        <time>2021-07-19T13:36:59Z</time>
      </trkpt>
      <trkpt lat="43.4817580" lon="-5.4330270">
        <ele>-14.4</ele>
        <time>2021-07-19T13:37:06Z</time>
      </trkpt>
      <trkpt lat="43.4816170" lon="-5.4332270">
        <ele>-14.4</ele>
        <time>2021-07-19T13:37:11Z</time>
      </trkpt>
      <trkpt lat="43.4814600" lon="-5.4334150">
        <ele>-14.4</ele>
        <time>2021-07-19T13:37:17Z</time>
      </trkpt>
      <trkpt lat="43.4814120" lon="-5.4334440">
        <ele>-14.4</ele>
        <time>2021-07-19T13:37:19Z</time>
      </trkpt>
      <trkpt lat="43.4813640" lon="-5.4334670">
        <ele>-14.4</ele>
        <time>2021-07-19T13:37:21Z</time>
      </trkpt>
      <trkpt lat="43.4813390" lon="-5.4334690">
        <ele>-14.4</ele>
        <time>2021-07-19T13:37:22Z</time>
      </trkpt>
      <trkpt lat="43.4812640" lon="-5.4334240">
        <ele>-14.4</ele>
        <time>2021-07-19T13:37:26Z</time>
      </trkpt>
      <trkpt lat="43.4812370" lon="-5.4333580">
        <ele>-14.4</ele>
        <time>2021-07-19T13:37:29Z</time>
      </trkpt>
      <trkpt lat="43.4812030" lon="-5.4333390">
        <ele>-14.4</ele>
        <time>2021-07-19T13:37:31Z</time>
      </trkpt>
      <trkpt lat="43.4811700" lon="-5.4333210">
        <ele>-14.4</ele>
        <time>2021-07-19T13:37:34Z</time>
      </trkpt>
      <trkpt lat="43.4811690" lon="-5.4333190">
        <ele>-14.4</ele>
        <time>2021-07-19T13:37:35Z</time>
      </trkpt>
      <trkpt lat="43.4811730" lon="-5.4333030">
        <ele>-14.4</ele>
        <time>2021-07-19T13:38:00Z</time>
      </trkpt>
      <trkpt lat="43.4811840" lon="-5.4332390">
        <ele>-14.4</ele>
        <time>2021-07-19T13:38:03Z</time>
      </trkpt>
      <trkpt lat="43.4811800" lon="-5.4331800">
        <ele>-14.4</ele>
        <time>2021-07-19T13:38:05Z</time>
      </trkpt>
      <trkpt lat="43.4811790" lon="-5.4331120">
        <ele>-14.4</ele>
        <time>2021-07-19T13:38:07Z</time>
      </trkpt>
      <trkpt lat="43.4811800" lon="-5.4330420">
        <ele>-14.4</ele>
        <time>2021-07-19T13:38:09Z</time>
      </trkpt>
      <trkpt lat="43.4811900" lon="-5.4329040">
        <ele>-14.4</ele>
        <time>2021-07-19T13:38:13Z</time>
      </trkpt>
      <trkpt lat="43.4811900" lon="-5.4328400">
        <ele>-14.4</ele>
        <time>2021-07-19T13:38:15Z</time>
      </trkpt>
      <trkpt lat="43.4811750" lon="-5.4326140">
        <ele>-14.4</ele>
        <time>2021-07-19T13:38:22Z</time>
      </trkpt>
      <trkpt lat="43.4811660" lon="-5.4324560">
        <ele>-14.4</ele>
        <time>2021-07-19T13:38:28Z</time>
      </trkpt>
      <trkpt lat="43.4811620" lon="-5.4324070">
        <ele>-14.4</ele>
        <time>2021-07-19T13:38:30Z</time>
      </trkpt>
      <trkpt lat="43.4811180" lon="-5.4323420">
        <ele>-14.0</ele>
        <time>2021-07-19T13:38:34Z</time>
      </trkpt>
      <trkpt lat="43.4811130" lon="-5.4323410">
        <ele>-13.6</ele>
        <time>2021-07-19T13:38:35Z</time>
      </trkpt>
      <trkpt lat="43.4811060" lon="-5.4323070">
        <ele>-12.4</ele>
        <time>2021-07-19T13:39:03Z</time>
      </trkpt>
      <trkpt lat="43.4810990" lon="-5.4322870">
        <ele>-12.4</ele>
        <time>2021-07-19T13:39:04Z</time>
      </trkpt>
      <trkpt lat="43.4810930" lon="-5.4322680">
        <ele>-12.4</ele>
        <time>2021-07-19T13:39:05Z</time>
      </trkpt>
      <trkpt lat="43.4810560" lon="-5.4321300">
        <ele>-12.4</ele>
        <time>2021-07-19T13:39:12Z</time>
      </trkpt>
      <trkpt lat="43.4810290" lon="-5.4320810">
        <ele>-12.4</ele>
        <time>2021-07-19T13:39:16Z</time>
      </trkpt>
      <trkpt lat="43.4809640" lon="-5.4319790">
        <ele>-12.4</ele>
        <time>2021-07-19T13:39:27Z</time>
      </trkpt>
      <trkpt lat="43.4809410" lon="-5.4319220">
        <ele>-12.4</ele>
        <time>2021-07-19T13:39:30Z</time>
      </trkpt>
      <trkpt lat="43.4809180" lon="-5.4318530">
        <ele>-12.4</ele>
        <time>2021-07-19T13:39:33Z</time>
      </trkpt>
      <trkpt lat="43.4809120" lon="-5.4318270">
        <ele>-12.0</ele>
        <time>2021-07-19T13:39:34Z</time>
      </trkpt>
      <trkpt lat="43.4809070" lon="-5.4317990">
        <ele>-11.4</ele>
        <time>2021-07-19T13:39:35Z</time>
      </trkpt>
      <trkpt lat="43.4808990" lon="-5.4317740">
        <ele>-11.0</ele>
        <time>2021-07-19T13:39:36Z</time>
      </trkpt>
      <trkpt lat="43.4808870" lon="-5.4317530">
        <ele>-10.6</ele>
        <time>2021-07-19T13:39:37Z</time>
      </trkpt>
      <trkpt lat="43.4808730" lon="-5.4317300">
        <ele>-10.2</ele>
        <time>2021-07-19T13:39:38Z</time>
      </trkpt>
      <trkpt lat="43.4808510" lon="-5.4316920">
        <ele>-10.2</ele>
        <time>2021-07-19T13:39:40Z</time>
      </trkpt>
      <trkpt lat="43.4808240" lon="-5.4316400">
        <ele>-10.2</ele>
        <time>2021-07-19T13:39:43Z</time>
      </trkpt>
      <trkpt lat="43.4808000" lon="-5.4316060">
        <ele>-9.8</ele>
        <time>2021-07-19T13:39:45Z</time>
      </trkpt>
      <trkpt lat="43.4807870" lon="-5.4315900">
        <ele>-9.4</ele>
        <time>2021-07-19T13:39:46Z</time>
      </trkpt>
      <trkpt lat="43.4807770" lon="-5.4315730">
        <ele>-9.0</ele>
        <time>2021-07-19T13:39:47Z</time>
      </trkpt>
      <trkpt lat="43.4807640" lon="-5.4315570">
        <ele>-8.6</ele>
        <time>2021-07-19T13:39:48Z</time>
      </trkpt>
      <trkpt lat="43.4807500" lon="-5.4315450">
        <ele>-8.2</ele>
        <time>2021-07-19T13:39:49Z</time>
      </trkpt>
      <trkpt lat="43.4807190" lon="-5.4315320">
        <ele>-8.2</ele>
        <time>2021-07-19T13:39:51Z</time>
      </trkpt>
      <trkpt lat="43.4806660" lon="-5.4315190">
        <ele>-8.2</ele>
        <time>2021-07-19T13:39:54Z</time>
      </trkpt>
      <trkpt lat="43.4806290" lon="-5.4315110">
        <ele>-7.8</ele>
        <time>2021-07-19T13:39:56Z</time>
      </trkpt>
      <trkpt lat="43.4806120" lon="-5.4315090">
        <ele>-7.4</ele>
        <time>2021-07-19T13:39:57Z</time>
      </trkpt>
      <trkpt lat="43.4805940" lon="-5.4315080">
        <ele>-7.0</ele>
        <time>2021-07-19T13:39:58Z</time>
      </trkpt>
      <trkpt lat="43.4805740" lon="-5.4315080">
        <ele>-6.2</ele>
        <time>2021-07-19T13:39:59Z</time>
      </trkpt>
      <trkpt lat="43.4805370" lon="-5.4315090">
        <ele>-6.2</ele>
        <time>2021-07-19T13:40:03Z</time>
      </trkpt>
      <trkpt lat="43.4805820" lon="-5.4314640">
        <ele>-6.2</ele>
        <time>2021-07-19T13:40:35Z</time>
      </trkpt>
      <trkpt lat="43.4805970" lon="-5.4314660">
        <ele>-6.2</ele>
        <time>2021-07-19T13:40:36Z</time>
      </trkpt>
      <trkpt lat="43.4806280" lon="-5.4314740">
        <ele>-6.2</ele>
        <time>2021-07-19T13:40:38Z</time>
      </trkpt>
      <trkpt lat="43.4806700" lon="-5.4314810">
        <ele>-6.2</ele>
        <time>2021-07-19T13:40:40Z</time>
      </trkpt>
      <trkpt lat="43.4807010" lon="-5.4314900">
        <ele>-6.2</ele>
        <time>2021-07-19T13:40:41Z</time>
      </trkpt>
      <trkpt lat="43.4807600" lon="-5.4315250">
        <ele>-6.2</ele>
        <time>2021-07-19T13:40:43Z</time>
      </trkpt>
      <trkpt lat="43.4808810" lon="-5.4316910">
        <ele>-6.2</ele>
        <time>2021-07-19T13:40:48Z</time>
      </trkpt>
      <trkpt lat="43.4809240" lon="-5.4317850">
        <ele>-6.6</ele>
        <time>2021-07-19T13:40:50Z</time>
      </trkpt>
      <trkpt lat="43.4809420" lon="-5.4318250">
        <ele>-7.0</ele>
        <time>2021-07-19T13:40:51Z</time>
      </trkpt>
      <trkpt lat="43.4809620" lon="-5.4318600">
        <ele>-7.4</ele>
        <time>2021-07-19T13:40:52Z</time>
      </trkpt>
      <trkpt lat="43.4809790" lon="-5.4318960">
        <ele>-7.8</ele>
        <time>2021-07-19T13:40:53Z</time>
      </trkpt>
      <trkpt lat="43.4809930" lon="-5.4319320">
        <ele>-8.2</ele>
        <time>2021-07-19T13:40:54Z</time>
      </trkpt>
      <trkpt lat="43.4810060" lon="-5.4319680">
        <ele>-8.2</ele>
        <time>2021-07-19T13:40:55Z</time>
      </trkpt>
      <trkpt lat="43.4810430" lon="-5.4320840">
        <ele>-8.2</ele>
        <time>2021-07-19T13:40:58Z</time>
      </trkpt>
      <trkpt lat="43.4810520" lon="-5.4321230">
        <ele>-8.6</ele>
        <time>2021-07-19T13:40:59Z</time>
      </trkpt>
      <trkpt lat="43.4810630" lon="-5.4321610">
        <ele>-9.2</ele>
        <time>2021-07-19T13:41:00Z</time>
      </trkpt>
      <trkpt lat="43.4810740" lon="-5.4321900">
        <ele>-9.6</ele>
        <time>2021-07-19T13:41:01Z</time>
      </trkpt>
      <trkpt lat="43.4810820" lon="-5.4322160">
        <ele>-10.0</ele>
        <time>2021-07-19T13:41:02Z</time>
      </trkpt>
      <trkpt lat="43.4810860" lon="-5.4322410">
        <ele>-10.6</ele>
        <time>2021-07-19T13:41:03Z</time>
      </trkpt>
      <trkpt lat="43.4810840" lon="-5.4323430">
        <ele>-10.6</ele>
        <time>2021-07-19T13:41:07Z</time>
      </trkpt>
      <trkpt lat="43.4810850" lon="-5.4323640">
        <ele>-11.0</ele>
        <time>2021-07-19T13:41:08Z</time>
      </trkpt>
      <trkpt lat="43.4810810" lon="-5.4323790">
        <ele>-11.4</ele>
        <time>2021-07-19T13:41:09Z</time>
      </trkpt>
      <trkpt lat="43.4810830" lon="-5.4324160">
        <ele>-12.6</ele>
        <time>2021-07-19T13:41:18Z</time>
      </trkpt>
      <trkpt lat="43.4810850" lon="-5.4324450">
        <ele>-12.6</ele>
        <time>2021-07-19T13:41:19Z</time>
      </trkpt>
      <trkpt lat="43.4811010" lon="-5.4326340">
        <ele>-12.6</ele>
        <time>2021-07-19T13:41:24Z</time>
      </trkpt>
      <trkpt lat="43.4811130" lon="-5.4326850">
        <ele>-12.6</ele>
        <time>2021-07-19T13:41:27Z</time>
      </trkpt>
      <trkpt lat="43.4813130" lon="-5.4336570">
        <ele>0.0</ele>
        <time>2021-07-20T07:21:47Z</time>
      </trkpt>
      <trkpt lat="43.4813130" lon="-5.4336560">
        <ele>0.0</ele>
        <time>2021-07-20T07:21:48Z</time>
      </trkpt>
      <trkpt lat="43.4813180" lon="-5.4336360">
        <ele>-0.2</ele>
        <time>2021-07-20T07:21:53Z</time>
      </trkpt>
      <trkpt lat="43.4813030" lon="-5.4336060">
        <ele>-0.2</ele>
        <time>2021-07-20T07:21:56Z</time>
      </trkpt>
      <trkpt lat="43.4813050" lon="-5.4336220">
        <ele>-0.2</ele>
        <time>2021-07-20T07:21:57Z</time>
      </trkpt>
      <trkpt lat="43.4813180" lon="-5.4336780">
        <ele>-0.2</ele>
        <time>2021-07-20T07:21:59Z</time>
      </trkpt>
      <trkpt lat="43.4813100" lon="-5.4338770">
        <ele>-0.2</ele>
        <time>2021-07-20T07:22:06Z</time>
      </trkpt>
      <trkpt lat="43.4812600" lon="-5.4339170">
        <ele>-0.2</ele>
        <time>2021-07-20T07:22:10Z</time>
      </trkpt>
      <trkpt lat="43.4812480" lon="-5.4339080">
        <ele>-0.2</ele>
        <time>2021-07-20T07:22:11Z</time>
      </trkpt>
      <trkpt lat="43.4812390" lon="-5.4339260">
        <ele>-0.2</ele>
        <time>2021-07-20T07:22:13Z</time>
      </trkpt>
      <trkpt lat="43.4812350" lon="-5.4339560">
        <ele>-0.2</ele>
        <time>2021-07-20T07:22:15Z</time>
      </trkpt>
      <trkpt lat="43.4812460" lon="-5.4340820">
        <ele>-0.2</ele>
        <time>2021-07-20T07:22:20Z</time>
      </trkpt>
      <trkpt lat="43.4812780" lon="-5.4341430">
        <ele>-0.2</ele>
        <time>2021-07-20T07:22:26Z</time>
      </trkpt>
      <trkpt lat="43.4812910" lon="-5.4341410">
        <ele>-0.2</ele>
        <time>2021-07-20T07:22:28Z</time>
      </trkpt>
      <trkpt lat="43.4813540" lon="-5.4341530">
        <ele>-0.2</ele>
        <time>2021-07-20T07:26:10Z</time>
      </trkpt>
      <trkpt lat="43.4813400" lon="-5.4341920">
        <ele>-0.2</ele>
        <time>2021-07-20T07:26:12Z</time>
      </trkpt>
      <trkpt lat="43.4813460" lon="-5.4342490">
        <ele>-0.2</ele>
        <time>2021-07-20T07:26:15Z</time>
      </trkpt>
      <trkpt lat="43.4813580" lon="-5.4342780">
        <ele>-0.2</ele>
        <time>2021-07-20T07:26:17Z</time>
      </trkpt>
      <trkpt lat="43.4813680" lon="-5.4344550">
        <ele>-0.2</ele>
        <time>2021-07-20T07:26:25Z</time>
      </trkpt>
      <trkpt lat="43.4812790" lon="-5.4346080">
        <ele>-0.2</ele>
        <time>2021-07-20T07:26:31Z</time>
      </trkpt>
      <trkpt lat="43.4812210" lon="-5.4346890">
        <ele>-0.2</ele>
        <time>2021-07-20T07:26:34Z</time>
      </trkpt>
      <trkpt lat="43.4811590" lon="-5.4347730">
        <ele>-0.2</ele>
        <time>2021-07-20T07:26:37Z</time>
      </trkpt>
      <trkpt lat="43.4811100" lon="-5.4348560">
        <ele>-0.2</ele>
        <time>2021-07-20T07:26:40Z</time>
      </trkpt>
      <trkpt lat="43.4811150" lon="-5.4349370">
        <ele>-0.2</ele>
        <time>2021-07-20T07:26:42Z</time>
      </trkpt>
      <trkpt lat="43.4811350" lon="-5.4350290">
        <ele>-0.2</ele>
        <time>2021-07-20T07:26:45Z</time>
      </trkpt>
      <trkpt lat="43.4811660" lon="-5.4350660">
        <ele>-0.2</ele>
        <time>2021-07-20T07:26:47Z</time>
      </trkpt>
      <trkpt lat="43.4812640" lon="-5.4351920">
        <ele>-0.2</ele>
        <time>2021-07-20T07:26:53Z</time>
      </trkpt>
      <trkpt lat="43.4813510" lon="-5.4352900">
        <ele>-0.2</ele>
        <time>2021-07-20T07:26:58Z</time>
      </trkpt>
      <trkpt lat="43.4814810" lon="-5.4354030">
        <ele>-0.2</ele>
        <time>2021-07-20T07:27:04Z</time>
      </trkpt>
      <trkpt lat="43.4816250" lon="-5.4356280">
        <ele>-0.2</ele>
        <time>2021-07-20T07:27:10Z</time>
      </trkpt>
      <trkpt lat="43.4816830" lon="-5.4357780">
        <ele>-0.2</ele>
        <time>2021-07-20T07:27:13Z</time>
      </trkpt>
      <trkpt lat="43.4817630" lon="-5.4359090">
        <ele>-0.2</ele>
        <time>2021-07-20T07:27:16Z</time>
      </trkpt>
      <trkpt lat="43.4818460" lon="-5.4360200">
        <ele>-0.2</ele>
        <time>2021-07-20T07:27:19Z</time>
      </trkpt>
      <trkpt lat="43.4819410" lon="-5.4361080">
        <ele>-0.2</ele>
        <time>2021-07-20T07:27:22Z</time>
      </trkpt>
      <trkpt lat="43.4820590" lon="-5.4362860">
        <ele>-0.2</ele>
        <time>2021-07-20T07:27:27Z</time>
      </trkpt>
      <trkpt lat="43.4820880" lon="-5.4364410">
        <ele>-0.2</ele>
        <time>2021-07-20T07:27:31Z</time>
      </trkpt>
      <trkpt lat="43.4820940" lon="-5.4364810">
        <ele>-0.2</ele>
        <time>2021-07-20T07:27:32Z</time>
      </trkpt>
      <trkpt lat="43.4821050" lon="-5.4365600">
        <ele>-0.2</ele>
        <time>2021-07-20T07:27:34Z</time>
      </trkpt>
      <trkpt lat="43.4821190" lon="-5.4366340">
        <ele>-0.2</ele>
        <time>2021-07-20T07:27:36Z</time>
      </trkpt>
      <trkpt lat="43.4821280" lon="-5.4367270">
        <ele>-0.2</ele>
        <time>2021-07-20T07:27:39Z</time>
      </trkpt>
      <trkpt lat="43.4821300" lon="-5.4367590">
        <ele>-0.2</ele>
        <time>2021-07-20T07:27:40Z</time>
      </trkpt>
      <trkpt lat="43.4821390" lon="-5.4369330">
        <ele>-0.2</ele>
        <time>2021-07-20T07:27:45Z</time>
      </trkpt>
      <trkpt lat="43.4821440" lon="-5.4370380">
        <ele>-0.2</ele>
        <time>2021-07-20T07:27:48Z</time>
      </trkpt>
      <trkpt lat="43.4821500" lon="-5.4370990">
        <ele>-0.2</ele>
        <time>2021-07-20T07:27:51Z</time>
      </trkpt>
      <trkpt lat="43.4821550" lon="-5.4371720">
        <ele>-0.2</ele>
        <time>2021-07-20T07:28:08Z</time>
      </trkpt>
      <trkpt lat="43.4821320" lon="-5.4372150">
        <ele>-0.2</ele>
        <time>2021-07-20T07:28:10Z</time>
      </trkpt>
      <trkpt lat="43.4820730" lon="-5.4372590">
        <ele>-0.2</ele>
        <time>2021-07-20T07:28:13Z</time>
      </trkpt>
      <trkpt lat="43.4819430" lon="-5.4372570">
        <ele>-0.2</ele>
        <time>2021-07-20T07:28:18Z</time>
      </trkpt>
      <trkpt lat="43.4817510" lon="-5.4372530">
        <ele>-0.2</ele>
        <time>2021-07-20T07:28:24Z</time>
      </trkpt>
      <trkpt lat="43.4817250" lon="-5.4372500">
        <ele>-0.2</ele>
        <time>2021-07-20T07:28:25Z</time>
      </trkpt>
      <trkpt lat="43.4816390" lon="-5.4372380">
        <ele>-0.2</ele>
        <time>2021-07-20T07:28:28Z</time>
      </trkpt>
      <trkpt lat="43.4814920" lon="-5.4372340">
        <ele>-0.2</ele>
        <time>2021-07-20T07:28:32Z</time>
      </trkpt>
      <trkpt lat="43.4814520" lon="-5.4372310">
        <ele>-0.2</ele>
        <time>2021-07-20T07:28:33Z</time>
      </trkpt>
      <trkpt lat="43.4812250" lon="-5.4372190">
        <ele>-0.2</ele>
        <time>2021-07-20T07:28:39Z</time>
      </trkpt>
      <trkpt lat="43.4811410" lon="-5.4372190">
        <ele>-0.2</ele>
        <time>2021-07-20T07:28:41Z</time>
      </trkpt>
      <trkpt lat="43.4809130" lon="-5.4371930">
        <ele>-0.2</ele>
        <time>2021-07-20T07:28:47Z</time>
      </trkpt>
      <trkpt lat="43.4807850" lon="-5.4371900">
        <ele>-0.2</ele>
        <time>2021-07-20T07:28:51Z</time>
      </trkpt>
      <trkpt lat="43.4805160" lon="-5.4371610">
        <ele>-0.2</ele>
        <time>2021-07-20T07:28:58Z</time>
      </trkpt>
      <trkpt lat="43.4802760" lon="-5.4371500">
        <ele>-0.2</ele>
        <time>2021-07-20T07:29:05Z</time>
      </trkpt>
      <trkpt lat="43.4801790" lon="-5.4372270">
        <ele>-0.2</ele>
        <time>2021-07-20T07:29:08Z</time>
      </trkpt>
      <trkpt lat="43.4800850" lon="-5.4373410">
        <ele>-0.2</ele>
        <time>2021-07-20T07:29:12Z</time>
      </trkpt>
      <trkpt lat="43.4800010" lon="-5.4374800">
        <ele>-0.2</ele>
        <time>2021-07-20T07:29:16Z</time>
      </trkpt>
      <trkpt lat="43.4799280" lon="-5.4375740">
        <ele>-0.2</ele>
        <time>2021-07-20T07:29:19Z</time>
      </trkpt>
      <trkpt lat="43.4797010" lon="-5.4378620">
        <ele>-0.2</ele>
        <time>2021-07-20T07:29:28Z</time>
      </trkpt>
      <trkpt lat="43.4795040" lon="-5.4380940">
        <ele>-0.2</ele>
        <time>2021-07-20T07:29:35Z</time>
      </trkpt>
      <trkpt lat="43.4793000" lon="-5.4383600">
        <ele>-0.2</ele>
        <time>2021-07-20T07:29:43Z</time>
      </trkpt>
      <trkpt lat="43.4790760" lon="-5.4385190">
        <ele>-0.2</ele>
        <time>2021-07-20T07:29:51Z</time>
      </trkpt>
      <trkpt lat="43.4789680" lon="-5.4384320">
        <ele>-0.2</ele>
        <time>2021-07-20T07:29:55Z</time>
      </trkpt>
      <trkpt lat="43.4788120" lon="-5.4381980">
        <ele>-0.2</ele>
        <time>2021-07-20T07:30:01Z</time>
      </trkpt>
      <trkpt lat="43.4786860" lon="-5.4379880">
        <ele>-0.2</ele>
        <time>2021-07-20T07:30:06Z</time>
      </trkpt>
      <trkpt lat="43.4786350" lon="-5.4378980">
        <ele>-0.2</ele>
        <time>2021-07-20T07:30:08Z</time>
      </trkpt>
      <trkpt lat="43.4785090" lon="-5.4376170">
        <ele>-0.2</ele>
        <time>2021-07-20T07:30:14Z</time>
      </trkpt>
      <trkpt lat="43.4784420" lon="-5.4374870">
        <ele>-0.2</ele>
        <time>2021-07-20T07:30:17Z</time>
      </trkpt>
      <trkpt lat="43.4783620" lon="-5.4374460">
        <ele>-0.2</ele>
        <time>2021-07-20T07:30:19Z</time>
      </trkpt>
      <trkpt lat="43.4782780" lon="-5.4373940">
        <ele>-0.2</ele>
        <time>2021-07-20T07:30:22Z</time>
      </trkpt>
      <trkpt lat="43.4782630" lon="-5.4373870">
        <ele>-0.2</ele>
        <time>2021-07-20T07:30:23Z</time>
      </trkpt>
      <trkpt lat="43.4782430" lon="-5.4373860">
        <ele>-0.2</ele>
        <time>2021-07-20T07:30:24Z</time>
      </trkpt>
      <trkpt lat="43.4781560" lon="-5.4374160">
        <ele>-0.2</ele>
        <time>2021-07-20T07:30:27Z</time>
      </trkpt>
      <trkpt lat="43.4781210" lon="-5.4374310">
        <ele>-0.2</ele>
        <time>2021-07-20T07:30:28Z</time>
      </trkpt>
      <trkpt lat="43.4780510" lon="-5.4374700">
        <ele>-0.2</ele>
        <time>2021-07-20T07:30:30Z</time>
      </trkpt>
      <trkpt lat="43.4780130" lon="-5.4374890">
        <ele>-0.2</ele>
        <time>2021-07-20T07:30:31Z</time>
      </trkpt>
      <trkpt lat="43.4779410" lon="-5.4375360">
        <ele>-0.2</ele>
        <time>2021-07-20T07:30:33Z</time>
      </trkpt>
      <trkpt lat="43.4779070" lon="-5.4375550">
        <ele>-0.2</ele>
        <time>2021-07-20T07:30:34Z</time>
      </trkpt>
      <trkpt lat="43.4777630" lon="-5.4376300">
        <ele>-0.2</ele>
        <time>2021-07-20T07:30:38Z</time>
      </trkpt>
      <trkpt lat="43.4776890" lon="-5.4376730">
        <ele>-0.2</ele>
        <time>2021-07-20T07:30:40Z</time>
      </trkpt>
      <trkpt lat="43.4773320" lon="-5.4379120">
        <ele>-0.2</ele>
        <time>2021-07-20T07:30:50Z</time>
      </trkpt>
      <trkpt lat="43.4771060" lon="-5.4380450">
        <ele>-0.2</ele>
        <time>2021-07-20T07:30:56Z</time>
      </trkpt>
      <trkpt lat="43.4770680" lon="-5.4380650">
        <ele>-0.2</ele>
        <time>2021-07-20T07:30:57Z</time>
      </trkpt>
      <trkpt lat="43.4770000" lon="-5.4381190">
        <ele>-0.2</ele>
        <time>2021-07-20T07:30:59Z</time>
      </trkpt>
      <trkpt lat="43.4769070" lon="-5.4382230">
        <ele>-0.2</ele>
        <time>2021-07-20T07:31:02Z</time>
      </trkpt>
      <trkpt lat="43.4767010" lon="-5.4384280">
        <ele>-0.2</ele>
        <time>2021-07-20T07:31:08Z</time>
      </trkpt>
      <trkpt lat="43.4765160" lon="-5.4386390">
        <ele>-0.2</ele>
        <time>2021-07-20T07:31:14Z</time>
      </trkpt>
      <trkpt lat="43.4763650" lon="-5.4388660">
        <ele>-0.2</ele>
        <time>2021-07-20T07:31:20Z</time>
      </trkpt>
      <trkpt lat="43.4763040" lon="-5.4389750">
        <ele>-0.2</ele>
        <time>2021-07-20T07:31:24Z</time>
      </trkpt>
      <trkpt lat="43.4761990" lon="-5.4390950">
        <ele>-0.2</ele>
        <time>2021-07-20T07:31:30Z</time>
      </trkpt>
      <trkpt lat="43.4761850" lon="-5.4391220">
        <ele>-0.2</ele>
        <time>2021-07-20T07:31:33Z</time>
      </trkpt>
      <trkpt lat="43.4760450" lon="-5.4392050">
        <ele>-0.2</ele>
        <time>2021-07-20T07:31:58Z</time>
      </trkpt>
      <trkpt lat="43.4759860" lon="-5.4392940">
        <ele>-0.2</ele>
        <time>2021-07-20T07:32:02Z</time>
      </trkpt>
      <trkpt lat="43.4759430" lon="-5.4393460">
        <ele>-0.2</ele>
        <time>2021-07-20T07:32:04Z</time>
      </trkpt>
      <trkpt lat="43.4756990" lon="-5.4395820">
        <ele>-0.2</ele>
        <time>2021-07-20T07:32:11Z</time>
      </trkpt>
      <trkpt lat="43.4755340" lon="-5.4397360">
        <ele>-0.2</ele>
        <time>2021-07-20T07:32:16Z</time>
      </trkpt>
      <trkpt lat="43.4754280" lon="-5.4398340">
        <ele>-0.2</ele>
        <time>2021-07-20T07:32:19Z</time>
      </trkpt>
      <trkpt lat="43.4751740" lon="-5.4400040">
        <ele>-0.2</ele>
        <time>2021-07-20T07:32:26Z</time>
      </trkpt>
      <trkpt lat="43.4748720" lon="-5.4401890">
        <ele>-0.2</ele>
        <time>2021-07-20T07:32:34Z</time>
      </trkpt>
      <trkpt lat="43.4747070" lon="-5.4403050">
        <ele>-0.2</ele>
        <time>2021-07-20T07:32:39Z</time>
      </trkpt>
      <trkpt lat="43.4744890" lon="-5.4404480">
        <ele>-0.2</ele>
        <time>2021-07-20T07:32:45Z</time>
      </trkpt>
      <trkpt lat="43.4742410" lon="-5.4405770">
        <ele>-0.2</ele>
        <time>2021-07-20T07:32:51Z</time>
      </trkpt>
      <trkpt lat="43.4739550" lon="-5.4407000">
        <ele>-0.2</ele>
        <time>2021-07-20T07:32:58Z</time>
      </trkpt>
      <trkpt lat="43.4737500" lon="-5.4407970">
        <ele>-0.2</ele>
        <time>2021-07-20T07:33:03Z</time>
      </trkpt>
      <trkpt lat="43.4736320" lon="-5.4408570">
        <ele>-0.2</ele>
        <time>2021-07-20T07:33:06Z</time>
      </trkpt>
      <trkpt lat="43.4735690" lon="-5.4408910">
        <ele>-0.2</ele>
        <time>2021-07-20T07:33:08Z</time>
      </trkpt>
      <trkpt lat="43.4734870" lon="-5.4409330">
        <ele>-0.2</ele>
        <time>2021-07-20T07:33:10Z</time>
      </trkpt>
      <trkpt lat="43.4731690" lon="-5.4410360">
        <ele>-0.2</ele>
        <time>2021-07-20T07:33:18Z</time>
      </trkpt>
      <trkpt lat="43.4728960" lon="-5.4411560">
        <ele>-0.2</ele>
        <time>2021-07-20T07:33:25Z</time>
      </trkpt>
      <trkpt lat="43.4727210" lon="-5.4412240">
        <ele>-0.2</ele>
        <time>2021-07-20T07:33:30Z</time>
      </trkpt>
      <trkpt lat="43.4725010" lon="-5.4412500">
        <ele>-0.2</ele>
        <time>2021-07-20T07:33:37Z</time>
      </trkpt>
      <trkpt lat="43.4723930" lon="-5.4412680">
        <ele>-0.2</ele>
        <time>2021-07-20T07:33:43Z</time>
      </trkpt>
      <trkpt lat="43.4723140" lon="-5.4412790">
        <ele>-0.2</ele>
        <time>2021-07-20T07:33:46Z</time>
      </trkpt>
      <trkpt lat="43.4722740" lon="-5.4412850">
        <ele>0.2</ele>
        <time>2021-07-20T07:33:48Z</time>
      </trkpt>
      <trkpt lat="43.4722590" lon="-5.4412930">
        <ele>0.6</ele>
        <time>2021-07-20T07:33:49Z</time>
      </trkpt>
      <trkpt lat="43.4722440" lon="-5.4412940">
        <ele>1.0</ele>
        <time>2021-07-20T07:33:50Z</time>
      </trkpt>
      <trkpt lat="43.4722310" lon="-5.4412990">
        <ele>1.4</ele>
        <time>2021-07-20T07:33:51Z</time>
      </trkpt>
      <trkpt lat="43.4722290" lon="-5.4413070">
        <ele>1.8</ele>
        <time>2021-07-20T07:33:52Z</time>
      </trkpt>
      <trkpt lat="43.4722120" lon="-5.4413140">
        <ele>1.8</ele>
        <time>2021-07-20T07:33:56Z</time>
      </trkpt>
      <trkpt lat="43.4721930" lon="-5.4413190">
        <ele>1.8</ele>
        <time>2021-07-20T07:33:57Z</time>
      </trkpt>
      <trkpt lat="43.4720520" lon="-5.4413360">
        <ele>1.8</ele>
        <time>2021-07-20T07:34:02Z</time>
      </trkpt>
      <trkpt lat="43.4719420" lon="-5.4413930">
        <ele>1.8</ele>
        <time>2021-07-20T07:34:06Z</time>
      </trkpt>
      <trkpt lat="43.4719240" lon="-5.4414120">
        <ele>1.8</ele>
        <time>2021-07-20T07:34:07Z</time>
      </trkpt>
      <trkpt lat="43.4718210" lon="-5.4414910">
        <ele>1.8</ele>
        <time>2021-07-20T07:34:12Z</time>
      </trkpt>
      <trkpt lat="43.4716710" lon="-5.4415980">
        <ele>1.8</ele>
        <time>2021-07-20T07:34:17Z</time>
      </trkpt>
      <trkpt lat="43.4716450" lon="-5.4416300">
        <ele>1.8</ele>
        <time>2021-07-20T07:34:18Z</time>
      </trkpt>
      <trkpt lat="43.4714620" lon="-5.4418780">
        <ele>1.8</ele>
        <time>2021-07-20T07:34:25Z</time>
      </trkpt>
      <trkpt lat="43.4712740" lon="-5.4421180">
        <ele>1.8</ele>
        <time>2021-07-20T07:34:32Z</time>
      </trkpt>
      <trkpt lat="43.4710830" lon="-5.4423570">
        <ele>1.8</ele>
        <time>2021-07-20T07:34:39Z</time>
      </trkpt>
      <trkpt lat="43.4709420" lon="-5.4425620">
        <ele>1.8</ele>
        <time>2021-07-20T07:34:45Z</time>
      </trkpt>
      <trkpt lat="43.4707610" lon="-5.4427460">
        <ele>1.8</ele>
        <time>2021-07-20T07:34:52Z</time>
      </trkpt>
      <trkpt lat="43.4706700" lon="-5.4428570">
        <ele>2.2</ele>
        <time>2021-07-20T07:34:56Z</time>
      </trkpt>
      <trkpt lat="43.4706480" lon="-5.4428830">
        <ele>2.6</ele>
        <time>2021-07-20T07:34:57Z</time>
      </trkpt>
      <trkpt lat="43.4706260" lon="-5.4429090">
        <ele>3.0</ele>
        <time>2021-07-20T07:34:58Z</time>
      </trkpt>
      <trkpt lat="43.4706030" lon="-5.4429350">
        <ele>3.4</ele>
        <time>2021-07-20T07:34:59Z</time>
      </trkpt>
      <trkpt lat="43.4705810" lon="-5.4429590">
        <ele>3.8</ele>
        <time>2021-07-20T07:35:00Z</time>
      </trkpt>
      <trkpt lat="43.4705590" lon="-5.4429830">
        <ele>3.8</ele>
        <time>2021-07-20T07:35:01Z</time>
      </trkpt>
      <trkpt lat="43.4704300" lon="-5.4431560">
        <ele>3.8</ele>
        <time>2021-07-20T07:35:08Z</time>
      </trkpt>
      <trkpt lat="43.4703140" lon="-5.4432980">
        <ele>3.8</ele>
        <time>2021-07-20T07:35:14Z</time>
      </trkpt>
      <trkpt lat="43.4702960" lon="-5.4433240">
        <ele>4.2</ele>
        <time>2021-07-20T07:35:15Z</time>
      </trkpt>
      <trkpt lat="43.4702770" lon="-5.4433490">
        <ele>4.8</ele>
        <time>2021-07-20T07:35:16Z</time>
      </trkpt>
      <trkpt lat="43.4702580" lon="-5.4433760">
        <ele>5.2</ele>
        <time>2021-07-20T07:35:17Z</time>
      </trkpt>
      <trkpt lat="43.4702400" lon="-5.4434040">
        <ele>5.6</ele>
        <time>2021-07-20T07:35:18Z</time>
      </trkpt>
      <trkpt lat="43.4702220" lon="-5.4434290">
        <ele>6.0</ele>
        <time>2021-07-20T07:35:19Z</time>
      </trkpt>
      <trkpt lat="43.4701250" lon="-5.4435490">
        <ele>6.0</ele>
        <time>2021-07-20T07:35:24Z</time>
      </trkpt>
      <trkpt lat="43.4700850" lon="-5.4436040">
        <ele>6.0</ele>
        <time>2021-07-20T07:35:26Z</time>
      </trkpt>
      <trkpt lat="43.4700420" lon="-5.4436610">
        <ele>6.4</ele>
        <time>2021-07-20T07:35:28Z</time>
      </trkpt>
      <trkpt lat="43.4700220" lon="-5.4436890">
        <ele>6.8</ele>
        <time>2021-07-20T07:35:29Z</time>
      </trkpt>
      <trkpt lat="43.4700010" lon="-5.4437160">
        <ele>7.2</ele>
        <time>2021-07-20T07:35:30Z</time>
      </trkpt>
      <trkpt lat="43.4699820" lon="-5.4437420">
        <ele>7.6</ele>
        <time>2021-07-20T07:35:31Z</time>
      </trkpt>
      <trkpt lat="43.4699610" lon="-5.4437670">
        <ele>8.0</ele>
        <time>2021-07-20T07:35:32Z</time>
      </trkpt>
      <trkpt lat="43.4698640" lon="-5.4438480">
        <ele>8.0</ele>
        <time>2021-07-20T07:35:36Z</time>
      </trkpt>
      <trkpt lat="43.4695970" lon="-5.4439420">
        <ele>8.0</ele>
        <time>2021-07-20T07:35:45Z</time>
      </trkpt>
      <trkpt lat="43.4692680" lon="-5.4440190">
        <ele>8.0</ele>
        <time>2021-07-20T07:35:55Z</time>
      </trkpt>
      <trkpt lat="43.4691260" lon="-5.4440480">
        <ele>8.0</ele>
        <time>2021-07-20T07:35:59Z</time>
      </trkpt>
      <trkpt lat="43.4689610" lon="-5.4440990">
        <ele>8.0</ele>
        <time>2021-07-20T07:36:04Z</time>
      </trkpt>
      <trkpt lat="43.4688360" lon="-5.4442160">
        <ele>8.4</ele>
        <time>2021-07-20T07:36:09Z</time>
      </trkpt>
      <trkpt lat="43.4688080" lon="-5.4442400">
        <ele>8.8</ele>
        <time>2021-07-20T07:36:10Z</time>
      </trkpt>
      <trkpt lat="43.4687780" lon="-5.4442540">
        <ele>9.2</ele>
        <time>2021-07-20T07:36:11Z</time>
      </trkpt>
      <trkpt lat="43.4687460" lon="-5.4442660">
        <ele>9.6</ele>
        <time>2021-07-20T07:36:12Z</time>
      </trkpt>
      <trkpt lat="43.4687130" lon="-5.4442750">
        <ele>10.0</ele>
        <time>2021-07-20T07:36:13Z</time>
      </trkpt>
      <trkpt lat="43.4686780" lon="-5.4442780">
        <ele>10.0</ele>
        <time>2021-07-20T07:36:14Z</time>
      </trkpt>
      <trkpt lat="43.4684920" lon="-5.4442260">
        <ele>10.0</ele>
        <time>2021-07-20T07:36:19Z</time>
      </trkpt>
      <trkpt lat="43.4683240" lon="-5.4442670">
        <ele>10.0</ele>
        <time>2021-07-20T07:36:24Z</time>
      </trkpt>
      <trkpt lat="43.4681890" lon="-5.4444000">
        <ele>10.0</ele>
        <time>2021-07-20T07:36:30Z</time>
      </trkpt>
      <trkpt lat="43.4680060" lon="-5.4445500">
        <ele>10.0</ele>
        <time>2021-07-20T07:36:36Z</time>
      </trkpt>
      <trkpt lat="43.4679760" lon="-5.4445750">
        <ele>10.0</ele>
        <time>2021-07-20T07:36:37Z</time>
      </trkpt>
      <trkpt lat="43.4677630" lon="-5.4447360">
        <ele>10.0</ele>
        <time>2021-07-20T07:36:44Z</time>
      </trkpt>
      <trkpt lat="43.4676290" lon="-5.4448480">
        <ele>10.0</ele>
        <time>2021-07-20T07:36:48Z</time>
      </trkpt>
      <trkpt lat="43.4675150" lon="-5.4449350">
        <ele>10.0</ele>
        <time>2021-07-20T07:36:51Z</time>
      </trkpt>
      <trkpt lat="43.4673470" lon="-5.4450760">
        <ele>10.0</ele>
        <time>2021-07-20T07:36:55Z</time>
      </trkpt>
      <trkpt lat="43.4671990" lon="-5.4451900">
        <ele>10.0</ele>
        <time>2021-07-20T07:36:58Z</time>
      </trkpt>
      <trkpt lat="43.4670920" lon="-5.4452620">
        <ele>10.0</ele>
        <time>2021-07-20T07:37:00Z</time>
      </trkpt>
      <trkpt lat="43.4669220" lon="-5.4453470">
        <ele>9.6</ele>
        <time>2021-07-20T07:37:03Z</time>
      </trkpt>
      <trkpt lat="43.4668620" lon="-5.4453710">
        <ele>9.2</ele>
        <time>2021-07-20T07:37:04Z</time>
      </trkpt>
      <trkpt lat="43.4668010" lon="-5.4453940">
        <ele>8.8</ele>
        <time>2021-07-20T07:37:05Z</time>
      </trkpt>
      <trkpt lat="43.4667420" lon="-5.4454220">
        <ele>8.4</ele>
        <time>2021-07-20T07:37:06Z</time>
      </trkpt>
      <trkpt lat="43.4666870" lon="-5.4454530">
        <ele>8.0</ele>
        <time>2021-07-20T07:37:07Z</time>
      </trkpt>
      <trkpt lat="43.4666390" lon="-5.4454860">
        <ele>8.0</ele>
        <time>2021-07-20T07:37:08Z</time>
      </trkpt>
      <trkpt lat="43.4665630" lon="-5.4455410">
        <ele>7.6</ele>
        <time>2021-07-20T07:37:10Z</time>
      </trkpt>
      <trkpt lat="43.4665320" lon="-5.4455660">
        <ele>7.2</ele>
        <time>2021-07-20T07:37:11Z</time>
      </trkpt>
      <trkpt lat="43.4665050" lon="-5.4455930">
        <ele>6.8</ele>
        <time>2021-07-20T07:37:12Z</time>
      </trkpt>
      <trkpt lat="43.4664800" lon="-5.4456310">
        <ele>6.4</ele>
        <time>2021-07-20T07:37:13Z</time>
      </trkpt>
      <trkpt lat="43.4664560" lon="-5.4456720">
        <ele>6.0</ele>
        <time>2021-07-20T07:37:14Z</time>
      </trkpt>
      <trkpt lat="43.4664330" lon="-5.4457190">
        <ele>6.0</ele>
        <time>2021-07-20T07:37:15Z</time>
      </trkpt>
      <trkpt lat="43.4663950" lon="-5.4458190">
        <ele>6.0</ele>
        <time>2021-07-20T07:37:17Z</time>
      </trkpt>
      <trkpt lat="43.4663450" lon="-5.4459760">
        <ele>6.0</ele>
        <time>2021-07-20T07:37:20Z</time>
      </trkpt>
      <trkpt lat="43.4663320" lon="-5.4460330">
        <ele>6.0</ele>
        <time>2021-07-20T07:37:21Z</time>
      </trkpt>
      <trkpt lat="43.4661930" lon="-5.4464840">
        <ele>6.0</ele>
        <time>2021-07-20T07:37:29Z</time>
      </trkpt>
      <trkpt lat="43.4661090" lon="-5.4467580">
        <ele>6.0</ele>
        <time>2021-07-20T07:37:34Z</time>
      </trkpt>
      <trkpt lat="43.4660850" lon="-5.4468080">
        <ele>6.0</ele>
        <time>2021-07-20T07:37:35Z</time>
      </trkpt>
      <trkpt lat="43.4660270" lon="-5.4468920">
        <ele>6.0</ele>
        <time>2021-07-20T07:37:37Z</time>
      </trkpt>
      <trkpt lat="43.4659150" lon="-5.4470490">
        <ele>6.0</ele>
        <time>2021-07-20T07:37:41Z</time>
      </trkpt>
      <trkpt lat="43.4657890" lon="-5.4472310">
        <ele>6.0</ele>
        <time>2021-07-20T07:37:46Z</time>
      </trkpt>
      <trkpt lat="43.4657550" lon="-5.4472910">
        <ele>6.0</ele>
        <time>2021-07-20T07:37:48Z</time>
      </trkpt>
      <trkpt lat="43.4657280" lon="-5.4473400">
        <ele>6.0</ele>
        <time>2021-07-20T07:37:50Z</time>
      </trkpt>
      <trkpt lat="43.4656790" lon="-5.4474800">
        <ele>6.0</ele>
        <time>2021-07-20T07:37:54Z</time>
      </trkpt>
      <trkpt lat="43.4656760" lon="-5.4475870">
        <ele>6.0</ele>
        <time>2021-07-20T07:37:56Z</time>
      </trkpt>
      <trkpt lat="43.4656900" lon="-5.4477130">
        <ele>6.0</ele>
        <time>2021-07-20T07:37:58Z</time>
      </trkpt>
      <trkpt lat="43.4657740" lon="-5.4479170">
        <ele>6.0</ele>
        <time>2021-07-20T07:38:01Z</time>
      </trkpt>
      <trkpt lat="43.4658190" lon="-5.4479790">
        <ele>6.0</ele>
        <time>2021-07-20T07:38:02Z</time>
      </trkpt>
      <trkpt lat="43.4658960" lon="-5.4480970">
        <ele>5.6</ele>
        <time>2021-07-20T07:38:04Z</time>
      </trkpt>
      <trkpt lat="43.4659290" lon="-5.4481550">
        <ele>5.0</ele>
        <time>2021-07-20T07:38:05Z</time>
      </trkpt>
      <trkpt lat="43.4659510" lon="-5.4482120">
        <ele>4.6</ele>
        <time>2021-07-20T07:38:06Z</time>
      </trkpt>
      <trkpt lat="43.4659700" lon="-5.4482670">
        <ele>4.2</ele>
        <time>2021-07-20T07:38:07Z</time>
      </trkpt>
      <trkpt lat="43.4659820" lon="-5.4483170">
        <ele>3.8</ele>
        <time>2021-07-20T07:38:08Z</time>
      </trkpt>
      <trkpt lat="43.4659990" lon="-5.4484550">
        <ele>3.8</ele>
        <time>2021-07-20T07:38:11Z</time>
      </trkpt>
      <trkpt lat="43.4660010" lon="-5.4485010">
        <ele>3.8</ele>
        <time>2021-07-20T07:38:12Z</time>
      </trkpt>
      <trkpt lat="43.4660000" lon="-5.4486690">
        <ele>3.8</ele>
        <time>2021-07-20T07:38:16Z</time>
      </trkpt>
      <trkpt lat="43.4659990" lon="-5.4487900">
        <ele>3.8</ele>
        <time>2021-07-20T07:38:19Z</time>
      </trkpt>
      <trkpt lat="43.4660010" lon="-5.4488330">
        <ele>4.2</ele>
        <time>2021-07-20T07:38:20Z</time>
      </trkpt>
      <trkpt lat="43.4660020" lon="-5.4488700">
        <ele>4.6</ele>
        <time>2021-07-20T07:38:21Z</time>
      </trkpt>
      <trkpt lat="43.4660010" lon="-5.4489050">
        <ele>5.0</ele>
        <time>2021-07-20T07:38:22Z</time>
      </trkpt>
      <trkpt lat="43.4660000" lon="-5.4489400">
        <ele>5.4</ele>
        <time>2021-07-20T07:38:23Z</time>
      </trkpt>
      <trkpt lat="43.4660030" lon="-5.4489770">
        <ele>5.8</ele>
        <time>2021-07-20T07:38:24Z</time>
      </trkpt>
      <trkpt lat="43.4660110" lon="-5.4490560">
        <ele>5.8</ele>
        <time>2021-07-20T07:38:26Z</time>
      </trkpt>
      <trkpt lat="43.4659740" lon="-5.4492630">
        <ele>5.8</ele>
        <time>2021-07-20T07:38:31Z</time>
      </trkpt>
      <trkpt lat="43.4659750" lon="-5.4492860">
        <ele>5.8</ele>
        <time>2021-07-20T07:38:33Z</time>
      </trkpt>
      <trkpt lat="43.4659610" lon="-5.4493160">
        <ele>5.8</ele>
        <time>2021-07-20T07:38:51Z</time>
      </trkpt>
      <trkpt lat="43.4658960" lon="-5.4494600">
        <ele>5.8</ele>
        <time>2021-07-20T07:38:56Z</time>
      </trkpt>
      <trkpt lat="43.4657980" lon="-5.4497280">
        <ele>5.8</ele>
        <time>2021-07-20T07:39:02Z</time>
      </trkpt>
      <trkpt lat="43.4657410" lon="-5.4498620">
        <ele>5.8</ele>
        <time>2021-07-20T07:39:05Z</time>
      </trkpt>
      <trkpt lat="43.4655840" lon="-5.4502540">
        <ele>5.8</ele>
        <time>2021-07-20T07:39:13Z</time>
      </trkpt>
      <trkpt lat="43.4654380" lon="-5.4505840">
        <ele>5.8</ele>
        <time>2021-07-20T07:39:20Z</time>
      </trkpt>
      <trkpt lat="43.4653650" lon="-5.4508270">
        <ele>5.8</ele>
        <time>2021-07-20T07:39:25Z</time>
      </trkpt>
      <trkpt lat="43.4653530" lon="-5.4508800">
        <ele>5.8</ele>
        <time>2021-07-20T07:39:26Z</time>
      </trkpt>
      <trkpt lat="43.4653230" lon="-5.4509790">
        <ele>5.8</ele>
        <time>2021-07-20T07:39:29Z</time>
      </trkpt>
      <trkpt lat="43.4653160" lon="-5.4510210">
        <ele>5.8</ele>
        <time>2021-07-20T07:39:31Z</time>
      </trkpt>
      <trkpt lat="43.4653140" lon="-5.4510370">
        <ele>5.8</ele>
        <time>2021-07-20T07:39:33Z</time>
      </trkpt>
      <trkpt lat="43.4653190" lon="-5.4510600">
        <ele>5.8</ele>
        <time>2021-07-20T07:39:36Z</time>
      </trkpt>
      <trkpt lat="43.4653250" lon="-5.4510750">
        <ele>5.8</ele>
        <time>2021-07-20T07:39:37Z</time>
      </trkpt>
      <trkpt lat="43.4653330" lon="-5.4511620">
        <ele>5.8</ele>
        <time>2021-07-20T07:39:40Z</time>
      </trkpt>
      <trkpt lat="43.4653250" lon="-5.4512350">
        <ele>5.8</ele>
        <time>2021-07-20T07:39:42Z</time>
      </trkpt>
      <trkpt lat="43.4653220" lon="-5.4512720">
        <ele>5.8</ele>
        <time>2021-07-20T07:39:43Z</time>
      </trkpt>
      <trkpt lat="43.4653260" lon="-5.4513470">
        <ele>6.4</ele>
        <time>2021-07-20T07:39:45Z</time>
      </trkpt>
      <trkpt lat="43.4653330" lon="-5.4513860">
        <ele>6.8</ele>
        <time>2021-07-20T07:39:46Z</time>
      </trkpt>
      <trkpt lat="43.4653380" lon="-5.4514220">
        <ele>7.2</ele>
        <time>2021-07-20T07:39:47Z</time>
      </trkpt>
      <trkpt lat="43.4653430" lon="-5.4514630">
        <ele>7.6</ele>
        <time>2021-07-20T07:39:48Z</time>
      </trkpt>
      <trkpt lat="43.4653490" lon="-5.4515050">
        <ele>8.0</ele>
        <time>2021-07-20T07:39:49Z</time>
      </trkpt>
      <trkpt lat="43.4653800" lon="-5.4516280">
        <ele>8.0</ele>
        <time>2021-07-20T07:39:52Z</time>
      </trkpt>
      <trkpt lat="43.4653960" lon="-5.4516670">
        <ele>8.6</ele>
        <time>2021-07-20T07:39:53Z</time>
      </trkpt>
      <trkpt lat="43.4654130" lon="-5.4517050">
        <ele>9.0</ele>
        <time>2021-07-20T07:39:54Z</time>
      </trkpt>
      <trkpt lat="43.4654330" lon="-5.4517500">
        <ele>9.4</ele>
        <time>2021-07-20T07:39:55Z</time>
      </trkpt>
      <trkpt lat="43.4654470" lon="-5.4517900">
        <ele>9.8</ele>
        <time>2021-07-20T07:39:56Z</time>
      </trkpt>
      <trkpt lat="43.4654640" lon="-5.4518310">
        <ele>10.2</ele>
        <time>2021-07-20T07:39:57Z</time>
      </trkpt>
      <trkpt lat="43.4655160" lon="-5.4519580">
        <ele>10.2</ele>
        <time>2021-07-20T07:40:00Z</time>
      </trkpt>
      <trkpt lat="43.4656480" lon="-5.4522820">
        <ele>10.2</ele>
        <time>2021-07-20T07:40:07Z</time>
      </trkpt>
      <trkpt lat="43.4657980" lon="-5.4525390">
        <ele>10.2</ele>
        <time>2021-07-20T07:40:13Z</time>
      </trkpt>
      <trkpt lat="43.4658290" lon="-5.4525790">
        <ele>10.2</ele>
        <time>2021-07-20T07:40:14Z</time>
      </trkpt>
      <trkpt lat="43.4660070" lon="-5.4528440">
        <ele>10.2</ele>
        <time>2021-07-20T07:40:20Z</time>
      </trkpt>
      <trkpt lat="43.4660320" lon="-5.4528930">
        <ele>10.2</ele>
        <time>2021-07-20T07:40:21Z</time>
      </trkpt>
      <trkpt lat="43.4661650" lon="-5.4532230">
        <ele>10.2</ele>
        <time>2021-07-20T07:40:28Z</time>
      </trkpt>
      <trkpt lat="43.4662470" lon="-5.4535630">
        <ele>10.6</ele>
        <time>2021-07-20T07:40:35Z</time>
      </trkpt>
      <trkpt lat="43.4662540" lon="-5.4536090">
        <ele>11.0</ele>
        <time>2021-07-20T07:40:36Z</time>
      </trkpt>
      <trkpt lat="43.4662620" lon="-5.4536570">
        <ele>11.4</ele>
        <time>2021-07-20T07:40:37Z</time>
      </trkpt>
      <trkpt lat="43.4662710" lon="-5.4537010">
        <ele>12.0</ele>
        <time>2021-07-20T07:40:38Z</time>
      </trkpt>
      <trkpt lat="43.4662820" lon="-5.4537450">
        <ele>12.4</ele>
        <time>2021-07-20T07:40:39Z</time>
      </trkpt>
      <trkpt lat="43.4662930" lon="-5.4539240">
        <ele>12.4</ele>
        <time>2021-07-20T07:40:43Z</time>
      </trkpt>
      <trkpt lat="43.4663280" lon="-5.4543080">
        <ele>12.4</ele>
        <time>2021-07-20T07:40:50Z</time>
      </trkpt>
      <trkpt lat="43.4663290" lon="-5.4543710">
        <ele>12.4</ele>
        <time>2021-07-20T07:40:51Z</time>
      </trkpt>
      <trkpt lat="43.4663560" lon="-5.4546130">
        <ele>12.4</ele>
        <time>2021-07-20T07:40:55Z</time>
      </trkpt>
      <trkpt lat="43.4663690" lon="-5.4546710">
        <ele>12.4</ele>
        <time>2021-07-20T07:40:56Z</time>
      </trkpt>
      <trkpt lat="43.4664260" lon="-5.4549100">
        <ele>12.4</ele>
        <time>2021-07-20T07:41:00Z</time>
      </trkpt>
      <trkpt lat="43.4664840" lon="-5.4551400">
        <ele>12.4</ele>
        <time>2021-07-20T07:41:04Z</time>
      </trkpt>
      <trkpt lat="43.4665900" lon="-5.4556100">
        <ele>12.4</ele>
        <time>2021-07-20T07:41:12Z</time>
      </trkpt>
      <trkpt lat="43.4666040" lon="-5.4560000">
        <ele>12.4</ele>
        <time>2021-07-20T07:41:18Z</time>
      </trkpt>
      <trkpt lat="43.4666120" lon="-5.4564380">
        <ele>12.4</ele>
        <time>2021-07-20T07:41:25Z</time>
      </trkpt>
      <trkpt lat="43.4665900" lon="-5.4568700">
        <ele>12.4</ele>
        <time>2021-07-20T07:41:32Z</time>
      </trkpt>
      <trkpt lat="43.4665540" lon="-5.4573990">
        <ele>12.8</ele>
        <time>2021-07-20T07:41:42Z</time>
      </trkpt>
      <trkpt lat="43.4665530" lon="-5.4574440">
        <ele>13.2</ele>
        <time>2021-07-20T07:41:43Z</time>
      </trkpt>
      <trkpt lat="43.4665520" lon="-5.4574850">
        <ele>13.6</ele>
        <time>2021-07-20T07:41:44Z</time>
      </trkpt>
      <trkpt lat="43.4665530" lon="-5.4575260">
        <ele>14.0</ele>
        <time>2021-07-20T07:41:45Z</time>
      </trkpt>
      <trkpt lat="43.4665500" lon="-5.4575640">
        <ele>14.4</ele>
        <time>2021-07-20T07:41:46Z</time>
      </trkpt>
      <trkpt lat="43.4665370" lon="-5.4576690">
        <ele>14.4</ele>
        <time>2021-07-20T07:41:49Z</time>
      </trkpt>
      <trkpt lat="43.4665000" lon="-5.4579120">
        <ele>14.4</ele>
        <time>2021-07-20T07:41:56Z</time>
      </trkpt>
      <trkpt lat="43.4664890" lon="-5.4579780">
        <ele>14.4</ele>
        <time>2021-07-20T07:41:58Z</time>
      </trkpt>
      <trkpt lat="43.4664690" lon="-5.4581030">
        <ele>14.8</ele>
        <time>2021-07-20T07:42:02Z</time>
      </trkpt>
      <trkpt lat="43.4664660" lon="-5.4581450">
        <ele>15.2</ele>
        <time>2021-07-20T07:42:03Z</time>
      </trkpt>
      <trkpt lat="43.4664610" lon="-5.4581860">
        <ele>15.6</ele>
        <time>2021-07-20T07:42:04Z</time>
      </trkpt>
      <trkpt lat="43.4664490" lon="-5.4582390">
        <ele>16.0</ele>
        <time>2021-07-20T07:42:05Z</time>
      </trkpt>
      <trkpt lat="43.4664430" lon="-5.4582840">
        <ele>16.4</ele>
        <time>2021-07-20T07:42:06Z</time>
      </trkpt>
      <trkpt lat="43.4664060" lon="-5.4585060">
        <ele>16.4</ele>
        <time>2021-07-20T07:42:11Z</time>
      </trkpt>
      <trkpt lat="43.4663900" lon="-5.4586260">
        <ele>16.8</ele>
        <time>2021-07-20T07:42:14Z</time>
      </trkpt>
      <trkpt lat="43.4663810" lon="-5.4586690">
        <ele>17.2</ele>
        <time>2021-07-20T07:42:15Z</time>
      </trkpt>
      <trkpt lat="43.4663740" lon="-5.4587110">
        <ele>17.6</ele>
        <time>2021-07-20T07:42:16Z</time>
      </trkpt>
      <trkpt lat="43.4663700" lon="-5.4587530">
        <ele>18.0</ele>
        <time>2021-07-20T07:42:17Z</time>
      </trkpt>
      <trkpt lat="43.4663650" lon="-5.4587960">
        <ele>18.4</ele>
        <time>2021-07-20T07:42:18Z</time>
      </trkpt>
      <trkpt lat="43.4663600" lon="-5.4588850">
        <ele>18.4</ele>
        <time>2021-07-20T07:42:20Z</time>
      </trkpt>
      <trkpt lat="43.4663440" lon="-5.4592100">
        <ele>18.4</ele>
        <time>2021-07-20T07:42:27Z</time>
      </trkpt>
      <trkpt lat="43.4663320" lon="-5.4593790">
        <ele>18.4</ele>
        <time>2021-07-20T07:42:30Z</time>
      </trkpt>
      <trkpt lat="43.4663220" lon="-5.4596230">
        <ele>18.4</ele>
        <time>2021-07-20T07:42:34Z</time>
      </trkpt>
      <trkpt lat="43.4663300" lon="-5.4599170">
        <ele>18.4</ele>
        <time>2021-07-20T07:42:38Z</time>
      </trkpt>
      <trkpt lat="43.4663320" lon="-5.4600680">
        <ele>18.4</ele>
        <time>2021-07-20T07:42:40Z</time>
      </trkpt>
      <trkpt lat="43.4663330" lon="-5.4602950">
        <ele>18.4</ele>
        <time>2021-07-20T07:42:43Z</time>
      </trkpt>
      <trkpt lat="43.4663350" lon="-5.4604430">
        <ele>18.4</ele>
        <time>2021-07-20T07:42:45Z</time>
      </trkpt>
      <trkpt lat="43.4663370" lon="-5.4605200">
        <ele>18.4</ele>
        <time>2021-07-20T07:42:46Z</time>
      </trkpt>
      <trkpt lat="43.4663370" lon="-5.4606670">
        <ele>18.4</ele>
        <time>2021-07-20T07:42:48Z</time>
      </trkpt>
      <trkpt lat="43.4663370" lon="-5.4608050">
        <ele>18.4</ele>
        <time>2021-07-20T07:42:50Z</time>
      </trkpt>
      <trkpt lat="43.4663300" lon="-5.4610130">
        <ele>18.4</ele>
        <time>2021-07-20T07:42:53Z</time>
      </trkpt>
      <trkpt lat="43.4663010" lon="-5.4611990">
        <ele>18.4</ele>
        <time>2021-07-20T07:42:56Z</time>
      </trkpt>
      <trkpt lat="43.4662890" lon="-5.4612560">
        <ele>18.4</ele>
        <time>2021-07-20T07:42:57Z</time>
      </trkpt>
      <trkpt lat="43.4662730" lon="-5.4613750">
        <ele>18.4</ele>
        <time>2021-07-20T07:42:59Z</time>
      </trkpt>
      <trkpt lat="43.4662720" lon="-5.4614250">
        <ele>18.4</ele>
        <time>2021-07-20T07:43:00Z</time>
      </trkpt>
      <trkpt lat="43.4662800" lon="-5.4614860">
        <ele>18.4</ele>
        <time>2021-07-20T07:43:02Z</time>
      </trkpt>
      <trkpt lat="43.4662840" lon="-5.4614900">
        <ele>18.0</ele>
        <time>2021-07-20T07:43:03Z</time>
      </trkpt>
      <trkpt lat="43.4662840" lon="-5.4614900">
        <ele>17.6</ele>
        <time>2021-07-20T07:43:04Z</time>
      </trkpt>
      <trkpt lat="43.4662800" lon="-5.4615750">
        <ele>16.4</ele>
        <time>2021-07-20T07:44:59Z</time>
      </trkpt>
      <trkpt lat="43.4662710" lon="-5.4616940">
        <ele>16.4</ele>
        <time>2021-07-20T07:45:03Z</time>
      </trkpt>
      <trkpt lat="43.4662800" lon="-5.4617750">
        <ele>16.4</ele>
        <time>2021-07-20T07:45:05Z</time>
      </trkpt>
      <trkpt lat="43.4662840" lon="-5.4618190">
        <ele>16.4</ele>
        <time>2021-07-20T07:45:06Z</time>
      </trkpt>
      <trkpt lat="43.4662930" lon="-5.4619380">
        <ele>16.4</ele>
        <time>2021-07-20T07:45:09Z</time>
      </trkpt>
      <trkpt lat="43.4663040" lon="-5.4620170">
        <ele>16.4</ele>
        <time>2021-07-20T07:45:11Z</time>
      </trkpt>
      <trkpt lat="43.4663250" lon="-5.4620950">
        <ele>16.4</ele>
        <time>2021-07-20T07:45:13Z</time>
      </trkpt>
      <trkpt lat="43.4663590" lon="-5.4622140">
        <ele>17.0</ele>
        <time>2021-07-20T07:45:16Z</time>
      </trkpt>
      <trkpt lat="43.4663750" lon="-5.4622540">
        <ele>17.4</ele>
        <time>2021-07-20T07:45:17Z</time>
      </trkpt>
      <trkpt lat="43.4663910" lon="-5.4622950">
        <ele>17.8</ele>
        <time>2021-07-20T07:45:18Z</time>
      </trkpt>
      <trkpt lat="43.4664100" lon="-5.4623400">
        <ele>18.2</ele>
        <time>2021-07-20T07:45:19Z</time>
      </trkpt>
      <trkpt lat="43.4664300" lon="-5.4623920">
        <ele>18.6</ele>
        <time>2021-07-20T07:45:20Z</time>
      </trkpt>
      <trkpt lat="43.4665330" lon="-5.4626630">
        <ele>18.6</ele>
        <time>2021-07-20T07:45:24Z</time>
      </trkpt>
      <trkpt lat="43.4666200" lon="-5.4628710">
        <ele>18.6</ele>
        <time>2021-07-20T07:45:27Z</time>
      </trkpt>
      <trkpt lat="43.4666410" lon="-5.4629450">
        <ele>18.0</ele>
        <time>2021-07-20T07:45:28Z</time>
      </trkpt>
      <trkpt lat="43.4666590" lon="-5.4630230">
        <ele>17.6</ele>
        <time>2021-07-20T07:45:29Z</time>
      </trkpt>
      <trkpt lat="43.4666760" lon="-5.4630980">
        <ele>17.0</ele>
        <time>2021-07-20T07:45:30Z</time>
      </trkpt>
      <trkpt lat="43.4666900" lon="-5.4631660">
        <ele>16.6</ele>
        <time>2021-07-20T07:45:31Z</time>
      </trkpt>
      <trkpt lat="43.4667020" lon="-5.4632330">
        <ele>16.0</ele>
        <time>2021-07-20T07:45:32Z</time>
      </trkpt>
      <trkpt lat="43.4667080" lon="-5.4633020">
        <ele>16.0</ele>
        <time>2021-07-20T07:45:33Z</time>
      </trkpt>
      <trkpt lat="43.4667190" lon="-5.4634470">
        <ele>15.6</ele>
        <time>2021-07-20T07:45:35Z</time>
      </trkpt>
      <trkpt lat="43.4667250" lon="-5.4635250">
        <ele>15.2</ele>
        <time>2021-07-20T07:45:36Z</time>
      </trkpt>
      <trkpt lat="43.4667300" lon="-5.4636000">
        <ele>14.8</ele>
        <time>2021-07-20T07:45:37Z</time>
      </trkpt>
      <trkpt lat="43.4667320" lon="-5.4636730">
        <ele>14.0</ele>
        <time>2021-07-20T07:45:38Z</time>
      </trkpt>
      <trkpt lat="43.4667240" lon="-5.4638800">
        <ele>14.0</ele>
        <time>2021-07-20T07:45:41Z</time>
      </trkpt>
      <trkpt lat="43.4667190" lon="-5.4639430">
        <ele>14.0</ele>
        <time>2021-07-20T07:45:42Z</time>
      </trkpt>
      <trkpt lat="43.4666720" lon="-5.4643400">
        <ele>14.0</ele>
        <time>2021-07-20T07:45:49Z</time>
      </trkpt>
      <trkpt lat="43.4666610" lon="-5.4645040">
        <ele>14.0</ele>
        <time>2021-07-20T07:45:52Z</time>
      </trkpt>
      <trkpt lat="43.4666570" lon="-5.4646610">
        <ele>14.0</ele>
        <time>2021-07-20T07:45:55Z</time>
      </trkpt>
      <trkpt lat="43.4666460" lon="-5.4648090">
        <ele>14.0</ele>
        <time>2021-07-20T07:45:58Z</time>
      </trkpt>
      <trkpt lat="43.4666330" lon="-5.4649480">
        <ele>14.0</ele>
        <time>2021-07-20T07:46:01Z</time>
      </trkpt>
      <trkpt lat="43.4666270" lon="-5.4649960">
        <ele>14.0</ele>
        <time>2021-07-20T07:46:02Z</time>
      </trkpt>
      <trkpt lat="43.4665920" lon="-5.4653080">
        <ele>14.0</ele>
        <time>2021-07-20T07:46:09Z</time>
      </trkpt>
      <trkpt lat="43.4665860" lon="-5.4653540">
        <ele>14.0</ele>
        <time>2021-07-20T07:46:10Z</time>
      </trkpt>
      <trkpt lat="43.4665470" lon="-5.4656110">
        <ele>14.0</ele>
        <time>2021-07-20T07:46:16Z</time>
      </trkpt>
      <trkpt lat="43.4665460" lon="-5.4656520">
        <ele>14.4</ele>
        <time>2021-07-20T07:46:17Z</time>
      </trkpt>
      <trkpt lat="43.4665390" lon="-5.4656900">
        <ele>14.8</ele>
        <time>2021-07-20T07:46:18Z</time>
      </trkpt>
      <trkpt lat="43.4665330" lon="-5.4657310">
        <ele>15.2</ele>
        <time>2021-07-20T07:46:19Z</time>
      </trkpt>
      <trkpt lat="43.4665300" lon="-5.4657730">
        <ele>15.6</ele>
        <time>2021-07-20T07:46:20Z</time>
      </trkpt>
      <trkpt lat="43.4665270" lon="-5.4658150">
        <ele>16.0</ele>
        <time>2021-07-20T07:46:21Z</time>
      </trkpt>
      <trkpt lat="43.4664790" lon="-5.4659900">
        <ele>16.0</ele>
        <time>2021-07-20T07:46:26Z</time>
      </trkpt>
      <trkpt lat="43.4663950" lon="-5.4661970">
        <ele>16.0</ele>
        <time>2021-07-20T07:46:32Z</time>
      </trkpt>
      <trkpt lat="43.4662260" lon="-5.4664280">
        <ele>16.0</ele>
        <time>2021-07-20T07:46:38Z</time>
      </trkpt>
      <trkpt lat="43.4660980" lon="-5.4665650">
        <ele>16.0</ele>
        <time>2021-07-20T07:46:41Z</time>
      </trkpt>
      <trkpt lat="43.4660540" lon="-5.4666000">
        <ele>16.0</ele>
        <time>2021-07-20T07:46:42Z</time>
      </trkpt>
      <trkpt lat="43.4659680" lon="-5.4666720">
        <ele>16.0</ele>
        <time>2021-07-20T07:46:44Z</time>
      </trkpt>
      <trkpt lat="43.4659340" lon="-5.4667090">
        <ele>16.0</ele>
        <time>2021-07-20T07:46:45Z</time>
      </trkpt>
      <trkpt lat="43.4658890" lon="-5.4667940">
        <ele>16.0</ele>
        <time>2021-07-20T07:46:47Z</time>
      </trkpt>
      <trkpt lat="43.4658750" lon="-5.4668300">
        <ele>16.0</ele>
        <time>2021-07-20T07:46:48Z</time>
      </trkpt>
      <trkpt lat="43.4658750" lon="-5.4669650">
        <ele>16.0</ele>
        <time>2021-07-20T07:46:51Z</time>
      </trkpt>
      <trkpt lat="43.4658760" lon="-5.4670170">
        <ele>16.0</ele>
        <time>2021-07-20T07:46:52Z</time>
      </trkpt>
      <trkpt lat="43.4658840" lon="-5.4671600">
        <ele>16.0</ele>
        <time>2021-07-20T07:46:56Z</time>
      </trkpt>
      <trkpt lat="43.4658850" lon="-5.4671940">
        <ele>16.0</ele>
        <time>2021-07-20T07:46:57Z</time>
      </trkpt>
      <trkpt lat="43.4658930" lon="-5.4672500">
        <ele>16.0</ele>
        <time>2021-07-20T07:46:59Z</time>
      </trkpt>
      <trkpt lat="43.4658940" lon="-5.4673850">
        <ele>16.0</ele>
        <time>2021-07-20T07:47:03Z</time>
      </trkpt>
      <trkpt lat="43.4658920" lon="-5.4674580">
        <ele>16.4</ele>
        <time>2021-07-20T07:47:05Z</time>
      </trkpt>
      <trkpt lat="43.4658910" lon="-5.4674880">
        <ele>16.8</ele>
        <time>2021-07-20T07:47:06Z</time>
      </trkpt>
      <trkpt lat="43.4658880" lon="-5.4675140">
        <ele>17.2</ele>
        <time>2021-07-20T07:47:07Z</time>
      </trkpt>
      <trkpt lat="43.4658910" lon="-5.4675420">
        <ele>17.6</ele>
        <time>2021-07-20T07:47:08Z</time>
      </trkpt>
      <trkpt lat="43.4658900" lon="-5.4675660">
        <ele>18.0</ele>
        <time>2021-07-20T07:47:09Z</time>
      </trkpt>
      <trkpt lat="43.4659030" lon="-5.4677330">
        <ele>18.4</ele>
        <time>2021-07-20T07:47:15Z</time>
      </trkpt>
      <trkpt lat="43.4659000" lon="-5.4677580">
        <ele>19.0</ele>
        <time>2021-07-20T07:47:16Z</time>
      </trkpt>
      <trkpt lat="43.4658940" lon="-5.4677830">
        <ele>19.8</ele>
        <time>2021-07-20T07:47:17Z</time>
      </trkpt>
      <trkpt lat="43.4658920" lon="-5.4678050">
        <ele>20.2</ele>
        <time>2021-07-20T07:47:18Z</time>
      </trkpt>
      <trkpt lat="43.4658870" lon="-5.4679200">
        <ele>20.2</ele>
        <time>2021-07-20T07:47:22Z</time>
      </trkpt>
      <trkpt lat="43.4658980" lon="-5.4679910">
        <ele>20.6</ele>
        <time>2021-07-20T07:47:24Z</time>
      </trkpt>
      <trkpt lat="43.4659030" lon="-5.4680230">
        <ele>21.2</ele>
        <time>2021-07-20T07:47:25Z</time>
      </trkpt>
      <trkpt lat="43.4659070" lon="-5.4680510">
        <ele>21.6</ele>
        <time>2021-07-20T07:47:26Z</time>
      </trkpt>
      <trkpt lat="43.4659090" lon="-5.4680740">
        <ele>22.0</ele>
        <time>2021-07-20T07:47:27Z</time>
      </trkpt>
      <trkpt lat="43.4659110" lon="-5.4680990">
        <ele>22.4</ele>
        <time>2021-07-20T07:47:28Z</time>
      </trkpt>
      <trkpt lat="43.4659270" lon="-5.4681890">
        <ele>22.4</ele>
        <time>2021-07-20T07:47:31Z</time>
      </trkpt>
      <trkpt lat="43.4659440" lon="-5.4683430">
        <ele>22.8</ele>
        <time>2021-07-20T07:47:36Z</time>
      </trkpt>
      <trkpt lat="43.4659480" lon="-5.4683770">
        <ele>23.2</ele>
        <time>2021-07-20T07:47:37Z</time>
      </trkpt>
      <trkpt lat="43.4659480" lon="-5.4684050">
        <ele>23.6</ele>
        <time>2021-07-20T07:47:38Z</time>
      </trkpt>
      <trkpt lat="43.4659460" lon="-5.4684390">
        <ele>24.0</ele>
        <time>2021-07-20T07:47:39Z</time>
      </trkpt>
      <trkpt lat="43.4659540" lon="-5.4684770">
        <ele>24.6</ele>
        <time>2021-07-20T07:47:40Z</time>
      </trkpt>
      <trkpt lat="43.4660020" lon="-5.4686780">
        <ele>24.6</ele>
        <time>2021-07-20T07:47:46Z</time>
      </trkpt>
      <trkpt lat="43.4660130" lon="-5.4687960">
        <ele>25.0</ele>
        <time>2021-07-20T07:47:49Z</time>
      </trkpt>
      <trkpt lat="43.4660190" lon="-5.4688350">
        <ele>25.4</ele>
        <time>2021-07-20T07:47:50Z</time>
      </trkpt>
      <trkpt lat="43.4660240" lon="-5.4688710">
        <ele>25.8</ele>
        <time>2021-07-20T07:47:51Z</time>
      </trkpt>
      <trkpt lat="43.4660270" lon="-5.4689020">
        <ele>26.2</ele>
        <time>2021-07-20T07:47:52Z</time>
      </trkpt>
      <trkpt lat="43.4660390" lon="-5.4689370">
        <ele>26.6</ele>
        <time>2021-07-20T07:47:53Z</time>
      </trkpt>
      <trkpt lat="43.4661020" lon="-5.4692280">
        <ele>26.6</ele>
        <time>2021-07-20T07:48:00Z</time>
      </trkpt>
      <trkpt lat="43.4660990" lon="-5.4692720">
        <ele>27.0</ele>
        <time>2021-07-20T07:48:01Z</time>
      </trkpt>
      <trkpt lat="43.4660990" lon="-5.4693130">
        <ele>27.4</ele>
        <time>2021-07-20T07:48:02Z</time>
      </trkpt>
      <trkpt lat="43.4661020" lon="-5.4693530">
        <ele>27.8</ele>
        <time>2021-07-20T07:48:03Z</time>
      </trkpt>
      <trkpt lat="43.4661060" lon="-5.4693960">
        <ele>28.2</ele>
        <time>2021-07-20T07:48:04Z</time>
      </trkpt>
      <trkpt lat="43.4661150" lon="-5.4694330">
        <ele>28.6</ele>
        <time>2021-07-20T07:48:05Z</time>
      </trkpt>
      <trkpt lat="43.4661900" lon="-5.4697910">
        <ele>28.6</ele>
        <time>2021-07-20T07:48:12Z</time>
      </trkpt>
      <trkpt lat="43.4662270" lon="-5.4699770">
        <ele>28.6</ele>
        <time>2021-07-20T07:48:15Z</time>
      </trkpt>
      <trkpt lat="43.4662800" lon="-5.4702160">
        <ele>28.6</ele>
        <time>2021-07-20T07:48:19Z</time>
      </trkpt>
      <trkpt lat="43.4663030" lon="-5.4703340">
        <ele>28.6</ele>
        <time>2021-07-20T07:48:21Z</time>
      </trkpt>
      <trkpt lat="43.4663380" lon="-5.4705010">
        <ele>28.6</ele>
        <time>2021-07-20T07:48:24Z</time>
      </trkpt>
      <trkpt lat="43.4663580" lon="-5.4705960">
        <ele>28.6</ele>
        <time>2021-07-20T07:48:26Z</time>
      </trkpt>
      <trkpt lat="43.4663760" lon="-5.4706910">
        <ele>28.6</ele>
        <time>2021-07-20T07:48:28Z</time>
      </trkpt>
      <trkpt lat="43.4663980" lon="-5.4709010">
        <ele>28.6</ele>
        <time>2021-07-20T07:48:32Z</time>
      </trkpt>
      <trkpt lat="43.4664080" lon="-5.4710050">
        <ele>28.6</ele>
        <time>2021-07-20T07:48:34Z</time>
      </trkpt>
      <trkpt lat="43.4664060" lon="-5.4710600">
        <ele>28.6</ele>
        <time>2021-07-20T07:48:35Z</time>
      </trkpt>
      <trkpt lat="43.4664090" lon="-5.4712120">
        <ele>28.6</ele>
        <time>2021-07-20T07:48:38Z</time>
      </trkpt>
      <trkpt lat="43.4664050" lon="-5.4713920">
        <ele>28.6</ele>
        <time>2021-07-20T07:48:42Z</time>
      </trkpt>
      <trkpt lat="43.4664060" lon="-5.4716540">
        <ele>28.6</ele>
        <time>2021-07-20T07:48:48Z</time>
      </trkpt>
      <trkpt lat="43.4663940" lon="-5.4717430">
        <ele>28.6</ele>
        <time>2021-07-20T07:48:50Z</time>
      </trkpt>
      <trkpt lat="43.4663850" lon="-5.4719480">
        <ele>28.6</ele>
        <time>2021-07-20T07:48:55Z</time>
      </trkpt>
      <trkpt lat="43.4663770" lon="-5.4720290">
        <ele>28.6</ele>
        <time>2021-07-20T07:48:57Z</time>
      </trkpt>
      <trkpt lat="43.4663410" lon="-5.4723200">
        <ele>28.6</ele>
        <time>2021-07-20T07:49:04Z</time>
      </trkpt>
      <trkpt lat="43.4663200" lon="-5.4724370">
        <ele>28.6</ele>
        <time>2021-07-20T07:49:07Z</time>
      </trkpt>
      <trkpt lat="43.4662440" lon="-5.4728010">
        <ele>28.6</ele>
        <time>2021-07-20T07:49:16Z</time>
      </trkpt>
      <trkpt lat="43.4662010" lon="-5.4730010">
        <ele>29.0</ele>
        <time>2021-07-20T07:49:21Z</time>
      </trkpt>
      <trkpt lat="43.4661920" lon="-5.4730390">
        <ele>29.4</ele>
        <time>2021-07-20T07:49:22Z</time>
      </trkpt>
      <trkpt lat="43.4661850" lon="-5.4730840">
        <ele>29.8</ele>
        <time>2021-07-20T07:49:23Z</time>
      </trkpt>
      <trkpt lat="43.4661730" lon="-5.4731270">
        <ele>30.2</ele>
        <time>2021-07-20T07:49:24Z</time>
      </trkpt>
      <trkpt lat="43.4661600" lon="-5.4731740">
        <ele>30.8</ele>
        <time>2021-07-20T07:49:25Z</time>
      </trkpt>
      <trkpt lat="43.4660850" lon="-5.4734300">
        <ele>30.8</ele>
        <time>2021-07-20T07:49:30Z</time>
      </trkpt>
      <trkpt lat="43.4660310" lon="-5.4735950">
        <ele>30.8</ele>
        <time>2021-07-20T07:49:33Z</time>
      </trkpt>
      <trkpt lat="43.4659960" lon="-5.4737000">
        <ele>30.8</ele>
        <time>2021-07-20T07:49:35Z</time>
      </trkpt>
      <trkpt lat="43.4659160" lon="-5.4739730">
        <ele>30.8</ele>
        <time>2021-07-20T07:49:41Z</time>
      </trkpt>
      <trkpt lat="43.4658620" lon="-5.4742980">
        <ele>30.8</ele>
        <time>2021-07-20T07:49:48Z</time>
      </trkpt>
      <trkpt lat="43.4658150" lon="-5.4746110">
        <ele>30.8</ele>
        <time>2021-07-20T07:49:54Z</time>
      </trkpt>
      <trkpt lat="43.4657940" lon="-5.4749020">
        <ele>30.8</ele>
        <time>2021-07-20T07:50:00Z</time>
      </trkpt>
      <trkpt lat="43.4657100" lon="-5.4752100">
        <ele>30.8</ele>
        <time>2021-07-20T07:50:07Z</time>
      </trkpt>
      <trkpt lat="43.4656310" lon="-5.4755410">
        <ele>30.8</ele>
        <time>2021-07-20T07:50:13Z</time>
      </trkpt>
      <trkpt lat="43.4656200" lon="-5.4756070">
        <ele>30.8</ele>
        <time>2021-07-20T07:50:14Z</time>
      </trkpt>
      <trkpt lat="43.4655530" lon="-5.4759710">
        <ele>30.8</ele>
        <time>2021-07-20T07:50:20Z</time>
      </trkpt>
      <trkpt lat="43.4655100" lon="-5.4761360">
        <ele>30.8</ele>
        <time>2021-07-20T07:50:23Z</time>
      </trkpt>
      <trkpt lat="43.4654240" lon="-5.4763750">
        <ele>30.8</ele>
        <time>2021-07-20T07:50:28Z</time>
      </trkpt>
      <trkpt lat="43.4653480" lon="-5.4766180">
        <ele>30.8</ele>
        <time>2021-07-20T07:50:33Z</time>
      </trkpt>
      <trkpt lat="43.4653120" lon="-5.4767150">
        <ele>30.8</ele>
        <time>2021-07-20T07:50:35Z</time>
      </trkpt>
      <trkpt lat="43.4651890" lon="-5.4768690">
        <ele>30.8</ele>
        <time>2021-07-20T07:50:39Z</time>
      </trkpt>
      <trkpt lat="43.4651080" lon="-5.4769460">
        <ele>30.8</ele>
        <time>2021-07-20T07:50:41Z</time>
      </trkpt>
      <trkpt lat="43.4650090" lon="-5.4770390">
        <ele>30.8</ele>
        <time>2021-07-20T07:50:43Z</time>
      </trkpt>
      <trkpt lat="43.4649590" lon="-5.4770910">
        <ele>30.8</ele>
        <time>2021-07-20T07:50:44Z</time>
      </trkpt>
      <trkpt lat="43.4648280" lon="-5.4772560">
        <ele>30.2</ele>
        <time>2021-07-20T07:50:47Z</time>
      </trkpt>
      <trkpt lat="43.4647860" lon="-5.4773070">
        <ele>29.8</ele>
        <time>2021-07-20T07:50:48Z</time>
      </trkpt>
      <trkpt lat="43.4647480" lon="-5.4773600">
        <ele>29.4</ele>
        <time>2021-07-20T07:50:49Z</time>
      </trkpt>
      <trkpt lat="43.4647090" lon="-5.4774200">
        <ele>29.0</ele>
        <time>2021-07-20T07:50:50Z</time>
      </trkpt>
      <trkpt lat="43.4646870" lon="-5.4774830">
        <ele>28.6</ele>
        <time>2021-07-20T07:50:51Z</time>
      </trkpt>
      <trkpt lat="43.4646440" lon="-5.4775810">
        <ele>28.2</ele>
        <time>2021-07-20T07:50:53Z</time>
      </trkpt>
      <trkpt lat="43.4646330" lon="-5.4776130">
        <ele>27.8</ele>
        <time>2021-07-20T07:50:54Z</time>
      </trkpt>
      <trkpt lat="43.4646240" lon="-5.4776480">
        <ele>27.2</ele>
        <time>2021-07-20T07:50:55Z</time>
      </trkpt>
      <trkpt lat="43.4646200" lon="-5.4776760">
        <ele>26.8</ele>
        <time>2021-07-20T07:50:56Z</time>
      </trkpt>
      <trkpt lat="43.4646120" lon="-5.4777080">
        <ele>26.4</ele>
        <time>2021-07-20T07:50:57Z</time>
      </trkpt>
      <trkpt lat="43.4645970" lon="-5.4777760">
        <ele>26.4</ele>
        <time>2021-07-20T07:50:59Z</time>
      </trkpt>
      <trkpt lat="43.4645900" lon="-5.4778680">
        <ele>26.4</ele>
        <time>2021-07-20T07:51:01Z</time>
      </trkpt>
      <trkpt lat="43.4645740" lon="-5.4780460">
        <ele>26.4</ele>
        <time>2021-07-20T07:51:04Z</time>
      </trkpt>
      <trkpt lat="43.4645550" lon="-5.4781250">
        <ele>26.4</ele>
        <time>2021-07-20T07:51:05Z</time>
      </trkpt>
      <trkpt lat="43.4644920" lon="-5.4784040">
        <ele>26.4</ele>
        <time>2021-07-20T07:51:09Z</time>
      </trkpt>
      <trkpt lat="43.4644350" lon="-5.4786660">
        <ele>26.4</ele>
        <time>2021-07-20T07:51:14Z</time>
      </trkpt>
      <trkpt lat="43.4643600" lon="-5.4789020">
        <ele>26.4</ele>
        <time>2021-07-20T07:51:19Z</time>
      </trkpt>
      <trkpt lat="43.4643170" lon="-5.4789800">
        <ele>26.4</ele>
        <time>2021-07-20T07:51:21Z</time>
      </trkpt>
      <trkpt lat="43.4642010" lon="-5.4791070">
        <ele>26.4</ele>
        <time>2021-07-20T07:51:25Z</time>
      </trkpt>
      <trkpt lat="43.4641690" lon="-5.4791440">
        <ele>26.4</ele>
        <time>2021-07-20T07:51:26Z</time>
      </trkpt>
      <trkpt lat="43.4641050" lon="-5.4792120">
        <ele>26.4</ele>
        <time>2021-07-20T07:51:28Z</time>
      </trkpt>
      <trkpt lat="43.4640380" lon="-5.4792930">
        <ele>26.4</ele>
        <time>2021-07-20T07:51:30Z</time>
      </trkpt>
      <trkpt lat="43.4639860" lon="-5.4793670">
        <ele>26.4</ele>
        <time>2021-07-20T07:51:32Z</time>
      </trkpt>
      <trkpt lat="43.4639150" lon="-5.4795510">
        <ele>26.4</ele>
        <time>2021-07-20T07:51:37Z</time>
      </trkpt>
      <trkpt lat="43.4637910" lon="-5.4797870">
        <ele>26.4</ele>
        <time>2021-07-20T07:51:43Z</time>
      </trkpt>
      <trkpt lat="43.4637470" lon="-5.4798680">
        <ele>26.4</ele>
        <time>2021-07-20T07:51:45Z</time>
      </trkpt>
      <trkpt lat="43.4636800" lon="-5.4799900">
        <ele>26.4</ele>
        <time>2021-07-20T07:51:48Z</time>
      </trkpt>
      <trkpt lat="43.4635860" lon="-5.4801180">
        <ele>26.4</ele>
        <time>2021-07-20T07:51:52Z</time>
      </trkpt>
      <trkpt lat="43.4635050" lon="-5.4802770">
        <ele>26.4</ele>
        <time>2021-07-20T07:51:57Z</time>
      </trkpt>
      <trkpt lat="43.4634660" lon="-5.4803670">
        <ele>26.8</ele>
        <time>2021-07-20T07:52:00Z</time>
      </trkpt>
      <trkpt lat="43.4634460" lon="-5.4803930">
        <ele>27.2</ele>
        <time>2021-07-20T07:52:01Z</time>
      </trkpt>
      <trkpt lat="43.4634350" lon="-5.4804140">
        <ele>27.8</ele>
        <time>2021-07-20T07:52:02Z</time>
      </trkpt>
      <trkpt lat="43.4634220" lon="-5.4804370">
        <ele>28.2</ele>
        <time>2021-07-20T07:52:03Z</time>
      </trkpt>
      <trkpt lat="43.4634100" lon="-5.4804630">
        <ele>28.6</ele>
        <time>2021-07-20T07:52:04Z</time>
      </trkpt>
      <trkpt lat="43.4632970" lon="-5.4806640">
        <ele>28.6</ele>
        <time>2021-07-20T07:52:10Z</time>
      </trkpt>
      <trkpt lat="43.4632740" lon="-5.4807000">
        <ele>29.0</ele>
        <time>2021-07-20T07:52:11Z</time>
      </trkpt>
      <trkpt lat="43.4632580" lon="-5.4807240">
        <ele>29.4</ele>
        <time>2021-07-20T07:52:12Z</time>
      </trkpt>
      <trkpt lat="43.4632450" lon="-5.4807530">
        <ele>30.4</ele>
        <time>2021-07-20T07:52:13Z</time>
      </trkpt>
      <trkpt lat="43.4632290" lon="-5.4807740">
        <ele>30.8</ele>
        <time>2021-07-20T07:52:14Z</time>
      </trkpt>
      <trkpt lat="43.4631520" lon="-5.4808670">
        <ele>30.8</ele>
        <time>2021-07-20T07:52:19Z</time>
      </trkpt>
      <trkpt lat="43.4631370" lon="-5.4808910">
        <ele>31.2</ele>
        <time>2021-07-20T07:52:20Z</time>
      </trkpt>
      <trkpt lat="43.4631190" lon="-5.4809100">
        <ele>31.6</ele>
        <time>2021-07-20T07:52:21Z</time>
      </trkpt>
      <trkpt lat="43.4631030" lon="-5.4809340">
        <ele>32.0</ele>
        <time>2021-07-20T07:52:22Z</time>
      </trkpt>
      <trkpt lat="43.4630890" lon="-5.4809510">
        <ele>32.4</ele>
        <time>2021-07-20T07:52:23Z</time>
      </trkpt>
      <trkpt lat="43.4630770" lon="-5.4809650">
        <ele>32.8</ele>
        <time>2021-07-20T07:52:24Z</time>
      </trkpt>
      <trkpt lat="43.4630410" lon="-5.4810090">
        <ele>32.8</ele>
        <time>2021-07-20T07:52:27Z</time>
      </trkpt>
      <trkpt lat="43.4630000" lon="-5.4810610">
        <ele>33.2</ele>
        <time>2021-07-20T07:52:30Z</time>
      </trkpt>
      <trkpt lat="43.4629830" lon="-5.4810710">
        <ele>33.6</ele>
        <time>2021-07-20T07:52:31Z</time>
      </trkpt>
      <trkpt lat="43.4629710" lon="-5.4810890">
        <ele>34.2</ele>
        <time>2021-07-20T07:52:32Z</time>
      </trkpt>
      <trkpt lat="43.4629580" lon="-5.4811110">
        <ele>34.6</ele>
        <time>2021-07-20T07:52:33Z</time>
      </trkpt>
      <trkpt lat="43.4629430" lon="-5.4811320">
        <ele>35.0</ele>
        <time>2021-07-20T07:52:34Z</time>
      </trkpt>
      <trkpt lat="43.4627710" lon="-5.4813310">
        <ele>35.0</ele>
        <time>2021-07-20T07:52:42Z</time>
      </trkpt>
      <trkpt lat="43.4627170" lon="-5.4814120">
        <ele>35.4</ele>
        <time>2021-07-20T07:52:45Z</time>
      </trkpt>
      <trkpt lat="43.4626930" lon="-5.4814330">
        <ele>35.8</ele>
        <time>2021-07-20T07:52:46Z</time>
      </trkpt>
      <trkpt lat="43.4626700" lon="-5.4814650">
        <ele>36.2</ele>
        <time>2021-07-20T07:52:47Z</time>
      </trkpt>
      <trkpt lat="43.4626480" lon="-5.4814910">
        <ele>36.6</ele>
        <time>2021-07-20T07:52:48Z</time>
      </trkpt>
      <trkpt lat="43.4626210" lon="-5.4815050">
        <ele>37.0</ele>
        <time>2021-07-20T07:52:49Z</time>
      </trkpt>
      <trkpt lat="43.4625520" lon="-5.4816220">
        <ele>37.0</ele>
        <time>2021-07-20T07:52:53Z</time>
      </trkpt>
      <trkpt lat="43.4624430" lon="-5.4818240">
        <ele>37.0</ele>
        <time>2021-07-20T07:53:00Z</time>
      </trkpt>
      <trkpt lat="43.4622990" lon="-5.4820160">
        <ele>37.0</ele>
        <time>2021-07-20T07:53:06Z</time>
      </trkpt>
      <trkpt lat="43.4621300" lon="-5.4822420">
        <ele>37.0</ele>
        <time>2021-07-20T07:53:13Z</time>
      </trkpt>
      <trkpt lat="43.4620730" lon="-5.4823110">
        <ele>37.0</ele>
        <time>2021-07-20T07:53:15Z</time>
      </trkpt>
      <trkpt lat="43.4620160" lon="-5.4823900">
        <ele>37.0</ele>
        <time>2021-07-20T07:53:17Z</time>
      </trkpt>
      <trkpt lat="43.4619380" lon="-5.4824830">
        <ele>37.0</ele>
        <time>2021-07-20T07:53:19Z</time>
      </trkpt>
      <trkpt lat="43.4619020" lon="-5.4825310">
        <ele>37.0</ele>
        <time>2021-07-20T07:53:20Z</time>
      </trkpt>
      <trkpt lat="43.4618730" lon="-5.4825870">
        <ele>37.0</ele>
        <time>2021-07-20T07:53:21Z</time>
      </trkpt>
      <trkpt lat="43.4618290" lon="-5.4826740">
        <ele>37.0</ele>
        <time>2021-07-20T07:53:23Z</time>
      </trkpt>
      <trkpt lat="43.4617910" lon="-5.4827270">
        <ele>37.0</ele>
        <time>2021-07-20T07:53:24Z</time>
      </trkpt>
      <trkpt lat="43.4617510" lon="-5.4827800">
        <ele>37.0</ele>
        <time>2021-07-20T07:53:25Z</time>
      </trkpt>
      <trkpt lat="43.4616760" lon="-5.4828840">
        <ele>37.0</ele>
        <time>2021-07-20T07:53:27Z</time>
      </trkpt>
      <trkpt lat="43.4615570" lon="-5.4830650">
        <ele>37.0</ele>
        <time>2021-07-20T07:53:31Z</time>
      </trkpt>
      <trkpt lat="43.4613640" lon="-5.4833680">
        <ele>37.0</ele>
        <time>2021-07-20T07:53:37Z</time>
      </trkpt>
      <trkpt lat="43.4613080" lon="-5.4834720">
        <ele>37.0</ele>
        <time>2021-07-20T07:53:39Z</time>
      </trkpt>
      <trkpt lat="43.4612380" lon="-5.4836180">
        <ele>36.6</ele>
        <time>2021-07-20T07:53:42Z</time>
      </trkpt>
      <trkpt lat="43.4612200" lon="-5.4836630">
        <ele>36.2</ele>
        <time>2021-07-20T07:53:43Z</time>
      </trkpt>
      <trkpt lat="43.4612030" lon="-5.4837150">
        <ele>35.8</ele>
        <time>2021-07-20T07:53:44Z</time>
      </trkpt>
      <trkpt lat="43.4611820" lon="-5.4837660">
        <ele>35.4</ele>
        <time>2021-07-20T07:53:45Z</time>
      </trkpt>
      <trkpt lat="43.4611570" lon="-5.4838210">
        <ele>35.0</ele>
        <time>2021-07-20T07:53:46Z</time>
      </trkpt>
      <trkpt lat="43.4611360" lon="-5.4838780">
        <ele>35.0</ele>
        <time>2021-07-20T07:53:47Z</time>
      </trkpt>
      <trkpt lat="43.4610740" lon="-5.4841560">
        <ele>35.0</ele>
        <time>2021-07-20T07:53:51Z</time>
      </trkpt>
      <trkpt lat="43.4610630" lon="-5.4842290">
        <ele>34.2</ele>
        <time>2021-07-20T07:53:52Z</time>
      </trkpt>
      <trkpt lat="43.4610570" lon="-5.4843040">
        <ele>33.6</ele>
        <time>2021-07-20T07:53:53Z</time>
      </trkpt>
      <trkpt lat="43.4610570" lon="-5.4843750">
        <ele>33.2</ele>
        <time>2021-07-20T07:53:54Z</time>
      </trkpt>
      <trkpt lat="43.4610630" lon="-5.4844430">
        <ele>32.8</ele>
        <time>2021-07-20T07:53:55Z</time>
      </trkpt>
      <trkpt lat="43.4610730" lon="-5.4845080">
        <ele>32.8</ele>
        <time>2021-07-20T07:53:56Z</time>
      </trkpt>
      <trkpt lat="43.4611020" lon="-5.4846320">
        <ele>32.8</ele>
        <time>2021-07-20T07:53:58Z</time>
      </trkpt>
      <trkpt lat="43.4611200" lon="-5.4846840">
        <ele>32.4</ele>
        <time>2021-07-20T07:53:59Z</time>
      </trkpt>
      <trkpt lat="43.4611340" lon="-5.4847340">
        <ele>32.0</ele>
        <time>2021-07-20T07:54:00Z</time>
      </trkpt>
      <trkpt lat="43.4611420" lon="-5.4847950">
        <ele>31.6</ele>
        <time>2021-07-20T07:54:01Z</time>
      </trkpt>
      <trkpt lat="43.4611470" lon="-5.4848560">
        <ele>31.2</ele>
        <time>2021-07-20T07:54:02Z</time>
      </trkpt>
      <trkpt lat="43.4611510" lon="-5.4849180">
        <ele>30.8</ele>
        <time>2021-07-20T07:54:03Z</time>
      </trkpt>
      <trkpt lat="43.4611840" lon="-5.4852160">
        <ele>30.2</ele>
        <time>2021-07-20T07:54:08Z</time>
      </trkpt>
      <trkpt lat="43.4611870" lon="-5.4852740">
        <ele>29.8</ele>
        <time>2021-07-20T07:54:09Z</time>
      </trkpt>
      <trkpt lat="43.4611920" lon="-5.4853300">
        <ele>29.4</ele>
        <time>2021-07-20T07:54:10Z</time>
      </trkpt>
      <trkpt lat="43.4611950" lon="-5.4853830">
        <ele>29.0</ele>
        <time>2021-07-20T07:54:11Z</time>
      </trkpt>
      <trkpt lat="43.4611940" lon="-5.4854210">
        <ele>28.6</ele>
        <time>2021-07-20T07:54:12Z</time>
      </trkpt>
      <trkpt lat="43.4611960" lon="-5.4854620">
        <ele>28.6</ele>
        <time>2021-07-20T07:54:13Z</time>
      </trkpt>
      <trkpt lat="43.4611960" lon="-5.4855560">
        <ele>28.6</ele>
        <time>2021-07-20T07:54:15Z</time>
      </trkpt>
      <trkpt lat="43.4611880" lon="-5.4856400">
        <ele>28.6</ele>
        <time>2021-07-20T07:54:17Z</time>
      </trkpt>
      <trkpt lat="43.4611800" lon="-5.4857320">
        <ele>28.6</ele>
        <time>2021-07-20T07:54:19Z</time>
      </trkpt>
      <trkpt lat="43.4611720" lon="-5.4858240">
        <ele>28.6</ele>
        <time>2021-07-20T07:54:21Z</time>
      </trkpt>
      <trkpt lat="43.4611360" lon="-5.4860640">
        <ele>28.6</ele>
        <time>2021-07-20T07:54:27Z</time>
      </trkpt>
      <trkpt lat="43.4611160" lon="-5.4862290">
        <ele>28.6</ele>
        <time>2021-07-20T07:54:31Z</time>
      </trkpt>
      <trkpt lat="43.4611190" lon="-5.4863100">
        <ele>28.6</ele>
        <time>2021-07-20T07:54:33Z</time>
      </trkpt>
      <trkpt lat="43.4610940" lon="-5.4865210">
        <ele>28.6</ele>
        <time>2021-07-20T07:54:40Z</time>
      </trkpt>
      <trkpt lat="43.4610420" lon="-5.4866730">
        <ele>28.6</ele>
        <time>2021-07-20T07:54:46Z</time>
      </trkpt>
      <trkpt lat="43.4609640" lon="-5.4867920">
        <ele>28.6</ele>
        <time>2021-07-20T07:54:51Z</time>
      </trkpt>
      <trkpt lat="43.4609410" lon="-5.4868210">
        <ele>28.6</ele>
        <time>2021-07-20T07:54:52Z</time>
      </trkpt>
      <trkpt lat="43.4608110" lon="-5.4869590">
        <ele>28.6</ele>
        <time>2021-07-20T07:54:56Z</time>
      </trkpt>
      <trkpt lat="43.4607850" lon="-5.4870020">
        <ele>28.6</ele>
        <time>2021-07-20T07:54:57Z</time>
      </trkpt>
      <trkpt lat="43.4607360" lon="-5.4871210">
        <ele>28.6</ele>
        <time>2021-07-20T07:55:00Z</time>
      </trkpt>
      <trkpt lat="43.4606760" lon="-5.4872740">
        <ele>28.6</ele>
        <time>2021-07-20T07:55:04Z</time>
      </trkpt>
      <trkpt lat="43.4606010" lon="-5.4875180">
        <ele>28.6</ele>
        <time>2021-07-20T07:55:10Z</time>
      </trkpt>
      <trkpt lat="43.4605050" lon="-5.4877260">
        <ele>28.6</ele>
        <time>2021-07-20T07:55:16Z</time>
      </trkpt>
      <trkpt lat="43.4604280" lon="-5.4878790">
        <ele>28.6</ele>
        <time>2021-07-20T07:55:21Z</time>
      </trkpt>
      <trkpt lat="43.4603230" lon="-5.4881780">
        <ele>28.6</ele>
        <time>2021-07-20T07:55:28Z</time>
      </trkpt>
      <trkpt lat="43.4602920" lon="-5.4883130">
        <ele>29.4</ele>
        <time>2021-07-20T07:55:31Z</time>
      </trkpt>
      <trkpt lat="43.4602800" lon="-5.4883590">
        <ele>29.8</ele>
        <time>2021-07-20T07:55:32Z</time>
      </trkpt>
      <trkpt lat="43.4602650" lon="-5.4884030">
        <ele>30.2</ele>
        <time>2021-07-20T07:55:33Z</time>
      </trkpt>
      <trkpt lat="43.4602530" lon="-5.4884420">
        <ele>30.6</ele>
        <time>2021-07-20T07:55:34Z</time>
      </trkpt>
      <trkpt lat="43.4602010" lon="-5.4886860">
        <ele>30.6</ele>
        <time>2021-07-20T07:55:40Z</time>
      </trkpt>
      <trkpt lat="43.4601590" lon="-5.4889170">
        <ele>31.0</ele>
        <time>2021-07-20T07:55:46Z</time>
      </trkpt>
      <trkpt lat="43.4601520" lon="-5.4889530">
        <ele>31.4</ele>
        <time>2021-07-20T07:55:47Z</time>
      </trkpt>
      <trkpt lat="43.4601450" lon="-5.4889910">
        <ele>31.8</ele>
        <time>2021-07-20T07:55:48Z</time>
      </trkpt>
      <trkpt lat="43.4601390" lon="-5.4890240">
        <ele>32.2</ele>
        <time>2021-07-20T07:55:49Z</time>
      </trkpt>
      <trkpt lat="43.4601340" lon="-5.4890560">
        <ele>32.6</ele>
        <time>2021-07-20T07:55:50Z</time>
      </trkpt>
      <trkpt lat="43.4601190" lon="-5.4891830">
        <ele>32.6</ele>
        <time>2021-07-20T07:55:54Z</time>
      </trkpt>
      <trkpt lat="43.4601070" lon="-5.4893020">
        <ele>33.0</ele>
        <time>2021-07-20T07:55:58Z</time>
      </trkpt>
      <trkpt lat="43.4601040" lon="-5.4893300">
        <ele>33.6</ele>
        <time>2021-07-20T07:55:59Z</time>
      </trkpt>
      <trkpt lat="43.4601040" lon="-5.4893580">
        <ele>34.0</ele>
        <time>2021-07-20T07:56:00Z</time>
      </trkpt>
      <trkpt lat="43.4601030" lon="-5.4893830">
        <ele>34.4</ele>
        <time>2021-07-20T07:56:01Z</time>
      </trkpt>
      <trkpt lat="43.4601020" lon="-5.4894090">
        <ele>34.8</ele>
        <time>2021-07-20T07:56:02Z</time>
      </trkpt>
      <trkpt lat="43.4600980" lon="-5.4895140">
        <ele>34.8</ele>
        <time>2021-07-20T07:56:06Z</time>
      </trkpt>
      <trkpt lat="43.4600960" lon="-5.4895740">
        <ele>35.2</ele>
        <time>2021-07-20T07:56:08Z</time>
      </trkpt>
      <trkpt lat="43.4600930" lon="-5.4896010">
        <ele>35.6</ele>
        <time>2021-07-20T07:56:09Z</time>
      </trkpt>
      <trkpt lat="43.4600920" lon="-5.4896280">
        <ele>36.2</ele>
        <time>2021-07-20T07:56:10Z</time>
      </trkpt>
      <trkpt lat="43.4600890" lon="-5.4896560">
        <ele>36.6</ele>
        <time>2021-07-20T07:56:11Z</time>
      </trkpt>
      <trkpt lat="43.4600890" lon="-5.4896840">
        <ele>37.0</ele>
        <time>2021-07-20T07:56:12Z</time>
      </trkpt>
      <trkpt lat="43.4600760" lon="-5.4897820">
        <ele>37.0</ele>
        <time>2021-07-20T07:56:16Z</time>
      </trkpt>
      <trkpt lat="43.4600730" lon="-5.4898030">
        <ele>37.4</ele>
        <time>2021-07-20T07:56:17Z</time>
      </trkpt>
      <trkpt lat="43.4600690" lon="-5.4898220">
        <ele>37.8</ele>
        <time>2021-07-20T07:56:18Z</time>
      </trkpt>
      <trkpt lat="43.4600640" lon="-5.4898410">
        <ele>38.2</ele>
        <time>2021-07-20T07:56:19Z</time>
      </trkpt>
      <trkpt lat="43.4600590" lon="-5.4898660">
        <ele>39.0</ele>
        <time>2021-07-20T07:56:20Z</time>
      </trkpt>
      <trkpt lat="43.4600470" lon="-5.4899360">
        <ele>39.0</ele>
        <time>2021-07-20T07:56:23Z</time>
      </trkpt>
      <trkpt lat="43.4600180" lon="-5.4901130">
        <ele>39.4</ele>
        <time>2021-07-20T07:56:29Z</time>
      </trkpt>
      <trkpt lat="43.4600130" lon="-5.4901430">
        <ele>39.8</ele>
        <time>2021-07-20T07:56:30Z</time>
      </trkpt>
      <trkpt lat="43.4600090" lon="-5.4901700">
        <ele>40.2</ele>
        <time>2021-07-20T07:56:31Z</time>
      </trkpt>
      <trkpt lat="43.4600050" lon="-5.4901970">
        <ele>40.8</ele>
        <time>2021-07-20T07:56:32Z</time>
      </trkpt>
      <trkpt lat="43.4600020" lon="-5.4902240">
        <ele>41.2</ele>
        <time>2021-07-20T07:56:33Z</time>
      </trkpt>
      <trkpt lat="43.4599690" lon="-5.4903460">
        <ele>41.2</ele>
        <time>2021-07-20T07:56:38Z</time>
      </trkpt>
      <trkpt lat="43.4598750" lon="-5.4905080">
        <ele>41.2</ele>
        <time>2021-07-20T07:56:45Z</time>
      </trkpt>
      <trkpt lat="43.4598550" lon="-5.4905520">
        <ele>41.6</ele>
        <time>2021-07-20T07:56:47Z</time>
      </trkpt>
      <trkpt lat="43.4598440" lon="-5.4905760">
        <ele>42.0</ele>
        <time>2021-07-20T07:56:48Z</time>
      </trkpt>
      <trkpt lat="43.4598340" lon="-5.4905980">
        <ele>42.4</ele>
        <time>2021-07-20T07:56:49Z</time>
      </trkpt>
      <trkpt lat="43.4598240" lon="-5.4906220">
        <ele>42.8</ele>
        <time>2021-07-20T07:56:50Z</time>
      </trkpt>
      <trkpt lat="43.4598140" lon="-5.4906480">
        <ele>43.2</ele>
        <time>2021-07-20T07:56:51Z</time>
      </trkpt>
      <trkpt lat="43.4597860" lon="-5.4907360">
        <ele>43.2</ele>
        <time>2021-07-20T07:56:54Z</time>
      </trkpt>
      <trkpt lat="43.4597330" lon="-5.4909630">
        <ele>43.2</ele>
        <time>2021-07-20T07:57:01Z</time>
      </trkpt>
      <trkpt lat="43.4596840" lon="-5.4911790">
        <ele>43.2</ele>
        <time>2021-07-20T07:57:07Z</time>
      </trkpt>
      <trkpt lat="43.4596320" lon="-5.4913410">
        <ele>43.8</ele>
        <time>2021-07-20T07:57:12Z</time>
      </trkpt>
      <trkpt lat="43.4596200" lon="-5.4913700">
        <ele>44.2</ele>
        <time>2021-07-20T07:57:13Z</time>
      </trkpt>
      <trkpt lat="43.4596080" lon="-5.4914000">
        <ele>44.6</ele>
        <time>2021-07-20T07:57:14Z</time>
      </trkpt>
      <trkpt lat="43.4596000" lon="-5.4914300">
        <ele>45.0</ele>
        <time>2021-07-20T07:57:15Z</time>
      </trkpt>
      <trkpt lat="43.4595960" lon="-5.4914580">
        <ele>45.4</ele>
        <time>2021-07-20T07:57:16Z</time>
      </trkpt>
      <trkpt lat="43.4596090" lon="-5.4915490">
        <ele>45.4</ele>
        <time>2021-07-20T07:57:20Z</time>
      </trkpt>
      <trkpt lat="43.4596120" lon="-5.4915690">
        <ele>45.4</ele>
        <time>2021-07-20T07:57:21Z</time>
      </trkpt>
      <trkpt lat="43.4596540" lon="-5.4916630">
        <ele>45.4</ele>
        <time>2021-07-20T07:57:26Z</time>
      </trkpt>
      <trkpt lat="43.4596810" lon="-5.4917140">
        <ele>45.8</ele>
        <time>2021-07-20T07:57:29Z</time>
      </trkpt>
      <trkpt lat="43.4596880" lon="-5.4917340">
        <ele>46.2</ele>
        <time>2021-07-20T07:57:30Z</time>
      </trkpt>
      <trkpt lat="43.4596930" lon="-5.4917530">
        <ele>46.6</ele>
        <time>2021-07-20T07:57:31Z</time>
      </trkpt>
      <trkpt lat="43.4596960" lon="-5.4917730">
        <ele>47.0</ele>
        <time>2021-07-20T07:57:32Z</time>
      </trkpt>
      <trkpt lat="43.4596990" lon="-5.4917910">
        <ele>47.6</ele>
        <time>2021-07-20T07:57:33Z</time>
      </trkpt>
      <trkpt lat="43.4597170" lon="-5.4918850">
        <ele>48.0</ele>
        <time>2021-07-20T07:57:38Z</time>
      </trkpt>
      <trkpt lat="43.4597230" lon="-5.4919070">
        <ele>48.4</ele>
        <time>2021-07-20T07:57:39Z</time>
      </trkpt>
      <trkpt lat="43.4597300" lon="-5.4919300">
        <ele>48.8</ele>
        <time>2021-07-20T07:57:40Z</time>
      </trkpt>
      <trkpt lat="43.4597330" lon="-5.4919550">
        <ele>49.2</ele>
        <time>2021-07-20T07:57:41Z</time>
      </trkpt>
      <trkpt lat="43.4597350" lon="-5.4919810">
        <ele>49.6</ele>
        <time>2021-07-20T07:57:42Z</time>
      </trkpt>
      <trkpt lat="43.4597630" lon="-5.4921270">
        <ele>49.6</ele>
        <time>2021-07-20T07:57:48Z</time>
      </trkpt>
      <trkpt lat="43.4598250" lon="-5.4923080">
        <ele>49.6</ele>
        <time>2021-07-20T07:57:55Z</time>
      </trkpt>
      <trkpt lat="43.4598330" lon="-5.4923620">
        <ele>50.0</ele>
        <time>2021-07-20T07:57:57Z</time>
      </trkpt>
      <trkpt lat="43.4598360" lon="-5.4923870">
        <ele>50.4</ele>
        <time>2021-07-20T07:57:58Z</time>
      </trkpt>
      <trkpt lat="43.4598400" lon="-5.4924120">
        <ele>51.2</ele>
        <time>2021-07-20T07:57:59Z</time>
      </trkpt>
      <trkpt lat="43.4598430" lon="-5.4924420">
        <ele>51.6</ele>
        <time>2021-07-20T07:58:00Z</time>
      </trkpt>
      <trkpt lat="43.4598490" lon="-5.4925040">
        <ele>51.6</ele>
        <time>2021-07-20T07:58:02Z</time>
      </trkpt>
      <trkpt lat="43.4598760" lon="-5.4926850">
        <ele>51.6</ele>
        <time>2021-07-20T07:58:09Z</time>
      </trkpt>
      <trkpt lat="43.4598830" lon="-5.4927290">
        <ele>52.0</ele>
        <time>2021-07-20T07:58:11Z</time>
      </trkpt>
      <trkpt lat="43.4598850" lon="-5.4927530">
        <ele>52.4</ele>
        <time>2021-07-20T07:58:12Z</time>
      </trkpt>
      <trkpt lat="43.4598880" lon="-5.4927780">
        <ele>52.8</ele>
        <time>2021-07-20T07:58:13Z</time>
      </trkpt>
      <trkpt lat="43.4598900" lon="-5.4928020">
        <ele>53.2</ele>
        <time>2021-07-20T07:58:14Z</time>
      </trkpt>
      <trkpt lat="43.4598910" lon="-5.4928290">
        <ele>53.8</ele>
        <time>2021-07-20T07:58:15Z</time>
      </trkpt>
      <trkpt lat="43.4598940" lon="-5.4928890">
        <ele>53.8</ele>
        <time>2021-07-20T07:58:17Z</time>
      </trkpt>
      <trkpt lat="43.4599170" lon="-5.4930820">
        <ele>54.2</ele>
        <time>2021-07-20T07:58:24Z</time>
      </trkpt>
      <trkpt lat="43.4599200" lon="-5.4931090">
        <ele>54.6</ele>
        <time>2021-07-20T07:58:25Z</time>
      </trkpt>
      <trkpt lat="43.4599220" lon="-5.4931390">
        <ele>55.0</ele>
        <time>2021-07-20T07:58:26Z</time>
      </trkpt>
      <trkpt lat="43.4599230" lon="-5.4931680">
        <ele>55.4</ele>
        <time>2021-07-20T07:58:27Z</time>
      </trkpt>
      <trkpt lat="43.4599250" lon="-5.4931980">
        <ele>55.8</ele>
        <time>2021-07-20T07:58:28Z</time>
      </trkpt>
      <trkpt lat="43.4599300" lon="-5.4932910">
        <ele>55.8</ele>
        <time>2021-07-20T07:58:31Z</time>
      </trkpt>
      <trkpt lat="43.4599400" lon="-5.4935220">
        <ele>55.8</ele>
        <time>2021-07-20T07:58:39Z</time>
      </trkpt>
      <trkpt lat="43.4599500" lon="-5.4936650">
        <ele>56.2</ele>
        <time>2021-07-20T07:58:44Z</time>
      </trkpt>
      <trkpt lat="43.4599530" lon="-5.4936920">
        <ele>56.6</ele>
        <time>2021-07-20T07:58:45Z</time>
      </trkpt>
      <trkpt lat="43.4599560" lon="-5.4937180">
        <ele>57.0</ele>
        <time>2021-07-20T07:58:46Z</time>
      </trkpt>
      <trkpt lat="43.4599580" lon="-5.4937440">
        <ele>57.4</ele>
        <time>2021-07-20T07:58:47Z</time>
      </trkpt>
      <trkpt lat="43.4599540" lon="-5.4937720">
        <ele>57.8</ele>
        <time>2021-07-20T07:58:48Z</time>
      </trkpt>
      <trkpt lat="43.4599490" lon="-5.4939630">
        <ele>57.8</ele>
        <time>2021-07-20T07:58:54Z</time>
      </trkpt>
      <trkpt lat="43.4599480" lon="-5.4939990">
        <ele>58.2</ele>
        <time>2021-07-20T07:58:55Z</time>
      </trkpt>
      <trkpt lat="43.4599490" lon="-5.4940310">
        <ele>58.6</ele>
        <time>2021-07-20T07:58:56Z</time>
      </trkpt>
      <trkpt lat="43.4599480" lon="-5.4940610">
        <ele>59.0</ele>
        <time>2021-07-20T07:58:57Z</time>
      </trkpt>
      <trkpt lat="43.4599430" lon="-5.4940930">
        <ele>59.4</ele>
        <time>2021-07-20T07:58:58Z</time>
      </trkpt>
      <trkpt lat="43.4599360" lon="-5.4941250">
        <ele>59.8</ele>
        <time>2021-07-20T07:58:59Z</time>
      </trkpt>
      <trkpt lat="43.4599000" lon="-5.4942930">
        <ele>59.8</ele>
        <time>2021-07-20T07:59:04Z</time>
      </trkpt>
      <trkpt lat="43.4598360" lon="-5.4945620">
        <ele>59.8</ele>
        <time>2021-07-20T07:59:12Z</time>
      </trkpt>
      <trkpt lat="43.4597850" lon="-5.4947730">
        <ele>59.8</ele>
        <time>2021-07-20T07:59:18Z</time>
      </trkpt>
      <trkpt lat="43.4597560" lon="-5.4949050">
        <ele>60.4</ele>
        <time>2021-07-20T07:59:22Z</time>
      </trkpt>
      <trkpt lat="43.4597500" lon="-5.4949400">
        <ele>60.8</ele>
        <time>2021-07-20T07:59:23Z</time>
      </trkpt>
      <trkpt lat="43.4597430" lon="-5.4949740">
        <ele>61.2</ele>
        <time>2021-07-20T07:59:24Z</time>
      </trkpt>
      <trkpt lat="43.4597360" lon="-5.4950060">
        <ele>61.6</ele>
        <time>2021-07-20T07:59:25Z</time>
      </trkpt>
      <trkpt lat="43.4597320" lon="-5.4950380">
        <ele>62.0</ele>
        <time>2021-07-20T07:59:26Z</time>
      </trkpt>
      <trkpt lat="43.4597050" lon="-5.4951970">
        <ele>62.0</ele>
        <time>2021-07-20T07:59:31Z</time>
      </trkpt>
      <trkpt lat="43.4596680" lon="-5.4953960">
        <ele>62.0</ele>
        <time>2021-07-20T07:59:37Z</time>
      </trkpt>
      <trkpt lat="43.4596380" lon="-5.4955040">
        <ele>62.0</ele>
        <time>2021-07-20T07:59:40Z</time>
      </trkpt>
      <trkpt lat="43.4596260" lon="-5.4955770">
        <ele>62.0</ele>
        <time>2021-07-20T07:59:42Z</time>
      </trkpt>
      <trkpt lat="43.4595960" lon="-5.4956860">
        <ele>62.0</ele>
        <time>2021-07-20T07:59:45Z</time>
      </trkpt>
      <trkpt lat="43.4595630" lon="-5.4958060">
        <ele>62.0</ele>
        <time>2021-07-20T07:59:48Z</time>
      </trkpt>
      <trkpt lat="43.4595240" lon="-5.4959910">
        <ele>62.0</ele>
        <time>2021-07-20T07:59:52Z</time>
      </trkpt>
      <trkpt lat="43.4594870" lon="-5.4961450">
        <ele>62.0</ele>
        <time>2021-07-20T07:59:55Z</time>
      </trkpt>
      <trkpt lat="43.4594380" lon="-5.4963150">
        <ele>62.0</ele>
        <time>2021-07-20T07:59:58Z</time>
      </trkpt>
      <trkpt lat="43.4594010" lon="-5.4964500">
        <ele>62.0</ele>
        <time>2021-07-20T08:00:00Z</time>
      </trkpt>
      <trkpt lat="43.4593600" lon="-5.4965950">
        <ele>62.0</ele>
        <time>2021-07-20T08:00:02Z</time>
      </trkpt>
      <trkpt lat="43.4592090" lon="-5.4970100">
        <ele>61.6</ele>
        <time>2021-07-20T08:00:07Z</time>
      </trkpt>
      <trkpt lat="43.4591740" lon="-5.4971050">
        <ele>61.0</ele>
        <time>2021-07-20T08:00:08Z</time>
      </trkpt>
      <trkpt lat="43.4591400" lon="-5.4972010">
        <ele>60.6</ele>
        <time>2021-07-20T08:00:09Z</time>
      </trkpt>
      <trkpt lat="43.4591070" lon="-5.4972990">
        <ele>60.2</ele>
        <time>2021-07-20T08:00:10Z</time>
      </trkpt>
      <trkpt lat="43.4590750" lon="-5.4973970">
        <ele>59.6</ele>
        <time>2021-07-20T08:00:11Z</time>
      </trkpt>
      <trkpt lat="43.4589860" lon="-5.4976820">
        <ele>59.6</ele>
        <time>2021-07-20T08:00:14Z</time>
      </trkpt>
      <trkpt lat="43.4589200" lon="-5.4979660">
        <ele>59.6</ele>
        <time>2021-07-20T08:00:17Z</time>
      </trkpt>
      <trkpt lat="43.4588780" lon="-5.4981390">
        <ele>59.2</ele>
        <time>2021-07-20T08:00:19Z</time>
      </trkpt>
      <trkpt lat="43.4588550" lon="-5.4982220">
        <ele>58.8</ele>
        <time>2021-07-20T08:00:20Z</time>
      </trkpt>
      <trkpt lat="43.4588290" lon="-5.4983050">
        <ele>58.4</ele>
        <time>2021-07-20T08:00:21Z</time>
      </trkpt>
      <trkpt lat="43.4588000" lon="-5.4983930">
        <ele>58.0</ele>
        <time>2021-07-20T08:00:22Z</time>
      </trkpt>
      <trkpt lat="43.4587720" lon="-5.4984750">
        <ele>57.6</ele>
        <time>2021-07-20T08:00:23Z</time>
      </trkpt>
      <trkpt lat="43.4586890" lon="-5.4987100">
        <ele>57.6</ele>
        <time>2021-07-20T08:00:26Z</time>
      </trkpt>
      <trkpt lat="43.4586320" lon="-5.4988750">
        <ele>57.2</ele>
        <time>2021-07-20T08:00:28Z</time>
      </trkpt>
      <trkpt lat="43.4586030" lon="-5.4989590">
        <ele>56.8</ele>
        <time>2021-07-20T08:00:29Z</time>
      </trkpt>
      <trkpt lat="43.4585700" lon="-5.4990450">
        <ele>56.4</ele>
        <time>2021-07-20T08:00:30Z</time>
      </trkpt>
      <trkpt lat="43.4585400" lon="-5.4991310">
        <ele>55.8</ele>
        <time>2021-07-20T08:00:31Z</time>
      </trkpt>
      <trkpt lat="43.4585110" lon="-5.4992180">
        <ele>55.4</ele>
        <time>2021-07-20T08:00:32Z</time>
      </trkpt>
      <trkpt lat="43.4584530" lon="-5.4993890">
        <ele>55.4</ele>
        <time>2021-07-20T08:00:34Z</time>
      </trkpt>
      <trkpt lat="43.4584240" lon="-5.4994760">
        <ele>55.0</ele>
        <time>2021-07-20T08:00:35Z</time>
      </trkpt>
      <trkpt lat="43.4583950" lon="-5.4995650">
        <ele>54.4</ele>
        <time>2021-07-20T08:00:36Z</time>
      </trkpt>
      <trkpt lat="43.4583630" lon="-5.4996590">
        <ele>54.0</ele>
        <time>2021-07-20T08:00:37Z</time>
      </trkpt>
      <trkpt lat="43.4583320" lon="-5.4997400">
        <ele>53.6</ele>
        <time>2021-07-20T08:00:38Z</time>
      </trkpt>
      <trkpt lat="43.4583020" lon="-5.4998170">
        <ele>53.0</ele>
        <time>2021-07-20T08:00:39Z</time>
      </trkpt>
      <trkpt lat="43.4582700" lon="-5.4998820">
        <ele>52.4</ele>
        <time>2021-07-20T08:00:40Z</time>
      </trkpt>
      <trkpt lat="43.4582370" lon="-5.4999350">
        <ele>51.8</ele>
        <time>2021-07-20T08:00:41Z</time>
      </trkpt>
      <trkpt lat="43.4582050" lon="-5.4999790">
        <ele>51.2</ele>
        <time>2021-07-20T08:00:42Z</time>
      </trkpt>
      <trkpt lat="43.4581770" lon="-5.5000180">
        <ele>50.6</ele>
        <time>2021-07-20T08:00:43Z</time>
      </trkpt>
      <trkpt lat="43.4581580" lon="-5.5000480">
        <ele>50.0</ele>
        <time>2021-07-20T08:00:44Z</time>
      </trkpt>
      <trkpt lat="43.4581460" lon="-5.5000720">
        <ele>49.4</ele>
        <time>2021-07-20T08:00:45Z</time>
      </trkpt>
      <trkpt lat="43.4581410" lon="-5.5000980">
        <ele>48.8</ele>
        <time>2021-07-20T08:00:46Z</time>
      </trkpt>
      <trkpt lat="43.4581400" lon="-5.5001240">
        <ele>48.2</ele>
        <time>2021-07-20T08:00:47Z</time>
      </trkpt>
      <trkpt lat="43.4581450" lon="-5.5001510">
        <ele>48.2</ele>
        <time>2021-07-20T08:00:48Z</time>
      </trkpt>
      <trkpt lat="43.4581750" lon="-5.5002010">
        <ele>48.2</ele>
        <time>2021-07-20T08:00:50Z</time>
      </trkpt>
      <trkpt lat="43.4581950" lon="-5.5002240">
        <ele>48.2</ele>
        <time>2021-07-20T08:00:51Z</time>
      </trkpt>
      <trkpt lat="43.4582430" lon="-5.5002700">
        <ele>48.2</ele>
        <time>2021-07-20T08:00:53Z</time>
      </trkpt>
      <trkpt lat="43.4582670" lon="-5.5002930">
        <ele>48.2</ele>
        <time>2021-07-20T08:00:54Z</time>
      </trkpt>
      <trkpt lat="43.4583370" lon="-5.5003550">
        <ele>48.2</ele>
        <time>2021-07-20T08:00:57Z</time>
      </trkpt>
      <trkpt lat="43.4584050" lon="-5.5004160">
        <ele>48.2</ele>
        <time>2021-07-20T08:01:00Z</time>
      </trkpt>
      <trkpt lat="43.4584690" lon="-5.5004810">
        <ele>48.2</ele>
        <time>2021-07-20T08:01:03Z</time>
      </trkpt>
      <trkpt lat="43.4585310" lon="-5.5005490">
        <ele>48.2</ele>
        <time>2021-07-20T08:01:06Z</time>
      </trkpt>
      <trkpt lat="43.4585730" lon="-5.5005980">
        <ele>48.2</ele>
        <time>2021-07-20T08:01:08Z</time>
      </trkpt>
      <trkpt lat="43.4586890" lon="-5.5007250">
        <ele>48.6</ele>
        <time>2021-07-20T08:01:14Z</time>
      </trkpt>
      <trkpt lat="43.4587110" lon="-5.5007440">
        <ele>49.0</ele>
        <time>2021-07-20T08:01:15Z</time>
      </trkpt>
      <trkpt lat="43.4587290" lon="-5.5007720">
        <ele>49.4</ele>
        <time>2021-07-20T08:01:16Z</time>
      </trkpt>
      <trkpt lat="43.4587480" lon="-5.5007950">
        <ele>50.2</ele>
        <time>2021-07-20T08:01:17Z</time>
      </trkpt>
      <trkpt lat="43.4588610" lon="-5.5009500">
        <ele>50.2</ele>
        <time>2021-07-20T08:01:24Z</time>
      </trkpt>
      <trkpt lat="43.4589250" lon="-5.5010210">
        <ele>50.6</ele>
        <time>2021-07-20T08:01:28Z</time>
      </trkpt>
      <trkpt lat="43.4589430" lon="-5.5010400">
        <ele>51.2</ele>
        <time>2021-07-20T08:01:29Z</time>
      </trkpt>
      <trkpt lat="43.4589590" lon="-5.5010560">
        <ele>51.6</ele>
        <time>2021-07-20T08:01:30Z</time>
      </trkpt>
      <trkpt lat="43.4589720" lon="-5.5010710">
        <ele>52.0</ele>
        <time>2021-07-20T08:01:31Z</time>
      </trkpt>
      <trkpt lat="43.4589830" lon="-5.5010860">
        <ele>52.4</ele>
        <time>2021-07-20T08:01:32Z</time>
      </trkpt>
      <trkpt lat="43.4590630" lon="-5.5011570">
        <ele>52.8</ele>
        <time>2021-07-20T08:01:38Z</time>
      </trkpt>
      <trkpt lat="43.4590740" lon="-5.5011690">
        <ele>53.2</ele>
        <time>2021-07-20T08:01:39Z</time>
      </trkpt>
      <trkpt lat="43.4590860" lon="-5.5011800">
        <ele>53.6</ele>
        <time>2021-07-20T08:01:40Z</time>
      </trkpt>
      <trkpt lat="43.4590980" lon="-5.5011910">
        <ele>54.0</ele>
        <time>2021-07-20T08:01:41Z</time>
      </trkpt>
      <trkpt lat="43.4591110" lon="-5.5012010">
        <ele>54.4</ele>
        <time>2021-07-20T08:01:42Z</time>
      </trkpt>
      <trkpt lat="43.4591760" lon="-5.5012460">
        <ele>54.8</ele>
        <time>2021-07-20T08:01:47Z</time>
      </trkpt>
      <trkpt lat="43.4591890" lon="-5.5012590">
        <ele>55.2</ele>
        <time>2021-07-20T08:01:48Z</time>
      </trkpt>
      <trkpt lat="43.4592040" lon="-5.5012740">
        <ele>55.8</ele>
        <time>2021-07-20T08:01:49Z</time>
      </trkpt>
      <trkpt lat="43.4592160" lon="-5.5012930">
        <ele>56.2</ele>
        <time>2021-07-20T08:01:50Z</time>
      </trkpt>
      <trkpt lat="43.4592280" lon="-5.5013090">
        <ele>56.6</ele>
        <time>2021-07-20T08:01:51Z</time>
      </trkpt>
      <trkpt lat="43.4592820" lon="-5.5013890">
        <ele>56.6</ele>
        <time>2021-07-20T08:01:56Z</time>
      </trkpt>
      <trkpt lat="43.4593290" lon="-5.5014490">
        <ele>57.0</ele>
        <time>2021-07-20T08:02:00Z</time>
      </trkpt>
      <trkpt lat="43.4593390" lon="-5.5014670">
        <ele>57.4</ele>
        <time>2021-07-20T08:02:01Z</time>
      </trkpt>
      <trkpt lat="43.4593510" lon="-5.5014810">
        <ele>57.8</ele>
        <time>2021-07-20T08:02:02Z</time>
      </trkpt>
      <trkpt lat="43.4593610" lon="-5.5014940">
        <ele>58.2</ele>
        <time>2021-07-20T08:02:03Z</time>
      </trkpt>
      <trkpt lat="43.4593740" lon="-5.5015060">
        <ele>58.8</ele>
        <time>2021-07-20T08:02:04Z</time>
      </trkpt>
      <trkpt lat="43.4593980" lon="-5.5015320">
        <ele>58.8</ele>
        <time>2021-07-20T08:02:06Z</time>
      </trkpt>
      <trkpt lat="43.4595010" lon="-5.5016410">
        <ele>59.2</ele>
        <time>2021-07-20T08:02:14Z</time>
      </trkpt>
      <trkpt lat="43.4595150" lon="-5.5016530">
        <ele>59.6</ele>
        <time>2021-07-20T08:02:15Z</time>
      </trkpt>
      <trkpt lat="43.4595290" lon="-5.5016630">
        <ele>60.0</ele>
        <time>2021-07-20T08:02:16Z</time>
      </trkpt>
      <trkpt lat="43.4595440" lon="-5.5016700">
        <ele>60.4</ele>
        <time>2021-07-20T08:02:17Z</time>
      </trkpt>
      <trkpt lat="43.4595610" lon="-5.5016700">
        <ele>60.8</ele>
        <time>2021-07-20T08:02:18Z</time>
      </trkpt>
      <trkpt lat="43.4596070" lon="-5.5016600">
        <ele>60.8</ele>
        <time>2021-07-20T08:02:21Z</time>
      </trkpt>
      <trkpt lat="43.4597050" lon="-5.5016280">
        <ele>61.4</ele>
        <time>2021-07-20T08:02:27Z</time>
      </trkpt>
      <trkpt lat="43.4597180" lon="-5.5016120">
        <ele>61.8</ele>
        <time>2021-07-20T08:02:28Z</time>
      </trkpt>
      <trkpt lat="43.4597320" lon="-5.5015900">
        <ele>62.2</ele>
        <time>2021-07-20T08:02:29Z</time>
      </trkpt>
      <trkpt lat="43.4597440" lon="-5.5015720">
        <ele>62.6</ele>
        <time>2021-07-20T08:02:30Z</time>
      </trkpt>
      <trkpt lat="43.4597550" lon="-5.5015560">
        <ele>63.0</ele>
        <time>2021-07-20T08:02:31Z</time>
      </trkpt>
      <trkpt lat="43.4597850" lon="-5.5015080">
        <ele>63.0</ele>
        <time>2021-07-20T08:02:34Z</time>
      </trkpt>
      <trkpt lat="43.4598090" lon="-5.5014620">
        <ele>63.4</ele>
        <time>2021-07-20T08:02:37Z</time>
      </trkpt>
      <trkpt lat="43.4598130" lon="-5.5014410">
        <ele>63.8</ele>
        <time>2021-07-20T08:02:38Z</time>
      </trkpt>
      <trkpt lat="43.4598190" lon="-5.5014190">
        <ele>64.2</ele>
        <time>2021-07-20T08:02:39Z</time>
      </trkpt>
      <trkpt lat="43.4598240" lon="-5.5013980">
        <ele>64.6</ele>
        <time>2021-07-20T08:02:40Z</time>
      </trkpt>
      <trkpt lat="43.4598290" lon="-5.5013790">
        <ele>65.0</ele>
        <time>2021-07-20T08:02:41Z</time>
      </trkpt>
      <trkpt lat="43.4598940" lon="-5.5012360">
        <ele>65.0</ele>
        <time>2021-07-20T08:02:49Z</time>
      </trkpt>
      <trkpt lat="43.4598970" lon="-5.5012190">
        <ele>65.4</ele>
        <time>2021-07-20T08:02:50Z</time>
      </trkpt>
      <trkpt lat="43.4599010" lon="-5.5012010">
        <ele>66.0</ele>
        <time>2021-07-20T08:02:51Z</time>
      </trkpt>
      <trkpt lat="43.4599070" lon="-5.5011780">
        <ele>66.4</ele>
        <time>2021-07-20T08:02:52Z</time>
      </trkpt>
      <trkpt lat="43.4599130" lon="-5.5011560">
        <ele>66.8</ele>
        <time>2021-07-20T08:02:53Z</time>
      </trkpt>
      <trkpt lat="43.4599200" lon="-5.5011350">
        <ele>67.2</ele>
        <time>2021-07-20T08:02:54Z</time>
      </trkpt>
      <trkpt lat="43.4599290" lon="-5.5011140">
        <ele>67.2</ele>
        <time>2021-07-20T08:02:55Z</time>
      </trkpt>
      <trkpt lat="43.4599730" lon="-5.5010060">
        <ele>67.6</ele>
        <time>2021-07-20T08:03:01Z</time>
      </trkpt>
      <trkpt lat="43.4599790" lon="-5.5009890">
        <ele>68.0</ele>
        <time>2021-07-20T08:03:02Z</time>
      </trkpt>
      <trkpt lat="43.4599850" lon="-5.5009700">
        <ele>68.6</ele>
        <time>2021-07-20T08:03:03Z</time>
      </trkpt>
      <trkpt lat="43.4599930" lon="-5.5009490">
        <ele>69.0</ele>
        <time>2021-07-20T08:03:04Z</time>
      </trkpt>
      <trkpt lat="43.4600000" lon="-5.5009300">
        <ele>69.4</ele>
        <time>2021-07-20T08:03:05Z</time>
      </trkpt>
      <trkpt lat="43.4600340" lon="-5.5008280">
        <ele>69.4</ele>
        <time>2021-07-20T08:03:11Z</time>
      </trkpt>
      <trkpt lat="43.4600390" lon="-5.5008020">
        <ele>69.8</ele>
        <time>2021-07-20T08:03:13Z</time>
      </trkpt>
      <trkpt lat="43.4600420" lon="-5.5007860">
        <ele>70.2</ele>
        <time>2021-07-20T08:03:14Z</time>
      </trkpt>
      <trkpt lat="43.4600450" lon="-5.5007680">
        <ele>70.6</ele>
        <time>2021-07-20T08:03:15Z</time>
      </trkpt>
      <trkpt lat="43.4600490" lon="-5.5007500">
        <ele>71.0</ele>
        <time>2021-07-20T08:03:16Z</time>
      </trkpt>
      <trkpt lat="43.4600550" lon="-5.5007300">
        <ele>71.4</ele>
        <time>2021-07-20T08:03:17Z</time>
      </trkpt>
      <trkpt lat="43.4600790" lon="-5.5006860">
        <ele>71.4</ele>
        <time>2021-07-20T08:03:19Z</time>
      </trkpt>
      <trkpt lat="43.4601510" lon="-5.5005890">
        <ele>72.0</ele>
        <time>2021-07-20T08:03:25Z</time>
      </trkpt>
      <trkpt lat="43.4601590" lon="-5.5005750">
        <ele>72.4</ele>
        <time>2021-07-20T08:03:26Z</time>
      </trkpt>
      <trkpt lat="43.4601650" lon="-5.5005620">
        <ele>72.8</ele>
        <time>2021-07-20T08:03:27Z</time>
      </trkpt>
      <trkpt lat="43.4601700" lon="-5.5005530">
        <ele>73.2</ele>
        <time>2021-07-20T08:03:28Z</time>
      </trkpt>
      <trkpt lat="43.4601760" lon="-5.5005400">
        <ele>73.6</ele>
        <time>2021-07-20T08:03:29Z</time>
      </trkpt>
      <trkpt lat="43.4602290" lon="-5.5004640">
        <ele>73.6</ele>
        <time>2021-07-20T08:03:33Z</time>
      </trkpt>
      <trkpt lat="43.4603110" lon="-5.5003050">
        <ele>74.2</ele>
        <time>2021-07-20T08:03:41Z</time>
      </trkpt>
      <trkpt lat="43.4603210" lon="-5.5002860">
        <ele>74.6</ele>
        <time>2021-07-20T08:03:42Z</time>
      </trkpt>
      <trkpt lat="43.4603310" lon="-5.5002660">
        <ele>75.0</ele>
        <time>2021-07-20T08:03:43Z</time>
      </trkpt>
      <trkpt lat="43.4603390" lon="-5.5002460">
        <ele>75.4</ele>
        <time>2021-07-20T08:03:44Z</time>
      </trkpt>
      <trkpt lat="43.4603480" lon="-5.5002230">
        <ele>75.8</ele>
        <time>2021-07-20T08:03:45Z</time>
      </trkpt>
      <trkpt lat="43.4603850" lon="-5.5001400">
        <ele>75.8</ele>
        <time>2021-07-20T08:03:49Z</time>
      </trkpt>
      <trkpt lat="43.4604130" lon="-5.5000790">
        <ele>75.8</ele>
        <time>2021-07-20T08:03:52Z</time>
      </trkpt>
      <trkpt lat="43.4604440" lon="-5.4999950">
        <ele>76.2</ele>
        <time>2021-07-20T08:03:56Z</time>
      </trkpt>
      <trkpt lat="43.4604480" lon="-5.4999760">
        <ele>76.6</ele>
        <time>2021-07-20T08:03:57Z</time>
      </trkpt>
      <trkpt lat="43.4604530" lon="-5.4999630">
        <ele>77.0</ele>
        <time>2021-07-20T08:03:58Z</time>
      </trkpt>
      <trkpt lat="43.4604570" lon="-5.4999440">
        <ele>77.4</ele>
        <time>2021-07-20T08:03:59Z</time>
      </trkpt>
      <trkpt lat="43.4604630" lon="-5.4999230">
        <ele>77.8</ele>
        <time>2021-07-20T08:04:00Z</time>
      </trkpt>
      <trkpt lat="43.4604760" lon="-5.4998800">
        <ele>77.8</ele>
        <time>2021-07-20T08:04:02Z</time>
      </trkpt>
      <trkpt lat="43.4604980" lon="-5.4997550">
        <ele>77.8</ele>
        <time>2021-07-20T08:04:08Z</time>
      </trkpt>
      <trkpt lat="43.4605050" lon="-5.4997180">
        <ele>78.2</ele>
        <time>2021-07-20T08:04:10Z</time>
      </trkpt>
      <trkpt lat="43.4605090" lon="-5.4997020">
        <ele>78.6</ele>
        <time>2021-07-20T08:04:11Z</time>
      </trkpt>
      <trkpt lat="43.4605110" lon="-5.4996870">
        <ele>79.0</ele>
        <time>2021-07-20T08:04:12Z</time>
      </trkpt>
      <trkpt lat="43.4605140" lon="-5.4996710">
        <ele>79.4</ele>
        <time>2021-07-20T08:04:13Z</time>
      </trkpt>
      <trkpt lat="43.4605200" lon="-5.4996510">
        <ele>79.8</ele>
        <time>2021-07-20T08:04:14Z</time>
      </trkpt>
      <trkpt lat="43.4605270" lon="-5.4996300">
        <ele>79.8</ele>
        <time>2021-07-20T08:04:15Z</time>
      </trkpt>
      <trkpt lat="43.4605840" lon="-5.4994310">
        <ele>79.8</ele>
        <time>2021-07-20T08:04:24Z</time>
      </trkpt>
      <trkpt lat="43.4605910" lon="-5.4994100">
        <ele>80.4</ele>
        <time>2021-07-20T08:04:25Z</time>
      </trkpt>
      <trkpt lat="43.4605970" lon="-5.4993890">
        <ele>80.8</ele>
        <time>2021-07-20T08:04:26Z</time>
      </trkpt>
      <trkpt lat="43.4606010" lon="-5.4993700">
        <ele>81.2</ele>
        <time>2021-07-20T08:04:27Z</time>
      </trkpt>
      <trkpt lat="43.4606040" lon="-5.4993540">
        <ele>81.6</ele>
        <time>2021-07-20T08:04:28Z</time>
      </trkpt>
      <trkpt lat="43.4606060" lon="-5.4993360">
        <ele>82.0</ele>
        <time>2021-07-20T08:04:29Z</time>
      </trkpt>
      <trkpt lat="43.4606060" lon="-5.4992780">
        <ele>82.0</ele>
        <time>2021-07-20T08:04:32Z</time>
      </trkpt>
      <trkpt lat="43.4606120" lon="-5.4991850">
        <ele>82.4</ele>
        <time>2021-07-20T08:04:37Z</time>
      </trkpt>
      <trkpt lat="43.4606120" lon="-5.4991650">
        <ele>83.0</ele>
        <time>2021-07-20T08:04:38Z</time>
      </trkpt>
      <trkpt lat="43.4606110" lon="-5.4991450">
        <ele>83.4</ele>
        <time>2021-07-20T08:04:39Z</time>
      </trkpt>
      <trkpt lat="43.4606060" lon="-5.4991240">
        <ele>83.8</ele>
        <time>2021-07-20T08:04:40Z</time>
      </trkpt>
      <trkpt lat="43.4606040" lon="-5.4991010">
        <ele>84.2</ele>
        <time>2021-07-20T08:04:41Z</time>
      </trkpt>
      <trkpt lat="43.4605860" lon="-5.4989590">
        <ele>84.2</ele>
        <time>2021-07-20T08:04:47Z</time>
      </trkpt>
      <trkpt lat="43.4606200" lon="-5.4987320">
        <ele>84.2</ele>
        <time>2021-07-20T08:04:55Z</time>
      </trkpt>
      <trkpt lat="43.4606400" lon="-5.4986730">
        <ele>84.6</ele>
        <time>2021-07-20T08:04:57Z</time>
      </trkpt>
      <trkpt lat="43.4606570" lon="-5.4986440">
        <ele>85.0</ele>
        <time>2021-07-20T08:04:58Z</time>
      </trkpt>
      <trkpt lat="43.4606720" lon="-5.4986120">
        <ele>85.8</ele>
        <time>2021-07-20T08:04:59Z</time>
      </trkpt>
      <trkpt lat="43.4606870" lon="-5.4985830">
        <ele>86.2</ele>
        <time>2021-07-20T08:05:00Z</time>
      </trkpt>
      <trkpt lat="43.4607290" lon="-5.4985020">
        <ele>86.2</ele>
        <time>2021-07-20T08:05:03Z</time>
      </trkpt>
      <trkpt lat="43.4608310" lon="-5.4983530">
        <ele>86.2</ele>
        <time>2021-07-20T08:05:10Z</time>
      </trkpt>
      <trkpt lat="43.4609030" lon="-5.4983050">
        <ele>86.6</ele>
        <time>2021-07-20T08:05:15Z</time>
      </trkpt>
      <trkpt lat="43.4609160" lon="-5.4982990">
        <ele>87.2</ele>
        <time>2021-07-20T08:05:16Z</time>
      </trkpt>
      <trkpt lat="43.4609300" lon="-5.4983000">
        <ele>87.6</ele>
        <time>2021-07-20T08:05:17Z</time>
      </trkpt>
      <trkpt lat="43.4609460" lon="-5.4983040">
        <ele>88.0</ele>
        <time>2021-07-20T08:05:18Z</time>
      </trkpt>
      <trkpt lat="43.4609620" lon="-5.4983070">
        <ele>88.4</ele>
        <time>2021-07-20T08:05:19Z</time>
      </trkpt>
      <trkpt lat="43.4610110" lon="-5.4983250">
        <ele>88.4</ele>
        <time>2021-07-20T08:05:22Z</time>
      </trkpt>
      <trkpt lat="43.4611120" lon="-5.4983720">
        <ele>88.8</ele>
        <time>2021-07-20T08:05:28Z</time>
      </trkpt>
      <trkpt lat="43.4611270" lon="-5.4983820">
        <ele>89.2</ele>
        <time>2021-07-20T08:05:29Z</time>
      </trkpt>
      <trkpt lat="43.4611460" lon="-5.4983920">
        <ele>89.6</ele>
        <time>2021-07-20T08:05:30Z</time>
      </trkpt>
      <trkpt lat="43.4611590" lon="-5.4984040">
        <ele>90.0</ele>
        <time>2021-07-20T08:05:31Z</time>
      </trkpt>
      <trkpt lat="43.4611710" lon="-5.4984100">
        <ele>90.4</ele>
        <time>2021-07-20T08:05:32Z</time>
      </trkpt>
      <trkpt lat="43.4613250" lon="-5.4984940">
        <ele>90.4</ele>
        <time>2021-07-20T08:05:41Z</time>
      </trkpt>
      <trkpt lat="43.4613580" lon="-5.4985110">
        <ele>90.8</ele>
        <time>2021-07-20T08:05:43Z</time>
      </trkpt>
      <trkpt lat="43.4613730" lon="-5.4985180">
        <ele>91.4</ele>
        <time>2021-07-20T08:05:44Z</time>
      </trkpt>
      <trkpt lat="43.4613890" lon="-5.4985270">
        <ele>91.8</ele>
        <time>2021-07-20T08:05:45Z</time>
      </trkpt>
      <trkpt lat="43.4614070" lon="-5.4985350">
        <ele>92.2</ele>
        <time>2021-07-20T08:05:46Z</time>
      </trkpt>
      <trkpt lat="43.4614230" lon="-5.4985470">
        <ele>92.6</ele>
        <time>2021-07-20T08:05:47Z</time>
      </trkpt>
      <trkpt lat="43.4614590" lon="-5.4985620">
        <ele>92.6</ele>
        <time>2021-07-20T08:05:49Z</time>
      </trkpt>
      <trkpt lat="43.4615990" lon="-5.4986460">
        <ele>92.6</ele>
        <time>2021-07-20T08:05:58Z</time>
      </trkpt>
      <trkpt lat="43.4616140" lon="-5.4986590">
        <ele>93.0</ele>
        <time>2021-07-20T08:05:59Z</time>
      </trkpt>
      <trkpt lat="43.4616310" lon="-5.4986730">
        <ele>93.4</ele>
        <time>2021-07-20T08:06:00Z</time>
      </trkpt>
      <trkpt lat="43.4616480" lon="-5.4986840">
        <ele>93.8</ele>
        <time>2021-07-20T08:06:01Z</time>
      </trkpt>
      <trkpt lat="43.4616620" lon="-5.4986950">
        <ele>94.2</ele>
        <time>2021-07-20T08:06:02Z</time>
      </trkpt>
      <trkpt lat="43.4616770" lon="-5.4987070">
        <ele>94.6</ele>
        <time>2021-07-20T08:06:03Z</time>
      </trkpt>
      <trkpt lat="43.4617200" lon="-5.4987750">
        <ele>94.6</ele>
        <time>2021-07-20T08:06:07Z</time>
      </trkpt>
      <trkpt lat="43.4617720" lon="-5.4989010">
        <ele>95.4</ele>
        <time>2021-07-20T08:06:13Z</time>
      </trkpt>
      <trkpt lat="43.4617780" lon="-5.4989240">
        <ele>95.8</ele>
        <time>2021-07-20T08:06:14Z</time>
      </trkpt>
      <trkpt lat="43.4617860" lon="-5.4989470">
        <ele>96.4</ele>
        <time>2021-07-20T08:06:15Z</time>
      </trkpt>
      <trkpt lat="43.4617940" lon="-5.4989690">
        <ele>96.8</ele>
        <time>2021-07-20T08:06:16Z</time>
      </trkpt>
      <trkpt lat="43.4618340" lon="-5.4991240">
        <ele>96.8</ele>
        <time>2021-07-20T08:06:23Z</time>
      </trkpt>
      <trkpt lat="43.4618430" lon="-5.4991730">
        <ele>97.2</ele>
        <time>2021-07-20T08:06:25Z</time>
      </trkpt>
      <trkpt lat="43.4618440" lon="-5.4991970">
        <ele>97.6</ele>
        <time>2021-07-20T08:06:26Z</time>
      </trkpt>
      <trkpt lat="43.4618440" lon="-5.4992190">
        <ele>98.0</ele>
        <time>2021-07-20T08:06:27Z</time>
      </trkpt>
      <trkpt lat="43.4618490" lon="-5.4992420">
        <ele>98.4</ele>
        <time>2021-07-20T08:06:28Z</time>
      </trkpt>
      <trkpt lat="43.4618500" lon="-5.4992670">
        <ele>98.8</ele>
        <time>2021-07-20T08:06:29Z</time>
      </trkpt>
      <trkpt lat="43.4618600" lon="-5.4993170">
        <ele>98.8</ele>
        <time>2021-07-20T08:06:31Z</time>
      </trkpt>
      <trkpt lat="43.4619400" lon="-5.4994530">
        <ele>98.8</ele>
        <time>2021-07-20T08:06:38Z</time>
      </trkpt>
      <trkpt lat="43.4620040" lon="-5.4995310">
        <ele>99.2</ele>
        <time>2021-07-20T08:06:42Z</time>
      </trkpt>
      <trkpt lat="43.4620200" lon="-5.4995500">
        <ele>99.6</ele>
        <time>2021-07-20T08:06:43Z</time>
      </trkpt>
      <trkpt lat="43.4620370" lon="-5.4995670">
        <ele>100.0</ele>
        <time>2021-07-20T08:06:44Z</time>
      </trkpt>
      <trkpt lat="43.4620530" lon="-5.4995860">
        <ele>100.4</ele>
        <time>2021-07-20T08:06:45Z</time>
      </trkpt>
      <trkpt lat="43.4620710" lon="-5.4996050">
        <ele>100.8</ele>
        <time>2021-07-20T08:06:46Z</time>
      </trkpt>
      <trkpt lat="43.4621860" lon="-5.4997080">
        <ele>100.8</ele>
        <time>2021-07-20T08:06:52Z</time>
      </trkpt>
      <trkpt lat="43.4623170" lon="-5.4998330">
        <ele>100.8</ele>
        <time>2021-07-20T08:06:59Z</time>
      </trkpt>
      <trkpt lat="43.4624270" lon="-5.4999810">
        <ele>101.2</ele>
        <time>2021-07-20T08:07:06Z</time>
      </trkpt>
      <trkpt lat="43.4624400" lon="-5.5000030">
        <ele>101.6</ele>
        <time>2021-07-20T08:07:07Z</time>
      </trkpt>
      <trkpt lat="43.4624540" lon="-5.5000260">
        <ele>102.0</ele>
        <time>2021-07-20T08:07:08Z</time>
      </trkpt>
      <trkpt lat="43.4624700" lon="-5.5000500">
        <ele>102.4</ele>
        <time>2021-07-20T08:07:09Z</time>
      </trkpt>
      <trkpt lat="43.4624870" lon="-5.5000740">
        <ele>102.8</ele>
        <time>2021-07-20T08:07:10Z</time>
      </trkpt>
      <trkpt lat="43.4625570" lon="-5.5001660">
        <ele>102.8</ele>
        <time>2021-07-20T08:07:14Z</time>
      </trkpt>
      <trkpt lat="43.4625760" lon="-5.5001830">
        <ele>102.8</ele>
        <time>2021-07-20T08:07:15Z</time>
      </trkpt>
      <trkpt lat="43.4627220" lon="-5.5002980">
        <ele>102.8</ele>
        <time>2021-07-20T08:07:22Z</time>
      </trkpt>
      <trkpt lat="43.4629070" lon="-5.5003570">
        <ele>103.2</ele>
        <time>2021-07-20T08:07:30Z</time>
      </trkpt>
      <trkpt lat="43.4629320" lon="-5.5003640">
        <ele>103.6</ele>
        <time>2021-07-20T08:07:31Z</time>
      </trkpt>
      <trkpt lat="43.4629540" lon="-5.5003720">
        <ele>104.0</ele>
        <time>2021-07-20T08:07:32Z</time>
      </trkpt>
      <trkpt lat="43.4629770" lon="-5.5003820">
        <ele>104.4</ele>
        <time>2021-07-20T08:07:33Z</time>
      </trkpt>
      <trkpt lat="43.4630010" lon="-5.5003910">
        <ele>104.8</ele>
        <time>2021-07-20T08:07:34Z</time>
      </trkpt>
      <trkpt lat="43.4631190" lon="-5.5004360">
        <ele>104.8</ele>
        <time>2021-07-20T08:07:39Z</time>
      </trkpt>
      <trkpt lat="43.4632570" lon="-5.5005200">
        <ele>104.8</ele>
        <time>2021-07-20T08:07:46Z</time>
      </trkpt>
      <trkpt lat="43.4633620" lon="-5.5006380">
        <ele>105.4</ele>
        <time>2021-07-20T08:07:52Z</time>
      </trkpt>
      <trkpt lat="43.4633760" lon="-5.5006570">
        <ele>105.8</ele>
        <time>2021-07-20T08:07:53Z</time>
      </trkpt>
      <trkpt lat="43.4633900" lon="-5.5006750">
        <ele>106.4</ele>
        <time>2021-07-20T08:07:54Z</time>
      </trkpt>
      <trkpt lat="43.4634000" lon="-5.5006930">
        <ele>106.8</ele>
        <time>2021-07-20T08:07:55Z</time>
      </trkpt>
      <trkpt lat="43.4634120" lon="-5.5007100">
        <ele>107.2</ele>
        <time>2021-07-20T08:07:56Z</time>
      </trkpt>
      <trkpt lat="43.4634740" lon="-5.5008010">
        <ele>107.2</ele>
        <time>2021-07-20T08:08:01Z</time>
      </trkpt>
      <trkpt lat="43.4635270" lon="-5.5008630">
        <ele>107.8</ele>
        <time>2021-07-20T08:08:05Z</time>
      </trkpt>
      <trkpt lat="43.4635390" lon="-5.5008780">
        <ele>108.2</ele>
        <time>2021-07-20T08:08:06Z</time>
      </trkpt>
      <trkpt lat="43.4635520" lon="-5.5008950">
        <ele>108.6</ele>
        <time>2021-07-20T08:08:07Z</time>
      </trkpt>
      <trkpt lat="43.4635650" lon="-5.5009140">
        <ele>109.0</ele>
        <time>2021-07-20T08:08:08Z</time>
      </trkpt>
      <trkpt lat="43.4635790" lon="-5.5009280">
        <ele>109.4</ele>
        <time>2021-07-20T08:08:09Z</time>
      </trkpt>
      <trkpt lat="43.4636660" lon="-5.5010520">
        <ele>109.4</ele>
        <time>2021-07-20T08:08:16Z</time>
      </trkpt>
      <trkpt lat="43.4637030" lon="-5.5011060">
        <ele>109.8</ele>
        <time>2021-07-20T08:08:19Z</time>
      </trkpt>
      <trkpt lat="43.4637140" lon="-5.5011250">
        <ele>110.2</ele>
        <time>2021-07-20T08:08:20Z</time>
      </trkpt>
      <trkpt lat="43.4637290" lon="-5.5011440">
        <ele>110.6</ele>
        <time>2021-07-20T08:08:21Z</time>
      </trkpt>
      <trkpt lat="43.4637430" lon="-5.5011610">
        <ele>111.0</ele>
        <time>2021-07-20T08:08:22Z</time>
      </trkpt>
      <trkpt lat="43.4637570" lon="-5.5011800">
        <ele>111.4</ele>
        <time>2021-07-20T08:08:23Z</time>
      </trkpt>
      <trkpt lat="43.4637820" lon="-5.5012190">
        <ele>111.4</ele>
        <time>2021-07-20T08:08:25Z</time>
      </trkpt>
      <trkpt lat="43.4638800" lon="-5.5013590">
        <ele>111.8</ele>
        <time>2021-07-20T08:08:33Z</time>
      </trkpt>
      <trkpt lat="43.4638910" lon="-5.5013760">
        <ele>112.2</ele>
        <time>2021-07-20T08:08:34Z</time>
      </trkpt>
      <trkpt lat="43.4639040" lon="-5.5013940">
        <ele>112.6</ele>
        <time>2021-07-20T08:08:35Z</time>
      </trkpt>
      <trkpt lat="43.4639180" lon="-5.5014110">
        <ele>113.0</ele>
        <time>2021-07-20T08:08:36Z</time>
      </trkpt>
      <trkpt lat="43.4639300" lon="-5.5014280">
        <ele>113.4</ele>
        <time>2021-07-20T08:08:37Z</time>
      </trkpt>
      <trkpt lat="43.4640050" lon="-5.5015410">
        <ele>113.8</ele>
        <time>2021-07-20T08:08:44Z</time>
      </trkpt>
      <trkpt lat="43.4640180" lon="-5.5015610">
        <ele>114.2</ele>
        <time>2021-07-20T08:08:45Z</time>
      </trkpt>
      <trkpt lat="43.4640310" lon="-5.5015790">
        <ele>114.6</ele>
        <time>2021-07-20T08:08:46Z</time>
      </trkpt>
      <trkpt lat="43.4640430" lon="-5.5015930">
        <ele>115.0</ele>
        <time>2021-07-20T08:08:47Z</time>
      </trkpt>
      <trkpt lat="43.4640560" lon="-5.5016060">
        <ele>115.4</ele>
        <time>2021-07-20T08:08:48Z</time>
      </trkpt>
      <trkpt lat="43.4640970" lon="-5.5016730">
        <ele>115.4</ele>
        <time>2021-07-20T08:08:52Z</time>
      </trkpt>
      <trkpt lat="43.4641700" lon="-5.5017730">
        <ele>116.0</ele>
        <time>2021-07-20T08:08:58Z</time>
      </trkpt>
      <trkpt lat="43.4641840" lon="-5.5017890">
        <ele>116.4</ele>
        <time>2021-07-20T08:08:59Z</time>
      </trkpt>
      <trkpt lat="43.4641980" lon="-5.5018030">
        <ele>116.8</ele>
        <time>2021-07-20T08:09:00Z</time>
      </trkpt>
      <trkpt lat="43.4642110" lon="-5.5018210">
        <ele>117.2</ele>
        <time>2021-07-20T08:09:01Z</time>
      </trkpt>
      <trkpt lat="43.4642220" lon="-5.5018400">
        <ele>117.6</ele>
        <time>2021-07-20T08:09:02Z</time>
      </trkpt>
      <trkpt lat="43.4643140" lon="-5.5019570">
        <ele>117.6</ele>
        <time>2021-07-20T08:09:09Z</time>
      </trkpt>
      <trkpt lat="43.4643660" lon="-5.5020210">
        <ele>118.0</ele>
        <time>2021-07-20T08:09:13Z</time>
      </trkpt>
      <trkpt lat="43.4643760" lon="-5.5020390">
        <ele>118.4</ele>
        <time>2021-07-20T08:09:14Z</time>
      </trkpt>
      <trkpt lat="43.4643880" lon="-5.5020590">
        <ele>118.8</ele>
        <time>2021-07-20T08:09:15Z</time>
      </trkpt>
      <trkpt lat="43.4644020" lon="-5.5020800">
        <ele>119.2</ele>
        <time>2021-07-20T08:09:16Z</time>
      </trkpt>
      <trkpt lat="43.4644140" lon="-5.5020980">
        <ele>119.6</ele>
        <time>2021-07-20T08:09:17Z</time>
      </trkpt>
      <trkpt lat="43.4644300" lon="-5.5021210">
        <ele>119.6</ele>
        <time>2021-07-20T08:09:20Z</time>
      </trkpt>
      <trkpt lat="43.4644360" lon="-5.5021190">
        <ele>119.6</ele>
        <time>2021-07-20T08:09:41Z</time>
      </trkpt>
      <trkpt lat="43.4644700" lon="-5.5021570">
        <ele>119.6</ele>
        <time>2021-07-20T08:09:45Z</time>
      </trkpt>
      <trkpt lat="43.4644800" lon="-5.5021580">
        <ele>119.6</ele>
        <time>2021-07-20T08:09:46Z</time>
      </trkpt>
      <trkpt lat="43.4644840" lon="-5.5021560">
        <ele>119.6</ele>
        <time>2021-07-20T08:09:47Z</time>
      </trkpt>
      <trkpt lat="43.4644890" lon="-5.5021620">
        <ele>119.6</ele>
        <time>2021-07-20T08:09:48Z</time>
      </trkpt>
      <trkpt lat="43.4645120" lon="-5.5021860">
        <ele>119.6</ele>
        <time>2021-07-20T08:17:42Z</time>
      </trkpt>
      <trkpt lat="43.4645180" lon="-5.5022070">
        <ele>119.6</ele>
        <time>2021-07-20T08:17:43Z</time>
      </trkpt>
      <trkpt lat="43.4645240" lon="-5.5022270">
        <ele>119.6</ele>
        <time>2021-07-20T08:17:44Z</time>
      </trkpt>
      <trkpt lat="43.4645730" lon="-5.5023330">
        <ele>119.6</ele>
        <time>2021-07-20T08:17:48Z</time>
      </trkpt>
      <trkpt lat="43.4646250" lon="-5.5024240">
        <ele>119.6</ele>
        <time>2021-07-20T08:17:52Z</time>
      </trkpt>
      <trkpt lat="43.4646930" lon="-5.5025110">
        <ele>119.6</ele>
        <time>2021-07-20T08:17:56Z</time>
      </trkpt>
      <trkpt lat="43.4647270" lon="-5.5025370">
        <ele>119.6</ele>
        <time>2021-07-20T08:17:58Z</time>
      </trkpt>
      <trkpt lat="43.4648020" lon="-5.5025310">
        <ele>119.6</ele>
        <time>2021-07-20T08:18:01Z</time>
      </trkpt>
      <trkpt lat="43.4648840" lon="-5.5024000">
        <ele>119.6</ele>
        <time>2021-07-20T08:18:05Z</time>
      </trkpt>
      <trkpt lat="43.4649000" lon="-5.5023640">
        <ele>119.6</ele>
        <time>2021-07-20T08:18:06Z</time>
      </trkpt>
      <trkpt lat="43.4649590" lon="-5.5022640">
        <ele>119.6</ele>
        <time>2021-07-20T08:18:09Z</time>
      </trkpt>
      <trkpt lat="43.4650060" lon="-5.5021800">
        <ele>119.6</ele>
        <time>2021-07-20T08:18:12Z</time>
      </trkpt>
      <trkpt lat="43.4651130" lon="-5.5019550">
        <ele>119.6</ele>
        <time>2021-07-20T08:18:19Z</time>
      </trkpt>
      <trkpt lat="43.4652040" lon="-5.5018300">
        <ele>119.6</ele>
        <time>2021-07-20T08:18:23Z</time>
      </trkpt>
      <trkpt lat="43.4652790" lon="-5.5017940">
        <ele>119.6</ele>
        <time>2021-07-20T08:18:25Z</time>
      </trkpt>
      <trkpt lat="43.4653690" lon="-5.5017710">
        <ele>119.6</ele>
        <time>2021-07-20T08:18:27Z</time>
      </trkpt>
      <trkpt lat="43.4655240" lon="-5.5017730">
        <ele>119.6</ele>
        <time>2021-07-20T08:18:30Z</time>
      </trkpt>
      <trkpt lat="43.4657580" lon="-5.5018110">
        <ele>119.6</ele>
        <time>2021-07-20T08:18:34Z</time>
      </trkpt>
      <trkpt lat="43.4658180" lon="-5.5018210">
        <ele>118.8</ele>
        <time>2021-07-20T08:18:35Z</time>
      </trkpt>
      <trkpt lat="43.4658750" lon="-5.5018280">
        <ele>118.4</ele>
        <time>2021-07-20T08:18:36Z</time>
      </trkpt>
      <trkpt lat="43.4659300" lon="-5.5018340">
        <ele>118.0</ele>
        <time>2021-07-20T08:18:37Z</time>
      </trkpt>
      <trkpt lat="43.4659840" lon="-5.5018440">
        <ele>117.6</ele>
        <time>2021-07-20T08:18:38Z</time>
      </trkpt>
      <trkpt lat="43.4660920" lon="-5.5018560">
        <ele>117.0</ele>
        <time>2021-07-20T08:18:40Z</time>
      </trkpt>
      <trkpt lat="43.4661480" lon="-5.5018560">
        <ele>116.6</ele>
        <time>2021-07-20T08:18:41Z</time>
      </trkpt>
      <trkpt lat="43.4662110" lon="-5.5018470">
        <ele>116.0</ele>
        <time>2021-07-20T08:18:42Z</time>
      </trkpt>
      <trkpt lat="43.4662780" lon="-5.5018340">
        <ele>115.6</ele>
        <time>2021-07-20T08:18:43Z</time>
      </trkpt>
      <trkpt lat="43.4663550" lon="-5.5018030">
        <ele>115.2</ele>
        <time>2021-07-20T08:18:44Z</time>
      </trkpt>
      <trkpt lat="43.4664890" lon="-5.5017430">
        <ele>114.6</ele>
        <time>2021-07-20T08:18:46Z</time>
      </trkpt>
      <trkpt lat="43.4665490" lon="-5.5017070">
        <ele>114.2</ele>
        <time>2021-07-20T08:18:47Z</time>
      </trkpt>
      <trkpt lat="43.4666030" lon="-5.5016580">
        <ele>113.6</ele>
        <time>2021-07-20T08:18:48Z</time>
      </trkpt>
      <trkpt lat="43.4666470" lon="-5.5015940">
        <ele>113.0</ele>
        <time>2021-07-20T08:18:49Z</time>
      </trkpt>
      <trkpt lat="43.4666880" lon="-5.5015190">
        <ele>112.4</ele>
        <time>2021-07-20T08:18:50Z</time>
      </trkpt>
      <trkpt lat="43.4667160" lon="-5.5014450">
        <ele>111.8</ele>
        <time>2021-07-20T08:18:51Z</time>
      </trkpt>
      <trkpt lat="43.4667430" lon="-5.5013680">
        <ele>111.0</ele>
        <time>2021-07-20T08:18:52Z</time>
      </trkpt>
      <trkpt lat="43.4667730" lon="-5.5012910">
        <ele>110.4</ele>
        <time>2021-07-20T08:18:53Z</time>
      </trkpt>
      <trkpt lat="43.4668060" lon="-5.5012120">
        <ele>110.4</ele>
        <time>2021-07-20T08:18:54Z</time>
      </trkpt>
      <trkpt lat="43.4669050" lon="-5.5009710">
        <ele>110.4</ele>
        <time>2021-07-20T08:18:57Z</time>
      </trkpt>
      <trkpt lat="43.4669980" lon="-5.5007290">
        <ele>110.0</ele>
        <time>2021-07-20T08:19:00Z</time>
      </trkpt>
      <trkpt lat="43.4670270" lon="-5.5006490">
        <ele>109.6</ele>
        <time>2021-07-20T08:19:01Z</time>
      </trkpt>
      <trkpt lat="43.4670610" lon="-5.5005680">
        <ele>109.2</ele>
        <time>2021-07-20T08:19:02Z</time>
      </trkpt>
      <trkpt lat="43.4670930" lon="-5.5004870">
        <ele>108.8</ele>
        <time>2021-07-20T08:19:03Z</time>
      </trkpt>
      <trkpt lat="43.4671300" lon="-5.5004050">
        <ele>108.4</ele>
        <time>2021-07-20T08:19:04Z</time>
      </trkpt>
      <trkpt lat="43.4672800" lon="-5.5000660">
        <ele>108.4</ele>
        <time>2021-07-20T08:19:08Z</time>
      </trkpt>
      <trkpt lat="43.4673490" lon="-5.4998890">
        <ele>107.8</ele>
        <time>2021-07-20T08:19:10Z</time>
      </trkpt>
      <trkpt lat="43.4673880" lon="-5.4998030">
        <ele>107.4</ele>
        <time>2021-07-20T08:19:11Z</time>
      </trkpt>
      <trkpt lat="43.4674260" lon="-5.4997130">
        <ele>107.0</ele>
        <time>2021-07-20T08:19:12Z</time>
      </trkpt>
      <trkpt lat="43.4674640" lon="-5.4996230">
        <ele>106.6</ele>
        <time>2021-07-20T08:19:13Z</time>
      </trkpt>
      <trkpt lat="43.4675050" lon="-5.4995330">
        <ele>106.0</ele>
        <time>2021-07-20T08:19:14Z</time>
      </trkpt>
      <trkpt lat="43.4675610" lon="-5.4993290">
        <ele>106.0</ele>
        <time>2021-07-20T08:19:16Z</time>
      </trkpt>
      <trkpt lat="43.4675760" lon="-5.4992190">
        <ele>105.6</ele>
        <time>2021-07-20T08:19:17Z</time>
      </trkpt>
      <trkpt lat="43.4675740" lon="-5.4991020">
        <ele>105.2</ele>
        <time>2021-07-20T08:19:18Z</time>
      </trkpt>
      <trkpt lat="43.4675640" lon="-5.4989810">
        <ele>104.8</ele>
        <time>2021-07-20T08:19:19Z</time>
      </trkpt>
      <trkpt lat="43.4675620" lon="-5.4988570">
        <ele>104.4</ele>
        <time>2021-07-20T08:19:20Z</time>
      </trkpt>
      <trkpt lat="43.4675740" lon="-5.4987260">
        <ele>104.0</ele>
        <time>2021-07-20T08:19:21Z</time>
      </trkpt>
      <trkpt lat="43.4676360" lon="-5.4985030">
        <ele>104.0</ele>
        <time>2021-07-20T08:19:23Z</time>
      </trkpt>
      <trkpt lat="43.4676740" lon="-5.4983990">
        <ele>103.0</ele>
        <time>2021-07-20T08:19:24Z</time>
      </trkpt>
      <trkpt lat="43.4677120" lon="-5.4982970">
        <ele>102.6</ele>
        <time>2021-07-20T08:19:25Z</time>
      </trkpt>
      <trkpt lat="43.4677480" lon="-5.4981980">
        <ele>102.2</ele>
        <time>2021-07-20T08:19:26Z</time>
      </trkpt>
      <trkpt lat="43.4677770" lon="-5.4981000">
        <ele>101.6</ele>
        <time>2021-07-20T08:19:27Z</time>
      </trkpt>
      <trkpt lat="43.4678080" lon="-5.4980010">
        <ele>101.6</ele>
        <time>2021-07-20T08:19:28Z</time>
      </trkpt>
      <trkpt lat="43.4678890" lon="-5.4975710">
        <ele>101.6</ele>
        <time>2021-07-20T08:19:33Z</time>
      </trkpt>
      <trkpt lat="43.4679050" lon="-5.4974190">
        <ele>101.6</ele>
        <time>2021-07-20T08:19:35Z</time>
      </trkpt>
      <trkpt lat="43.4679460" lon="-5.4971560">
        <ele>101.6</ele>
        <time>2021-07-20T08:19:39Z</time>
      </trkpt>
      <trkpt lat="43.4679820" lon="-5.4969270">
        <ele>101.2</ele>
        <time>2021-07-20T08:19:43Z</time>
      </trkpt>
      <trkpt lat="43.4679940" lon="-5.4968640">
        <ele>100.8</ele>
        <time>2021-07-20T08:19:44Z</time>
      </trkpt>
      <trkpt lat="43.4680050" lon="-5.4967950">
        <ele>100.4</ele>
        <time>2021-07-20T08:19:45Z</time>
      </trkpt>
      <trkpt lat="43.4680190" lon="-5.4967220">
        <ele>100.0</ele>
        <time>2021-07-20T08:19:46Z</time>
      </trkpt>
      <trkpt lat="43.4680320" lon="-5.4966440">
        <ele>99.6</ele>
        <time>2021-07-20T08:19:47Z</time>
      </trkpt>
      <trkpt lat="43.4680900" lon="-5.4963030">
        <ele>99.6</ele>
        <time>2021-07-20T08:19:51Z</time>
      </trkpt>
      <trkpt lat="43.4681200" lon="-5.4961230">
        <ele>99.2</ele>
        <time>2021-07-20T08:19:53Z</time>
      </trkpt>
      <trkpt lat="43.4681400" lon="-5.4960250">
        <ele>98.8</ele>
        <time>2021-07-20T08:19:54Z</time>
      </trkpt>
      <trkpt lat="43.4681610" lon="-5.4959220">
        <ele>98.4</ele>
        <time>2021-07-20T08:19:55Z</time>
      </trkpt>
      <trkpt lat="43.4681820" lon="-5.4958150">
        <ele>98.0</ele>
        <time>2021-07-20T08:19:56Z</time>
      </trkpt>
      <trkpt lat="43.4682020" lon="-5.4957060">
        <ele>97.6</ele>
        <time>2021-07-20T08:19:57Z</time>
      </trkpt>
      <trkpt lat="43.4682550" lon="-5.4953750">
        <ele>97.6</ele>
        <time>2021-07-20T08:20:00Z</time>
      </trkpt>
      <trkpt lat="43.4682690" lon="-5.4952770">
        <ele>97.2</ele>
        <time>2021-07-20T08:20:01Z</time>
      </trkpt>
      <trkpt lat="43.4682790" lon="-5.4951820">
        <ele>96.8</ele>
        <time>2021-07-20T08:20:02Z</time>
      </trkpt>
      <trkpt lat="43.4682880" lon="-5.4950920">
        <ele>96.4</ele>
        <time>2021-07-20T08:20:03Z</time>
      </trkpt>
      <trkpt lat="43.4683040" lon="-5.4950170">
        <ele>95.6</ele>
        <time>2021-07-20T08:20:04Z</time>
      </trkpt>
      <trkpt lat="43.4683200" lon="-5.4949470">
        <ele>95.0</ele>
        <time>2021-07-20T08:20:05Z</time>
      </trkpt>
      <trkpt lat="43.4683350" lon="-5.4948930">
        <ele>94.4</ele>
        <time>2021-07-20T08:20:06Z</time>
      </trkpt>
      <trkpt lat="43.4683530" lon="-5.4948410">
        <ele>93.8</ele>
        <time>2021-07-20T08:20:07Z</time>
      </trkpt>
      <trkpt lat="43.4683670" lon="-5.4948030">
        <ele>93.2</ele>
        <time>2021-07-20T08:20:08Z</time>
      </trkpt>
      <trkpt lat="43.4683850" lon="-5.4947680">
        <ele>92.8</ele>
        <time>2021-07-20T08:20:09Z</time>
      </trkpt>
      <trkpt lat="43.4684150" lon="-5.4947420">
        <ele>92.2</ele>
        <time>2021-07-20T08:20:10Z</time>
      </trkpt>
      <trkpt lat="43.4684490" lon="-5.4947270">
        <ele>91.6</ele>
        <time>2021-07-20T08:20:11Z</time>
      </trkpt>
      <trkpt lat="43.4684780" lon="-5.4947240">
        <ele>91.0</ele>
        <time>2021-07-20T08:20:12Z</time>
      </trkpt>
      <trkpt lat="43.4685090" lon="-5.4947360">
        <ele>91.0</ele>
        <time>2021-07-20T08:20:14Z</time>
      </trkpt>
      <trkpt lat="43.4685240" lon="-5.4947470">
        <ele>91.0</ele>
        <time>2021-07-20T08:20:16Z</time>
      </trkpt>
      <trkpt lat="43.4685500" lon="-5.4947500">
        <ele>91.0</ele>
        <time>2021-07-20T08:20:18Z</time>
      </trkpt>
      <trkpt lat="43.4685600" lon="-5.4947510">
        <ele>91.0</ele>
        <time>2021-07-20T08:20:19Z</time>
      </trkpt>
      <trkpt lat="43.4685710" lon="-5.4947510">
        <ele>91.0</ele>
        <time>2021-07-20T08:20:20Z</time>
      </trkpt>
      <trkpt lat="43.4685840" lon="-5.4947560">
        <ele>91.0</ele>
        <time>2021-07-20T08:20:21Z</time>
      </trkpt>
      <trkpt lat="43.4685970" lon="-5.4947570">
        <ele>91.0</ele>
        <time>2021-07-20T08:20:22Z</time>
      </trkpt>
      <trkpt lat="43.4686270" lon="-5.4947710">
        <ele>91.0</ele>
        <time>2021-07-20T08:20:24Z</time>
      </trkpt>
      <trkpt lat="43.4686630" lon="-5.4947810">
        <ele>91.0</ele>
        <time>2021-07-20T08:20:26Z</time>
      </trkpt>
      <trkpt lat="43.4686920" lon="-5.4947810">
        <ele>91.4</ele>
        <time>2021-07-20T08:20:28Z</time>
      </trkpt>
      <trkpt lat="43.4687060" lon="-5.4947790">
        <ele>92.0</ele>
        <time>2021-07-20T08:20:29Z</time>
      </trkpt>
      <trkpt lat="43.4687230" lon="-5.4947790">
        <ele>92.4</ele>
        <time>2021-07-20T08:20:30Z</time>
      </trkpt>
      <trkpt lat="43.4687410" lon="-5.4947790">
        <ele>92.8</ele>
        <time>2021-07-20T08:20:31Z</time>
      </trkpt>
      <trkpt lat="43.4687600" lon="-5.4947800">
        <ele>93.2</ele>
        <time>2021-07-20T08:20:32Z</time>
      </trkpt>
      <trkpt lat="43.4688320" lon="-5.4947870">
        <ele>93.2</ele>
        <time>2021-07-20T08:20:35Z</time>
      </trkpt>
      <trkpt lat="43.4688830" lon="-5.4947910">
        <ele>94.0</ele>
        <time>2021-07-20T08:20:38Z</time>
      </trkpt>
      <trkpt lat="43.4688990" lon="-5.4947960">
        <ele>94.4</ele>
        <time>2021-07-20T08:20:39Z</time>
      </trkpt>
      <trkpt lat="43.4689170" lon="-5.4948050">
        <ele>95.0</ele>
        <time>2021-07-20T08:20:40Z</time>
      </trkpt>
      <trkpt lat="43.4689340" lon="-5.4948200">
        <ele>95.4</ele>
        <time>2021-07-20T08:20:41Z</time>
      </trkpt>
      <trkpt lat="43.4690120" lon="-5.4948600">
        <ele>95.4</ele>
        <time>2021-07-20T08:20:45Z</time>
      </trkpt>
      <trkpt lat="43.4690770" lon="-5.4948920">
        <ele>95.8</ele>
        <time>2021-07-20T08:20:49Z</time>
      </trkpt>
      <trkpt lat="43.4690910" lon="-5.4949000">
        <ele>96.2</ele>
        <time>2021-07-20T08:20:50Z</time>
      </trkpt>
      <trkpt lat="43.4691090" lon="-5.4949050">
        <ele>96.6</ele>
        <time>2021-07-20T08:20:51Z</time>
      </trkpt>
      <trkpt lat="43.4691240" lon="-5.4949160">
        <ele>97.0</ele>
        <time>2021-07-20T08:20:52Z</time>
      </trkpt>
      <trkpt lat="43.4691540" lon="-5.4949250">
        <ele>97.4</ele>
        <time>2021-07-20T08:20:53Z</time>
      </trkpt>
      <trkpt lat="43.4692190" lon="-5.4949720">
        <ele>97.4</ele>
        <time>2021-07-20T08:20:57Z</time>
      </trkpt>
      <trkpt lat="43.4693040" lon="-5.4950150">
        <ele>97.8</ele>
        <time>2021-07-20T08:21:02Z</time>
      </trkpt>
      <trkpt lat="43.4693190" lon="-5.4950200">
        <ele>98.6</ele>
        <time>2021-07-20T08:21:03Z</time>
      </trkpt>
      <trkpt lat="43.4693350" lon="-5.4950260">
        <ele>99.0</ele>
        <time>2021-07-20T08:21:04Z</time>
      </trkpt>
      <trkpt lat="43.4693530" lon="-5.4950360">
        <ele>99.4</ele>
        <time>2021-07-20T08:21:05Z</time>
      </trkpt>
      <trkpt lat="43.4694640" lon="-5.4950830">
        <ele>99.4</ele>
        <time>2021-07-20T08:21:11Z</time>
      </trkpt>
      <trkpt lat="43.4695170" lon="-5.4951080">
        <ele>99.8</ele>
        <time>2021-07-20T08:21:14Z</time>
      </trkpt>
      <trkpt lat="43.4695320" lon="-5.4951190">
        <ele>100.2</ele>
        <time>2021-07-20T08:21:15Z</time>
      </trkpt>
      <trkpt lat="43.4695480" lon="-5.4951240">
        <ele>100.6</ele>
        <time>2021-07-20T08:21:16Z</time>
      </trkpt>
      <trkpt lat="43.4695650" lon="-5.4951280">
        <ele>101.0</ele>
        <time>2021-07-20T08:21:17Z</time>
      </trkpt>
      <trkpt lat="43.4695870" lon="-5.4951370">
        <ele>101.6</ele>
        <time>2021-07-20T08:21:18Z</time>
      </trkpt>
      <trkpt lat="43.4696220" lon="-5.4951500">
        <ele>101.6</ele>
        <time>2021-07-20T08:21:20Z</time>
      </trkpt>
      <trkpt lat="43.4697100" lon="-5.4951780">
        <ele>102.0</ele>
        <time>2021-07-20T08:21:26Z</time>
      </trkpt>
      <trkpt lat="43.4697250" lon="-5.4951850">
        <ele>102.4</ele>
        <time>2021-07-20T08:21:27Z</time>
      </trkpt>
      <trkpt lat="43.4697360" lon="-5.4951940">
        <ele>103.2</ele>
        <time>2021-07-20T08:21:28Z</time>
      </trkpt>
      <trkpt lat="43.4697470" lon="-5.4952010">
        <ele>103.6</ele>
        <time>2021-07-20T08:21:29Z</time>
      </trkpt>
      <trkpt lat="43.4698280" lon="-5.4952280">
        <ele>103.6</ele>
        <time>2021-07-20T08:21:34Z</time>
      </trkpt>
      <trkpt lat="43.4698610" lon="-5.4952350">
        <ele>104.0</ele>
        <time>2021-07-20T08:21:36Z</time>
      </trkpt>
      <trkpt lat="43.4698740" lon="-5.4952410">
        <ele>104.4</ele>
        <time>2021-07-20T08:21:37Z</time>
      </trkpt>
      <trkpt lat="43.4698870" lon="-5.4952480">
        <ele>104.8</ele>
        <time>2021-07-20T08:21:38Z</time>
      </trkpt>
      <trkpt lat="43.4699010" lon="-5.4952600">
        <ele>105.2</ele>
        <time>2021-07-20T08:21:39Z</time>
      </trkpt>
      <trkpt lat="43.4699170" lon="-5.4952660">
        <ele>105.8</ele>
        <time>2021-07-20T08:21:40Z</time>
      </trkpt>
      <trkpt lat="43.4699300" lon="-5.4952730">
        <ele>105.8</ele>
        <time>2021-07-20T08:21:41Z</time>
      </trkpt>
      <trkpt lat="43.4700360" lon="-5.4953480">
        <ele>106.2</ele>
        <time>2021-07-20T08:21:48Z</time>
      </trkpt>
      <trkpt lat="43.4700530" lon="-5.4953580">
        <ele>106.6</ele>
        <time>2021-07-20T08:21:49Z</time>
      </trkpt>
      <trkpt lat="43.4700680" lon="-5.4953650">
        <ele>107.0</ele>
        <time>2021-07-20T08:21:50Z</time>
      </trkpt>
      <trkpt lat="43.4700800" lon="-5.4953690">
        <ele>107.8</ele>
        <time>2021-07-20T08:21:51Z</time>
      </trkpt>
      <trkpt lat="43.4701560" lon="-5.4954230">
        <ele>107.8</ele>
        <time>2021-07-20T08:21:57Z</time>
      </trkpt>
      <trkpt lat="43.4701700" lon="-5.4954350">
        <ele>108.2</ele>
        <time>2021-07-20T08:21:58Z</time>
      </trkpt>
      <trkpt lat="43.4701810" lon="-5.4954450">
        <ele>108.6</ele>
        <time>2021-07-20T08:21:59Z</time>
      </trkpt>
      <trkpt lat="43.4701920" lon="-5.4954520">
        <ele>109.0</ele>
        <time>2021-07-20T08:22:00Z</time>
      </trkpt>
      <trkpt lat="43.4702050" lon="-5.4954590">
        <ele>109.6</ele>
        <time>2021-07-20T08:22:01Z</time>
      </trkpt>
      <trkpt lat="43.4702160" lon="-5.4954690">
        <ele>110.0</ele>
        <time>2021-07-20T08:22:02Z</time>
      </trkpt>
      <trkpt lat="43.4702500" lon="-5.4954970">
        <ele>110.0</ele>
        <time>2021-07-20T08:22:05Z</time>
      </trkpt>
      <trkpt lat="43.4702910" lon="-5.4955320">
        <ele>110.4</ele>
        <time>2021-07-20T08:22:08Z</time>
      </trkpt>
      <trkpt lat="43.4703020" lon="-5.4955450">
        <ele>110.8</ele>
        <time>2021-07-20T08:22:09Z</time>
      </trkpt>
      <trkpt lat="43.4703200" lon="-5.4955490">
        <ele>111.2</ele>
        <time>2021-07-20T08:22:10Z</time>
      </trkpt>
      <trkpt lat="43.4703320" lon="-5.4955560">
        <ele>111.6</ele>
        <time>2021-07-20T08:22:11Z</time>
      </trkpt>
      <trkpt lat="43.4703460" lon="-5.4955630">
        <ele>112.0</ele>
        <time>2021-07-20T08:22:12Z</time>
      </trkpt>
      <trkpt lat="43.4703610" lon="-5.4955630">
        <ele>112.0</ele>
        <time>2021-07-20T08:22:13Z</time>
      </trkpt>
      <trkpt lat="43.4704220" lon="-5.4955780">
        <ele>112.4</ele>
        <time>2021-07-20T08:22:17Z</time>
      </trkpt>
      <trkpt lat="43.4704350" lon="-5.4955830">
        <ele>112.8</ele>
        <time>2021-07-20T08:22:18Z</time>
      </trkpt>
      <trkpt lat="43.4704450" lon="-5.4955830">
        <ele>113.4</ele>
        <time>2021-07-20T08:22:19Z</time>
      </trkpt>
      <trkpt lat="43.4704590" lon="-5.4955790">
        <ele>113.8</ele>
        <time>2021-07-20T08:22:20Z</time>
      </trkpt>
      <trkpt lat="43.4704730" lon="-5.4955790">
        <ele>114.2</ele>
        <time>2021-07-20T08:22:21Z</time>
      </trkpt>
      <trkpt lat="43.4705070" lon="-5.4955840">
        <ele>114.2</ele>
        <time>2021-07-20T08:22:23Z</time>
      </trkpt>
      <trkpt lat="43.4705880" lon="-5.4956170">
        <ele>114.6</ele>
        <time>2021-07-20T08:22:28Z</time>
      </trkpt>
      <trkpt lat="43.4706070" lon="-5.4956180">
        <ele>115.0</ele>
        <time>2021-07-20T08:22:29Z</time>
      </trkpt>
      <trkpt lat="43.4706210" lon="-5.4956200">
        <ele>115.6</ele>
        <time>2021-07-20T08:22:30Z</time>
      </trkpt>
      <trkpt lat="43.4706380" lon="-5.4956180">
        <ele>116.0</ele>
        <time>2021-07-20T08:22:31Z</time>
      </trkpt>
      <trkpt lat="43.4706500" lon="-5.4956190">
        <ele>116.4</ele>
        <time>2021-07-20T08:22:32Z</time>
      </trkpt>
      <trkpt lat="43.4707200" lon="-5.4956400">
        <ele>116.4</ele>
        <time>2021-07-20T08:22:38Z</time>
      </trkpt>
      <trkpt lat="43.4707320" lon="-5.4956400">
        <ele>116.8</ele>
        <time>2021-07-20T08:22:39Z</time>
      </trkpt>
      <trkpt lat="43.4707460" lon="-5.4956420">
        <ele>117.2</ele>
        <time>2021-07-20T08:22:40Z</time>
      </trkpt>
      <trkpt lat="43.4707590" lon="-5.4956440">
        <ele>118.0</ele>
        <time>2021-07-20T08:22:41Z</time>
      </trkpt>
      <trkpt lat="43.4707700" lon="-5.4956480">
        <ele>118.4</ele>
        <time>2021-07-20T08:22:42Z</time>
      </trkpt>
      <trkpt lat="43.4708430" lon="-5.4956690">
        <ele>118.8</ele>
        <time>2021-07-20T08:22:47Z</time>
      </trkpt>
      <trkpt lat="43.4708610" lon="-5.4956740">
        <ele>119.2</ele>
        <time>2021-07-20T08:22:48Z</time>
      </trkpt>
      <trkpt lat="43.4708730" lon="-5.4956820">
        <ele>119.6</ele>
        <time>2021-07-20T08:22:49Z</time>
      </trkpt>
      <trkpt lat="43.4708840" lon="-5.4956930">
        <ele>120.0</ele>
        <time>2021-07-20T08:22:50Z</time>
      </trkpt>
      <trkpt lat="43.4708940" lon="-5.4957090">
        <ele>120.4</ele>
        <time>2021-07-20T08:22:51Z</time>
      </trkpt>
      <trkpt lat="43.4709610" lon="-5.4957960">
        <ele>120.4</ele>
        <time>2021-07-20T08:22:57Z</time>
      </trkpt>
      <trkpt lat="43.4709710" lon="-5.4958080">
        <ele>121.0</ele>
        <time>2021-07-20T08:22:58Z</time>
      </trkpt>
      <trkpt lat="43.4709820" lon="-5.4958240">
        <ele>121.4</ele>
        <time>2021-07-20T08:22:59Z</time>
      </trkpt>
      <trkpt lat="43.4709920" lon="-5.4958370">
        <ele>121.8</ele>
        <time>2021-07-20T08:23:00Z</time>
      </trkpt>
      <trkpt lat="43.4710020" lon="-5.4958510">
        <ele>122.2</ele>
        <time>2021-07-20T08:23:01Z</time>
      </trkpt>
      <trkpt lat="43.4710140" lon="-5.4958630">
        <ele>122.6</ele>
        <time>2021-07-20T08:23:02Z</time>
      </trkpt>
      <trkpt lat="43.4710490" lon="-5.4958890">
        <ele>122.6</ele>
        <time>2021-07-20T08:23:05Z</time>
      </trkpt>
      <trkpt lat="43.4710710" lon="-5.4959090">
        <ele>123.0</ele>
        <time>2021-07-20T08:23:07Z</time>
      </trkpt>
      <trkpt lat="43.4710820" lon="-5.4959220">
        <ele>123.4</ele>
        <time>2021-07-20T08:23:08Z</time>
      </trkpt>
      <trkpt lat="43.4710900" lon="-5.4959330">
        <ele>123.8</ele>
        <time>2021-07-20T08:23:09Z</time>
      </trkpt>
      <trkpt lat="43.4710990" lon="-5.4959450">
        <ele>124.2</ele>
        <time>2021-07-20T08:23:10Z</time>
      </trkpt>
      <trkpt lat="43.4711130" lon="-5.4959540">
        <ele>124.6</ele>
        <time>2021-07-20T08:23:11Z</time>
      </trkpt>
      <trkpt lat="43.4711270" lon="-5.4959610">
        <ele>124.6</ele>
        <time>2021-07-20T08:23:12Z</time>
      </trkpt>
      <trkpt lat="43.4711950" lon="-5.4960390">
        <ele>125.0</ele>
        <time>2021-07-20T08:23:18Z</time>
      </trkpt>
      <trkpt lat="43.4712070" lon="-5.4960500">
        <ele>125.4</ele>
        <time>2021-07-20T08:23:19Z</time>
      </trkpt>
      <trkpt lat="43.4712200" lon="-5.4960600">
        <ele>126.0</ele>
        <time>2021-07-20T08:23:20Z</time>
      </trkpt>
      <trkpt lat="43.4712300" lon="-5.4960740">
        <ele>126.4</ele>
        <time>2021-07-20T08:23:21Z</time>
      </trkpt>
      <trkpt lat="43.4712390" lon="-5.4960920">
        <ele>126.8</ele>
        <time>2021-07-20T08:23:22Z</time>
      </trkpt>
      <trkpt lat="43.4712930" lon="-5.4961680">
        <ele>126.8</ele>
        <time>2021-07-20T08:23:28Z</time>
      </trkpt>
      <trkpt lat="43.4713060" lon="-5.4961830">
        <ele>127.2</ele>
        <time>2021-07-20T08:23:29Z</time>
      </trkpt>
      <trkpt lat="43.4713180" lon="-5.4961950">
        <ele>128.0</ele>
        <time>2021-07-20T08:23:30Z</time>
      </trkpt>
      <trkpt lat="43.4713270" lon="-5.4962100">
        <ele>128.4</ele>
        <time>2021-07-20T08:23:31Z</time>
      </trkpt>
      <trkpt lat="43.4713350" lon="-5.4962230">
        <ele>128.8</ele>
        <time>2021-07-20T08:23:32Z</time>
      </trkpt>
      <trkpt lat="43.4713580" lon="-5.4962620">
        <ele>128.8</ele>
        <time>2021-07-20T08:23:35Z</time>
      </trkpt>
      <trkpt lat="43.4713870" lon="-5.4963260">
        <ele>129.2</ele>
        <time>2021-07-20T08:23:39Z</time>
      </trkpt>
      <trkpt lat="43.4713940" lon="-5.4963420">
        <ele>129.8</ele>
        <time>2021-07-20T08:23:40Z</time>
      </trkpt>
      <trkpt lat="43.4714020" lon="-5.4963550">
        <ele>130.2</ele>
        <time>2021-07-20T08:23:41Z</time>
      </trkpt>
      <trkpt lat="43.4714150" lon="-5.4963650">
        <ele>130.6</ele>
        <time>2021-07-20T08:23:42Z</time>
      </trkpt>
      <trkpt lat="43.4714210" lon="-5.4963770">
        <ele>131.0</ele>
        <time>2021-07-20T08:23:43Z</time>
      </trkpt>
      <trkpt lat="43.4714940" lon="-5.4964750">
        <ele>131.4</ele>
        <time>2021-07-20T08:23:51Z</time>
      </trkpt>
      <trkpt lat="43.4715030" lon="-5.4964880">
        <ele>131.8</ele>
        <time>2021-07-20T08:23:52Z</time>
      </trkpt>
      <trkpt lat="43.4715110" lon="-5.4965070">
        <ele>132.2</ele>
        <time>2021-07-20T08:23:53Z</time>
      </trkpt>
      <trkpt lat="43.4715190" lon="-5.4965250">
        <ele>132.8</ele>
        <time>2021-07-20T08:23:54Z</time>
      </trkpt>
      <trkpt lat="43.4715230" lon="-5.4965400">
        <ele>133.2</ele>
        <time>2021-07-20T08:23:55Z</time>
      </trkpt>
      <trkpt lat="43.4715390" lon="-5.4965740">
        <ele>133.2</ele>
        <time>2021-07-20T08:23:58Z</time>
      </trkpt>
      <trkpt lat="43.4715620" lon="-5.4966230">
        <ele>133.6</ele>
        <time>2021-07-20T08:24:01Z</time>
      </trkpt>
      <trkpt lat="43.4715680" lon="-5.4966400">
        <ele>134.0</ele>
        <time>2021-07-20T08:24:02Z</time>
      </trkpt>
      <trkpt lat="43.4715700" lon="-5.4966580">
        <ele>134.4</ele>
        <time>2021-07-20T08:24:03Z</time>
      </trkpt>
      <trkpt lat="43.4715790" lon="-5.4966710">
        <ele>134.8</ele>
        <time>2021-07-20T08:24:04Z</time>
      </trkpt>
      <trkpt lat="43.4715900" lon="-5.4966840">
        <ele>135.2</ele>
        <time>2021-07-20T08:24:05Z</time>
      </trkpt>
      <trkpt lat="43.4716010" lon="-5.4967000">
        <ele>135.2</ele>
        <time>2021-07-20T08:24:06Z</time>
      </trkpt>
      <trkpt lat="43.4716260" lon="-5.4967390">
        <ele>135.2</ele>
        <time>2021-07-20T08:24:09Z</time>
      </trkpt>
      <trkpt lat="43.4716550" lon="-5.4967830">
        <ele>135.2</ele>
        <time>2021-07-20T08:24:13Z</time>
      </trkpt>
      <trkpt lat="43.4716730" lon="-5.4967940">
        <ele>135.2</ele>
        <time>2021-07-20T08:24:15Z</time>
      </trkpt>
      <trkpt lat="43.4716860" lon="-5.4968020">
        <ele>135.6</ele>
        <time>2021-07-20T08:24:16Z</time>
      </trkpt>
      <trkpt lat="43.4716990" lon="-5.4968120">
        <ele>136.0</ele>
        <time>2021-07-20T08:24:17Z</time>
      </trkpt>
      <trkpt lat="43.4717070" lon="-5.4968270">
        <ele>136.4</ele>
        <time>2021-07-20T08:24:18Z</time>
      </trkpt>
      <trkpt lat="43.4717170" lon="-5.4968410">
        <ele>137.0</ele>
        <time>2021-07-20T08:24:19Z</time>
      </trkpt>
      <trkpt lat="43.4717230" lon="-5.4968590">
        <ele>137.4</ele>
        <time>2021-07-20T08:24:20Z</time>
      </trkpt>
      <trkpt lat="43.4717670" lon="-5.4968690">
        <ele>137.4</ele>
        <time>2021-07-20T08:24:24Z</time>
      </trkpt>
      <trkpt lat="43.4717780" lon="-5.4968540">
        <ele>137.4</ele>
        <time>2021-07-20T08:24:25Z</time>
      </trkpt>
      <trkpt lat="43.4718110" lon="-5.4968070">
        <ele>137.4</ele>
        <time>2021-07-20T08:24:28Z</time>
      </trkpt>
      <trkpt lat="43.4718340" lon="-5.4967810">
        <ele>137.8</ele>
        <time>2021-07-20T08:24:30Z</time>
      </trkpt>
      <trkpt lat="43.4718440" lon="-5.4967710">
        <ele>138.2</ele>
        <time>2021-07-20T08:24:31Z</time>
      </trkpt>
      <trkpt lat="43.4718580" lon="-5.4967610">
        <ele>138.6</ele>
        <time>2021-07-20T08:24:32Z</time>
      </trkpt>
      <trkpt lat="43.4718710" lon="-5.4967440">
        <ele>139.2</ele>
        <time>2021-07-20T08:24:33Z</time>
      </trkpt>
      <trkpt lat="43.4718720" lon="-5.4967340">
        <ele>139.6</ele>
        <time>2021-07-20T08:24:34Z</time>
      </trkpt>
      <trkpt lat="43.4719120" lon="-5.4966800">
        <ele>139.6</ele>
        <time>2021-07-20T08:24:38Z</time>
      </trkpt>
      <trkpt lat="43.4719370" lon="-5.4966270">
        <ele>140.0</ele>
        <time>2021-07-20T08:24:41Z</time>
      </trkpt>
      <trkpt lat="43.4719420" lon="-5.4966100">
        <ele>140.4</ele>
        <time>2021-07-20T08:24:42Z</time>
      </trkpt>
      <trkpt lat="43.4719480" lon="-5.4965900">
        <ele>140.8</ele>
        <time>2021-07-20T08:24:43Z</time>
      </trkpt>
      <trkpt lat="43.4719540" lon="-5.4965750">
        <ele>141.2</ele>
        <time>2021-07-20T08:24:44Z</time>
      </trkpt>
      <trkpt lat="43.4719630" lon="-5.4965640">
        <ele>141.6</ele>
        <time>2021-07-20T08:24:45Z</time>
      </trkpt>
      <trkpt lat="43.4719720" lon="-5.4964560">
        <ele>141.6</ele>
        <time>2021-07-20T08:24:51Z</time>
      </trkpt>
      <trkpt lat="43.4719780" lon="-5.4964320">
        <ele>142.0</ele>
        <time>2021-07-20T08:24:52Z</time>
      </trkpt>
      <trkpt lat="43.4719850" lon="-5.4964130">
        <ele>142.4</ele>
        <time>2021-07-20T08:24:53Z</time>
      </trkpt>
      <trkpt lat="43.4719910" lon="-5.4963930">
        <ele>142.8</ele>
        <time>2021-07-20T08:24:54Z</time>
      </trkpt>
      <trkpt lat="43.4719980" lon="-5.4963660">
        <ele>143.2</ele>
        <time>2021-07-20T08:24:55Z</time>
      </trkpt>
      <trkpt lat="43.4720040" lon="-5.4963420">
        <ele>143.6</ele>
        <time>2021-07-20T08:24:56Z</time>
      </trkpt>
      <trkpt lat="43.4720120" lon="-5.4962720">
        <ele>143.6</ele>
        <time>2021-07-20T08:24:59Z</time>
      </trkpt>
      <trkpt lat="43.4720340" lon="-5.4961350">
        <ele>143.6</ele>
        <time>2021-07-20T08:25:06Z</time>
      </trkpt>
      <trkpt lat="43.4720430" lon="-5.4960960">
        <ele>144.2</ele>
        <time>2021-07-20T08:25:08Z</time>
      </trkpt>
      <trkpt lat="43.4720470" lon="-5.4960750">
        <ele>145.0</ele>
        <time>2021-07-20T08:25:09Z</time>
      </trkpt>
      <trkpt lat="43.4720490" lon="-5.4960560">
        <ele>145.4</ele>
        <time>2021-07-20T08:25:10Z</time>
      </trkpt>
      <trkpt lat="43.4720520" lon="-5.4960340">
        <ele>145.8</ele>
        <time>2021-07-20T08:25:11Z</time>
      </trkpt>
      <trkpt lat="43.4720800" lon="-5.4959460">
        <ele>145.8</ele>
        <time>2021-07-20T08:25:15Z</time>
      </trkpt>
      <trkpt lat="43.4721310" lon="-5.4958140">
        <ele>145.8</ele>
        <time>2021-07-20T08:25:22Z</time>
      </trkpt>
      <trkpt lat="43.4721360" lon="-5.4957960">
        <ele>146.2</ele>
        <time>2021-07-20T08:25:23Z</time>
      </trkpt>
      <trkpt lat="43.4721380" lon="-5.4957720">
        <ele>146.8</ele>
        <time>2021-07-20T08:25:24Z</time>
      </trkpt>
      <trkpt lat="43.4721420" lon="-5.4957490">
        <ele>147.2</ele>
        <time>2021-07-20T08:25:25Z</time>
      </trkpt>
      <trkpt lat="43.4721460" lon="-5.4957280">
        <ele>147.6</ele>
        <time>2021-07-20T08:25:26Z</time>
      </trkpt>
      <trkpt lat="43.4721480" lon="-5.4957040">
        <ele>148.0</ele>
        <time>2021-07-20T08:25:27Z</time>
      </trkpt>
      <trkpt lat="43.4721530" lon="-5.4956550">
        <ele>148.0</ele>
        <time>2021-07-20T08:25:29Z</time>
      </trkpt>
      <trkpt lat="43.4721740" lon="-5.4955300">
        <ele>148.0</ele>
        <time>2021-07-20T08:25:35Z</time>
      </trkpt>
      <trkpt lat="43.4721750" lon="-5.4954820">
        <ele>148.0</ele>
        <time>2021-07-20T08:25:37Z</time>
      </trkpt>
      <trkpt lat="43.4721740" lon="-5.4954620">
        <ele>148.4</ele>
        <time>2021-07-20T08:25:38Z</time>
      </trkpt>
      <trkpt lat="43.4721760" lon="-5.4954370">
        <ele>148.8</ele>
        <time>2021-07-20T08:25:39Z</time>
      </trkpt>
      <trkpt lat="43.4721750" lon="-5.4954190">
        <ele>149.2</ele>
        <time>2021-07-20T08:25:40Z</time>
      </trkpt>
      <trkpt lat="43.4721780" lon="-5.4954010">
        <ele>149.8</ele>
        <time>2021-07-20T08:25:41Z</time>
      </trkpt>
      <trkpt lat="43.4721770" lon="-5.4953760">
        <ele>150.2</ele>
        <time>2021-07-20T08:25:42Z</time>
      </trkpt>
      <trkpt lat="43.4721750" lon="-5.4953330">
        <ele>150.2</ele>
        <time>2021-07-20T08:25:44Z</time>
      </trkpt>
      <trkpt lat="43.4721710" lon="-5.4951820">
        <ele>150.2</ele>
        <time>2021-07-20T08:25:51Z</time>
      </trkpt>
      <trkpt lat="43.4721780" lon="-5.4950480">
        <ele>150.6</ele>
        <time>2021-07-20T08:25:57Z</time>
      </trkpt>
      <trkpt lat="43.4721840" lon="-5.4950230">
        <ele>151.0</ele>
        <time>2021-07-20T08:25:58Z</time>
      </trkpt>
      <trkpt lat="43.4721830" lon="-5.4949970">
        <ele>151.8</ele>
        <time>2021-07-20T08:25:59Z</time>
      </trkpt>
      <trkpt lat="43.4721850" lon="-5.4949710">
        <ele>152.2</ele>
        <time>2021-07-20T08:26:00Z</time>
      </trkpt>
      <trkpt lat="43.4721980" lon="-5.4948290">
        <ele>152.2</ele>
        <time>2021-07-20T08:26:07Z</time>
      </trkpt>
      <trkpt lat="43.4721960" lon="-5.4947490">
        <ele>152.6</ele>
        <time>2021-07-20T08:26:10Z</time>
      </trkpt>
      <trkpt lat="43.4721990" lon="-5.4947270">
        <ele>153.0</ele>
        <time>2021-07-20T08:26:11Z</time>
      </trkpt>
      <trkpt lat="43.4722020" lon="-5.4947040">
        <ele>153.4</ele>
        <time>2021-07-20T08:26:12Z</time>
      </trkpt>
      <trkpt lat="43.4722030" lon="-5.4946840">
        <ele>153.8</ele>
        <time>2021-07-20T08:26:13Z</time>
      </trkpt>
      <trkpt lat="43.4722020" lon="-5.4946650">
        <ele>154.2</ele>
        <time>2021-07-20T08:26:14Z</time>
      </trkpt>
      <trkpt lat="43.4722460" lon="-5.4945550">
        <ele>154.2</ele>
        <time>2021-07-20T08:26:21Z</time>
      </trkpt>
      <trkpt lat="43.4722700" lon="-5.4945010">
        <ele>155.0</ele>
        <time>2021-07-20T08:26:24Z</time>
      </trkpt>
      <trkpt lat="43.4722780" lon="-5.4944890">
        <ele>155.4</ele>
        <time>2021-07-20T08:26:25Z</time>
      </trkpt>
      <trkpt lat="43.4722850" lon="-5.4944760">
        <ele>155.8</ele>
        <time>2021-07-20T08:26:26Z</time>
      </trkpt>
      <trkpt lat="43.4722920" lon="-5.4944580">
        <ele>156.2</ele>
        <time>2021-07-20T08:26:27Z</time>
      </trkpt>
      <trkpt lat="43.4723100" lon="-5.4944080">
        <ele>156.2</ele>
        <time>2021-07-20T08:26:30Z</time>
      </trkpt>
      <trkpt lat="43.4723460" lon="-5.4943360">
        <ele>156.6</ele>
        <time>2021-07-20T08:26:35Z</time>
      </trkpt>
      <trkpt lat="43.4723540" lon="-5.4943160">
        <ele>157.0</ele>
        <time>2021-07-20T08:26:36Z</time>
      </trkpt>
      <trkpt lat="43.4723600" lon="-5.4942980">
        <ele>157.4</ele>
        <time>2021-07-20T08:26:37Z</time>
      </trkpt>
      <trkpt lat="43.4723650" lon="-5.4942840">
        <ele>157.8</ele>
        <time>2021-07-20T08:26:38Z</time>
      </trkpt>
      <trkpt lat="43.4723680" lon="-5.4942650">
        <ele>158.2</ele>
        <time>2021-07-20T08:26:39Z</time>
      </trkpt>
      <trkpt lat="43.4724030" lon="-5.4941790">
        <ele>158.2</ele>
        <time>2021-07-20T08:26:44Z</time>
      </trkpt>
      <trkpt lat="43.4724280" lon="-5.4941220">
        <ele>159.0</ele>
        <time>2021-07-20T08:26:48Z</time>
      </trkpt>
      <trkpt lat="43.4724390" lon="-5.4941090">
        <ele>159.6</ele>
        <time>2021-07-20T08:26:49Z</time>
      </trkpt>
      <trkpt lat="43.4724470" lon="-5.4940940">
        <ele>160.0</ele>
        <time>2021-07-20T08:26:50Z</time>
      </trkpt>
      <trkpt lat="43.4724630" lon="-5.4940790">
        <ele>160.4</ele>
        <time>2021-07-20T08:26:51Z</time>
      </trkpt>
      <trkpt lat="43.4724720" lon="-5.4940670">
        <ele>160.4</ele>
        <time>2021-07-20T08:26:52Z</time>
      </trkpt>
      <trkpt lat="43.4725840" lon="-5.4939850">
        <ele>160.4</ele>
        <time>2021-07-20T08:27:01Z</time>
      </trkpt>
      <trkpt lat="43.4725990" lon="-5.4939760">
        <ele>160.8</ele>
        <time>2021-07-20T08:27:02Z</time>
      </trkpt>
      <trkpt lat="43.4726100" lon="-5.4939690">
        <ele>161.2</ele>
        <time>2021-07-20T08:27:03Z</time>
      </trkpt>
      <trkpt lat="43.4726280" lon="-5.4939680">
        <ele>161.6</ele>
        <time>2021-07-20T08:27:04Z</time>
      </trkpt>
      <trkpt lat="43.4726430" lon="-5.4939720">
        <ele>162.0</ele>
        <time>2021-07-20T08:27:05Z</time>
      </trkpt>
      <trkpt lat="43.4726580" lon="-5.4939690">
        <ele>162.6</ele>
        <time>2021-07-20T08:27:06Z</time>
      </trkpt>
      <trkpt lat="43.4726750" lon="-5.4939690">
        <ele>162.6</ele>
        <time>2021-07-20T08:27:07Z</time>
      </trkpt>
      <trkpt lat="43.4727970" lon="-5.4939910">
        <ele>162.6</ele>
        <time>2021-07-20T08:27:16Z</time>
      </trkpt>
      <trkpt lat="43.4728100" lon="-5.4939990">
        <ele>163.0</ele>
        <time>2021-07-20T08:27:17Z</time>
      </trkpt>
      <trkpt lat="43.4728220" lon="-5.4940040">
        <ele>163.4</ele>
        <time>2021-07-20T08:27:18Z</time>
      </trkpt>
      <trkpt lat="43.4728320" lon="-5.4940100">
        <ele>163.8</ele>
        <time>2021-07-20T08:27:19Z</time>
      </trkpt>
      <trkpt lat="43.4728480" lon="-5.4940140">
        <ele>164.2</ele>
        <time>2021-07-20T08:27:20Z</time>
      </trkpt>
      <trkpt lat="43.4728600" lon="-5.4940270">
        <ele>164.6</ele>
        <time>2021-07-20T08:27:21Z</time>
      </trkpt>
      <trkpt lat="43.4729140" lon="-5.4940860">
        <ele>164.6</ele>
        <time>2021-07-20T08:27:25Z</time>
      </trkpt>
      <trkpt lat="43.4730100" lon="-5.4941710">
        <ele>164.6</ele>
        <time>2021-07-20T08:27:32Z</time>
      </trkpt>
      <trkpt lat="43.4730210" lon="-5.4941850">
        <ele>165.0</ele>
        <time>2021-07-20T08:27:33Z</time>
      </trkpt>
      <trkpt lat="43.4730310" lon="-5.4941980">
        <ele>165.4</ele>
        <time>2021-07-20T08:27:34Z</time>
      </trkpt>
      <trkpt lat="43.4730400" lon="-5.4942080">
        <ele>165.8</ele>
        <time>2021-07-20T08:27:35Z</time>
      </trkpt>
      <trkpt lat="43.4730580" lon="-5.4942140">
        <ele>166.2</ele>
        <time>2021-07-20T08:27:36Z</time>
      </trkpt>
      <trkpt lat="43.4730680" lon="-5.4942210">
        <ele>166.6</ele>
        <time>2021-07-20T08:27:37Z</time>
      </trkpt>
      <trkpt lat="43.4731050" lon="-5.4942570">
        <ele>166.6</ele>
        <time>2021-07-20T08:27:40Z</time>
      </trkpt>
      <trkpt lat="43.4732030" lon="-5.4943430">
        <ele>166.6</ele>
        <time>2021-07-20T08:27:48Z</time>
      </trkpt>
      <trkpt lat="43.4732160" lon="-5.4943530">
        <ele>167.0</ele>
        <time>2021-07-20T08:27:49Z</time>
      </trkpt>
      <trkpt lat="43.4732280" lon="-5.4943650">
        <ele>167.4</ele>
        <time>2021-07-20T08:27:50Z</time>
      </trkpt>
      <trkpt lat="43.4732410" lon="-5.4943770">
        <ele>167.8</ele>
        <time>2021-07-20T08:27:51Z</time>
      </trkpt>
      <trkpt lat="43.4732550" lon="-5.4943890">
        <ele>168.4</ele>
        <time>2021-07-20T08:27:52Z</time>
      </trkpt>
      <trkpt lat="43.4732670" lon="-5.4944010">
        <ele>168.8</ele>
        <time>2021-07-20T08:27:53Z</time>
      </trkpt>
      <trkpt lat="43.4732930" lon="-5.4944240">
        <ele>168.8</ele>
        <time>2021-07-20T08:27:55Z</time>
      </trkpt>
      <trkpt lat="43.4734040" lon="-5.4945360">
        <ele>168.8</ele>
        <time>2021-07-20T08:28:03Z</time>
      </trkpt>
      <trkpt lat="43.4734160" lon="-5.4945520">
        <ele>169.2</ele>
        <time>2021-07-20T08:28:04Z</time>
      </trkpt>
      <trkpt lat="43.4734310" lon="-5.4945650">
        <ele>169.6</ele>
        <time>2021-07-20T08:28:05Z</time>
      </trkpt>
      <trkpt lat="43.4734480" lon="-5.4945750">
        <ele>170.0</ele>
        <time>2021-07-20T08:28:06Z</time>
      </trkpt>
      <trkpt lat="43.4734650" lon="-5.4945850">
        <ele>170.4</ele>
        <time>2021-07-20T08:28:07Z</time>
      </trkpt>
      <trkpt lat="43.4734830" lon="-5.4945940">
        <ele>170.8</ele>
        <time>2021-07-20T08:28:08Z</time>
      </trkpt>
      <trkpt lat="43.4735460" lon="-5.4946460">
        <ele>170.8</ele>
        <time>2021-07-20T08:28:12Z</time>
      </trkpt>
      <trkpt lat="43.4736280" lon="-5.4947220">
        <ele>170.8</ele>
        <time>2021-07-20T08:28:18Z</time>
      </trkpt>
      <trkpt lat="43.4736420" lon="-5.4947350">
        <ele>171.2</ele>
        <time>2021-07-20T08:28:19Z</time>
      </trkpt>
      <trkpt lat="43.4736550" lon="-5.4947460">
        <ele>171.6</ele>
        <time>2021-07-20T08:28:20Z</time>
      </trkpt>
      <trkpt lat="43.4736680" lon="-5.4947600">
        <ele>172.0</ele>
        <time>2021-07-20T08:28:21Z</time>
      </trkpt>
      <trkpt lat="43.4736790" lon="-5.4947720">
        <ele>172.4</ele>
        <time>2021-07-20T08:28:22Z</time>
      </trkpt>
      <trkpt lat="43.4736900" lon="-5.4947830">
        <ele>172.8</ele>
        <time>2021-07-20T08:28:23Z</time>
      </trkpt>
      <trkpt lat="43.4737290" lon="-5.4948300">
        <ele>172.8</ele>
        <time>2021-07-20T08:28:26Z</time>
      </trkpt>
      <trkpt lat="43.4738350" lon="-5.4949460">
        <ele>173.2</ele>
        <time>2021-07-20T08:28:34Z</time>
      </trkpt>
      <trkpt lat="43.4738460" lon="-5.4949630">
        <ele>173.8</ele>
        <time>2021-07-20T08:28:35Z</time>
      </trkpt>
      <trkpt lat="43.4738570" lon="-5.4949820">
        <ele>174.2</ele>
        <time>2021-07-20T08:28:36Z</time>
      </trkpt>
      <trkpt lat="43.4738680" lon="-5.4950040">
        <ele>174.6</ele>
        <time>2021-07-20T08:28:37Z</time>
      </trkpt>
      <trkpt lat="43.4738780" lon="-5.4950260">
        <ele>175.0</ele>
        <time>2021-07-20T08:28:38Z</time>
      </trkpt>
      <trkpt lat="43.4739170" lon="-5.4950950">
        <ele>175.0</ele>
        <time>2021-07-20T08:28:42Z</time>
      </trkpt>
      <trkpt lat="43.4740100" lon="-5.4952610">
        <ele>175.0</ele>
        <time>2021-07-20T08:28:51Z</time>
      </trkpt>
      <trkpt lat="43.4740540" lon="-5.4953280">
        <ele>175.4</ele>
        <time>2021-07-20T08:28:55Z</time>
      </trkpt>
      <trkpt lat="43.4740660" lon="-5.4953430">
        <ele>176.0</ele>
        <time>2021-07-20T08:28:56Z</time>
      </trkpt>
      <trkpt lat="43.4740790" lon="-5.4953580">
        <ele>176.4</ele>
        <time>2021-07-20T08:28:57Z</time>
      </trkpt>
      <trkpt lat="43.4740910" lon="-5.4953760">
        <ele>176.8</ele>
        <time>2021-07-20T08:28:58Z</time>
      </trkpt>
      <trkpt lat="43.4741040" lon="-5.4953940">
        <ele>177.2</ele>
        <time>2021-07-20T08:28:59Z</time>
      </trkpt>
      <trkpt lat="43.4741940" lon="-5.4955440">
        <ele>177.2</ele>
        <time>2021-07-20T08:29:07Z</time>
      </trkpt>
      <trkpt lat="43.4742680" lon="-5.4956620">
        <ele>177.6</ele>
        <time>2021-07-20T08:29:13Z</time>
      </trkpt>
      <trkpt lat="43.4742780" lon="-5.4956840">
        <ele>178.0</ele>
        <time>2021-07-20T08:29:14Z</time>
      </trkpt>
      <trkpt lat="43.4742890" lon="-5.4957050">
        <ele>178.4</ele>
        <time>2021-07-20T08:29:15Z</time>
      </trkpt>
      <trkpt lat="43.4742990" lon="-5.4957270">
        <ele>179.2</ele>
        <time>2021-07-20T08:29:16Z</time>
      </trkpt>
      <trkpt lat="43.4743480" lon="-5.4958240">
        <ele>179.2</ele>
        <time>2021-07-20T08:29:21Z</time>
      </trkpt>
      <trkpt lat="43.4744210" lon="-5.4959500">
        <ele>179.6</ele>
        <time>2021-07-20T08:29:28Z</time>
      </trkpt>
      <trkpt lat="43.4744300" lon="-5.4959680">
        <ele>180.2</ele>
        <time>2021-07-20T08:29:29Z</time>
      </trkpt>
      <trkpt lat="43.4744380" lon="-5.4959840">
        <ele>180.6</ele>
        <time>2021-07-20T08:29:30Z</time>
      </trkpt>
      <trkpt lat="43.4744470" lon="-5.4959970">
        <ele>181.0</ele>
        <time>2021-07-20T08:29:31Z</time>
      </trkpt>
      <trkpt lat="43.4744520" lon="-5.4960110">
        <ele>181.4</ele>
        <time>2021-07-20T08:29:32Z</time>
      </trkpt>
      <trkpt lat="43.4744840" lon="-5.4960730">
        <ele>181.4</ele>
        <time>2021-07-20T08:29:36Z</time>
      </trkpt>
      <trkpt lat="43.4745330" lon="-5.4961530">
        <ele>181.8</ele>
        <time>2021-07-20T08:29:41Z</time>
      </trkpt>
      <trkpt lat="43.4745400" lon="-5.4961730">
        <ele>182.2</ele>
        <time>2021-07-20T08:29:42Z</time>
      </trkpt>
      <trkpt lat="43.4745480" lon="-5.4961900">
        <ele>182.6</ele>
        <time>2021-07-20T08:29:43Z</time>
      </trkpt>
      <trkpt lat="43.4745580" lon="-5.4962050">
        <ele>183.0</ele>
        <time>2021-07-20T08:29:44Z</time>
      </trkpt>
      <trkpt lat="43.4745690" lon="-5.4962190">
        <ele>183.4</ele>
        <time>2021-07-20T08:29:45Z</time>
      </trkpt>
      <trkpt lat="43.4746450" lon="-5.4963430">
        <ele>183.4</ele>
        <time>2021-07-20T08:29:53Z</time>
      </trkpt>
      <trkpt lat="43.4746830" lon="-5.4963800">
        <ele>183.8</ele>
        <time>2021-07-20T08:29:56Z</time>
      </trkpt>
      <trkpt lat="43.4746950" lon="-5.4963920">
        <ele>184.2</ele>
        <time>2021-07-20T08:29:57Z</time>
      </trkpt>
      <trkpt lat="43.4747050" lon="-5.4964050">
        <ele>184.6</ele>
        <time>2021-07-20T08:29:58Z</time>
      </trkpt>
      <trkpt lat="43.4747160" lon="-5.4964190">
        <ele>185.0</ele>
        <time>2021-07-20T08:29:59Z</time>
      </trkpt>
      <trkpt lat="43.4747270" lon="-5.4964330">
        <ele>185.4</ele>
        <time>2021-07-20T08:30:00Z</time>
      </trkpt>
      <trkpt lat="43.4747640" lon="-5.4964860">
        <ele>185.4</ele>
        <time>2021-07-20T08:30:03Z</time>
      </trkpt>
      <trkpt lat="43.4748560" lon="-5.4966050">
        <ele>185.8</ele>
        <time>2021-07-20T08:30:11Z</time>
      </trkpt>
      <trkpt lat="43.4748680" lon="-5.4966190">
        <ele>186.2</ele>
        <time>2021-07-20T08:30:12Z</time>
      </trkpt>
      <trkpt lat="43.4748810" lon="-5.4966330">
        <ele>186.6</ele>
        <time>2021-07-20T08:30:13Z</time>
      </trkpt>
      <trkpt lat="43.4748960" lon="-5.4966490">
        <ele>187.0</ele>
        <time>2021-07-20T08:30:14Z</time>
      </trkpt>
      <trkpt lat="43.4749120" lon="-5.4966650">
        <ele>187.6</ele>
        <time>2021-07-20T08:30:15Z</time>
      </trkpt>
      <trkpt lat="43.4749890" lon="-5.4967270">
        <ele>187.6</ele>
        <time>2021-07-20T08:30:20Z</time>
      </trkpt>
      <trkpt lat="43.4751110" lon="-5.4967950">
        <ele>187.6</ele>
        <time>2021-07-20T08:30:28Z</time>
      </trkpt>
      <trkpt lat="43.4751410" lon="-5.4968000">
        <ele>188.0</ele>
        <time>2021-07-20T08:30:30Z</time>
      </trkpt>
      <trkpt lat="43.4751580" lon="-5.4968040">
        <ele>188.8</ele>
        <time>2021-07-20T08:30:31Z</time>
      </trkpt>
      <trkpt lat="43.4751740" lon="-5.4968060">
        <ele>189.2</ele>
        <time>2021-07-20T08:30:32Z</time>
      </trkpt>
      <trkpt lat="43.4751880" lon="-5.4968070">
        <ele>189.6</ele>
        <time>2021-07-20T08:30:33Z</time>
      </trkpt>
      <trkpt lat="43.4752390" lon="-5.4968290">
        <ele>189.6</ele>
        <time>2021-07-20T08:30:36Z</time>
      </trkpt>
      <trkpt lat="43.4753790" lon="-5.4968940">
        <ele>189.6</ele>
        <time>2021-07-20T08:30:44Z</time>
      </trkpt>
      <trkpt lat="43.4754380" lon="-5.4969250">
        <ele>190.0</ele>
        <time>2021-07-20T08:30:48Z</time>
      </trkpt>
      <trkpt lat="43.4754560" lon="-5.4969370">
        <ele>190.4</ele>
        <time>2021-07-20T08:30:49Z</time>
      </trkpt>
      <trkpt lat="43.4754730" lon="-5.4969460">
        <ele>190.8</ele>
        <time>2021-07-20T08:30:50Z</time>
      </trkpt>
      <trkpt lat="43.4754900" lon="-5.4969550">
        <ele>191.2</ele>
        <time>2021-07-20T08:30:51Z</time>
      </trkpt>
      <trkpt lat="43.4755040" lon="-5.4969620">
        <ele>191.6</ele>
        <time>2021-07-20T08:30:52Z</time>
      </trkpt>
      <trkpt lat="43.4755920" lon="-5.4970410">
        <ele>191.6</ele>
        <time>2021-07-20T08:30:59Z</time>
      </trkpt>
      <trkpt lat="43.4756960" lon="-5.4970980">
        <ele>192.0</ele>
        <time>2021-07-20T08:31:06Z</time>
      </trkpt>
      <trkpt lat="43.4757090" lon="-5.4971060">
        <ele>192.4</ele>
        <time>2021-07-20T08:31:07Z</time>
      </trkpt>
      <trkpt lat="43.4757250" lon="-5.4971100">
        <ele>192.8</ele>
        <time>2021-07-20T08:31:08Z</time>
      </trkpt>
      <trkpt lat="43.4757420" lon="-5.4971120">
        <ele>193.2</ele>
        <time>2021-07-20T08:31:09Z</time>
      </trkpt>
      <trkpt lat="43.4757580" lon="-5.4971180">
        <ele>193.6</ele>
        <time>2021-07-20T08:31:10Z</time>
      </trkpt>
      <trkpt lat="43.4758120" lon="-5.4971270">
        <ele>193.6</ele>
        <time>2021-07-20T08:31:13Z</time>
      </trkpt>
      <trkpt lat="43.4759430" lon="-5.4970850">
        <ele>193.6</ele>
        <time>2021-07-20T08:31:22Z</time>
      </trkpt>
      <trkpt lat="43.4759560" lon="-5.4970770">
        <ele>194.0</ele>
        <time>2021-07-20T08:31:23Z</time>
      </trkpt>
      <trkpt lat="43.4759690" lon="-5.4970700">
        <ele>194.4</ele>
        <time>2021-07-20T08:31:24Z</time>
      </trkpt>
      <trkpt lat="43.4759810" lon="-5.4970610">
        <ele>194.8</ele>
        <time>2021-07-20T08:31:25Z</time>
      </trkpt>
      <trkpt lat="43.4759890" lon="-5.4970520">
        <ele>195.2</ele>
        <time>2021-07-20T08:31:26Z</time>
      </trkpt>
      <trkpt lat="43.4759960" lon="-5.4970430">
        <ele>195.8</ele>
        <time>2021-07-20T08:31:27Z</time>
      </trkpt>
      <trkpt lat="43.4760180" lon="-5.4970250">
        <ele>195.8</ele>
        <time>2021-07-20T08:31:29Z</time>
      </trkpt>
      <trkpt lat="43.4761210" lon="-5.4969670">
        <ele>195.8</ele>
        <time>2021-07-20T08:31:35Z</time>
      </trkpt>
      <trkpt lat="43.4761900" lon="-5.4969370">
        <ele>196.2</ele>
        <time>2021-07-20T08:31:39Z</time>
      </trkpt>
      <trkpt lat="43.4762100" lon="-5.4969290">
        <ele>196.6</ele>
        <time>2021-07-20T08:31:40Z</time>
      </trkpt>
      <trkpt lat="43.4762290" lon="-5.4969260">
        <ele>197.0</ele>
        <time>2021-07-20T08:31:41Z</time>
      </trkpt>
      <trkpt lat="43.4762500" lon="-5.4969270">
        <ele>197.4</ele>
        <time>2021-07-20T08:31:42Z</time>
      </trkpt>
      <trkpt lat="43.4762720" lon="-5.4969290">
        <ele>197.8</ele>
        <time>2021-07-20T08:31:43Z</time>
      </trkpt>
      <trkpt lat="43.4763770" lon="-5.4969350">
        <ele>197.8</ele>
        <time>2021-07-20T08:31:48Z</time>
      </trkpt>
      <trkpt lat="43.4764740" lon="-5.4969070">
        <ele>197.8</ele>
        <time>2021-07-20T08:31:54Z</time>
      </trkpt>
      <trkpt lat="43.4764880" lon="-5.4968970">
        <ele>198.2</ele>
        <time>2021-07-20T08:31:55Z</time>
      </trkpt>
      <trkpt lat="43.4765040" lon="-5.4968880">
        <ele>198.6</ele>
        <time>2021-07-20T08:31:56Z</time>
      </trkpt>
      <trkpt lat="43.4765140" lon="-5.4968790">
        <ele>199.0</ele>
        <time>2021-07-20T08:31:57Z</time>
      </trkpt>
      <trkpt lat="43.4765250" lon="-5.4968670">
        <ele>199.4</ele>
        <time>2021-07-20T08:31:58Z</time>
      </trkpt>
      <trkpt lat="43.4765310" lon="-5.4968530">
        <ele>199.8</ele>
        <time>2021-07-20T08:31:59Z</time>
      </trkpt>
      <trkpt lat="43.4765450" lon="-5.4968060">
        <ele>199.8</ele>
        <time>2021-07-20T08:32:02Z</time>
      </trkpt>
      <trkpt lat="43.4765670" lon="-5.4966580">
        <ele>199.8</ele>
        <time>2021-07-20T08:32:09Z</time>
      </trkpt>
      <trkpt lat="43.4765590" lon="-5.4966200">
        <ele>200.2</ele>
        <time>2021-07-20T08:32:11Z</time>
      </trkpt>
      <trkpt lat="43.4765540" lon="-5.4966000">
        <ele>200.8</ele>
        <time>2021-07-20T08:32:12Z</time>
      </trkpt>
      <trkpt lat="43.4765500" lon="-5.4965780">
        <ele>201.2</ele>
        <time>2021-07-20T08:32:13Z</time>
      </trkpt>
      <trkpt lat="43.4765470" lon="-5.4965570">
        <ele>201.6</ele>
        <time>2021-07-20T08:32:14Z</time>
      </trkpt>
      <trkpt lat="43.4765450" lon="-5.4965350">
        <ele>202.0</ele>
        <time>2021-07-20T08:32:15Z</time>
      </trkpt>
      <trkpt lat="43.4765420" lon="-5.4964930">
        <ele>202.0</ele>
        <time>2021-07-20T08:32:17Z</time>
      </trkpt>
      <trkpt lat="43.4765430" lon="-5.4963070">
        <ele>202.4</ele>
        <time>2021-07-20T08:32:25Z</time>
      </trkpt>
      <trkpt lat="43.4765430" lon="-5.4962840">
        <ele>202.8</ele>
        <time>2021-07-20T08:32:26Z</time>
      </trkpt>
      <trkpt lat="43.4765450" lon="-5.4962600">
        <ele>203.2</ele>
        <time>2021-07-20T08:32:27Z</time>
      </trkpt>
      <trkpt lat="43.4765450" lon="-5.4962360">
        <ele>203.6</ele>
        <time>2021-07-20T08:32:28Z</time>
      </trkpt>
      <trkpt lat="43.4765410" lon="-5.4962100">
        <ele>204.2</ele>
        <time>2021-07-20T08:32:29Z</time>
      </trkpt>
      <trkpt lat="43.4765270" lon="-5.4961230">
        <ele>204.2</ele>
        <time>2021-07-20T08:32:32Z</time>
      </trkpt>
      <trkpt lat="43.4765290" lon="-5.4960660">
        <ele>204.2</ele>
        <time>2021-07-20T08:32:34Z</time>
      </trkpt>
      <trkpt lat="43.4765410" lon="-5.4958980">
        <ele>204.2</ele>
        <time>2021-07-20T08:32:40Z</time>
      </trkpt>
      <trkpt lat="43.4765550" lon="-5.4958240">
        <ele>204.6</ele>
        <time>2021-07-20T08:32:44Z</time>
      </trkpt>
      <trkpt lat="43.4765640" lon="-5.4958080">
        <ele>205.0</ele>
        <time>2021-07-20T08:32:45Z</time>
      </trkpt>
      <trkpt lat="43.4765740" lon="-5.4957930">
        <ele>205.4</ele>
        <time>2021-07-20T08:32:46Z</time>
      </trkpt>
      <trkpt lat="43.4765820" lon="-5.4957730">
        <ele>205.8</ele>
        <time>2021-07-20T08:32:47Z</time>
      </trkpt>
      <trkpt lat="43.4765920" lon="-5.4957540">
        <ele>206.2</ele>
        <time>2021-07-20T08:32:48Z</time>
      </trkpt>
      <trkpt lat="43.4766650" lon="-5.4956780">
        <ele>206.2</ele>
        <time>2021-07-20T08:32:54Z</time>
      </trkpt>
      <trkpt lat="43.4767590" lon="-5.4956750">
        <ele>206.6</ele>
        <time>2021-07-20T08:33:00Z</time>
      </trkpt>
      <trkpt lat="43.4767760" lon="-5.4956750">
        <ele>207.0</ele>
        <time>2021-07-20T08:33:01Z</time>
      </trkpt>
      <trkpt lat="43.4767890" lon="-5.4956740">
        <ele>207.4</ele>
        <time>2021-07-20T08:33:02Z</time>
      </trkpt>
      <trkpt lat="43.4768020" lon="-5.4956720">
        <ele>207.8</ele>
        <time>2021-07-20T08:33:03Z</time>
      </trkpt>
      <trkpt lat="43.4768190" lon="-5.4956700">
        <ele>208.2</ele>
        <time>2021-07-20T08:33:04Z</time>
      </trkpt>
      <trkpt lat="43.4768950" lon="-5.4956680">
        <ele>208.2</ele>
        <time>2021-07-20T08:33:09Z</time>
      </trkpt>
      <trkpt lat="43.4770320" lon="-5.4956800">
        <ele>208.6</ele>
        <time>2021-07-20T08:33:18Z</time>
      </trkpt>
      <trkpt lat="43.4770480" lon="-5.4956800">
        <ele>209.0</ele>
        <time>2021-07-20T08:33:19Z</time>
      </trkpt>
      <trkpt lat="43.4770630" lon="-5.4956790">
        <ele>209.6</ele>
        <time>2021-07-20T08:33:20Z</time>
      </trkpt>
      <trkpt lat="43.4770790" lon="-5.4956790">
        <ele>210.0</ele>
        <time>2021-07-20T08:33:21Z</time>
      </trkpt>
      <trkpt lat="43.4770960" lon="-5.4956820">
        <ele>210.4</ele>
        <time>2021-07-20T08:33:22Z</time>
      </trkpt>
      <trkpt lat="43.4771680" lon="-5.4956920">
        <ele>210.4</ele>
        <time>2021-07-20T08:33:27Z</time>
      </trkpt>
      <trkpt lat="43.4772620" lon="-5.4957120">
        <ele>210.8</ele>
        <time>2021-07-20T08:33:33Z</time>
      </trkpt>
      <trkpt lat="43.4772780" lon="-5.4957200">
        <ele>211.2</ele>
        <time>2021-07-20T08:33:34Z</time>
      </trkpt>
      <trkpt lat="43.4772910" lon="-5.4957250">
        <ele>211.6</ele>
        <time>2021-07-20T08:33:35Z</time>
      </trkpt>
      <trkpt lat="43.4773030" lon="-5.4957300">
        <ele>212.0</ele>
        <time>2021-07-20T08:33:36Z</time>
      </trkpt>
      <trkpt lat="43.4773150" lon="-5.4957320">
        <ele>212.4</ele>
        <time>2021-07-20T08:33:37Z</time>
      </trkpt>
      <trkpt lat="43.4773730" lon="-5.4957440">
        <ele>212.4</ele>
        <time>2021-07-20T08:33:41Z</time>
      </trkpt>
      <trkpt lat="43.4774870" lon="-5.4957960">
        <ele>212.8</ele>
        <time>2021-07-20T08:33:48Z</time>
      </trkpt>
      <trkpt lat="43.4775010" lon="-5.4958000">
        <ele>213.2</ele>
        <time>2021-07-20T08:33:49Z</time>
      </trkpt>
      <trkpt lat="43.4775170" lon="-5.4958010">
        <ele>213.6</ele>
        <time>2021-07-20T08:33:50Z</time>
      </trkpt>
      <trkpt lat="43.4775330" lon="-5.4958040">
        <ele>214.0</ele>
        <time>2021-07-20T08:33:51Z</time>
      </trkpt>
      <trkpt lat="43.4775520" lon="-5.4958050">
        <ele>214.4</ele>
        <time>2021-07-20T08:33:52Z</time>
      </trkpt>
      <trkpt lat="43.4776380" lon="-5.4958110">
        <ele>214.4</ele>
        <time>2021-07-20T08:33:57Z</time>
      </trkpt>
      <trkpt lat="43.4776800" lon="-5.4958020">
        <ele>214.4</ele>
        <time>2021-07-20T08:34:00Z</time>
      </trkpt>
      <trkpt lat="43.4777120" lon="-5.4957980">
        <ele>214.4</ele>
        <time>2021-07-20T08:34:02Z</time>
      </trkpt>
      <trkpt lat="43.4777610" lon="-5.4957880">
        <ele>214.8</ele>
        <time>2021-07-20T08:34:05Z</time>
      </trkpt>
      <trkpt lat="43.4777740" lon="-5.4957840">
        <ele>215.2</ele>
        <time>2021-07-20T08:34:06Z</time>
      </trkpt>
      <trkpt lat="43.4777890" lon="-5.4957860">
        <ele>215.8</ele>
        <time>2021-07-20T08:34:07Z</time>
      </trkpt>
      <trkpt lat="43.4778030" lon="-5.4957840">
        <ele>216.2</ele>
        <time>2021-07-20T08:34:08Z</time>
      </trkpt>
      <trkpt lat="43.4778160" lon="-5.4957790">
        <ele>216.6</ele>
        <time>2021-07-20T08:34:09Z</time>
      </trkpt>
      <trkpt lat="43.4779070" lon="-5.4957120">
        <ele>216.6</ele>
        <time>2021-07-20T08:34:16Z</time>
      </trkpt>
      <trkpt lat="43.4779260" lon="-5.4956810">
        <ele>217.0</ele>
        <time>2021-07-20T08:34:18Z</time>
      </trkpt>
      <trkpt lat="43.4779310" lon="-5.4956660">
        <ele>217.4</ele>
        <time>2021-07-20T08:34:19Z</time>
      </trkpt>
      <trkpt lat="43.4779340" lon="-5.4956480">
        <ele>217.8</ele>
        <time>2021-07-20T08:34:20Z</time>
      </trkpt>
      <trkpt lat="43.4779350" lon="-5.4956280">
        <ele>218.2</ele>
        <time>2021-07-20T08:34:21Z</time>
      </trkpt>
      <trkpt lat="43.4779370" lon="-5.4956070">
        <ele>218.6</ele>
        <time>2021-07-20T08:34:22Z</time>
      </trkpt>
      <trkpt lat="43.4779360" lon="-5.4955880">
        <ele>218.6</ele>
        <time>2021-07-20T08:34:23Z</time>
      </trkpt>
      <trkpt lat="43.4779250" lon="-5.4954380">
        <ele>219.0</ele>
        <time>2021-07-20T08:34:32Z</time>
      </trkpt>
      <trkpt lat="43.4779170" lon="-5.4954210">
        <ele>219.4</ele>
        <time>2021-07-20T08:34:33Z</time>
      </trkpt>
      <trkpt lat="43.4779110" lon="-5.4954040">
        <ele>220.0</ele>
        <time>2021-07-20T08:34:34Z</time>
      </trkpt>
      <trkpt lat="43.4779050" lon="-5.4953850">
        <ele>220.4</ele>
        <time>2021-07-20T08:34:35Z</time>
      </trkpt>
      <trkpt lat="43.4779010" lon="-5.4953660">
        <ele>220.8</ele>
        <time>2021-07-20T08:34:36Z</time>
      </trkpt>
      <trkpt lat="43.4778840" lon="-5.4952750">
        <ele>220.8</ele>
        <time>2021-07-20T08:34:40Z</time>
      </trkpt>
      <trkpt lat="43.4778500" lon="-5.4951060">
        <ele>220.8</ele>
        <time>2021-07-20T08:34:47Z</time>
      </trkpt>
      <trkpt lat="43.4778470" lon="-5.4950680">
        <ele>221.2</ele>
        <time>2021-07-20T08:34:49Z</time>
      </trkpt>
      <trkpt lat="43.4778410" lon="-5.4950500">
        <ele>221.6</ele>
        <time>2021-07-20T08:34:50Z</time>
      </trkpt>
      <trkpt lat="43.4778340" lon="-5.4950300">
        <ele>222.0</ele>
        <time>2021-07-20T08:34:51Z</time>
      </trkpt>
      <trkpt lat="43.4778270" lon="-5.4950120">
        <ele>222.4</ele>
        <time>2021-07-20T08:34:52Z</time>
      </trkpt>
      <trkpt lat="43.4778260" lon="-5.4949920">
        <ele>222.8</ele>
        <time>2021-07-20T08:34:53Z</time>
      </trkpt>
      <trkpt lat="43.4778180" lon="-5.4949410">
        <ele>222.8</ele>
        <time>2021-07-20T08:34:56Z</time>
      </trkpt>
      <trkpt lat="43.4778160" lon="-5.4949030">
        <ele>222.8</ele>
        <time>2021-07-20T08:34:58Z</time>
      </trkpt>
      <trkpt lat="43.4778080" lon="-5.4948140">
        <ele>222.8</ele>
        <time>2021-07-20T08:35:02Z</time>
      </trkpt>
      <trkpt lat="43.4778080" lon="-5.4947240">
        <ele>223.2</ele>
        <time>2021-07-20T08:35:06Z</time>
      </trkpt>
      <trkpt lat="43.4778070" lon="-5.4946970">
        <ele>223.6</ele>
        <time>2021-07-20T08:35:07Z</time>
      </trkpt>
      <trkpt lat="43.4778070" lon="-5.4946690">
        <ele>224.0</ele>
        <time>2021-07-20T08:35:08Z</time>
      </trkpt>
      <trkpt lat="43.4778040" lon="-5.4946410">
        <ele>224.4</ele>
        <time>2021-07-20T08:35:09Z</time>
      </trkpt>
      <trkpt lat="43.4778020" lon="-5.4946160">
        <ele>224.8</ele>
        <time>2021-07-20T08:35:10Z</time>
      </trkpt>
      <trkpt lat="43.4777850" lon="-5.4944810">
        <ele>224.8</ele>
        <time>2021-07-20T08:35:16Z</time>
      </trkpt>
      <trkpt lat="43.4777880" lon="-5.4944360">
        <ele>224.8</ele>
        <time>2021-07-20T08:35:18Z</time>
      </trkpt>
      <trkpt lat="43.4777970" lon="-5.4942790">
        <ele>225.4</ele>
        <time>2021-07-20T08:35:25Z</time>
      </trkpt>
      <trkpt lat="43.4778000" lon="-5.4942560">
        <ele>225.8</ele>
        <time>2021-07-20T08:35:26Z</time>
      </trkpt>
      <trkpt lat="43.4778010" lon="-5.4942340">
        <ele>226.6</ele>
        <time>2021-07-20T08:35:27Z</time>
      </trkpt>
      <trkpt lat="43.4778020" lon="-5.4942090">
        <ele>227.0</ele>
        <time>2021-07-20T08:35:28Z</time>
      </trkpt>
      <trkpt lat="43.4777940" lon="-5.4940900">
        <ele>227.0</ele>
        <time>2021-07-20T08:35:33Z</time>
      </trkpt>
      <trkpt lat="43.4778140" lon="-5.4939280">
        <ele>227.0</ele>
        <time>2021-07-20T08:35:40Z</time>
      </trkpt>
      <trkpt lat="43.4778250" lon="-5.4938830">
        <ele>227.4</ele>
        <time>2021-07-20T08:35:42Z</time>
      </trkpt>
      <trkpt lat="43.4778330" lon="-5.4938600">
        <ele>227.8</ele>
        <time>2021-07-20T08:35:43Z</time>
      </trkpt>
      <trkpt lat="43.4778390" lon="-5.4938350">
        <ele>228.2</ele>
        <time>2021-07-20T08:35:44Z</time>
      </trkpt>
      <trkpt lat="43.4778440" lon="-5.4938150">
        <ele>228.6</ele>
        <time>2021-07-20T08:35:45Z</time>
      </trkpt>
      <trkpt lat="43.4778470" lon="-5.4938000">
        <ele>229.0</ele>
        <time>2021-07-20T08:35:46Z</time>
      </trkpt>
      <trkpt lat="43.4778570" lon="-5.4937720">
        <ele>229.0</ele>
        <time>2021-07-20T08:35:48Z</time>
      </trkpt>
      <trkpt lat="43.4779140" lon="-5.4936840">
        <ele>229.0</ele>
        <time>2021-07-20T08:35:55Z</time>
      </trkpt>
      <trkpt lat="43.4779750" lon="-5.4936450">
        <ele>229.4</ele>
        <time>2021-07-20T08:36:00Z</time>
      </trkpt>
      <trkpt lat="43.4779910" lon="-5.4936380">
        <ele>229.8</ele>
        <time>2021-07-20T08:36:01Z</time>
      </trkpt>
      <trkpt lat="43.4780040" lon="-5.4936360">
        <ele>230.2</ele>
        <time>2021-07-20T08:36:02Z</time>
      </trkpt>
      <trkpt lat="43.4780180" lon="-5.4936360">
        <ele>230.8</ele>
        <time>2021-07-20T08:36:03Z</time>
      </trkpt>
      <trkpt lat="43.4780340" lon="-5.4936360">
        <ele>231.2</ele>
        <time>2021-07-20T08:36:04Z</time>
      </trkpt>
      <trkpt lat="43.4781320" lon="-5.4936450">
        <ele>231.2</ele>
        <time>2021-07-20T08:36:10Z</time>
      </trkpt>
      <trkpt lat="43.4782470" lon="-5.4936580">
        <ele>232.0</ele>
        <time>2021-07-20T08:36:17Z</time>
      </trkpt>
      <trkpt lat="43.4782600" lon="-5.4936590">
        <ele>232.4</ele>
        <time>2021-07-20T08:36:18Z</time>
      </trkpt>
      <trkpt lat="43.4782740" lon="-5.4936620">
        <ele>232.8</ele>
        <time>2021-07-20T08:36:19Z</time>
      </trkpt>
      <trkpt lat="43.4782890" lon="-5.4936650">
        <ele>233.2</ele>
        <time>2021-07-20T08:36:20Z</time>
      </trkpt>
      <trkpt lat="43.4783330" lon="-5.4936650">
        <ele>233.2</ele>
        <time>2021-07-20T08:36:23Z</time>
      </trkpt>
      <trkpt lat="43.4784230" lon="-5.4936320">
        <ele>233.2</ele>
        <time>2021-07-20T08:36:29Z</time>
      </trkpt>
      <trkpt lat="43.4785050" lon="-5.4935580">
        <ele>233.6</ele>
        <time>2021-07-20T08:36:36Z</time>
      </trkpt>
      <trkpt lat="43.4785150" lon="-5.4935490">
        <ele>234.0</ele>
        <time>2021-07-20T08:36:37Z</time>
      </trkpt>
      <trkpt lat="43.4785240" lon="-5.4935390">
        <ele>234.4</ele>
        <time>2021-07-20T08:36:38Z</time>
      </trkpt>
      <trkpt lat="43.4785340" lon="-5.4935300">
        <ele>234.8</ele>
        <time>2021-07-20T08:36:39Z</time>
      </trkpt>
      <trkpt lat="43.4785430" lon="-5.4935210">
        <ele>235.2</ele>
        <time>2021-07-20T08:36:40Z</time>
      </trkpt>
      <trkpt lat="43.4785850" lon="-5.4934750">
        <ele>235.2</ele>
        <time>2021-07-20T08:36:44Z</time>
      </trkpt>
      <trkpt lat="43.4786540" lon="-5.4934090">
        <ele>235.2</ele>
        <time>2021-07-20T08:36:50Z</time>
      </trkpt>
      <trkpt lat="43.4786630" lon="-5.4934000">
        <ele>235.6</ele>
        <time>2021-07-20T08:36:51Z</time>
      </trkpt>
      <trkpt lat="43.4786710" lon="-5.4933930">
        <ele>236.0</ele>
        <time>2021-07-20T08:36:52Z</time>
      </trkpt>
      <trkpt lat="43.4786810" lon="-5.4933850">
        <ele>236.6</ele>
        <time>2021-07-20T08:36:53Z</time>
      </trkpt>
      <trkpt lat="43.4786940" lon="-5.4933720">
        <ele>237.0</ele>
        <time>2021-07-20T08:36:54Z</time>
      </trkpt>
      <trkpt lat="43.4787080" lon="-5.4933560">
        <ele>237.4</ele>
        <time>2021-07-20T08:36:55Z</time>
      </trkpt>
      <trkpt lat="43.4787390" lon="-5.4933250">
        <ele>237.4</ele>
        <time>2021-07-20T08:36:57Z</time>
      </trkpt>
      <trkpt lat="43.4788340" lon="-5.4932250">
        <ele>237.4</ele>
        <time>2021-07-20T08:37:04Z</time>
      </trkpt>
      <trkpt lat="43.4789110" lon="-5.4931450">
        <ele>237.8</ele>
        <time>2021-07-20T08:37:08Z</time>
      </trkpt>
      <trkpt lat="43.4789290" lon="-5.4931220">
        <ele>238.2</ele>
        <time>2021-07-20T08:37:09Z</time>
      </trkpt>
      <trkpt lat="43.4789420" lon="-5.4931020">
        <ele>238.6</ele>
        <time>2021-07-20T08:37:10Z</time>
      </trkpt>
      <trkpt lat="43.4789530" lon="-5.4930830">
        <ele>239.0</ele>
        <time>2021-07-20T08:37:11Z</time>
      </trkpt>
      <trkpt lat="43.4789610" lon="-5.4930620">
        <ele>239.4</ele>
        <time>2021-07-20T08:37:12Z</time>
      </trkpt>
      <trkpt lat="43.4789690" lon="-5.4930440">
        <ele>239.4</ele>
        <time>2021-07-20T08:37:13Z</time>
      </trkpt>
      <trkpt lat="43.4790280" lon="-5.4928880">
        <ele>239.4</ele>
        <time>2021-07-20T08:37:21Z</time>
      </trkpt>
      <trkpt lat="43.4790450" lon="-5.4928390">
        <ele>239.8</ele>
        <time>2021-07-20T08:37:23Z</time>
      </trkpt>
      <trkpt lat="43.4790520" lon="-5.4928170">
        <ele>240.2</ele>
        <time>2021-07-20T08:37:24Z</time>
      </trkpt>
      <trkpt lat="43.4790600" lon="-5.4927970">
        <ele>240.6</ele>
        <time>2021-07-20T08:37:25Z</time>
      </trkpt>
      <trkpt lat="43.4790690" lon="-5.4927730">
        <ele>241.0</ele>
        <time>2021-07-20T08:37:26Z</time>
      </trkpt>
      <trkpt lat="43.4790780" lon="-5.4927560">
        <ele>241.4</ele>
        <time>2021-07-20T08:37:27Z</time>
      </trkpt>
      <trkpt lat="43.4790850" lon="-5.4927320">
        <ele>241.4</ele>
        <time>2021-07-20T08:37:28Z</time>
      </trkpt>
      <trkpt lat="43.4791210" lon="-5.4926180">
        <ele>241.4</ele>
        <time>2021-07-20T08:37:34Z</time>
      </trkpt>
      <trkpt lat="43.4791580" lon="-5.4925490">
        <ele>241.8</ele>
        <time>2021-07-20T08:37:38Z</time>
      </trkpt>
      <trkpt lat="43.4791650" lon="-5.4925320">
        <ele>242.2</ele>
        <time>2021-07-20T08:37:39Z</time>
      </trkpt>
      <trkpt lat="43.4791750" lon="-5.4925150">
        <ele>242.6</ele>
        <time>2021-07-20T08:37:40Z</time>
      </trkpt>
      <trkpt lat="43.4791880" lon="-5.4924980">
        <ele>243.2</ele>
        <time>2021-07-20T08:37:41Z</time>
      </trkpt>
      <trkpt lat="43.4792000" lon="-5.4924840">
        <ele>243.6</ele>
        <time>2021-07-20T08:37:42Z</time>
      </trkpt>
      <trkpt lat="43.4792430" lon="-5.4924460">
        <ele>243.6</ele>
        <time>2021-07-20T08:37:46Z</time>
      </trkpt>
      <trkpt lat="43.4793640" lon="-5.4923970">
        <ele>243.6</ele>
        <time>2021-07-20T08:37:53Z</time>
      </trkpt>
      <trkpt lat="43.4794030" lon="-5.4923980">
        <ele>244.0</ele>
        <time>2021-07-20T08:37:55Z</time>
      </trkpt>
      <trkpt lat="43.4794240" lon="-5.4923970">
        <ele>244.8</ele>
        <time>2021-07-20T08:37:56Z</time>
      </trkpt>
      <trkpt lat="43.4794480" lon="-5.4923930">
        <ele>245.2</ele>
        <time>2021-07-20T08:37:57Z</time>
      </trkpt>
      <trkpt lat="43.4794730" lon="-5.4923880">
        <ele>245.6</ele>
        <time>2021-07-20T08:37:58Z</time>
      </trkpt>
      <trkpt lat="43.4795120" lon="-5.4923900">
        <ele>245.6</ele>
        <time>2021-07-20T08:38:00Z</time>
      </trkpt>
      <trkpt lat="43.4796310" lon="-5.4923760">
        <ele>245.6</ele>
        <time>2021-07-20T08:38:07Z</time>
      </trkpt>
      <trkpt lat="43.4796970" lon="-5.4923450">
        <ele>246.0</ele>
        <time>2021-07-20T08:38:11Z</time>
      </trkpt>
      <trkpt lat="43.4797100" lon="-5.4923370">
        <ele>246.4</ele>
        <time>2021-07-20T08:38:12Z</time>
      </trkpt>
      <trkpt lat="43.4797250" lon="-5.4923250">
        <ele>246.8</ele>
        <time>2021-07-20T08:38:13Z</time>
      </trkpt>
      <trkpt lat="43.4797380" lon="-5.4923110">
        <ele>247.2</ele>
        <time>2021-07-20T08:38:14Z</time>
      </trkpt>
      <trkpt lat="43.4797500" lon="-5.4922980">
        <ele>247.6</ele>
        <time>2021-07-20T08:38:15Z</time>
      </trkpt>
      <trkpt lat="43.4798260" lon="-5.4922090">
        <ele>247.6</ele>
        <time>2021-07-20T08:38:22Z</time>
      </trkpt>
      <trkpt lat="43.4798530" lon="-5.4921850">
        <ele>248.0</ele>
        <time>2021-07-20T08:38:24Z</time>
      </trkpt>
      <trkpt lat="43.4798670" lon="-5.4921730">
        <ele>248.4</ele>
        <time>2021-07-20T08:38:25Z</time>
      </trkpt>
      <trkpt lat="43.4798810" lon="-5.4921560">
        <ele>248.8</ele>
        <time>2021-07-20T08:38:26Z</time>
      </trkpt>
      <trkpt lat="43.4798950" lon="-5.4921430">
        <ele>249.2</ele>
        <time>2021-07-20T08:38:27Z</time>
      </trkpt>
      <trkpt lat="43.4799100" lon="-5.4921320">
        <ele>249.6</ele>
        <time>2021-07-20T08:38:28Z</time>
      </trkpt>
      <trkpt lat="43.4799350" lon="-5.4921140">
        <ele>249.6</ele>
        <time>2021-07-20T08:38:30Z</time>
      </trkpt>
      <trkpt lat="43.4800830" lon="-5.4920500">
        <ele>249.6</ele>
        <time>2021-07-20T08:38:39Z</time>
      </trkpt>
      <trkpt lat="43.4801110" lon="-5.4920430">
        <ele>250.0</ele>
        <time>2021-07-20T08:38:41Z</time>
      </trkpt>
      <trkpt lat="43.4801270" lon="-5.4920410">
        <ele>250.4</ele>
        <time>2021-07-20T08:38:42Z</time>
      </trkpt>
      <trkpt lat="43.4801450" lon="-5.4920370">
        <ele>250.8</ele>
        <time>2021-07-20T08:38:43Z</time>
      </trkpt>
      <trkpt lat="43.4801640" lon="-5.4920330">
        <ele>251.2</ele>
        <time>2021-07-20T08:38:44Z</time>
      </trkpt>
      <trkpt lat="43.4801860" lon="-5.4920250">
        <ele>251.6</ele>
        <time>2021-07-20T08:38:45Z</time>
      </trkpt>
      <trkpt lat="43.4802280" lon="-5.4920130">
        <ele>251.6</ele>
        <time>2021-07-20T08:38:47Z</time>
      </trkpt>
      <trkpt lat="43.4803910" lon="-5.4919640">
        <ele>251.6</ele>
        <time>2021-07-20T08:38:55Z</time>
      </trkpt>
      <trkpt lat="43.4804440" lon="-5.4919640">
        <ele>252.0</ele>
        <time>2021-07-20T08:38:58Z</time>
      </trkpt>
      <trkpt lat="43.4804590" lon="-5.4919690">
        <ele>252.4</ele>
        <time>2021-07-20T08:38:59Z</time>
      </trkpt>
      <trkpt lat="43.4804750" lon="-5.4919710">
        <ele>252.8</ele>
        <time>2021-07-20T08:39:00Z</time>
      </trkpt>
      <trkpt lat="43.4804940" lon="-5.4919710">
        <ele>253.2</ele>
        <time>2021-07-20T08:39:01Z</time>
      </trkpt>
      <trkpt lat="43.4805100" lon="-5.4919690">
        <ele>253.6</ele>
        <time>2021-07-20T08:39:02Z</time>
      </trkpt>
      <trkpt lat="43.4806110" lon="-5.4919800">
        <ele>253.6</ele>
        <time>2021-07-20T08:39:09Z</time>
      </trkpt>
      <trkpt lat="43.4806960" lon="-5.4919890">
        <ele>254.2</ele>
        <time>2021-07-20T08:39:14Z</time>
      </trkpt>
      <trkpt lat="43.4807150" lon="-5.4919880">
        <ele>254.6</ele>
        <time>2021-07-20T08:39:15Z</time>
      </trkpt>
      <trkpt lat="43.4807330" lon="-5.4919830">
        <ele>255.0</ele>
        <time>2021-07-20T08:39:16Z</time>
      </trkpt>
      <trkpt lat="43.4807510" lon="-5.4919820">
        <ele>255.4</ele>
        <time>2021-07-20T08:39:17Z</time>
      </trkpt>
      <trkpt lat="43.4807640" lon="-5.4919730">
        <ele>255.8</ele>
        <time>2021-07-20T08:39:18Z</time>
      </trkpt>
      <trkpt lat="43.4808290" lon="-5.4919360">
        <ele>255.8</ele>
        <time>2021-07-20T08:39:22Z</time>
      </trkpt>
      <trkpt lat="43.4809440" lon="-5.4918660">
        <ele>255.8</ele>
        <time>2021-07-20T08:39:30Z</time>
      </trkpt>
      <trkpt lat="43.4809700" lon="-5.4918430">
        <ele>256.2</ele>
        <time>2021-07-20T08:39:32Z</time>
      </trkpt>
      <trkpt lat="43.4809820" lon="-5.4918290">
        <ele>256.6</ele>
        <time>2021-07-20T08:39:33Z</time>
      </trkpt>
      <trkpt lat="43.4809960" lon="-5.4918160">
        <ele>257.4</ele>
        <time>2021-07-20T08:39:34Z</time>
      </trkpt>
      <trkpt lat="43.4810090" lon="-5.4918040">
        <ele>258.0</ele>
        <time>2021-07-20T08:39:35Z</time>
      </trkpt>
      <trkpt lat="43.4810370" lon="-5.4917730">
        <ele>258.0</ele>
        <time>2021-07-20T08:39:37Z</time>
      </trkpt>
      <trkpt lat="43.4811190" lon="-5.4917400">
        <ele>258.0</ele>
        <time>2021-07-20T08:39:43Z</time>
      </trkpt>
      <trkpt lat="43.4811500" lon="-5.4917610">
        <ele>258.0</ele>
        <time>2021-07-20T08:39:46Z</time>
      </trkpt>
      <trkpt lat="43.4811460" lon="-5.4917970">
        <ele>258.4</ele>
        <time>2021-07-20T08:39:49Z</time>
      </trkpt>
      <trkpt lat="43.4811360" lon="-5.4918110">
        <ele>258.8</ele>
        <time>2021-07-20T08:39:50Z</time>
      </trkpt>
      <trkpt lat="43.4811240" lon="-5.4918240">
        <ele>259.2</ele>
        <time>2021-07-20T08:39:51Z</time>
      </trkpt>
      <trkpt lat="43.4811130" lon="-5.4918340">
        <ele>259.6</ele>
        <time>2021-07-20T08:39:52Z</time>
      </trkpt>
      <trkpt lat="43.4811010" lon="-5.4918430">
        <ele>260.0</ele>
        <time>2021-07-20T08:39:53Z</time>
      </trkpt>
      <trkpt lat="43.4810670" lon="-5.4918730">
        <ele>260.0</ele>
        <time>2021-07-20T08:39:56Z</time>
      </trkpt>
      <trkpt lat="43.4810080" lon="-5.4919750">
        <ele>260.4</ele>
        <time>2021-07-20T08:40:03Z</time>
      </trkpt>
      <trkpt lat="43.4809990" lon="-5.4919910">
        <ele>260.8</ele>
        <time>2021-07-20T08:40:04Z</time>
      </trkpt>
      <trkpt lat="43.4809900" lon="-5.4920060">
        <ele>261.4</ele>
        <time>2021-07-20T08:40:05Z</time>
      </trkpt>
      <trkpt lat="43.4809810" lon="-5.4920210">
        <ele>261.8</ele>
        <time>2021-07-20T08:40:06Z</time>
      </trkpt>
      <trkpt lat="43.4809720" lon="-5.4920330">
        <ele>262.2</ele>
        <time>2021-07-20T08:40:07Z</time>
      </trkpt>
      <trkpt lat="43.4809300" lon="-5.4920860">
        <ele>262.2</ele>
        <time>2021-07-20T08:40:11Z</time>
      </trkpt>
      <trkpt lat="43.4808000" lon="-5.4921940">
        <ele>262.2</ele>
        <time>2021-07-20T08:40:20Z</time>
      </trkpt>
      <trkpt lat="43.4807640" lon="-5.4922160">
        <ele>262.6</ele>
        <time>2021-07-20T08:40:22Z</time>
      </trkpt>
      <trkpt lat="43.4807440" lon="-5.4922250">
        <ele>263.0</ele>
        <time>2021-07-20T08:40:23Z</time>
      </trkpt>
      <trkpt lat="43.4807210" lon="-5.4922340">
        <ele>264.0</ele>
        <time>2021-07-20T08:40:24Z</time>
      </trkpt>
      <trkpt lat="43.4807010" lon="-5.4922480">
        <ele>264.4</ele>
        <time>2021-07-20T08:40:25Z</time>
      </trkpt>
      <trkpt lat="43.4806530" lon="-5.4922710">
        <ele>264.4</ele>
        <time>2021-07-20T08:40:27Z</time>
      </trkpt>
      <trkpt lat="43.4805220" lon="-5.4923690">
        <ele>264.4</ele>
        <time>2021-07-20T08:40:34Z</time>
      </trkpt>
      <trkpt lat="43.4804850" lon="-5.4923970">
        <ele>264.8</ele>
        <time>2021-07-20T08:40:36Z</time>
      </trkpt>
      <trkpt lat="43.4804660" lon="-5.4924080">
        <ele>265.2</ele>
        <time>2021-07-20T08:40:37Z</time>
      </trkpt>
      <trkpt lat="43.4804480" lon="-5.4924200">
        <ele>265.6</ele>
        <time>2021-07-20T08:40:38Z</time>
      </trkpt>
      <trkpt lat="43.4804310" lon="-5.4924310">
        <ele>266.0</ele>
        <time>2021-07-20T08:40:39Z</time>
      </trkpt>
      <trkpt lat="43.4804140" lon="-5.4924370">
        <ele>266.4</ele>
        <time>2021-07-20T08:40:40Z</time>
      </trkpt>
      <trkpt lat="43.4803800" lon="-5.4924570">
        <ele>266.4</ele>
        <time>2021-07-20T08:40:42Z</time>
      </trkpt>
      <trkpt lat="43.4802740" lon="-5.4925740">
        <ele>266.4</ele>
        <time>2021-07-20T08:40:50Z</time>
      </trkpt>
      <trkpt lat="43.4802590" lon="-5.4925940">
        <ele>267.0</ele>
        <time>2021-07-20T08:40:51Z</time>
      </trkpt>
      <trkpt lat="43.4802450" lon="-5.4926130">
        <ele>267.4</ele>
        <time>2021-07-20T08:40:52Z</time>
      </trkpt>
      <trkpt lat="43.4802330" lon="-5.4926330">
        <ele>267.8</ele>
        <time>2021-07-20T08:40:53Z</time>
      </trkpt>
      <trkpt lat="43.4802240" lon="-5.4926550">
        <ele>268.2</ele>
        <time>2021-07-20T08:40:54Z</time>
      </trkpt>
      <trkpt lat="43.4802180" lon="-5.4926710">
        <ele>268.6</ele>
        <time>2021-07-20T08:40:55Z</time>
      </trkpt>
      <trkpt lat="43.4801780" lon="-5.4927480">
        <ele>268.6</ele>
        <time>2021-07-20T08:41:00Z</time>
      </trkpt>
      <trkpt lat="43.4800920" lon="-5.4928870">
        <ele>269.0</ele>
        <time>2021-07-20T08:41:09Z</time>
      </trkpt>
      <trkpt lat="43.4800820" lon="-5.4929070">
        <ele>269.4</ele>
        <time>2021-07-20T08:41:10Z</time>
      </trkpt>
      <trkpt lat="43.4800720" lon="-5.4929280">
        <ele>269.8</ele>
        <time>2021-07-20T08:41:11Z</time>
      </trkpt>
      <trkpt lat="43.4800640" lon="-5.4929480">
        <ele>270.2</ele>
        <time>2021-07-20T08:41:12Z</time>
      </trkpt>
      <trkpt lat="43.4800540" lon="-5.4929670">
        <ele>270.6</ele>
        <time>2021-07-20T08:41:13Z</time>
      </trkpt>
      <trkpt lat="43.4799980" lon="-5.4930530">
        <ele>270.6</ele>
        <time>2021-07-20T08:41:19Z</time>
      </trkpt>
      <trkpt lat="43.4799540" lon="-5.4931120">
        <ele>271.0</ele>
        <time>2021-07-20T08:41:24Z</time>
      </trkpt>
      <trkpt lat="43.4799470" lon="-5.4931200">
        <ele>271.4</ele>
        <time>2021-07-20T08:41:25Z</time>
      </trkpt>
      <trkpt lat="43.4799400" lon="-5.4931290">
        <ele>271.8</ele>
        <time>2021-07-20T08:41:26Z</time>
      </trkpt>
      <trkpt lat="43.4799310" lon="-5.4931400">
        <ele>272.2</ele>
        <time>2021-07-20T08:41:27Z</time>
      </trkpt>
      <trkpt lat="43.4799190" lon="-5.4931520">
        <ele>272.8</ele>
        <time>2021-07-20T08:41:28Z</time>
      </trkpt>
      <trkpt lat="43.4798390" lon="-5.4932700">
        <ele>272.8</ele>
        <time>2021-07-20T08:41:36Z</time>
      </trkpt>
      <trkpt lat="43.4798140" lon="-5.4932900">
        <ele>273.2</ele>
        <time>2021-07-20T08:41:38Z</time>
      </trkpt>
      <trkpt lat="43.4798020" lon="-5.4933020">
        <ele>273.6</ele>
        <time>2021-07-20T08:41:39Z</time>
      </trkpt>
      <trkpt lat="43.4797890" lon="-5.4933150">
        <ele>274.0</ele>
        <time>2021-07-20T08:41:40Z</time>
      </trkpt>
      <trkpt lat="43.4797750" lon="-5.4933300">
        <ele>274.4</ele>
        <time>2021-07-20T08:41:41Z</time>
      </trkpt>
      <trkpt lat="43.4797620" lon="-5.4933450">
        <ele>274.8</ele>
        <time>2021-07-20T08:41:42Z</time>
      </trkpt>
      <trkpt lat="43.4797420" lon="-5.4933770">
        <ele>274.8</ele>
        <time>2021-07-20T08:41:44Z</time>
      </trkpt>
      <trkpt lat="43.4796670" lon="-5.4934980">
        <ele>274.8</ele>
        <time>2021-07-20T08:41:52Z</time>
      </trkpt>
      <trkpt lat="43.4796470" lon="-5.4935370">
        <ele>275.2</ele>
        <time>2021-07-20T08:41:54Z</time>
      </trkpt>
      <trkpt lat="43.4796400" lon="-5.4935590">
        <ele>275.6</ele>
        <time>2021-07-20T08:41:55Z</time>
      </trkpt>
      <trkpt lat="43.4796330" lon="-5.4935790">
        <ele>276.0</ele>
        <time>2021-07-20T08:41:56Z</time>
      </trkpt>
      <trkpt lat="43.4796260" lon="-5.4935980">
        <ele>276.4</ele>
        <time>2021-07-20T08:41:57Z</time>
      </trkpt>
      <trkpt lat="43.4796190" lon="-5.4936150">
        <ele>276.8</ele>
        <time>2021-07-20T08:41:58Z</time>
      </trkpt>
      <trkpt lat="43.4795740" lon="-5.4936950">
        <ele>276.8</ele>
        <time>2021-07-20T08:42:03Z</time>
      </trkpt>
      <trkpt lat="43.4795390" lon="-5.4937870">
        <ele>277.2</ele>
        <time>2021-07-20T08:42:09Z</time>
      </trkpt>
      <trkpt lat="43.4795340" lon="-5.4938070">
        <ele>277.6</ele>
        <time>2021-07-20T08:42:10Z</time>
      </trkpt>
      <trkpt lat="43.4795290" lon="-5.4938280">
        <ele>278.2</ele>
        <time>2021-07-20T08:42:11Z</time>
      </trkpt>
      <trkpt lat="43.4795230" lon="-5.4938470">
        <ele>278.6</ele>
        <time>2021-07-20T08:42:12Z</time>
      </trkpt>
      <trkpt lat="43.4795150" lon="-5.4938650">
        <ele>279.0</ele>
        <time>2021-07-20T08:42:13Z</time>
      </trkpt>
      <trkpt lat="43.4794780" lon="-5.4939830">
        <ele>279.0</ele>
        <time>2021-07-20T08:42:19Z</time>
      </trkpt>
      <trkpt lat="43.4794420" lon="-5.4940760">
        <ele>279.4</ele>
        <time>2021-07-20T08:42:24Z</time>
      </trkpt>
      <trkpt lat="43.4794360" lon="-5.4940940">
        <ele>279.8</ele>
        <time>2021-07-20T08:42:25Z</time>
      </trkpt>
      <trkpt lat="43.4794300" lon="-5.4941130">
        <ele>280.2</ele>
        <time>2021-07-20T08:42:26Z</time>
      </trkpt>
      <trkpt lat="43.4794240" lon="-5.4941320">
        <ele>280.6</ele>
        <time>2021-07-20T08:42:27Z</time>
      </trkpt>
      <trkpt lat="43.4794160" lon="-5.4941510">
        <ele>281.0</ele>
        <time>2021-07-20T08:42:28Z</time>
      </trkpt>
      <trkpt lat="43.4793860" lon="-5.4943230">
        <ele>281.0</ele>
        <time>2021-07-20T08:42:36Z</time>
      </trkpt>
      <trkpt lat="43.4793850" lon="-5.4943800">
        <ele>281.4</ele>
        <time>2021-07-20T08:42:39Z</time>
      </trkpt>
      <trkpt lat="43.4793820" lon="-5.4944000">
        <ele>281.8</ele>
        <time>2021-07-20T08:42:40Z</time>
      </trkpt>
      <trkpt lat="43.4793780" lon="-5.4944200">
        <ele>282.2</ele>
        <time>2021-07-20T08:42:41Z</time>
      </trkpt>
      <trkpt lat="43.4793760" lon="-5.4944390">
        <ele>282.8</ele>
        <time>2021-07-20T08:42:42Z</time>
      </trkpt>
      <trkpt lat="43.4793760" lon="-5.4944600">
        <ele>283.2</ele>
        <time>2021-07-20T08:42:43Z</time>
      </trkpt>
      <trkpt lat="43.4793880" lon="-5.4946500">
        <ele>283.6</ele>
        <time>2021-07-20T08:42:52Z</time>
      </trkpt>
      <trkpt lat="43.4793890" lon="-5.4946720">
        <ele>284.0</ele>
        <time>2021-07-20T08:42:53Z</time>
      </trkpt>
      <trkpt lat="43.4793890" lon="-5.4946930">
        <ele>284.4</ele>
        <time>2021-07-20T08:42:54Z</time>
      </trkpt>
      <trkpt lat="43.4793890" lon="-5.4947130">
        <ele>284.8</ele>
        <time>2021-07-20T08:42:55Z</time>
      </trkpt>
      <trkpt lat="43.4793950" lon="-5.4947330">
        <ele>285.2</ele>
        <time>2021-07-20T08:42:56Z</time>
      </trkpt>
      <trkpt lat="43.4794190" lon="-5.4948560">
        <ele>285.2</ele>
        <time>2021-07-20T08:43:02Z</time>
      </trkpt>
      <trkpt lat="43.4794450" lon="-5.4949610">
        <ele>285.6</ele>
        <time>2021-07-20T08:43:07Z</time>
      </trkpt>
      <trkpt lat="43.4794530" lon="-5.4949810">
        <ele>286.0</ele>
        <time>2021-07-20T08:43:08Z</time>
      </trkpt>
      <trkpt lat="43.4794610" lon="-5.4950010">
        <ele>286.4</ele>
        <time>2021-07-20T08:43:09Z</time>
      </trkpt>
      <trkpt lat="43.4794670" lon="-5.4950200">
        <ele>286.8</ele>
        <time>2021-07-20T08:43:10Z</time>
      </trkpt>
      <trkpt lat="43.4794720" lon="-5.4950390">
        <ele>287.4</ele>
        <time>2021-07-20T08:43:12Z</time>
      </trkpt>
      <trkpt lat="43.4795310" lon="-5.4951910">
        <ele>287.4</ele>
        <time>2021-07-20T08:43:21Z</time>
      </trkpt>
      <trkpt lat="43.4795390" lon="-5.4952110">
        <ele>287.8</ele>
        <time>2021-07-20T08:43:22Z</time>
      </trkpt>
      <trkpt lat="43.4795470" lon="-5.4952300">
        <ele>288.2</ele>
        <time>2021-07-20T08:43:23Z</time>
      </trkpt>
      <trkpt lat="43.4795530" lon="-5.4952480">
        <ele>288.6</ele>
        <time>2021-07-20T08:43:24Z</time>
      </trkpt>
      <trkpt lat="43.4795600" lon="-5.4952660">
        <ele>289.0</ele>
        <time>2021-07-20T08:43:25Z</time>
      </trkpt>
      <trkpt lat="43.4795660" lon="-5.4952830">
        <ele>289.4</ele>
        <time>2021-07-20T08:43:26Z</time>
      </trkpt>
      <trkpt lat="43.4796030" lon="-5.4953640">
        <ele>289.4</ele>
        <time>2021-07-20T08:43:31Z</time>
      </trkpt>
      <trkpt lat="43.4796530" lon="-5.4954710">
        <ele>289.8</ele>
        <time>2021-07-20T08:43:37Z</time>
      </trkpt>
      <trkpt lat="43.4796600" lon="-5.4954900">
        <ele>290.4</ele>
        <time>2021-07-20T08:43:38Z</time>
      </trkpt>
      <trkpt lat="43.4796680" lon="-5.4955100">
        <ele>290.8</ele>
        <time>2021-07-20T08:43:39Z</time>
      </trkpt>
      <trkpt lat="43.4796760" lon="-5.4955320">
        <ele>291.2</ele>
        <time>2021-07-20T08:43:40Z</time>
      </trkpt>
      <trkpt lat="43.4796860" lon="-5.4955510">
        <ele>291.6</ele>
        <time>2021-07-20T08:43:41Z</time>
      </trkpt>
      <trkpt lat="43.4797540" lon="-5.4956740">
        <ele>291.6</ele>
        <time>2021-07-20T08:43:49Z</time>
      </trkpt>
      <trkpt lat="43.4797710" lon="-5.4957050">
        <ele>292.0</ele>
        <time>2021-07-20T08:43:51Z</time>
      </trkpt>
      <trkpt lat="43.4797810" lon="-5.4957230">
        <ele>292.4</ele>
        <time>2021-07-20T08:43:52Z</time>
      </trkpt>
      <trkpt lat="43.4797930" lon="-5.4957380">
        <ele>293.0</ele>
        <time>2021-07-20T08:43:53Z</time>
      </trkpt>
      <trkpt lat="43.4798010" lon="-5.4957520">
        <ele>293.4</ele>
        <time>2021-07-20T08:43:54Z</time>
      </trkpt>
      <trkpt lat="43.4798090" lon="-5.4957660">
        <ele>293.8</ele>
        <time>2021-07-20T08:43:55Z</time>
      </trkpt>
      <trkpt lat="43.4798250" lon="-5.4957950">
        <ele>293.8</ele>
        <time>2021-07-20T08:43:57Z</time>
      </trkpt>
      <trkpt lat="43.4798780" lon="-5.4959050">
        <ele>293.8</ele>
        <time>2021-07-20T08:44:04Z</time>
      </trkpt>
      <trkpt lat="43.4799050" lon="-5.4959490">
        <ele>294.2</ele>
        <time>2021-07-20T08:44:07Z</time>
      </trkpt>
      <trkpt lat="43.4799130" lon="-5.4959620">
        <ele>295.0</ele>
        <time>2021-07-20T08:44:08Z</time>
      </trkpt>
      <trkpt lat="43.4799200" lon="-5.4959770">
        <ele>295.4</ele>
        <time>2021-07-20T08:44:09Z</time>
      </trkpt>
      <trkpt lat="43.4799280" lon="-5.4959940">
        <ele>295.8</ele>
        <time>2021-07-20T08:44:10Z</time>
      </trkpt>
      <trkpt lat="43.4799430" lon="-5.4960260">
        <ele>295.8</ele>
        <time>2021-07-20T08:44:12Z</time>
      </trkpt>
      <trkpt lat="43.4800040" lon="-5.4961400">
        <ele>295.8</ele>
        <time>2021-07-20T08:44:19Z</time>
      </trkpt>
      <trkpt lat="43.4800310" lon="-5.4962060">
        <ele>296.2</ele>
        <time>2021-07-20T08:44:23Z</time>
      </trkpt>
      <trkpt lat="43.4800380" lon="-5.4962210">
        <ele>296.6</ele>
        <time>2021-07-20T08:44:24Z</time>
      </trkpt>
      <trkpt lat="43.4800460" lon="-5.4962370">
        <ele>297.2</ele>
        <time>2021-07-20T08:44:25Z</time>
      </trkpt>
      <trkpt lat="43.4800510" lon="-5.4962540">
        <ele>297.6</ele>
        <time>2021-07-20T08:44:26Z</time>
      </trkpt>
      <trkpt lat="43.4800530" lon="-5.4962700">
        <ele>298.0</ele>
        <time>2021-07-20T08:44:27Z</time>
      </trkpt>
      <trkpt lat="43.4800500" lon="-5.4962890">
        <ele>298.0</ele>
        <time>2021-07-20T08:44:28Z</time>
      </trkpt>
      <trkpt lat="43.4800300" lon="-5.4964370">
        <ele>298.0</ele>
        <time>2021-07-20T08:44:36Z</time>
      </trkpt>
      <trkpt lat="43.4800060" lon="-5.4964760">
        <ele>298.4</ele>
        <time>2021-07-20T08:44:39Z</time>
      </trkpt>
      <trkpt lat="43.4799980" lon="-5.4964910">
        <ele>298.8</ele>
        <time>2021-07-20T08:44:40Z</time>
      </trkpt>
      <trkpt lat="43.4799880" lon="-5.4965060">
        <ele>299.2</ele>
        <time>2021-07-20T08:44:41Z</time>
      </trkpt>
      <trkpt lat="43.4799750" lon="-5.4965190">
        <ele>299.6</ele>
        <time>2021-07-20T08:44:42Z</time>
      </trkpt>
      <trkpt lat="43.4799600" lon="-5.4965340">
        <ele>300.0</ele>
        <time>2021-07-20T08:44:43Z</time>
      </trkpt>
      <trkpt lat="43.4798880" lon="-5.4965960">
        <ele>300.0</ele>
        <time>2021-07-20T08:44:51Z</time>
      </trkpt>
      <trkpt lat="43.4798540" lon="-5.4966320">
        <ele>300.4</ele>
        <time>2021-07-20T08:44:54Z</time>
      </trkpt>
      <trkpt lat="43.4798400" lon="-5.4966440">
        <ele>300.8</ele>
        <time>2021-07-20T08:44:55Z</time>
      </trkpt>
      <trkpt lat="43.4798260" lon="-5.4966520">
        <ele>301.2</ele>
        <time>2021-07-20T08:44:56Z</time>
      </trkpt>
      <trkpt lat="43.4798120" lon="-5.4966670">
        <ele>302.0</ele>
        <time>2021-07-20T08:44:57Z</time>
      </trkpt>
      <trkpt lat="43.4798020" lon="-5.4966760">
        <ele>302.0</ele>
        <time>2021-07-20T08:44:58Z</time>
      </trkpt>
      <trkpt lat="43.4797270" lon="-5.4967810">
        <ele>302.0</ele>
        <time>2021-07-20T08:45:05Z</time>
      </trkpt>
      <trkpt lat="43.4797070" lon="-5.4968150">
        <ele>302.4</ele>
        <time>2021-07-20T08:45:07Z</time>
      </trkpt>
      <trkpt lat="43.4796990" lon="-5.4968300">
        <ele>302.8</ele>
        <time>2021-07-20T08:45:08Z</time>
      </trkpt>
      <trkpt lat="43.4796890" lon="-5.4968480">
        <ele>303.2</ele>
        <time>2021-07-20T08:45:09Z</time>
      </trkpt>
      <trkpt lat="43.4796800" lon="-5.4968670">
        <ele>303.6</ele>
        <time>2021-07-20T08:45:10Z</time>
      </trkpt>
      <trkpt lat="43.4796710" lon="-5.4968860">
        <ele>304.2</ele>
        <time>2021-07-20T08:45:11Z</time>
      </trkpt>
      <trkpt lat="43.4796490" lon="-5.4969240">
        <ele>304.2</ele>
        <time>2021-07-20T08:45:13Z</time>
      </trkpt>
      <trkpt lat="43.4796100" lon="-5.4970520">
        <ele>304.2</ele>
        <time>2021-07-20T08:45:20Z</time>
      </trkpt>
      <trkpt lat="43.4796090" lon="-5.4970920">
        <ele>304.6</ele>
        <time>2021-07-20T08:45:22Z</time>
      </trkpt>
      <trkpt lat="43.4796130" lon="-5.4971110">
        <ele>305.0</ele>
        <time>2021-07-20T08:45:23Z</time>
      </trkpt>
      <trkpt lat="43.4796170" lon="-5.4971320">
        <ele>305.4</ele>
        <time>2021-07-20T08:45:24Z</time>
      </trkpt>
      <trkpt lat="43.4796210" lon="-5.4971540">
        <ele>305.8</ele>
        <time>2021-07-20T08:45:25Z</time>
      </trkpt>
      <trkpt lat="43.4796250" lon="-5.4971750">
        <ele>306.2</ele>
        <time>2021-07-20T08:45:26Z</time>
      </trkpt>
      <trkpt lat="43.4796260" lon="-5.4971970">
        <ele>306.2</ele>
        <time>2021-07-20T08:45:27Z</time>
      </trkpt>
      <trkpt lat="43.4796590" lon="-5.4973580">
        <ele>306.2</ele>
        <time>2021-07-20T08:45:35Z</time>
      </trkpt>
      <trkpt lat="43.4796670" lon="-5.4973750">
        <ele>306.6</ele>
        <time>2021-07-20T08:45:36Z</time>
      </trkpt>
      <trkpt lat="43.4796740" lon="-5.4973940">
        <ele>307.0</ele>
        <time>2021-07-20T08:45:37Z</time>
      </trkpt>
      <trkpt lat="43.4796770" lon="-5.4974130">
        <ele>307.4</ele>
        <time>2021-07-20T08:45:38Z</time>
      </trkpt>
      <trkpt lat="43.4796830" lon="-5.4974310">
        <ele>307.8</ele>
        <time>2021-07-20T08:45:39Z</time>
      </trkpt>
      <trkpt lat="43.4796890" lon="-5.4974500">
        <ele>308.2</ele>
        <time>2021-07-20T08:45:40Z</time>
      </trkpt>
      <trkpt lat="43.4797090" lon="-5.4975280">
        <ele>308.2</ele>
        <time>2021-07-20T08:45:44Z</time>
      </trkpt>
      <trkpt lat="43.4797480" lon="-5.4977070">
        <ele>308.6</ele>
        <time>2021-07-20T08:45:53Z</time>
      </trkpt>
      <trkpt lat="43.4797510" lon="-5.4977260">
        <ele>309.0</ele>
        <time>2021-07-20T08:45:54Z</time>
      </trkpt>
      <trkpt lat="43.4797530" lon="-5.4977460">
        <ele>309.4</ele>
        <time>2021-07-20T08:45:55Z</time>
      </trkpt>
      <trkpt lat="43.4797550" lon="-5.4977660">
        <ele>309.8</ele>
        <time>2021-07-20T08:45:56Z</time>
      </trkpt>
      <trkpt lat="43.4797570" lon="-5.4977890">
        <ele>310.2</ele>
        <time>2021-07-20T08:45:57Z</time>
      </trkpt>
      <trkpt lat="43.4797530" lon="-5.4978910">
        <ele>310.2</ele>
        <time>2021-07-20T08:46:02Z</time>
      </trkpt>
      <trkpt lat="43.4797080" lon="-5.4979800">
        <ele>310.6</ele>
        <time>2021-07-20T08:46:07Z</time>
      </trkpt>
      <trkpt lat="43.4796950" lon="-5.4979920">
        <ele>311.0</ele>
        <time>2021-07-20T08:46:08Z</time>
      </trkpt>
      <trkpt lat="43.4796790" lon="-5.4980070">
        <ele>311.4</ele>
        <time>2021-07-20T08:46:09Z</time>
      </trkpt>
      <trkpt lat="43.4796650" lon="-5.4980180">
        <ele>311.8</ele>
        <time>2021-07-20T08:46:10Z</time>
      </trkpt>
      <trkpt lat="43.4796490" lon="-5.4980280">
        <ele>312.2</ele>
        <time>2021-07-20T08:46:11Z</time>
      </trkpt>
      <trkpt lat="43.4795410" lon="-5.4980970">
        <ele>312.2</ele>
        <time>2021-07-20T08:46:18Z</time>
      </trkpt>
      <trkpt lat="43.4793990" lon="-5.4982280">
        <ele>312.6</ele>
        <time>2021-07-20T08:46:27Z</time>
      </trkpt>
      <trkpt lat="43.4793830" lon="-5.4982490">
        <ele>313.0</ele>
        <time>2021-07-20T08:46:28Z</time>
      </trkpt>
      <trkpt lat="43.4793690" lon="-5.4982700">
        <ele>313.4</ele>
        <time>2021-07-20T08:46:29Z</time>
      </trkpt>
      <trkpt lat="43.4793550" lon="-5.4982940">
        <ele>313.8</ele>
        <time>2021-07-20T08:46:30Z</time>
      </trkpt>
      <trkpt lat="43.4793400" lon="-5.4983200">
        <ele>314.2</ele>
        <time>2021-07-20T08:46:31Z</time>
      </trkpt>
      <trkpt lat="43.4792880" lon="-5.4984500">
        <ele>314.2</ele>
        <time>2021-07-20T08:46:36Z</time>
      </trkpt>
      <trkpt lat="43.4792300" lon="-5.4986600">
        <ele>314.2</ele>
        <time>2021-07-20T08:46:44Z</time>
      </trkpt>
      <trkpt lat="43.4791720" lon="-5.4988680">
        <ele>314.2</ele>
        <time>2021-07-20T08:46:52Z</time>
      </trkpt>
      <trkpt lat="43.4791420" lon="-5.4989330">
        <ele>314.2</ele>
        <time>2021-07-20T08:46:55Z</time>
      </trkpt>
      <trkpt lat="43.4790400" lon="-5.4990170">
        <ele>314.2</ele>
        <time>2021-07-20T08:47:01Z</time>
      </trkpt>
      <trkpt lat="43.4790020" lon="-5.4990300">
        <ele>314.6</ele>
        <time>2021-07-20T08:47:03Z</time>
      </trkpt>
      <trkpt lat="43.4789830" lon="-5.4990340">
        <ele>315.0</ele>
        <time>2021-07-20T08:47:04Z</time>
      </trkpt>
      <trkpt lat="43.4789620" lon="-5.4990380">
        <ele>315.4</ele>
        <time>2021-07-20T08:47:05Z</time>
      </trkpt>
      <trkpt lat="43.4789410" lon="-5.4990440">
        <ele>315.8</ele>
        <time>2021-07-20T08:47:06Z</time>
      </trkpt>
      <trkpt lat="43.4789210" lon="-5.4990490">
        <ele>316.2</ele>
        <time>2021-07-20T08:47:07Z</time>
      </trkpt>
      <trkpt lat="43.4788660" lon="-5.4990770">
        <ele>316.2</ele>
        <time>2021-07-20T08:47:10Z</time>
      </trkpt>
      <trkpt lat="43.4787690" lon="-5.4992080">
        <ele>316.2</ele>
        <time>2021-07-20T08:47:17Z</time>
      </trkpt>
      <trkpt lat="43.4787600" lon="-5.4992310">
        <ele>316.8</ele>
        <time>2021-07-20T08:47:18Z</time>
      </trkpt>
      <trkpt lat="43.4787560" lon="-5.4992550">
        <ele>317.2</ele>
        <time>2021-07-20T08:47:19Z</time>
      </trkpt>
      <trkpt lat="43.4787520" lon="-5.4992810">
        <ele>317.6</ele>
        <time>2021-07-20T08:47:20Z</time>
      </trkpt>
      <trkpt lat="43.4787480" lon="-5.4993070">
        <ele>318.0</ele>
        <time>2021-07-20T08:47:21Z</time>
      </trkpt>
      <trkpt lat="43.4787410" lon="-5.4993300">
        <ele>318.4</ele>
        <time>2021-07-20T08:47:22Z</time>
      </trkpt>
      <trkpt lat="43.4787200" lon="-5.4994250">
        <ele>318.4</ele>
        <time>2021-07-20T08:47:26Z</time>
      </trkpt>
      <trkpt lat="43.4787010" lon="-5.4995900">
        <ele>318.8</ele>
        <time>2021-07-20T08:47:33Z</time>
      </trkpt>
      <trkpt lat="43.4787010" lon="-5.4996100">
        <ele>319.2</ele>
        <time>2021-07-20T08:47:34Z</time>
      </trkpt>
      <trkpt lat="43.4786980" lon="-5.4996360">
        <ele>319.6</ele>
        <time>2021-07-20T08:47:35Z</time>
      </trkpt>
      <trkpt lat="43.4786950" lon="-5.4996630">
        <ele>320.0</ele>
        <time>2021-07-20T08:47:36Z</time>
      </trkpt>
      <trkpt lat="43.4786920" lon="-5.4996870">
        <ele>320.6</ele>
        <time>2021-07-20T08:47:37Z</time>
      </trkpt>
      <trkpt lat="43.4786610" lon="-5.4998480">
        <ele>320.6</ele>
        <time>2021-07-20T08:47:44Z</time>
      </trkpt>
      <trkpt lat="43.4786520" lon="-5.4998660">
        <ele>320.6</ele>
        <time>2021-07-20T08:47:45Z</time>
      </trkpt>
      <trkpt lat="43.4786220" lon="-5.4999240">
        <ele>321.0</ele>
        <time>2021-07-20T08:47:48Z</time>
      </trkpt>
      <trkpt lat="43.4786110" lon="-5.4999400">
        <ele>321.4</ele>
        <time>2021-07-20T08:47:49Z</time>
      </trkpt>
      <trkpt lat="43.4785980" lon="-5.4999530">
        <ele>322.2</ele>
        <time>2021-07-20T08:47:50Z</time>
      </trkpt>
      <trkpt lat="43.4785840" lon="-5.4999690">
        <ele>322.6</ele>
        <time>2021-07-20T08:47:51Z</time>
      </trkpt>
      <trkpt lat="43.4785590" lon="-5.4999940">
        <ele>322.6</ele>
        <time>2021-07-20T08:47:53Z</time>
      </trkpt>
      <trkpt lat="43.4784610" lon="-5.5000780">
        <ele>322.6</ele>
        <time>2021-07-20T08:48:00Z</time>
      </trkpt>
      <trkpt lat="43.4784490" lon="-5.5000940">
        <ele>323.0</ele>
        <time>2021-07-20T08:48:01Z</time>
      </trkpt>
      <trkpt lat="43.4784400" lon="-5.5001120">
        <ele>323.4</ele>
        <time>2021-07-20T08:48:02Z</time>
      </trkpt>
      <trkpt lat="43.4784270" lon="-5.5001300">
        <ele>323.8</ele>
        <time>2021-07-20T08:48:03Z</time>
      </trkpt>
      <trkpt lat="43.4784150" lon="-5.5001460">
        <ele>324.2</ele>
        <time>2021-07-20T08:48:04Z</time>
      </trkpt>
      <trkpt lat="43.4784070" lon="-5.5001630">
        <ele>324.6</ele>
        <time>2021-07-20T08:48:05Z</time>
      </trkpt>
      <trkpt lat="43.4783860" lon="-5.5002160">
        <ele>324.6</ele>
        <time>2021-07-20T08:48:08Z</time>
      </trkpt>
      <trkpt lat="43.4783410" lon="-5.5003280">
        <ele>324.6</ele>
        <time>2021-07-20T08:48:14Z</time>
      </trkpt>
      <trkpt lat="43.4783340" lon="-5.5003500">
        <ele>325.0</ele>
        <time>2021-07-20T08:48:15Z</time>
      </trkpt>
      <trkpt lat="43.4783300" lon="-5.5003710">
        <ele>325.4</ele>
        <time>2021-07-20T08:48:16Z</time>
      </trkpt>
      <trkpt lat="43.4783260" lon="-5.5003940">
        <ele>325.8</ele>
        <time>2021-07-20T08:48:17Z</time>
      </trkpt>
      <trkpt lat="43.4783200" lon="-5.5004160">
        <ele>326.2</ele>
        <time>2021-07-20T08:48:18Z</time>
      </trkpt>
      <trkpt lat="43.4783150" lon="-5.5004430">
        <ele>326.6</ele>
        <time>2021-07-20T08:48:19Z</time>
      </trkpt>
      <trkpt lat="43.4782990" lon="-5.5004770">
        <ele>326.6</ele>
        <time>2021-07-20T08:48:21Z</time>
      </trkpt>
      <trkpt lat="43.4782670" lon="-5.5005630">
        <ele>326.6</ele>
        <time>2021-07-20T08:48:26Z</time>
      </trkpt>
      <trkpt lat="43.4782570" lon="-5.5006000">
        <ele>327.0</ele>
        <time>2021-07-20T08:48:28Z</time>
      </trkpt>
      <trkpt lat="43.4782540" lon="-5.5006170">
        <ele>327.4</ele>
        <time>2021-07-20T08:48:29Z</time>
      </trkpt>
      <trkpt lat="43.4782490" lon="-5.5006330">
        <ele>327.8</ele>
        <time>2021-07-20T08:48:30Z</time>
      </trkpt>
      <trkpt lat="43.4782400" lon="-5.5006450">
        <ele>328.4</ele>
        <time>2021-07-20T08:48:31Z</time>
      </trkpt>
      <trkpt lat="43.4782300" lon="-5.5006620">
        <ele>328.8</ele>
        <time>2021-07-20T08:48:32Z</time>
      </trkpt>
      <trkpt lat="43.4782230" lon="-5.5006910">
        <ele>328.8</ele>
        <time>2021-07-20T08:48:34Z</time>
      </trkpt>
      <trkpt lat="43.4781940" lon="-5.5007750">
        <ele>328.8</ele>
        <time>2021-07-20T08:48:39Z</time>
      </trkpt>
      <trkpt lat="43.4781900" lon="-5.5007900">
        <ele>329.2</ele>
        <time>2021-07-20T08:48:40Z</time>
      </trkpt>
      <trkpt lat="43.4781880" lon="-5.5008090">
        <ele>329.6</ele>
        <time>2021-07-20T08:48:41Z</time>
      </trkpt>
      <trkpt lat="43.4781830" lon="-5.5008250">
        <ele>330.0</ele>
        <time>2021-07-20T08:48:42Z</time>
      </trkpt>
      <trkpt lat="43.4781770" lon="-5.5008410">
        <ele>330.4</ele>
        <time>2021-07-20T08:48:43Z</time>
      </trkpt>
      <trkpt lat="43.4781700" lon="-5.5008600">
        <ele>330.8</ele>
        <time>2021-07-20T08:48:44Z</time>
      </trkpt>
      <trkpt lat="43.4781550" lon="-5.5009170">
        <ele>330.8</ele>
        <time>2021-07-20T08:48:47Z</time>
      </trkpt>
      <trkpt lat="43.4781060" lon="-5.5010380">
        <ele>331.2</ele>
        <time>2021-07-20T08:48:54Z</time>
      </trkpt>
      <trkpt lat="43.4781000" lon="-5.5010500">
        <ele>331.6</ele>
        <time>2021-07-20T08:48:55Z</time>
      </trkpt>
      <trkpt lat="43.4780940" lon="-5.5010640">
        <ele>332.0</ele>
        <time>2021-07-20T08:48:56Z</time>
      </trkpt>
      <trkpt lat="43.4780910" lon="-5.5010860">
        <ele>332.4</ele>
        <time>2021-07-20T08:48:57Z</time>
      </trkpt>
      <trkpt lat="43.4780870" lon="-5.5011050">
        <ele>333.0</ele>
        <time>2021-07-20T08:48:58Z</time>
      </trkpt>
      <trkpt lat="43.4780810" lon="-5.5011800">
        <ele>333.0</ele>
        <time>2021-07-20T08:49:03Z</time>
      </trkpt>
      <trkpt lat="43.4780650" lon="-5.5012870">
        <ele>333.4</ele>
        <time>2021-07-20T08:49:08Z</time>
      </trkpt>
      <trkpt lat="43.4780620" lon="-5.5013060">
        <ele>333.8</ele>
        <time>2021-07-20T08:49:09Z</time>
      </trkpt>
      <trkpt lat="43.4780580" lon="-5.5013280">
        <ele>334.2</ele>
        <time>2021-07-20T08:49:10Z</time>
      </trkpt>
      <trkpt lat="43.4780560" lon="-5.5013510">
        <ele>334.6</ele>
        <time>2021-07-20T08:49:11Z</time>
      </trkpt>
      <trkpt lat="43.4780550" lon="-5.5013740">
        <ele>335.0</ele>
        <time>2021-07-20T08:49:12Z</time>
      </trkpt>
      <trkpt lat="43.4780550" lon="-5.5015430">
        <ele>335.0</ele>
        <time>2021-07-20T08:49:20Z</time>
      </trkpt>
      <trkpt lat="43.4780560" lon="-5.5015850">
        <ele>335.4</ele>
        <time>2021-07-20T08:49:22Z</time>
      </trkpt>
      <trkpt lat="43.4780550" lon="-5.5016050">
        <ele>335.8</ele>
        <time>2021-07-20T08:49:23Z</time>
      </trkpt>
      <trkpt lat="43.4780520" lon="-5.5016270">
        <ele>336.2</ele>
        <time>2021-07-20T08:49:24Z</time>
      </trkpt>
      <trkpt lat="43.4780510" lon="-5.5016490">
        <ele>336.6</ele>
        <time>2021-07-20T08:49:25Z</time>
      </trkpt>
      <trkpt lat="43.4780520" lon="-5.5016680">
        <ele>337.0</ele>
        <time>2021-07-20T08:49:26Z</time>
      </trkpt>
      <trkpt lat="43.4780580" lon="-5.5017090">
        <ele>337.0</ele>
        <time>2021-07-20T08:49:28Z</time>
      </trkpt>
      <trkpt lat="43.4780700" lon="-5.5017840">
        <ele>337.4</ele>
        <time>2021-07-20T08:49:32Z</time>
      </trkpt>
      <trkpt lat="43.4780770" lon="-5.5018040">
        <ele>337.8</ele>
        <time>2021-07-20T08:49:33Z</time>
      </trkpt>
      <trkpt lat="43.4780800" lon="-5.5018200">
        <ele>338.2</ele>
        <time>2021-07-20T08:49:34Z</time>
      </trkpt>
      <trkpt lat="43.4780850" lon="-5.5018370">
        <ele>338.6</ele>
        <time>2021-07-20T08:49:35Z</time>
      </trkpt>
      <trkpt lat="43.4780910" lon="-5.5018550">
        <ele>339.0</ele>
        <time>2021-07-20T08:49:36Z</time>
      </trkpt>
      <trkpt lat="43.4781090" lon="-5.5020180">
        <ele>339.0</ele>
        <time>2021-07-20T08:49:45Z</time>
      </trkpt>
      <trkpt lat="43.4781170" lon="-5.5020550">
        <ele>339.4</ele>
        <time>2021-07-20T08:49:47Z</time>
      </trkpt>
      <trkpt lat="43.4781200" lon="-5.5020750">
        <ele>339.8</ele>
        <time>2021-07-20T08:49:48Z</time>
      </trkpt>
      <trkpt lat="43.4781260" lon="-5.5020950">
        <ele>340.2</ele>
        <time>2021-07-20T08:49:49Z</time>
      </trkpt>
      <trkpt lat="43.4781320" lon="-5.5021180">
        <ele>340.6</ele>
        <time>2021-07-20T08:49:50Z</time>
      </trkpt>
      <trkpt lat="43.4781370" lon="-5.5021390">
        <ele>341.0</ele>
        <time>2021-07-20T08:49:51Z</time>
      </trkpt>
      <trkpt lat="43.4781410" lon="-5.5021960">
        <ele>341.0</ele>
        <time>2021-07-20T08:49:54Z</time>
      </trkpt>
      <trkpt lat="43.4781510" lon="-5.5022550">
        <ele>341.4</ele>
        <time>2021-07-20T08:49:57Z</time>
      </trkpt>
      <trkpt lat="43.4781550" lon="-5.5022760">
        <ele>342.0</ele>
        <time>2021-07-20T08:49:58Z</time>
      </trkpt>
      <trkpt lat="43.4781600" lon="-5.5023000">
        <ele>342.4</ele>
        <time>2021-07-20T08:49:59Z</time>
      </trkpt>
      <trkpt lat="43.4781660" lon="-5.5023200">
        <ele>342.8</ele>
        <time>2021-07-20T08:50:00Z</time>
      </trkpt>
      <trkpt lat="43.4781720" lon="-5.5023390">
        <ele>343.2</ele>
        <time>2021-07-20T08:50:01Z</time>
      </trkpt>
      <trkpt lat="43.4781780" lon="-5.5023790">
        <ele>343.2</ele>
        <time>2021-07-20T08:50:03Z</time>
      </trkpt>
      <trkpt lat="43.4782100" lon="-5.5025490">
        <ele>343.6</ele>
        <time>2021-07-20T08:50:12Z</time>
      </trkpt>
      <trkpt lat="43.4782120" lon="-5.5025720">
        <ele>344.0</ele>
        <time>2021-07-20T08:50:13Z</time>
      </trkpt>
      <trkpt lat="43.4782160" lon="-5.5025910">
        <ele>344.4</ele>
        <time>2021-07-20T08:50:14Z</time>
      </trkpt>
      <trkpt lat="43.4782230" lon="-5.5026090">
        <ele>344.8</ele>
        <time>2021-07-20T08:50:15Z</time>
      </trkpt>
      <trkpt lat="43.4782290" lon="-5.5026260">
        <ele>345.2</ele>
        <time>2021-07-20T08:50:16Z</time>
      </trkpt>
      <trkpt lat="43.4782360" lon="-5.5026740">
        <ele>345.2</ele>
        <time>2021-07-20T08:50:19Z</time>
      </trkpt>
      <trkpt lat="43.4782490" lon="-5.5027850">
        <ele>345.2</ele>
        <time>2021-07-20T08:50:25Z</time>
      </trkpt>
      <trkpt lat="43.4782540" lon="-5.5027990">
        <ele>345.6</ele>
        <time>2021-07-20T08:50:26Z</time>
      </trkpt>
      <trkpt lat="43.4782570" lon="-5.5028150">
        <ele>346.0</ele>
        <time>2021-07-20T08:50:27Z</time>
      </trkpt>
      <trkpt lat="43.4782590" lon="-5.5028320">
        <ele>346.4</ele>
        <time>2021-07-20T08:50:28Z</time>
      </trkpt>
      <trkpt lat="43.4782600" lon="-5.5028480">
        <ele>346.8</ele>
        <time>2021-07-20T08:50:29Z</time>
      </trkpt>
      <trkpt lat="43.4782620" lon="-5.5028650">
        <ele>347.2</ele>
        <time>2021-07-20T08:50:30Z</time>
      </trkpt>
      <trkpt lat="43.4782630" lon="-5.5028820">
        <ele>347.2</ele>
        <time>2021-07-20T08:50:31Z</time>
      </trkpt>
      <trkpt lat="43.4782620" lon="-5.5029380">
        <ele>347.2</ele>
        <time>2021-07-20T08:50:34Z</time>
      </trkpt>
      <trkpt lat="43.4782800" lon="-5.5030510">
        <ele>347.8</ele>
        <time>2021-07-20T08:50:40Z</time>
      </trkpt>
      <trkpt lat="43.4782830" lon="-5.5030700">
        <ele>348.2</ele>
        <time>2021-07-20T08:50:41Z</time>
      </trkpt>
      <trkpt lat="43.4782840" lon="-5.5030870">
        <ele>348.6</ele>
        <time>2021-07-20T08:50:42Z</time>
      </trkpt>
      <trkpt lat="43.4782870" lon="-5.5031090">
        <ele>349.4</ele>
        <time>2021-07-20T08:50:43Z</time>
      </trkpt>
      <trkpt lat="43.4782980" lon="-5.5032810">
        <ele>349.4</ele>
        <time>2021-07-20T08:50:51Z</time>
      </trkpt>
      <trkpt lat="43.4783070" lon="-5.5034590">
        <ele>349.4</ele>
        <time>2021-07-20T08:50:59Z</time>
      </trkpt>
      <trkpt lat="43.4783090" lon="-5.5034820">
        <ele>349.8</ele>
        <time>2021-07-20T08:51:00Z</time>
      </trkpt>
      <trkpt lat="43.4783140" lon="-5.5035070">
        <ele>350.2</ele>
        <time>2021-07-20T08:51:01Z</time>
      </trkpt>
      <trkpt lat="43.4783140" lon="-5.5035360">
        <ele>350.6</ele>
        <time>2021-07-20T08:51:02Z</time>
      </trkpt>
      <trkpt lat="43.4783170" lon="-5.5035630">
        <ele>351.0</ele>
        <time>2021-07-20T08:51:03Z</time>
      </trkpt>
      <trkpt lat="43.4783190" lon="-5.5035870">
        <ele>351.4</ele>
        <time>2021-07-20T08:51:04Z</time>
      </trkpt>
      <trkpt lat="43.4783120" lon="-5.5036880">
        <ele>351.4</ele>
        <time>2021-07-20T08:51:07Z</time>
      </trkpt>
      <trkpt lat="43.4782690" lon="-5.5038910">
        <ele>351.4</ele>
        <time>2021-07-20T08:51:14Z</time>
      </trkpt>
      <trkpt lat="43.4781850" lon="-5.5040330">
        <ele>351.4</ele>
        <time>2021-07-20T08:51:20Z</time>
      </trkpt>
      <trkpt lat="43.4780870" lon="-5.5041210">
        <ele>352.0</ele>
        <time>2021-07-20T08:51:26Z</time>
      </trkpt>
      <trkpt lat="43.4780680" lon="-5.5041400">
        <ele>352.4</ele>
        <time>2021-07-20T08:51:27Z</time>
      </trkpt>
      <trkpt lat="43.4780500" lon="-5.5041570">
        <ele>352.8</ele>
        <time>2021-07-20T08:51:28Z</time>
      </trkpt>
      <trkpt lat="43.4780370" lon="-5.5041770">
        <ele>353.2</ele>
        <time>2021-07-20T08:51:29Z</time>
      </trkpt>
      <trkpt lat="43.4780160" lon="-5.5042000">
        <ele>353.6</ele>
        <time>2021-07-20T08:51:30Z</time>
      </trkpt>
      <trkpt lat="43.4779640" lon="-5.5042570">
        <ele>353.6</ele>
        <time>2021-07-20T08:51:33Z</time>
      </trkpt>
      <trkpt lat="43.4778750" lon="-5.5043940">
        <ele>353.6</ele>
        <time>2021-07-20T08:51:39Z</time>
      </trkpt>
      <trkpt lat="43.4777860" lon="-5.5045320">
        <ele>353.6</ele>
        <time>2021-07-20T08:51:45Z</time>
      </trkpt>
      <trkpt lat="43.4777720" lon="-5.5045450">
        <ele>354.0</ele>
        <time>2021-07-20T08:51:46Z</time>
      </trkpt>
      <trkpt lat="43.4777540" lon="-5.5045590">
        <ele>354.4</ele>
        <time>2021-07-20T08:51:47Z</time>
      </trkpt>
      <trkpt lat="43.4777370" lon="-5.5045730">
        <ele>354.8</ele>
        <time>2021-07-20T08:51:48Z</time>
      </trkpt>
      <trkpt lat="43.4777180" lon="-5.5045870">
        <ele>355.2</ele>
        <time>2021-07-20T08:51:49Z</time>
      </trkpt>
      <trkpt lat="43.4776990" lon="-5.5046010">
        <ele>355.6</ele>
        <time>2021-07-20T08:51:50Z</time>
      </trkpt>
      <trkpt lat="43.4776400" lon="-5.5046410">
        <ele>355.6</ele>
        <time>2021-07-20T08:51:53Z</time>
      </trkpt>
      <trkpt lat="43.4774740" lon="-5.5047640">
        <ele>355.6</ele>
        <time>2021-07-20T08:52:01Z</time>
      </trkpt>
      <trkpt lat="43.4773530" lon="-5.5048650">
        <ele>356.0</ele>
        <time>2021-07-20T08:52:07Z</time>
      </trkpt>
      <trkpt lat="43.4773330" lon="-5.5048800">
        <ele>356.4</ele>
        <time>2021-07-20T08:52:08Z</time>
      </trkpt>
      <trkpt lat="43.4773150" lon="-5.5048950">
        <ele>356.8</ele>
        <time>2021-07-20T08:52:09Z</time>
      </trkpt>
      <trkpt lat="43.4772980" lon="-5.5049160">
        <ele>357.2</ele>
        <time>2021-07-20T08:52:10Z</time>
      </trkpt>
      <trkpt lat="43.4772810" lon="-5.5049300">
        <ele>357.8</ele>
        <time>2021-07-20T08:52:11Z</time>
      </trkpt>
      <trkpt lat="43.4772390" lon="-5.5049660">
        <ele>357.8</ele>
        <time>2021-07-20T08:52:13Z</time>
      </trkpt>
      <trkpt lat="43.4771100" lon="-5.5050810">
        <ele>357.8</ele>
        <time>2021-07-20T08:52:20Z</time>
      </trkpt>
      <trkpt lat="43.4770480" lon="-5.5051260">
        <ele>358.2</ele>
        <time>2021-07-20T08:52:23Z</time>
      </trkpt>
      <trkpt lat="43.4770290" lon="-5.5051420">
        <ele>358.6</ele>
        <time>2021-07-20T08:52:24Z</time>
      </trkpt>
      <trkpt lat="43.4770110" lon="-5.5051560">
        <ele>359.0</ele>
        <time>2021-07-20T08:52:25Z</time>
      </trkpt>
      <trkpt lat="43.4769920" lon="-5.5051770">
        <ele>359.4</ele>
        <time>2021-07-20T08:52:26Z</time>
      </trkpt>
      <trkpt lat="43.4769710" lon="-5.5052010">
        <ele>359.8</ele>
        <time>2021-07-20T08:52:27Z</time>
      </trkpt>
      <trkpt lat="43.4769390" lon="-5.5052560">
        <ele>359.8</ele>
        <time>2021-07-20T08:52:29Z</time>
      </trkpt>
      <trkpt lat="43.4768630" lon="-5.5054650">
        <ele>359.8</ele>
        <time>2021-07-20T08:52:36Z</time>
      </trkpt>
      <trkpt lat="43.4767420" lon="-5.5055560">
        <ele>359.8</ele>
        <time>2021-07-20T08:52:41Z</time>
      </trkpt>
      <trkpt lat="43.4766750" lon="-5.5055600">
        <ele>359.8</ele>
        <time>2021-07-20T08:52:43Z</time>
      </trkpt>
      <trkpt lat="43.4765530" lon="-5.5055700">
        <ele>359.8</ele>
        <time>2021-07-20T08:52:47Z</time>
      </trkpt>
      <trkpt lat="43.4763440" lon="-5.5056430">
        <ele>359.8</ele>
        <time>2021-07-20T08:52:54Z</time>
      </trkpt>
      <trkpt lat="43.4762840" lon="-5.5056540">
        <ele>359.8</ele>
        <time>2021-07-20T08:52:56Z</time>
      </trkpt>
      <trkpt lat="43.4761730" lon="-5.5056910">
        <ele>359.8</ele>
        <time>2021-07-20T08:53:00Z</time>
      </trkpt>
      <trkpt lat="43.4759510" lon="-5.5057940">
        <ele>359.8</ele>
        <time>2021-07-20T08:53:08Z</time>
      </trkpt>
      <trkpt lat="43.4758900" lon="-5.5058190">
        <ele>360.6</ele>
        <time>2021-07-20T08:53:11Z</time>
      </trkpt>
      <trkpt lat="43.4758710" lon="-5.5058260">
        <ele>361.0</ele>
        <time>2021-07-20T08:53:12Z</time>
      </trkpt>
      <trkpt lat="43.4758530" lon="-5.5058320">
        <ele>361.4</ele>
        <time>2021-07-20T08:53:13Z</time>
      </trkpt>
      <trkpt lat="43.4758320" lon="-5.5058380">
        <ele>361.8</ele>
        <time>2021-07-20T08:53:14Z</time>
      </trkpt>
      <trkpt lat="43.4758120" lon="-5.5058450">
        <ele>361.8</ele>
        <time>2021-07-20T08:53:15Z</time>
      </trkpt>
      <trkpt lat="43.4757540" lon="-5.5058590">
        <ele>361.8</ele>
        <time>2021-07-20T08:53:18Z</time>
      </trkpt>
      <trkpt lat="43.4756880" lon="-5.5058610">
        <ele>361.8</ele>
        <time>2021-07-20T08:53:21Z</time>
      </trkpt>
      <trkpt lat="43.4756680" lon="-5.5058600">
        <ele>361.8</ele>
        <time>2021-07-20T08:53:22Z</time>
      </trkpt>
      <trkpt lat="43.4755700" lon="-5.5058470">
        <ele>362.2</ele>
        <time>2021-07-20T08:53:27Z</time>
      </trkpt>
      <trkpt lat="43.4755510" lon="-5.5058430">
        <ele>362.6</ele>
        <time>2021-07-20T08:53:28Z</time>
      </trkpt>
      <trkpt lat="43.4755300" lon="-5.5058480">
        <ele>363.0</ele>
        <time>2021-07-20T08:53:29Z</time>
      </trkpt>
      <trkpt lat="43.4755120" lon="-5.5058470">
        <ele>363.4</ele>
        <time>2021-07-20T08:53:30Z</time>
      </trkpt>
      <trkpt lat="43.4754900" lon="-5.5058570">
        <ele>363.8</ele>
        <time>2021-07-20T08:53:31Z</time>
      </trkpt>
      <trkpt lat="43.4754020" lon="-5.5058670">
        <ele>363.8</ele>
        <time>2021-07-20T08:53:36Z</time>
      </trkpt>
      <trkpt lat="43.4753430" lon="-5.5059320">
        <ele>364.2</ele>
        <time>2021-07-20T08:53:41Z</time>
      </trkpt>
      <trkpt lat="43.4753330" lon="-5.5059550">
        <ele>364.6</ele>
        <time>2021-07-20T08:53:42Z</time>
      </trkpt>
      <trkpt lat="43.4753210" lon="-5.5059670">
        <ele>365.0</ele>
        <time>2021-07-20T08:53:43Z</time>
      </trkpt>
      <trkpt lat="43.4753110" lon="-5.5059840">
        <ele>365.6</ele>
        <time>2021-07-20T08:53:44Z</time>
      </trkpt>
      <trkpt lat="43.4752990" lon="-5.5059980">
        <ele>366.0</ele>
        <time>2021-07-20T08:53:45Z</time>
      </trkpt>
      <trkpt lat="43.4752570" lon="-5.5060960">
        <ele>366.0</ele>
        <time>2021-07-20T08:53:50Z</time>
      </trkpt>
      <trkpt lat="43.4752490" lon="-5.5062170">
        <ele>366.0</ele>
        <time>2021-07-20T08:53:57Z</time>
      </trkpt>
      <trkpt lat="43.4752470" lon="-5.5062390">
        <ele>366.4</ele>
        <time>2021-07-20T08:53:58Z</time>
      </trkpt>
      <trkpt lat="43.4752440" lon="-5.5062580">
        <ele>366.8</ele>
        <time>2021-07-20T08:53:59Z</time>
      </trkpt>
      <trkpt lat="43.4752390" lon="-5.5062800">
        <ele>367.2</ele>
        <time>2021-07-20T08:54:00Z</time>
      </trkpt>
      <trkpt lat="43.4752350" lon="-5.5063040">
        <ele>368.0</ele>
        <time>2021-07-20T08:54:01Z</time>
      </trkpt>
      <trkpt lat="43.4752260" lon="-5.5064080">
        <ele>368.0</ele>
        <time>2021-07-20T08:54:06Z</time>
      </trkpt>
      <trkpt lat="43.4752180" lon="-5.5064260">
        <ele>368.0</ele>
        <time>2021-07-20T08:54:08Z</time>
      </trkpt>
      <trkpt lat="43.4752040" lon="-5.5065100">
        <ele>368.8</ele>
        <time>2021-07-20T08:57:02Z</time>
      </trkpt>
      <trkpt lat="43.4752090" lon="-5.5065280">
        <ele>369.2</ele>
        <time>2021-07-20T08:57:03Z</time>
      </trkpt>
      <trkpt lat="43.4752110" lon="-5.5065500">
        <ele>369.6</ele>
        <time>2021-07-20T08:57:04Z</time>
      </trkpt>
      <trkpt lat="43.4752130" lon="-5.5065720">
        <ele>370.0</ele>
        <time>2021-07-20T08:57:05Z</time>
      </trkpt>
      <trkpt lat="43.4752270" lon="-5.5066530">
        <ele>370.0</ele>
        <time>2021-07-20T08:57:08Z</time>
      </trkpt>
      <trkpt lat="43.4752260" lon="-5.5067560">
        <ele>370.0</ele>
        <time>2021-07-20T08:57:12Z</time>
      </trkpt>
      <trkpt lat="43.4752320" lon="-5.5068190">
        <ele>370.4</ele>
        <time>2021-07-20T08:57:15Z</time>
      </trkpt>
      <trkpt lat="43.4752350" lon="-5.5068410">
        <ele>371.0</ele>
        <time>2021-07-20T08:57:16Z</time>
      </trkpt>
      <trkpt lat="43.4752360" lon="-5.5068660">
        <ele>371.8</ele>
        <time>2021-07-20T08:57:17Z</time>
      </trkpt>
      <trkpt lat="43.4752380" lon="-5.5068890">
        <ele>372.2</ele>
        <time>2021-07-20T08:57:18Z</time>
      </trkpt>
      <trkpt lat="43.4752360" lon="-5.5070430">
        <ele>372.2</ele>
        <time>2021-07-20T08:57:25Z</time>
      </trkpt>
      <trkpt lat="43.4752400" lon="-5.5070860">
        <ele>372.2</ele>
        <time>2021-07-20T08:57:27Z</time>
      </trkpt>
      <trkpt lat="43.4752390" lon="-5.5071500">
        <ele>372.6</ele>
        <time>2021-07-20T08:57:30Z</time>
      </trkpt>
      <trkpt lat="43.4752390" lon="-5.5071700">
        <ele>373.0</ele>
        <time>2021-07-20T08:57:31Z</time>
      </trkpt>
      <trkpt lat="43.4752390" lon="-5.5071890">
        <ele>373.4</ele>
        <time>2021-07-20T08:57:32Z</time>
      </trkpt>
      <trkpt lat="43.4752330" lon="-5.5072170">
        <ele>373.8</ele>
        <time>2021-07-20T08:57:33Z</time>
      </trkpt>
      <trkpt lat="43.4752340" lon="-5.5072410">
        <ele>374.4</ele>
        <time>2021-07-20T08:57:34Z</time>
      </trkpt>
      <trkpt lat="43.4752320" lon="-5.5073080">
        <ele>374.4</ele>
        <time>2021-07-20T08:57:37Z</time>
      </trkpt>
      <trkpt lat="43.4752430" lon="-5.5074090">
        <ele>375.2</ele>
        <time>2021-07-20T08:57:42Z</time>
      </trkpt>
      <trkpt lat="43.4752440" lon="-5.5074330">
        <ele>375.6</ele>
        <time>2021-07-20T08:57:43Z</time>
      </trkpt>
      <trkpt lat="43.4752470" lon="-5.5074580">
        <ele>376.0</ele>
        <time>2021-07-20T08:57:44Z</time>
      </trkpt>
      <trkpt lat="43.4752490" lon="-5.5074820">
        <ele>376.4</ele>
        <time>2021-07-20T08:57:45Z</time>
      </trkpt>
      <trkpt lat="43.4752520" lon="-5.5076070">
        <ele>376.4</ele>
        <time>2021-07-20T08:57:51Z</time>
      </trkpt>
      <trkpt lat="43.4752540" lon="-5.5076420">
        <ele>376.4</ele>
        <time>2021-07-20T08:57:53Z</time>
      </trkpt>
      <trkpt lat="43.4752600" lon="-5.5076820">
        <ele>376.8</ele>
        <time>2021-07-20T08:57:55Z</time>
      </trkpt>
      <trkpt lat="43.4752610" lon="-5.5077030">
        <ele>377.2</ele>
        <time>2021-07-20T08:57:56Z</time>
      </trkpt>
      <trkpt lat="43.4752610" lon="-5.5077300">
        <ele>377.6</ele>
        <time>2021-07-20T08:57:57Z</time>
      </trkpt>
      <trkpt lat="43.4752580" lon="-5.5077610">
        <ele>378.0</ele>
        <time>2021-07-20T08:57:58Z</time>
      </trkpt>
      <trkpt lat="43.4752580" lon="-5.5077930">
        <ele>378.4</ele>
        <time>2021-07-20T08:57:59Z</time>
      </trkpt>
      <trkpt lat="43.4752580" lon="-5.5078170">
        <ele>378.4</ele>
        <time>2021-07-20T08:58:00Z</time>
      </trkpt>
      <trkpt lat="43.4752660" lon="-5.5080180">
        <ele>378.8</ele>
        <time>2021-07-20T08:58:08Z</time>
      </trkpt>
      <trkpt lat="43.4752630" lon="-5.5080390">
        <ele>379.2</ele>
        <time>2021-07-20T08:58:09Z</time>
      </trkpt>
      <trkpt lat="43.4752610" lon="-5.5080640">
        <ele>379.6</ele>
        <time>2021-07-20T08:58:10Z</time>
      </trkpt>
      <trkpt lat="43.4752600" lon="-5.5080870">
        <ele>380.0</ele>
        <time>2021-07-20T08:58:11Z</time>
      </trkpt>
      <trkpt lat="43.4752620" lon="-5.5081080">
        <ele>380.4</ele>
        <time>2021-07-20T08:58:12Z</time>
      </trkpt>
      <trkpt lat="43.4752700" lon="-5.5081720">
        <ele>380.4</ele>
        <time>2021-07-20T08:58:15Z</time>
      </trkpt>
      <trkpt lat="43.4752560" lon="-5.5083380">
        <ele>380.8</ele>
        <time>2021-07-20T08:58:23Z</time>
      </trkpt>
      <trkpt lat="43.4752470" lon="-5.5083530">
        <ele>381.2</ele>
        <time>2021-07-20T08:58:24Z</time>
      </trkpt>
      <trkpt lat="43.4752390" lon="-5.5083730">
        <ele>381.8</ele>
        <time>2021-07-20T08:58:25Z</time>
      </trkpt>
      <trkpt lat="43.4752290" lon="-5.5083890">
        <ele>382.2</ele>
        <time>2021-07-20T08:58:26Z</time>
      </trkpt>
      <trkpt lat="43.4752170" lon="-5.5084080">
        <ele>382.6</ele>
        <time>2021-07-20T08:58:27Z</time>
      </trkpt>
      <trkpt lat="43.4751980" lon="-5.5084450">
        <ele>382.6</ele>
        <time>2021-07-20T08:58:29Z</time>
      </trkpt>
      <trkpt lat="43.4751250" lon="-5.5085200">
        <ele>382.6</ele>
        <time>2021-07-20T08:58:35Z</time>
      </trkpt>
      <trkpt lat="43.4751150" lon="-5.5085250">
        <ele>383.0</ele>
        <time>2021-07-20T08:58:36Z</time>
      </trkpt>
      <trkpt lat="43.4751020" lon="-5.5085320">
        <ele>383.4</ele>
        <time>2021-07-20T08:58:37Z</time>
      </trkpt>
      <trkpt lat="43.4750930" lon="-5.5085420">
        <ele>383.8</ele>
        <time>2021-07-20T08:58:38Z</time>
      </trkpt>
      <trkpt lat="43.4750860" lon="-5.5085450">
        <ele>384.2</ele>
        <time>2021-07-20T08:58:39Z</time>
      </trkpt>
      <trkpt lat="43.4750800" lon="-5.5085530">
        <ele>384.8</ele>
        <time>2021-07-20T08:58:40Z</time>
      </trkpt>
      <trkpt lat="43.4750750" lon="-5.5085620">
        <ele>384.8</ele>
        <time>2021-07-20T08:58:41Z</time>
      </trkpt>
      <trkpt lat="43.4749880" lon="-5.5086230">
        <ele>384.8</ele>
        <time>2021-07-20T08:58:48Z</time>
      </trkpt>
      <trkpt lat="43.4749380" lon="-5.5086700">
        <ele>385.2</ele>
        <time>2021-07-20T08:58:52Z</time>
      </trkpt>
      <trkpt lat="43.4749270" lon="-5.5086810">
        <ele>385.6</ele>
        <time>2021-07-20T08:58:53Z</time>
      </trkpt>
      <trkpt lat="43.4749160" lon="-5.5086980">
        <ele>386.0</ele>
        <time>2021-07-20T08:58:54Z</time>
      </trkpt>
      <trkpt lat="43.4749070" lon="-5.5087080">
        <ele>386.4</ele>
        <time>2021-07-20T08:58:55Z</time>
      </trkpt>
      <trkpt lat="43.4748890" lon="-5.5087280">
        <ele>386.8</ele>
        <time>2021-07-20T08:58:56Z</time>
      </trkpt>
      <trkpt lat="43.4747890" lon="-5.5088110">
        <ele>386.8</ele>
        <time>2021-07-20T08:59:04Z</time>
      </trkpt>
      <trkpt lat="43.4747570" lon="-5.5088420">
        <ele>387.2</ele>
        <time>2021-07-20T08:59:07Z</time>
      </trkpt>
      <trkpt lat="43.4747470" lon="-5.5088560">
        <ele>387.6</ele>
        <time>2021-07-20T08:59:08Z</time>
      </trkpt>
      <trkpt lat="43.4747350" lon="-5.5088650">
        <ele>388.0</ele>
        <time>2021-07-20T08:59:09Z</time>
      </trkpt>
      <trkpt lat="43.4747250" lon="-5.5088760">
        <ele>388.4</ele>
        <time>2021-07-20T08:59:10Z</time>
      </trkpt>
      <trkpt lat="43.4747130" lon="-5.5088890">
        <ele>388.8</ele>
        <time>2021-07-20T08:59:11Z</time>
      </trkpt>
      <trkpt lat="43.4746970" lon="-5.5089070">
        <ele>388.8</ele>
        <time>2021-07-20T08:59:12Z</time>
      </trkpt>
      <trkpt lat="43.4745950" lon="-5.5090350">
        <ele>388.8</ele>
        <time>2021-07-20T08:59:20Z</time>
      </trkpt>
      <trkpt lat="43.4745690" lon="-5.5090850">
        <ele>389.4</ele>
        <time>2021-07-20T08:59:23Z</time>
      </trkpt>
      <trkpt lat="43.4745600" lon="-5.5091040">
        <ele>389.8</ele>
        <time>2021-07-20T08:59:24Z</time>
      </trkpt>
      <trkpt lat="43.4745540" lon="-5.5091200">
        <ele>390.2</ele>
        <time>2021-07-20T08:59:25Z</time>
      </trkpt>
      <trkpt lat="43.4745480" lon="-5.5091420">
        <ele>390.6</ele>
        <time>2021-07-20T08:59:26Z</time>
      </trkpt>
      <trkpt lat="43.4745470" lon="-5.5091570">
        <ele>391.0</ele>
        <time>2021-07-20T08:59:27Z</time>
      </trkpt>
      <trkpt lat="43.4745060" lon="-5.5092480">
        <ele>391.0</ele>
        <time>2021-07-20T08:59:33Z</time>
      </trkpt>
      <trkpt lat="43.4744830" lon="-5.5092970">
        <ele>391.4</ele>
        <time>2021-07-20T08:59:36Z</time>
      </trkpt>
      <trkpt lat="43.4744740" lon="-5.5093160">
        <ele>391.8</ele>
        <time>2021-07-20T08:59:37Z</time>
      </trkpt>
      <trkpt lat="43.4744670" lon="-5.5093290">
        <ele>392.2</ele>
        <time>2021-07-20T08:59:38Z</time>
      </trkpt>
      <trkpt lat="43.4744560" lon="-5.5093500">
        <ele>392.6</ele>
        <time>2021-07-20T08:59:39Z</time>
      </trkpt>
      <trkpt lat="43.4744580" lon="-5.5093660">
        <ele>393.0</ele>
        <time>2021-07-20T08:59:40Z</time>
      </trkpt>
      <trkpt lat="43.4744340" lon="-5.5094300">
        <ele>393.0</ele>
        <time>2021-07-20T08:59:44Z</time>
      </trkpt>
      <trkpt lat="43.4744070" lon="-5.5094940">
        <ele>393.0</ele>
        <time>2021-07-20T08:59:48Z</time>
      </trkpt>
      <trkpt lat="43.4744030" lon="-5.5095100">
        <ele>393.4</ele>
        <time>2021-07-20T08:59:49Z</time>
      </trkpt>
      <trkpt lat="43.4743960" lon="-5.5095280">
        <ele>393.8</ele>
        <time>2021-07-20T08:59:50Z</time>
      </trkpt>
      <trkpt lat="43.4743920" lon="-5.5095460">
        <ele>394.2</ele>
        <time>2021-07-20T08:59:51Z</time>
      </trkpt>
      <trkpt lat="43.4743840" lon="-5.5095620">
        <ele>394.8</ele>
        <time>2021-07-20T08:59:52Z</time>
      </trkpt>
      <trkpt lat="43.4743780" lon="-5.5095800">
        <ele>395.2</ele>
        <time>2021-07-20T08:59:53Z</time>
      </trkpt>
      <trkpt lat="43.4743720" lon="-5.5096090">
        <ele>395.2</ele>
        <time>2021-07-20T08:59:55Z</time>
      </trkpt>
      <trkpt lat="43.4743140" lon="-5.5097060">
        <ele>395.2</ele>
        <time>2021-07-20T09:00:02Z</time>
      </trkpt>
      <trkpt lat="43.4742840" lon="-5.5097730">
        <ele>395.6</ele>
        <time>2021-07-20T09:00:06Z</time>
      </trkpt>
      <trkpt lat="43.4742760" lon="-5.5097880">
        <ele>396.0</ele>
        <time>2021-07-20T09:00:07Z</time>
      </trkpt>
      <trkpt lat="43.4742670" lon="-5.5098020">
        <ele>396.4</ele>
        <time>2021-07-20T09:00:08Z</time>
      </trkpt>
      <trkpt lat="43.4742590" lon="-5.5098190">
        <ele>397.2</ele>
        <time>2021-07-20T09:00:09Z</time>
      </trkpt>
      <trkpt lat="43.4742350" lon="-5.5098490">
        <ele>397.2</ele>
        <time>2021-07-20T09:00:12Z</time>
      </trkpt>
      <trkpt lat="43.4741960" lon="-5.5099020">
        <ele>397.2</ele>
        <time>2021-07-20T09:00:17Z</time>
      </trkpt>
      <trkpt lat="43.4741900" lon="-5.5099190">
        <ele>397.2</ele>
        <time>2021-07-20T09:00:18Z</time>
      </trkpt>
      <trkpt lat="43.4741710" lon="-5.5099720">
        <ele>397.6</ele>
        <time>2021-07-20T09:00:21Z</time>
      </trkpt>
      <trkpt lat="43.4741660" lon="-5.5099880">
        <ele>398.0</ele>
        <time>2021-07-20T09:00:22Z</time>
      </trkpt>
      <trkpt lat="43.4741650" lon="-5.5100030">
        <ele>398.4</ele>
        <time>2021-07-20T09:00:23Z</time>
      </trkpt>
      <trkpt lat="43.4741650" lon="-5.5100220">
        <ele>398.8</ele>
        <time>2021-07-20T09:00:24Z</time>
      </trkpt>
      <trkpt lat="43.4741640" lon="-5.5100380">
        <ele>399.2</ele>
        <time>2021-07-20T09:00:25Z</time>
      </trkpt>
      <trkpt lat="43.4741610" lon="-5.5100530">
        <ele>399.2</ele>
        <time>2021-07-20T09:00:26Z</time>
      </trkpt>
      <trkpt lat="43.4741450" lon="-5.5101720">
        <ele>399.2</ele>
        <time>2021-07-20T09:00:34Z</time>
      </trkpt>
      <trkpt lat="43.4741440" lon="-5.5101910">
        <ele>399.2</ele>
        <time>2021-07-20T09:00:35Z</time>
      </trkpt>
      <trkpt lat="43.4741440" lon="-5.5102070">
        <ele>399.8</ele>
        <time>2021-07-20T09:00:36Z</time>
      </trkpt>
      <trkpt lat="43.4741400" lon="-5.5102280">
        <ele>400.2</ele>
        <time>2021-07-20T09:00:37Z</time>
      </trkpt>
      <trkpt lat="43.4741340" lon="-5.5102540">
        <ele>400.6</ele>
        <time>2021-07-20T09:00:38Z</time>
      </trkpt>
      <trkpt lat="43.4741300" lon="-5.5102740">
        <ele>401.0</ele>
        <time>2021-07-20T09:00:39Z</time>
      </trkpt>
      <trkpt lat="43.4741300" lon="-5.5102910">
        <ele>401.4</ele>
        <time>2021-07-20T09:00:40Z</time>
      </trkpt>
      <trkpt lat="43.4741160" lon="-5.5103640">
        <ele>401.4</ele>
        <time>2021-07-20T09:00:44Z</time>
      </trkpt>
      <trkpt lat="43.4740850" lon="-5.5105030">
        <ele>401.8</ele>
        <time>2021-07-20T09:00:51Z</time>
      </trkpt>
      <trkpt lat="43.4740850" lon="-5.5105180">
        <ele>402.2</ele>
        <time>2021-07-20T09:00:52Z</time>
      </trkpt>
      <trkpt lat="43.4740850" lon="-5.5105380">
        <ele>402.6</ele>
        <time>2021-07-20T09:00:53Z</time>
      </trkpt>
      <trkpt lat="43.4740850" lon="-5.5105560">
        <ele>403.0</ele>
        <time>2021-07-20T09:00:54Z</time>
      </trkpt>
      <trkpt lat="43.4740860" lon="-5.5105730">
        <ele>403.4</ele>
        <time>2021-07-20T09:00:55Z</time>
      </trkpt>
      <trkpt lat="43.4740780" lon="-5.5106520">
        <ele>403.4</ele>
        <time>2021-07-20T09:00:59Z</time>
      </trkpt>
      <trkpt lat="43.4740670" lon="-5.5107980">
        <ele>403.8</ele>
        <time>2021-07-20T09:01:06Z</time>
      </trkpt>
      <trkpt lat="43.4740640" lon="-5.5108160">
        <ele>404.2</ele>
        <time>2021-07-20T09:01:07Z</time>
      </trkpt>
      <trkpt lat="43.4740640" lon="-5.5108160">
        <ele>404.8</ele>
        <time>2021-07-20T09:01:08Z</time>
      </trkpt>
      <trkpt lat="43.4740640" lon="-5.5108340">
        <ele>405.2</ele>
        <time>2021-07-20T09:01:09Z</time>
      </trkpt>
      <trkpt lat="43.4740610" lon="-5.5108710">
        <ele>405.6</ele>
        <time>2021-07-20T09:01:10Z</time>
      </trkpt>
      <trkpt lat="43.4740510" lon="-5.5109260">
        <ele>405.6</ele>
        <time>2021-07-20T09:01:13Z</time>
      </trkpt>
      <trkpt lat="43.4740220" lon="-5.5110360">
        <ele>406.0</ele>
        <time>2021-07-20T09:01:20Z</time>
      </trkpt>
      <trkpt lat="43.4740210" lon="-5.5110560">
        <ele>406.4</ele>
        <time>2021-07-20T09:01:21Z</time>
      </trkpt>
      <trkpt lat="43.4740140" lon="-5.5110700">
        <ele>406.8</ele>
        <time>2021-07-20T09:01:22Z</time>
      </trkpt>
      <trkpt lat="43.4740070" lon="-5.5110900">
        <ele>407.6</ele>
        <time>2021-07-20T09:01:23Z</time>
      </trkpt>
      <trkpt lat="43.4739540" lon="-5.5112420">
        <ele>407.6</ele>
        <time>2021-07-20T09:01:31Z</time>
      </trkpt>
      <trkpt lat="43.4739220" lon="-5.5113480">
        <ele>408.0</ele>
        <time>2021-07-20T09:01:36Z</time>
      </trkpt>
      <trkpt lat="43.4739160" lon="-5.5113770">
        <ele>408.4</ele>
        <time>2021-07-20T09:01:37Z</time>
      </trkpt>
      <trkpt lat="43.4739070" lon="-5.5114000">
        <ele>408.8</ele>
        <time>2021-07-20T09:01:38Z</time>
      </trkpt>
      <trkpt lat="43.4738950" lon="-5.5114250">
        <ele>409.4</ele>
        <time>2021-07-20T09:01:39Z</time>
      </trkpt>
      <trkpt lat="43.4738880" lon="-5.5114450">
        <ele>409.8</ele>
        <time>2021-07-20T09:01:40Z</time>
      </trkpt>
      <trkpt lat="43.4738770" lon="-5.5114830">
        <ele>409.8</ele>
        <time>2021-07-20T09:01:42Z</time>
      </trkpt>
      <trkpt lat="43.4738320" lon="-5.5116000">
        <ele>409.8</ele>
        <time>2021-07-20T09:01:48Z</time>
      </trkpt>
      <trkpt lat="43.4738110" lon="-5.5116620">
        <ele>410.2</ele>
        <time>2021-07-20T09:01:51Z</time>
      </trkpt>
      <trkpt lat="43.4738040" lon="-5.5116810">
        <ele>410.6</ele>
        <time>2021-07-20T09:01:52Z</time>
      </trkpt>
      <trkpt lat="43.4737960" lon="-5.5117000">
        <ele>411.0</ele>
        <time>2021-07-20T09:01:53Z</time>
      </trkpt>
      <trkpt lat="43.4737920" lon="-5.5117240">
        <ele>411.4</ele>
        <time>2021-07-20T09:01:54Z</time>
      </trkpt>
      <trkpt lat="43.4737890" lon="-5.5117430">
        <ele>411.8</ele>
        <time>2021-07-20T09:01:55Z</time>
      </trkpt>
      <trkpt lat="43.4737840" lon="-5.5117640">
        <ele>411.8</ele>
        <time>2021-07-20T09:01:56Z</time>
      </trkpt>
      <trkpt lat="43.4737460" lon="-5.5118870">
        <ele>411.8</ele>
        <time>2021-07-20T09:02:03Z</time>
      </trkpt>
      <trkpt lat="43.4737030" lon="-5.5120000">
        <ele>412.2</ele>
        <time>2021-07-20T09:02:08Z</time>
      </trkpt>
      <trkpt lat="43.4736960" lon="-5.5120230">
        <ele>412.6</ele>
        <time>2021-07-20T09:02:09Z</time>
      </trkpt>
      <trkpt lat="43.4736910" lon="-5.5120490">
        <ele>413.0</ele>
        <time>2021-07-20T09:02:10Z</time>
      </trkpt>
      <trkpt lat="43.4736880" lon="-5.5120790">
        <ele>413.4</ele>
        <time>2021-07-20T09:02:11Z</time>
      </trkpt>
      <trkpt lat="43.4736860" lon="-5.5121050">
        <ele>413.8</ele>
        <time>2021-07-20T09:02:12Z</time>
      </trkpt>
      <trkpt lat="43.4736680" lon="-5.5121900">
        <ele>413.8</ele>
        <time>2021-07-20T09:02:16Z</time>
      </trkpt>
      <trkpt lat="43.4736320" lon="-5.5123430">
        <ele>413.8</ele>
        <time>2021-07-20T09:02:24Z</time>
      </trkpt>
      <trkpt lat="43.4736250" lon="-5.5123800">
        <ele>414.2</ele>
        <time>2021-07-20T09:02:26Z</time>
      </trkpt>
      <trkpt lat="43.4736230" lon="-5.5123990">
        <ele>414.6</ele>
        <time>2021-07-20T09:02:27Z</time>
      </trkpt>
      <trkpt lat="43.4736210" lon="-5.5124180">
        <ele>415.0</ele>
        <time>2021-07-20T09:02:28Z</time>
      </trkpt>
      <trkpt lat="43.4736170" lon="-5.5124400">
        <ele>415.6</ele>
        <time>2021-07-20T09:02:29Z</time>
      </trkpt>
      <trkpt lat="43.4736140" lon="-5.5124600">
        <ele>416.0</ele>
        <time>2021-07-20T09:02:30Z</time>
      </trkpt>
      <trkpt lat="43.4736090" lon="-5.5124800">
        <ele>416.0</ele>
        <time>2021-07-20T09:02:31Z</time>
      </trkpt>
      <trkpt lat="43.4735760" lon="-5.5126490">
        <ele>416.0</ele>
        <time>2021-07-20T09:02:39Z</time>
      </trkpt>
      <trkpt lat="43.4735670" lon="-5.5127160">
        <ele>416.4</ele>
        <time>2021-07-20T09:02:42Z</time>
      </trkpt>
      <trkpt lat="43.4735640" lon="-5.5127370">
        <ele>416.8</ele>
        <time>2021-07-20T09:02:43Z</time>
      </trkpt>
      <trkpt lat="43.4735630" lon="-5.5127590">
        <ele>417.2</ele>
        <time>2021-07-20T09:02:44Z</time>
      </trkpt>
      <trkpt lat="43.4735620" lon="-5.5127810">
        <ele>417.6</ele>
        <time>2021-07-20T09:02:45Z</time>
      </trkpt>
      <trkpt lat="43.4735550" lon="-5.5128090">
        <ele>418.0</ele>
        <time>2021-07-20T09:02:46Z</time>
      </trkpt>
      <trkpt lat="43.4735470" lon="-5.5128380">
        <ele>418.0</ele>
        <time>2021-07-20T09:02:47Z</time>
      </trkpt>
      <trkpt lat="43.4735180" lon="-5.5130720">
        <ele>418.0</ele>
        <time>2021-07-20T09:02:57Z</time>
      </trkpt>
      <trkpt lat="43.4735080" lon="-5.5131380">
        <ele>418.4</ele>
        <time>2021-07-20T09:03:00Z</time>
      </trkpt>
      <trkpt lat="43.4735030" lon="-5.5131640">
        <ele>418.8</ele>
        <time>2021-07-20T09:03:01Z</time>
      </trkpt>
      <trkpt lat="43.4734980" lon="-5.5131910">
        <ele>419.8</ele>
        <time>2021-07-20T09:03:02Z</time>
      </trkpt>
      <trkpt lat="43.4734960" lon="-5.5132170">
        <ele>420.2</ele>
        <time>2021-07-20T09:03:03Z</time>
      </trkpt>
      <trkpt lat="43.4734970" lon="-5.5132630">
        <ele>420.2</ele>
        <time>2021-07-20T09:03:05Z</time>
      </trkpt>
      <trkpt lat="43.4734940" lon="-5.5134270">
        <ele>420.2</ele>
        <time>2021-07-20T09:03:12Z</time>
      </trkpt>
      <trkpt lat="43.4734900" lon="-5.5134670">
        <ele>420.6</ele>
        <time>2021-07-20T09:03:14Z</time>
      </trkpt>
      <trkpt lat="43.4734860" lon="-5.5134860">
        <ele>421.0</ele>
        <time>2021-07-20T09:03:15Z</time>
      </trkpt>
      <trkpt lat="43.4734820" lon="-5.5135060">
        <ele>421.4</ele>
        <time>2021-07-20T09:03:16Z</time>
      </trkpt>
      <trkpt lat="43.4734810" lon="-5.5135260">
        <ele>421.8</ele>
        <time>2021-07-20T09:03:17Z</time>
      </trkpt>
      <trkpt lat="43.4734770" lon="-5.5135470">
        <ele>422.2</ele>
        <time>2021-07-20T09:03:18Z</time>
      </trkpt>
      <trkpt lat="43.4734530" lon="-5.5137310">
        <ele>422.2</ele>
        <time>2021-07-20T09:03:27Z</time>
      </trkpt>
      <trkpt lat="43.4734350" lon="-5.5139050">
        <ele>422.6</ele>
        <time>2021-07-20T09:03:35Z</time>
      </trkpt>
      <trkpt lat="43.4734320" lon="-5.5139390">
        <ele>423.0</ele>
        <time>2021-07-20T09:03:36Z</time>
      </trkpt>
      <trkpt lat="43.4734280" lon="-5.5139700">
        <ele>423.4</ele>
        <time>2021-07-20T09:03:37Z</time>
      </trkpt>
      <trkpt lat="43.4734270" lon="-5.5139980">
        <ele>424.0</ele>
        <time>2021-07-20T09:03:38Z</time>
      </trkpt>
      <trkpt lat="43.4734270" lon="-5.5140210">
        <ele>424.4</ele>
        <time>2021-07-20T09:03:39Z</time>
      </trkpt>
      <trkpt lat="43.4734190" lon="-5.5141110">
        <ele>424.4</ele>
        <time>2021-07-20T09:03:43Z</time>
      </trkpt>
      <trkpt lat="43.4734500" lon="-5.5142860">
        <ele>424.4</ele>
        <time>2021-07-20T09:03:52Z</time>
      </trkpt>
      <trkpt lat="43.4734820" lon="-5.5143780">
        <ele>424.4</ele>
        <time>2021-07-20T09:03:57Z</time>
      </trkpt>
      <trkpt lat="43.4734930" lon="-5.5143820">
        <ele>424.4</ele>
        <time>2021-07-20T09:03:58Z</time>
      </trkpt>
      <trkpt lat="43.4734950" lon="-5.5143830">
        <ele>424.4</ele>
        <time>2021-07-20T09:03:59Z</time>
      </trkpt>
      <trkpt lat="43.4735780" lon="-5.5143200">
        <ele>430.4</ele>
        <time>2021-07-20T09:26:56Z</time>
      </trkpt>
      <trkpt lat="43.4735960" lon="-5.5143120">
        <ele>430.4</ele>
        <time>2021-07-20T09:26:57Z</time>
      </trkpt>
      <trkpt lat="43.4736250" lon="-5.5143040">
        <ele>430.4</ele>
        <time>2021-07-20T09:26:58Z</time>
      </trkpt>
      <trkpt lat="43.4736790" lon="-5.5142940">
        <ele>430.4</ele>
        <time>2021-07-20T09:27:00Z</time>
      </trkpt>
      <trkpt lat="43.4737910" lon="-5.5142870">
        <ele>430.4</ele>
        <time>2021-07-20T09:27:03Z</time>
      </trkpt>
      <trkpt lat="43.4739670" lon="-5.5142950">
        <ele>430.4</ele>
        <time>2021-07-20T09:27:07Z</time>
      </trkpt>
      <trkpt lat="43.4740730" lon="-5.5142880">
        <ele>430.4</ele>
        <time>2021-07-20T09:27:09Z</time>
      </trkpt>
      <trkpt lat="43.4741240" lon="-5.5142830">
        <ele>430.4</ele>
        <time>2021-07-20T09:27:10Z</time>
      </trkpt>
      <trkpt lat="43.4742840" lon="-5.5142650">
        <ele>430.0</ele>
        <time>2021-07-20T09:27:13Z</time>
      </trkpt>
      <trkpt lat="43.4743410" lon="-5.5142530">
        <ele>429.4</ele>
        <time>2021-07-20T09:27:14Z</time>
      </trkpt>
      <trkpt lat="43.4744000" lon="-5.5142370">
        <ele>428.8</ele>
        <time>2021-07-20T09:27:15Z</time>
      </trkpt>
      <trkpt lat="43.4744610" lon="-5.5142150">
        <ele>428.2</ele>
        <time>2021-07-20T09:27:16Z</time>
      </trkpt>
      <trkpt lat="43.4745240" lon="-5.5141870">
        <ele>427.8</ele>
        <time>2021-07-20T09:27:17Z</time>
      </trkpt>
      <trkpt lat="43.4746530" lon="-5.5141200">
        <ele>427.2</ele>
        <time>2021-07-20T09:27:19Z</time>
      </trkpt>
      <trkpt lat="43.4747230" lon="-5.5140690">
        <ele>426.8</ele>
        <time>2021-07-20T09:27:20Z</time>
      </trkpt>
      <trkpt lat="43.4747920" lon="-5.5140220">
        <ele>426.2</ele>
        <time>2021-07-20T09:27:21Z</time>
      </trkpt>
      <trkpt lat="43.4748650" lon="-5.5139570">
        <ele>425.2</ele>
        <time>2021-07-20T09:27:22Z</time>
      </trkpt>
      <trkpt lat="43.4750190" lon="-5.5138160">
        <ele>424.8</ele>
        <time>2021-07-20T09:27:24Z</time>
      </trkpt>
      <trkpt lat="43.4750930" lon="-5.5137460">
        <ele>424.2</ele>
        <time>2021-07-20T09:27:25Z</time>
      </trkpt>
      <trkpt lat="43.4751660" lon="-5.5136790">
        <ele>423.4</ele>
        <time>2021-07-20T09:27:26Z</time>
      </trkpt>
      <trkpt lat="43.4752350" lon="-5.5136080">
        <ele>422.6</ele>
        <time>2021-07-20T09:27:27Z</time>
      </trkpt>
      <trkpt lat="43.4753110" lon="-5.5135360">
        <ele>421.8</ele>
        <time>2021-07-20T09:27:28Z</time>
      </trkpt>
      <trkpt lat="43.4753900" lon="-5.5134580">
        <ele>421.0</ele>
        <time>2021-07-20T09:27:29Z</time>
      </trkpt>
      <trkpt lat="43.4754640" lon="-5.5133840">
        <ele>420.2</ele>
        <time>2021-07-20T09:27:30Z</time>
      </trkpt>
      <trkpt lat="43.4755310" lon="-5.5133090">
        <ele>419.4</ele>
        <time>2021-07-20T09:27:31Z</time>
      </trkpt>
      <trkpt lat="43.4755940" lon="-5.5132380">
        <ele>418.6</ele>
        <time>2021-07-20T09:27:32Z</time>
      </trkpt>
      <trkpt lat="43.4756550" lon="-5.5131660">
        <ele>417.8</ele>
        <time>2021-07-20T09:27:33Z</time>
      </trkpt>
      <trkpt lat="43.4757150" lon="-5.5131020">
        <ele>417.2</ele>
        <time>2021-07-20T09:27:34Z</time>
      </trkpt>
      <trkpt lat="43.4757830" lon="-5.5130480">
        <ele>416.4</ele>
        <time>2021-07-20T09:27:35Z</time>
      </trkpt>
      <trkpt lat="43.4758580" lon="-5.5129970">
        <ele>415.8</ele>
        <time>2021-07-20T09:27:36Z</time>
      </trkpt>
      <trkpt lat="43.4759360" lon="-5.5129480">
        <ele>415.2</ele>
        <time>2021-07-20T09:27:37Z</time>
      </trkpt>
      <trkpt lat="43.4760120" lon="-5.5129040">
        <ele>414.4</ele>
        <time>2021-07-20T09:27:38Z</time>
      </trkpt>
      <trkpt lat="43.4760960" lon="-5.5128730">
        <ele>413.8</ele>
        <time>2021-07-20T09:27:39Z</time>
      </trkpt>
      <trkpt lat="43.4761800" lon="-5.5128520">
        <ele>413.2</ele>
        <time>2021-07-20T09:27:40Z</time>
      </trkpt>
      <trkpt lat="43.4762700" lon="-5.5128400">
        <ele>412.4</ele>
        <time>2021-07-20T09:27:41Z</time>
      </trkpt>
      <trkpt lat="43.4763660" lon="-5.5128410">
        <ele>411.8</ele>
        <time>2021-07-20T09:27:42Z</time>
      </trkpt>
      <trkpt lat="43.4764590" lon="-5.5128440">
        <ele>411.2</ele>
        <time>2021-07-20T09:27:43Z</time>
      </trkpt>
      <trkpt lat="43.4765550" lon="-5.5128570">
        <ele>410.4</ele>
        <time>2021-07-20T09:27:44Z</time>
      </trkpt>
      <trkpt lat="43.4766510" lon="-5.5128700">
        <ele>409.8</ele>
        <time>2021-07-20T09:27:45Z</time>
      </trkpt>
      <trkpt lat="43.4767430" lon="-5.5128870">
        <ele>408.4</ele>
        <time>2021-07-20T09:27:46Z</time>
      </trkpt>
      <trkpt lat="43.4768400" lon="-5.5129090">
        <ele>407.6</ele>
        <time>2021-07-20T09:27:47Z</time>
      </trkpt>
      <trkpt lat="43.4769380" lon="-5.5129330">
        <ele>406.8</ele>
        <time>2021-07-20T09:27:48Z</time>
      </trkpt>
      <trkpt lat="43.4770360" lon="-5.5129570">
        <ele>405.8</ele>
        <time>2021-07-20T09:27:49Z</time>
      </trkpt>
      <trkpt lat="43.4771330" lon="-5.5129840">
        <ele>404.8</ele>
        <time>2021-07-20T09:27:50Z</time>
      </trkpt>
      <trkpt lat="43.4772260" lon="-5.5130130">
        <ele>404.0</ele>
        <time>2021-07-20T09:27:51Z</time>
      </trkpt>
      <trkpt lat="43.4773220" lon="-5.5130510">
        <ele>403.0</ele>
        <time>2021-07-20T09:27:52Z</time>
      </trkpt>
      <trkpt lat="43.4774110" lon="-5.5130900">
        <ele>402.2</ele>
        <time>2021-07-20T09:27:53Z</time>
      </trkpt>
      <trkpt lat="43.4774980" lon="-5.5131340">
        <ele>401.4</ele>
        <time>2021-07-20T09:27:54Z</time>
      </trkpt>
      <trkpt lat="43.4775880" lon="-5.5131830">
        <ele>400.8</ele>
        <time>2021-07-20T09:27:55Z</time>
      </trkpt>
      <trkpt lat="43.4776760" lon="-5.5132370">
        <ele>399.8</ele>
        <time>2021-07-20T09:27:56Z</time>
      </trkpt>
      <trkpt lat="43.4777570" lon="-5.5132910">
        <ele>399.0</ele>
        <time>2021-07-20T09:27:57Z</time>
      </trkpt>
      <trkpt lat="43.4778340" lon="-5.5133460">
        <ele>398.2</ele>
        <time>2021-07-20T09:27:58Z</time>
      </trkpt>
      <trkpt lat="43.4779120" lon="-5.5134030">
        <ele>397.2</ele>
        <time>2021-07-20T09:27:59Z</time>
      </trkpt>
      <trkpt lat="43.4779910" lon="-5.5134720">
        <ele>396.2</ele>
        <time>2021-07-20T09:28:00Z</time>
      </trkpt>
      <trkpt lat="43.4780640" lon="-5.5135450">
        <ele>395.4</ele>
        <time>2021-07-20T09:28:01Z</time>
      </trkpt>
      <trkpt lat="43.4781340" lon="-5.5136270">
        <ele>394.6</ele>
        <time>2021-07-20T09:28:02Z</time>
      </trkpt>
      <trkpt lat="43.4782000" lon="-5.5137150">
        <ele>393.8</ele>
        <time>2021-07-20T09:28:03Z</time>
      </trkpt>
      <trkpt lat="43.4782650" lon="-5.5138060">
        <ele>393.0</ele>
        <time>2021-07-20T09:28:04Z</time>
      </trkpt>
      <trkpt lat="43.4783370" lon="-5.5138890">
        <ele>392.0</ele>
        <time>2021-07-20T09:28:05Z</time>
      </trkpt>
      <trkpt lat="43.4784070" lon="-5.5139690">
        <ele>391.2</ele>
        <time>2021-07-20T09:28:06Z</time>
      </trkpt>
      <trkpt lat="43.4784810" lon="-5.5140450">
        <ele>390.4</ele>
        <time>2021-07-20T09:28:07Z</time>
      </trkpt>
      <trkpt lat="43.4785660" lon="-5.5141150">
        <ele>389.4</ele>
        <time>2021-07-20T09:28:08Z</time>
      </trkpt>
      <trkpt lat="43.4786440" lon="-5.5141760">
        <ele>388.4</ele>
        <time>2021-07-20T09:28:09Z</time>
      </trkpt>
      <trkpt lat="43.4787270" lon="-5.5142440">
        <ele>387.6</ele>
        <time>2021-07-20T09:28:10Z</time>
      </trkpt>
      <trkpt lat="43.4788070" lon="-5.5143160">
        <ele>385.8</ele>
        <time>2021-07-20T09:28:11Z</time>
      </trkpt>
      <trkpt lat="43.4788890" lon="-5.5143970">
        <ele>384.8</ele>
        <time>2021-07-20T09:28:12Z</time>
      </trkpt>
      <trkpt lat="43.4789710" lon="-5.5144810">
        <ele>384.2</ele>
        <time>2021-07-20T09:28:13Z</time>
      </trkpt>
      <trkpt lat="43.4790470" lon="-5.5145760">
        <ele>383.4</ele>
        <time>2021-07-20T09:28:14Z</time>
      </trkpt>
      <trkpt lat="43.4791180" lon="-5.5146820">
        <ele>382.6</ele>
        <time>2021-07-20T09:28:15Z</time>
      </trkpt>
      <trkpt lat="43.4791870" lon="-5.5147840">
        <ele>382.0</ele>
        <time>2021-07-20T09:28:16Z</time>
      </trkpt>
      <trkpt lat="43.4792450" lon="-5.5149060">
        <ele>381.2</ele>
        <time>2021-07-20T09:28:17Z</time>
      </trkpt>
      <trkpt lat="43.4793030" lon="-5.5150260">
        <ele>380.2</ele>
        <time>2021-07-20T09:28:18Z</time>
      </trkpt>
      <trkpt lat="43.4793630" lon="-5.5151310">
        <ele>379.4</ele>
        <time>2021-07-20T09:28:19Z</time>
      </trkpt>
      <trkpt lat="43.4794250" lon="-5.5152210">
        <ele>378.4</ele>
        <time>2021-07-20T09:28:20Z</time>
      </trkpt>
      <trkpt lat="43.4794840" lon="-5.5153040">
        <ele>377.4</ele>
        <time>2021-07-20T09:28:21Z</time>
      </trkpt>
      <trkpt lat="43.4795440" lon="-5.5153960">
        <ele>376.2</ele>
        <time>2021-07-20T09:28:22Z</time>
      </trkpt>
      <trkpt lat="43.4796040" lon="-5.5155020">
        <ele>375.2</ele>
        <time>2021-07-20T09:28:23Z</time>
      </trkpt>
      <trkpt lat="43.4796550" lon="-5.5156120">
        <ele>374.0</ele>
        <time>2021-07-20T09:28:24Z</time>
      </trkpt>
      <trkpt lat="43.4797030" lon="-5.5157270">
        <ele>373.2</ele>
        <time>2021-07-20T09:28:25Z</time>
      </trkpt>
      <trkpt lat="43.4797480" lon="-5.5158420">
        <ele>372.2</ele>
        <time>2021-07-20T09:28:26Z</time>
      </trkpt>
      <trkpt lat="43.4797940" lon="-5.5159530">
        <ele>371.4</ele>
        <time>2021-07-20T09:28:27Z</time>
      </trkpt>
      <trkpt lat="43.4798440" lon="-5.5160660">
        <ele>370.6</ele>
        <time>2021-07-20T09:28:28Z</time>
      </trkpt>
      <trkpt lat="43.4799040" lon="-5.5161730">
        <ele>369.8</ele>
        <time>2021-07-20T09:28:29Z</time>
      </trkpt>
      <trkpt lat="43.4799680" lon="-5.5162870">
        <ele>369.0</ele>
        <time>2021-07-20T09:28:30Z</time>
      </trkpt>
      <trkpt lat="43.4800330" lon="-5.5163920">
        <ele>368.0</ele>
        <time>2021-07-20T09:28:31Z</time>
      </trkpt>
      <trkpt lat="43.4801000" lon="-5.5164870">
        <ele>367.2</ele>
        <time>2021-07-20T09:28:32Z</time>
      </trkpt>
      <trkpt lat="43.4801680" lon="-5.5165750">
        <ele>366.4</ele>
        <time>2021-07-20T09:28:33Z</time>
      </trkpt>
      <trkpt lat="43.4802360" lon="-5.5166580">
        <ele>365.4</ele>
        <time>2021-07-20T09:28:34Z</time>
      </trkpt>
      <trkpt lat="43.4803050" lon="-5.5167380">
        <ele>363.8</ele>
        <time>2021-07-20T09:28:35Z</time>
      </trkpt>
      <trkpt lat="43.4803790" lon="-5.5168120">
        <ele>362.8</ele>
        <time>2021-07-20T09:28:36Z</time>
      </trkpt>
      <trkpt lat="43.4804570" lon="-5.5168850">
        <ele>362.0</ele>
        <time>2021-07-20T09:28:37Z</time>
      </trkpt>
      <trkpt lat="43.4805390" lon="-5.5169600">
        <ele>361.0</ele>
        <time>2021-07-20T09:28:38Z</time>
      </trkpt>
      <trkpt lat="43.4806180" lon="-5.5170310">
        <ele>360.2</ele>
        <time>2021-07-20T09:28:39Z</time>
      </trkpt>
      <trkpt lat="43.4807020" lon="-5.5171000">
        <ele>359.2</ele>
        <time>2021-07-20T09:28:40Z</time>
      </trkpt>
      <trkpt lat="43.4807810" lon="-5.5171660">
        <ele>358.4</ele>
        <time>2021-07-20T09:28:41Z</time>
      </trkpt>
      <trkpt lat="43.4808570" lon="-5.5172250">
        <ele>357.4</ele>
        <time>2021-07-20T09:28:42Z</time>
      </trkpt>
      <trkpt lat="43.4809380" lon="-5.5172840">
        <ele>356.6</ele>
        <time>2021-07-20T09:28:43Z</time>
      </trkpt>
      <trkpt lat="43.4810210" lon="-5.5173460">
        <ele>355.6</ele>
        <time>2021-07-20T09:28:44Z</time>
      </trkpt>
      <trkpt lat="43.4811060" lon="-5.5174140">
        <ele>354.8</ele>
        <time>2021-07-20T09:28:45Z</time>
      </trkpt>
      <trkpt lat="43.4811850" lon="-5.5174860">
        <ele>354.0</ele>
        <time>2021-07-20T09:28:46Z</time>
      </trkpt>
      <trkpt lat="43.4812600" lon="-5.5175660">
        <ele>353.0</ele>
        <time>2021-07-20T09:28:47Z</time>
      </trkpt>
      <trkpt lat="43.4813300" lon="-5.5176540">
        <ele>352.2</ele>
        <time>2021-07-20T09:28:48Z</time>
      </trkpt>
      <trkpt lat="43.4813940" lon="-5.5177480">
        <ele>351.4</ele>
        <time>2021-07-20T09:28:49Z</time>
      </trkpt>
      <trkpt lat="43.4814570" lon="-5.5178400">
        <ele>350.6</ele>
        <time>2021-07-20T09:28:50Z</time>
      </trkpt>
      <trkpt lat="43.4815120" lon="-5.5179430">
        <ele>349.6</ele>
        <time>2021-07-20T09:28:51Z</time>
      </trkpt>
      <trkpt lat="43.4815620" lon="-5.5180580">
        <ele>348.8</ele>
        <time>2021-07-20T09:28:52Z</time>
      </trkpt>
      <trkpt lat="43.4816120" lon="-5.5181780">
        <ele>348.0</ele>
        <time>2021-07-20T09:28:53Z</time>
      </trkpt>
      <trkpt lat="43.4816510" lon="-5.5182940">
        <ele>347.0</ele>
        <time>2021-07-20T09:28:54Z</time>
      </trkpt>
      <trkpt lat="43.4816870" lon="-5.5184150">
        <ele>346.0</ele>
        <time>2021-07-20T09:28:55Z</time>
      </trkpt>
      <trkpt lat="43.4817220" lon="-5.5185370">
        <ele>345.0</ele>
        <time>2021-07-20T09:28:56Z</time>
      </trkpt>
      <trkpt lat="43.4817570" lon="-5.5186610">
        <ele>344.2</ele>
        <time>2021-07-20T09:28:57Z</time>
      </trkpt>
      <trkpt lat="43.4817940" lon="-5.5187920">
        <ele>343.2</ele>
        <time>2021-07-20T09:28:58Z</time>
      </trkpt>
      <trkpt lat="43.4818340" lon="-5.5189240">
        <ele>342.2</ele>
        <time>2021-07-20T09:28:59Z</time>
      </trkpt>
      <trkpt lat="43.4818800" lon="-5.5190560">
        <ele>340.6</ele>
        <time>2021-07-20T09:29:00Z</time>
      </trkpt>
      <trkpt lat="43.4819310" lon="-5.5191920">
        <ele>339.6</ele>
        <time>2021-07-20T09:29:01Z</time>
      </trkpt>
      <trkpt lat="43.4819820" lon="-5.5193250">
        <ele>339.0</ele>
        <time>2021-07-20T09:29:02Z</time>
      </trkpt>
      <trkpt lat="43.4820280" lon="-5.5194620">
        <ele>338.4</ele>
        <time>2021-07-20T09:29:03Z</time>
      </trkpt>
      <trkpt lat="43.4820670" lon="-5.5195990">
        <ele>337.6</ele>
        <time>2021-07-20T09:29:04Z</time>
      </trkpt>
      <trkpt lat="43.4821060" lon="-5.5197340">
        <ele>336.8</ele>
        <time>2021-07-20T09:29:05Z</time>
      </trkpt>
      <trkpt lat="43.4821410" lon="-5.5198580">
        <ele>336.0</ele>
        <time>2021-07-20T09:29:06Z</time>
      </trkpt>
      <trkpt lat="43.4821730" lon="-5.5199770">
        <ele>335.0</ele>
        <time>2021-07-20T09:29:07Z</time>
      </trkpt>
      <trkpt lat="43.4822010" lon="-5.5200980">
        <ele>334.0</ele>
        <time>2021-07-20T09:29:08Z</time>
      </trkpt>
      <trkpt lat="43.4822400" lon="-5.5202130">
        <ele>332.8</ele>
        <time>2021-07-20T09:29:09Z</time>
      </trkpt>
      <trkpt lat="43.4822840" lon="-5.5203150">
        <ele>331.8</ele>
        <time>2021-07-20T09:29:10Z</time>
      </trkpt>
      <trkpt lat="43.4823370" lon="-5.5204060">
        <ele>330.8</ele>
        <time>2021-07-20T09:29:11Z</time>
      </trkpt>
      <trkpt lat="43.4823900" lon="-5.5204920">
        <ele>329.6</ele>
        <time>2021-07-20T09:29:12Z</time>
      </trkpt>
      <trkpt lat="43.4824410" lon="-5.5205780">
        <ele>328.6</ele>
        <time>2021-07-20T09:29:13Z</time>
      </trkpt>
      <trkpt lat="43.4824830" lon="-5.5206740">
        <ele>327.6</ele>
        <time>2021-07-20T09:29:14Z</time>
      </trkpt>
      <trkpt lat="43.4825150" lon="-5.5207770">
        <ele>326.6</ele>
        <time>2021-07-20T09:29:15Z</time>
      </trkpt>
      <trkpt lat="43.4825390" lon="-5.5208900">
        <ele>325.6</ele>
        <time>2021-07-20T09:29:16Z</time>
      </trkpt>
      <trkpt lat="43.4825560" lon="-5.5209940">
        <ele>324.8</ele>
        <time>2021-07-20T09:29:17Z</time>
      </trkpt>
      <trkpt lat="43.4825700" lon="-5.5210990">
        <ele>324.0</ele>
        <time>2021-07-20T09:29:18Z</time>
      </trkpt>
      <trkpt lat="43.4825990" lon="-5.5212070">
        <ele>323.0</ele>
        <time>2021-07-20T09:29:19Z</time>
      </trkpt>
      <trkpt lat="43.4826390" lon="-5.5213150">
        <ele>322.2</ele>
        <time>2021-07-20T09:29:20Z</time>
      </trkpt>
      <trkpt lat="43.4826780" lon="-5.5214250">
        <ele>321.4</ele>
        <time>2021-07-20T09:29:21Z</time>
      </trkpt>
      <trkpt lat="43.4827680" lon="-5.5216130">
        <ele>319.8</ele>
        <time>2021-07-20T09:29:23Z</time>
      </trkpt>
      <trkpt lat="43.4828160" lon="-5.5217220">
        <ele>319.2</ele>
        <time>2021-07-20T09:29:24Z</time>
      </trkpt>
      <trkpt lat="43.4828580" lon="-5.5218250">
        <ele>318.6</ele>
        <time>2021-07-20T09:29:25Z</time>
      </trkpt>
      <trkpt lat="43.4828960" lon="-5.5219290">
        <ele>318.0</ele>
        <time>2021-07-20T09:29:26Z</time>
      </trkpt>
      <trkpt lat="43.4829380" lon="-5.5220380">
        <ele>317.2</ele>
        <time>2021-07-20T09:29:27Z</time>
      </trkpt>
      <trkpt lat="43.4829840" lon="-5.5221510">
        <ele>316.4</ele>
        <time>2021-07-20T09:29:28Z</time>
      </trkpt>
      <trkpt lat="43.4830350" lon="-5.5222580">
        <ele>315.6</ele>
        <time>2021-07-20T09:29:29Z</time>
      </trkpt>
      <trkpt lat="43.4830900" lon="-5.5223630">
        <ele>314.8</ele>
        <time>2021-07-20T09:29:30Z</time>
      </trkpt>
      <trkpt lat="43.4831480" lon="-5.5224670">
        <ele>313.2</ele>
        <time>2021-07-20T09:29:31Z</time>
      </trkpt>
      <trkpt lat="43.4832110" lon="-5.5225780">
        <ele>312.4</ele>
        <time>2021-07-20T09:29:32Z</time>
      </trkpt>
      <trkpt lat="43.4832700" lon="-5.5226840">
        <ele>311.6</ele>
        <time>2021-07-20T09:29:33Z</time>
      </trkpt>
      <trkpt lat="43.4833290" lon="-5.5227880">
        <ele>311.0</ele>
        <time>2021-07-20T09:29:34Z</time>
      </trkpt>
      <trkpt lat="43.4833850" lon="-5.5228950">
        <ele>310.2</ele>
        <time>2021-07-20T09:29:35Z</time>
      </trkpt>
      <trkpt lat="43.4834430" lon="-5.5230020">
        <ele>309.4</ele>
        <time>2021-07-20T09:29:36Z</time>
      </trkpt>
      <trkpt lat="43.4835020" lon="-5.5231110">
        <ele>308.6</ele>
        <time>2021-07-20T09:29:37Z</time>
      </trkpt>
      <trkpt lat="43.4835640" lon="-5.5232200">
        <ele>307.8</ele>
        <time>2021-07-20T09:29:38Z</time>
      </trkpt>
      <trkpt lat="43.4836280" lon="-5.5233350">
        <ele>307.0</ele>
        <time>2021-07-20T09:29:39Z</time>
      </trkpt>
      <trkpt lat="43.4836840" lon="-5.5234450">
        <ele>306.0</ele>
        <time>2021-07-20T09:29:40Z</time>
      </trkpt>
      <trkpt lat="43.4837450" lon="-5.5235550">
        <ele>305.2</ele>
        <time>2021-07-20T09:29:41Z</time>
      </trkpt>
      <trkpt lat="43.4838050" lon="-5.5236700">
        <ele>304.4</ele>
        <time>2021-07-20T09:29:42Z</time>
      </trkpt>
      <trkpt lat="43.4838640" lon="-5.5237920">
        <ele>303.4</ele>
        <time>2021-07-20T09:29:43Z</time>
      </trkpt>
      <trkpt lat="43.4839130" lon="-5.5239210">
        <ele>302.6</ele>
        <time>2021-07-20T09:29:44Z</time>
      </trkpt>
      <trkpt lat="43.4839590" lon="-5.5240560">
        <ele>301.8</ele>
        <time>2021-07-20T09:29:45Z</time>
      </trkpt>
      <trkpt lat="43.4840000" lon="-5.5241950">
        <ele>301.0</ele>
        <time>2021-07-20T09:29:46Z</time>
      </trkpt>
      <trkpt lat="43.4840410" lon="-5.5243400">
        <ele>300.2</ele>
        <time>2021-07-20T09:29:47Z</time>
      </trkpt>
      <trkpt lat="43.4840780" lon="-5.5244750">
        <ele>299.4</ele>
        <time>2021-07-20T09:29:48Z</time>
      </trkpt>
      <trkpt lat="43.4841060" lon="-5.5246160">
        <ele>298.4</ele>
        <time>2021-07-20T09:29:49Z</time>
      </trkpt>
      <trkpt lat="43.4841280" lon="-5.5247610">
        <ele>297.4</ele>
        <time>2021-07-20T09:29:50Z</time>
      </trkpt>
      <trkpt lat="43.4841630" lon="-5.5248910">
        <ele>296.4</ele>
        <time>2021-07-20T09:29:51Z</time>
      </trkpt>
      <trkpt lat="43.4842010" lon="-5.5249990">
        <ele>295.2</ele>
        <time>2021-07-20T09:29:52Z</time>
      </trkpt>
      <trkpt lat="43.4842500" lon="-5.5251040">
        <ele>294.2</ele>
        <time>2021-07-20T09:29:53Z</time>
      </trkpt>
      <trkpt lat="43.4842990" lon="-5.5252080">
        <ele>293.0</ele>
        <time>2021-07-20T09:29:54Z</time>
      </trkpt>
      <trkpt lat="43.4843490" lon="-5.5253050">
        <ele>291.8</ele>
        <time>2021-07-20T09:29:55Z</time>
      </trkpt>
      <trkpt lat="43.4844060" lon="-5.5253980">
        <ele>289.4</ele>
        <time>2021-07-20T09:29:56Z</time>
      </trkpt>
      <trkpt lat="43.4844660" lon="-5.5254960">
        <ele>288.2</ele>
        <time>2021-07-20T09:29:57Z</time>
      </trkpt>
      <trkpt lat="43.4845270" lon="-5.5255890">
        <ele>287.0</ele>
        <time>2021-07-20T09:29:58Z</time>
      </trkpt>
      <trkpt lat="43.4845850" lon="-5.5256910">
        <ele>285.8</ele>
        <time>2021-07-20T09:29:59Z</time>
      </trkpt>
      <trkpt lat="43.4846360" lon="-5.5258000">
        <ele>285.0</ele>
        <time>2021-07-20T09:30:00Z</time>
      </trkpt>
      <trkpt lat="43.4846800" lon="-5.5259170">
        <ele>284.4</ele>
        <time>2021-07-20T09:30:01Z</time>
      </trkpt>
      <trkpt lat="43.4847130" lon="-5.5260530">
        <ele>283.6</ele>
        <time>2021-07-20T09:30:02Z</time>
      </trkpt>
      <trkpt lat="43.4847330" lon="-5.5261850">
        <ele>282.8</ele>
        <time>2021-07-20T09:30:03Z</time>
      </trkpt>
      <trkpt lat="43.4847380" lon="-5.5263220">
        <ele>282.2</ele>
        <time>2021-07-20T09:30:04Z</time>
      </trkpt>
      <trkpt lat="43.4847380" lon="-5.5264530">
        <ele>281.4</ele>
        <time>2021-07-20T09:30:05Z</time>
      </trkpt>
      <trkpt lat="43.4847340" lon="-5.5265730">
        <ele>280.6</ele>
        <time>2021-07-20T09:30:06Z</time>
      </trkpt>
      <trkpt lat="43.4847330" lon="-5.5266870">
        <ele>279.6</ele>
        <time>2021-07-20T09:30:07Z</time>
      </trkpt>
      <trkpt lat="43.4847300" lon="-5.5267960">
        <ele>278.6</ele>
        <time>2021-07-20T09:30:08Z</time>
      </trkpt>
      <trkpt lat="43.4847150" lon="-5.5269020">
        <ele>277.6</ele>
        <time>2021-07-20T09:30:09Z</time>
      </trkpt>
      <trkpt lat="43.4846920" lon="-5.5269980">
        <ele>276.6</ele>
        <time>2021-07-20T09:30:10Z</time>
      </trkpt>
      <trkpt lat="43.4846600" lon="-5.5270880">
        <ele>275.8</ele>
        <time>2021-07-20T09:30:11Z</time>
      </trkpt>
      <trkpt lat="43.4846340" lon="-5.5271790">
        <ele>274.8</ele>
        <time>2021-07-20T09:30:12Z</time>
      </trkpt>
      <trkpt lat="43.4846150" lon="-5.5272720">
        <ele>273.8</ele>
        <time>2021-07-20T09:30:13Z</time>
      </trkpt>
      <trkpt lat="43.4846040" lon="-5.5273650">
        <ele>273.0</ele>
        <time>2021-07-20T09:30:14Z</time>
      </trkpt>
      <trkpt lat="43.4846050" lon="-5.5274520">
        <ele>272.0</ele>
        <time>2021-07-20T09:30:15Z</time>
      </trkpt>
      <trkpt lat="43.4846140" lon="-5.5275380">
        <ele>271.0</ele>
        <time>2021-07-20T09:30:16Z</time>
      </trkpt>
      <trkpt lat="43.4846280" lon="-5.5276230">
        <ele>270.0</ele>
        <time>2021-07-20T09:30:17Z</time>
      </trkpt>
      <trkpt lat="43.4846500" lon="-5.5277010">
        <ele>269.4</ele>
        <time>2021-07-20T09:30:18Z</time>
      </trkpt>
      <trkpt lat="43.4846780" lon="-5.5277760">
        <ele>268.6</ele>
        <time>2021-07-20T09:30:19Z</time>
      </trkpt>
      <trkpt lat="43.4847080" lon="-5.5278460">
        <ele>268.0</ele>
        <time>2021-07-20T09:30:20Z</time>
      </trkpt>
      <trkpt lat="43.4847430" lon="-5.5279080">
        <ele>266.6</ele>
        <time>2021-07-20T09:30:21Z</time>
      </trkpt>
      <trkpt lat="43.4847850" lon="-5.5279630">
        <ele>265.8</ele>
        <time>2021-07-20T09:30:22Z</time>
      </trkpt>
      <trkpt lat="43.4848320" lon="-5.5280110">
        <ele>265.2</ele>
        <time>2021-07-20T09:30:23Z</time>
      </trkpt>
      <trkpt lat="43.4848870" lon="-5.5280520">
        <ele>264.4</ele>
        <time>2021-07-20T09:30:24Z</time>
      </trkpt>
      <trkpt lat="43.4849470" lon="-5.5280840">
        <ele>263.6</ele>
        <time>2021-07-20T09:30:25Z</time>
      </trkpt>
      <trkpt lat="43.4850080" lon="-5.5281080">
        <ele>262.8</ele>
        <time>2021-07-20T09:30:26Z</time>
      </trkpt>
      <trkpt lat="43.4850730" lon="-5.5281260">
        <ele>262.2</ele>
        <time>2021-07-20T09:30:27Z</time>
      </trkpt>
      <trkpt lat="43.4851410" lon="-5.5281530">
        <ele>261.4</ele>
        <time>2021-07-20T09:30:28Z</time>
      </trkpt>
      <trkpt lat="43.4852110" lon="-5.5282010">
        <ele>260.6</ele>
        <time>2021-07-20T09:30:29Z</time>
      </trkpt>
      <trkpt lat="43.4852820" lon="-5.5282610">
        <ele>260.0</ele>
        <time>2021-07-20T09:30:30Z</time>
      </trkpt>
      <trkpt lat="43.4853530" lon="-5.5283270">
        <ele>259.2</ele>
        <time>2021-07-20T09:30:31Z</time>
      </trkpt>
      <trkpt lat="43.4854250" lon="-5.5284140">
        <ele>259.2</ele>
        <time>2021-07-20T09:30:32Z</time>
      </trkpt>
      <trkpt lat="43.4854950" lon="-5.5285050">
        <ele>258.8</ele>
        <time>2021-07-20T09:30:33Z</time>
      </trkpt>
      <trkpt lat="43.4855580" lon="-5.5286030">
        <ele>258.2</ele>
        <time>2021-07-20T09:30:34Z</time>
      </trkpt>
      <trkpt lat="43.4856170" lon="-5.5287060">
        <ele>257.8</ele>
        <time>2021-07-20T09:30:35Z</time>
      </trkpt>
      <trkpt lat="43.4856700" lon="-5.5288210">
        <ele>257.2</ele>
        <time>2021-07-20T09:30:36Z</time>
      </trkpt>
      <trkpt lat="43.4857170" lon="-5.5289440">
        <ele>256.6</ele>
        <time>2021-07-20T09:30:37Z</time>
      </trkpt>
      <trkpt lat="43.4857670" lon="-5.5290640">
        <ele>256.2</ele>
        <time>2021-07-20T09:30:38Z</time>
      </trkpt>
      <trkpt lat="43.4858180" lon="-5.5291740">
        <ele>255.6</ele>
        <time>2021-07-20T09:30:39Z</time>
      </trkpt>
      <trkpt lat="43.4858690" lon="-5.5292820">
        <ele>254.6</ele>
        <time>2021-07-20T09:30:40Z</time>
      </trkpt>
      <trkpt lat="43.4859120" lon="-5.5293800">
        <ele>253.8</ele>
        <time>2021-07-20T09:30:41Z</time>
      </trkpt>
      <trkpt lat="43.4859480" lon="-5.5294770">
        <ele>252.8</ele>
        <time>2021-07-20T09:30:42Z</time>
      </trkpt>
      <trkpt lat="43.4859710" lon="-5.5295780">
        <ele>251.8</ele>
        <time>2021-07-20T09:30:43Z</time>
      </trkpt>
      <trkpt lat="43.4859820" lon="-5.5296830">
        <ele>250.8</ele>
        <time>2021-07-20T09:30:44Z</time>
      </trkpt>
      <trkpt lat="43.4859930" lon="-5.5297940">
        <ele>249.8</ele>
        <time>2021-07-20T09:30:45Z</time>
      </trkpt>
      <trkpt lat="43.4860150" lon="-5.5299050">
        <ele>248.0</ele>
        <time>2021-07-20T09:30:46Z</time>
      </trkpt>
      <trkpt lat="43.4860500" lon="-5.5300210">
        <ele>247.0</ele>
        <time>2021-07-20T09:30:47Z</time>
      </trkpt>
      <trkpt lat="43.4860890" lon="-5.5301330">
        <ele>246.4</ele>
        <time>2021-07-20T09:30:48Z</time>
      </trkpt>
      <trkpt lat="43.4861330" lon="-5.5302430">
        <ele>245.6</ele>
        <time>2021-07-20T09:30:49Z</time>
      </trkpt>
      <trkpt lat="43.4861820" lon="-5.5303580">
        <ele>245.0</ele>
        <time>2021-07-20T09:30:50Z</time>
      </trkpt>
      <trkpt lat="43.4862320" lon="-5.5304780">
        <ele>244.4</ele>
        <time>2021-07-20T09:30:51Z</time>
      </trkpt>
      <trkpt lat="43.4862800" lon="-5.5306020">
        <ele>243.6</ele>
        <time>2021-07-20T09:30:52Z</time>
      </trkpt>
      <trkpt lat="43.4863220" lon="-5.5307270">
        <ele>243.0</ele>
        <time>2021-07-20T09:30:53Z</time>
      </trkpt>
      <trkpt lat="43.4863540" lon="-5.5308500">
        <ele>242.2</ele>
        <time>2021-07-20T09:30:54Z</time>
      </trkpt>
      <trkpt lat="43.4863860" lon="-5.5309780">
        <ele>241.4</ele>
        <time>2021-07-20T09:30:55Z</time>
      </trkpt>
      <trkpt lat="43.4864200" lon="-5.5310950">
        <ele>240.6</ele>
        <time>2021-07-20T09:30:56Z</time>
      </trkpt>
      <trkpt lat="43.4864590" lon="-5.5312140">
        <ele>239.6</ele>
        <time>2021-07-20T09:30:57Z</time>
      </trkpt>
      <trkpt lat="43.4865070" lon="-5.5313320">
        <ele>238.6</ele>
        <time>2021-07-20T09:30:58Z</time>
      </trkpt>
      <trkpt lat="43.4865570" lon="-5.5314440">
        <ele>237.6</ele>
        <time>2021-07-20T09:30:59Z</time>
      </trkpt>
      <trkpt lat="43.4866070" lon="-5.5315570">
        <ele>236.8</ele>
        <time>2021-07-20T09:31:00Z</time>
      </trkpt>
      <trkpt lat="43.4866540" lon="-5.5316680">
        <ele>236.0</ele>
        <time>2021-07-20T09:31:01Z</time>
      </trkpt>
      <trkpt lat="43.4867020" lon="-5.5317820">
        <ele>235.2</ele>
        <time>2021-07-20T09:31:02Z</time>
      </trkpt>
      <trkpt lat="43.4867480" lon="-5.5318880">
        <ele>234.2</ele>
        <time>2021-07-20T09:31:03Z</time>
      </trkpt>
      <trkpt lat="43.4867910" lon="-5.5319880">
        <ele>233.2</ele>
        <time>2021-07-20T09:31:04Z</time>
      </trkpt>
      <trkpt lat="43.4868320" lon="-5.5320840">
        <ele>232.0</ele>
        <time>2021-07-20T09:31:05Z</time>
      </trkpt>
      <trkpt lat="43.4868710" lon="-5.5321710">
        <ele>231.0</ele>
        <time>2021-07-20T09:31:06Z</time>
      </trkpt>
      <trkpt lat="43.4869130" lon="-5.5322500">
        <ele>229.8</ele>
        <time>2021-07-20T09:31:07Z</time>
      </trkpt>
      <trkpt lat="43.4869570" lon="-5.5323260">
        <ele>228.8</ele>
        <time>2021-07-20T09:31:08Z</time>
      </trkpt>
      <trkpt lat="43.4869990" lon="-5.5323910">
        <ele>228.0</ele>
        <time>2021-07-20T09:31:09Z</time>
      </trkpt>
      <trkpt lat="43.4870430" lon="-5.5324580">
        <ele>227.0</ele>
        <time>2021-07-20T09:31:10Z</time>
      </trkpt>
      <trkpt lat="43.4870830" lon="-5.5325090">
        <ele>225.2</ele>
        <time>2021-07-20T09:31:11Z</time>
      </trkpt>
      <trkpt lat="43.4871210" lon="-5.5325570">
        <ele>224.4</ele>
        <time>2021-07-20T09:31:12Z</time>
      </trkpt>
      <trkpt lat="43.4871680" lon="-5.5326070">
        <ele>223.6</ele>
        <time>2021-07-20T09:31:13Z</time>
      </trkpt>
      <trkpt lat="43.4872170" lon="-5.5326510">
        <ele>222.8</ele>
        <time>2021-07-20T09:31:14Z</time>
      </trkpt>
      <trkpt lat="43.4872700" lon="-5.5326930">
        <ele>221.8</ele>
        <time>2021-07-20T09:31:15Z</time>
      </trkpt>
      <trkpt lat="43.4873240" lon="-5.5327330">
        <ele>221.0</ele>
        <time>2021-07-20T09:31:16Z</time>
      </trkpt>
      <trkpt lat="43.4873850" lon="-5.5327650">
        <ele>220.4</ele>
        <time>2021-07-20T09:31:17Z</time>
      </trkpt>
      <trkpt lat="43.4874370" lon="-5.5327880">
        <ele>219.6</ele>
        <time>2021-07-20T09:31:18Z</time>
      </trkpt>
      <trkpt lat="43.4874770" lon="-5.5328070">
        <ele>219.0</ele>
        <time>2021-07-20T09:31:19Z</time>
      </trkpt>
      <trkpt lat="43.4875070" lon="-5.5328210">
        <ele>218.2</ele>
        <time>2021-07-20T09:31:20Z</time>
      </trkpt>
      <trkpt lat="43.4875280" lon="-5.5328280">
        <ele>217.4</ele>
        <time>2021-07-20T09:31:21Z</time>
      </trkpt>
      <trkpt lat="43.4875420" lon="-5.5328290">
        <ele>216.6</ele>
        <time>2021-07-20T09:31:22Z</time>
      </trkpt>
      <trkpt lat="43.4875490" lon="-5.5328250">
        <ele>216.0</ele>
        <time>2021-07-20T09:31:23Z</time>
      </trkpt>
      <trkpt lat="43.4875460" lon="-5.5328260">
        <ele>215.4</ele>
        <time>2021-07-20T09:31:24Z</time>
      </trkpt>
      <trkpt lat="43.4875620" lon="-5.5328470">
        <ele>213.2</ele>
        <time>2021-07-20T09:31:37Z</time>
      </trkpt>
      <trkpt lat="43.4876010" lon="-5.5329030">
        <ele>213.2</ele>
        <time>2021-07-20T09:31:39Z</time>
      </trkpt>
      <trkpt lat="43.4876580" lon="-5.5329970">
        <ele>213.2</ele>
        <time>2021-07-20T09:31:41Z</time>
      </trkpt>
      <trkpt lat="43.4877310" lon="-5.5331140">
        <ele>213.2</ele>
        <time>2021-07-20T09:31:43Z</time>
      </trkpt>
      <trkpt lat="43.4878370" lon="-5.5333460">
        <ele>212.6</ele>
        <time>2021-07-20T09:31:46Z</time>
      </trkpt>
      <trkpt lat="43.4878690" lon="-5.5334270">
        <ele>212.2</ele>
        <time>2021-07-20T09:31:47Z</time>
      </trkpt>
      <trkpt lat="43.4879110" lon="-5.5335090">
        <ele>211.6</ele>
        <time>2021-07-20T09:31:48Z</time>
      </trkpt>
      <trkpt lat="43.4879630" lon="-5.5335830">
        <ele>211.2</ele>
        <time>2021-07-20T09:31:49Z</time>
      </trkpt>
      <trkpt lat="43.4880180" lon="-5.5336600">
        <ele>210.6</ele>
        <time>2021-07-20T09:31:50Z</time>
      </trkpt>
      <trkpt lat="43.4880740" lon="-5.5337330">
        <ele>210.0</ele>
        <time>2021-07-20T09:31:51Z</time>
      </trkpt>
      <trkpt lat="43.4881290" lon="-5.5337970">
        <ele>209.4</ele>
        <time>2021-07-20T09:31:52Z</time>
      </trkpt>
      <trkpt lat="43.4881800" lon="-5.5338570">
        <ele>208.8</ele>
        <time>2021-07-20T09:31:53Z</time>
      </trkpt>
      <trkpt lat="43.4882240" lon="-5.5339130">
        <ele>208.0</ele>
        <time>2021-07-20T09:31:54Z</time>
      </trkpt>
      <trkpt lat="43.4882680" lon="-5.5339600">
        <ele>207.2</ele>
        <time>2021-07-20T09:31:55Z</time>
      </trkpt>
      <trkpt lat="43.4882890" lon="-5.5339890">
        <ele>206.2</ele>
        <time>2021-07-20T09:31:56Z</time>
      </trkpt>
      <trkpt lat="43.4883060" lon="-5.5340180">
        <ele>205.2</ele>
        <time>2021-07-20T09:31:57Z</time>
      </trkpt>
      <trkpt lat="43.4883230" lon="-5.5340500">
        <ele>204.2</ele>
        <time>2021-07-20T09:31:58Z</time>
      </trkpt>
      <trkpt lat="43.4883360" lon="-5.5340900">
        <ele>203.4</ele>
        <time>2021-07-20T09:31:59Z</time>
      </trkpt>
      <trkpt lat="43.4883450" lon="-5.5341410">
        <ele>201.4</ele>
        <time>2021-07-20T09:32:00Z</time>
      </trkpt>
      <trkpt lat="43.4883430" lon="-5.5341910">
        <ele>201.4</ele>
        <time>2021-07-20T09:32:01Z</time>
      </trkpt>
      <trkpt lat="43.4883360" lon="-5.5342360">
        <ele>200.8</ele>
        <time>2021-07-20T09:32:02Z</time>
      </trkpt>
      <trkpt lat="43.4883250" lon="-5.5342860">
        <ele>200.4</ele>
        <time>2021-07-20T09:32:03Z</time>
      </trkpt>
      <trkpt lat="43.4883170" lon="-5.5343440">
        <ele>200.0</ele>
        <time>2021-07-20T09:32:04Z</time>
      </trkpt>
      <trkpt lat="43.4883090" lon="-5.5344070">
        <ele>199.4</ele>
        <time>2021-07-20T09:32:05Z</time>
      </trkpt>
      <trkpt lat="43.4883030" lon="-5.5344720">
        <ele>199.0</ele>
        <time>2021-07-20T09:32:06Z</time>
      </trkpt>
      <trkpt lat="43.4882930" lon="-5.5345910">
        <ele>198.4</ele>
        <time>2021-07-20T09:32:08Z</time>
      </trkpt>
      <trkpt lat="43.4882860" lon="-5.5346450">
        <ele>198.0</ele>
        <time>2021-07-20T09:32:09Z</time>
      </trkpt>
      <trkpt lat="43.4882790" lon="-5.5346910">
        <ele>197.4</ele>
        <time>2021-07-20T09:32:10Z</time>
      </trkpt>
      <trkpt lat="43.4882730" lon="-5.5347350">
        <ele>197.0</ele>
        <time>2021-07-20T09:32:11Z</time>
      </trkpt>
      <trkpt lat="43.4882730" lon="-5.5347720">
        <ele>196.4</ele>
        <time>2021-07-20T09:32:12Z</time>
      </trkpt>
      <trkpt lat="43.4882760" lon="-5.5348120">
        <ele>195.8</ele>
        <time>2021-07-20T09:32:13Z</time>
      </trkpt>
      <trkpt lat="43.4882800" lon="-5.5348560">
        <ele>195.4</ele>
        <time>2021-07-20T09:32:14Z</time>
      </trkpt>
      <trkpt lat="43.4882840" lon="-5.5349010">
        <ele>194.8</ele>
        <time>2021-07-20T09:32:15Z</time>
      </trkpt>
      <trkpt lat="43.4882840" lon="-5.5349400">
        <ele>194.4</ele>
        <time>2021-07-20T09:32:16Z</time>
      </trkpt>
      <trkpt lat="43.4882840" lon="-5.5350230">
        <ele>193.8</ele>
        <time>2021-07-20T09:32:18Z</time>
      </trkpt>
      <trkpt lat="43.4882850" lon="-5.5350700">
        <ele>193.4</ele>
        <time>2021-07-20T09:32:19Z</time>
      </trkpt>
      <trkpt lat="43.4882850" lon="-5.5351210">
        <ele>193.0</ele>
        <time>2021-07-20T09:32:20Z</time>
      </trkpt>
      <trkpt lat="43.4882860" lon="-5.5351730">
        <ele>192.6</ele>
        <time>2021-07-20T09:32:21Z</time>
      </trkpt>
      <trkpt lat="43.4882850" lon="-5.5352220">
        <ele>192.2</ele>
        <time>2021-07-20T09:32:22Z</time>
      </trkpt>
      <trkpt lat="43.4882840" lon="-5.5353080">
        <ele>191.6</ele>
        <time>2021-07-20T09:32:24Z</time>
      </trkpt>
      <trkpt lat="43.4882850" lon="-5.5353500">
        <ele>191.2</ele>
        <time>2021-07-20T09:32:25Z</time>
      </trkpt>
      <trkpt lat="43.4882880" lon="-5.5353960">
        <ele>190.8</ele>
        <time>2021-07-20T09:32:26Z</time>
      </trkpt>
      <trkpt lat="43.4882930" lon="-5.5354430">
        <ele>190.2</ele>
        <time>2021-07-20T09:32:27Z</time>
      </trkpt>
      <trkpt lat="43.4883010" lon="-5.5354930">
        <ele>189.8</ele>
        <time>2021-07-20T09:32:28Z</time>
      </trkpt>
      <trkpt lat="43.4883300" lon="-5.5356030">
        <ele>189.8</ele>
        <time>2021-07-20T09:32:30Z</time>
      </trkpt>
      <trkpt lat="43.4883490" lon="-5.5356610">
        <ele>189.4</ele>
        <time>2021-07-20T09:32:31Z</time>
      </trkpt>
      <trkpt lat="43.4883780" lon="-5.5357170">
        <ele>188.8</ele>
        <time>2021-07-20T09:32:32Z</time>
      </trkpt>
      <trkpt lat="43.4884070" lon="-5.5357590">
        <ele>188.4</ele>
        <time>2021-07-20T09:32:33Z</time>
      </trkpt>
      <trkpt lat="43.4884390" lon="-5.5358030">
        <ele>188.0</ele>
        <time>2021-07-20T09:32:34Z</time>
      </trkpt>
      <trkpt lat="43.4884740" lon="-5.5358550">
        <ele>187.6</ele>
        <time>2021-07-20T09:32:35Z</time>
      </trkpt>
      <trkpt lat="43.4885550" lon="-5.5359700">
        <ele>187.0</ele>
        <time>2021-07-20T09:32:37Z</time>
      </trkpt>
      <trkpt lat="43.4886000" lon="-5.5360300">
        <ele>186.6</ele>
        <time>2021-07-20T09:32:38Z</time>
      </trkpt>
      <trkpt lat="43.4886480" lon="-5.5360920">
        <ele>186.2</ele>
        <time>2021-07-20T09:32:39Z</time>
      </trkpt>
      <trkpt lat="43.4886920" lon="-5.5361410">
        <ele>185.6</ele>
        <time>2021-07-20T09:32:40Z</time>
      </trkpt>
      <trkpt lat="43.4887280" lon="-5.5361820">
        <ele>185.2</ele>
        <time>2021-07-20T09:32:41Z</time>
      </trkpt>
      <trkpt lat="43.4887560" lon="-5.5362150">
        <ele>184.8</ele>
        <time>2021-07-20T09:32:42Z</time>
      </trkpt>
      <trkpt lat="43.4887780" lon="-5.5362460">
        <ele>184.2</ele>
        <time>2021-07-20T09:32:43Z</time>
      </trkpt>
      <trkpt lat="43.4888020" lon="-5.5362830">
        <ele>183.6</ele>
        <time>2021-07-20T09:32:44Z</time>
      </trkpt>
      <trkpt lat="43.4888260" lon="-5.5363200">
        <ele>183.2</ele>
        <time>2021-07-20T09:32:45Z</time>
      </trkpt>
      <trkpt lat="43.4888490" lon="-5.5363560">
        <ele>182.6</ele>
        <time>2021-07-20T09:32:46Z</time>
      </trkpt>
      <trkpt lat="43.4888720" lon="-5.5363940">
        <ele>182.0</ele>
        <time>2021-07-20T09:32:47Z</time>
      </trkpt>
      <trkpt lat="43.4888950" lon="-5.5364310">
        <ele>181.6</ele>
        <time>2021-07-20T09:32:48Z</time>
      </trkpt>
      <trkpt lat="43.4889170" lon="-5.5364690">
        <ele>180.6</ele>
        <time>2021-07-20T09:32:49Z</time>
      </trkpt>
      <trkpt lat="43.4890180" lon="-5.5366230">
        <ele>180.0</ele>
        <time>2021-07-20T09:32:53Z</time>
      </trkpt>
      <trkpt lat="43.4890450" lon="-5.5366530">
        <ele>179.6</ele>
        <time>2021-07-20T09:32:54Z</time>
      </trkpt>
      <trkpt lat="43.4890730" lon="-5.5366830">
        <ele>179.2</ele>
        <time>2021-07-20T09:32:55Z</time>
      </trkpt>
      <trkpt lat="43.4891000" lon="-5.5367100">
        <ele>178.6</ele>
        <time>2021-07-20T09:32:56Z</time>
      </trkpt>
      <trkpt lat="43.4891260" lon="-5.5367380">
        <ele>178.2</ele>
        <time>2021-07-20T09:32:57Z</time>
      </trkpt>
      <trkpt lat="43.4891830" lon="-5.5368000">
        <ele>177.8</ele>
        <time>2021-07-20T09:32:59Z</time>
      </trkpt>
      <trkpt lat="43.4892130" lon="-5.5368320">
        <ele>177.2</ele>
        <time>2021-07-20T09:33:00Z</time>
      </trkpt>
      <trkpt lat="43.4892490" lon="-5.5368580">
        <ele>176.8</ele>
        <time>2021-07-20T09:33:01Z</time>
      </trkpt>
      <trkpt lat="43.4892890" lon="-5.5368830">
        <ele>176.4</ele>
        <time>2021-07-20T09:33:02Z</time>
      </trkpt>
      <trkpt lat="43.4893310" lon="-5.5369040">
        <ele>176.0</ele>
        <time>2021-07-20T09:33:03Z</time>
      </trkpt>
      <trkpt lat="43.4893760" lon="-5.5369190">
        <ele>175.4</ele>
        <time>2021-07-20T09:33:04Z</time>
      </trkpt>
      <trkpt lat="43.4894230" lon="-5.5369300">
        <ele>175.0</ele>
        <time>2021-07-20T09:33:05Z</time>
      </trkpt>
      <trkpt lat="43.4894720" lon="-5.5369390">
        <ele>174.6</ele>
        <time>2021-07-20T09:33:06Z</time>
      </trkpt>
      <trkpt lat="43.4895270" lon="-5.5369500">
        <ele>174.0</ele>
        <time>2021-07-20T09:33:07Z</time>
      </trkpt>
      <trkpt lat="43.4895840" lon="-5.5369660">
        <ele>173.6</ele>
        <time>2021-07-20T09:33:08Z</time>
      </trkpt>
      <trkpt lat="43.4896410" lon="-5.5369810">
        <ele>173.0</ele>
        <time>2021-07-20T09:33:09Z</time>
      </trkpt>
      <trkpt lat="43.4897000" lon="-5.5369950">
        <ele>172.6</ele>
        <time>2021-07-20T09:33:10Z</time>
      </trkpt>
      <trkpt lat="43.4897540" lon="-5.5370060">
        <ele>172.0</ele>
        <time>2021-07-20T09:33:11Z</time>
      </trkpt>
      <trkpt lat="43.4898130" lon="-5.5370160">
        <ele>171.4</ele>
        <time>2021-07-20T09:33:12Z</time>
      </trkpt>
      <trkpt lat="43.4898760" lon="-5.5370230">
        <ele>171.0</ele>
        <time>2021-07-20T09:33:13Z</time>
      </trkpt>
      <trkpt lat="43.4899440" lon="-5.5370340">
        <ele>170.0</ele>
        <time>2021-07-20T09:33:14Z</time>
      </trkpt>
      <trkpt lat="43.4900190" lon="-5.5370470">
        <ele>169.4</ele>
        <time>2021-07-20T09:33:15Z</time>
      </trkpt>
      <trkpt lat="43.4901830" lon="-5.5370940">
        <ele>169.0</ele>
        <time>2021-07-20T09:33:17Z</time>
      </trkpt>
      <trkpt lat="43.4902710" lon="-5.5371250">
        <ele>168.4</ele>
        <time>2021-07-20T09:33:18Z</time>
      </trkpt>
      <trkpt lat="43.4903570" lon="-5.5371560">
        <ele>168.0</ele>
        <time>2021-07-20T09:33:19Z</time>
      </trkpt>
      <trkpt lat="43.4904500" lon="-5.5371920">
        <ele>167.4</ele>
        <time>2021-07-20T09:33:20Z</time>
      </trkpt>
      <trkpt lat="43.4905430" lon="-5.5372280">
        <ele>166.6</ele>
        <time>2021-07-20T09:33:21Z</time>
      </trkpt>
      <trkpt lat="43.4906350" lon="-5.5372650">
        <ele>166.0</ele>
        <time>2021-07-20T09:33:22Z</time>
      </trkpt>
      <trkpt lat="43.4907260" lon="-5.5373070">
        <ele>165.2</ele>
        <time>2021-07-20T09:33:23Z</time>
      </trkpt>
      <trkpt lat="43.4908150" lon="-5.5373470">
        <ele>164.8</ele>
        <time>2021-07-20T09:33:24Z</time>
      </trkpt>
      <trkpt lat="43.4909070" lon="-5.5373920">
        <ele>164.2</ele>
        <time>2021-07-20T09:33:25Z</time>
      </trkpt>
      <trkpt lat="43.4909970" lon="-5.5374360">
        <ele>163.4</ele>
        <time>2021-07-20T09:33:26Z</time>
      </trkpt>
      <trkpt lat="43.4910880" lon="-5.5374830">
        <ele>162.6</ele>
        <time>2021-07-20T09:33:27Z</time>
      </trkpt>
      <trkpt lat="43.4911800" lon="-5.5375320">
        <ele>161.8</ele>
        <time>2021-07-20T09:33:28Z</time>
      </trkpt>
      <trkpt lat="43.4912690" lon="-5.5375870">
        <ele>161.0</ele>
        <time>2021-07-20T09:33:29Z</time>
      </trkpt>
      <trkpt lat="43.4913550" lon="-5.5376470">
        <ele>160.2</ele>
        <time>2021-07-20T09:33:30Z</time>
      </trkpt>
      <trkpt lat="43.4914370" lon="-5.5377070">
        <ele>159.4</ele>
        <time>2021-07-20T09:33:31Z</time>
      </trkpt>
      <trkpt lat="43.4915160" lon="-5.5377670">
        <ele>158.6</ele>
        <time>2021-07-20T09:33:32Z</time>
      </trkpt>
      <trkpt lat="43.4915940" lon="-5.5378260">
        <ele>157.8</ele>
        <time>2021-07-20T09:33:33Z</time>
      </trkpt>
      <trkpt lat="43.4916680" lon="-5.5378830">
        <ele>156.8</ele>
        <time>2021-07-20T09:33:34Z</time>
      </trkpt>
      <trkpt lat="43.4917400" lon="-5.5379380">
        <ele>156.0</ele>
        <time>2021-07-20T09:33:35Z</time>
      </trkpt>
      <trkpt lat="43.4918160" lon="-5.5379930">
        <ele>155.0</ele>
        <time>2021-07-20T09:33:36Z</time>
      </trkpt>
      <trkpt lat="43.4918920" lon="-5.5380400">
        <ele>154.2</ele>
        <time>2021-07-20T09:33:37Z</time>
      </trkpt>
      <trkpt lat="43.4919650" lon="-5.5380830">
        <ele>152.6</ele>
        <time>2021-07-20T09:33:38Z</time>
      </trkpt>
      <trkpt lat="43.4920300" lon="-5.5381240">
        <ele>152.0</ele>
        <time>2021-07-20T09:33:39Z</time>
      </trkpt>
      <trkpt lat="43.4920910" lon="-5.5381600">
        <ele>151.2</ele>
        <time>2021-07-20T09:33:40Z</time>
      </trkpt>
      <trkpt lat="43.4921460" lon="-5.5381890">
        <ele>150.4</ele>
        <time>2021-07-20T09:33:41Z</time>
      </trkpt>
      <trkpt lat="43.4921930" lon="-5.5382100">
        <ele>149.6</ele>
        <time>2021-07-20T09:33:42Z</time>
      </trkpt>
      <trkpt lat="43.4922390" lon="-5.5382220">
        <ele>149.0</ele>
        <time>2021-07-20T09:33:43Z</time>
      </trkpt>
      <trkpt lat="43.4922810" lon="-5.5382310">
        <ele>148.2</ele>
        <time>2021-07-20T09:33:44Z</time>
      </trkpt>
      <trkpt lat="43.4923220" lon="-5.5382350">
        <ele>147.4</ele>
        <time>2021-07-20T09:33:45Z</time>
      </trkpt>
      <trkpt lat="43.4923610" lon="-5.5382370">
        <ele>146.6</ele>
        <time>2021-07-20T09:33:46Z</time>
      </trkpt>
      <trkpt lat="43.4924010" lon="-5.5382510">
        <ele>146.2</ele>
        <time>2021-07-20T09:33:47Z</time>
      </trkpt>
      <trkpt lat="43.4924310" lon="-5.5382810">
        <ele>145.8</ele>
        <time>2021-07-20T09:33:48Z</time>
      </trkpt>
      <trkpt lat="43.4924480" lon="-5.5383190">
        <ele>145.4</ele>
        <time>2021-07-20T09:33:49Z</time>
      </trkpt>
      <trkpt lat="43.4924490" lon="-5.5383620">
        <ele>144.8</ele>
        <time>2021-07-20T09:33:50Z</time>
      </trkpt>
      <trkpt lat="43.4924270" lon="-5.5384070">
        <ele>144.4</ele>
        <time>2021-07-20T09:33:51Z</time>
      </trkpt>
      <trkpt lat="43.4923520" lon="-5.5384580">
        <ele>144.4</ele>
        <time>2021-07-20T09:33:53Z</time>
      </trkpt>
      <trkpt lat="43.4922190" lon="-5.5384390">
        <ele>144.4</ele>
        <time>2021-07-20T09:33:56Z</time>
      </trkpt>
      <trkpt lat="43.4921710" lon="-5.5384160">
        <ele>144.0</ele>
        <time>2021-07-20T09:33:57Z</time>
      </trkpt>
      <trkpt lat="43.4921240" lon="-5.5383950">
        <ele>143.6</ele>
        <time>2021-07-20T09:33:58Z</time>
      </trkpt>
      <trkpt lat="43.4920750" lon="-5.5383830">
        <ele>143.2</ele>
        <time>2021-07-20T09:33:59Z</time>
      </trkpt>
      <trkpt lat="43.4920240" lon="-5.5383650">
        <ele>142.8</ele>
        <time>2021-07-20T09:34:00Z</time>
      </trkpt>
      <trkpt lat="43.4919700" lon="-5.5383430">
        <ele>142.4</ele>
        <time>2021-07-20T09:34:01Z</time>
      </trkpt>
      <trkpt lat="43.4919130" lon="-5.5383230">
        <ele>142.4</ele>
        <time>2021-07-20T09:34:02Z</time>
      </trkpt>
      <trkpt lat="43.4915880" lon="-5.5381870">
        <ele>142.0</ele>
        <time>2021-07-20T09:34:07Z</time>
      </trkpt>
      <trkpt lat="43.4915140" lon="-5.5381620">
        <ele>141.4</ele>
        <time>2021-07-20T09:34:08Z</time>
      </trkpt>
      <trkpt lat="43.4914410" lon="-5.5381440">
        <ele>141.0</ele>
        <time>2021-07-20T09:34:09Z</time>
      </trkpt>
      <trkpt lat="43.4913650" lon="-5.5381240">
        <ele>140.4</ele>
        <time>2021-07-20T09:34:10Z</time>
      </trkpt>
      <trkpt lat="43.4912840" lon="-5.5381070">
        <ele>140.0</ele>
        <time>2021-07-20T09:34:11Z</time>
      </trkpt>
      <trkpt lat="43.4912060" lon="-5.5380970">
        <ele>139.4</ele>
        <time>2021-07-20T09:34:12Z</time>
      </trkpt>
      <trkpt lat="43.4911240" lon="-5.5381040">
        <ele>138.6</ele>
        <time>2021-07-20T09:34:13Z</time>
      </trkpt>
      <trkpt lat="43.4910440" lon="-5.5381230">
        <ele>138.0</ele>
        <time>2021-07-20T09:34:14Z</time>
      </trkpt>
      <trkpt lat="43.4909550" lon="-5.5381430">
        <ele>137.2</ele>
        <time>2021-07-20T09:34:15Z</time>
      </trkpt>
      <trkpt lat="43.4908760" lon="-5.5381540">
        <ele>136.4</ele>
        <time>2021-07-20T09:34:16Z</time>
      </trkpt>
      <trkpt lat="43.4908020" lon="-5.5381630">
        <ele>135.8</ele>
        <time>2021-07-20T09:34:17Z</time>
      </trkpt>
      <trkpt lat="43.4907360" lon="-5.5381660">
        <ele>135.2</ele>
        <time>2021-07-20T09:34:18Z</time>
      </trkpt>
      <trkpt lat="43.4906750" lon="-5.5381690">
        <ele>134.6</ele>
        <time>2021-07-20T09:34:19Z</time>
      </trkpt>
      <trkpt lat="43.4906170" lon="-5.5381710">
        <ele>133.6</ele>
        <time>2021-07-20T09:34:20Z</time>
      </trkpt>
      <trkpt lat="43.4905660" lon="-5.5381850">
        <ele>132.8</ele>
        <time>2021-07-20T09:34:21Z</time>
      </trkpt>
      <trkpt lat="43.4905180" lon="-5.5382170">
        <ele>132.0</ele>
        <time>2021-07-20T09:34:22Z</time>
      </trkpt>
      <trkpt lat="43.4904890" lon="-5.5382590">
        <ele>131.2</ele>
        <time>2021-07-20T09:34:23Z</time>
      </trkpt>
      <trkpt lat="43.4904780" lon="-5.5383140">
        <ele>130.4</ele>
        <time>2021-07-20T09:34:24Z</time>
      </trkpt>
      <trkpt lat="43.4904730" lon="-5.5383740">
        <ele>129.6</ele>
        <time>2021-07-20T09:34:25Z</time>
      </trkpt>
      <trkpt lat="43.4904710" lon="-5.5384400">
        <ele>128.8</ele>
        <time>2021-07-20T09:34:26Z</time>
      </trkpt>
      <trkpt lat="43.4904720" lon="-5.5385040">
        <ele>128.0</ele>
        <time>2021-07-20T09:34:27Z</time>
      </trkpt>
      <trkpt lat="43.4904730" lon="-5.5385580">
        <ele>127.0</ele>
        <time>2021-07-20T09:34:28Z</time>
      </trkpt>
      <trkpt lat="43.4904810" lon="-5.5386030">
        <ele>126.6</ele>
        <time>2021-07-20T09:34:29Z</time>
      </trkpt>
      <trkpt lat="43.4904840" lon="-5.5386430">
        <ele>126.2</ele>
        <time>2021-07-20T09:34:30Z</time>
      </trkpt>
      <trkpt lat="43.4904820" lon="-5.5386840">
        <ele>125.6</ele>
        <time>2021-07-20T09:34:31Z</time>
      </trkpt>
      <trkpt lat="43.4904760" lon="-5.5387210">
        <ele>125.6</ele>
        <time>2021-07-20T09:34:32Z</time>
      </trkpt>
      <trkpt lat="43.4903720" lon="-5.5388830">
        <ele>125.2</ele>
        <time>2021-07-20T09:34:36Z</time>
      </trkpt>
      <trkpt lat="43.4903300" lon="-5.5389270">
        <ele>124.8</ele>
        <time>2021-07-20T09:34:37Z</time>
      </trkpt>
      <trkpt lat="43.4902830" lon="-5.5389690">
        <ele>124.4</ele>
        <time>2021-07-20T09:34:38Z</time>
      </trkpt>
      <trkpt lat="43.4902390" lon="-5.5390110">
        <ele>124.0</ele>
        <time>2021-07-20T09:34:39Z</time>
      </trkpt>
      <trkpt lat="43.4901910" lon="-5.5390510">
        <ele>123.4</ele>
        <time>2021-07-20T09:34:40Z</time>
      </trkpt>
      <trkpt lat="43.4901430" lon="-5.5390880">
        <ele>123.4</ele>
        <time>2021-07-20T09:34:41Z</time>
      </trkpt>
      <trkpt lat="43.4900360" lon="-5.5391520">
        <ele>123.0</ele>
        <time>2021-07-20T09:34:43Z</time>
      </trkpt>
      <trkpt lat="43.4899790" lon="-5.5391760">
        <ele>122.6</ele>
        <time>2021-07-20T09:34:44Z</time>
      </trkpt>
      <trkpt lat="43.4899190" lon="-5.5391910">
        <ele>122.2</ele>
        <time>2021-07-20T09:34:45Z</time>
      </trkpt>
      <trkpt lat="43.4898610" lon="-5.5391980">
        <ele>121.8</ele>
        <time>2021-07-20T09:34:46Z</time>
      </trkpt>
      <trkpt lat="43.4898050" lon="-5.5391940">
        <ele>121.4</ele>
        <time>2021-07-20T09:34:47Z</time>
      </trkpt>
      <trkpt lat="43.4897480" lon="-5.5391830">
        <ele>121.0</ele>
        <time>2021-07-20T09:34:48Z</time>
      </trkpt>
      <trkpt lat="43.4896880" lon="-5.5391690">
        <ele>120.4</ele>
        <time>2021-07-20T09:34:49Z</time>
      </trkpt>
      <trkpt lat="43.4896290" lon="-5.5391490">
        <ele>120.0</ele>
        <time>2021-07-20T09:34:50Z</time>
      </trkpt>
      <trkpt lat="43.4895690" lon="-5.5391220">
        <ele>119.6</ele>
        <time>2021-07-20T09:34:51Z</time>
      </trkpt>
      <trkpt lat="43.4895090" lon="-5.5390920">
        <ele>119.0</ele>
        <time>2021-07-20T09:34:52Z</time>
      </trkpt>
      <trkpt lat="43.4893060" lon="-5.5390260">
        <ele>119.0</ele>
        <time>2021-07-20T09:34:55Z</time>
      </trkpt>
      <trkpt lat="43.4892300" lon="-5.5390160">
        <ele>118.6</ele>
        <time>2021-07-20T09:34:56Z</time>
      </trkpt>
      <trkpt lat="43.4891530" lon="-5.5390090">
        <ele>118.2</ele>
        <time>2021-07-20T09:34:57Z</time>
      </trkpt>
      <trkpt lat="43.4890750" lon="-5.5390070">
        <ele>117.8</ele>
        <time>2021-07-20T09:34:58Z</time>
      </trkpt>
      <trkpt lat="43.4889940" lon="-5.5390130">
        <ele>117.4</ele>
        <time>2021-07-20T09:34:59Z</time>
      </trkpt>
      <trkpt lat="43.4889140" lon="-5.5390210">
        <ele>117.0</ele>
        <time>2021-07-20T09:35:00Z</time>
      </trkpt>
      <trkpt lat="43.4888310" lon="-5.5390270">
        <ele>116.4</ele>
        <time>2021-07-20T09:35:01Z</time>
      </trkpt>
      <trkpt lat="43.4887430" lon="-5.5390360">
        <ele>116.0</ele>
        <time>2021-07-20T09:35:02Z</time>
      </trkpt>
      <trkpt lat="43.4886530" lon="-5.5390480">
        <ele>115.4</ele>
        <time>2021-07-20T09:35:03Z</time>
      </trkpt>
      <trkpt lat="43.4885570" lon="-5.5390600">
        <ele>114.8</ele>
        <time>2021-07-20T09:35:04Z</time>
      </trkpt>
      <trkpt lat="43.4884670" lon="-5.5390740">
        <ele>114.2</ele>
        <time>2021-07-20T09:35:05Z</time>
      </trkpt>
      <trkpt lat="43.4883840" lon="-5.5390850">
        <ele>113.4</ele>
        <time>2021-07-20T09:35:06Z</time>
      </trkpt>
      <trkpt lat="43.4883060" lon="-5.5390950">
        <ele>112.6</ele>
        <time>2021-07-20T09:35:07Z</time>
      </trkpt>
      <trkpt lat="43.4882370" lon="-5.5391040">
        <ele>112.0</ele>
        <time>2021-07-20T09:35:08Z</time>
      </trkpt>
      <trkpt lat="43.4881740" lon="-5.5391100">
        <ele>111.0</ele>
        <time>2021-07-20T09:35:09Z</time>
      </trkpt>
      <trkpt lat="43.4881160" lon="-5.5391180">
        <ele>110.2</ele>
        <time>2021-07-20T09:35:10Z</time>
      </trkpt>
      <trkpt lat="43.4880620" lon="-5.5391260">
        <ele>109.2</ele>
        <time>2021-07-20T09:35:11Z</time>
      </trkpt>
      <trkpt lat="43.4880100" lon="-5.5391350">
        <ele>108.2</ele>
        <time>2021-07-20T09:35:12Z</time>
      </trkpt>
      <trkpt lat="43.4879600" lon="-5.5391420">
        <ele>107.2</ele>
        <time>2021-07-20T09:35:13Z</time>
      </trkpt>
      <trkpt lat="43.4879100" lon="-5.5391490">
        <ele>106.4</ele>
        <time>2021-07-20T09:35:14Z</time>
      </trkpt>
      <trkpt lat="43.4878640" lon="-5.5391570">
        <ele>105.4</ele>
        <time>2021-07-20T09:35:15Z</time>
      </trkpt>
      <trkpt lat="43.4878210" lon="-5.5391670">
        <ele>104.6</ele>
        <time>2021-07-20T09:35:16Z</time>
      </trkpt>
      <trkpt lat="43.4877790" lon="-5.5391770">
        <ele>103.2</ele>
        <time>2021-07-20T09:35:17Z</time>
      </trkpt>
      <trkpt lat="43.4877410" lon="-5.5391990">
        <ele>102.6</ele>
        <time>2021-07-20T09:35:18Z</time>
      </trkpt>
      <trkpt lat="43.4877030" lon="-5.5392370">
        <ele>102.0</ele>
        <time>2021-07-20T09:35:19Z</time>
      </trkpt>
      <trkpt lat="43.4876700" lon="-5.5392940">
        <ele>101.2</ele>
        <time>2021-07-20T09:35:20Z</time>
      </trkpt>
      <trkpt lat="43.4876440" lon="-5.5393660">
        <ele>100.6</ele>
        <time>2021-07-20T09:35:21Z</time>
      </trkpt>
      <trkpt lat="43.4875980" lon="-5.5395380">
        <ele>100.2</ele>
        <time>2021-07-20T09:35:23Z</time>
      </trkpt>
      <trkpt lat="43.4875850" lon="-5.5396350">
        <ele>99.8</ele>
        <time>2021-07-20T09:35:24Z</time>
      </trkpt>
      <trkpt lat="43.4875820" lon="-5.5397370">
        <ele>99.2</ele>
        <time>2021-07-20T09:35:25Z</time>
      </trkpt>
      <trkpt lat="43.4875890" lon="-5.5398420">
        <ele>98.8</ele>
        <time>2021-07-20T09:35:26Z</time>
      </trkpt>
      <trkpt lat="43.4876070" lon="-5.5399520">
        <ele>98.4</ele>
        <time>2021-07-20T09:35:27Z</time>
      </trkpt>
      <trkpt lat="43.4876320" lon="-5.5400530">
        <ele>97.8</ele>
        <time>2021-07-20T09:35:28Z</time>
      </trkpt>
      <trkpt lat="43.4876590" lon="-5.5401470">
        <ele>97.4</ele>
        <time>2021-07-20T09:35:29Z</time>
      </trkpt>
      <trkpt lat="43.4876860" lon="-5.5402320">
        <ele>96.8</ele>
        <time>2021-07-20T09:35:30Z</time>
      </trkpt>
      <trkpt lat="43.4877150" lon="-5.5403090">
        <ele>96.2</ele>
        <time>2021-07-20T09:35:31Z</time>
      </trkpt>
      <trkpt lat="43.4877470" lon="-5.5403870">
        <ele>95.6</ele>
        <time>2021-07-20T09:35:32Z</time>
      </trkpt>
      <trkpt lat="43.4877820" lon="-5.5404690">
        <ele>95.0</ele>
        <time>2021-07-20T09:35:33Z</time>
      </trkpt>
      <trkpt lat="43.4878140" lon="-5.5405570">
        <ele>94.2</ele>
        <time>2021-07-20T09:35:34Z</time>
      </trkpt>
      <trkpt lat="43.4878390" lon="-5.5406600">
        <ele>93.6</ele>
        <time>2021-07-20T09:35:35Z</time>
      </trkpt>
      <trkpt lat="43.4878620" lon="-5.5408710">
        <ele>93.2</ele>
        <time>2021-07-20T09:35:37Z</time>
      </trkpt>
      <trkpt lat="43.4878700" lon="-5.5409760">
        <ele>92.8</ele>
        <time>2021-07-20T09:35:38Z</time>
      </trkpt>
      <trkpt lat="43.4878790" lon="-5.5410710">
        <ele>92.4</ele>
        <time>2021-07-20T09:35:39Z</time>
      </trkpt>
      <trkpt lat="43.4878880" lon="-5.5411610">
        <ele>91.6</ele>
        <time>2021-07-20T09:35:40Z</time>
      </trkpt>
      <trkpt lat="43.4879000" lon="-5.5412550">
        <ele>91.0</ele>
        <time>2021-07-20T09:35:41Z</time>
      </trkpt>
      <trkpt lat="43.4879210" lon="-5.5413440">
        <ele>89.6</ele>
        <time>2021-07-20T09:35:42Z</time>
      </trkpt>
      <trkpt lat="43.4879510" lon="-5.5414260">
        <ele>89.0</ele>
        <time>2021-07-20T09:35:43Z</time>
      </trkpt>
      <trkpt lat="43.4879880" lon="-5.5414960">
        <ele>88.2</ele>
        <time>2021-07-20T09:35:44Z</time>
      </trkpt>
      <trkpt lat="43.4880270" lon="-5.5415600">
        <ele>87.4</ele>
        <time>2021-07-20T09:35:45Z</time>
      </trkpt>
      <trkpt lat="43.4880800" lon="-5.5416170">
        <ele>86.6</ele>
        <time>2021-07-20T09:35:46Z</time>
      </trkpt>
      <trkpt lat="43.4881370" lon="-5.5416720">
        <ele>85.8</ele>
        <time>2021-07-20T09:35:47Z</time>
      </trkpt>
      <trkpt lat="43.4881950" lon="-5.5417210">
        <ele>85.0</ele>
        <time>2021-07-20T09:35:48Z</time>
      </trkpt>
      <trkpt lat="43.4882620" lon="-5.5417660">
        <ele>84.2</ele>
        <time>2021-07-20T09:35:49Z</time>
      </trkpt>
      <trkpt lat="43.4883290" lon="-5.5418090">
        <ele>84.2</ele>
        <time>2021-07-20T09:35:50Z</time>
      </trkpt>
      <trkpt lat="43.4884700" lon="-5.5418960">
        <ele>83.8</ele>
        <time>2021-07-20T09:35:52Z</time>
      </trkpt>
      <trkpt lat="43.4885410" lon="-5.5419370">
        <ele>83.4</ele>
        <time>2021-07-20T09:35:53Z</time>
      </trkpt>
      <trkpt lat="43.4886110" lon="-5.5419740">
        <ele>83.0</ele>
        <time>2021-07-20T09:35:54Z</time>
      </trkpt>
      <trkpt lat="43.4886770" lon="-5.5420100">
        <ele>82.4</ele>
        <time>2021-07-20T09:35:55Z</time>
      </trkpt>
      <trkpt lat="43.4887430" lon="-5.5420480">
        <ele>82.0</ele>
        <time>2021-07-20T09:35:56Z</time>
      </trkpt>
      <trkpt lat="43.4888570" lon="-5.5421270">
        <ele>82.0</ele>
        <time>2021-07-20T09:35:58Z</time>
      </trkpt>
      <trkpt lat="43.4889040" lon="-5.5421730">
        <ele>81.6</ele>
        <time>2021-07-20T09:35:59Z</time>
      </trkpt>
      <trkpt lat="43.4889440" lon="-5.5422230">
        <ele>81.2</ele>
        <time>2021-07-20T09:36:00Z</time>
      </trkpt>
      <trkpt lat="43.4889780" lon="-5.5422710">
        <ele>80.6</ele>
        <time>2021-07-20T09:36:01Z</time>
      </trkpt>
      <trkpt lat="43.4890050" lon="-5.5423170">
        <ele>80.2</ele>
        <time>2021-07-20T09:36:02Z</time>
      </trkpt>
      <trkpt lat="43.4890250" lon="-5.5423530">
        <ele>79.6</ele>
        <time>2021-07-20T09:36:03Z</time>
      </trkpt>
      <trkpt lat="43.4890420" lon="-5.5423830">
        <ele>79.2</ele>
        <time>2021-07-20T09:36:04Z</time>
      </trkpt>
      <trkpt lat="43.4890550" lon="-5.5424060">
        <ele>78.6</ele>
        <time>2021-07-20T09:36:05Z</time>
      </trkpt>
      <trkpt lat="43.4890730" lon="-5.5424240">
        <ele>78.2</ele>
        <time>2021-07-20T09:36:06Z</time>
      </trkpt>
      <trkpt lat="43.4890860" lon="-5.5424460">
        <ele>77.6</ele>
        <time>2021-07-20T09:36:07Z</time>
      </trkpt>
      <trkpt lat="43.4891630" lon="-5.5426020">
        <ele>77.6</ele>
        <time>2021-07-20T09:36:11Z</time>
      </trkpt>
      <trkpt lat="43.4892050" lon="-5.5427170">
        <ele>77.6</ele>
        <time>2021-07-20T09:36:13Z</time>
      </trkpt>
      <trkpt lat="43.4892480" lon="-5.5428370">
        <ele>77.6</ele>
        <time>2021-07-20T09:36:15Z</time>
      </trkpt>
      <trkpt lat="43.4892880" lon="-5.5429620">
        <ele>77.6</ele>
        <time>2021-07-20T09:36:17Z</time>
      </trkpt>
      <trkpt lat="43.4893250" lon="-5.5430870">
        <ele>77.6</ele>
        <time>2021-07-20T09:36:19Z</time>
      </trkpt>
      <trkpt lat="43.4893720" lon="-5.5432770">
        <ele>77.6</ele>
        <time>2021-07-20T09:36:22Z</time>
      </trkpt>
      <trkpt lat="43.4894300" lon="-5.5434370">
        <ele>77.6</ele>
        <time>2021-07-20T09:36:25Z</time>
      </trkpt>
      <trkpt lat="43.4895010" lon="-5.5436740">
        <ele>77.2</ele>
        <time>2021-07-20T09:36:29Z</time>
      </trkpt>
      <trkpt lat="43.4895200" lon="-5.5437340">
        <ele>76.8</ele>
        <time>2021-07-20T09:36:30Z</time>
      </trkpt>
      <trkpt lat="43.4895420" lon="-5.5437970">
        <ele>76.0</ele>
        <time>2021-07-20T09:36:31Z</time>
      </trkpt>
      <trkpt lat="43.4895630" lon="-5.5438560">
        <ele>75.6</ele>
        <time>2021-07-20T09:36:32Z</time>
      </trkpt>
      <trkpt lat="43.4896260" lon="-5.5440110">
        <ele>75.6</ele>
        <time>2021-07-20T09:36:35Z</time>
      </trkpt>
      <trkpt lat="43.4896790" lon="-5.5441130">
        <ele>75.6</ele>
        <time>2021-07-20T09:36:37Z</time>
      </trkpt>
      <trkpt lat="43.4897770" lon="-5.5443370">
        <ele>75.6</ele>
        <time>2021-07-20T09:36:41Z</time>
      </trkpt>
      <trkpt lat="43.4898990" lon="-5.5446050">
        <ele>75.6</ele>
        <time>2021-07-20T09:36:46Z</time>
      </trkpt>
      <trkpt lat="43.4899640" lon="-5.5447550">
        <ele>75.6</ele>
        <time>2021-07-20T09:36:49Z</time>
      </trkpt>
      <trkpt lat="43.4900400" lon="-5.5448770">
        <ele>75.6</ele>
        <time>2021-07-20T09:36:52Z</time>
      </trkpt>
      <trkpt lat="43.4901330" lon="-5.5449950">
        <ele>75.6</ele>
        <time>2021-07-20T09:36:55Z</time>
      </trkpt>
      <trkpt lat="43.4902110" lon="-5.5451390">
        <ele>75.6</ele>
        <time>2021-07-20T09:36:58Z</time>
      </trkpt>
      <trkpt lat="43.4903020" lon="-5.5453240">
        <ele>75.6</ele>
        <time>2021-07-20T09:37:02Z</time>
      </trkpt>
      <trkpt lat="43.4903420" lon="-5.5454260">
        <ele>75.6</ele>
        <time>2021-07-20T09:37:04Z</time>
      </trkpt>
      <trkpt lat="43.4904710" lon="-5.5456830">
        <ele>75.6</ele>
        <time>2021-07-20T09:37:09Z</time>
      </trkpt>
      <trkpt lat="43.4905350" lon="-5.5458390">
        <ele>75.6</ele>
        <time>2021-07-20T09:37:12Z</time>
      </trkpt>
      <trkpt lat="43.4907030" lon="-5.5461830">
        <ele>75.6</ele>
        <time>2021-07-20T09:37:19Z</time>
      </trkpt>
      <trkpt lat="43.4907240" lon="-5.5462330">
        <ele>75.6</ele>
        <time>2021-07-20T09:37:20Z</time>
      </trkpt>
      <trkpt lat="43.4908470" lon="-5.5465940">
        <ele>75.6</ele>
        <time>2021-07-20T09:37:28Z</time>
      </trkpt>
      <trkpt lat="43.4908750" lon="-5.5466750">
        <ele>75.6</ele>
        <time>2021-07-20T09:37:31Z</time>
      </trkpt>
      <trkpt lat="43.4908860" lon="-5.5467110">
        <ele>75.6</ele>
        <time>2021-07-20T09:37:33Z</time>
      </trkpt>
      <trkpt lat="43.4908860" lon="-5.5467250">
        <ele>75.6</ele>
        <time>2021-07-20T09:37:35Z</time>
      </trkpt>
      <trkpt lat="43.4908870" lon="-5.5467540">
        <ele>75.6</ele>
        <time>2021-07-20T09:37:38Z</time>
      </trkpt>
      <trkpt lat="43.4908940" lon="-5.5467710">
        <ele>75.6</ele>
        <time>2021-07-20T09:37:39Z</time>
      </trkpt>
      <trkpt lat="43.4909670" lon="-5.5469510">
        <ele>75.6</ele>
        <time>2021-07-20T09:37:45Z</time>
      </trkpt>
      <trkpt lat="43.4910110" lon="-5.5470850">
        <ele>75.6</ele>
        <time>2021-07-20T09:37:48Z</time>
      </trkpt>
      <trkpt lat="43.4910920" lon="-5.5472720">
        <ele>75.6</ele>
        <time>2021-07-20T09:37:52Z</time>
      </trkpt>
      <trkpt lat="43.4911170" lon="-5.5473200">
        <ele>75.6</ele>
        <time>2021-07-20T09:37:53Z</time>
      </trkpt>
      <trkpt lat="43.4911440" lon="-5.5473710">
        <ele>76.0</ele>
        <time>2021-07-20T09:37:54Z</time>
      </trkpt>
      <trkpt lat="43.4911710" lon="-5.5474170">
        <ele>76.4</ele>
        <time>2021-07-20T09:37:55Z</time>
      </trkpt>
      <trkpt lat="43.4911910" lon="-5.5474640">
        <ele>76.8</ele>
        <time>2021-07-20T09:37:56Z</time>
      </trkpt>
      <trkpt lat="43.4912050" lon="-5.5475170">
        <ele>77.2</ele>
        <time>2021-07-20T09:37:57Z</time>
      </trkpt>
      <trkpt lat="43.4912210" lon="-5.5475740">
        <ele>77.6</ele>
        <time>2021-07-20T09:37:58Z</time>
      </trkpt>
      <trkpt lat="43.4912390" lon="-5.5476910">
        <ele>77.6</ele>
        <time>2021-07-20T09:38:00Z</time>
      </trkpt>
      <trkpt lat="43.4912730" lon="-5.5481500">
        <ele>77.6</ele>
        <time>2021-07-20T09:38:07Z</time>
      </trkpt>
      <trkpt lat="43.4912820" lon="-5.5484610">
        <ele>77.6</ele>
        <time>2021-07-20T09:38:12Z</time>
      </trkpt>
      <trkpt lat="43.4912890" lon="-5.5485950">
        <ele>77.6</ele>
        <time>2021-07-20T09:38:14Z</time>
      </trkpt>
      <trkpt lat="43.4912980" lon="-5.5486640">
        <ele>77.6</ele>
        <time>2021-07-20T09:38:15Z</time>
      </trkpt>
      <trkpt lat="43.4913640" lon="-5.5488460">
        <ele>77.6</ele>
        <time>2021-07-20T09:38:18Z</time>
      </trkpt>
      <trkpt lat="43.4915280" lon="-5.5490100">
        <ele>77.6</ele>
        <time>2021-07-20T09:38:22Z</time>
      </trkpt>
      <trkpt lat="43.4916140" lon="-5.5490610">
        <ele>77.6</ele>
        <time>2021-07-20T09:38:24Z</time>
      </trkpt>
      <trkpt lat="43.4917340" lon="-5.5491870">
        <ele>77.6</ele>
        <time>2021-07-20T09:38:28Z</time>
      </trkpt>
      <trkpt lat="43.4917730" lon="-5.5494210">
        <ele>77.6</ele>
        <time>2021-07-20T09:38:33Z</time>
      </trkpt>
      <trkpt lat="43.4918800" lon="-5.5496100">
        <ele>78.0</ele>
        <time>2021-07-20T09:38:38Z</time>
      </trkpt>
      <trkpt lat="43.4919080" lon="-5.5496380">
        <ele>78.6</ele>
        <time>2021-07-20T09:38:39Z</time>
      </trkpt>
      <trkpt lat="43.4919360" lon="-5.5496630">
        <ele>79.0</ele>
        <time>2021-07-20T09:38:40Z</time>
      </trkpt>
      <trkpt lat="43.4919690" lon="-5.5496830">
        <ele>79.4</ele>
        <time>2021-07-20T09:38:41Z</time>
      </trkpt>
      <trkpt lat="43.4920030" lon="-5.5497020">
        <ele>79.8</ele>
        <time>2021-07-20T09:38:42Z</time>
      </trkpt>
      <trkpt lat="43.4920970" lon="-5.5497580">
        <ele>79.8</ele>
        <time>2021-07-20T09:38:45Z</time>
      </trkpt>
      <trkpt lat="43.4922670" lon="-5.5499170">
        <ele>79.8</ele>
        <time>2021-07-20T09:38:51Z</time>
      </trkpt>
      <trkpt lat="43.4923290" lon="-5.5500650">
        <ele>80.2</ele>
        <time>2021-07-20T09:38:55Z</time>
      </trkpt>
      <trkpt lat="43.4923440" lon="-5.5501010">
        <ele>80.6</ele>
        <time>2021-07-20T09:38:56Z</time>
      </trkpt>
      <trkpt lat="43.4923530" lon="-5.5501400">
        <ele>81.0</ele>
        <time>2021-07-20T09:38:57Z</time>
      </trkpt>
      <trkpt lat="43.4923660" lon="-5.5501760">
        <ele>81.4</ele>
        <time>2021-07-20T09:38:58Z</time>
      </trkpt>
      <trkpt lat="43.4923730" lon="-5.5502120">
        <ele>81.8</ele>
        <time>2021-07-20T09:38:59Z</time>
      </trkpt>
      <trkpt lat="43.4923970" lon="-5.5503540">
        <ele>81.8</ele>
        <time>2021-07-20T09:39:03Z</time>
      </trkpt>
      <trkpt lat="43.4924060" lon="-5.5503880">
        <ele>82.2</ele>
        <time>2021-07-20T09:39:04Z</time>
      </trkpt>
      <trkpt lat="43.4924130" lon="-5.5504270">
        <ele>82.8</ele>
        <time>2021-07-20T09:39:05Z</time>
      </trkpt>
      <trkpt lat="43.4924210" lon="-5.5504620">
        <ele>83.2</ele>
        <time>2021-07-20T09:39:06Z</time>
      </trkpt>
      <trkpt lat="43.4924310" lon="-5.5504980">
        <ele>83.6</ele>
        <time>2021-07-20T09:39:07Z</time>
      </trkpt>
      <trkpt lat="43.4924400" lon="-5.5505300">
        <ele>84.0</ele>
        <time>2021-07-20T09:39:08Z</time>
      </trkpt>
      <trkpt lat="43.4924800" lon="-5.5506180">
        <ele>84.0</ele>
        <time>2021-07-20T09:39:11Z</time>
      </trkpt>
      <trkpt lat="43.4925400" lon="-5.5507350">
        <ele>84.4</ele>
        <time>2021-07-20T09:39:15Z</time>
      </trkpt>
      <trkpt lat="43.4925530" lon="-5.5507610">
        <ele>84.8</ele>
        <time>2021-07-20T09:39:16Z</time>
      </trkpt>
      <trkpt lat="43.4925690" lon="-5.5507840">
        <ele>85.2</ele>
        <time>2021-07-20T09:39:17Z</time>
      </trkpt>
      <trkpt lat="43.4925840" lon="-5.5508090">
        <ele>85.6</ele>
        <time>2021-07-20T09:39:18Z</time>
      </trkpt>
      <trkpt lat="43.4926010" lon="-5.5508290">
        <ele>86.0</ele>
        <time>2021-07-20T09:39:19Z</time>
      </trkpt>
      <trkpt lat="43.4927120" lon="-5.5510030">
        <ele>86.6</ele>
        <time>2021-07-20T09:39:26Z</time>
      </trkpt>
      <trkpt lat="43.4927240" lon="-5.5510310">
        <ele>87.0</ele>
        <time>2021-07-20T09:39:27Z</time>
      </trkpt>
      <trkpt lat="43.4927370" lon="-5.5510580">
        <ele>87.4</ele>
        <time>2021-07-20T09:39:28Z</time>
      </trkpt>
      <trkpt lat="43.4927460" lon="-5.5510850">
        <ele>87.8</ele>
        <time>2021-07-20T09:39:29Z</time>
      </trkpt>
      <trkpt lat="43.4927580" lon="-5.5511070">
        <ele>88.2</ele>
        <time>2021-07-20T09:39:30Z</time>
      </trkpt>
      <trkpt lat="43.4928290" lon="-5.5512890">
        <ele>88.2</ele>
        <time>2021-07-20T09:39:37Z</time>
      </trkpt>
      <trkpt lat="43.4928390" lon="-5.5513130">
        <ele>88.6</ele>
        <time>2021-07-20T09:39:38Z</time>
      </trkpt>
      <trkpt lat="43.4928480" lon="-5.5513360">
        <ele>89.0</ele>
        <time>2021-07-20T09:39:39Z</time>
      </trkpt>
      <trkpt lat="43.4928540" lon="-5.5513630">
        <ele>89.4</ele>
        <time>2021-07-20T09:39:40Z</time>
      </trkpt>
      <trkpt lat="43.4928580" lon="-5.5513880">
        <ele>89.8</ele>
        <time>2021-07-20T09:39:41Z</time>
      </trkpt>
      <trkpt lat="43.4928640" lon="-5.5514120">
        <ele>90.4</ele>
        <time>2021-07-20T09:39:42Z</time>
      </trkpt>
      <trkpt lat="43.4928980" lon="-5.5514970">
        <ele>90.4</ele>
        <time>2021-07-20T09:39:46Z</time>
      </trkpt>
      <trkpt lat="43.4929370" lon="-5.5515990">
        <ele>90.8</ele>
        <time>2021-07-20T09:39:50Z</time>
      </trkpt>
      <trkpt lat="43.4929440" lon="-5.5516230">
        <ele>91.2</ele>
        <time>2021-07-20T09:39:51Z</time>
      </trkpt>
      <trkpt lat="43.4929490" lon="-5.5516480">
        <ele>91.6</ele>
        <time>2021-07-20T09:39:52Z</time>
      </trkpt>
      <trkpt lat="43.4929560" lon="-5.5516730">
        <ele>92.0</ele>
        <time>2021-07-20T09:39:53Z</time>
      </trkpt>
      <trkpt lat="43.4929670" lon="-5.5516950">
        <ele>92.4</ele>
        <time>2021-07-20T09:39:54Z</time>
      </trkpt>
      <trkpt lat="43.4930040" lon="-5.5517720">
        <ele>92.4</ele>
        <time>2021-07-20T09:39:57Z</time>
      </trkpt>
      <trkpt lat="43.4930690" lon="-5.5519610">
        <ele>92.8</ele>
        <time>2021-07-20T09:40:04Z</time>
      </trkpt>
      <trkpt lat="43.4930780" lon="-5.5519830">
        <ele>93.2</ele>
        <time>2021-07-20T09:40:05Z</time>
      </trkpt>
      <trkpt lat="43.4930860" lon="-5.5520080">
        <ele>93.8</ele>
        <time>2021-07-20T09:40:06Z</time>
      </trkpt>
      <trkpt lat="43.4930890" lon="-5.5520320">
        <ele>94.2</ele>
        <time>2021-07-20T09:40:07Z</time>
      </trkpt>
      <trkpt lat="43.4930960" lon="-5.5520570">
        <ele>94.6</ele>
        <time>2021-07-20T09:40:08Z</time>
      </trkpt>
      <trkpt lat="43.4931210" lon="-5.5521560">
        <ele>94.6</ele>
        <time>2021-07-20T09:40:12Z</time>
      </trkpt>
      <trkpt lat="43.4931130" lon="-5.5522720">
        <ele>95.0</ele>
        <time>2021-07-20T09:40:16Z</time>
      </trkpt>
      <trkpt lat="43.4931070" lon="-5.5522960">
        <ele>95.4</ele>
        <time>2021-07-20T09:40:17Z</time>
      </trkpt>
      <trkpt lat="43.4931060" lon="-5.5523260">
        <ele>95.8</ele>
        <time>2021-07-20T09:40:18Z</time>
      </trkpt>
      <trkpt lat="43.4930990" lon="-5.5523570">
        <ele>96.2</ele>
        <time>2021-07-20T09:40:19Z</time>
      </trkpt>
      <trkpt lat="43.4931010" lon="-5.5523810">
        <ele>96.6</ele>
        <time>2021-07-20T09:40:20Z</time>
      </trkpt>
      <trkpt lat="43.4930990" lon="-5.5524590">
        <ele>96.6</ele>
        <time>2021-07-20T09:40:23Z</time>
      </trkpt>
      <trkpt lat="43.4931380" lon="-5.5526510">
        <ele>96.6</ele>
        <time>2021-07-20T09:40:30Z</time>
      </trkpt>
      <trkpt lat="43.4931430" lon="-5.5526820">
        <ele>97.0</ele>
        <time>2021-07-20T09:40:31Z</time>
      </trkpt>
      <trkpt lat="43.4931500" lon="-5.5527100">
        <ele>97.6</ele>
        <time>2021-07-20T09:40:32Z</time>
      </trkpt>
      <trkpt lat="43.4931570" lon="-5.5527360">
        <ele>98.0</ele>
        <time>2021-07-20T09:40:33Z</time>
      </trkpt>
      <trkpt lat="43.4931620" lon="-5.5527640">
        <ele>98.4</ele>
        <time>2021-07-20T09:40:34Z</time>
      </trkpt>
      <trkpt lat="43.4931690" lon="-5.5527940">
        <ele>98.8</ele>
        <time>2021-07-20T09:40:35Z</time>
      </trkpt>
      <trkpt lat="43.4931950" lon="-5.5529010">
        <ele>98.8</ele>
        <time>2021-07-20T09:40:39Z</time>
      </trkpt>
      <trkpt lat="43.4932170" lon="-5.5529660">
        <ele>99.2</ele>
        <time>2021-07-20T09:40:42Z</time>
      </trkpt>
      <trkpt lat="43.4932250" lon="-5.5529880">
        <ele>99.6</ele>
        <time>2021-07-20T09:40:43Z</time>
      </trkpt>
      <trkpt lat="43.4932310" lon="-5.5530110">
        <ele>100.0</ele>
        <time>2021-07-20T09:40:44Z</time>
      </trkpt>
      <trkpt lat="43.4932400" lon="-5.5530350">
        <ele>100.6</ele>
        <time>2021-07-20T09:40:45Z</time>
      </trkpt>
      <trkpt lat="43.4932490" lon="-5.5530550">
        <ele>101.0</ele>
        <time>2021-07-20T09:40:46Z</time>
      </trkpt>
      <trkpt lat="43.4932570" lon="-5.5530790">
        <ele>101.0</ele>
        <time>2021-07-20T09:40:47Z</time>
      </trkpt>
      <trkpt lat="43.4933250" lon="-5.5532630">
        <ele>101.4</ele>
        <time>2021-07-20T09:40:55Z</time>
      </trkpt>
      <trkpt lat="43.4933320" lon="-5.5532850">
        <ele>101.8</ele>
        <time>2021-07-20T09:40:56Z</time>
      </trkpt>
      <trkpt lat="43.4933430" lon="-5.5533050">
        <ele>102.2</ele>
        <time>2021-07-20T09:40:57Z</time>
      </trkpt>
      <trkpt lat="43.4933540" lon="-5.5533260">
        <ele>102.6</ele>
        <time>2021-07-20T09:40:58Z</time>
      </trkpt>
      <trkpt lat="43.4933660" lon="-5.5533480">
        <ele>103.2</ele>
        <time>2021-07-20T09:40:59Z</time>
      </trkpt>
      <trkpt lat="43.4934620" lon="-5.5534540">
        <ele>103.6</ele>
        <time>2021-07-20T09:41:06Z</time>
      </trkpt>
      <trkpt lat="43.4934820" lon="-5.5534610">
        <ele>104.0</ele>
        <time>2021-07-20T09:41:07Z</time>
      </trkpt>
      <trkpt lat="43.4935000" lon="-5.5534670">
        <ele>104.4</ele>
        <time>2021-07-20T09:41:08Z</time>
      </trkpt>
      <trkpt lat="43.4935170" lon="-5.5534750">
        <ele>104.8</ele>
        <time>2021-07-20T09:41:09Z</time>
      </trkpt>
      <trkpt lat="43.4935340" lon="-5.5534840">
        <ele>105.2</ele>
        <time>2021-07-20T09:41:10Z</time>
      </trkpt>
      <trkpt lat="43.4936060" lon="-5.5534910">
        <ele>105.2</ele>
        <time>2021-07-20T09:41:14Z</time>
      </trkpt>
      <trkpt lat="43.4936790" lon="-5.5535060">
        <ele>105.6</ele>
        <time>2021-07-20T09:41:18Z</time>
      </trkpt>
      <trkpt lat="43.4936970" lon="-5.5535120">
        <ele>106.0</ele>
        <time>2021-07-20T09:41:19Z</time>
      </trkpt>
      <trkpt lat="43.4937160" lon="-5.5535160">
        <ele>106.4</ele>
        <time>2021-07-20T09:41:20Z</time>
      </trkpt>
      <trkpt lat="43.4937320" lon="-5.5535250">
        <ele>106.8</ele>
        <time>2021-07-20T09:41:21Z</time>
      </trkpt>
      <trkpt lat="43.4937500" lon="-5.5535370">
        <ele>107.2</ele>
        <time>2021-07-20T09:41:22Z</time>
      </trkpt>
      <trkpt lat="43.4937950" lon="-5.5535850">
        <ele>107.2</ele>
        <time>2021-07-20T09:41:25Z</time>
      </trkpt>
      <trkpt lat="43.4938540" lon="-5.5537240">
        <ele>107.6</ele>
        <time>2021-07-20T09:41:31Z</time>
      </trkpt>
      <trkpt lat="43.4938610" lon="-5.5537470">
        <ele>108.0</ele>
        <time>2021-07-20T09:41:32Z</time>
      </trkpt>
      <trkpt lat="43.4938660" lon="-5.5537690">
        <ele>108.4</ele>
        <time>2021-07-20T09:41:33Z</time>
      </trkpt>
      <trkpt lat="43.4938710" lon="-5.5537980">
        <ele>108.8</ele>
        <time>2021-07-20T09:41:34Z</time>
      </trkpt>
      <trkpt lat="43.4938790" lon="-5.5538240">
        <ele>109.2</ele>
        <time>2021-07-20T09:41:35Z</time>
      </trkpt>
      <trkpt lat="43.4939250" lon="-5.5539640">
        <ele>109.2</ele>
        <time>2021-07-20T09:41:41Z</time>
      </trkpt>
      <trkpt lat="43.4939550" lon="-5.5540650">
        <ele>109.8</ele>
        <time>2021-07-20T09:41:45Z</time>
      </trkpt>
      <trkpt lat="43.4939620" lon="-5.5540930">
        <ele>110.2</ele>
        <time>2021-07-20T09:41:46Z</time>
      </trkpt>
      <trkpt lat="43.4939680" lon="-5.5541200">
        <ele>110.6</ele>
        <time>2021-07-20T09:41:47Z</time>
      </trkpt>
      <trkpt lat="43.4939750" lon="-5.5541450">
        <ele>111.0</ele>
        <time>2021-07-20T09:41:48Z</time>
      </trkpt>
      <trkpt lat="43.4939830" lon="-5.5541700">
        <ele>111.4</ele>
        <time>2021-07-20T09:41:49Z</time>
      </trkpt>
      <trkpt lat="43.4939930" lon="-5.5541960">
        <ele>111.4</ele>
        <time>2021-07-20T09:41:50Z</time>
      </trkpt>
      <trkpt lat="43.4940850" lon="-5.5543920">
        <ele>111.4</ele>
        <time>2021-07-20T09:41:58Z</time>
      </trkpt>
      <trkpt lat="43.4941930" lon="-5.5545450">
        <ele>111.8</ele>
        <time>2021-07-20T09:42:04Z</time>
      </trkpt>
      <trkpt lat="43.4942110" lon="-5.5545660">
        <ele>112.2</ele>
        <time>2021-07-20T09:42:05Z</time>
      </trkpt>
      <trkpt lat="43.4942300" lon="-5.5545860">
        <ele>112.8</ele>
        <time>2021-07-20T09:42:06Z</time>
      </trkpt>
      <trkpt lat="43.4942480" lon="-5.5546080">
        <ele>113.2</ele>
        <time>2021-07-20T09:42:07Z</time>
      </trkpt>
      <trkpt lat="43.4942670" lon="-5.5546310">
        <ele>113.6</ele>
        <time>2021-07-20T09:42:08Z</time>
      </trkpt>
      <trkpt lat="43.4943810" lon="-5.5547220">
        <ele>113.6</ele>
        <time>2021-07-20T09:42:14Z</time>
      </trkpt>
      <trkpt lat="43.4944440" lon="-5.5547920">
        <ele>114.0</ele>
        <time>2021-07-20T09:42:18Z</time>
      </trkpt>
      <trkpt lat="43.4944610" lon="-5.5548090">
        <ele>114.4</ele>
        <time>2021-07-20T09:42:19Z</time>
      </trkpt>
      <trkpt lat="43.4944770" lon="-5.5548270">
        <ele>114.8</ele>
        <time>2021-07-20T09:42:20Z</time>
      </trkpt>
      <trkpt lat="43.4944900" lon="-5.5548430">
        <ele>115.2</ele>
        <time>2021-07-20T09:42:21Z</time>
      </trkpt>
      <trkpt lat="43.4945010" lon="-5.5548560">
        <ele>115.6</ele>
        <time>2021-07-20T09:42:22Z</time>
      </trkpt>
      <trkpt lat="43.4945750" lon="-5.5549100">
        <ele>115.6</ele>
        <time>2021-07-20T09:42:26Z</time>
      </trkpt>
      <trkpt lat="43.4946260" lon="-5.5549590">
        <ele>115.6</ele>
        <time>2021-07-20T09:42:29Z</time>
      </trkpt>
      <trkpt lat="43.4946470" lon="-5.5550290">
        <ele>115.6</ele>
        <time>2021-07-20T09:42:31Z</time>
      </trkpt>
      <trkpt lat="43.4946340" lon="-5.5551840">
        <ele>115.6</ele>
        <time>2021-07-20T09:42:35Z</time>
      </trkpt>
      <trkpt lat="43.4945580" lon="-5.5552950">
        <ele>116.0</ele>
        <time>2021-07-20T09:42:40Z</time>
      </trkpt>
      <trkpt lat="43.4945400" lon="-5.5553160">
        <ele>116.8</ele>
        <time>2021-07-20T09:42:41Z</time>
      </trkpt>
      <trkpt lat="43.4945200" lon="-5.5553410">
        <ele>117.2</ele>
        <time>2021-07-20T09:42:42Z</time>
      </trkpt>
      <trkpt lat="43.4945040" lon="-5.5553630">
        <ele>117.6</ele>
        <time>2021-07-20T09:42:43Z</time>
      </trkpt>
      <trkpt lat="43.4944350" lon="-5.5554360">
        <ele>117.6</ele>
        <time>2021-07-20T09:42:47Z</time>
      </trkpt>
      <trkpt lat="43.4943690" lon="-5.5555190">
        <ele>118.0</ele>
        <time>2021-07-20T09:42:52Z</time>
      </trkpt>
      <trkpt lat="43.4943570" lon="-5.5555380">
        <ele>118.4</ele>
        <time>2021-07-20T09:42:53Z</time>
      </trkpt>
      <trkpt lat="43.4943450" lon="-5.5555560">
        <ele>119.0</ele>
        <time>2021-07-20T09:42:54Z</time>
      </trkpt>
      <trkpt lat="43.4943320" lon="-5.5555790">
        <ele>119.4</ele>
        <time>2021-07-20T09:42:55Z</time>
      </trkpt>
      <trkpt lat="43.4943200" lon="-5.5556060">
        <ele>119.8</ele>
        <time>2021-07-20T09:42:56Z</time>
      </trkpt>
      <trkpt lat="43.4942650" lon="-5.5557430">
        <ele>119.8</ele>
        <time>2021-07-20T09:43:01Z</time>
      </trkpt>
      <trkpt lat="43.4942460" lon="-5.5558180">
        <ele>120.2</ele>
        <time>2021-07-20T09:43:04Z</time>
      </trkpt>
      <trkpt lat="43.4942390" lon="-5.5558440">
        <ele>120.6</ele>
        <time>2021-07-20T09:43:05Z</time>
      </trkpt>
      <trkpt lat="43.4942340" lon="-5.5558680">
        <ele>121.4</ele>
        <time>2021-07-20T09:43:06Z</time>
      </trkpt>
      <trkpt lat="43.4942280" lon="-5.5558930">
        <ele>122.0</ele>
        <time>2021-07-20T09:43:07Z</time>
      </trkpt>
      <trkpt lat="43.4942240" lon="-5.5559200">
        <ele>122.0</ele>
        <time>2021-07-20T09:43:08Z</time>
      </trkpt>
      <trkpt lat="43.4941990" lon="-5.5561370">
        <ele>122.0</ele>
        <time>2021-07-20T09:43:16Z</time>
      </trkpt>
      <trkpt lat="43.4942030" lon="-5.5561910">
        <ele>122.4</ele>
        <time>2021-07-20T09:43:18Z</time>
      </trkpt>
      <trkpt lat="43.4942050" lon="-5.5562190">
        <ele>122.8</ele>
        <time>2021-07-20T09:43:19Z</time>
      </trkpt>
      <trkpt lat="43.4942090" lon="-5.5562490">
        <ele>123.2</ele>
        <time>2021-07-20T09:43:20Z</time>
      </trkpt>
      <trkpt lat="43.4942110" lon="-5.5562810">
        <ele>123.6</ele>
        <time>2021-07-20T09:43:21Z</time>
      </trkpt>
      <trkpt lat="43.4942130" lon="-5.5563100">
        <ele>124.0</ele>
        <time>2021-07-20T09:43:22Z</time>
      </trkpt>
      <trkpt lat="43.4942200" lon="-5.5563690">
        <ele>124.0</ele>
        <time>2021-07-20T09:43:24Z</time>
      </trkpt>
      <trkpt lat="43.4942410" lon="-5.5565940">
        <ele>124.0</ele>
        <time>2021-07-20T09:43:32Z</time>
      </trkpt>
      <trkpt lat="43.4942480" lon="-5.5566470">
        <ele>124.4</ele>
        <time>2021-07-20T09:43:34Z</time>
      </trkpt>
      <trkpt lat="43.4942530" lon="-5.5566740">
        <ele>124.8</ele>
        <time>2021-07-20T09:43:35Z</time>
      </trkpt>
      <trkpt lat="43.4942560" lon="-5.5566980">
        <ele>125.2</ele>
        <time>2021-07-20T09:43:36Z</time>
      </trkpt>
      <trkpt lat="43.4942590" lon="-5.5567220">
        <ele>125.6</ele>
        <time>2021-07-20T09:43:37Z</time>
      </trkpt>
      <trkpt lat="43.4942610" lon="-5.5567460">
        <ele>126.2</ele>
        <time>2021-07-20T09:43:38Z</time>
      </trkpt>
      <trkpt lat="43.4942750" lon="-5.5568270">
        <ele>126.2</ele>
        <time>2021-07-20T09:43:41Z</time>
      </trkpt>
      <trkpt lat="43.4943130" lon="-5.5570540">
        <ele>126.2</ele>
        <time>2021-07-20T09:43:49Z</time>
      </trkpt>
      <trkpt lat="43.4943260" lon="-5.5571190">
        <ele>126.6</ele>
        <time>2021-07-20T09:43:51Z</time>
      </trkpt>
      <trkpt lat="43.4943320" lon="-5.5571500">
        <ele>127.0</ele>
        <time>2021-07-20T09:43:52Z</time>
      </trkpt>
      <trkpt lat="43.4943390" lon="-5.5571770">
        <ele>127.4</ele>
        <time>2021-07-20T09:43:53Z</time>
      </trkpt>
      <trkpt lat="43.4943440" lon="-5.5572030">
        <ele>127.8</ele>
        <time>2021-07-20T09:43:54Z</time>
      </trkpt>
      <trkpt lat="43.4943510" lon="-5.5572260">
        <ele>128.2</ele>
        <time>2021-07-20T09:43:55Z</time>
      </trkpt>
      <trkpt lat="43.4943580" lon="-5.5572490">
        <ele>128.2</ele>
        <time>2021-07-20T09:43:56Z</time>
      </trkpt>
      <trkpt lat="43.4944010" lon="-5.5574240">
        <ele>128.2</ele>
        <time>2021-07-20T09:44:03Z</time>
      </trkpt>
      <trkpt lat="43.4944240" lon="-5.5575430">
        <ele>128.6</ele>
        <time>2021-07-20T09:44:07Z</time>
      </trkpt>
      <trkpt lat="43.4944310" lon="-5.5575750">
        <ele>129.0</ele>
        <time>2021-07-20T09:44:08Z</time>
      </trkpt>
      <trkpt lat="43.4944380" lon="-5.5576040">
        <ele>129.4</ele>
        <time>2021-07-20T09:44:09Z</time>
      </trkpt>
      <trkpt lat="43.4944420" lon="-5.5576330">
        <ele>129.8</ele>
        <time>2021-07-20T09:44:10Z</time>
      </trkpt>
      <trkpt lat="43.4944460" lon="-5.5576620">
        <ele>130.2</ele>
        <time>2021-07-20T09:44:11Z</time>
      </trkpt>
      <trkpt lat="43.4944760" lon="-5.5577580">
        <ele>130.2</ele>
        <time>2021-07-20T09:44:15Z</time>
      </trkpt>
      <trkpt lat="43.4944890" lon="-5.5578040">
        <ele>130.6</ele>
        <time>2021-07-20T09:44:17Z</time>
      </trkpt>
      <trkpt lat="43.4944940" lon="-5.5578270">
        <ele>131.0</ele>
        <time>2021-07-20T09:44:18Z</time>
      </trkpt>
      <trkpt lat="43.4945000" lon="-5.5578500">
        <ele>131.6</ele>
        <time>2021-07-20T09:44:19Z</time>
      </trkpt>
      <trkpt lat="43.4945040" lon="-5.5578760">
        <ele>132.4</ele>
        <time>2021-07-20T09:44:20Z</time>
      </trkpt>
      <trkpt lat="43.4945460" lon="-5.5580550">
        <ele>132.4</ele>
        <time>2021-07-20T09:44:27Z</time>
      </trkpt>
      <trkpt lat="43.4945790" lon="-5.5581740">
        <ele>132.8</ele>
        <time>2021-07-20T09:44:31Z</time>
      </trkpt>
      <trkpt lat="43.4945880" lon="-5.5582030">
        <ele>133.2</ele>
        <time>2021-07-20T09:44:32Z</time>
      </trkpt>
      <trkpt lat="43.4945980" lon="-5.5582290">
        <ele>133.6</ele>
        <time>2021-07-20T09:44:33Z</time>
      </trkpt>
      <trkpt lat="43.4946040" lon="-5.5582570">
        <ele>134.0</ele>
        <time>2021-07-20T09:44:34Z</time>
      </trkpt>
      <trkpt lat="43.4946110" lon="-5.5582850">
        <ele>134.6</ele>
        <time>2021-07-20T09:44:35Z</time>
      </trkpt>
      <trkpt lat="43.4946580" lon="-5.5584980">
        <ele>134.6</ele>
        <time>2021-07-20T09:44:43Z</time>
      </trkpt>
      <trkpt lat="43.4946720" lon="-5.5585460">
        <ele>135.0</ele>
        <time>2021-07-20T09:44:45Z</time>
      </trkpt>
      <trkpt lat="43.4946790" lon="-5.5585690">
        <ele>135.4</ele>
        <time>2021-07-20T09:44:46Z</time>
      </trkpt>
      <trkpt lat="43.4946850" lon="-5.5585920">
        <ele>135.8</ele>
        <time>2021-07-20T09:44:47Z</time>
      </trkpt>
      <trkpt lat="43.4946890" lon="-5.5586150">
        <ele>136.2</ele>
        <time>2021-07-20T09:44:48Z</time>
      </trkpt>
      <trkpt lat="43.4946950" lon="-5.5586390">
        <ele>136.6</ele>
        <time>2021-07-20T09:44:49Z</time>
      </trkpt>
      <trkpt lat="43.4947140" lon="-5.5587070">
        <ele>136.6</ele>
        <time>2021-07-20T09:44:52Z</time>
      </trkpt>
      <trkpt lat="43.4947540" lon="-5.5588240">
        <ele>137.0</ele>
        <time>2021-07-20T09:44:57Z</time>
      </trkpt>
      <trkpt lat="43.4947620" lon="-5.5588480">
        <ele>137.4</ele>
        <time>2021-07-20T09:44:58Z</time>
      </trkpt>
      <trkpt lat="43.4947690" lon="-5.5588730">
        <ele>137.8</ele>
        <time>2021-07-20T09:44:59Z</time>
      </trkpt>
      <trkpt lat="43.4947790" lon="-5.5589000">
        <ele>138.2</ele>
        <time>2021-07-20T09:45:00Z</time>
      </trkpt>
      <trkpt lat="43.4947890" lon="-5.5589240">
        <ele>138.6</ele>
        <time>2021-07-20T09:45:01Z</time>
      </trkpt>
      <trkpt lat="43.4948590" lon="-5.5591380">
        <ele>138.6</ele>
        <time>2021-07-20T09:45:10Z</time>
      </trkpt>
      <trkpt lat="43.4948970" lon="-5.5592530">
        <ele>139.0</ele>
        <time>2021-07-20T09:45:15Z</time>
      </trkpt>
      <trkpt lat="43.4949070" lon="-5.5592740">
        <ele>139.6</ele>
        <time>2021-07-20T09:45:16Z</time>
      </trkpt>
      <trkpt lat="43.4949140" lon="-5.5592970">
        <ele>140.0</ele>
        <time>2021-07-20T09:45:17Z</time>
      </trkpt>
      <trkpt lat="43.4949200" lon="-5.5593230">
        <ele>140.4</ele>
        <time>2021-07-20T09:45:18Z</time>
      </trkpt>
      <trkpt lat="43.4949280" lon="-5.5593490">
        <ele>140.8</ele>
        <time>2021-07-20T09:45:19Z</time>
      </trkpt>
      <trkpt lat="43.4949360" lon="-5.5593740">
        <ele>140.8</ele>
        <time>2021-07-20T09:45:20Z</time>
      </trkpt>
      <trkpt lat="43.4950140" lon="-5.5595590">
        <ele>140.8</ele>
        <time>2021-07-20T09:45:28Z</time>
      </trkpt>
      <trkpt lat="43.4950230" lon="-5.5595810">
        <ele>141.2</ele>
        <time>2021-07-20T09:45:29Z</time>
      </trkpt>
      <trkpt lat="43.4950330" lon="-5.5596050">
        <ele>141.6</ele>
        <time>2021-07-20T09:45:30Z</time>
      </trkpt>
      <trkpt lat="43.4950420" lon="-5.5596290">
        <ele>142.0</ele>
        <time>2021-07-20T09:45:31Z</time>
      </trkpt>
      <trkpt lat="43.4950530" lon="-5.5596530">
        <ele>142.4</ele>
        <time>2021-07-20T09:45:32Z</time>
      </trkpt>
      <trkpt lat="43.4950650" lon="-5.5596730">
        <ele>142.8</ele>
        <time>2021-07-20T09:45:33Z</time>
      </trkpt>
      <trkpt lat="43.4951000" lon="-5.5597370">
        <ele>142.8</ele>
        <time>2021-07-20T09:45:36Z</time>
      </trkpt>
      <trkpt lat="43.4951570" lon="-5.5598780">
        <ele>143.2</ele>
        <time>2021-07-20T09:45:42Z</time>
      </trkpt>
      <trkpt lat="43.4951660" lon="-5.5599020">
        <ele>143.6</ele>
        <time>2021-07-20T09:45:43Z</time>
      </trkpt>
      <trkpt lat="43.4951770" lon="-5.5599220">
        <ele>144.0</ele>
        <time>2021-07-20T09:45:44Z</time>
      </trkpt>
      <trkpt lat="43.4951860" lon="-5.5599440">
        <ele>144.4</ele>
        <time>2021-07-20T09:45:45Z</time>
      </trkpt>
      <trkpt lat="43.4951930" lon="-5.5599700">
        <ele>144.8</ele>
        <time>2021-07-20T09:45:46Z</time>
      </trkpt>
      <trkpt lat="43.4952260" lon="-5.5601290">
        <ele>144.8</ele>
        <time>2021-07-20T09:45:52Z</time>
      </trkpt>
      <trkpt lat="43.4952170" lon="-5.5602770">
        <ele>145.4</ele>
        <time>2021-07-20T09:45:58Z</time>
      </trkpt>
      <trkpt lat="43.4952190" lon="-5.5603030">
        <ele>146.2</ele>
        <time>2021-07-20T09:45:59Z</time>
      </trkpt>
      <trkpt lat="43.4952210" lon="-5.5603300">
        <ele>146.6</ele>
        <time>2021-07-20T09:46:00Z</time>
      </trkpt>
      <trkpt lat="43.4952220" lon="-5.5603570">
        <ele>147.2</ele>
        <time>2021-07-20T09:46:01Z</time>
      </trkpt>
      <trkpt lat="43.4952540" lon="-5.5604710">
        <ele>147.2</ele>
        <time>2021-07-20T09:46:06Z</time>
      </trkpt>
      <trkpt lat="43.4953080" lon="-5.5605770">
        <ele>147.6</ele>
        <time>2021-07-20T09:46:11Z</time>
      </trkpt>
      <trkpt lat="43.4953200" lon="-5.5605990">
        <ele>148.0</ele>
        <time>2021-07-20T09:46:12Z</time>
      </trkpt>
      <trkpt lat="43.4953320" lon="-5.5606230">
        <ele>148.4</ele>
        <time>2021-07-20T09:46:13Z</time>
      </trkpt>
      <trkpt lat="43.4953430" lon="-5.5606490">
        <ele>148.8</ele>
        <time>2021-07-20T09:46:14Z</time>
      </trkpt>
      <trkpt lat="43.4953540" lon="-5.5606740">
        <ele>149.2</ele>
        <time>2021-07-20T09:46:15Z</time>
      </trkpt>
      <trkpt lat="43.4953770" lon="-5.5608390">
        <ele>149.2</ele>
        <time>2021-07-20T09:46:21Z</time>
      </trkpt>
      <trkpt lat="43.4953830" lon="-5.5610170">
        <ele>149.2</ele>
        <time>2021-07-20T09:46:27Z</time>
      </trkpt>
      <trkpt lat="43.4953860" lon="-5.5610450">
        <ele>149.8</ele>
        <time>2021-07-20T09:46:28Z</time>
      </trkpt>
      <trkpt lat="43.4953870" lon="-5.5610720">
        <ele>150.2</ele>
        <time>2021-07-20T09:46:29Z</time>
      </trkpt>
      <trkpt lat="43.4953870" lon="-5.5610980">
        <ele>150.6</ele>
        <time>2021-07-20T09:46:30Z</time>
      </trkpt>
      <trkpt lat="43.4953880" lon="-5.5611260">
        <ele>151.0</ele>
        <time>2021-07-20T09:46:31Z</time>
      </trkpt>
      <trkpt lat="43.4953880" lon="-5.5611530">
        <ele>151.4</ele>
        <time>2021-07-20T09:46:32Z</time>
      </trkpt>
      <trkpt lat="43.4953880" lon="-5.5612400">
        <ele>151.4</ele>
        <time>2021-07-20T09:46:35Z</time>
      </trkpt>
      <trkpt lat="43.4953930" lon="-5.5614870">
        <ele>151.4</ele>
        <time>2021-07-20T09:46:43Z</time>
      </trkpt>
      <trkpt lat="43.4953990" lon="-5.5616620">
        <ele>151.4</ele>
        <time>2021-07-20T09:46:49Z</time>
      </trkpt>
      <trkpt lat="43.4953990" lon="-5.5616910">
        <ele>151.4</ele>
        <time>2021-07-20T09:46:50Z</time>
      </trkpt>
      <trkpt lat="43.4954020" lon="-5.5617450">
        <ele>151.8</ele>
        <time>2021-07-20T09:46:52Z</time>
      </trkpt>
      <trkpt lat="43.4954030" lon="-5.5617720">
        <ele>152.2</ele>
        <time>2021-07-20T09:46:53Z</time>
      </trkpt>
      <trkpt lat="43.4954040" lon="-5.5617990">
        <ele>152.6</ele>
        <time>2021-07-20T09:46:54Z</time>
      </trkpt>
      <trkpt lat="43.4954060" lon="-5.5618250">
        <ele>153.0</ele>
        <time>2021-07-20T09:46:55Z</time>
      </trkpt>
      <trkpt lat="43.4954070" lon="-5.5618510">
        <ele>153.4</ele>
        <time>2021-07-20T09:46:56Z</time>
      </trkpt>
      <trkpt lat="43.4954080" lon="-5.5619040">
        <ele>153.4</ele>
        <time>2021-07-20T09:46:58Z</time>
      </trkpt>
      <trkpt lat="43.4954070" lon="-5.5621930">
        <ele>153.4</ele>
        <time>2021-07-20T09:47:09Z</time>
      </trkpt>
      <trkpt lat="43.4954020" lon="-5.5622510">
        <ele>153.8</ele>
        <time>2021-07-20T09:47:11Z</time>
      </trkpt>
      <trkpt lat="43.4953980" lon="-5.5622790">
        <ele>154.4</ele>
        <time>2021-07-20T09:47:12Z</time>
      </trkpt>
      <trkpt lat="43.4953940" lon="-5.5623080">
        <ele>154.8</ele>
        <time>2021-07-20T09:47:13Z</time>
      </trkpt>
      <trkpt lat="43.4953900" lon="-5.5623370">
        <ele>155.6</ele>
        <time>2021-07-20T09:47:14Z</time>
      </trkpt>
      <trkpt lat="43.4953830" lon="-5.5624260">
        <ele>155.6</ele>
        <time>2021-07-20T09:47:17Z</time>
      </trkpt>
      <trkpt lat="43.4953630" lon="-5.5625750">
        <ele>155.6</ele>
        <time>2021-07-20T09:47:22Z</time>
      </trkpt>
      <trkpt lat="43.4953650" lon="-5.5626700">
        <ele>156.0</ele>
        <time>2021-07-20T09:47:25Z</time>
      </trkpt>
      <trkpt lat="43.4953630" lon="-5.5627000">
        <ele>156.4</ele>
        <time>2021-07-20T09:47:26Z</time>
      </trkpt>
      <trkpt lat="43.4953630" lon="-5.5627300">
        <ele>156.8</ele>
        <time>2021-07-20T09:47:27Z</time>
      </trkpt>
      <trkpt lat="43.4953620" lon="-5.5627590">
        <ele>157.2</ele>
        <time>2021-07-20T09:47:28Z</time>
      </trkpt>
      <trkpt lat="43.4953600" lon="-5.5627900">
        <ele>157.6</ele>
        <time>2021-07-20T09:47:29Z</time>
      </trkpt>
      <trkpt lat="43.4953560" lon="-5.5628510">
        <ele>157.6</ele>
        <time>2021-07-20T09:47:31Z</time>
      </trkpt>
      <trkpt lat="43.4953420" lon="-5.5630930">
        <ele>158.4</ele>
        <time>2021-07-20T09:47:39Z</time>
      </trkpt>
      <trkpt lat="43.4953400" lon="-5.5631180">
        <ele>158.8</ele>
        <time>2021-07-20T09:47:40Z</time>
      </trkpt>
      <trkpt lat="43.4953370" lon="-5.5631450">
        <ele>159.2</ele>
        <time>2021-07-20T09:47:41Z</time>
      </trkpt>
      <trkpt lat="43.4953340" lon="-5.5631730">
        <ele>159.6</ele>
        <time>2021-07-20T09:47:42Z</time>
      </trkpt>
      <trkpt lat="43.4953220" lon="-5.5632910">
        <ele>159.6</ele>
        <time>2021-07-20T09:47:46Z</time>
      </trkpt>
      <trkpt lat="43.4952910" lon="-5.5635230">
        <ele>159.6</ele>
        <time>2021-07-20T09:47:54Z</time>
      </trkpt>
      <trkpt lat="43.4953080" lon="-5.5637460">
        <ele>159.6</ele>
        <time>2021-07-20T09:48:00Z</time>
      </trkpt>
      <trkpt lat="43.4953150" lon="-5.5637810">
        <ele>160.0</ele>
        <time>2021-07-20T09:48:01Z</time>
      </trkpt>
      <trkpt lat="43.4953190" lon="-5.5638170">
        <ele>160.4</ele>
        <time>2021-07-20T09:48:02Z</time>
      </trkpt>
      <trkpt lat="43.4953230" lon="-5.5638510">
        <ele>160.8</ele>
        <time>2021-07-20T09:48:03Z</time>
      </trkpt>
      <trkpt lat="43.4953280" lon="-5.5638830">
        <ele>161.6</ele>
        <time>2021-07-20T09:48:04Z</time>
      </trkpt>
      <trkpt lat="43.4953410" lon="-5.5640120">
        <ele>161.6</ele>
        <time>2021-07-20T09:48:08Z</time>
      </trkpt>
      <trkpt lat="43.4953360" lon="-5.5641950">
        <ele>161.6</ele>
        <time>2021-07-20T09:48:14Z</time>
      </trkpt>
      <trkpt lat="43.4953330" lon="-5.5642250">
        <ele>162.0</ele>
        <time>2021-07-20T09:48:15Z</time>
      </trkpt>
      <trkpt lat="43.4953300" lon="-5.5642550">
        <ele>162.6</ele>
        <time>2021-07-20T09:48:16Z</time>
      </trkpt>
      <trkpt lat="43.4953250" lon="-5.5642860">
        <ele>163.0</ele>
        <time>2021-07-20T09:48:17Z</time>
      </trkpt>
      <trkpt lat="43.4953210" lon="-5.5643180">
        <ele>163.4</ele>
        <time>2021-07-20T09:48:18Z</time>
      </trkpt>
      <trkpt lat="43.4953160" lon="-5.5643490">
        <ele>163.8</ele>
        <time>2021-07-20T09:48:19Z</time>
      </trkpt>
      <trkpt lat="43.4952970" lon="-5.5644440">
        <ele>163.8</ele>
        <time>2021-07-20T09:48:22Z</time>
      </trkpt>
      <trkpt lat="43.4952740" lon="-5.5646640">
        <ele>163.8</ele>
        <time>2021-07-20T09:48:29Z</time>
      </trkpt>
      <trkpt lat="43.4952700" lon="-5.5647290">
        <ele>164.2</ele>
        <time>2021-07-20T09:48:31Z</time>
      </trkpt>
      <trkpt lat="43.4952650" lon="-5.5647640">
        <ele>164.6</ele>
        <time>2021-07-20T09:48:32Z</time>
      </trkpt>
      <trkpt lat="43.4952580" lon="-5.5648020">
        <ele>165.0</ele>
        <time>2021-07-20T09:48:33Z</time>
      </trkpt>
      <trkpt lat="43.4952500" lon="-5.5648380">
        <ele>165.4</ele>
        <time>2021-07-20T09:48:34Z</time>
      </trkpt>
      <trkpt lat="43.4952400" lon="-5.5648740">
        <ele>165.8</ele>
        <time>2021-07-20T09:48:35Z</time>
      </trkpt>
      <trkpt lat="43.4952310" lon="-5.5649030">
        <ele>165.8</ele>
        <time>2021-07-20T09:48:36Z</time>
      </trkpt>
      <trkpt lat="43.4951900" lon="-5.5650410">
        <ele>165.8</ele>
        <time>2021-07-20T09:48:42Z</time>
      </trkpt>
      <trkpt lat="43.4951460" lon="-5.5651360">
        <ele>166.2</ele>
        <time>2021-07-20T09:48:46Z</time>
      </trkpt>
      <trkpt lat="43.4951360" lon="-5.5651590">
        <ele>166.8</ele>
        <time>2021-07-20T09:48:47Z</time>
      </trkpt>
      <trkpt lat="43.4951260" lon="-5.5651840">
        <ele>167.2</ele>
        <time>2021-07-20T09:48:48Z</time>
      </trkpt>
      <trkpt lat="43.4951180" lon="-5.5652090">
        <ele>167.6</ele>
        <time>2021-07-20T09:48:49Z</time>
      </trkpt>
      <trkpt lat="43.4951100" lon="-5.5652330">
        <ele>168.0</ele>
        <time>2021-07-20T09:48:50Z</time>
      </trkpt>
      <trkpt lat="43.4950410" lon="-5.5653770">
        <ele>168.4</ele>
        <time>2021-07-20T09:48:56Z</time>
      </trkpt>
      <trkpt lat="43.4950270" lon="-5.5654060">
        <ele>168.8</ele>
        <time>2021-07-20T09:48:57Z</time>
      </trkpt>
      <trkpt lat="43.4950150" lon="-5.5654340">
        <ele>169.2</ele>
        <time>2021-07-20T09:48:58Z</time>
      </trkpt>
      <trkpt lat="43.4950020" lon="-5.5654660">
        <ele>169.6</ele>
        <time>2021-07-20T09:48:59Z</time>
      </trkpt>
      <trkpt lat="43.4949880" lon="-5.5654980">
        <ele>170.2</ele>
        <time>2021-07-20T09:49:00Z</time>
      </trkpt>
      <trkpt lat="43.4949550" lon="-5.5655690">
        <ele>170.2</ele>
        <time>2021-07-20T09:49:03Z</time>
      </trkpt>
      <trkpt lat="43.4949070" lon="-5.5657020">
        <ele>170.6</ele>
        <time>2021-07-20T09:49:09Z</time>
      </trkpt>
      <trkpt lat="43.4949050" lon="-5.5657260">
        <ele>171.0</ele>
        <time>2021-07-20T09:49:10Z</time>
      </trkpt>
      <trkpt lat="43.4949010" lon="-5.5657470">
        <ele>171.4</ele>
        <time>2021-07-20T09:49:11Z</time>
      </trkpt>
      <trkpt lat="43.4948970" lon="-5.5657690">
        <ele>171.8</ele>
        <time>2021-07-20T09:49:12Z</time>
      </trkpt>
      <trkpt lat="43.4948960" lon="-5.5657920">
        <ele>172.2</ele>
        <time>2021-07-20T09:49:13Z</time>
      </trkpt>
      <trkpt lat="43.4948900" lon="-5.5658140">
        <ele>172.2</ele>
        <time>2021-07-20T09:49:16Z</time>
      </trkpt>
      <trkpt lat="43.4948780" lon="-5.5658610">
        <ele>172.2</ele>
        <time>2021-07-20T09:54:08Z</time>
      </trkpt>
      <trkpt lat="43.4948750" lon="-5.5658760">
        <ele>172.2</ele>
        <time>2021-07-20T09:54:09Z</time>
      </trkpt>
      <trkpt lat="43.4948600" lon="-5.5659080">
        <ele>172.2</ele>
        <time>2021-07-20T09:54:11Z</time>
      </trkpt>
      <trkpt lat="43.4948460" lon="-5.5659720">
        <ele>172.2</ele>
        <time>2021-07-20T09:54:14Z</time>
      </trkpt>
      <trkpt lat="43.4948400" lon="-5.5660590">
        <ele>172.2</ele>
        <time>2021-07-20T09:54:17Z</time>
      </trkpt>
      <trkpt lat="43.4948280" lon="-5.5661420">
        <ele>172.6</ele>
        <time>2021-07-20T09:54:20Z</time>
      </trkpt>
      <trkpt lat="43.4948220" lon="-5.5661690">
        <ele>173.2</ele>
        <time>2021-07-20T09:54:21Z</time>
      </trkpt>
      <trkpt lat="43.4948170" lon="-5.5661950">
        <ele>173.6</ele>
        <time>2021-07-20T09:54:22Z</time>
      </trkpt>
      <trkpt lat="43.4948130" lon="-5.5662200">
        <ele>174.0</ele>
        <time>2021-07-20T09:54:23Z</time>
      </trkpt>
      <trkpt lat="43.4948060" lon="-5.5662450">
        <ele>174.4</ele>
        <time>2021-07-20T09:54:24Z</time>
      </trkpt>
      <trkpt lat="43.4947930" lon="-5.5662950">
        <ele>174.4</ele>
        <time>2021-07-20T09:54:26Z</time>
      </trkpt>
      <trkpt lat="43.4947740" lon="-5.5663730">
        <ele>174.4</ele>
        <time>2021-07-20T09:54:29Z</time>
      </trkpt>
      <trkpt lat="43.4947440" lon="-5.5664890">
        <ele>174.8</ele>
        <time>2021-07-20T09:54:34Z</time>
      </trkpt>
      <trkpt lat="43.4947400" lon="-5.5665110">
        <ele>175.2</ele>
        <time>2021-07-20T09:54:35Z</time>
      </trkpt>
      <trkpt lat="43.4947370" lon="-5.5665350">
        <ele>175.6</ele>
        <time>2021-07-20T09:54:36Z</time>
      </trkpt>
      <trkpt lat="43.4947330" lon="-5.5665590">
        <ele>176.0</ele>
        <time>2021-07-20T09:54:37Z</time>
      </trkpt>
      <trkpt lat="43.4947290" lon="-5.5665870">
        <ele>176.4</ele>
        <time>2021-07-20T09:54:38Z</time>
      </trkpt>
      <trkpt lat="43.4947120" lon="-5.5667120">
        <ele>176.4</ele>
        <time>2021-07-20T09:54:43Z</time>
      </trkpt>
      <trkpt lat="43.4946620" lon="-5.5668830">
        <ele>176.8</ele>
        <time>2021-07-20T09:54:50Z</time>
      </trkpt>
      <trkpt lat="43.4946540" lon="-5.5669090">
        <ele>177.2</ele>
        <time>2021-07-20T09:54:51Z</time>
      </trkpt>
      <trkpt lat="43.4946440" lon="-5.5669370">
        <ele>177.6</ele>
        <time>2021-07-20T09:54:52Z</time>
      </trkpt>
      <trkpt lat="43.4946350" lon="-5.5669690">
        <ele>178.0</ele>
        <time>2021-07-20T09:54:53Z</time>
      </trkpt>
      <trkpt lat="43.4946290" lon="-5.5669960">
        <ele>178.6</ele>
        <time>2021-07-20T09:54:54Z</time>
      </trkpt>
      <trkpt lat="43.4946020" lon="-5.5670950">
        <ele>178.6</ele>
        <time>2021-07-20T09:54:58Z</time>
      </trkpt>
      <trkpt lat="43.4945620" lon="-5.5671920">
        <ele>179.0</ele>
        <time>2021-07-20T09:55:02Z</time>
      </trkpt>
      <trkpt lat="43.4945530" lon="-5.5672180">
        <ele>179.4</ele>
        <time>2021-07-20T09:55:03Z</time>
      </trkpt>
      <trkpt lat="43.4945450" lon="-5.5672410">
        <ele>179.8</ele>
        <time>2021-07-20T09:55:04Z</time>
      </trkpt>
      <trkpt lat="43.4945400" lon="-5.5672650">
        <ele>180.2</ele>
        <time>2021-07-20T09:55:05Z</time>
      </trkpt>
      <trkpt lat="43.4945330" lon="-5.5672880">
        <ele>180.6</ele>
        <time>2021-07-20T09:55:06Z</time>
      </trkpt>
      <trkpt lat="43.4944550" lon="-5.5675120">
        <ele>181.0</ele>
        <time>2021-07-20T09:55:15Z</time>
      </trkpt>
      <trkpt lat="43.4944480" lon="-5.5675410">
        <ele>181.4</ele>
        <time>2021-07-20T09:55:16Z</time>
      </trkpt>
      <trkpt lat="43.4944420" lon="-5.5675680">
        <ele>181.8</ele>
        <time>2021-07-20T09:55:17Z</time>
      </trkpt>
      <trkpt lat="43.4944330" lon="-5.5675930">
        <ele>182.2</ele>
        <time>2021-07-20T09:55:18Z</time>
      </trkpt>
      <trkpt lat="43.4944210" lon="-5.5676190">
        <ele>182.6</ele>
        <time>2021-07-20T09:55:19Z</time>
      </trkpt>
      <trkpt lat="43.4943990" lon="-5.5676680">
        <ele>182.6</ele>
        <time>2021-07-20T09:55:21Z</time>
      </trkpt>
      <trkpt lat="43.4943280" lon="-5.5678560">
        <ele>182.6</ele>
        <time>2021-07-20T09:55:28Z</time>
      </trkpt>
      <trkpt lat="43.4942940" lon="-5.5679450">
        <ele>183.0</ele>
        <time>2021-07-20T09:55:31Z</time>
      </trkpt>
      <trkpt lat="43.4942790" lon="-5.5679720">
        <ele>183.6</ele>
        <time>2021-07-20T09:55:32Z</time>
      </trkpt>
      <trkpt lat="43.4942640" lon="-5.5680030">
        <ele>184.0</ele>
        <time>2021-07-20T09:55:33Z</time>
      </trkpt>
      <trkpt lat="43.4942470" lon="-5.5680340">
        <ele>184.4</ele>
        <time>2021-07-20T09:55:34Z</time>
      </trkpt>
      <trkpt lat="43.4942320" lon="-5.5680630">
        <ele>184.8</ele>
        <time>2021-07-20T09:55:35Z</time>
      </trkpt>
      <trkpt lat="43.4941180" lon="-5.5682990">
        <ele>184.8</ele>
        <time>2021-07-20T09:55:43Z</time>
      </trkpt>
      <trkpt lat="43.4940130" lon="-5.5684960">
        <ele>185.2</ele>
        <time>2021-07-20T09:55:50Z</time>
      </trkpt>
      <trkpt lat="43.4939980" lon="-5.5685260">
        <ele>185.6</ele>
        <time>2021-07-20T09:55:51Z</time>
      </trkpt>
      <trkpt lat="43.4939830" lon="-5.5685530">
        <ele>186.0</ele>
        <time>2021-07-20T09:55:52Z</time>
      </trkpt>
      <trkpt lat="43.4939700" lon="-5.5685850">
        <ele>186.4</ele>
        <time>2021-07-20T09:55:53Z</time>
      </trkpt>
      <trkpt lat="43.4939560" lon="-5.5686160">
        <ele>186.8</ele>
        <time>2021-07-20T09:55:54Z</time>
      </trkpt>
      <trkpt lat="43.4939140" lon="-5.5687010">
        <ele>186.8</ele>
        <time>2021-07-20T09:55:57Z</time>
      </trkpt>
      <trkpt lat="43.4938320" lon="-5.5688660">
        <ele>187.2</ele>
        <time>2021-07-20T09:56:03Z</time>
      </trkpt>
      <trkpt lat="43.4938190" lon="-5.5688950">
        <ele>187.6</ele>
        <time>2021-07-20T09:56:04Z</time>
      </trkpt>
      <trkpt lat="43.4938100" lon="-5.5689230">
        <ele>188.0</ele>
        <time>2021-07-20T09:56:05Z</time>
      </trkpt>
      <trkpt lat="43.4938020" lon="-5.5689490">
        <ele>188.4</ele>
        <time>2021-07-20T09:56:06Z</time>
      </trkpt>
      <trkpt lat="43.4937950" lon="-5.5689750">
        <ele>188.8</ele>
        <time>2021-07-20T09:56:07Z</time>
      </trkpt>
      <trkpt lat="43.4937640" lon="-5.5691570">
        <ele>188.8</ele>
        <time>2021-07-20T09:56:13Z</time>
      </trkpt>
      <trkpt lat="43.4937150" lon="-5.5693560">
        <ele>189.2</ele>
        <time>2021-07-20T09:56:20Z</time>
      </trkpt>
      <trkpt lat="43.4937070" lon="-5.5693790">
        <ele>190.2</ele>
        <time>2021-07-20T09:56:21Z</time>
      </trkpt>
      <trkpt lat="43.4936970" lon="-5.5694060">
        <ele>190.6</ele>
        <time>2021-07-20T09:56:22Z</time>
      </trkpt>
      <trkpt lat="43.4936890" lon="-5.5694340">
        <ele>191.0</ele>
        <time>2021-07-20T09:56:23Z</time>
      </trkpt>
      <trkpt lat="43.4936070" lon="-5.5696090">
        <ele>191.0</ele>
        <time>2021-07-20T09:56:30Z</time>
      </trkpt>
      <trkpt lat="43.4935840" lon="-5.5696550">
        <ele>191.4</ele>
        <time>2021-07-20T09:56:32Z</time>
      </trkpt>
      <trkpt lat="43.4935730" lon="-5.5696730">
        <ele>191.8</ele>
        <time>2021-07-20T09:56:33Z</time>
      </trkpt>
      <trkpt lat="43.4935620" lon="-5.5696960">
        <ele>192.2</ele>
        <time>2021-07-20T09:56:34Z</time>
      </trkpt>
      <trkpt lat="43.4935530" lon="-5.5697150">
        <ele>192.6</ele>
        <time>2021-07-20T09:56:35Z</time>
      </trkpt>
      <trkpt lat="43.4935430" lon="-5.5697390">
        <ele>193.0</ele>
        <time>2021-07-20T09:56:36Z</time>
      </trkpt>
      <trkpt lat="43.4935330" lon="-5.5697610">
        <ele>193.0</ele>
        <time>2021-07-20T09:56:37Z</time>
      </trkpt>
      <trkpt lat="43.4934490" lon="-5.5699480">
        <ele>193.0</ele>
        <time>2021-07-20T09:56:45Z</time>
      </trkpt>
      <trkpt lat="43.4934390" lon="-5.5699750">
        <ele>193.4</ele>
        <time>2021-07-20T09:56:46Z</time>
      </trkpt>
      <trkpt lat="43.4934310" lon="-5.5700000">
        <ele>193.8</ele>
        <time>2021-07-20T09:56:47Z</time>
      </trkpt>
      <trkpt lat="43.4934230" lon="-5.5700240">
        <ele>194.2</ele>
        <time>2021-07-20T09:56:48Z</time>
      </trkpt>
      <trkpt lat="43.4934150" lon="-5.5700480">
        <ele>194.6</ele>
        <time>2021-07-20T09:56:49Z</time>
      </trkpt>
      <trkpt lat="43.4934050" lon="-5.5700700">
        <ele>195.0</ele>
        <time>2021-07-20T09:56:50Z</time>
      </trkpt>
      <trkpt lat="43.4933620" lon="-5.5701830">
        <ele>195.0</ele>
        <time>2021-07-20T09:56:55Z</time>
      </trkpt>
      <trkpt lat="43.4933130" lon="-5.5703290">
        <ele>195.4</ele>
        <time>2021-07-20T09:57:01Z</time>
      </trkpt>
      <trkpt lat="43.4933100" lon="-5.5703540">
        <ele>196.0</ele>
        <time>2021-07-20T09:57:02Z</time>
      </trkpt>
      <trkpt lat="43.4933040" lon="-5.5703780">
        <ele>196.4</ele>
        <time>2021-07-20T09:57:03Z</time>
      </trkpt>
      <trkpt lat="43.4932970" lon="-5.5704020">
        <ele>196.8</ele>
        <time>2021-07-20T09:57:04Z</time>
      </trkpt>
      <trkpt lat="43.4932900" lon="-5.5704260">
        <ele>197.2</ele>
        <time>2021-07-20T09:57:05Z</time>
      </trkpt>
      <trkpt lat="43.4932420" lon="-5.5705780">
        <ele>197.2</ele>
        <time>2021-07-20T09:57:11Z</time>
      </trkpt>
      <trkpt lat="43.4932030" lon="-5.5706650">
        <ele>197.6</ele>
        <time>2021-07-20T09:57:15Z</time>
      </trkpt>
      <trkpt lat="43.4931960" lon="-5.5706880">
        <ele>198.0</ele>
        <time>2021-07-20T09:57:16Z</time>
      </trkpt>
      <trkpt lat="43.4931870" lon="-5.5707120">
        <ele>198.4</ele>
        <time>2021-07-20T09:57:17Z</time>
      </trkpt>
      <trkpt lat="43.4931750" lon="-5.5707370">
        <ele>198.8</ele>
        <time>2021-07-20T09:57:18Z</time>
      </trkpt>
      <trkpt lat="43.4931650" lon="-5.5707620">
        <ele>199.2</ele>
        <time>2021-07-20T09:57:19Z</time>
      </trkpt>
      <trkpt lat="43.4930880" lon="-5.5709330">
        <ele>199.2</ele>
        <time>2021-07-20T09:57:26Z</time>
      </trkpt>
      <trkpt lat="43.4930360" lon="-5.5710330">
        <ele>199.8</ele>
        <time>2021-07-20T09:57:30Z</time>
      </trkpt>
      <trkpt lat="43.4930230" lon="-5.5710590">
        <ele>200.2</ele>
        <time>2021-07-20T09:57:31Z</time>
      </trkpt>
      <trkpt lat="43.4930100" lon="-5.5710830">
        <ele>200.6</ele>
        <time>2021-07-20T09:57:32Z</time>
      </trkpt>
      <trkpt lat="43.4929990" lon="-5.5711120">
        <ele>201.0</ele>
        <time>2021-07-20T09:57:33Z</time>
      </trkpt>
      <trkpt lat="43.4929880" lon="-5.5711390">
        <ele>201.4</ele>
        <time>2021-07-20T09:57:34Z</time>
      </trkpt>
      <trkpt lat="43.4929740" lon="-5.5711650">
        <ele>201.4</ele>
        <time>2021-07-20T09:57:35Z</time>
      </trkpt>
      <trkpt lat="43.4928720" lon="-5.5713630">
        <ele>201.8</ele>
        <time>2021-07-20T09:57:43Z</time>
      </trkpt>
      <trkpt lat="43.4928580" lon="-5.5713910">
        <ele>202.2</ele>
        <time>2021-07-20T09:57:44Z</time>
      </trkpt>
      <trkpt lat="43.4928450" lon="-5.5714160">
        <ele>202.6</ele>
        <time>2021-07-20T09:57:45Z</time>
      </trkpt>
      <trkpt lat="43.4928320" lon="-5.5714410">
        <ele>203.0</ele>
        <time>2021-07-20T09:57:46Z</time>
      </trkpt>
      <trkpt lat="43.4928180" lon="-5.5714660">
        <ele>203.4</ele>
        <time>2021-07-20T09:57:47Z</time>
      </trkpt>
      <trkpt lat="43.4927040" lon="-5.5716050">
        <ele>203.4</ele>
        <time>2021-07-20T09:57:55Z</time>
      </trkpt>
      <trkpt lat="43.4926310" lon="-5.5717040">
        <ele>203.4</ele>
        <time>2021-07-20T09:58:00Z</time>
      </trkpt>
      <trkpt lat="43.4926230" lon="-5.5717310">
        <ele>204.2</ele>
        <time>2021-07-20T09:58:01Z</time>
      </trkpt>
      <trkpt lat="43.4926180" lon="-5.5717600">
        <ele>204.6</ele>
        <time>2021-07-20T09:58:02Z</time>
      </trkpt>
      <trkpt lat="43.4926240" lon="-5.5717830">
        <ele>205.2</ele>
        <time>2021-07-20T09:58:03Z</time>
      </trkpt>
      <trkpt lat="43.4926350" lon="-5.5718050">
        <ele>205.6</ele>
        <time>2021-07-20T09:58:04Z</time>
      </trkpt>
      <trkpt lat="43.4927080" lon="-5.5718010">
        <ele>205.6</ele>
        <time>2021-07-20T09:58:08Z</time>
      </trkpt>
      <trkpt lat="43.4927490" lon="-5.5717680">
        <ele>205.6</ele>
        <time>2021-07-20T09:58:10Z</time>
      </trkpt>
      <trkpt lat="43.4927690" lon="-5.5717530">
        <ele>206.0</ele>
        <time>2021-07-20T09:58:11Z</time>
      </trkpt>
      <trkpt lat="43.4927860" lon="-5.5717400">
        <ele>206.4</ele>
        <time>2021-07-20T09:58:12Z</time>
      </trkpt>
      <trkpt lat="43.4928060" lon="-5.5717200">
        <ele>206.8</ele>
        <time>2021-07-20T09:58:13Z</time>
      </trkpt>
      <trkpt lat="43.4928270" lon="-5.5716990">
        <ele>207.2</ele>
        <time>2021-07-20T09:58:14Z</time>
      </trkpt>
      <trkpt lat="43.4928500" lon="-5.5716770">
        <ele>207.6</ele>
        <time>2021-07-20T09:58:15Z</time>
      </trkpt>
      <trkpt lat="43.4928740" lon="-5.5716530">
        <ele>207.6</ele>
        <time>2021-07-20T09:58:16Z</time>
      </trkpt>
      <trkpt lat="43.4929860" lon="-5.5714790">
        <ele>207.6</ele>
        <time>2021-07-20T09:58:23Z</time>
      </trkpt>
      <trkpt lat="43.4931010" lon="-5.5713030">
        <ele>208.0</ele>
        <time>2021-07-20T09:58:30Z</time>
      </trkpt>
      <trkpt lat="43.4931190" lon="-5.5712800">
        <ele>208.6</ele>
        <time>2021-07-20T09:58:31Z</time>
      </trkpt>
      <trkpt lat="43.4931390" lon="-5.5712600">
        <ele>209.0</ele>
        <time>2021-07-20T09:58:32Z</time>
      </trkpt>
      <trkpt lat="43.4931570" lon="-5.5712400">
        <ele>209.4</ele>
        <time>2021-07-20T09:58:33Z</time>
      </trkpt>
      <trkpt lat="43.4931770" lon="-5.5712220">
        <ele>209.8</ele>
        <time>2021-07-20T09:58:34Z</time>
      </trkpt>
      <trkpt lat="43.4932580" lon="-5.5711430">
        <ele>209.8</ele>
        <time>2021-07-20T09:58:38Z</time>
      </trkpt>
      <trkpt lat="43.4934230" lon="-5.5710200">
        <ele>209.8</ele>
        <time>2021-07-20T09:58:46Z</time>
      </trkpt>
      <trkpt lat="43.4934430" lon="-5.5710080">
        <ele>210.2</ele>
        <time>2021-07-20T09:58:47Z</time>
      </trkpt>
      <trkpt lat="43.4934600" lon="-5.5709940">
        <ele>210.6</ele>
        <time>2021-07-20T09:58:48Z</time>
      </trkpt>
      <trkpt lat="43.4934790" lon="-5.5709790">
        <ele>211.0</ele>
        <time>2021-07-20T09:58:49Z</time>
      </trkpt>
      <trkpt lat="43.4934970" lon="-5.5709650">
        <ele>211.8</ele>
        <time>2021-07-20T09:58:50Z</time>
      </trkpt>
      <trkpt lat="43.4935740" lon="-5.5709050">
        <ele>211.8</ele>
        <time>2021-07-20T09:58:54Z</time>
      </trkpt>
      <trkpt lat="43.4937120" lon="-5.5707960">
        <ele>211.8</ele>
        <time>2021-07-20T09:59:01Z</time>
      </trkpt>
      <trkpt lat="43.4937460" lon="-5.5707520">
        <ele>212.2</ele>
        <time>2021-07-20T09:59:03Z</time>
      </trkpt>
      <trkpt lat="43.4937610" lon="-5.5707300">
        <ele>212.6</ele>
        <time>2021-07-20T09:59:04Z</time>
      </trkpt>
      <trkpt lat="43.4937760" lon="-5.5707080">
        <ele>213.0</ele>
        <time>2021-07-20T09:59:05Z</time>
      </trkpt>
      <trkpt lat="43.4937930" lon="-5.5706830">
        <ele>213.4</ele>
        <time>2021-07-20T09:59:06Z</time>
      </trkpt>
      <trkpt lat="43.4938100" lon="-5.5706600">
        <ele>214.0</ele>
        <time>2021-07-20T09:59:07Z</time>
      </trkpt>
      <trkpt lat="43.4938450" lon="-5.5706100">
        <ele>214.0</ele>
        <time>2021-07-20T09:59:09Z</time>
      </trkpt>
      <trkpt lat="43.4939690" lon="-5.5703770">
        <ele>214.0</ele>
        <time>2021-07-20T09:59:18Z</time>
      </trkpt>
      <trkpt lat="43.4940070" lon="-5.5703020">
        <ele>214.4</ele>
        <time>2021-07-20T09:59:21Z</time>
      </trkpt>
      <trkpt lat="43.4940200" lon="-5.5702780">
        <ele>214.8</ele>
        <time>2021-07-20T09:59:22Z</time>
      </trkpt>
      <trkpt lat="43.4940350" lon="-5.5702540">
        <ele>215.2</ele>
        <time>2021-07-20T09:59:23Z</time>
      </trkpt>
      <trkpt lat="43.4940480" lon="-5.5702270">
        <ele>215.6</ele>
        <time>2021-07-20T09:59:24Z</time>
      </trkpt>
      <trkpt lat="43.4940590" lon="-5.5701990">
        <ele>216.0</ele>
        <time>2021-07-20T09:59:25Z</time>
      </trkpt>
      <trkpt lat="43.4941870" lon="-5.5699460">
        <ele>216.0</ele>
        <time>2021-07-20T09:59:35Z</time>
      </trkpt>
      <trkpt lat="43.4942360" lon="-5.5698410">
        <ele>216.4</ele>
        <time>2021-07-20T09:59:39Z</time>
      </trkpt>
      <trkpt lat="43.4942480" lon="-5.5698180">
        <ele>216.8</ele>
        <time>2021-07-20T09:59:40Z</time>
      </trkpt>
      <trkpt lat="43.4942630" lon="-5.5697950">
        <ele>217.2</ele>
        <time>2021-07-20T09:59:41Z</time>
      </trkpt>
      <trkpt lat="43.4942790" lon="-5.5697740">
        <ele>217.6</ele>
        <time>2021-07-20T09:59:42Z</time>
      </trkpt>
      <trkpt lat="43.4942970" lon="-5.5697530">
        <ele>218.0</ele>
        <time>2021-07-20T09:59:43Z</time>
      </trkpt>
      <trkpt lat="43.4943110" lon="-5.5697300">
        <ele>218.0</ele>
        <time>2021-07-20T09:59:44Z</time>
      </trkpt>
      <trkpt lat="43.4944260" lon="-5.5695750">
        <ele>218.0</ele>
        <time>2021-07-20T09:59:51Z</time>
      </trkpt>
      <trkpt lat="43.4944590" lon="-5.5695250">
        <ele>218.4</ele>
        <time>2021-07-20T09:59:53Z</time>
      </trkpt>
      <trkpt lat="43.4944770" lon="-5.5695010">
        <ele>218.8</ele>
        <time>2021-07-20T09:59:54Z</time>
      </trkpt>
      <trkpt lat="43.4944930" lon="-5.5694740">
        <ele>219.2</ele>
        <time>2021-07-20T09:59:55Z</time>
      </trkpt>
      <trkpt lat="43.4945070" lon="-5.5694470">
        <ele>219.6</ele>
        <time>2021-07-20T09:59:56Z</time>
      </trkpt>
      <trkpt lat="43.4945240" lon="-5.5694180">
        <ele>220.0</ele>
        <time>2021-07-20T09:59:57Z</time>
      </trkpt>
      <trkpt lat="43.4945530" lon="-5.5693640">
        <ele>220.0</ele>
        <time>2021-07-20T09:59:59Z</time>
      </trkpt>
      <trkpt lat="43.4946810" lon="-5.5691360">
        <ele>220.0</ele>
        <time>2021-07-20T10:00:08Z</time>
      </trkpt>
      <trkpt lat="43.4947450" lon="-5.5689870">
        <ele>220.4</ele>
        <time>2021-07-20T10:00:13Z</time>
      </trkpt>
      <trkpt lat="43.4947540" lon="-5.5689550">
        <ele>220.8</ele>
        <time>2021-07-20T10:00:14Z</time>
      </trkpt>
      <trkpt lat="43.4947660" lon="-5.5689270">
        <ele>221.2</ele>
        <time>2021-07-20T10:00:15Z</time>
      </trkpt>
      <trkpt lat="43.4947750" lon="-5.5688990">
        <ele>221.8</ele>
        <time>2021-07-20T10:00:16Z</time>
      </trkpt>
      <trkpt lat="43.4947850" lon="-5.5688710">
        <ele>222.2</ele>
        <time>2021-07-20T10:00:17Z</time>
      </trkpt>
      <trkpt lat="43.4948570" lon="-5.5686990">
        <ele>222.2</ele>
        <time>2021-07-20T10:00:23Z</time>
      </trkpt>
      <trkpt lat="43.4949490" lon="-5.5685200">
        <ele>222.6</ele>
        <time>2021-07-20T10:00:30Z</time>
      </trkpt>
      <trkpt lat="43.4949640" lon="-5.5684970">
        <ele>223.0</ele>
        <time>2021-07-20T10:00:31Z</time>
      </trkpt>
      <trkpt lat="43.4949770" lon="-5.5684730">
        <ele>223.4</ele>
        <time>2021-07-20T10:00:32Z</time>
      </trkpt>
      <trkpt lat="43.4949910" lon="-5.5684470">
        <ele>223.8</ele>
        <time>2021-07-20T10:00:33Z</time>
      </trkpt>
      <trkpt lat="43.4950040" lon="-5.5684210">
        <ele>224.2</ele>
        <time>2021-07-20T10:00:34Z</time>
      </trkpt>
      <trkpt lat="43.4950660" lon="-5.5683400">
        <ele>224.2</ele>
        <time>2021-07-20T10:00:38Z</time>
      </trkpt>
      <trkpt lat="43.4951720" lon="-5.5681770">
        <ele>224.2</ele>
        <time>2021-07-20T10:00:45Z</time>
      </trkpt>
      <trkpt lat="43.4951990" lon="-5.5681250">
        <ele>224.6</ele>
        <time>2021-07-20T10:00:47Z</time>
      </trkpt>
      <trkpt lat="43.4952130" lon="-5.5681000">
        <ele>225.0</ele>
        <time>2021-07-20T10:00:48Z</time>
      </trkpt>
      <trkpt lat="43.4952250" lon="-5.5680760">
        <ele>225.4</ele>
        <time>2021-07-20T10:00:49Z</time>
      </trkpt>
      <trkpt lat="43.4952380" lon="-5.5680520">
        <ele>225.8</ele>
        <time>2021-07-20T10:00:50Z</time>
      </trkpt>
      <trkpt lat="43.4952500" lon="-5.5680240">
        <ele>226.2</ele>
        <time>2021-07-20T10:00:51Z</time>
      </trkpt>
      <trkpt lat="43.4952790" lon="-5.5679700">
        <ele>226.2</ele>
        <time>2021-07-20T10:00:53Z</time>
      </trkpt>
      <trkpt lat="43.4953540" lon="-5.5678650">
        <ele>226.2</ele>
        <time>2021-07-20T10:00:58Z</time>
      </trkpt>
      <trkpt lat="43.4954190" lon="-5.5677990">
        <ele>226.6</ele>
        <time>2021-07-20T10:01:02Z</time>
      </trkpt>
      <trkpt lat="43.4954400" lon="-5.5677830">
        <ele>227.2</ele>
        <time>2021-07-20T10:01:03Z</time>
      </trkpt>
      <trkpt lat="43.4954590" lon="-5.5677690">
        <ele>227.6</ele>
        <time>2021-07-20T10:01:04Z</time>
      </trkpt>
      <trkpt lat="43.4954780" lon="-5.5677590">
        <ele>228.0</ele>
        <time>2021-07-20T10:01:05Z</time>
      </trkpt>
      <trkpt lat="43.4954980" lon="-5.5677470">
        <ele>228.4</ele>
        <time>2021-07-20T10:01:06Z</time>
      </trkpt>
      <trkpt lat="43.4955690" lon="-5.5676760">
        <ele>228.4</ele>
        <time>2021-07-20T10:01:10Z</time>
      </trkpt>
      <trkpt lat="43.4957210" lon="-5.5675370">
        <ele>228.4</ele>
        <time>2021-07-20T10:01:17Z</time>
      </trkpt>
      <trkpt lat="43.4957930" lon="-5.5674640">
        <ele>228.8</ele>
        <time>2021-07-20T10:01:21Z</time>
      </trkpt>
      <trkpt lat="43.4958110" lon="-5.5674440">
        <ele>229.2</ele>
        <time>2021-07-20T10:01:22Z</time>
      </trkpt>
      <trkpt lat="43.4958320" lon="-5.5674250">
        <ele>229.8</ele>
        <time>2021-07-20T10:01:23Z</time>
      </trkpt>
      <trkpt lat="43.4958460" lon="-5.5674060">
        <ele>230.2</ele>
        <time>2021-07-20T10:01:24Z</time>
      </trkpt>
      <trkpt lat="43.4958610" lon="-5.5673860">
        <ele>230.6</ele>
        <time>2021-07-20T10:01:25Z</time>
      </trkpt>
      <trkpt lat="43.4959320" lon="-5.5673260">
        <ele>230.6</ele>
        <time>2021-07-20T10:01:29Z</time>
      </trkpt>
      <trkpt lat="43.4960500" lon="-5.5672410">
        <ele>230.6</ele>
        <time>2021-07-20T10:01:35Z</time>
      </trkpt>
      <trkpt lat="43.4961440" lon="-5.5672070">
        <ele>231.0</ele>
        <time>2021-07-20T10:01:40Z</time>
      </trkpt>
      <trkpt lat="43.4961650" lon="-5.5671970">
        <ele>231.4</ele>
        <time>2021-07-20T10:01:41Z</time>
      </trkpt>
      <trkpt lat="43.4961880" lon="-5.5671840">
        <ele>231.8</ele>
        <time>2021-07-20T10:01:42Z</time>
      </trkpt>
      <trkpt lat="43.4962070" lon="-5.5671750">
        <ele>232.6</ele>
        <time>2021-07-20T10:01:43Z</time>
      </trkpt>
      <trkpt lat="43.4963090" lon="-5.5670690">
        <ele>232.6</ele>
        <time>2021-07-20T10:01:48Z</time>
      </trkpt>
      <trkpt lat="43.4963760" lon="-5.5668780">
        <ele>232.6</ele>
        <time>2021-07-20T10:01:54Z</time>
      </trkpt>
      <trkpt lat="43.4963860" lon="-5.5668150">
        <ele>233.0</ele>
        <time>2021-07-20T10:01:56Z</time>
      </trkpt>
      <trkpt lat="43.4963900" lon="-5.5667810">
        <ele>233.4</ele>
        <time>2021-07-20T10:01:57Z</time>
      </trkpt>
      <trkpt lat="43.4963960" lon="-5.5667450">
        <ele>233.8</ele>
        <time>2021-07-20T10:01:58Z</time>
      </trkpt>
      <trkpt lat="43.4964070" lon="-5.5667180">
        <ele>234.2</ele>
        <time>2021-07-20T10:01:59Z</time>
      </trkpt>
      <trkpt lat="43.4964140" lon="-5.5666910">
        <ele>234.6</ele>
        <time>2021-07-20T10:02:00Z</time>
      </trkpt>
      <trkpt lat="43.4964180" lon="-5.5666650">
        <ele>234.6</ele>
        <time>2021-07-20T10:02:01Z</time>
      </trkpt>
      <trkpt lat="43.4964220" lon="-5.5664880">
        <ele>234.6</ele>
        <time>2021-07-20T10:02:07Z</time>
      </trkpt>
      <trkpt lat="43.4964500" lon="-5.5663450">
        <ele>235.2</ele>
        <time>2021-07-20T10:02:12Z</time>
      </trkpt>
      <trkpt lat="43.4964550" lon="-5.5663160">
        <ele>235.6</ele>
        <time>2021-07-20T10:02:13Z</time>
      </trkpt>
      <trkpt lat="43.4964620" lon="-5.5662830">
        <ele>236.0</ele>
        <time>2021-07-20T10:02:14Z</time>
      </trkpt>
      <trkpt lat="43.4964710" lon="-5.5662510">
        <ele>236.4</ele>
        <time>2021-07-20T10:02:15Z</time>
      </trkpt>
      <trkpt lat="43.4964770" lon="-5.5662190">
        <ele>236.8</ele>
        <time>2021-07-20T10:02:16Z</time>
      </trkpt>
      <trkpt lat="43.4965080" lon="-5.5660980">
        <ele>236.8</ele>
        <time>2021-07-20T10:02:20Z</time>
      </trkpt>
      <trkpt lat="43.4965590" lon="-5.5659220">
        <ele>236.8</ele>
        <time>2021-07-20T10:02:26Z</time>
      </trkpt>
      <trkpt lat="43.4965940" lon="-5.5657410">
        <ele>237.2</ele>
        <time>2021-07-20T10:02:32Z</time>
      </trkpt>
      <trkpt lat="43.4966020" lon="-5.5657100">
        <ele>237.6</ele>
        <time>2021-07-20T10:02:33Z</time>
      </trkpt>
      <trkpt lat="43.4966110" lon="-5.5656820">
        <ele>238.0</ele>
        <time>2021-07-20T10:02:34Z</time>
      </trkpt>
      <trkpt lat="43.4966240" lon="-5.5656580">
        <ele>238.4</ele>
        <time>2021-07-20T10:02:35Z</time>
      </trkpt>
      <trkpt lat="43.4966400" lon="-5.5656360">
        <ele>238.8</ele>
        <time>2021-07-20T10:02:36Z</time>
      </trkpt>
      <trkpt lat="43.4967020" lon="-5.5655590">
        <ele>238.8</ele>
        <time>2021-07-20T10:02:40Z</time>
      </trkpt>
      <trkpt lat="43.4968120" lon="-5.5654440">
        <ele>238.8</ele>
        <time>2021-07-20T10:02:46Z</time>
      </trkpt>
      <trkpt lat="43.4968390" lon="-5.5654060">
        <ele>239.2</ele>
        <time>2021-07-20T10:02:48Z</time>
      </trkpt>
      <trkpt lat="43.4968540" lon="-5.5653910">
        <ele>239.6</ele>
        <time>2021-07-20T10:02:49Z</time>
      </trkpt>
      <trkpt lat="43.4968670" lon="-5.5653730">
        <ele>240.0</ele>
        <time>2021-07-20T10:02:50Z</time>
      </trkpt>
      <trkpt lat="43.4968790" lon="-5.5653530">
        <ele>240.4</ele>
        <time>2021-07-20T10:02:51Z</time>
      </trkpt>
      <trkpt lat="43.4968910" lon="-5.5653300">
        <ele>240.8</ele>
        <time>2021-07-20T10:02:52Z</time>
      </trkpt>
      <trkpt lat="43.4969040" lon="-5.5653070">
        <ele>240.8</ele>
        <time>2021-07-20T10:02:53Z</time>
      </trkpt>
      <trkpt lat="43.4969860" lon="-5.5651350">
        <ele>241.2</ele>
        <time>2021-07-20T10:03:01Z</time>
      </trkpt>
      <trkpt lat="43.4969980" lon="-5.5651160">
        <ele>241.6</ele>
        <time>2021-07-20T10:03:02Z</time>
      </trkpt>
      <trkpt lat="43.4970090" lon="-5.5650910">
        <ele>242.0</ele>
        <time>2021-07-20T10:03:03Z</time>
      </trkpt>
      <trkpt lat="43.4970210" lon="-5.5650650">
        <ele>242.4</ele>
        <time>2021-07-20T10:03:04Z</time>
      </trkpt>
      <trkpt lat="43.4970320" lon="-5.5650420">
        <ele>243.0</ele>
        <time>2021-07-20T10:03:05Z</time>
      </trkpt>
      <trkpt lat="43.4970620" lon="-5.5649700">
        <ele>243.0</ele>
        <time>2021-07-20T10:03:08Z</time>
      </trkpt>
      <trkpt lat="43.4971050" lon="-5.5648210">
        <ele>243.0</ele>
        <time>2021-07-20T10:03:14Z</time>
      </trkpt>
      <trkpt lat="43.4971290" lon="-5.5647640">
        <ele>243.4</ele>
        <time>2021-07-20T10:03:16Z</time>
      </trkpt>
      <trkpt lat="43.4971410" lon="-5.5647330">
        <ele>243.8</ele>
        <time>2021-07-20T10:03:17Z</time>
      </trkpt>
      <trkpt lat="43.4971540" lon="-5.5647050">
        <ele>244.2</ele>
        <time>2021-07-20T10:03:18Z</time>
      </trkpt>
      <trkpt lat="43.4971690" lon="-5.5646770">
        <ele>244.6</ele>
        <time>2021-07-20T10:03:19Z</time>
      </trkpt>
      <trkpt lat="43.4971800" lon="-5.5646550">
        <ele>245.0</ele>
        <time>2021-07-20T10:03:20Z</time>
      </trkpt>
      <trkpt lat="43.4972150" lon="-5.5645820">
        <ele>245.0</ele>
        <time>2021-07-20T10:03:23Z</time>
      </trkpt>
      <trkpt lat="43.4973050" lon="-5.5643940">
        <ele>245.0</ele>
        <time>2021-07-20T10:03:30Z</time>
      </trkpt>
      <trkpt lat="43.4973140" lon="-5.5643640">
        <ele>245.4</ele>
        <time>2021-07-20T10:03:31Z</time>
      </trkpt>
      <trkpt lat="43.4973240" lon="-5.5643340">
        <ele>245.8</ele>
        <time>2021-07-20T10:03:32Z</time>
      </trkpt>
      <trkpt lat="43.4973320" lon="-5.5643070">
        <ele>246.2</ele>
        <time>2021-07-20T10:03:33Z</time>
      </trkpt>
      <trkpt lat="43.4973400" lon="-5.5642770">
        <ele>246.6</ele>
        <time>2021-07-20T10:03:34Z</time>
      </trkpt>
      <trkpt lat="43.4973490" lon="-5.5642460">
        <ele>247.0</ele>
        <time>2021-07-20T10:03:35Z</time>
      </trkpt>
      <trkpt lat="43.4973660" lon="-5.5641540">
        <ele>247.0</ele>
        <time>2021-07-20T10:03:38Z</time>
      </trkpt>
      <trkpt lat="43.4974190" lon="-5.5639040">
        <ele>247.4</ele>
        <time>2021-07-20T10:03:46Z</time>
      </trkpt>
      <trkpt lat="43.4974260" lon="-5.5638750">
        <ele>248.4</ele>
        <time>2021-07-20T10:03:47Z</time>
      </trkpt>
      <trkpt lat="43.4974300" lon="-5.5638460">
        <ele>248.8</ele>
        <time>2021-07-20T10:03:48Z</time>
      </trkpt>
      <trkpt lat="43.4974330" lon="-5.5638180">
        <ele>249.2</ele>
        <time>2021-07-20T10:03:49Z</time>
      </trkpt>
      <trkpt lat="43.4974350" lon="-5.5637870">
        <ele>249.2</ele>
        <time>2021-07-20T10:03:50Z</time>
      </trkpt>
      <trkpt lat="43.4974730" lon="-5.5635720">
        <ele>249.2</ele>
        <time>2021-07-20T10:03:57Z</time>
      </trkpt>
      <trkpt lat="43.4975000" lon="-5.5633880">
        <ele>249.6</ele>
        <time>2021-07-20T10:04:03Z</time>
      </trkpt>
      <trkpt lat="43.4975020" lon="-5.5633550">
        <ele>250.0</ele>
        <time>2021-07-20T10:04:04Z</time>
      </trkpt>
      <trkpt lat="43.4975050" lon="-5.5633300">
        <ele>250.4</ele>
        <time>2021-07-20T10:04:05Z</time>
      </trkpt>
      <trkpt lat="43.4975090" lon="-5.5633060">
        <ele>250.8</ele>
        <time>2021-07-20T10:04:06Z</time>
      </trkpt>
      <trkpt lat="43.4975130" lon="-5.5632770">
        <ele>251.2</ele>
        <time>2021-07-20T10:04:07Z</time>
      </trkpt>
      <trkpt lat="43.4975420" lon="-5.5630450">
        <ele>251.2</ele>
        <time>2021-07-20T10:04:15Z</time>
      </trkpt>
      <trkpt lat="43.4975510" lon="-5.5629950">
        <ele>251.6</ele>
        <time>2021-07-20T10:04:17Z</time>
      </trkpt>
      <trkpt lat="43.4975570" lon="-5.5629680">
        <ele>252.0</ele>
        <time>2021-07-20T10:04:18Z</time>
      </trkpt>
      <trkpt lat="43.4975640" lon="-5.5629400">
        <ele>252.4</ele>
        <time>2021-07-20T10:04:19Z</time>
      </trkpt>
      <trkpt lat="43.4975700" lon="-5.5629140">
        <ele>252.8</ele>
        <time>2021-07-20T10:04:20Z</time>
      </trkpt>
      <trkpt lat="43.4975770" lon="-5.5628910">
        <ele>253.2</ele>
        <time>2021-07-20T10:04:21Z</time>
      </trkpt>
      <trkpt lat="43.4975950" lon="-5.5628130">
        <ele>253.2</ele>
        <time>2021-07-20T10:04:24Z</time>
      </trkpt>
      <trkpt lat="43.4976690" lon="-5.5626070">
        <ele>253.8</ele>
        <time>2021-07-20T10:04:33Z</time>
      </trkpt>
      <trkpt lat="43.4976810" lon="-5.5625850">
        <ele>254.2</ele>
        <time>2021-07-20T10:04:34Z</time>
      </trkpt>
      <trkpt lat="43.4976970" lon="-5.5625660">
        <ele>254.6</ele>
        <time>2021-07-20T10:04:35Z</time>
      </trkpt>
      <trkpt lat="43.4977140" lon="-5.5625410">
        <ele>255.4</ele>
        <time>2021-07-20T10:04:36Z</time>
      </trkpt>
      <trkpt lat="43.4977820" lon="-5.5624700">
        <ele>255.4</ele>
        <time>2021-07-20T10:04:40Z</time>
      </trkpt>
      <trkpt lat="43.4978940" lon="-5.5624100">
        <ele>255.8</ele>
        <time>2021-07-20T10:04:46Z</time>
      </trkpt>
      <trkpt lat="43.4979110" lon="-5.5624040">
        <ele>256.2</ele>
        <time>2021-07-20T10:04:47Z</time>
      </trkpt>
      <trkpt lat="43.4979300" lon="-5.5623990">
        <ele>256.6</ele>
        <time>2021-07-20T10:04:48Z</time>
      </trkpt>
      <trkpt lat="43.4979510" lon="-5.5623950">
        <ele>257.0</ele>
        <time>2021-07-20T10:04:49Z</time>
      </trkpt>
      <trkpt lat="43.4979730" lon="-5.5623930">
        <ele>257.4</ele>
        <time>2021-07-20T10:04:50Z</time>
      </trkpt>
      <trkpt lat="43.4980330" lon="-5.5624140">
        <ele>257.4</ele>
        <time>2021-07-20T10:04:53Z</time>
      </trkpt>
      <trkpt lat="43.4981320" lon="-5.5625120">
        <ele>257.4</ele>
        <time>2021-07-20T10:04:59Z</time>
      </trkpt>
      <trkpt lat="43.4981450" lon="-5.5625350">
        <ele>257.8</ele>
        <time>2021-07-20T10:05:00Z</time>
      </trkpt>
      <trkpt lat="43.4981610" lon="-5.5625570">
        <ele>258.6</ele>
        <time>2021-07-20T10:05:01Z</time>
      </trkpt>
      <trkpt lat="43.4981790" lon="-5.5625770">
        <ele>259.0</ele>
        <time>2021-07-20T10:05:02Z</time>
      </trkpt>
      <trkpt lat="43.4981960" lon="-5.5625940">
        <ele>259.4</ele>
        <time>2021-07-20T10:05:03Z</time>
      </trkpt>
      <trkpt lat="43.4982700" lon="-5.5626520">
        <ele>259.4</ele>
        <time>2021-07-20T10:05:07Z</time>
      </trkpt>
      <trkpt lat="43.4983320" lon="-5.5627060">
        <ele>259.4</ele>
        <time>2021-07-20T10:05:10Z</time>
      </trkpt>
      <trkpt lat="43.4984010" lon="-5.5627590">
        <ele>259.4</ele>
        <time>2021-07-20T10:05:14Z</time>
      </trkpt>
      <trkpt lat="43.4984040" lon="-5.5627690">
        <ele>259.4</ele>
        <time>2021-07-20T10:05:16Z</time>
      </trkpt>
      <trkpt lat="43.4984170" lon="-5.5627860">
        <ele>259.4</ele>
        <time>2021-07-20T10:06:11Z</time>
      </trkpt>
      <trkpt lat="43.4984310" lon="-5.5628050">
        <ele>259.4</ele>
        <time>2021-07-20T10:06:12Z</time>
      </trkpt>
      <trkpt lat="43.4985140" lon="-5.5629750">
        <ele>259.4</ele>
        <time>2021-07-20T10:06:17Z</time>
      </trkpt>
      <trkpt lat="43.4985840" lon="-5.5631280">
        <ele>259.4</ele>
        <time>2021-07-20T10:06:20Z</time>
      </trkpt>
      <trkpt lat="43.4986440" lon="-5.5632540">
        <ele>259.4</ele>
        <time>2021-07-20T10:06:22Z</time>
      </trkpt>
      <trkpt lat="43.4987440" lon="-5.5634480">
        <ele>259.0</ele>
        <time>2021-07-20T10:06:25Z</time>
      </trkpt>
      <trkpt lat="43.4987790" lon="-5.5635140">
        <ele>258.6</ele>
        <time>2021-07-20T10:06:26Z</time>
      </trkpt>
      <trkpt lat="43.4988110" lon="-5.5635790">
        <ele>258.2</ele>
        <time>2021-07-20T10:06:27Z</time>
      </trkpt>
      <trkpt lat="43.4988410" lon="-5.5636420">
        <ele>257.8</ele>
        <time>2021-07-20T10:06:28Z</time>
      </trkpt>
      <trkpt lat="43.4988730" lon="-5.5637090">
        <ele>257.2</ele>
        <time>2021-07-20T10:06:29Z</time>
      </trkpt>
      <trkpt lat="43.4989100" lon="-5.5637800">
        <ele>256.8</ele>
        <time>2021-07-20T10:06:30Z</time>
      </trkpt>
      <trkpt lat="43.4989530" lon="-5.5638590">
        <ele>256.2</ele>
        <time>2021-07-20T10:06:31Z</time>
      </trkpt>
      <trkpt lat="43.4989980" lon="-5.5639410">
        <ele>255.8</ele>
        <time>2021-07-20T10:06:32Z</time>
      </trkpt>
      <trkpt lat="43.4990450" lon="-5.5640270">
        <ele>255.2</ele>
        <time>2021-07-20T10:06:33Z</time>
      </trkpt>
      <trkpt lat="43.4991410" lon="-5.5642130">
        <ele>254.8</ele>
        <time>2021-07-20T10:06:35Z</time>
      </trkpt>
      <trkpt lat="43.4991920" lon="-5.5643100">
        <ele>254.4</ele>
        <time>2021-07-20T10:06:36Z</time>
      </trkpt>
      <trkpt lat="43.4992450" lon="-5.5644110">
        <ele>254.0</ele>
        <time>2021-07-20T10:06:37Z</time>
      </trkpt>
      <trkpt lat="43.4992960" lon="-5.5645150">
        <ele>253.4</ele>
        <time>2021-07-20T10:06:38Z</time>
      </trkpt>
      <trkpt lat="43.4993480" lon="-5.5646280">
        <ele>253.0</ele>
        <time>2021-07-20T10:06:39Z</time>
      </trkpt>
      <trkpt lat="43.4993970" lon="-5.5647380">
        <ele>252.6</ele>
        <time>2021-07-20T10:06:40Z</time>
      </trkpt>
      <trkpt lat="43.4994410" lon="-5.5648510">
        <ele>252.2</ele>
        <time>2021-07-20T10:06:41Z</time>
      </trkpt>
      <trkpt lat="43.4994850" lon="-5.5649690">
        <ele>251.4</ele>
        <time>2021-07-20T10:06:42Z</time>
      </trkpt>
      <trkpt lat="43.4995310" lon="-5.5650860">
        <ele>250.8</ele>
        <time>2021-07-20T10:06:43Z</time>
      </trkpt>
      <trkpt lat="43.4995780" lon="-5.5652040">
        <ele>250.2</ele>
        <time>2021-07-20T10:06:44Z</time>
      </trkpt>
      <trkpt lat="43.4996230" lon="-5.5653140">
        <ele>249.4</ele>
        <time>2021-07-20T10:06:45Z</time>
      </trkpt>
      <trkpt lat="43.4996670" lon="-5.5654170">
        <ele>248.8</ele>
        <time>2021-07-20T10:06:46Z</time>
      </trkpt>
      <trkpt lat="43.4997110" lon="-5.5655220">
        <ele>248.0</ele>
        <time>2021-07-20T10:06:47Z</time>
      </trkpt>
      <trkpt lat="43.4997530" lon="-5.5656260">
        <ele>247.2</ele>
        <time>2021-07-20T10:06:48Z</time>
      </trkpt>
      <trkpt lat="43.4997960" lon="-5.5657330">
        <ele>246.4</ele>
        <time>2021-07-20T10:06:49Z</time>
      </trkpt>
      <trkpt lat="43.4998420" lon="-5.5658390">
        <ele>245.6</ele>
        <time>2021-07-20T10:06:50Z</time>
      </trkpt>
      <trkpt lat="43.4998870" lon="-5.5659500">
        <ele>244.6</ele>
        <time>2021-07-20T10:06:51Z</time>
      </trkpt>
      <trkpt lat="43.4999290" lon="-5.5660700">
        <ele>243.6</ele>
        <time>2021-07-20T10:06:52Z</time>
      </trkpt>
      <trkpt lat="43.4999660" lon="-5.5661950">
        <ele>242.8</ele>
        <time>2021-07-20T10:06:53Z</time>
      </trkpt>
      <trkpt lat="43.5000000" lon="-5.5663350">
        <ele>242.2</ele>
        <time>2021-07-20T10:06:54Z</time>
      </trkpt>
      <trkpt lat="43.5000250" lon="-5.5664730">
        <ele>241.4</ele>
        <time>2021-07-20T10:06:55Z</time>
      </trkpt>
      <trkpt lat="43.5000460" lon="-5.5666170">
        <ele>240.8</ele>
        <time>2021-07-20T10:06:56Z</time>
      </trkpt>
      <trkpt lat="43.5000590" lon="-5.5667660">
        <ele>240.2</ele>
        <time>2021-07-20T10:06:57Z</time>
      </trkpt>
      <trkpt lat="43.5000680" lon="-5.5669170">
        <ele>239.4</ele>
        <time>2021-07-20T10:06:58Z</time>
      </trkpt>
      <trkpt lat="43.5000790" lon="-5.5670720">
        <ele>238.6</ele>
        <time>2021-07-20T10:06:59Z</time>
      </trkpt>
      <trkpt lat="43.5000940" lon="-5.5672280">
        <ele>237.8</ele>
        <time>2021-07-20T10:07:00Z</time>
      </trkpt>
      <trkpt lat="43.5001060" lon="-5.5673810">
        <ele>237.0</ele>
        <time>2021-07-20T10:07:01Z</time>
      </trkpt>
      <trkpt lat="43.5001180" lon="-5.5675310">
        <ele>236.0</ele>
        <time>2021-07-20T10:07:02Z</time>
      </trkpt>
      <trkpt lat="43.5001270" lon="-5.5676730">
        <ele>235.2</ele>
        <time>2021-07-20T10:07:03Z</time>
      </trkpt>
      <trkpt lat="43.5001340" lon="-5.5678060">
        <ele>233.4</ele>
        <time>2021-07-20T10:07:04Z</time>
      </trkpt>
      <trkpt lat="43.5001430" lon="-5.5679230">
        <ele>232.4</ele>
        <time>2021-07-20T10:07:05Z</time>
      </trkpt>
      <trkpt lat="43.5001590" lon="-5.5680370">
        <ele>231.4</ele>
        <time>2021-07-20T10:07:06Z</time>
      </trkpt>
      <trkpt lat="43.5001860" lon="-5.5681480">
        <ele>230.4</ele>
        <time>2021-07-20T10:07:07Z</time>
      </trkpt>
      <trkpt lat="43.5002280" lon="-5.5682580">
        <ele>229.2</ele>
        <time>2021-07-20T10:07:08Z</time>
      </trkpt>
      <trkpt lat="43.5002880" lon="-5.5683640">
        <ele>228.0</ele>
        <time>2021-07-20T10:07:09Z</time>
      </trkpt>
      <trkpt lat="43.5003520" lon="-5.5684600">
        <ele>226.8</ele>
        <time>2021-07-20T10:07:10Z</time>
      </trkpt>
      <trkpt lat="43.5004150" lon="-5.5685510">
        <ele>225.8</ele>
        <time>2021-07-20T10:07:11Z</time>
      </trkpt>
      <trkpt lat="43.5004790" lon="-5.5686400">
        <ele>225.0</ele>
        <time>2021-07-20T10:07:12Z</time>
      </trkpt>
      <trkpt lat="43.5005390" lon="-5.5687260">
        <ele>224.2</ele>
        <time>2021-07-20T10:07:13Z</time>
      </trkpt>
      <trkpt lat="43.5005990" lon="-5.5688140">
        <ele>223.6</ele>
        <time>2021-07-20T10:07:14Z</time>
      </trkpt>
      <trkpt lat="43.5006600" lon="-5.5689040">
        <ele>222.8</ele>
        <time>2021-07-20T10:07:15Z</time>
      </trkpt>
      <trkpt lat="43.5007220" lon="-5.5689870">
        <ele>222.0</ele>
        <time>2021-07-20T10:07:16Z</time>
      </trkpt>
      <trkpt lat="43.5007930" lon="-5.5690610">
        <ele>221.2</ele>
        <time>2021-07-20T10:07:17Z</time>
      </trkpt>
      <trkpt lat="43.5008660" lon="-5.5691170">
        <ele>220.4</ele>
        <time>2021-07-20T10:07:18Z</time>
      </trkpt>
      <trkpt lat="43.5009390" lon="-5.5691770">
        <ele>219.6</ele>
        <time>2021-07-20T10:07:19Z</time>
      </trkpt>
      <trkpt lat="43.5010110" lon="-5.5692490">
        <ele>218.8</ele>
        <time>2021-07-20T10:07:20Z</time>
      </trkpt>
      <trkpt lat="43.5010780" lon="-5.5693290">
        <ele>218.0</ele>
        <time>2021-07-20T10:07:21Z</time>
      </trkpt>
      <trkpt lat="43.5011400" lon="-5.5694100">
        <ele>217.4</ele>
        <time>2021-07-20T10:07:22Z</time>
      </trkpt>
      <trkpt lat="43.5012000" lon="-5.5694900">
        <ele>216.6</ele>
        <time>2021-07-20T10:07:23Z</time>
      </trkpt>
      <trkpt lat="43.5012630" lon="-5.5695700">
        <ele>216.0</ele>
        <time>2021-07-20T10:07:24Z</time>
      </trkpt>
      <trkpt lat="43.5013220" lon="-5.5696470">
        <ele>215.2</ele>
        <time>2021-07-20T10:07:25Z</time>
      </trkpt>
      <trkpt lat="43.5013780" lon="-5.5697250">
        <ele>214.4</ele>
        <time>2021-07-20T10:07:26Z</time>
      </trkpt>
      <trkpt lat="43.5014360" lon="-5.5698070">
        <ele>213.6</ele>
        <time>2021-07-20T10:07:27Z</time>
      </trkpt>
      <trkpt lat="43.5014920" lon="-5.5698930">
        <ele>212.2</ele>
        <time>2021-07-20T10:07:28Z</time>
      </trkpt>
      <trkpt lat="43.5015450" lon="-5.5699840">
        <ele>211.4</ele>
        <time>2021-07-20T10:07:29Z</time>
      </trkpt>
      <trkpt lat="43.5015910" lon="-5.5700760">
        <ele>211.0</ele>
        <time>2021-07-20T10:07:30Z</time>
      </trkpt>
      <trkpt lat="43.5016290" lon="-5.5701780">
        <ele>210.4</ele>
        <time>2021-07-20T10:07:31Z</time>
      </trkpt>
      <trkpt lat="43.5016520" lon="-5.5702710">
        <ele>210.0</ele>
        <time>2021-07-20T10:07:32Z</time>
      </trkpt>
      <trkpt lat="43.5016570" lon="-5.5703640">
        <ele>209.2</ele>
        <time>2021-07-20T10:07:33Z</time>
      </trkpt>
      <trkpt lat="43.5016480" lon="-5.5704520">
        <ele>208.6</ele>
        <time>2021-07-20T10:07:34Z</time>
      </trkpt>
      <trkpt lat="43.5016210" lon="-5.5705310">
        <ele>207.6</ele>
        <time>2021-07-20T10:07:35Z</time>
      </trkpt>
      <trkpt lat="43.5015780" lon="-5.5706030">
        <ele>206.8</ele>
        <time>2021-07-20T10:07:36Z</time>
      </trkpt>
      <trkpt lat="43.5015300" lon="-5.5706610">
        <ele>205.8</ele>
        <time>2021-07-20T10:07:37Z</time>
      </trkpt>
      <trkpt lat="43.5014770" lon="-5.5707090">
        <ele>205.0</ele>
        <time>2021-07-20T10:07:38Z</time>
      </trkpt>
      <trkpt lat="43.5014200" lon="-5.5707580">
        <ele>204.2</ele>
        <time>2021-07-20T10:07:39Z</time>
      </trkpt>
      <trkpt lat="43.5013680" lon="-5.5708000">
        <ele>204.2</ele>
        <time>2021-07-20T10:07:40Z</time>
      </trkpt>
      <trkpt lat="43.5013240" lon="-5.5708490">
        <ele>204.2</ele>
        <time>2021-07-20T10:07:41Z</time>
      </trkpt>
      <trkpt lat="43.5012860" lon="-5.5708940">
        <ele>203.6</ele>
        <time>2021-07-20T10:07:42Z</time>
      </trkpt>
      <trkpt lat="43.5012510" lon="-5.5709360">
        <ele>203.2</ele>
        <time>2021-07-20T10:07:43Z</time>
      </trkpt>
      <trkpt lat="43.5012140" lon="-5.5709820">
        <ele>202.8</ele>
        <time>2021-07-20T10:07:44Z</time>
      </trkpt>
      <trkpt lat="43.5011740" lon="-5.5710310">
        <ele>202.4</ele>
        <time>2021-07-20T10:07:45Z</time>
      </trkpt>
      <trkpt lat="43.5011320" lon="-5.5710810">
        <ele>201.8</ele>
        <time>2021-07-20T10:07:46Z</time>
      </trkpt>
      <trkpt lat="43.5010540" lon="-5.5711940">
        <ele>201.4</ele>
        <time>2021-07-20T10:07:48Z</time>
      </trkpt>
      <trkpt lat="43.5010360" lon="-5.5712670">
        <ele>201.0</ele>
        <time>2021-07-20T10:07:49Z</time>
      </trkpt>
      <trkpt lat="43.5010280" lon="-5.5713430">
        <ele>200.4</ele>
        <time>2021-07-20T10:07:50Z</time>
      </trkpt>
      <trkpt lat="43.5010390" lon="-5.5714180">
        <ele>200.0</ele>
        <time>2021-07-20T10:07:51Z</time>
      </trkpt>
      <trkpt lat="43.5010610" lon="-5.5714900">
        <ele>199.6</ele>
        <time>2021-07-20T10:07:52Z</time>
      </trkpt>
      <trkpt lat="43.5011420" lon="-5.5715960">
        <ele>199.2</ele>
        <time>2021-07-20T10:07:54Z</time>
      </trkpt>
      <trkpt lat="43.5011850" lon="-5.5716310">
        <ele>198.8</ele>
        <time>2021-07-20T10:07:55Z</time>
      </trkpt>
      <trkpt lat="43.5012330" lon="-5.5716500">
        <ele>198.4</ele>
        <time>2021-07-20T10:07:56Z</time>
      </trkpt>
      <trkpt lat="43.5012870" lon="-5.5716590">
        <ele>198.0</ele>
        <time>2021-07-20T10:07:57Z</time>
      </trkpt>
      <trkpt lat="43.5013430" lon="-5.5716660">
        <ele>197.6</ele>
        <time>2021-07-20T10:07:58Z</time>
      </trkpt>
      <trkpt lat="43.5014040" lon="-5.5716740">
        <ele>197.6</ele>
        <time>2021-07-20T10:07:59Z</time>
      </trkpt>
      <trkpt lat="43.5016720" lon="-5.5717490">
        <ele>197.0</ele>
        <time>2021-07-20T10:08:03Z</time>
      </trkpt>
      <trkpt lat="43.5017460" lon="-5.5717730">
        <ele>196.6</ele>
        <time>2021-07-20T10:08:04Z</time>
      </trkpt>
      <trkpt lat="43.5018320" lon="-5.5717910">
        <ele>196.2</ele>
        <time>2021-07-20T10:08:05Z</time>
      </trkpt>
      <trkpt lat="43.5019280" lon="-5.5717920">
        <ele>195.8</ele>
        <time>2021-07-20T10:08:06Z</time>
      </trkpt>
      <trkpt lat="43.5020160" lon="-5.5717950">
        <ele>195.2</ele>
        <time>2021-07-20T10:08:07Z</time>
      </trkpt>
      <trkpt lat="43.5021020" lon="-5.5718010">
        <ele>194.6</ele>
        <time>2021-07-20T10:08:08Z</time>
      </trkpt>
      <trkpt lat="43.5021850" lon="-5.5718100">
        <ele>194.0</ele>
        <time>2021-07-20T10:08:09Z</time>
      </trkpt>
      <trkpt lat="43.5022700" lon="-5.5718170">
        <ele>193.4</ele>
        <time>2021-07-20T10:08:10Z</time>
      </trkpt>
      <trkpt lat="43.5023520" lon="-5.5718220">
        <ele>192.8</ele>
        <time>2021-07-20T10:08:11Z</time>
      </trkpt>
      <trkpt lat="43.5024310" lon="-5.5718240">
        <ele>192.2</ele>
        <time>2021-07-20T10:08:12Z</time>
      </trkpt>
      <trkpt lat="43.5025110" lon="-5.5718300">
        <ele>191.6</ele>
        <time>2021-07-20T10:08:13Z</time>
      </trkpt>
      <trkpt lat="43.5025900" lon="-5.5718370">
        <ele>191.0</ele>
        <time>2021-07-20T10:08:14Z</time>
      </trkpt>
      <trkpt lat="43.5026710" lon="-5.5718480">
        <ele>190.4</ele>
        <time>2021-07-20T10:08:15Z</time>
      </trkpt>
      <trkpt lat="43.5027520" lon="-5.5718540">
        <ele>190.0</ele>
        <time>2021-07-20T10:08:16Z</time>
      </trkpt>
      <trkpt lat="43.5028250" lon="-5.5718560">
        <ele>189.2</ele>
        <time>2021-07-20T10:08:17Z</time>
      </trkpt>
      <trkpt lat="43.5028860" lon="-5.5718670">
        <ele>187.8</ele>
        <time>2021-07-20T10:08:18Z</time>
      </trkpt>
      <trkpt lat="43.5029420" lon="-5.5718770">
        <ele>187.0</ele>
        <time>2021-07-20T10:08:19Z</time>
      </trkpt>
      <trkpt lat="43.5029960" lon="-5.5718990">
        <ele>186.2</ele>
        <time>2021-07-20T10:08:20Z</time>
      </trkpt>
      <trkpt lat="43.5030520" lon="-5.5719300">
        <ele>185.4</ele>
        <time>2021-07-20T10:08:21Z</time>
      </trkpt>
      <trkpt lat="43.5031000" lon="-5.5719810">
        <ele>184.6</ele>
        <time>2021-07-20T10:08:22Z</time>
      </trkpt>
      <trkpt lat="43.5031410" lon="-5.5720410">
        <ele>183.8</ele>
        <time>2021-07-20T10:08:23Z</time>
      </trkpt>
      <trkpt lat="43.5031770" lon="-5.5721070">
        <ele>183.8</ele>
        <time>2021-07-20T10:08:24Z</time>
      </trkpt>
      <trkpt lat="43.5032130" lon="-5.5721840">
        <ele>183.2</ele>
        <time>2021-07-20T10:08:25Z</time>
      </trkpt>
      <trkpt lat="43.5032530" lon="-5.5722610">
        <ele>182.8</ele>
        <time>2021-07-20T10:08:26Z</time>
      </trkpt>
      <trkpt lat="43.5032950" lon="-5.5723480">
        <ele>182.4</ele>
        <time>2021-07-20T10:08:27Z</time>
      </trkpt>
      <trkpt lat="43.5033470" lon="-5.5724380">
        <ele>182.0</ele>
        <time>2021-07-20T10:08:28Z</time>
      </trkpt>
      <trkpt lat="43.5033960" lon="-5.5725240">
        <ele>181.4</ele>
        <time>2021-07-20T10:08:29Z</time>
      </trkpt>
      <trkpt lat="43.5035670" lon="-5.5728870">
        <ele>181.4</ele>
        <time>2021-07-20T10:08:33Z</time>
      </trkpt>
      <trkpt lat="43.5035920" lon="-5.5729770">
        <ele>181.0</ele>
        <time>2021-07-20T10:08:34Z</time>
      </trkpt>
      <trkpt lat="43.5036110" lon="-5.5730660">
        <ele>180.6</ele>
        <time>2021-07-20T10:08:35Z</time>
      </trkpt>
      <trkpt lat="43.5036190" lon="-5.5731520">
        <ele>180.2</ele>
        <time>2021-07-20T10:08:36Z</time>
      </trkpt>
      <trkpt lat="43.5036210" lon="-5.5732360">
        <ele>179.8</ele>
        <time>2021-07-20T10:08:37Z</time>
      </trkpt>
      <trkpt lat="43.5036240" lon="-5.5733160">
        <ele>179.4</ele>
        <time>2021-07-20T10:08:38Z</time>
      </trkpt>
      <trkpt lat="43.5036280" lon="-5.5733840">
        <ele>179.4</ele>
        <time>2021-07-20T10:08:39Z</time>
      </trkpt>
      <trkpt lat="43.5036400" lon="-5.5735010">
        <ele>178.8</ele>
        <time>2021-07-20T10:08:41Z</time>
      </trkpt>
      <trkpt lat="43.5036530" lon="-5.5735610">
        <ele>178.4</ele>
        <time>2021-07-20T10:08:42Z</time>
      </trkpt>
      <trkpt lat="43.5036640" lon="-5.5736100">
        <ele>178.0</ele>
        <time>2021-07-20T10:08:43Z</time>
      </trkpt>
      <trkpt lat="43.5036770" lon="-5.5736660">
        <ele>177.6</ele>
        <time>2021-07-20T10:08:44Z</time>
      </trkpt>
      <trkpt lat="43.5036980" lon="-5.5737240">
        <ele>177.0</ele>
        <time>2021-07-20T10:08:45Z</time>
      </trkpt>
      <trkpt lat="43.5038060" lon="-5.5739720">
        <ele>177.0</ele>
        <time>2021-07-20T10:08:49Z</time>
      </trkpt>
      <trkpt lat="43.5038720" lon="-5.5741010">
        <ele>176.6</ele>
        <time>2021-07-20T10:08:51Z</time>
      </trkpt>
      <trkpt lat="43.5039100" lon="-5.5741630">
        <ele>176.2</ele>
        <time>2021-07-20T10:08:52Z</time>
      </trkpt>
      <trkpt lat="43.5039520" lon="-5.5742310">
        <ele>175.8</ele>
        <time>2021-07-20T10:08:53Z</time>
      </trkpt>
      <trkpt lat="43.5039930" lon="-5.5742930">
        <ele>175.4</ele>
        <time>2021-07-20T10:08:54Z</time>
      </trkpt>
      <trkpt lat="43.5040340" lon="-5.5743560">
        <ele>175.0</ele>
        <time>2021-07-20T10:08:55Z</time>
      </trkpt>
      <trkpt lat="43.5040730" lon="-5.5744200">
        <ele>175.0</ele>
        <time>2021-07-20T10:08:56Z</time>
      </trkpt>
      <trkpt lat="43.5042430" lon="-5.5746930">
        <ele>175.0</ele>
        <time>2021-07-20T10:09:00Z</time>
      </trkpt>
      <trkpt lat="43.5043730" lon="-5.5749390">
        <ele>174.6</ele>
        <time>2021-07-20T10:09:03Z</time>
      </trkpt>
      <trkpt lat="43.5044130" lon="-5.5750280">
        <ele>174.2</ele>
        <time>2021-07-20T10:09:04Z</time>
      </trkpt>
      <trkpt lat="43.5044520" lon="-5.5751150">
        <ele>173.8</ele>
        <time>2021-07-20T10:09:05Z</time>
      </trkpt>
      <trkpt lat="43.5044890" lon="-5.5752010">
        <ele>173.0</ele>
        <time>2021-07-20T10:09:06Z</time>
      </trkpt>
      <trkpt lat="43.5046470" lon="-5.5755200">
        <ele>173.0</ele>
        <time>2021-07-20T10:09:10Z</time>
      </trkpt>
      <trkpt lat="43.5046710" lon="-5.5756080">
        <ele>172.6</ele>
        <time>2021-07-20T10:09:12Z</time>
      </trkpt>
      <trkpt lat="43.5046590" lon="-5.5756620">
        <ele>172.0</ele>
        <time>2021-07-20T10:09:13Z</time>
      </trkpt>
      <trkpt lat="43.5046540" lon="-5.5757270">
        <ele>171.4</ele>
        <time>2021-07-20T10:09:14Z</time>
      </trkpt>
      <trkpt lat="43.5046610" lon="-5.5757970">
        <ele>171.0</ele>
        <time>2021-07-20T10:09:15Z</time>
      </trkpt>
      <trkpt lat="43.5046730" lon="-5.5758740">
        <ele>170.4</ele>
        <time>2021-07-20T10:09:16Z</time>
      </trkpt>
      <trkpt lat="43.5046870" lon="-5.5759650">
        <ele>169.8</ele>
        <time>2021-07-20T10:09:17Z</time>
      </trkpt>
      <trkpt lat="43.5047060" lon="-5.5760530">
        <ele>169.2</ele>
        <time>2021-07-20T10:09:18Z</time>
      </trkpt>
      <trkpt lat="43.5047260" lon="-5.5761430">
        <ele>168.6</ele>
        <time>2021-07-20T10:09:19Z</time>
      </trkpt>
      <trkpt lat="43.5047490" lon="-5.5762350">
        <ele>168.2</ele>
        <time>2021-07-20T10:09:20Z</time>
      </trkpt>
      <trkpt lat="43.5048010" lon="-5.5764190">
        <ele>167.6</ele>
        <time>2021-07-20T10:09:22Z</time>
      </trkpt>
      <trkpt lat="43.5048360" lon="-5.5765160">
        <ele>167.2</ele>
        <time>2021-07-20T10:09:23Z</time>
      </trkpt>
      <trkpt lat="43.5048720" lon="-5.5766130">
        <ele>166.6</ele>
        <time>2021-07-20T10:09:24Z</time>
      </trkpt>
      <trkpt lat="43.5049120" lon="-5.5767170">
        <ele>166.0</ele>
        <time>2021-07-20T10:09:25Z</time>
      </trkpt>
      <trkpt lat="43.5049530" lon="-5.5768250">
        <ele>165.4</ele>
        <time>2021-07-20T10:09:26Z</time>
      </trkpt>
      <trkpt lat="43.5049880" lon="-5.5769330">
        <ele>164.8</ele>
        <time>2021-07-20T10:09:27Z</time>
      </trkpt>
      <trkpt lat="43.5050210" lon="-5.5770510">
        <ele>164.0</ele>
        <time>2021-07-20T10:09:28Z</time>
      </trkpt>
      <trkpt lat="43.5050500" lon="-5.5771740">
        <ele>163.4</ele>
        <time>2021-07-20T10:09:29Z</time>
      </trkpt>
      <trkpt lat="43.5050760" lon="-5.5772990">
        <ele>162.4</ele>
        <time>2021-07-20T10:09:30Z</time>
      </trkpt>
      <trkpt lat="43.5051020" lon="-5.5774160">
        <ele>160.4</ele>
        <time>2021-07-20T10:09:31Z</time>
      </trkpt>
      <trkpt lat="43.5051330" lon="-5.5775190">
        <ele>159.2</ele>
        <time>2021-07-20T10:09:32Z</time>
      </trkpt>
      <trkpt lat="43.5051690" lon="-5.5776040">
        <ele>158.2</ele>
        <time>2021-07-20T10:09:33Z</time>
      </trkpt>
      <trkpt lat="43.5052100" lon="-5.5776750">
        <ele>157.2</ele>
        <time>2021-07-20T10:09:34Z</time>
      </trkpt>
      <trkpt lat="43.5052480" lon="-5.5777370">
        <ele>156.2</ele>
        <time>2021-07-20T10:09:35Z</time>
      </trkpt>
      <trkpt lat="43.5052910" lon="-5.5778000">
        <ele>155.0</ele>
        <time>2021-07-20T10:09:36Z</time>
      </trkpt>
      <trkpt lat="43.5053430" lon="-5.5778540">
        <ele>154.0</ele>
        <time>2021-07-20T10:09:37Z</time>
      </trkpt>
      <trkpt lat="43.5054000" lon="-5.5779100">
        <ele>153.0</ele>
        <time>2021-07-20T10:09:38Z</time>
      </trkpt>
      <trkpt lat="43.5054710" lon="-5.5779650">
        <ele>152.2</ele>
        <time>2021-07-20T10:09:39Z</time>
      </trkpt>
      <trkpt lat="43.5055510" lon="-5.5780240">
        <ele>151.6</ele>
        <time>2021-07-20T10:09:40Z</time>
      </trkpt>
      <trkpt lat="43.5056310" lon="-5.5780800">
        <ele>151.0</ele>
        <time>2021-07-20T10:09:41Z</time>
      </trkpt>
      <trkpt lat="43.5057080" lon="-5.5781380">
        <ele>150.2</ele>
        <time>2021-07-20T10:09:42Z</time>
      </trkpt>
      <trkpt lat="43.5057890" lon="-5.5781960">
        <ele>149.8</ele>
        <time>2021-07-20T10:09:43Z</time>
      </trkpt>
      <trkpt lat="43.5058730" lon="-5.5782560">
        <ele>149.2</ele>
        <time>2021-07-20T10:09:44Z</time>
      </trkpt>
      <trkpt lat="43.5059630" lon="-5.5783100">
        <ele>148.6</ele>
        <time>2021-07-20T10:09:45Z</time>
      </trkpt>
      <trkpt lat="43.5060600" lon="-5.5783610">
        <ele>148.2</ele>
        <time>2021-07-20T10:09:46Z</time>
      </trkpt>
      <trkpt lat="43.5061640" lon="-5.5784070">
        <ele>147.6</ele>
        <time>2021-07-20T10:09:47Z</time>
      </trkpt>
      <trkpt lat="43.5062620" lon="-5.5784500">
        <ele>147.0</ele>
        <time>2021-07-20T10:09:48Z</time>
      </trkpt>
      <trkpt lat="43.5063560" lon="-5.5784870">
        <ele>146.4</ele>
        <time>2021-07-20T10:09:49Z</time>
      </trkpt>
      <trkpt lat="43.5064450" lon="-5.5785120">
        <ele>145.8</ele>
        <time>2021-07-20T10:09:50Z</time>
      </trkpt>
      <trkpt lat="43.5065300" lon="-5.5785370">
        <ele>145.4</ele>
        <time>2021-07-20T10:09:51Z</time>
      </trkpt>
      <trkpt lat="43.5066110" lon="-5.5785560">
        <ele>145.0</ele>
        <time>2021-07-20T10:09:52Z</time>
      </trkpt>
      <trkpt lat="43.5066890" lon="-5.5785760">
        <ele>144.4</ele>
        <time>2021-07-20T10:09:53Z</time>
      </trkpt>
      <trkpt lat="43.5067590" lon="-5.5785940">
        <ele>144.0</ele>
        <time>2021-07-20T10:09:54Z</time>
      </trkpt>
      <trkpt lat="43.5068290" lon="-5.5786140">
        <ele>143.2</ele>
        <time>2021-07-20T10:09:55Z</time>
      </trkpt>
      <trkpt lat="43.5068870" lon="-5.5786200">
        <ele>143.2</ele>
        <time>2021-07-20T10:09:56Z</time>
      </trkpt>
      <trkpt lat="43.5069820" lon="-5.5786200">
        <ele>143.2</ele>
        <time>2021-07-20T10:09:59Z</time>
      </trkpt>
      <trkpt lat="43.5070450" lon="-5.5785720">
        <ele>143.2</ele>
        <time>2021-07-20T10:10:04Z</time>
      </trkpt>
      <trkpt lat="43.5070550" lon="-5.5785780">
        <ele>143.2</ele>
        <time>2021-07-20T10:10:06Z</time>
      </trkpt>
      <trkpt lat="43.5070700" lon="-5.5786250">
        <ele>143.2</ele>
        <time>2021-07-20T10:10:12Z</time>
      </trkpt>
      <trkpt lat="43.5070730" lon="-5.5786430">
        <ele>143.2</ele>
        <time>2021-07-20T10:10:13Z</time>
      </trkpt>
      <trkpt lat="43.5070800" lon="-5.5786700">
        <ele>143.2</ele>
        <time>2021-07-20T10:10:16Z</time>
      </trkpt>
      <trkpt lat="43.5070860" lon="-5.5787040">
        <ele>143.2</ele>
        <time>2021-07-20T10:10:27Z</time>
      </trkpt>
      <trkpt lat="43.5070950" lon="-5.5787300">
        <ele>143.2</ele>
        <time>2021-07-20T10:10:28Z</time>
      </trkpt>
      <trkpt lat="43.5071340" lon="-5.5788360">
        <ele>143.2</ele>
        <time>2021-07-20T10:10:31Z</time>
      </trkpt>
      <trkpt lat="43.5071780" lon="-5.5789170">
        <ele>143.2</ele>
        <time>2021-07-20T10:10:33Z</time>
      </trkpt>
      <trkpt lat="43.5072230" lon="-5.5789880">
        <ele>143.2</ele>
        <time>2021-07-20T10:10:35Z</time>
      </trkpt>
      <trkpt lat="43.5072930" lon="-5.5790710">
        <ele>143.2</ele>
        <time>2021-07-20T10:10:38Z</time>
      </trkpt>
      <trkpt lat="43.5073320" lon="-5.5791260">
        <ele>143.2</ele>
        <time>2021-07-20T10:10:40Z</time>
      </trkpt>
      <trkpt lat="43.5073850" lon="-5.5791940">
        <ele>143.2</ele>
        <time>2021-07-20T10:10:44Z</time>
      </trkpt>
      <trkpt lat="43.5073990" lon="-5.5792080">
        <ele>143.2</ele>
        <time>2021-07-20T10:10:45Z</time>
      </trkpt>
      <trkpt lat="43.5074500" lon="-5.5792640">
        <ele>143.2</ele>
        <time>2021-07-20T10:10:49Z</time>
      </trkpt>
      <trkpt lat="43.5074630" lon="-5.5792800">
        <ele>143.6</ele>
        <time>2021-07-20T10:10:50Z</time>
      </trkpt>
      <trkpt lat="43.5074750" lon="-5.5792950">
        <ele>144.0</ele>
        <time>2021-07-20T10:10:51Z</time>
      </trkpt>
      <trkpt lat="43.5074870" lon="-5.5793110">
        <ele>144.6</ele>
        <time>2021-07-20T10:10:52Z</time>
      </trkpt>
      <trkpt lat="43.5075030" lon="-5.5793220">
        <ele>145.0</ele>
        <time>2021-07-20T10:10:53Z</time>
      </trkpt>
      <trkpt lat="43.5075170" lon="-5.5793340">
        <ele>145.4</ele>
        <time>2021-07-20T10:10:54Z</time>
      </trkpt>
      <trkpt lat="43.5075780" lon="-5.5793860">
        <ele>145.4</ele>
        <time>2021-07-20T10:10:58Z</time>
      </trkpt>
      <trkpt lat="43.5075900" lon="-5.5794010">
        <ele>145.8</ele>
        <time>2021-07-20T10:10:59Z</time>
      </trkpt>
      <trkpt lat="43.5076010" lon="-5.5794130">
        <ele>146.2</ele>
        <time>2021-07-20T10:11:00Z</time>
      </trkpt>
      <trkpt lat="43.5076150" lon="-5.5794230">
        <ele>146.6</ele>
        <time>2021-07-20T10:11:01Z</time>
      </trkpt>
      <trkpt lat="43.5076270" lon="-5.5794340">
        <ele>147.0</ele>
        <time>2021-07-20T10:11:02Z</time>
      </trkpt>
      <trkpt lat="43.5076420" lon="-5.5794470">
        <ele>147.4</ele>
        <time>2021-07-20T10:11:03Z</time>
      </trkpt>
      <trkpt lat="43.5076550" lon="-5.5794600">
        <ele>147.4</ele>
        <time>2021-07-20T10:11:04Z</time>
      </trkpt>
      <trkpt lat="43.5077080" lon="-5.5795120">
        <ele>147.8</ele>
        <time>2021-07-20T10:11:08Z</time>
      </trkpt>
      <trkpt lat="43.5077220" lon="-5.5795200">
        <ele>148.8</ele>
        <time>2021-07-20T10:11:09Z</time>
      </trkpt>
      <trkpt lat="43.5077350" lon="-5.5795270">
        <ele>149.2</ele>
        <time>2021-07-20T10:11:10Z</time>
      </trkpt>
      <trkpt lat="43.5077460" lon="-5.5795370">
        <ele>149.6</ele>
        <time>2021-07-20T10:11:11Z</time>
      </trkpt>
      <trkpt lat="43.5077670" lon="-5.5795490">
        <ele>149.6</ele>
        <time>2021-07-20T10:11:13Z</time>
      </trkpt>
      <trkpt lat="43.5078000" lon="-5.5795430">
        <ele>149.6</ele>
        <time>2021-07-20T10:11:17Z</time>
      </trkpt>
      <trkpt lat="43.5078150" lon="-5.5796360">
        <ele>149.6</ele>
        <time>2021-07-20T10:12:14Z</time>
      </trkpt>
      <trkpt lat="43.5078190" lon="-5.5796470">
        <ele>149.6</ele>
        <time>2021-07-20T10:12:15Z</time>
      </trkpt>
      <trkpt lat="43.5078750" lon="-5.5797060">
        <ele>149.6</ele>
        <time>2021-07-20T10:12:19Z</time>
      </trkpt>
      <trkpt lat="43.5079040" lon="-5.5797530">
        <ele>150.0</ele>
        <time>2021-07-20T10:12:21Z</time>
      </trkpt>
      <trkpt lat="43.5079150" lon="-5.5797750">
        <ele>150.4</ele>
        <time>2021-07-20T10:12:22Z</time>
      </trkpt>
      <trkpt lat="43.5079260" lon="-5.5797970">
        <ele>151.2</ele>
        <time>2021-07-20T10:12:23Z</time>
      </trkpt>
      <trkpt lat="43.5079370" lon="-5.5798160">
        <ele>151.6</ele>
        <time>2021-07-20T10:12:24Z</time>
      </trkpt>
      <trkpt lat="43.5079910" lon="-5.5798980">
        <ele>151.6</ele>
        <time>2021-07-20T10:12:28Z</time>
      </trkpt>
      <trkpt lat="43.5080140" lon="-5.5799720">
        <ele>151.6</ele>
        <time>2021-07-20T10:12:31Z</time>
      </trkpt>
      <trkpt lat="43.5080200" lon="-5.5799970">
        <ele>152.0</ele>
        <time>2021-07-20T10:12:32Z</time>
      </trkpt>
      <trkpt lat="43.5080260" lon="-5.5800200">
        <ele>152.6</ele>
        <time>2021-07-20T10:12:33Z</time>
      </trkpt>
      <trkpt lat="43.5080320" lon="-5.5800430">
        <ele>153.0</ele>
        <time>2021-07-20T10:12:34Z</time>
      </trkpt>
      <trkpt lat="43.5080430" lon="-5.5800640">
        <ele>153.4</ele>
        <time>2021-07-20T10:12:35Z</time>
      </trkpt>
      <trkpt lat="43.5080510" lon="-5.5800840">
        <ele>153.8</ele>
        <time>2021-07-20T10:12:36Z</time>
      </trkpt>
      <trkpt lat="43.5080890" lon="-5.5801730">
        <ele>153.8</ele>
        <time>2021-07-20T10:12:40Z</time>
      </trkpt>
      <trkpt lat="43.5081130" lon="-5.5802090">
        <ele>153.8</ele>
        <time>2021-07-20T10:12:42Z</time>
      </trkpt>
      <trkpt lat="43.5082040" lon="-5.5804280">
        <ele>153.8</ele>
        <time>2021-07-20T10:12:50Z</time>
      </trkpt>
      <trkpt lat="43.5082180" lon="-5.5805010">
        <ele>154.2</ele>
        <time>2021-07-20T10:12:52Z</time>
      </trkpt>
      <trkpt lat="43.5082270" lon="-5.5805340">
        <ele>154.6</ele>
        <time>2021-07-20T10:12:53Z</time>
      </trkpt>
      <trkpt lat="43.5082310" lon="-5.5805750">
        <ele>155.0</ele>
        <time>2021-07-20T10:12:54Z</time>
      </trkpt>
      <trkpt lat="43.5082430" lon="-5.5806170">
        <ele>155.4</ele>
        <time>2021-07-20T10:12:55Z</time>
      </trkpt>
      <trkpt lat="43.5082530" lon="-5.5806640">
        <ele>155.8</ele>
        <time>2021-07-20T10:12:56Z</time>
      </trkpt>
      <trkpt lat="43.5083390" lon="-5.5809940">
        <ele>155.8</ele>
        <time>2021-07-20T10:13:02Z</time>
      </trkpt>
      <trkpt lat="43.5083760" lon="-5.5811400">
        <ele>155.8</ele>
        <time>2021-07-20T10:13:04Z</time>
      </trkpt>
      <trkpt lat="43.5084120" lon="-5.5812860">
        <ele>155.8</ele>
        <time>2021-07-20T10:13:06Z</time>
      </trkpt>
      <trkpt lat="43.5084290" lon="-5.5813540">
        <ele>155.8</ele>
        <time>2021-07-20T10:13:07Z</time>
      </trkpt>
      <trkpt lat="43.5084460" lon="-5.5814180">
        <ele>155.4</ele>
        <time>2021-07-20T10:13:08Z</time>
      </trkpt>
      <trkpt lat="43.5084640" lon="-5.5814870">
        <ele>155.0</ele>
        <time>2021-07-20T10:13:09Z</time>
      </trkpt>
      <trkpt lat="43.5084820" lon="-5.5815570">
        <ele>154.6</ele>
        <time>2021-07-20T10:13:10Z</time>
      </trkpt>
      <trkpt lat="43.5085010" lon="-5.5816320">
        <ele>154.2</ele>
        <time>2021-07-20T10:13:11Z</time>
      </trkpt>
      <trkpt lat="43.5085160" lon="-5.5817020">
        <ele>153.8</ele>
        <time>2021-07-20T10:13:12Z</time>
      </trkpt>
      <trkpt lat="43.5085470" lon="-5.5818530">
        <ele>153.8</ele>
        <time>2021-07-20T10:13:14Z</time>
      </trkpt>
      <trkpt lat="43.5085650" lon="-5.5819340">
        <ele>153.4</ele>
        <time>2021-07-20T10:13:15Z</time>
      </trkpt>
      <trkpt lat="43.5085870" lon="-5.5820110">
        <ele>153.0</ele>
        <time>2021-07-20T10:13:16Z</time>
      </trkpt>
      <trkpt lat="43.5086020" lon="-5.5820950">
        <ele>152.6</ele>
        <time>2021-07-20T10:13:17Z</time>
      </trkpt>
      <trkpt lat="43.5086270" lon="-5.5821830">
        <ele>152.2</ele>
        <time>2021-07-20T10:13:18Z</time>
      </trkpt>
      <trkpt lat="43.5086580" lon="-5.5822650">
        <ele>151.8</ele>
        <time>2021-07-20T10:13:19Z</time>
      </trkpt>
      <trkpt lat="43.5086950" lon="-5.5823460">
        <ele>151.4</ele>
        <time>2021-07-20T10:13:20Z</time>
      </trkpt>
      <trkpt lat="43.5087370" lon="-5.5824220">
        <ele>151.0</ele>
        <time>2021-07-20T10:13:21Z</time>
      </trkpt>
      <trkpt lat="43.5087840" lon="-5.5825000">
        <ele>150.6</ele>
        <time>2021-07-20T10:13:22Z</time>
      </trkpt>
      <trkpt lat="43.5088280" lon="-5.5825730">
        <ele>150.2</ele>
        <time>2021-07-20T10:13:23Z</time>
      </trkpt>
      <trkpt lat="43.5088770" lon="-5.5826440">
        <ele>149.8</ele>
        <time>2021-07-20T10:13:24Z</time>
      </trkpt>
      <trkpt lat="43.5090110" lon="-5.5828400">
        <ele>149.8</ele>
        <time>2021-07-20T10:13:27Z</time>
      </trkpt>
      <trkpt lat="43.5091570" lon="-5.5830850">
        <ele>149.2</ele>
        <time>2021-07-20T10:13:31Z</time>
      </trkpt>
      <trkpt lat="43.5091880" lon="-5.5831390">
        <ele>148.8</ele>
        <time>2021-07-20T10:13:32Z</time>
      </trkpt>
      <trkpt lat="43.5092180" lon="-5.5831870">
        <ele>148.4</ele>
        <time>2021-07-20T10:13:33Z</time>
      </trkpt>
      <trkpt lat="43.5092430" lon="-5.5832370">
        <ele>148.0</ele>
        <time>2021-07-20T10:13:34Z</time>
      </trkpt>
      <trkpt lat="43.5092650" lon="-5.5832790">
        <ele>147.6</ele>
        <time>2021-07-20T10:13:35Z</time>
      </trkpt>
      <trkpt lat="43.5093010" lon="-5.5833520">
        <ele>147.6</ele>
        <time>2021-07-20T10:13:37Z</time>
      </trkpt>
      <trkpt lat="43.5093190" lon="-5.5833820">
        <ele>147.6</ele>
        <time>2021-07-20T10:13:38Z</time>
      </trkpt>
      <trkpt lat="43.5093420" lon="-5.5834340">
        <ele>147.6</ele>
        <time>2021-07-20T10:13:40Z</time>
      </trkpt>
      <trkpt lat="43.5093600" lon="-5.5834770">
        <ele>147.6</ele>
        <time>2021-07-20T10:13:42Z</time>
      </trkpt>
      <trkpt lat="43.5093680" lon="-5.5834980">
        <ele>147.6</ele>
        <time>2021-07-20T10:13:43Z</time>
      </trkpt>
      <trkpt lat="43.5093870" lon="-5.5835350">
        <ele>147.6</ele>
        <time>2021-07-20T10:13:45Z</time>
      </trkpt>
      <trkpt lat="43.5093980" lon="-5.5835530">
        <ele>148.0</ele>
        <time>2021-07-20T10:13:46Z</time>
      </trkpt>
      <trkpt lat="43.5094080" lon="-5.5835760">
        <ele>148.4</ele>
        <time>2021-07-20T10:13:47Z</time>
      </trkpt>
      <trkpt lat="43.5094210" lon="-5.5835940">
        <ele>148.8</ele>
        <time>2021-07-20T10:13:48Z</time>
      </trkpt>
      <trkpt lat="43.5094300" lon="-5.5836110">
        <ele>149.2</ele>
        <time>2021-07-20T10:13:49Z</time>
      </trkpt>
      <trkpt lat="43.5094390" lon="-5.5836340">
        <ele>149.6</ele>
        <time>2021-07-20T10:13:50Z</time>
      </trkpt>
      <trkpt lat="43.5094520" lon="-5.5836570">
        <ele>149.6</ele>
        <time>2021-07-20T10:13:51Z</time>
      </trkpt>
      <trkpt lat="43.5094960" lon="-5.5837220">
        <ele>149.6</ele>
        <time>2021-07-20T10:13:54Z</time>
      </trkpt>
      <trkpt lat="43.5095230" lon="-5.5837700">
        <ele>150.2</ele>
        <time>2021-07-20T10:13:56Z</time>
      </trkpt>
      <trkpt lat="43.5095350" lon="-5.5837950">
        <ele>150.6</ele>
        <time>2021-07-20T10:13:57Z</time>
      </trkpt>
      <trkpt lat="43.5095480" lon="-5.5838220">
        <ele>151.0</ele>
        <time>2021-07-20T10:13:58Z</time>
      </trkpt>
      <trkpt lat="43.5095600" lon="-5.5838450">
        <ele>151.4</ele>
        <time>2021-07-20T10:13:59Z</time>
      </trkpt>
      <trkpt lat="43.5095720" lon="-5.5838710">
        <ele>151.8</ele>
        <time>2021-07-20T10:14:00Z</time>
      </trkpt>
      <trkpt lat="43.5096350" lon="-5.5839610">
        <ele>151.8</ele>
        <time>2021-07-20T10:14:04Z</time>
      </trkpt>
      <trkpt lat="43.5096650" lon="-5.5840030">
        <ele>152.2</ele>
        <time>2021-07-20T10:14:06Z</time>
      </trkpt>
      <trkpt lat="43.5096780" lon="-5.5840230">
        <ele>152.6</ele>
        <time>2021-07-20T10:14:07Z</time>
      </trkpt>
      <trkpt lat="43.5096880" lon="-5.5840430">
        <ele>153.2</ele>
        <time>2021-07-20T10:14:08Z</time>
      </trkpt>
      <trkpt lat="43.5096990" lon="-5.5840590">
        <ele>153.6</ele>
        <time>2021-07-20T10:14:09Z</time>
      </trkpt>
      <trkpt lat="43.5097110" lon="-5.5840760">
        <ele>154.0</ele>
        <time>2021-07-20T10:14:10Z</time>
      </trkpt>
      <trkpt lat="43.5097770" lon="-5.5841810">
        <ele>154.0</ele>
        <time>2021-07-20T10:14:15Z</time>
      </trkpt>
      <trkpt lat="43.5098130" lon="-5.5842220">
        <ele>154.4</ele>
        <time>2021-07-20T10:14:18Z</time>
      </trkpt>
      <trkpt lat="43.5098260" lon="-5.5842320">
        <ele>154.8</ele>
        <time>2021-07-20T10:14:19Z</time>
      </trkpt>
      <trkpt lat="43.5098380" lon="-5.5842410">
        <ele>155.2</ele>
        <time>2021-07-20T10:14:20Z</time>
      </trkpt>
      <trkpt lat="43.5098530" lon="-5.5842570">
        <ele>155.6</ele>
        <time>2021-07-20T10:14:21Z</time>
      </trkpt>
      <trkpt lat="43.5098660" lon="-5.5842770">
        <ele>156.0</ele>
        <time>2021-07-20T10:14:22Z</time>
      </trkpt>
      <trkpt lat="43.5099420" lon="-5.5843910">
        <ele>156.0</ele>
        <time>2021-07-20T10:14:27Z</time>
      </trkpt>
      <trkpt lat="43.5100140" lon="-5.5844830">
        <ele>156.4</ele>
        <time>2021-07-20T10:14:31Z</time>
      </trkpt>
      <trkpt lat="43.5100320" lon="-5.5845070">
        <ele>156.8</ele>
        <time>2021-07-20T10:14:32Z</time>
      </trkpt>
      <trkpt lat="43.5100520" lon="-5.5845340">
        <ele>157.2</ele>
        <time>2021-07-20T10:14:33Z</time>
      </trkpt>
      <trkpt lat="43.5100790" lon="-5.5845680">
        <ele>157.6</ele>
        <time>2021-07-20T10:14:34Z</time>
      </trkpt>
      <trkpt lat="43.5101000" lon="-5.5845950">
        <ele>158.0</ele>
        <time>2021-07-20T10:14:35Z</time>
      </trkpt>
      <trkpt lat="43.5102020" lon="-5.5847500">
        <ele>158.0</ele>
        <time>2021-07-20T10:14:41Z</time>
      </trkpt>
      <trkpt lat="43.5103310" lon="-5.5850230">
        <ele>158.4</ele>
        <time>2021-07-20T10:14:49Z</time>
      </trkpt>
      <trkpt lat="43.5103480" lon="-5.5850560">
        <ele>158.8</ele>
        <time>2021-07-20T10:14:50Z</time>
      </trkpt>
      <trkpt lat="43.5103680" lon="-5.5850920">
        <ele>159.8</ele>
        <time>2021-07-20T10:14:51Z</time>
      </trkpt>
      <trkpt lat="43.5103850" lon="-5.5851300">
        <ele>160.2</ele>
        <time>2021-07-20T10:14:52Z</time>
      </trkpt>
      <trkpt lat="43.5104630" lon="-5.5852790">
        <ele>160.2</ele>
        <time>2021-07-20T10:14:56Z</time>
      </trkpt>
      <trkpt lat="43.5105780" lon="-5.5854960">
        <ele>160.2</ele>
        <time>2021-07-20T10:15:01Z</time>
      </trkpt>
      <trkpt lat="43.5106300" lon="-5.5856020">
        <ele>160.2</ele>
        <time>2021-07-20T10:15:03Z</time>
      </trkpt>
      <trkpt lat="43.5106520" lon="-5.5856600">
        <ele>160.2</ele>
        <time>2021-07-20T10:15:04Z</time>
      </trkpt>
      <trkpt lat="43.5106950" lon="-5.5857760">
        <ele>160.2</ele>
        <time>2021-07-20T10:15:06Z</time>
      </trkpt>
      <trkpt lat="43.5107270" lon="-5.5858860">
        <ele>160.2</ele>
        <time>2021-07-20T10:15:08Z</time>
      </trkpt>
      <trkpt lat="43.5107580" lon="-5.5859980">
        <ele>160.2</ele>
        <time>2021-07-20T10:15:10Z</time>
      </trkpt>
      <trkpt lat="43.5108660" lon="-5.5863060">
        <ele>160.2</ele>
        <time>2021-07-20T10:15:16Z</time>
      </trkpt>
      <trkpt lat="43.5109130" lon="-5.5864690">
        <ele>160.2</ele>
        <time>2021-07-20T10:15:19Z</time>
      </trkpt>
      <trkpt lat="43.5109890" lon="-5.5867650">
        <ele>160.2</ele>
        <time>2021-07-20T10:15:24Z</time>
      </trkpt>
      <trkpt lat="43.5110070" lon="-5.5868720">
        <ele>160.2</ele>
        <time>2021-07-20T10:15:26Z</time>
      </trkpt>
      <trkpt lat="43.5110190" lon="-5.5870210">
        <ele>160.2</ele>
        <time>2021-07-20T10:15:29Z</time>
      </trkpt>
      <trkpt lat="43.5110190" lon="-5.5872120">
        <ele>159.8</ele>
        <time>2021-07-20T10:15:33Z</time>
      </trkpt>
      <trkpt lat="43.5110190" lon="-5.5872550">
        <ele>159.4</ele>
        <time>2021-07-20T10:15:34Z</time>
      </trkpt>
      <trkpt lat="43.5110270" lon="-5.5872910">
        <ele>159.0</ele>
        <time>2021-07-20T10:15:35Z</time>
      </trkpt>
      <trkpt lat="43.5110310" lon="-5.5873150">
        <ele>158.6</ele>
        <time>2021-07-20T10:15:36Z</time>
      </trkpt>
      <trkpt lat="43.5110290" lon="-5.5873290">
        <ele>158.0</ele>
        <time>2021-07-20T10:15:37Z</time>
      </trkpt>
      <trkpt lat="43.5110300" lon="-5.5873460">
        <ele>158.0</ele>
        <time>2021-07-20T10:15:38Z</time>
      </trkpt>
      <trkpt lat="43.5110300" lon="-5.5873400">
        <ele>158.0</ele>
        <time>2021-07-20T10:15:39Z</time>
      </trkpt>
      <trkpt lat="43.5110170" lon="-5.5873700">
        <ele>158.0</ele>
        <time>2021-07-20T10:16:15Z</time>
      </trkpt>
      <trkpt lat="43.5109860" lon="-5.5873920">
        <ele>158.0</ele>
        <time>2021-07-20T10:16:17Z</time>
      </trkpt>
      <trkpt lat="43.5109460" lon="-5.5873920">
        <ele>158.0</ele>
        <time>2021-07-20T10:16:19Z</time>
      </trkpt>
      <trkpt lat="43.5108910" lon="-5.5874010">
        <ele>158.0</ele>
        <time>2021-07-20T10:16:21Z</time>
      </trkpt>
      <trkpt lat="43.5108640" lon="-5.5874090">
        <ele>158.0</ele>
        <time>2021-07-20T10:16:22Z</time>
      </trkpt>
      <trkpt lat="43.5107700" lon="-5.5874410">
        <ele>158.0</ele>
        <time>2021-07-20T10:16:25Z</time>
      </trkpt>
      <trkpt lat="43.5106470" lon="-5.5874650">
        <ele>158.0</ele>
        <time>2021-07-20T10:16:29Z</time>
      </trkpt>
      <trkpt lat="43.5104960" lon="-5.5874560">
        <ele>158.0</ele>
        <time>2021-07-20T10:16:35Z</time>
      </trkpt>
      <trkpt lat="43.5102830" lon="-5.5874330">
        <ele>158.0</ele>
        <time>2021-07-20T10:16:43Z</time>
      </trkpt>
      <trkpt lat="43.5101140" lon="-5.5874260">
        <ele>158.0</ele>
        <time>2021-07-20T10:16:50Z</time>
      </trkpt>
      <trkpt lat="43.5100960" lon="-5.5874250">
        <ele>158.6</ele>
        <time>2021-07-20T10:16:51Z</time>
      </trkpt>
      <trkpt lat="43.5100820" lon="-5.5874200">
        <ele>159.0</ele>
        <time>2021-07-20T10:16:52Z</time>
      </trkpt>
      <trkpt lat="43.5100730" lon="-5.5874130">
        <ele>159.4</ele>
        <time>2021-07-20T10:16:53Z</time>
      </trkpt>
      <trkpt lat="43.5100670" lon="-5.5874040">
        <ele>159.8</ele>
        <time>2021-07-20T10:16:54Z</time>
      </trkpt>
      <trkpt lat="43.5100650" lon="-5.5873950">
        <ele>160.2</ele>
        <time>2021-07-20T10:16:55Z</time>
      </trkpt>
      <trkpt lat="43.5100770" lon="-5.5873790">
        <ele>160.2</ele>
        <time>2021-07-20T10:17:20Z</time>
      </trkpt>
      <trkpt lat="43.5100910" lon="-5.5873700">
        <ele>160.2</ele>
        <time>2021-07-20T10:17:21Z</time>
      </trkpt>
      <trkpt lat="43.5101070" lon="-5.5873620">
        <ele>160.2</ele>
        <time>2021-07-20T10:17:22Z</time>
      </trkpt>
      <trkpt lat="43.5101660" lon="-5.5873710">
        <ele>160.2</ele>
        <time>2021-07-20T10:17:25Z</time>
      </trkpt>
      <trkpt lat="43.5102280" lon="-5.5873890">
        <ele>160.2</ele>
        <time>2021-07-20T10:17:28Z</time>
      </trkpt>
      <trkpt lat="43.5102500" lon="-5.5873910">
        <ele>160.2</ele>
        <time>2021-07-20T10:17:29Z</time>
      </trkpt>
      <trkpt lat="43.5104050" lon="-5.5874070">
        <ele>160.2</ele>
        <time>2021-07-20T10:17:35Z</time>
      </trkpt>
      <trkpt lat="43.5105690" lon="-5.5874200">
        <ele>160.2</ele>
        <time>2021-07-20T10:17:40Z</time>
      </trkpt>
      <trkpt lat="43.5105990" lon="-5.5874190">
        <ele>160.2</ele>
        <time>2021-07-20T10:17:41Z</time>
      </trkpt>
      <trkpt lat="43.5106290" lon="-5.5874190">
        <ele>160.2</ele>
        <time>2021-07-20T10:17:42Z</time>
      </trkpt>
      <trkpt lat="43.5106940" lon="-5.5874150">
        <ele>160.2</ele>
        <time>2021-07-20T10:17:44Z</time>
      </trkpt>
      <trkpt lat="43.5108190" lon="-5.5873880">
        <ele>160.2</ele>
        <time>2021-07-20T10:17:48Z</time>
      </trkpt>
      <trkpt lat="43.5108490" lon="-5.5873830">
        <ele>159.8</ele>
        <time>2021-07-20T10:17:49Z</time>
      </trkpt>
      <trkpt lat="43.5108800" lon="-5.5873800">
        <ele>159.4</ele>
        <time>2021-07-20T10:17:50Z</time>
      </trkpt>
      <trkpt lat="43.5109120" lon="-5.5873760">
        <ele>158.8</ele>
        <time>2021-07-20T10:17:51Z</time>
      </trkpt>
      <trkpt lat="43.5109450" lon="-5.5873680">
        <ele>158.4</ele>
        <time>2021-07-20T10:17:52Z</time>
      </trkpt>
      <trkpt lat="43.5109740" lon="-5.5873590">
        <ele>158.0</ele>
        <time>2021-07-20T10:17:53Z</time>
      </trkpt>
      <trkpt lat="43.5109940" lon="-5.5873530">
        <ele>158.0</ele>
        <time>2021-07-20T10:17:54Z</time>
      </trkpt>
      <trkpt lat="43.5110010" lon="-5.5873510">
        <ele>158.0</ele>
        <time>2021-07-20T10:17:55Z</time>
      </trkpt>
      <trkpt lat="43.5110020" lon="-5.5873870">
        <ele>158.0</ele>
        <time>2021-07-20T10:18:34Z</time>
      </trkpt>
      <trkpt lat="43.5109890" lon="-5.5873970">
        <ele>158.0</ele>
        <time>2021-07-20T10:18:35Z</time>
      </trkpt>
      <trkpt lat="43.5108960" lon="-5.5874120">
        <ele>158.0</ele>
        <time>2021-07-20T10:18:38Z</time>
      </trkpt>
      <trkpt lat="43.5108660" lon="-5.5874160">
        <ele>158.0</ele>
        <time>2021-07-20T10:18:40Z</time>
      </trkpt>
      <trkpt lat="43.5108040" lon="-5.5874250">
        <ele>158.0</ele>
        <time>2021-07-20T10:18:42Z</time>
      </trkpt>
      <trkpt lat="43.5107100" lon="-5.5874470">
        <ele>158.0</ele>
        <time>2021-07-20T10:18:45Z</time>
      </trkpt>
      <trkpt lat="43.5105850" lon="-5.5874610">
        <ele>158.0</ele>
        <time>2021-07-20T10:18:49Z</time>
      </trkpt>
      <trkpt lat="43.5105560" lon="-5.5874620">
        <ele>158.0</ele>
        <time>2021-07-20T10:18:50Z</time>
      </trkpt>
      <trkpt lat="43.5103990" lon="-5.5874470">
        <ele>158.0</ele>
        <time>2021-07-20T10:18:55Z</time>
      </trkpt>
      <trkpt lat="43.5103670" lon="-5.5874420">
        <ele>158.0</ele>
        <time>2021-07-20T10:18:56Z</time>
      </trkpt>
      <trkpt lat="43.5103340" lon="-5.5874370">
        <ele>158.4</ele>
        <time>2021-07-20T10:18:57Z</time>
      </trkpt>
      <trkpt lat="43.5103010" lon="-5.5874320">
        <ele>158.8</ele>
        <time>2021-07-20T10:18:58Z</time>
      </trkpt>
      <trkpt lat="43.5102690" lon="-5.5874280">
        <ele>159.2</ele>
        <time>2021-07-20T10:18:59Z</time>
      </trkpt>
      <trkpt lat="43.5102350" lon="-5.5874240">
        <ele>159.6</ele>
        <time>2021-07-20T10:19:00Z</time>
      </trkpt>
      <trkpt lat="43.5102010" lon="-5.5874210">
        <ele>160.0</ele>
        <time>2021-07-20T10:19:01Z</time>
      </trkpt>
      <trkpt lat="43.5100980" lon="-5.5873960">
        <ele>160.0</ele>
        <time>2021-07-20T10:19:04Z</time>
      </trkpt>
      <trkpt lat="43.5099330" lon="-5.5873240">
        <ele>160.0</ele>
        <time>2021-07-20T10:19:09Z</time>
      </trkpt>
      <trkpt lat="43.5097990" lon="-5.5872310">
        <ele>160.0</ele>
        <time>2021-07-20T10:19:13Z</time>
      </trkpt>
      <trkpt lat="43.5095350" lon="-5.5870750">
        <ele>160.0</ele>
        <time>2021-07-20T10:19:21Z</time>
      </trkpt>
      <trkpt lat="43.5094140" lon="-5.5870560">
        <ele>160.0</ele>
        <time>2021-07-20T10:19:24Z</time>
      </trkpt>
      <trkpt lat="43.5093320" lon="-5.5870730">
        <ele>160.0</ele>
        <time>2021-07-20T10:19:26Z</time>
      </trkpt>
      <trkpt lat="43.5091710" lon="-5.5871530">
        <ele>160.0</ele>
        <time>2021-07-20T10:19:30Z</time>
      </trkpt>
      <trkpt lat="43.5090690" lon="-5.5872250">
        <ele>160.0</ele>
        <time>2021-07-20T10:19:33Z</time>
      </trkpt>
      <trkpt lat="43.5090000" lon="-5.5872590">
        <ele>160.0</ele>
        <time>2021-07-20T10:19:35Z</time>
      </trkpt>
      <trkpt lat="43.5089240" lon="-5.5872720">
        <ele>160.0</ele>
        <time>2021-07-20T10:19:37Z</time>
      </trkpt>
      <trkpt lat="43.5088850" lon="-5.5872700">
        <ele>160.0</ele>
        <time>2021-07-20T10:19:38Z</time>
      </trkpt>
      <trkpt lat="43.5088450" lon="-5.5872610">
        <ele>160.0</ele>
        <time>2021-07-20T10:19:39Z</time>
      </trkpt>
      <trkpt lat="43.5087510" lon="-5.5872330">
        <ele>160.0</ele>
        <time>2021-07-20T10:19:41Z</time>
      </trkpt>
      <trkpt lat="43.5086440" lon="-5.5871990">
        <ele>160.0</ele>
        <time>2021-07-20T10:19:43Z</time>
      </trkpt>
      <trkpt lat="43.5085250" lon="-5.5871530">
        <ele>160.0</ele>
        <time>2021-07-20T10:19:45Z</time>
      </trkpt>
      <trkpt lat="43.5082680" lon="-5.5870680">
        <ele>160.0</ele>
        <time>2021-07-20T10:19:49Z</time>
      </trkpt>
      <trkpt lat="43.5079460" lon="-5.5869940">
        <ele>160.0</ele>
        <time>2021-07-20T10:19:55Z</time>
      </trkpt>
      <trkpt lat="43.5077920" lon="-5.5870010">
        <ele>160.0</ele>
        <time>2021-07-20T10:19:59Z</time>
      </trkpt>
      <trkpt lat="43.5077570" lon="-5.5870060">
        <ele>160.0</ele>
        <time>2021-07-20T10:20:00Z</time>
      </trkpt>
      <trkpt lat="43.5076940" lon="-5.5870260">
        <ele>160.0</ele>
        <time>2021-07-20T10:20:02Z</time>
      </trkpt>
      <trkpt lat="43.5076330" lon="-5.5870440">
        <ele>160.0</ele>
        <time>2021-07-20T10:20:04Z</time>
      </trkpt>
      <trkpt lat="43.5075740" lon="-5.5870700">
        <ele>160.0</ele>
        <time>2021-07-20T10:20:06Z</time>
      </trkpt>
      <trkpt lat="43.5075460" lon="-5.5870800">
        <ele>160.0</ele>
        <time>2021-07-20T10:20:07Z</time>
      </trkpt>
      <trkpt lat="43.5074930" lon="-5.5871000">
        <ele>160.0</ele>
        <time>2021-07-20T10:20:09Z</time>
      </trkpt>
      <trkpt lat="43.5074180" lon="-5.5871320">
        <ele>160.0</ele>
        <time>2021-07-20T10:20:12Z</time>
      </trkpt>
      <trkpt lat="43.5073690" lon="-5.5871440">
        <ele>160.0</ele>
        <time>2021-07-20T10:20:14Z</time>
      </trkpt>
      <trkpt lat="43.5073440" lon="-5.5871450">
        <ele>160.6</ele>
        <time>2021-07-20T10:20:15Z</time>
      </trkpt>
      <trkpt lat="43.5073180" lon="-5.5871420">
        <ele>161.0</ele>
        <time>2021-07-20T10:20:16Z</time>
      </trkpt>
      <trkpt lat="43.5072930" lon="-5.5871340">
        <ele>161.4</ele>
        <time>2021-07-20T10:20:17Z</time>
      </trkpt>
      <trkpt lat="43.5072650" lon="-5.5871250">
        <ele>161.8</ele>
        <time>2021-07-20T10:20:18Z</time>
      </trkpt>
      <trkpt lat="43.5072330" lon="-5.5871130">
        <ele>162.2</ele>
        <time>2021-07-20T10:20:19Z</time>
      </trkpt>
      <trkpt lat="43.5072060" lon="-5.5871000">
        <ele>162.2</ele>
        <time>2021-07-20T10:20:20Z</time>
      </trkpt>
      <trkpt lat="43.5070650" lon="-5.5870360">
        <ele>162.2</ele>
        <time>2021-07-20T10:20:25Z</time>
      </trkpt>
      <trkpt lat="43.5070110" lon="-5.5870090">
        <ele>162.2</ele>
        <time>2021-07-20T10:20:27Z</time>
      </trkpt>
      <trkpt lat="43.5068690" lon="-5.5869430">
        <ele>162.6</ele>
        <time>2021-07-20T10:20:32Z</time>
      </trkpt>
      <trkpt lat="43.5068410" lon="-5.5869300">
        <ele>163.0</ele>
        <time>2021-07-20T10:20:33Z</time>
      </trkpt>
      <trkpt lat="43.5068130" lon="-5.5869150">
        <ele>163.4</ele>
        <time>2021-07-20T10:20:34Z</time>
      </trkpt>
      <trkpt lat="43.5067840" lon="-5.5869010">
        <ele>163.8</ele>
        <time>2021-07-20T10:20:35Z</time>
      </trkpt>
      <trkpt lat="43.5067580" lon="-5.5868890">
        <ele>164.2</ele>
        <time>2021-07-20T10:20:36Z</time>
      </trkpt>
      <trkpt lat="43.5065590" lon="-5.5867980">
        <ele>164.2</ele>
        <time>2021-07-20T10:20:43Z</time>
      </trkpt>
      <trkpt lat="43.5064510" lon="-5.5867390">
        <ele>164.6</ele>
        <time>2021-07-20T10:20:47Z</time>
      </trkpt>
      <trkpt lat="43.5064240" lon="-5.5867250">
        <ele>165.0</ele>
        <time>2021-07-20T10:20:48Z</time>
      </trkpt>
      <trkpt lat="43.5063970" lon="-5.5867100">
        <ele>165.4</ele>
        <time>2021-07-20T10:20:49Z</time>
      </trkpt>
      <trkpt lat="43.5063690" lon="-5.5866970">
        <ele>165.8</ele>
        <time>2021-07-20T10:20:50Z</time>
      </trkpt>
      <trkpt lat="43.5063400" lon="-5.5866820">
        <ele>166.2</ele>
        <time>2021-07-20T10:20:51Z</time>
      </trkpt>
      <trkpt lat="43.5061670" lon="-5.5866110">
        <ele>166.2</ele>
        <time>2021-07-20T10:20:56Z</time>
      </trkpt>
      <trkpt lat="43.5059290" lon="-5.5865170">
        <ele>166.2</ele>
        <time>2021-07-20T10:21:03Z</time>
      </trkpt>
      <trkpt lat="43.5057270" lon="-5.5863540">
        <ele>166.2</ele>
        <time>2021-07-20T10:21:10Z</time>
      </trkpt>
      <trkpt lat="43.5056710" lon="-5.5862810">
        <ele>166.2</ele>
        <time>2021-07-20T10:21:13Z</time>
      </trkpt>
      <trkpt lat="43.5056240" lon="-5.5862340">
        <ele>166.2</ele>
        <time>2021-07-20T10:21:16Z</time>
      </trkpt>
      <trkpt lat="43.5056120" lon="-5.5862260">
        <ele>166.2</ele>
        <time>2021-07-20T10:21:17Z</time>
      </trkpt>
      <trkpt lat="43.5055750" lon="-5.5862100">
        <ele>166.2</ele>
        <time>2021-07-20T10:21:20Z</time>
      </trkpt>
      <trkpt lat="43.5055560" lon="-5.5862160">
        <ele>166.2</ele>
        <time>2021-07-20T10:21:22Z</time>
      </trkpt>
      <trkpt lat="43.5055560" lon="-5.5862380">
        <ele>166.2</ele>
        <time>2021-07-20T10:21:24Z</time>
      </trkpt>
      <trkpt lat="43.5055570" lon="-5.5862550">
        <ele>166.2</ele>
        <time>2021-07-20T10:21:26Z</time>
      </trkpt>
      <trkpt lat="43.5055570" lon="-5.5861960">
        <ele>166.2</ele>
        <time>2021-07-20T10:23:04Z</time>
      </trkpt>
      <trkpt lat="43.5055480" lon="-5.5861730">
        <ele>166.2</ele>
        <time>2021-07-20T10:23:05Z</time>
      </trkpt>
      <trkpt lat="43.5055240" lon="-5.5861010">
        <ele>166.2</ele>
        <time>2021-07-20T10:23:07Z</time>
      </trkpt>
      <trkpt lat="43.5054890" lon="-5.5860120">
        <ele>166.2</ele>
        <time>2021-07-20T10:23:09Z</time>
      </trkpt>
      <trkpt lat="43.5054670" lon="-5.5859720">
        <ele>166.8</ele>
        <time>2021-07-20T10:23:10Z</time>
      </trkpt>
      <trkpt lat="43.5054460" lon="-5.5859340">
        <ele>167.2</ele>
        <time>2021-07-20T10:23:11Z</time>
      </trkpt>
      <trkpt lat="43.5054270" lon="-5.5858970">
        <ele>167.6</ele>
        <time>2021-07-20T10:23:12Z</time>
      </trkpt>
      <trkpt lat="43.5054090" lon="-5.5858600">
        <ele>168.0</ele>
        <time>2021-07-20T10:23:13Z</time>
      </trkpt>
      <trkpt lat="43.5053900" lon="-5.5858250">
        <ele>168.4</ele>
        <time>2021-07-20T10:23:14Z</time>
      </trkpt>
      <trkpt lat="43.5053720" lon="-5.5857920">
        <ele>168.4</ele>
        <time>2021-07-20T10:23:15Z</time>
      </trkpt>
      <trkpt lat="43.5053370" lon="-5.5857310">
        <ele>168.4</ele>
        <time>2021-07-20T10:23:17Z</time>
      </trkpt>
      <trkpt lat="43.5052850" lon="-5.5856420">
        <ele>168.4</ele>
        <time>2021-07-20T10:23:21Z</time>
      </trkpt>
      <trkpt lat="43.5052810" lon="-5.5856330">
        <ele>168.4</ele>
        <time>2021-07-20T10:23:22Z</time>
      </trkpt>
      <trkpt lat="43.5052810" lon="-5.5856300">
        <ele>168.8</ele>
        <time>2021-07-20T10:23:23Z</time>
      </trkpt>
      <trkpt lat="43.5053040" lon="-5.5856210">
        <ele>170.4</ele>
        <time>2021-07-20T10:23:36Z</time>
      </trkpt>
      <trkpt lat="43.5053350" lon="-5.5856650">
        <ele>170.4</ele>
        <time>2021-07-20T10:23:38Z</time>
      </trkpt>
      <trkpt lat="43.5053730" lon="-5.5857370">
        <ele>170.4</ele>
        <time>2021-07-20T10:23:40Z</time>
      </trkpt>
      <trkpt lat="43.5054560" lon="-5.5858920">
        <ele>170.4</ele>
        <time>2021-07-20T10:23:43Z</time>
      </trkpt>
      <trkpt lat="43.5056380" lon="-5.5862150">
        <ele>170.4</ele>
        <time>2021-07-20T10:23:48Z</time>
      </trkpt>
      <trkpt lat="43.5057270" lon="-5.5863390">
        <ele>170.4</ele>
        <time>2021-07-20T10:23:50Z</time>
      </trkpt>
      <trkpt lat="43.5057750" lon="-5.5863940">
        <ele>170.4</ele>
        <time>2021-07-20T10:23:51Z</time>
      </trkpt>
      <trkpt lat="43.5058270" lon="-5.5864410">
        <ele>170.0</ele>
        <time>2021-07-20T10:23:52Z</time>
      </trkpt>
      <trkpt lat="43.5058840" lon="-5.5864780">
        <ele>169.6</ele>
        <time>2021-07-20T10:23:53Z</time>
      </trkpt>
      <trkpt lat="43.5059430" lon="-5.5865050">
        <ele>169.2</ele>
        <time>2021-07-20T10:23:54Z</time>
      </trkpt>
      <trkpt lat="43.5060010" lon="-5.5865280">
        <ele>168.8</ele>
        <time>2021-07-20T10:23:55Z</time>
      </trkpt>
      <trkpt lat="43.5060580" lon="-5.5865490">
        <ele>168.4</ele>
        <time>2021-07-20T10:23:56Z</time>
      </trkpt>
      <trkpt lat="43.5061660" lon="-5.5865840">
        <ele>168.4</ele>
        <time>2021-07-20T10:23:58Z</time>
      </trkpt>
      <trkpt lat="43.5063230" lon="-5.5866490">
        <ele>168.4</ele>
        <time>2021-07-20T10:24:01Z</time>
      </trkpt>
      <trkpt lat="43.5064260" lon="-5.5866900">
        <ele>168.4</ele>
        <time>2021-07-20T10:24:03Z</time>
      </trkpt>
      <trkpt lat="43.5065280" lon="-5.5867360">
        <ele>168.4</ele>
        <time>2021-07-20T10:24:05Z</time>
      </trkpt>
      <trkpt lat="43.5065810" lon="-5.5867580">
        <ele>168.4</ele>
        <time>2021-07-20T10:24:06Z</time>
      </trkpt>
      <trkpt lat="43.5067440" lon="-5.5868410">
        <ele>168.4</ele>
        <time>2021-07-20T10:24:09Z</time>
      </trkpt>
      <trkpt lat="43.5069180" lon="-5.5869300">
        <ele>168.4</ele>
        <time>2021-07-20T10:24:12Z</time>
      </trkpt>
      <trkpt lat="43.5069780" lon="-5.5869610">
        <ele>168.0</ele>
        <time>2021-07-20T10:24:13Z</time>
      </trkpt>
      <trkpt lat="43.5070430" lon="-5.5869920">
        <ele>167.4</ele>
        <time>2021-07-20T10:24:14Z</time>
      </trkpt>
      <trkpt lat="43.5071090" lon="-5.5870190">
        <ele>167.0</ele>
        <time>2021-07-20T10:24:15Z</time>
      </trkpt>
      <trkpt lat="43.5071770" lon="-5.5870450">
        <ele>166.6</ele>
        <time>2021-07-20T10:24:16Z</time>
      </trkpt>
      <trkpt lat="43.5072460" lon="-5.5870700">
        <ele>166.2</ele>
        <time>2021-07-20T10:24:17Z</time>
      </trkpt>
      <trkpt lat="43.5073780" lon="-5.5870990">
        <ele>166.2</ele>
        <time>2021-07-20T10:24:19Z</time>
      </trkpt>
      <trkpt lat="43.5075130" lon="-5.5870710">
        <ele>165.6</ele>
        <time>2021-07-20T10:24:21Z</time>
      </trkpt>
      <trkpt lat="43.5075870" lon="-5.5870380">
        <ele>165.2</ele>
        <time>2021-07-20T10:24:22Z</time>
      </trkpt>
      <trkpt lat="43.5076620" lon="-5.5870060">
        <ele>164.2</ele>
        <time>2021-07-20T10:24:23Z</time>
      </trkpt>
      <trkpt lat="43.5077400" lon="-5.5869830">
        <ele>163.8</ele>
        <time>2021-07-20T10:24:24Z</time>
      </trkpt>
      <trkpt lat="43.5079070" lon="-5.5869630">
        <ele>163.8</ele>
        <time>2021-07-20T10:24:26Z</time>
      </trkpt>
      <trkpt lat="43.5080800" lon="-5.5869810">
        <ele>163.2</ele>
        <time>2021-07-20T10:24:28Z</time>
      </trkpt>
      <trkpt lat="43.5081660" lon="-5.5870030">
        <ele>162.8</ele>
        <time>2021-07-20T10:24:29Z</time>
      </trkpt>
      <trkpt lat="43.5082540" lon="-5.5870300">
        <ele>162.4</ele>
        <time>2021-07-20T10:24:30Z</time>
      </trkpt>
      <trkpt lat="43.5083350" lon="-5.5870560">
        <ele>161.8</ele>
        <time>2021-07-20T10:24:31Z</time>
      </trkpt>
      <trkpt lat="43.5084120" lon="-5.5870840">
        <ele>161.4</ele>
        <time>2021-07-20T10:24:32Z</time>
      </trkpt>
      <trkpt lat="43.5086190" lon="-5.5871510">
        <ele>161.4</ele>
        <time>2021-07-20T10:24:35Z</time>
      </trkpt>
      <trkpt lat="43.5088190" lon="-5.5872100">
        <ele>161.4</ele>
        <time>2021-07-20T10:24:39Z</time>
      </trkpt>
      <trkpt lat="43.5089000" lon="-5.5872240">
        <ele>161.4</ele>
        <time>2021-07-20T10:24:41Z</time>
      </trkpt>
      <trkpt lat="43.5089800" lon="-5.5872190">
        <ele>161.4</ele>
        <time>2021-07-20T10:24:43Z</time>
      </trkpt>
      <trkpt lat="43.5090560" lon="-5.5871800">
        <ele>161.4</ele>
        <time>2021-07-20T10:24:45Z</time>
      </trkpt>
      <trkpt lat="43.5091270" lon="-5.5871280">
        <ele>161.4</ele>
        <time>2021-07-20T10:24:47Z</time>
      </trkpt>
      <trkpt lat="43.5092460" lon="-5.5870590">
        <ele>161.4</ele>
        <time>2021-07-20T10:24:50Z</time>
      </trkpt>
      <trkpt lat="43.5092910" lon="-5.5870390">
        <ele>161.4</ele>
        <time>2021-07-20T10:24:51Z</time>
      </trkpt>
      <trkpt lat="43.5093350" lon="-5.5870230">
        <ele>161.4</ele>
        <time>2021-07-20T10:24:52Z</time>
      </trkpt>
      <trkpt lat="43.5094190" lon="-5.5869980">
        <ele>161.4</ele>
        <time>2021-07-20T10:24:54Z</time>
      </trkpt>
      <trkpt lat="43.5095500" lon="-5.5870130">
        <ele>161.4</ele>
        <time>2021-07-20T10:24:57Z</time>
      </trkpt>
      <trkpt lat="43.5095920" lon="-5.5870310">
        <ele>161.4</ele>
        <time>2021-07-20T10:24:58Z</time>
      </trkpt>
      <trkpt lat="43.5096330" lon="-5.5870520">
        <ele>161.4</ele>
        <time>2021-07-20T10:24:59Z</time>
      </trkpt>
      <trkpt lat="43.5097590" lon="-5.5871330">
        <ele>161.4</ele>
        <time>2021-07-20T10:25:02Z</time>
      </trkpt>
      <trkpt lat="43.5098800" lon="-5.5872240">
        <ele>161.4</ele>
        <time>2021-07-20T10:25:05Z</time>
      </trkpt>
      <trkpt lat="43.5099620" lon="-5.5872860">
        <ele>161.4</ele>
        <time>2021-07-20T10:25:07Z</time>
      </trkpt>
      <trkpt lat="43.5101040" lon="-5.5873480">
        <ele>161.4</ele>
        <time>2021-07-20T10:25:10Z</time>
      </trkpt>
      <trkpt lat="43.5103990" lon="-5.5874040">
        <ele>161.4</ele>
        <time>2021-07-20T10:25:16Z</time>
      </trkpt>
      <trkpt lat="43.5104440" lon="-5.5874080">
        <ele>161.4</ele>
        <time>2021-07-20T10:25:17Z</time>
      </trkpt>
      <trkpt lat="43.5105390" lon="-5.5874140">
        <ele>161.4</ele>
        <time>2021-07-20T10:25:19Z</time>
      </trkpt>
      <trkpt lat="43.5106690" lon="-5.5874120">
        <ele>161.4</ele>
        <time>2021-07-20T10:25:22Z</time>
      </trkpt>
      <trkpt lat="43.5107300" lon="-5.5874040">
        <ele>161.0</ele>
        <time>2021-07-20T10:25:24Z</time>
      </trkpt>
      <trkpt lat="43.5107460" lon="-5.5874020">
        <ele>160.4</ele>
        <time>2021-07-20T10:25:25Z</time>
      </trkpt>
      <trkpt lat="43.5107500" lon="-5.5874020">
        <ele>160.0</ele>
        <time>2021-07-20T10:25:26Z</time>
      </trkpt>
      <trkpt lat="43.5107570" lon="-5.5874220">
        <ele>159.0</ele>
        <time>2021-07-20T10:25:29Z</time>
      </trkpt>
      <trkpt lat="43.5107470" lon="-5.5875410">
        <ele>159.0</ele>
        <time>2021-07-20T10:25:34Z</time>
      </trkpt>
      <trkpt lat="43.5107490" lon="-5.5876030">
        <ele>159.0</ele>
        <time>2021-07-20T10:25:36Z</time>
      </trkpt>
      <trkpt lat="43.5107520" lon="-5.5876370">
        <ele>158.6</ele>
        <time>2021-07-20T10:25:37Z</time>
      </trkpt>
      <trkpt lat="43.5107540" lon="-5.5876760">
        <ele>158.2</ele>
        <time>2021-07-20T10:25:38Z</time>
      </trkpt>
      <trkpt lat="43.5107580" lon="-5.5877130">
        <ele>157.8</ele>
        <time>2021-07-20T10:25:39Z</time>
      </trkpt>
      <trkpt lat="43.5107620" lon="-5.5877540">
        <ele>157.4</ele>
        <time>2021-07-20T10:25:40Z</time>
      </trkpt>
      <trkpt lat="43.5107600" lon="-5.5877960">
        <ele>157.0</ele>
        <time>2021-07-20T10:25:41Z</time>
      </trkpt>
      <trkpt lat="43.5107580" lon="-5.5878380">
        <ele>156.4</ele>
        <time>2021-07-20T10:25:42Z</time>
      </trkpt>
      <trkpt lat="43.5107600" lon="-5.5878810">
        <ele>156.0</ele>
        <time>2021-07-20T10:25:43Z</time>
      </trkpt>
      <trkpt lat="43.5107590" lon="-5.5879270">
        <ele>155.4</ele>
        <time>2021-07-20T10:25:44Z</time>
      </trkpt>
      <trkpt lat="43.5107570" lon="-5.5879720">
        <ele>154.8</ele>
        <time>2021-07-20T10:25:45Z</time>
      </trkpt>
      <trkpt lat="43.5107570" lon="-5.5880230">
        <ele>154.2</ele>
        <time>2021-07-20T10:25:46Z</time>
      </trkpt>
      <trkpt lat="43.5107610" lon="-5.5880690">
        <ele>153.6</ele>
        <time>2021-07-20T10:25:47Z</time>
      </trkpt>
      <trkpt lat="43.5107670" lon="-5.5881150">
        <ele>153.0</ele>
        <time>2021-07-20T10:25:48Z</time>
      </trkpt>
      <trkpt lat="43.5107800" lon="-5.5881620">
        <ele>152.4</ele>
        <time>2021-07-20T10:25:49Z</time>
      </trkpt>
      <trkpt lat="43.5108020" lon="-5.5882040">
        <ele>151.8</ele>
        <time>2021-07-20T10:25:50Z</time>
      </trkpt>
      <trkpt lat="43.5108240" lon="-5.5882420">
        <ele>151.0</ele>
        <time>2021-07-20T10:25:51Z</time>
      </trkpt>
      <trkpt lat="43.5108500" lon="-5.5882780">
        <ele>150.4</ele>
        <time>2021-07-20T10:25:52Z</time>
      </trkpt>
      <trkpt lat="43.5108790" lon="-5.5883180">
        <ele>149.8</ele>
        <time>2021-07-20T10:25:53Z</time>
      </trkpt>
      <trkpt lat="43.5109110" lon="-5.5883600">
        <ele>149.2</ele>
        <time>2021-07-20T10:25:54Z</time>
      </trkpt>
      <trkpt lat="43.5109430" lon="-5.5883990">
        <ele>148.8</ele>
        <time>2021-07-20T10:25:55Z</time>
      </trkpt>
      <trkpt lat="43.5109790" lon="-5.5884370">
        <ele>148.4</ele>
        <time>2021-07-20T10:25:56Z</time>
      </trkpt>
      <trkpt lat="43.5110170" lon="-5.5884750">
        <ele>148.0</ele>
        <time>2021-07-20T10:25:57Z</time>
      </trkpt>
      <trkpt lat="43.5110560" lon="-5.5885100">
        <ele>147.4</ele>
        <time>2021-07-20T10:25:58Z</time>
      </trkpt>
      <trkpt lat="43.5110990" lon="-5.5885410">
        <ele>147.0</ele>
        <time>2021-07-20T10:25:59Z</time>
      </trkpt>
      <trkpt lat="43.5111420" lon="-5.5885680">
        <ele>146.4</ele>
        <time>2021-07-20T10:26:00Z</time>
      </trkpt>
      <trkpt lat="43.5111820" lon="-5.5885990">
        <ele>146.0</ele>
        <time>2021-07-20T10:26:01Z</time>
      </trkpt>
      <trkpt lat="43.5112130" lon="-5.5886220">
        <ele>144.8</ele>
        <time>2021-07-20T10:26:02Z</time>
      </trkpt>
      <trkpt lat="43.5112400" lon="-5.5886440">
        <ele>144.2</ele>
        <time>2021-07-20T10:26:03Z</time>
      </trkpt>
      <trkpt lat="43.5112630" lon="-5.5886610">
        <ele>143.8</ele>
        <time>2021-07-20T10:26:04Z</time>
      </trkpt>
      <trkpt lat="43.5112850" lon="-5.5886790">
        <ele>143.2</ele>
        <time>2021-07-20T10:26:05Z</time>
      </trkpt>
      <trkpt lat="43.5113050" lon="-5.5886950">
        <ele>142.6</ele>
        <time>2021-07-20T10:26:06Z</time>
      </trkpt>
      <trkpt lat="43.5113310" lon="-5.5887130">
        <ele>142.0</ele>
        <time>2021-07-20T10:26:07Z</time>
      </trkpt>
      <trkpt lat="43.5113590" lon="-5.5887330">
        <ele>141.6</ele>
        <time>2021-07-20T10:26:08Z</time>
      </trkpt>
      <trkpt lat="43.5113870" lon="-5.5887530">
        <ele>141.0</ele>
        <time>2021-07-20T10:26:09Z</time>
      </trkpt>
      <trkpt lat="43.5114170" lon="-5.5887720">
        <ele>140.6</ele>
        <time>2021-07-20T10:26:10Z</time>
      </trkpt>
      <trkpt lat="43.5114480" lon="-5.5887930">
        <ele>140.0</ele>
        <time>2021-07-20T10:26:11Z</time>
      </trkpt>
      <trkpt lat="43.5114800" lon="-5.5888110">
        <ele>139.6</ele>
        <time>2021-07-20T10:26:12Z</time>
      </trkpt>
      <trkpt lat="43.5115140" lon="-5.5888310">
        <ele>139.2</ele>
        <time>2021-07-20T10:26:13Z</time>
      </trkpt>
      <trkpt lat="43.5115500" lon="-5.5888490">
        <ele>138.6</ele>
        <time>2021-07-20T10:26:14Z</time>
      </trkpt>
      <trkpt lat="43.5115860" lon="-5.5888640">
        <ele>138.0</ele>
        <time>2021-07-20T10:26:15Z</time>
      </trkpt>
      <trkpt lat="43.5116240" lon="-5.5888830">
        <ele>137.4</ele>
        <time>2021-07-20T10:26:16Z</time>
      </trkpt>
      <trkpt lat="43.5116610" lon="-5.5888980">
        <ele>136.8</ele>
        <time>2021-07-20T10:26:17Z</time>
      </trkpt>
      <trkpt lat="43.5117030" lon="-5.5889150">
        <ele>136.0</ele>
        <time>2021-07-20T10:26:18Z</time>
      </trkpt>
      <trkpt lat="43.5117430" lon="-5.5889260">
        <ele>135.4</ele>
        <time>2021-07-20T10:26:19Z</time>
      </trkpt>
      <trkpt lat="43.5117850" lon="-5.5889430">
        <ele>134.6</ele>
        <time>2021-07-20T10:26:20Z</time>
      </trkpt>
      <trkpt lat="43.5118300" lon="-5.5889590">
        <ele>134.0</ele>
        <time>2021-07-20T10:26:21Z</time>
      </trkpt>
      <trkpt lat="43.5118770" lon="-5.5889820">
        <ele>133.2</ele>
        <time>2021-07-20T10:26:22Z</time>
      </trkpt>
      <trkpt lat="43.5119280" lon="-5.5890040">
        <ele>132.6</ele>
        <time>2021-07-20T10:26:23Z</time>
      </trkpt>
      <trkpt lat="43.5119680" lon="-5.5890280">
        <ele>132.0</ele>
        <time>2021-07-20T10:26:24Z</time>
      </trkpt>
      <trkpt lat="43.5120120" lon="-5.5890510">
        <ele>131.4</ele>
        <time>2021-07-20T10:26:25Z</time>
      </trkpt>
      <trkpt lat="43.5120500" lon="-5.5890720">
        <ele>130.0</ele>
        <time>2021-07-20T10:26:26Z</time>
      </trkpt>
      <trkpt lat="43.5120900" lon="-5.5890950">
        <ele>129.4</ele>
        <time>2021-07-20T10:26:27Z</time>
      </trkpt>
      <trkpt lat="43.5121300" lon="-5.5891170">
        <ele>128.6</ele>
        <time>2021-07-20T10:26:28Z</time>
      </trkpt>
      <trkpt lat="43.5121700" lon="-5.5891340">
        <ele>128.0</ele>
        <time>2021-07-20T10:26:29Z</time>
      </trkpt>
      <trkpt lat="43.5122130" lon="-5.5891550">
        <ele>127.2</ele>
        <time>2021-07-20T10:26:30Z</time>
      </trkpt>
      <trkpt lat="43.5122560" lon="-5.5891780">
        <ele>126.4</ele>
        <time>2021-07-20T10:26:31Z</time>
      </trkpt>
      <trkpt lat="43.5123030" lon="-5.5891960">
        <ele>125.6</ele>
        <time>2021-07-20T10:26:32Z</time>
      </trkpt>
      <trkpt lat="43.5123480" lon="-5.5892080">
        <ele>124.8</ele>
        <time>2021-07-20T10:26:33Z</time>
      </trkpt>
      <trkpt lat="43.5123910" lon="-5.5892130">
        <ele>124.2</ele>
        <time>2021-07-20T10:26:34Z</time>
      </trkpt>
      <trkpt lat="43.5124300" lon="-5.5892190">
        <ele>123.4</ele>
        <time>2021-07-20T10:26:35Z</time>
      </trkpt>
      <trkpt lat="43.5124660" lon="-5.5892200">
        <ele>122.6</ele>
        <time>2021-07-20T10:26:36Z</time>
      </trkpt>
      <trkpt lat="43.5124970" lon="-5.5892190">
        <ele>121.8</ele>
        <time>2021-07-20T10:26:37Z</time>
      </trkpt>
      <trkpt lat="43.5125260" lon="-5.5892170">
        <ele>121.0</ele>
        <time>2021-07-20T10:26:38Z</time>
      </trkpt>
      <trkpt lat="43.5125540" lon="-5.5892130">
        <ele>120.4</ele>
        <time>2021-07-20T10:26:39Z</time>
      </trkpt>
      <trkpt lat="43.5125900" lon="-5.5892030">
        <ele>119.6</ele>
        <time>2021-07-20T10:26:40Z</time>
      </trkpt>
      <trkpt lat="43.5126230" lon="-5.5891930">
        <ele>118.8</ele>
        <time>2021-07-20T10:26:41Z</time>
      </trkpt>
      <trkpt lat="43.5126550" lon="-5.5891860">
        <ele>118.2</ele>
        <time>2021-07-20T10:26:42Z</time>
      </trkpt>
      <trkpt lat="43.5126910" lon="-5.5891840">
        <ele>117.6</ele>
        <time>2021-07-20T10:26:43Z</time>
      </trkpt>
      <trkpt lat="43.5127310" lon="-5.5891860">
        <ele>117.0</ele>
        <time>2021-07-20T10:26:44Z</time>
      </trkpt>
      <trkpt lat="43.5127700" lon="-5.5891860">
        <ele>116.4</ele>
        <time>2021-07-20T10:26:45Z</time>
      </trkpt>
      <trkpt lat="43.5128160" lon="-5.5891950">
        <ele>115.8</ele>
        <time>2021-07-20T10:26:46Z</time>
      </trkpt>
      <trkpt lat="43.5128630" lon="-5.5892040">
        <ele>115.2</ele>
        <time>2021-07-20T10:26:47Z</time>
      </trkpt>
      <trkpt lat="43.5129110" lon="-5.5892250">
        <ele>114.6</ele>
        <time>2021-07-20T10:26:48Z</time>
      </trkpt>
      <trkpt lat="43.5129690" lon="-5.5892630">
        <ele>114.0</ele>
        <time>2021-07-20T10:26:49Z</time>
      </trkpt>
      <trkpt lat="43.5130140" lon="-5.5892750">
        <ele>113.4</ele>
        <time>2021-07-20T10:26:50Z</time>
      </trkpt>
      <trkpt lat="43.5130600" lon="-5.5892810">
        <ele>112.2</ele>
        <time>2021-07-20T10:26:51Z</time>
      </trkpt>
      <trkpt lat="43.5131080" lon="-5.5892860">
        <ele>111.6</ele>
        <time>2021-07-20T10:26:52Z</time>
      </trkpt>
      <trkpt lat="43.5131580" lon="-5.5892940">
        <ele>111.0</ele>
        <time>2021-07-20T10:26:53Z</time>
      </trkpt>
      <trkpt lat="43.5132080" lon="-5.5893010">
        <ele>110.6</ele>
        <time>2021-07-20T10:26:54Z</time>
      </trkpt>
      <trkpt lat="43.5132520" lon="-5.5893150">
        <ele>110.2</ele>
        <time>2021-07-20T10:26:55Z</time>
      </trkpt>
      <trkpt lat="43.5132860" lon="-5.5893370">
        <ele>109.8</ele>
        <time>2021-07-20T10:26:56Z</time>
      </trkpt>
      <trkpt lat="43.5133140" lon="-5.5893670">
        <ele>109.4</ele>
        <time>2021-07-20T10:26:57Z</time>
      </trkpt>
      <trkpt lat="43.5133360" lon="-5.5894020">
        <ele>108.8</ele>
        <time>2021-07-20T10:26:58Z</time>
      </trkpt>
      <trkpt lat="43.5133800" lon="-5.5895260">
        <ele>108.8</ele>
        <time>2021-07-20T10:27:01Z</time>
      </trkpt>
      <trkpt lat="43.5133660" lon="-5.5896260">
        <ele>108.4</ele>
        <time>2021-07-20T10:27:03Z</time>
      </trkpt>
      <trkpt lat="43.5133470" lon="-5.5896760">
        <ele>108.0</ele>
        <time>2021-07-20T10:27:04Z</time>
      </trkpt>
      <trkpt lat="43.5133230" lon="-5.5897330">
        <ele>107.6</ele>
        <time>2021-07-20T10:27:05Z</time>
      </trkpt>
      <trkpt lat="43.5132960" lon="-5.5898070">
        <ele>107.2</ele>
        <time>2021-07-20T10:27:06Z</time>
      </trkpt>
      <trkpt lat="43.5132620" lon="-5.5898780">
        <ele>106.8</ele>
        <time>2021-07-20T10:27:07Z</time>
      </trkpt>
      <trkpt lat="43.5132210" lon="-5.5899570">
        <ele>106.4</ele>
        <time>2021-07-20T10:27:08Z</time>
      </trkpt>
      <trkpt lat="43.5131770" lon="-5.5900270">
        <ele>105.8</ele>
        <time>2021-07-20T10:27:09Z</time>
      </trkpt>
      <trkpt lat="43.5131340" lon="-5.5900940">
        <ele>105.4</ele>
        <time>2021-07-20T10:27:10Z</time>
      </trkpt>
      <trkpt lat="43.5130860" lon="-5.5901590">
        <ele>105.0</ele>
        <time>2021-07-20T10:27:11Z</time>
      </trkpt>
      <trkpt lat="43.5130400" lon="-5.5902130">
        <ele>104.4</ele>
        <time>2021-07-20T10:27:12Z</time>
      </trkpt>
      <trkpt lat="43.5129970" lon="-5.5902730">
        <ele>104.4</ele>
        <time>2021-07-20T10:27:13Z</time>
      </trkpt>
      <trkpt lat="43.5129570" lon="-5.5903520">
        <ele>104.0</ele>
        <time>2021-07-20T10:27:14Z</time>
      </trkpt>
      <trkpt lat="43.5129190" lon="-5.5904410">
        <ele>103.6</ele>
        <time>2021-07-20T10:27:15Z</time>
      </trkpt>
      <trkpt lat="43.5128810" lon="-5.5905300">
        <ele>102.4</ele>
        <time>2021-07-20T10:27:16Z</time>
      </trkpt>
      <trkpt lat="43.5128440" lon="-5.5906210">
        <ele>101.8</ele>
        <time>2021-07-20T10:27:17Z</time>
      </trkpt>
      <trkpt lat="43.5128120" lon="-5.5907090">
        <ele>101.0</ele>
        <time>2021-07-20T10:27:18Z</time>
      </trkpt>
      <trkpt lat="43.5127850" lon="-5.5907930">
        <ele>100.2</ele>
        <time>2021-07-20T10:27:19Z</time>
      </trkpt>
      <trkpt lat="43.5127650" lon="-5.5908840">
        <ele>99.4</ele>
        <time>2021-07-20T10:27:20Z</time>
      </trkpt>
      <trkpt lat="43.5127470" lon="-5.5909700">
        <ele>98.6</ele>
        <time>2021-07-20T10:27:21Z</time>
      </trkpt>
      <trkpt lat="43.5127310" lon="-5.5910590">
        <ele>97.8</ele>
        <time>2021-07-20T10:27:22Z</time>
      </trkpt>
      <trkpt lat="43.5127170" lon="-5.5911500">
        <ele>97.0</ele>
        <time>2021-07-20T10:27:23Z</time>
      </trkpt>
      <trkpt lat="43.5127140" lon="-5.5912440">
        <ele>96.2</ele>
        <time>2021-07-20T10:27:24Z</time>
      </trkpt>
      <trkpt lat="43.5127140" lon="-5.5913320">
        <ele>95.4</ele>
        <time>2021-07-20T10:27:25Z</time>
      </trkpt>
      <trkpt lat="43.5127140" lon="-5.5914180">
        <ele>94.8</ele>
        <time>2021-07-20T10:27:26Z</time>
      </trkpt>
      <trkpt lat="43.5127100" lon="-5.5915040">
        <ele>94.2</ele>
        <time>2021-07-20T10:27:27Z</time>
      </trkpt>
      <trkpt lat="43.5127030" lon="-5.5915920">
        <ele>93.6</ele>
        <time>2021-07-20T10:27:28Z</time>
      </trkpt>
      <trkpt lat="43.5126940" lon="-5.5916860">
        <ele>93.0</ele>
        <time>2021-07-20T10:27:29Z</time>
      </trkpt>
      <trkpt lat="43.5126870" lon="-5.5917740">
        <ele>92.2</ele>
        <time>2021-07-20T10:27:30Z</time>
      </trkpt>
      <trkpt lat="43.5126700" lon="-5.5919550">
        <ele>91.8</ele>
        <time>2021-07-20T10:27:32Z</time>
      </trkpt>
      <trkpt lat="43.5126670" lon="-5.5920520">
        <ele>91.4</ele>
        <time>2021-07-20T10:27:33Z</time>
      </trkpt>
      <trkpt lat="43.5126690" lon="-5.5921470">
        <ele>91.0</ele>
        <time>2021-07-20T10:27:34Z</time>
      </trkpt>
      <trkpt lat="43.5126800" lon="-5.5922440">
        <ele>90.6</ele>
        <time>2021-07-20T10:27:35Z</time>
      </trkpt>
      <trkpt lat="43.5126940" lon="-5.5923400">
        <ele>90.0</ele>
        <time>2021-07-20T10:27:36Z</time>
      </trkpt>
      <trkpt lat="43.5127220" lon="-5.5925310">
        <ele>90.0</ele>
        <time>2021-07-20T10:27:38Z</time>
      </trkpt>
      <trkpt lat="43.5127370" lon="-5.5926420">
        <ele>89.6</ele>
        <time>2021-07-20T10:27:39Z</time>
      </trkpt>
      <trkpt lat="43.5127490" lon="-5.5927420">
        <ele>88.8</ele>
        <time>2021-07-20T10:27:40Z</time>
      </trkpt>
      <trkpt lat="43.5127630" lon="-5.5928480">
        <ele>88.4</ele>
        <time>2021-07-20T10:27:41Z</time>
      </trkpt>
      <trkpt lat="43.5127800" lon="-5.5929460">
        <ele>88.0</ele>
        <time>2021-07-20T10:27:42Z</time>
      </trkpt>
      <trkpt lat="43.5127990" lon="-5.5930420">
        <ele>87.6</ele>
        <time>2021-07-20T10:27:43Z</time>
      </trkpt>
      <trkpt lat="43.5128230" lon="-5.5931380">
        <ele>87.2</ele>
        <time>2021-07-20T10:27:44Z</time>
      </trkpt>
      <trkpt lat="43.5128500" lon="-5.5932360">
        <ele>86.6</ele>
        <time>2021-07-20T10:27:45Z</time>
      </trkpt>
      <trkpt lat="43.5128810" lon="-5.5933340">
        <ele>86.2</ele>
        <time>2021-07-20T10:27:46Z</time>
      </trkpt>
      <trkpt lat="43.5129120" lon="-5.5934350">
        <ele>85.8</ele>
        <time>2021-07-20T10:27:47Z</time>
      </trkpt>
      <trkpt lat="43.5129940" lon="-5.5937270">
        <ele>85.4</ele>
        <time>2021-07-20T10:27:50Z</time>
      </trkpt>
      <trkpt lat="43.5130170" lon="-5.5938160">
        <ele>85.0</ele>
        <time>2021-07-20T10:27:51Z</time>
      </trkpt>
      <trkpt lat="43.5130370" lon="-5.5938940">
        <ele>84.4</ele>
        <time>2021-07-20T10:27:52Z</time>
      </trkpt>
      <trkpt lat="43.5130530" lon="-5.5939700">
        <ele>84.0</ele>
        <time>2021-07-20T10:27:53Z</time>
      </trkpt>
      <trkpt lat="43.5130600" lon="-5.5940360">
        <ele>83.6</ele>
        <time>2021-07-20T10:27:54Z</time>
      </trkpt>
      <trkpt lat="43.5130730" lon="-5.5941300">
        <ele>83.6</ele>
        <time>2021-07-20T10:27:56Z</time>
      </trkpt>
      <trkpt lat="43.5130650" lon="-5.5942500">
        <ele>83.2</ele>
        <time>2021-07-20T10:27:58Z</time>
      </trkpt>
      <trkpt lat="43.5130620" lon="-5.5943180">
        <ele>82.8</ele>
        <time>2021-07-20T10:27:59Z</time>
      </trkpt>
      <trkpt lat="43.5130570" lon="-5.5943920">
        <ele>82.4</ele>
        <time>2021-07-20T10:28:00Z</time>
      </trkpt>
      <trkpt lat="43.5130510" lon="-5.5944680">
        <ele>82.0</ele>
        <time>2021-07-20T10:28:01Z</time>
      </trkpt>
      <trkpt lat="43.5130460" lon="-5.5945540">
        <ele>81.4</ele>
        <time>2021-07-20T10:28:02Z</time>
      </trkpt>
      <trkpt lat="43.5130340" lon="-5.5948200">
        <ele>80.6</ele>
        <time>2021-07-20T10:28:05Z</time>
      </trkpt>
      <trkpt lat="43.5130330" lon="-5.5949090">
        <ele>80.2</ele>
        <time>2021-07-20T10:28:06Z</time>
      </trkpt>
      <trkpt lat="43.5130360" lon="-5.5950120">
        <ele>79.8</ele>
        <time>2021-07-20T10:28:07Z</time>
      </trkpt>
      <trkpt lat="43.5130390" lon="-5.5951260">
        <ele>79.4</ele>
        <time>2021-07-20T10:28:08Z</time>
      </trkpt>
      <trkpt lat="43.5130470" lon="-5.5952470">
        <ele>79.4</ele>
        <time>2021-07-20T10:28:09Z</time>
      </trkpt>
      <trkpt lat="43.5130550" lon="-5.5953630">
        <ele>79.0</ele>
        <time>2021-07-20T10:28:10Z</time>
      </trkpt>
      <trkpt lat="43.5130690" lon="-5.5954790">
        <ele>78.4</ele>
        <time>2021-07-20T10:28:11Z</time>
      </trkpt>
      <trkpt lat="43.5130820" lon="-5.5955910">
        <ele>77.8</ele>
        <time>2021-07-20T10:28:12Z</time>
      </trkpt>
      <trkpt lat="43.5130960" lon="-5.5957040">
        <ele>77.2</ele>
        <time>2021-07-20T10:28:13Z</time>
      </trkpt>
      <trkpt lat="43.5131120" lon="-5.5958120">
        <ele>76.6</ele>
        <time>2021-07-20T10:28:14Z</time>
      </trkpt>
      <trkpt lat="43.5131300" lon="-5.5959220">
        <ele>76.0</ele>
        <time>2021-07-20T10:28:15Z</time>
      </trkpt>
      <trkpt lat="43.5131470" lon="-5.5960300">
        <ele>75.4</ele>
        <time>2021-07-20T10:28:16Z</time>
      </trkpt>
      <trkpt lat="43.5131670" lon="-5.5961410">
        <ele>74.8</ele>
        <time>2021-07-20T10:28:17Z</time>
      </trkpt>
      <trkpt lat="43.5131850" lon="-5.5962430">
        <ele>74.2</ele>
        <time>2021-07-20T10:28:18Z</time>
      </trkpt>
      <trkpt lat="43.5132050" lon="-5.5963420">
        <ele>73.8</ele>
        <time>2021-07-20T10:28:19Z</time>
      </trkpt>
      <trkpt lat="43.5132290" lon="-5.5964430">
        <ele>73.0</ele>
        <time>2021-07-20T10:28:20Z</time>
      </trkpt>
      <trkpt lat="43.5132560" lon="-5.5965460">
        <ele>72.4</ele>
        <time>2021-07-20T10:28:21Z</time>
      </trkpt>
      <trkpt lat="43.5132870" lon="-5.5966470">
        <ele>71.8</ele>
        <time>2021-07-20T10:28:22Z</time>
      </trkpt>
      <trkpt lat="43.5133220" lon="-5.5967460">
        <ele>71.0</ele>
        <time>2021-07-20T10:28:23Z</time>
      </trkpt>
      <trkpt lat="43.5133650" lon="-5.5968460">
        <ele>70.2</ele>
        <time>2021-07-20T10:28:24Z</time>
      </trkpt>
      <trkpt lat="43.5134080" lon="-5.5969360">
        <ele>69.6</ele>
        <time>2021-07-20T10:28:25Z</time>
      </trkpt>
      <trkpt lat="43.5134530" lon="-5.5970210">
        <ele>68.8</ele>
        <time>2021-07-20T10:28:26Z</time>
      </trkpt>
      <trkpt lat="43.5135000" lon="-5.5971040">
        <ele>68.2</ele>
        <time>2021-07-20T10:28:27Z</time>
      </trkpt>
      <trkpt lat="43.5135480" lon="-5.5971850">
        <ele>67.6</ele>
        <time>2021-07-20T10:28:28Z</time>
      </trkpt>
      <trkpt lat="43.5135960" lon="-5.5972670">
        <ele>67.0</ele>
        <time>2021-07-20T10:28:29Z</time>
      </trkpt>
      <trkpt lat="43.5136450" lon="-5.5973510">
        <ele>65.6</ele>
        <time>2021-07-20T10:28:30Z</time>
      </trkpt>
      <trkpt lat="43.5136910" lon="-5.5974310">
        <ele>65.0</ele>
        <time>2021-07-20T10:28:31Z</time>
      </trkpt>
      <trkpt lat="43.5137340" lon="-5.5975080">
        <ele>64.2</ele>
        <time>2021-07-20T10:28:32Z</time>
      </trkpt>
      <trkpt lat="43.5137760" lon="-5.5975830">
        <ele>63.8</ele>
        <time>2021-07-20T10:28:33Z</time>
      </trkpt>
      <trkpt lat="43.5138160" lon="-5.5976560">
        <ele>63.2</ele>
        <time>2021-07-20T10:28:34Z</time>
      </trkpt>
      <trkpt lat="43.5138520" lon="-5.5977290">
        <ele>62.6</ele>
        <time>2021-07-20T10:28:35Z</time>
      </trkpt>
      <trkpt lat="43.5138860" lon="-5.5978000">
        <ele>62.0</ele>
        <time>2021-07-20T10:28:36Z</time>
      </trkpt>
      <trkpt lat="43.5139170" lon="-5.5978690">
        <ele>61.4</ele>
        <time>2021-07-20T10:28:37Z</time>
      </trkpt>
      <trkpt lat="43.5139420" lon="-5.5979280">
        <ele>60.8</ele>
        <time>2021-07-20T10:28:38Z</time>
      </trkpt>
      <trkpt lat="43.5139660" lon="-5.5979820">
        <ele>60.0</ele>
        <time>2021-07-20T10:28:39Z</time>
      </trkpt>
      <trkpt lat="43.5139830" lon="-5.5980230">
        <ele>59.2</ele>
        <time>2021-07-20T10:28:40Z</time>
      </trkpt>
      <trkpt lat="43.5139970" lon="-5.5980510">
        <ele>58.4</ele>
        <time>2021-07-20T10:28:41Z</time>
      </trkpt>
      <trkpt lat="43.5140050" lon="-5.5980770">
        <ele>57.6</ele>
        <time>2021-07-20T10:28:42Z</time>
      </trkpt>
      <trkpt lat="43.5140150" lon="-5.5981050">
        <ele>56.8</ele>
        <time>2021-07-20T10:28:43Z</time>
      </trkpt>
      <trkpt lat="43.5140290" lon="-5.5981360">
        <ele>56.0</ele>
        <time>2021-07-20T10:28:44Z</time>
      </trkpt>
      <trkpt lat="43.5140480" lon="-5.5981740">
        <ele>55.2</ele>
        <time>2021-07-20T10:28:45Z</time>
      </trkpt>
      <trkpt lat="43.5140690" lon="-5.5982220">
        <ele>54.4</ele>
        <time>2021-07-20T10:28:46Z</time>
      </trkpt>
      <trkpt lat="43.5141160" lon="-5.5983440">
        <ele>54.4</ele>
        <time>2021-07-20T10:28:48Z</time>
      </trkpt>
      <trkpt lat="43.5142590" lon="-5.5987300">
        <ele>53.8</ele>
        <time>2021-07-20T10:28:54Z</time>
      </trkpt>
      <trkpt lat="43.5142910" lon="-5.5987760">
        <ele>52.8</ele>
        <time>2021-07-20T10:28:55Z</time>
      </trkpt>
      <trkpt lat="43.5143310" lon="-5.5988080">
        <ele>52.2</ele>
        <time>2021-07-20T10:28:56Z</time>
      </trkpt>
      <trkpt lat="43.5143750" lon="-5.5988270">
        <ele>51.8</ele>
        <time>2021-07-20T10:28:57Z</time>
      </trkpt>
      <trkpt lat="43.5144210" lon="-5.5988360">
        <ele>51.8</ele>
        <time>2021-07-20T10:28:58Z</time>
      </trkpt>
      <trkpt lat="43.5145650" lon="-5.5988170">
        <ele>51.8</ele>
        <time>2021-07-20T10:29:01Z</time>
      </trkpt>
      <trkpt lat="43.5147160" lon="-5.5988140">
        <ele>51.8</ele>
        <time>2021-07-20T10:29:04Z</time>
      </trkpt>
      <trkpt lat="43.5148160" lon="-5.5988230">
        <ele>51.8</ele>
        <time>2021-07-20T10:29:06Z</time>
      </trkpt>
      <trkpt lat="43.5148640" lon="-5.5988250">
        <ele>51.8</ele>
        <time>2021-07-20T10:29:07Z</time>
      </trkpt>
      <trkpt lat="43.5149610" lon="-5.5988300">
        <ele>51.8</ele>
        <time>2021-07-20T10:29:09Z</time>
      </trkpt>
      <trkpt lat="43.5150510" lon="-5.5988380">
        <ele>51.8</ele>
        <time>2021-07-20T10:29:11Z</time>
      </trkpt>
      <trkpt lat="43.5151420" lon="-5.5988370">
        <ele>51.8</ele>
        <time>2021-07-20T10:29:13Z</time>
      </trkpt>
      <trkpt lat="43.5151830" lon="-5.5988340">
        <ele>51.8</ele>
        <time>2021-07-20T10:29:14Z</time>
      </trkpt>
      <trkpt lat="43.5154250" lon="-5.5988260">
        <ele>51.8</ele>
        <time>2021-07-20T10:29:20Z</time>
      </trkpt>
      <trkpt lat="43.5154620" lon="-5.5988270">
        <ele>51.8</ele>
        <time>2021-07-20T10:29:21Z</time>
      </trkpt>
      <trkpt lat="43.5156540" lon="-5.5988090">
        <ele>51.8</ele>
        <time>2021-07-20T10:29:27Z</time>
      </trkpt>
      <trkpt lat="43.5158350" lon="-5.5988010">
        <ele>51.8</ele>
        <time>2021-07-20T10:29:33Z</time>
      </trkpt>
      <trkpt lat="43.5160290" lon="-5.5987950">
        <ele>51.8</ele>
        <time>2021-07-20T10:29:39Z</time>
      </trkpt>
      <trkpt lat="43.5162560" lon="-5.5987810">
        <ele>51.8</ele>
        <time>2021-07-20T10:29:44Z</time>
      </trkpt>
      <trkpt lat="43.5166070" lon="-5.5987060">
        <ele>51.8</ele>
        <time>2021-07-20T10:29:50Z</time>
      </trkpt>
      <trkpt lat="43.5167700" lon="-5.5986180">
        <ele>51.8</ele>
        <time>2021-07-20T10:29:53Z</time>
      </trkpt>
      <trkpt lat="43.5168530" lon="-5.5985190">
        <ele>51.8</ele>
        <time>2021-07-20T10:29:55Z</time>
      </trkpt>
      <trkpt lat="43.5169160" lon="-5.5984170">
        <ele>51.8</ele>
        <time>2021-07-20T10:29:57Z</time>
      </trkpt>
      <trkpt lat="43.5169810" lon="-5.5983400">
        <ele>51.8</ele>
        <time>2021-07-20T10:29:59Z</time>
      </trkpt>
      <trkpt lat="43.5171270" lon="-5.5982950">
        <ele>51.8</ele>
        <time>2021-07-20T10:30:03Z</time>
      </trkpt>
      <trkpt lat="43.5171600" lon="-5.5982980">
        <ele>51.8</ele>
        <time>2021-07-20T10:30:04Z</time>
      </trkpt>
      <trkpt lat="43.5173360" lon="-5.5983510">
        <ele>51.8</ele>
        <time>2021-07-20T10:30:09Z</time>
      </trkpt>
      <trkpt lat="43.5173760" lon="-5.5983710">
        <ele>51.8</ele>
        <time>2021-07-20T10:30:10Z</time>
      </trkpt>
      <trkpt lat="43.5175920" lon="-5.5984320">
        <ele>51.8</ele>
        <time>2021-07-20T10:30:15Z</time>
      </trkpt>
      <trkpt lat="43.5176820" lon="-5.5984330">
        <ele>51.8</ele>
        <time>2021-07-20T10:30:17Z</time>
      </trkpt>
      <trkpt lat="43.5177940" lon="-5.5983960">
        <ele>51.8</ele>
        <time>2021-07-20T10:30:20Z</time>
      </trkpt>
      <trkpt lat="43.5178690" lon="-5.5982870">
        <ele>51.8</ele>
        <time>2021-07-20T10:30:24Z</time>
      </trkpt>
      <trkpt lat="43.5178950" lon="-5.5982440">
        <ele>51.8</ele>
        <time>2021-07-20T10:30:26Z</time>
      </trkpt>
      <trkpt lat="43.5179420" lon="-5.5981810">
        <ele>51.8</ele>
        <time>2021-07-20T10:30:29Z</time>
      </trkpt>
      <trkpt lat="43.5179620" lon="-5.5981610">
        <ele>51.8</ele>
        <time>2021-07-20T10:30:30Z</time>
      </trkpt>
      <trkpt lat="43.5180220" lon="-5.5981140">
        <ele>51.8</ele>
        <time>2021-07-20T10:30:33Z</time>
      </trkpt>
      <trkpt lat="43.5180870" lon="-5.5980490">
        <ele>51.8</ele>
        <time>2021-07-20T10:30:36Z</time>
      </trkpt>
      <trkpt lat="43.5181100" lon="-5.5980290">
        <ele>51.8</ele>
        <time>2021-07-20T10:30:37Z</time>
      </trkpt>
      <trkpt lat="43.5181310" lon="-5.5980090">
        <ele>52.2</ele>
        <time>2021-07-20T10:30:38Z</time>
      </trkpt>
      <trkpt lat="43.5181530" lon="-5.5979870">
        <ele>52.6</ele>
        <time>2021-07-20T10:30:39Z</time>
      </trkpt>
      <trkpt lat="43.5181730" lon="-5.5979670">
        <ele>53.0</ele>
        <time>2021-07-20T10:30:40Z</time>
      </trkpt>
      <trkpt lat="43.5181910" lon="-5.5979490">
        <ele>53.4</ele>
        <time>2021-07-20T10:30:41Z</time>
      </trkpt>
      <trkpt lat="43.5182110" lon="-5.5979360">
        <ele>53.8</ele>
        <time>2021-07-20T10:30:42Z</time>
      </trkpt>
      <trkpt lat="43.5182690" lon="-5.5978990">
        <ele>53.8</ele>
        <time>2021-07-20T10:30:45Z</time>
      </trkpt>
      <trkpt lat="43.5183380" lon="-5.5978460">
        <ele>53.8</ele>
        <time>2021-07-20T10:30:48Z</time>
      </trkpt>
      <trkpt lat="43.5183600" lon="-5.5978320">
        <ele>54.2</ele>
        <time>2021-07-20T10:30:49Z</time>
      </trkpt>
      <trkpt lat="43.5183840" lon="-5.5978150">
        <ele>54.6</ele>
        <time>2021-07-20T10:30:50Z</time>
      </trkpt>
      <trkpt lat="43.5184120" lon="-5.5977980">
        <ele>55.2</ele>
        <time>2021-07-20T10:30:51Z</time>
      </trkpt>
      <trkpt lat="43.5184350" lon="-5.5977830">
        <ele>55.6</ele>
        <time>2021-07-20T10:30:52Z</time>
      </trkpt>
      <trkpt lat="43.5184580" lon="-5.5977700">
        <ele>56.0</ele>
        <time>2021-07-20T10:30:53Z</time>
      </trkpt>
      <trkpt lat="43.5185460" lon="-5.5977280">
        <ele>56.0</ele>
        <time>2021-07-20T10:30:57Z</time>
      </trkpt>
      <trkpt lat="43.5185890" lon="-5.5977170">
        <ele>56.4</ele>
        <time>2021-07-20T10:30:59Z</time>
      </trkpt>
      <trkpt lat="43.5186110" lon="-5.5977140">
        <ele>56.8</ele>
        <time>2021-07-20T10:31:00Z</time>
      </trkpt>
      <trkpt lat="43.5186320" lon="-5.5977110">
        <ele>57.2</ele>
        <time>2021-07-20T10:31:01Z</time>
      </trkpt>
      <trkpt lat="43.5186540" lon="-5.5977070">
        <ele>57.6</ele>
        <time>2021-07-20T10:31:02Z</time>
      </trkpt>
      <trkpt lat="43.5186760" lon="-5.5977020">
        <ele>58.0</ele>
        <time>2021-07-20T10:31:03Z</time>
      </trkpt>
      <trkpt lat="43.5187250" lon="-5.5976870">
        <ele>58.0</ele>
        <time>2021-07-20T10:31:05Z</time>
      </trkpt>
      <trkpt lat="43.5188810" lon="-5.5977040">
        <ele>58.0</ele>
        <time>2021-07-20T10:31:11Z</time>
      </trkpt>
      <trkpt lat="43.5190020" lon="-5.5977420">
        <ele>58.0</ele>
        <time>2021-07-20T10:31:16Z</time>
      </trkpt>
      <trkpt lat="43.5190300" lon="-5.5977400">
        <ele>58.0</ele>
        <time>2021-07-20T10:31:17Z</time>
      </trkpt>
      <trkpt lat="43.5191730" lon="-5.5976850">
        <ele>58.0</ele>
        <time>2021-07-20T10:31:21Z</time>
      </trkpt>
      <trkpt lat="43.5192070" lon="-5.5976710">
        <ele>58.0</ele>
        <time>2021-07-20T10:31:22Z</time>
      </trkpt>
      <trkpt lat="43.5193140" lon="-5.5976260">
        <ele>58.0</ele>
        <time>2021-07-20T10:31:25Z</time>
      </trkpt>
      <trkpt lat="43.5193910" lon="-5.5975970">
        <ele>58.0</ele>
        <time>2021-07-20T10:31:27Z</time>
      </trkpt>
      <trkpt lat="43.5194330" lon="-5.5975890">
        <ele>57.6</ele>
        <time>2021-07-20T10:31:28Z</time>
      </trkpt>
      <trkpt lat="43.5194750" lon="-5.5975800">
        <ele>57.0</ele>
        <time>2021-07-20T10:31:29Z</time>
      </trkpt>
      <trkpt lat="43.5195110" lon="-5.5975650">
        <ele>56.6</ele>
        <time>2021-07-20T10:31:30Z</time>
      </trkpt>
      <trkpt lat="43.5195430" lon="-5.5975480">
        <ele>56.2</ele>
        <time>2021-07-20T10:31:31Z</time>
      </trkpt>
      <trkpt lat="43.5195700" lon="-5.5975320">
        <ele>55.6</ele>
        <time>2021-07-20T10:31:32Z</time>
      </trkpt>
      <trkpt lat="43.5196380" lon="-5.5974850">
        <ele>55.6</ele>
        <time>2021-07-20T10:31:35Z</time>
      </trkpt>
      <trkpt lat="43.5196610" lon="-5.5974690">
        <ele>55.2</ele>
        <time>2021-07-20T10:31:36Z</time>
      </trkpt>
      <trkpt lat="43.5196820" lon="-5.5974620">
        <ele>54.8</ele>
        <time>2021-07-20T10:31:37Z</time>
      </trkpt>
      <trkpt lat="43.5197020" lon="-5.5974460">
        <ele>54.4</ele>
        <time>2021-07-20T10:31:38Z</time>
      </trkpt>
      <trkpt lat="43.5197210" lon="-5.5974250">
        <ele>54.0</ele>
        <time>2021-07-20T10:31:39Z</time>
      </trkpt>
      <trkpt lat="43.5197430" lon="-5.5974030">
        <ele>53.6</ele>
        <time>2021-07-20T10:31:40Z</time>
      </trkpt>
      <trkpt lat="43.5198760" lon="-5.5973140">
        <ele>53.6</ele>
        <time>2021-07-20T10:31:45Z</time>
      </trkpt>
      <trkpt lat="43.5199230" lon="-5.5972890">
        <ele>53.6</ele>
        <time>2021-07-20T10:31:47Z</time>
      </trkpt>
      <trkpt lat="43.5199920" lon="-5.5972420">
        <ele>53.6</ele>
        <time>2021-07-20T10:31:50Z</time>
      </trkpt>
      <trkpt lat="43.5200460" lon="-5.5972320">
        <ele>53.6</ele>
        <time>2021-07-20T10:31:52Z</time>
      </trkpt>
      <trkpt lat="43.5201100" lon="-5.5972420">
        <ele>53.6</ele>
        <time>2021-07-20T10:31:54Z</time>
      </trkpt>
      <trkpt lat="43.5202250" lon="-5.5972780">
        <ele>53.6</ele>
        <time>2021-07-20T10:31:57Z</time>
      </trkpt>
      <trkpt lat="43.5205300" lon="-5.5973810">
        <ele>53.6</ele>
        <time>2021-07-20T10:32:03Z</time>
      </trkpt>
      <trkpt lat="43.5206380" lon="-5.5973820">
        <ele>53.6</ele>
        <time>2021-07-20T10:32:05Z</time>
      </trkpt>
      <trkpt lat="43.5206940" lon="-5.5973710">
        <ele>53.2</ele>
        <time>2021-07-20T10:32:06Z</time>
      </trkpt>
      <trkpt lat="43.5207510" lon="-5.5973590">
        <ele>52.8</ele>
        <time>2021-07-20T10:32:07Z</time>
      </trkpt>
      <trkpt lat="43.5208040" lon="-5.5973530">
        <ele>52.4</ele>
        <time>2021-07-20T10:32:08Z</time>
      </trkpt>
      <trkpt lat="43.5208600" lon="-5.5973450">
        <ele>52.0</ele>
        <time>2021-07-20T10:32:09Z</time>
      </trkpt>
      <trkpt lat="43.5209160" lon="-5.5973460">
        <ele>51.6</ele>
        <time>2021-07-20T10:32:10Z</time>
      </trkpt>
      <trkpt lat="43.5209670" lon="-5.5973520">
        <ele>51.0</ele>
        <time>2021-07-20T10:32:11Z</time>
      </trkpt>
      <trkpt lat="43.5210130" lon="-5.5973730">
        <ele>49.6</ele>
        <time>2021-07-20T10:32:12Z</time>
      </trkpt>
      <trkpt lat="43.5210570" lon="-5.5974100">
        <ele>49.0</ele>
        <time>2021-07-20T10:32:13Z</time>
      </trkpt>
      <trkpt lat="43.5210960" lon="-5.5974650">
        <ele>48.2</ele>
        <time>2021-07-20T10:32:14Z</time>
      </trkpt>
      <trkpt lat="43.5211290" lon="-5.5975380">
        <ele>47.4</ele>
        <time>2021-07-20T10:32:15Z</time>
      </trkpt>
      <trkpt lat="43.5211550" lon="-5.5976150">
        <ele>46.8</ele>
        <time>2021-07-20T10:32:16Z</time>
      </trkpt>
      <trkpt lat="43.5211710" lon="-5.5977050">
        <ele>46.2</ele>
        <time>2021-07-20T10:32:17Z</time>
      </trkpt>
      <trkpt lat="43.5211880" lon="-5.5978030">
        <ele>45.6</ele>
        <time>2021-07-20T10:32:18Z</time>
      </trkpt>
      <trkpt lat="43.5212100" lon="-5.5978950">
        <ele>45.2</ele>
        <time>2021-07-20T10:32:19Z</time>
      </trkpt>
      <trkpt lat="43.5212340" lon="-5.5979830">
        <ele>44.6</ele>
        <time>2021-07-20T10:32:20Z</time>
      </trkpt>
      <trkpt lat="43.5213260" lon="-5.5982290">
        <ele>44.6</ele>
        <time>2021-07-20T10:32:23Z</time>
      </trkpt>
      <trkpt lat="43.5214190" lon="-5.5983440">
        <ele>44.6</ele>
        <time>2021-07-20T10:32:25Z</time>
      </trkpt>
      <trkpt lat="43.5215720" lon="-5.5984500">
        <ele>44.6</ele>
        <time>2021-07-20T10:32:28Z</time>
      </trkpt>
      <trkpt lat="43.5216160" lon="-5.5984780">
        <ele>44.6</ele>
        <time>2021-07-20T10:32:29Z</time>
      </trkpt>
      <trkpt lat="43.5217330" lon="-5.5985750">
        <ele>44.6</ele>
        <time>2021-07-20T10:32:32Z</time>
      </trkpt>
      <trkpt lat="43.5218090" lon="-5.5986460">
        <ele>44.6</ele>
        <time>2021-07-20T10:32:34Z</time>
      </trkpt>
      <trkpt lat="43.5218440" lon="-5.5986780">
        <ele>44.6</ele>
        <time>2021-07-20T10:32:35Z</time>
      </trkpt>
      <trkpt lat="43.5218770" lon="-5.5987100">
        <ele>44.6</ele>
        <time>2021-07-20T10:32:36Z</time>
      </trkpt>
      <trkpt lat="43.5219110" lon="-5.5987390">
        <ele>44.6</ele>
        <time>2021-07-20T10:32:37Z</time>
      </trkpt>
      <trkpt lat="43.5219470" lon="-5.5987610">
        <ele>44.6</ele>
        <time>2021-07-20T10:32:38Z</time>
      </trkpt>
      <trkpt lat="43.5220160" lon="-5.5988030">
        <ele>44.6</ele>
        <time>2021-07-20T10:32:41Z</time>
      </trkpt>
      <trkpt lat="43.5220840" lon="-5.5988480">
        <ele>44.6</ele>
        <time>2021-07-20T10:32:43Z</time>
      </trkpt>
      <trkpt lat="43.5221450" lon="-5.5989030">
        <ele>44.6</ele>
        <time>2021-07-20T10:32:45Z</time>
      </trkpt>
      <trkpt lat="43.5222330" lon="-5.5989910">
        <ele>44.6</ele>
        <time>2021-07-20T10:32:48Z</time>
      </trkpt>
      <trkpt lat="43.5222620" lon="-5.5990210">
        <ele>44.6</ele>
        <time>2021-07-20T10:32:49Z</time>
      </trkpt>
      <trkpt lat="43.5223490" lon="-5.5991060">
        <ele>44.6</ele>
        <time>2021-07-20T10:32:52Z</time>
      </trkpt>
      <trkpt lat="43.5225020" lon="-5.5992480">
        <ele>44.6</ele>
        <time>2021-07-20T10:32:57Z</time>
      </trkpt>
      <trkpt lat="43.5226670" lon="-5.5993870">
        <ele>44.6</ele>
        <time>2021-07-20T10:33:02Z</time>
      </trkpt>
      <trkpt lat="43.5227290" lon="-5.5994260">
        <ele>44.6</ele>
        <time>2021-07-20T10:33:05Z</time>
      </trkpt>
      <trkpt lat="43.5227380" lon="-5.5994310">
        <ele>44.6</ele>
        <time>2021-07-20T10:33:07Z</time>
      </trkpt>
      <trkpt lat="43.5227420" lon="-5.5994540">
        <ele>44.6</ele>
        <time>2021-07-20T10:33:29Z</time>
      </trkpt>
      <trkpt lat="43.5227460" lon="-5.5994740">
        <ele>44.6</ele>
        <time>2021-07-20T10:33:30Z</time>
      </trkpt>
      <trkpt lat="43.5227400" lon="-5.5995340">
        <ele>44.6</ele>
        <time>2021-07-20T10:33:34Z</time>
      </trkpt>
      <trkpt lat="43.5227470" lon="-5.5995650">
        <ele>44.6</ele>
        <time>2021-07-20T10:33:57Z</time>
      </trkpt>
      <trkpt lat="43.5227550" lon="-5.5995930">
        <ele>44.6</ele>
        <time>2021-07-20T10:33:58Z</time>
      </trkpt>
      <trkpt lat="43.5227620" lon="-5.5996240">
        <ele>44.6</ele>
        <time>2021-07-20T10:33:59Z</time>
      </trkpt>
      <trkpt lat="43.5227750" lon="-5.5997130">
        <ele>44.6</ele>
        <time>2021-07-20T10:34:01Z</time>
      </trkpt>
      <trkpt lat="43.5227970" lon="-5.5998320">
        <ele>44.6</ele>
        <time>2021-07-20T10:34:03Z</time>
      </trkpt>
      <trkpt lat="43.5228570" lon="-5.6000890">
        <ele>44.6</ele>
        <time>2021-07-20T10:34:07Z</time>
      </trkpt>
      <trkpt lat="43.5228940" lon="-5.6002180">
        <ele>44.6</ele>
        <time>2021-07-20T10:34:09Z</time>
      </trkpt>
      <trkpt lat="43.5229160" lon="-5.6002810">
        <ele>44.6</ele>
        <time>2021-07-20T10:34:10Z</time>
      </trkpt>
      <trkpt lat="43.5229640" lon="-5.6004060">
        <ele>44.6</ele>
        <time>2021-07-20T10:34:12Z</time>
      </trkpt>
      <trkpt lat="43.5230170" lon="-5.6005150">
        <ele>44.2</ele>
        <time>2021-07-20T10:34:14Z</time>
      </trkpt>
      <trkpt lat="43.5230420" lon="-5.6005690">
        <ele>43.8</ele>
        <time>2021-07-20T10:34:15Z</time>
      </trkpt>
      <trkpt lat="43.5230690" lon="-5.6006200">
        <ele>42.8</ele>
        <time>2021-07-20T10:34:16Z</time>
      </trkpt>
      <trkpt lat="43.5230950" lon="-5.6006710">
        <ele>42.4</ele>
        <time>2021-07-20T10:34:17Z</time>
      </trkpt>
      <trkpt lat="43.5231990" lon="-5.6008670">
        <ele>42.4</ele>
        <time>2021-07-20T10:34:21Z</time>
      </trkpt>
      <trkpt lat="43.5232470" lon="-5.6009630">
        <ele>42.4</ele>
        <time>2021-07-20T10:34:23Z</time>
      </trkpt>
      <trkpt lat="43.5232960" lon="-5.6010580">
        <ele>42.4</ele>
        <time>2021-07-20T10:34:25Z</time>
      </trkpt>
      <trkpt lat="43.5233790" lon="-5.6011900">
        <ele>42.4</ele>
        <time>2021-07-20T10:34:28Z</time>
      </trkpt>
      <trkpt lat="43.5234910" lon="-5.6013240">
        <ele>42.4</ele>
        <time>2021-07-20T10:34:32Z</time>
      </trkpt>
      <trkpt lat="43.5235630" lon="-5.6015140">
        <ele>42.4</ele>
        <time>2021-07-20T10:34:37Z</time>
      </trkpt>
      <trkpt lat="43.5235400" lon="-5.6016710">
        <ele>42.4</ele>
        <time>2021-07-20T10:34:40Z</time>
      </trkpt>
      <trkpt lat="43.5235280" lon="-5.6017310">
        <ele>42.4</ele>
        <time>2021-07-20T10:34:41Z</time>
      </trkpt>
      <trkpt lat="43.5235060" lon="-5.6018380">
        <ele>42.4</ele>
        <time>2021-07-20T10:34:43Z</time>
      </trkpt>
      <trkpt lat="43.5234720" lon="-5.6019380">
        <ele>42.4</ele>
        <time>2021-07-20T10:34:45Z</time>
      </trkpt>
      <trkpt lat="43.5234220" lon="-5.6020870">
        <ele>42.4</ele>
        <time>2021-07-20T10:34:48Z</time>
      </trkpt>
      <trkpt lat="43.5233690" lon="-5.6022910">
        <ele>42.4</ele>
        <time>2021-07-20T10:34:52Z</time>
      </trkpt>
      <trkpt lat="43.5233270" lon="-5.6025090">
        <ele>42.4</ele>
        <time>2021-07-20T10:34:56Z</time>
      </trkpt>
      <trkpt lat="43.5232780" lon="-5.6027920">
        <ele>42.4</ele>
        <time>2021-07-20T10:35:02Z</time>
      </trkpt>
      <trkpt lat="43.5232750" lon="-5.6029750">
        <ele>42.4</ele>
        <time>2021-07-20T10:35:05Z</time>
      </trkpt>
      <trkpt lat="43.5233040" lon="-5.6030710">
        <ele>42.4</ele>
        <time>2021-07-20T10:35:07Z</time>
      </trkpt>
      <trkpt lat="43.5234510" lon="-5.6032230">
        <ele>42.4</ele>
        <time>2021-07-20T10:35:11Z</time>
      </trkpt>
      <trkpt lat="43.5234920" lon="-5.6032480">
        <ele>42.4</ele>
        <time>2021-07-20T10:35:12Z</time>
      </trkpt>
      <trkpt lat="43.5236790" lon="-5.6033350">
        <ele>42.4</ele>
        <time>2021-07-20T10:35:17Z</time>
      </trkpt>
      <trkpt lat="43.5238700" lon="-5.6033200">
        <ele>42.4</ele>
        <time>2021-07-20T10:35:22Z</time>
      </trkpt>
      <trkpt lat="43.5239560" lon="-5.6032750">
        <ele>42.4</ele>
        <time>2021-07-20T10:35:24Z</time>
      </trkpt>
      <trkpt lat="43.5239940" lon="-5.6032420">
        <ele>42.4</ele>
        <time>2021-07-20T10:35:25Z</time>
      </trkpt>
      <trkpt lat="43.5240730" lon="-5.6031830">
        <ele>42.4</ele>
        <time>2021-07-20T10:35:27Z</time>
      </trkpt>
      <trkpt lat="43.5241100" lon="-5.6031520">
        <ele>42.4</ele>
        <time>2021-07-20T10:35:28Z</time>
      </trkpt>
      <trkpt lat="43.5243030" lon="-5.6029800">
        <ele>42.4</ele>
        <time>2021-07-20T10:35:33Z</time>
      </trkpt>
      <trkpt lat="43.5243430" lon="-5.6029430">
        <ele>42.4</ele>
        <time>2021-07-20T10:35:34Z</time>
      </trkpt>
      <trkpt lat="43.5244310" lon="-5.6028790">
        <ele>42.4</ele>
        <time>2021-07-20T10:35:36Z</time>
      </trkpt>
      <trkpt lat="43.5246080" lon="-5.6027740">
        <ele>42.4</ele>
        <time>2021-07-20T10:35:40Z</time>
      </trkpt>
      <trkpt lat="43.5247720" lon="-5.6026390">
        <ele>42.4</ele>
        <time>2021-07-20T10:35:44Z</time>
      </trkpt>
      <trkpt lat="43.5248860" lon="-5.6025390">
        <ele>42.4</ele>
        <time>2021-07-20T10:35:47Z</time>
      </trkpt>
      <trkpt lat="43.5250380" lon="-5.6024200">
        <ele>42.8</ele>
        <time>2021-07-20T10:35:51Z</time>
      </trkpt>
      <trkpt lat="43.5250730" lon="-5.6023920">
        <ele>43.2</ele>
        <time>2021-07-20T10:35:52Z</time>
      </trkpt>
      <trkpt lat="43.5251090" lon="-5.6023670">
        <ele>43.6</ele>
        <time>2021-07-20T10:35:53Z</time>
      </trkpt>
      <trkpt lat="43.5251450" lon="-5.6023460">
        <ele>44.2</ele>
        <time>2021-07-20T10:35:54Z</time>
      </trkpt>
      <trkpt lat="43.5251860" lon="-5.6023260">
        <ele>44.6</ele>
        <time>2021-07-20T10:35:55Z</time>
      </trkpt>
      <trkpt lat="43.5252660" lon="-5.6022980">
        <ele>44.6</ele>
        <time>2021-07-20T10:35:57Z</time>
      </trkpt>
      <trkpt lat="43.5253810" lon="-5.6022700">
        <ele>44.6</ele>
        <time>2021-07-20T10:36:00Z</time>
      </trkpt>
      <trkpt lat="43.5255370" lon="-5.6022170">
        <ele>45.0</ele>
        <time>2021-07-20T10:36:04Z</time>
      </trkpt>
      <trkpt lat="43.5255770" lon="-5.6022040">
        <ele>45.4</ele>
        <time>2021-07-20T10:36:05Z</time>
      </trkpt>
      <trkpt lat="43.5256180" lon="-5.6021920">
        <ele>45.8</ele>
        <time>2021-07-20T10:36:06Z</time>
      </trkpt>
      <trkpt lat="43.5256580" lon="-5.6021820">
        <ele>46.2</ele>
        <time>2021-07-20T10:36:07Z</time>
      </trkpt>
      <trkpt lat="43.5256990" lon="-5.6021690">
        <ele>46.8</ele>
        <time>2021-07-20T10:36:08Z</time>
      </trkpt>
      <trkpt lat="43.5257380" lon="-5.6021470">
        <ele>46.8</ele>
        <time>2021-07-20T10:36:09Z</time>
      </trkpt>
      <trkpt lat="43.5258790" lon="-5.6020580">
        <ele>46.8</ele>
        <time>2021-07-20T10:36:13Z</time>
      </trkpt>
      <trkpt lat="43.5261390" lon="-5.6019120">
        <ele>46.8</ele>
        <time>2021-07-20T10:36:21Z</time>
      </trkpt>
      <trkpt lat="43.5262280" lon="-5.6019970">
        <ele>46.8</ele>
        <time>2021-07-20T10:36:24Z</time>
      </trkpt>
      <trkpt lat="43.5263600" lon="-5.6022890">
        <ele>46.8</ele>
        <time>2021-07-20T10:36:30Z</time>
      </trkpt>
      <trkpt lat="43.5263700" lon="-5.6023520">
        <ele>46.8</ele>
        <time>2021-07-20T10:36:31Z</time>
      </trkpt>
      <trkpt lat="43.5264080" lon="-5.6027440">
        <ele>46.8</ele>
        <time>2021-07-20T10:36:37Z</time>
      </trkpt>
      <trkpt lat="43.5264330" lon="-5.6029540">
        <ele>46.8</ele>
        <time>2021-07-20T10:36:40Z</time>
      </trkpt>
      <trkpt lat="43.5264470" lon="-5.6030240">
        <ele>46.8</ele>
        <time>2021-07-20T10:36:41Z</time>
      </trkpt>
      <trkpt lat="43.5264620" lon="-5.6030870">
        <ele>46.8</ele>
        <time>2021-07-20T10:36:42Z</time>
      </trkpt>
      <trkpt lat="43.5264950" lon="-5.6032070">
        <ele>46.8</ele>
        <time>2021-07-20T10:36:44Z</time>
      </trkpt>
      <trkpt lat="43.5265370" lon="-5.6033150">
        <ele>46.8</ele>
        <time>2021-07-20T10:36:46Z</time>
      </trkpt>
      <trkpt lat="43.5265850" lon="-5.6034210">
        <ele>46.8</ele>
        <time>2021-07-20T10:36:48Z</time>
      </trkpt>
      <trkpt lat="43.5266100" lon="-5.6034740">
        <ele>46.8</ele>
        <time>2021-07-20T10:36:49Z</time>
      </trkpt>
      <trkpt lat="43.5266360" lon="-5.6035280">
        <ele>46.8</ele>
        <time>2021-07-20T10:36:50Z</time>
      </trkpt>
      <trkpt lat="43.5267400" lon="-5.6037230">
        <ele>46.8</ele>
        <time>2021-07-20T10:36:54Z</time>
      </trkpt>
      <trkpt lat="43.5268440" lon="-5.6039000">
        <ele>46.8</ele>
        <time>2021-07-20T10:36:58Z</time>
      </trkpt>
      <trkpt lat="43.5270420" lon="-5.6043200">
        <ele>46.8</ele>
        <time>2021-07-20T10:37:06Z</time>
      </trkpt>
      <trkpt lat="43.5271510" lon="-5.6046650">
        <ele>46.8</ele>
        <time>2021-07-20T10:37:12Z</time>
      </trkpt>
      <trkpt lat="43.5271870" lon="-5.6047850">
        <ele>46.8</ele>
        <time>2021-07-20T10:37:14Z</time>
      </trkpt>
      <trkpt lat="43.5272040" lon="-5.6049230">
        <ele>46.8</ele>
        <time>2021-07-20T10:37:16Z</time>
      </trkpt>
      <trkpt lat="43.5272060" lon="-5.6049970">
        <ele>46.2</ele>
        <time>2021-07-20T10:37:17Z</time>
      </trkpt>
      <trkpt lat="43.5272030" lon="-5.6050650">
        <ele>45.8</ele>
        <time>2021-07-20T10:37:18Z</time>
      </trkpt>
      <trkpt lat="43.5272010" lon="-5.6051170">
        <ele>45.2</ele>
        <time>2021-07-20T10:37:19Z</time>
      </trkpt>
      <trkpt lat="43.5271990" lon="-5.6051610">
        <ele>44.8</ele>
        <time>2021-07-20T10:37:20Z</time>
      </trkpt>
      <trkpt lat="43.5272010" lon="-5.6051980">
        <ele>44.2</ele>
        <time>2021-07-20T10:37:21Z</time>
      </trkpt>
      <trkpt lat="43.5272040" lon="-5.6052290">
        <ele>43.8</ele>
        <time>2021-07-20T10:37:22Z</time>
      </trkpt>
      <trkpt lat="43.5272070" lon="-5.6052540">
        <ele>43.2</ele>
        <time>2021-07-20T10:37:23Z</time>
      </trkpt>
      <trkpt lat="43.5272090" lon="-5.6052870">
        <ele>42.6</ele>
        <time>2021-07-20T10:37:24Z</time>
      </trkpt>
      <trkpt lat="43.5272040" lon="-5.6053300">
        <ele>42.2</ele>
        <time>2021-07-20T10:37:25Z</time>
      </trkpt>
      <trkpt lat="43.5271940" lon="-5.6053780">
        <ele>42.2</ele>
        <time>2021-07-20T10:37:26Z</time>
      </trkpt>
      <trkpt lat="43.5271350" lon="-5.6056170">
        <ele>42.2</ele>
        <time>2021-07-20T10:37:30Z</time>
      </trkpt>
      <trkpt lat="43.5271260" lon="-5.6056960">
        <ele>42.2</ele>
        <time>2021-07-20T10:37:31Z</time>
      </trkpt>
      <trkpt lat="43.5271120" lon="-5.6058800">
        <ele>41.8</ele>
        <time>2021-07-20T10:37:33Z</time>
      </trkpt>
      <trkpt lat="43.5271090" lon="-5.6059800">
        <ele>41.0</ele>
        <time>2021-07-20T10:37:34Z</time>
      </trkpt>
      <trkpt lat="43.5271110" lon="-5.6060700">
        <ele>40.4</ele>
        <time>2021-07-20T10:37:35Z</time>
      </trkpt>
      <trkpt lat="43.5271120" lon="-5.6061450">
        <ele>39.8</ele>
        <time>2021-07-20T10:37:36Z</time>
      </trkpt>
      <trkpt lat="43.5271120" lon="-5.6062230">
        <ele>39.2</ele>
        <time>2021-07-20T10:37:37Z</time>
      </trkpt>
      <trkpt lat="43.5271160" lon="-5.6063100">
        <ele>38.4</ele>
        <time>2021-07-20T10:37:38Z</time>
      </trkpt>
      <trkpt lat="43.5271350" lon="-5.6064010">
        <ele>37.8</ele>
        <time>2021-07-20T10:37:39Z</time>
      </trkpt>
      <trkpt lat="43.5271590" lon="-5.6064860">
        <ele>37.0</ele>
        <time>2021-07-20T10:37:40Z</time>
      </trkpt>
      <trkpt lat="43.5271830" lon="-5.6065730">
        <ele>36.4</ele>
        <time>2021-07-20T10:37:41Z</time>
      </trkpt>
      <trkpt lat="43.5272090" lon="-5.6066660">
        <ele>35.6</ele>
        <time>2021-07-20T10:37:42Z</time>
      </trkpt>
      <trkpt lat="43.5272720" lon="-5.6069290">
        <ele>35.6</ele>
        <time>2021-07-20T10:37:45Z</time>
      </trkpt>
      <trkpt lat="43.5273300" lon="-5.6070930">
        <ele>35.6</ele>
        <time>2021-07-20T10:37:47Z</time>
      </trkpt>
      <trkpt lat="43.5273670" lon="-5.6071710">
        <ele>35.2</ele>
        <time>2021-07-20T10:37:48Z</time>
      </trkpt>
      <trkpt lat="43.5274060" lon="-5.6072490">
        <ele>34.8</ele>
        <time>2021-07-20T10:37:49Z</time>
      </trkpt>
      <trkpt lat="43.5274440" lon="-5.6073220">
        <ele>34.2</ele>
        <time>2021-07-20T10:37:50Z</time>
      </trkpt>
      <trkpt lat="43.5274830" lon="-5.6073920">
        <ele>33.8</ele>
        <time>2021-07-20T10:37:51Z</time>
      </trkpt>
      <trkpt lat="43.5275200" lon="-5.6074630">
        <ele>33.4</ele>
        <time>2021-07-20T10:37:52Z</time>
      </trkpt>
      <trkpt lat="43.5277520" lon="-5.6078670">
        <ele>32.8</ele>
        <time>2021-07-20T10:37:58Z</time>
      </trkpt>
      <trkpt lat="43.5277890" lon="-5.6079310">
        <ele>32.0</ele>
        <time>2021-07-20T10:37:59Z</time>
      </trkpt>
      <trkpt lat="43.5278260" lon="-5.6079960">
        <ele>31.6</ele>
        <time>2021-07-20T10:38:00Z</time>
      </trkpt>
      <trkpt lat="43.5278600" lon="-5.6080630">
        <ele>31.2</ele>
        <time>2021-07-20T10:38:01Z</time>
      </trkpt>
      <trkpt lat="43.5280070" lon="-5.6083700">
        <ele>31.2</ele>
        <time>2021-07-20T10:38:06Z</time>
      </trkpt>
      <trkpt lat="43.5280750" lon="-5.6084900">
        <ele>30.8</ele>
        <time>2021-07-20T10:38:10Z</time>
      </trkpt>
      <trkpt lat="43.5280870" lon="-5.6085090">
        <ele>30.4</ele>
        <time>2021-07-20T10:38:11Z</time>
      </trkpt>
      <trkpt lat="43.5280930" lon="-5.6085150">
        <ele>30.0</ele>
        <time>2021-07-20T10:38:12Z</time>
      </trkpt>
      <trkpt lat="43.5280930" lon="-5.6085160">
        <ele>29.4</ele>
        <time>2021-07-20T10:38:13Z</time>
      </trkpt>
      <trkpt lat="43.5281130" lon="-5.6085410">
        <ele>29.0</ele>
        <time>2021-07-20T10:38:21Z</time>
      </trkpt>
      <trkpt lat="43.5281470" lon="-5.6085660">
        <ele>29.0</ele>
        <time>2021-07-20T10:38:23Z</time>
      </trkpt>
      <trkpt lat="43.5282270" lon="-5.6086170">
        <ele>29.0</ele>
        <time>2021-07-20T10:38:26Z</time>
      </trkpt>
      <trkpt lat="43.5283080" lon="-5.6086770">
        <ele>29.0</ele>
        <time>2021-07-20T10:38:29Z</time>
      </trkpt>
      <trkpt lat="43.5284600" lon="-5.6088320">
        <ele>29.0</ele>
        <time>2021-07-20T10:38:35Z</time>
      </trkpt>
      <trkpt lat="43.5285500" lon="-5.6090390">
        <ele>29.0</ele>
        <time>2021-07-20T10:38:40Z</time>
      </trkpt>
      <trkpt lat="43.5285620" lon="-5.6090920">
        <ele>29.0</ele>
        <time>2021-07-20T10:38:41Z</time>
      </trkpt>
      <trkpt lat="43.5286050" lon="-5.6093580">
        <ele>29.0</ele>
        <time>2021-07-20T10:38:47Z</time>
      </trkpt>
      <trkpt lat="43.5286090" lon="-5.6093800">
        <ele>28.2</ele>
        <time>2021-07-20T10:38:48Z</time>
      </trkpt>
      <trkpt lat="43.5286160" lon="-5.6094040">
        <ele>27.8</ele>
        <time>2021-07-20T10:38:49Z</time>
      </trkpt>
      <trkpt lat="43.5286220" lon="-5.6094200">
        <ele>27.2</ele>
        <time>2021-07-20T10:38:50Z</time>
      </trkpt>
      <trkpt lat="43.5286230" lon="-5.6094200">
        <ele>26.8</ele>
        <time>2021-07-20T10:38:51Z</time>
      </trkpt>
      <trkpt lat="43.5286370" lon="-5.6094800">
        <ele>26.8</ele>
        <time>2021-07-20T10:39:22Z</time>
      </trkpt>
      <trkpt lat="43.5286860" lon="-5.6095990">
        <ele>26.8</ele>
        <time>2021-07-20T10:39:25Z</time>
      </trkpt>
      <trkpt lat="43.5287280" lon="-5.6097020">
        <ele>26.8</ele>
        <time>2021-07-20T10:39:27Z</time>
      </trkpt>
      <trkpt lat="43.5289010" lon="-5.6101230">
        <ele>26.8</ele>
        <time>2021-07-20T10:39:34Z</time>
      </trkpt>
      <trkpt lat="43.5289840" lon="-5.6103300">
        <ele>26.8</ele>
        <time>2021-07-20T10:39:37Z</time>
      </trkpt>
      <trkpt lat="43.5290460" lon="-5.6105480">
        <ele>26.4</ele>
        <time>2021-07-20T10:39:40Z</time>
      </trkpt>
      <trkpt lat="43.5290600" lon="-5.6106150">
        <ele>26.0</ele>
        <time>2021-07-20T10:39:41Z</time>
      </trkpt>
      <trkpt lat="43.5290740" lon="-5.6106800">
        <ele>25.6</ele>
        <time>2021-07-20T10:39:42Z</time>
      </trkpt>
      <trkpt lat="43.5290860" lon="-5.6107490">
        <ele>25.2</ele>
        <time>2021-07-20T10:39:43Z</time>
      </trkpt>
      <trkpt lat="43.5290980" lon="-5.6108170">
        <ele>24.8</ele>
        <time>2021-07-20T10:39:44Z</time>
      </trkpt>
      <trkpt lat="43.5291120" lon="-5.6108820">
        <ele>24.2</ele>
        <time>2021-07-20T10:39:45Z</time>
      </trkpt>
      <trkpt lat="43.5291270" lon="-5.6109490">
        <ele>23.8</ele>
        <time>2021-07-20T10:39:46Z</time>
      </trkpt>
      <trkpt lat="43.5291390" lon="-5.6110170">
        <ele>23.2</ele>
        <time>2021-07-20T10:39:47Z</time>
      </trkpt>
      <trkpt lat="43.5291530" lon="-5.6110840">
        <ele>22.8</ele>
        <time>2021-07-20T10:39:48Z</time>
      </trkpt>
      <trkpt lat="43.5292290" lon="-5.6115540">
        <ele>22.8</ele>
        <time>2021-07-20T10:39:55Z</time>
      </trkpt>
      <trkpt lat="43.5292440" lon="-5.6116800">
        <ele>22.2</ele>
        <time>2021-07-20T10:39:57Z</time>
      </trkpt>
      <trkpt lat="43.5292480" lon="-5.6117430">
        <ele>21.8</ele>
        <time>2021-07-20T10:39:58Z</time>
      </trkpt>
      <trkpt lat="43.5292480" lon="-5.6118060">
        <ele>21.4</ele>
        <time>2021-07-20T10:39:59Z</time>
      </trkpt>
      <trkpt lat="43.5292480" lon="-5.6118660">
        <ele>21.0</ele>
        <time>2021-07-20T10:40:00Z</time>
      </trkpt>
      <trkpt lat="43.5292440" lon="-5.6119250">
        <ele>20.6</ele>
        <time>2021-07-20T10:40:01Z</time>
      </trkpt>
      <trkpt lat="43.5292390" lon="-5.6119820">
        <ele>20.6</ele>
        <time>2021-07-20T10:40:02Z</time>
      </trkpt>
      <trkpt lat="43.5291970" lon="-5.6122870">
        <ele>20.6</ele>
        <time>2021-07-20T10:40:08Z</time>
      </trkpt>
      <trkpt lat="43.5291760" lon="-5.6123900">
        <ele>20.6</ele>
        <time>2021-07-20T10:40:11Z</time>
      </trkpt>
      <trkpt lat="43.5291450" lon="-5.6124720">
        <ele>20.0</ele>
        <time>2021-07-20T10:40:13Z</time>
      </trkpt>
      <trkpt lat="43.5291130" lon="-5.6124980">
        <ele>19.6</ele>
        <time>2021-07-20T10:40:14Z</time>
      </trkpt>
      <trkpt lat="43.5290790" lon="-5.6125060">
        <ele>19.2</ele>
        <time>2021-07-20T10:40:15Z</time>
      </trkpt>
      <trkpt lat="43.5290470" lon="-5.6125220">
        <ele>18.8</ele>
        <time>2021-07-20T10:40:16Z</time>
      </trkpt>
      <trkpt lat="43.5290190" lon="-5.6125480">
        <ele>18.4</ele>
        <time>2021-07-20T10:40:17Z</time>
      </trkpt>
      <trkpt lat="43.5289950" lon="-5.6125830">
        <ele>18.4</ele>
        <time>2021-07-20T10:40:18Z</time>
      </trkpt>
      <trkpt lat="43.5289590" lon="-5.6126720">
        <ele>18.4</ele>
        <time>2021-07-20T10:40:20Z</time>
      </trkpt>
      <trkpt lat="43.5289400" lon="-5.6127200">
        <ele>18.4</ele>
        <time>2021-07-20T10:40:21Z</time>
      </trkpt>
      <trkpt lat="43.5288960" lon="-5.6128720">
        <ele>18.4</ele>
        <time>2021-07-20T10:40:24Z</time>
      </trkpt>
      <trkpt lat="43.5288680" lon="-5.6129830">
        <ele>18.4</ele>
        <time>2021-07-20T10:40:26Z</time>
      </trkpt>
      <trkpt lat="43.5288490" lon="-5.6130410">
        <ele>18.4</ele>
        <time>2021-07-20T10:40:27Z</time>
      </trkpt>
      <trkpt lat="43.5288110" lon="-5.6131560">
        <ele>18.4</ele>
        <time>2021-07-20T10:40:29Z</time>
      </trkpt>
      <trkpt lat="43.5287980" lon="-5.6132130">
        <ele>18.4</ele>
        <time>2021-07-20T10:40:30Z</time>
      </trkpt>
      <trkpt lat="43.5287490" lon="-5.6134550">
        <ele>18.4</ele>
        <time>2021-07-20T10:40:34Z</time>
      </trkpt>
      <trkpt lat="43.5287150" lon="-5.6137710">
        <ele>18.4</ele>
        <time>2021-07-20T10:40:40Z</time>
      </trkpt>
      <trkpt lat="43.5287190" lon="-5.6139500">
        <ele>18.4</ele>
        <time>2021-07-20T10:40:44Z</time>
      </trkpt>
      <trkpt lat="43.5287190" lon="-5.6140020">
        <ele>18.4</ele>
        <time>2021-07-20T10:40:45Z</time>
      </trkpt>
      <trkpt lat="43.5287110" lon="-5.6141760">
        <ele>18.4</ele>
        <time>2021-07-20T10:40:48Z</time>
      </trkpt>
      <trkpt lat="43.5287220" lon="-5.6143750">
        <ele>18.4</ele>
        <time>2021-07-20T10:40:51Z</time>
      </trkpt>
      <trkpt lat="43.5287430" lon="-5.6145910">
        <ele>18.4</ele>
        <time>2021-07-20T10:40:54Z</time>
      </trkpt>
      <trkpt lat="43.5287810" lon="-5.6148750">
        <ele>18.4</ele>
        <time>2021-07-20T10:40:58Z</time>
      </trkpt>
      <trkpt lat="43.5288280" lon="-5.6153730">
        <ele>18.4</ele>
        <time>2021-07-20T10:41:06Z</time>
      </trkpt>
      <trkpt lat="43.5288840" lon="-5.6157170">
        <ele>18.4</ele>
        <time>2021-07-20T10:41:12Z</time>
      </trkpt>
      <trkpt lat="43.5289130" lon="-5.6157610">
        <ele>18.4</ele>
        <time>2021-07-20T10:41:13Z</time>
      </trkpt>
      <trkpt lat="43.5290360" lon="-5.6158330">
        <ele>18.4</ele>
        <time>2021-07-20T10:41:16Z</time>
      </trkpt>
      <trkpt lat="43.5291090" lon="-5.6159000">
        <ele>18.4</ele>
        <time>2021-07-20T10:41:18Z</time>
      </trkpt>
      <trkpt lat="43.5292000" lon="-5.6160440">
        <ele>18.4</ele>
        <time>2021-07-20T10:41:21Z</time>
      </trkpt>
      <trkpt lat="43.5293450" lon="-5.6163240">
        <ele>18.4</ele>
        <time>2021-07-20T10:41:27Z</time>
      </trkpt>
      <trkpt lat="43.5295490" lon="-5.6166160">
        <ele>18.4</ele>
        <time>2021-07-20T10:41:34Z</time>
      </trkpt>
      <trkpt lat="43.5296480" lon="-5.6167400">
        <ele>18.4</ele>
        <time>2021-07-20T10:41:37Z</time>
      </trkpt>
      <trkpt lat="43.5296820" lon="-5.6167880">
        <ele>18.4</ele>
        <time>2021-07-20T10:41:38Z</time>
      </trkpt>
      <trkpt lat="43.5297500" lon="-5.6168660">
        <ele>18.0</ele>
        <time>2021-07-20T10:41:40Z</time>
      </trkpt>
      <trkpt lat="43.5297870" lon="-5.6169060">
        <ele>17.4</ele>
        <time>2021-07-20T10:41:41Z</time>
      </trkpt>
      <trkpt lat="43.5298250" lon="-5.6169470">
        <ele>17.0</ele>
        <time>2021-07-20T10:41:42Z</time>
      </trkpt>
      <trkpt lat="43.5298600" lon="-5.6169900">
        <ele>16.4</ele>
        <time>2021-07-20T10:41:43Z</time>
      </trkpt>
      <trkpt lat="43.5299000" lon="-5.6170410">
        <ele>16.0</ele>
        <time>2021-07-20T10:41:44Z</time>
      </trkpt>
      <trkpt lat="43.5299360" lon="-5.6170990">
        <ele>15.6</ele>
        <time>2021-07-20T10:41:45Z</time>
      </trkpt>
      <trkpt lat="43.5299670" lon="-5.6171640">
        <ele>15.2</ele>
        <time>2021-07-20T10:41:46Z</time>
      </trkpt>
      <trkpt lat="43.5300000" lon="-5.6172370">
        <ele>14.8</ele>
        <time>2021-07-20T10:41:47Z</time>
      </trkpt>
      <trkpt lat="43.5300330" lon="-5.6173080">
        <ele>14.4</ele>
        <time>2021-07-20T10:41:48Z</time>
      </trkpt>
      <trkpt lat="43.5300660" lon="-5.6173790">
        <ele>13.8</ele>
        <time>2021-07-20T10:41:49Z</time>
      </trkpt>
      <trkpt lat="43.5301300" lon="-5.6175040">
        <ele>13.8</ele>
        <time>2021-07-20T10:41:51Z</time>
      </trkpt>
      <trkpt lat="43.5301760" lon="-5.6175610">
        <ele>13.8</ele>
        <time>2021-07-20T10:41:52Z</time>
      </trkpt>
      <trkpt lat="43.5302290" lon="-5.6176030">
        <ele>13.8</ele>
        <time>2021-07-20T10:41:53Z</time>
      </trkpt>
      <trkpt lat="43.5303460" lon="-5.6176510">
        <ele>13.8</ele>
        <time>2021-07-20T10:41:55Z</time>
      </trkpt>
      <trkpt lat="43.5304060" lon="-5.6176620">
        <ele>13.4</ele>
        <time>2021-07-20T10:41:56Z</time>
      </trkpt>
      <trkpt lat="43.5304650" lon="-5.6176700">
        <ele>13.0</ele>
        <time>2021-07-20T10:41:57Z</time>
      </trkpt>
      <trkpt lat="43.5305240" lon="-5.6176770">
        <ele>12.6</ele>
        <time>2021-07-20T10:41:58Z</time>
      </trkpt>
      <trkpt lat="43.5305790" lon="-5.6176960">
        <ele>12.2</ele>
        <time>2021-07-20T10:41:59Z</time>
      </trkpt>
      <trkpt lat="43.5306330" lon="-5.6177190">
        <ele>11.8</ele>
        <time>2021-07-20T10:42:00Z</time>
      </trkpt>
      <trkpt lat="43.5308420" lon="-5.6178600">
        <ele>11.8</ele>
        <time>2021-07-20T10:42:05Z</time>
      </trkpt>
      <trkpt lat="43.5309250" lon="-5.6179280">
        <ele>11.8</ele>
        <time>2021-07-20T10:42:07Z</time>
      </trkpt>
      <trkpt lat="43.5309660" lon="-5.6179630">
        <ele>11.8</ele>
        <time>2021-07-20T10:42:08Z</time>
      </trkpt>
      <trkpt lat="43.5310440" lon="-5.6180390">
        <ele>11.8</ele>
        <time>2021-07-20T10:42:10Z</time>
      </trkpt>
      <trkpt lat="43.5311240" lon="-5.6181030">
        <ele>11.8</ele>
        <time>2021-07-20T10:42:12Z</time>
      </trkpt>
      <trkpt lat="43.5311620" lon="-5.6181380">
        <ele>11.8</ele>
        <time>2021-07-20T10:42:13Z</time>
      </trkpt>
      <trkpt lat="43.5312390" lon="-5.6182050">
        <ele>11.8</ele>
        <time>2021-07-20T10:42:15Z</time>
      </trkpt>
      <trkpt lat="43.5313900" lon="-5.6183340">
        <ele>11.8</ele>
        <time>2021-07-20T10:42:19Z</time>
      </trkpt>
      <trkpt lat="43.5314770" lon="-5.6183750">
        <ele>11.8</ele>
        <time>2021-07-20T10:42:21Z</time>
      </trkpt>
      <trkpt lat="43.5316750" lon="-5.6184570">
        <ele>11.8</ele>
        <time>2021-07-20T10:42:26Z</time>
      </trkpt>
      <trkpt lat="43.5317500" lon="-5.6184580">
        <ele>11.8</ele>
        <time>2021-07-20T10:42:28Z</time>
      </trkpt>
      <trkpt lat="43.5319700" lon="-5.6185310">
        <ele>11.8</ele>
        <time>2021-07-20T10:42:34Z</time>
      </trkpt>
      <trkpt lat="43.5322470" lon="-5.6186530">
        <ele>11.8</ele>
        <time>2021-07-20T10:42:41Z</time>
      </trkpt>
      <trkpt lat="43.5323820" lon="-5.6187340">
        <ele>11.8</ele>
        <time>2021-07-20T10:42:44Z</time>
      </trkpt>
      <trkpt lat="43.5324490" lon="-5.6187860">
        <ele>11.8</ele>
        <time>2021-07-20T10:42:46Z</time>
      </trkpt>
      <trkpt lat="43.5324720" lon="-5.6188130">
        <ele>11.8</ele>
        <time>2021-07-20T10:42:47Z</time>
      </trkpt>
      <trkpt lat="43.5325210" lon="-5.6188900">
        <ele>11.8</ele>
        <time>2021-07-20T10:42:49Z</time>
      </trkpt>
      <trkpt lat="43.5325940" lon="-5.6190250">
        <ele>11.8</ele>
        <time>2021-07-20T10:42:52Z</time>
      </trkpt>
      <trkpt lat="43.5327120" lon="-5.6192660">
        <ele>11.8</ele>
        <time>2021-07-20T10:42:58Z</time>
      </trkpt>
      <trkpt lat="43.5327230" lon="-5.6193010">
        <ele>11.8</ele>
        <time>2021-07-20T10:42:59Z</time>
      </trkpt>
      <trkpt lat="43.5327670" lon="-5.6194080">
        <ele>11.8</ele>
        <time>2021-07-20T10:43:03Z</time>
      </trkpt>
      <trkpt lat="43.5327760" lon="-5.6195530">
        <ele>11.8</ele>
        <time>2021-07-20T10:43:06Z</time>
      </trkpt>
      <trkpt lat="43.5327710" lon="-5.6196020">
        <ele>11.8</ele>
        <time>2021-07-20T10:43:07Z</time>
      </trkpt>
      <trkpt lat="43.5327670" lon="-5.6197000">
        <ele>11.8</ele>
        <time>2021-07-20T10:43:09Z</time>
      </trkpt>
      <trkpt lat="43.5327590" lon="-5.6197990">
        <ele>11.8</ele>
        <time>2021-07-20T10:43:11Z</time>
      </trkpt>
      <trkpt lat="43.5327910" lon="-5.6199520">
        <ele>11.8</ele>
        <time>2021-07-20T10:43:14Z</time>
      </trkpt>
      <trkpt lat="43.5328620" lon="-5.6201770">
        <ele>11.8</ele>
        <time>2021-07-20T10:43:18Z</time>
      </trkpt>
      <trkpt lat="43.5329310" lon="-5.6203460">
        <ele>11.8</ele>
        <time>2021-07-20T10:43:21Z</time>
      </trkpt>
      <trkpt lat="43.5330440" lon="-5.6206180">
        <ele>11.8</ele>
        <time>2021-07-20T10:43:26Z</time>
      </trkpt>
      <trkpt lat="43.5331040" lon="-5.6207660">
        <ele>11.8</ele>
        <time>2021-07-20T10:43:29Z</time>
      </trkpt>
      <trkpt lat="43.5332380" lon="-5.6208900">
        <ele>11.8</ele>
        <time>2021-07-20T10:43:34Z</time>
      </trkpt>
      <trkpt lat="43.5332770" lon="-5.6208860">
        <ele>11.4</ele>
        <time>2021-07-20T10:43:35Z</time>
      </trkpt>
      <trkpt lat="43.5333200" lon="-5.6208830">
        <ele>11.0</ele>
        <time>2021-07-20T10:43:36Z</time>
      </trkpt>
      <trkpt lat="43.5333610" lon="-5.6208750">
        <ele>10.6</ele>
        <time>2021-07-20T10:43:37Z</time>
      </trkpt>
      <trkpt lat="43.5334070" lon="-5.6208700">
        <ele>10.2</ele>
        <time>2021-07-20T10:43:38Z</time>
      </trkpt>
      <trkpt lat="43.5334470" lon="-5.6208670">
        <ele>9.8</ele>
        <time>2021-07-20T10:43:39Z</time>
      </trkpt>
      <trkpt lat="43.5336090" lon="-5.6208470">
        <ele>9.8</ele>
        <time>2021-07-20T10:43:43Z</time>
      </trkpt>
      <trkpt lat="43.5336470" lon="-5.6208370">
        <ele>9.8</ele>
        <time>2021-07-20T10:43:44Z</time>
      </trkpt>
      <trkpt lat="43.5336780" lon="-5.6208280">
        <ele>9.8</ele>
        <time>2021-07-20T10:43:45Z</time>
      </trkpt>
      <trkpt lat="43.5337060" lon="-5.6208300">
        <ele>9.8</ele>
        <time>2021-07-20T10:43:46Z</time>
      </trkpt>
      <trkpt lat="43.5337270" lon="-5.6208260">
        <ele>9.8</ele>
        <time>2021-07-20T10:43:47Z</time>
      </trkpt>
      <trkpt lat="43.5337430" lon="-5.6208180">
        <ele>9.8</ele>
        <time>2021-07-20T10:43:48Z</time>
      </trkpt>
      <trkpt lat="43.5337660" lon="-5.6208090">
        <ele>10.2</ele>
        <time>2021-07-20T10:43:49Z</time>
      </trkpt>
      <trkpt lat="43.5337900" lon="-5.6208010">
        <ele>10.6</ele>
        <time>2021-07-20T10:43:50Z</time>
      </trkpt>
      <trkpt lat="43.5338130" lon="-5.6207910">
        <ele>11.0</ele>
        <time>2021-07-20T10:43:51Z</time>
      </trkpt>
      <trkpt lat="43.5338380" lon="-5.6207820">
        <ele>11.4</ele>
        <time>2021-07-20T10:43:52Z</time>
      </trkpt>
      <trkpt lat="43.5338660" lon="-5.6207660">
        <ele>11.8</ele>
        <time>2021-07-20T10:43:53Z</time>
      </trkpt>
      <trkpt lat="43.5339190" lon="-5.6206870">
        <ele>11.8</ele>
        <time>2021-07-20T10:43:56Z</time>
      </trkpt>
      <trkpt lat="43.5339830" lon="-5.6206410">
        <ele>11.8</ele>
        <time>2021-07-20T10:43:59Z</time>
      </trkpt>
      <trkpt lat="43.5340290" lon="-5.6206130">
        <ele>11.8</ele>
        <time>2021-07-20T10:44:01Z</time>
      </trkpt>
      <trkpt lat="43.5340530" lon="-5.6206090">
        <ele>11.8</ele>
        <time>2021-07-20T10:44:02Z</time>
      </trkpt>
      <trkpt lat="43.5341070" lon="-5.6206140">
        <ele>11.8</ele>
        <time>2021-07-20T10:44:04Z</time>
      </trkpt>
      <trkpt lat="43.5341320" lon="-5.6206170">
        <ele>11.8</ele>
        <time>2021-07-20T10:44:05Z</time>
      </trkpt>
      <trkpt lat="43.5342080" lon="-5.6206710">
        <ele>11.8</ele>
        <time>2021-07-20T10:44:09Z</time>
      </trkpt>
      <trkpt lat="43.5342370" lon="-5.6206950">
        <ele>11.8</ele>
        <time>2021-07-20T10:44:11Z</time>
      </trkpt>
      <trkpt lat="43.5342770" lon="-5.6207260">
        <ele>11.8</ele>
        <time>2021-07-20T10:44:14Z</time>
      </trkpt>
      <trkpt lat="43.5342740" lon="-5.6207260">
        <ele>11.8</ele>
        <time>2021-07-20T10:44:15Z</time>
      </trkpt>
      <trkpt lat="43.5343030" lon="-5.6207510">
        <ele>11.8</ele>
        <time>2021-07-20T10:44:36Z</time>
      </trkpt>
      <trkpt lat="43.5343150" lon="-5.6207640">
        <ele>11.8</ele>
        <time>2021-07-20T10:44:37Z</time>
      </trkpt>
      <trkpt lat="43.5344390" lon="-5.6208660">
        <ele>11.8</ele>
        <time>2021-07-20T10:44:42Z</time>
      </trkpt>
      <trkpt lat="43.5345160" lon="-5.6209320">
        <ele>11.8</ele>
        <time>2021-07-20T10:44:45Z</time>
      </trkpt>
      <trkpt lat="43.5345840" lon="-5.6210040">
        <ele>11.8</ele>
        <time>2021-07-20T10:44:48Z</time>
      </trkpt>
      <trkpt lat="43.5346070" lon="-5.6210280">
        <ele>11.8</ele>
        <time>2021-07-20T10:44:49Z</time>
      </trkpt>
      <trkpt lat="43.5347170" lon="-5.6212060">
        <ele>11.8</ele>
        <time>2021-07-20T10:44:54Z</time>
      </trkpt>
      <trkpt lat="43.5347370" lon="-5.6212490">
        <ele>11.8</ele>
        <time>2021-07-20T10:44:55Z</time>
      </trkpt>
      <trkpt lat="43.5348720" lon="-5.6215150">
        <ele>11.8</ele>
        <time>2021-07-20T10:45:01Z</time>
      </trkpt>
      <trkpt lat="43.5348990" lon="-5.6215680">
        <ele>11.8</ele>
        <time>2021-07-20T10:45:02Z</time>
      </trkpt>
      <trkpt lat="43.5349740" lon="-5.6217200">
        <ele>11.8</ele>
        <time>2021-07-20T10:45:05Z</time>
      </trkpt>
      <trkpt lat="43.5351120" lon="-5.6220160">
        <ele>11.8</ele>
        <time>2021-07-20T10:45:11Z</time>
      </trkpt>
      <trkpt lat="43.5351950" lon="-5.6221950">
        <ele>11.8</ele>
        <time>2021-07-20T10:45:15Z</time>
      </trkpt>
      <trkpt lat="43.5352630" lon="-5.6223230">
        <ele>11.8</ele>
        <time>2021-07-20T10:45:18Z</time>
      </trkpt>
      <trkpt lat="43.5354360" lon="-5.6225390">
        <ele>11.8</ele>
        <time>2021-07-20T10:45:24Z</time>
      </trkpt>
      <trkpt lat="43.5356230" lon="-5.6226960">
        <ele>11.8</ele>
        <time>2021-07-20T10:45:30Z</time>
      </trkpt>
      <trkpt lat="43.5357940" lon="-5.6228220">
        <ele>11.8</ele>
        <time>2021-07-20T10:45:36Z</time>
      </trkpt>
      <trkpt lat="43.5358170" lon="-5.6228160">
        <ele>11.8</ele>
        <time>2021-07-20T10:45:39Z</time>
      </trkpt>
      <trkpt lat="43.5358880" lon="-5.6228390">
        <ele>11.8</ele>
        <time>2021-07-20T10:45:57Z</time>
      </trkpt>
      <trkpt lat="43.5359510" lon="-5.6228120">
        <ele>11.8</ele>
        <time>2021-07-20T10:46:00Z</time>
      </trkpt>
      <trkpt lat="43.5360310" lon="-5.6227410">
        <ele>11.8</ele>
        <time>2021-07-20T10:46:02Z</time>
      </trkpt>
      <trkpt lat="43.5360770" lon="-5.6227090">
        <ele>11.8</ele>
        <time>2021-07-20T10:46:03Z</time>
      </trkpt>
      <trkpt lat="43.5361630" lon="-5.6226490">
        <ele>11.8</ele>
        <time>2021-07-20T10:46:05Z</time>
      </trkpt>
      <trkpt lat="43.5362780" lon="-5.6225610">
        <ele>11.8</ele>
        <time>2021-07-20T10:46:08Z</time>
      </trkpt>
      <trkpt lat="43.5363610" lon="-5.6225120">
        <ele>11.8</ele>
        <time>2021-07-20T10:46:10Z</time>
      </trkpt>
      <trkpt lat="43.5365130" lon="-5.6223930">
        <ele>11.8</ele>
        <time>2021-07-20T10:46:15Z</time>
      </trkpt>
      <trkpt lat="43.5366900" lon="-5.6222760">
        <ele>11.8</ele>
        <time>2021-07-20T10:46:21Z</time>
      </trkpt>
      <trkpt lat="43.5368100" lon="-5.6221820">
        <ele>11.8</ele>
        <time>2021-07-20T10:46:25Z</time>
      </trkpt>
      <trkpt lat="43.5369120" lon="-5.6220920">
        <ele>11.8</ele>
        <time>2021-07-20T10:46:29Z</time>
      </trkpt>
      <trkpt lat="43.5370320" lon="-5.6220220">
        <ele>11.8</ele>
        <time>2021-07-20T10:46:34Z</time>
      </trkpt>
      <trkpt lat="43.5370810" lon="-5.6219950">
        <ele>11.8</ele>
        <time>2021-07-20T10:46:38Z</time>
      </trkpt>
      <trkpt lat="43.5371290" lon="-5.6219870">
        <ele>11.8</ele>
        <time>2021-07-20T10:46:43Z</time>
      </trkpt>
      <trkpt lat="43.5372160" lon="-5.6220010">
        <ele>12.2</ele>
        <time>2021-07-20T10:46:46Z</time>
      </trkpt>
      <trkpt lat="43.5372480" lon="-5.6220240">
        <ele>12.6</ele>
        <time>2021-07-20T10:46:47Z</time>
      </trkpt>
      <trkpt lat="43.5372780" lon="-5.6220460">
        <ele>13.0</ele>
        <time>2021-07-20T10:46:48Z</time>
      </trkpt>
      <trkpt lat="43.5373090" lon="-5.6220750">
        <ele>13.4</ele>
        <time>2021-07-20T10:46:49Z</time>
      </trkpt>
      <trkpt lat="43.5373380" lon="-5.6221170">
        <ele>13.8</ele>
        <time>2021-07-20T10:46:50Z</time>
      </trkpt>
      <trkpt lat="43.5374390" lon="-5.6222400">
        <ele>13.8</ele>
        <time>2021-07-20T10:46:53Z</time>
      </trkpt>
      <trkpt lat="43.5377300" lon="-5.6226120">
        <ele>13.8</ele>
        <time>2021-07-20T10:47:01Z</time>
      </trkpt>
      <trkpt lat="43.5377930" lon="-5.6227100">
        <ele>13.8</ele>
        <time>2021-07-20T10:47:03Z</time>
      </trkpt>
      <trkpt lat="43.5378200" lon="-5.6227740">
        <ele>13.8</ele>
        <time>2021-07-20T10:47:04Z</time>
      </trkpt>
      <trkpt lat="43.5378690" lon="-5.6229050">
        <ele>13.8</ele>
        <time>2021-07-20T10:47:06Z</time>
      </trkpt>
      <trkpt lat="43.5379770" lon="-5.6232710">
        <ele>13.8</ele>
        <time>2021-07-20T10:47:11Z</time>
      </trkpt>
      <trkpt lat="43.5380190" lon="-5.6234170">
        <ele>13.8</ele>
        <time>2021-07-20T10:47:13Z</time>
      </trkpt>
      <trkpt lat="43.5380390" lon="-5.6234890">
        <ele>13.4</ele>
        <time>2021-07-20T10:47:14Z</time>
      </trkpt>
      <trkpt lat="43.5380610" lon="-5.6235560">
        <ele>13.0</ele>
        <time>2021-07-20T10:47:15Z</time>
      </trkpt>
      <trkpt lat="43.5380830" lon="-5.6236210">
        <ele>12.6</ele>
        <time>2021-07-20T10:47:16Z</time>
      </trkpt>
      <trkpt lat="43.5381060" lon="-5.6236810">
        <ele>12.2</ele>
        <time>2021-07-20T10:47:17Z</time>
      </trkpt>
      <trkpt lat="43.5381270" lon="-5.6237380">
        <ele>11.8</ele>
        <time>2021-07-20T10:47:18Z</time>
      </trkpt>
      <trkpt lat="43.5381720" lon="-5.6238580">
        <ele>11.8</ele>
        <time>2021-07-20T10:47:20Z</time>
      </trkpt>
      <trkpt lat="43.5382190" lon="-5.6239740">
        <ele>11.8</ele>
        <time>2021-07-20T10:47:22Z</time>
      </trkpt>
      <trkpt lat="43.5382670" lon="-5.6240960">
        <ele>11.8</ele>
        <time>2021-07-20T10:47:24Z</time>
      </trkpt>
      <trkpt lat="43.5383200" lon="-5.6242130">
        <ele>11.8</ele>
        <time>2021-07-20T10:47:26Z</time>
      </trkpt>
      <trkpt lat="43.5383680" lon="-5.6243240">
        <ele>11.8</ele>
        <time>2021-07-20T10:47:28Z</time>
      </trkpt>
      <trkpt lat="43.5384220" lon="-5.6244360">
        <ele>11.8</ele>
        <time>2021-07-20T10:47:30Z</time>
      </trkpt>
      <trkpt lat="43.5385020" lon="-5.6245920">
        <ele>11.8</ele>
        <time>2021-07-20T10:47:33Z</time>
      </trkpt>
      <trkpt lat="43.5385260" lon="-5.6246430">
        <ele>11.8</ele>
        <time>2021-07-20T10:47:34Z</time>
      </trkpt>
      <trkpt lat="43.5386470" lon="-5.6248420">
        <ele>12.2</ele>
        <time>2021-07-20T10:47:38Z</time>
      </trkpt>
      <trkpt lat="43.5386760" lon="-5.6248910">
        <ele>12.6</ele>
        <time>2021-07-20T10:47:39Z</time>
      </trkpt>
      <trkpt lat="43.5387080" lon="-5.6249390">
        <ele>13.0</ele>
        <time>2021-07-20T10:47:40Z</time>
      </trkpt>
      <trkpt lat="43.5387380" lon="-5.6249850">
        <ele>13.4</ele>
        <time>2021-07-20T10:47:41Z</time>
      </trkpt>
      <trkpt lat="43.5387680" lon="-5.6250350">
        <ele>13.8</ele>
        <time>2021-07-20T10:47:42Z</time>
      </trkpt>
      <trkpt lat="43.5388280" lon="-5.6251300">
        <ele>13.8</ele>
        <time>2021-07-20T10:47:44Z</time>
      </trkpt>
      <trkpt lat="43.5388890" lon="-5.6252100">
        <ele>13.8</ele>
        <time>2021-07-20T10:47:46Z</time>
      </trkpt>
      <trkpt lat="43.5389460" lon="-5.6253090">
        <ele>13.8</ele>
        <time>2021-07-20T10:47:48Z</time>
      </trkpt>
      <trkpt lat="43.5390600" lon="-5.6254980">
        <ele>13.8</ele>
        <time>2021-07-20T10:47:52Z</time>
      </trkpt>
      <trkpt lat="43.5392380" lon="-5.6257990">
        <ele>14.2</ele>
        <time>2021-07-20T10:47:58Z</time>
      </trkpt>
      <trkpt lat="43.5392650" lon="-5.6258490">
        <ele>14.6</ele>
        <time>2021-07-20T10:47:59Z</time>
      </trkpt>
      <trkpt lat="43.5392900" lon="-5.6258970">
        <ele>15.2</ele>
        <time>2021-07-20T10:48:00Z</time>
      </trkpt>
      <trkpt lat="43.5393150" lon="-5.6259430">
        <ele>15.6</ele>
        <time>2021-07-20T10:48:01Z</time>
      </trkpt>
      <trkpt lat="43.5393430" lon="-5.6259970">
        <ele>16.0</ele>
        <time>2021-07-20T10:48:02Z</time>
      </trkpt>
      <trkpt lat="43.5393940" lon="-5.6261150">
        <ele>16.0</ele>
        <time>2021-07-20T10:48:04Z</time>
      </trkpt>
      <trkpt lat="43.5394710" lon="-5.6263280">
        <ele>16.0</ele>
        <time>2021-07-20T10:48:07Z</time>
      </trkpt>
      <trkpt lat="43.5395620" lon="-5.6265600">
        <ele>16.0</ele>
        <time>2021-07-20T10:48:10Z</time>
      </trkpt>
      <trkpt lat="43.5396310" lon="-5.6268180">
        <ele>16.0</ele>
        <time>2021-07-20T10:48:13Z</time>
      </trkpt>
      <trkpt lat="43.5397040" lon="-5.6270780">
        <ele>15.6</ele>
        <time>2021-07-20T10:48:16Z</time>
      </trkpt>
      <trkpt lat="43.5397300" lon="-5.6271690">
        <ele>15.2</ele>
        <time>2021-07-20T10:48:17Z</time>
      </trkpt>
      <trkpt lat="43.5397540" lon="-5.6272570">
        <ele>14.8</ele>
        <time>2021-07-20T10:48:18Z</time>
      </trkpt>
      <trkpt lat="43.5397790" lon="-5.6273430">
        <ele>14.2</ele>
        <time>2021-07-20T10:48:19Z</time>
      </trkpt>
      <trkpt lat="43.5398050" lon="-5.6274290">
        <ele>13.8</ele>
        <time>2021-07-20T10:48:20Z</time>
      </trkpt>
      <trkpt lat="43.5398290" lon="-5.6275160">
        <ele>13.4</ele>
        <time>2021-07-20T10:48:21Z</time>
      </trkpt>
      <trkpt lat="43.5398530" lon="-5.6276030">
        <ele>12.8</ele>
        <time>2021-07-20T10:48:22Z</time>
      </trkpt>
      <trkpt lat="43.5398760" lon="-5.6276890">
        <ele>12.4</ele>
        <time>2021-07-20T10:48:23Z</time>
      </trkpt>
      <trkpt lat="43.5398980" lon="-5.6277770">
        <ele>11.8</ele>
        <time>2021-07-20T10:48:24Z</time>
      </trkpt>
      <trkpt lat="43.5399330" lon="-5.6279430">
        <ele>11.8</ele>
        <time>2021-07-20T10:48:26Z</time>
      </trkpt>
      <trkpt lat="43.5399790" lon="-5.6281760">
        <ele>11.8</ele>
        <time>2021-07-20T10:48:29Z</time>
      </trkpt>
      <trkpt lat="43.5400100" lon="-5.6283350">
        <ele>11.8</ele>
        <time>2021-07-20T10:48:31Z</time>
      </trkpt>
      <trkpt lat="43.5400350" lon="-5.6284100">
        <ele>11.8</ele>
        <time>2021-07-20T10:48:32Z</time>
      </trkpt>
      <trkpt lat="43.5401000" lon="-5.6286530">
        <ele>11.4</ele>
        <time>2021-07-20T10:48:35Z</time>
      </trkpt>
      <trkpt lat="43.5401250" lon="-5.6287340">
        <ele>11.0</ele>
        <time>2021-07-20T10:48:36Z</time>
      </trkpt>
      <trkpt lat="43.5401530" lon="-5.6288130">
        <ele>10.4</ele>
        <time>2021-07-20T10:48:37Z</time>
      </trkpt>
      <trkpt lat="43.5401830" lon="-5.6288940">
        <ele>10.0</ele>
        <time>2021-07-20T10:48:38Z</time>
      </trkpt>
      <trkpt lat="43.5402130" lon="-5.6289710">
        <ele>9.6</ele>
        <time>2021-07-20T10:48:39Z</time>
      </trkpt>
      <trkpt lat="43.5402840" lon="-5.6291270">
        <ele>9.2</ele>
        <time>2021-07-20T10:48:41Z</time>
      </trkpt>
      <trkpt lat="43.5403230" lon="-5.6292000">
        <ele>8.8</ele>
        <time>2021-07-20T10:48:42Z</time>
      </trkpt>
      <trkpt lat="43.5403680" lon="-5.6292640">
        <ele>8.2</ele>
        <time>2021-07-20T10:48:43Z</time>
      </trkpt>
      <trkpt lat="43.5404120" lon="-5.6293350">
        <ele>7.8</ele>
        <time>2021-07-20T10:48:44Z</time>
      </trkpt>
      <trkpt lat="43.5404570" lon="-5.6294050">
        <ele>7.4</ele>
        <time>2021-07-20T10:48:45Z</time>
      </trkpt>
      <trkpt lat="43.5405020" lon="-5.6294760">
        <ele>6.8</ele>
        <time>2021-07-20T10:48:46Z</time>
      </trkpt>
      <trkpt lat="43.5405500" lon="-5.6295410">
        <ele>6.4</ele>
        <time>2021-07-20T10:48:47Z</time>
      </trkpt>
      <trkpt lat="43.5405970" lon="-5.6296120">
        <ele>5.8</ele>
        <time>2021-07-20T10:48:48Z</time>
      </trkpt>
      <trkpt lat="43.5406420" lon="-5.6296800">
        <ele>5.2</ele>
        <time>2021-07-20T10:48:49Z</time>
      </trkpt>
      <trkpt lat="43.5409350" lon="-5.6301430">
        <ele>5.2</ele>
        <time>2021-07-20T10:48:56Z</time>
      </trkpt>
      <trkpt lat="43.5411950" lon="-5.6306660">
        <ele>5.2</ele>
        <time>2021-07-20T10:49:03Z</time>
      </trkpt>
      <trkpt lat="43.5412240" lon="-5.6307480">
        <ele>5.2</ele>
        <time>2021-07-20T10:49:04Z</time>
      </trkpt>
      <trkpt lat="43.5412500" lon="-5.6308280">
        <ele>4.8</ele>
        <time>2021-07-20T10:49:05Z</time>
      </trkpt>
      <trkpt lat="43.5412770" lon="-5.6309100">
        <ele>4.4</ele>
        <time>2021-07-20T10:49:06Z</time>
      </trkpt>
      <trkpt lat="43.5413050" lon="-5.6309940">
        <ele>4.0</ele>
        <time>2021-07-20T10:49:07Z</time>
      </trkpt>
      <trkpt lat="43.5413310" lon="-5.6310770">
        <ele>3.6</ele>
        <time>2021-07-20T10:49:08Z</time>
      </trkpt>
      <trkpt lat="43.5413550" lon="-5.6311600">
        <ele>3.2</ele>
        <time>2021-07-20T10:49:09Z</time>
      </trkpt>
      <trkpt lat="43.5413850" lon="-5.6312470">
        <ele>3.2</ele>
        <time>2021-07-20T10:49:10Z</time>
      </trkpt>
      <trkpt lat="43.5414410" lon="-5.6314110">
        <ele>3.2</ele>
        <time>2021-07-20T10:49:12Z</time>
      </trkpt>
      <trkpt lat="43.5414960" lon="-5.6315830">
        <ele>3.2</ele>
        <time>2021-07-20T10:49:14Z</time>
      </trkpt>
      <trkpt lat="43.5416050" lon="-5.6319000">
        <ele>3.2</ele>
        <time>2021-07-20T10:49:18Z</time>
      </trkpt>
      <trkpt lat="43.5417060" lon="-5.6321820">
        <ele>3.2</ele>
        <time>2021-07-20T10:49:22Z</time>
      </trkpt>
      <trkpt lat="43.5417700" lon="-5.6323760">
        <ele>3.2</ele>
        <time>2021-07-20T10:49:25Z</time>
      </trkpt>
      <trkpt lat="43.5419200" lon="-5.6328230">
        <ele>3.2</ele>
        <time>2021-07-20T10:49:32Z</time>
      </trkpt>
      <trkpt lat="43.5419610" lon="-5.6329490">
        <ele>3.6</ele>
        <time>2021-07-20T10:49:34Z</time>
      </trkpt>
      <trkpt lat="43.5419790" lon="-5.6330120">
        <ele>4.0</ele>
        <time>2021-07-20T10:49:35Z</time>
      </trkpt>
      <trkpt lat="43.5419970" lon="-5.6330750">
        <ele>4.4</ele>
        <time>2021-07-20T10:49:36Z</time>
      </trkpt>
      <trkpt lat="43.5420170" lon="-5.6331330">
        <ele>4.8</ele>
        <time>2021-07-20T10:49:37Z</time>
      </trkpt>
      <trkpt lat="43.5420360" lon="-5.6331950">
        <ele>5.2</ele>
        <time>2021-07-20T10:49:38Z</time>
      </trkpt>
      <trkpt lat="43.5420730" lon="-5.6333140">
        <ele>5.2</ele>
        <time>2021-07-20T10:49:40Z</time>
      </trkpt>
      <trkpt lat="43.5420980" lon="-5.6336740">
        <ele>5.2</ele>
        <time>2021-07-20T10:49:45Z</time>
      </trkpt>
      <trkpt lat="43.5420650" lon="-5.6340680">
        <ele>5.2</ele>
        <time>2021-07-20T10:49:50Z</time>
      </trkpt>
      <trkpt lat="43.5420540" lon="-5.6342190">
        <ele>4.8</ele>
        <time>2021-07-20T10:49:52Z</time>
      </trkpt>
      <trkpt lat="43.5420470" lon="-5.6343010">
        <ele>4.0</ele>
        <time>2021-07-20T10:49:53Z</time>
      </trkpt>
      <trkpt lat="43.5420370" lon="-5.6343850">
        <ele>3.6</ele>
        <time>2021-07-20T10:49:54Z</time>
      </trkpt>
      <trkpt lat="43.5420300" lon="-5.6344720">
        <ele>3.2</ele>
        <time>2021-07-20T10:49:55Z</time>
      </trkpt>
      <trkpt lat="43.5420100" lon="-5.6347180">
        <ele>3.2</ele>
        <time>2021-07-20T10:49:58Z</time>
      </trkpt>
      <trkpt lat="43.5420000" lon="-5.6348860">
        <ele>3.2</ele>
        <time>2021-07-20T10:50:00Z</time>
      </trkpt>
      <trkpt lat="43.5419670" lon="-5.6352230">
        <ele>3.2</ele>
        <time>2021-07-20T10:50:04Z</time>
      </trkpt>
      <trkpt lat="43.5419540" lon="-5.6353920">
        <ele>2.6</ele>
        <time>2021-07-20T10:50:06Z</time>
      </trkpt>
      <trkpt lat="43.5419460" lon="-5.6354780">
        <ele>2.2</ele>
        <time>2021-07-20T10:50:07Z</time>
      </trkpt>
      <trkpt lat="43.5419360" lon="-5.6355580">
        <ele>1.8</ele>
        <time>2021-07-20T10:50:08Z</time>
      </trkpt>
      <trkpt lat="43.5419280" lon="-5.6356420">
        <ele>1.4</ele>
        <time>2021-07-20T10:50:09Z</time>
      </trkpt>
      <trkpt lat="43.5419210" lon="-5.6357310">
        <ele>1.0</ele>
        <time>2021-07-20T10:50:10Z</time>
      </trkpt>
      <trkpt lat="43.5418950" lon="-5.6360530">
        <ele>1.0</ele>
        <time>2021-07-20T10:50:14Z</time>
      </trkpt>
      <trkpt lat="43.5418740" lon="-5.6362920">
        <ele>1.0</ele>
        <time>2021-07-20T10:50:17Z</time>
      </trkpt>
      <trkpt lat="43.5418500" lon="-5.6365080">
        <ele>1.0</ele>
        <time>2021-07-20T10:50:20Z</time>
      </trkpt>
      <trkpt lat="43.5418560" lon="-5.6368930">
        <ele>1.0</ele>
        <time>2021-07-20T10:50:25Z</time>
      </trkpt>
      <trkpt lat="43.5419290" lon="-5.6374220">
        <ele>1.0</ele>
        <time>2021-07-20T10:50:32Z</time>
      </trkpt>
      <trkpt lat="43.5419550" lon="-5.6375740">
        <ele>1.0</ele>
        <time>2021-07-20T10:50:34Z</time>
      </trkpt>
      <trkpt lat="43.5419800" lon="-5.6377230">
        <ele>1.0</ele>
        <time>2021-07-20T10:50:36Z</time>
      </trkpt>
      <trkpt lat="43.5420160" lon="-5.6379430">
        <ele>1.0</ele>
        <time>2021-07-20T10:50:39Z</time>
      </trkpt>
      <trkpt lat="43.5420460" lon="-5.6381030">
        <ele>1.0</ele>
        <time>2021-07-20T10:50:41Z</time>
      </trkpt>
      <trkpt lat="43.5420830" lon="-5.6383370">
        <ele>1.0</ele>
        <time>2021-07-20T10:50:44Z</time>
      </trkpt>
      <trkpt lat="43.5421170" lon="-5.6385690">
        <ele>1.0</ele>
        <time>2021-07-20T10:50:47Z</time>
      </trkpt>
      <trkpt lat="43.5421410" lon="-5.6387190">
        <ele>1.0</ele>
        <time>2021-07-20T10:50:49Z</time>
      </trkpt>
      <trkpt lat="43.5422040" lon="-5.6391570">
        <ele>1.0</ele>
        <time>2021-07-20T10:50:55Z</time>
      </trkpt>
      <trkpt lat="43.5422160" lon="-5.6393010">
        <ele>1.0</ele>
        <time>2021-07-20T10:50:57Z</time>
      </trkpt>
      <trkpt lat="43.5422200" lon="-5.6395190">
        <ele>0.6</ele>
        <time>2021-07-20T10:51:00Z</time>
      </trkpt>
      <trkpt lat="43.5422200" lon="-5.6395910">
        <ele>0.2</ele>
        <time>2021-07-20T10:51:01Z</time>
      </trkpt>
      <trkpt lat="43.5422200" lon="-5.6396670">
        <ele>-0.2</ele>
        <time>2021-07-20T10:51:02Z</time>
      </trkpt>
      <trkpt lat="43.5422170" lon="-5.6397420">
        <ele>-0.8</ele>
        <time>2021-07-20T10:51:03Z</time>
      </trkpt>
      <trkpt lat="43.5422110" lon="-5.6398150">
        <ele>-1.2</ele>
        <time>2021-07-20T10:51:04Z</time>
      </trkpt>
      <trkpt lat="43.5422060" lon="-5.6398890">
        <ele>-1.2</ele>
        <time>2021-07-20T10:51:05Z</time>
      </trkpt>
      <trkpt lat="43.5421720" lon="-5.6402990">
        <ele>-1.2</ele>
        <time>2021-07-20T10:51:11Z</time>
      </trkpt>
      <trkpt lat="43.5421690" lon="-5.6403710">
        <ele>-1.2</ele>
        <time>2021-07-20T10:51:12Z</time>
      </trkpt>
      <trkpt lat="43.5421360" lon="-5.6407750">
        <ele>-1.2</ele>
        <time>2021-07-20T10:51:18Z</time>
      </trkpt>
      <trkpt lat="43.5421170" lon="-5.6409660">
        <ele>-1.2</ele>
        <time>2021-07-20T10:51:21Z</time>
      </trkpt>
      <trkpt lat="43.5420800" lon="-5.6412210">
        <ele>-1.2</ele>
        <time>2021-07-20T10:51:25Z</time>
      </trkpt>
      <trkpt lat="43.5419610" lon="-5.6416840">
        <ele>-1.2</ele>
        <time>2021-07-20T10:51:33Z</time>
      </trkpt>
      <trkpt lat="43.5419270" lon="-5.6418120">
        <ele>-1.2</ele>
        <time>2021-07-20T10:51:36Z</time>
      </trkpt>
      <trkpt lat="43.5419100" lon="-5.6418700">
        <ele>-1.2</ele>
        <time>2021-07-20T10:51:38Z</time>
      </trkpt>
      <trkpt lat="43.5419090" lon="-5.6418790">
        <ele>-1.2</ele>
        <time>2021-07-20T10:51:39Z</time>
      </trkpt>
      <trkpt lat="43.5419050" lon="-5.6418930">
        <ele>-1.2</ele>
        <time>2021-07-20T10:52:03Z</time>
      </trkpt>
      <trkpt lat="43.5418980" lon="-5.6419170">
        <ele>-1.2</ele>
        <time>2021-07-20T10:52:04Z</time>
      </trkpt>
      <trkpt lat="43.5418310" lon="-5.6421170">
        <ele>-1.2</ele>
        <time>2021-07-20T10:52:09Z</time>
      </trkpt>
      <trkpt lat="43.5417600" lon="-5.6424020">
        <ele>-1.2</ele>
        <time>2021-07-20T10:52:14Z</time>
      </trkpt>
      <trkpt lat="43.5417310" lon="-5.6425240">
        <ele>-1.2</ele>
        <time>2021-07-20T10:52:16Z</time>
      </trkpt>
      <trkpt lat="43.5416440" lon="-5.6428250">
        <ele>-1.2</ele>
        <time>2021-07-20T10:52:21Z</time>
      </trkpt>
      <trkpt lat="43.5415930" lon="-5.6429900">
        <ele>-1.2</ele>
        <time>2021-07-20T10:52:24Z</time>
      </trkpt>
      <trkpt lat="43.5414840" lon="-5.6433160">
        <ele>-1.2</ele>
        <time>2021-07-20T10:52:30Z</time>
      </trkpt>
      <trkpt lat="43.5414680" lon="-5.6433690">
        <ele>-1.2</ele>
        <time>2021-07-20T10:52:31Z</time>
      </trkpt>
      <trkpt lat="43.5414290" lon="-5.6435850">
        <ele>-1.2</ele>
        <time>2021-07-20T10:52:35Z</time>
      </trkpt>
      <trkpt lat="43.5414200" lon="-5.6436930">
        <ele>-1.2</ele>
        <time>2021-07-20T10:52:37Z</time>
      </trkpt>
      <trkpt lat="43.5414370" lon="-5.6440250">
        <ele>-1.2</ele>
        <time>2021-07-20T10:52:43Z</time>
      </trkpt>
      <trkpt lat="43.5414640" lon="-5.6441450">
        <ele>-1.2</ele>
        <time>2021-07-20T10:52:46Z</time>
      </trkpt>
      <trkpt lat="43.5414760" lon="-5.6442210">
        <ele>-1.2</ele>
        <time>2021-07-20T10:52:48Z</time>
      </trkpt>
      <trkpt lat="43.5414720" lon="-5.6442570">
        <ele>-1.2</ele>
        <time>2021-07-20T10:52:49Z</time>
      </trkpt>
      <trkpt lat="43.5414490" lon="-5.6443380">
        <ele>-1.2</ele>
        <time>2021-07-20T10:52:52Z</time>
      </trkpt>
      <trkpt lat="43.5413660" lon="-5.6444820">
        <ele>-1.2</ele>
        <time>2021-07-20T10:52:58Z</time>
      </trkpt>
      <trkpt lat="43.5413390" lon="-5.6445480">
        <ele>-1.2</ele>
        <time>2021-07-20T10:53:03Z</time>
      </trkpt>
      <trkpt lat="43.5413320" lon="-5.6445090">
        <ele>-1.2</ele>
        <time>2021-07-20T10:53:53Z</time>
      </trkpt>
      <trkpt lat="43.5413340" lon="-5.6444590">
        <ele>-1.2</ele>
        <time>2021-07-20T10:53:56Z</time>
      </trkpt>
      <trkpt lat="43.5413350" lon="-5.6444400">
        <ele>-1.2</ele>
        <time>2021-07-20T10:53:57Z</time>
      </trkpt>
      <trkpt lat="43.5413470" lon="-5.6443440">
        <ele>-1.2</ele>
        <time>2021-07-20T10:54:02Z</time>
      </trkpt>
      <trkpt lat="43.5413500" lon="-5.6443070">
        <ele>-1.2</ele>
        <time>2021-07-20T10:54:05Z</time>
      </trkpt>
      <trkpt lat="43.5413420" lon="-5.6443700">
        <ele>-1.2</ele>
        <time>2021-07-20T10:54:49Z</time>
      </trkpt>
      <trkpt lat="43.5413470" lon="-5.6443860">
        <ele>-1.2</ele>
        <time>2021-07-20T10:54:50Z</time>
      </trkpt>
      <trkpt lat="43.5413580" lon="-5.6444360">
        <ele>-1.2</ele>
        <time>2021-07-20T10:54:53Z</time>
      </trkpt>
      <trkpt lat="43.5413630" lon="-5.6445260">
        <ele>-1.2</ele>
        <time>2021-07-20T10:54:58Z</time>
      </trkpt>
      <trkpt lat="43.5413610" lon="-5.6445390">
        <ele>-1.2</ele>
        <time>2021-07-20T10:54:59Z</time>
      </trkpt>
      <trkpt lat="43.5413460" lon="-5.6445410">
        <ele>-1.2</ele>
        <time>2021-07-20T10:55:02Z</time>
      </trkpt>
      <trkpt lat="43.5413510" lon="-5.6445080">
        <ele>-3.2</ele>
        <time>2021-07-20T11:05:29Z</time>
      </trkpt>
      <trkpt lat="43.5413910" lon="-5.6444410">
        <ele>-3.2</ele>
        <time>2021-07-20T11:05:32Z</time>
      </trkpt>
      <trkpt lat="43.5414090" lon="-5.6443840">
        <ele>-3.2</ele>
        <time>2021-07-20T11:05:34Z</time>
      </trkpt>
      <trkpt lat="43.5414090" lon="-5.6443650">
        <ele>-3.2</ele>
        <time>2021-07-20T11:05:35Z</time>
      </trkpt>
      <trkpt lat="43.5413870" lon="-5.6442550">
        <ele>-3.2</ele>
        <time>2021-07-20T11:05:40Z</time>
      </trkpt>
      <trkpt lat="43.5413690" lon="-5.6442310">
        <ele>-3.2</ele>
        <time>2021-07-20T11:05:41Z</time>
      </trkpt>
      <trkpt lat="43.5412790" lon="-5.6441460">
        <ele>-3.2</ele>
        <time>2021-07-20T11:05:45Z</time>
      </trkpt>
      <trkpt lat="43.5412170" lon="-5.6440760">
        <ele>-3.2</ele>
        <time>2021-07-20T11:05:48Z</time>
      </trkpt>
      <trkpt lat="43.5410570" lon="-5.6439880">
        <ele>-3.2</ele>
        <time>2021-07-20T11:05:54Z</time>
      </trkpt>
      <trkpt lat="43.5409090" lon="-5.6440360">
        <ele>-3.2</ele>
        <time>2021-07-20T11:05:59Z</time>
      </trkpt>
      <trkpt lat="43.5407350" lon="-5.6441750">
        <ele>-3.2</ele>
        <time>2021-07-20T11:06:05Z</time>
      </trkpt>
      <trkpt lat="43.5404990" lon="-5.6443740">
        <ele>-3.2</ele>
        <time>2021-07-20T11:06:14Z</time>
      </trkpt>
      <trkpt lat="43.5402760" lon="-5.6445610">
        <ele>-3.2</ele>
        <time>2021-07-20T11:06:21Z</time>
      </trkpt>
      <trkpt lat="43.5401970" lon="-5.6447090">
        <ele>-3.2</ele>
        <time>2021-07-20T11:06:25Z</time>
      </trkpt>
      <trkpt lat="43.5401830" lon="-5.6447490">
        <ele>-3.2</ele>
        <time>2021-07-20T11:06:26Z</time>
      </trkpt>
      <trkpt lat="43.5401670" lon="-5.6447880">
        <ele>-3.2</ele>
        <time>2021-07-20T11:06:27Z</time>
      </trkpt>
      <trkpt lat="43.5400850" lon="-5.6450220">
        <ele>-3.2</ele>
        <time>2021-07-20T11:06:33Z</time>
      </trkpt>
      <trkpt lat="43.5400780" lon="-5.6453610">
        <ele>-3.2</ele>
        <time>2021-07-20T11:06:40Z</time>
      </trkpt>
      <trkpt lat="43.5400720" lon="-5.6456920">
        <ele>-3.2</ele>
        <time>2021-07-20T11:06:47Z</time>
      </trkpt>
      <trkpt lat="43.5400160" lon="-5.6459100">
        <ele>-2.8</ele>
        <time>2021-07-20T11:06:52Z</time>
      </trkpt>
      <trkpt lat="43.5400090" lon="-5.6459600">
        <ele>-2.4</ele>
        <time>2021-07-20T11:06:53Z</time>
      </trkpt>
      <trkpt lat="43.5400080" lon="-5.6460120">
        <ele>-2.0</ele>
        <time>2021-07-20T11:06:54Z</time>
      </trkpt>
      <trkpt lat="43.5400070" lon="-5.6460580">
        <ele>-1.6</ele>
        <time>2021-07-20T11:06:55Z</time>
      </trkpt>
      <trkpt lat="43.5400030" lon="-5.6461120">
        <ele>-1.2</ele>
        <time>2021-07-20T11:06:56Z</time>
      </trkpt>
      <trkpt lat="43.5399930" lon="-5.6462260">
        <ele>-1.2</ele>
        <time>2021-07-20T11:06:58Z</time>
      </trkpt>
      <trkpt lat="43.5399780" lon="-5.6465780">
        <ele>-1.2</ele>
        <time>2021-07-20T11:07:05Z</time>
      </trkpt>
      <trkpt lat="43.5399910" lon="-5.6467840">
        <ele>-1.6</ele>
        <time>2021-07-20T11:07:09Z</time>
      </trkpt>
      <trkpt lat="43.5399960" lon="-5.6468360">
        <ele>-2.0</ele>
        <time>2021-07-20T11:07:10Z</time>
      </trkpt>
      <trkpt lat="43.5400050" lon="-5.6468830">
        <ele>-2.4</ele>
        <time>2021-07-20T11:07:11Z</time>
      </trkpt>
      <trkpt lat="43.5400190" lon="-5.6469190">
        <ele>-3.2</ele>
        <time>2021-07-20T11:07:12Z</time>
      </trkpt>
      <trkpt lat="43.5400650" lon="-5.6469640">
        <ele>-3.2</ele>
        <time>2021-07-20T11:07:16Z</time>
      </trkpt>
      <trkpt lat="43.5400720" lon="-5.6470140">
        <ele>-3.2</ele>
        <time>2021-07-20T11:07:56Z</time>
      </trkpt>
      <trkpt lat="43.5400680" lon="-5.6470500">
        <ele>-3.2</ele>
        <time>2021-07-20T11:07:57Z</time>
      </trkpt>
      <trkpt lat="43.5400670" lon="-5.6470900">
        <ele>-3.2</ele>
        <time>2021-07-20T11:07:58Z</time>
      </trkpt>
      <trkpt lat="43.5400160" lon="-5.6472540">
        <ele>-3.2</ele>
        <time>2021-07-20T11:08:02Z</time>
      </trkpt>
      <trkpt lat="43.5400160" lon="-5.6473070">
        <ele>-3.2</ele>
        <time>2021-07-20T11:08:03Z</time>
      </trkpt>
      <trkpt lat="43.5400510" lon="-5.6475300">
        <ele>-3.2</ele>
        <time>2021-07-20T11:08:07Z</time>
      </trkpt>
      <trkpt lat="43.5401060" lon="-5.6478890">
        <ele>-3.2</ele>
        <time>2021-07-20T11:08:13Z</time>
      </trkpt>
      <trkpt lat="43.5401150" lon="-5.6479530">
        <ele>-3.2</ele>
        <time>2021-07-20T11:08:14Z</time>
      </trkpt>
      <trkpt lat="43.5401540" lon="-5.6482670">
        <ele>-3.2</ele>
        <time>2021-07-20T11:08:19Z</time>
      </trkpt>
      <trkpt lat="43.5401640" lon="-5.6484020">
        <ele>-3.2</ele>
        <time>2021-07-20T11:08:21Z</time>
      </trkpt>
      <trkpt lat="43.5401960" lon="-5.6487640">
        <ele>-2.8</ele>
        <time>2021-07-20T11:08:27Z</time>
      </trkpt>
      <trkpt lat="43.5401970" lon="-5.6488120">
        <ele>-2.4</ele>
        <time>2021-07-20T11:08:28Z</time>
      </trkpt>
      <trkpt lat="43.5402020" lon="-5.6488630">
        <ele>-2.0</ele>
        <time>2021-07-20T11:08:29Z</time>
      </trkpt>
      <trkpt lat="43.5402050" lon="-5.6489130">
        <ele>-1.4</ele>
        <time>2021-07-20T11:08:30Z</time>
      </trkpt>
      <trkpt lat="43.5402040" lon="-5.6489640">
        <ele>-1.0</ele>
        <time>2021-07-20T11:08:31Z</time>
      </trkpt>
      <trkpt lat="43.5402160" lon="-5.6491270">
        <ele>-1.0</ele>
        <time>2021-07-20T11:08:34Z</time>
      </trkpt>
      <trkpt lat="43.5402250" lon="-5.6494160">
        <ele>-1.4</ele>
        <time>2021-07-20T11:08:39Z</time>
      </trkpt>
      <trkpt lat="43.5402340" lon="-5.6494780">
        <ele>-2.0</ele>
        <time>2021-07-20T11:08:40Z</time>
      </trkpt>
      <trkpt lat="43.5402400" lon="-5.6495390">
        <ele>-2.4</ele>
        <time>2021-07-20T11:08:41Z</time>
      </trkpt>
      <trkpt lat="43.5402700" lon="-5.6496090">
        <ele>-2.8</ele>
        <time>2021-07-20T11:08:42Z</time>
      </trkpt>
      <trkpt lat="43.5402940" lon="-5.6496770">
        <ele>-3.2</ele>
        <time>2021-07-20T11:08:43Z</time>
      </trkpt>
      <trkpt lat="43.5403510" lon="-5.6500440">
        <ele>-3.2</ele>
        <time>2021-07-20T11:08:49Z</time>
      </trkpt>
      <trkpt lat="43.5403560" lon="-5.6503380">
        <ele>-3.2</ele>
        <time>2021-07-20T11:08:54Z</time>
      </trkpt>
      <trkpt lat="43.5403660" lon="-5.6504670">
        <ele>-3.2</ele>
        <time>2021-07-20T11:08:56Z</time>
      </trkpt>
      <trkpt lat="43.5403640" lon="-5.6508870">
        <ele>-3.2</ele>
        <time>2021-07-20T11:09:03Z</time>
      </trkpt>
      <trkpt lat="43.5403700" lon="-5.6510270">
        <ele>-3.2</ele>
        <time>2021-07-20T11:09:06Z</time>
      </trkpt>
      <trkpt lat="43.5403850" lon="-5.6510730">
        <ele>-3.2</ele>
        <time>2021-07-20T11:09:08Z</time>
      </trkpt>
      <trkpt lat="43.5403840" lon="-5.6510710">
        <ele>-3.2</ele>
        <time>2021-07-20T11:09:09Z</time>
      </trkpt>
      <trkpt lat="43.5403790" lon="-5.6511140">
        <ele>-3.2</ele>
        <time>2021-07-20T11:09:16Z</time>
      </trkpt>
      <trkpt lat="43.5403740" lon="-5.6511370">
        <ele>-3.2</ele>
        <time>2021-07-20T11:09:17Z</time>
      </trkpt>
      <trkpt lat="43.5403700" lon="-5.6511670">
        <ele>-3.2</ele>
        <time>2021-07-20T11:09:18Z</time>
      </trkpt>
      <trkpt lat="43.5403690" lon="-5.6513540">
        <ele>-3.2</ele>
        <time>2021-07-20T11:09:22Z</time>
      </trkpt>
      <trkpt lat="43.5403750" lon="-5.6515320">
        <ele>-3.2</ele>
        <time>2021-07-20T11:09:25Z</time>
      </trkpt>
      <trkpt lat="43.5403790" lon="-5.6516010">
        <ele>-3.2</ele>
        <time>2021-07-20T11:09:26Z</time>
      </trkpt>
      <trkpt lat="43.5404080" lon="-5.6518180">
        <ele>-3.2</ele>
        <time>2021-07-20T11:09:29Z</time>
      </trkpt>
      <trkpt lat="43.5404410" lon="-5.6520300">
        <ele>-3.2</ele>
        <time>2021-07-20T11:09:32Z</time>
      </trkpt>
      <trkpt lat="43.5404570" lon="-5.6523130">
        <ele>-3.2</ele>
        <time>2021-07-20T11:09:36Z</time>
      </trkpt>
      <trkpt lat="43.5404920" lon="-5.6526650">
        <ele>-3.2</ele>
        <time>2021-07-20T11:09:41Z</time>
      </trkpt>
      <trkpt lat="43.5405080" lon="-5.6528010">
        <ele>-3.2</ele>
        <time>2021-07-20T11:09:43Z</time>
      </trkpt>
      <trkpt lat="43.5405520" lon="-5.6533220">
        <ele>-3.2</ele>
        <time>2021-07-20T11:09:51Z</time>
      </trkpt>
      <trkpt lat="43.5405550" lon="-5.6535130">
        <ele>-3.2</ele>
        <time>2021-07-20T11:09:56Z</time>
      </trkpt>
      <trkpt lat="43.5405440" lon="-5.6535050">
        <ele>-3.2</ele>
        <time>2021-07-20T11:09:57Z</time>
      </trkpt>
      <trkpt lat="43.5405380" lon="-5.6535470">
        <ele>-3.2</ele>
        <time>2021-07-20T11:10:53Z</time>
      </trkpt>
      <trkpt lat="43.5405360" lon="-5.6535730">
        <ele>-3.2</ele>
        <time>2021-07-20T11:10:54Z</time>
      </trkpt>
      <trkpt lat="43.5405490" lon="-5.6535910">
        <ele>-3.2</ele>
        <time>2021-07-20T11:10:55Z</time>
      </trkpt>
      <trkpt lat="43.5405550" lon="-5.6536700">
        <ele>-3.2</ele>
        <time>2021-07-20T11:10:57Z</time>
      </trkpt>
      <trkpt lat="43.5405550" lon="-5.6537670">
        <ele>-3.2</ele>
        <time>2021-07-20T11:10:59Z</time>
      </trkpt>
      <trkpt lat="43.5405450" lon="-5.6538710">
        <ele>-3.2</ele>
        <time>2021-07-20T11:11:01Z</time>
      </trkpt>
      <trkpt lat="43.5405400" lon="-5.6540320">
        <ele>-3.2</ele>
        <time>2021-07-20T11:11:04Z</time>
      </trkpt>
      <trkpt lat="43.5405380" lon="-5.6540880">
        <ele>-3.2</ele>
        <time>2021-07-20T11:11:05Z</time>
      </trkpt>
      <trkpt lat="43.5405300" lon="-5.6542480">
        <ele>-3.2</ele>
        <time>2021-07-20T11:11:08Z</time>
      </trkpt>
      <trkpt lat="43.5405460" lon="-5.6543480">
        <ele>-3.2</ele>
        <time>2021-07-20T11:11:10Z</time>
      </trkpt>
      <trkpt lat="43.5405510" lon="-5.6544030">
        <ele>-3.2</ele>
        <time>2021-07-20T11:11:11Z</time>
      </trkpt>
      <trkpt lat="43.5405760" lon="-5.6545910">
        <ele>-3.2</ele>
        <time>2021-07-20T11:11:14Z</time>
      </trkpt>
      <trkpt lat="43.5406120" lon="-5.6547860">
        <ele>-3.2</ele>
        <time>2021-07-20T11:11:17Z</time>
      </trkpt>
      <trkpt lat="43.5406790" lon="-5.6550500">
        <ele>-3.2</ele>
        <time>2021-07-20T11:11:21Z</time>
      </trkpt>
      <trkpt lat="43.5407460" lon="-5.6552660">
        <ele>-3.2</ele>
        <time>2021-07-20T11:11:24Z</time>
      </trkpt>
      <trkpt lat="43.5408020" lon="-5.6554600">
        <ele>-3.2</ele>
        <time>2021-07-20T11:11:28Z</time>
      </trkpt>
      <trkpt lat="43.5408100" lon="-5.6554910">
        <ele>-3.2</ele>
        <time>2021-07-20T11:11:29Z</time>
      </trkpt>
      <trkpt lat="43.5408330" lon="-5.6556560">
        <ele>-3.2</ele>
        <time>2021-07-20T11:11:33Z</time>
      </trkpt>
      <trkpt lat="43.5408570" lon="-5.6558380">
        <ele>-3.2</ele>
        <time>2021-07-20T11:11:36Z</time>
      </trkpt>
      <trkpt lat="43.5408910" lon="-5.6559760">
        <ele>-3.2</ele>
        <time>2021-07-20T11:11:38Z</time>
      </trkpt>
      <trkpt lat="43.5409630" lon="-5.6561600">
        <ele>-2.8</ele>
        <time>2021-07-20T11:11:41Z</time>
      </trkpt>
      <trkpt lat="43.5409830" lon="-5.6562220">
        <ele>-2.4</ele>
        <time>2021-07-20T11:11:42Z</time>
      </trkpt>
      <trkpt lat="43.5410050" lon="-5.6562870">
        <ele>-1.6</ele>
        <time>2021-07-20T11:11:43Z</time>
      </trkpt>
      <trkpt lat="43.5410230" lon="-5.6563540">
        <ele>-1.2</ele>
        <time>2021-07-20T11:11:44Z</time>
      </trkpt>
      <trkpt lat="43.5410910" lon="-5.6567170">
        <ele>-1.2</ele>
        <time>2021-07-20T11:11:50Z</time>
      </trkpt>
      <trkpt lat="43.5411270" lon="-5.6568920">
        <ele>-1.2</ele>
        <time>2021-07-20T11:11:53Z</time>
      </trkpt>
      <trkpt lat="43.5411990" lon="-5.6570510">
        <ele>-1.2</ele>
        <time>2021-07-20T11:11:56Z</time>
      </trkpt>
      <trkpt lat="43.5413140" lon="-5.6572670">
        <ele>-1.2</ele>
        <time>2021-07-20T11:12:00Z</time>
      </trkpt>
      <trkpt lat="43.5413370" lon="-5.6573220">
        <ele>-1.2</ele>
        <time>2021-07-20T11:12:01Z</time>
      </trkpt>
      <trkpt lat="43.5414500" lon="-5.6575950">
        <ele>-1.2</ele>
        <time>2021-07-20T11:12:06Z</time>
      </trkpt>
      <trkpt lat="43.5415630" lon="-5.6578170">
        <ele>-1.2</ele>
        <time>2021-07-20T11:12:10Z</time>
      </trkpt>
      <trkpt lat="43.5415870" lon="-5.6578710">
        <ele>-1.2</ele>
        <time>2021-07-20T11:12:11Z</time>
      </trkpt>
      <trkpt lat="43.5416500" lon="-5.6580350">
        <ele>-1.2</ele>
        <time>2021-07-20T11:12:14Z</time>
      </trkpt>
      <trkpt lat="43.5417040" lon="-5.6581480">
        <ele>-1.2</ele>
        <time>2021-07-20T11:12:16Z</time>
      </trkpt>
      <trkpt lat="43.5418320" lon="-5.6583850">
        <ele>-1.2</ele>
        <time>2021-07-20T11:12:21Z</time>
      </trkpt>
      <trkpt lat="43.5418550" lon="-5.6584170">
        <ele>-1.2</ele>
        <time>2021-07-20T11:12:22Z</time>
      </trkpt>
      <trkpt lat="43.5418940" lon="-5.6584570">
        <ele>-1.6</ele>
        <time>2021-07-20T11:12:24Z</time>
      </trkpt>
      <trkpt lat="43.5418990" lon="-5.6584490">
        <ele>-2.0</ele>
        <time>2021-07-20T11:12:25Z</time>
      </trkpt>
      <trkpt lat="43.5419090" lon="-5.6584810">
        <ele>-3.4</ele>
        <time>2021-07-20T11:13:03Z</time>
      </trkpt>
      <trkpt lat="43.5419200" lon="-5.6585050">
        <ele>-3.4</ele>
        <time>2021-07-20T11:13:04Z</time>
      </trkpt>
      <trkpt lat="43.5419520" lon="-5.6585700">
        <ele>-3.4</ele>
        <time>2021-07-20T11:13:06Z</time>
      </trkpt>
      <trkpt lat="43.5419950" lon="-5.6586520">
        <ele>-3.4</ele>
        <time>2021-07-20T11:13:08Z</time>
      </trkpt>
      <trkpt lat="43.5420680" lon="-5.6587720">
        <ele>-3.4</ele>
        <time>2021-07-20T11:13:11Z</time>
      </trkpt>
      <trkpt lat="43.5421170" lon="-5.6589260">
        <ele>-3.4</ele>
        <time>2021-07-20T11:13:14Z</time>
      </trkpt>
      <trkpt lat="43.5422270" lon="-5.6593380">
        <ele>-3.4</ele>
        <time>2021-07-20T11:13:22Z</time>
      </trkpt>
      <trkpt lat="43.5422420" lon="-5.6595050">
        <ele>-3.0</ele>
        <time>2021-07-20T11:13:25Z</time>
      </trkpt>
      <trkpt lat="43.5422410" lon="-5.6595590">
        <ele>-2.6</ele>
        <time>2021-07-20T11:13:26Z</time>
      </trkpt>
      <trkpt lat="43.5422370" lon="-5.6596120">
        <ele>-2.2</ele>
        <time>2021-07-20T11:13:27Z</time>
      </trkpt>
      <trkpt lat="43.5422330" lon="-5.6596670">
        <ele>-1.6</ele>
        <time>2021-07-20T11:13:28Z</time>
      </trkpt>
      <trkpt lat="43.5422290" lon="-5.6597180">
        <ele>-1.2</ele>
        <time>2021-07-20T11:13:29Z</time>
      </trkpt>
      <trkpt lat="43.5422190" lon="-5.6597750">
        <ele>-1.2</ele>
        <time>2021-07-20T11:13:30Z</time>
      </trkpt>
      <trkpt lat="43.5421910" lon="-5.6599890">
        <ele>-1.2</ele>
        <time>2021-07-20T11:13:34Z</time>
      </trkpt>
      <trkpt lat="43.5421280" lon="-5.6602520">
        <ele>-1.2</ele>
        <time>2021-07-20T11:13:39Z</time>
      </trkpt>
      <trkpt lat="43.5421410" lon="-5.6605630">
        <ele>-1.2</ele>
        <time>2021-07-20T11:13:45Z</time>
      </trkpt>
      <trkpt lat="43.5422190" lon="-5.6607510">
        <ele>-1.2</ele>
        <time>2021-07-20T11:13:49Z</time>
      </trkpt>
      <trkpt lat="43.5423810" lon="-5.6609020">
        <ele>-1.2</ele>
        <time>2021-07-20T11:13:54Z</time>
      </trkpt>
      <trkpt lat="43.5425260" lon="-5.6609490">
        <ele>-1.2</ele>
        <time>2021-07-20T11:13:59Z</time>
      </trkpt>
      <trkpt lat="43.5425300" lon="-5.6609530">
        <ele>-1.2</ele>
        <time>2021-07-20T11:14:00Z</time>
      </trkpt>
      <trkpt lat="43.5425280" lon="-5.6609530">
        <ele>-1.2</ele>
        <time>2021-07-20T11:14:01Z</time>
      </trkpt>
      <trkpt lat="43.5425370" lon="-5.6609590">
        <ele>-1.2</ele>
        <time>2021-07-20T11:14:22Z</time>
      </trkpt>
      <trkpt lat="43.5425510" lon="-5.6609680">
        <ele>-1.2</ele>
        <time>2021-07-20T11:14:23Z</time>
      </trkpt>
      <trkpt lat="43.5425740" lon="-5.6609750">
        <ele>-1.2</ele>
        <time>2021-07-20T11:14:24Z</time>
      </trkpt>
      <trkpt lat="43.5426600" lon="-5.6610120">
        <ele>-1.2</ele>
        <time>2021-07-20T11:14:27Z</time>
      </trkpt>
      <trkpt lat="43.5427720" lon="-5.6610690">
        <ele>-1.2</ele>
        <time>2021-07-20T11:14:30Z</time>
      </trkpt>
      <trkpt lat="43.5429620" lon="-5.6611690">
        <ele>-1.2</ele>
        <time>2021-07-20T11:14:35Z</time>
      </trkpt>
      <trkpt lat="43.5430490" lon="-5.6612060">
        <ele>-1.2</ele>
        <time>2021-07-20T11:14:37Z</time>
      </trkpt>
      <trkpt lat="43.5432170" lon="-5.6612640">
        <ele>-1.2</ele>
        <time>2021-07-20T11:14:41Z</time>
      </trkpt>
      <trkpt lat="43.5433170" lon="-5.6612980">
        <ele>-1.2</ele>
        <time>2021-07-20T11:14:43Z</time>
      </trkpt>
      <trkpt lat="43.5434110" lon="-5.6613490">
        <ele>-1.2</ele>
        <time>2021-07-20T11:14:45Z</time>
      </trkpt>
      <trkpt lat="43.5435740" lon="-5.6614200">
        <ele>-1.2</ele>
        <time>2021-07-20T11:14:48Z</time>
      </trkpt>
      <trkpt lat="43.5436760" lon="-5.6614680">
        <ele>-1.2</ele>
        <time>2021-07-20T11:14:50Z</time>
      </trkpt>
      <trkpt lat="43.5439440" lon="-5.6615990">
        <ele>-1.2</ele>
        <time>2021-07-20T11:14:56Z</time>
      </trkpt>
      <trkpt lat="43.5441100" lon="-5.6616620">
        <ele>-1.8</ele>
        <time>2021-07-20T11:15:00Z</time>
      </trkpt>
      <trkpt lat="43.5441550" lon="-5.6616780">
        <ele>-2.6</ele>
        <time>2021-07-20T11:15:01Z</time>
      </trkpt>
      <trkpt lat="43.5442110" lon="-5.6616920">
        <ele>-3.0</ele>
        <time>2021-07-20T11:15:02Z</time>
      </trkpt>
      <trkpt lat="43.5442650" lon="-5.6617030">
        <ele>-3.4</ele>
        <time>2021-07-20T11:15:03Z</time>
      </trkpt>
      <trkpt lat="43.5444820" lon="-5.6617090">
        <ele>-3.4</ele>
        <time>2021-07-20T11:15:08Z</time>
      </trkpt>
      <trkpt lat="43.5445230" lon="-5.6617090">
        <ele>-3.4</ele>
        <time>2021-07-20T11:15:09Z</time>
      </trkpt>
      <trkpt lat="43.5447250" lon="-5.6617220">
        <ele>-3.4</ele>
        <time>2021-07-20T11:15:14Z</time>
      </trkpt>
      <trkpt lat="43.5447980" lon="-5.6617210">
        <ele>-3.4</ele>
        <time>2021-07-20T11:15:16Z</time>
      </trkpt>
      <trkpt lat="43.5449420" lon="-5.6617280">
        <ele>-3.4</ele>
        <time>2021-07-20T11:15:20Z</time>
      </trkpt>
      <trkpt lat="43.5450700" lon="-5.6617510">
        <ele>-3.4</ele>
        <time>2021-07-20T11:15:24Z</time>
      </trkpt>
      <trkpt lat="43.5451580" lon="-5.6618040">
        <ele>-3.4</ele>
        <time>2021-07-20T11:15:29Z</time>
      </trkpt>
      <trkpt lat="43.5452510" lon="-5.6618230">
        <ele>-3.4</ele>
        <time>2021-07-20T11:15:34Z</time>
      </trkpt>
      <trkpt lat="43.5453350" lon="-5.6617110">
        <ele>-3.4</ele>
        <time>2021-07-20T11:15:38Z</time>
      </trkpt>
      <trkpt lat="43.5453570" lon="-5.6616810">
        <ele>-3.4</ele>
        <time>2021-07-20T11:15:39Z</time>
      </trkpt>
      <trkpt lat="43.5454440" lon="-5.6614950">
        <ele>-3.4</ele>
        <time>2021-07-20T11:15:44Z</time>
      </trkpt>
      <trkpt lat="43.5454630" lon="-5.6614580">
        <ele>-3.4</ele>
        <time>2021-07-20T11:15:46Z</time>
      </trkpt>
      <trkpt lat="43.5455010" lon="-5.6614300">
        <ele>-3.4</ele>
        <time>2021-07-20T11:15:48Z</time>
      </trkpt>
      <trkpt lat="43.5455460" lon="-5.6613830">
        <ele>-3.4</ele>
        <time>2021-07-20T11:15:51Z</time>
      </trkpt>
      <trkpt lat="43.5455530" lon="-5.6613560">
        <ele>-3.4</ele>
        <time>2021-07-20T11:15:52Z</time>
      </trkpt>
      <trkpt lat="43.5456080" lon="-5.6611910">
        <ele>-3.4</ele>
        <time>2021-07-20T11:15:57Z</time>
      </trkpt>
      <trkpt lat="43.5456450" lon="-5.6610200">
        <ele>-3.4</ele>
        <time>2021-07-20T11:16:02Z</time>
      </trkpt>
      <trkpt lat="43.5456410" lon="-5.6609860">
        <ele>-3.4</ele>
        <time>2021-07-20T11:16:03Z</time>
      </trkpt>
      <trkpt lat="43.5455810" lon="-5.6609150">
        <ele>-3.4</ele>
        <time>2021-07-20T11:16:06Z</time>
      </trkpt>
      <trkpt lat="43.5454870" lon="-5.6608850">
        <ele>-3.4</ele>
        <time>2021-07-20T11:16:10Z</time>
      </trkpt>
      <trkpt lat="43.5454700" lon="-5.6609010">
        <ele>-3.4</ele>
        <time>2021-07-20T11:16:11Z</time>
      </trkpt>
      <trkpt lat="43.5454510" lon="-5.6609160">
        <ele>-3.4</ele>
        <time>2021-07-20T11:16:12Z</time>
      </trkpt>
      <trkpt lat="43.5454390" lon="-5.6609310">
        <ele>-3.0</ele>
        <time>2021-07-20T11:16:13Z</time>
      </trkpt>
      <trkpt lat="43.5454330" lon="-5.6609430">
        <ele>-2.2</ele>
        <time>2021-07-20T11:16:14Z</time>
      </trkpt>
      <trkpt lat="43.5454380" lon="-5.6609610">
        <ele>-1.8</ele>
        <time>2021-07-20T11:16:15Z</time>
      </trkpt>
      <trkpt lat="43.5454380" lon="-5.6609560">
        <ele>-1.4</ele>
        <time>2021-07-20T11:16:16Z</time>
      </trkpt>
      <trkpt lat="43.5454540" lon="-5.6609380">
        <ele>-1.4</ele>
        <time>2021-07-20T11:16:47Z</time>
      </trkpt>
      <trkpt lat="43.5454620" lon="-5.6609220">
        <ele>-1.4</ele>
        <time>2021-07-20T11:16:48Z</time>
      </trkpt>
      <trkpt lat="43.5454740" lon="-5.6608820">
        <ele>-1.4</ele>
        <time>2021-07-20T11:16:50Z</time>
      </trkpt>
      <trkpt lat="43.5455150" lon="-5.6608300">
        <ele>-1.4</ele>
        <time>2021-07-20T11:16:53Z</time>
      </trkpt>
      <trkpt lat="43.5455680" lon="-5.6608270">
        <ele>-1.4</ele>
        <time>2021-07-20T11:16:55Z</time>
      </trkpt>
      <trkpt lat="43.5456400" lon="-5.6608930">
        <ele>-1.4</ele>
        <time>2021-07-20T11:16:59Z</time>
      </trkpt>
      <trkpt lat="43.5456470" lon="-5.6609150">
        <ele>-1.4</ele>
        <time>2021-07-20T11:17:00Z</time>
      </trkpt>
      <trkpt lat="43.5456450" lon="-5.6609720">
        <ele>-1.4</ele>
        <time>2021-07-20T11:17:02Z</time>
      </trkpt>
      <trkpt lat="43.5456440" lon="-5.6610120">
        <ele>-1.4</ele>
        <time>2021-07-20T11:17:03Z</time>
      </trkpt>
      <trkpt lat="43.5455830" lon="-5.6612680">
        <ele>-1.4</ele>
        <time>2021-07-20T11:17:10Z</time>
      </trkpt>
      <trkpt lat="43.5455050" lon="-5.6614580">
        <ele>-1.4</ele>
        <time>2021-07-20T11:17:17Z</time>
      </trkpt>
      <trkpt lat="43.5454010" lon="-5.6615990">
        <ele>-1.4</ele>
        <time>2021-07-20T11:17:22Z</time>
      </trkpt>
      <trkpt lat="43.5453330" lon="-5.6617120">
        <ele>-1.4</ele>
        <time>2021-07-20T11:17:25Z</time>
      </trkpt>
      <trkpt lat="43.5452660" lon="-5.6617890">
        <ele>-1.4</ele>
        <time>2021-07-20T11:17:28Z</time>
      </trkpt>
      <trkpt lat="43.5452130" lon="-5.6618750">
        <ele>-1.4</ele>
        <time>2021-07-20T11:17:31Z</time>
      </trkpt>
      <trkpt lat="43.5451940" lon="-5.6619270">
        <ele>-1.4</ele>
        <time>2021-07-20T11:17:33Z</time>
      </trkpt>
      <trkpt lat="43.5451880" lon="-5.6619750">
        <ele>-1.4</ele>
        <time>2021-07-20T11:17:35Z</time>
      </trkpt>
      <trkpt lat="43.5451770" lon="-5.6620940">
        <ele>-1.4</ele>
        <time>2021-07-20T11:17:39Z</time>
      </trkpt>
      <trkpt lat="43.5451680" lon="-5.6621390">
        <ele>-1.4</ele>
        <time>2021-07-20T11:17:41Z</time>
      </trkpt>
      <trkpt lat="43.5451280" lon="-5.6622770">
        <ele>-1.4</ele>
        <time>2021-07-20T11:17:47Z</time>
      </trkpt>
      <trkpt lat="43.5451130" lon="-5.6625200">
        <ele>-1.4</ele>
        <time>2021-07-20T11:17:55Z</time>
      </trkpt>
      <trkpt lat="43.5451220" lon="-5.6628260">
        <ele>-1.4</ele>
        <time>2021-07-20T11:18:03Z</time>
      </trkpt>
      <trkpt lat="43.5451230" lon="-5.6628590">
        <ele>-1.4</ele>
        <time>2021-07-20T11:18:04Z</time>
      </trkpt>
      <trkpt lat="43.5451030" lon="-5.6630740">
        <ele>-1.4</ele>
        <time>2021-07-20T11:18:11Z</time>
      </trkpt>
      <trkpt lat="43.5450920" lon="-5.6631820">
        <ele>-1.4</ele>
        <time>2021-07-20T11:18:15Z</time>
      </trkpt>
      <trkpt lat="43.5450780" lon="-5.6632460">
        <ele>-1.8</ele>
        <time>2021-07-20T11:18:17Z</time>
      </trkpt>
      <trkpt lat="43.5450710" lon="-5.6632550">
        <ele>-2.2</ele>
        <time>2021-07-20T11:18:18Z</time>
      </trkpt>
      <trkpt lat="43.5450610" lon="-5.6632570">
        <ele>-2.6</ele>
        <time>2021-07-20T11:18:19Z</time>
      </trkpt>
      <trkpt lat="43.5450590" lon="-5.6632790">
        <ele>-3.2</ele>
        <time>2021-07-20T11:18:20Z</time>
      </trkpt>
      <trkpt lat="43.5450590" lon="-5.6632960">
        <ele>-3.6</ele>
        <time>2021-07-20T11:18:21Z</time>
      </trkpt>
      <trkpt lat="43.5450760" lon="-5.6634360">
        <ele>-3.6</ele>
        <time>2021-07-20T11:18:27Z</time>
      </trkpt>
      <trkpt lat="43.5450620" lon="-5.6635500">
        <ele>-3.6</ele>
        <time>2021-07-20T11:18:31Z</time>
      </trkpt>
      <trkpt lat="43.5450600" lon="-5.6636160">
        <ele>-3.6</ele>
        <time>2021-07-20T11:18:33Z</time>
      </trkpt>
      <trkpt lat="43.5450790" lon="-5.6637560">
        <ele>-3.6</ele>
        <time>2021-07-20T11:18:37Z</time>
      </trkpt>
      <trkpt lat="43.5450820" lon="-5.6637950">
        <ele>-3.6</ele>
        <time>2021-07-20T11:18:38Z</time>
      </trkpt>
      <trkpt lat="43.5450520" lon="-5.6639140">
        <ele>-3.6</ele>
        <time>2021-07-20T11:18:42Z</time>
      </trkpt>
      <trkpt lat="43.5450250" lon="-5.6639970">
        <ele>-3.6</ele>
        <time>2021-07-20T11:18:46Z</time>
      </trkpt>
      <trkpt lat="43.5450090" lon="-5.6640400">
        <ele>-3.6</ele>
        <time>2021-07-20T11:18:48Z</time>
      </trkpt>
      <trkpt lat="43.5449850" lon="-5.6640790">
        <ele>-3.6</ele>
        <time>2021-07-20T11:18:50Z</time>
      </trkpt>
      <trkpt lat="43.5449550" lon="-5.6640870">
        <ele>-3.6</ele>
        <time>2021-07-20T11:18:51Z</time>
      </trkpt>
      <trkpt lat="43.5449220" lon="-5.6640890">
        <ele>-3.6</ele>
        <time>2021-07-20T11:18:52Z</time>
      </trkpt>
      <trkpt lat="43.5448120" lon="-5.6640900">
        <ele>-3.6</ele>
        <time>2021-07-20T11:18:55Z</time>
      </trkpt>
      <trkpt lat="43.5446550" lon="-5.6640860">
        <ele>-3.6</ele>
        <time>2021-07-20T11:18:59Z</time>
      </trkpt>
      <trkpt lat="43.5443670" lon="-5.6641030">
        <ele>-3.6</ele>
        <time>2021-07-20T11:19:06Z</time>
      </trkpt>
      <trkpt lat="43.5442130" lon="-5.6641420">
        <ele>-3.6</ele>
        <time>2021-07-20T11:19:11Z</time>
      </trkpt>
      <trkpt lat="43.5441330" lon="-5.6643050">
        <ele>-3.6</ele>
        <time>2021-07-20T11:19:15Z</time>
      </trkpt>
      <trkpt lat="43.5441070" lon="-5.6643520">
        <ele>-3.6</ele>
        <time>2021-07-20T11:19:16Z</time>
      </trkpt>
      <trkpt lat="43.5440640" lon="-5.6644840">
        <ele>-3.6</ele>
        <time>2021-07-20T11:19:19Z</time>
      </trkpt>
      <trkpt lat="43.5440070" lon="-5.6646220">
        <ele>-3.6</ele>
        <time>2021-07-20T11:19:22Z</time>
      </trkpt>
      <trkpt lat="43.5439200" lon="-5.6648860">
        <ele>-3.6</ele>
        <time>2021-07-20T11:19:29Z</time>
      </trkpt>
      <trkpt lat="43.5439550" lon="-5.6649960">
        <ele>-3.6</ele>
        <time>2021-07-20T11:19:33Z</time>
      </trkpt>
      <trkpt lat="43.5439600" lon="-5.6649990">
        <ele>-3.6</ele>
        <time>2021-07-20T11:19:35Z</time>
      </trkpt>
      <trkpt lat="43.5439750" lon="-5.6650110">
        <ele>-3.6</ele>
        <time>2021-07-20T11:20:42Z</time>
      </trkpt>
      <trkpt lat="43.5439880" lon="-5.6650360">
        <ele>-3.6</ele>
        <time>2021-07-20T11:20:43Z</time>
      </trkpt>
      <trkpt lat="43.5440020" lon="-5.6650500">
        <ele>-3.6</ele>
        <time>2021-07-20T11:20:45Z</time>
      </trkpt>
      <trkpt lat="43.5440150" lon="-5.6650860">
        <ele>-3.6</ele>
        <time>2021-07-20T11:21:20Z</time>
      </trkpt>
      <trkpt lat="43.5440090" lon="-5.6650940">
        <ele>-3.6</ele>
        <time>2021-07-20T11:21:21Z</time>
      </trkpt>
      <trkpt lat="43.5440050" lon="-5.6651220">
        <ele>-3.6</ele>
        <time>2021-07-20T11:21:23Z</time>
      </trkpt>
      <trkpt lat="43.5440080" lon="-5.6651200">
        <ele>-3.6</ele>
        <time>2021-07-20T11:21:24Z</time>
      </trkpt>
      <trkpt lat="43.5439910" lon="-5.6651640">
        <ele>-3.6</ele>
        <time>2021-07-20T11:21:53Z</time>
      </trkpt>
      <trkpt lat="43.5439810" lon="-5.6651870">
        <ele>-3.6</ele>
        <time>2021-07-20T11:21:54Z</time>
      </trkpt>
      <trkpt lat="43.5439550" lon="-5.6652590">
        <ele>-3.6</ele>
        <time>2021-07-20T11:21:56Z</time>
      </trkpt>
      <trkpt lat="43.5439360" lon="-5.6653470">
        <ele>-3.6</ele>
        <time>2021-07-20T11:21:58Z</time>
      </trkpt>
      <trkpt lat="43.5439020" lon="-5.6654220">
        <ele>-3.6</ele>
        <time>2021-07-20T11:22:00Z</time>
      </trkpt>
      <trkpt lat="43.5438620" lon="-5.6655020">
        <ele>-3.6</ele>
        <time>2021-07-20T11:22:03Z</time>
      </trkpt>
      <trkpt lat="43.5437570" lon="-5.6656930">
        <ele>-3.6</ele>
        <time>2021-07-20T11:22:09Z</time>
      </trkpt>
      <trkpt lat="43.5436440" lon="-5.6658980">
        <ele>-3.6</ele>
        <time>2021-07-20T11:22:15Z</time>
      </trkpt>
      <trkpt lat="43.5435060" lon="-5.6661280">
        <ele>-3.6</ele>
        <time>2021-07-20T11:22:21Z</time>
      </trkpt>
      <trkpt lat="43.5433620" lon="-5.6663540">
        <ele>-3.6</ele>
        <time>2021-07-20T11:22:27Z</time>
      </trkpt>
      <trkpt lat="43.5431520" lon="-5.6666960">
        <ele>-3.6</ele>
        <time>2021-07-20T11:22:35Z</time>
      </trkpt>
      <trkpt lat="43.5430300" lon="-5.6669460">
        <ele>-3.6</ele>
        <time>2021-07-20T11:22:41Z</time>
      </trkpt>
      <trkpt lat="43.5428730" lon="-5.6672150">
        <ele>-3.6</ele>
        <time>2021-07-20T11:22:47Z</time>
      </trkpt>
      <trkpt lat="43.5427040" lon="-5.6675400">
        <ele>-3.6</ele>
        <time>2021-07-20T11:22:54Z</time>
      </trkpt>
      <trkpt lat="43.5425090" lon="-5.6678840">
        <ele>-3.6</ele>
        <time>2021-07-20T11:23:01Z</time>
      </trkpt>
      <trkpt lat="43.5423950" lon="-5.6681530">
        <ele>-3.6</ele>
        <time>2021-07-20T11:23:07Z</time>
      </trkpt>
      <trkpt lat="43.5423290" lon="-5.6683110">
        <ele>-3.6</ele>
        <time>2021-07-20T11:23:11Z</time>
      </trkpt>
      <trkpt lat="43.5422810" lon="-5.6684890">
        <ele>-3.6</ele>
        <time>2021-07-20T11:23:16Z</time>
      </trkpt>
      <trkpt lat="43.5422800" lon="-5.6685450">
        <ele>-3.6</ele>
        <time>2021-07-20T11:23:17Z</time>
      </trkpt>
      <trkpt lat="43.5422650" lon="-5.6686900">
        <ele>-3.6</ele>
        <time>2021-07-20T11:23:20Z</time>
      </trkpt>
      <trkpt lat="43.5421730" lon="-5.6689760">
        <ele>-3.6</ele>
        <time>2021-07-20T11:23:26Z</time>
      </trkpt>
      <trkpt lat="43.5421050" lon="-5.6692930">
        <ele>-3.6</ele>
        <time>2021-07-20T11:23:32Z</time>
      </trkpt>
      <trkpt lat="43.5420920" lon="-5.6693460">
        <ele>-3.6</ele>
        <time>2021-07-20T11:23:33Z</time>
      </trkpt>
      <trkpt lat="43.5420410" lon="-5.6695530">
        <ele>-3.2</ele>
        <time>2021-07-20T11:23:37Z</time>
      </trkpt>
      <trkpt lat="43.5420260" lon="-5.6695970">
        <ele>-2.4</ele>
        <time>2021-07-20T11:23:38Z</time>
      </trkpt>
      <trkpt lat="43.5420060" lon="-5.6696350">
        <ele>-1.8</ele>
        <time>2021-07-20T11:23:39Z</time>
      </trkpt>
      <trkpt lat="43.5419870" lon="-5.6696800">
        <ele>-1.4</ele>
        <time>2021-07-20T11:23:40Z</time>
      </trkpt>
      <trkpt lat="43.5419120" lon="-5.6699130">
        <ele>-1.4</ele>
        <time>2021-07-20T11:23:45Z</time>
      </trkpt>
      <trkpt lat="43.5418700" lon="-5.6700510">
        <ele>-1.4</ele>
        <time>2021-07-20T11:23:48Z</time>
      </trkpt>
      <trkpt lat="43.5417990" lon="-5.6702850">
        <ele>-1.4</ele>
        <time>2021-07-20T11:23:53Z</time>
      </trkpt>
      <trkpt lat="43.5417030" lon="-5.6705130">
        <ele>-1.4</ele>
        <time>2021-07-20T11:23:58Z</time>
      </trkpt>
      <trkpt lat="43.5416630" lon="-5.6706590">
        <ele>-1.4</ele>
        <time>2021-07-20T11:24:01Z</time>
      </trkpt>
      <trkpt lat="43.5415930" lon="-5.6709950">
        <ele>-1.4</ele>
        <time>2021-07-20T11:24:07Z</time>
      </trkpt>
      <trkpt lat="43.5415560" lon="-5.6713290">
        <ele>-1.4</ele>
        <time>2021-07-20T11:24:13Z</time>
      </trkpt>
      <trkpt lat="43.5414990" lon="-5.6716380">
        <ele>-1.4</ele>
        <time>2021-07-20T11:24:19Z</time>
      </trkpt>
      <trkpt lat="43.5414460" lon="-5.6718950">
        <ele>-1.4</ele>
        <time>2021-07-20T11:24:24Z</time>
      </trkpt>
      <trkpt lat="43.5414260" lon="-5.6719900">
        <ele>-1.4</ele>
        <time>2021-07-20T11:24:26Z</time>
      </trkpt>
      <trkpt lat="43.5413830" lon="-5.6721730">
        <ele>-1.4</ele>
        <time>2021-07-20T11:24:30Z</time>
      </trkpt>
      <trkpt lat="43.5413410" lon="-5.6723910">
        <ele>-1.4</ele>
        <time>2021-07-20T11:24:35Z</time>
      </trkpt>
      <trkpt lat="43.5413270" lon="-5.6726580">
        <ele>-1.4</ele>
        <time>2021-07-20T11:24:40Z</time>
      </trkpt>
      <trkpt lat="43.5414320" lon="-5.6728460">
        <ele>-1.4</ele>
        <time>2021-07-20T11:24:44Z</time>
      </trkpt>
      <trkpt lat="43.5415010" lon="-5.6731400">
        <ele>-1.4</ele>
        <time>2021-07-20T11:24:50Z</time>
      </trkpt>
      <trkpt lat="43.5415690" lon="-5.6733850">
        <ele>-1.4</ele>
        <time>2021-07-20T11:24:55Z</time>
      </trkpt>
      <trkpt lat="43.5416730" lon="-5.6736710">
        <ele>-1.4</ele>
        <time>2021-07-20T11:25:02Z</time>
      </trkpt>
      <trkpt lat="43.5417470" lon="-5.6738540">
        <ele>-1.4</ele>
        <time>2021-07-20T11:25:07Z</time>
      </trkpt>
      <trkpt lat="43.5418430" lon="-5.6742300">
        <ele>-1.4</ele>
        <time>2021-07-20T11:25:15Z</time>
      </trkpt>
      <trkpt lat="43.5418280" lon="-5.6745450">
        <ele>-1.4</ele>
        <time>2021-07-20T11:25:21Z</time>
      </trkpt>
      <trkpt lat="43.5417580" lon="-5.6749530">
        <ele>-1.4</ele>
        <time>2021-07-20T11:25:29Z</time>
      </trkpt>
      <trkpt lat="43.5416550" lon="-5.6752990">
        <ele>-1.4</ele>
        <time>2021-07-20T11:25:36Z</time>
      </trkpt>
      <trkpt lat="43.5415350" lon="-5.6754970">
        <ele>-1.4</ele>
        <time>2021-07-20T11:25:41Z</time>
      </trkpt>
      <trkpt lat="43.5413620" lon="-5.6756480">
        <ele>-1.4</ele>
        <time>2021-07-20T11:25:47Z</time>
      </trkpt>
      <trkpt lat="43.5412160" lon="-5.6757600">
        <ele>-1.4</ele>
        <time>2021-07-20T11:25:52Z</time>
      </trkpt>
      <trkpt lat="43.5410840" lon="-5.6758790">
        <ele>-1.4</ele>
        <time>2021-07-20T11:25:57Z</time>
      </trkpt>
      <trkpt lat="43.5410150" lon="-5.6759550">
        <ele>-1.4</ele>
        <time>2021-07-20T11:26:00Z</time>
      </trkpt>
      <trkpt lat="43.5409490" lon="-5.6759750">
        <ele>-1.4</ele>
        <time>2021-07-20T11:26:02Z</time>
      </trkpt>
      <trkpt lat="43.5409120" lon="-5.6759770">
        <ele>-1.4</ele>
        <time>2021-07-20T11:26:03Z</time>
      </trkpt>
      <trkpt lat="43.5408630" lon="-5.6759410">
        <ele>-1.4</ele>
        <time>2021-07-20T11:26:06Z</time>
      </trkpt>
      <trkpt lat="43.5408380" lon="-5.6759750">
        <ele>-1.4</ele>
        <time>2021-07-20T11:26:10Z</time>
      </trkpt>
      <trkpt lat="43.5408960" lon="-5.6759660">
        <ele>-1.4</ele>
        <time>2021-07-20T11:26:13Z</time>
      </trkpt>
      <trkpt lat="43.5409110" lon="-5.6759650">
        <ele>-1.4</ele>
        <time>2021-07-20T11:26:14Z</time>
      </trkpt>
      <trkpt lat="43.5408870" lon="-5.6760090">
        <ele>-1.4</ele>
        <time>2021-07-20T11:26:15Z</time>
      </trkpt>
      <trkpt lat="43.5408570" lon="-5.6760600">
        <ele>-1.4</ele>
        <time>2021-07-20T11:26:16Z</time>
      </trkpt>
      <trkpt lat="43.5407220" lon="-5.6762930">
        <ele>-1.4</ele>
        <time>2021-07-20T11:26:21Z</time>
      </trkpt>
      <trkpt lat="43.5406100" lon="-5.6765810">
        <ele>-1.4</ele>
        <time>2021-07-20T11:26:27Z</time>
      </trkpt>
      <trkpt lat="43.5405880" lon="-5.6766910">
        <ele>-1.4</ele>
        <time>2021-07-20T11:26:29Z</time>
      </trkpt>
      <trkpt lat="43.5405670" lon="-5.6768660">
        <ele>-1.4</ele>
        <time>2021-07-20T11:26:32Z</time>
      </trkpt>
      <trkpt lat="43.5405560" lon="-5.6769750">
        <ele>-1.4</ele>
        <time>2021-07-20T11:26:34Z</time>
      </trkpt>
      <trkpt lat="43.5404860" lon="-5.6772470">
        <ele>-1.4</ele>
        <time>2021-07-20T11:26:39Z</time>
      </trkpt>
      <trkpt lat="43.5404660" lon="-5.6772950">
        <ele>-1.4</ele>
        <time>2021-07-20T11:26:40Z</time>
      </trkpt>
      <trkpt lat="43.5404230" lon="-5.6774090">
        <ele>-1.4</ele>
        <time>2021-07-20T11:26:45Z</time>
      </trkpt>
      <trkpt lat="43.5403890" lon="-5.6773640">
        <ele>-1.4</ele>
        <time>2021-07-20T11:26:49Z</time>
      </trkpt>
      <trkpt lat="43.5403880" lon="-5.6773370">
        <ele>-1.4</ele>
        <time>2021-07-20T11:26:50Z</time>
      </trkpt>
      <trkpt lat="43.5404070" lon="-5.6772190">
        <ele>-1.4</ele>
        <time>2021-07-20T11:26:53Z</time>
      </trkpt>
      <trkpt lat="43.5404160" lon="-5.6771780">
        <ele>-1.4</ele>
        <time>2021-07-20T11:26:54Z</time>
      </trkpt>
      <trkpt lat="43.5404320" lon="-5.6771280">
        <ele>-1.4</ele>
        <time>2021-07-20T11:26:55Z</time>
      </trkpt>
      <trkpt lat="43.5404420" lon="-5.6770230">
        <ele>-1.4</ele>
        <time>2021-07-20T11:26:57Z</time>
      </trkpt>
      <trkpt lat="43.5404850" lon="-5.6767990">
        <ele>-1.4</ele>
        <time>2021-07-20T11:27:01Z</time>
      </trkpt>
      <trkpt lat="43.5404910" lon="-5.6767450">
        <ele>-1.4</ele>
        <time>2021-07-20T11:27:02Z</time>
      </trkpt>
      <trkpt lat="43.5405640" lon="-5.6764950">
        <ele>-1.4</ele>
        <time>2021-07-20T11:27:07Z</time>
      </trkpt>
      <trkpt lat="43.5406340" lon="-5.6763010">
        <ele>-1.4</ele>
        <time>2021-07-20T11:27:12Z</time>
      </trkpt>
      <trkpt lat="43.5406470" lon="-5.6762640">
        <ele>-1.4</ele>
        <time>2021-07-20T11:27:14Z</time>
      </trkpt>
      <trkpt lat="43.5406660" lon="-5.6762870">
        <ele>-1.4</ele>
        <time>2021-07-20T11:27:16Z</time>
      </trkpt>
      <trkpt lat="43.5406060" lon="-5.6763530">
        <ele>-1.4</ele>
        <time>2021-07-20T11:27:19Z</time>
      </trkpt>
      <trkpt lat="43.5405590" lon="-5.6763640">
        <ele>-1.4</ele>
        <time>2021-07-20T11:27:20Z</time>
      </trkpt>
      <trkpt lat="43.5404660" lon="-5.6763730">
        <ele>-1.4</ele>
        <time>2021-07-20T11:27:22Z</time>
      </trkpt>
      <trkpt lat="43.5403460" lon="-5.6764270">
        <ele>-1.4</ele>
        <time>2021-07-20T11:27:25Z</time>
      </trkpt>
      <trkpt lat="43.5403140" lon="-5.6764500">
        <ele>-1.4</ele>
        <time>2021-07-20T11:27:26Z</time>
      </trkpt>
      <trkpt lat="43.5401760" lon="-5.6765390">
        <ele>-1.4</ele>
        <time>2021-07-20T11:27:32Z</time>
      </trkpt>
      <trkpt lat="43.5401520" lon="-5.6765290">
        <ele>-1.4</ele>
        <time>2021-07-20T11:27:33Z</time>
      </trkpt>
      <trkpt lat="43.5400500" lon="-5.6764820">
        <ele>-1.4</ele>
        <time>2021-07-20T11:27:36Z</time>
      </trkpt>
      <trkpt lat="43.5400090" lon="-5.6764920">
        <ele>-1.4</ele>
        <time>2021-07-20T11:27:37Z</time>
      </trkpt>
      <trkpt lat="43.5399380" lon="-5.6765080">
        <ele>-1.4</ele>
        <time>2021-07-20T11:27:39Z</time>
      </trkpt>
      <trkpt lat="43.5398610" lon="-5.6765460">
        <ele>-1.4</ele>
        <time>2021-07-20T11:27:41Z</time>
      </trkpt>
      <trkpt lat="43.5398190" lon="-5.6766420">
        <ele>-1.4</ele>
        <time>2021-07-20T11:27:43Z</time>
      </trkpt>
      <trkpt lat="43.5397920" lon="-5.6767590">
        <ele>-1.4</ele>
        <time>2021-07-20T11:27:45Z</time>
      </trkpt>
      <trkpt lat="43.5397450" lon="-5.6769030">
        <ele>-1.4</ele>
        <time>2021-07-20T11:27:48Z</time>
      </trkpt>
      <trkpt lat="43.5396750" lon="-5.6770590">
        <ele>-1.4</ele>
        <time>2021-07-20T11:27:52Z</time>
      </trkpt>
      <trkpt lat="43.5396400" lon="-5.6770660">
        <ele>-1.4</ele>
        <time>2021-07-20T11:27:53Z</time>
      </trkpt>
      <trkpt lat="43.5395600" lon="-5.6770350">
        <ele>-1.4</ele>
        <time>2021-07-20T11:27:56Z</time>
      </trkpt>
      <trkpt lat="43.5395510" lon="-5.6770340">
        <ele>-1.4</ele>
        <time>2021-07-20T11:27:58Z</time>
      </trkpt>
      <trkpt lat="43.5395790" lon="-5.6770300">
        <ele>-1.4</ele>
        <time>2021-07-20T11:28:39Z</time>
      </trkpt>
      <trkpt lat="43.5395900" lon="-5.6770410">
        <ele>-1.4</ele>
        <time>2021-07-20T11:28:40Z</time>
      </trkpt>
      <trkpt lat="43.5396270" lon="-5.6770550">
        <ele>-1.4</ele>
        <time>2021-07-20T11:28:42Z</time>
      </trkpt>
      <trkpt lat="43.5396470" lon="-5.6770350">
        <ele>-1.4</ele>
        <time>2021-07-20T11:28:43Z</time>
      </trkpt>
      <trkpt lat="43.5397280" lon="-5.6768760">
        <ele>-1.4</ele>
        <time>2021-07-20T11:28:47Z</time>
      </trkpt>
      <trkpt lat="43.5397660" lon="-5.6767730">
        <ele>-1.4</ele>
        <time>2021-07-20T11:28:49Z</time>
      </trkpt>
      <trkpt lat="43.5398640" lon="-5.6765260">
        <ele>-1.0</ele>
        <time>2021-07-20T11:28:54Z</time>
      </trkpt>
      <trkpt lat="43.5398920" lon="-5.6765000">
        <ele>-0.6</ele>
        <time>2021-07-20T11:28:55Z</time>
      </trkpt>
      <trkpt lat="43.5399330" lon="-5.6765010">
        <ele>-0.2</ele>
        <time>2021-07-20T11:28:56Z</time>
      </trkpt>
      <trkpt lat="43.5399740" lon="-5.6765060">
        <ele>0.2</ele>
        <time>2021-07-20T11:28:57Z</time>
      </trkpt>
      <trkpt lat="43.5400150" lon="-5.6764860">
        <ele>0.6</ele>
        <time>2021-07-20T11:28:58Z</time>
      </trkpt>
      <trkpt lat="43.5400960" lon="-5.6764970">
        <ele>0.6</ele>
        <time>2021-07-20T11:29:01Z</time>
      </trkpt>
      <trkpt lat="43.5400910" lon="-5.6764990">
        <ele>0.6</ele>
        <time>2021-07-20T11:29:04Z</time>
      </trkpt>
      <trkpt lat="43.5401220" lon="-5.6765190">
        <ele>0.6</ele>
        <time>2021-07-20T11:29:11Z</time>
      </trkpt>
      <trkpt lat="43.5402290" lon="-5.6764950">
        <ele>0.6</ele>
        <time>2021-07-20T11:29:15Z</time>
      </trkpt>
      <trkpt lat="43.5404100" lon="-5.6764130">
        <ele>0.6</ele>
        <time>2021-07-20T11:29:21Z</time>
      </trkpt>
      <trkpt lat="43.5405280" lon="-5.6763190">
        <ele>0.2</ele>
        <time>2021-07-20T11:29:25Z</time>
      </trkpt>
      <trkpt lat="43.5405510" lon="-5.6762960">
        <ele>-0.2</ele>
        <time>2021-07-20T11:29:26Z</time>
      </trkpt>
      <trkpt lat="43.5405670" lon="-5.6762870">
        <ele>-0.6</ele>
        <time>2021-07-20T11:29:27Z</time>
      </trkpt>
      <trkpt lat="43.5405820" lon="-5.6762860">
        <ele>-1.0</ele>
        <time>2021-07-20T11:29:28Z</time>
      </trkpt>
      <trkpt lat="43.5405930" lon="-5.6763010">
        <ele>-1.4</ele>
        <time>2021-07-20T11:29:29Z</time>
      </trkpt>
      <trkpt lat="43.5406130" lon="-5.6763370">
        <ele>-1.4</ele>
        <time>2021-07-20T11:29:30Z</time>
      </trkpt>
      <trkpt lat="43.5406110" lon="-5.6763740">
        <ele>-1.4</ele>
        <time>2021-07-20T11:29:31Z</time>
      </trkpt>
      <trkpt lat="43.5405840" lon="-5.6764720">
        <ele>-1.4</ele>
        <time>2021-07-20T11:29:33Z</time>
      </trkpt>
      <trkpt lat="43.5405480" lon="-5.6766090">
        <ele>-1.4</ele>
        <time>2021-07-20T11:29:36Z</time>
      </trkpt>
      <trkpt lat="43.5405140" lon="-5.6767170">
        <ele>-1.4</ele>
        <time>2021-07-20T11:29:38Z</time>
      </trkpt>
      <trkpt lat="43.5404800" lon="-5.6768290">
        <ele>-1.4</ele>
        <time>2021-07-20T11:29:40Z</time>
      </trkpt>
      <trkpt lat="43.5404130" lon="-5.6770220">
        <ele>-1.4</ele>
        <time>2021-07-20T11:29:44Z</time>
      </trkpt>
      <trkpt lat="43.5403110" lon="-5.6774670">
        <ele>-1.4</ele>
        <time>2021-07-20T11:29:52Z</time>
      </trkpt>
      <trkpt lat="43.5401420" lon="-5.6778600">
        <ele>-1.4</ele>
        <time>2021-07-20T11:30:00Z</time>
      </trkpt>
      <trkpt lat="43.5401380" lon="-5.6779830">
        <ele>-1.4</ele>
        <time>2021-07-20T11:30:04Z</time>
      </trkpt>
      <trkpt lat="43.5401320" lon="-5.6779800">
        <ele>-1.4</ele>
        <time>2021-07-20T11:30:05Z</time>
      </trkpt>
      <trkpt lat="43.5401220" lon="-5.6779960">
        <ele>-1.4</ele>
        <time>2021-07-20T11:30:31Z</time>
      </trkpt>
      <trkpt lat="43.5401180" lon="-5.6780270">
        <ele>-1.4</ele>
        <time>2021-07-20T11:30:32Z</time>
      </trkpt>
      <trkpt lat="43.5401100" lon="-5.6780620">
        <ele>-1.4</ele>
        <time>2021-07-20T11:30:33Z</time>
      </trkpt>
      <trkpt lat="43.5401000" lon="-5.6781480">
        <ele>-1.4</ele>
        <time>2021-07-20T11:30:35Z</time>
      </trkpt>
      <trkpt lat="43.5401000" lon="-5.6782220">
        <ele>-1.4</ele>
        <time>2021-07-20T11:30:37Z</time>
      </trkpt>
      <trkpt lat="43.5401040" lon="-5.6782590">
        <ele>-1.4</ele>
        <time>2021-07-20T11:30:38Z</time>
      </trkpt>
      <trkpt lat="43.5400280" lon="-5.6783630">
        <ele>-1.4</ele>
        <time>2021-07-20T11:30:42Z</time>
      </trkpt>
      <trkpt lat="43.5399150" lon="-5.6783980">
        <ele>-1.4</ele>
        <time>2021-07-20T11:30:46Z</time>
      </trkpt>
      <trkpt lat="43.5397980" lon="-5.6784300">
        <ele>-1.4</ele>
        <time>2021-07-20T11:30:52Z</time>
      </trkpt>
      <trkpt lat="43.5397010" lon="-5.6784380">
        <ele>-1.4</ele>
        <time>2021-07-20T11:30:57Z</time>
      </trkpt>
      <trkpt lat="43.5395750" lon="-5.6784500">
        <ele>-1.4</ele>
        <time>2021-07-20T11:31:02Z</time>
      </trkpt>
      <trkpt lat="43.5394300" lon="-5.6784980">
        <ele>-1.4</ele>
        <time>2021-07-20T11:31:07Z</time>
      </trkpt>
      <trkpt lat="43.5393630" lon="-5.6786360">
        <ele>-1.4</ele>
        <time>2021-07-20T11:31:12Z</time>
      </trkpt>
      <trkpt lat="43.5392650" lon="-5.6788740">
        <ele>-1.4</ele>
        <time>2021-07-20T11:31:19Z</time>
      </trkpt>
      <trkpt lat="43.5391930" lon="-5.6790960">
        <ele>-1.4</ele>
        <time>2021-07-20T11:31:24Z</time>
      </trkpt>
      <trkpt lat="43.5391930" lon="-5.6792040">
        <ele>-1.4</ele>
        <time>2021-07-20T11:31:26Z</time>
      </trkpt>
      <trkpt lat="43.5391590" lon="-5.6794470">
        <ele>-1.4</ele>
        <time>2021-07-20T11:31:31Z</time>
      </trkpt>
      <trkpt lat="43.5391090" lon="-5.6796630">
        <ele>-1.4</ele>
        <time>2021-07-20T11:31:36Z</time>
      </trkpt>
      <trkpt lat="43.5390850" lon="-5.6797240">
        <ele>-1.4</ele>
        <time>2021-07-20T11:31:37Z</time>
      </trkpt>
      <trkpt lat="43.5390120" lon="-5.6799440">
        <ele>-1.4</ele>
        <time>2021-07-20T11:31:41Z</time>
      </trkpt>
      <trkpt lat="43.5388950" lon="-5.6801730">
        <ele>-1.0</ele>
        <time>2021-07-20T11:31:45Z</time>
      </trkpt>
      <trkpt lat="43.5388770" lon="-5.6802260">
        <ele>-0.6</ele>
        <time>2021-07-20T11:31:46Z</time>
      </trkpt>
      <trkpt lat="43.5388630" lon="-5.6802730">
        <ele>0.0</ele>
        <time>2021-07-20T11:31:47Z</time>
      </trkpt>
      <trkpt lat="43.5388440" lon="-5.6803230">
        <ele>0.4</ele>
        <time>2021-07-20T11:31:48Z</time>
      </trkpt>
      <trkpt lat="43.5388320" lon="-5.6803730">
        <ele>0.8</ele>
        <time>2021-07-20T11:31:49Z</time>
      </trkpt>
      <trkpt lat="43.5387760" lon="-5.6806260">
        <ele>0.8</ele>
        <time>2021-07-20T11:31:54Z</time>
      </trkpt>
      <trkpt lat="43.5386570" lon="-5.6810100">
        <ele>0.8</ele>
        <time>2021-07-20T11:32:01Z</time>
      </trkpt>
      <trkpt lat="43.5385440" lon="-5.6814120">
        <ele>0.8</ele>
        <time>2021-07-20T11:32:08Z</time>
      </trkpt>
      <trkpt lat="43.5384540" lon="-5.6818070">
        <ele>0.8</ele>
        <time>2021-07-20T11:32:16Z</time>
      </trkpt>
      <trkpt lat="43.5384320" lon="-5.6818470">
        <ele>0.8</ele>
        <time>2021-07-20T11:32:17Z</time>
      </trkpt>
      <trkpt lat="43.5383990" lon="-5.6819260">
        <ele>0.8</ele>
        <time>2021-07-20T11:32:19Z</time>
      </trkpt>
      <trkpt lat="43.5383880" lon="-5.6819640">
        <ele>0.8</ele>
        <time>2021-07-20T11:32:20Z</time>
      </trkpt>
      <trkpt lat="43.5382980" lon="-5.6822510">
        <ele>0.8</ele>
        <time>2021-07-20T11:32:25Z</time>
      </trkpt>
      <trkpt lat="43.5382130" lon="-5.6824770">
        <ele>0.8</ele>
        <time>2021-07-20T11:32:29Z</time>
      </trkpt>
      <trkpt lat="43.5381460" lon="-5.6827560">
        <ele>0.8</ele>
        <time>2021-07-20T11:32:34Z</time>
      </trkpt>
      <trkpt lat="43.5381420" lon="-5.6828590">
        <ele>0.8</ele>
        <time>2021-07-20T11:32:36Z</time>
      </trkpt>
      <trkpt lat="43.5380960" lon="-5.6830320">
        <ele>0.8</ele>
        <time>2021-07-20T11:32:39Z</time>
      </trkpt>
      <trkpt lat="43.5380760" lon="-5.6830850">
        <ele>0.8</ele>
        <time>2021-07-20T11:32:40Z</time>
      </trkpt>
      <trkpt lat="43.5379380" lon="-5.6834600">
        <ele>0.8</ele>
        <time>2021-07-20T11:32:47Z</time>
      </trkpt>
      <trkpt lat="43.5378570" lon="-5.6837460">
        <ele>0.8</ele>
        <time>2021-07-20T11:32:53Z</time>
      </trkpt>
      <trkpt lat="43.5378230" lon="-5.6838670">
        <ele>0.8</ele>
        <time>2021-07-20T11:32:56Z</time>
      </trkpt>
      <trkpt lat="43.5377930" lon="-5.6839810">
        <ele>0.8</ele>
        <time>2021-07-20T11:32:59Z</time>
      </trkpt>
      <trkpt lat="43.5377170" lon="-5.6841970">
        <ele>0.8</ele>
        <time>2021-07-20T11:33:05Z</time>
      </trkpt>
      <trkpt lat="43.5376710" lon="-5.6843780">
        <ele>0.8</ele>
        <time>2021-07-20T11:33:11Z</time>
      </trkpt>
      <trkpt lat="43.5376010" lon="-5.6846330">
        <ele>0.8</ele>
        <time>2021-07-20T11:33:18Z</time>
      </trkpt>
      <trkpt lat="43.5375970" lon="-5.6848630">
        <ele>0.8</ele>
        <time>2021-07-20T11:33:24Z</time>
      </trkpt>
      <trkpt lat="43.5376060" lon="-5.6849950">
        <ele>0.8</ele>
        <time>2021-07-20T11:33:28Z</time>
      </trkpt>
      <trkpt lat="43.5375920" lon="-5.6851270">
        <ele>0.8</ele>
        <time>2021-07-20T11:33:32Z</time>
      </trkpt>
      <trkpt lat="43.5375690" lon="-5.6851720">
        <ele>0.8</ele>
        <time>2021-07-20T11:33:34Z</time>
      </trkpt>
      <trkpt lat="43.5375360" lon="-5.6852120">
        <ele>0.8</ele>
        <time>2021-07-20T11:33:36Z</time>
      </trkpt>
      <trkpt lat="43.5375340" lon="-5.6853070">
        <ele>0.8</ele>
        <time>2021-07-20T11:33:39Z</time>
      </trkpt>
      <trkpt lat="43.5375200" lon="-5.6855310">
        <ele>0.8</ele>
        <time>2021-07-20T11:33:45Z</time>
      </trkpt>
      <trkpt lat="43.5375180" lon="-5.6855720">
        <ele>0.8</ele>
        <time>2021-07-20T11:33:46Z</time>
      </trkpt>
      <trkpt lat="43.5374880" lon="-5.6856660">
        <ele>0.8</ele>
        <time>2021-07-20T11:33:49Z</time>
      </trkpt>
      <trkpt lat="43.5374580" lon="-5.6856900">
        <ele>0.8</ele>
        <time>2021-07-20T11:33:50Z</time>
      </trkpt>
      <trkpt lat="43.5373980" lon="-5.6857380">
        <ele>0.8</ele>
        <time>2021-07-20T11:33:52Z</time>
      </trkpt>
      <trkpt lat="43.5373510" lon="-5.6858260">
        <ele>0.8</ele>
        <time>2021-07-20T11:33:54Z</time>
      </trkpt>
      <trkpt lat="43.5373380" lon="-5.6858760">
        <ele>1.2</ele>
        <time>2021-07-20T11:33:55Z</time>
      </trkpt>
      <trkpt lat="43.5373250" lon="-5.6859290">
        <ele>1.6</ele>
        <time>2021-07-20T11:33:56Z</time>
      </trkpt>
      <trkpt lat="43.5373110" lon="-5.6859820">
        <ele>2.0</ele>
        <time>2021-07-20T11:33:57Z</time>
      </trkpt>
      <trkpt lat="43.5372970" lon="-5.6860360">
        <ele>2.4</ele>
        <time>2021-07-20T11:33:58Z</time>
      </trkpt>
      <trkpt lat="43.5372830" lon="-5.6860900">
        <ele>2.8</ele>
        <time>2021-07-20T11:33:59Z</time>
      </trkpt>
      <trkpt lat="43.5372680" lon="-5.6861460">
        <ele>2.8</ele>
        <time>2021-07-20T11:34:00Z</time>
      </trkpt>
      <trkpt lat="43.5372150" lon="-5.6863040">
        <ele>2.8</ele>
        <time>2021-07-20T11:34:03Z</time>
      </trkpt>
      <trkpt lat="43.5371980" lon="-5.6863630">
        <ele>2.8</ele>
        <time>2021-07-20T11:34:04Z</time>
      </trkpt>
      <trkpt lat="43.5371660" lon="-5.6864790">
        <ele>2.8</ele>
        <time>2021-07-20T11:34:06Z</time>
      </trkpt>
      <trkpt lat="43.5370400" lon="-5.6869290">
        <ele>3.2</ele>
        <time>2021-07-20T11:34:14Z</time>
      </trkpt>
      <trkpt lat="43.5370270" lon="-5.6869840">
        <ele>3.6</ele>
        <time>2021-07-20T11:34:15Z</time>
      </trkpt>
      <trkpt lat="43.5370140" lon="-5.6870410">
        <ele>4.0</ele>
        <time>2021-07-20T11:34:16Z</time>
      </trkpt>
      <trkpt lat="43.5370020" lon="-5.6870950">
        <ele>4.4</ele>
        <time>2021-07-20T11:34:17Z</time>
      </trkpt>
      <trkpt lat="43.5369880" lon="-5.6871470">
        <ele>4.8</ele>
        <time>2021-07-20T11:34:18Z</time>
      </trkpt>
      <trkpt lat="43.5369370" lon="-5.6873650">
        <ele>4.8</ele>
        <time>2021-07-20T11:34:22Z</time>
      </trkpt>
      <trkpt lat="43.5368570" lon="-5.6877160">
        <ele>5.4</ele>
        <time>2021-07-20T11:34:28Z</time>
      </trkpt>
      <trkpt lat="43.5368510" lon="-5.6877700">
        <ele>5.8</ele>
        <time>2021-07-20T11:34:29Z</time>
      </trkpt>
      <trkpt lat="43.5368430" lon="-5.6878290">
        <ele>6.2</ele>
        <time>2021-07-20T11:34:30Z</time>
      </trkpt>
      <trkpt lat="43.5368320" lon="-5.6878880">
        <ele>6.6</ele>
        <time>2021-07-20T11:34:31Z</time>
      </trkpt>
      <trkpt lat="43.5368180" lon="-5.6879430">
        <ele>7.0</ele>
        <time>2021-07-20T11:34:32Z</time>
      </trkpt>
      <trkpt lat="43.5367590" lon="-5.6882170">
        <ele>7.0</ele>
        <time>2021-07-20T11:34:37Z</time>
      </trkpt>
      <trkpt lat="43.5366610" lon="-5.6885900">
        <ele>7.0</ele>
        <time>2021-07-20T11:34:44Z</time>
      </trkpt>
      <trkpt lat="43.5365550" lon="-5.6889130">
        <ele>7.0</ele>
        <time>2021-07-20T11:34:51Z</time>
      </trkpt>
      <trkpt lat="43.5365230" lon="-5.6890490">
        <ele>7.0</ele>
        <time>2021-07-20T11:34:54Z</time>
      </trkpt>
      <trkpt lat="43.5364940" lon="-5.6891760">
        <ele>7.0</ele>
        <time>2021-07-20T11:34:57Z</time>
      </trkpt>
      <trkpt lat="43.5364750" lon="-5.6892570">
        <ele>7.0</ele>
        <time>2021-07-20T11:34:59Z</time>
      </trkpt>
      <trkpt lat="43.5364680" lon="-5.6892880">
        <ele>7.0</ele>
        <time>2021-07-20T11:35:00Z</time>
      </trkpt>
      <trkpt lat="43.5364620" lon="-5.6893440">
        <ele>7.0</ele>
        <time>2021-07-20T11:35:02Z</time>
      </trkpt>
      <trkpt lat="43.5364570" lon="-5.6894100">
        <ele>7.0</ele>
        <time>2021-07-20T11:35:04Z</time>
      </trkpt>
      <trkpt lat="43.5364560" lon="-5.6894790">
        <ele>7.0</ele>
        <time>2021-07-20T11:35:06Z</time>
      </trkpt>
      <trkpt lat="43.5364440" lon="-5.6896080">
        <ele>7.0</ele>
        <time>2021-07-20T11:35:10Z</time>
      </trkpt>
      <trkpt lat="43.5364100" lon="-5.6898380">
        <ele>7.0</ele>
        <time>2021-07-20T11:35:16Z</time>
      </trkpt>
      <trkpt lat="43.5363230" lon="-5.6899440">
        <ele>7.0</ele>
        <time>2021-07-20T11:35:18Z</time>
      </trkpt>
      <trkpt lat="43.5363310" lon="-5.6901330">
        <ele>7.0</ele>
        <time>2021-07-20T11:35:22Z</time>
      </trkpt>
      <trkpt lat="43.5363600" lon="-5.6901990">
        <ele>7.0</ele>
        <time>2021-07-20T11:35:25Z</time>
      </trkpt>
      <trkpt lat="43.5363890" lon="-5.6902360">
        <ele>7.0</ele>
        <time>2021-07-20T11:35:27Z</time>
      </trkpt>
      <trkpt lat="43.5364500" lon="-5.6902990">
        <ele>7.4</ele>
        <time>2021-07-20T11:35:30Z</time>
      </trkpt>
      <trkpt lat="43.5364700" lon="-5.6903250">
        <ele>7.8</ele>
        <time>2021-07-20T11:35:31Z</time>
      </trkpt>
      <trkpt lat="43.5364870" lon="-5.6903560">
        <ele>8.2</ele>
        <time>2021-07-20T11:35:32Z</time>
      </trkpt>
      <trkpt lat="43.5365050" lon="-5.6903900">
        <ele>8.6</ele>
        <time>2021-07-20T11:35:33Z</time>
      </trkpt>
      <trkpt lat="43.5365300" lon="-5.6904230">
        <ele>9.2</ele>
        <time>2021-07-20T11:35:34Z</time>
      </trkpt>
      <trkpt lat="43.5365990" lon="-5.6905210">
        <ele>9.2</ele>
        <time>2021-07-20T11:35:37Z</time>
      </trkpt>
      <trkpt lat="43.5367540" lon="-5.6906810">
        <ele>9.2</ele>
        <time>2021-07-20T11:35:42Z</time>
      </trkpt>
      <trkpt lat="43.5369720" lon="-5.6908730">
        <ele>9.2</ele>
        <time>2021-07-20T11:35:48Z</time>
      </trkpt>
      <trkpt lat="43.5370080" lon="-5.6908990">
        <ele>9.2</ele>
        <time>2021-07-20T11:35:49Z</time>
      </trkpt>
      <trkpt lat="43.5371400" lon="-5.6910170">
        <ele>9.2</ele>
        <time>2021-07-20T11:35:53Z</time>
      </trkpt>
      <trkpt lat="43.5371820" lon="-5.6910470">
        <ele>9.2</ele>
        <time>2021-07-20T11:35:54Z</time>
      </trkpt>
      <trkpt lat="43.5372980" lon="-5.6911370">
        <ele>8.6</ele>
        <time>2021-07-20T11:35:57Z</time>
      </trkpt>
      <trkpt lat="43.5373480" lon="-5.6911690">
        <ele>8.2</ele>
        <time>2021-07-20T11:35:58Z</time>
      </trkpt>
      <trkpt lat="43.5373780" lon="-5.6911960">
        <ele>7.8</ele>
        <time>2021-07-20T11:35:59Z</time>
      </trkpt>
      <trkpt lat="43.5374110" lon="-5.6912250">
        <ele>7.4</ele>
        <time>2021-07-20T11:36:00Z</time>
      </trkpt>
      <trkpt lat="43.5374490" lon="-5.6912550">
        <ele>7.0</ele>
        <time>2021-07-20T11:36:01Z</time>
      </trkpt>
      <trkpt lat="43.5375220" lon="-5.6913160">
        <ele>7.0</ele>
        <time>2021-07-20T11:36:03Z</time>
      </trkpt>
      <trkpt lat="43.5375490" lon="-5.6913480">
        <ele>7.0</ele>
        <time>2021-07-20T11:36:04Z</time>
      </trkpt>
      <trkpt lat="43.5375880" lon="-5.6913930">
        <ele>7.0</ele>
        <time>2021-07-20T11:36:06Z</time>
      </trkpt>
      <trkpt lat="43.5376080" lon="-5.6914180">
        <ele>7.0</ele>
        <time>2021-07-20T11:36:08Z</time>
      </trkpt>
      <trkpt lat="43.5376550" lon="-5.6914330">
        <ele>7.0</ele>
        <time>2021-07-20T11:36:10Z</time>
      </trkpt>
      <trkpt lat="43.5377740" lon="-5.6915130">
        <ele>7.0</ele>
        <time>2021-07-20T11:36:14Z</time>
      </trkpt>
      <trkpt lat="43.5378510" lon="-5.6915850">
        <ele>7.0</ele>
        <time>2021-07-20T11:36:17Z</time>
      </trkpt>
      <trkpt lat="43.5378770" lon="-5.6916070">
        <ele>6.6</ele>
        <time>2021-07-20T11:36:18Z</time>
      </trkpt>
      <trkpt lat="43.5379040" lon="-5.6916300">
        <ele>6.2</ele>
        <time>2021-07-20T11:36:19Z</time>
      </trkpt>
      <trkpt lat="43.5379280" lon="-5.6916500">
        <ele>5.8</ele>
        <time>2021-07-20T11:36:20Z</time>
      </trkpt>
      <trkpt lat="43.5379520" lon="-5.6916730">
        <ele>5.4</ele>
        <time>2021-07-20T11:36:21Z</time>
      </trkpt>
      <trkpt lat="43.5379740" lon="-5.6916960">
        <ele>5.0</ele>
        <time>2021-07-20T11:36:22Z</time>
      </trkpt>
      <trkpt lat="43.5380480" lon="-5.6917660">
        <ele>5.0</ele>
        <time>2021-07-20T11:36:25Z</time>
      </trkpt>
      <trkpt lat="43.5380710" lon="-5.6917920">
        <ele>5.0</ele>
        <time>2021-07-20T11:36:26Z</time>
      </trkpt>
      <trkpt lat="43.5383570" lon="-5.6919700">
        <ele>5.0</ele>
        <time>2021-07-20T11:36:33Z</time>
      </trkpt>
      <trkpt lat="43.5385940" lon="-5.6921710">
        <ele>4.6</ele>
        <time>2021-07-20T11:36:40Z</time>
      </trkpt>
      <trkpt lat="43.5386170" lon="-5.6921880">
        <ele>4.2</ele>
        <time>2021-07-20T11:36:41Z</time>
      </trkpt>
      <trkpt lat="43.5386320" lon="-5.6921940">
        <ele>3.8</ele>
        <time>2021-07-20T11:36:42Z</time>
      </trkpt>
      <trkpt lat="43.5386460" lon="-5.6921900">
        <ele>3.4</ele>
        <time>2021-07-20T11:36:43Z</time>
      </trkpt>
      <trkpt lat="43.5386560" lon="-5.6921930">
        <ele>3.0</ele>
        <time>2021-07-20T11:36:44Z</time>
      </trkpt>
      <trkpt lat="43.5386840" lon="-5.6922020">
        <ele>3.0</ele>
        <time>2021-07-20T11:36:47Z</time>
      </trkpt>
      <trkpt lat="43.5386910" lon="-5.6922040">
        <ele>3.0</ele>
        <time>2021-07-20T11:37:10Z</time>
      </trkpt>
      <trkpt lat="43.5386890" lon="-5.6922400">
        <ele>3.0</ele>
        <time>2021-07-20T11:37:12Z</time>
      </trkpt>
      <trkpt lat="43.5387070" lon="-5.6922770">
        <ele>3.0</ele>
        <time>2021-07-20T11:37:14Z</time>
      </trkpt>
      <trkpt lat="43.5387350" lon="-5.6922940">
        <ele>3.0</ele>
        <time>2021-07-20T11:37:16Z</time>
      </trkpt>
      <trkpt lat="43.5388240" lon="-5.6923890">
        <ele>3.0</ele>
        <time>2021-07-20T11:37:19Z</time>
      </trkpt>
      <trkpt lat="43.5388530" lon="-5.6924210">
        <ele>3.0</ele>
        <time>2021-07-20T11:37:20Z</time>
      </trkpt>
      <trkpt lat="43.5389720" lon="-5.6925380">
        <ele>3.0</ele>
        <time>2021-07-20T11:37:24Z</time>
      </trkpt>
      <trkpt lat="43.5390850" lon="-5.6926140">
        <ele>3.0</ele>
        <time>2021-07-20T11:37:27Z</time>
      </trkpt>
      <trkpt lat="43.5392730" lon="-5.6927350">
        <ele>3.0</ele>
        <time>2021-07-20T11:37:32Z</time>
      </trkpt>
      <trkpt lat="43.5393390" lon="-5.6927850">
        <ele>3.0</ele>
        <time>2021-07-20T11:37:34Z</time>
      </trkpt>
      <trkpt lat="43.5394180" lon="-5.6929660">
        <ele>3.0</ele>
        <time>2021-07-20T11:37:38Z</time>
      </trkpt>
      <trkpt lat="43.5394800" lon="-5.6931110">
        <ele>2.6</ele>
        <time>2021-07-20T11:37:41Z</time>
      </trkpt>
      <trkpt lat="43.5394970" lon="-5.6931480">
        <ele>2.0</ele>
        <time>2021-07-20T11:37:42Z</time>
      </trkpt>
      <trkpt lat="43.5395130" lon="-5.6931660">
        <ele>1.6</ele>
        <time>2021-07-20T11:37:43Z</time>
      </trkpt>
      <trkpt lat="43.5395240" lon="-5.6931790">
        <ele>1.2</ele>
        <time>2021-07-20T11:37:44Z</time>
      </trkpt>
      <trkpt lat="43.5395250" lon="-5.6931950">
        <ele>0.8</ele>
        <time>2021-07-20T11:37:45Z</time>
      </trkpt>
      <trkpt lat="43.5395480" lon="-5.6931870">
        <ele>0.8</ele>
        <time>2021-07-20T11:37:48Z</time>
      </trkpt>
      <trkpt lat="43.5396370" lon="-5.6932690">
        <ele>0.8</ele>
        <time>2021-07-20T11:38:45Z</time>
      </trkpt>
      <trkpt lat="43.5396590" lon="-5.6932840">
        <ele>0.8</ele>
        <time>2021-07-20T11:38:46Z</time>
      </trkpt>
      <trkpt lat="43.5397090" lon="-5.6933010">
        <ele>0.8</ele>
        <time>2021-07-20T11:38:48Z</time>
      </trkpt>
      <trkpt lat="43.5397510" lon="-5.6932900">
        <ele>0.8</ele>
        <time>2021-07-20T11:38:50Z</time>
      </trkpt>
      <trkpt lat="43.5397920" lon="-5.6932630">
        <ele>0.8</ele>
        <time>2021-07-20T11:38:52Z</time>
      </trkpt>
      <trkpt lat="43.5398640" lon="-5.6932690">
        <ele>0.8</ele>
        <time>2021-07-20T11:38:55Z</time>
      </trkpt>
      <trkpt lat="43.5398920" lon="-5.6932780">
        <ele>0.8</ele>
        <time>2021-07-20T11:38:56Z</time>
      </trkpt>
      <trkpt lat="43.5399200" lon="-5.6932920">
        <ele>0.8</ele>
        <time>2021-07-20T11:38:57Z</time>
      </trkpt>
      <trkpt lat="43.5400470" lon="-5.6933980">
        <ele>0.8</ele>
        <time>2021-07-20T11:39:03Z</time>
      </trkpt>
      <trkpt lat="43.5401300" lon="-5.6934980">
        <ele>0.8</ele>
        <time>2021-07-20T11:39:08Z</time>
      </trkpt>
      <trkpt lat="43.5402280" lon="-5.6937060">
        <ele>0.8</ele>
        <time>2021-07-20T11:39:14Z</time>
      </trkpt>
      <trkpt lat="43.5403750" lon="-5.6939110">
        <ele>0.8</ele>
        <time>2021-07-20T11:39:17Z</time>
      </trkpt>
      <trkpt lat="43.5404200" lon="-5.6939640">
        <ele>0.8</ele>
        <time>2021-07-20T11:39:18Z</time>
      </trkpt>
      <trkpt lat="43.5405530" lon="-5.6941080">
        <ele>0.8</ele>
        <time>2021-07-20T11:39:21Z</time>
      </trkpt>
      <trkpt lat="43.5406440" lon="-5.6942030">
        <ele>0.8</ele>
        <time>2021-07-20T11:39:23Z</time>
      </trkpt>
      <trkpt lat="43.5406890" lon="-5.6942440">
        <ele>0.8</ele>
        <time>2021-07-20T11:39:24Z</time>
      </trkpt>
      <trkpt lat="43.5408210" lon="-5.6943010">
        <ele>0.8</ele>
        <time>2021-07-20T11:39:27Z</time>
      </trkpt>
      <trkpt lat="43.5410350" lon="-5.6943930">
        <ele>0.8</ele>
        <time>2021-07-20T11:39:32Z</time>
      </trkpt>
      <trkpt lat="43.5410780" lon="-5.6944200">
        <ele>0.8</ele>
        <time>2021-07-20T11:39:33Z</time>
      </trkpt>
      <trkpt lat="43.5412740" lon="-5.6945840">
        <ele>0.8</ele>
        <time>2021-07-20T11:39:38Z</time>
      </trkpt>
      <trkpt lat="43.5413950" lon="-5.6947000">
        <ele>0.8</ele>
        <time>2021-07-20T11:39:41Z</time>
      </trkpt>
      <trkpt lat="43.5415130" lon="-5.6947900">
        <ele>0.8</ele>
        <time>2021-07-20T11:39:44Z</time>
      </trkpt>
      <trkpt lat="43.5416460" lon="-5.6948510">
        <ele>0.8</ele>
        <time>2021-07-20T11:39:47Z</time>
      </trkpt>
      <trkpt lat="43.5416900" lon="-5.6948750">
        <ele>0.8</ele>
        <time>2021-07-20T11:39:48Z</time>
      </trkpt>
      <trkpt lat="43.5417740" lon="-5.6949460">
        <ele>0.8</ele>
        <time>2021-07-20T11:39:50Z</time>
      </trkpt>
      <trkpt lat="43.5418120" lon="-5.6949920">
        <ele>0.4</ele>
        <time>2021-07-20T11:39:51Z</time>
      </trkpt>
      <trkpt lat="43.5418460" lon="-5.6950380">
        <ele>0.0</ele>
        <time>2021-07-20T11:39:52Z</time>
      </trkpt>
      <trkpt lat="43.5418760" lon="-5.6950750">
        <ele>-0.6</ele>
        <time>2021-07-20T11:39:53Z</time>
      </trkpt>
      <trkpt lat="43.5419010" lon="-5.6951000">
        <ele>-1.0</ele>
        <time>2021-07-20T11:39:54Z</time>
      </trkpt>
      <trkpt lat="43.5419240" lon="-5.6951180">
        <ele>-1.4</ele>
        <time>2021-07-20T11:39:55Z</time>
      </trkpt>
      <trkpt lat="43.5419690" lon="-5.6951540">
        <ele>-1.4</ele>
        <time>2021-07-20T11:39:58Z</time>
      </trkpt>
      <trkpt lat="43.5419920" lon="-5.6951690">
        <ele>-1.4</ele>
        <time>2021-07-20T11:40:01Z</time>
      </trkpt>
      <trkpt lat="43.5420170" lon="-5.6951950">
        <ele>-1.4</ele>
        <time>2021-07-20T11:40:09Z</time>
      </trkpt>
      <trkpt lat="43.5420520" lon="-5.6952340">
        <ele>-1.4</ele>
        <time>2021-07-20T11:40:11Z</time>
      </trkpt>
      <trkpt lat="43.5421460" lon="-5.6952930">
        <ele>-1.4</ele>
        <time>2021-07-20T11:40:14Z</time>
      </trkpt>
      <trkpt lat="43.5421770" lon="-5.6952960">
        <ele>-1.4</ele>
        <time>2021-07-20T11:40:15Z</time>
      </trkpt>
      <trkpt lat="43.5422810" lon="-5.6953410">
        <ele>-1.4</ele>
        <time>2021-07-20T11:40:18Z</time>
      </trkpt>
      <trkpt lat="43.5423170" lon="-5.6953700">
        <ele>-1.4</ele>
        <time>2021-07-20T11:40:19Z</time>
      </trkpt>
      <trkpt lat="43.5423980" lon="-5.6954340">
        <ele>-1.4</ele>
        <time>2021-07-20T11:40:21Z</time>
      </trkpt>
      <trkpt lat="43.5424710" lon="-5.6954880">
        <ele>-1.4</ele>
        <time>2021-07-20T11:40:23Z</time>
      </trkpt>
      <trkpt lat="43.5425430" lon="-5.6955480">
        <ele>-1.4</ele>
        <time>2021-07-20T11:40:25Z</time>
      </trkpt>
      <trkpt lat="43.5426530" lon="-5.6956480">
        <ele>-1.4</ele>
        <time>2021-07-20T11:40:28Z</time>
      </trkpt>
      <trkpt lat="43.5427620" lon="-5.6957400">
        <ele>-1.4</ele>
        <time>2021-07-20T11:40:31Z</time>
      </trkpt>
      <trkpt lat="43.5429030" lon="-5.6958740">
        <ele>-1.4</ele>
        <time>2021-07-20T11:40:35Z</time>
      </trkpt>
      <trkpt lat="43.5430000" lon="-5.6959840">
        <ele>-1.4</ele>
        <time>2021-07-20T11:40:38Z</time>
      </trkpt>
      <trkpt lat="43.5431180" lon="-5.6961870">
        <ele>-1.4</ele>
        <time>2021-07-20T11:40:43Z</time>
      </trkpt>
      <trkpt lat="43.5431350" lon="-5.6962290">
        <ele>-1.4</ele>
        <time>2021-07-20T11:40:44Z</time>
      </trkpt>
      <trkpt lat="43.5431980" lon="-5.6964230">
        <ele>-1.4</ele>
        <time>2021-07-20T11:40:48Z</time>
      </trkpt>
      <trkpt lat="43.5432760" lon="-5.6966250">
        <ele>-1.4</ele>
        <time>2021-07-20T11:40:52Z</time>
      </trkpt>
      <trkpt lat="43.5434350" lon="-5.6968320">
        <ele>-1.4</ele>
        <time>2021-07-20T11:40:58Z</time>
      </trkpt>
      <trkpt lat="43.5434960" lon="-5.6968700">
        <ele>-1.4</ele>
        <time>2021-07-20T11:41:01Z</time>
      </trkpt>
      <trkpt lat="43.5435220" lon="-5.6968870">
        <ele>-1.4</ele>
        <time>2021-07-20T11:41:03Z</time>
      </trkpt>
      <trkpt lat="43.5435250" lon="-5.6968880">
        <ele>-1.4</ele>
        <time>2021-07-20T11:41:04Z</time>
      </trkpt>
      <trkpt lat="43.5435450" lon="-5.6968980">
        <ele>-1.4</ele>
        <time>2021-07-20T11:41:09Z</time>
      </trkpt>
      <trkpt lat="43.5435690" lon="-5.6969090">
        <ele>-1.4</ele>
        <time>2021-07-20T11:41:10Z</time>
      </trkpt>
      <trkpt lat="43.5436000" lon="-5.6969110">
        <ele>-1.4</ele>
        <time>2021-07-20T11:41:11Z</time>
      </trkpt>
      <trkpt lat="43.5436830" lon="-5.6969120">
        <ele>-1.4</ele>
        <time>2021-07-20T11:41:13Z</time>
      </trkpt>
      <trkpt lat="43.5437740" lon="-5.6969080">
        <ele>-1.4</ele>
        <time>2021-07-20T11:41:15Z</time>
      </trkpt>
      <trkpt lat="43.5438980" lon="-5.6968560">
        <ele>-1.4</ele>
        <time>2021-07-20T11:41:18Z</time>
      </trkpt>
      <trkpt lat="43.5439840" lon="-5.6968080">
        <ele>-1.4</ele>
        <time>2021-07-20T11:41:22Z</time>
      </trkpt>
      <trkpt lat="43.5439980" lon="-5.6967900">
        <ele>-1.8</ele>
        <time>2021-07-20T11:41:23Z</time>
      </trkpt>
      <trkpt lat="43.5440100" lon="-5.6967730">
        <ele>-2.8</ele>
        <time>2021-07-20T11:41:24Z</time>
      </trkpt>
      <trkpt lat="43.5440170" lon="-5.6967540">
        <ele>-3.2</ele>
        <time>2021-07-20T11:41:25Z</time>
      </trkpt>
      <trkpt lat="43.5440170" lon="-5.6967360">
        <ele>-3.6</ele>
        <time>2021-07-20T11:41:26Z</time>
      </trkpt>
      <trkpt lat="43.5440140" lon="-5.6967160">
        <ele>-3.6</ele>
        <time>2021-07-20T11:41:27Z</time>
      </trkpt>
      <trkpt lat="43.5440110" lon="-5.6967050">
        <ele>-3.6</ele>
        <time>2021-07-20T11:41:29Z</time>
      </trkpt>
      <trkpt lat="43.5440080" lon="-5.6966750">
        <ele>-3.6</ele>
        <time>2021-07-20T11:41:32Z</time>
      </trkpt>
      <trkpt lat="43.5440060" lon="-5.6966510">
        <ele>-3.6</ele>
        <time>2021-07-20T11:41:33Z</time>
      </trkpt>
      <trkpt lat="43.5440300" lon="-5.6964770">
        <ele>-3.6</ele>
        <time>2021-07-20T11:41:37Z</time>
      </trkpt>
      <trkpt lat="43.5440630" lon="-5.6963690">
        <ele>-3.6</ele>
        <time>2021-07-20T11:41:39Z</time>
      </trkpt>
      <trkpt lat="43.5440780" lon="-5.6962050">
        <ele>-3.6</ele>
        <time>2021-07-20T11:41:42Z</time>
      </trkpt>
      <trkpt lat="43.5440180" lon="-5.6959360">
        <ele>-3.6</ele>
        <time>2021-07-20T11:41:48Z</time>
      </trkpt>
      <trkpt lat="43.5439760" lon="-5.6958650">
        <ele>-3.6</ele>
        <time>2021-07-20T11:41:50Z</time>
      </trkpt>
      <trkpt lat="43.5439170" lon="-5.6957560">
        <ele>-3.6</ele>
        <time>2021-07-20T11:41:54Z</time>
      </trkpt>
      <trkpt lat="43.5439470" lon="-5.6957170">
        <ele>-3.6</ele>
        <time>2021-07-20T11:41:56Z</time>
      </trkpt>
      <trkpt lat="43.5439720" lon="-5.6957170">
        <ele>-3.6</ele>
        <time>2021-07-20T11:41:57Z</time>
      </trkpt>
      <trkpt lat="43.5440890" lon="-5.6958180">
        <ele>-3.6</ele>
        <time>2021-07-20T11:42:01Z</time>
      </trkpt>
      <trkpt lat="43.5441960" lon="-5.6958790">
        <ele>-3.6</ele>
        <time>2021-07-20T11:42:04Z</time>
      </trkpt>
      <trkpt lat="43.5442750" lon="-5.6959030">
        <ele>-3.6</ele>
        <time>2021-07-20T11:42:06Z</time>
      </trkpt>
      <trkpt lat="43.5443160" lon="-5.6958970">
        <ele>-3.6</ele>
        <time>2021-07-20T11:42:07Z</time>
      </trkpt>
      <trkpt lat="43.5444740" lon="-5.6958690">
        <ele>-3.6</ele>
        <time>2021-07-20T11:42:11Z</time>
      </trkpt>
      <trkpt lat="43.5445500" lon="-5.6958470">
        <ele>-3.6</ele>
        <time>2021-07-20T11:42:13Z</time>
      </trkpt>
      <trkpt lat="43.5446560" lon="-5.6957910">
        <ele>-3.6</ele>
        <time>2021-07-20T11:42:16Z</time>
      </trkpt>
      <trkpt lat="43.5447150" lon="-5.6957460">
        <ele>-3.6</ele>
        <time>2021-07-20T11:42:18Z</time>
      </trkpt>
      <trkpt lat="43.5447420" lon="-5.6957280">
        <ele>-3.6</ele>
        <time>2021-07-20T11:42:19Z</time>
      </trkpt>
      <trkpt lat="43.5448100" lon="-5.6956750">
        <ele>-3.6</ele>
        <time>2021-07-20T11:42:22Z</time>
      </trkpt>
      <trkpt lat="43.5448520" lon="-5.6956490">
        <ele>-3.6</ele>
        <time>2021-07-20T11:42:24Z</time>
      </trkpt>
      <trkpt lat="43.5449930" lon="-5.6955480">
        <ele>-3.6</ele>
        <time>2021-07-20T11:42:29Z</time>
      </trkpt>
      <trkpt lat="43.5450550" lon="-5.6955010">
        <ele>-3.6</ele>
        <time>2021-07-20T11:42:31Z</time>
      </trkpt>
      <trkpt lat="43.5452030" lon="-5.6953880">
        <ele>-3.6</ele>
        <time>2021-07-20T11:42:36Z</time>
      </trkpt>
      <trkpt lat="43.5452690" lon="-5.6953370">
        <ele>-3.6</ele>
        <time>2021-07-20T11:42:40Z</time>
      </trkpt>
      <trkpt lat="43.5453350" lon="-5.6952930">
        <ele>-3.6</ele>
        <time>2021-07-20T11:42:44Z</time>
      </trkpt>
      <trkpt lat="43.5453590" lon="-5.6952780">
        <ele>-3.6</ele>
        <time>2021-07-20T11:42:45Z</time>
      </trkpt>
      <trkpt lat="43.5454320" lon="-5.6952160">
        <ele>-3.6</ele>
        <time>2021-07-20T11:42:48Z</time>
      </trkpt>
      <trkpt lat="43.5454880" lon="-5.6951850">
        <ele>-3.6</ele>
        <time>2021-07-20T11:42:51Z</time>
      </trkpt>
      <trkpt lat="43.5454940" lon="-5.6951820">
        <ele>-3.6</ele>
        <time>2021-07-20T11:42:53Z</time>
      </trkpt>
      <trkpt lat="43.5454960" lon="-5.6952070">
        <ele>-3.6</ele>
        <time>2021-07-20T11:46:09Z</time>
      </trkpt>
      <trkpt lat="43.5454980" lon="-5.6952260">
        <ele>-3.6</ele>
        <time>2021-07-20T11:46:10Z</time>
      </trkpt>
      <trkpt lat="43.5454590" lon="-5.6953060">
        <ele>-3.6</ele>
        <time>2021-07-20T11:46:13Z</time>
      </trkpt>
      <trkpt lat="43.5454350" lon="-5.6953350">
        <ele>-3.6</ele>
        <time>2021-07-20T11:46:14Z</time>
      </trkpt>
      <trkpt lat="43.5453620" lon="-5.6954360">
        <ele>-3.6</ele>
        <time>2021-07-20T11:46:17Z</time>
      </trkpt>
      <trkpt lat="43.5453390" lon="-5.6954840">
        <ele>-3.6</ele>
        <time>2021-07-20T11:46:18Z</time>
      </trkpt>
      <trkpt lat="43.5453180" lon="-5.6955280">
        <ele>-3.6</ele>
        <time>2021-07-20T11:46:19Z</time>
      </trkpt>
      <trkpt lat="43.5452630" lon="-5.6956160">
        <ele>-3.6</ele>
        <time>2021-07-20T11:46:21Z</time>
      </trkpt>
      <trkpt lat="43.5451920" lon="-5.6956830">
        <ele>-3.6</ele>
        <time>2021-07-20T11:46:23Z</time>
      </trkpt>
      <trkpt lat="43.5449270" lon="-5.6958890">
        <ele>-3.6</ele>
        <time>2021-07-20T11:46:30Z</time>
      </trkpt>
      <trkpt lat="43.5448120" lon="-5.6959760">
        <ele>-3.6</ele>
        <time>2021-07-20T11:46:33Z</time>
      </trkpt>
      <trkpt lat="43.5447050" lon="-5.6960550">
        <ele>-3.6</ele>
        <time>2021-07-20T11:46:36Z</time>
      </trkpt>
      <trkpt lat="43.5445070" lon="-5.6961960">
        <ele>-3.6</ele>
        <time>2021-07-20T11:46:41Z</time>
      </trkpt>
      <trkpt lat="43.5443940" lon="-5.6962860">
        <ele>-3.6</ele>
        <time>2021-07-20T11:46:44Z</time>
      </trkpt>
      <trkpt lat="43.5443090" lon="-5.6964340">
        <ele>-3.6</ele>
        <time>2021-07-20T11:46:48Z</time>
      </trkpt>
      <trkpt lat="43.5442940" lon="-5.6965160">
        <ele>-3.6</ele>
        <time>2021-07-20T11:46:51Z</time>
      </trkpt>
      <trkpt lat="43.5442940" lon="-5.6965310">
        <ele>-3.6</ele>
        <time>2021-07-20T11:46:52Z</time>
      </trkpt>
      <trkpt lat="43.5442950" lon="-5.6965350">
        <ele>-3.6</ele>
        <time>2021-07-20T11:46:53Z</time>
      </trkpt>
      <trkpt lat="43.5442680" lon="-5.6965860">
        <ele>-3.6</ele>
        <time>2021-07-20T11:46:58Z</time>
      </trkpt>
      <trkpt lat="43.5442490" lon="-5.6966060">
        <ele>-3.6</ele>
        <time>2021-07-20T11:46:59Z</time>
      </trkpt>
      <trkpt lat="43.5441330" lon="-5.6966460">
        <ele>-3.6</ele>
        <time>2021-07-20T11:47:03Z</time>
      </trkpt>
      <trkpt lat="43.5440590" lon="-5.6966730">
        <ele>-3.6</ele>
        <time>2021-07-20T11:47:07Z</time>
      </trkpt>
      <trkpt lat="43.5440170" lon="-5.6967300">
        <ele>-3.6</ele>
        <time>2021-07-20T11:47:09Z</time>
      </trkpt>
      <trkpt lat="43.5440010" lon="-5.6968080">
        <ele>-3.6</ele>
        <time>2021-07-20T11:47:11Z</time>
      </trkpt>
      <trkpt lat="43.5439050" lon="-5.6968810">
        <ele>-3.6</ele>
        <time>2021-07-20T11:47:15Z</time>
      </trkpt>
      <trkpt lat="43.5437660" lon="-5.6969390">
        <ele>-3.6</ele>
        <time>2021-07-20T11:47:19Z</time>
      </trkpt>
      <trkpt lat="43.5437310" lon="-5.6969480">
        <ele>-3.6</ele>
        <time>2021-07-20T11:47:20Z</time>
      </trkpt>
      <trkpt lat="43.5436220" lon="-5.6969800">
        <ele>-3.6</ele>
        <time>2021-07-20T11:47:23Z</time>
      </trkpt>
      <trkpt lat="43.5435640" lon="-5.6970480">
        <ele>-3.6</ele>
        <time>2021-07-20T11:47:25Z</time>
      </trkpt>
      <trkpt lat="43.5434520" lon="-5.6972070">
        <ele>-3.6</ele>
        <time>2021-07-20T11:47:29Z</time>
      </trkpt>
      <trkpt lat="43.5433620" lon="-5.6973180">
        <ele>-3.2</ele>
        <time>2021-07-20T11:47:32Z</time>
      </trkpt>
      <trkpt lat="43.5433320" lon="-5.6973570">
        <ele>-2.8</ele>
        <time>2021-07-20T11:47:33Z</time>
      </trkpt>
      <trkpt lat="43.5433010" lon="-5.6973950">
        <ele>-1.8</ele>
        <time>2021-07-20T11:47:34Z</time>
      </trkpt>
      <trkpt lat="43.5432710" lon="-5.6974340">
        <ele>-1.4</ele>
        <time>2021-07-20T11:47:35Z</time>
      </trkpt>
      <trkpt lat="43.5431230" lon="-5.6976220">
        <ele>-1.4</ele>
        <time>2021-07-20T11:47:40Z</time>
      </trkpt>
      <trkpt lat="43.5429980" lon="-5.6977750">
        <ele>-1.4</ele>
        <time>2021-07-20T11:47:44Z</time>
      </trkpt>
      <trkpt lat="43.5427200" lon="-5.6981300">
        <ele>-1.4</ele>
        <time>2021-07-20T11:47:53Z</time>
      </trkpt>
      <trkpt lat="43.5426320" lon="-5.6982510">
        <ele>-1.0</ele>
        <time>2021-07-20T11:47:56Z</time>
      </trkpt>
      <trkpt lat="43.5426060" lon="-5.6982910">
        <ele>-0.6</ele>
        <time>2021-07-20T11:47:57Z</time>
      </trkpt>
      <trkpt lat="43.5425820" lon="-5.6983340">
        <ele>-0.2</ele>
        <time>2021-07-20T11:47:58Z</time>
      </trkpt>
      <trkpt lat="43.5425590" lon="-5.6983800">
        <ele>0.6</ele>
        <time>2021-07-20T11:47:59Z</time>
      </trkpt>
      <trkpt lat="43.5425350" lon="-5.6984270">
        <ele>0.6</ele>
        <time>2021-07-20T11:48:00Z</time>
      </trkpt>
      <trkpt lat="43.5424910" lon="-5.6985250">
        <ele>0.6</ele>
        <time>2021-07-20T11:48:02Z</time>
      </trkpt>
      <trkpt lat="43.5423990" lon="-5.6987900">
        <ele>0.6</ele>
        <time>2021-07-20T11:48:07Z</time>
      </trkpt>
      <trkpt lat="43.5422180" lon="-5.6992030">
        <ele>0.6</ele>
        <time>2021-07-20T11:48:15Z</time>
      </trkpt>
      <trkpt lat="43.5420920" lon="-5.6995440">
        <ele>0.6</ele>
        <time>2021-07-20T11:48:22Z</time>
      </trkpt>
      <trkpt lat="43.5419950" lon="-5.6998610">
        <ele>0.6</ele>
        <time>2021-07-20T11:48:28Z</time>
      </trkpt>
      <trkpt lat="43.5419830" lon="-5.6999170">
        <ele>0.6</ele>
        <time>2021-07-20T11:48:29Z</time>
      </trkpt>
      <trkpt lat="43.5419120" lon="-5.7002580">
        <ele>0.6</ele>
        <time>2021-07-20T11:48:35Z</time>
      </trkpt>
      <trkpt lat="43.5418640" lon="-5.7004740">
        <ele>0.6</ele>
        <time>2021-07-20T11:48:39Z</time>
      </trkpt>
      <trkpt lat="43.5418290" lon="-5.7006400">
        <ele>0.6</ele>
        <time>2021-07-20T11:48:42Z</time>
      </trkpt>
      <trkpt lat="43.5417530" lon="-5.7010220">
        <ele>0.6</ele>
        <time>2021-07-20T11:48:49Z</time>
      </trkpt>
      <trkpt lat="43.5416190" lon="-5.7014720">
        <ele>0.6</ele>
        <time>2021-07-20T11:48:57Z</time>
      </trkpt>
      <trkpt lat="43.5415840" lon="-5.7017110">
        <ele>0.6</ele>
        <time>2021-07-20T11:49:01Z</time>
      </trkpt>
      <trkpt lat="43.5415650" lon="-5.7018920">
        <ele>0.6</ele>
        <time>2021-07-20T11:49:04Z</time>
      </trkpt>
      <trkpt lat="43.5415050" lon="-5.7023240">
        <ele>0.6</ele>
        <time>2021-07-20T11:49:11Z</time>
      </trkpt>
      <trkpt lat="43.5414460" lon="-5.7028010">
        <ele>0.6</ele>
        <time>2021-07-20T11:49:19Z</time>
      </trkpt>
      <trkpt lat="43.5414370" lon="-5.7030390">
        <ele>0.6</ele>
        <time>2021-07-20T11:49:23Z</time>
      </trkpt>
      <trkpt lat="43.5414270" lon="-5.7031570">
        <ele>0.6</ele>
        <time>2021-07-20T11:49:25Z</time>
      </trkpt>
      <trkpt lat="43.5414230" lon="-5.7032180">
        <ele>1.0</ele>
        <time>2021-07-20T11:49:26Z</time>
      </trkpt>
      <trkpt lat="43.5414130" lon="-5.7032750">
        <ele>1.6</ele>
        <time>2021-07-20T11:49:27Z</time>
      </trkpt>
      <trkpt lat="43.5413980" lon="-5.7033320">
        <ele>2.0</ele>
        <time>2021-07-20T11:49:29Z</time>
      </trkpt>
      <trkpt lat="43.5413840" lon="-5.7033880">
        <ele>2.4</ele>
        <time>2021-07-20T11:49:30Z</time>
      </trkpt>
      <trkpt lat="43.5413750" lon="-5.7034440">
        <ele>2.8</ele>
        <time>2021-07-20T11:49:31Z</time>
      </trkpt>
      <trkpt lat="43.5413650" lon="-5.7035010">
        <ele>2.8</ele>
        <time>2021-07-20T11:49:32Z</time>
      </trkpt>
      <trkpt lat="43.5413060" lon="-5.7039510">
        <ele>2.8</ele>
        <time>2021-07-20T11:49:40Z</time>
      </trkpt>
      <trkpt lat="43.5412530" lon="-5.7043450">
        <ele>2.8</ele>
        <time>2021-07-20T11:49:47Z</time>
      </trkpt>
      <trkpt lat="43.5412360" lon="-5.7044560">
        <ele>2.8</ele>
        <time>2021-07-20T11:49:49Z</time>
      </trkpt>
      <trkpt lat="43.5412060" lon="-5.7046930">
        <ele>2.8</ele>
        <time>2021-07-20T11:49:53Z</time>
      </trkpt>
      <trkpt lat="43.5412010" lon="-5.7047500">
        <ele>2.8</ele>
        <time>2021-07-20T11:49:54Z</time>
      </trkpt>
      <trkpt lat="43.5411830" lon="-5.7048660">
        <ele>2.8</ele>
        <time>2021-07-20T11:49:56Z</time>
      </trkpt>
      <trkpt lat="43.5411670" lon="-5.7049860">
        <ele>2.8</ele>
        <time>2021-07-20T11:49:58Z</time>
      </trkpt>
      <trkpt lat="43.5411020" lon="-5.7054550">
        <ele>2.8</ele>
        <time>2021-07-20T11:50:06Z</time>
      </trkpt>
      <trkpt lat="43.5410810" lon="-5.7058770">
        <ele>2.8</ele>
        <time>2021-07-20T11:50:13Z</time>
      </trkpt>
      <trkpt lat="43.5410710" lon="-5.7059370">
        <ele>2.8</ele>
        <time>2021-07-20T11:50:14Z</time>
      </trkpt>
      <trkpt lat="43.5409860" lon="-5.7065350">
        <ele>2.8</ele>
        <time>2021-07-20T11:50:24Z</time>
      </trkpt>
      <trkpt lat="43.5409780" lon="-5.7065910">
        <ele>3.2</ele>
        <time>2021-07-20T11:50:25Z</time>
      </trkpt>
      <trkpt lat="43.5409740" lon="-5.7066490">
        <ele>3.6</ele>
        <time>2021-07-20T11:50:26Z</time>
      </trkpt>
      <trkpt lat="43.5409660" lon="-5.7067090">
        <ele>4.4</ele>
        <time>2021-07-20T11:50:27Z</time>
      </trkpt>
      <trkpt lat="43.5409600" lon="-5.7067660">
        <ele>4.8</ele>
        <time>2021-07-20T11:50:28Z</time>
      </trkpt>
      <trkpt lat="43.5409340" lon="-5.7069310">
        <ele>4.8</ele>
        <time>2021-07-20T11:50:31Z</time>
      </trkpt>
      <trkpt lat="43.5409040" lon="-5.7071460">
        <ele>4.8</ele>
        <time>2021-07-20T11:50:35Z</time>
      </trkpt>
      <trkpt lat="43.5409000" lon="-5.7072380">
        <ele>4.8</ele>
        <time>2021-07-20T11:50:37Z</time>
      </trkpt>
      <trkpt lat="43.5408110" lon="-5.7074320">
        <ele>4.8</ele>
        <time>2021-07-20T11:50:42Z</time>
      </trkpt>
      <trkpt lat="43.5405230" lon="-5.7075510">
        <ele>4.8</ele>
        <time>2021-07-20T11:50:49Z</time>
      </trkpt>
      <trkpt lat="43.5404770" lon="-5.7075520">
        <ele>4.8</ele>
        <time>2021-07-20T11:50:50Z</time>
      </trkpt>
      <trkpt lat="43.5403570" lon="-5.7075050">
        <ele>4.8</ele>
        <time>2021-07-20T11:50:53Z</time>
      </trkpt>
      <trkpt lat="43.5402730" lon="-5.7074540">
        <ele>4.8</ele>
        <time>2021-07-20T11:50:55Z</time>
      </trkpt>
      <trkpt lat="43.5401480" lon="-5.7073800">
        <ele>4.8</ele>
        <time>2021-07-20T11:50:58Z</time>
      </trkpt>
      <trkpt lat="43.5400680" lon="-5.7073280">
        <ele>4.8</ele>
        <time>2021-07-20T11:51:00Z</time>
      </trkpt>
      <trkpt lat="43.5398770" lon="-5.7071940">
        <ele>4.8</ele>
        <time>2021-07-20T11:51:05Z</time>
      </trkpt>
      <trkpt lat="43.5396970" lon="-5.7070670">
        <ele>4.8</ele>
        <time>2021-07-20T11:51:10Z</time>
      </trkpt>
      <trkpt lat="43.5396630" lon="-5.7070530">
        <ele>4.8</ele>
        <time>2021-07-20T11:51:11Z</time>
      </trkpt>
      <trkpt lat="43.5395390" lon="-5.7070120">
        <ele>4.8</ele>
        <time>2021-07-20T11:51:14Z</time>
      </trkpt>
      <trkpt lat="43.5394400" lon="-5.7069710">
        <ele>4.8</ele>
        <time>2021-07-20T11:51:16Z</time>
      </trkpt>
      <trkpt lat="43.5391530" lon="-5.7068020">
        <ele>4.8</ele>
        <time>2021-07-20T11:51:22Z</time>
      </trkpt>
      <trkpt lat="43.5391100" lon="-5.7067840">
        <ele>4.8</ele>
        <time>2021-07-20T11:51:23Z</time>
      </trkpt>
      <trkpt lat="43.5389850" lon="-5.7067030">
        <ele>4.8</ele>
        <time>2021-07-20T11:51:26Z</time>
      </trkpt>
      <trkpt lat="43.5389010" lon="-5.7066460">
        <ele>4.8</ele>
        <time>2021-07-20T11:51:28Z</time>
      </trkpt>
      <trkpt lat="43.5387400" lon="-5.7064960">
        <ele>4.8</ele>
        <time>2021-07-20T11:51:33Z</time>
      </trkpt>
      <trkpt lat="43.5386950" lon="-5.7064740">
        <ele>4.8</ele>
        <time>2021-07-20T11:51:34Z</time>
      </trkpt>
      <trkpt lat="43.5385180" lon="-5.7063600">
        <ele>4.8</ele>
        <time>2021-07-20T11:51:39Z</time>
      </trkpt>
      <trkpt lat="43.5383590" lon="-5.7063250">
        <ele>4.8</ele>
        <time>2021-07-20T11:51:44Z</time>
      </trkpt>
      <trkpt lat="43.5382220" lon="-5.7062490">
        <ele>4.8</ele>
        <time>2021-07-20T11:51:49Z</time>
      </trkpt>
      <trkpt lat="43.5381970" lon="-5.7062680">
        <ele>4.8</ele>
        <time>2021-07-20T11:51:50Z</time>
      </trkpt>
      <trkpt lat="43.5381760" lon="-5.7063770">
        <ele>4.8</ele>
        <time>2021-07-20T11:51:53Z</time>
      </trkpt>
      <trkpt lat="43.5381700" lon="-5.7064200">
        <ele>4.8</ele>
        <time>2021-07-20T11:51:54Z</time>
      </trkpt>
      <trkpt lat="43.5381560" lon="-5.7065640">
        <ele>5.2</ele>
        <time>2021-07-20T11:51:57Z</time>
      </trkpt>
      <trkpt lat="43.5381520" lon="-5.7066140">
        <ele>5.8</ele>
        <time>2021-07-20T11:51:58Z</time>
      </trkpt>
      <trkpt lat="43.5381440" lon="-5.7066630">
        <ele>6.2</ele>
        <time>2021-07-20T11:51:59Z</time>
      </trkpt>
      <trkpt lat="43.5381370" lon="-5.7067120">
        <ele>6.6</ele>
        <time>2021-07-20T11:52:00Z</time>
      </trkpt>
      <trkpt lat="43.5381320" lon="-5.7067630">
        <ele>7.0</ele>
        <time>2021-07-20T11:52:01Z</time>
      </trkpt>
      <trkpt lat="43.5381180" lon="-5.7069590">
        <ele>7.0</ele>
        <time>2021-07-20T11:52:05Z</time>
      </trkpt>
      <trkpt lat="43.5381120" lon="-5.7070050">
        <ele>7.0</ele>
        <time>2021-07-20T11:52:06Z</time>
      </trkpt>
      <trkpt lat="43.5381140" lon="-5.7071840">
        <ele>7.0</ele>
        <time>2021-07-20T11:52:10Z</time>
      </trkpt>
      <trkpt lat="43.5381090" lon="-5.7072600">
        <ele>7.0</ele>
        <time>2021-07-20T11:52:12Z</time>
      </trkpt>
      <trkpt lat="43.5381030" lon="-5.7073810">
        <ele>7.4</ele>
        <time>2021-07-20T11:52:16Z</time>
      </trkpt>
      <trkpt lat="43.5380980" lon="-5.7074190">
        <ele>7.8</ele>
        <time>2021-07-20T11:52:17Z</time>
      </trkpt>
      <trkpt lat="43.5380930" lon="-5.7074600">
        <ele>8.2</ele>
        <time>2021-07-20T11:52:18Z</time>
      </trkpt>
      <trkpt lat="43.5380890" lon="-5.7075010">
        <ele>8.8</ele>
        <time>2021-07-20T11:52:19Z</time>
      </trkpt>
      <trkpt lat="43.5380880" lon="-5.7075470">
        <ele>9.2</ele>
        <time>2021-07-20T11:52:20Z</time>
      </trkpt>
      <trkpt lat="43.5380800" lon="-5.7076420">
        <ele>9.2</ele>
        <time>2021-07-20T11:52:23Z</time>
      </trkpt>
      <trkpt lat="43.5380750" lon="-5.7077800">
        <ele>9.2</ele>
        <time>2021-07-20T11:52:28Z</time>
      </trkpt>
      <trkpt lat="43.5380700" lon="-5.7080360">
        <ele>9.2</ele>
        <time>2021-07-20T11:52:35Z</time>
      </trkpt>
      <trkpt lat="43.5380770" lon="-5.7080750">
        <ele>9.2</ele>
        <time>2021-07-20T11:52:38Z</time>
      </trkpt>
      <trkpt lat="43.5380760" lon="-5.7080860">
        <ele>9.2</ele>
        <time>2021-07-20T11:52:47Z</time>
      </trkpt>
      <trkpt lat="43.5380500" lon="-5.7082580">
        <ele>9.2</ele>
        <time>2021-07-20T11:52:52Z</time>
      </trkpt>
      <trkpt lat="43.5380360" lon="-5.7083940">
        <ele>9.6</ele>
        <time>2021-07-20T11:52:55Z</time>
      </trkpt>
      <trkpt lat="43.5380290" lon="-5.7084370">
        <ele>10.0</ele>
        <time>2021-07-20T11:52:56Z</time>
      </trkpt>
      <trkpt lat="43.5380290" lon="-5.7084780">
        <ele>10.4</ele>
        <time>2021-07-20T11:52:57Z</time>
      </trkpt>
      <trkpt lat="43.5380220" lon="-5.7085180">
        <ele>10.8</ele>
        <time>2021-07-20T11:52:58Z</time>
      </trkpt>
      <trkpt lat="43.5380140" lon="-5.7085640">
        <ele>11.2</ele>
        <time>2021-07-20T11:52:59Z</time>
      </trkpt>
      <trkpt lat="43.5379090" lon="-5.7088330">
        <ele>11.2</ele>
        <time>2021-07-20T11:53:06Z</time>
      </trkpt>
      <trkpt lat="43.5378670" lon="-5.7090100">
        <ele>11.2</ele>
        <time>2021-07-20T11:53:10Z</time>
      </trkpt>
      <trkpt lat="43.5378490" lon="-5.7091440">
        <ele>11.6</ele>
        <time>2021-07-20T11:53:13Z</time>
      </trkpt>
      <trkpt lat="43.5378570" lon="-5.7091900">
        <ele>12.0</ele>
        <time>2021-07-20T11:53:14Z</time>
      </trkpt>
      <trkpt lat="43.5378700" lon="-5.7092290">
        <ele>12.4</ele>
        <time>2021-07-20T11:53:15Z</time>
      </trkpt>
      <trkpt lat="43.5378770" lon="-5.7092690">
        <ele>12.8</ele>
        <time>2021-07-20T11:53:16Z</time>
      </trkpt>
      <trkpt lat="43.5378800" lon="-5.7093120">
        <ele>13.4</ele>
        <time>2021-07-20T11:53:17Z</time>
      </trkpt>
      <trkpt lat="43.5378700" lon="-5.7094750">
        <ele>13.4</ele>
        <time>2021-07-20T11:53:21Z</time>
      </trkpt>
      <trkpt lat="43.5378310" lon="-5.7096830">
        <ele>13.4</ele>
        <time>2021-07-20T11:53:26Z</time>
      </trkpt>
      <trkpt lat="43.5378090" lon="-5.7097570">
        <ele>13.8</ele>
        <time>2021-07-20T11:53:28Z</time>
      </trkpt>
      <trkpt lat="43.5377990" lon="-5.7097920">
        <ele>14.2</ele>
        <time>2021-07-20T11:53:29Z</time>
      </trkpt>
      <trkpt lat="43.5377920" lon="-5.7098270">
        <ele>14.6</ele>
        <time>2021-07-20T11:53:30Z</time>
      </trkpt>
      <trkpt lat="43.5377870" lon="-5.7098610">
        <ele>15.2</ele>
        <time>2021-07-20T11:53:31Z</time>
      </trkpt>
      <trkpt lat="43.5377820" lon="-5.7098950">
        <ele>15.6</ele>
        <time>2021-07-20T11:53:32Z</time>
      </trkpt>
      <trkpt lat="43.5377350" lon="-5.7101090">
        <ele>15.6</ele>
        <time>2021-07-20T11:53:38Z</time>
      </trkpt>
      <trkpt lat="43.5377180" lon="-5.7102160">
        <ele>16.0</ele>
        <time>2021-07-20T11:53:41Z</time>
      </trkpt>
      <trkpt lat="43.5377130" lon="-5.7102540">
        <ele>16.4</ele>
        <time>2021-07-20T11:53:42Z</time>
      </trkpt>
      <trkpt lat="43.5377080" lon="-5.7102920">
        <ele>16.8</ele>
        <time>2021-07-20T11:53:43Z</time>
      </trkpt>
      <trkpt lat="43.5377030" lon="-5.7103270">
        <ele>17.2</ele>
        <time>2021-07-20T11:53:44Z</time>
      </trkpt>
      <trkpt lat="43.5377030" lon="-5.7103640">
        <ele>17.6</ele>
        <time>2021-07-20T11:53:45Z</time>
      </trkpt>
      <trkpt lat="43.5377010" lon="-5.7104010">
        <ele>17.6</ele>
        <time>2021-07-20T11:53:46Z</time>
      </trkpt>
      <trkpt lat="43.5376920" lon="-5.7104740">
        <ele>18.0</ele>
        <time>2021-07-20T11:53:48Z</time>
      </trkpt>
      <trkpt lat="43.5376870" lon="-5.7105110">
        <ele>18.4</ele>
        <time>2021-07-20T11:53:49Z</time>
      </trkpt>
      <trkpt lat="43.5376840" lon="-5.7105460">
        <ele>19.0</ele>
        <time>2021-07-20T11:53:50Z</time>
      </trkpt>
      <trkpt lat="43.5376790" lon="-5.7105820">
        <ele>19.4</ele>
        <time>2021-07-20T11:53:51Z</time>
      </trkpt>
      <trkpt lat="43.5376730" lon="-5.7106160">
        <ele>19.8</ele>
        <time>2021-07-20T11:53:52Z</time>
      </trkpt>
      <trkpt lat="43.5376650" lon="-5.7106860">
        <ele>19.8</ele>
        <time>2021-07-20T11:53:54Z</time>
      </trkpt>
      <trkpt lat="43.5376160" lon="-5.7109720">
        <ele>19.8</ele>
        <time>2021-07-20T11:54:02Z</time>
      </trkpt>
      <trkpt lat="43.5375850" lon="-5.7112160">
        <ele>20.2</ele>
        <time>2021-07-20T11:54:09Z</time>
      </trkpt>
      <trkpt lat="43.5375770" lon="-5.7112510">
        <ele>20.6</ele>
        <time>2021-07-20T11:54:10Z</time>
      </trkpt>
      <trkpt lat="43.5375690" lon="-5.7112900">
        <ele>21.0</ele>
        <time>2021-07-20T11:54:11Z</time>
      </trkpt>
      <trkpt lat="43.5375610" lon="-5.7113300">
        <ele>21.4</ele>
        <time>2021-07-20T11:54:12Z</time>
      </trkpt>
      <trkpt lat="43.5375540" lon="-5.7113710">
        <ele>21.8</ele>
        <time>2021-07-20T11:54:13Z</time>
      </trkpt>
      <trkpt lat="43.5375370" lon="-5.7114860">
        <ele>21.8</ele>
        <time>2021-07-20T11:54:16Z</time>
      </trkpt>
      <trkpt lat="43.5375040" lon="-5.7117450">
        <ele>21.8</ele>
        <time>2021-07-20T11:54:24Z</time>
      </trkpt>
      <trkpt lat="43.5374660" lon="-5.7119670">
        <ele>21.8</ele>
        <time>2021-07-20T11:54:31Z</time>
      </trkpt>
      <trkpt lat="43.5374760" lon="-5.7119910">
        <ele>21.8</ele>
        <time>2021-07-20T11:54:32Z</time>
      </trkpt>
      <trkpt lat="43.5375240" lon="-5.7120350">
        <ele>21.8</ele>
        <time>2021-07-20T11:54:35Z</time>
      </trkpt>
      <trkpt lat="43.5375550" lon="-5.7120440">
        <ele>22.2</ele>
        <time>2021-07-20T11:54:37Z</time>
      </trkpt>
      <trkpt lat="43.5375680" lon="-5.7120490">
        <ele>22.6</ele>
        <time>2021-07-20T11:54:38Z</time>
      </trkpt>
      <trkpt lat="43.5375830" lon="-5.7120500">
        <ele>23.0</ele>
        <time>2021-07-20T11:54:39Z</time>
      </trkpt>
      <trkpt lat="43.5375950" lon="-5.7120490">
        <ele>23.4</ele>
        <time>2021-07-20T11:54:40Z</time>
      </trkpt>
      <trkpt lat="43.5375930" lon="-5.7120500">
        <ele>23.8</ele>
        <time>2021-07-20T11:54:41Z</time>
      </trkpt>
      <trkpt lat="43.5375830" lon="-5.7120870">
        <ele>23.8</ele>
        <time>2021-07-20T11:54:46Z</time>
      </trkpt>
      <trkpt lat="43.5375680" lon="-5.7121060">
        <ele>23.8</ele>
        <time>2021-07-20T11:54:47Z</time>
      </trkpt>
      <trkpt lat="43.5374380" lon="-5.7121990">
        <ele>23.8</ele>
        <time>2021-07-20T11:54:53Z</time>
      </trkpt>
      <trkpt lat="43.5373770" lon="-5.7123070">
        <ele>23.8</ele>
        <time>2021-07-20T11:54:56Z</time>
      </trkpt>
      <trkpt lat="43.5373700" lon="-5.7123540">
        <ele>23.8</ele>
        <time>2021-07-20T11:54:57Z</time>
      </trkpt>
      <trkpt lat="43.5373440" lon="-5.7124950">
        <ele>23.8</ele>
        <time>2021-07-20T11:55:00Z</time>
      </trkpt>
      <trkpt lat="43.5373010" lon="-5.7127280">
        <ele>23.8</ele>
        <time>2021-07-20T11:55:05Z</time>
      </trkpt>
      <trkpt lat="43.5372230" lon="-5.7130470">
        <ele>23.8</ele>
        <time>2021-07-20T11:55:12Z</time>
      </trkpt>
      <trkpt lat="43.5370740" lon="-5.7133110">
        <ele>23.8</ele>
        <time>2021-07-20T11:55:19Z</time>
      </trkpt>
      <trkpt lat="43.5369990" lon="-5.7134080">
        <ele>23.8</ele>
        <time>2021-07-20T11:55:22Z</time>
      </trkpt>
      <trkpt lat="43.5369110" lon="-5.7135240">
        <ele>23.8</ele>
        <time>2021-07-20T11:55:26Z</time>
      </trkpt>
      <trkpt lat="43.5368680" lon="-5.7135770">
        <ele>23.8</ele>
        <time>2021-07-20T11:55:28Z</time>
      </trkpt>
      <trkpt lat="43.5368050" lon="-5.7136610">
        <ele>23.8</ele>
        <time>2021-07-20T11:55:31Z</time>
      </trkpt>
      <trkpt lat="43.5367870" lon="-5.7136880">
        <ele>23.8</ele>
        <time>2021-07-20T11:55:32Z</time>
      </trkpt>
      <trkpt lat="43.5367530" lon="-5.7137190">
        <ele>23.8</ele>
        <time>2021-07-20T11:55:35Z</time>
      </trkpt>
      <trkpt lat="43.5366980" lon="-5.7137880">
        <ele>23.8</ele>
        <time>2021-07-20T11:55:40Z</time>
      </trkpt>
      <trkpt lat="43.5366230" lon="-5.7138970">
        <ele>23.8</ele>
        <time>2021-07-20T11:55:43Z</time>
      </trkpt>
      <trkpt lat="43.5365700" lon="-5.7139960">
        <ele>23.8</ele>
        <time>2021-07-20T11:55:45Z</time>
      </trkpt>
      <trkpt lat="43.5365020" lon="-5.7141840">
        <ele>23.8</ele>
        <time>2021-07-20T11:55:48Z</time>
      </trkpt>
      <trkpt lat="43.5364610" lon="-5.7143300">
        <ele>23.8</ele>
        <time>2021-07-20T11:55:50Z</time>
      </trkpt>
      <trkpt lat="43.5364210" lon="-5.7145920">
        <ele>23.4</ele>
        <time>2021-07-20T11:55:53Z</time>
      </trkpt>
      <trkpt lat="43.5364190" lon="-5.7146900">
        <ele>23.0</ele>
        <time>2021-07-20T11:55:54Z</time>
      </trkpt>
      <trkpt lat="43.5364210" lon="-5.7147900">
        <ele>22.6</ele>
        <time>2021-07-20T11:55:55Z</time>
      </trkpt>
      <trkpt lat="43.5364250" lon="-5.7148930">
        <ele>22.2</ele>
        <time>2021-07-20T11:55:56Z</time>
      </trkpt>
      <trkpt lat="43.5364330" lon="-5.7149940">
        <ele>21.8</ele>
        <time>2021-07-20T11:55:57Z</time>
      </trkpt>
      <trkpt lat="43.5364560" lon="-5.7151960">
        <ele>21.4</ele>
        <time>2021-07-20T11:55:59Z</time>
      </trkpt>
      <trkpt lat="43.5364660" lon="-5.7152960">
        <ele>20.8</ele>
        <time>2021-07-20T11:56:00Z</time>
      </trkpt>
      <trkpt lat="43.5364760" lon="-5.7153860">
        <ele>20.4</ele>
        <time>2021-07-20T11:56:01Z</time>
      </trkpt>
      <trkpt lat="43.5364860" lon="-5.7154650">
        <ele>20.0</ele>
        <time>2021-07-20T11:56:02Z</time>
      </trkpt>
      <trkpt lat="43.5364960" lon="-5.7155380">
        <ele>19.4</ele>
        <time>2021-07-20T11:56:03Z</time>
      </trkpt>
      <trkpt lat="43.5365060" lon="-5.7156030">
        <ele>19.0</ele>
        <time>2021-07-20T11:56:04Z</time>
      </trkpt>
      <trkpt lat="43.5365150" lon="-5.7156640">
        <ele>18.4</ele>
        <time>2021-07-20T11:56:05Z</time>
      </trkpt>
      <trkpt lat="43.5365240" lon="-5.7157220">
        <ele>17.8</ele>
        <time>2021-07-20T11:56:06Z</time>
      </trkpt>
      <trkpt lat="43.5365380" lon="-5.7157770">
        <ele>17.4</ele>
        <time>2021-07-20T11:56:07Z</time>
      </trkpt>
      <trkpt lat="43.5365580" lon="-5.7158330">
        <ele>16.8</ele>
        <time>2021-07-20T11:56:08Z</time>
      </trkpt>
      <trkpt lat="43.5366160" lon="-5.7159280">
        <ele>16.8</ele>
        <time>2021-07-20T11:56:10Z</time>
      </trkpt>
      <trkpt lat="43.5366440" lon="-5.7159710">
        <ele>16.4</ele>
        <time>2021-07-20T11:56:11Z</time>
      </trkpt>
      <trkpt lat="43.5366690" lon="-5.7160060">
        <ele>16.0</ele>
        <time>2021-07-20T11:56:12Z</time>
      </trkpt>
      <trkpt lat="43.5366860" lon="-5.7160410">
        <ele>15.2</ele>
        <time>2021-07-20T11:56:13Z</time>
      </trkpt>
      <trkpt lat="43.5366940" lon="-5.7160780">
        <ele>14.8</ele>
        <time>2021-07-20T11:56:14Z</time>
      </trkpt>
      <trkpt lat="43.5366950" lon="-5.7161250">
        <ele>14.8</ele>
        <time>2021-07-20T11:56:15Z</time>
      </trkpt>
      <trkpt lat="43.5366350" lon="-5.7162920">
        <ele>14.8</ele>
        <time>2021-07-20T11:56:19Z</time>
      </trkpt>
      <trkpt lat="43.5365580" lon="-5.7164030">
        <ele>14.4</ele>
        <time>2021-07-20T11:56:22Z</time>
      </trkpt>
      <trkpt lat="43.5365370" lon="-5.7164350">
        <ele>14.0</ele>
        <time>2021-07-20T11:56:23Z</time>
      </trkpt>
      <trkpt lat="43.5365100" lon="-5.7164660">
        <ele>13.6</ele>
        <time>2021-07-20T11:56:24Z</time>
      </trkpt>
      <trkpt lat="43.5364860" lon="-5.7165090">
        <ele>13.2</ele>
        <time>2021-07-20T11:56:25Z</time>
      </trkpt>
      <trkpt lat="43.5364680" lon="-5.7165610">
        <ele>12.8</ele>
        <time>2021-07-20T11:56:26Z</time>
      </trkpt>
      <trkpt lat="43.5364210" lon="-5.7167490">
        <ele>12.8</ele>
        <time>2021-07-20T11:56:29Z</time>
      </trkpt>
      <trkpt lat="43.5363870" lon="-5.7168810">
        <ele>12.4</ele>
        <time>2021-07-20T11:56:31Z</time>
      </trkpt>
      <trkpt lat="43.5363690" lon="-5.7169480">
        <ele>11.8</ele>
        <time>2021-07-20T11:56:32Z</time>
      </trkpt>
      <trkpt lat="43.5363510" lon="-5.7170060">
        <ele>11.4</ele>
        <time>2021-07-20T11:56:33Z</time>
      </trkpt>
      <trkpt lat="43.5363360" lon="-5.7170530">
        <ele>11.0</ele>
        <time>2021-07-20T11:56:34Z</time>
      </trkpt>
      <trkpt lat="43.5363250" lon="-5.7170790">
        <ele>10.4</ele>
        <time>2021-07-20T11:56:35Z</time>
      </trkpt>
      <trkpt lat="43.5363190" lon="-5.7172250">
        <ele>10.4</ele>
        <time>2021-07-20T11:56:39Z</time>
      </trkpt>
      <trkpt lat="43.5362780" lon="-5.7173550">
        <ele>10.4</ele>
        <time>2021-07-20T11:56:42Z</time>
      </trkpt>
      <trkpt lat="43.5362450" lon="-5.7174530">
        <ele>10.0</ele>
        <time>2021-07-20T11:56:44Z</time>
      </trkpt>
      <trkpt lat="43.5362300" lon="-5.7175010">
        <ele>9.4</ele>
        <time>2021-07-20T11:56:45Z</time>
      </trkpt>
      <trkpt lat="43.5362140" lon="-5.7175500">
        <ele>9.0</ele>
        <time>2021-07-20T11:56:46Z</time>
      </trkpt>
      <trkpt lat="43.5361950" lon="-5.7176020">
        <ele>8.4</ele>
        <time>2021-07-20T11:56:47Z</time>
      </trkpt>
      <trkpt lat="43.5361810" lon="-5.7176530">
        <ele>8.0</ele>
        <time>2021-07-20T11:56:48Z</time>
      </trkpt>
      <trkpt lat="43.5361590" lon="-5.7177050">
        <ele>8.0</ele>
        <time>2021-07-20T11:56:49Z</time>
      </trkpt>
      <trkpt lat="43.5361310" lon="-5.7178040">
        <ele>8.0</ele>
        <time>2021-07-20T11:56:51Z</time>
      </trkpt>
      <trkpt lat="43.5361020" lon="-5.7178810">
        <ele>7.6</ele>
        <time>2021-07-20T11:56:53Z</time>
      </trkpt>
      <trkpt lat="43.5360870" lon="-5.7179210">
        <ele>7.2</ele>
        <time>2021-07-20T11:56:54Z</time>
      </trkpt>
      <trkpt lat="43.5360720" lon="-5.7179550">
        <ele>6.8</ele>
        <time>2021-07-20T11:56:55Z</time>
      </trkpt>
      <trkpt lat="43.5360510" lon="-5.7179840">
        <ele>6.2</ele>
        <time>2021-07-20T11:56:56Z</time>
      </trkpt>
      <trkpt lat="43.5360280" lon="-5.7180260">
        <ele>5.8</ele>
        <time>2021-07-20T11:56:57Z</time>
      </trkpt>
      <trkpt lat="43.5359280" lon="-5.7182670">
        <ele>5.8</ele>
        <time>2021-07-20T11:57:02Z</time>
      </trkpt>
      <trkpt lat="43.5359090" lon="-5.7183210">
        <ele>5.4</ele>
        <time>2021-07-20T11:57:03Z</time>
      </trkpt>
      <trkpt lat="43.5358920" lon="-5.7183810">
        <ele>5.0</ele>
        <time>2021-07-20T11:57:04Z</time>
      </trkpt>
      <trkpt lat="43.5358790" lon="-5.7184480">
        <ele>4.6</ele>
        <time>2021-07-20T11:57:05Z</time>
      </trkpt>
      <trkpt lat="43.5358720" lon="-5.7185150">
        <ele>4.0</ele>
        <time>2021-07-20T11:57:06Z</time>
      </trkpt>
      <trkpt lat="43.5358690" lon="-5.7185840">
        <ele>3.6</ele>
        <time>2021-07-20T11:57:07Z</time>
      </trkpt>
      <trkpt lat="43.5359110" lon="-5.7189130">
        <ele>3.6</ele>
        <time>2021-07-20T11:57:12Z</time>
      </trkpt>
      <trkpt lat="43.5360170" lon="-5.7192250">
        <ele>3.6</ele>
        <time>2021-07-20T11:57:18Z</time>
      </trkpt>
      <trkpt lat="43.5360300" lon="-5.7192570">
        <ele>3.2</ele>
        <time>2021-07-20T11:57:21Z</time>
      </trkpt>
      <trkpt lat="43.5360080" lon="-5.7192020">
        <ele>1.4</ele>
        <time>2021-07-20T11:57:28Z</time>
      </trkpt>
      <trkpt lat="43.5359830" lon="-5.7191470">
        <ele>1.4</ele>
        <time>2021-07-20T11:57:31Z</time>
      </trkpt>
      <trkpt lat="43.5359410" lon="-5.7190430">
        <ele>1.4</ele>
        <time>2021-07-20T11:57:36Z</time>
      </trkpt>
      <trkpt lat="43.5359050" lon="-5.7189080">
        <ele>1.4</ele>
        <time>2021-07-20T11:57:42Z</time>
      </trkpt>
      <trkpt lat="43.5358930" lon="-5.7188410">
        <ele>1.4</ele>
        <time>2021-07-20T11:57:45Z</time>
      </trkpt>
      <trkpt lat="43.5358660" lon="-5.7186840">
        <ele>1.4</ele>
        <time>2021-07-20T11:57:52Z</time>
      </trkpt>
      <trkpt lat="43.5358640" lon="-5.7184890">
        <ele>1.4</ele>
        <time>2021-07-20T11:58:01Z</time>
      </trkpt>
      <trkpt lat="43.5358880" lon="-5.7184500">
        <ele>1.4</ele>
        <time>2021-07-20T11:58:06Z</time>
      </trkpt>
      <trkpt lat="43.5358930" lon="-5.7184620">
        <ele>1.4</ele>
        <time>2021-07-20T11:58:07Z</time>
      </trkpt>
      <trkpt lat="43.5358920" lon="-5.7185010">
        <ele>1.4</ele>
        <time>2021-07-20T11:58:12Z</time>
      </trkpt>
      <trkpt lat="43.5358910" lon="-5.7185350">
        <ele>1.4</ele>
        <time>2021-07-20T11:58:16Z</time>
      </trkpt>
      <trkpt lat="43.5359060" lon="-5.7186770">
        <ele>1.4</ele>
        <time>2021-07-20T11:58:21Z</time>
      </trkpt>
      <trkpt lat="43.5359180" lon="-5.7187520">
        <ele>1.4</ele>
        <time>2021-07-20T11:58:23Z</time>
      </trkpt>
      <trkpt lat="43.5359780" lon="-5.7189130">
        <ele>1.4</ele>
        <time>2021-07-20T11:58:27Z</time>
      </trkpt>
      <trkpt lat="43.5359980" lon="-5.7189540">
        <ele>2.0</ele>
        <time>2021-07-20T11:58:28Z</time>
      </trkpt>
      <trkpt lat="43.5360230" lon="-5.7189880">
        <ele>2.4</ele>
        <time>2021-07-20T11:58:29Z</time>
      </trkpt>
      <trkpt lat="43.5360490" lon="-5.7190230">
        <ele>2.8</ele>
        <time>2021-07-20T11:58:30Z</time>
      </trkpt>
      <trkpt lat="43.5360740" lon="-5.7190560">
        <ele>3.2</ele>
        <time>2021-07-20T11:58:31Z</time>
      </trkpt>
      <trkpt lat="43.5360990" lon="-5.7190940">
        <ele>3.6</ele>
        <time>2021-07-20T11:58:32Z</time>
      </trkpt>
      <trkpt lat="43.5361250" lon="-5.7191240">
        <ele>3.6</ele>
        <time>2021-07-20T11:58:33Z</time>
      </trkpt>
      <trkpt lat="43.5363170" lon="-5.7193270">
        <ele>3.6</ele>
        <time>2021-07-20T11:58:40Z</time>
      </trkpt>
      <trkpt lat="43.5363690" lon="-5.7193790">
        <ele>3.6</ele>
        <time>2021-07-20T11:58:44Z</time>
      </trkpt>
      <trkpt lat="43.5363900" lon="-5.7193960">
        <ele>1.6</ele>
        <time>2021-07-20T12:01:33Z</time>
      </trkpt>
      <trkpt lat="43.5364050" lon="-5.7194060">
        <ele>1.6</ele>
        <time>2021-07-20T12:01:34Z</time>
      </trkpt>
      <trkpt lat="43.5364980" lon="-5.7195150">
        <ele>1.6</ele>
        <time>2021-07-20T12:01:38Z</time>
      </trkpt>
      <trkpt lat="43.5367120" lon="-5.7197770">
        <ele>1.6</ele>
        <time>2021-07-20T12:01:45Z</time>
      </trkpt>
      <trkpt lat="43.5369680" lon="-5.7200340">
        <ele>1.6</ele>
        <time>2021-07-20T12:01:52Z</time>
      </trkpt>
      <trkpt lat="43.5371220" lon="-5.7201610">
        <ele>1.6</ele>
        <time>2021-07-20T12:01:56Z</time>
      </trkpt>
      <trkpt lat="43.5372430" lon="-5.7202350">
        <ele>1.6</ele>
        <time>2021-07-20T12:01:59Z</time>
      </trkpt>
      <trkpt lat="43.5373650" lon="-5.7203020">
        <ele>1.6</ele>
        <time>2021-07-20T12:02:02Z</time>
      </trkpt>
      <trkpt lat="43.5374420" lon="-5.7203440">
        <ele>2.0</ele>
        <time>2021-07-20T12:02:04Z</time>
      </trkpt>
      <trkpt lat="43.5374800" lon="-5.7203610">
        <ele>2.4</ele>
        <time>2021-07-20T12:02:05Z</time>
      </trkpt>
      <trkpt lat="43.5375180" lon="-5.7203830">
        <ele>2.8</ele>
        <time>2021-07-20T12:02:06Z</time>
      </trkpt>
      <trkpt lat="43.5375540" lon="-5.7204030">
        <ele>3.4</ele>
        <time>2021-07-20T12:02:07Z</time>
      </trkpt>
      <trkpt lat="43.5375920" lon="-5.7204170">
        <ele>3.8</ele>
        <time>2021-07-20T12:02:08Z</time>
      </trkpt>
      <trkpt lat="43.5377500" lon="-5.7204840">
        <ele>3.8</ele>
        <time>2021-07-20T12:02:12Z</time>
      </trkpt>
      <trkpt lat="43.5378270" lon="-5.7205130">
        <ele>3.8</ele>
        <time>2021-07-20T12:02:14Z</time>
      </trkpt>
      <trkpt lat="43.5380240" lon="-5.7205520">
        <ele>3.8</ele>
        <time>2021-07-20T12:02:19Z</time>
      </trkpt>
      <trkpt lat="43.5381090" lon="-5.7205660">
        <ele>3.8</ele>
        <time>2021-07-20T12:02:21Z</time>
      </trkpt>
      <trkpt lat="43.5381910" lon="-5.7205890">
        <ele>4.6</ele>
        <time>2021-07-20T12:02:23Z</time>
      </trkpt>
      <trkpt lat="43.5382280" lon="-5.7205990">
        <ele>5.0</ele>
        <time>2021-07-20T12:02:24Z</time>
      </trkpt>
      <trkpt lat="43.5382620" lon="-5.7206060">
        <ele>5.4</ele>
        <time>2021-07-20T12:02:25Z</time>
      </trkpt>
      <trkpt lat="43.5382980" lon="-5.7206090">
        <ele>6.0</ele>
        <time>2021-07-20T12:02:26Z</time>
      </trkpt>
      <trkpt lat="43.5383330" lon="-5.7206130">
        <ele>6.0</ele>
        <time>2021-07-20T12:02:27Z</time>
      </trkpt>
      <trkpt lat="43.5383680" lon="-5.7206170">
        <ele>6.4</ele>
        <time>2021-07-20T12:02:28Z</time>
      </trkpt>
      <trkpt lat="43.5383980" lon="-5.7206280">
        <ele>6.8</ele>
        <time>2021-07-20T12:02:29Z</time>
      </trkpt>
      <trkpt lat="43.5384330" lon="-5.7206340">
        <ele>7.2</ele>
        <time>2021-07-20T12:02:30Z</time>
      </trkpt>
      <trkpt lat="43.5384700" lon="-5.7206390">
        <ele>7.6</ele>
        <time>2021-07-20T12:02:31Z</time>
      </trkpt>
      <trkpt lat="43.5385170" lon="-5.7206390">
        <ele>8.0</ele>
        <time>2021-07-20T12:02:32Z</time>
      </trkpt>
      <trkpt lat="43.5385710" lon="-5.7206460">
        <ele>8.0</ele>
        <time>2021-07-20T12:02:33Z</time>
      </trkpt>
      <trkpt lat="43.5388720" lon="-5.7207100">
        <ele>7.6</ele>
        <time>2021-07-20T12:02:38Z</time>
      </trkpt>
      <trkpt lat="43.5389430" lon="-5.7207220">
        <ele>7.0</ele>
        <time>2021-07-20T12:02:39Z</time>
      </trkpt>
      <trkpt lat="43.5390200" lon="-5.7207340">
        <ele>6.6</ele>
        <time>2021-07-20T12:02:40Z</time>
      </trkpt>
      <trkpt lat="43.5391040" lon="-5.7207440">
        <ele>6.2</ele>
        <time>2021-07-20T12:02:41Z</time>
      </trkpt>
      <trkpt lat="43.5391850" lon="-5.7207580">
        <ele>5.8</ele>
        <time>2021-07-20T12:02:42Z</time>
      </trkpt>
      <trkpt lat="43.5392680" lon="-5.7207750">
        <ele>5.8</ele>
        <time>2021-07-20T12:02:43Z</time>
      </trkpt>
      <trkpt lat="43.5393510" lon="-5.7207900">
        <ele>5.2</ele>
        <time>2021-07-20T12:02:44Z</time>
      </trkpt>
      <trkpt lat="43.5394340" lon="-5.7208030">
        <ele>4.8</ele>
        <time>2021-07-20T12:02:45Z</time>
      </trkpt>
      <trkpt lat="43.5395170" lon="-5.7208210">
        <ele>4.4</ele>
        <time>2021-07-20T12:02:46Z</time>
      </trkpt>
      <trkpt lat="43.5396010" lon="-5.7208380">
        <ele>3.8</ele>
        <time>2021-07-20T12:02:47Z</time>
      </trkpt>
      <trkpt lat="43.5396880" lon="-5.7208600">
        <ele>3.4</ele>
        <time>2021-07-20T12:02:48Z</time>
      </trkpt>
      <trkpt lat="43.5398480" lon="-5.7209120">
        <ele>3.4</ele>
        <time>2021-07-20T12:02:50Z</time>
      </trkpt>
      <trkpt lat="43.5399260" lon="-5.7209410">
        <ele>3.0</ele>
        <time>2021-07-20T12:02:51Z</time>
      </trkpt>
      <trkpt lat="43.5400010" lon="-5.7209720">
        <ele>2.4</ele>
        <time>2021-07-20T12:02:52Z</time>
      </trkpt>
      <trkpt lat="43.5400750" lon="-5.7210050">
        <ele>2.0</ele>
        <time>2021-07-20T12:02:53Z</time>
      </trkpt>
      <trkpt lat="43.5401470" lon="-5.7210430">
        <ele>1.6</ele>
        <time>2021-07-20T12:02:54Z</time>
      </trkpt>
      <trkpt lat="43.5402180" lon="-5.7210810">
        <ele>1.2</ele>
        <time>2021-07-20T12:02:55Z</time>
      </trkpt>
      <trkpt lat="43.5403550" lon="-5.7211700">
        <ele>1.2</ele>
        <time>2021-07-20T12:02:57Z</time>
      </trkpt>
      <trkpt lat="43.5404150" lon="-5.7212140">
        <ele>1.2</ele>
        <time>2021-07-20T12:02:58Z</time>
      </trkpt>
      <trkpt lat="43.5404730" lon="-5.7212630">
        <ele>0.6</ele>
        <time>2021-07-20T12:02:59Z</time>
      </trkpt>
      <trkpt lat="43.5405230" lon="-5.7213100">
        <ele>0.2</ele>
        <time>2021-07-20T12:03:00Z</time>
      </trkpt>
      <trkpt lat="43.5405730" lon="-5.7213560">
        <ele>-0.2</ele>
        <time>2021-07-20T12:03:01Z</time>
      </trkpt>
      <trkpt lat="43.5406120" lon="-5.7213990">
        <ele>-0.6</ele>
        <time>2021-07-20T12:03:02Z</time>
      </trkpt>
      <trkpt lat="43.5406440" lon="-5.7214290">
        <ele>-1.0</ele>
        <time>2021-07-20T12:03:03Z</time>
      </trkpt>
      <trkpt lat="43.5406780" lon="-5.7214660">
        <ele>-1.0</ele>
        <time>2021-07-20T12:03:05Z</time>
      </trkpt>
      <trkpt lat="43.5406890" lon="-5.7214840">
        <ele>-1.4</ele>
        <time>2021-07-20T12:03:06Z</time>
      </trkpt>
      <trkpt lat="43.5406960" lon="-5.7214960">
        <ele>-2.0</ele>
        <time>2021-07-20T12:03:07Z</time>
      </trkpt>
      <trkpt lat="43.5407010" lon="-5.7215010">
        <ele>-2.4</ele>
        <time>2021-07-20T12:03:08Z</time>
      </trkpt>
      <trkpt lat="43.5407000" lon="-5.7214990">
        <ele>-2.8</ele>
        <time>2021-07-20T12:03:09Z</time>
      </trkpt>
      <trkpt lat="43.5407110" lon="-5.7215250">
        <ele>-3.4</ele>
        <time>2021-07-20T12:03:12Z</time>
      </trkpt>
      <trkpt lat="43.5407210" lon="-5.7215380">
        <ele>-3.4</ele>
        <time>2021-07-20T12:03:13Z</time>
      </trkpt>
      <trkpt lat="43.5407260" lon="-5.7216010">
        <ele>-3.4</ele>
        <time>2021-07-20T12:03:15Z</time>
      </trkpt>
      <trkpt lat="43.5407270" lon="-5.7216800">
        <ele>-3.4</ele>
        <time>2021-07-20T12:03:17Z</time>
      </trkpt>
      <trkpt lat="43.5407900" lon="-5.7218080">
        <ele>-3.4</ele>
        <time>2021-07-20T12:03:22Z</time>
      </trkpt>
      <trkpt lat="43.5408500" lon="-5.7219900">
        <ele>-3.4</ele>
        <time>2021-07-20T12:03:27Z</time>
      </trkpt>
      <trkpt lat="43.5408600" lon="-5.7222160">
        <ele>-3.4</ele>
        <time>2021-07-20T12:03:32Z</time>
      </trkpt>
      <trkpt lat="43.5408760" lon="-5.7222580">
        <ele>-3.4</ele>
        <time>2021-07-20T12:03:33Z</time>
      </trkpt>
      <trkpt lat="43.5409070" lon="-5.7225430">
        <ele>-3.4</ele>
        <time>2021-07-20T12:03:39Z</time>
      </trkpt>
      <trkpt lat="43.5408680" lon="-5.7227370">
        <ele>-3.4</ele>
        <time>2021-07-20T12:03:44Z</time>
      </trkpt>
      <trkpt lat="43.5408620" lon="-5.7227640">
        <ele>-3.4</ele>
        <time>2021-07-20T12:03:45Z</time>
      </trkpt>
      <trkpt lat="43.5408420" lon="-5.7228340">
        <ele>-3.4</ele>
        <time>2021-07-20T12:03:49Z</time>
      </trkpt>
      <trkpt lat="43.5408430" lon="-5.7228310">
        <ele>-3.4</ele>
        <time>2021-07-20T12:03:50Z</time>
      </trkpt>
      <trkpt lat="43.5408630" lon="-5.7228590">
        <ele>-3.4</ele>
        <time>2021-07-20T12:03:53Z</time>
      </trkpt>
      <trkpt lat="43.5408910" lon="-5.7229220">
        <ele>-3.4</ele>
        <time>2021-07-20T12:03:56Z</time>
      </trkpt>
      <trkpt lat="43.5409170" lon="-5.7229620">
        <ele>-3.4</ele>
        <time>2021-07-20T12:03:58Z</time>
      </trkpt>
      <trkpt lat="43.5409740" lon="-5.7230390">
        <ele>-3.4</ele>
        <time>2021-07-20T12:04:01Z</time>
      </trkpt>
      <trkpt lat="43.5409930" lon="-5.7230780">
        <ele>-3.4</ele>
        <time>2021-07-20T12:04:02Z</time>
      </trkpt>
      <trkpt lat="43.5410610" lon="-5.7232600">
        <ele>-3.4</ele>
        <time>2021-07-20T12:04:06Z</time>
      </trkpt>
      <trkpt lat="43.5410780" lon="-5.7233080">
        <ele>-3.4</ele>
        <time>2021-07-20T12:04:07Z</time>
      </trkpt>
      <trkpt lat="43.5411810" lon="-5.7235930">
        <ele>-3.4</ele>
        <time>2021-07-20T12:04:13Z</time>
      </trkpt>
      <trkpt lat="43.5413060" lon="-5.7238650">
        <ele>-2.8</ele>
        <time>2021-07-20T12:04:19Z</time>
      </trkpt>
      <trkpt lat="43.5413200" lon="-5.7239180">
        <ele>-2.4</ele>
        <time>2021-07-20T12:04:20Z</time>
      </trkpt>
      <trkpt lat="43.5413290" lon="-5.7239680">
        <ele>-2.0</ele>
        <time>2021-07-20T12:04:21Z</time>
      </trkpt>
      <trkpt lat="43.5413330" lon="-5.7240210">
        <ele>-1.6</ele>
        <time>2021-07-20T12:04:22Z</time>
      </trkpt>
      <trkpt lat="43.5413420" lon="-5.7240810">
        <ele>-1.2</ele>
        <time>2021-07-20T12:04:23Z</time>
      </trkpt>
      <trkpt lat="43.5414370" lon="-5.7245430">
        <ele>-0.6</ele>
        <time>2021-07-20T12:04:31Z</time>
      </trkpt>
      <trkpt lat="43.5414460" lon="-5.7245970">
        <ele>-0.2</ele>
        <time>2021-07-20T12:04:32Z</time>
      </trkpt>
      <trkpt lat="43.5414570" lon="-5.7246460">
        <ele>0.4</ele>
        <time>2021-07-20T12:04:33Z</time>
      </trkpt>
      <trkpt lat="43.5414720" lon="-5.7246950">
        <ele>0.0</ele>
        <time>2021-07-20T12:04:34Z</time>
      </trkpt>
      <trkpt lat="43.5414900" lon="-5.7247430">
        <ele>-0.6</ele>
        <time>2021-07-20T12:04:35Z</time>
      </trkpt>
      <trkpt lat="43.5415070" lon="-5.7247910">
        <ele>-1.0</ele>
        <time>2021-07-20T12:04:36Z</time>
      </trkpt>
      <trkpt lat="43.5415230" lon="-5.7248430">
        <ele>-1.4</ele>
        <time>2021-07-20T12:04:37Z</time>
      </trkpt>
      <trkpt lat="43.5415420" lon="-5.7248850">
        <ele>-1.8</ele>
        <time>2021-07-20T12:04:38Z</time>
      </trkpt>
      <trkpt lat="43.5416170" lon="-5.7250580">
        <ele>-1.8</ele>
        <time>2021-07-20T12:04:44Z</time>
      </trkpt>
      <trkpt lat="43.5416120" lon="-5.7250580">
        <ele>-1.8</ele>
        <time>2021-07-20T12:04:45Z</time>
      </trkpt>
      <trkpt lat="43.5415970" lon="-5.7251040">
        <ele>-1.8</ele>
        <time>2021-07-20T12:04:47Z</time>
      </trkpt>
      <trkpt lat="43.5415730" lon="-5.7251580">
        <ele>-1.8</ele>
        <time>2021-07-20T12:04:49Z</time>
      </trkpt>
      <trkpt lat="43.5415150" lon="-5.7253610">
        <ele>-1.8</ele>
        <time>2021-07-20T12:04:54Z</time>
      </trkpt>
      <trkpt lat="43.5414850" lon="-5.7256140">
        <ele>-1.8</ele>
        <time>2021-07-20T12:05:00Z</time>
      </trkpt>
      <trkpt lat="43.5414410" lon="-5.7257970">
        <ele>-1.8</ele>
        <time>2021-07-20T12:05:04Z</time>
      </trkpt>
      <trkpt lat="43.5413970" lon="-5.7259420">
        <ele>-1.8</ele>
        <time>2021-07-20T12:05:07Z</time>
      </trkpt>
      <trkpt lat="43.5413400" lon="-5.7260980">
        <ele>-1.4</ele>
        <time>2021-07-20T12:05:10Z</time>
      </trkpt>
      <trkpt lat="43.5413190" lon="-5.7261420">
        <ele>-1.0</ele>
        <time>2021-07-20T12:05:11Z</time>
      </trkpt>
      <trkpt lat="43.5412980" lon="-5.7261840">
        <ele>-0.6</ele>
        <time>2021-07-20T12:05:12Z</time>
      </trkpt>
      <trkpt lat="43.5412690" lon="-5.7262300">
        <ele>-0.2</ele>
        <time>2021-07-20T12:05:13Z</time>
      </trkpt>
      <trkpt lat="43.5412360" lon="-5.7262760">
        <ele>0.2</ele>
        <time>2021-07-20T12:05:14Z</time>
      </trkpt>
      <trkpt lat="43.5409610" lon="-5.7267020">
        <ele>0.2</ele>
        <time>2021-07-20T12:05:23Z</time>
      </trkpt>
      <trkpt lat="43.5407060" lon="-5.7271200">
        <ele>0.2</ele>
        <time>2021-07-20T12:05:32Z</time>
      </trkpt>
      <trkpt lat="43.5405110" lon="-5.7274280">
        <ele>0.2</ele>
        <time>2021-07-20T12:05:39Z</time>
      </trkpt>
      <trkpt lat="43.5404870" lon="-5.7274710">
        <ele>0.6</ele>
        <time>2021-07-20T12:05:40Z</time>
      </trkpt>
      <trkpt lat="43.5404620" lon="-5.7275140">
        <ele>1.0</ele>
        <time>2021-07-20T12:05:41Z</time>
      </trkpt>
      <trkpt lat="43.5404320" lon="-5.7275550">
        <ele>1.8</ele>
        <time>2021-07-20T12:05:42Z</time>
      </trkpt>
      <trkpt lat="43.5403970" lon="-5.7275910">
        <ele>2.2</ele>
        <time>2021-07-20T12:05:43Z</time>
      </trkpt>
      <trkpt lat="43.5403200" lon="-5.7276480">
        <ele>2.2</ele>
        <time>2021-07-20T12:05:45Z</time>
      </trkpt>
      <trkpt lat="43.5400250" lon="-5.7279120">
        <ele>2.2</ele>
        <time>2021-07-20T12:05:52Z</time>
      </trkpt>
      <trkpt lat="43.5397970" lon="-5.7281360">
        <ele>2.2</ele>
        <time>2021-07-20T12:05:58Z</time>
      </trkpt>
      <trkpt lat="43.5397580" lon="-5.7281720">
        <ele>2.2</ele>
        <time>2021-07-20T12:05:59Z</time>
      </trkpt>
      <trkpt lat="43.5395450" lon="-5.7283380">
        <ele>2.2</ele>
        <time>2021-07-20T12:06:04Z</time>
      </trkpt>
      <trkpt lat="43.5394610" lon="-5.7283930">
        <ele>2.2</ele>
        <time>2021-07-20T12:06:06Z</time>
      </trkpt>
      <trkpt lat="43.5392980" lon="-5.7284750">
        <ele>2.2</ele>
        <time>2021-07-20T12:06:11Z</time>
      </trkpt>
      <trkpt lat="43.5391820" lon="-5.7285250">
        <ele>2.2</ele>
        <time>2021-07-20T12:06:16Z</time>
      </trkpt>
      <trkpt lat="43.5391410" lon="-5.7285410">
        <ele>2.8</ele>
        <time>2021-07-20T12:06:18Z</time>
      </trkpt>
      <trkpt lat="43.5391180" lon="-5.7285490">
        <ele>3.2</ele>
        <time>2021-07-20T12:06:19Z</time>
      </trkpt>
      <trkpt lat="43.5390960" lon="-5.7285590">
        <ele>3.6</ele>
        <time>2021-07-20T12:06:20Z</time>
      </trkpt>
      <trkpt lat="43.5390750" lon="-5.7285600">
        <ele>4.0</ele>
        <time>2021-07-20T12:06:21Z</time>
      </trkpt>
      <trkpt lat="43.5390500" lon="-5.7285640">
        <ele>4.4</ele>
        <time>2021-07-20T12:06:22Z</time>
      </trkpt>
      <trkpt lat="43.5390280" lon="-5.7285580">
        <ele>4.4</ele>
        <time>2021-07-20T12:06:23Z</time>
      </trkpt>
      <trkpt lat="43.5389870" lon="-5.7285470">
        <ele>4.8</ele>
        <time>2021-07-20T12:06:25Z</time>
      </trkpt>
      <trkpt lat="43.5389690" lon="-5.7285470">
        <ele>5.2</ele>
        <time>2021-07-20T12:06:26Z</time>
      </trkpt>
      <trkpt lat="43.5389480" lon="-5.7285480">
        <ele>5.6</ele>
        <time>2021-07-20T12:06:27Z</time>
      </trkpt>
      <trkpt lat="43.5389270" lon="-5.7285390">
        <ele>6.0</ele>
        <time>2021-07-20T12:06:28Z</time>
      </trkpt>
      <trkpt lat="43.5389130" lon="-5.7285310">
        <ele>6.4</ele>
        <time>2021-07-20T12:06:29Z</time>
      </trkpt>
      <trkpt lat="43.5388300" lon="-5.7285010">
        <ele>6.8</ele>
        <time>2021-07-20T12:06:34Z</time>
      </trkpt>
      <trkpt lat="43.5388140" lon="-5.7284910">
        <ele>7.2</ele>
        <time>2021-07-20T12:06:35Z</time>
      </trkpt>
      <trkpt lat="43.5388020" lon="-5.7284820">
        <ele>7.8</ele>
        <time>2021-07-20T12:06:36Z</time>
      </trkpt>
      <trkpt lat="43.5387860" lon="-5.7284790">
        <ele>8.2</ele>
        <time>2021-07-20T12:06:37Z</time>
      </trkpt>
      <trkpt lat="43.5387670" lon="-5.7284780">
        <ele>8.6</ele>
        <time>2021-07-20T12:06:38Z</time>
      </trkpt>
      <trkpt lat="43.5386580" lon="-5.7284530">
        <ele>8.6</ele>
        <time>2021-07-20T12:06:43Z</time>
      </trkpt>
      <trkpt lat="43.5386160" lon="-5.7284580">
        <ele>9.0</ele>
        <time>2021-07-20T12:06:45Z</time>
      </trkpt>
      <trkpt lat="43.5385910" lon="-5.7284660">
        <ele>9.4</ele>
        <time>2021-07-20T12:06:46Z</time>
      </trkpt>
      <trkpt lat="43.5385700" lon="-5.7284740">
        <ele>10.0</ele>
        <time>2021-07-20T12:06:47Z</time>
      </trkpt>
      <trkpt lat="43.5385490" lon="-5.7284800">
        <ele>10.4</ele>
        <time>2021-07-20T12:06:48Z</time>
      </trkpt>
      <trkpt lat="43.5385290" lon="-5.7284870">
        <ele>10.8</ele>
        <time>2021-07-20T12:06:49Z</time>
      </trkpt>
      <trkpt lat="43.5385060" lon="-5.7285010">
        <ele>10.8</ele>
        <time>2021-07-20T12:06:50Z</time>
      </trkpt>
      <trkpt lat="43.5384060" lon="-5.7286010">
        <ele>11.6</ele>
        <time>2021-07-20T12:06:56Z</time>
      </trkpt>
      <trkpt lat="43.5383990" lon="-5.7286220">
        <ele>12.0</ele>
        <time>2021-07-20T12:06:57Z</time>
      </trkpt>
      <trkpt lat="43.5383890" lon="-5.7286350">
        <ele>12.4</ele>
        <time>2021-07-20T12:06:58Z</time>
      </trkpt>
      <trkpt lat="43.5383800" lon="-5.7286510">
        <ele>12.8</ele>
        <time>2021-07-20T12:06:59Z</time>
      </trkpt>
      <trkpt lat="43.5383590" lon="-5.7286940">
        <ele>12.8</ele>
        <time>2021-07-20T12:07:02Z</time>
      </trkpt>
      <trkpt lat="43.5383590" lon="-5.7287370">
        <ele>12.8</ele>
        <time>2021-07-20T12:07:04Z</time>
      </trkpt>
      <trkpt lat="43.5383530" lon="-5.7288160">
        <ele>12.8</ele>
        <time>2021-07-20T12:07:07Z</time>
      </trkpt>
      <trkpt lat="43.5383700" lon="-5.7289310">
        <ele>12.8</ele>
        <time>2021-07-20T12:07:11Z</time>
      </trkpt>
      <trkpt lat="43.5383740" lon="-5.7289880">
        <ele>12.8</ele>
        <time>2021-07-20T12:07:13Z</time>
      </trkpt>
      <trkpt lat="43.5383930" lon="-5.7290540">
        <ele>12.8</ele>
        <time>2021-07-20T12:07:15Z</time>
      </trkpt>
      <trkpt lat="43.5384300" lon="-5.7291060">
        <ele>12.8</ele>
        <time>2021-07-20T12:07:17Z</time>
      </trkpt>
      <trkpt lat="43.5385650" lon="-5.7291040">
        <ele>12.8</ele>
        <time>2021-07-20T12:07:21Z</time>
      </trkpt>
      <trkpt lat="43.5386160" lon="-5.7290730">
        <ele>12.8</ele>
        <time>2021-07-20T12:07:22Z</time>
      </trkpt>
      <trkpt lat="43.5387610" lon="-5.7290480">
        <ele>12.8</ele>
        <time>2021-07-20T12:07:24Z</time>
      </trkpt>
      <trkpt lat="43.5388390" lon="-5.7290560">
        <ele>12.8</ele>
        <time>2021-07-20T12:07:25Z</time>
      </trkpt>
      <trkpt lat="43.5389770" lon="-5.7290990">
        <ele>12.4</ele>
        <time>2021-07-20T12:07:27Z</time>
      </trkpt>
      <trkpt lat="43.5390300" lon="-5.7291250">
        <ele>12.0</ele>
        <time>2021-07-20T12:07:28Z</time>
      </trkpt>
      <trkpt lat="43.5390700" lon="-5.7291390">
        <ele>11.6</ele>
        <time>2021-07-20T12:07:29Z</time>
      </trkpt>
      <trkpt lat="43.5390920" lon="-5.7291480">
        <ele>11.2</ele>
        <time>2021-07-20T12:07:30Z</time>
      </trkpt>
      <trkpt lat="43.5391150" lon="-5.7291530">
        <ele>10.8</ele>
        <time>2021-07-20T12:07:31Z</time>
      </trkpt>
      <trkpt lat="43.5391370" lon="-5.7291570">
        <ele>10.8</ele>
        <time>2021-07-20T12:07:32Z</time>
      </trkpt>
      <trkpt lat="43.5391930" lon="-5.7291680">
        <ele>11.2</ele>
        <time>2021-07-20T12:07:35Z</time>
      </trkpt>
      <trkpt lat="43.5392170" lon="-5.7291690">
        <ele>11.6</ele>
        <time>2021-07-20T12:07:36Z</time>
      </trkpt>
      <trkpt lat="43.5392370" lon="-5.7291730">
        <ele>12.0</ele>
        <time>2021-07-20T12:07:37Z</time>
      </trkpt>
      <trkpt lat="43.5392590" lon="-5.7291790">
        <ele>12.4</ele>
        <time>2021-07-20T12:07:38Z</time>
      </trkpt>
      <trkpt lat="43.5392730" lon="-5.7291790">
        <ele>12.8</ele>
        <time>2021-07-20T12:07:39Z</time>
      </trkpt>
      <trkpt lat="43.5393370" lon="-5.7291410">
        <ele>12.8</ele>
        <time>2021-07-20T12:07:43Z</time>
      </trkpt>
      <trkpt lat="43.5393470" lon="-5.7291220">
        <ele>12.8</ele>
        <time>2021-07-20T12:07:44Z</time>
      </trkpt>
      <trkpt lat="43.5393610" lon="-5.7291030">
        <ele>12.8</ele>
        <time>2021-07-20T12:07:45Z</time>
      </trkpt>
      <trkpt lat="43.5394050" lon="-5.7290510">
        <ele>13.2</ele>
        <time>2021-07-20T12:07:48Z</time>
      </trkpt>
      <trkpt lat="43.5394240" lon="-5.7290370">
        <ele>13.6</ele>
        <time>2021-07-20T12:07:49Z</time>
      </trkpt>
      <trkpt lat="43.5394430" lon="-5.7290250">
        <ele>14.0</ele>
        <time>2021-07-20T12:07:50Z</time>
      </trkpt>
      <trkpt lat="43.5394610" lon="-5.7290130">
        <ele>14.6</ele>
        <time>2021-07-20T12:07:51Z</time>
      </trkpt>
      <trkpt lat="43.5394780" lon="-5.7290070">
        <ele>15.0</ele>
        <time>2021-07-20T12:07:52Z</time>
      </trkpt>
      <trkpt lat="43.5396050" lon="-5.7289760">
        <ele>15.0</ele>
        <time>2021-07-20T12:07:59Z</time>
      </trkpt>
      <trkpt lat="43.5397350" lon="-5.7289740">
        <ele>15.4</ele>
        <time>2021-07-20T12:08:05Z</time>
      </trkpt>
      <trkpt lat="43.5397540" lon="-5.7289770">
        <ele>15.8</ele>
        <time>2021-07-20T12:08:06Z</time>
      </trkpt>
      <trkpt lat="43.5397700" lon="-5.7289800">
        <ele>16.2</ele>
        <time>2021-07-20T12:08:07Z</time>
      </trkpt>
      <trkpt lat="43.5397890" lon="-5.7289870">
        <ele>16.6</ele>
        <time>2021-07-20T12:08:08Z</time>
      </trkpt>
      <trkpt lat="43.5398070" lon="-5.7289970">
        <ele>17.2</ele>
        <time>2021-07-20T12:08:09Z</time>
      </trkpt>
      <trkpt lat="43.5398400" lon="-5.7290160">
        <ele>17.2</ele>
        <time>2021-07-20T12:08:11Z</time>
      </trkpt>
      <trkpt lat="43.5398620" lon="-5.7290500">
        <ele>17.2</ele>
        <time>2021-07-20T12:08:13Z</time>
      </trkpt>
      <trkpt lat="43.5398900" lon="-5.7291420">
        <ele>17.6</ele>
        <time>2021-07-20T12:08:17Z</time>
      </trkpt>
      <trkpt lat="43.5398910" lon="-5.7291670">
        <ele>18.0</ele>
        <time>2021-07-20T12:08:18Z</time>
      </trkpt>
      <trkpt lat="43.5398940" lon="-5.7291920">
        <ele>18.4</ele>
        <time>2021-07-20T12:08:19Z</time>
      </trkpt>
      <trkpt lat="43.5398930" lon="-5.7292160">
        <ele>18.8</ele>
        <time>2021-07-20T12:08:20Z</time>
      </trkpt>
      <trkpt lat="43.5398890" lon="-5.7292410">
        <ele>19.2</ele>
        <time>2021-07-20T12:08:21Z</time>
      </trkpt>
      <trkpt lat="43.5398370" lon="-5.7293470">
        <ele>19.2</ele>
        <time>2021-07-20T12:08:26Z</time>
      </trkpt>
      <trkpt lat="43.5397260" lon="-5.7294150">
        <ele>19.2</ele>
        <time>2021-07-20T12:08:33Z</time>
      </trkpt>
      <trkpt lat="43.5397070" lon="-5.7294250">
        <ele>19.6</ele>
        <time>2021-07-20T12:08:34Z</time>
      </trkpt>
      <trkpt lat="43.5396860" lon="-5.7294350">
        <ele>20.4</ele>
        <time>2021-07-20T12:08:35Z</time>
      </trkpt>
      <trkpt lat="43.5396660" lon="-5.7294420">
        <ele>20.8</ele>
        <time>2021-07-20T12:08:36Z</time>
      </trkpt>
      <trkpt lat="43.5396460" lon="-5.7294480">
        <ele>21.2</ele>
        <time>2021-07-20T12:08:37Z</time>
      </trkpt>
      <trkpt lat="43.5395930" lon="-5.7294780">
        <ele>21.2</ele>
        <time>2021-07-20T12:08:40Z</time>
      </trkpt>
      <trkpt lat="43.5394710" lon="-5.7295340">
        <ele>21.6</ele>
        <time>2021-07-20T12:08:47Z</time>
      </trkpt>
      <trkpt lat="43.5394520" lon="-5.7295430">
        <ele>22.0</ele>
        <time>2021-07-20T12:08:48Z</time>
      </trkpt>
      <trkpt lat="43.5394360" lon="-5.7295520">
        <ele>22.4</ele>
        <time>2021-07-20T12:08:49Z</time>
      </trkpt>
      <trkpt lat="43.5394190" lon="-5.7295620">
        <ele>22.8</ele>
        <time>2021-07-20T12:08:50Z</time>
      </trkpt>
      <trkpt lat="43.5394010" lon="-5.7295720">
        <ele>23.2</ele>
        <time>2021-07-20T12:08:51Z</time>
      </trkpt>
      <trkpt lat="43.5393050" lon="-5.7296270">
        <ele>23.2</ele>
        <time>2021-07-20T12:08:57Z</time>
      </trkpt>
      <trkpt lat="43.5392700" lon="-5.7296410">
        <ele>23.6</ele>
        <time>2021-07-20T12:08:59Z</time>
      </trkpt>
      <trkpt lat="43.5392520" lon="-5.7296500">
        <ele>24.4</ele>
        <time>2021-07-20T12:09:00Z</time>
      </trkpt>
      <trkpt lat="43.5392350" lon="-5.7296580">
        <ele>24.8</ele>
        <time>2021-07-20T12:09:01Z</time>
      </trkpt>
      <trkpt lat="43.5392180" lon="-5.7296660">
        <ele>25.4</ele>
        <time>2021-07-20T12:09:02Z</time>
      </trkpt>
      <trkpt lat="43.5391620" lon="-5.7296900">
        <ele>25.4</ele>
        <time>2021-07-20T12:09:05Z</time>
      </trkpt>
      <trkpt lat="43.5390580" lon="-5.7297210">
        <ele>25.8</ele>
        <time>2021-07-20T12:09:11Z</time>
      </trkpt>
      <trkpt lat="43.5390420" lon="-5.7297300">
        <ele>26.2</ele>
        <time>2021-07-20T12:09:12Z</time>
      </trkpt>
      <trkpt lat="43.5390260" lon="-5.7297380">
        <ele>26.6</ele>
        <time>2021-07-20T12:09:13Z</time>
      </trkpt>
      <trkpt lat="43.5390100" lon="-5.7297480">
        <ele>27.0</ele>
        <time>2021-07-20T12:09:14Z</time>
      </trkpt>
      <trkpt lat="43.5389940" lon="-5.7297550">
        <ele>27.4</ele>
        <time>2021-07-20T12:09:15Z</time>
      </trkpt>
      <trkpt lat="43.5389480" lon="-5.7297720">
        <ele>27.4</ele>
        <time>2021-07-20T12:09:18Z</time>
      </trkpt>
      <trkpt lat="43.5388950" lon="-5.7297920">
        <ele>27.8</ele>
        <time>2021-07-20T12:09:21Z</time>
      </trkpt>
      <trkpt lat="43.5388780" lon="-5.7298000">
        <ele>28.2</ele>
        <time>2021-07-20T12:09:22Z</time>
      </trkpt>
      <trkpt lat="43.5388610" lon="-5.7298100">
        <ele>28.6</ele>
        <time>2021-07-20T12:09:23Z</time>
      </trkpt>
      <trkpt lat="43.5388390" lon="-5.7298180">
        <ele>29.4</ele>
        <time>2021-07-20T12:09:24Z</time>
      </trkpt>
      <trkpt lat="43.5387040" lon="-5.7299020">
        <ele>29.8</ele>
        <time>2021-07-20T12:09:32Z</time>
      </trkpt>
      <trkpt lat="43.5386900" lon="-5.7299150">
        <ele>30.2</ele>
        <time>2021-07-20T12:09:33Z</time>
      </trkpt>
      <trkpt lat="43.5386770" lon="-5.7299270">
        <ele>30.6</ele>
        <time>2021-07-20T12:09:34Z</time>
      </trkpt>
      <trkpt lat="43.5386620" lon="-5.7299440">
        <ele>31.0</ele>
        <time>2021-07-20T12:09:35Z</time>
      </trkpt>
      <trkpt lat="43.5386440" lon="-5.7299570">
        <ele>31.4</ele>
        <time>2021-07-20T12:09:36Z</time>
      </trkpt>
      <trkpt lat="43.5385590" lon="-5.7300100">
        <ele>31.4</ele>
        <time>2021-07-20T12:09:41Z</time>
      </trkpt>
      <trkpt lat="43.5384560" lon="-5.7300740">
        <ele>31.8</ele>
        <time>2021-07-20T12:09:47Z</time>
      </trkpt>
      <trkpt lat="43.5384380" lon="-5.7300850">
        <ele>32.2</ele>
        <time>2021-07-20T12:09:48Z</time>
      </trkpt>
      <trkpt lat="43.5384210" lon="-5.7300970">
        <ele>32.6</ele>
        <time>2021-07-20T12:09:49Z</time>
      </trkpt>
      <trkpt lat="43.5384040" lon="-5.7301080">
        <ele>33.4</ele>
        <time>2021-07-20T12:09:50Z</time>
      </trkpt>
      <trkpt lat="43.5382550" lon="-5.7301990">
        <ele>33.4</ele>
        <time>2021-07-20T12:09:58Z</time>
      </trkpt>
      <trkpt lat="43.5382090" lon="-5.7302220">
        <ele>34.0</ele>
        <time>2021-07-20T12:10:00Z</time>
      </trkpt>
      <trkpt lat="43.5381870" lon="-5.7302360">
        <ele>34.4</ele>
        <time>2021-07-20T12:10:01Z</time>
      </trkpt>
      <trkpt lat="43.5381630" lon="-5.7302520">
        <ele>34.8</ele>
        <time>2021-07-20T12:10:02Z</time>
      </trkpt>
      <trkpt lat="43.5381430" lon="-5.7302670">
        <ele>35.2</ele>
        <time>2021-07-20T12:10:03Z</time>
      </trkpt>
      <trkpt lat="43.5381230" lon="-5.7302820">
        <ele>35.6</ele>
        <time>2021-07-20T12:10:04Z</time>
      </trkpt>
      <trkpt lat="43.5380590" lon="-5.7303230">
        <ele>35.6</ele>
        <time>2021-07-20T12:10:07Z</time>
      </trkpt>
      <trkpt lat="43.5379090" lon="-5.7304390">
        <ele>35.6</ele>
        <time>2021-07-20T12:10:14Z</time>
      </trkpt>
      <trkpt lat="43.5377810" lon="-5.7305210">
        <ele>36.0</ele>
        <time>2021-07-20T12:10:19Z</time>
      </trkpt>
      <trkpt lat="43.5377530" lon="-5.7305400">
        <ele>36.4</ele>
        <time>2021-07-20T12:10:20Z</time>
      </trkpt>
      <trkpt lat="43.5377250" lon="-5.7305600">
        <ele>36.8</ele>
        <time>2021-07-20T12:10:21Z</time>
      </trkpt>
      <trkpt lat="43.5376930" lon="-5.7305810">
        <ele>37.2</ele>
        <time>2021-07-20T12:10:22Z</time>
      </trkpt>
      <trkpt lat="43.5376610" lon="-5.7306030">
        <ele>37.8</ele>
        <time>2021-07-20T12:10:23Z</time>
      </trkpt>
      <trkpt lat="43.5375130" lon="-5.7307380">
        <ele>37.8</ele>
        <time>2021-07-20T12:10:28Z</time>
      </trkpt>
      <trkpt lat="43.5373580" lon="-5.7308690">
        <ele>37.8</ele>
        <time>2021-07-20T12:10:33Z</time>
      </trkpt>
      <trkpt lat="43.5373110" lon="-5.7309290">
        <ele>37.8</ele>
        <time>2021-07-20T12:10:35Z</time>
      </trkpt>
      <trkpt lat="43.5372870" lon="-5.7309770">
        <ele>37.8</ele>
        <time>2021-07-20T12:10:37Z</time>
      </trkpt>
      <trkpt lat="43.5372820" lon="-5.7310060">
        <ele>37.8</ele>
        <time>2021-07-20T12:10:38Z</time>
      </trkpt>
      <trkpt lat="43.5372850" lon="-5.7310340">
        <ele>37.8</ele>
        <time>2021-07-20T12:10:39Z</time>
      </trkpt>
      <trkpt lat="43.5373040" lon="-5.7310860">
        <ele>37.8</ele>
        <time>2021-07-20T12:10:41Z</time>
      </trkpt>
      <trkpt lat="43.5373280" lon="-5.7311340">
        <ele>37.8</ele>
        <time>2021-07-20T12:10:43Z</time>
      </trkpt>
      <trkpt lat="43.5373880" lon="-5.7312410">
        <ele>37.8</ele>
        <time>2021-07-20T12:10:48Z</time>
      </trkpt>
      <trkpt lat="43.5374110" lon="-5.7313210">
        <ele>38.2</ele>
        <time>2021-07-20T12:10:52Z</time>
      </trkpt>
      <trkpt lat="43.5374210" lon="-5.7313360">
        <ele>38.6</ele>
        <time>2021-07-20T12:10:53Z</time>
      </trkpt>
      <trkpt lat="43.5374330" lon="-5.7313490">
        <ele>39.0</ele>
        <time>2021-07-20T12:10:54Z</time>
      </trkpt>
      <trkpt lat="43.5374450" lon="-5.7313640">
        <ele>39.4</ele>
        <time>2021-07-20T12:10:55Z</time>
      </trkpt>
      <trkpt lat="43.5374520" lon="-5.7313800">
        <ele>40.0</ele>
        <time>2021-07-20T12:10:56Z</time>
      </trkpt>
      <trkpt lat="43.5375030" lon="-5.7314890">
        <ele>40.4</ele>
        <time>2021-07-20T12:11:02Z</time>
      </trkpt>
      <trkpt lat="43.5375180" lon="-5.7315070">
        <ele>40.8</ele>
        <time>2021-07-20T12:11:03Z</time>
      </trkpt>
      <trkpt lat="43.5375320" lon="-5.7315220">
        <ele>41.6</ele>
        <time>2021-07-20T12:11:04Z</time>
      </trkpt>
      <trkpt lat="43.5375450" lon="-5.7315350">
        <ele>42.0</ele>
        <time>2021-07-20T12:11:05Z</time>
      </trkpt>
      <trkpt lat="43.5375890" lon="-5.7316180">
        <ele>42.4</ele>
        <time>2021-07-20T12:11:10Z</time>
      </trkpt>
      <trkpt lat="43.5375950" lon="-5.7316400">
        <ele>42.8</ele>
        <time>2021-07-20T12:11:11Z</time>
      </trkpt>
      <trkpt lat="43.5375980" lon="-5.7316630">
        <ele>43.2</ele>
        <time>2021-07-20T12:11:12Z</time>
      </trkpt>
      <trkpt lat="43.5376030" lon="-5.7316850">
        <ele>43.8</ele>
        <time>2021-07-20T12:11:13Z</time>
      </trkpt>
      <trkpt lat="43.5376070" lon="-5.7317070">
        <ele>44.2</ele>
        <time>2021-07-20T12:11:14Z</time>
      </trkpt>
      <trkpt lat="43.5376430" lon="-5.7318020">
        <ele>44.6</ele>
        <time>2021-07-20T12:11:19Z</time>
      </trkpt>
      <trkpt lat="43.5376500" lon="-5.7318180">
        <ele>45.0</ele>
        <time>2021-07-20T12:11:20Z</time>
      </trkpt>
      <trkpt lat="43.5376540" lon="-5.7318330">
        <ele>45.6</ele>
        <time>2021-07-20T12:11:21Z</time>
      </trkpt>
      <trkpt lat="43.5376570" lon="-5.7318480">
        <ele>46.0</ele>
        <time>2021-07-20T12:11:22Z</time>
      </trkpt>
      <trkpt lat="43.5376600" lon="-5.7318650">
        <ele>46.4</ele>
        <time>2021-07-20T12:11:23Z</time>
      </trkpt>
      <trkpt lat="43.5376820" lon="-5.7319450">
        <ele>46.8</ele>
        <time>2021-07-20T12:11:28Z</time>
      </trkpt>
      <trkpt lat="43.5376860" lon="-5.7319610">
        <ele>47.2</ele>
        <time>2021-07-20T12:11:29Z</time>
      </trkpt>
      <trkpt lat="43.5376890" lon="-5.7319790">
        <ele>47.6</ele>
        <time>2021-07-20T12:11:30Z</time>
      </trkpt>
      <trkpt lat="43.5376910" lon="-5.7319970">
        <ele>48.2</ele>
        <time>2021-07-20T12:11:31Z</time>
      </trkpt>
      <trkpt lat="43.5376930" lon="-5.7320150">
        <ele>48.6</ele>
        <time>2021-07-20T12:11:32Z</time>
      </trkpt>
      <trkpt lat="43.5376980" lon="-5.7320920">
        <ele>48.6</ele>
        <time>2021-07-20T12:11:36Z</time>
      </trkpt>
      <trkpt lat="43.5376930" lon="-5.7321080">
        <ele>48.6</ele>
        <time>2021-07-20T12:11:37Z</time>
      </trkpt>
      <trkpt lat="43.5376840" lon="-5.7321270">
        <ele>49.0</ele>
        <time>2021-07-20T12:11:38Z</time>
      </trkpt>
      <trkpt lat="43.5376730" lon="-5.7321440">
        <ele>49.4</ele>
        <time>2021-07-20T12:11:39Z</time>
      </trkpt>
      <trkpt lat="43.5376580" lon="-5.7321620">
        <ele>49.8</ele>
        <time>2021-07-20T12:11:40Z</time>
      </trkpt>
      <trkpt lat="43.5376410" lon="-5.7321780">
        <ele>50.2</ele>
        <time>2021-07-20T12:11:41Z</time>
      </trkpt>
      <trkpt lat="43.5376250" lon="-5.7321890">
        <ele>50.6</ele>
        <time>2021-07-20T12:11:42Z</time>
      </trkpt>
      <trkpt lat="43.5376000" lon="-5.7322080">
        <ele>50.6</ele>
        <time>2021-07-20T12:11:44Z</time>
      </trkpt>
      <trkpt lat="43.5375550" lon="-5.7322240">
        <ele>50.6</ele>
        <time>2021-07-20T12:11:47Z</time>
      </trkpt>
      <trkpt lat="43.5375240" lon="-5.7322130">
        <ele>50.6</ele>
        <time>2021-07-20T12:11:49Z</time>
      </trkpt>
      <trkpt lat="43.5375080" lon="-5.7322110">
        <ele>50.6</ele>
        <time>2021-07-20T12:11:51Z</time>
      </trkpt>
      <trkpt lat="43.5373800" lon="-5.7321860">
        <ele>54.8</ele>
        <time>2021-07-20T12:18:18Z</time>
      </trkpt>
      <trkpt lat="43.5373670" lon="-5.7321850">
        <ele>54.8</ele>
        <time>2021-07-20T12:18:19Z</time>
      </trkpt>
      <trkpt lat="43.5373420" lon="-5.7321810">
        <ele>54.8</ele>
        <time>2021-07-20T12:18:21Z</time>
      </trkpt>
      <trkpt lat="43.5372970" lon="-5.7321870">
        <ele>55.2</ele>
        <time>2021-07-20T12:18:24Z</time>
      </trkpt>
      <trkpt lat="43.5372720" lon="-5.7321980">
        <ele>55.6</ele>
        <time>2021-07-20T12:18:25Z</time>
      </trkpt>
      <trkpt lat="43.5372520" lon="-5.7322050">
        <ele>56.0</ele>
        <time>2021-07-20T12:18:26Z</time>
      </trkpt>
      <trkpt lat="43.5372360" lon="-5.7322100">
        <ele>56.8</ele>
        <time>2021-07-20T12:18:27Z</time>
      </trkpt>
      <trkpt lat="43.5372090" lon="-5.7322190">
        <ele>56.8</ele>
        <time>2021-07-20T12:18:29Z</time>
      </trkpt>
      <trkpt lat="43.5371650" lon="-5.7322490">
        <ele>57.4</ele>
        <time>2021-07-20T12:18:33Z</time>
      </trkpt>
      <trkpt lat="43.5371510" lon="-5.7322590">
        <ele>57.8</ele>
        <time>2021-07-20T12:18:34Z</time>
      </trkpt>
      <trkpt lat="43.5371360" lon="-5.7322660">
        <ele>58.2</ele>
        <time>2021-07-20T12:18:35Z</time>
      </trkpt>
      <trkpt lat="43.5371200" lon="-5.7322750">
        <ele>58.6</ele>
        <time>2021-07-20T12:18:36Z</time>
      </trkpt>
      <trkpt lat="43.5371050" lon="-5.7322810">
        <ele>59.0</ele>
        <time>2021-07-20T12:18:37Z</time>
      </trkpt>
      <trkpt lat="43.5370890" lon="-5.7322810">
        <ele>59.0</ele>
        <time>2021-07-20T12:18:38Z</time>
      </trkpt>
      <trkpt lat="43.5370230" lon="-5.7322950">
        <ele>59.0</ele>
        <time>2021-07-20T12:18:43Z</time>
      </trkpt>
      <trkpt lat="43.5370180" lon="-5.7322880">
        <ele>59.0</ele>
        <time>2021-07-20T12:18:44Z</time>
      </trkpt>
      <trkpt lat="43.5370060" lon="-5.7322930">
        <ele>59.0</ele>
        <time>2021-07-20T12:19:33Z</time>
      </trkpt>
      <trkpt lat="43.5369940" lon="-5.7322960">
        <ele>59.0</ele>
        <time>2021-07-20T12:19:34Z</time>
      </trkpt>
      <trkpt lat="43.5369210" lon="-5.7323450">
        <ele>59.4</ele>
        <time>2021-07-20T12:19:40Z</time>
      </trkpt>
      <trkpt lat="43.5369140" lon="-5.7323590">
        <ele>60.2</ele>
        <time>2021-07-20T12:19:41Z</time>
      </trkpt>
      <trkpt lat="43.5369040" lon="-5.7323720">
        <ele>60.6</ele>
        <time>2021-07-20T12:19:42Z</time>
      </trkpt>
      <trkpt lat="43.5368960" lon="-5.7323880">
        <ele>61.0</ele>
        <time>2021-07-20T12:19:43Z</time>
      </trkpt>
      <trkpt lat="43.5368680" lon="-5.7324200">
        <ele>61.0</ele>
        <time>2021-07-20T12:19:46Z</time>
      </trkpt>
      <trkpt lat="43.5368270" lon="-5.7324650">
        <ele>61.4</ele>
        <time>2021-07-20T12:19:50Z</time>
      </trkpt>
      <trkpt lat="43.5368160" lon="-5.7324750">
        <ele>61.8</ele>
        <time>2021-07-20T12:19:51Z</time>
      </trkpt>
      <trkpt lat="43.5368050" lon="-5.7324870">
        <ele>62.2</ele>
        <time>2021-07-20T12:19:52Z</time>
      </trkpt>
      <trkpt lat="43.5367990" lon="-5.7324980">
        <ele>62.8</ele>
        <time>2021-07-20T12:19:53Z</time>
      </trkpt>
      <trkpt lat="43.5367950" lon="-5.7325080">
        <ele>63.2</ele>
        <time>2021-07-20T12:19:54Z</time>
      </trkpt>
      <trkpt lat="43.5367960" lon="-5.7325130">
        <ele>63.2</ele>
        <time>2021-07-20T12:19:55Z</time>
      </trkpt>
      <trkpt lat="43.5367440" lon="-5.7326040">
        <ele>63.2</ele>
        <time>2021-07-20T12:20:06Z</time>
      </trkpt>
      <trkpt lat="43.5367380" lon="-5.7326160">
        <ele>63.2</ele>
        <time>2021-07-20T12:20:07Z</time>
      </trkpt>
      <trkpt lat="43.5367310" lon="-5.7326280">
        <ele>63.2</ele>
        <time>2021-07-20T12:20:08Z</time>
      </trkpt>
      <trkpt lat="43.5367000" lon="-5.7326700">
        <ele>63.2</ele>
        <time>2021-07-20T12:20:12Z</time>
      </trkpt>
      <trkpt lat="43.5366810" lon="-5.7327070">
        <ele>63.2</ele>
        <time>2021-07-20T12:20:15Z</time>
      </trkpt>
      <trkpt lat="43.5366820" lon="-5.7327110">
        <ele>63.2</ele>
        <time>2021-07-20T12:20:16Z</time>
      </trkpt>
      <trkpt lat="43.5366650" lon="-5.7327520">
        <ele>63.2</ele>
        <time>2021-07-20T12:20:20Z</time>
      </trkpt>
      <trkpt lat="43.5366480" lon="-5.7327970">
        <ele>63.2</ele>
        <time>2021-07-20T12:20:22Z</time>
      </trkpt>
      <trkpt lat="43.5366230" lon="-5.7329000">
        <ele>63.2</ele>
        <time>2021-07-20T12:20:26Z</time>
      </trkpt>
      <trkpt lat="43.5366060" lon="-5.7329800">
        <ele>63.2</ele>
        <time>2021-07-20T12:20:29Z</time>
      </trkpt>
      <trkpt lat="43.5365850" lon="-5.7330370">
        <ele>63.6</ele>
        <time>2021-07-20T12:20:31Z</time>
      </trkpt>
      <trkpt lat="43.5365790" lon="-5.7330650">
        <ele>64.0</ele>
        <time>2021-07-20T12:20:32Z</time>
      </trkpt>
      <trkpt lat="43.5365690" lon="-5.7330920">
        <ele>64.4</ele>
        <time>2021-07-20T12:20:33Z</time>
      </trkpt>
      <trkpt lat="43.5365620" lon="-5.7331190">
        <ele>64.8</ele>
        <time>2021-07-20T12:20:34Z</time>
      </trkpt>
      <trkpt lat="43.5365570" lon="-5.7331440">
        <ele>65.2</ele>
        <time>2021-07-20T12:20:35Z</time>
      </trkpt>
      <trkpt lat="43.5365470" lon="-5.7331720">
        <ele>65.2</ele>
        <time>2021-07-20T12:20:36Z</time>
      </trkpt>
      <trkpt lat="43.5364860" lon="-5.7333350">
        <ele>65.2</ele>
        <time>2021-07-20T12:20:41Z</time>
      </trkpt>
      <trkpt lat="43.5364040" lon="-5.7334490">
        <ele>65.2</ele>
        <time>2021-07-20T12:20:44Z</time>
      </trkpt>
      <trkpt lat="43.5363790" lon="-5.7334950">
        <ele>64.8</ele>
        <time>2021-07-20T12:20:45Z</time>
      </trkpt>
      <trkpt lat="43.5363640" lon="-5.7335440">
        <ele>64.4</ele>
        <time>2021-07-20T12:20:46Z</time>
      </trkpt>
      <trkpt lat="43.5363480" lon="-5.7335780">
        <ele>64.0</ele>
        <time>2021-07-20T12:20:47Z</time>
      </trkpt>
      <trkpt lat="43.5363360" lon="-5.7335990">
        <ele>63.6</ele>
        <time>2021-07-20T12:20:48Z</time>
      </trkpt>
      <trkpt lat="43.5363310" lon="-5.7336070">
        <ele>63.2</ele>
        <time>2021-07-20T12:20:49Z</time>
      </trkpt>
      <trkpt lat="43.5363300" lon="-5.7336080">
        <ele>63.2</ele>
        <time>2021-07-20T12:20:50Z</time>
      </trkpt>
      <trkpt lat="43.5363110" lon="-5.7336670">
        <ele>63.2</ele>
        <time>2021-07-20T12:20:57Z</time>
      </trkpt>
      <trkpt lat="43.5363220" lon="-5.7337110">
        <ele>63.2</ele>
        <time>2021-07-20T12:20:59Z</time>
      </trkpt>
      <trkpt lat="43.5363490" lon="-5.7338780">
        <ele>63.2</ele>
        <time>2021-07-20T12:21:08Z</time>
      </trkpt>
      <trkpt lat="43.5363560" lon="-5.7339310">
        <ele>63.6</ele>
        <time>2021-07-20T12:21:11Z</time>
      </trkpt>
      <trkpt lat="43.5363590" lon="-5.7339480">
        <ele>64.0</ele>
        <time>2021-07-20T12:21:12Z</time>
      </trkpt>
      <trkpt lat="43.5363620" lon="-5.7339650">
        <ele>64.4</ele>
        <time>2021-07-20T12:21:13Z</time>
      </trkpt>
      <trkpt lat="43.5363640" lon="-5.7339800">
        <ele>64.8</ele>
        <time>2021-07-20T12:21:14Z</time>
      </trkpt>
      <trkpt lat="43.5363660" lon="-5.7339980">
        <ele>65.2</ele>
        <time>2021-07-20T12:21:15Z</time>
      </trkpt>
      <trkpt lat="43.5363670" lon="-5.7340340">
        <ele>65.2</ele>
        <time>2021-07-20T12:21:17Z</time>
      </trkpt>
      <trkpt lat="43.5363760" lon="-5.7340760">
        <ele>66.0</ele>
        <time>2021-07-20T12:21:20Z</time>
      </trkpt>
      <trkpt lat="43.5363790" lon="-5.7340870">
        <ele>66.4</ele>
        <time>2021-07-20T12:21:21Z</time>
      </trkpt>
      <trkpt lat="43.5363810" lon="-5.7340920">
        <ele>67.0</ele>
        <time>2021-07-20T12:21:22Z</time>
      </trkpt>
      <trkpt lat="43.5363840" lon="-5.7341050">
        <ele>67.4</ele>
        <time>2021-07-20T12:21:23Z</time>
      </trkpt>
      <trkpt lat="43.5363830" lon="-5.7341200">
        <ele>67.4</ele>
        <time>2021-07-20T12:21:24Z</time>
      </trkpt>
      <trkpt lat="43.5363800" lon="-5.7341390">
        <ele>67.4</ele>
        <time>2021-07-20T12:21:25Z</time>
      </trkpt>
      <trkpt lat="43.5363800" lon="-5.7341880">
        <ele>67.4</ele>
        <time>2021-07-20T12:21:28Z</time>
      </trkpt>
      <trkpt lat="43.5363800" lon="-5.7342050">
        <ele>67.8</ele>
        <time>2021-07-20T12:21:29Z</time>
      </trkpt>
      <trkpt lat="43.5363800" lon="-5.7342210">
        <ele>68.2</ele>
        <time>2021-07-20T12:21:30Z</time>
      </trkpt>
      <trkpt lat="43.5363800" lon="-5.7342370">
        <ele>68.6</ele>
        <time>2021-07-20T12:21:31Z</time>
      </trkpt>
      <trkpt lat="43.5363790" lon="-5.7342510">
        <ele>69.0</ele>
        <time>2021-07-20T12:21:32Z</time>
      </trkpt>
      <trkpt lat="43.5363760" lon="-5.7342670">
        <ele>69.4</ele>
        <time>2021-07-20T12:21:33Z</time>
      </trkpt>
      <trkpt lat="43.5363700" lon="-5.7343570">
        <ele>69.8</ele>
        <time>2021-07-20T12:21:38Z</time>
      </trkpt>
      <trkpt lat="43.5363730" lon="-5.7343730">
        <ele>70.2</ele>
        <time>2021-07-20T12:21:39Z</time>
      </trkpt>
      <trkpt lat="43.5363770" lon="-5.7343910">
        <ele>70.6</ele>
        <time>2021-07-20T12:21:40Z</time>
      </trkpt>
      <trkpt lat="43.5363810" lon="-5.7344070">
        <ele>71.0</ele>
        <time>2021-07-20T12:21:41Z</time>
      </trkpt>
      <trkpt lat="43.5363860" lon="-5.7344210">
        <ele>71.4</ele>
        <time>2021-07-20T12:21:42Z</time>
      </trkpt>
      <trkpt lat="43.5363940" lon="-5.7345070">
        <ele>71.8</ele>
        <time>2021-07-20T12:21:47Z</time>
      </trkpt>
      <trkpt lat="43.5363970" lon="-5.7345250">
        <ele>72.2</ele>
        <time>2021-07-20T12:21:48Z</time>
      </trkpt>
      <trkpt lat="43.5364010" lon="-5.7345430">
        <ele>72.6</ele>
        <time>2021-07-20T12:21:49Z</time>
      </trkpt>
      <trkpt lat="43.5364040" lon="-5.7345590">
        <ele>73.0</ele>
        <time>2021-07-20T12:21:50Z</time>
      </trkpt>
      <trkpt lat="43.5364060" lon="-5.7345750">
        <ele>73.4</ele>
        <time>2021-07-20T12:21:51Z</time>
      </trkpt>
      <trkpt lat="43.5364280" lon="-5.7346690">
        <ele>73.4</ele>
        <time>2021-07-20T12:21:57Z</time>
      </trkpt>
      <trkpt lat="43.5364420" lon="-5.7347180">
        <ele>74.0</ele>
        <time>2021-07-20T12:22:00Z</time>
      </trkpt>
      <trkpt lat="43.5364450" lon="-5.7347340">
        <ele>74.4</ele>
        <time>2021-07-20T12:22:01Z</time>
      </trkpt>
      <trkpt lat="43.5364500" lon="-5.7347500">
        <ele>74.8</ele>
        <time>2021-07-20T12:22:02Z</time>
      </trkpt>
      <trkpt lat="43.5364560" lon="-5.7347670">
        <ele>75.2</ele>
        <time>2021-07-20T12:22:03Z</time>
      </trkpt>
      <trkpt lat="43.5364630" lon="-5.7347820">
        <ele>75.6</ele>
        <time>2021-07-20T12:22:04Z</time>
      </trkpt>
      <trkpt lat="43.5364840" lon="-5.7348200">
        <ele>75.6</ele>
        <time>2021-07-20T12:22:07Z</time>
      </trkpt>
      <trkpt lat="43.5365160" lon="-5.7348590">
        <ele>76.0</ele>
        <time>2021-07-20T12:22:11Z</time>
      </trkpt>
      <trkpt lat="43.5365230" lon="-5.7348660">
        <ele>76.4</ele>
        <time>2021-07-20T12:22:12Z</time>
      </trkpt>
      <trkpt lat="43.5365290" lon="-5.7348740">
        <ele>76.8</ele>
        <time>2021-07-20T12:22:13Z</time>
      </trkpt>
      <trkpt lat="43.5365340" lon="-5.7348840">
        <ele>77.2</ele>
        <time>2021-07-20T12:22:14Z</time>
      </trkpt>
      <trkpt lat="43.5365390" lon="-5.7348970">
        <ele>77.6</ele>
        <time>2021-07-20T12:22:15Z</time>
      </trkpt>
      <trkpt lat="43.5365490" lon="-5.7349220">
        <ele>77.6</ele>
        <time>2021-07-20T12:22:17Z</time>
      </trkpt>
      <trkpt lat="43.5365850" lon="-5.7349680">
        <ele>78.0</ele>
        <time>2021-07-20T12:22:22Z</time>
      </trkpt>
      <trkpt lat="43.5365930" lon="-5.7349800">
        <ele>78.6</ele>
        <time>2021-07-20T12:22:23Z</time>
      </trkpt>
      <trkpt lat="43.5366000" lon="-5.7349920">
        <ele>79.0</ele>
        <time>2021-07-20T12:22:24Z</time>
      </trkpt>
      <trkpt lat="43.5366060" lon="-5.7350060">
        <ele>79.4</ele>
        <time>2021-07-20T12:22:25Z</time>
      </trkpt>
      <trkpt lat="43.5366110" lon="-5.7350190">
        <ele>79.8</ele>
        <time>2021-07-20T12:22:26Z</time>
      </trkpt>
      <trkpt lat="43.5366140" lon="-5.7350330">
        <ele>79.8</ele>
        <time>2021-07-20T12:22:27Z</time>
      </trkpt>
      <trkpt lat="43.5366260" lon="-5.7351070">
        <ele>79.8</ele>
        <time>2021-07-20T12:22:34Z</time>
      </trkpt>
      <trkpt lat="43.5366230" lon="-5.7351330">
        <ele>81.8</ele>
        <time>2021-07-20T12:22:57Z</time>
      </trkpt>
      <trkpt lat="43.5366150" lon="-5.7351560">
        <ele>81.8</ele>
        <time>2021-07-20T12:22:58Z</time>
      </trkpt>
      <trkpt lat="43.5365770" lon="-5.7352630">
        <ele>81.8</ele>
        <time>2021-07-20T12:23:03Z</time>
      </trkpt>
      <trkpt lat="43.5364960" lon="-5.7354780">
        <ele>81.8</ele>
        <time>2021-07-20T12:23:09Z</time>
      </trkpt>
      <trkpt lat="43.5364380" lon="-5.7356460">
        <ele>82.2</ele>
        <time>2021-07-20T12:23:14Z</time>
      </trkpt>
      <trkpt lat="43.5364300" lon="-5.7356810">
        <ele>82.6</ele>
        <time>2021-07-20T12:23:15Z</time>
      </trkpt>
      <trkpt lat="43.5364230" lon="-5.7357150">
        <ele>83.0</ele>
        <time>2021-07-20T12:23:16Z</time>
      </trkpt>
      <trkpt lat="43.5364150" lon="-5.7357470">
        <ele>83.4</ele>
        <time>2021-07-20T12:23:17Z</time>
      </trkpt>
      <trkpt lat="43.5364060" lon="-5.7357780">
        <ele>84.0</ele>
        <time>2021-07-20T12:23:18Z</time>
      </trkpt>
      <trkpt lat="43.5363630" lon="-5.7359770">
        <ele>84.0</ele>
        <time>2021-07-20T12:23:25Z</time>
      </trkpt>
      <trkpt lat="43.5363500" lon="-5.7360410">
        <ele>84.4</ele>
        <time>2021-07-20T12:23:27Z</time>
      </trkpt>
      <trkpt lat="43.5363430" lon="-5.7360720">
        <ele>84.8</ele>
        <time>2021-07-20T12:23:28Z</time>
      </trkpt>
      <trkpt lat="43.5363380" lon="-5.7361050">
        <ele>85.2</ele>
        <time>2021-07-20T12:23:29Z</time>
      </trkpt>
      <trkpt lat="43.5363320" lon="-5.7361390">
        <ele>85.6</ele>
        <time>2021-07-20T12:23:30Z</time>
      </trkpt>
      <trkpt lat="43.5363270" lon="-5.7361670">
        <ele>86.0</ele>
        <time>2021-07-20T12:23:31Z</time>
      </trkpt>
      <trkpt lat="43.5362970" lon="-5.7362820">
        <ele>86.0</ele>
        <time>2021-07-20T12:23:35Z</time>
      </trkpt>
      <trkpt lat="43.5362790" lon="-5.7364040">
        <ele>86.4</ele>
        <time>2021-07-20T12:23:39Z</time>
      </trkpt>
      <trkpt lat="43.5362800" lon="-5.7364310">
        <ele>86.8</ele>
        <time>2021-07-20T12:23:40Z</time>
      </trkpt>
      <trkpt lat="43.5362760" lon="-5.7364620">
        <ele>87.2</ele>
        <time>2021-07-20T12:23:41Z</time>
      </trkpt>
      <trkpt lat="43.5362720" lon="-5.7364910">
        <ele>87.6</ele>
        <time>2021-07-20T12:23:42Z</time>
      </trkpt>
      <trkpt lat="43.5362680" lon="-5.7365200">
        <ele>88.0</ele>
        <time>2021-07-20T12:23:43Z</time>
      </trkpt>
      <trkpt lat="43.5362350" lon="-5.7367530">
        <ele>88.0</ele>
        <time>2021-07-20T12:23:51Z</time>
      </trkpt>
      <trkpt lat="43.5362280" lon="-5.7368110">
        <ele>88.4</ele>
        <time>2021-07-20T12:23:53Z</time>
      </trkpt>
      <trkpt lat="43.5362260" lon="-5.7368390">
        <ele>88.8</ele>
        <time>2021-07-20T12:23:54Z</time>
      </trkpt>
      <trkpt lat="43.5362180" lon="-5.7368670">
        <ele>89.4</ele>
        <time>2021-07-20T12:23:55Z</time>
      </trkpt>
      <trkpt lat="43.5362110" lon="-5.7368980">
        <ele>89.8</ele>
        <time>2021-07-20T12:23:56Z</time>
      </trkpt>
      <trkpt lat="43.5362020" lon="-5.7369260">
        <ele>90.2</ele>
        <time>2021-07-20T12:23:57Z</time>
      </trkpt>
      <trkpt lat="43.5361790" lon="-5.7370050">
        <ele>90.2</ele>
        <time>2021-07-20T12:24:00Z</time>
      </trkpt>
      <trkpt lat="43.5361370" lon="-5.7372320">
        <ele>90.6</ele>
        <time>2021-07-20T12:24:08Z</time>
      </trkpt>
      <trkpt lat="43.5361330" lon="-5.7372620">
        <ele>91.0</ele>
        <time>2021-07-20T12:24:09Z</time>
      </trkpt>
      <trkpt lat="43.5361280" lon="-5.7372880">
        <ele>91.4</ele>
        <time>2021-07-20T12:24:10Z</time>
      </trkpt>
      <trkpt lat="43.5361250" lon="-5.7373190">
        <ele>91.8</ele>
        <time>2021-07-20T12:24:11Z</time>
      </trkpt>
      <trkpt lat="43.5361180" lon="-5.7373470">
        <ele>92.2</ele>
        <time>2021-07-20T12:24:12Z</time>
      </trkpt>
      <trkpt lat="43.5361030" lon="-5.7374280">
        <ele>92.2</ele>
        <time>2021-07-20T12:24:15Z</time>
      </trkpt>
      <trkpt lat="43.5360940" lon="-5.7375200">
        <ele>92.2</ele>
        <time>2021-07-20T12:24:20Z</time>
      </trkpt>
      <trkpt lat="43.5360720" lon="-5.7375690">
        <ele>94.4</ele>
        <time>2021-07-20T12:28:37Z</time>
      </trkpt>
      <trkpt lat="43.5360690" lon="-5.7375930">
        <ele>94.4</ele>
        <time>2021-07-20T12:28:38Z</time>
      </trkpt>
      <trkpt lat="43.5360610" lon="-5.7376440">
        <ele>94.4</ele>
        <time>2021-07-20T12:28:40Z</time>
      </trkpt>
      <trkpt lat="43.5360540" lon="-5.7377440">
        <ele>94.4</ele>
        <time>2021-07-20T12:28:43Z</time>
      </trkpt>
      <trkpt lat="43.5360470" lon="-5.7379480">
        <ele>94.4</ele>
        <time>2021-07-20T12:28:49Z</time>
      </trkpt>
      <trkpt lat="43.5360390" lon="-5.7380610">
        <ele>94.4</ele>
        <time>2021-07-20T12:28:52Z</time>
      </trkpt>
      <trkpt lat="43.5360040" lon="-5.7382240">
        <ele>94.4</ele>
        <time>2021-07-20T12:28:56Z</time>
      </trkpt>
      <trkpt lat="43.5359060" lon="-5.7385200">
        <ele>94.4</ele>
        <time>2021-07-20T12:29:03Z</time>
      </trkpt>
      <trkpt lat="43.5358150" lon="-5.7388640">
        <ele>94.4</ele>
        <time>2021-07-20T12:29:11Z</time>
      </trkpt>
      <trkpt lat="43.5357580" lon="-5.7390880">
        <ele>94.4</ele>
        <time>2021-07-20T12:29:16Z</time>
      </trkpt>
      <trkpt lat="43.5357230" lon="-5.7391940">
        <ele>94.4</ele>
        <time>2021-07-20T12:29:19Z</time>
      </trkpt>
      <trkpt lat="43.5357030" lon="-5.7392500">
        <ele>94.4</ele>
        <time>2021-07-20T12:29:24Z</time>
      </trkpt>
      <trkpt lat="43.5357190" lon="-5.7392900">
        <ele>94.4</ele>
        <time>2021-07-20T12:29:31Z</time>
      </trkpt>
      <trkpt lat="43.5357410" lon="-5.7393250">
        <ele>94.4</ele>
        <time>2021-07-20T12:29:33Z</time>
      </trkpt>
      <trkpt lat="43.5357600" lon="-5.7394770">
        <ele>94.4</ele>
        <time>2021-07-20T12:29:38Z</time>
      </trkpt>
      <trkpt lat="43.5357640" lon="-5.7395140">
        <ele>94.4</ele>
        <time>2021-07-20T12:29:39Z</time>
      </trkpt>
      <trkpt lat="43.5357780" lon="-5.7396600">
        <ele>94.8</ele>
        <time>2021-07-20T12:29:43Z</time>
      </trkpt>
      <trkpt lat="43.5357820" lon="-5.7396910">
        <ele>95.2</ele>
        <time>2021-07-20T12:29:44Z</time>
      </trkpt>
      <trkpt lat="43.5357860" lon="-5.7397240">
        <ele>95.6</ele>
        <time>2021-07-20T12:29:45Z</time>
      </trkpt>
      <trkpt lat="43.5357910" lon="-5.7397530">
        <ele>96.0</ele>
        <time>2021-07-20T12:29:46Z</time>
      </trkpt>
      <trkpt lat="43.5357940" lon="-5.7397840">
        <ele>96.6</ele>
        <time>2021-07-20T12:29:47Z</time>
      </trkpt>
      <trkpt lat="43.5358030" lon="-5.7399160">
        <ele>96.6</ele>
        <time>2021-07-20T12:29:51Z</time>
      </trkpt>
      <trkpt lat="43.5358080" lon="-5.7399840">
        <ele>96.6</ele>
        <time>2021-07-20T12:29:53Z</time>
      </trkpt>
      <trkpt lat="43.5358140" lon="-5.7400450">
        <ele>96.6</ele>
        <time>2021-07-20T12:29:55Z</time>
      </trkpt>
      <trkpt lat="43.5358350" lon="-5.7401490">
        <ele>97.4</ele>
        <time>2021-07-20T12:29:59Z</time>
      </trkpt>
      <trkpt lat="43.5358380" lon="-5.7401720">
        <ele>97.8</ele>
        <time>2021-07-20T12:30:00Z</time>
      </trkpt>
      <trkpt lat="43.5358370" lon="-5.7401890">
        <ele>98.2</ele>
        <time>2021-07-20T12:30:01Z</time>
      </trkpt>
      <trkpt lat="43.5358430" lon="-5.7402120">
        <ele>98.6</ele>
        <time>2021-07-20T12:30:02Z</time>
      </trkpt>
      <trkpt lat="43.5358730" lon="-5.7403280">
        <ele>98.6</ele>
        <time>2021-07-20T12:30:07Z</time>
      </trkpt>
      <trkpt lat="43.5358760" lon="-5.7403500">
        <ele>99.0</ele>
        <time>2021-07-20T12:30:08Z</time>
      </trkpt>
      <trkpt lat="43.5358840" lon="-5.7403710">
        <ele>99.4</ele>
        <time>2021-07-20T12:30:09Z</time>
      </trkpt>
      <trkpt lat="43.5358920" lon="-5.7403910">
        <ele>99.8</ele>
        <time>2021-07-20T12:30:10Z</time>
      </trkpt>
      <trkpt lat="43.5359000" lon="-5.7404100">
        <ele>100.2</ele>
        <time>2021-07-20T12:30:11Z</time>
      </trkpt>
      <trkpt lat="43.5359070" lon="-5.7404310">
        <ele>100.6</ele>
        <time>2021-07-20T12:30:12Z</time>
      </trkpt>
      <trkpt lat="43.5359190" lon="-5.7404780">
        <ele>100.6</ele>
        <time>2021-07-20T12:30:14Z</time>
      </trkpt>
      <trkpt lat="43.5359540" lon="-5.7405920">
        <ele>100.6</ele>
        <time>2021-07-20T12:30:20Z</time>
      </trkpt>
      <trkpt lat="43.5359750" lon="-5.7406320">
        <ele>101.0</ele>
        <time>2021-07-20T12:30:22Z</time>
      </trkpt>
      <trkpt lat="43.5359820" lon="-5.7406550">
        <ele>101.6</ele>
        <time>2021-07-20T12:30:23Z</time>
      </trkpt>
      <trkpt lat="43.5359890" lon="-5.7406760">
        <ele>102.4</ele>
        <time>2021-07-20T12:30:24Z</time>
      </trkpt>
      <trkpt lat="43.5359970" lon="-5.7406970">
        <ele>102.8</ele>
        <time>2021-07-20T12:30:25Z</time>
      </trkpt>
      <trkpt lat="43.5360090" lon="-5.7407350">
        <ele>102.8</ele>
        <time>2021-07-20T12:30:27Z</time>
      </trkpt>
      <trkpt lat="43.5360310" lon="-5.7407850">
        <ele>103.2</ele>
        <time>2021-07-20T12:30:30Z</time>
      </trkpt>
      <trkpt lat="43.5360420" lon="-5.7407990">
        <ele>103.6</ele>
        <time>2021-07-20T12:30:31Z</time>
      </trkpt>
      <trkpt lat="43.5360520" lon="-5.7408130">
        <ele>104.0</ele>
        <time>2021-07-20T12:30:32Z</time>
      </trkpt>
      <trkpt lat="43.5360580" lon="-5.7408310">
        <ele>104.4</ele>
        <time>2021-07-20T12:30:33Z</time>
      </trkpt>
      <trkpt lat="43.5360620" lon="-5.7408500">
        <ele>105.0</ele>
        <time>2021-07-20T12:30:34Z</time>
      </trkpt>
      <trkpt lat="43.5361040" lon="-5.7409410">
        <ele>105.4</ele>
        <time>2021-07-20T12:30:39Z</time>
      </trkpt>
      <trkpt lat="43.5361140" lon="-5.7409540">
        <ele>105.8</ele>
        <time>2021-07-20T12:30:40Z</time>
      </trkpt>
      <trkpt lat="43.5361250" lon="-5.7409650">
        <ele>106.2</ele>
        <time>2021-07-20T12:30:41Z</time>
      </trkpt>
      <trkpt lat="43.5361340" lon="-5.7409760">
        <ele>106.6</ele>
        <time>2021-07-20T12:30:42Z</time>
      </trkpt>
      <trkpt lat="43.5361430" lon="-5.7409860">
        <ele>107.2</ele>
        <time>2021-07-20T12:30:43Z</time>
      </trkpt>
      <trkpt lat="43.5361930" lon="-5.7410490">
        <ele>108.0</ele>
        <time>2021-07-20T12:30:48Z</time>
      </trkpt>
      <trkpt lat="43.5362010" lon="-5.7410620">
        <ele>108.4</ele>
        <time>2021-07-20T12:30:49Z</time>
      </trkpt>
      <trkpt lat="43.5362120" lon="-5.7410740">
        <ele>108.8</ele>
        <time>2021-07-20T12:30:50Z</time>
      </trkpt>
      <trkpt lat="43.5362230" lon="-5.7410830">
        <ele>109.2</ele>
        <time>2021-07-20T12:30:51Z</time>
      </trkpt>
      <trkpt lat="43.5362460" lon="-5.7411020">
        <ele>109.2</ele>
        <time>2021-07-20T12:30:53Z</time>
      </trkpt>
      <trkpt lat="43.5362590" lon="-5.7411030">
        <ele>109.2</ele>
        <time>2021-07-20T12:30:54Z</time>
      </trkpt>
      <trkpt lat="43.5362880" lon="-5.7411020">
        <ele>109.6</ele>
        <time>2021-07-20T12:30:56Z</time>
      </trkpt>
      <trkpt lat="43.5363030" lon="-5.7411000">
        <ele>110.0</ele>
        <time>2021-07-20T12:30:57Z</time>
      </trkpt>
      <trkpt lat="43.5363140" lon="-5.7411030">
        <ele>110.4</ele>
        <time>2021-07-20T12:30:58Z</time>
      </trkpt>
      <trkpt lat="43.5363270" lon="-5.7411090">
        <ele>110.8</ele>
        <time>2021-07-20T12:30:59Z</time>
      </trkpt>
      <trkpt lat="43.5363380" lon="-5.7411170">
        <ele>111.2</ele>
        <time>2021-07-20T12:31:00Z</time>
      </trkpt>
      <trkpt lat="43.5364220" lon="-5.7411440">
        <ele>111.6</ele>
        <time>2021-07-20T12:31:07Z</time>
      </trkpt>
      <trkpt lat="43.5364370" lon="-5.7411430">
        <ele>112.0</ele>
        <time>2021-07-20T12:31:08Z</time>
      </trkpt>
      <trkpt lat="43.5364490" lon="-5.7411460">
        <ele>112.4</ele>
        <time>2021-07-20T12:31:09Z</time>
      </trkpt>
      <trkpt lat="43.5364590" lon="-5.7411510">
        <ele>112.8</ele>
        <time>2021-07-20T12:31:10Z</time>
      </trkpt>
      <trkpt lat="43.5364690" lon="-5.7411570">
        <ele>113.4</ele>
        <time>2021-07-20T12:31:11Z</time>
      </trkpt>
      <trkpt lat="43.5365170" lon="-5.7411970">
        <ele>113.4</ele>
        <time>2021-07-20T12:31:15Z</time>
      </trkpt>
      <trkpt lat="43.5365260" lon="-5.7412030">
        <ele>113.8</ele>
        <time>2021-07-20T12:31:16Z</time>
      </trkpt>
      <trkpt lat="43.5365360" lon="-5.7412110">
        <ele>114.2</ele>
        <time>2021-07-20T12:31:17Z</time>
      </trkpt>
      <trkpt lat="43.5365470" lon="-5.7412220">
        <ele>114.6</ele>
        <time>2021-07-20T12:31:18Z</time>
      </trkpt>
      <trkpt lat="43.5365480" lon="-5.7412230">
        <ele>115.0</ele>
        <time>2021-07-20T12:31:19Z</time>
      </trkpt>
      <trkpt lat="43.5365490" lon="-5.7412230">
        <ele>115.4</ele>
        <time>2021-07-20T12:31:20Z</time>
      </trkpt>
      <trkpt lat="43.5367910" lon="-5.7413920">
        <ele>119.6</ele>
        <time>2021-07-20T12:31:47Z</time>
      </trkpt>
      <trkpt lat="43.5368480" lon="-5.7414650">
        <ele>119.6</ele>
        <time>2021-07-20T12:31:55Z</time>
      </trkpt>
      <trkpt lat="43.5368730" lon="-5.7414960">
        <ele>120.0</ele>
        <time>2021-07-20T12:31:58Z</time>
      </trkpt>
      <trkpt lat="43.5368810" lon="-5.7415060">
        <ele>120.4</ele>
        <time>2021-07-20T12:31:59Z</time>
      </trkpt>
      <trkpt lat="43.5368880" lon="-5.7415180">
        <ele>121.0</ele>
        <time>2021-07-20T12:32:00Z</time>
      </trkpt>
      <trkpt lat="43.5368990" lon="-5.7415300">
        <ele>121.4</ele>
        <time>2021-07-20T12:32:01Z</time>
      </trkpt>
      <trkpt lat="43.5369070" lon="-5.7415380">
        <ele>121.8</ele>
        <time>2021-07-20T12:32:02Z</time>
      </trkpt>
      <trkpt lat="43.5369300" lon="-5.7415620">
        <ele>121.8</ele>
        <time>2021-07-20T12:32:05Z</time>
      </trkpt>
      <trkpt lat="43.5369580" lon="-5.7416020">
        <ele>122.2</ele>
        <time>2021-07-20T12:32:09Z</time>
      </trkpt>
      <trkpt lat="43.5369660" lon="-5.7416120">
        <ele>122.6</ele>
        <time>2021-07-20T12:32:10Z</time>
      </trkpt>
      <trkpt lat="43.5369720" lon="-5.7416220">
        <ele>123.0</ele>
        <time>2021-07-20T12:32:11Z</time>
      </trkpt>
      <trkpt lat="43.5369770" lon="-5.7416310">
        <ele>123.4</ele>
        <time>2021-07-20T12:32:12Z</time>
      </trkpt>
      <trkpt lat="43.5369860" lon="-5.7416420">
        <ele>123.8</ele>
        <time>2021-07-20T12:32:13Z</time>
      </trkpt>
      <trkpt lat="43.5370030" lon="-5.7416620">
        <ele>123.8</ele>
        <time>2021-07-20T12:32:15Z</time>
      </trkpt>
      <trkpt lat="43.5370430" lon="-5.7417150">
        <ele>124.2</ele>
        <time>2021-07-20T12:32:20Z</time>
      </trkpt>
      <trkpt lat="43.5370540" lon="-5.7417250">
        <ele>124.6</ele>
        <time>2021-07-20T12:32:21Z</time>
      </trkpt>
      <trkpt lat="43.5370620" lon="-5.7417350">
        <ele>125.0</ele>
        <time>2021-07-20T12:32:22Z</time>
      </trkpt>
      <trkpt lat="43.5370710" lon="-5.7417430">
        <ele>125.4</ele>
        <time>2021-07-20T12:32:23Z</time>
      </trkpt>
      <trkpt lat="43.5370770" lon="-5.7417510">
        <ele>125.8</ele>
        <time>2021-07-20T12:32:24Z</time>
      </trkpt>
      <trkpt lat="43.5370860" lon="-5.7417570">
        <ele>125.8</ele>
        <time>2021-07-20T12:32:25Z</time>
      </trkpt>
      <trkpt lat="43.5371390" lon="-5.7418070">
        <ele>126.4</ele>
        <time>2021-07-20T12:32:32Z</time>
      </trkpt>
      <trkpt lat="43.5371500" lon="-5.7418120">
        <ele>126.8</ele>
        <time>2021-07-20T12:32:33Z</time>
      </trkpt>
      <trkpt lat="43.5371520" lon="-5.7418130">
        <ele>127.2</ele>
        <time>2021-07-20T12:32:34Z</time>
      </trkpt>
      <trkpt lat="43.5371620" lon="-5.7418220">
        <ele>127.6</ele>
        <time>2021-07-20T12:32:35Z</time>
      </trkpt>
      <trkpt lat="43.5371620" lon="-5.7418240">
        <ele>128.0</ele>
        <time>2021-07-20T12:32:36Z</time>
      </trkpt>
      <trkpt lat="43.5372030" lon="-5.7418910">
        <ele>128.0</ele>
        <time>2021-07-20T12:32:43Z</time>
      </trkpt>
      <trkpt lat="43.5372060" lon="-5.7418980">
        <ele>128.4</ele>
        <time>2021-07-20T12:32:44Z</time>
      </trkpt>
      <trkpt lat="43.5372030" lon="-5.7419020">
        <ele>128.8</ele>
        <time>2021-07-20T12:32:45Z</time>
      </trkpt>
      <trkpt lat="43.5372070" lon="-5.7419100">
        <ele>129.2</ele>
        <time>2021-07-20T12:32:46Z</time>
      </trkpt>
      <trkpt lat="43.5372110" lon="-5.7419160">
        <ele>129.6</ele>
        <time>2021-07-20T12:32:47Z</time>
      </trkpt>
      <trkpt lat="43.5372160" lon="-5.7419220">
        <ele>130.0</ele>
        <time>2021-07-20T12:32:48Z</time>
      </trkpt>
      <trkpt lat="43.5372380" lon="-5.7419360">
        <ele>130.0</ele>
        <time>2021-07-20T12:32:51Z</time>
      </trkpt>
      <trkpt lat="43.5372530" lon="-5.7419420">
        <ele>130.4</ele>
        <time>2021-07-20T12:32:54Z</time>
      </trkpt>
      <trkpt lat="43.5372620" lon="-5.7419460">
        <ele>131.0</ele>
        <time>2021-07-20T12:32:55Z</time>
      </trkpt>
      <trkpt lat="43.5372720" lon="-5.7419530">
        <ele>131.4</ele>
        <time>2021-07-20T12:32:56Z</time>
      </trkpt>
      <trkpt lat="43.5372810" lon="-5.7419600">
        <ele>131.8</ele>
        <time>2021-07-20T12:32:57Z</time>
      </trkpt>
      <trkpt lat="43.5373020" lon="-5.7419740">
        <ele>132.2</ele>
        <time>2021-07-20T12:32:58Z</time>
      </trkpt>
      <trkpt lat="43.5373150" lon="-5.7419830">
        <ele>132.2</ele>
        <time>2021-07-20T12:32:59Z</time>
      </trkpt>
      <trkpt lat="43.5373830" lon="-5.7420350">
        <ele>132.2</ele>
        <time>2021-07-20T12:33:06Z</time>
      </trkpt>
      <trkpt lat="43.5374470" lon="-5.7421070">
        <ele>132.2</ele>
        <time>2021-07-20T12:33:12Z</time>
      </trkpt>
      <trkpt lat="43.5374570" lon="-5.7421210">
        <ele>132.6</ele>
        <time>2021-07-20T12:33:13Z</time>
      </trkpt>
      <trkpt lat="43.5374620" lon="-5.7421320">
        <ele>133.0</ele>
        <time>2021-07-20T12:33:14Z</time>
      </trkpt>
      <trkpt lat="43.5374710" lon="-5.7421450">
        <ele>133.4</ele>
        <time>2021-07-20T12:33:15Z</time>
      </trkpt>
      <trkpt lat="43.5374790" lon="-5.7421560">
        <ele>133.8</ele>
        <time>2021-07-20T12:33:16Z</time>
      </trkpt>
      <trkpt lat="43.5374830" lon="-5.7421650">
        <ele>134.2</ele>
        <time>2021-07-20T12:33:17Z</time>
      </trkpt>
      <trkpt lat="43.5374960" lon="-5.7421880">
        <ele>134.2</ele>
        <time>2021-07-20T12:33:19Z</time>
      </trkpt>
      <trkpt lat="43.5375270" lon="-5.7422500">
        <ele>134.6</ele>
        <time>2021-07-20T12:33:24Z</time>
      </trkpt>
      <trkpt lat="43.5375350" lon="-5.7422630">
        <ele>135.0</ele>
        <time>2021-07-20T12:33:25Z</time>
      </trkpt>
      <trkpt lat="43.5375410" lon="-5.7422780">
        <ele>135.4</ele>
        <time>2021-07-20T12:33:26Z</time>
      </trkpt>
      <trkpt lat="43.5375450" lon="-5.7422930">
        <ele>135.8</ele>
        <time>2021-07-20T12:33:27Z</time>
      </trkpt>
      <trkpt lat="43.5375540" lon="-5.7423070">
        <ele>136.2</ele>
        <time>2021-07-20T12:33:28Z</time>
      </trkpt>
      <trkpt lat="43.5375620" lon="-5.7423210">
        <ele>136.2</ele>
        <time>2021-07-20T12:33:29Z</time>
      </trkpt>
      <trkpt lat="43.5375850" lon="-5.7424270">
        <ele>136.8</ele>
        <time>2021-07-20T12:33:37Z</time>
      </trkpt>
      <trkpt lat="43.5375890" lon="-5.7424470">
        <ele>137.2</ele>
        <time>2021-07-20T12:33:38Z</time>
      </trkpt>
      <trkpt lat="43.5375900" lon="-5.7424660">
        <ele>137.6</ele>
        <time>2021-07-20T12:33:39Z</time>
      </trkpt>
      <trkpt lat="43.5375920" lon="-5.7424880">
        <ele>138.0</ele>
        <time>2021-07-20T12:33:40Z</time>
      </trkpt>
      <trkpt lat="43.5375930" lon="-5.7425030">
        <ele>138.4</ele>
        <time>2021-07-20T12:33:41Z</time>
      </trkpt>
      <trkpt lat="43.5375880" lon="-5.7425690">
        <ele>138.4</ele>
        <time>2021-07-20T12:33:47Z</time>
      </trkpt>
      <trkpt lat="43.5376000" lon="-5.7426360">
        <ele>138.8</ele>
        <time>2021-07-20T12:33:51Z</time>
      </trkpt>
      <trkpt lat="43.5376080" lon="-5.7426540">
        <ele>139.2</ele>
        <time>2021-07-20T12:33:52Z</time>
      </trkpt>
      <trkpt lat="43.5376140" lon="-5.7426690">
        <ele>139.6</ele>
        <time>2021-07-20T12:33:53Z</time>
      </trkpt>
      <trkpt lat="43.5376130" lon="-5.7426820">
        <ele>140.0</ele>
        <time>2021-07-20T12:33:54Z</time>
      </trkpt>
      <trkpt lat="43.5376130" lon="-5.7426970">
        <ele>140.6</ele>
        <time>2021-07-20T12:33:55Z</time>
      </trkpt>
      <trkpt lat="43.5376360" lon="-5.7428080">
        <ele>140.6</ele>
        <time>2021-07-20T12:34:02Z</time>
      </trkpt>
      <trkpt lat="43.5376550" lon="-5.7428530">
        <ele>141.0</ele>
        <time>2021-07-20T12:34:05Z</time>
      </trkpt>
      <trkpt lat="43.5376620" lon="-5.7428650">
        <ele>141.8</ele>
        <time>2021-07-20T12:34:06Z</time>
      </trkpt>
      <trkpt lat="43.5376670" lon="-5.7428760">
        <ele>142.2</ele>
        <time>2021-07-20T12:34:07Z</time>
      </trkpt>
      <trkpt lat="43.5376720" lon="-5.7428870">
        <ele>142.6</ele>
        <time>2021-07-20T12:34:08Z</time>
      </trkpt>
      <trkpt lat="43.5376820" lon="-5.7429110">
        <ele>142.6</ele>
        <time>2021-07-20T12:34:10Z</time>
      </trkpt>
      <trkpt lat="43.5376990" lon="-5.7430030">
        <ele>142.6</ele>
        <time>2021-07-20T12:34:18Z</time>
      </trkpt>
      <trkpt lat="43.5377090" lon="-5.7430240">
        <ele>143.0</ele>
        <time>2021-07-20T12:34:20Z</time>
      </trkpt>
      <trkpt lat="43.5377110" lon="-5.7430440">
        <ele>143.4</ele>
        <time>2021-07-20T12:34:21Z</time>
      </trkpt>
      <trkpt lat="43.5377070" lon="-5.7430580">
        <ele>143.8</ele>
        <time>2021-07-20T12:34:22Z</time>
      </trkpt>
      <trkpt lat="43.5377080" lon="-5.7430590">
        <ele>144.2</ele>
        <time>2021-07-20T12:34:23Z</time>
      </trkpt>
      <trkpt lat="43.5377090" lon="-5.7430690">
        <ele>144.6</ele>
        <time>2021-07-20T12:34:24Z</time>
      </trkpt>
      <trkpt lat="43.5377260" lon="-5.7432100">
        <ele>144.6</ele>
        <time>2021-07-20T12:34:48Z</time>
      </trkpt>
      <trkpt lat="43.5377330" lon="-5.7432740">
        <ele>144.6</ele>
        <time>2021-07-20T12:34:51Z</time>
      </trkpt>
      <trkpt lat="43.5377580" lon="-5.7433590">
        <ele>145.0</ele>
        <time>2021-07-20T12:34:55Z</time>
      </trkpt>
      <trkpt lat="43.5377630" lon="-5.7433800">
        <ele>145.4</ele>
        <time>2021-07-20T12:34:56Z</time>
      </trkpt>
      <trkpt lat="43.5377710" lon="-5.7434010">
        <ele>145.8</ele>
        <time>2021-07-20T12:34:57Z</time>
      </trkpt>
      <trkpt lat="43.5377770" lon="-5.7434260">
        <ele>146.2</ele>
        <time>2021-07-20T12:34:58Z</time>
      </trkpt>
      <trkpt lat="43.5377850" lon="-5.7434490">
        <ele>146.6</ele>
        <time>2021-07-20T12:34:59Z</time>
      </trkpt>
      <trkpt lat="43.5378460" lon="-5.7436060">
        <ele>146.6</ele>
        <time>2021-07-20T12:35:05Z</time>
      </trkpt>
      <trkpt lat="43.5378760" lon="-5.7437880">
        <ele>146.6</ele>
        <time>2021-07-20T12:35:12Z</time>
      </trkpt>
      <trkpt lat="43.5378740" lon="-5.7438190">
        <ele>147.0</ele>
        <time>2021-07-20T12:35:13Z</time>
      </trkpt>
      <trkpt lat="43.5378750" lon="-5.7438450">
        <ele>147.4</ele>
        <time>2021-07-20T12:35:14Z</time>
      </trkpt>
      <trkpt lat="43.5378780" lon="-5.7438700">
        <ele>147.8</ele>
        <time>2021-07-20T12:35:15Z</time>
      </trkpt>
      <trkpt lat="43.5378790" lon="-5.7438980">
        <ele>148.2</ele>
        <time>2021-07-20T12:35:16Z</time>
      </trkpt>
      <trkpt lat="43.5378780" lon="-5.7439280">
        <ele>148.6</ele>
        <time>2021-07-20T12:35:17Z</time>
      </trkpt>
      <trkpt lat="43.5378790" lon="-5.7439940">
        <ele>148.6</ele>
        <time>2021-07-20T12:35:19Z</time>
      </trkpt>
      <trkpt lat="43.5378940" lon="-5.7442170">
        <ele>148.6</ele>
        <time>2021-07-20T12:35:26Z</time>
      </trkpt>
      <trkpt lat="43.5378980" lon="-5.7444010">
        <ele>149.0</ele>
        <time>2021-07-20T12:35:31Z</time>
      </trkpt>
      <trkpt lat="43.5378990" lon="-5.7444400">
        <ele>149.4</ele>
        <time>2021-07-20T12:35:32Z</time>
      </trkpt>
      <trkpt lat="43.5379030" lon="-5.7444810">
        <ele>150.0</ele>
        <time>2021-07-20T12:35:33Z</time>
      </trkpt>
      <trkpt lat="43.5379050" lon="-5.7445210">
        <ele>150.4</ele>
        <time>2021-07-20T12:35:34Z</time>
      </trkpt>
      <trkpt lat="43.5379090" lon="-5.7445530">
        <ele>150.8</ele>
        <time>2021-07-20T12:35:35Z</time>
      </trkpt>
      <trkpt lat="43.5379360" lon="-5.7448300">
        <ele>150.8</ele>
        <time>2021-07-20T12:35:41Z</time>
      </trkpt>
      <trkpt lat="43.5379540" lon="-5.7450620">
        <ele>150.8</ele>
        <time>2021-07-20T12:35:45Z</time>
      </trkpt>
      <trkpt lat="43.5379620" lon="-5.7451830">
        <ele>150.8</ele>
        <time>2021-07-20T12:35:47Z</time>
      </trkpt>
      <trkpt lat="43.5379890" lon="-5.7453270">
        <ele>150.8</ele>
        <time>2021-07-20T12:35:50Z</time>
      </trkpt>
      <trkpt lat="43.5379920" lon="-5.7454020">
        <ele>150.8</ele>
        <time>2021-07-20T12:35:52Z</time>
      </trkpt>
      <trkpt lat="43.5379890" lon="-5.7454290">
        <ele>150.8</ele>
        <time>2021-07-20T12:35:54Z</time>
      </trkpt>
      <trkpt lat="43.5379870" lon="-5.7455100">
        <ele>148.8</ele>
        <time>2021-07-20T12:36:16Z</time>
      </trkpt>
      <trkpt lat="43.5379870" lon="-5.7455360">
        <ele>148.8</ele>
        <time>2021-07-20T12:36:17Z</time>
      </trkpt>
      <trkpt lat="43.5380030" lon="-5.7457630">
        <ele>148.8</ele>
        <time>2021-07-20T12:36:22Z</time>
      </trkpt>
      <trkpt lat="43.5380310" lon="-5.7461190">
        <ele>148.8</ele>
        <time>2021-07-20T12:36:29Z</time>
      </trkpt>
      <trkpt lat="43.5380500" lon="-5.7464530">
        <ele>148.8</ele>
        <time>2021-07-20T12:36:35Z</time>
      </trkpt>
      <trkpt lat="43.5380480" lon="-5.7465050">
        <ele>148.8</ele>
        <time>2021-07-20T12:36:36Z</time>
      </trkpt>
      <trkpt lat="43.5380440" lon="-5.7468770">
        <ele>149.2</ele>
        <time>2021-07-20T12:36:43Z</time>
      </trkpt>
      <trkpt lat="43.5380430" lon="-5.7469300">
        <ele>149.6</ele>
        <time>2021-07-20T12:36:44Z</time>
      </trkpt>
      <trkpt lat="43.5380410" lon="-5.7469840">
        <ele>150.0</ele>
        <time>2021-07-20T12:36:45Z</time>
      </trkpt>
      <trkpt lat="43.5380390" lon="-5.7470330">
        <ele>150.4</ele>
        <time>2021-07-20T12:36:46Z</time>
      </trkpt>
      <trkpt lat="43.5380350" lon="-5.7470850">
        <ele>150.8</ele>
        <time>2021-07-20T12:36:47Z</time>
      </trkpt>
      <trkpt lat="43.5380140" lon="-5.7473930">
        <ele>150.8</ele>
        <time>2021-07-20T12:36:53Z</time>
      </trkpt>
      <trkpt lat="43.5380080" lon="-5.7477470">
        <ele>150.8</ele>
        <time>2021-07-20T12:37:00Z</time>
      </trkpt>
      <trkpt lat="43.5380030" lon="-5.7478020">
        <ele>150.8</ele>
        <time>2021-07-20T12:37:01Z</time>
      </trkpt>
      <trkpt lat="43.5379640" lon="-5.7482970">
        <ele>150.8</ele>
        <time>2021-07-20T12:37:10Z</time>
      </trkpt>
      <trkpt lat="43.5378950" lon="-5.7486970">
        <ele>150.8</ele>
        <time>2021-07-20T12:37:17Z</time>
      </trkpt>
      <trkpt lat="43.5378750" lon="-5.7487980">
        <ele>151.2</ele>
        <time>2021-07-20T12:37:19Z</time>
      </trkpt>
      <trkpt lat="43.5378670" lon="-5.7488500">
        <ele>151.6</ele>
        <time>2021-07-20T12:37:20Z</time>
      </trkpt>
      <trkpt lat="43.5378570" lon="-5.7489030">
        <ele>152.0</ele>
        <time>2021-07-20T12:37:21Z</time>
      </trkpt>
      <trkpt lat="43.5378470" lon="-5.7489560">
        <ele>152.4</ele>
        <time>2021-07-20T12:37:22Z</time>
      </trkpt>
      <trkpt lat="43.5378380" lon="-5.7490080">
        <ele>152.8</ele>
        <time>2021-07-20T12:37:23Z</time>
      </trkpt>
      <trkpt lat="43.5378330" lon="-5.7490610">
        <ele>152.8</ele>
        <time>2021-07-20T12:37:24Z</time>
      </trkpt>
      <trkpt lat="43.5377730" lon="-5.7494510">
        <ele>152.8</ele>
        <time>2021-07-20T12:37:32Z</time>
      </trkpt>
      <trkpt lat="43.5377670" lon="-5.7495050">
        <ele>153.2</ele>
        <time>2021-07-20T12:37:33Z</time>
      </trkpt>
      <trkpt lat="43.5377600" lon="-5.7495600">
        <ele>153.6</ele>
        <time>2021-07-20T12:37:34Z</time>
      </trkpt>
      <trkpt lat="43.5377490" lon="-5.7496150">
        <ele>154.0</ele>
        <time>2021-07-20T12:37:35Z</time>
      </trkpt>
      <trkpt lat="43.5377440" lon="-5.7496680">
        <ele>154.4</ele>
        <time>2021-07-20T12:37:36Z</time>
      </trkpt>
      <trkpt lat="43.5377370" lon="-5.7497230">
        <ele>154.8</ele>
        <time>2021-07-20T12:37:37Z</time>
      </trkpt>
      <trkpt lat="43.5377080" lon="-5.7498750">
        <ele>154.8</ele>
        <time>2021-07-20T12:37:40Z</time>
      </trkpt>
      <trkpt lat="43.5376550" lon="-5.7502480">
        <ele>154.8</ele>
        <time>2021-07-20T12:37:47Z</time>
      </trkpt>
      <trkpt lat="43.5376070" lon="-5.7505800">
        <ele>154.8</ele>
        <time>2021-07-20T12:37:53Z</time>
      </trkpt>
      <trkpt lat="43.5375210" lon="-5.7510390">
        <ele>154.8</ele>
        <time>2021-07-20T12:38:01Z</time>
      </trkpt>
      <trkpt lat="43.5374450" lon="-5.7514600">
        <ele>154.8</ele>
        <time>2021-07-20T12:38:08Z</time>
      </trkpt>
      <trkpt lat="43.5373740" lon="-5.7519400">
        <ele>154.8</ele>
        <time>2021-07-20T12:38:16Z</time>
      </trkpt>
      <trkpt lat="43.5373250" lon="-5.7522240">
        <ele>154.8</ele>
        <time>2021-07-20T12:38:21Z</time>
      </trkpt>
      <trkpt lat="43.5373050" lon="-5.7523370">
        <ele>154.8</ele>
        <time>2021-07-20T12:38:23Z</time>
      </trkpt>
      <trkpt lat="43.5372580" lon="-5.7526050">
        <ele>155.4</ele>
        <time>2021-07-20T12:38:28Z</time>
      </trkpt>
      <trkpt lat="43.5372450" lon="-5.7526550">
        <ele>155.8</ele>
        <time>2021-07-20T12:38:29Z</time>
      </trkpt>
      <trkpt lat="43.5372280" lon="-5.7527070">
        <ele>156.2</ele>
        <time>2021-07-20T12:38:30Z</time>
      </trkpt>
      <trkpt lat="43.5372110" lon="-5.7527570">
        <ele>156.6</ele>
        <time>2021-07-20T12:38:31Z</time>
      </trkpt>
      <trkpt lat="43.5371950" lon="-5.7528060">
        <ele>157.0</ele>
        <time>2021-07-20T12:38:32Z</time>
      </trkpt>
      <trkpt lat="43.5371140" lon="-5.7530110">
        <ele>157.0</ele>
        <time>2021-07-20T12:38:37Z</time>
      </trkpt>
      <trkpt lat="43.5370530" lon="-5.7532560">
        <ele>157.0</ele>
        <time>2021-07-20T12:38:43Z</time>
      </trkpt>
      <trkpt lat="43.5370810" lon="-5.7534480">
        <ele>157.0</ele>
        <time>2021-07-20T12:38:47Z</time>
      </trkpt>
      <trkpt lat="43.5371590" lon="-5.7537350">
        <ele>157.0</ele>
        <time>2021-07-20T12:38:53Z</time>
      </trkpt>
      <trkpt lat="43.5371880" lon="-5.7539880">
        <ele>157.0</ele>
        <time>2021-07-20T12:38:59Z</time>
      </trkpt>
      <trkpt lat="43.5371880" lon="-5.7541250">
        <ele>157.8</ele>
        <time>2021-07-20T12:39:02Z</time>
      </trkpt>
      <trkpt lat="43.5371930" lon="-5.7541720">
        <ele>158.4</ele>
        <time>2021-07-20T12:39:03Z</time>
      </trkpt>
      <trkpt lat="43.5371940" lon="-5.7542230">
        <ele>158.8</ele>
        <time>2021-07-20T12:39:04Z</time>
      </trkpt>
      <trkpt lat="43.5371930" lon="-5.7542680">
        <ele>159.2</ele>
        <time>2021-07-20T12:39:05Z</time>
      </trkpt>
      <trkpt lat="43.5372190" lon="-5.7544080">
        <ele>159.6</ele>
        <time>2021-07-20T12:39:09Z</time>
      </trkpt>
      <trkpt lat="43.5372250" lon="-5.7544470">
        <ele>160.0</ele>
        <time>2021-07-20T12:39:10Z</time>
      </trkpt>
      <trkpt lat="43.5372380" lon="-5.7544850">
        <ele>160.4</ele>
        <time>2021-07-20T12:39:11Z</time>
      </trkpt>
      <trkpt lat="43.5372460" lon="-5.7545280">
        <ele>161.0</ele>
        <time>2021-07-20T12:39:12Z</time>
      </trkpt>
      <trkpt lat="43.5372610" lon="-5.7545660">
        <ele>161.4</ele>
        <time>2021-07-20T12:39:13Z</time>
      </trkpt>
      <trkpt lat="43.5372940" lon="-5.7546540">
        <ele>161.4</ele>
        <time>2021-07-20T12:39:15Z</time>
      </trkpt>
      <trkpt lat="43.5373220" lon="-5.7548720">
        <ele>161.4</ele>
        <time>2021-07-20T12:39:20Z</time>
      </trkpt>
      <trkpt lat="43.5373640" lon="-5.7551440">
        <ele>161.4</ele>
        <time>2021-07-20T12:39:26Z</time>
      </trkpt>
      <trkpt lat="43.5374160" lon="-5.7554390">
        <ele>161.4</ele>
        <time>2021-07-20T12:39:32Z</time>
      </trkpt>
      <trkpt lat="43.5374580" lon="-5.7557210">
        <ele>161.4</ele>
        <time>2021-07-20T12:39:38Z</time>
      </trkpt>
      <trkpt lat="43.5374410" lon="-5.7560240">
        <ele>161.4</ele>
        <time>2021-07-20T12:39:45Z</time>
      </trkpt>
      <trkpt lat="43.5373960" lon="-5.7562870">
        <ele>161.4</ele>
        <time>2021-07-20T12:39:51Z</time>
      </trkpt>
      <trkpt lat="43.5373990" lon="-5.7563750">
        <ele>161.8</ele>
        <time>2021-07-20T12:39:53Z</time>
      </trkpt>
      <trkpt lat="43.5373980" lon="-5.7564180">
        <ele>162.2</ele>
        <time>2021-07-20T12:39:54Z</time>
      </trkpt>
      <trkpt lat="43.5373980" lon="-5.7564600">
        <ele>162.6</ele>
        <time>2021-07-20T12:39:55Z</time>
      </trkpt>
      <trkpt lat="43.5373980" lon="-5.7564960">
        <ele>163.0</ele>
        <time>2021-07-20T12:39:56Z</time>
      </trkpt>
      <trkpt lat="43.5374050" lon="-5.7565350">
        <ele>163.4</ele>
        <time>2021-07-20T12:39:57Z</time>
      </trkpt>
      <trkpt lat="43.5374070" lon="-5.7565750">
        <ele>163.4</ele>
        <time>2021-07-20T12:39:58Z</time>
      </trkpt>
      <trkpt lat="43.5374080" lon="-5.7567230">
        <ele>163.4</ele>
        <time>2021-07-20T12:40:01Z</time>
      </trkpt>
      <trkpt lat="43.5374080" lon="-5.7568930">
        <ele>163.4</ele>
        <time>2021-07-20T12:40:04Z</time>
      </trkpt>
      <trkpt lat="43.5374030" lon="-5.7570590">
        <ele>163.4</ele>
        <time>2021-07-20T12:40:07Z</time>
      </trkpt>
      <trkpt lat="43.5373840" lon="-5.7571600">
        <ele>163.4</ele>
        <time>2021-07-20T12:40:09Z</time>
      </trkpt>
      <trkpt lat="43.5373760" lon="-5.7572080">
        <ele>163.4</ele>
        <time>2021-07-20T12:40:10Z</time>
      </trkpt>
      <trkpt lat="43.5373080" lon="-5.7574810">
        <ele>162.6</ele>
        <time>2021-07-20T12:40:16Z</time>
      </trkpt>
      <trkpt lat="43.5372980" lon="-5.7575250">
        <ele>162.2</ele>
        <time>2021-07-20T12:40:17Z</time>
      </trkpt>
      <trkpt lat="43.5372820" lon="-5.7575670">
        <ele>161.8</ele>
        <time>2021-07-20T12:40:18Z</time>
      </trkpt>
      <trkpt lat="43.5372740" lon="-5.7576190">
        <ele>161.4</ele>
        <time>2021-07-20T12:40:19Z</time>
      </trkpt>
      <trkpt lat="43.5372530" lon="-5.7577700">
        <ele>161.4</ele>
        <time>2021-07-20T12:40:22Z</time>
      </trkpt>
      <trkpt lat="43.5371910" lon="-5.7580290">
        <ele>161.4</ele>
        <time>2021-07-20T12:40:28Z</time>
      </trkpt>
      <trkpt lat="43.5371740" lon="-5.7582970">
        <ele>161.4</ele>
        <time>2021-07-20T12:40:33Z</time>
      </trkpt>
      <trkpt lat="43.5372030" lon="-5.7584480">
        <ele>161.4</ele>
        <time>2021-07-20T12:40:37Z</time>
      </trkpt>
      <trkpt lat="43.5372280" lon="-5.7585480">
        <ele>161.4</ele>
        <time>2021-07-20T12:40:39Z</time>
      </trkpt>
      <trkpt lat="43.5372420" lon="-5.7586860">
        <ele>161.4</ele>
        <time>2021-07-20T12:40:42Z</time>
      </trkpt>
      <trkpt lat="43.5372730" lon="-5.7589010">
        <ele>161.4</ele>
        <time>2021-07-20T12:40:47Z</time>
      </trkpt>
      <trkpt lat="43.5372670" lon="-5.7590570">
        <ele>161.4</ele>
        <time>2021-07-20T12:40:51Z</time>
      </trkpt>
      <trkpt lat="43.5372380" lon="-5.7591700">
        <ele>161.4</ele>
        <time>2021-07-20T12:40:54Z</time>
      </trkpt>
      <trkpt lat="43.5372160" lon="-5.7592690">
        <ele>161.4</ele>
        <time>2021-07-20T12:40:57Z</time>
      </trkpt>
      <trkpt lat="43.5372060" lon="-5.7593960">
        <ele>161.4</ele>
        <time>2021-07-20T12:41:00Z</time>
      </trkpt>
      <trkpt lat="43.5371820" lon="-5.7595400">
        <ele>161.8</ele>
        <time>2021-07-20T12:41:04Z</time>
      </trkpt>
      <trkpt lat="43.5371770" lon="-5.7595650">
        <ele>162.2</ele>
        <time>2021-07-20T12:41:05Z</time>
      </trkpt>
      <trkpt lat="43.5371690" lon="-5.7596010">
        <ele>163.0</ele>
        <time>2021-07-20T12:41:06Z</time>
      </trkpt>
      <trkpt lat="43.5371600" lon="-5.7596530">
        <ele>163.4</ele>
        <time>2021-07-20T12:41:07Z</time>
      </trkpt>
      <trkpt lat="43.5371280" lon="-5.7598630">
        <ele>163.4</ele>
        <time>2021-07-20T12:41:11Z</time>
      </trkpt>
      <trkpt lat="43.5370740" lon="-5.7602660">
        <ele>163.4</ele>
        <time>2021-07-20T12:41:19Z</time>
      </trkpt>
      <trkpt lat="43.5370330" lon="-5.7606020">
        <ele>163.4</ele>
        <time>2021-07-20T12:41:26Z</time>
      </trkpt>
      <trkpt lat="43.5370280" lon="-5.7606440">
        <ele>163.4</ele>
        <time>2021-07-20T12:41:27Z</time>
      </trkpt>
      <trkpt lat="43.5369990" lon="-5.7607610">
        <ele>163.4</ele>
        <time>2021-07-20T12:41:30Z</time>
      </trkpt>
      <trkpt lat="43.5369810" lon="-5.7609610">
        <ele>163.4</ele>
        <time>2021-07-20T12:41:34Z</time>
      </trkpt>
      <trkpt lat="43.5369120" lon="-5.7612620">
        <ele>163.4</ele>
        <time>2021-07-20T12:41:40Z</time>
      </trkpt>
      <trkpt lat="43.5368400" lon="-5.7615170">
        <ele>163.4</ele>
        <time>2021-07-20T12:41:45Z</time>
      </trkpt>
      <trkpt lat="43.5367790" lon="-5.7617920">
        <ele>163.4</ele>
        <time>2021-07-20T12:41:50Z</time>
      </trkpt>
      <trkpt lat="43.5367740" lon="-5.7619030">
        <ele>163.4</ele>
        <time>2021-07-20T12:41:52Z</time>
      </trkpt>
      <trkpt lat="43.5367830" lon="-5.7619450">
        <ele>163.0</ele>
        <time>2021-07-20T12:41:53Z</time>
      </trkpt>
      <trkpt lat="43.5367920" lon="-5.7619890">
        <ele>162.6</ele>
        <time>2021-07-20T12:41:54Z</time>
      </trkpt>
      <trkpt lat="43.5368070" lon="-5.7620340">
        <ele>161.8</ele>
        <time>2021-07-20T12:41:55Z</time>
      </trkpt>
      <trkpt lat="43.5368260" lon="-5.7620750">
        <ele>161.4</ele>
        <time>2021-07-20T12:41:56Z</time>
      </trkpt>
      <trkpt lat="43.5368470" lon="-5.7621130">
        <ele>161.4</ele>
        <time>2021-07-20T12:41:57Z</time>
      </trkpt>
      <trkpt lat="43.5369780" lon="-5.7622670">
        <ele>161.4</ele>
        <time>2021-07-20T12:42:02Z</time>
      </trkpt>
      <trkpt lat="43.5370160" lon="-5.7623010">
        <ele>161.4</ele>
        <time>2021-07-20T12:42:03Z</time>
      </trkpt>
      <trkpt lat="43.5371060" lon="-5.7624510">
        <ele>160.8</ele>
        <time>2021-07-20T12:42:06Z</time>
      </trkpt>
      <trkpt lat="43.5371220" lon="-5.7625170">
        <ele>160.4</ele>
        <time>2021-07-20T12:42:07Z</time>
      </trkpt>
      <trkpt lat="43.5371290" lon="-5.7625850">
        <ele>160.0</ele>
        <time>2021-07-20T12:42:08Z</time>
      </trkpt>
      <trkpt lat="43.5371330" lon="-5.7626540">
        <ele>159.4</ele>
        <time>2021-07-20T12:42:09Z</time>
      </trkpt>
      <trkpt lat="43.5371410" lon="-5.7627330">
        <ele>158.8</ele>
        <time>2021-07-20T12:42:10Z</time>
      </trkpt>
      <trkpt lat="43.5371520" lon="-5.7628100">
        <ele>158.2</ele>
        <time>2021-07-20T12:42:11Z</time>
      </trkpt>
      <trkpt lat="43.5371690" lon="-5.7628920">
        <ele>157.6</ele>
        <time>2021-07-20T12:42:12Z</time>
      </trkpt>
      <trkpt lat="43.5371920" lon="-5.7629790">
        <ele>157.0</ele>
        <time>2021-07-20T12:42:13Z</time>
      </trkpt>
      <trkpt lat="43.5372240" lon="-5.7630680">
        <ele>157.0</ele>
        <time>2021-07-20T12:42:14Z</time>
      </trkpt>
      <trkpt lat="43.5372600" lon="-5.7631500">
        <ele>156.6</ele>
        <time>2021-07-20T12:42:15Z</time>
      </trkpt>
      <trkpt lat="43.5372970" lon="-5.7632280">
        <ele>156.2</ele>
        <time>2021-07-20T12:42:16Z</time>
      </trkpt>
      <trkpt lat="43.5373380" lon="-5.7633040">
        <ele>155.6</ele>
        <time>2021-07-20T12:42:17Z</time>
      </trkpt>
      <trkpt lat="43.5373780" lon="-5.7633740">
        <ele>155.2</ele>
        <time>2021-07-20T12:42:18Z</time>
      </trkpt>
      <trkpt lat="43.5374190" lon="-5.7634440">
        <ele>154.8</ele>
        <time>2021-07-20T12:42:19Z</time>
      </trkpt>
      <trkpt lat="43.5375690" lon="-5.7636840">
        <ele>154.8</ele>
        <time>2021-07-20T12:42:23Z</time>
      </trkpt>
      <trkpt lat="43.5376050" lon="-5.7637220">
        <ele>154.8</ele>
        <time>2021-07-20T12:42:24Z</time>
      </trkpt>
      <trkpt lat="43.5376930" lon="-5.7637780">
        <ele>154.4</ele>
        <time>2021-07-20T12:42:27Z</time>
      </trkpt>
      <trkpt lat="43.5377180" lon="-5.7637810">
        <ele>154.0</ele>
        <time>2021-07-20T12:42:28Z</time>
      </trkpt>
      <trkpt lat="43.5377480" lon="-5.7637830">
        <ele>153.6</ele>
        <time>2021-07-20T12:42:29Z</time>
      </trkpt>
      <trkpt lat="43.5377790" lon="-5.7637870">
        <ele>153.2</ele>
        <time>2021-07-20T12:42:30Z</time>
      </trkpt>
      <trkpt lat="43.5378100" lon="-5.7637890">
        <ele>152.8</ele>
        <time>2021-07-20T12:42:31Z</time>
      </trkpt>
      <trkpt lat="43.5378680" lon="-5.7637760">
        <ele>152.8</ele>
        <time>2021-07-20T12:42:33Z</time>
      </trkpt>
      <trkpt lat="43.5379380" lon="-5.7637820">
        <ele>152.8</ele>
        <time>2021-07-20T12:42:35Z</time>
      </trkpt>
      <trkpt lat="43.5380120" lon="-5.7637860">
        <ele>152.8</ele>
        <time>2021-07-20T12:42:37Z</time>
      </trkpt>
      <trkpt lat="43.5380770" lon="-5.7637980">
        <ele>152.8</ele>
        <time>2021-07-20T12:42:39Z</time>
      </trkpt>
      <trkpt lat="43.5381350" lon="-5.7638090">
        <ele>152.8</ele>
        <time>2021-07-20T12:42:41Z</time>
      </trkpt>
      <trkpt lat="43.5382000" lon="-5.7638260">
        <ele>153.2</ele>
        <time>2021-07-20T12:42:44Z</time>
      </trkpt>
      <trkpt lat="43.5382180" lon="-5.7638320">
        <ele>154.2</ele>
        <time>2021-07-20T12:42:45Z</time>
      </trkpt>
      <trkpt lat="43.5382360" lon="-5.7638390">
        <ele>154.6</ele>
        <time>2021-07-20T12:42:46Z</time>
      </trkpt>
      <trkpt lat="43.5382550" lon="-5.7638490">
        <ele>155.2</ele>
        <time>2021-07-20T12:42:47Z</time>
      </trkpt>
      <trkpt lat="43.5383220" lon="-5.7638910">
        <ele>155.2</ele>
        <time>2021-07-20T12:42:51Z</time>
      </trkpt>
      <trkpt lat="43.5383360" lon="-5.7639030">
        <ele>155.2</ele>
        <time>2021-07-20T12:42:52Z</time>
      </trkpt>
      <trkpt lat="43.5383720" lon="-5.7639590">
        <ele>155.2</ele>
        <time>2021-07-20T12:42:56Z</time>
      </trkpt>
      <trkpt lat="43.5383760" lon="-5.7639620">
        <ele>155.2</ele>
        <time>2021-07-20T12:42:57Z</time>
      </trkpt>
      <trkpt lat="43.5383570" lon="-5.7639610">
        <ele>155.2</ele>
        <time>2021-07-20T12:44:10Z</time>
      </trkpt>
      <trkpt lat="43.5383410" lon="-5.7639520">
        <ele>155.2</ele>
        <time>2021-07-20T12:44:11Z</time>
      </trkpt>
      <trkpt lat="43.5383250" lon="-5.7639380">
        <ele>155.2</ele>
        <time>2021-07-20T12:44:12Z</time>
      </trkpt>
      <trkpt lat="43.5382720" lon="-5.7638880">
        <ele>155.2</ele>
        <time>2021-07-20T12:44:15Z</time>
      </trkpt>
      <trkpt lat="43.5381820" lon="-5.7638110">
        <ele>155.2</ele>
        <time>2021-07-20T12:44:20Z</time>
      </trkpt>
      <trkpt lat="43.5380440" lon="-5.7637970">
        <ele>155.2</ele>
        <time>2021-07-20T12:44:24Z</time>
      </trkpt>
      <trkpt lat="43.5379470" lon="-5.7637910">
        <ele>155.2</ele>
        <time>2021-07-20T12:44:26Z</time>
      </trkpt>
      <trkpt lat="43.5378600" lon="-5.7637900">
        <ele>155.2</ele>
        <time>2021-07-20T12:44:28Z</time>
      </trkpt>
      <trkpt lat="43.5378180" lon="-5.7637970">
        <ele>155.2</ele>
        <time>2021-07-20T12:44:29Z</time>
      </trkpt>
      <trkpt lat="43.5377810" lon="-5.7638030">
        <ele>154.8</ele>
        <time>2021-07-20T12:44:30Z</time>
      </trkpt>
      <trkpt lat="43.5377500" lon="-5.7638020">
        <ele>154.2</ele>
        <time>2021-07-20T12:44:31Z</time>
      </trkpt>
      <trkpt lat="43.5377220" lon="-5.7637970">
        <ele>153.8</ele>
        <time>2021-07-20T12:44:32Z</time>
      </trkpt>
      <trkpt lat="43.5376950" lon="-5.7637930">
        <ele>153.4</ele>
        <time>2021-07-20T12:44:33Z</time>
      </trkpt>
      <trkpt lat="43.5376750" lon="-5.7637900">
        <ele>153.0</ele>
        <time>2021-07-20T12:44:34Z</time>
      </trkpt>
      <trkpt lat="43.5376460" lon="-5.7637910">
        <ele>153.0</ele>
        <time>2021-07-20T12:44:37Z</time>
      </trkpt>
      <trkpt lat="43.5376030" lon="-5.7638370">
        <ele>153.0</ele>
        <time>2021-07-20T12:45:08Z</time>
      </trkpt>
      <trkpt lat="43.5375620" lon="-5.7638710">
        <ele>153.0</ele>
        <time>2021-07-20T12:45:10Z</time>
      </trkpt>
      <trkpt lat="43.5375170" lon="-5.7639010">
        <ele>153.0</ele>
        <time>2021-07-20T12:45:12Z</time>
      </trkpt>
      <trkpt lat="43.5374210" lon="-5.7639940">
        <ele>153.0</ele>
        <time>2021-07-20T12:45:16Z</time>
      </trkpt>
      <trkpt lat="43.5373930" lon="-5.7640190">
        <ele>153.0</ele>
        <time>2021-07-20T12:45:17Z</time>
      </trkpt>
      <trkpt lat="43.5372430" lon="-5.7642000">
        <ele>153.0</ele>
        <time>2021-07-20T12:45:24Z</time>
      </trkpt>
      <trkpt lat="43.5372250" lon="-5.7642290">
        <ele>153.4</ele>
        <time>2021-07-20T12:45:25Z</time>
      </trkpt>
      <trkpt lat="43.5372050" lon="-5.7642530">
        <ele>153.8</ele>
        <time>2021-07-20T12:45:26Z</time>
      </trkpt>
      <trkpt lat="43.5371850" lon="-5.7642800">
        <ele>154.2</ele>
        <time>2021-07-20T12:45:27Z</time>
      </trkpt>
      <trkpt lat="43.5371660" lon="-5.7643090">
        <ele>154.6</ele>
        <time>2021-07-20T12:45:28Z</time>
      </trkpt>
      <trkpt lat="43.5371500" lon="-5.7643370">
        <ele>155.0</ele>
        <time>2021-07-20T12:45:29Z</time>
      </trkpt>
      <trkpt lat="43.5370960" lon="-5.7644120">
        <ele>155.0</ele>
        <time>2021-07-20T12:45:32Z</time>
      </trkpt>
      <trkpt lat="43.5370420" lon="-5.7644810">
        <ele>155.0</ele>
        <time>2021-07-20T12:45:35Z</time>
      </trkpt>
      <trkpt lat="43.5370040" lon="-5.7645100">
        <ele>155.4</ele>
        <time>2021-07-20T12:45:37Z</time>
      </trkpt>
      <trkpt lat="43.5369810" lon="-5.7645160">
        <ele>155.8</ele>
        <time>2021-07-20T12:45:38Z</time>
      </trkpt>
      <trkpt lat="43.5369600" lon="-5.7645170">
        <ele>156.6</ele>
        <time>2021-07-20T12:45:39Z</time>
      </trkpt>
      <trkpt lat="43.5369400" lon="-5.7645110">
        <ele>157.0</ele>
        <time>2021-07-20T12:45:40Z</time>
      </trkpt>
      <trkpt lat="43.5368860" lon="-5.7644690">
        <ele>157.0</ele>
        <time>2021-07-20T12:45:43Z</time>
      </trkpt>
      <trkpt lat="43.5367620" lon="-5.7643420">
        <ele>157.0</ele>
        <time>2021-07-20T12:45:49Z</time>
      </trkpt>
      <trkpt lat="43.5367130" lon="-5.7642770">
        <ele>157.4</ele>
        <time>2021-07-20T12:45:52Z</time>
      </trkpt>
      <trkpt lat="43.5367000" lon="-5.7642550">
        <ele>157.8</ele>
        <time>2021-07-20T12:45:53Z</time>
      </trkpt>
      <trkpt lat="43.5366860" lon="-5.7642320">
        <ele>158.2</ele>
        <time>2021-07-20T12:45:54Z</time>
      </trkpt>
      <trkpt lat="43.5366730" lon="-5.7642110">
        <ele>158.8</ele>
        <time>2021-07-20T12:45:55Z</time>
      </trkpt>
      <trkpt lat="43.5366610" lon="-5.7641910">
        <ele>159.2</ele>
        <time>2021-07-20T12:45:56Z</time>
      </trkpt>
      <trkpt lat="43.5366090" lon="-5.7640900">
        <ele>159.6</ele>
        <time>2021-07-20T12:46:01Z</time>
      </trkpt>
      <trkpt lat="43.5366000" lon="-5.7640710">
        <ele>160.0</ele>
        <time>2021-07-20T12:46:02Z</time>
      </trkpt>
      <trkpt lat="43.5365890" lon="-5.7640530">
        <ele>160.8</ele>
        <time>2021-07-20T12:46:03Z</time>
      </trkpt>
      <trkpt lat="43.5365800" lon="-5.7640370">
        <ele>161.2</ele>
        <time>2021-07-20T12:46:04Z</time>
      </trkpt>
      <trkpt lat="43.5365700" lon="-5.7640200">
        <ele>161.2</ele>
        <time>2021-07-20T12:46:05Z</time>
      </trkpt>
      <trkpt lat="43.5365030" lon="-5.7638630">
        <ele>161.2</ele>
        <time>2021-07-20T12:46:12Z</time>
      </trkpt>
      <trkpt lat="43.5364520" lon="-5.7637810">
        <ele>161.6</ele>
        <time>2021-07-20T12:46:16Z</time>
      </trkpt>
      <trkpt lat="43.5364380" lon="-5.7637590">
        <ele>162.0</ele>
        <time>2021-07-20T12:46:17Z</time>
      </trkpt>
      <trkpt lat="43.5364230" lon="-5.7637380">
        <ele>162.4</ele>
        <time>2021-07-20T12:46:18Z</time>
      </trkpt>
      <trkpt lat="43.5364060" lon="-5.7637170">
        <ele>162.8</ele>
        <time>2021-07-20T12:46:19Z</time>
      </trkpt>
      <trkpt lat="43.5363890" lon="-5.7636980">
        <ele>163.2</ele>
        <time>2021-07-20T12:46:20Z</time>
      </trkpt>
      <trkpt lat="43.5362620" lon="-5.7635530">
        <ele>163.2</ele>
        <time>2021-07-20T12:46:27Z</time>
      </trkpt>
      <trkpt lat="43.5361510" lon="-5.7634620">
        <ele>163.6</ele>
        <time>2021-07-20T12:46:32Z</time>
      </trkpt>
      <trkpt lat="43.5361250" lon="-5.7634460">
        <ele>164.0</ele>
        <time>2021-07-20T12:46:33Z</time>
      </trkpt>
      <trkpt lat="43.5361000" lon="-5.7634340">
        <ele>164.4</ele>
        <time>2021-07-20T12:46:34Z</time>
      </trkpt>
      <trkpt lat="43.5360760" lon="-5.7634250">
        <ele>165.0</ele>
        <time>2021-07-20T12:46:35Z</time>
      </trkpt>
      <trkpt lat="43.5360490" lon="-5.7634170">
        <ele>165.4</ele>
        <time>2021-07-20T12:46:36Z</time>
      </trkpt>
      <trkpt lat="43.5359020" lon="-5.7633630">
        <ele>165.4</ele>
        <time>2021-07-20T12:46:42Z</time>
      </trkpt>
      <trkpt lat="43.5356960" lon="-5.7633820">
        <ele>165.4</ele>
        <time>2021-07-20T12:46:50Z</time>
      </trkpt>
      <trkpt lat="43.5356100" lon="-5.7633900">
        <ele>165.8</ele>
        <time>2021-07-20T12:46:53Z</time>
      </trkpt>
      <trkpt lat="43.5355820" lon="-5.7633900">
        <ele>166.2</ele>
        <time>2021-07-20T12:46:54Z</time>
      </trkpt>
      <trkpt lat="43.5355550" lon="-5.7633920">
        <ele>166.6</ele>
        <time>2021-07-20T12:46:55Z</time>
      </trkpt>
      <trkpt lat="43.5355280" lon="-5.7633950">
        <ele>167.0</ele>
        <time>2021-07-20T12:46:56Z</time>
      </trkpt>
      <trkpt lat="43.5355010" lon="-5.7634000">
        <ele>167.4</ele>
        <time>2021-07-20T12:46:57Z</time>
      </trkpt>
      <trkpt lat="43.5354190" lon="-5.7634020">
        <ele>167.4</ele>
        <time>2021-07-20T12:47:00Z</time>
      </trkpt>
      <trkpt lat="43.5351980" lon="-5.7634320">
        <ele>167.4</ele>
        <time>2021-07-20T12:47:08Z</time>
      </trkpt>
      <trkpt lat="43.5350630" lon="-5.7634660">
        <ele>167.8</ele>
        <time>2021-07-20T12:47:13Z</time>
      </trkpt>
      <trkpt lat="43.5350340" lon="-5.7634720">
        <ele>168.2</ele>
        <time>2021-07-20T12:47:14Z</time>
      </trkpt>
      <trkpt lat="43.5350050" lon="-5.7634760">
        <ele>168.6</ele>
        <time>2021-07-20T12:47:15Z</time>
      </trkpt>
      <trkpt lat="43.5349760" lon="-5.7634800">
        <ele>169.0</ele>
        <time>2021-07-20T12:47:16Z</time>
      </trkpt>
      <trkpt lat="43.5349460" lon="-5.7634860">
        <ele>169.4</ele>
        <time>2021-07-20T12:47:17Z</time>
      </trkpt>
      <trkpt lat="43.5349180" lon="-5.7634940">
        <ele>169.4</ele>
        <time>2021-07-20T12:47:18Z</time>
      </trkpt>
      <trkpt lat="43.5347100" lon="-5.7635400">
        <ele>169.4</ele>
        <time>2021-07-20T12:47:25Z</time>
      </trkpt>
      <trkpt lat="43.5344490" lon="-5.7635470">
        <ele>169.4</ele>
        <time>2021-07-20T12:47:33Z</time>
      </trkpt>
      <trkpt lat="43.5342890" lon="-5.7635280">
        <ele>169.8</ele>
        <time>2021-07-20T12:47:38Z</time>
      </trkpt>
      <trkpt lat="43.5342560" lon="-5.7635230">
        <ele>170.4</ele>
        <time>2021-07-20T12:47:39Z</time>
      </trkpt>
      <trkpt lat="43.5342240" lon="-5.7635140">
        <ele>170.8</ele>
        <time>2021-07-20T12:47:40Z</time>
      </trkpt>
      <trkpt lat="43.5341940" lon="-5.7635070">
        <ele>171.2</ele>
        <time>2021-07-20T12:47:41Z</time>
      </trkpt>
      <trkpt lat="43.5341640" lon="-5.7635000">
        <ele>171.6</ele>
        <time>2021-07-20T12:47:42Z</time>
      </trkpt>
      <trkpt lat="43.5339230" lon="-5.7634430">
        <ele>171.6</ele>
        <time>2021-07-20T12:47:49Z</time>
      </trkpt>
      <trkpt lat="43.5336380" lon="-5.7633710">
        <ele>171.6</ele>
        <time>2021-07-20T12:47:57Z</time>
      </trkpt>
      <trkpt lat="43.5334290" lon="-5.7634480">
        <ele>171.6</ele>
        <time>2021-07-20T12:48:03Z</time>
      </trkpt>
      <trkpt lat="43.5332960" lon="-5.7635790">
        <ele>171.6</ele>
        <time>2021-07-20T12:48:08Z</time>
      </trkpt>
      <trkpt lat="43.5332620" lon="-5.7636700">
        <ele>171.6</ele>
        <time>2021-07-20T12:48:11Z</time>
      </trkpt>
      <trkpt lat="43.5332480" lon="-5.7636900">
        <ele>171.6</ele>
        <time>2021-07-20T12:48:13Z</time>
      </trkpt>
      <trkpt lat="43.5332350" lon="-5.7636910">
        <ele>171.6</ele>
        <time>2021-07-20T12:48:54Z</time>
      </trkpt>
      <trkpt lat="43.5332210" lon="-5.7636900">
        <ele>171.6</ele>
        <time>2021-07-20T12:48:55Z</time>
      </trkpt>
      <trkpt lat="43.5331810" lon="-5.7636780">
        <ele>171.6</ele>
        <time>2021-07-20T12:48:57Z</time>
      </trkpt>
      <trkpt lat="43.5331390" lon="-5.7636890">
        <ele>171.6</ele>
        <time>2021-07-20T12:48:59Z</time>
      </trkpt>
      <trkpt lat="43.5331290" lon="-5.7637320">
        <ele>171.6</ele>
        <time>2021-07-20T12:49:01Z</time>
      </trkpt>
      <trkpt lat="43.5331840" lon="-5.7638060">
        <ele>171.6</ele>
        <time>2021-07-20T12:49:06Z</time>
      </trkpt>
      <trkpt lat="43.5333040" lon="-5.7638560">
        <ele>171.6</ele>
        <time>2021-07-20T12:49:13Z</time>
      </trkpt>
      <trkpt lat="43.5333750" lon="-5.7638780">
        <ele>172.0</ele>
        <time>2021-07-20T12:49:16Z</time>
      </trkpt>
      <trkpt lat="43.5333950" lon="-5.7638820">
        <ele>172.4</ele>
        <time>2021-07-20T12:49:17Z</time>
      </trkpt>
      <trkpt lat="43.5334100" lon="-5.7638880">
        <ele>172.8</ele>
        <time>2021-07-20T12:49:18Z</time>
      </trkpt>
      <trkpt lat="43.5334210" lon="-5.7638930">
        <ele>173.2</ele>
        <time>2021-07-20T12:49:19Z</time>
      </trkpt>
      <trkpt lat="43.5334260" lon="-5.7638910">
        <ele>173.6</ele>
        <time>2021-07-20T12:49:20Z</time>
      </trkpt>
      <trkpt lat="43.5334500" lon="-5.7639000">
        <ele>173.6</ele>
        <time>2021-07-20T12:49:31Z</time>
      </trkpt>
      <trkpt lat="43.5335090" lon="-5.7639370">
        <ele>173.6</ele>
        <time>2021-07-20T12:49:34Z</time>
      </trkpt>
      <trkpt lat="43.5336490" lon="-5.7640120">
        <ele>173.6</ele>
        <time>2021-07-20T12:49:40Z</time>
      </trkpt>
      <trkpt lat="43.5338150" lon="-5.7641160">
        <ele>173.6</ele>
        <time>2021-07-20T12:49:47Z</time>
      </trkpt>
      <trkpt lat="43.5338410" lon="-5.7642420">
        <ele>173.6</ele>
        <time>2021-07-20T12:49:52Z</time>
      </trkpt>
      <trkpt lat="43.5338190" lon="-5.7644130">
        <ele>173.6</ele>
        <time>2021-07-20T12:49:58Z</time>
      </trkpt>
      <trkpt lat="43.5338120" lon="-5.7644320">
        <ele>173.6</ele>
        <time>2021-07-20T12:49:59Z</time>
      </trkpt>
      <trkpt lat="43.5338060" lon="-5.7644620">
        <ele>173.6</ele>
        <time>2021-07-20T12:50:01Z</time>
      </trkpt>
      <trkpt lat="43.5338140" lon="-5.7645130">
        <ele>173.6</ele>
        <time>2021-07-20T12:50:04Z</time>
      </trkpt>
      <trkpt lat="43.5338160" lon="-5.7645350">
        <ele>173.6</ele>
        <time>2021-07-20T12:50:05Z</time>
      </trkpt>
      <trkpt lat="43.5338090" lon="-5.7646360">
        <ele>173.6</ele>
        <time>2021-07-20T12:50:10Z</time>
      </trkpt>
      <trkpt lat="43.5337820" lon="-5.7646920">
        <ele>173.6</ele>
        <time>2021-07-20T12:50:14Z</time>
      </trkpt>
      <trkpt lat="43.5337790" lon="-5.7646970">
        <ele>173.6</ele>
        <time>2021-07-20T12:50:15Z</time>
      </trkpt>
      <trkpt lat="43.5337890" lon="-5.7646730">
        <ele>173.6</ele>
        <time>2021-07-20T12:52:23Z</time>
      </trkpt>
      <trkpt lat="43.5337930" lon="-5.7646510">
        <ele>173.6</ele>
        <time>2021-07-20T12:52:24Z</time>
      </trkpt>
      <trkpt lat="43.5338040" lon="-5.7644890">
        <ele>173.6</ele>
        <time>2021-07-20T12:52:32Z</time>
      </trkpt>
      <trkpt lat="43.5337940" lon="-5.7644360">
        <ele>173.6</ele>
        <time>2021-07-20T12:52:35Z</time>
      </trkpt>
      <trkpt lat="43.5338090" lon="-5.7643820">
        <ele>173.6</ele>
        <time>2021-07-20T12:52:38Z</time>
      </trkpt>
      <trkpt lat="43.5338380" lon="-5.7642230">
        <ele>173.6</ele>
        <time>2021-07-20T12:52:46Z</time>
      </trkpt>
      <trkpt lat="43.5338290" lon="-5.7640960">
        <ele>173.6</ele>
        <time>2021-07-20T12:52:53Z</time>
      </trkpt>
      <trkpt lat="43.5338320" lon="-5.7640330">
        <ele>173.6</ele>
        <time>2021-07-20T12:53:03Z</time>
      </trkpt>
      <trkpt lat="43.5338370" lon="-5.7640160">
        <ele>173.6</ele>
        <time>2021-07-20T12:53:04Z</time>
      </trkpt>
      <trkpt lat="43.5338780" lon="-5.7638410">
        <ele>173.6</ele>
        <time>2021-07-20T12:53:13Z</time>
      </trkpt>
      <trkpt lat="43.5338970" lon="-5.7637710">
        <ele>173.6</ele>
        <time>2021-07-20T12:53:17Z</time>
      </trkpt>
      <trkpt lat="43.5339020" lon="-5.7636850">
        <ele>173.6</ele>
        <time>2021-07-20T12:53:22Z</time>
      </trkpt>
      <trkpt lat="43.5338970" lon="-5.7636300">
        <ele>173.6</ele>
        <time>2021-07-20T12:53:28Z</time>
      </trkpt>
      <trkpt lat="43.5338780" lon="-5.7636050">
        <ele>173.6</ele>
        <time>2021-07-20T12:53:40Z</time>
      </trkpt>
      <trkpt lat="43.5338710" lon="-5.7635730">
        <ele>173.6</ele>
        <time>2021-07-20T12:53:42Z</time>
      </trkpt>
      <trkpt lat="43.5338630" lon="-5.7635440">
        <ele>173.6</ele>
        <time>2021-07-20T12:53:44Z</time>
      </trkpt>
      <trkpt lat="43.5338340" lon="-5.7634720">
        <ele>173.6</ele>
        <time>2021-07-20T12:53:48Z</time>
      </trkpt>
      <trkpt lat="43.5338230" lon="-5.7634620">
        <ele>173.6</ele>
        <time>2021-07-20T12:53:49Z</time>
      </trkpt>
      <trkpt lat="43.5337770" lon="-5.7634550">
        <ele>173.6</ele>
        <time>2021-07-20T12:53:54Z</time>
      </trkpt>
      <trkpt lat="43.5337700" lon="-5.7634530">
        <ele>173.6</ele>
        <time>2021-07-20T12:53:55Z</time>
      </trkpt>
      <trkpt lat="43.5337720" lon="-5.7634530">
        <ele>173.6</ele>
        <time>2021-07-20T12:53:56Z</time>
      </trkpt>
      <trkpt lat="43.5337680" lon="-5.7634910">
        <ele>173.6</ele>
        <time>2021-07-20T12:54:38Z</time>
      </trkpt>
      <trkpt lat="43.5337600" lon="-5.7635140">
        <ele>173.6</ele>
        <time>2021-07-20T12:54:40Z</time>
      </trkpt>
      <trkpt lat="43.5337580" lon="-5.7635180">
        <ele>173.6</ele>
        <time>2021-07-20T12:54:42Z</time>
      </trkpt>
      <trkpt lat="43.5337770" lon="-5.7634060">
        <ele>173.6</ele>
        <time>2021-07-20T12:55:24Z</time>
      </trkpt>
      <trkpt lat="43.5337800" lon="-5.7633850">
        <ele>173.6</ele>
        <time>2021-07-20T12:55:25Z</time>
      </trkpt>
      <trkpt lat="43.5338050" lon="-5.7633680">
        <ele>173.6</ele>
        <time>2021-07-20T12:55:28Z</time>
      </trkpt>
      <trkpt lat="43.5338340" lon="-5.7633720">
        <ele>173.6</ele>
        <time>2021-07-20T12:55:30Z</time>
      </trkpt>
      <trkpt lat="43.5338890" lon="-5.7633960">
        <ele>173.6</ele>
        <time>2021-07-20T12:55:34Z</time>
      </trkpt>
      <trkpt lat="43.5339200" lon="-5.7634020">
        <ele>173.6</ele>
        <time>2021-07-20T12:55:37Z</time>
      </trkpt>
      <trkpt lat="43.5339230" lon="-5.7634010">
        <ele>173.6</ele>
        <time>2021-07-20T12:55:39Z</time>
      </trkpt>
      <trkpt lat="43.5339440" lon="-5.7634100">
        <ele>173.6</ele>
        <time>2021-07-20T12:57:10Z</time>
      </trkpt>
      <trkpt lat="43.5339600" lon="-5.7634180">
        <ele>173.6</ele>
        <time>2021-07-20T12:57:11Z</time>
      </trkpt>
      <trkpt lat="43.5341060" lon="-5.7634590">
        <ele>173.6</ele>
        <time>2021-07-20T12:57:18Z</time>
      </trkpt>
      <trkpt lat="43.5341560" lon="-5.7634690">
        <ele>173.6</ele>
        <time>2021-07-20T12:57:20Z</time>
      </trkpt>
      <trkpt lat="43.5342100" lon="-5.7634810">
        <ele>173.6</ele>
        <time>2021-07-20T12:57:22Z</time>
      </trkpt>
      <trkpt lat="43.5342600" lon="-5.7635010">
        <ele>173.6</ele>
        <time>2021-07-20T12:57:24Z</time>
      </trkpt>
      <trkpt lat="43.5344660" lon="-5.7635290">
        <ele>173.6</ele>
        <time>2021-07-20T12:57:31Z</time>
      </trkpt>
      <trkpt lat="43.5346420" lon="-5.7635260">
        <ele>173.6</ele>
        <time>2021-07-20T12:57:36Z</time>
      </trkpt>
      <trkpt lat="43.5346880" lon="-5.7635220">
        <ele>173.6</ele>
        <time>2021-07-20T12:57:37Z</time>
      </trkpt>
      <trkpt lat="43.5347280" lon="-5.7635170">
        <ele>173.6</ele>
        <time>2021-07-20T12:57:38Z</time>
      </trkpt>
      <trkpt lat="43.5350760" lon="-5.7634530">
        <ele>173.6</ele>
        <time>2021-07-20T12:57:46Z</time>
      </trkpt>
      <trkpt lat="43.5352060" lon="-5.7634090">
        <ele>173.6</ele>
        <time>2021-07-20T12:57:49Z</time>
      </trkpt>
      <trkpt lat="43.5352990" lon="-5.7634020">
        <ele>173.2</ele>
        <time>2021-07-20T12:57:51Z</time>
      </trkpt>
      <trkpt lat="43.5353500" lon="-5.7634000">
        <ele>172.8</ele>
        <time>2021-07-20T12:57:52Z</time>
      </trkpt>
      <trkpt lat="43.5354010" lon="-5.7633980">
        <ele>172.4</ele>
        <time>2021-07-20T12:57:53Z</time>
      </trkpt>
      <trkpt lat="43.5354500" lon="-5.7633940">
        <ele>171.8</ele>
        <time>2021-07-20T12:57:54Z</time>
      </trkpt>
      <trkpt lat="43.5355030" lon="-5.7633920">
        <ele>171.4</ele>
        <time>2021-07-20T12:57:55Z</time>
      </trkpt>
      <trkpt lat="43.5357710" lon="-5.7633720">
        <ele>171.4</ele>
        <time>2021-07-20T12:58:00Z</time>
      </trkpt>
      <trkpt lat="43.5358820" lon="-5.7633740">
        <ele>171.0</ele>
        <time>2021-07-20T12:58:02Z</time>
      </trkpt>
      <trkpt lat="43.5359400" lon="-5.7633780">
        <ele>170.6</ele>
        <time>2021-07-20T12:58:03Z</time>
      </trkpt>
      <trkpt lat="43.5359990" lon="-5.7633870">
        <ele>170.2</ele>
        <time>2021-07-20T12:58:04Z</time>
      </trkpt>
      <trkpt lat="43.5360570" lon="-5.7634120">
        <ele>169.8</ele>
        <time>2021-07-20T12:58:05Z</time>
      </trkpt>
      <trkpt lat="43.5361110" lon="-5.7634380">
        <ele>169.4</ele>
        <time>2021-07-20T12:58:06Z</time>
      </trkpt>
      <trkpt lat="43.5361650" lon="-5.7634700">
        <ele>169.4</ele>
        <time>2021-07-20T12:58:07Z</time>
      </trkpt>
      <trkpt lat="43.5362690" lon="-5.7635460">
        <ele>169.4</ele>
        <time>2021-07-20T12:58:09Z</time>
      </trkpt>
      <trkpt lat="43.5363180" lon="-5.7635970">
        <ele>169.4</ele>
        <time>2021-07-20T12:58:10Z</time>
      </trkpt>
      <trkpt lat="43.5364510" lon="-5.7637770">
        <ele>169.0</ele>
        <time>2021-07-20T12:58:13Z</time>
      </trkpt>
      <trkpt lat="43.5364960" lon="-5.7638480">
        <ele>168.6</ele>
        <time>2021-07-20T12:58:14Z</time>
      </trkpt>
      <trkpt lat="43.5365370" lon="-5.7639270">
        <ele>168.2</ele>
        <time>2021-07-20T12:58:15Z</time>
      </trkpt>
      <trkpt lat="43.5365740" lon="-5.7639960">
        <ele>167.8</ele>
        <time>2021-07-20T12:58:16Z</time>
      </trkpt>
      <trkpt lat="43.5366070" lon="-5.7640630">
        <ele>167.2</ele>
        <time>2021-07-20T12:58:17Z</time>
      </trkpt>
      <trkpt lat="43.5366380" lon="-5.7641230">
        <ele>166.8</ele>
        <time>2021-07-20T12:58:18Z</time>
      </trkpt>
      <trkpt lat="43.5366680" lon="-5.7641780">
        <ele>166.4</ele>
        <time>2021-07-20T12:58:19Z</time>
      </trkpt>
      <trkpt lat="43.5367010" lon="-5.7642290">
        <ele>165.6</ele>
        <time>2021-07-20T12:58:20Z</time>
      </trkpt>
      <trkpt lat="43.5367360" lon="-5.7642790">
        <ele>165.0</ele>
        <time>2021-07-20T12:58:21Z</time>
      </trkpt>
      <trkpt lat="43.5367730" lon="-5.7643320">
        <ele>164.4</ele>
        <time>2021-07-20T12:58:22Z</time>
      </trkpt>
      <trkpt lat="43.5368090" lon="-5.7643810">
        <ele>163.8</ele>
        <time>2021-07-20T12:58:23Z</time>
      </trkpt>
      <trkpt lat="43.5368450" lon="-5.7644210">
        <ele>163.2</ele>
        <time>2021-07-20T12:58:24Z</time>
      </trkpt>
      <trkpt lat="43.5368790" lon="-5.7644560">
        <ele>162.8</ele>
        <time>2021-07-20T12:58:25Z</time>
      </trkpt>
      <trkpt lat="43.5369110" lon="-5.7644830">
        <ele>162.2</ele>
        <time>2021-07-20T12:58:26Z</time>
      </trkpt>
      <trkpt lat="43.5369430" lon="-5.7645060">
        <ele>161.8</ele>
        <time>2021-07-20T12:58:27Z</time>
      </trkpt>
      <trkpt lat="43.5369750" lon="-5.7645190">
        <ele>161.2</ele>
        <time>2021-07-20T12:58:28Z</time>
      </trkpt>
      <trkpt lat="43.5370040" lon="-5.7645210">
        <ele>160.8</ele>
        <time>2021-07-20T12:58:29Z</time>
      </trkpt>
      <trkpt lat="43.5370390" lon="-5.7645050">
        <ele>160.8</ele>
        <time>2021-07-20T12:58:30Z</time>
      </trkpt>
      <trkpt lat="43.5371360" lon="-5.7643870">
        <ele>160.4</ele>
        <time>2021-07-20T12:58:33Z</time>
      </trkpt>
      <trkpt lat="43.5371680" lon="-5.7643390">
        <ele>160.0</ele>
        <time>2021-07-20T12:58:34Z</time>
      </trkpt>
      <trkpt lat="43.5372040" lon="-5.7642880">
        <ele>159.6</ele>
        <time>2021-07-20T12:58:35Z</time>
      </trkpt>
      <trkpt lat="43.5372440" lon="-5.7642300">
        <ele>159.2</ele>
        <time>2021-07-20T12:58:36Z</time>
      </trkpt>
      <trkpt lat="43.5372830" lon="-5.7641650">
        <ele>158.6</ele>
        <time>2021-07-20T12:58:37Z</time>
      </trkpt>
      <trkpt lat="43.5373280" lon="-5.7640960">
        <ele>158.6</ele>
        <time>2021-07-20T12:58:38Z</time>
      </trkpt>
      <trkpt lat="43.5373750" lon="-5.7640400">
        <ele>158.6</ele>
        <time>2021-07-20T12:58:39Z</time>
      </trkpt>
      <trkpt lat="43.5375210" lon="-5.7638920">
        <ele>158.6</ele>
        <time>2021-07-20T12:58:42Z</time>
      </trkpt>
      <trkpt lat="43.5375650" lon="-5.7638560">
        <ele>158.2</ele>
        <time>2021-07-20T12:58:43Z</time>
      </trkpt>
      <trkpt lat="43.5376090" lon="-5.7638220">
        <ele>157.8</ele>
        <time>2021-07-20T12:58:44Z</time>
      </trkpt>
      <trkpt lat="43.5376520" lon="-5.7637970">
        <ele>157.4</ele>
        <time>2021-07-20T12:58:45Z</time>
      </trkpt>
      <trkpt lat="43.5376940" lon="-5.7637820">
        <ele>157.0</ele>
        <time>2021-07-20T12:58:46Z</time>
      </trkpt>
      <trkpt lat="43.5377340" lon="-5.7637670">
        <ele>156.4</ele>
        <time>2021-07-20T12:58:47Z</time>
      </trkpt>
      <trkpt lat="43.5378470" lon="-5.7637360">
        <ele>156.4</ele>
        <time>2021-07-20T12:58:50Z</time>
      </trkpt>
      <trkpt lat="43.5379220" lon="-5.7637170">
        <ele>156.4</ele>
        <time>2021-07-20T12:58:52Z</time>
      </trkpt>
      <trkpt lat="43.5379660" lon="-5.7637250">
        <ele>156.4</ele>
        <time>2021-07-20T12:58:53Z</time>
      </trkpt>
      <trkpt lat="43.5380520" lon="-5.7637310">
        <ele>156.4</ele>
        <time>2021-07-20T12:58:55Z</time>
      </trkpt>
      <trkpt lat="43.5380930" lon="-5.7637410">
        <ele>156.4</ele>
        <time>2021-07-20T12:58:56Z</time>
      </trkpt>
      <trkpt lat="43.5381600" lon="-5.7637650">
        <ele>156.4</ele>
        <time>2021-07-20T12:58:58Z</time>
      </trkpt>
      <trkpt lat="43.5382510" lon="-5.7638130">
        <ele>156.4</ele>
        <time>2021-07-20T12:59:01Z</time>
      </trkpt>
      <trkpt lat="43.5382820" lon="-5.7638360">
        <ele>156.4</ele>
        <time>2021-07-20T12:59:02Z</time>
      </trkpt>
      <trkpt lat="43.5383450" lon="-5.7639070">
        <ele>156.4</ele>
        <time>2021-07-20T12:59:04Z</time>
      </trkpt>
      <trkpt lat="43.5383960" lon="-5.7640170">
        <ele>156.4</ele>
        <time>2021-07-20T12:59:06Z</time>
      </trkpt>
      <trkpt lat="43.5384360" lon="-5.7641480">
        <ele>156.4</ele>
        <time>2021-07-20T12:59:08Z</time>
      </trkpt>
      <trkpt lat="43.5384930" lon="-5.7643850">
        <ele>156.4</ele>
        <time>2021-07-20T12:59:11Z</time>
      </trkpt>
      <trkpt lat="43.5385090" lon="-5.7644600">
        <ele>156.0</ele>
        <time>2021-07-20T12:59:12Z</time>
      </trkpt>
      <trkpt lat="43.5385220" lon="-5.7645320">
        <ele>155.6</ele>
        <time>2021-07-20T12:59:13Z</time>
      </trkpt>
      <trkpt lat="43.5385350" lon="-5.7646030">
        <ele>155.2</ele>
        <time>2021-07-20T12:59:14Z</time>
      </trkpt>
      <trkpt lat="43.5385480" lon="-5.7646730">
        <ele>154.6</ele>
        <time>2021-07-20T12:59:15Z</time>
      </trkpt>
      <trkpt lat="43.5385610" lon="-5.7647460">
        <ele>154.2</ele>
        <time>2021-07-20T12:59:16Z</time>
      </trkpt>
      <trkpt lat="43.5385740" lon="-5.7648190">
        <ele>153.6</ele>
        <time>2021-07-20T12:59:17Z</time>
      </trkpt>
      <trkpt lat="43.5385880" lon="-5.7648900">
        <ele>153.2</ele>
        <time>2021-07-20T12:59:18Z</time>
      </trkpt>
      <trkpt lat="43.5386040" lon="-5.7649560">
        <ele>152.6</ele>
        <time>2021-07-20T12:59:19Z</time>
      </trkpt>
      <trkpt lat="43.5386180" lon="-5.7650200">
        <ele>152.0</ele>
        <time>2021-07-20T12:59:20Z</time>
      </trkpt>
      <trkpt lat="43.5386270" lon="-5.7650850">
        <ele>151.4</ele>
        <time>2021-07-20T12:59:21Z</time>
      </trkpt>
      <trkpt lat="43.5386350" lon="-5.7651520">
        <ele>150.8</ele>
        <time>2021-07-20T12:59:22Z</time>
      </trkpt>
      <trkpt lat="43.5386440" lon="-5.7652210">
        <ele>150.0</ele>
        <time>2021-07-20T12:59:23Z</time>
      </trkpt>
      <trkpt lat="43.5386530" lon="-5.7652960">
        <ele>149.4</ele>
        <time>2021-07-20T12:59:24Z</time>
      </trkpt>
      <trkpt lat="43.5386620" lon="-5.7653690">
        <ele>149.0</ele>
        <time>2021-07-20T12:59:25Z</time>
      </trkpt>
      <trkpt lat="43.5386720" lon="-5.7654440">
        <ele>148.4</ele>
        <time>2021-07-20T12:59:26Z</time>
      </trkpt>
      <trkpt lat="43.5386840" lon="-5.7655200">
        <ele>147.4</ele>
        <time>2021-07-20T12:59:27Z</time>
      </trkpt>
      <trkpt lat="43.5386960" lon="-5.7655990">
        <ele>146.8</ele>
        <time>2021-07-20T12:59:28Z</time>
      </trkpt>
      <trkpt lat="43.5387090" lon="-5.7656810">
        <ele>146.0</ele>
        <time>2021-07-20T12:59:29Z</time>
      </trkpt>
      <trkpt lat="43.5387270" lon="-5.7657640">
        <ele>145.0</ele>
        <time>2021-07-20T12:59:30Z</time>
      </trkpt>
      <trkpt lat="43.5387490" lon="-5.7658540">
        <ele>144.0</ele>
        <time>2021-07-20T12:59:31Z</time>
      </trkpt>
      <trkpt lat="43.5387680" lon="-5.7659400">
        <ele>143.0</ele>
        <time>2021-07-20T12:59:32Z</time>
      </trkpt>
      <trkpt lat="43.5387840" lon="-5.7660260">
        <ele>142.0</ele>
        <time>2021-07-20T12:59:33Z</time>
      </trkpt>
      <trkpt lat="43.5388000" lon="-5.7661160">
        <ele>141.0</ele>
        <time>2021-07-20T12:59:34Z</time>
      </trkpt>
      <trkpt lat="43.5388140" lon="-5.7662100">
        <ele>139.8</ele>
        <time>2021-07-20T12:59:35Z</time>
      </trkpt>
      <trkpt lat="43.5388280" lon="-5.7663000">
        <ele>138.6</ele>
        <time>2021-07-20T12:59:36Z</time>
      </trkpt>
      <trkpt lat="43.5388440" lon="-5.7663870">
        <ele>137.2</ele>
        <time>2021-07-20T12:59:37Z</time>
      </trkpt>
      <trkpt lat="43.5388610" lon="-5.7664660">
        <ele>135.8</ele>
        <time>2021-07-20T12:59:38Z</time>
      </trkpt>
      <trkpt lat="43.5388820" lon="-5.7665380">
        <ele>134.4</ele>
        <time>2021-07-20T12:59:39Z</time>
      </trkpt>
      <trkpt lat="43.5389050" lon="-5.7666090">
        <ele>133.2</ele>
        <time>2021-07-20T12:59:40Z</time>
      </trkpt>
      <trkpt lat="43.5389260" lon="-5.7666760">
        <ele>131.8</ele>
        <time>2021-07-20T12:59:41Z</time>
      </trkpt>
      <trkpt lat="43.5389480" lon="-5.7667430">
        <ele>130.6</ele>
        <time>2021-07-20T12:59:42Z</time>
      </trkpt>
      <trkpt lat="43.5389740" lon="-5.7668090">
        <ele>129.4</ele>
        <time>2021-07-20T12:59:43Z</time>
      </trkpt>
      <trkpt lat="43.5390050" lon="-5.7668760">
        <ele>128.2</ele>
        <time>2021-07-20T12:59:44Z</time>
      </trkpt>
      <trkpt lat="43.5390380" lon="-5.7669420">
        <ele>127.0</ele>
        <time>2021-07-20T12:59:45Z</time>
      </trkpt>
      <trkpt lat="43.5390720" lon="-5.7670100">
        <ele>126.0</ele>
        <time>2021-07-20T12:59:46Z</time>
      </trkpt>
      <trkpt lat="43.5391070" lon="-5.7670820">
        <ele>125.0</ele>
        <time>2021-07-20T12:59:47Z</time>
      </trkpt>
      <trkpt lat="43.5391370" lon="-5.7671500">
        <ele>124.0</ele>
        <time>2021-07-20T12:59:48Z</time>
      </trkpt>
      <trkpt lat="43.5391640" lon="-5.7672170">
        <ele>123.0</ele>
        <time>2021-07-20T12:59:49Z</time>
      </trkpt>
      <trkpt lat="43.5391870" lon="-5.7672810">
        <ele>122.0</ele>
        <time>2021-07-20T12:59:50Z</time>
      </trkpt>
      <trkpt lat="43.5392080" lon="-5.7673420">
        <ele>120.8</ele>
        <time>2021-07-20T12:59:51Z</time>
      </trkpt>
      <trkpt lat="43.5392270" lon="-5.7673970">
        <ele>118.4</ele>
        <time>2021-07-20T12:59:52Z</time>
      </trkpt>
      <trkpt lat="43.5392460" lon="-5.7674410">
        <ele>117.0</ele>
        <time>2021-07-20T12:59:53Z</time>
      </trkpt>
      <trkpt lat="43.5392690" lon="-5.7674750">
        <ele>115.8</ele>
        <time>2021-07-20T12:59:54Z</time>
      </trkpt>
      <trkpt lat="43.5393000" lon="-5.7675020">
        <ele>114.6</ele>
        <time>2021-07-20T12:59:55Z</time>
      </trkpt>
      <trkpt lat="43.5393350" lon="-5.7675180">
        <ele>113.4</ele>
        <time>2021-07-20T12:59:56Z</time>
      </trkpt>
      <trkpt lat="43.5393810" lon="-5.7675220">
        <ele>112.2</ele>
        <time>2021-07-20T12:59:57Z</time>
      </trkpt>
      <trkpt lat="43.5394370" lon="-5.7675130">
        <ele>111.6</ele>
        <time>2021-07-20T12:59:58Z</time>
      </trkpt>
      <trkpt lat="43.5394950" lon="-5.7674940">
        <ele>110.8</ele>
        <time>2021-07-20T12:59:59Z</time>
      </trkpt>
      <trkpt lat="43.5395480" lon="-5.7674730">
        <ele>110.2</ele>
        <time>2021-07-20T13:00:00Z</time>
      </trkpt>
      <trkpt lat="43.5396010" lon="-5.7674550">
        <ele>109.4</ele>
        <time>2021-07-20T13:00:01Z</time>
      </trkpt>
      <trkpt lat="43.5396530" lon="-5.7674390">
        <ele>108.6</ele>
        <time>2021-07-20T13:00:02Z</time>
      </trkpt>
      <trkpt lat="43.5396980" lon="-5.7674240">
        <ele>107.6</ele>
        <time>2021-07-20T13:00:03Z</time>
      </trkpt>
      <trkpt lat="43.5397440" lon="-5.7674110">
        <ele>106.6</ele>
        <time>2021-07-20T13:00:04Z</time>
      </trkpt>
      <trkpt lat="43.5397890" lon="-5.7673990">
        <ele>105.6</ele>
        <time>2021-07-20T13:00:05Z</time>
      </trkpt>
      <trkpt lat="43.5398310" lon="-5.7673890">
        <ele>104.6</ele>
        <time>2021-07-20T13:00:06Z</time>
      </trkpt>
      <trkpt lat="43.5398730" lon="-5.7673770">
        <ele>103.6</ele>
        <time>2021-07-20T13:00:07Z</time>
      </trkpt>
      <trkpt lat="43.5399090" lon="-5.7673550">
        <ele>102.6</ele>
        <time>2021-07-20T13:00:08Z</time>
      </trkpt>
      <trkpt lat="43.5399400" lon="-5.7673180">
        <ele>101.4</ele>
        <time>2021-07-20T13:00:09Z</time>
      </trkpt>
      <trkpt lat="43.5399690" lon="-5.7672650">
        <ele>100.4</ele>
        <time>2021-07-20T13:00:10Z</time>
      </trkpt>
      <trkpt lat="43.5399930" lon="-5.7672010">
        <ele>99.6</ele>
        <time>2021-07-20T13:00:11Z</time>
      </trkpt>
      <trkpt lat="43.5400140" lon="-5.7671340">
        <ele>98.6</ele>
        <time>2021-07-20T13:00:12Z</time>
      </trkpt>
      <trkpt lat="43.5400380" lon="-5.7670700">
        <ele>97.8</ele>
        <time>2021-07-20T13:00:13Z</time>
      </trkpt>
      <trkpt lat="43.5400690" lon="-5.7670130">
        <ele>97.0</ele>
        <time>2021-07-20T13:00:14Z</time>
      </trkpt>
      <trkpt lat="43.5401080" lon="-5.7669690">
        <ele>96.2</ele>
        <time>2021-07-20T13:00:15Z</time>
      </trkpt>
      <trkpt lat="43.5401540" lon="-5.7669430">
        <ele>95.4</ele>
        <time>2021-07-20T13:00:16Z</time>
      </trkpt>
      <trkpt lat="43.5401980" lon="-5.7669360">
        <ele>94.0</ele>
        <time>2021-07-20T13:00:17Z</time>
      </trkpt>
      <trkpt lat="43.5402430" lon="-5.7669330">
        <ele>93.4</ele>
        <time>2021-07-20T13:00:18Z</time>
      </trkpt>
      <trkpt lat="43.5402910" lon="-5.7669290">
        <ele>92.6</ele>
        <time>2021-07-20T13:00:19Z</time>
      </trkpt>
      <trkpt lat="43.5403420" lon="-5.7669250">
        <ele>92.0</ele>
        <time>2021-07-20T13:00:20Z</time>
      </trkpt>
      <trkpt lat="43.5403970" lon="-5.7669200">
        <ele>91.4</ele>
        <time>2021-07-20T13:00:21Z</time>
      </trkpt>
      <trkpt lat="43.5404500" lon="-5.7669150">
        <ele>90.8</ele>
        <time>2021-07-20T13:00:22Z</time>
      </trkpt>
      <trkpt lat="43.5405000" lon="-5.7669090">
        <ele>90.4</ele>
        <time>2021-07-20T13:00:23Z</time>
      </trkpt>
      <trkpt lat="43.5405450" lon="-5.7668970">
        <ele>89.8</ele>
        <time>2021-07-20T13:00:24Z</time>
      </trkpt>
      <trkpt lat="43.5405880" lon="-5.7668820">
        <ele>89.2</ele>
        <time>2021-07-20T13:00:25Z</time>
      </trkpt>
      <trkpt lat="43.5406300" lon="-5.7668630">
        <ele>88.4</ele>
        <time>2021-07-20T13:00:26Z</time>
      </trkpt>
      <trkpt lat="43.5406710" lon="-5.7668440">
        <ele>87.8</ele>
        <time>2021-07-20T13:00:27Z</time>
      </trkpt>
      <trkpt lat="43.5407100" lon="-5.7668180">
        <ele>87.0</ele>
        <time>2021-07-20T13:00:28Z</time>
      </trkpt>
      <trkpt lat="43.5407420" lon="-5.7667860">
        <ele>86.0</ele>
        <time>2021-07-20T13:00:29Z</time>
      </trkpt>
      <trkpt lat="43.5407700" lon="-5.7667600">
        <ele>85.2</ele>
        <time>2021-07-20T13:00:30Z</time>
      </trkpt>
      <trkpt lat="43.5407990" lon="-5.7667390">
        <ele>84.2</ele>
        <time>2021-07-20T13:00:31Z</time>
      </trkpt>
      <trkpt lat="43.5408260" lon="-5.7667220">
        <ele>83.2</ele>
        <time>2021-07-20T13:00:32Z</time>
      </trkpt>
      <trkpt lat="43.5408540" lon="-5.7667090">
        <ele>82.2</ele>
        <time>2021-07-20T13:00:33Z</time>
      </trkpt>
      <trkpt lat="43.5408810" lon="-5.7667030">
        <ele>81.6</ele>
        <time>2021-07-20T13:00:34Z</time>
      </trkpt>
      <trkpt lat="43.5409050" lon="-5.7667030">
        <ele>81.0</ele>
        <time>2021-07-20T13:00:35Z</time>
      </trkpt>
      <trkpt lat="43.5409240" lon="-5.7667050">
        <ele>80.4</ele>
        <time>2021-07-20T13:00:36Z</time>
      </trkpt>
      <trkpt lat="43.5409360" lon="-5.7667050">
        <ele>79.6</ele>
        <time>2021-07-20T13:00:37Z</time>
      </trkpt>
      <trkpt lat="43.5409400" lon="-5.7667070">
        <ele>79.0</ele>
        <time>2021-07-20T13:00:38Z</time>
      </trkpt>
      <trkpt lat="43.5409660" lon="-5.7667420">
        <ele>76.6</ele>
        <time>2021-07-20T13:00:47Z</time>
      </trkpt>
      <trkpt lat="43.5409770" lon="-5.7667740">
        <ele>76.6</ele>
        <time>2021-07-20T13:00:48Z</time>
      </trkpt>
      <trkpt lat="43.5409930" lon="-5.7668560">
        <ele>76.6</ele>
        <time>2021-07-20T13:00:50Z</time>
      </trkpt>
      <trkpt lat="43.5410440" lon="-5.7669910">
        <ele>76.6</ele>
        <time>2021-07-20T13:00:53Z</time>
      </trkpt>
      <trkpt lat="43.5410700" lon="-5.7670360">
        <ele>76.2</ele>
        <time>2021-07-20T13:00:54Z</time>
      </trkpt>
      <trkpt lat="43.5411030" lon="-5.7670830">
        <ele>75.8</ele>
        <time>2021-07-20T13:00:55Z</time>
      </trkpt>
      <trkpt lat="43.5411410" lon="-5.7671250">
        <ele>75.4</ele>
        <time>2021-07-20T13:00:56Z</time>
      </trkpt>
      <trkpt lat="43.5411850" lon="-5.7671620">
        <ele>74.6</ele>
        <time>2021-07-20T13:00:57Z</time>
      </trkpt>
      <trkpt lat="43.5412340" lon="-5.7671940">
        <ele>73.8</ele>
        <time>2021-07-20T13:00:58Z</time>
      </trkpt>
      <trkpt lat="43.5412850" lon="-5.7672200">
        <ele>73.2</ele>
        <time>2021-07-20T13:00:59Z</time>
      </trkpt>
      <trkpt lat="43.5413360" lon="-5.7672390">
        <ele>72.4</ele>
        <time>2021-07-20T13:01:00Z</time>
      </trkpt>
      <trkpt lat="43.5413830" lon="-5.7672550">
        <ele>71.6</ele>
        <time>2021-07-20T13:01:01Z</time>
      </trkpt>
      <trkpt lat="43.5414300" lon="-5.7672710">
        <ele>71.0</ele>
        <time>2021-07-20T13:01:02Z</time>
      </trkpt>
      <trkpt lat="43.5414810" lon="-5.7672900">
        <ele>70.2</ele>
        <time>2021-07-20T13:01:03Z</time>
      </trkpt>
      <trkpt lat="43.5415310" lon="-5.7673060">
        <ele>69.6</ele>
        <time>2021-07-20T13:01:04Z</time>
      </trkpt>
      <trkpt lat="43.5415800" lon="-5.7673150">
        <ele>68.8</ele>
        <time>2021-07-20T13:01:05Z</time>
      </trkpt>
      <trkpt lat="43.5416230" lon="-5.7673220">
        <ele>67.4</ele>
        <time>2021-07-20T13:01:06Z</time>
      </trkpt>
      <trkpt lat="43.5416660" lon="-5.7673170">
        <ele>66.6</ele>
        <time>2021-07-20T13:01:07Z</time>
      </trkpt>
      <trkpt lat="43.5417070" lon="-5.7673030">
        <ele>66.6</ele>
        <time>2021-07-20T13:01:08Z</time>
      </trkpt>
      <trkpt lat="43.5419060" lon="-5.7671330">
        <ele>66.2</ele>
        <time>2021-07-20T13:01:13Z</time>
      </trkpt>
      <trkpt lat="43.5419430" lon="-5.7670960">
        <ele>65.8</ele>
        <time>2021-07-20T13:01:14Z</time>
      </trkpt>
      <trkpt lat="43.5419810" lon="-5.7670610">
        <ele>65.4</ele>
        <time>2021-07-20T13:01:15Z</time>
      </trkpt>
      <trkpt lat="43.5420190" lon="-5.7670280">
        <ele>65.0</ele>
        <time>2021-07-20T13:01:16Z</time>
      </trkpt>
      <trkpt lat="43.5420570" lon="-5.7669960">
        <ele>64.6</ele>
        <time>2021-07-20T13:01:17Z</time>
      </trkpt>
      <trkpt lat="43.5421940" lon="-5.7668770">
        <ele>64.6</ele>
        <time>2021-07-20T13:01:21Z</time>
      </trkpt>
      <trkpt lat="43.5422590" lon="-5.7668600">
        <ele>64.2</ele>
        <time>2021-07-20T13:01:25Z</time>
      </trkpt>
      <trkpt lat="43.5422660" lon="-5.7668750">
        <ele>62.4</ele>
        <time>2021-07-20T13:01:29Z</time>
      </trkpt>
      <trkpt lat="43.5422970" lon="-5.7669410">
        <ele>62.4</ele>
        <time>2021-07-20T13:01:32Z</time>
      </trkpt>
      <trkpt lat="43.5422670" lon="-5.7669830">
        <ele>62.4</ele>
        <time>2021-07-20T13:01:36Z</time>
      </trkpt>
      <trkpt lat="43.5422570" lon="-5.7668880">
        <ele>62.4</ele>
        <time>2021-07-20T13:01:40Z</time>
      </trkpt>
      <trkpt lat="43.5423010" lon="-5.7668650">
        <ele>62.4</ele>
        <time>2021-07-20T13:01:43Z</time>
      </trkpt>
      <trkpt lat="43.5423130" lon="-5.7669950">
        <ele>62.4</ele>
        <time>2021-07-20T13:01:47Z</time>
      </trkpt>
      <trkpt lat="43.5423020" lon="-5.7673010">
        <ele>62.4</ele>
        <time>2021-07-20T13:01:52Z</time>
      </trkpt>
      <trkpt lat="43.5422940" lon="-5.7675930">
        <ele>62.4</ele>
        <time>2021-07-20T13:01:56Z</time>
      </trkpt>
      <trkpt lat="43.5422860" lon="-5.7678850">
        <ele>62.4</ele>
        <time>2021-07-20T13:02:00Z</time>
      </trkpt>
      <trkpt lat="43.5422760" lon="-5.7681770">
        <ele>62.0</ele>
        <time>2021-07-20T13:02:04Z</time>
      </trkpt>
      <trkpt lat="43.5422740" lon="-5.7682470">
        <ele>61.6</ele>
        <time>2021-07-20T13:02:05Z</time>
      </trkpt>
      <trkpt lat="43.5422720" lon="-5.7683170">
        <ele>61.2</ele>
        <time>2021-07-20T13:02:06Z</time>
      </trkpt>
      <trkpt lat="43.5422700" lon="-5.7683870">
        <ele>60.8</ele>
        <time>2021-07-20T13:02:07Z</time>
      </trkpt>
      <trkpt lat="43.5422690" lon="-5.7684560">
        <ele>60.4</ele>
        <time>2021-07-20T13:02:08Z</time>
      </trkpt>
      <trkpt lat="43.5422620" lon="-5.7685970">
        <ele>60.4</ele>
        <time>2021-07-20T13:02:10Z</time>
      </trkpt>
      <trkpt lat="43.5422350" lon="-5.7691990">
        <ele>60.4</ele>
        <time>2021-07-20T13:02:18Z</time>
      </trkpt>
      <trkpt lat="43.5421610" lon="-5.7695930">
        <ele>60.0</ele>
        <time>2021-07-20T13:02:23Z</time>
      </trkpt>
      <trkpt lat="43.5421400" lon="-5.7696670">
        <ele>59.6</ele>
        <time>2021-07-20T13:02:24Z</time>
      </trkpt>
      <trkpt lat="43.5421180" lon="-5.7697380">
        <ele>59.2</ele>
        <time>2021-07-20T13:02:25Z</time>
      </trkpt>
      <trkpt lat="43.5420950" lon="-5.7698110">
        <ele>58.6</ele>
        <time>2021-07-20T13:02:26Z</time>
      </trkpt>
      <trkpt lat="43.5420720" lon="-5.7698810">
        <ele>58.2</ele>
        <time>2021-07-20T13:02:27Z</time>
      </trkpt>
      <trkpt lat="43.5420060" lon="-5.7700840">
        <ele>58.2</ele>
        <time>2021-07-20T13:02:30Z</time>
      </trkpt>
      <trkpt lat="43.5419470" lon="-5.7702750">
        <ele>58.2</ele>
        <time>2021-07-20T13:02:33Z</time>
      </trkpt>
      <trkpt lat="43.5419110" lon="-5.7703930">
        <ele>58.2</ele>
        <time>2021-07-20T13:02:35Z</time>
      </trkpt>
      <trkpt lat="43.5418790" lon="-5.7705030">
        <ele>58.2</ele>
        <time>2021-07-20T13:02:37Z</time>
      </trkpt>
      <trkpt lat="43.5418260" lon="-5.7706840">
        <ele>58.2</ele>
        <time>2021-07-20T13:02:40Z</time>
      </trkpt>
      <trkpt lat="43.5417850" lon="-5.7708120">
        <ele>58.2</ele>
        <time>2021-07-20T13:02:42Z</time>
      </trkpt>
      <trkpt lat="43.5417480" lon="-5.7709460">
        <ele>58.2</ele>
        <time>2021-07-20T13:02:44Z</time>
      </trkpt>
      <trkpt lat="43.5417140" lon="-5.7710820">
        <ele>58.2</ele>
        <time>2021-07-20T13:02:46Z</time>
      </trkpt>
      <trkpt lat="43.5416960" lon="-5.7711460">
        <ele>58.2</ele>
        <time>2021-07-20T13:02:47Z</time>
      </trkpt>
      <trkpt lat="43.5415730" lon="-5.7715720">
        <ele>58.2</ele>
        <time>2021-07-20T13:02:53Z</time>
      </trkpt>
      <trkpt lat="43.5414630" lon="-5.7719170">
        <ele>57.8</ele>
        <time>2021-07-20T13:02:57Z</time>
      </trkpt>
      <trkpt lat="43.5414320" lon="-5.7720010">
        <ele>57.4</ele>
        <time>2021-07-20T13:02:58Z</time>
      </trkpt>
      <trkpt lat="43.5414010" lon="-5.7720850">
        <ele>57.0</ele>
        <time>2021-07-20T13:02:59Z</time>
      </trkpt>
      <trkpt lat="43.5413690" lon="-5.7721690">
        <ele>56.6</ele>
        <time>2021-07-20T13:03:00Z</time>
      </trkpt>
      <trkpt lat="43.5413370" lon="-5.7722520">
        <ele>56.2</ele>
        <time>2021-07-20T13:03:01Z</time>
      </trkpt>
      <trkpt lat="43.5411860" lon="-5.7726330">
        <ele>56.2</ele>
        <time>2021-07-20T13:03:06Z</time>
      </trkpt>
      <trkpt lat="43.5411600" lon="-5.7726990">
        <ele>56.2</ele>
        <time>2021-07-20T13:03:07Z</time>
      </trkpt>
      <trkpt lat="43.5409940" lon="-5.7731090">
        <ele>56.2</ele>
        <time>2021-07-20T13:03:14Z</time>
      </trkpt>
      <trkpt lat="43.5409020" lon="-5.7733220">
        <ele>56.2</ele>
        <time>2021-07-20T13:03:18Z</time>
      </trkpt>
      <trkpt lat="43.5408020" lon="-5.7735230">
        <ele>56.2</ele>
        <time>2021-07-20T13:03:22Z</time>
      </trkpt>
      <trkpt lat="43.5407760" lon="-5.7735660">
        <ele>56.2</ele>
        <time>2021-07-20T13:03:23Z</time>
      </trkpt>
      <trkpt lat="43.5407160" lon="-5.7736430">
        <ele>56.2</ele>
        <time>2021-07-20T13:03:25Z</time>
      </trkpt>
      <trkpt lat="43.5406450" lon="-5.7737060">
        <ele>56.2</ele>
        <time>2021-07-20T13:03:27Z</time>
      </trkpt>
      <trkpt lat="43.5406090" lon="-5.7737290">
        <ele>56.6</ele>
        <time>2021-07-20T13:03:28Z</time>
      </trkpt>
      <trkpt lat="43.5405710" lon="-5.7737530">
        <ele>57.0</ele>
        <time>2021-07-20T13:03:29Z</time>
      </trkpt>
      <trkpt lat="43.5405310" lon="-5.7737730">
        <ele>57.4</ele>
        <time>2021-07-20T13:03:30Z</time>
      </trkpt>
      <trkpt lat="43.5404930" lon="-5.7737890">
        <ele>57.8</ele>
        <time>2021-07-20T13:03:31Z</time>
      </trkpt>
      <trkpt lat="43.5404540" lon="-5.7738030">
        <ele>58.2</ele>
        <time>2021-07-20T13:03:32Z</time>
      </trkpt>
      <trkpt lat="43.5403420" lon="-5.7738560">
        <ele>58.2</ele>
        <time>2021-07-20T13:03:35Z</time>
      </trkpt>
      <trkpt lat="43.5402750" lon="-5.7739120">
        <ele>58.6</ele>
        <time>2021-07-20T13:03:37Z</time>
      </trkpt>
      <trkpt lat="43.5402490" lon="-5.7739480">
        <ele>59.2</ele>
        <time>2021-07-20T13:03:38Z</time>
      </trkpt>
      <trkpt lat="43.5402290" lon="-5.7739890">
        <ele>59.6</ele>
        <time>2021-07-20T13:03:39Z</time>
      </trkpt>
      <trkpt lat="43.5402150" lon="-5.7740350">
        <ele>60.0</ele>
        <time>2021-07-20T13:03:40Z</time>
      </trkpt>
      <trkpt lat="43.5402030" lon="-5.7740820">
        <ele>60.4</ele>
        <time>2021-07-20T13:03:41Z</time>
      </trkpt>
      <trkpt lat="43.5401460" lon="-5.7742750">
        <ele>60.4</ele>
        <time>2021-07-20T13:03:45Z</time>
      </trkpt>
      <trkpt lat="43.5400950" lon="-5.7744860">
        <ele>60.8</ele>
        <time>2021-07-20T13:03:49Z</time>
      </trkpt>
      <trkpt lat="43.5400810" lon="-5.7745400">
        <ele>61.2</ele>
        <time>2021-07-20T13:03:50Z</time>
      </trkpt>
      <trkpt lat="43.5400670" lon="-5.7745950">
        <ele>61.6</ele>
        <time>2021-07-20T13:03:51Z</time>
      </trkpt>
      <trkpt lat="43.5400530" lon="-5.7746490">
        <ele>62.0</ele>
        <time>2021-07-20T13:03:52Z</time>
      </trkpt>
      <trkpt lat="43.5400390" lon="-5.7747030">
        <ele>62.4</ele>
        <time>2021-07-20T13:03:53Z</time>
      </trkpt>
      <trkpt lat="43.5399720" lon="-5.7750000">
        <ele>62.4</ele>
        <time>2021-07-20T13:03:58Z</time>
      </trkpt>
      <trkpt lat="43.5399140" lon="-5.7753200">
        <ele>62.0</ele>
        <time>2021-07-20T13:04:02Z</time>
      </trkpt>
      <trkpt lat="43.5398930" lon="-5.7754170">
        <ele>61.6</ele>
        <time>2021-07-20T13:04:03Z</time>
      </trkpt>
      <trkpt lat="43.5398690" lon="-5.7755190">
        <ele>61.2</ele>
        <time>2021-07-20T13:04:04Z</time>
      </trkpt>
      <trkpt lat="43.5398420" lon="-5.7756310">
        <ele>60.8</ele>
        <time>2021-07-20T13:04:05Z</time>
      </trkpt>
      <trkpt lat="43.5398150" lon="-5.7757410">
        <ele>60.4</ele>
        <time>2021-07-20T13:04:06Z</time>
      </trkpt>
      <trkpt lat="43.5397520" lon="-5.7759690">
        <ele>60.4</ele>
        <time>2021-07-20T13:04:08Z</time>
      </trkpt>
      <trkpt lat="43.5396860" lon="-5.7761930">
        <ele>59.8</ele>
        <time>2021-07-20T13:04:10Z</time>
      </trkpt>
      <trkpt lat="43.5396550" lon="-5.7762980">
        <ele>59.4</ele>
        <time>2021-07-20T13:04:11Z</time>
      </trkpt>
      <trkpt lat="43.5396310" lon="-5.7763990">
        <ele>58.8</ele>
        <time>2021-07-20T13:04:12Z</time>
      </trkpt>
      <trkpt lat="43.5396160" lon="-5.7764970">
        <ele>58.4</ele>
        <time>2021-07-20T13:04:13Z</time>
      </trkpt>
      <trkpt lat="43.5396160" lon="-5.7765820">
        <ele>57.8</ele>
        <time>2021-07-20T13:04:14Z</time>
      </trkpt>
      <trkpt lat="43.5396300" lon="-5.7767320">
        <ele>57.8</ele>
        <time>2021-07-20T13:04:16Z</time>
      </trkpt>
      <trkpt lat="43.5396300" lon="-5.7768040">
        <ele>57.8</ele>
        <time>2021-07-20T13:04:17Z</time>
      </trkpt>
      <trkpt lat="43.5396160" lon="-5.7769510">
        <ele>57.8</ele>
        <time>2021-07-20T13:04:19Z</time>
      </trkpt>
      <trkpt lat="43.5396030" lon="-5.7770270">
        <ele>57.4</ele>
        <time>2021-07-20T13:04:20Z</time>
      </trkpt>
      <trkpt lat="43.5395880" lon="-5.7770970">
        <ele>56.8</ele>
        <time>2021-07-20T13:04:21Z</time>
      </trkpt>
      <trkpt lat="43.5395750" lon="-5.7771700">
        <ele>56.4</ele>
        <time>2021-07-20T13:04:22Z</time>
      </trkpt>
      <trkpt lat="43.5395610" lon="-5.7772420">
        <ele>55.4</ele>
        <time>2021-07-20T13:04:23Z</time>
      </trkpt>
      <trkpt lat="43.5395350" lon="-5.7775420">
        <ele>55.4</ele>
        <time>2021-07-20T13:04:27Z</time>
      </trkpt>
      <trkpt lat="43.5395370" lon="-5.7776240">
        <ele>55.4</ele>
        <time>2021-07-20T13:04:28Z</time>
      </trkpt>
      <trkpt lat="43.5395530" lon="-5.7777830">
        <ele>55.4</ele>
        <time>2021-07-20T13:04:30Z</time>
      </trkpt>
      <trkpt lat="43.5395710" lon="-5.7778640">
        <ele>55.0</ele>
        <time>2021-07-20T13:04:31Z</time>
      </trkpt>
      <trkpt lat="43.5395970" lon="-5.7779430">
        <ele>54.6</ele>
        <time>2021-07-20T13:04:32Z</time>
      </trkpt>
      <trkpt lat="43.5396290" lon="-5.7780210">
        <ele>54.0</ele>
        <time>2021-07-20T13:04:33Z</time>
      </trkpt>
      <trkpt lat="43.5396640" lon="-5.7781000">
        <ele>53.6</ele>
        <time>2021-07-20T13:04:34Z</time>
      </trkpt>
      <trkpt lat="43.5397020" lon="-5.7781790">
        <ele>53.2</ele>
        <time>2021-07-20T13:04:35Z</time>
      </trkpt>
      <trkpt lat="43.5397440" lon="-5.7782640">
        <ele>53.2</ele>
        <time>2021-07-20T13:04:36Z</time>
      </trkpt>
      <trkpt lat="43.5397890" lon="-5.7783410">
        <ele>53.2</ele>
        <time>2021-07-20T13:04:37Z</time>
      </trkpt>
      <trkpt lat="43.5398830" lon="-5.7784820">
        <ele>52.8</ele>
        <time>2021-07-20T13:04:39Z</time>
      </trkpt>
      <trkpt lat="43.5399270" lon="-5.7785510">
        <ele>52.4</ele>
        <time>2021-07-20T13:04:40Z</time>
      </trkpt>
      <trkpt lat="43.5399650" lon="-5.7786160">
        <ele>52.0</ele>
        <time>2021-07-20T13:04:41Z</time>
      </trkpt>
      <trkpt lat="43.5399960" lon="-5.7786790">
        <ele>51.6</ele>
        <time>2021-07-20T13:04:42Z</time>
      </trkpt>
      <trkpt lat="43.5400240" lon="-5.7787380">
        <ele>51.2</ele>
        <time>2021-07-20T13:04:43Z</time>
      </trkpt>
      <trkpt lat="43.5400450" lon="-5.7787920">
        <ele>50.6</ele>
        <time>2021-07-20T13:04:44Z</time>
      </trkpt>
      <trkpt lat="43.5400580" lon="-5.7788420">
        <ele>50.2</ele>
        <time>2021-07-20T13:04:45Z</time>
      </trkpt>
      <trkpt lat="43.5400600" lon="-5.7788900">
        <ele>49.8</ele>
        <time>2021-07-20T13:04:46Z</time>
      </trkpt>
      <trkpt lat="43.5400480" lon="-5.7789350">
        <ele>49.4</ele>
        <time>2021-07-20T13:04:47Z</time>
      </trkpt>
      <trkpt lat="43.5400260" lon="-5.7789710">
        <ele>49.0</ele>
        <time>2021-07-20T13:04:48Z</time>
      </trkpt>
      <trkpt lat="43.5399430" lon="-5.7790550">
        <ele>49.0</ele>
        <time>2021-07-20T13:04:51Z</time>
      </trkpt>
      <trkpt lat="43.5399290" lon="-5.7790830">
        <ele>49.0</ele>
        <time>2021-07-20T13:04:52Z</time>
      </trkpt>
      <trkpt lat="43.5399170" lon="-5.7791120">
        <ele>49.0</ele>
        <time>2021-07-20T13:04:53Z</time>
      </trkpt>
      <trkpt lat="43.5398960" lon="-5.7791710">
        <ele>49.0</ele>
        <time>2021-07-20T13:04:55Z</time>
      </trkpt>
      <trkpt lat="43.5398890" lon="-5.7792810">
        <ele>49.0</ele>
        <time>2021-07-20T13:04:59Z</time>
      </trkpt>
      <trkpt lat="43.5398990" lon="-5.7792920">
        <ele>49.0</ele>
        <time>2021-07-20T13:05:00Z</time>
      </trkpt>
      <trkpt lat="43.5399030" lon="-5.7792960">
        <ele>49.0</ele>
        <time>2021-07-20T13:05:01Z</time>
      </trkpt>
      <trkpt lat="43.5398730" lon="-5.7792290">
        <ele>47.0</ele>
        <time>2021-07-20T13:41:39Z</time>
      </trkpt>
      <trkpt lat="43.5398750" lon="-5.7792060">
        <ele>47.0</ele>
        <time>2021-07-20T13:41:40Z</time>
      </trkpt>
      <trkpt lat="43.5399090" lon="-5.7791090">
        <ele>47.0</ele>
        <time>2021-07-20T13:41:44Z</time>
      </trkpt>
      <trkpt lat="43.5399310" lon="-5.7790580">
        <ele>47.0</ele>
        <time>2021-07-20T13:41:46Z</time>
      </trkpt>
      <trkpt lat="43.5400010" lon="-5.7789630">
        <ele>47.0</ele>
        <time>2021-07-20T13:41:50Z</time>
      </trkpt>
      <trkpt lat="43.5400670" lon="-5.7789190">
        <ele>47.0</ele>
        <time>2021-07-20T13:41:53Z</time>
      </trkpt>
      <trkpt lat="43.5400920" lon="-5.7789280">
        <ele>47.0</ele>
        <time>2021-07-20T13:41:54Z</time>
      </trkpt>
      <trkpt lat="43.5401580" lon="-5.7790020">
        <ele>47.0</ele>
        <time>2021-07-20T13:41:57Z</time>
      </trkpt>
      <trkpt lat="43.5401990" lon="-5.7790680">
        <ele>47.0</ele>
        <time>2021-07-20T13:41:59Z</time>
      </trkpt>
      <trkpt lat="43.5403470" lon="-5.7793180">
        <ele>47.0</ele>
        <time>2021-07-20T13:42:07Z</time>
      </trkpt>
      <trkpt lat="43.5403790" lon="-5.7795320">
        <ele>47.0</ele>
        <time>2021-07-20T13:42:13Z</time>
      </trkpt>
      <trkpt lat="43.5403580" lon="-5.7796690">
        <ele>47.0</ele>
        <time>2021-07-20T13:42:16Z</time>
      </trkpt>
      <trkpt lat="43.5403370" lon="-5.7798090">
        <ele>47.0</ele>
        <time>2021-07-20T13:42:19Z</time>
      </trkpt>
      <trkpt lat="43.5403090" lon="-5.7799530">
        <ele>47.0</ele>
        <time>2021-07-20T13:42:22Z</time>
      </trkpt>
      <trkpt lat="43.5402700" lon="-5.7800930">
        <ele>47.0</ele>
        <time>2021-07-20T13:42:25Z</time>
      </trkpt>
      <trkpt lat="43.5402410" lon="-5.7801880">
        <ele>47.0</ele>
        <time>2021-07-20T13:42:27Z</time>
      </trkpt>
      <trkpt lat="43.5401970" lon="-5.7804230">
        <ele>47.0</ele>
        <time>2021-07-20T13:42:32Z</time>
      </trkpt>
      <trkpt lat="43.5401860" lon="-5.7805170">
        <ele>47.0</ele>
        <time>2021-07-20T13:42:34Z</time>
      </trkpt>
      <trkpt lat="43.5401690" lon="-5.7809030">
        <ele>47.0</ele>
        <time>2021-07-20T13:42:42Z</time>
      </trkpt>
      <trkpt lat="43.5401940" lon="-5.7812260">
        <ele>47.0</ele>
        <time>2021-07-20T13:42:49Z</time>
      </trkpt>
      <trkpt lat="43.5402150" lon="-5.7814600">
        <ele>47.0</ele>
        <time>2021-07-20T13:42:54Z</time>
      </trkpt>
      <trkpt lat="43.5402150" lon="-5.7816140">
        <ele>47.0</ele>
        <time>2021-07-20T13:42:57Z</time>
      </trkpt>
      <trkpt lat="43.5401540" lon="-5.7818940">
        <ele>47.0</ele>
        <time>2021-07-20T13:43:03Z</time>
      </trkpt>
      <trkpt lat="43.5400390" lon="-5.7822640">
        <ele>47.0</ele>
        <time>2021-07-20T13:43:11Z</time>
      </trkpt>
      <trkpt lat="43.5399690" lon="-5.7824360">
        <ele>47.4</ele>
        <time>2021-07-20T13:43:15Z</time>
      </trkpt>
      <trkpt lat="43.5399530" lon="-5.7824780">
        <ele>47.8</ele>
        <time>2021-07-20T13:43:16Z</time>
      </trkpt>
      <trkpt lat="43.5399360" lon="-5.7825230">
        <ele>48.2</ele>
        <time>2021-07-20T13:43:17Z</time>
      </trkpt>
      <trkpt lat="43.5399200" lon="-5.7825630">
        <ele>48.6</ele>
        <time>2021-07-20T13:43:18Z</time>
      </trkpt>
      <trkpt lat="43.5399050" lon="-5.7826020">
        <ele>49.0</ele>
        <time>2021-07-20T13:43:19Z</time>
      </trkpt>
      <trkpt lat="43.5397980" lon="-5.7827560">
        <ele>49.0</ele>
        <time>2021-07-20T13:43:24Z</time>
      </trkpt>
      <trkpt lat="43.5396810" lon="-5.7829620">
        <ele>49.0</ele>
        <time>2021-07-20T13:43:30Z</time>
      </trkpt>
      <trkpt lat="43.5396020" lon="-5.7832730">
        <ele>49.4</ele>
        <time>2021-07-20T13:43:37Z</time>
      </trkpt>
      <trkpt lat="43.5395920" lon="-5.7833130">
        <ele>49.8</ele>
        <time>2021-07-20T13:43:38Z</time>
      </trkpt>
      <trkpt lat="43.5395820" lon="-5.7833550">
        <ele>50.2</ele>
        <time>2021-07-20T13:43:39Z</time>
      </trkpt>
      <trkpt lat="43.5395690" lon="-5.7833960">
        <ele>50.6</ele>
        <time>2021-07-20T13:43:40Z</time>
      </trkpt>
      <trkpt lat="43.5395540" lon="-5.7834380">
        <ele>51.0</ele>
        <time>2021-07-20T13:43:41Z</time>
      </trkpt>
      <trkpt lat="43.5395000" lon="-5.7836280">
        <ele>51.0</ele>
        <time>2021-07-20T13:43:45Z</time>
      </trkpt>
      <trkpt lat="43.5393790" lon="-5.7840800">
        <ele>51.0</ele>
        <time>2021-07-20T13:43:55Z</time>
      </trkpt>
      <trkpt lat="43.5393680" lon="-5.7841220">
        <ele>51.4</ele>
        <time>2021-07-20T13:43:56Z</time>
      </trkpt>
      <trkpt lat="43.5393570" lon="-5.7841630">
        <ele>52.0</ele>
        <time>2021-07-20T13:43:57Z</time>
      </trkpt>
      <trkpt lat="43.5393480" lon="-5.7842030">
        <ele>52.4</ele>
        <time>2021-07-20T13:43:58Z</time>
      </trkpt>
      <trkpt lat="43.5393400" lon="-5.7842450">
        <ele>52.8</ele>
        <time>2021-07-20T13:43:59Z</time>
      </trkpt>
      <trkpt lat="43.5393300" lon="-5.7842920">
        <ele>53.2</ele>
        <time>2021-07-20T13:44:00Z</time>
      </trkpt>
      <trkpt lat="43.5392910" lon="-5.7844610">
        <ele>53.2</ele>
        <time>2021-07-20T13:44:04Z</time>
      </trkpt>
      <trkpt lat="43.5392020" lon="-5.7848060">
        <ele>53.2</ele>
        <time>2021-07-20T13:44:12Z</time>
      </trkpt>
      <trkpt lat="43.5390640" lon="-5.7851870">
        <ele>53.6</ele>
        <time>2021-07-20T13:44:21Z</time>
      </trkpt>
      <trkpt lat="43.5390470" lon="-5.7852340">
        <ele>54.4</ele>
        <time>2021-07-20T13:44:22Z</time>
      </trkpt>
      <trkpt lat="43.5390290" lon="-5.7852760">
        <ele>54.8</ele>
        <time>2021-07-20T13:44:23Z</time>
      </trkpt>
      <trkpt lat="43.5390110" lon="-5.7853170">
        <ele>55.2</ele>
        <time>2021-07-20T13:44:24Z</time>
      </trkpt>
      <trkpt lat="43.5389550" lon="-5.7854580">
        <ele>55.2</ele>
        <time>2021-07-20T13:44:28Z</time>
      </trkpt>
      <trkpt lat="43.5389260" lon="-5.7856890">
        <ele>55.2</ele>
        <time>2021-07-20T13:44:34Z</time>
      </trkpt>
      <trkpt lat="43.5388660" lon="-5.7859690">
        <ele>55.2</ele>
        <time>2021-07-20T13:44:41Z</time>
      </trkpt>
      <trkpt lat="43.5388220" lon="-5.7860750">
        <ele>55.6</ele>
        <time>2021-07-20T13:44:44Z</time>
      </trkpt>
      <trkpt lat="43.5388070" lon="-5.7861130">
        <ele>56.2</ele>
        <time>2021-07-20T13:44:45Z</time>
      </trkpt>
      <trkpt lat="43.5387920" lon="-5.7861560">
        <ele>57.0</ele>
        <time>2021-07-20T13:44:46Z</time>
      </trkpt>
      <trkpt lat="43.5387750" lon="-5.7861940">
        <ele>57.4</ele>
        <time>2021-07-20T13:44:47Z</time>
      </trkpt>
      <trkpt lat="43.5387320" lon="-5.7863030">
        <ele>57.4</ele>
        <time>2021-07-20T13:44:50Z</time>
      </trkpt>
      <trkpt lat="43.5386480" lon="-5.7865700">
        <ele>57.4</ele>
        <time>2021-07-20T13:44:57Z</time>
      </trkpt>
      <trkpt lat="43.5385970" lon="-5.7867730">
        <ele>57.8</ele>
        <time>2021-07-20T13:45:02Z</time>
      </trkpt>
      <trkpt lat="43.5385810" lon="-5.7868090">
        <ele>58.2</ele>
        <time>2021-07-20T13:45:03Z</time>
      </trkpt>
      <trkpt lat="43.5385630" lon="-5.7868470">
        <ele>58.6</ele>
        <time>2021-07-20T13:45:04Z</time>
      </trkpt>
      <trkpt lat="43.5385480" lon="-5.7868820">
        <ele>59.0</ele>
        <time>2021-07-20T13:45:05Z</time>
      </trkpt>
      <trkpt lat="43.5385310" lon="-5.7869150">
        <ele>59.4</ele>
        <time>2021-07-20T13:45:06Z</time>
      </trkpt>
      <trkpt lat="43.5384020" lon="-5.7871120">
        <ele>59.4</ele>
        <time>2021-07-20T13:45:12Z</time>
      </trkpt>
      <trkpt lat="43.5382700" lon="-5.7873820">
        <ele>59.4</ele>
        <time>2021-07-20T13:45:19Z</time>
      </trkpt>
      <trkpt lat="43.5381560" lon="-5.7877080">
        <ele>59.8</ele>
        <time>2021-07-20T13:45:27Z</time>
      </trkpt>
      <trkpt lat="43.5381400" lon="-5.7877440">
        <ele>60.2</ele>
        <time>2021-07-20T13:45:28Z</time>
      </trkpt>
      <trkpt lat="43.5381250" lon="-5.7877800">
        <ele>60.6</ele>
        <time>2021-07-20T13:45:29Z</time>
      </trkpt>
      <trkpt lat="43.5381090" lon="-5.7878140">
        <ele>61.0</ele>
        <time>2021-07-20T13:45:30Z</time>
      </trkpt>
      <trkpt lat="43.5380960" lon="-5.7878490">
        <ele>61.6</ele>
        <time>2021-07-20T13:45:31Z</time>
      </trkpt>
      <trkpt lat="43.5380190" lon="-5.7880700">
        <ele>61.6</ele>
        <time>2021-07-20T13:45:37Z</time>
      </trkpt>
      <trkpt lat="43.5379850" lon="-5.7882690">
        <ele>62.0</ele>
        <time>2021-07-20T13:45:42Z</time>
      </trkpt>
      <trkpt lat="43.5379810" lon="-5.7883110">
        <ele>62.4</ele>
        <time>2021-07-20T13:45:43Z</time>
      </trkpt>
      <trkpt lat="43.5379780" lon="-5.7883550">
        <ele>62.8</ele>
        <time>2021-07-20T13:45:44Z</time>
      </trkpt>
      <trkpt lat="43.5379760" lon="-5.7884010">
        <ele>63.2</ele>
        <time>2021-07-20T13:45:45Z</time>
      </trkpt>
      <trkpt lat="43.5379760" lon="-5.7884440">
        <ele>63.8</ele>
        <time>2021-07-20T13:45:46Z</time>
      </trkpt>
      <trkpt lat="43.5379490" lon="-5.7887080">
        <ele>63.8</ele>
        <time>2021-07-20T13:45:52Z</time>
      </trkpt>
      <trkpt lat="43.5379190" lon="-5.7890220">
        <ele>63.8</ele>
        <time>2021-07-20T13:45:59Z</time>
      </trkpt>
      <trkpt lat="43.5378830" lon="-5.7892950">
        <ele>63.8</ele>
        <time>2021-07-20T13:46:06Z</time>
      </trkpt>
      <trkpt lat="43.5378820" lon="-5.7895020">
        <ele>63.8</ele>
        <time>2021-07-20T13:46:12Z</time>
      </trkpt>
      <trkpt lat="43.5379120" lon="-5.7895520">
        <ele>63.8</ele>
        <time>2021-07-20T13:46:16Z</time>
      </trkpt>
      <trkpt lat="43.5379700" lon="-5.7896530">
        <ele>64.2</ele>
        <time>2021-07-20T13:46:21Z</time>
      </trkpt>
      <trkpt lat="43.5379820" lon="-5.7896860">
        <ele>64.6</ele>
        <time>2021-07-20T13:46:22Z</time>
      </trkpt>
      <trkpt lat="43.5379910" lon="-5.7897260">
        <ele>65.0</ele>
        <time>2021-07-20T13:46:23Z</time>
      </trkpt>
      <trkpt lat="43.5380020" lon="-5.7897700">
        <ele>65.4</ele>
        <time>2021-07-20T13:46:24Z</time>
      </trkpt>
      <trkpt lat="43.5380110" lon="-5.7898160">
        <ele>65.8</ele>
        <time>2021-07-20T13:46:25Z</time>
      </trkpt>
      <trkpt lat="43.5380340" lon="-5.7899240">
        <ele>65.8</ele>
        <time>2021-07-20T13:46:28Z</time>
      </trkpt>
      <trkpt lat="43.5380470" lon="-5.7899460">
        <ele>65.8</ele>
        <time>2021-07-20T13:46:29Z</time>
      </trkpt>
      <trkpt lat="43.5380580" lon="-5.7899650">
        <ele>65.8</ele>
        <time>2021-07-20T13:46:30Z</time>
      </trkpt>
      <trkpt lat="43.5380700" lon="-5.7900460">
        <ele>65.8</ele>
        <time>2021-07-20T13:46:33Z</time>
      </trkpt>
      <trkpt lat="43.5380600" lon="-5.7900770">
        <ele>65.8</ele>
        <time>2021-07-20T13:46:34Z</time>
      </trkpt>
      <trkpt lat="43.5379800" lon="-5.7902280">
        <ele>65.8</ele>
        <time>2021-07-20T13:46:38Z</time>
      </trkpt>
      <trkpt lat="43.5379550" lon="-5.7902670">
        <ele>65.8</ele>
        <time>2021-07-20T13:46:39Z</time>
      </trkpt>
      <trkpt lat="43.5378160" lon="-5.7905080">
        <ele>65.8</ele>
        <time>2021-07-20T13:46:45Z</time>
      </trkpt>
      <trkpt lat="43.5377700" lon="-5.7905850">
        <ele>65.8</ele>
        <time>2021-07-20T13:46:47Z</time>
      </trkpt>
      <trkpt lat="43.5375870" lon="-5.7909040">
        <ele>65.8</ele>
        <time>2021-07-20T13:46:55Z</time>
      </trkpt>
      <trkpt lat="43.5374100" lon="-5.7911950">
        <ele>65.8</ele>
        <time>2021-07-20T13:47:03Z</time>
      </trkpt>
      <trkpt lat="43.5373880" lon="-5.7912350">
        <ele>65.8</ele>
        <time>2021-07-20T13:47:04Z</time>
      </trkpt>
      <trkpt lat="43.5372960" lon="-5.7913740">
        <ele>65.8</ele>
        <time>2021-07-20T13:47:08Z</time>
      </trkpt>
      <trkpt lat="43.5372390" lon="-5.7914900">
        <ele>65.8</ele>
        <time>2021-07-20T13:47:11Z</time>
      </trkpt>
      <trkpt lat="43.5372020" lon="-5.7915630">
        <ele>66.2</ele>
        <time>2021-07-20T13:47:13Z</time>
      </trkpt>
      <trkpt lat="43.5371830" lon="-5.7915990">
        <ele>66.6</ele>
        <time>2021-07-20T13:47:14Z</time>
      </trkpt>
      <trkpt lat="43.5371620" lon="-5.7916360">
        <ele>67.0</ele>
        <time>2021-07-20T13:47:15Z</time>
      </trkpt>
      <trkpt lat="43.5371430" lon="-5.7916750">
        <ele>68.0</ele>
        <time>2021-07-20T13:47:16Z</time>
      </trkpt>
      <trkpt lat="43.5370760" lon="-5.7918200">
        <ele>68.0</ele>
        <time>2021-07-20T13:47:20Z</time>
      </trkpt>
      <trkpt lat="43.5368910" lon="-5.7921620">
        <ele>68.0</ele>
        <time>2021-07-20T13:47:29Z</time>
      </trkpt>
      <trkpt lat="43.5366950" lon="-5.7924300">
        <ele>68.0</ele>
        <time>2021-07-20T13:47:37Z</time>
      </trkpt>
      <trkpt lat="43.5366240" lon="-5.7925310">
        <ele>68.8</ele>
        <time>2021-07-20T13:47:40Z</time>
      </trkpt>
      <trkpt lat="43.5366010" lon="-5.7925660">
        <ele>69.2</ele>
        <time>2021-07-20T13:47:41Z</time>
      </trkpt>
      <trkpt lat="43.5365770" lon="-5.7925960">
        <ele>69.6</ele>
        <time>2021-07-20T13:47:42Z</time>
      </trkpt>
      <trkpt lat="43.5365530" lon="-5.7926250">
        <ele>70.0</ele>
        <time>2021-07-20T13:47:43Z</time>
      </trkpt>
      <trkpt lat="43.5364810" lon="-5.7927140">
        <ele>70.0</ele>
        <time>2021-07-20T13:47:46Z</time>
      </trkpt>
      <trkpt lat="43.5362920" lon="-5.7929390">
        <ele>70.0</ele>
        <time>2021-07-20T13:47:54Z</time>
      </trkpt>
      <trkpt lat="43.5361750" lon="-5.7930820">
        <ele>70.4</ele>
        <time>2021-07-20T13:48:00Z</time>
      </trkpt>
      <trkpt lat="43.5361570" lon="-5.7931040">
        <ele>70.8</ele>
        <time>2021-07-20T13:48:01Z</time>
      </trkpt>
      <trkpt lat="43.5361400" lon="-5.7931310">
        <ele>71.2</ele>
        <time>2021-07-20T13:48:02Z</time>
      </trkpt>
      <trkpt lat="43.5361220" lon="-5.7931540">
        <ele>71.6</ele>
        <time>2021-07-20T13:48:03Z</time>
      </trkpt>
      <trkpt lat="43.5361060" lon="-5.7931770">
        <ele>72.2</ele>
        <time>2021-07-20T13:48:04Z</time>
      </trkpt>
      <trkpt lat="43.5360730" lon="-5.7932190">
        <ele>72.2</ele>
        <time>2021-07-20T13:48:08Z</time>
      </trkpt>
      <trkpt lat="43.5360570" lon="-5.7932350">
        <ele>72.2</ele>
        <time>2021-07-20T13:48:29Z</time>
      </trkpt>
      <trkpt lat="43.5360470" lon="-5.7932490">
        <ele>72.2</ele>
        <time>2021-07-20T13:48:30Z</time>
      </trkpt>
      <trkpt lat="43.5360200" lon="-5.7932820">
        <ele>72.2</ele>
        <time>2021-07-20T13:48:32Z</time>
      </trkpt>
      <trkpt lat="43.5359150" lon="-5.7934540">
        <ele>72.2</ele>
        <time>2021-07-20T13:48:38Z</time>
      </trkpt>
      <trkpt lat="43.5358550" lon="-5.7935630">
        <ele>72.6</ele>
        <time>2021-07-20T13:48:41Z</time>
      </trkpt>
      <trkpt lat="43.5358340" lon="-5.7935990">
        <ele>73.0</ele>
        <time>2021-07-20T13:48:42Z</time>
      </trkpt>
      <trkpt lat="43.5358180" lon="-5.7936360">
        <ele>73.4</ele>
        <time>2021-07-20T13:48:43Z</time>
      </trkpt>
      <trkpt lat="43.5358020" lon="-5.7936750">
        <ele>73.8</ele>
        <time>2021-07-20T13:48:44Z</time>
      </trkpt>
      <trkpt lat="43.5357860" lon="-5.7937130">
        <ele>74.2</ele>
        <time>2021-07-20T13:48:45Z</time>
      </trkpt>
      <trkpt lat="43.5356820" lon="-5.7940430">
        <ele>74.2</ele>
        <time>2021-07-20T13:48:53Z</time>
      </trkpt>
      <trkpt lat="43.5355330" lon="-5.7944750">
        <ele>74.2</ele>
        <time>2021-07-20T13:49:03Z</time>
      </trkpt>
      <trkpt lat="43.5353960" lon="-5.7948930">
        <ele>74.2</ele>
        <time>2021-07-20T13:49:12Z</time>
      </trkpt>
      <trkpt lat="43.5353660" lon="-5.7949840">
        <ele>74.6</ele>
        <time>2021-07-20T13:49:14Z</time>
      </trkpt>
      <trkpt lat="43.5353460" lon="-5.7950270">
        <ele>75.0</ele>
        <time>2021-07-20T13:49:15Z</time>
      </trkpt>
      <trkpt lat="43.5353260" lon="-5.7950710">
        <ele>75.6</ele>
        <time>2021-07-20T13:49:16Z</time>
      </trkpt>
      <trkpt lat="43.5353070" lon="-5.7951130">
        <ele>76.0</ele>
        <time>2021-07-20T13:49:17Z</time>
      </trkpt>
      <trkpt lat="43.5352870" lon="-5.7951550">
        <ele>76.4</ele>
        <time>2021-07-20T13:49:18Z</time>
      </trkpt>
      <trkpt lat="43.5352450" lon="-5.7952410">
        <ele>76.4</ele>
        <time>2021-07-20T13:49:20Z</time>
      </trkpt>
      <trkpt lat="43.5351270" lon="-5.7954670">
        <ele>76.4</ele>
        <time>2021-07-20T13:49:26Z</time>
      </trkpt>
      <trkpt lat="43.5350150" lon="-5.7956900">
        <ele>76.8</ele>
        <time>2021-07-20T13:49:33Z</time>
      </trkpt>
      <trkpt lat="43.5350020" lon="-5.7957210">
        <ele>77.2</ele>
        <time>2021-07-20T13:49:34Z</time>
      </trkpt>
      <trkpt lat="43.5349890" lon="-5.7957520">
        <ele>77.6</ele>
        <time>2021-07-20T13:49:35Z</time>
      </trkpt>
      <trkpt lat="43.5349760" lon="-5.7957830">
        <ele>78.0</ele>
        <time>2021-07-20T13:49:36Z</time>
      </trkpt>
      <trkpt lat="43.5349630" lon="-5.7958080">
        <ele>78.4</ele>
        <time>2021-07-20T13:49:37Z</time>
      </trkpt>
      <trkpt lat="43.5349080" lon="-5.7959140">
        <ele>78.4</ele>
        <time>2021-07-20T13:49:41Z</time>
      </trkpt>
      <trkpt lat="43.5348330" lon="-5.7960590">
        <ele>79.0</ele>
        <time>2021-07-20T13:49:46Z</time>
      </trkpt>
      <trkpt lat="43.5348170" lon="-5.7960900">
        <ele>79.4</ele>
        <time>2021-07-20T13:49:47Z</time>
      </trkpt>
      <trkpt lat="43.5348010" lon="-5.7961240">
        <ele>79.8</ele>
        <time>2021-07-20T13:49:48Z</time>
      </trkpt>
      <trkpt lat="43.5347890" lon="-5.7961570">
        <ele>80.4</ele>
        <time>2021-07-20T13:49:49Z</time>
      </trkpt>
      <trkpt lat="43.5347770" lon="-5.7961860">
        <ele>80.8</ele>
        <time>2021-07-20T13:49:50Z</time>
      </trkpt>
      <trkpt lat="43.5347140" lon="-5.7963150">
        <ele>80.8</ele>
        <time>2021-07-20T13:49:55Z</time>
      </trkpt>
      <trkpt lat="43.5346510" lon="-5.7964020">
        <ele>81.2</ele>
        <time>2021-07-20T13:49:59Z</time>
      </trkpt>
      <trkpt lat="43.5346400" lon="-5.7964310">
        <ele>81.6</ele>
        <time>2021-07-20T13:50:00Z</time>
      </trkpt>
      <trkpt lat="43.5346280" lon="-5.7964590">
        <ele>82.0</ele>
        <time>2021-07-20T13:50:01Z</time>
      </trkpt>
      <trkpt lat="43.5346170" lon="-5.7964920">
        <ele>82.4</ele>
        <time>2021-07-20T13:50:02Z</time>
      </trkpt>
      <trkpt lat="43.5346070" lon="-5.7965280">
        <ele>82.8</ele>
        <time>2021-07-20T13:50:03Z</time>
      </trkpt>
      <trkpt lat="43.5345580" lon="-5.7966980">
        <ele>82.8</ele>
        <time>2021-07-20T13:50:08Z</time>
      </trkpt>
      <trkpt lat="43.5345360" lon="-5.7969660">
        <ele>82.8</ele>
        <time>2021-07-20T13:50:15Z</time>
      </trkpt>
      <trkpt lat="43.5346460" lon="-5.7971350">
        <ele>82.8</ele>
        <time>2021-07-20T13:50:20Z</time>
      </trkpt>
      <trkpt lat="43.5347900" lon="-5.7973530">
        <ele>82.8</ele>
        <time>2021-07-20T13:50:25Z</time>
      </trkpt>
      <trkpt lat="43.5348230" lon="-5.7973950">
        <ele>82.8</ele>
        <time>2021-07-20T13:50:26Z</time>
      </trkpt>
      <trkpt lat="43.5349320" lon="-5.7975220">
        <ele>82.8</ele>
        <time>2021-07-20T13:50:29Z</time>
      </trkpt>
      <trkpt lat="43.5350020" lon="-5.7976220">
        <ele>82.8</ele>
        <time>2021-07-20T13:50:31Z</time>
      </trkpt>
      <trkpt lat="43.5350620" lon="-5.7977380">
        <ele>82.8</ele>
        <time>2021-07-20T13:50:33Z</time>
      </trkpt>
      <trkpt lat="43.5350910" lon="-5.7978010">
        <ele>82.8</ele>
        <time>2021-07-20T13:50:34Z</time>
      </trkpt>
      <trkpt lat="43.5351130" lon="-5.7978660">
        <ele>82.8</ele>
        <time>2021-07-20T13:50:35Z</time>
      </trkpt>
      <trkpt lat="43.5351540" lon="-5.7980040">
        <ele>82.8</ele>
        <time>2021-07-20T13:50:37Z</time>
      </trkpt>
      <trkpt lat="43.5351730" lon="-5.7980750">
        <ele>82.8</ele>
        <time>2021-07-20T13:50:38Z</time>
      </trkpt>
      <trkpt lat="43.5351930" lon="-5.7981500">
        <ele>82.8</ele>
        <time>2021-07-20T13:50:39Z</time>
      </trkpt>
      <trkpt lat="43.5352280" lon="-5.7983060">
        <ele>82.8</ele>
        <time>2021-07-20T13:50:41Z</time>
      </trkpt>
      <trkpt lat="43.5352460" lon="-5.7983860">
        <ele>82.4</ele>
        <time>2021-07-20T13:50:42Z</time>
      </trkpt>
      <trkpt lat="43.5352610" lon="-5.7984640">
        <ele>82.0</ele>
        <time>2021-07-20T13:50:43Z</time>
      </trkpt>
      <trkpt lat="43.5352790" lon="-5.7985440">
        <ele>81.4</ele>
        <time>2021-07-20T13:50:44Z</time>
      </trkpt>
      <trkpt lat="43.5352950" lon="-5.7986230">
        <ele>81.0</ele>
        <time>2021-07-20T13:50:45Z</time>
      </trkpt>
      <trkpt lat="43.5353090" lon="-5.7987020">
        <ele>80.6</ele>
        <time>2021-07-20T13:50:46Z</time>
      </trkpt>
      <trkpt lat="43.5353450" lon="-5.7989280">
        <ele>80.6</ele>
        <time>2021-07-20T13:50:49Z</time>
      </trkpt>
      <trkpt lat="43.5353830" lon="-5.7991160">
        <ele>80.6</ele>
        <time>2021-07-20T13:50:52Z</time>
      </trkpt>
      <trkpt lat="43.5354040" lon="-5.7992220">
        <ele>80.6</ele>
        <time>2021-07-20T13:50:54Z</time>
      </trkpt>
      <trkpt lat="43.5354090" lon="-5.7992730">
        <ele>80.6</ele>
        <time>2021-07-20T13:50:55Z</time>
      </trkpt>
      <trkpt lat="43.5354090" lon="-5.7993260">
        <ele>80.6</ele>
        <time>2021-07-20T13:50:56Z</time>
      </trkpt>
      <trkpt lat="43.5354060" lon="-5.7994240">
        <ele>80.6</ele>
        <time>2021-07-20T13:50:58Z</time>
      </trkpt>
      <trkpt lat="43.5354030" lon="-5.7994730">
        <ele>80.6</ele>
        <time>2021-07-20T13:50:59Z</time>
      </trkpt>
      <trkpt lat="43.5353910" lon="-5.7995760">
        <ele>80.6</ele>
        <time>2021-07-20T13:51:01Z</time>
      </trkpt>
      <trkpt lat="43.5353750" lon="-5.7996780">
        <ele>80.6</ele>
        <time>2021-07-20T13:51:03Z</time>
      </trkpt>
      <trkpt lat="43.5353460" lon="-5.7998140">
        <ele>80.6</ele>
        <time>2021-07-20T13:51:06Z</time>
      </trkpt>
      <trkpt lat="43.5352520" lon="-5.8001470">
        <ele>80.6</ele>
        <time>2021-07-20T13:51:14Z</time>
      </trkpt>
      <trkpt lat="43.5352260" lon="-5.8002240">
        <ele>80.6</ele>
        <time>2021-07-20T13:51:16Z</time>
      </trkpt>
      <trkpt lat="43.5351730" lon="-5.8004260">
        <ele>80.6</ele>
        <time>2021-07-20T13:51:21Z</time>
      </trkpt>
      <trkpt lat="43.5351670" lon="-5.8004650">
        <ele>81.0</ele>
        <time>2021-07-20T13:51:22Z</time>
      </trkpt>
      <trkpt lat="43.5351620" lon="-5.8005040">
        <ele>81.8</ele>
        <time>2021-07-20T13:51:23Z</time>
      </trkpt>
      <trkpt lat="43.5351540" lon="-5.8005460">
        <ele>82.2</ele>
        <time>2021-07-20T13:51:24Z</time>
      </trkpt>
      <trkpt lat="43.5351470" lon="-5.8005870">
        <ele>82.6</ele>
        <time>2021-07-20T13:51:25Z</time>
      </trkpt>
      <trkpt lat="43.5351440" lon="-5.8008130">
        <ele>82.6</ele>
        <time>2021-07-20T13:51:30Z</time>
      </trkpt>
      <trkpt lat="43.5351450" lon="-5.8008620">
        <ele>82.6</ele>
        <time>2021-07-20T13:51:31Z</time>
      </trkpt>
      <trkpt lat="43.5351100" lon="-5.8012770">
        <ele>82.6</ele>
        <time>2021-07-20T13:51:39Z</time>
      </trkpt>
      <trkpt lat="43.5350440" lon="-5.8016660">
        <ele>83.4</ele>
        <time>2021-07-20T13:51:47Z</time>
      </trkpt>
      <trkpt lat="43.5350330" lon="-5.8017140">
        <ele>83.8</ele>
        <time>2021-07-20T13:51:48Z</time>
      </trkpt>
      <trkpt lat="43.5350210" lon="-5.8017620">
        <ele>84.2</ele>
        <time>2021-07-20T13:51:49Z</time>
      </trkpt>
      <trkpt lat="43.5350090" lon="-5.8018110">
        <ele>84.6</ele>
        <time>2021-07-20T13:51:50Z</time>
      </trkpt>
      <trkpt lat="43.5349680" lon="-5.8020190">
        <ele>84.6</ele>
        <time>2021-07-20T13:51:54Z</time>
      </trkpt>
      <trkpt lat="43.5349130" lon="-5.8022790">
        <ele>84.6</ele>
        <time>2021-07-20T13:51:58Z</time>
      </trkpt>
      <trkpt lat="43.5348940" lon="-5.8024300">
        <ele>84.6</ele>
        <time>2021-07-20T13:52:00Z</time>
      </trkpt>
      <trkpt lat="43.5348840" lon="-5.8027900">
        <ele>84.6</ele>
        <time>2021-07-20T13:52:04Z</time>
      </trkpt>
      <trkpt lat="43.5348760" lon="-5.8028860">
        <ele>84.6</ele>
        <time>2021-07-20T13:52:05Z</time>
      </trkpt>
      <trkpt lat="43.5348650" lon="-5.8029860">
        <ele>84.2</ele>
        <time>2021-07-20T13:52:06Z</time>
      </trkpt>
      <trkpt lat="43.5348530" lon="-5.8030930">
        <ele>83.8</ele>
        <time>2021-07-20T13:52:07Z</time>
      </trkpt>
      <trkpt lat="43.5348460" lon="-5.8032050">
        <ele>83.4</ele>
        <time>2021-07-20T13:52:08Z</time>
      </trkpt>
      <trkpt lat="43.5348460" lon="-5.8033140">
        <ele>82.8</ele>
        <time>2021-07-20T13:52:09Z</time>
      </trkpt>
      <trkpt lat="43.5348470" lon="-5.8034220">
        <ele>82.4</ele>
        <time>2021-07-20T13:52:10Z</time>
      </trkpt>
      <trkpt lat="43.5348490" lon="-5.8035330">
        <ele>81.8</ele>
        <time>2021-07-20T13:52:11Z</time>
      </trkpt>
      <trkpt lat="43.5348580" lon="-5.8036390">
        <ele>80.8</ele>
        <time>2021-07-20T13:52:12Z</time>
      </trkpt>
      <trkpt lat="43.5348760" lon="-5.8037400">
        <ele>80.4</ele>
        <time>2021-07-20T13:52:13Z</time>
      </trkpt>
      <trkpt lat="43.5348970" lon="-5.8038240">
        <ele>80.4</ele>
        <time>2021-07-20T13:52:14Z</time>
      </trkpt>
      <trkpt lat="43.5349150" lon="-5.8038970">
        <ele>80.4</ele>
        <time>2021-07-20T13:52:15Z</time>
      </trkpt>
      <trkpt lat="43.5349250" lon="-5.8039620">
        <ele>80.4</ele>
        <time>2021-07-20T13:52:16Z</time>
      </trkpt>
      <trkpt lat="43.5349320" lon="-5.8040510">
        <ele>80.4</ele>
        <time>2021-07-20T13:52:18Z</time>
      </trkpt>
      <trkpt lat="43.5349510" lon="-5.8041760">
        <ele>80.4</ele>
        <time>2021-07-20T13:52:22Z</time>
      </trkpt>
      <trkpt lat="43.5349520" lon="-5.8042370">
        <ele>80.4</ele>
        <time>2021-07-20T13:52:24Z</time>
      </trkpt>
      <trkpt lat="43.5349530" lon="-5.8042650">
        <ele>80.4</ele>
        <time>2021-07-20T13:52:25Z</time>
      </trkpt>
      <trkpt lat="43.5349520" lon="-5.8043380">
        <ele>80.4</ele>
        <time>2021-07-20T13:52:28Z</time>
      </trkpt>
      <trkpt lat="43.5349510" lon="-5.8043630">
        <ele>80.8</ele>
        <time>2021-07-20T13:52:29Z</time>
      </trkpt>
      <trkpt lat="43.5349470" lon="-5.8043890">
        <ele>81.2</ele>
        <time>2021-07-20T13:52:30Z</time>
      </trkpt>
      <trkpt lat="43.5349450" lon="-5.8044140">
        <ele>81.8</ele>
        <time>2021-07-20T13:52:31Z</time>
      </trkpt>
      <trkpt lat="43.5349450" lon="-5.8044390">
        <ele>82.2</ele>
        <time>2021-07-20T13:52:32Z</time>
      </trkpt>
      <trkpt lat="43.5349420" lon="-5.8044640">
        <ele>82.8</ele>
        <time>2021-07-20T13:52:33Z</time>
      </trkpt>
      <trkpt lat="43.5349290" lon="-5.8045360">
        <ele>82.8</ele>
        <time>2021-07-20T13:52:36Z</time>
      </trkpt>
      <trkpt lat="43.5349200" lon="-5.8045810">
        <ele>83.2</ele>
        <time>2021-07-20T13:52:38Z</time>
      </trkpt>
      <trkpt lat="43.5349150" lon="-5.8046030">
        <ele>83.6</ele>
        <time>2021-07-20T13:52:39Z</time>
      </trkpt>
      <trkpt lat="43.5349130" lon="-5.8046270">
        <ele>84.0</ele>
        <time>2021-07-20T13:52:40Z</time>
      </trkpt>
      <trkpt lat="43.5349120" lon="-5.8046500">
        <ele>84.4</ele>
        <time>2021-07-20T13:52:41Z</time>
      </trkpt>
      <trkpt lat="43.5349090" lon="-5.8046740">
        <ele>84.8</ele>
        <time>2021-07-20T13:52:42Z</time>
      </trkpt>
      <trkpt lat="43.5348850" lon="-5.8047630">
        <ele>84.8</ele>
        <time>2021-07-20T13:52:46Z</time>
      </trkpt>
      <trkpt lat="43.5348730" lon="-5.8048090">
        <ele>84.8</ele>
        <time>2021-07-20T13:52:48Z</time>
      </trkpt>
      <trkpt lat="43.5348620" lon="-5.8048530">
        <ele>85.2</ele>
        <time>2021-07-20T13:52:50Z</time>
      </trkpt>
      <trkpt lat="43.5348600" lon="-5.8048770">
        <ele>85.6</ele>
        <time>2021-07-20T13:52:51Z</time>
      </trkpt>
      <trkpt lat="43.5348550" lon="-5.8048990">
        <ele>86.0</ele>
        <time>2021-07-20T13:52:52Z</time>
      </trkpt>
      <trkpt lat="43.5348490" lon="-5.8049220">
        <ele>86.4</ele>
        <time>2021-07-20T13:52:53Z</time>
      </trkpt>
      <trkpt lat="43.5348480" lon="-5.8049450">
        <ele>86.8</ele>
        <time>2021-07-20T13:52:54Z</time>
      </trkpt>
      <trkpt lat="43.5348030" lon="-5.8051510">
        <ele>86.8</ele>
        <time>2021-07-20T13:53:02Z</time>
      </trkpt>
      <trkpt lat="43.5347650" lon="-5.8053340">
        <ele>87.2</ele>
        <time>2021-07-20T13:53:08Z</time>
      </trkpt>
      <trkpt lat="43.5347590" lon="-5.8053660">
        <ele>87.6</ele>
        <time>2021-07-20T13:53:09Z</time>
      </trkpt>
      <trkpt lat="43.5347550" lon="-5.8053980">
        <ele>88.0</ele>
        <time>2021-07-20T13:53:10Z</time>
      </trkpt>
      <trkpt lat="43.5347490" lon="-5.8054320">
        <ele>88.4</ele>
        <time>2021-07-20T13:53:11Z</time>
      </trkpt>
      <trkpt lat="43.5347420" lon="-5.8054680">
        <ele>88.8</ele>
        <time>2021-07-20T13:53:12Z</time>
      </trkpt>
      <trkpt lat="43.5347140" lon="-5.8056340">
        <ele>88.8</ele>
        <time>2021-07-20T13:53:17Z</time>
      </trkpt>
      <trkpt lat="43.5346850" lon="-5.8059060">
        <ele>88.8</ele>
        <time>2021-07-20T13:53:24Z</time>
      </trkpt>
      <trkpt lat="43.5346390" lon="-5.8061280">
        <ele>88.8</ele>
        <time>2021-07-20T13:53:29Z</time>
      </trkpt>
      <trkpt lat="43.5346280" lon="-5.8061770">
        <ele>88.8</ele>
        <time>2021-07-20T13:53:30Z</time>
      </trkpt>
      <trkpt lat="43.5345970" lon="-5.8063350">
        <ele>88.8</ele>
        <time>2021-07-20T13:53:33Z</time>
      </trkpt>
      <trkpt lat="43.5345770" lon="-5.8064950">
        <ele>88.8</ele>
        <time>2021-07-20T13:53:36Z</time>
      </trkpt>
      <trkpt lat="43.5345750" lon="-5.8065450">
        <ele>88.8</ele>
        <time>2021-07-20T13:53:37Z</time>
      </trkpt>
      <trkpt lat="43.5345620" lon="-5.8066900">
        <ele>88.8</ele>
        <time>2021-07-20T13:53:40Z</time>
      </trkpt>
      <trkpt lat="43.5345250" lon="-5.8068440">
        <ele>88.8</ele>
        <time>2021-07-20T13:53:44Z</time>
      </trkpt>
      <trkpt lat="43.5344930" lon="-5.8071140">
        <ele>88.8</ele>
        <time>2021-07-20T13:53:50Z</time>
      </trkpt>
      <trkpt lat="43.5343970" lon="-5.8074100">
        <ele>88.8</ele>
        <time>2021-07-20T13:53:57Z</time>
      </trkpt>
      <trkpt lat="43.5342830" lon="-5.8076370">
        <ele>88.8</ele>
        <time>2021-07-20T13:54:03Z</time>
      </trkpt>
      <trkpt lat="43.5342510" lon="-5.8077370">
        <ele>88.8</ele>
        <time>2021-07-20T13:54:05Z</time>
      </trkpt>
      <trkpt lat="43.5341680" lon="-5.8080520">
        <ele>88.8</ele>
        <time>2021-07-20T13:54:11Z</time>
      </trkpt>
      <trkpt lat="43.5341460" lon="-5.8082100">
        <ele>88.8</ele>
        <time>2021-07-20T13:54:14Z</time>
      </trkpt>
      <trkpt lat="43.5341480" lon="-5.8085810">
        <ele>88.8</ele>
        <time>2021-07-20T13:54:20Z</time>
      </trkpt>
      <trkpt lat="43.5341680" lon="-5.8087710">
        <ele>88.8</ele>
        <time>2021-07-20T13:54:23Z</time>
      </trkpt>
      <trkpt lat="43.5341680" lon="-5.8090310">
        <ele>88.8</ele>
        <time>2021-07-20T13:54:27Z</time>
      </trkpt>
      <trkpt lat="43.5341070" lon="-5.8093900">
        <ele>88.8</ele>
        <time>2021-07-20T13:54:33Z</time>
      </trkpt>
      <trkpt lat="43.5340430" lon="-5.8097940">
        <ele>88.8</ele>
        <time>2021-07-20T13:54:40Z</time>
      </trkpt>
      <trkpt lat="43.5340240" lon="-5.8099080">
        <ele>88.8</ele>
        <time>2021-07-20T13:54:42Z</time>
      </trkpt>
      <trkpt lat="43.5339130" lon="-5.8102900">
        <ele>88.8</ele>
        <time>2021-07-20T13:54:49Z</time>
      </trkpt>
      <trkpt lat="43.5337870" lon="-5.8106930">
        <ele>88.8</ele>
        <time>2021-07-20T13:54:57Z</time>
      </trkpt>
      <trkpt lat="43.5337570" lon="-5.8107900">
        <ele>88.8</ele>
        <time>2021-07-20T13:54:59Z</time>
      </trkpt>
      <trkpt lat="43.5336680" lon="-5.8109920">
        <ele>88.8</ele>
        <time>2021-07-20T13:55:04Z</time>
      </trkpt>
      <trkpt lat="43.5336470" lon="-5.8110310">
        <ele>88.8</ele>
        <time>2021-07-20T13:55:05Z</time>
      </trkpt>
      <trkpt lat="43.5336250" lon="-5.8110690">
        <ele>89.6</ele>
        <time>2021-07-20T13:55:06Z</time>
      </trkpt>
      <trkpt lat="43.5336030" lon="-5.8111100">
        <ele>90.0</ele>
        <time>2021-07-20T13:55:07Z</time>
      </trkpt>
      <trkpt lat="43.5335800" lon="-5.8111490">
        <ele>90.4</ele>
        <time>2021-07-20T13:55:08Z</time>
      </trkpt>
      <trkpt lat="43.5335580" lon="-5.8111860">
        <ele>90.8</ele>
        <time>2021-07-20T13:55:09Z</time>
      </trkpt>
      <trkpt lat="43.5334730" lon="-5.8113350">
        <ele>90.8</ele>
        <time>2021-07-20T13:55:13Z</time>
      </trkpt>
      <trkpt lat="43.5333290" lon="-5.8116330">
        <ele>90.8</ele>
        <time>2021-07-20T13:55:21Z</time>
      </trkpt>
      <trkpt lat="43.5332940" lon="-5.8117090">
        <ele>91.2</ele>
        <time>2021-07-20T13:55:23Z</time>
      </trkpt>
      <trkpt lat="43.5332780" lon="-5.8117500">
        <ele>91.6</ele>
        <time>2021-07-20T13:55:24Z</time>
      </trkpt>
      <trkpt lat="43.5332640" lon="-5.8117930">
        <ele>92.0</ele>
        <time>2021-07-20T13:55:25Z</time>
      </trkpt>
      <trkpt lat="43.5332470" lon="-5.8118380">
        <ele>92.4</ele>
        <time>2021-07-20T13:55:26Z</time>
      </trkpt>
      <trkpt lat="43.5332320" lon="-5.8118850">
        <ele>92.8</ele>
        <time>2021-07-20T13:55:27Z</time>
      </trkpt>
      <trkpt lat="43.5331860" lon="-5.8120140">
        <ele>92.8</ele>
        <time>2021-07-20T13:55:30Z</time>
      </trkpt>
      <trkpt lat="43.5330330" lon="-5.8124030">
        <ele>92.8</ele>
        <time>2021-07-20T13:55:39Z</time>
      </trkpt>
      <trkpt lat="43.5329430" lon="-5.8126690">
        <ele>92.8</ele>
        <time>2021-07-20T13:55:45Z</time>
      </trkpt>
      <trkpt lat="43.5329310" lon="-5.8127310">
        <ele>92.8</ele>
        <time>2021-07-20T13:55:48Z</time>
      </trkpt>
      <trkpt lat="43.5329370" lon="-5.8127490">
        <ele>92.8</ele>
        <time>2021-07-20T13:55:49Z</time>
      </trkpt>
      <trkpt lat="43.5329430" lon="-5.8127850">
        <ele>92.8</ele>
        <time>2021-07-20T13:55:51Z</time>
      </trkpt>
      <trkpt lat="43.5329120" lon="-5.8128650">
        <ele>92.8</ele>
        <time>2021-07-20T13:55:55Z</time>
      </trkpt>
      <trkpt lat="43.5329000" lon="-5.8128910">
        <ele>93.6</ele>
        <time>2021-07-20T13:55:56Z</time>
      </trkpt>
      <trkpt lat="43.5328870" lon="-5.8129210">
        <ele>94.2</ele>
        <time>2021-07-20T13:55:57Z</time>
      </trkpt>
      <trkpt lat="43.5328760" lon="-5.8129540">
        <ele>94.6</ele>
        <time>2021-07-20T13:55:58Z</time>
      </trkpt>
      <trkpt lat="43.5328660" lon="-5.8129920">
        <ele>95.0</ele>
        <time>2021-07-20T13:55:59Z</time>
      </trkpt>
      <trkpt lat="43.5328350" lon="-5.8131080">
        <ele>95.0</ele>
        <time>2021-07-20T13:56:02Z</time>
      </trkpt>
      <trkpt lat="43.5327720" lon="-5.8133240">
        <ele>95.0</ele>
        <time>2021-07-20T13:56:07Z</time>
      </trkpt>
      <trkpt lat="43.5327400" lon="-5.8134200">
        <ele>95.0</ele>
        <time>2021-07-20T13:56:09Z</time>
      </trkpt>
      <trkpt lat="43.5325960" lon="-5.8138400">
        <ele>95.0</ele>
        <time>2021-07-20T13:56:16Z</time>
      </trkpt>
      <trkpt lat="43.5324020" lon="-5.8141700">
        <ele>95.0</ele>
        <time>2021-07-20T13:56:21Z</time>
      </trkpt>
      <trkpt lat="43.5323770" lon="-5.8142420">
        <ele>95.0</ele>
        <time>2021-07-20T13:56:22Z</time>
      </trkpt>
      <trkpt lat="43.5323360" lon="-5.8143880">
        <ele>94.6</ele>
        <time>2021-07-20T13:56:24Z</time>
      </trkpt>
      <trkpt lat="43.5323200" lon="-5.8144610">
        <ele>94.2</ele>
        <time>2021-07-20T13:56:25Z</time>
      </trkpt>
      <trkpt lat="43.5323120" lon="-5.8145310">
        <ele>93.8</ele>
        <time>2021-07-20T13:56:26Z</time>
      </trkpt>
      <trkpt lat="43.5323090" lon="-5.8146010">
        <ele>93.4</ele>
        <time>2021-07-20T13:56:27Z</time>
      </trkpt>
      <trkpt lat="43.5323010" lon="-5.8146750">
        <ele>93.0</ele>
        <time>2021-07-20T13:56:28Z</time>
      </trkpt>
      <trkpt lat="43.5322910" lon="-5.8148720">
        <ele>93.0</ele>
        <time>2021-07-20T13:56:31Z</time>
      </trkpt>
      <trkpt lat="43.5322700" lon="-5.8151180">
        <ele>93.0</ele>
        <time>2021-07-20T13:56:34Z</time>
      </trkpt>
      <trkpt lat="43.5322490" lon="-5.8152070">
        <ele>93.0</ele>
        <time>2021-07-20T13:56:35Z</time>
      </trkpt>
      <trkpt lat="43.5322060" lon="-5.8153770">
        <ele>93.0</ele>
        <time>2021-07-20T13:56:37Z</time>
      </trkpt>
      <trkpt lat="43.5321910" lon="-5.8154560">
        <ele>92.4</ele>
        <time>2021-07-20T13:56:38Z</time>
      </trkpt>
      <trkpt lat="43.5321770" lon="-5.8155310">
        <ele>92.0</ele>
        <time>2021-07-20T13:56:39Z</time>
      </trkpt>
      <trkpt lat="43.5321640" lon="-5.8156050">
        <ele>91.6</ele>
        <time>2021-07-20T13:56:40Z</time>
      </trkpt>
      <trkpt lat="43.5321530" lon="-5.8156740">
        <ele>91.2</ele>
        <time>2021-07-20T13:56:41Z</time>
      </trkpt>
      <trkpt lat="43.5321410" lon="-5.8157400">
        <ele>90.8</ele>
        <time>2021-07-20T13:56:42Z</time>
      </trkpt>
      <trkpt lat="43.5321290" lon="-5.8158770">
        <ele>90.8</ele>
        <time>2021-07-20T13:56:44Z</time>
      </trkpt>
      <trkpt lat="43.5321370" lon="-5.8159560">
        <ele>90.8</ele>
        <time>2021-07-20T13:56:45Z</time>
      </trkpt>
      <trkpt lat="43.5321960" lon="-5.8162130">
        <ele>90.8</ele>
        <time>2021-07-20T13:56:48Z</time>
      </trkpt>
      <trkpt lat="43.5322160" lon="-5.8163050">
        <ele>90.8</ele>
        <time>2021-07-20T13:56:49Z</time>
      </trkpt>
      <trkpt lat="43.5322300" lon="-5.8163990">
        <ele>90.4</ele>
        <time>2021-07-20T13:56:50Z</time>
      </trkpt>
      <trkpt lat="43.5322360" lon="-5.8164990">
        <ele>89.8</ele>
        <time>2021-07-20T13:56:51Z</time>
      </trkpt>
      <trkpt lat="43.5322340" lon="-5.8165900">
        <ele>89.4</ele>
        <time>2021-07-20T13:56:52Z</time>
      </trkpt>
      <trkpt lat="43.5322300" lon="-5.8166790">
        <ele>88.8</ele>
        <time>2021-07-20T13:56:53Z</time>
      </trkpt>
      <trkpt lat="43.5322240" lon="-5.8167660">
        <ele>88.4</ele>
        <time>2021-07-20T13:56:54Z</time>
      </trkpt>
      <trkpt lat="43.5321740" lon="-5.8173820">
        <ele>88.4</ele>
        <time>2021-07-20T13:57:01Z</time>
      </trkpt>
      <trkpt lat="43.5321600" lon="-5.8175540">
        <ele>88.4</ele>
        <time>2021-07-20T13:57:03Z</time>
      </trkpt>
      <trkpt lat="43.5321100" lon="-5.8177960">
        <ele>88.4</ele>
        <time>2021-07-20T13:57:06Z</time>
      </trkpt>
      <trkpt lat="43.5320130" lon="-5.8181830">
        <ele>88.4</ele>
        <time>2021-07-20T13:57:12Z</time>
      </trkpt>
      <trkpt lat="43.5319800" lon="-5.8183590">
        <ele>88.4</ele>
        <time>2021-07-20T13:57:15Z</time>
      </trkpt>
      <trkpt lat="43.5319680" lon="-5.8184740">
        <ele>88.0</ele>
        <time>2021-07-20T13:57:17Z</time>
      </trkpt>
      <trkpt lat="43.5319600" lon="-5.8185310">
        <ele>87.6</ele>
        <time>2021-07-20T13:57:18Z</time>
      </trkpt>
      <trkpt lat="43.5319470" lon="-5.8185920">
        <ele>87.2</ele>
        <time>2021-07-20T13:57:19Z</time>
      </trkpt>
      <trkpt lat="43.5319390" lon="-5.8186610">
        <ele>86.8</ele>
        <time>2021-07-20T13:57:20Z</time>
      </trkpt>
      <trkpt lat="43.5319350" lon="-5.8187360">
        <ele>86.4</ele>
        <time>2021-07-20T13:57:21Z</time>
      </trkpt>
      <trkpt lat="43.5319150" lon="-5.8188850">
        <ele>86.4</ele>
        <time>2021-07-20T13:57:23Z</time>
      </trkpt>
      <trkpt lat="43.5318930" lon="-5.8189710">
        <ele>86.4</ele>
        <time>2021-07-20T13:57:24Z</time>
      </trkpt>
      <trkpt lat="43.5317550" lon="-5.8194230">
        <ele>86.4</ele>
        <time>2021-07-20T13:57:29Z</time>
      </trkpt>
      <trkpt lat="43.5317400" lon="-5.8196160">
        <ele>86.0</ele>
        <time>2021-07-20T13:57:31Z</time>
      </trkpt>
      <trkpt lat="43.5317310" lon="-5.8197100">
        <ele>85.4</ele>
        <time>2021-07-20T13:57:32Z</time>
      </trkpt>
      <trkpt lat="43.5317170" lon="-5.8198030">
        <ele>85.0</ele>
        <time>2021-07-20T13:57:33Z</time>
      </trkpt>
      <trkpt lat="43.5317010" lon="-5.8198970">
        <ele>84.0</ele>
        <time>2021-07-20T13:57:34Z</time>
      </trkpt>
      <trkpt lat="43.5316860" lon="-5.8199950">
        <ele>83.6</ele>
        <time>2021-07-20T13:57:35Z</time>
      </trkpt>
      <trkpt lat="43.5316810" lon="-5.8200980">
        <ele>83.2</ele>
        <time>2021-07-20T13:57:36Z</time>
      </trkpt>
      <trkpt lat="43.5316990" lon="-5.8201980">
        <ele>82.8</ele>
        <time>2021-07-20T13:57:37Z</time>
      </trkpt>
      <trkpt lat="43.5317260" lon="-5.8202900">
        <ele>82.4</ele>
        <time>2021-07-20T13:57:38Z</time>
      </trkpt>
      <trkpt lat="43.5317420" lon="-5.8203820">
        <ele>82.0</ele>
        <time>2021-07-20T13:57:39Z</time>
      </trkpt>
      <trkpt lat="43.5317320" lon="-5.8206480">
        <ele>82.0</ele>
        <time>2021-07-20T13:57:42Z</time>
      </trkpt>
      <trkpt lat="43.5317210" lon="-5.8207400">
        <ele>82.0</ele>
        <time>2021-07-20T13:57:43Z</time>
      </trkpt>
      <trkpt lat="43.5317020" lon="-5.8208210">
        <ele>82.0</ele>
        <time>2021-07-20T13:57:44Z</time>
      </trkpt>
      <trkpt lat="43.5316820" lon="-5.8208940">
        <ele>81.6</ele>
        <time>2021-07-20T13:57:45Z</time>
      </trkpt>
      <trkpt lat="43.5316620" lon="-5.8209640">
        <ele>81.2</ele>
        <time>2021-07-20T13:57:46Z</time>
      </trkpt>
      <trkpt lat="43.5316430" lon="-5.8210320">
        <ele>80.8</ele>
        <time>2021-07-20T13:57:47Z</time>
      </trkpt>
      <trkpt lat="43.5316240" lon="-5.8210980">
        <ele>80.2</ele>
        <time>2021-07-20T13:57:48Z</time>
      </trkpt>
      <trkpt lat="43.5316080" lon="-5.8211620">
        <ele>79.8</ele>
        <time>2021-07-20T13:57:49Z</time>
      </trkpt>
      <trkpt lat="43.5315230" lon="-5.8214550">
        <ele>79.8</ele>
        <time>2021-07-20T13:57:54Z</time>
      </trkpt>
      <trkpt lat="43.5314100" lon="-5.8217670">
        <ele>79.0</ele>
        <time>2021-07-20T13:57:59Z</time>
      </trkpt>
      <trkpt lat="43.5313880" lon="-5.8218390">
        <ele>78.6</ele>
        <time>2021-07-20T13:58:00Z</time>
      </trkpt>
      <trkpt lat="43.5313710" lon="-5.8219090">
        <ele>78.2</ele>
        <time>2021-07-20T13:58:01Z</time>
      </trkpt>
      <trkpt lat="43.5313510" lon="-5.8219840">
        <ele>77.8</ele>
        <time>2021-07-20T13:58:02Z</time>
      </trkpt>
      <trkpt lat="43.5312560" lon="-5.8223000">
        <ele>77.8</ele>
        <time>2021-07-20T13:58:06Z</time>
      </trkpt>
      <trkpt lat="43.5311560" lon="-5.8226650">
        <ele>77.8</ele>
        <time>2021-07-20T13:58:10Z</time>
      </trkpt>
      <trkpt lat="43.5311360" lon="-5.8227670">
        <ele>77.8</ele>
        <time>2021-07-20T13:58:11Z</time>
      </trkpt>
      <trkpt lat="43.5310880" lon="-5.8231940">
        <ele>77.4</ele>
        <time>2021-07-20T13:58:15Z</time>
      </trkpt>
      <trkpt lat="43.5310760" lon="-5.8232890">
        <ele>77.0</ele>
        <time>2021-07-20T13:58:16Z</time>
      </trkpt>
      <trkpt lat="43.5310630" lon="-5.8233780">
        <ele>76.6</ele>
        <time>2021-07-20T13:58:17Z</time>
      </trkpt>
      <trkpt lat="43.5310460" lon="-5.8234680">
        <ele>76.2</ele>
        <time>2021-07-20T13:58:18Z</time>
      </trkpt>
      <trkpt lat="43.5310260" lon="-5.8235530">
        <ele>75.6</ele>
        <time>2021-07-20T13:58:19Z</time>
      </trkpt>
      <trkpt lat="43.5310070" lon="-5.8236410">
        <ele>75.0</ele>
        <time>2021-07-20T13:58:20Z</time>
      </trkpt>
      <trkpt lat="43.5309950" lon="-5.8237230">
        <ele>74.4</ele>
        <time>2021-07-20T13:58:21Z</time>
      </trkpt>
      <trkpt lat="43.5309840" lon="-5.8238020">
        <ele>73.8</ele>
        <time>2021-07-20T13:58:22Z</time>
      </trkpt>
      <trkpt lat="43.5309750" lon="-5.8238800">
        <ele>73.2</ele>
        <time>2021-07-20T13:58:23Z</time>
      </trkpt>
      <trkpt lat="43.5309490" lon="-5.8241690">
        <ele>72.6</ele>
        <time>2021-07-20T13:58:27Z</time>
      </trkpt>
      <trkpt lat="43.5309450" lon="-5.8242330">
        <ele>72.2</ele>
        <time>2021-07-20T13:58:28Z</time>
      </trkpt>
      <trkpt lat="43.5309410" lon="-5.8243000">
        <ele>71.8</ele>
        <time>2021-07-20T13:58:29Z</time>
      </trkpt>
      <trkpt lat="43.5309390" lon="-5.8243700">
        <ele>71.4</ele>
        <time>2021-07-20T13:58:30Z</time>
      </trkpt>
      <trkpt lat="43.5309360" lon="-5.8244370">
        <ele>70.8</ele>
        <time>2021-07-20T13:58:31Z</time>
      </trkpt>
      <trkpt lat="43.5309230" lon="-5.8246990">
        <ele>70.8</ele>
        <time>2021-07-20T13:58:35Z</time>
      </trkpt>
      <trkpt lat="43.5309130" lon="-5.8247580">
        <ele>70.8</ele>
        <time>2021-07-20T13:58:36Z</time>
      </trkpt>
      <trkpt lat="43.5309030" lon="-5.8248780">
        <ele>70.4</ele>
        <time>2021-07-20T13:58:38Z</time>
      </trkpt>
      <trkpt lat="43.5308940" lon="-5.8249420">
        <ele>70.0</ele>
        <time>2021-07-20T13:58:39Z</time>
      </trkpt>
      <trkpt lat="43.5308850" lon="-5.8250050">
        <ele>69.6</ele>
        <time>2021-07-20T13:58:40Z</time>
      </trkpt>
      <trkpt lat="43.5308740" lon="-5.8250710">
        <ele>69.2</ele>
        <time>2021-07-20T13:58:41Z</time>
      </trkpt>
      <trkpt lat="43.5308610" lon="-5.8251430">
        <ele>68.8</ele>
        <time>2021-07-20T13:58:42Z</time>
      </trkpt>
      <trkpt lat="43.5308460" lon="-5.8252070">
        <ele>68.8</ele>
        <time>2021-07-20T13:58:43Z</time>
      </trkpt>
      <trkpt lat="43.5307480" lon="-5.8255560">
        <ele>68.2</ele>
        <time>2021-07-20T13:58:49Z</time>
      </trkpt>
      <trkpt lat="43.5307300" lon="-5.8256030">
        <ele>67.8</ele>
        <time>2021-07-20T13:58:50Z</time>
      </trkpt>
      <trkpt lat="43.5307160" lon="-5.8256480">
        <ele>67.4</ele>
        <time>2021-07-20T13:58:51Z</time>
      </trkpt>
      <trkpt lat="43.5307020" lon="-5.8256960">
        <ele>67.0</ele>
        <time>2021-07-20T13:58:52Z</time>
      </trkpt>
      <trkpt lat="43.5306860" lon="-5.8257520">
        <ele>66.4</ele>
        <time>2021-07-20T13:58:53Z</time>
      </trkpt>
      <trkpt lat="43.5306300" lon="-5.8259610">
        <ele>66.0</ele>
        <time>2021-07-20T13:58:56Z</time>
      </trkpt>
      <trkpt lat="43.5306130" lon="-5.8260300">
        <ele>65.6</ele>
        <time>2021-07-20T13:58:57Z</time>
      </trkpt>
      <trkpt lat="43.5305970" lon="-5.8261010">
        <ele>65.2</ele>
        <time>2021-07-20T13:58:58Z</time>
      </trkpt>
      <trkpt lat="43.5305870" lon="-5.8261720">
        <ele>64.8</ele>
        <time>2021-07-20T13:58:59Z</time>
      </trkpt>
      <trkpt lat="43.5305810" lon="-5.8262440">
        <ele>64.2</ele>
        <time>2021-07-20T13:59:00Z</time>
      </trkpt>
      <trkpt lat="43.5305810" lon="-5.8263180">
        <ele>63.6</ele>
        <time>2021-07-20T13:59:01Z</time>
      </trkpt>
      <trkpt lat="43.5305840" lon="-5.8263950">
        <ele>63.0</ele>
        <time>2021-07-20T13:59:02Z</time>
      </trkpt>
      <trkpt lat="43.5305950" lon="-5.8264700">
        <ele>62.4</ele>
        <time>2021-07-20T13:59:03Z</time>
      </trkpt>
      <trkpt lat="43.5306100" lon="-5.8265440">
        <ele>61.6</ele>
        <time>2021-07-20T13:59:04Z</time>
      </trkpt>
      <trkpt lat="43.5306230" lon="-5.8266230">
        <ele>61.0</ele>
        <time>2021-07-20T13:59:05Z</time>
      </trkpt>
      <trkpt lat="43.5306390" lon="-5.8267090">
        <ele>60.2</ele>
        <time>2021-07-20T13:59:06Z</time>
      </trkpt>
      <trkpt lat="43.5306540" lon="-5.8267840">
        <ele>59.6</ele>
        <time>2021-07-20T13:59:07Z</time>
      </trkpt>
      <trkpt lat="43.5306710" lon="-5.8268610">
        <ele>59.0</ele>
        <time>2021-07-20T13:59:08Z</time>
      </trkpt>
      <trkpt lat="43.5306860" lon="-5.8269430">
        <ele>58.4</ele>
        <time>2021-07-20T13:59:09Z</time>
      </trkpt>
      <trkpt lat="43.5306980" lon="-5.8270220">
        <ele>57.8</ele>
        <time>2021-07-20T13:59:10Z</time>
      </trkpt>
      <trkpt lat="43.5307160" lon="-5.8270990">
        <ele>57.0</ele>
        <time>2021-07-20T13:59:11Z</time>
      </trkpt>
      <trkpt lat="43.5307260" lon="-5.8271730">
        <ele>55.6</ele>
        <time>2021-07-20T13:59:12Z</time>
      </trkpt>
      <trkpt lat="43.5307380" lon="-5.8272490">
        <ele>54.8</ele>
        <time>2021-07-20T13:59:13Z</time>
      </trkpt>
      <trkpt lat="43.5307500" lon="-5.8273280">
        <ele>54.0</ele>
        <time>2021-07-20T13:59:14Z</time>
      </trkpt>
      <trkpt lat="43.5307740" lon="-5.8274090">
        <ele>53.4</ele>
        <time>2021-07-20T13:59:15Z</time>
      </trkpt>
      <trkpt lat="43.5308010" lon="-5.8274990">
        <ele>52.6</ele>
        <time>2021-07-20T13:59:16Z</time>
      </trkpt>
      <trkpt lat="43.5308340" lon="-5.8275720">
        <ele>52.0</ele>
        <time>2021-07-20T13:59:17Z</time>
      </trkpt>
      <trkpt lat="43.5308740" lon="-5.8276380">
        <ele>51.4</ele>
        <time>2021-07-20T13:59:18Z</time>
      </trkpt>
      <trkpt lat="43.5309030" lon="-5.8277110">
        <ele>50.6</ele>
        <time>2021-07-20T13:59:19Z</time>
      </trkpt>
      <trkpt lat="43.5309300" lon="-5.8277960">
        <ele>50.0</ele>
        <time>2021-07-20T13:59:20Z</time>
      </trkpt>
      <trkpt lat="43.5309600" lon="-5.8278830">
        <ele>49.2</ele>
        <time>2021-07-20T13:59:21Z</time>
      </trkpt>
      <trkpt lat="43.5309930" lon="-5.8279670">
        <ele>48.6</ele>
        <time>2021-07-20T13:59:22Z</time>
      </trkpt>
      <trkpt lat="43.5310260" lon="-5.8280410">
        <ele>47.8</ele>
        <time>2021-07-20T13:59:23Z</time>
      </trkpt>
      <trkpt lat="43.5310510" lon="-5.8281010">
        <ele>47.2</ele>
        <time>2021-07-20T13:59:24Z</time>
      </trkpt>
      <trkpt lat="43.5310760" lon="-5.8281440">
        <ele>46.6</ele>
        <time>2021-07-20T13:59:25Z</time>
      </trkpt>
      <trkpt lat="43.5311070" lon="-5.8281790">
        <ele>46.0</ele>
        <time>2021-07-20T13:59:26Z</time>
      </trkpt>
      <trkpt lat="43.5311370" lon="-5.8282080">
        <ele>45.2</ele>
        <time>2021-07-20T13:59:27Z</time>
      </trkpt>
      <trkpt lat="43.5311730" lon="-5.8282360">
        <ele>44.6</ele>
        <time>2021-07-20T13:59:28Z</time>
      </trkpt>
      <trkpt lat="43.5312180" lon="-5.8282650">
        <ele>44.2</ele>
        <time>2021-07-20T13:59:29Z</time>
      </trkpt>
      <trkpt lat="43.5312630" lon="-5.8282940">
        <ele>43.6</ele>
        <time>2021-07-20T13:59:30Z</time>
      </trkpt>
      <trkpt lat="43.5313070" lon="-5.8283200">
        <ele>43.0</ele>
        <time>2021-07-20T13:59:31Z</time>
      </trkpt>
      <trkpt lat="43.5313420" lon="-5.8283440">
        <ele>42.4</ele>
        <time>2021-07-20T13:59:32Z</time>
      </trkpt>
      <trkpt lat="43.5314010" lon="-5.8283840">
        <ele>42.0</ele>
        <time>2021-07-20T13:59:34Z</time>
      </trkpt>
      <trkpt lat="43.5314170" lon="-5.8284080">
        <ele>41.6</ele>
        <time>2021-07-20T13:59:35Z</time>
      </trkpt>
      <trkpt lat="43.5314230" lon="-5.8284350">
        <ele>41.0</ele>
        <time>2021-07-20T13:59:36Z</time>
      </trkpt>
      <trkpt lat="43.5314240" lon="-5.8284610">
        <ele>40.2</ele>
        <time>2021-07-20T13:59:37Z</time>
      </trkpt>
      <trkpt lat="43.5314020" lon="-5.8285460">
        <ele>40.2</ele>
        <time>2021-07-20T13:59:40Z</time>
      </trkpt>
      <trkpt lat="43.5313890" lon="-5.8285680">
        <ele>40.2</ele>
        <time>2021-07-20T13:59:41Z</time>
      </trkpt>
      <trkpt lat="43.5313760" lon="-5.8285900">
        <ele>39.8</ele>
        <time>2021-07-20T13:59:42Z</time>
      </trkpt>
      <trkpt lat="43.5313620" lon="-5.8286120">
        <ele>39.4</ele>
        <time>2021-07-20T13:59:43Z</time>
      </trkpt>
      <trkpt lat="43.5313490" lon="-5.8286340">
        <ele>39.0</ele>
        <time>2021-07-20T13:59:44Z</time>
      </trkpt>
      <trkpt lat="43.5313360" lon="-5.8286560">
        <ele>38.6</ele>
        <time>2021-07-20T13:59:45Z</time>
      </trkpt>
      <trkpt lat="43.5312630" lon="-5.8287520">
        <ele>38.2</ele>
        <time>2021-07-20T13:59:46Z</time>
      </trkpt>
      <trkpt lat="43.5312080" lon="-5.8288210">
        <ele>37.6</ele>
        <time>2021-07-20T13:59:47Z</time>
      </trkpt>
      <trkpt lat="43.5311560" lon="-5.8288910">
        <ele>37.2</ele>
        <time>2021-07-20T13:59:48Z</time>
      </trkpt>
      <trkpt lat="43.5310990" lon="-5.8289580">
        <ele>36.8</ele>
        <time>2021-07-20T13:59:49Z</time>
      </trkpt>
      <trkpt lat="43.5310390" lon="-5.8290280">
        <ele>36.4</ele>
        <time>2021-07-20T13:59:50Z</time>
      </trkpt>
      <trkpt lat="43.5309840" lon="-5.8290970">
        <ele>36.0</ele>
        <time>2021-07-20T13:59:51Z</time>
      </trkpt>
      <trkpt lat="43.5309260" lon="-5.8291600">
        <ele>35.6</ele>
        <time>2021-07-20T13:59:52Z</time>
      </trkpt>
      <trkpt lat="43.5308800" lon="-5.8292130">
        <ele>35.2</ele>
        <time>2021-07-20T13:59:53Z</time>
      </trkpt>
      <trkpt lat="43.5308440" lon="-5.8292730">
        <ele>34.8</ele>
        <time>2021-07-20T13:59:54Z</time>
      </trkpt>
      <trkpt lat="43.5308250" lon="-5.8293380">
        <ele>34.2</ele>
        <time>2021-07-20T13:59:55Z</time>
      </trkpt>
      <trkpt lat="43.5308150" lon="-5.8293980">
        <ele>33.8</ele>
        <time>2021-07-20T13:59:56Z</time>
      </trkpt>
      <trkpt lat="43.5308170" lon="-5.8295090">
        <ele>33.8</ele>
        <time>2021-07-20T13:59:58Z</time>
      </trkpt>
      <trkpt lat="43.5308270" lon="-5.8296070">
        <ele>33.8</ele>
        <time>2021-07-20T14:00:00Z</time>
      </trkpt>
      <trkpt lat="43.5308350" lon="-5.8296470">
        <ele>33.8</ele>
        <time>2021-07-20T14:00:01Z</time>
      </trkpt>
      <trkpt lat="43.5308470" lon="-5.8297090">
        <ele>33.8</ele>
        <time>2021-07-20T14:00:03Z</time>
      </trkpt>
      <trkpt lat="43.5308420" lon="-5.8297650">
        <ele>33.8</ele>
        <time>2021-07-20T14:00:05Z</time>
      </trkpt>
      <trkpt lat="43.5308420" lon="-5.8298250">
        <ele>33.8</ele>
        <time>2021-07-20T14:00:07Z</time>
      </trkpt>
      <trkpt lat="43.5308360" lon="-5.8298820">
        <ele>34.4</ele>
        <time>2021-07-20T14:00:09Z</time>
      </trkpt>
      <trkpt lat="43.5308340" lon="-5.8299090">
        <ele>34.8</ele>
        <time>2021-07-20T14:00:10Z</time>
      </trkpt>
      <trkpt lat="43.5308320" lon="-5.8299320">
        <ele>35.2</ele>
        <time>2021-07-20T14:00:11Z</time>
      </trkpt>
      <trkpt lat="43.5308290" lon="-5.8299560">
        <ele>35.6</ele>
        <time>2021-07-20T14:00:12Z</time>
      </trkpt>
      <trkpt lat="43.5308280" lon="-5.8299780">
        <ele>36.0</ele>
        <time>2021-07-20T14:00:13Z</time>
      </trkpt>
      <trkpt lat="43.5308200" lon="-5.8300460">
        <ele>36.0</ele>
        <time>2021-07-20T14:00:16Z</time>
      </trkpt>
      <trkpt lat="43.5308140" lon="-5.8301110">
        <ele>36.0</ele>
        <time>2021-07-20T14:00:19Z</time>
      </trkpt>
      <trkpt lat="43.5308120" lon="-5.8301290">
        <ele>36.0</ele>
        <time>2021-07-20T14:00:20Z</time>
      </trkpt>
      <trkpt lat="43.5308100" lon="-5.8301480">
        <ele>36.4</ele>
        <time>2021-07-20T14:00:21Z</time>
      </trkpt>
      <trkpt lat="43.5308050" lon="-5.8301640">
        <ele>36.8</ele>
        <time>2021-07-20T14:00:22Z</time>
      </trkpt>
      <trkpt lat="43.5307990" lon="-5.8301740">
        <ele>37.4</ele>
        <time>2021-07-20T14:00:23Z</time>
      </trkpt>
      <trkpt lat="43.5307960" lon="-5.8301870">
        <ele>37.8</ele>
        <time>2021-07-20T14:00:24Z</time>
      </trkpt>
      <trkpt lat="43.5307910" lon="-5.8302060">
        <ele>38.2</ele>
        <time>2021-07-20T14:00:25Z</time>
      </trkpt>
      <trkpt lat="43.5307840" lon="-5.8302410">
        <ele>38.2</ele>
        <time>2021-07-20T14:00:27Z</time>
      </trkpt>
      <trkpt lat="43.5307790" lon="-5.8302600">
        <ele>38.2</ele>
        <time>2021-07-20T14:00:31Z</time>
      </trkpt>
      <trkpt lat="43.5307840" lon="-5.8303670">
        <ele>38.2</ele>
        <time>2021-07-20T14:00:58Z</time>
      </trkpt>
      <trkpt lat="43.5307920" lon="-5.8303930">
        <ele>38.2</ele>
        <time>2021-07-20T14:00:59Z</time>
      </trkpt>
      <trkpt lat="43.5308380" lon="-5.8305510">
        <ele>38.2</ele>
        <time>2021-07-20T14:01:04Z</time>
      </trkpt>
      <trkpt lat="43.5308790" lon="-5.8306640">
        <ele>38.2</ele>
        <time>2021-07-20T14:01:07Z</time>
      </trkpt>
      <trkpt lat="43.5309170" lon="-5.8307370">
        <ele>38.2</ele>
        <time>2021-07-20T14:01:09Z</time>
      </trkpt>
      <trkpt lat="43.5309610" lon="-5.8308120">
        <ele>38.2</ele>
        <time>2021-07-20T14:01:11Z</time>
      </trkpt>
      <trkpt lat="43.5311550" lon="-5.8310610">
        <ele>38.2</ele>
        <time>2021-07-20T14:01:17Z</time>
      </trkpt>
      <trkpt lat="43.5313580" lon="-5.8312890">
        <ele>38.2</ele>
        <time>2021-07-20T14:01:22Z</time>
      </trkpt>
      <trkpt lat="43.5314040" lon="-5.8313350">
        <ele>38.2</ele>
        <time>2021-07-20T14:01:23Z</time>
      </trkpt>
      <trkpt lat="43.5314480" lon="-5.8313770">
        <ele>38.2</ele>
        <time>2021-07-20T14:01:24Z</time>
      </trkpt>
      <trkpt lat="43.5315300" lon="-5.8314680">
        <ele>38.2</ele>
        <time>2021-07-20T14:01:26Z</time>
      </trkpt>
      <trkpt lat="43.5317210" lon="-5.8316820">
        <ele>38.2</ele>
        <time>2021-07-20T14:01:31Z</time>
      </trkpt>
      <trkpt lat="43.5318610" lon="-5.8318360">
        <ele>37.8</ele>
        <time>2021-07-20T14:01:35Z</time>
      </trkpt>
      <trkpt lat="43.5318930" lon="-5.8318710">
        <ele>37.4</ele>
        <time>2021-07-20T14:01:36Z</time>
      </trkpt>
      <trkpt lat="43.5319260" lon="-5.8319060">
        <ele>37.0</ele>
        <time>2021-07-20T14:01:37Z</time>
      </trkpt>
      <trkpt lat="43.5319610" lon="-5.8319420">
        <ele>36.6</ele>
        <time>2021-07-20T14:01:38Z</time>
      </trkpt>
      <trkpt lat="43.5319950" lon="-5.8319720">
        <ele>36.2</ele>
        <time>2021-07-20T14:01:39Z</time>
      </trkpt>
      <trkpt lat="43.5320260" lon="-5.8320060">
        <ele>36.2</ele>
        <time>2021-07-20T14:01:40Z</time>
      </trkpt>
      <trkpt lat="43.5322890" lon="-5.8321990">
        <ele>36.2</ele>
        <time>2021-07-20T14:01:47Z</time>
      </trkpt>
      <trkpt lat="43.5323700" lon="-5.8322520">
        <ele>36.2</ele>
        <time>2021-07-20T14:01:49Z</time>
      </trkpt>
      <trkpt lat="43.5325110" lon="-5.8323660">
        <ele>36.2</ele>
        <time>2021-07-20T14:01:53Z</time>
      </trkpt>
      <trkpt lat="43.5326030" lon="-5.8324390">
        <ele>35.6</ele>
        <time>2021-07-20T14:01:56Z</time>
      </trkpt>
      <trkpt lat="43.5326310" lon="-5.8324630">
        <ele>35.2</ele>
        <time>2021-07-20T14:01:57Z</time>
      </trkpt>
      <trkpt lat="43.5326600" lon="-5.8324810">
        <ele>34.8</ele>
        <time>2021-07-20T14:01:58Z</time>
      </trkpt>
      <trkpt lat="43.5326900" lon="-5.8324980">
        <ele>34.4</ele>
        <time>2021-07-20T14:01:59Z</time>
      </trkpt>
      <trkpt lat="43.5327180" lon="-5.8325160">
        <ele>34.0</ele>
        <time>2021-07-20T14:02:00Z</time>
      </trkpt>
      <trkpt lat="43.5328540" lon="-5.8325600">
        <ele>34.0</ele>
        <time>2021-07-20T14:02:06Z</time>
      </trkpt>
      <trkpt lat="43.5328660" lon="-5.8325900">
        <ele>34.0</ele>
        <time>2021-07-20T14:02:09Z</time>
      </trkpt>
      <trkpt lat="43.5328560" lon="-5.8326540">
        <ele>34.0</ele>
        <time>2021-07-20T14:02:20Z</time>
      </trkpt>
      <trkpt lat="43.5328260" lon="-5.8327120">
        <ele>34.0</ele>
        <time>2021-07-20T14:02:22Z</time>
      </trkpt>
      <trkpt lat="43.5327700" lon="-5.8328150">
        <ele>34.0</ele>
        <time>2021-07-20T14:02:25Z</time>
      </trkpt>
      <trkpt lat="43.5327250" lon="-5.8328650">
        <ele>34.0</ele>
        <time>2021-07-20T14:02:27Z</time>
      </trkpt>
      <trkpt lat="43.5326690" lon="-5.8329370">
        <ele>34.0</ele>
        <time>2021-07-20T14:02:31Z</time>
      </trkpt>
      <trkpt lat="43.5326590" lon="-5.8329440">
        <ele>34.0</ele>
        <time>2021-07-20T14:02:35Z</time>
      </trkpt>
      <trkpt lat="43.5326860" lon="-5.8328980">
        <ele>34.0</ele>
        <time>2021-07-20T14:02:40Z</time>
      </trkpt>
      <trkpt lat="43.5327860" lon="-5.8328180">
        <ele>34.0</ele>
        <time>2021-07-20T14:02:44Z</time>
      </trkpt>
      <trkpt lat="43.5328090" lon="-5.8327970">
        <ele>34.0</ele>
        <time>2021-07-20T14:02:45Z</time>
      </trkpt>
      <trkpt lat="43.5329670" lon="-5.8327810">
        <ele>34.0</ele>
        <time>2021-07-20T14:02:50Z</time>
      </trkpt>
      <trkpt lat="43.5331700" lon="-5.8328920">
        <ele>34.0</ele>
        <time>2021-07-20T14:02:56Z</time>
      </trkpt>
      <trkpt lat="43.5332360" lon="-5.8329190">
        <ele>34.0</ele>
        <time>2021-07-20T14:02:58Z</time>
      </trkpt>
      <trkpt lat="43.5333720" lon="-5.8329680">
        <ele>34.0</ele>
        <time>2021-07-20T14:03:02Z</time>
      </trkpt>
      <trkpt lat="43.5334070" lon="-5.8329790">
        <ele>34.4</ele>
        <time>2021-07-20T14:03:03Z</time>
      </trkpt>
      <trkpt lat="43.5334410" lon="-5.8329890">
        <ele>34.8</ele>
        <time>2021-07-20T14:03:04Z</time>
      </trkpt>
      <trkpt lat="43.5334750" lon="-5.8330010">
        <ele>35.2</ele>
        <time>2021-07-20T14:03:05Z</time>
      </trkpt>
      <trkpt lat="43.5335100" lon="-5.8330130">
        <ele>35.6</ele>
        <time>2021-07-20T14:03:06Z</time>
      </trkpt>
      <trkpt lat="43.5335450" lon="-5.8330210">
        <ele>36.2</ele>
        <time>2021-07-20T14:03:07Z</time>
      </trkpt>
      <trkpt lat="43.5337320" lon="-5.8330650">
        <ele>36.2</ele>
        <time>2021-07-20T14:03:13Z</time>
      </trkpt>
      <trkpt lat="43.5339570" lon="-5.8331110">
        <ele>36.2</ele>
        <time>2021-07-20T14:03:20Z</time>
      </trkpt>
      <trkpt lat="43.5340590" lon="-5.8330980">
        <ele>36.2</ele>
        <time>2021-07-20T14:03:24Z</time>
      </trkpt>
      <trkpt lat="43.5340780" lon="-5.8330910">
        <ele>36.2</ele>
        <time>2021-07-20T14:03:25Z</time>
      </trkpt>
      <trkpt lat="43.5342490" lon="-5.8330780">
        <ele>36.2</ele>
        <time>2021-07-20T14:03:30Z</time>
      </trkpt>
      <trkpt lat="43.5346260" lon="-5.8330460">
        <ele>36.2</ele>
        <time>2021-07-20T14:03:40Z</time>
      </trkpt>
      <trkpt lat="43.5348000" lon="-5.8330760">
        <ele>36.2</ele>
        <time>2021-07-20T14:03:46Z</time>
      </trkpt>
      <trkpt lat="43.5347930" lon="-5.8330790">
        <ele>36.2</ele>
        <time>2021-07-20T14:03:47Z</time>
      </trkpt>
      <trkpt lat="43.5348100" lon="-5.8330210">
        <ele>36.2</ele>
        <time>2021-07-20T14:03:52Z</time>
      </trkpt>
      <trkpt lat="43.5348090" lon="-5.8329980">
        <ele>36.2</ele>
        <time>2021-07-20T14:03:53Z</time>
      </trkpt>
      <trkpt lat="43.5348100" lon="-5.8329020">
        <ele>36.2</ele>
        <time>2021-07-20T14:03:57Z</time>
      </trkpt>
      <trkpt lat="43.5348300" lon="-5.8328580">
        <ele>36.2</ele>
        <time>2021-07-20T14:03:59Z</time>
      </trkpt>
      <trkpt lat="43.5348620" lon="-5.8327980">
        <ele>36.2</ele>
        <time>2021-07-20T14:04:02Z</time>
      </trkpt>
      <trkpt lat="43.5349160" lon="-5.8326880">
        <ele>36.2</ele>
        <time>2021-07-20T14:04:06Z</time>
      </trkpt>
      <trkpt lat="43.5349300" lon="-5.8326430">
        <ele>36.2</ele>
        <time>2021-07-20T14:04:07Z</time>
      </trkpt>
      <trkpt lat="43.5350630" lon="-5.8324670">
        <ele>36.2</ele>
        <time>2021-07-20T14:04:12Z</time>
      </trkpt>
      <trkpt lat="43.5353270" lon="-5.8323270">
        <ele>36.2</ele>
        <time>2021-07-20T14:04:19Z</time>
      </trkpt>
      <trkpt lat="43.5354870" lon="-5.8322010">
        <ele>36.2</ele>
        <time>2021-07-20T14:04:24Z</time>
      </trkpt>
      <trkpt lat="43.5355490" lon="-5.8321250">
        <ele>35.6</ele>
        <time>2021-07-20T14:04:26Z</time>
      </trkpt>
      <trkpt lat="43.5355680" lon="-5.8320830">
        <ele>35.2</ele>
        <time>2021-07-20T14:04:27Z</time>
      </trkpt>
      <trkpt lat="43.5355870" lon="-5.8320400">
        <ele>34.8</ele>
        <time>2021-07-20T14:04:28Z</time>
      </trkpt>
      <trkpt lat="43.5356060" lon="-5.8319930">
        <ele>34.4</ele>
        <time>2021-07-20T14:04:29Z</time>
      </trkpt>
      <trkpt lat="43.5356210" lon="-5.8319490">
        <ele>34.0</ele>
        <time>2021-07-20T14:04:30Z</time>
      </trkpt>
      <trkpt lat="43.5356370" lon="-5.8318970">
        <ele>34.0</ele>
        <time>2021-07-20T14:04:31Z</time>
      </trkpt>
      <trkpt lat="43.5356560" lon="-5.8318500">
        <ele>34.0</ele>
        <time>2021-07-20T14:04:32Z</time>
      </trkpt>
      <trkpt lat="43.5357840" lon="-5.8316660">
        <ele>34.0</ele>
        <time>2021-07-20T14:04:37Z</time>
      </trkpt>
      <trkpt lat="43.5358780" lon="-5.8315980">
        <ele>34.0</ele>
        <time>2021-07-20T14:04:40Z</time>
      </trkpt>
      <trkpt lat="43.5359870" lon="-5.8315360">
        <ele>34.0</ele>
        <time>2021-07-20T14:04:43Z</time>
      </trkpt>
      <trkpt lat="43.5360290" lon="-5.8315240">
        <ele>34.0</ele>
        <time>2021-07-20T14:04:44Z</time>
      </trkpt>
      <trkpt lat="43.5361990" lon="-5.8315180">
        <ele>34.0</ele>
        <time>2021-07-20T14:04:48Z</time>
      </trkpt>
      <trkpt lat="43.5362370" lon="-5.8315240">
        <ele>34.0</ele>
        <time>2021-07-20T14:04:49Z</time>
      </trkpt>
      <trkpt lat="43.5364000" lon="-5.8316180">
        <ele>34.0</ele>
        <time>2021-07-20T14:04:54Z</time>
      </trkpt>
      <trkpt lat="43.5365070" lon="-5.8317500">
        <ele>34.0</ele>
        <time>2021-07-20T14:04:59Z</time>
      </trkpt>
      <trkpt lat="43.5365820" lon="-5.8318810">
        <ele>34.0</ele>
        <time>2021-07-20T14:05:02Z</time>
      </trkpt>
      <trkpt lat="43.5366170" lon="-5.8319760">
        <ele>34.0</ele>
        <time>2021-07-20T14:05:04Z</time>
      </trkpt>
      <trkpt lat="43.5366430" lon="-5.8320750">
        <ele>34.0</ele>
        <time>2021-07-20T14:05:06Z</time>
      </trkpt>
      <trkpt lat="43.5366620" lon="-5.8322320">
        <ele>34.0</ele>
        <time>2021-07-20T14:05:09Z</time>
      </trkpt>
      <trkpt lat="43.5366650" lon="-5.8323340">
        <ele>34.0</ele>
        <time>2021-07-20T14:05:11Z</time>
      </trkpt>
      <trkpt lat="43.5366690" lon="-5.8324920">
        <ele>34.0</ele>
        <time>2021-07-20T14:05:14Z</time>
      </trkpt>
      <trkpt lat="43.5366980" lon="-5.8326940">
        <ele>34.0</ele>
        <time>2021-07-20T14:05:18Z</time>
      </trkpt>
      <trkpt lat="43.5367100" lon="-5.8327410">
        <ele>34.0</ele>
        <time>2021-07-20T14:05:19Z</time>
      </trkpt>
      <trkpt lat="43.5367930" lon="-5.8329560">
        <ele>34.0</ele>
        <time>2021-07-20T14:05:24Z</time>
      </trkpt>
      <trkpt lat="43.5368600" lon="-5.8330760">
        <ele>34.0</ele>
        <time>2021-07-20T14:05:27Z</time>
      </trkpt>
      <trkpt lat="43.5369920" lon="-5.8333150">
        <ele>34.0</ele>
        <time>2021-07-20T14:05:33Z</time>
      </trkpt>
      <trkpt lat="43.5370450" lon="-5.8333860">
        <ele>34.0</ele>
        <time>2021-07-20T14:05:35Z</time>
      </trkpt>
      <trkpt lat="43.5371480" lon="-5.8335420">
        <ele>34.4</ele>
        <time>2021-07-20T14:05:39Z</time>
      </trkpt>
      <trkpt lat="43.5371720" lon="-5.8335810">
        <ele>34.8</ele>
        <time>2021-07-20T14:05:40Z</time>
      </trkpt>
      <trkpt lat="43.5371950" lon="-5.8336210">
        <ele>35.2</ele>
        <time>2021-07-20T14:05:41Z</time>
      </trkpt>
      <trkpt lat="43.5372170" lon="-5.8336600">
        <ele>35.6</ele>
        <time>2021-07-20T14:05:42Z</time>
      </trkpt>
      <trkpt lat="43.5372420" lon="-5.8336990">
        <ele>36.0</ele>
        <time>2021-07-20T14:05:43Z</time>
      </trkpt>
      <trkpt lat="43.5374230" lon="-5.8339910">
        <ele>36.0</ele>
        <time>2021-07-20T14:05:50Z</time>
      </trkpt>
      <trkpt lat="43.5375380" lon="-5.8341690">
        <ele>36.0</ele>
        <time>2021-07-20T14:05:54Z</time>
      </trkpt>
      <trkpt lat="43.5375950" lon="-5.8342620">
        <ele>36.0</ele>
        <time>2021-07-20T14:05:56Z</time>
      </trkpt>
      <trkpt lat="43.5377680" lon="-5.8345400">
        <ele>36.0</ele>
        <time>2021-07-20T14:06:02Z</time>
      </trkpt>
      <trkpt lat="43.5377940" lon="-5.8345850">
        <ele>36.0</ele>
        <time>2021-07-20T14:06:03Z</time>
      </trkpt>
      <trkpt lat="43.5379200" lon="-5.8347650">
        <ele>36.0</ele>
        <time>2021-07-20T14:06:07Z</time>
      </trkpt>
      <trkpt lat="43.5380260" lon="-5.8349030">
        <ele>36.0</ele>
        <time>2021-07-20T14:06:10Z</time>
      </trkpt>
      <trkpt lat="43.5381350" lon="-5.8350460">
        <ele>36.0</ele>
        <time>2021-07-20T14:06:13Z</time>
      </trkpt>
      <trkpt lat="43.5382040" lon="-5.8351370">
        <ele>36.0</ele>
        <time>2021-07-20T14:06:15Z</time>
      </trkpt>
      <trkpt lat="43.5382740" lon="-5.8352290">
        <ele>36.0</ele>
        <time>2021-07-20T14:06:17Z</time>
      </trkpt>
      <trkpt lat="43.5384840" lon="-5.8354850">
        <ele>36.0</ele>
        <time>2021-07-20T14:06:23Z</time>
      </trkpt>
      <trkpt lat="43.5385980" lon="-5.8356250">
        <ele>36.0</ele>
        <time>2021-07-20T14:06:26Z</time>
      </trkpt>
      <trkpt lat="43.5388210" lon="-5.8358840">
        <ele>36.0</ele>
        <time>2021-07-20T14:06:32Z</time>
      </trkpt>
      <trkpt lat="43.5388890" lon="-5.8359630">
        <ele>36.0</ele>
        <time>2021-07-20T14:06:34Z</time>
      </trkpt>
      <trkpt lat="43.5389530" lon="-5.8360370">
        <ele>36.0</ele>
        <time>2021-07-20T14:06:36Z</time>
      </trkpt>
      <trkpt lat="43.5390690" lon="-5.8361870">
        <ele>35.6</ele>
        <time>2021-07-20T14:06:40Z</time>
      </trkpt>
      <trkpt lat="43.5390990" lon="-5.8362230">
        <ele>35.2</ele>
        <time>2021-07-20T14:06:41Z</time>
      </trkpt>
      <trkpt lat="43.5391300" lon="-5.8362600">
        <ele>34.8</ele>
        <time>2021-07-20T14:06:42Z</time>
      </trkpt>
      <trkpt lat="43.5391620" lon="-5.8362990">
        <ele>34.4</ele>
        <time>2021-07-20T14:06:43Z</time>
      </trkpt>
      <trkpt lat="43.5391970" lon="-5.8363370">
        <ele>34.0</ele>
        <time>2021-07-20T14:06:44Z</time>
      </trkpt>
      <trkpt lat="43.5393110" lon="-5.8364630">
        <ele>34.0</ele>
        <time>2021-07-20T14:06:47Z</time>
      </trkpt>
      <trkpt lat="43.5394410" lon="-5.8366300">
        <ele>34.0</ele>
        <time>2021-07-20T14:06:51Z</time>
      </trkpt>
      <trkpt lat="43.5396870" lon="-5.8369300">
        <ele>34.0</ele>
        <time>2021-07-20T14:06:59Z</time>
      </trkpt>
      <trkpt lat="43.5399230" lon="-5.8372520">
        <ele>33.6</ele>
        <time>2021-07-20T14:07:06Z</time>
      </trkpt>
      <trkpt lat="43.5399560" lon="-5.8372980">
        <ele>33.2</ele>
        <time>2021-07-20T14:07:07Z</time>
      </trkpt>
      <trkpt lat="43.5399900" lon="-5.8373450">
        <ele>32.8</ele>
        <time>2021-07-20T14:07:08Z</time>
      </trkpt>
      <trkpt lat="43.5400250" lon="-5.8373930">
        <ele>32.2</ele>
        <time>2021-07-20T14:07:09Z</time>
      </trkpt>
      <trkpt lat="43.5400580" lon="-5.8374380">
        <ele>31.8</ele>
        <time>2021-07-20T14:07:10Z</time>
      </trkpt>
      <trkpt lat="43.5402490" lon="-5.8376950">
        <ele>31.8</ele>
        <time>2021-07-20T14:07:16Z</time>
      </trkpt>
      <trkpt lat="43.5403870" lon="-5.8378830">
        <ele>31.8</ele>
        <time>2021-07-20T14:07:20Z</time>
      </trkpt>
      <trkpt lat="43.5404590" lon="-5.8379820">
        <ele>31.8</ele>
        <time>2021-07-20T14:07:22Z</time>
      </trkpt>
      <trkpt lat="43.5407010" lon="-5.8383210">
        <ele>31.4</ele>
        <time>2021-07-20T14:07:29Z</time>
      </trkpt>
      <trkpt lat="43.5407360" lon="-5.8383720">
        <ele>31.0</ele>
        <time>2021-07-20T14:07:30Z</time>
      </trkpt>
      <trkpt lat="43.5407700" lon="-5.8384200">
        <ele>30.4</ele>
        <time>2021-07-20T14:07:31Z</time>
      </trkpt>
      <trkpt lat="43.5408040" lon="-5.8384690">
        <ele>30.0</ele>
        <time>2021-07-20T14:07:32Z</time>
      </trkpt>
      <trkpt lat="43.5408380" lon="-5.8385170">
        <ele>29.6</ele>
        <time>2021-07-20T14:07:33Z</time>
      </trkpt>
      <trkpt lat="43.5409690" lon="-5.8387140">
        <ele>29.6</ele>
        <time>2021-07-20T14:07:37Z</time>
      </trkpt>
      <trkpt lat="43.5410730" lon="-5.8388610">
        <ele>29.6</ele>
        <time>2021-07-20T14:07:40Z</time>
      </trkpt>
      <trkpt lat="43.5411440" lon="-5.8389650">
        <ele>29.6</ele>
        <time>2021-07-20T14:07:42Z</time>
      </trkpt>
      <trkpt lat="43.5412530" lon="-5.8391340">
        <ele>29.6</ele>
        <time>2021-07-20T14:07:45Z</time>
      </trkpt>
      <trkpt lat="43.5414280" lon="-5.8394020">
        <ele>29.2</ele>
        <time>2021-07-20T14:07:50Z</time>
      </trkpt>
      <trkpt lat="43.5414610" lon="-5.8394550">
        <ele>28.8</ele>
        <time>2021-07-20T14:07:51Z</time>
      </trkpt>
      <trkpt lat="43.5414950" lon="-5.8395090">
        <ele>28.4</ele>
        <time>2021-07-20T14:07:52Z</time>
      </trkpt>
      <trkpt lat="43.5415280" lon="-5.8395610">
        <ele>28.0</ele>
        <time>2021-07-20T14:07:53Z</time>
      </trkpt>
      <trkpt lat="43.5415630" lon="-5.8396150">
        <ele>27.6</ele>
        <time>2021-07-20T14:07:54Z</time>
      </trkpt>
      <trkpt lat="43.5417510" lon="-5.8399300">
        <ele>27.6</ele>
        <time>2021-07-20T14:08:00Z</time>
      </trkpt>
      <trkpt lat="43.5418430" lon="-5.8400840">
        <ele>27.6</ele>
        <time>2021-07-20T14:08:03Z</time>
      </trkpt>
      <trkpt lat="43.5419330" lon="-5.8402440">
        <ele>27.2</ele>
        <time>2021-07-20T14:08:06Z</time>
      </trkpt>
      <trkpt lat="43.5419630" lon="-5.8402960">
        <ele>26.8</ele>
        <time>2021-07-20T14:08:07Z</time>
      </trkpt>
      <trkpt lat="43.5419940" lon="-5.8403460">
        <ele>26.2</ele>
        <time>2021-07-20T14:08:08Z</time>
      </trkpt>
      <trkpt lat="43.5420270" lon="-5.8403990">
        <ele>25.8</ele>
        <time>2021-07-20T14:08:09Z</time>
      </trkpt>
      <trkpt lat="43.5420590" lon="-5.8404500">
        <ele>25.4</ele>
        <time>2021-07-20T14:08:10Z</time>
      </trkpt>
      <trkpt lat="43.5422340" lon="-5.8407650">
        <ele>25.4</ele>
        <time>2021-07-20T14:08:16Z</time>
      </trkpt>
      <trkpt lat="43.5422910" lon="-5.8408640">
        <ele>25.4</ele>
        <time>2021-07-20T14:08:18Z</time>
      </trkpt>
      <trkpt lat="43.5423460" lon="-5.8409670">
        <ele>25.0</ele>
        <time>2021-07-20T14:08:20Z</time>
      </trkpt>
      <trkpt lat="43.5423750" lon="-5.8410190">
        <ele>24.6</ele>
        <time>2021-07-20T14:08:21Z</time>
      </trkpt>
      <trkpt lat="43.5424050" lon="-5.8410760">
        <ele>24.0</ele>
        <time>2021-07-20T14:08:22Z</time>
      </trkpt>
      <trkpt lat="43.5424360" lon="-5.8411340">
        <ele>23.6</ele>
        <time>2021-07-20T14:08:23Z</time>
      </trkpt>
      <trkpt lat="43.5424680" lon="-5.8411970">
        <ele>23.2</ele>
        <time>2021-07-20T14:08:24Z</time>
      </trkpt>
      <trkpt lat="43.5425290" lon="-5.8413130">
        <ele>23.2</ele>
        <time>2021-07-20T14:08:26Z</time>
      </trkpt>
      <trkpt lat="43.5425900" lon="-5.8414280">
        <ele>23.2</ele>
        <time>2021-07-20T14:08:28Z</time>
      </trkpt>
      <trkpt lat="43.5427950" lon="-5.8418270">
        <ele>23.2</ele>
        <time>2021-07-20T14:08:35Z</time>
      </trkpt>
      <trkpt lat="43.5430120" lon="-5.8422560">
        <ele>23.2</ele>
        <time>2021-07-20T14:08:42Z</time>
      </trkpt>
      <trkpt lat="43.5430990" lon="-5.8424380">
        <ele>23.2</ele>
        <time>2021-07-20T14:08:45Z</time>
      </trkpt>
      <trkpt lat="43.5431880" lon="-5.8426200">
        <ele>22.8</ele>
        <time>2021-07-20T14:08:48Z</time>
      </trkpt>
      <trkpt lat="43.5432160" lon="-5.8426790">
        <ele>22.4</ele>
        <time>2021-07-20T14:08:49Z</time>
      </trkpt>
      <trkpt lat="43.5432440" lon="-5.8427390">
        <ele>22.0</ele>
        <time>2021-07-20T14:08:50Z</time>
      </trkpt>
      <trkpt lat="43.5432700" lon="-5.8427970">
        <ele>21.6</ele>
        <time>2021-07-20T14:08:51Z</time>
      </trkpt>
      <trkpt lat="43.5432990" lon="-5.8428550">
        <ele>21.2</ele>
        <time>2021-07-20T14:08:52Z</time>
      </trkpt>
      <trkpt lat="43.5433250" lon="-5.8429120">
        <ele>21.2</ele>
        <time>2021-07-20T14:08:53Z</time>
      </trkpt>
      <trkpt lat="43.5436080" lon="-5.8435340">
        <ele>21.2</ele>
        <time>2021-07-20T14:09:04Z</time>
      </trkpt>
      <trkpt lat="43.5436770" lon="-5.8436920">
        <ele>20.6</ele>
        <time>2021-07-20T14:09:07Z</time>
      </trkpt>
      <trkpt lat="43.5437000" lon="-5.8437460">
        <ele>20.2</ele>
        <time>2021-07-20T14:09:08Z</time>
      </trkpt>
      <trkpt lat="43.5437220" lon="-5.8437990">
        <ele>19.8</ele>
        <time>2021-07-20T14:09:09Z</time>
      </trkpt>
      <trkpt lat="43.5437450" lon="-5.8438540">
        <ele>19.4</ele>
        <time>2021-07-20T14:09:10Z</time>
      </trkpt>
      <trkpt lat="43.5437700" lon="-5.8439090">
        <ele>19.0</ele>
        <time>2021-07-20T14:09:11Z</time>
      </trkpt>
      <trkpt lat="43.5438230" lon="-5.8440260">
        <ele>19.0</ele>
        <time>2021-07-20T14:09:13Z</time>
      </trkpt>
      <trkpt lat="43.5438500" lon="-5.8440880">
        <ele>19.0</ele>
        <time>2021-07-20T14:09:14Z</time>
      </trkpt>
      <trkpt lat="43.5439060" lon="-5.8442190">
        <ele>19.0</ele>
        <time>2021-07-20T14:09:16Z</time>
      </trkpt>
      <trkpt lat="43.5439370" lon="-5.8442870">
        <ele>19.0</ele>
        <time>2021-07-20T14:09:17Z</time>
      </trkpt>
      <trkpt lat="43.5440280" lon="-5.8444910">
        <ele>19.0</ele>
        <time>2021-07-20T14:09:20Z</time>
      </trkpt>
      <trkpt lat="43.5440570" lon="-5.8445610">
        <ele>19.0</ele>
        <time>2021-07-20T14:09:21Z</time>
      </trkpt>
      <trkpt lat="43.5441800" lon="-5.8448400">
        <ele>19.0</ele>
        <time>2021-07-20T14:09:25Z</time>
      </trkpt>
      <trkpt lat="43.5442640" lon="-5.8450410">
        <ele>19.0</ele>
        <time>2021-07-20T14:09:28Z</time>
      </trkpt>
      <trkpt lat="43.5443460" lon="-5.8452300">
        <ele>19.0</ele>
        <time>2021-07-20T14:09:31Z</time>
      </trkpt>
      <trkpt lat="43.5444020" lon="-5.8453650">
        <ele>18.6</ele>
        <time>2021-07-20T14:09:33Z</time>
      </trkpt>
      <trkpt lat="43.5444310" lon="-5.8454300">
        <ele>18.2</ele>
        <time>2021-07-20T14:09:34Z</time>
      </trkpt>
      <trkpt lat="43.5444600" lon="-5.8454940">
        <ele>17.8</ele>
        <time>2021-07-20T14:09:35Z</time>
      </trkpt>
      <trkpt lat="43.5444890" lon="-5.8455570">
        <ele>17.2</ele>
        <time>2021-07-20T14:09:36Z</time>
      </trkpt>
      <trkpt lat="43.5445190" lon="-5.8456210">
        <ele>16.8</ele>
        <time>2021-07-20T14:09:37Z</time>
      </trkpt>
      <trkpt lat="43.5446330" lon="-5.8458970">
        <ele>16.8</ele>
        <time>2021-07-20T14:09:41Z</time>
      </trkpt>
      <trkpt lat="43.5447470" lon="-5.8461720">
        <ele>16.8</ele>
        <time>2021-07-20T14:09:45Z</time>
      </trkpt>
      <trkpt lat="43.5449250" lon="-5.8465860">
        <ele>16.8</ele>
        <time>2021-07-20T14:09:51Z</time>
      </trkpt>
      <trkpt lat="43.5450340" lon="-5.8468630">
        <ele>16.8</ele>
        <time>2021-07-20T14:09:55Z</time>
      </trkpt>
      <trkpt lat="43.5451390" lon="-5.8471310">
        <ele>16.8</ele>
        <time>2021-07-20T14:09:59Z</time>
      </trkpt>
      <trkpt lat="43.5452870" lon="-5.8476130">
        <ele>16.8</ele>
        <time>2021-07-20T14:10:06Z</time>
      </trkpt>
      <trkpt lat="43.5453060" lon="-5.8476740">
        <ele>16.8</ele>
        <time>2021-07-20T14:10:07Z</time>
      </trkpt>
      <trkpt lat="43.5454140" lon="-5.8481780">
        <ele>16.2</ele>
        <time>2021-07-20T14:10:15Z</time>
      </trkpt>
      <trkpt lat="43.5454250" lon="-5.8482410">
        <ele>15.8</ele>
        <time>2021-07-20T14:10:16Z</time>
      </trkpt>
      <trkpt lat="43.5454370" lon="-5.8483030">
        <ele>15.2</ele>
        <time>2021-07-20T14:10:17Z</time>
      </trkpt>
      <trkpt lat="43.5454480" lon="-5.8483690">
        <ele>14.2</ele>
        <time>2021-07-20T14:10:18Z</time>
      </trkpt>
      <trkpt lat="43.5455100" lon="-5.8488020">
        <ele>14.2</ele>
        <time>2021-07-20T14:10:25Z</time>
      </trkpt>
      <trkpt lat="43.5455880" lon="-5.8493440">
        <ele>14.2</ele>
        <time>2021-07-20T14:10:34Z</time>
      </trkpt>
      <trkpt lat="43.5456540" lon="-5.8497860">
        <ele>14.2</ele>
        <time>2021-07-20T14:10:42Z</time>
      </trkpt>
      <trkpt lat="43.5457030" lon="-5.8501620">
        <ele>14.2</ele>
        <time>2021-07-20T14:10:49Z</time>
      </trkpt>
      <trkpt lat="43.5457640" lon="-5.8506540">
        <ele>14.2</ele>
        <time>2021-07-20T14:10:58Z</time>
      </trkpt>
      <trkpt lat="43.5458460" lon="-5.8511450">
        <ele>14.2</ele>
        <time>2021-07-20T14:11:07Z</time>
      </trkpt>
      <trkpt lat="43.5458540" lon="-5.8511980">
        <ele>14.2</ele>
        <time>2021-07-20T14:11:08Z</time>
      </trkpt>
      <trkpt lat="43.5459460" lon="-5.8515740">
        <ele>14.2</ele>
        <time>2021-07-20T14:11:15Z</time>
      </trkpt>
      <trkpt lat="43.5461620" lon="-5.8521410">
        <ele>14.2</ele>
        <time>2021-07-20T14:11:26Z</time>
      </trkpt>
      <trkpt lat="43.5463090" lon="-5.8524160">
        <ele>15.0</ele>
        <time>2021-07-20T14:11:32Z</time>
      </trkpt>
      <trkpt lat="43.5463340" lon="-5.8524610">
        <ele>15.6</ele>
        <time>2021-07-20T14:11:33Z</time>
      </trkpt>
      <trkpt lat="43.5463570" lon="-5.8525050">
        <ele>16.0</ele>
        <time>2021-07-20T14:11:34Z</time>
      </trkpt>
      <trkpt lat="43.5463820" lon="-5.8525490">
        <ele>16.4</ele>
        <time>2021-07-20T14:11:35Z</time>
      </trkpt>
      <trkpt lat="43.5466650" lon="-5.8530370">
        <ele>16.4</ele>
        <time>2021-07-20T14:11:46Z</time>
      </trkpt>
      <trkpt lat="43.5468580" lon="-5.8533630">
        <ele>16.4</ele>
        <time>2021-07-20T14:11:53Z</time>
      </trkpt>
      <trkpt lat="43.5468840" lon="-5.8534130">
        <ele>16.4</ele>
        <time>2021-07-20T14:11:54Z</time>
      </trkpt>
      <trkpt lat="43.5471350" lon="-5.8538550">
        <ele>16.4</ele>
        <time>2021-07-20T14:12:03Z</time>
      </trkpt>
      <trkpt lat="43.5473320" lon="-5.8541860">
        <ele>16.8</ele>
        <time>2021-07-20T14:12:10Z</time>
      </trkpt>
      <trkpt lat="43.5473590" lon="-5.8542300">
        <ele>17.2</ele>
        <time>2021-07-20T14:12:11Z</time>
      </trkpt>
      <trkpt lat="43.5473860" lon="-5.8542760">
        <ele>17.8</ele>
        <time>2021-07-20T14:12:12Z</time>
      </trkpt>
      <trkpt lat="43.5474130" lon="-5.8543230">
        <ele>18.2</ele>
        <time>2021-07-20T14:12:13Z</time>
      </trkpt>
      <trkpt lat="43.5474400" lon="-5.8543720">
        <ele>18.6</ele>
        <time>2021-07-20T14:12:14Z</time>
      </trkpt>
      <trkpt lat="43.5475740" lon="-5.8546080">
        <ele>18.6</ele>
        <time>2021-07-20T14:12:19Z</time>
      </trkpt>
      <trkpt lat="43.5479250" lon="-5.8552190">
        <ele>18.6</ele>
        <time>2021-07-20T14:12:32Z</time>
      </trkpt>
      <trkpt lat="43.5479530" lon="-5.8552710">
        <ele>18.6</ele>
        <time>2021-07-20T14:12:33Z</time>
      </trkpt>
      <trkpt lat="43.5481740" lon="-5.8556430">
        <ele>18.6</ele>
        <time>2021-07-20T14:12:41Z</time>
      </trkpt>
      <trkpt lat="43.5483930" lon="-5.8560190">
        <ele>18.6</ele>
        <time>2021-07-20T14:12:49Z</time>
      </trkpt>
      <trkpt lat="43.5486060" lon="-5.8563930">
        <ele>18.6</ele>
        <time>2021-07-20T14:12:57Z</time>
      </trkpt>
      <trkpt lat="43.5488530" lon="-5.8567980">
        <ele>18.6</ele>
        <time>2021-07-20T14:13:06Z</time>
      </trkpt>
      <trkpt lat="43.5491290" lon="-5.8570900">
        <ele>18.6</ele>
        <time>2021-07-20T14:13:14Z</time>
      </trkpt>
      <trkpt lat="43.5493400" lon="-5.8572950">
        <ele>18.6</ele>
        <time>2021-07-20T14:13:20Z</time>
      </trkpt>
      <trkpt lat="43.5494130" lon="-5.8573500">
        <ele>18.6</ele>
        <time>2021-07-20T14:13:22Z</time>
      </trkpt>
      <trkpt lat="43.5495270" lon="-5.8574260">
        <ele>18.6</ele>
        <time>2021-07-20T14:13:25Z</time>
      </trkpt>
      <trkpt lat="43.5496790" lon="-5.8575440">
        <ele>18.6</ele>
        <time>2021-07-20T14:13:29Z</time>
      </trkpt>
      <trkpt lat="43.5497560" lon="-5.8576000">
        <ele>18.6</ele>
        <time>2021-07-20T14:13:31Z</time>
      </trkpt>
      <trkpt lat="43.5498140" lon="-5.8576490">
        <ele>18.2</ele>
        <time>2021-07-20T14:13:33Z</time>
      </trkpt>
      <trkpt lat="43.5498410" lon="-5.8576700">
        <ele>17.8</ele>
        <time>2021-07-20T14:13:34Z</time>
      </trkpt>
      <trkpt lat="43.5498660" lon="-5.8576890">
        <ele>17.4</ele>
        <time>2021-07-20T14:13:35Z</time>
      </trkpt>
      <trkpt lat="43.5498880" lon="-5.8577030">
        <ele>16.6</ele>
        <time>2021-07-20T14:13:36Z</time>
      </trkpt>
      <trkpt lat="43.5498980" lon="-5.8577060">
        <ele>16.0</ele>
        <time>2021-07-20T14:13:37Z</time>
      </trkpt>
      <trkpt lat="43.5498960" lon="-5.8577020">
        <ele>15.6</ele>
        <time>2021-07-20T14:13:38Z</time>
      </trkpt>
      <trkpt lat="43.5499070" lon="-5.8577270">
        <ele>14.2</ele>
        <time>2021-07-20T14:13:41Z</time>
      </trkpt>
      <trkpt lat="43.5499870" lon="-5.8578530">
        <ele>14.2</ele>
        <time>2021-07-20T14:13:46Z</time>
      </trkpt>
      <trkpt lat="43.5501250" lon="-5.8580090">
        <ele>14.2</ele>
        <time>2021-07-20T14:13:51Z</time>
      </trkpt>
      <trkpt lat="43.5503220" lon="-5.8582440">
        <ele>14.2</ele>
        <time>2021-07-20T14:13:56Z</time>
      </trkpt>
      <trkpt lat="43.5503560" lon="-5.8583030">
        <ele>14.2</ele>
        <time>2021-07-20T14:13:57Z</time>
      </trkpt>
      <trkpt lat="43.5504790" lon="-5.8585760">
        <ele>14.2</ele>
        <time>2021-07-20T14:14:01Z</time>
      </trkpt>
      <trkpt lat="43.5505380" lon="-5.8587290">
        <ele>14.2</ele>
        <time>2021-07-20T14:14:03Z</time>
      </trkpt>
      <trkpt lat="43.5506160" lon="-5.8589710">
        <ele>14.2</ele>
        <time>2021-07-20T14:14:06Z</time>
      </trkpt>
      <trkpt lat="43.5506610" lon="-5.8590940">
        <ele>13.8</ele>
        <time>2021-07-20T14:14:08Z</time>
      </trkpt>
      <trkpt lat="43.5506830" lon="-5.8591460">
        <ele>13.4</ele>
        <time>2021-07-20T14:14:09Z</time>
      </trkpt>
      <trkpt lat="43.5506970" lon="-5.8591980">
        <ele>12.8</ele>
        <time>2021-07-20T14:14:10Z</time>
      </trkpt>
      <trkpt lat="43.5507050" lon="-5.8592510">
        <ele>12.4</ele>
        <time>2021-07-20T14:14:11Z</time>
      </trkpt>
      <trkpt lat="43.5507150" lon="-5.8593120">
        <ele>11.8</ele>
        <time>2021-07-20T14:14:12Z</time>
      </trkpt>
      <trkpt lat="43.5507270" lon="-5.8593680">
        <ele>11.8</ele>
        <time>2021-07-20T14:14:13Z</time>
      </trkpt>
      <trkpt lat="43.5507420" lon="-5.8594230">
        <ele>11.8</ele>
        <time>2021-07-20T14:14:14Z</time>
      </trkpt>
      <trkpt lat="43.5507540" lon="-5.8594780">
        <ele>11.8</ele>
        <time>2021-07-20T14:14:15Z</time>
      </trkpt>
      <trkpt lat="43.5507790" lon="-5.8595910">
        <ele>11.8</ele>
        <time>2021-07-20T14:14:17Z</time>
      </trkpt>
      <trkpt lat="43.5508050" lon="-5.8596950">
        <ele>11.8</ele>
        <time>2021-07-20T14:14:19Z</time>
      </trkpt>
      <trkpt lat="43.5508380" lon="-5.8598470">
        <ele>11.4</ele>
        <time>2021-07-20T14:14:22Z</time>
      </trkpt>
      <trkpt lat="43.5508480" lon="-5.8598960">
        <ele>10.8</ele>
        <time>2021-07-20T14:14:23Z</time>
      </trkpt>
      <trkpt lat="43.5508580" lon="-5.8599430">
        <ele>10.4</ele>
        <time>2021-07-20T14:14:24Z</time>
      </trkpt>
      <trkpt lat="43.5508680" lon="-5.8599900">
        <ele>10.0</ele>
        <time>2021-07-20T14:14:25Z</time>
      </trkpt>
      <trkpt lat="43.5508790" lon="-5.8600380">
        <ele>9.4</ele>
        <time>2021-07-20T14:14:26Z</time>
      </trkpt>
      <trkpt lat="43.5508890" lon="-5.8600900">
        <ele>9.4</ele>
        <time>2021-07-20T14:14:27Z</time>
      </trkpt>
      <trkpt lat="43.5509530" lon="-5.8603400">
        <ele>9.4</ele>
        <time>2021-07-20T14:14:32Z</time>
      </trkpt>
      <trkpt lat="43.5509700" lon="-5.8603840">
        <ele>9.4</ele>
        <time>2021-07-20T14:14:33Z</time>
      </trkpt>
      <trkpt lat="43.5510010" lon="-5.8605260">
        <ele>9.4</ele>
        <time>2021-07-20T14:14:36Z</time>
      </trkpt>
      <trkpt lat="43.5510400" lon="-5.8606720">
        <ele>9.4</ele>
        <time>2021-07-20T14:14:39Z</time>
      </trkpt>
      <trkpt lat="43.5510660" lon="-5.8607720">
        <ele>9.4</ele>
        <time>2021-07-20T14:14:41Z</time>
      </trkpt>
      <trkpt lat="43.5511120" lon="-5.8609720">
        <ele>9.4</ele>
        <time>2021-07-20T14:14:45Z</time>
      </trkpt>
      <trkpt lat="43.5511400" lon="-5.8611240">
        <ele>9.4</ele>
        <time>2021-07-20T14:14:48Z</time>
      </trkpt>
      <trkpt lat="43.5512180" lon="-5.8614690">
        <ele>9.4</ele>
        <time>2021-07-20T14:14:55Z</time>
      </trkpt>
      <trkpt lat="43.5512670" lon="-5.8617430">
        <ele>9.4</ele>
        <time>2021-07-20T14:15:01Z</time>
      </trkpt>
      <trkpt lat="43.5513170" lon="-5.8620010">
        <ele>9.4</ele>
        <time>2021-07-20T14:15:07Z</time>
      </trkpt>
      <trkpt lat="43.5513260" lon="-5.8620440">
        <ele>9.4</ele>
        <time>2021-07-20T14:15:08Z</time>
      </trkpt>
      <trkpt lat="43.5513810" lon="-5.8622320">
        <ele>10.0</ele>
        <time>2021-07-20T14:15:13Z</time>
      </trkpt>
      <trkpt lat="43.5513950" lon="-5.8622690">
        <ele>10.4</ele>
        <time>2021-07-20T14:15:14Z</time>
      </trkpt>
      <trkpt lat="43.5514120" lon="-5.8623100">
        <ele>11.2</ele>
        <time>2021-07-20T14:15:15Z</time>
      </trkpt>
      <trkpt lat="43.5514260" lon="-5.8623570">
        <ele>11.6</ele>
        <time>2021-07-20T14:15:16Z</time>
      </trkpt>
      <trkpt lat="43.5514640" lon="-5.8625550">
        <ele>11.6</ele>
        <time>2021-07-20T14:15:20Z</time>
      </trkpt>
      <trkpt lat="43.5514950" lon="-5.8628490">
        <ele>11.6</ele>
        <time>2021-07-20T14:15:26Z</time>
      </trkpt>
      <trkpt lat="43.5514980" lon="-5.8629010">
        <ele>11.6</ele>
        <time>2021-07-20T14:15:27Z</time>
      </trkpt>
      <trkpt lat="43.5515470" lon="-5.8631460">
        <ele>11.6</ele>
        <time>2021-07-20T14:15:32Z</time>
      </trkpt>
      <trkpt lat="43.5515590" lon="-5.8631910">
        <ele>11.6</ele>
        <time>2021-07-20T14:15:33Z</time>
      </trkpt>
      <trkpt lat="43.5516040" lon="-5.8634260">
        <ele>12.0</ele>
        <time>2021-07-20T14:15:38Z</time>
      </trkpt>
      <trkpt lat="43.5516100" lon="-5.8634710">
        <ele>12.4</ele>
        <time>2021-07-20T14:15:39Z</time>
      </trkpt>
      <trkpt lat="43.5516190" lon="-5.8635140">
        <ele>13.2</ele>
        <time>2021-07-20T14:15:40Z</time>
      </trkpt>
      <trkpt lat="43.5516250" lon="-5.8635630">
        <ele>13.6</ele>
        <time>2021-07-20T14:15:41Z</time>
      </trkpt>
      <trkpt lat="43.5516260" lon="-5.8638360">
        <ele>13.6</ele>
        <time>2021-07-20T14:15:47Z</time>
      </trkpt>
      <trkpt lat="43.5515850" lon="-5.8641740">
        <ele>13.6</ele>
        <time>2021-07-20T14:15:54Z</time>
      </trkpt>
      <trkpt lat="43.5515520" lon="-5.8643300">
        <ele>13.6</ele>
        <time>2021-07-20T14:15:57Z</time>
      </trkpt>
      <trkpt lat="43.5515030" lon="-5.8645590">
        <ele>13.2</ele>
        <time>2021-07-20T14:16:01Z</time>
      </trkpt>
      <trkpt lat="43.5514900" lon="-5.8646190">
        <ele>12.8</ele>
        <time>2021-07-20T14:16:02Z</time>
      </trkpt>
      <trkpt lat="43.5514750" lon="-5.8646860">
        <ele>12.4</ele>
        <time>2021-07-20T14:16:03Z</time>
      </trkpt>
      <trkpt lat="43.5514610" lon="-5.8647560">
        <ele>11.6</ele>
        <time>2021-07-20T14:16:04Z</time>
      </trkpt>
      <trkpt lat="43.5514290" lon="-5.8648920">
        <ele>11.6</ele>
        <time>2021-07-20T14:16:06Z</time>
      </trkpt>
      <trkpt lat="43.5514140" lon="-5.8649610">
        <ele>11.6</ele>
        <time>2021-07-20T14:16:07Z</time>
      </trkpt>
      <trkpt lat="43.5513850" lon="-5.8650940">
        <ele>11.6</ele>
        <time>2021-07-20T14:16:09Z</time>
      </trkpt>
      <trkpt lat="43.5513440" lon="-5.8652940">
        <ele>11.6</ele>
        <time>2021-07-20T14:16:12Z</time>
      </trkpt>
      <trkpt lat="43.5513290" lon="-5.8653580">
        <ele>11.2</ele>
        <time>2021-07-20T14:16:13Z</time>
      </trkpt>
      <trkpt lat="43.5513110" lon="-5.8654200">
        <ele>10.6</ele>
        <time>2021-07-20T14:16:14Z</time>
      </trkpt>
      <trkpt lat="43.5512940" lon="-5.8654800">
        <ele>10.2</ele>
        <time>2021-07-20T14:16:15Z</time>
      </trkpt>
      <trkpt lat="43.5512830" lon="-5.8655360">
        <ele>9.8</ele>
        <time>2021-07-20T14:16:16Z</time>
      </trkpt>
      <trkpt lat="43.5512690" lon="-5.8655980">
        <ele>9.2</ele>
        <time>2021-07-20T14:16:17Z</time>
      </trkpt>
      <trkpt lat="43.5512250" lon="-5.8658020">
        <ele>9.2</ele>
        <time>2021-07-20T14:16:20Z</time>
      </trkpt>
      <trkpt lat="43.5511990" lon="-5.8659440">
        <ele>9.2</ele>
        <time>2021-07-20T14:16:22Z</time>
      </trkpt>
      <trkpt lat="43.5511840" lon="-5.8660140">
        <ele>8.8</ele>
        <time>2021-07-20T14:16:23Z</time>
      </trkpt>
      <trkpt lat="43.5511710" lon="-5.8660900">
        <ele>8.2</ele>
        <time>2021-07-20T14:16:24Z</time>
      </trkpt>
      <trkpt lat="43.5511580" lon="-5.8661660">
        <ele>7.8</ele>
        <time>2021-07-20T14:16:25Z</time>
      </trkpt>
      <trkpt lat="43.5511430" lon="-5.8662440">
        <ele>7.2</ele>
        <time>2021-07-20T14:16:26Z</time>
      </trkpt>
      <trkpt lat="43.5511250" lon="-5.8663270">
        <ele>6.8</ele>
        <time>2021-07-20T14:16:27Z</time>
      </trkpt>
      <trkpt lat="43.5510920" lon="-5.8664870">
        <ele>6.8</ele>
        <time>2021-07-20T14:16:29Z</time>
      </trkpt>
      <trkpt lat="43.5510350" lon="-5.8667340">
        <ele>6.4</ele>
        <time>2021-07-20T14:16:32Z</time>
      </trkpt>
      <trkpt lat="43.5510200" lon="-5.8668120">
        <ele>6.0</ele>
        <time>2021-07-20T14:16:33Z</time>
      </trkpt>
      <trkpt lat="43.5510060" lon="-5.8668810">
        <ele>5.4</ele>
        <time>2021-07-20T14:16:34Z</time>
      </trkpt>
      <trkpt lat="43.5509930" lon="-5.8669370">
        <ele>5.0</ele>
        <time>2021-07-20T14:16:35Z</time>
      </trkpt>
      <trkpt lat="43.5509850" lon="-5.8669820">
        <ele>4.6</ele>
        <time>2021-07-20T14:16:36Z</time>
      </trkpt>
      <trkpt lat="43.5509630" lon="-5.8670950">
        <ele>4.6</ele>
        <time>2021-07-20T14:16:39Z</time>
      </trkpt>
      <trkpt lat="43.5509590" lon="-5.8671450">
        <ele>4.2</ele>
        <time>2021-07-20T14:16:40Z</time>
      </trkpt>
      <trkpt lat="43.5509580" lon="-5.8672010">
        <ele>3.8</ele>
        <time>2021-07-20T14:16:41Z</time>
      </trkpt>
      <trkpt lat="43.5509530" lon="-5.8672590">
        <ele>3.4</ele>
        <time>2021-07-20T14:16:42Z</time>
      </trkpt>
      <trkpt lat="43.5509420" lon="-5.8673210">
        <ele>3.0</ele>
        <time>2021-07-20T14:16:43Z</time>
      </trkpt>
      <trkpt lat="43.5509250" lon="-5.8673840">
        <ele>2.4</ele>
        <time>2021-07-20T14:16:44Z</time>
      </trkpt>
      <trkpt lat="43.5509040" lon="-5.8674460">
        <ele>2.4</ele>
        <time>2021-07-20T14:16:45Z</time>
      </trkpt>
      <trkpt lat="43.5508820" lon="-5.8675100">
        <ele>2.4</ele>
        <time>2021-07-20T14:16:46Z</time>
      </trkpt>
      <trkpt lat="43.5508350" lon="-5.8676420">
        <ele>2.4</ele>
        <time>2021-07-20T14:16:48Z</time>
      </trkpt>
      <trkpt lat="43.5508000" lon="-5.8677880">
        <ele>2.4</ele>
        <time>2021-07-20T14:16:50Z</time>
      </trkpt>
      <trkpt lat="43.5507840" lon="-5.8678630">
        <ele>2.4</ele>
        <time>2021-07-20T14:16:51Z</time>
      </trkpt>
      <trkpt lat="43.5506870" lon="-5.8684340">
        <ele>2.4</ele>
        <time>2021-07-20T14:16:58Z</time>
      </trkpt>
      <trkpt lat="43.5506740" lon="-5.8686060">
        <ele>2.0</ele>
        <time>2021-07-20T14:17:00Z</time>
      </trkpt>
      <trkpt lat="43.5506710" lon="-5.8686880">
        <ele>1.6</ele>
        <time>2021-07-20T14:17:01Z</time>
      </trkpt>
      <trkpt lat="43.5506690" lon="-5.8687690">
        <ele>1.2</ele>
        <time>2021-07-20T14:17:02Z</time>
      </trkpt>
      <trkpt lat="43.5506710" lon="-5.8688470">
        <ele>0.8</ele>
        <time>2021-07-20T14:17:03Z</time>
      </trkpt>
      <trkpt lat="43.5506750" lon="-5.8689260">
        <ele>0.4</ele>
        <time>2021-07-20T14:17:04Z</time>
      </trkpt>
      <trkpt lat="43.5507250" lon="-5.8693270">
        <ele>0.4</ele>
        <time>2021-07-20T14:17:10Z</time>
      </trkpt>
      <trkpt lat="43.5507530" lon="-5.8694650">
        <ele>0.4</ele>
        <time>2021-07-20T14:17:12Z</time>
      </trkpt>
      <trkpt lat="43.5507670" lon="-5.8695310">
        <ele>0.4</ele>
        <time>2021-07-20T14:17:13Z</time>
      </trkpt>
      <trkpt lat="43.5507950" lon="-5.8696580">
        <ele>0.4</ele>
        <time>2021-07-20T14:17:15Z</time>
      </trkpt>
      <trkpt lat="43.5508350" lon="-5.8698380">
        <ele>0.4</ele>
        <time>2021-07-20T14:17:18Z</time>
      </trkpt>
      <trkpt lat="43.5509230" lon="-5.8702580">
        <ele>0.4</ele>
        <time>2021-07-20T14:17:25Z</time>
      </trkpt>
      <trkpt lat="43.5509360" lon="-5.8703220">
        <ele>0.4</ele>
        <time>2021-07-20T14:17:26Z</time>
      </trkpt>
      <trkpt lat="43.5509640" lon="-5.8705040">
        <ele>0.4</ele>
        <time>2021-07-20T14:17:29Z</time>
      </trkpt>
      <trkpt lat="43.5509690" lon="-5.8706650">
        <ele>0.4</ele>
        <time>2021-07-20T14:17:32Z</time>
      </trkpt>
      <trkpt lat="43.5509740" lon="-5.8708330">
        <ele>0.4</ele>
        <time>2021-07-20T14:17:35Z</time>
      </trkpt>
      <trkpt lat="43.5509700" lon="-5.8710000">
        <ele>0.4</ele>
        <time>2021-07-20T14:17:38Z</time>
      </trkpt>
      <trkpt lat="43.5509450" lon="-5.8713260">
        <ele>0.4</ele>
        <time>2021-07-20T14:17:44Z</time>
      </trkpt>
      <trkpt lat="43.5509400" lon="-5.8713810">
        <ele>0.4</ele>
        <time>2021-07-20T14:17:45Z</time>
      </trkpt>
      <trkpt lat="43.5509260" lon="-5.8715960">
        <ele>0.4</ele>
        <time>2021-07-20T14:17:49Z</time>
      </trkpt>
      <trkpt lat="43.5509190" lon="-5.8718090">
        <ele>0.4</ele>
        <time>2021-07-20T14:17:53Z</time>
      </trkpt>
      <trkpt lat="43.5509120" lon="-5.8720280">
        <ele>0.4</ele>
        <time>2021-07-20T14:17:57Z</time>
      </trkpt>
      <trkpt lat="43.5509090" lon="-5.8721310">
        <ele>0.4</ele>
        <time>2021-07-20T14:17:59Z</time>
      </trkpt>
      <trkpt lat="43.5508920" lon="-5.8723800">
        <ele>0.8</ele>
        <time>2021-07-20T14:18:04Z</time>
      </trkpt>
      <trkpt lat="43.5508860" lon="-5.8724310">
        <ele>1.2</ele>
        <time>2021-07-20T14:18:05Z</time>
      </trkpt>
      <trkpt lat="43.5508830" lon="-5.8724770">
        <ele>1.6</ele>
        <time>2021-07-20T14:18:06Z</time>
      </trkpt>
      <trkpt lat="43.5508800" lon="-5.8725260">
        <ele>2.0</ele>
        <time>2021-07-20T14:18:07Z</time>
      </trkpt>
      <trkpt lat="43.5508770" lon="-5.8725770">
        <ele>2.4</ele>
        <time>2021-07-20T14:18:08Z</time>
      </trkpt>
      <trkpt lat="43.5508750" lon="-5.8726290">
        <ele>2.4</ele>
        <time>2021-07-20T14:18:09Z</time>
      </trkpt>
      <trkpt lat="43.5508500" lon="-5.8731440">
        <ele>2.4</ele>
        <time>2021-07-20T14:18:18Z</time>
      </trkpt>
      <trkpt lat="43.5508520" lon="-5.8736460">
        <ele>2.4</ele>
        <time>2021-07-20T14:18:26Z</time>
      </trkpt>
      <trkpt lat="43.5508650" lon="-5.8738940">
        <ele>2.4</ele>
        <time>2021-07-20T14:18:30Z</time>
      </trkpt>
      <trkpt lat="43.5508740" lon="-5.8740880">
        <ele>2.4</ele>
        <time>2021-07-20T14:18:33Z</time>
      </trkpt>
      <trkpt lat="43.5508890" lon="-5.8744040">
        <ele>2.4</ele>
        <time>2021-07-20T14:18:38Z</time>
      </trkpt>
      <trkpt lat="43.5509000" lon="-5.8745180">
        <ele>2.4</ele>
        <time>2021-07-20T14:18:40Z</time>
      </trkpt>
      <trkpt lat="43.5509090" lon="-5.8745710">
        <ele>2.4</ele>
        <time>2021-07-20T14:18:41Z</time>
      </trkpt>
      <trkpt lat="43.5509310" lon="-5.8747510">
        <ele>2.8</ele>
        <time>2021-07-20T14:18:44Z</time>
      </trkpt>
      <trkpt lat="43.5509330" lon="-5.8748120">
        <ele>3.2</ele>
        <time>2021-07-20T14:18:45Z</time>
      </trkpt>
      <trkpt lat="43.5509370" lon="-5.8748730">
        <ele>3.6</ele>
        <time>2021-07-20T14:18:46Z</time>
      </trkpt>
      <trkpt lat="43.5509420" lon="-5.8749360">
        <ele>4.0</ele>
        <time>2021-07-20T14:18:47Z</time>
      </trkpt>
      <trkpt lat="43.5509470" lon="-5.8749990">
        <ele>4.6</ele>
        <time>2021-07-20T14:18:48Z</time>
      </trkpt>
      <trkpt lat="43.5509570" lon="-5.8751300">
        <ele>4.6</ele>
        <time>2021-07-20T14:18:50Z</time>
      </trkpt>
      <trkpt lat="43.5509700" lon="-5.8752520">
        <ele>4.6</ele>
        <time>2021-07-20T14:18:52Z</time>
      </trkpt>
      <trkpt lat="43.5509810" lon="-5.8753730">
        <ele>4.0</ele>
        <time>2021-07-20T14:18:54Z</time>
      </trkpt>
      <trkpt lat="43.5509870" lon="-5.8754330">
        <ele>3.6</ele>
        <time>2021-07-20T14:18:55Z</time>
      </trkpt>
      <trkpt lat="43.5509930" lon="-5.8754940">
        <ele>3.2</ele>
        <time>2021-07-20T14:18:56Z</time>
      </trkpt>
      <trkpt lat="43.5509990" lon="-5.8755610">
        <ele>2.2</ele>
        <time>2021-07-20T14:18:57Z</time>
      </trkpt>
      <trkpt lat="43.5510270" lon="-5.8757580">
        <ele>1.8</ele>
        <time>2021-07-20T14:19:00Z</time>
      </trkpt>
      <trkpt lat="43.5510360" lon="-5.8758220">
        <ele>1.4</ele>
        <time>2021-07-20T14:19:01Z</time>
      </trkpt>
      <trkpt lat="43.5510430" lon="-5.8758870">
        <ele>1.0</ele>
        <time>2021-07-20T14:19:02Z</time>
      </trkpt>
      <trkpt lat="43.5510500" lon="-5.8759520">
        <ele>0.6</ele>
        <time>2021-07-20T14:19:03Z</time>
      </trkpt>
      <trkpt lat="43.5510590" lon="-5.8760150">
        <ele>0.2</ele>
        <time>2021-07-20T14:19:04Z</time>
      </trkpt>
      <trkpt lat="43.5510760" lon="-5.8761370">
        <ele>0.2</ele>
        <time>2021-07-20T14:19:06Z</time>
      </trkpt>
      <trkpt lat="43.5510870" lon="-5.8762640">
        <ele>0.2</ele>
        <time>2021-07-20T14:19:08Z</time>
      </trkpt>
      <trkpt lat="43.5510890" lon="-5.8763230">
        <ele>0.2</ele>
        <time>2021-07-20T14:19:09Z</time>
      </trkpt>
      <trkpt lat="43.5510910" lon="-5.8763780">
        <ele>0.2</ele>
        <time>2021-07-20T14:19:10Z</time>
      </trkpt>
      <trkpt lat="43.5511020" lon="-5.8765660">
        <ele>0.2</ele>
        <time>2021-07-20T14:19:14Z</time>
      </trkpt>
      <trkpt lat="43.5511230" lon="-5.8766570">
        <ele>0.2</ele>
        <time>2021-07-20T14:19:16Z</time>
      </trkpt>
      <trkpt lat="43.5511690" lon="-5.8769540">
        <ele>0.2</ele>
        <time>2021-07-20T14:19:22Z</time>
      </trkpt>
      <trkpt lat="43.5511740" lon="-5.8770060">
        <ele>0.2</ele>
        <time>2021-07-20T14:19:23Z</time>
      </trkpt>
      <trkpt lat="43.5511810" lon="-5.8770600">
        <ele>-0.2</ele>
        <time>2021-07-20T14:19:24Z</time>
      </trkpt>
      <trkpt lat="43.5511910" lon="-5.8771190">
        <ele>-0.8</ele>
        <time>2021-07-20T14:19:25Z</time>
      </trkpt>
      <trkpt lat="43.5512010" lon="-5.8771820">
        <ele>-1.4</ele>
        <time>2021-07-20T14:19:26Z</time>
      </trkpt>
      <trkpt lat="43.5512100" lon="-5.8772500">
        <ele>-2.0</ele>
        <time>2021-07-20T14:19:27Z</time>
      </trkpt>
      <trkpt lat="43.5512170" lon="-5.8773150">
        <ele>-2.4</ele>
        <time>2021-07-20T14:19:28Z</time>
      </trkpt>
      <trkpt lat="43.5512310" lon="-5.8774440">
        <ele>-2.4</ele>
        <time>2021-07-20T14:19:30Z</time>
      </trkpt>
      <trkpt lat="43.5512830" lon="-5.8778810">
        <ele>-2.4</ele>
        <time>2021-07-20T14:19:37Z</time>
      </trkpt>
      <trkpt lat="43.5513200" lon="-5.8780540">
        <ele>-2.4</ele>
        <time>2021-07-20T14:19:40Z</time>
      </trkpt>
      <trkpt lat="43.5513420" lon="-5.8781750">
        <ele>-2.4</ele>
        <time>2021-07-20T14:19:42Z</time>
      </trkpt>
      <trkpt lat="43.5513500" lon="-5.8782340">
        <ele>-2.4</ele>
        <time>2021-07-20T14:19:43Z</time>
      </trkpt>
      <trkpt lat="43.5513680" lon="-5.8783570">
        <ele>-2.4</ele>
        <time>2021-07-20T14:19:45Z</time>
      </trkpt>
      <trkpt lat="43.5513970" lon="-5.8784750">
        <ele>-2.4</ele>
        <time>2021-07-20T14:19:47Z</time>
      </trkpt>
      <trkpt lat="43.5514420" lon="-5.8786510">
        <ele>-2.4</ele>
        <time>2021-07-20T14:19:50Z</time>
      </trkpt>
      <trkpt lat="43.5514730" lon="-5.8787600">
        <ele>-2.4</ele>
        <time>2021-07-20T14:19:52Z</time>
      </trkpt>
      <trkpt lat="43.5515230" lon="-5.8789140">
        <ele>-2.4</ele>
        <time>2021-07-20T14:19:55Z</time>
      </trkpt>
      <trkpt lat="43.5515790" lon="-5.8790640">
        <ele>-2.4</ele>
        <time>2021-07-20T14:19:58Z</time>
      </trkpt>
      <trkpt lat="43.5516450" lon="-5.8792670">
        <ele>-2.4</ele>
        <time>2021-07-20T14:20:02Z</time>
      </trkpt>
      <trkpt lat="43.5516860" lon="-5.8794370">
        <ele>-2.4</ele>
        <time>2021-07-20T14:20:05Z</time>
      </trkpt>
      <trkpt lat="43.5517940" lon="-5.8797110">
        <ele>-2.4</ele>
        <time>2021-07-20T14:20:11Z</time>
      </trkpt>
      <trkpt lat="43.5518320" lon="-5.8798000">
        <ele>-2.4</ele>
        <time>2021-07-20T14:20:13Z</time>
      </trkpt>
      <trkpt lat="43.5519420" lon="-5.8801330">
        <ele>-2.4</ele>
        <time>2021-07-20T14:20:20Z</time>
      </trkpt>
      <trkpt lat="43.5519910" lon="-5.8802680">
        <ele>-2.0</ele>
        <time>2021-07-20T14:20:23Z</time>
      </trkpt>
      <trkpt lat="43.5520050" lon="-5.8803160">
        <ele>-1.6</ele>
        <time>2021-07-20T14:20:24Z</time>
      </trkpt>
      <trkpt lat="43.5520190" lon="-5.8803610">
        <ele>-1.0</ele>
        <time>2021-07-20T14:20:25Z</time>
      </trkpt>
      <trkpt lat="43.5520350" lon="-5.8804010">
        <ele>-0.6</ele>
        <time>2021-07-20T14:20:26Z</time>
      </trkpt>
      <trkpt lat="43.5520480" lon="-5.8804470">
        <ele>0.0</ele>
        <time>2021-07-20T14:20:27Z</time>
      </trkpt>
      <trkpt lat="43.5521430" lon="-5.8807190">
        <ele>0.0</ele>
        <time>2021-07-20T14:20:33Z</time>
      </trkpt>
      <trkpt lat="43.5522300" lon="-5.8809330">
        <ele>0.4</ele>
        <time>2021-07-20T14:20:38Z</time>
      </trkpt>
      <trkpt lat="43.5522450" lon="-5.8809800">
        <ele>0.8</ele>
        <time>2021-07-20T14:20:39Z</time>
      </trkpt>
      <trkpt lat="43.5522600" lon="-5.8810280">
        <ele>1.2</ele>
        <time>2021-07-20T14:20:40Z</time>
      </trkpt>
      <trkpt lat="43.5522760" lon="-5.8810720">
        <ele>1.6</ele>
        <time>2021-07-20T14:20:41Z</time>
      </trkpt>
      <trkpt lat="43.5522950" lon="-5.8811130">
        <ele>2.2</ele>
        <time>2021-07-20T14:20:42Z</time>
      </trkpt>
      <trkpt lat="43.5523900" lon="-5.8813320">
        <ele>2.2</ele>
        <time>2021-07-20T14:20:48Z</time>
      </trkpt>
      <trkpt lat="43.5524820" lon="-5.8816240">
        <ele>1.8</ele>
        <time>2021-07-20T14:20:54Z</time>
      </trkpt>
      <trkpt lat="43.5524930" lon="-5.8816730">
        <ele>1.2</ele>
        <time>2021-07-20T14:20:55Z</time>
      </trkpt>
      <trkpt lat="43.5525060" lon="-5.8817170">
        <ele>0.8</ele>
        <time>2021-07-20T14:20:56Z</time>
      </trkpt>
      <trkpt lat="43.5525230" lon="-5.8817620">
        <ele>0.4</ele>
        <time>2021-07-20T14:20:57Z</time>
      </trkpt>
      <trkpt lat="43.5525370" lon="-5.8818020">
        <ele>0.0</ele>
        <time>2021-07-20T14:20:58Z</time>
      </trkpt>
      <trkpt lat="43.5525800" lon="-5.8819100">
        <ele>0.0</ele>
        <time>2021-07-20T14:21:01Z</time>
      </trkpt>
      <trkpt lat="43.5526230" lon="-5.8820350">
        <ele>0.0</ele>
        <time>2021-07-20T14:21:04Z</time>
      </trkpt>
      <trkpt lat="43.5526480" lon="-5.8821340">
        <ele>0.0</ele>
        <time>2021-07-20T14:21:06Z</time>
      </trkpt>
      <trkpt lat="43.5527650" lon="-5.8824660">
        <ele>0.0</ele>
        <time>2021-07-20T14:21:13Z</time>
      </trkpt>
      <trkpt lat="43.5528320" lon="-5.8826600">
        <ele>0.0</ele>
        <time>2021-07-20T14:21:17Z</time>
      </trkpt>
      <trkpt lat="43.5528930" lon="-5.8828200">
        <ele>0.0</ele>
        <time>2021-07-20T14:21:20Z</time>
      </trkpt>
      <trkpt lat="43.5530350" lon="-5.8832120">
        <ele>0.0</ele>
        <time>2021-07-20T14:21:27Z</time>
      </trkpt>
      <trkpt lat="43.5530670" lon="-5.8833130">
        <ele>0.4</ele>
        <time>2021-07-20T14:21:29Z</time>
      </trkpt>
      <trkpt lat="43.5530840" lon="-5.8833610">
        <ele>0.8</ele>
        <time>2021-07-20T14:21:30Z</time>
      </trkpt>
      <trkpt lat="43.5531050" lon="-5.8834100">
        <ele>1.2</ele>
        <time>2021-07-20T14:21:31Z</time>
      </trkpt>
      <trkpt lat="43.5531260" lon="-5.8834640">
        <ele>1.6</ele>
        <time>2021-07-20T14:21:32Z</time>
      </trkpt>
      <trkpt lat="43.5531450" lon="-5.8835120">
        <ele>2.0</ele>
        <time>2021-07-20T14:21:33Z</time>
      </trkpt>
      <trkpt lat="43.5533070" lon="-5.8838890">
        <ele>2.0</ele>
        <time>2021-07-20T14:21:41Z</time>
      </trkpt>
      <trkpt lat="43.5533450" lon="-5.8839120">
        <ele>2.0</ele>
        <time>2021-07-20T14:21:42Z</time>
      </trkpt>
      <trkpt lat="43.5533770" lon="-5.8839400">
        <ele>2.0</ele>
        <time>2021-07-20T14:21:43Z</time>
      </trkpt>
      <trkpt lat="43.5534200" lon="-5.8840260">
        <ele>2.0</ele>
        <time>2021-07-20T14:21:45Z</time>
      </trkpt>
      <trkpt lat="43.5534250" lon="-5.8841580">
        <ele>1.6</ele>
        <time>2021-07-20T14:21:48Z</time>
      </trkpt>
      <trkpt lat="43.5534240" lon="-5.8842060">
        <ele>1.2</ele>
        <time>2021-07-20T14:21:49Z</time>
      </trkpt>
      <trkpt lat="43.5534290" lon="-5.8842590">
        <ele>0.8</ele>
        <time>2021-07-20T14:21:50Z</time>
      </trkpt>
      <trkpt lat="43.5534370" lon="-5.8843140">
        <ele>0.0</ele>
        <time>2021-07-20T14:21:51Z</time>
      </trkpt>
      <trkpt lat="43.5534540" lon="-5.8843700">
        <ele>0.0</ele>
        <time>2021-07-20T14:21:52Z</time>
      </trkpt>
      <trkpt lat="43.5534920" lon="-5.8844770">
        <ele>0.0</ele>
        <time>2021-07-20T14:21:54Z</time>
      </trkpt>
      <trkpt lat="43.5535550" lon="-5.8846510">
        <ele>0.0</ele>
        <time>2021-07-20T14:21:57Z</time>
      </trkpt>
      <trkpt lat="43.5536150" lon="-5.8848200">
        <ele>0.0</ele>
        <time>2021-07-20T14:22:00Z</time>
      </trkpt>
      <trkpt lat="43.5536960" lon="-5.8851090">
        <ele>0.0</ele>
        <time>2021-07-20T14:22:05Z</time>
      </trkpt>
      <trkpt lat="43.5537280" lon="-5.8852230">
        <ele>0.0</ele>
        <time>2021-07-20T14:22:07Z</time>
      </trkpt>
      <trkpt lat="43.5537470" lon="-5.8852760">
        <ele>0.0</ele>
        <time>2021-07-20T14:22:08Z</time>
      </trkpt>
      <trkpt lat="43.5537800" lon="-5.8853830">
        <ele>0.0</ele>
        <time>2021-07-20T14:22:10Z</time>
      </trkpt>
      <trkpt lat="43.5538370" lon="-5.8855450">
        <ele>0.0</ele>
        <time>2021-07-20T14:22:13Z</time>
      </trkpt>
      <trkpt lat="43.5538830" lon="-5.8857620">
        <ele>0.0</ele>
        <time>2021-07-20T14:22:17Z</time>
      </trkpt>
      <trkpt lat="43.5539010" lon="-5.8858680">
        <ele>0.0</ele>
        <time>2021-07-20T14:22:19Z</time>
      </trkpt>
      <trkpt lat="43.5538980" lon="-5.8859100">
        <ele>0.0</ele>
        <time>2021-07-20T14:22:20Z</time>
      </trkpt>
      <trkpt lat="43.5538910" lon="-5.8859470">
        <ele>-0.6</ele>
        <time>2021-07-20T14:22:21Z</time>
      </trkpt>
      <trkpt lat="43.5538840" lon="-5.8859770">
        <ele>-1.0</ele>
        <time>2021-07-20T14:22:22Z</time>
      </trkpt>
      <trkpt lat="43.5538770" lon="-5.8860130">
        <ele>-1.4</ele>
        <time>2021-07-20T14:22:23Z</time>
      </trkpt>
      <trkpt lat="43.5538760" lon="-5.8860540">
        <ele>-1.8</ele>
        <time>2021-07-20T14:22:24Z</time>
      </trkpt>
      <trkpt lat="43.5538780" lon="-5.8861060">
        <ele>-2.4</ele>
        <time>2021-07-20T14:22:25Z</time>
      </trkpt>
      <trkpt lat="43.5538970" lon="-5.8862860">
        <ele>-2.4</ele>
        <time>2021-07-20T14:22:28Z</time>
      </trkpt>
      <trkpt lat="43.5539100" lon="-5.8864180">
        <ele>-2.4</ele>
        <time>2021-07-20T14:22:30Z</time>
      </trkpt>
      <trkpt lat="43.5539370" lon="-5.8868880">
        <ele>-2.4</ele>
        <time>2021-07-20T14:22:37Z</time>
      </trkpt>
      <trkpt lat="43.5539570" lon="-5.8875270">
        <ele>-2.4</ele>
        <time>2021-07-20T14:22:47Z</time>
      </trkpt>
      <trkpt lat="43.5539760" lon="-5.8880530">
        <ele>-2.4</ele>
        <time>2021-07-20T14:22:55Z</time>
      </trkpt>
      <trkpt lat="43.5539790" lon="-5.8883120">
        <ele>-2.8</ele>
        <time>2021-07-20T14:22:59Z</time>
      </trkpt>
      <trkpt lat="43.5539790" lon="-5.8883810">
        <ele>-3.2</ele>
        <time>2021-07-20T14:23:00Z</time>
      </trkpt>
      <trkpt lat="43.5539770" lon="-5.8884540">
        <ele>-3.6</ele>
        <time>2021-07-20T14:23:01Z</time>
      </trkpt>
      <trkpt lat="43.5539770" lon="-5.8885310">
        <ele>-4.0</ele>
        <time>2021-07-20T14:23:02Z</time>
      </trkpt>
      <trkpt lat="43.5539770" lon="-5.8886020">
        <ele>-4.4</ele>
        <time>2021-07-20T14:23:03Z</time>
      </trkpt>
      <trkpt lat="43.5539790" lon="-5.8886740">
        <ele>-4.4</ele>
        <time>2021-07-20T14:23:04Z</time>
      </trkpt>
      <trkpt lat="43.5539800" lon="-5.8892150">
        <ele>-4.4</ele>
        <time>2021-07-20T14:23:12Z</time>
      </trkpt>
      <trkpt lat="43.5539940" lon="-5.8895560">
        <ele>-4.4</ele>
        <time>2021-07-20T14:23:17Z</time>
      </trkpt>
      <trkpt lat="43.5540000" lon="-5.8896930">
        <ele>-4.4</ele>
        <time>2021-07-20T14:23:19Z</time>
      </trkpt>
      <trkpt lat="43.5540040" lon="-5.8898290">
        <ele>-4.4</ele>
        <time>2021-07-20T14:23:21Z</time>
      </trkpt>
      <trkpt lat="43.5540130" lon="-5.8901150">
        <ele>-4.4</ele>
        <time>2021-07-20T14:23:25Z</time>
      </trkpt>
      <trkpt lat="43.5540140" lon="-5.8902490">
        <ele>-4.4</ele>
        <time>2021-07-20T14:23:27Z</time>
      </trkpt>
      <trkpt lat="43.5540170" lon="-5.8903140">
        <ele>-4.0</ele>
        <time>2021-07-20T14:23:28Z</time>
      </trkpt>
      <trkpt lat="43.5540210" lon="-5.8903770">
        <ele>-3.4</ele>
        <time>2021-07-20T14:23:29Z</time>
      </trkpt>
      <trkpt lat="43.5540230" lon="-5.8904410">
        <ele>-2.6</ele>
        <time>2021-07-20T14:23:30Z</time>
      </trkpt>
      <trkpt lat="43.5540250" lon="-5.8905010">
        <ele>-2.0</ele>
        <time>2021-07-20T14:23:31Z</time>
      </trkpt>
      <trkpt lat="43.5540270" lon="-5.8906810">
        <ele>-2.0</ele>
        <time>2021-07-20T14:23:34Z</time>
      </trkpt>
      <trkpt lat="43.5540410" lon="-5.8910780">
        <ele>-2.0</ele>
        <time>2021-07-20T14:23:41Z</time>
      </trkpt>
      <trkpt lat="43.5540430" lon="-5.8911320">
        <ele>-2.0</ele>
        <time>2021-07-20T14:23:42Z</time>
      </trkpt>
      <trkpt lat="43.5540400" lon="-5.8913020">
        <ele>-2.0</ele>
        <time>2021-07-20T14:23:45Z</time>
      </trkpt>
      <trkpt lat="43.5540370" lon="-5.8914680">
        <ele>-2.0</ele>
        <time>2021-07-20T14:23:48Z</time>
      </trkpt>
      <trkpt lat="43.5540350" lon="-5.8915210">
        <ele>-2.0</ele>
        <time>2021-07-20T14:23:49Z</time>
      </trkpt>
      <trkpt lat="43.5540240" lon="-5.8916840">
        <ele>-2.0</ele>
        <time>2021-07-20T14:23:52Z</time>
      </trkpt>
      <trkpt lat="43.5540060" lon="-5.8919620">
        <ele>-1.6</ele>
        <time>2021-07-20T14:23:57Z</time>
      </trkpt>
      <trkpt lat="43.5540000" lon="-5.8920160">
        <ele>-1.2</ele>
        <time>2021-07-20T14:23:58Z</time>
      </trkpt>
      <trkpt lat="43.5539950" lon="-5.8920650">
        <ele>-0.8</ele>
        <time>2021-07-20T14:23:59Z</time>
      </trkpt>
      <trkpt lat="43.5539880" lon="-5.8921150">
        <ele>-0.4</ele>
        <time>2021-07-20T14:24:00Z</time>
      </trkpt>
      <trkpt lat="43.5539830" lon="-5.8921680">
        <ele>0.0</ele>
        <time>2021-07-20T14:24:01Z</time>
      </trkpt>
      <trkpt lat="43.5539720" lon="-5.8922700">
        <ele>0.4</ele>
        <time>2021-07-20T14:24:03Z</time>
      </trkpt>
      <trkpt lat="43.5539650" lon="-5.8923170">
        <ele>0.8</ele>
        <time>2021-07-20T14:24:04Z</time>
      </trkpt>
      <trkpt lat="43.5539590" lon="-5.8923650">
        <ele>1.2</ele>
        <time>2021-07-20T14:24:05Z</time>
      </trkpt>
      <trkpt lat="43.5539530" lon="-5.8924120">
        <ele>1.8</ele>
        <time>2021-07-20T14:24:06Z</time>
      </trkpt>
      <trkpt lat="43.5539420" lon="-5.8924620">
        <ele>2.2</ele>
        <time>2021-07-20T14:24:07Z</time>
      </trkpt>
      <trkpt lat="43.5538960" lon="-5.8927040">
        <ele>2.2</ele>
        <time>2021-07-20T14:24:12Z</time>
      </trkpt>
      <trkpt lat="43.5538710" lon="-5.8928050">
        <ele>2.2</ele>
        <time>2021-07-20T14:24:14Z</time>
      </trkpt>
      <trkpt lat="43.5538180" lon="-5.8930250">
        <ele>1.6</ele>
        <time>2021-07-20T14:24:18Z</time>
      </trkpt>
      <trkpt lat="43.5538030" lon="-5.8930820">
        <ele>1.2</ele>
        <time>2021-07-20T14:24:19Z</time>
      </trkpt>
      <trkpt lat="43.5537890" lon="-5.8931360">
        <ele>0.4</ele>
        <time>2021-07-20T14:24:20Z</time>
      </trkpt>
      <trkpt lat="43.5537720" lon="-5.8931890">
        <ele>0.0</ele>
        <time>2021-07-20T14:24:21Z</time>
      </trkpt>
      <trkpt lat="43.5537280" lon="-5.8933530">
        <ele>0.0</ele>
        <time>2021-07-20T14:24:24Z</time>
      </trkpt>
      <trkpt lat="43.5536660" lon="-5.8935850">
        <ele>0.0</ele>
        <time>2021-07-20T14:24:28Z</time>
      </trkpt>
      <trkpt lat="43.5536140" lon="-5.8937560">
        <ele>0.0</ele>
        <time>2021-07-20T14:24:31Z</time>
      </trkpt>
      <trkpt lat="43.5535820" lon="-5.8938670">
        <ele>0.0</ele>
        <time>2021-07-20T14:24:33Z</time>
      </trkpt>
      <trkpt lat="43.5535510" lon="-5.8939810">
        <ele>0.0</ele>
        <time>2021-07-20T14:24:35Z</time>
      </trkpt>
      <trkpt lat="43.5535330" lon="-5.8940380">
        <ele>-0.4</ele>
        <time>2021-07-20T14:24:36Z</time>
      </trkpt>
      <trkpt lat="43.5535160" lon="-5.8940940">
        <ele>-1.0</ele>
        <time>2021-07-20T14:24:37Z</time>
      </trkpt>
      <trkpt lat="43.5535000" lon="-5.8941550">
        <ele>-1.4</ele>
        <time>2021-07-20T14:24:38Z</time>
      </trkpt>
      <trkpt lat="43.5534820" lon="-5.8942170">
        <ele>-1.8</ele>
        <time>2021-07-20T14:24:39Z</time>
      </trkpt>
      <trkpt lat="43.5534610" lon="-5.8942810">
        <ele>-2.2</ele>
        <time>2021-07-20T14:24:40Z</time>
      </trkpt>
      <trkpt lat="43.5534420" lon="-5.8943400">
        <ele>-2.2</ele>
        <time>2021-07-20T14:24:41Z</time>
      </trkpt>
      <trkpt lat="43.5534240" lon="-5.8943950">
        <ele>-2.2</ele>
        <time>2021-07-20T14:24:42Z</time>
      </trkpt>
      <trkpt lat="43.5534180" lon="-5.8945440">
        <ele>-2.2</ele>
        <time>2021-07-20T14:24:45Z</time>
      </trkpt>
      <trkpt lat="43.5533950" lon="-5.8946430">
        <ele>-2.2</ele>
        <time>2021-07-20T14:24:47Z</time>
      </trkpt>
      <trkpt lat="43.5533690" lon="-5.8947240">
        <ele>-2.6</ele>
        <time>2021-07-20T14:24:49Z</time>
      </trkpt>
      <trkpt lat="43.5533620" lon="-5.8947500">
        <ele>-3.0</ele>
        <time>2021-07-20T14:24:50Z</time>
      </trkpt>
      <trkpt lat="43.5533600" lon="-5.8947660">
        <ele>-3.6</ele>
        <time>2021-07-20T14:24:51Z</time>
      </trkpt>
      <trkpt lat="43.5533580" lon="-5.8947670">
        <ele>-4.0</ele>
        <time>2021-07-20T14:24:52Z</time>
      </trkpt>
      <trkpt lat="43.5533550" lon="-5.8947720">
        <ele>-4.4</ele>
        <time>2021-07-20T14:24:53Z</time>
      </trkpt>
      <trkpt lat="43.5533500" lon="-5.8947840">
        <ele>-4.4</ele>
        <time>2021-07-20T14:26:49Z</time>
      </trkpt>
      <trkpt lat="43.5533450" lon="-5.8948090">
        <ele>-4.4</ele>
        <time>2021-07-20T14:26:50Z</time>
      </trkpt>
      <trkpt lat="43.5533270" lon="-5.8949100">
        <ele>-4.4</ele>
        <time>2021-07-20T14:26:53Z</time>
      </trkpt>
      <trkpt lat="43.5533200" lon="-5.8949470">
        <ele>-4.4</ele>
        <time>2021-07-20T14:26:54Z</time>
      </trkpt>
      <trkpt lat="43.5532530" lon="-5.8951970">
        <ele>-4.8</ele>
        <time>2021-07-20T14:26:59Z</time>
      </trkpt>
      <trkpt lat="43.5532400" lon="-5.8952570">
        <ele>-5.2</ele>
        <time>2021-07-20T14:27:00Z</time>
      </trkpt>
      <trkpt lat="43.5532310" lon="-5.8953150">
        <ele>-5.6</ele>
        <time>2021-07-20T14:27:01Z</time>
      </trkpt>
      <trkpt lat="43.5532160" lon="-5.8953780">
        <ele>-6.2</ele>
        <time>2021-07-20T14:27:02Z</time>
      </trkpt>
      <trkpt lat="43.5531970" lon="-5.8954450">
        <ele>-6.6</ele>
        <time>2021-07-20T14:27:03Z</time>
      </trkpt>
      <trkpt lat="43.5531540" lon="-5.8956360">
        <ele>-6.6</ele>
        <time>2021-07-20T14:27:06Z</time>
      </trkpt>
      <trkpt lat="43.5531420" lon="-5.8957000">
        <ele>-6.6</ele>
        <time>2021-07-20T14:27:07Z</time>
      </trkpt>
      <trkpt lat="43.5531030" lon="-5.8958840">
        <ele>-6.6</ele>
        <time>2021-07-20T14:27:10Z</time>
      </trkpt>
      <trkpt lat="43.5530510" lon="-5.8961350">
        <ele>-6.6</ele>
        <time>2021-07-20T14:27:14Z</time>
      </trkpt>
      <trkpt lat="43.5530390" lon="-5.8962000">
        <ele>-6.6</ele>
        <time>2021-07-20T14:27:15Z</time>
      </trkpt>
      <trkpt lat="43.5529890" lon="-5.8964340">
        <ele>-7.0</ele>
        <time>2021-07-20T14:27:19Z</time>
      </trkpt>
      <trkpt lat="43.5529770" lon="-5.8964830">
        <ele>-7.4</ele>
        <time>2021-07-20T14:27:20Z</time>
      </trkpt>
      <trkpt lat="43.5529670" lon="-5.8965350">
        <ele>-7.8</ele>
        <time>2021-07-20T14:27:21Z</time>
      </trkpt>
      <trkpt lat="43.5529590" lon="-5.8965860">
        <ele>-8.2</ele>
        <time>2021-07-20T14:27:22Z</time>
      </trkpt>
      <trkpt lat="43.5529550" lon="-5.8966370">
        <ele>-8.6</ele>
        <time>2021-07-20T14:27:23Z</time>
      </trkpt>
      <trkpt lat="43.5529640" lon="-5.8967680">
        <ele>-8.6</ele>
        <time>2021-07-20T14:27:26Z</time>
      </trkpt>
      <trkpt lat="43.5529840" lon="-5.8968000">
        <ele>-8.6</ele>
        <time>2021-07-20T14:27:27Z</time>
      </trkpt>
      <trkpt lat="43.5530520" lon="-5.8968460">
        <ele>-8.6</ele>
        <time>2021-07-20T14:27:30Z</time>
      </trkpt>
      <trkpt lat="43.5530420" lon="-5.8969120">
        <ele>-8.6</ele>
        <time>2021-07-20T14:27:33Z</time>
      </trkpt>
      <trkpt lat="43.5529870" lon="-5.8969150">
        <ele>-8.6</ele>
        <time>2021-07-20T14:27:35Z</time>
      </trkpt>
      <trkpt lat="43.5529520" lon="-5.8969230">
        <ele>-8.6</ele>
        <time>2021-07-20T14:27:36Z</time>
      </trkpt>
      <trkpt lat="43.5529050" lon="-5.8969730">
        <ele>-8.6</ele>
        <time>2021-07-20T14:27:38Z</time>
      </trkpt>
      <trkpt lat="43.5528860" lon="-5.8970180">
        <ele>-8.6</ele>
        <time>2021-07-20T14:27:39Z</time>
      </trkpt>
      <trkpt lat="43.5528660" lon="-5.8970680">
        <ele>-8.6</ele>
        <time>2021-07-20T14:27:40Z</time>
      </trkpt>
      <trkpt lat="43.5528500" lon="-5.8971210">
        <ele>-8.6</ele>
        <time>2021-07-20T14:27:41Z</time>
      </trkpt>
      <trkpt lat="43.5528040" lon="-5.8972920">
        <ele>-8.6</ele>
        <time>2021-07-20T14:27:44Z</time>
      </trkpt>
      <trkpt lat="43.5527810" lon="-5.8974010">
        <ele>-8.6</ele>
        <time>2021-07-20T14:27:46Z</time>
      </trkpt>
      <trkpt lat="43.5527050" lon="-5.8977940">
        <ele>-8.6</ele>
        <time>2021-07-20T14:27:54Z</time>
      </trkpt>
      <trkpt lat="43.5526740" lon="-5.8981260">
        <ele>-8.6</ele>
        <time>2021-07-20T14:28:01Z</time>
      </trkpt>
      <trkpt lat="43.5527240" lon="-5.8983530">
        <ele>-8.6</ele>
        <time>2021-07-20T14:28:06Z</time>
      </trkpt>
      <trkpt lat="43.5528500" lon="-5.8985220">
        <ele>-8.6</ele>
        <time>2021-07-20T14:28:11Z</time>
      </trkpt>
      <trkpt lat="43.5529960" lon="-5.8985730">
        <ele>-8.6</ele>
        <time>2021-07-20T14:28:16Z</time>
      </trkpt>
      <trkpt lat="43.5530920" lon="-5.8984890">
        <ele>-8.6</ele>
        <time>2021-07-20T14:28:20Z</time>
      </trkpt>
      <trkpt lat="43.5531260" lon="-5.8983750">
        <ele>-8.6</ele>
        <time>2021-07-20T14:28:24Z</time>
      </trkpt>
      <trkpt lat="43.5531480" lon="-5.8983590">
        <ele>-8.6</ele>
        <time>2021-07-20T14:28:25Z</time>
      </trkpt>
      <trkpt lat="43.5532030" lon="-5.8983630">
        <ele>-8.6</ele>
        <time>2021-07-20T14:28:27Z</time>
      </trkpt>
      <trkpt lat="43.5532430" lon="-5.8983910">
        <ele>-8.6</ele>
        <time>2021-07-20T14:28:29Z</time>
      </trkpt>
      <trkpt lat="43.5532990" lon="-5.8983300">
        <ele>-8.6</ele>
        <time>2021-07-20T14:28:32Z</time>
      </trkpt>
      <trkpt lat="43.5533350" lon="-5.8982810">
        <ele>-8.6</ele>
        <time>2021-07-20T14:28:34Z</time>
      </trkpt>
      <trkpt lat="43.5533920" lon="-5.8981870">
        <ele>-8.2</ele>
        <time>2021-07-20T14:28:38Z</time>
      </trkpt>
      <trkpt lat="43.5534050" lon="-5.8981640">
        <ele>-7.8</ele>
        <time>2021-07-20T14:28:39Z</time>
      </trkpt>
      <trkpt lat="43.5534190" lon="-5.8981460">
        <ele>-7.4</ele>
        <time>2021-07-20T14:28:40Z</time>
      </trkpt>
      <trkpt lat="43.5534300" lon="-5.8981300">
        <ele>-6.8</ele>
        <time>2021-07-20T14:28:41Z</time>
      </trkpt>
      <trkpt lat="43.5534420" lon="-5.8981100">
        <ele>-6.4</ele>
        <time>2021-07-20T14:28:42Z</time>
      </trkpt>
      <trkpt lat="43.5534970" lon="-5.8980090">
        <ele>-6.4</ele>
        <time>2021-07-20T14:28:46Z</time>
      </trkpt>
      <trkpt lat="43.5536040" lon="-5.8979030">
        <ele>-6.4</ele>
        <time>2021-07-20T14:28:51Z</time>
      </trkpt>
      <trkpt lat="43.5536270" lon="-5.8978810">
        <ele>-6.0</ele>
        <time>2021-07-20T14:28:52Z</time>
      </trkpt>
      <trkpt lat="43.5536480" lon="-5.8978640">
        <ele>-5.6</ele>
        <time>2021-07-20T14:28:53Z</time>
      </trkpt>
      <trkpt lat="43.5536690" lon="-5.8978450">
        <ele>-5.2</ele>
        <time>2021-07-20T14:28:54Z</time>
      </trkpt>
      <trkpt lat="43.5536930" lon="-5.8978310">
        <ele>-4.6</ele>
        <time>2021-07-20T14:28:55Z</time>
      </trkpt>
      <trkpt lat="43.5537180" lon="-5.8978130">
        <ele>-4.2</ele>
        <time>2021-07-20T14:28:56Z</time>
      </trkpt>
      <trkpt lat="43.5537780" lon="-5.8977790">
        <ele>-4.2</ele>
        <time>2021-07-20T14:28:58Z</time>
      </trkpt>
      <trkpt lat="43.5540450" lon="-5.8976390">
        <ele>-4.2</ele>
        <time>2021-07-20T14:29:06Z</time>
      </trkpt>
      <trkpt lat="43.5541140" lon="-5.8976060">
        <ele>-3.8</ele>
        <time>2021-07-20T14:29:08Z</time>
      </trkpt>
      <trkpt lat="43.5541460" lon="-5.8976080">
        <ele>-3.4</ele>
        <time>2021-07-20T14:29:09Z</time>
      </trkpt>
      <trkpt lat="43.5541790" lon="-5.8976100">
        <ele>-3.0</ele>
        <time>2021-07-20T14:29:10Z</time>
      </trkpt>
      <trkpt lat="43.5542100" lon="-5.8976210">
        <ele>-2.6</ele>
        <time>2021-07-20T14:29:11Z</time>
      </trkpt>
      <trkpt lat="43.5542440" lon="-5.8976350">
        <ele>-2.2</ele>
        <time>2021-07-20T14:29:12Z</time>
      </trkpt>
      <trkpt lat="43.5544050" lon="-5.8976830">
        <ele>-2.2</ele>
        <time>2021-07-20T14:29:17Z</time>
      </trkpt>
      <trkpt lat="43.5547280" lon="-5.8976770">
        <ele>-2.2</ele>
        <time>2021-07-20T14:29:25Z</time>
      </trkpt>
      <trkpt lat="43.5549670" lon="-5.8976780">
        <ele>-2.2</ele>
        <time>2021-07-20T14:29:31Z</time>
      </trkpt>
      <trkpt lat="43.5550030" lon="-5.8976800">
        <ele>-2.2</ele>
        <time>2021-07-20T14:29:32Z</time>
      </trkpt>
      <trkpt lat="43.5551010" lon="-5.8976930">
        <ele>-2.2</ele>
        <time>2021-07-20T14:29:35Z</time>
      </trkpt>
      <trkpt lat="43.5551870" lon="-5.8976890">
        <ele>-2.2</ele>
        <time>2021-07-20T14:29:38Z</time>
      </trkpt>
      <trkpt lat="43.5552150" lon="-5.8976920">
        <ele>-2.2</ele>
        <time>2021-07-20T14:29:39Z</time>
      </trkpt>
      <trkpt lat="43.5552680" lon="-5.8977100">
        <ele>-2.2</ele>
        <time>2021-07-20T14:29:41Z</time>
      </trkpt>
      <trkpt lat="43.5552950" lon="-5.8977130">
        <ele>-2.2</ele>
        <time>2021-07-20T14:29:42Z</time>
      </trkpt>
      <trkpt lat="43.5553230" lon="-5.8977190">
        <ele>-2.6</ele>
        <time>2021-07-20T14:29:43Z</time>
      </trkpt>
      <trkpt lat="43.5553530" lon="-5.8977210">
        <ele>-3.0</ele>
        <time>2021-07-20T14:29:44Z</time>
      </trkpt>
      <trkpt lat="43.5553860" lon="-5.8977140">
        <ele>-3.4</ele>
        <time>2021-07-20T14:29:45Z</time>
      </trkpt>
      <trkpt lat="43.5554210" lon="-5.8977040">
        <ele>-3.8</ele>
        <time>2021-07-20T14:29:46Z</time>
      </trkpt>
      <trkpt lat="43.5554500" lon="-5.8976920">
        <ele>-4.2</ele>
        <time>2021-07-20T14:29:47Z</time>
      </trkpt>
      <trkpt lat="43.5554740" lon="-5.8976750">
        <ele>-4.2</ele>
        <time>2021-07-20T14:29:49Z</time>
      </trkpt>
      <trkpt lat="43.5554800" lon="-5.8976690">
        <ele>-4.2</ele>
        <time>2021-07-20T14:29:50Z</time>
      </trkpt>
      <trkpt lat="43.5554890" lon="-5.8976670">
        <ele>-4.2</ele>
        <time>2021-07-20T14:29:55Z</time>
      </trkpt>
      <trkpt lat="43.5555210" lon="-5.8976590">
        <ele>-4.2</ele>
        <time>2021-07-20T14:29:57Z</time>
      </trkpt>
      <trkpt lat="43.5556710" lon="-5.8976170">
        <ele>-4.2</ele>
        <time>2021-07-20T14:30:03Z</time>
      </trkpt>
      <trkpt lat="43.5557030" lon="-5.8976130">
        <ele>-4.8</ele>
        <time>2021-07-20T14:30:04Z</time>
      </trkpt>
      <trkpt lat="43.5557290" lon="-5.8976110">
        <ele>-5.2</ele>
        <time>2021-07-20T14:30:05Z</time>
      </trkpt>
      <trkpt lat="43.5557440" lon="-5.8976110">
        <ele>-6.0</ele>
        <time>2021-07-20T14:30:06Z</time>
      </trkpt>
      <trkpt lat="43.5557490" lon="-5.8976130">
        <ele>-6.4</ele>
        <time>2021-07-20T14:30:07Z</time>
      </trkpt>
      <trkpt lat="43.5557590" lon="-5.8976070">
        <ele>-6.4</ele>
        <time>2021-07-20T14:30:09Z</time>
      </trkpt>
      <trkpt lat="43.5558000" lon="-5.8975750">
        <ele>-6.4</ele>
        <time>2021-07-20T14:30:23Z</time>
      </trkpt>
      <trkpt lat="43.5558250" lon="-5.8975620">
        <ele>-6.4</ele>
        <time>2021-07-20T14:30:24Z</time>
      </trkpt>
      <trkpt lat="43.5558520" lon="-5.8975420">
        <ele>-6.4</ele>
        <time>2021-07-20T14:30:25Z</time>
      </trkpt>
      <trkpt lat="43.5559180" lon="-5.8974840">
        <ele>-6.4</ele>
        <time>2021-07-20T14:30:27Z</time>
      </trkpt>
      <trkpt lat="43.5560350" lon="-5.8973740">
        <ele>-6.4</ele>
        <time>2021-07-20T14:30:30Z</time>
      </trkpt>
      <trkpt lat="43.5561590" lon="-5.8972520">
        <ele>-6.8</ele>
        <time>2021-07-20T14:30:33Z</time>
      </trkpt>
      <trkpt lat="43.5561870" lon="-5.8971970">
        <ele>-7.2</ele>
        <time>2021-07-20T14:30:34Z</time>
      </trkpt>
      <trkpt lat="43.5562060" lon="-5.8971300">
        <ele>-7.6</ele>
        <time>2021-07-20T14:30:35Z</time>
      </trkpt>
      <trkpt lat="43.5562120" lon="-5.8970610">
        <ele>-8.0</ele>
        <time>2021-07-20T14:30:36Z</time>
      </trkpt>
      <trkpt lat="43.5562150" lon="-5.8970000">
        <ele>-8.4</ele>
        <time>2021-07-20T14:30:37Z</time>
      </trkpt>
      <trkpt lat="43.5562790" lon="-5.8968480">
        <ele>-8.4</ele>
        <time>2021-07-20T14:30:40Z</time>
      </trkpt>
      <trkpt lat="43.5563630" lon="-5.8968050">
        <ele>-8.4</ele>
        <time>2021-07-20T14:30:42Z</time>
      </trkpt>
      <trkpt lat="43.5564470" lon="-5.8967910">
        <ele>-8.4</ele>
        <time>2021-07-20T14:30:44Z</time>
      </trkpt>
      <trkpt lat="43.5565860" lon="-5.8969170">
        <ele>-8.4</ele>
        <time>2021-07-20T14:30:48Z</time>
      </trkpt>
      <trkpt lat="43.5566170" lon="-5.8970200">
        <ele>-8.4</ele>
        <time>2021-07-20T14:30:50Z</time>
      </trkpt>
      <trkpt lat="43.5566220" lon="-5.8971210">
        <ele>-8.4</ele>
        <time>2021-07-20T14:30:52Z</time>
      </trkpt>
      <trkpt lat="43.5565520" lon="-5.8972560">
        <ele>-8.4</ele>
        <time>2021-07-20T14:30:55Z</time>
      </trkpt>
      <trkpt lat="43.5565160" lon="-5.8972880">
        <ele>-8.4</ele>
        <time>2021-07-20T14:30:56Z</time>
      </trkpt>
      <trkpt lat="43.5563870" lon="-5.8973360">
        <ele>-8.4</ele>
        <time>2021-07-20T14:30:59Z</time>
      </trkpt>
      <trkpt lat="43.5563480" lon="-5.8973400">
        <ele>-8.4</ele>
        <time>2021-07-20T14:31:00Z</time>
      </trkpt>
      <trkpt lat="43.5562150" lon="-5.8974300">
        <ele>-8.4</ele>
        <time>2021-07-20T14:31:04Z</time>
      </trkpt>
      <trkpt lat="43.5560600" lon="-5.8975850">
        <ele>-8.4</ele>
        <time>2021-07-20T14:31:09Z</time>
      </trkpt>
      <trkpt lat="43.5559750" lon="-5.8976700">
        <ele>-8.4</ele>
        <time>2021-07-20T14:31:12Z</time>
      </trkpt>
      <trkpt lat="43.5559130" lon="-5.8977290">
        <ele>-8.4</ele>
        <time>2021-07-20T14:31:14Z</time>
      </trkpt>
      <trkpt lat="43.5558630" lon="-5.8977780">
        <ele>-8.0</ele>
        <time>2021-07-20T14:31:16Z</time>
      </trkpt>
      <trkpt lat="43.5558420" lon="-5.8978100">
        <ele>-7.6</ele>
        <time>2021-07-20T14:31:17Z</time>
      </trkpt>
      <trkpt lat="43.5558250" lon="-5.8978410">
        <ele>-7.2</ele>
        <time>2021-07-20T14:31:18Z</time>
      </trkpt>
      <trkpt lat="43.5558130" lon="-5.8978760">
        <ele>-6.8</ele>
        <time>2021-07-20T14:31:19Z</time>
      </trkpt>
      <trkpt lat="43.5558030" lon="-5.8979100">
        <ele>-6.4</ele>
        <time>2021-07-20T14:31:20Z</time>
      </trkpt>
      <trkpt lat="43.5557980" lon="-5.8980100">
        <ele>-6.4</ele>
        <time>2021-07-20T14:31:23Z</time>
      </trkpt>
      <trkpt lat="43.5558670" lon="-5.8981920">
        <ele>-6.4</ele>
        <time>2021-07-20T14:31:28Z</time>
      </trkpt>
      <trkpt lat="43.5558490" lon="-5.8983800">
        <ele>-6.4</ele>
        <time>2021-07-20T14:31:32Z</time>
      </trkpt>
      <trkpt lat="43.5558060" lon="-5.8984160">
        <ele>-6.4</ele>
        <time>2021-07-20T14:31:34Z</time>
      </trkpt>
      <trkpt lat="43.5557820" lon="-5.8984110">
        <ele>-6.4</ele>
        <time>2021-07-20T14:31:35Z</time>
      </trkpt>
      <trkpt lat="43.5557000" lon="-5.8982750">
        <ele>-6.4</ele>
        <time>2021-07-20T14:31:39Z</time>
      </trkpt>
      <trkpt lat="43.5556800" lon="-5.8981180">
        <ele>-6.4</ele>
        <time>2021-07-20T14:31:43Z</time>
      </trkpt>
      <trkpt lat="43.5556790" lon="-5.8980780">
        <ele>-6.4</ele>
        <time>2021-07-20T14:31:44Z</time>
      </trkpt>
      <trkpt lat="43.5556610" lon="-5.8979900">
        <ele>-6.4</ele>
        <time>2021-07-20T14:31:47Z</time>
      </trkpt>
      <trkpt lat="43.5556490" lon="-5.8979740">
        <ele>-6.4</ele>
        <time>2021-07-20T14:31:49Z</time>
      </trkpt>
      <trkpt lat="43.5556520" lon="-5.8979750">
        <ele>-6.4</ele>
        <time>2021-07-20T14:31:50Z</time>
      </trkpt>
      <trkpt lat="43.5556820" lon="-5.8979640">
        <ele>-6.4</ele>
        <time>2021-07-20T14:32:04Z</time>
      </trkpt>
      <trkpt lat="43.5557050" lon="-5.8980090">
        <ele>-6.4</ele>
        <time>2021-07-20T14:32:06Z</time>
      </trkpt>
      <trkpt lat="43.5557090" lon="-5.8982400">
        <ele>-6.4</ele>
        <time>2021-07-20T14:32:11Z</time>
      </trkpt>
      <trkpt lat="43.5557020" lon="-5.8982840">
        <ele>-6.4</ele>
        <time>2021-07-20T14:32:12Z</time>
      </trkpt>
      <trkpt lat="43.5556590" lon="-5.8983650">
        <ele>-6.4</ele>
        <time>2021-07-20T14:32:15Z</time>
      </trkpt>
      <trkpt lat="43.5556390" lon="-5.8983710">
        <ele>-6.4</ele>
        <time>2021-07-20T14:32:16Z</time>
      </trkpt>
      <trkpt lat="43.5555720" lon="-5.8983760">
        <ele>-6.8</ele>
        <time>2021-07-20T14:32:18Z</time>
      </trkpt>
      <trkpt lat="43.5555440" lon="-5.8983770">
        <ele>-7.2</ele>
        <time>2021-07-20T14:32:19Z</time>
      </trkpt>
      <trkpt lat="43.5555190" lon="-5.8983790">
        <ele>-7.6</ele>
        <time>2021-07-20T14:32:20Z</time>
      </trkpt>
      <trkpt lat="43.5554940" lon="-5.8983850">
        <ele>-8.0</ele>
        <time>2021-07-20T14:32:21Z</time>
      </trkpt>
      <trkpt lat="43.5554690" lon="-5.8983810">
        <ele>-8.4</ele>
        <time>2021-07-20T14:32:22Z</time>
      </trkpt>
      <trkpt lat="43.5553400" lon="-5.8983670">
        <ele>-8.4</ele>
        <time>2021-07-20T14:32:26Z</time>
      </trkpt>
      <trkpt lat="43.5551080" lon="-5.8984050">
        <ele>-8.4</ele>
        <time>2021-07-20T14:32:32Z</time>
      </trkpt>
      <trkpt lat="43.5548770" lon="-5.8984110">
        <ele>-8.4</ele>
        <time>2021-07-20T14:32:38Z</time>
      </trkpt>
      <trkpt lat="43.5547920" lon="-5.8984000">
        <ele>-8.4</ele>
        <time>2021-07-20T14:32:41Z</time>
      </trkpt>
      <trkpt lat="43.5547740" lon="-5.8983770">
        <ele>-8.4</ele>
        <time>2021-07-20T14:32:42Z</time>
      </trkpt>
      <trkpt lat="43.5548000" lon="-5.8983160">
        <ele>-8.4</ele>
        <time>2021-07-20T14:32:45Z</time>
      </trkpt>
      <trkpt lat="43.5548890" lon="-5.8983460">
        <ele>-8.4</ele>
        <time>2021-07-20T14:32:48Z</time>
      </trkpt>
      <trkpt lat="43.5549970" lon="-5.8983750">
        <ele>-8.4</ele>
        <time>2021-07-20T14:32:51Z</time>
      </trkpt>
      <trkpt lat="43.5550350" lon="-5.8983830">
        <ele>-8.4</ele>
        <time>2021-07-20T14:32:52Z</time>
      </trkpt>
      <trkpt lat="43.5551150" lon="-5.8983970">
        <ele>-8.4</ele>
        <time>2021-07-20T14:32:54Z</time>
      </trkpt>
      <trkpt lat="43.5552710" lon="-5.8984190">
        <ele>-8.4</ele>
        <time>2021-07-20T14:32:58Z</time>
      </trkpt>
      <trkpt lat="43.5553950" lon="-5.8984280">
        <ele>-8.4</ele>
        <time>2021-07-20T14:33:01Z</time>
      </trkpt>
      <trkpt lat="43.5555120" lon="-5.8983940">
        <ele>-8.4</ele>
        <time>2021-07-20T14:33:04Z</time>
      </trkpt>
      <trkpt lat="43.5555850" lon="-5.8983400">
        <ele>-8.4</ele>
        <time>2021-07-20T14:33:06Z</time>
      </trkpt>
      <trkpt lat="43.5556280" lon="-5.8981970">
        <ele>-8.4</ele>
        <time>2021-07-20T14:33:09Z</time>
      </trkpt>
      <trkpt lat="43.5556360" lon="-5.8981510">
        <ele>-8.4</ele>
        <time>2021-07-20T14:33:10Z</time>
      </trkpt>
      <trkpt lat="43.5556510" lon="-5.8980670">
        <ele>-8.0</ele>
        <time>2021-07-20T14:33:12Z</time>
      </trkpt>
      <trkpt lat="43.5556520" lon="-5.8980270">
        <ele>-7.6</ele>
        <time>2021-07-20T14:33:13Z</time>
      </trkpt>
      <trkpt lat="43.5556530" lon="-5.8979950">
        <ele>-7.0</ele>
        <time>2021-07-20T14:33:14Z</time>
      </trkpt>
      <trkpt lat="43.5556420" lon="-5.8979720">
        <ele>-6.6</ele>
        <time>2021-07-20T14:33:15Z</time>
      </trkpt>
      <trkpt lat="43.5556190" lon="-5.8979530">
        <ele>-6.2</ele>
        <time>2021-07-20T14:33:16Z</time>
      </trkpt>
      <trkpt lat="43.5555390" lon="-5.8979200">
        <ele>-6.2</ele>
        <time>2021-07-20T14:33:19Z</time>
      </trkpt>
      <trkpt lat="43.5554740" lon="-5.8979120">
        <ele>-6.2</ele>
        <time>2021-07-20T14:33:21Z</time>
      </trkpt>
      <trkpt lat="43.5554040" lon="-5.8979050">
        <ele>-5.8</ele>
        <time>2021-07-20T14:33:23Z</time>
      </trkpt>
      <trkpt lat="43.5553690" lon="-5.8978990">
        <ele>-5.0</ele>
        <time>2021-07-20T14:33:24Z</time>
      </trkpt>
      <trkpt lat="43.5553320" lon="-5.8978960">
        <ele>-4.6</ele>
        <time>2021-07-20T14:33:25Z</time>
      </trkpt>
      <trkpt lat="43.5552960" lon="-5.8978930">
        <ele>-4.2</ele>
        <time>2021-07-20T14:33:26Z</time>
      </trkpt>
      <trkpt lat="43.5551950" lon="-5.8978720">
        <ele>-4.2</ele>
        <time>2021-07-20T14:33:29Z</time>
      </trkpt>
      <trkpt lat="43.5549220" lon="-5.8978140">
        <ele>-4.2</ele>
        <time>2021-07-20T14:33:36Z</time>
      </trkpt>
      <trkpt lat="43.5545820" lon="-5.8977810">
        <ele>-4.2</ele>
        <time>2021-07-20T14:33:44Z</time>
      </trkpt>
      <trkpt lat="43.5542850" lon="-5.8977530">
        <ele>-4.2</ele>
        <time>2021-07-20T14:33:51Z</time>
      </trkpt>
      <trkpt lat="43.5540470" lon="-5.8977540">
        <ele>-4.2</ele>
        <time>2021-07-20T14:33:57Z</time>
      </trkpt>
      <trkpt lat="43.5539810" lon="-5.8977850">
        <ele>-4.2</ele>
        <time>2021-07-20T14:33:59Z</time>
      </trkpt>
      <trkpt lat="43.5539260" lon="-5.8978130">
        <ele>-4.2</ele>
        <time>2021-07-20T14:34:01Z</time>
      </trkpt>
      <trkpt lat="43.5538410" lon="-5.8978670">
        <ele>-4.2</ele>
        <time>2021-07-20T14:34:04Z</time>
      </trkpt>
      <trkpt lat="43.5537810" lon="-5.8979250">
        <ele>-4.2</ele>
        <time>2021-07-20T14:34:06Z</time>
      </trkpt>
      <trkpt lat="43.5537230" lon="-5.8979990">
        <ele>-4.2</ele>
        <time>2021-07-20T14:34:08Z</time>
      </trkpt>
      <trkpt lat="43.5536940" lon="-5.8980370">
        <ele>-4.2</ele>
        <time>2021-07-20T14:34:09Z</time>
      </trkpt>
      <trkpt lat="43.5536420" lon="-5.8981220">
        <ele>-4.2</ele>
        <time>2021-07-20T14:34:11Z</time>
      </trkpt>
      <trkpt lat="43.5535890" lon="-5.8981960">
        <ele>-4.2</ele>
        <time>2021-07-20T14:34:13Z</time>
      </trkpt>
      <trkpt lat="43.5534460" lon="-5.8984090">
        <ele>-4.2</ele>
        <time>2021-07-20T14:34:18Z</time>
      </trkpt>
      <trkpt lat="43.5534190" lon="-5.8984480">
        <ele>-4.6</ele>
        <time>2021-07-20T14:34:19Z</time>
      </trkpt>
      <trkpt lat="43.5533950" lon="-5.8984800">
        <ele>-5.0</ele>
        <time>2021-07-20T14:34:20Z</time>
      </trkpt>
      <trkpt lat="43.5533740" lon="-5.8985160">
        <ele>-5.4</ele>
        <time>2021-07-20T14:34:21Z</time>
      </trkpt>
      <trkpt lat="43.5533500" lon="-5.8985480">
        <ele>-5.8</ele>
        <time>2021-07-20T14:34:22Z</time>
      </trkpt>
      <trkpt lat="43.5533250" lon="-5.8985800">
        <ele>-6.2</ele>
        <time>2021-07-20T14:34:23Z</time>
      </trkpt>
      <trkpt lat="43.5532760" lon="-5.8986450">
        <ele>-6.2</ele>
        <time>2021-07-20T14:34:25Z</time>
      </trkpt>
      <trkpt lat="43.5531750" lon="-5.8987340">
        <ele>-6.2</ele>
        <time>2021-07-20T14:34:28Z</time>
      </trkpt>
      <trkpt lat="43.5531320" lon="-5.8987440">
        <ele>-6.2</ele>
        <time>2021-07-20T14:34:29Z</time>
      </trkpt>
      <trkpt lat="43.5531000" lon="-5.8987510">
        <ele>-6.6</ele>
        <time>2021-07-20T14:34:30Z</time>
      </trkpt>
      <trkpt lat="43.5530730" lon="-5.8987630">
        <ele>-7.0</ele>
        <time>2021-07-20T14:34:31Z</time>
      </trkpt>
      <trkpt lat="43.5530450" lon="-5.8987690">
        <ele>-7.4</ele>
        <time>2021-07-20T14:34:32Z</time>
      </trkpt>
      <trkpt lat="43.5530100" lon="-5.8987710">
        <ele>-8.0</ele>
        <time>2021-07-20T14:34:33Z</time>
      </trkpt>
      <trkpt lat="43.5529730" lon="-5.8987770">
        <ele>-8.4</ele>
        <time>2021-07-20T14:34:34Z</time>
      </trkpt>
      <trkpt lat="43.5528930" lon="-5.8987690">
        <ele>-8.4</ele>
        <time>2021-07-20T14:34:36Z</time>
      </trkpt>
      <trkpt lat="43.5527530" lon="-5.8987770">
        <ele>-8.4</ele>
        <time>2021-07-20T14:34:40Z</time>
      </trkpt>
      <trkpt lat="43.5526290" lon="-5.8989420">
        <ele>-8.4</ele>
        <time>2021-07-20T14:34:44Z</time>
      </trkpt>
      <trkpt lat="43.5526030" lon="-5.8990560">
        <ele>-8.4</ele>
        <time>2021-07-20T14:34:46Z</time>
      </trkpt>
      <trkpt lat="43.5525940" lon="-5.8992190">
        <ele>-8.4</ele>
        <time>2021-07-20T14:34:49Z</time>
      </trkpt>
      <trkpt lat="43.5525900" lon="-5.8994570">
        <ele>-8.4</ele>
        <time>2021-07-20T14:34:53Z</time>
      </trkpt>
      <trkpt lat="43.5526080" lon="-5.8996280">
        <ele>-8.4</ele>
        <time>2021-07-20T14:34:56Z</time>
      </trkpt>
      <trkpt lat="43.5526520" lon="-5.8999620">
        <ele>-8.4</ele>
        <time>2021-07-20T14:35:02Z</time>
      </trkpt>
      <trkpt lat="43.5526640" lon="-5.9000780">
        <ele>-8.4</ele>
        <time>2021-07-20T14:35:04Z</time>
      </trkpt>
      <trkpt lat="43.5526800" lon="-5.9003120">
        <ele>-8.4</ele>
        <time>2021-07-20T14:35:08Z</time>
      </trkpt>
      <trkpt lat="43.5526960" lon="-5.9004700">
        <ele>-8.4</ele>
        <time>2021-07-20T14:35:11Z</time>
      </trkpt>
      <trkpt lat="43.5527270" lon="-5.9007960">
        <ele>-8.4</ele>
        <time>2021-07-20T14:35:17Z</time>
      </trkpt>
      <trkpt lat="43.5527250" lon="-5.9008540">
        <ele>-8.4</ele>
        <time>2021-07-20T14:35:18Z</time>
      </trkpt>
      <trkpt lat="43.5527320" lon="-5.9009100">
        <ele>-8.4</ele>
        <time>2021-07-20T14:35:19Z</time>
      </trkpt>
      <trkpt lat="43.5527580" lon="-5.9010770">
        <ele>-8.4</ele>
        <time>2021-07-20T14:35:22Z</time>
      </trkpt>
      <trkpt lat="43.5527600" lon="-5.9012460">
        <ele>-8.4</ele>
        <time>2021-07-20T14:35:25Z</time>
      </trkpt>
      <trkpt lat="43.5527380" lon="-5.9018300">
        <ele>-8.4</ele>
        <time>2021-07-20T14:35:35Z</time>
      </trkpt>
      <trkpt lat="43.5527260" lon="-5.9019410">
        <ele>-8.4</ele>
        <time>2021-07-20T14:35:37Z</time>
      </trkpt>
      <trkpt lat="43.5526840" lon="-5.9023780">
        <ele>-8.4</ele>
        <time>2021-07-20T14:35:45Z</time>
      </trkpt>
      <trkpt lat="43.5526800" lon="-5.9024330">
        <ele>-8.4</ele>
        <time>2021-07-20T14:35:46Z</time>
      </trkpt>
      <trkpt lat="43.5526350" lon="-5.9028890">
        <ele>-8.4</ele>
        <time>2021-07-20T14:35:54Z</time>
      </trkpt>
      <trkpt lat="43.5526050" lon="-5.9032680">
        <ele>-8.4</ele>
        <time>2021-07-20T14:36:01Z</time>
      </trkpt>
      <trkpt lat="43.5525630" lon="-5.9035750">
        <ele>-8.4</ele>
        <time>2021-07-20T14:36:07Z</time>
      </trkpt>
      <trkpt lat="43.5525450" lon="-5.9037740">
        <ele>-7.8</ele>
        <time>2021-07-20T14:36:11Z</time>
      </trkpt>
      <trkpt lat="43.5525410" lon="-5.9038270">
        <ele>-7.4</ele>
        <time>2021-07-20T14:36:12Z</time>
      </trkpt>
      <trkpt lat="43.5525420" lon="-5.9038800">
        <ele>-7.0</ele>
        <time>2021-07-20T14:36:13Z</time>
      </trkpt>
      <trkpt lat="43.5525450" lon="-5.9039280">
        <ele>-6.6</ele>
        <time>2021-07-20T14:36:14Z</time>
      </trkpt>
      <trkpt lat="43.5525360" lon="-5.9039850">
        <ele>-6.2</ele>
        <time>2021-07-20T14:36:15Z</time>
      </trkpt>
      <trkpt lat="43.5524860" lon="-5.9044260">
        <ele>-6.2</ele>
        <time>2021-07-20T14:36:23Z</time>
      </trkpt>
      <trkpt lat="43.5524560" lon="-5.9047770">
        <ele>-6.2</ele>
        <time>2021-07-20T14:36:30Z</time>
      </trkpt>
      <trkpt lat="43.5524240" lon="-5.9050940">
        <ele>-6.2</ele>
        <time>2021-07-20T14:36:36Z</time>
      </trkpt>
      <trkpt lat="43.5523750" lon="-5.9056190">
        <ele>-6.2</ele>
        <time>2021-07-20T14:36:45Z</time>
      </trkpt>
      <trkpt lat="43.5523290" lon="-5.9060680">
        <ele>-6.2</ele>
        <time>2021-07-20T14:36:53Z</time>
      </trkpt>
      <trkpt lat="43.5522990" lon="-5.9063970">
        <ele>-6.2</ele>
        <time>2021-07-20T14:36:59Z</time>
      </trkpt>
      <trkpt lat="43.5522850" lon="-5.9065650">
        <ele>-5.8</ele>
        <time>2021-07-20T14:37:02Z</time>
      </trkpt>
      <trkpt lat="43.5522790" lon="-5.9066250">
        <ele>-5.4</ele>
        <time>2021-07-20T14:37:03Z</time>
      </trkpt>
      <trkpt lat="43.5522750" lon="-5.9066860">
        <ele>-5.0</ele>
        <time>2021-07-20T14:37:04Z</time>
      </trkpt>
      <trkpt lat="43.5522700" lon="-5.9067450">
        <ele>-4.6</ele>
        <time>2021-07-20T14:37:05Z</time>
      </trkpt>
      <trkpt lat="43.5522650" lon="-5.9068080">
        <ele>-4.2</ele>
        <time>2021-07-20T14:37:06Z</time>
      </trkpt>
      <trkpt lat="43.5522490" lon="-5.9069330">
        <ele>-4.2</ele>
        <time>2021-07-20T14:37:08Z</time>
      </trkpt>
      <trkpt lat="43.5522090" lon="-5.9073420">
        <ele>-4.2</ele>
        <time>2021-07-20T14:37:15Z</time>
      </trkpt>
      <trkpt lat="43.5521880" lon="-5.9078380">
        <ele>-4.2</ele>
        <time>2021-07-20T14:37:23Z</time>
      </trkpt>
      <trkpt lat="43.5521800" lon="-5.9080800">
        <ele>-4.2</ele>
        <time>2021-07-20T14:37:27Z</time>
      </trkpt>
      <trkpt lat="43.5521800" lon="-5.9082620">
        <ele>-4.2</ele>
        <time>2021-07-20T14:37:30Z</time>
      </trkpt>
      <trkpt lat="43.5521770" lon="-5.9083830">
        <ele>-4.2</ele>
        <time>2021-07-20T14:37:32Z</time>
      </trkpt>
      <trkpt lat="43.5521740" lon="-5.9085080">
        <ele>-4.2</ele>
        <time>2021-07-20T14:37:34Z</time>
      </trkpt>
      <trkpt lat="43.5521800" lon="-5.9086340">
        <ele>-4.2</ele>
        <time>2021-07-20T14:37:36Z</time>
      </trkpt>
      <trkpt lat="43.5521890" lon="-5.9087480">
        <ele>-4.2</ele>
        <time>2021-07-20T14:37:38Z</time>
      </trkpt>
      <trkpt lat="43.5521920" lon="-5.9087970">
        <ele>-4.6</ele>
        <time>2021-07-20T14:37:39Z</time>
      </trkpt>
      <trkpt lat="43.5521970" lon="-5.9088300">
        <ele>-5.0</ele>
        <time>2021-07-20T14:37:40Z</time>
      </trkpt>
      <trkpt lat="43.5521950" lon="-5.9088430">
        <ele>-5.4</ele>
        <time>2021-07-20T14:37:41Z</time>
      </trkpt>
      <trkpt lat="43.5521950" lon="-5.9088380">
        <ele>-5.8</ele>
        <time>2021-07-20T14:37:42Z</time>
      </trkpt>
      <trkpt lat="43.5521940" lon="-5.9088420">
        <ele>-6.2</ele>
        <time>2021-07-20T14:37:43Z</time>
      </trkpt>
      <trkpt lat="43.5521920" lon="-5.9089050">
        <ele>-6.2</ele>
        <time>2021-07-20T14:38:17Z</time>
      </trkpt>
      <trkpt lat="43.5521870" lon="-5.9089330">
        <ele>-6.2</ele>
        <time>2021-07-20T14:38:18Z</time>
      </trkpt>
      <trkpt lat="43.5521870" lon="-5.9090140">
        <ele>-6.2</ele>
        <time>2021-07-20T14:38:20Z</time>
      </trkpt>
      <trkpt lat="43.5521850" lon="-5.9091320">
        <ele>-6.2</ele>
        <time>2021-07-20T14:38:22Z</time>
      </trkpt>
      <trkpt lat="43.5521930" lon="-5.9094390">
        <ele>-6.2</ele>
        <time>2021-07-20T14:38:27Z</time>
      </trkpt>
      <trkpt lat="43.5521920" lon="-5.9096140">
        <ele>-6.2</ele>
        <time>2021-07-20T14:38:30Z</time>
      </trkpt>
      <trkpt lat="43.5521980" lon="-5.9097250">
        <ele>-6.2</ele>
        <time>2021-07-20T14:38:32Z</time>
      </trkpt>
      <trkpt lat="43.5521950" lon="-5.9098290">
        <ele>-6.2</ele>
        <time>2021-07-20T14:38:34Z</time>
      </trkpt>
      <trkpt lat="43.5521970" lon="-5.9099260">
        <ele>-6.2</ele>
        <time>2021-07-20T14:38:36Z</time>
      </trkpt>
      <trkpt lat="43.5521960" lon="-5.9100210">
        <ele>-5.8</ele>
        <time>2021-07-20T14:38:38Z</time>
      </trkpt>
      <trkpt lat="43.5521940" lon="-5.9100690">
        <ele>-5.2</ele>
        <time>2021-07-20T14:38:39Z</time>
      </trkpt>
      <trkpt lat="43.5521980" lon="-5.9101220">
        <ele>-4.8</ele>
        <time>2021-07-20T14:38:40Z</time>
      </trkpt>
      <trkpt lat="43.5522010" lon="-5.9101690">
        <ele>-4.4</ele>
        <time>2021-07-20T14:38:41Z</time>
      </trkpt>
      <trkpt lat="43.5522100" lon="-5.9102140">
        <ele>-4.0</ele>
        <time>2021-07-20T14:38:42Z</time>
      </trkpt>
      <trkpt lat="43.5522640" lon="-5.9103460">
        <ele>-4.0</ele>
        <time>2021-07-20T14:38:45Z</time>
      </trkpt>
      <trkpt lat="43.5522890" lon="-5.9103870">
        <ele>-3.6</ele>
        <time>2021-07-20T14:38:46Z</time>
      </trkpt>
      <trkpt lat="43.5523160" lon="-5.9104260">
        <ele>-3.2</ele>
        <time>2021-07-20T14:38:47Z</time>
      </trkpt>
      <trkpt lat="43.5523470" lon="-5.9104580">
        <ele>-2.8</ele>
        <time>2021-07-20T14:38:48Z</time>
      </trkpt>
      <trkpt lat="43.5523790" lon="-5.9104870">
        <ele>-2.4</ele>
        <time>2021-07-20T14:38:49Z</time>
      </trkpt>
      <trkpt lat="43.5524160" lon="-5.9105090">
        <ele>-2.0</ele>
        <time>2021-07-20T14:38:50Z</time>
      </trkpt>
      <trkpt lat="43.5524520" lon="-5.9105290">
        <ele>-2.0</ele>
        <time>2021-07-20T14:38:51Z</time>
      </trkpt>
      <trkpt lat="43.5527410" lon="-5.9106490">
        <ele>-2.0</ele>
        <time>2021-07-20T14:38:58Z</time>
      </trkpt>
      <trkpt lat="43.5527840" lon="-5.9106800">
        <ele>-2.0</ele>
        <time>2021-07-20T14:38:59Z</time>
      </trkpt>
      <trkpt lat="43.5530460" lon="-5.9109870">
        <ele>-2.0</ele>
        <time>2021-07-20T14:39:06Z</time>
      </trkpt>
      <trkpt lat="43.5531260" lon="-5.9111740">
        <ele>-2.0</ele>
        <time>2021-07-20T14:39:09Z</time>
      </trkpt>
      <trkpt lat="43.5531920" lon="-5.9113970">
        <ele>-2.0</ele>
        <time>2021-07-20T14:39:12Z</time>
      </trkpt>
      <trkpt lat="43.5532390" lon="-5.9115700">
        <ele>-2.4</ele>
        <time>2021-07-20T14:39:14Z</time>
      </trkpt>
      <trkpt lat="43.5532610" lon="-5.9116590">
        <ele>-2.8</ele>
        <time>2021-07-20T14:39:15Z</time>
      </trkpt>
      <trkpt lat="43.5532840" lon="-5.9117500">
        <ele>-3.2</ele>
        <time>2021-07-20T14:39:16Z</time>
      </trkpt>
      <trkpt lat="43.5533060" lon="-5.9118380">
        <ele>-3.6</ele>
        <time>2021-07-20T14:39:17Z</time>
      </trkpt>
      <trkpt lat="43.5533280" lon="-5.9119310">
        <ele>-4.0</ele>
        <time>2021-07-20T14:39:18Z</time>
      </trkpt>
      <trkpt lat="43.5533530" lon="-5.9120240">
        <ele>-4.4</ele>
        <time>2021-07-20T14:39:19Z</time>
      </trkpt>
      <trkpt lat="43.5533760" lon="-5.9121150">
        <ele>-5.0</ele>
        <time>2021-07-20T14:39:20Z</time>
      </trkpt>
      <trkpt lat="43.5534010" lon="-5.9122150">
        <ele>-5.4</ele>
        <time>2021-07-20T14:39:21Z</time>
      </trkpt>
      <trkpt lat="43.5534250" lon="-5.9123100">
        <ele>-5.8</ele>
        <time>2021-07-20T14:39:22Z</time>
      </trkpt>
      <trkpt lat="43.5534490" lon="-5.9124060">
        <ele>-6.2</ele>
        <time>2021-07-20T14:39:23Z</time>
      </trkpt>
      <trkpt lat="43.5535030" lon="-5.9125910">
        <ele>-6.2</ele>
        <time>2021-07-20T14:39:25Z</time>
      </trkpt>
      <trkpt lat="43.5535510" lon="-5.9127750">
        <ele>-6.2</ele>
        <time>2021-07-20T14:39:27Z</time>
      </trkpt>
      <trkpt lat="43.5535960" lon="-5.9129480">
        <ele>-6.2</ele>
        <time>2021-07-20T14:39:29Z</time>
      </trkpt>
      <trkpt lat="43.5536390" lon="-5.9131160">
        <ele>-6.2</ele>
        <time>2021-07-20T14:39:31Z</time>
      </trkpt>
      <trkpt lat="43.5536810" lon="-5.9132660">
        <ele>-6.2</ele>
        <time>2021-07-20T14:39:33Z</time>
      </trkpt>
      <trkpt lat="43.5538240" lon="-5.9137030">
        <ele>-6.2</ele>
        <time>2021-07-20T14:39:40Z</time>
      </trkpt>
      <trkpt lat="43.5539180" lon="-5.9139950">
        <ele>-6.2</ele>
        <time>2021-07-20T14:39:45Z</time>
      </trkpt>
      <trkpt lat="43.5539750" lon="-5.9141620">
        <ele>-6.2</ele>
        <time>2021-07-20T14:39:48Z</time>
      </trkpt>
      <trkpt lat="43.5540780" lon="-5.9144320">
        <ele>-6.2</ele>
        <time>2021-07-20T14:39:53Z</time>
      </trkpt>
      <trkpt lat="43.5541650" lon="-5.9146250">
        <ele>-6.2</ele>
        <time>2021-07-20T14:39:57Z</time>
      </trkpt>
      <trkpt lat="43.5542400" lon="-5.9147750">
        <ele>-6.2</ele>
        <time>2021-07-20T14:40:01Z</time>
      </trkpt>
      <trkpt lat="43.5542780" lon="-5.9148480">
        <ele>-6.2</ele>
        <time>2021-07-20T14:40:03Z</time>
      </trkpt>
      <trkpt lat="43.5543680" lon="-5.9150680">
        <ele>-6.2</ele>
        <time>2021-07-20T14:40:09Z</time>
      </trkpt>
      <trkpt lat="43.5544120" lon="-5.9151490">
        <ele>-6.2</ele>
        <time>2021-07-20T14:40:12Z</time>
      </trkpt>
      <trkpt lat="43.5544780" lon="-5.9152720">
        <ele>-6.2</ele>
        <time>2021-07-20T14:40:16Z</time>
      </trkpt>
      <trkpt lat="43.5545970" lon="-5.9154790">
        <ele>-6.2</ele>
        <time>2021-07-20T14:40:21Z</time>
      </trkpt>
      <trkpt lat="43.5546840" lon="-5.9156290">
        <ele>-6.2</ele>
        <time>2021-07-20T14:40:24Z</time>
      </trkpt>
      <trkpt lat="43.5548100" lon="-5.9158180">
        <ele>-6.2</ele>
        <time>2021-07-20T14:40:28Z</time>
      </trkpt>
      <trkpt lat="43.5548770" lon="-5.9159190">
        <ele>-6.2</ele>
        <time>2021-07-20T14:40:30Z</time>
      </trkpt>
      <trkpt lat="43.5550490" lon="-5.9161520">
        <ele>-6.2</ele>
        <time>2021-07-20T14:40:35Z</time>
      </trkpt>
      <trkpt lat="43.5552000" lon="-5.9163390">
        <ele>-6.2</ele>
        <time>2021-07-20T14:40:39Z</time>
      </trkpt>
      <trkpt lat="43.5552790" lon="-5.9164330">
        <ele>-6.2</ele>
        <time>2021-07-20T14:40:41Z</time>
      </trkpt>
      <trkpt lat="43.5556500" lon="-5.9168660">
        <ele>-6.2</ele>
        <time>2021-07-20T14:40:50Z</time>
      </trkpt>
      <trkpt lat="43.5560700" lon="-5.9173530">
        <ele>-6.2</ele>
        <time>2021-07-20T14:41:00Z</time>
      </trkpt>
      <trkpt lat="43.5563640" lon="-5.9176930">
        <ele>-6.2</ele>
        <time>2021-07-20T14:41:08Z</time>
      </trkpt>
      <trkpt lat="43.5566260" lon="-5.9180400">
        <ele>-6.2</ele>
        <time>2021-07-20T14:41:16Z</time>
      </trkpt>
      <trkpt lat="43.5567400" lon="-5.9182060">
        <ele>-6.2</ele>
        <time>2021-07-20T14:41:20Z</time>
      </trkpt>
      <trkpt lat="43.5568370" lon="-5.9183910">
        <ele>-6.2</ele>
        <time>2021-07-20T14:41:24Z</time>
      </trkpt>
      <trkpt lat="43.5569510" lon="-5.9186300">
        <ele>-6.2</ele>
        <time>2021-07-20T14:41:29Z</time>
      </trkpt>
      <trkpt lat="43.5569940" lon="-5.9187330">
        <ele>-6.2</ele>
        <time>2021-07-20T14:41:31Z</time>
      </trkpt>
      <trkpt lat="43.5571730" lon="-5.9191930">
        <ele>-6.2</ele>
        <time>2021-07-20T14:41:39Z</time>
      </trkpt>
      <trkpt lat="43.5572960" lon="-5.9194890">
        <ele>-6.2</ele>
        <time>2021-07-20T14:41:44Z</time>
      </trkpt>
      <trkpt lat="43.5573590" lon="-5.9196100">
        <ele>-6.2</ele>
        <time>2021-07-20T14:41:46Z</time>
      </trkpt>
      <trkpt lat="43.5575590" lon="-5.9198810">
        <ele>-6.2</ele>
        <time>2021-07-20T14:41:51Z</time>
      </trkpt>
      <trkpt lat="43.5576010" lon="-5.9199250">
        <ele>-6.2</ele>
        <time>2021-07-20T14:41:52Z</time>
      </trkpt>
      <trkpt lat="43.5576870" lon="-5.9200090">
        <ele>-6.2</ele>
        <time>2021-07-20T14:41:54Z</time>
      </trkpt>
      <trkpt lat="43.5577730" lon="-5.9200860">
        <ele>-6.2</ele>
        <time>2021-07-20T14:41:56Z</time>
      </trkpt>
      <trkpt lat="43.5579630" lon="-5.9202420">
        <ele>-6.2</ele>
        <time>2021-07-20T14:42:00Z</time>
      </trkpt>
      <trkpt lat="43.5582670" lon="-5.9204800">
        <ele>-6.6</ele>
        <time>2021-07-20T14:42:06Z</time>
      </trkpt>
      <trkpt lat="43.5583200" lon="-5.9205210">
        <ele>-7.2</ele>
        <time>2021-07-20T14:42:07Z</time>
      </trkpt>
      <trkpt lat="43.5583700" lon="-5.9205590">
        <ele>-7.6</ele>
        <time>2021-07-20T14:42:08Z</time>
      </trkpt>
      <trkpt lat="43.5584200" lon="-5.9205970">
        <ele>-8.0</ele>
        <time>2021-07-20T14:42:09Z</time>
      </trkpt>
      <trkpt lat="43.5584690" lon="-5.9206340">
        <ele>-8.4</ele>
        <time>2021-07-20T14:42:10Z</time>
      </trkpt>
      <trkpt lat="43.5586830" lon="-5.9207760">
        <ele>-8.4</ele>
        <time>2021-07-20T14:42:14Z</time>
      </trkpt>
      <trkpt lat="43.5587340" lon="-5.9208080">
        <ele>-8.4</ele>
        <time>2021-07-20T14:42:15Z</time>
      </trkpt>
      <trkpt lat="43.5590180" lon="-5.9209670">
        <ele>-8.4</ele>
        <time>2021-07-20T14:42:21Z</time>
      </trkpt>
      <trkpt lat="43.5590650" lon="-5.9209890">
        <ele>-8.4</ele>
        <time>2021-07-20T14:42:22Z</time>
      </trkpt>
      <trkpt lat="43.5593950" lon="-5.9211230">
        <ele>-8.4</ele>
        <time>2021-07-20T14:42:30Z</time>
      </trkpt>
      <trkpt lat="43.5594730" lon="-5.9211110">
        <ele>-8.4</ele>
        <time>2021-07-20T14:42:32Z</time>
      </trkpt>
      <trkpt lat="43.5595160" lon="-5.9211180">
        <ele>-8.8</ele>
        <time>2021-07-20T14:42:33Z</time>
      </trkpt>
      <trkpt lat="43.5595520" lon="-5.9211270">
        <ele>-9.2</ele>
        <time>2021-07-20T14:42:34Z</time>
      </trkpt>
      <trkpt lat="43.5595770" lon="-5.9211380">
        <ele>-9.6</ele>
        <time>2021-07-20T14:42:35Z</time>
      </trkpt>
      <trkpt lat="43.5595900" lon="-5.9211470">
        <ele>-10.0</ele>
        <time>2021-07-20T14:42:36Z</time>
      </trkpt>
      <trkpt lat="43.5595930" lon="-5.9211500">
        <ele>-10.6</ele>
        <time>2021-07-20T14:42:37Z</time>
      </trkpt>
      <trkpt lat="43.5595820" lon="-5.9212390">
        <ele>-10.6</ele>
        <time>2021-07-20T14:46:46Z</time>
      </trkpt>
      <trkpt lat="43.5595780" lon="-5.9212860">
        <ele>-10.6</ele>
        <time>2021-07-20T14:46:48Z</time>
      </trkpt>
      <trkpt lat="43.5595790" lon="-5.9213430">
        <ele>-10.6</ele>
        <time>2021-07-20T14:46:51Z</time>
      </trkpt>
      <trkpt lat="43.5595820" lon="-5.9213680">
        <ele>-10.6</ele>
        <time>2021-07-20T14:46:53Z</time>
      </trkpt>
      <trkpt lat="43.5595790" lon="-5.9213800">
        <ele>-10.6</ele>
        <time>2021-07-20T14:46:54Z</time>
      </trkpt>
      <trkpt lat="43.5595620" lon="-5.9214140">
        <ele>-10.6</ele>
        <time>2021-07-20T14:46:58Z</time>
      </trkpt>
      <trkpt lat="43.5595560" lon="-5.9214410">
        <ele>-10.6</ele>
        <time>2021-07-20T14:47:00Z</time>
      </trkpt>
      <trkpt lat="43.5595240" lon="-5.9216100">
        <ele>-10.6</ele>
        <time>2021-07-20T14:47:06Z</time>
      </trkpt>
      <trkpt lat="43.5594950" lon="-5.9216670">
        <ele>-10.6</ele>
        <time>2021-07-20T14:47:08Z</time>
      </trkpt>
      <trkpt lat="43.5594750" lon="-5.9216760">
        <ele>-10.6</ele>
        <time>2021-07-20T14:47:09Z</time>
      </trkpt>
      <trkpt lat="43.5594410" lon="-5.9216630">
        <ele>-10.6</ele>
        <time>2021-07-20T14:47:11Z</time>
      </trkpt>
      <trkpt lat="43.5593850" lon="-5.9215990">
        <ele>-10.6</ele>
        <time>2021-07-20T14:47:15Z</time>
      </trkpt>
      <trkpt lat="43.5593660" lon="-5.9215740">
        <ele>-10.6</ele>
        <time>2021-07-20T14:47:16Z</time>
      </trkpt>
      <trkpt lat="43.5593050" lon="-5.9215190">
        <ele>-10.6</ele>
        <time>2021-07-20T14:47:19Z</time>
      </trkpt>
      <trkpt lat="43.5592980" lon="-5.9215230">
        <ele>-10.6</ele>
        <time>2021-07-20T14:47:20Z</time>
      </trkpt>
      <trkpt lat="43.5592950" lon="-5.9215220">
        <ele>-10.6</ele>
        <time>2021-07-20T14:47:21Z</time>
      </trkpt>
      <trkpt lat="43.5592770" lon="-5.9215440">
        <ele>-10.6</ele>
        <time>2021-07-20T14:47:48Z</time>
      </trkpt>
      <trkpt lat="43.5592660" lon="-5.9215700">
        <ele>-10.6</ele>
        <time>2021-07-20T14:47:49Z</time>
      </trkpt>
      <trkpt lat="43.5592540" lon="-5.9215970">
        <ele>-10.6</ele>
        <time>2021-07-20T14:47:50Z</time>
      </trkpt>
      <trkpt lat="43.5592200" lon="-5.9216810">
        <ele>-10.6</ele>
        <time>2021-07-20T14:47:53Z</time>
      </trkpt>
      <trkpt lat="43.5592120" lon="-5.9217450">
        <ele>-10.6</ele>
        <time>2021-07-20T14:47:55Z</time>
      </trkpt>
      <trkpt lat="43.5592190" lon="-5.9217780">
        <ele>-10.6</ele>
        <time>2021-07-20T14:47:56Z</time>
      </trkpt>
      <trkpt lat="43.5592330" lon="-5.9218120">
        <ele>-10.2</ele>
        <time>2021-07-20T14:47:57Z</time>
      </trkpt>
      <trkpt lat="43.5592460" lon="-5.9218410">
        <ele>-9.8</ele>
        <time>2021-07-20T14:47:58Z</time>
      </trkpt>
      <trkpt lat="43.5592600" lon="-5.9218730">
        <ele>-9.4</ele>
        <time>2021-07-20T14:47:59Z</time>
      </trkpt>
      <trkpt lat="43.5592720" lon="-5.9219060">
        <ele>-9.0</ele>
        <time>2021-07-20T14:48:00Z</time>
      </trkpt>
      <trkpt lat="43.5592780" lon="-5.9219390">
        <ele>-8.6</ele>
        <time>2021-07-20T14:48:01Z</time>
      </trkpt>
      <trkpt lat="43.5592470" lon="-5.9220580">
        <ele>-8.6</ele>
        <time>2021-07-20T14:48:05Z</time>
      </trkpt>
      <trkpt lat="43.5591790" lon="-5.9221450">
        <ele>-8.6</ele>
        <time>2021-07-20T14:48:09Z</time>
      </trkpt>
      <trkpt lat="43.5591540" lon="-5.9221590">
        <ele>-8.6</ele>
        <time>2021-07-20T14:48:10Z</time>
      </trkpt>
      <trkpt lat="43.5591200" lon="-5.9221870">
        <ele>-8.6</ele>
        <time>2021-07-20T14:48:14Z</time>
      </trkpt>
      <trkpt lat="43.5590970" lon="-5.9222100">
        <ele>-8.6</ele>
        <time>2021-07-20T14:48:21Z</time>
      </trkpt>
      <trkpt lat="43.5590400" lon="-5.9222470">
        <ele>-8.6</ele>
        <time>2021-07-20T14:48:23Z</time>
      </trkpt>
      <trkpt lat="43.5587950" lon="-5.9223330">
        <ele>-8.6</ele>
        <time>2021-07-20T14:48:29Z</time>
      </trkpt>
      <trkpt lat="43.5586790" lon="-5.9223680">
        <ele>-8.6</ele>
        <time>2021-07-20T14:48:32Z</time>
      </trkpt>
      <trkpt lat="43.5585670" lon="-5.9223640">
        <ele>-8.6</ele>
        <time>2021-07-20T14:48:35Z</time>
      </trkpt>
      <trkpt lat="43.5583370" lon="-5.9223810">
        <ele>-8.6</ele>
        <time>2021-07-20T14:48:41Z</time>
      </trkpt>
      <trkpt lat="43.5581340" lon="-5.9223440">
        <ele>-8.6</ele>
        <time>2021-07-20T14:48:47Z</time>
      </trkpt>
      <trkpt lat="43.5579530" lon="-5.9223160">
        <ele>-8.6</ele>
        <time>2021-07-20T14:48:53Z</time>
      </trkpt>
      <trkpt lat="43.5578380" lon="-5.9224170">
        <ele>-8.6</ele>
        <time>2021-07-20T14:48:57Z</time>
      </trkpt>
      <trkpt lat="43.5577080" lon="-5.9224660">
        <ele>-8.6</ele>
        <time>2021-07-20T14:49:01Z</time>
      </trkpt>
      <trkpt lat="43.5576820" lon="-5.9224970">
        <ele>-8.6</ele>
        <time>2021-07-20T14:49:02Z</time>
      </trkpt>
      <trkpt lat="43.5576340" lon="-5.9226130">
        <ele>-8.6</ele>
        <time>2021-07-20T14:49:05Z</time>
      </trkpt>
      <trkpt lat="43.5576240" lon="-5.9226500">
        <ele>-8.6</ele>
        <time>2021-07-20T14:49:06Z</time>
      </trkpt>
      <trkpt lat="43.5575240" lon="-5.9228410">
        <ele>-8.6</ele>
        <time>2021-07-20T14:49:12Z</time>
      </trkpt>
      <trkpt lat="43.5574760" lon="-5.9229280">
        <ele>-8.6</ele>
        <time>2021-07-20T14:49:16Z</time>
      </trkpt>
      <trkpt lat="43.5574550" lon="-5.9229430">
        <ele>-8.6</ele>
        <time>2021-07-20T14:49:19Z</time>
      </trkpt>
      <trkpt lat="43.5574530" lon="-5.9229440">
        <ele>-8.6</ele>
        <time>2021-07-20T14:49:21Z</time>
      </trkpt>
      <trkpt lat="43.5574170" lon="-5.9228770">
        <ele>-8.6</ele>
        <time>2021-07-20T14:49:27Z</time>
      </trkpt>
      <trkpt lat="43.5574300" lon="-5.9227940">
        <ele>-8.6</ele>
        <time>2021-07-20T14:49:29Z</time>
      </trkpt>
      <trkpt lat="43.5574580" lon="-5.9226980">
        <ele>-8.6</ele>
        <time>2021-07-20T14:49:31Z</time>
      </trkpt>
      <trkpt lat="43.5575000" lon="-5.9225710">
        <ele>-8.6</ele>
        <time>2021-07-20T14:49:34Z</time>
      </trkpt>
      <trkpt lat="43.5575310" lon="-5.9224640">
        <ele>-8.6</ele>
        <time>2021-07-20T14:49:37Z</time>
      </trkpt>
      <trkpt lat="43.5575240" lon="-5.9224240">
        <ele>-8.6</ele>
        <time>2021-07-20T14:49:39Z</time>
      </trkpt>
      <trkpt lat="43.5574270" lon="-5.9223990">
        <ele>-8.6</ele>
        <time>2021-07-20T14:49:44Z</time>
      </trkpt>
      <trkpt lat="43.5573650" lon="-5.9223860">
        <ele>-8.6</ele>
        <time>2021-07-20T14:49:46Z</time>
      </trkpt>
      <trkpt lat="43.5573140" lon="-5.9223750">
        <ele>-8.6</ele>
        <time>2021-07-20T14:49:48Z</time>
      </trkpt>
      <trkpt lat="43.5572640" lon="-5.9223580">
        <ele>-8.6</ele>
        <time>2021-07-20T14:49:50Z</time>
      </trkpt>
      <trkpt lat="43.5572150" lon="-5.9223150">
        <ele>-8.0</ele>
        <time>2021-07-20T14:49:52Z</time>
      </trkpt>
      <trkpt lat="43.5571920" lon="-5.9222950">
        <ele>-7.6</ele>
        <time>2021-07-20T14:49:53Z</time>
      </trkpt>
      <trkpt lat="43.5571660" lon="-5.9222770">
        <ele>-7.2</ele>
        <time>2021-07-20T14:49:54Z</time>
      </trkpt>
      <trkpt lat="43.5571480" lon="-5.9222710">
        <ele>-6.8</ele>
        <time>2021-07-20T14:49:55Z</time>
      </trkpt>
      <trkpt lat="43.5571210" lon="-5.9222650">
        <ele>-6.4</ele>
        <time>2021-07-20T14:49:56Z</time>
      </trkpt>
      <trkpt lat="43.5570620" lon="-5.9222560">
        <ele>-6.4</ele>
        <time>2021-07-20T14:49:58Z</time>
      </trkpt>
      <trkpt lat="43.5570360" lon="-5.9222590">
        <ele>-6.4</ele>
        <time>2021-07-20T14:49:59Z</time>
      </trkpt>
      <trkpt lat="43.5568880" lon="-5.9223220">
        <ele>-6.4</ele>
        <time>2021-07-20T14:50:05Z</time>
      </trkpt>
      <trkpt lat="43.5568200" lon="-5.9223270">
        <ele>-6.0</ele>
        <time>2021-07-20T14:50:08Z</time>
      </trkpt>
      <trkpt lat="43.5568000" lon="-5.9223340">
        <ele>-5.6</ele>
        <time>2021-07-20T14:50:09Z</time>
      </trkpt>
      <trkpt lat="43.5567820" lon="-5.9223390">
        <ele>-5.2</ele>
        <time>2021-07-20T14:50:10Z</time>
      </trkpt>
      <trkpt lat="43.5567630" lon="-5.9223390">
        <ele>-4.8</ele>
        <time>2021-07-20T14:50:11Z</time>
      </trkpt>
      <trkpt lat="43.5567440" lon="-5.9223470">
        <ele>-4.4</ele>
        <time>2021-07-20T14:50:12Z</time>
      </trkpt>
      <trkpt lat="43.5566020" lon="-5.9223300">
        <ele>-4.4</ele>
        <time>2021-07-20T14:50:15Z</time>
      </trkpt>
      <trkpt lat="43.5565730" lon="-5.9223120">
        <ele>-4.4</ele>
        <time>2021-07-20T14:50:18Z</time>
      </trkpt>
      <trkpt lat="43.5567800" lon="-5.9221850">
        <ele>0.0</ele>
        <time>2021-07-21T06:03:34Z</time>
      </trkpt>
      <trkpt lat="43.5567800" lon="-5.9221850">
        <ele>0.0</ele>
        <time>2021-07-21T06:03:36Z</time>
      </trkpt>
      <trkpt lat="43.5567920" lon="-5.9221760">
        <ele>0.0</ele>
        <time>2021-07-21T06:03:37Z</time>
      </trkpt>
      <trkpt lat="43.5568040" lon="-5.9221690">
        <ele>0.0</ele>
        <time>2021-07-21T06:03:38Z</time>
      </trkpt>
      <trkpt lat="43.5568350" lon="-5.9221570">
        <ele>0.0</ele>
        <time>2021-07-21T06:03:41Z</time>
      </trkpt>
      <trkpt lat="43.5568510" lon="-5.9221540">
        <ele>0.0</ele>
        <time>2021-07-21T06:03:42Z</time>
      </trkpt>
      <trkpt lat="43.5568720" lon="-5.9221810">
        <ele>0.0</ele>
        <time>2021-07-21T06:03:45Z</time>
      </trkpt>
      <trkpt lat="43.5568600" lon="-5.9222080">
        <ele>0.0</ele>
        <time>2021-07-21T06:03:46Z</time>
      </trkpt>
      <trkpt lat="43.5568590" lon="-5.9223740">
        <ele>0.0</ele>
        <time>2021-07-21T06:03:49Z</time>
      </trkpt>
      <trkpt lat="43.5568230" lon="-5.9225930">
        <ele>0.0</ele>
        <time>2021-07-21T06:03:53Z</time>
      </trkpt>
      <trkpt lat="43.5568210" lon="-5.9227580">
        <ele>0.0</ele>
        <time>2021-07-21T06:03:56Z</time>
      </trkpt>
      <trkpt lat="43.5568060" lon="-5.9229130">
        <ele>-0.4</ele>
        <time>2021-07-21T06:03:59Z</time>
      </trkpt>
      <trkpt lat="43.5567970" lon="-5.9229590">
        <ele>-0.8</ele>
        <time>2021-07-21T06:04:00Z</time>
      </trkpt>
      <trkpt lat="43.5567870" lon="-5.9230040">
        <ele>-1.2</ele>
        <time>2021-07-21T06:04:01Z</time>
      </trkpt>
      <trkpt lat="43.5567730" lon="-5.9230490">
        <ele>-1.6</ele>
        <time>2021-07-21T06:04:02Z</time>
      </trkpt>
      <trkpt lat="43.5567580" lon="-5.9230940">
        <ele>-2.0</ele>
        <time>2021-07-21T06:04:03Z</time>
      </trkpt>
      <trkpt lat="43.5567410" lon="-5.9231410">
        <ele>-2.0</ele>
        <time>2021-07-21T06:04:04Z</time>
      </trkpt>
      <trkpt lat="43.5566030" lon="-5.9234400">
        <ele>-2.0</ele>
        <time>2021-07-21T06:04:12Z</time>
      </trkpt>
      <trkpt lat="43.5565590" lon="-5.9235610">
        <ele>-2.0</ele>
        <time>2021-07-21T06:04:17Z</time>
      </trkpt>
      <trkpt lat="43.5565490" lon="-5.9236030">
        <ele>-2.0</ele>
        <time>2021-07-21T06:04:19Z</time>
      </trkpt>
      <trkpt lat="43.5565340" lon="-5.9236440">
        <ele>-2.0</ele>
        <time>2021-07-21T06:04:21Z</time>
      </trkpt>
      <trkpt lat="43.5565180" lon="-5.9236840">
        <ele>-2.0</ele>
        <time>2021-07-21T06:04:23Z</time>
      </trkpt>
      <trkpt lat="43.5564990" lon="-5.9237180">
        <ele>-2.0</ele>
        <time>2021-07-21T06:04:25Z</time>
      </trkpt>
      <trkpt lat="43.5564890" lon="-5.9237360">
        <ele>-2.0</ele>
        <time>2021-07-21T06:04:26Z</time>
      </trkpt>
      <trkpt lat="43.5564780" lon="-5.9237540">
        <ele>-2.0</ele>
        <time>2021-07-21T06:04:27Z</time>
      </trkpt>
      <trkpt lat="43.5564340" lon="-5.9238200">
        <ele>-2.0</ele>
        <time>2021-07-21T06:04:30Z</time>
      </trkpt>
      <trkpt lat="43.5564060" lon="-5.9238730">
        <ele>-2.0</ele>
        <time>2021-07-21T06:04:32Z</time>
      </trkpt>
      <trkpt lat="43.5563940" lon="-5.9238990">
        <ele>-2.0</ele>
        <time>2021-07-21T06:04:33Z</time>
      </trkpt>
      <trkpt lat="43.5563760" lon="-5.9239480">
        <ele>-2.0</ele>
        <time>2021-07-21T06:04:35Z</time>
      </trkpt>
      <trkpt lat="43.5563510" lon="-5.9240120">
        <ele>-1.6</ele>
        <time>2021-07-21T06:04:38Z</time>
      </trkpt>
      <trkpt lat="43.5563440" lon="-5.9240310">
        <ele>-1.2</ele>
        <time>2021-07-21T06:04:39Z</time>
      </trkpt>
      <trkpt lat="43.5563360" lon="-5.9240500">
        <ele>-0.8</ele>
        <time>2021-07-21T06:04:40Z</time>
      </trkpt>
      <trkpt lat="43.5563290" lon="-5.9240690">
        <ele>-0.4</ele>
        <time>2021-07-21T06:04:41Z</time>
      </trkpt>
      <trkpt lat="43.5563220" lon="-5.9240880">
        <ele>0.0</ele>
        <time>2021-07-21T06:04:42Z</time>
      </trkpt>
      <trkpt lat="43.5562880" lon="-5.9241840">
        <ele>0.0</ele>
        <time>2021-07-21T06:04:47Z</time>
      </trkpt>
      <trkpt lat="43.5562720" lon="-5.9242060">
        <ele>0.0</ele>
        <time>2021-07-21T06:04:50Z</time>
      </trkpt>
      <trkpt lat="43.5562700" lon="-5.9242170">
        <ele>0.4</ele>
        <time>2021-07-21T06:04:51Z</time>
      </trkpt>
      <trkpt lat="43.5562550" lon="-5.9242390">
        <ele>0.8</ele>
        <time>2021-07-21T06:04:52Z</time>
      </trkpt>
      <trkpt lat="43.5562410" lon="-5.9242640">
        <ele>1.4</ele>
        <time>2021-07-21T06:04:53Z</time>
      </trkpt>
      <trkpt lat="43.5562310" lon="-5.9242860">
        <ele>1.8</ele>
        <time>2021-07-21T06:04:54Z</time>
      </trkpt>
      <trkpt lat="43.5562220" lon="-5.9243070">
        <ele>2.2</ele>
        <time>2021-07-21T06:04:55Z</time>
      </trkpt>
      <trkpt lat="43.5561600" lon="-5.9243880">
        <ele>2.2</ele>
        <time>2021-07-21T06:05:01Z</time>
      </trkpt>
      <trkpt lat="43.5561350" lon="-5.9243970">
        <ele>2.6</ele>
        <time>2021-07-21T06:05:03Z</time>
      </trkpt>
      <trkpt lat="43.5561220" lon="-5.9244040">
        <ele>3.0</ele>
        <time>2021-07-21T06:05:04Z</time>
      </trkpt>
      <trkpt lat="43.5561090" lon="-5.9244100">
        <ele>3.4</ele>
        <time>2021-07-21T06:05:05Z</time>
      </trkpt>
      <trkpt lat="43.5560980" lon="-5.9244160">
        <ele>3.8</ele>
        <time>2021-07-21T06:05:06Z</time>
      </trkpt>
      <trkpt lat="43.5560850" lon="-5.9244270">
        <ele>4.4</ele>
        <time>2021-07-21T06:05:07Z</time>
      </trkpt>
      <trkpt lat="43.5560410" lon="-5.9244780">
        <ele>4.4</ele>
        <time>2021-07-21T06:05:10Z</time>
      </trkpt>
      <trkpt lat="43.5559550" lon="-5.9245570">
        <ele>4.8</ele>
        <time>2021-07-21T06:05:15Z</time>
      </trkpt>
      <trkpt lat="43.5559380" lon="-5.9245720">
        <ele>5.2</ele>
        <time>2021-07-21T06:05:16Z</time>
      </trkpt>
      <trkpt lat="43.5559220" lon="-5.9245860">
        <ele>5.6</ele>
        <time>2021-07-21T06:05:17Z</time>
      </trkpt>
      <trkpt lat="43.5559060" lon="-5.9245990">
        <ele>6.0</ele>
        <time>2021-07-21T06:05:18Z</time>
      </trkpt>
      <trkpt lat="43.5558900" lon="-5.9246150">
        <ele>6.4</ele>
        <time>2021-07-21T06:05:19Z</time>
      </trkpt>
      <trkpt lat="43.5558180" lon="-5.9247270">
        <ele>6.4</ele>
        <time>2021-07-21T06:05:24Z</time>
      </trkpt>
      <trkpt lat="43.5557940" lon="-5.9247830">
        <ele>6.8</ele>
        <time>2021-07-21T06:05:27Z</time>
      </trkpt>
      <trkpt lat="43.5557840" lon="-5.9248040">
        <ele>7.2</ele>
        <time>2021-07-21T06:05:28Z</time>
      </trkpt>
      <trkpt lat="43.5557760" lon="-5.9248260">
        <ele>7.6</ele>
        <time>2021-07-21T06:05:29Z</time>
      </trkpt>
      <trkpt lat="43.5557660" lon="-5.9248540">
        <ele>8.0</ele>
        <time>2021-07-21T06:05:30Z</time>
      </trkpt>
      <trkpt lat="43.5557590" lon="-5.9248760">
        <ele>8.4</ele>
        <time>2021-07-21T06:05:31Z</time>
      </trkpt>
      <trkpt lat="43.5556910" lon="-5.9250690">
        <ele>8.4</ele>
        <time>2021-07-21T06:05:38Z</time>
      </trkpt>
      <trkpt lat="43.5556840" lon="-5.9250910">
        <ele>8.8</ele>
        <time>2021-07-21T06:05:39Z</time>
      </trkpt>
      <trkpt lat="43.5556770" lon="-5.9251160">
        <ele>9.4</ele>
        <time>2021-07-21T06:05:40Z</time>
      </trkpt>
      <trkpt lat="43.5556710" lon="-5.9251410">
        <ele>9.8</ele>
        <time>2021-07-21T06:05:41Z</time>
      </trkpt>
      <trkpt lat="43.5556650" lon="-5.9251660">
        <ele>10.2</ele>
        <time>2021-07-21T06:05:42Z</time>
      </trkpt>
      <trkpt lat="43.5556600" lon="-5.9251900">
        <ele>10.6</ele>
        <time>2021-07-21T06:05:43Z</time>
      </trkpt>
      <trkpt lat="43.5556310" lon="-5.9252980">
        <ele>10.6</ele>
        <time>2021-07-21T06:05:48Z</time>
      </trkpt>
      <trkpt lat="43.5555660" lon="-5.9253880">
        <ele>11.0</ele>
        <time>2021-07-21T06:05:53Z</time>
      </trkpt>
      <trkpt lat="43.5555530" lon="-5.9254040">
        <ele>11.4</ele>
        <time>2021-07-21T06:05:54Z</time>
      </trkpt>
      <trkpt lat="43.5555410" lon="-5.9254230">
        <ele>11.8</ele>
        <time>2021-07-21T06:05:55Z</time>
      </trkpt>
      <trkpt lat="43.5555240" lon="-5.9254440">
        <ele>12.2</ele>
        <time>2021-07-21T06:05:56Z</time>
      </trkpt>
      <trkpt lat="43.5555090" lon="-5.9254610">
        <ele>12.8</ele>
        <time>2021-07-21T06:05:57Z</time>
      </trkpt>
      <trkpt lat="43.5554540" lon="-5.9255410">
        <ele>12.8</ele>
        <time>2021-07-21T06:06:03Z</time>
      </trkpt>
      <trkpt lat="43.5554130" lon="-5.9255700">
        <ele>12.8</ele>
        <time>2021-07-21T06:06:06Z</time>
      </trkpt>
      <trkpt lat="43.5553470" lon="-5.9256220">
        <ele>12.8</ele>
        <time>2021-07-21T06:06:10Z</time>
      </trkpt>
      <trkpt lat="43.5552580" lon="-5.9257510">
        <ele>12.8</ele>
        <time>2021-07-21T06:06:15Z</time>
      </trkpt>
      <trkpt lat="43.5552350" lon="-5.9257670">
        <ele>12.8</ele>
        <time>2021-07-21T06:06:16Z</time>
      </trkpt>
      <trkpt lat="43.5551560" lon="-5.9258370">
        <ele>12.8</ele>
        <time>2021-07-21T06:06:20Z</time>
      </trkpt>
      <trkpt lat="43.5551240" lon="-5.9258710">
        <ele>12.8</ele>
        <time>2021-07-21T06:06:22Z</time>
      </trkpt>
      <trkpt lat="43.5551030" lon="-5.9258920">
        <ele>12.8</ele>
        <time>2021-07-21T06:06:23Z</time>
      </trkpt>
      <trkpt lat="43.5550540" lon="-5.9260310">
        <ele>12.8</ele>
        <time>2021-07-21T06:06:26Z</time>
      </trkpt>
      <trkpt lat="43.5550180" lon="-5.9261600">
        <ele>12.8</ele>
        <time>2021-07-21T06:06:29Z</time>
      </trkpt>
      <trkpt lat="43.5550020" lon="-5.9261930">
        <ele>12.8</ele>
        <time>2021-07-21T06:06:30Z</time>
      </trkpt>
      <trkpt lat="43.5549720" lon="-5.9262530">
        <ele>12.8</ele>
        <time>2021-07-21T06:06:32Z</time>
      </trkpt>
      <trkpt lat="43.5549420" lon="-5.9263180">
        <ele>12.8</ele>
        <time>2021-07-21T06:06:34Z</time>
      </trkpt>
      <trkpt lat="43.5549260" lon="-5.9263420">
        <ele>12.8</ele>
        <time>2021-07-21T06:06:35Z</time>
      </trkpt>
      <trkpt lat="43.5548940" lon="-5.9263930">
        <ele>12.8</ele>
        <time>2021-07-21T06:06:37Z</time>
      </trkpt>
      <trkpt lat="43.5548630" lon="-5.9264430">
        <ele>12.8</ele>
        <time>2021-07-21T06:06:39Z</time>
      </trkpt>
      <trkpt lat="43.5548530" lon="-5.9264630">
        <ele>12.8</ele>
        <time>2021-07-21T06:06:40Z</time>
      </trkpt>
      <trkpt lat="43.5548470" lon="-5.9265080">
        <ele>12.8</ele>
        <time>2021-07-21T06:06:45Z</time>
      </trkpt>
      <trkpt lat="43.5548610" lon="-5.9265440">
        <ele>12.8</ele>
        <time>2021-07-21T06:06:51Z</time>
      </trkpt>
      <trkpt lat="43.5548770" lon="-5.9265310">
        <ele>12.8</ele>
        <time>2021-07-21T06:08:57Z</time>
      </trkpt>
      <trkpt lat="43.5548970" lon="-5.9265060">
        <ele>12.8</ele>
        <time>2021-07-21T06:08:58Z</time>
      </trkpt>
      <trkpt lat="43.5549390" lon="-5.9264420">
        <ele>12.8</ele>
        <time>2021-07-21T06:09:01Z</time>
      </trkpt>
      <trkpt lat="43.5549580" lon="-5.9263800">
        <ele>12.8</ele>
        <time>2021-07-21T06:09:03Z</time>
      </trkpt>
      <trkpt lat="43.5550060" lon="-5.9263240">
        <ele>12.8</ele>
        <time>2021-07-21T06:09:06Z</time>
      </trkpt>
      <trkpt lat="43.5550510" lon="-5.9262250">
        <ele>12.8</ele>
        <time>2021-07-21T06:09:10Z</time>
      </trkpt>
      <trkpt lat="43.5551130" lon="-5.9260280">
        <ele>12.8</ele>
        <time>2021-07-21T06:09:16Z</time>
      </trkpt>
      <trkpt lat="43.5552130" lon="-5.9258080">
        <ele>12.8</ele>
        <time>2021-07-21T06:09:23Z</time>
      </trkpt>
      <trkpt lat="43.5553320" lon="-5.9256180">
        <ele>12.8</ele>
        <time>2021-07-21T06:09:31Z</time>
      </trkpt>
      <trkpt lat="43.5553620" lon="-5.9255620">
        <ele>12.8</ele>
        <time>2021-07-21T06:09:33Z</time>
      </trkpt>
      <trkpt lat="43.5554400" lon="-5.9254680">
        <ele>12.8</ele>
        <time>2021-07-21T06:09:36Z</time>
      </trkpt>
      <trkpt lat="43.5555730" lon="-5.9253290">
        <ele>12.8</ele>
        <time>2021-07-21T06:09:42Z</time>
      </trkpt>
      <trkpt lat="43.5556190" lon="-5.9252760">
        <ele>12.8</ele>
        <time>2021-07-21T06:09:44Z</time>
      </trkpt>
      <trkpt lat="43.5556670" lon="-5.9251910">
        <ele>12.4</ele>
        <time>2021-07-21T06:09:46Z</time>
      </trkpt>
      <trkpt lat="43.5556820" lon="-5.9251540">
        <ele>11.8</ele>
        <time>2021-07-21T06:09:47Z</time>
      </trkpt>
      <trkpt lat="43.5556980" lon="-5.9251170">
        <ele>11.4</ele>
        <time>2021-07-21T06:09:48Z</time>
      </trkpt>
      <trkpt lat="43.5557100" lon="-5.9250820">
        <ele>11.0</ele>
        <time>2021-07-21T06:09:49Z</time>
      </trkpt>
      <trkpt lat="43.5557300" lon="-5.9250480">
        <ele>10.6</ele>
        <time>2021-07-21T06:09:50Z</time>
      </trkpt>
      <trkpt lat="43.5557450" lon="-5.9250120">
        <ele>10.2</ele>
        <time>2021-07-21T06:09:51Z</time>
      </trkpt>
      <trkpt lat="43.5557690" lon="-5.9249730">
        <ele>9.8</ele>
        <time>2021-07-21T06:09:52Z</time>
      </trkpt>
      <trkpt lat="43.5557930" lon="-5.9249340">
        <ele>9.4</ele>
        <time>2021-07-21T06:09:53Z</time>
      </trkpt>
      <trkpt lat="43.5558180" lon="-5.9248960">
        <ele>9.0</ele>
        <time>2021-07-21T06:09:54Z</time>
      </trkpt>
      <trkpt lat="43.5558370" lon="-5.9248530">
        <ele>8.6</ele>
        <time>2021-07-21T06:09:55Z</time>
      </trkpt>
      <trkpt lat="43.5558780" lon="-5.9247780">
        <ele>8.0</ele>
        <time>2021-07-21T06:09:57Z</time>
      </trkpt>
      <trkpt lat="43.5558950" lon="-5.9247380">
        <ele>7.6</ele>
        <time>2021-07-21T06:09:58Z</time>
      </trkpt>
      <trkpt lat="43.5559120" lon="-5.9246980">
        <ele>7.0</ele>
        <time>2021-07-21T06:09:59Z</time>
      </trkpt>
      <trkpt lat="43.5559280" lon="-5.9246590">
        <ele>6.6</ele>
        <time>2021-07-21T06:10:00Z</time>
      </trkpt>
      <trkpt lat="43.5559430" lon="-5.9246240">
        <ele>6.0</ele>
        <time>2021-07-21T06:10:01Z</time>
      </trkpt>
      <trkpt lat="43.5559850" lon="-5.9245100">
        <ele>5.6</ele>
        <time>2021-07-21T06:10:04Z</time>
      </trkpt>
      <trkpt lat="43.5559970" lon="-5.9244710">
        <ele>5.2</ele>
        <time>2021-07-21T06:10:05Z</time>
      </trkpt>
      <trkpt lat="43.5560090" lon="-5.9244290">
        <ele>4.8</ele>
        <time>2021-07-21T06:10:06Z</time>
      </trkpt>
      <trkpt lat="43.5560240" lon="-5.9243860">
        <ele>4.2</ele>
        <time>2021-07-21T06:10:07Z</time>
      </trkpt>
      <trkpt lat="43.5560410" lon="-5.9243410">
        <ele>3.8</ele>
        <time>2021-07-21T06:10:08Z</time>
      </trkpt>
      <trkpt lat="43.5560590" lon="-5.9242920">
        <ele>3.8</ele>
        <time>2021-07-21T06:10:09Z</time>
      </trkpt>
      <trkpt lat="43.5560780" lon="-5.9242470">
        <ele>3.4</ele>
        <time>2021-07-21T06:10:10Z</time>
      </trkpt>
      <trkpt lat="43.5560940" lon="-5.9242000">
        <ele>2.8</ele>
        <time>2021-07-21T06:10:11Z</time>
      </trkpt>
      <trkpt lat="43.5561100" lon="-5.9241580">
        <ele>2.4</ele>
        <time>2021-07-21T06:10:12Z</time>
      </trkpt>
      <trkpt lat="43.5561230" lon="-5.9241190">
        <ele>2.0</ele>
        <time>2021-07-21T06:10:13Z</time>
      </trkpt>
      <trkpt lat="43.5561360" lon="-5.9240790">
        <ele>1.6</ele>
        <time>2021-07-21T06:10:14Z</time>
      </trkpt>
      <trkpt lat="43.5561660" lon="-5.9240330">
        <ele>1.2</ele>
        <time>2021-07-21T06:10:15Z</time>
      </trkpt>
      <trkpt lat="43.5561980" lon="-5.9239840">
        <ele>0.8</ele>
        <time>2021-07-21T06:10:16Z</time>
      </trkpt>
      <trkpt lat="43.5562350" lon="-5.9239300">
        <ele>0.2</ele>
        <time>2021-07-21T06:10:17Z</time>
      </trkpt>
      <trkpt lat="43.5562580" lon="-5.9238830">
        <ele>-0.2</ele>
        <time>2021-07-21T06:10:18Z</time>
      </trkpt>
      <trkpt lat="43.5562820" lon="-5.9238390">
        <ele>-0.6</ele>
        <time>2021-07-21T06:10:19Z</time>
      </trkpt>
      <trkpt lat="43.5563290" lon="-5.9237550">
        <ele>-1.0</ele>
        <time>2021-07-21T06:10:21Z</time>
      </trkpt>
      <trkpt lat="43.5563530" lon="-5.9237160">
        <ele>-1.4</ele>
        <time>2021-07-21T06:10:22Z</time>
      </trkpt>
      <trkpt lat="43.5563760" lon="-5.9236800">
        <ele>-1.8</ele>
        <time>2021-07-21T06:10:23Z</time>
      </trkpt>
      <trkpt lat="43.5564000" lon="-5.9236450">
        <ele>-2.2</ele>
        <time>2021-07-21T06:10:24Z</time>
      </trkpt>
      <trkpt lat="43.5564190" lon="-5.9236140">
        <ele>-2.8</ele>
        <time>2021-07-21T06:10:25Z</time>
      </trkpt>
      <trkpt lat="43.5564890" lon="-5.9235770">
        <ele>-2.8</ele>
        <time>2021-07-21T06:10:29Z</time>
      </trkpt>
      <trkpt lat="43.5565640" lon="-5.9236330">
        <ele>-2.8</ele>
        <time>2021-07-21T06:10:33Z</time>
      </trkpt>
      <trkpt lat="43.5565850" lon="-5.9236430">
        <ele>-2.8</ele>
        <time>2021-07-21T06:10:34Z</time>
      </trkpt>
      <trkpt lat="43.5566040" lon="-5.9236550">
        <ele>-2.8</ele>
        <time>2021-07-21T06:10:35Z</time>
      </trkpt>
      <trkpt lat="43.5566720" lon="-5.9237230">
        <ele>-3.2</ele>
        <time>2021-07-21T06:10:40Z</time>
      </trkpt>
      <trkpt lat="43.5566830" lon="-5.9237290">
        <ele>-3.6</ele>
        <time>2021-07-21T06:10:41Z</time>
      </trkpt>
      <trkpt lat="43.5566880" lon="-5.9237370">
        <ele>-4.0</ele>
        <time>2021-07-21T06:10:42Z</time>
      </trkpt>
      <trkpt lat="43.5567020" lon="-5.9237480">
        <ele>-4.4</ele>
        <time>2021-07-21T06:10:43Z</time>
      </trkpt>
      <trkpt lat="43.5567090" lon="-5.9237520">
        <ele>-4.8</ele>
        <time>2021-07-21T06:10:44Z</time>
      </trkpt>
      <trkpt lat="43.5567180" lon="-5.9237560">
        <ele>-4.8</ele>
        <time>2021-07-21T06:10:45Z</time>
      </trkpt>
      <trkpt lat="43.5568070" lon="-5.9238590">
        <ele>-4.8</ele>
        <time>2021-07-21T06:11:04Z</time>
      </trkpt>
      <trkpt lat="43.5568290" lon="-5.9238900">
        <ele>-4.8</ele>
        <time>2021-07-21T06:11:05Z</time>
      </trkpt>
      <trkpt lat="43.5570160" lon="-5.9240610">
        <ele>-4.8</ele>
        <time>2021-07-21T06:11:12Z</time>
      </trkpt>
      <trkpt lat="43.5571650" lon="-5.9241480">
        <ele>-4.8</ele>
        <time>2021-07-21T06:11:16Z</time>
      </trkpt>
      <trkpt lat="43.5572150" lon="-5.9241950">
        <ele>-4.8</ele>
        <time>2021-07-21T06:11:18Z</time>
      </trkpt>
      <trkpt lat="43.5574160" lon="-5.9243510">
        <ele>-4.8</ele>
        <time>2021-07-21T06:11:26Z</time>
      </trkpt>
      <trkpt lat="43.5575730" lon="-5.9244510">
        <ele>-4.8</ele>
        <time>2021-07-21T06:11:32Z</time>
      </trkpt>
      <trkpt lat="43.5577320" lon="-5.9245030">
        <ele>-4.8</ele>
        <time>2021-07-21T06:11:40Z</time>
      </trkpt>
      <trkpt lat="43.5578850" lon="-5.9245340">
        <ele>-4.8</ele>
        <time>2021-07-21T06:11:47Z</time>
      </trkpt>
      <trkpt lat="43.5579830" lon="-5.9245040">
        <ele>-4.8</ele>
        <time>2021-07-21T06:11:53Z</time>
      </trkpt>
      <trkpt lat="43.5579890" lon="-5.9245060">
        <ele>-4.8</ele>
        <time>2021-07-21T06:11:54Z</time>
      </trkpt>
      <trkpt lat="43.5581570" lon="-5.9246070">
        <ele>-4.8</ele>
        <time>2021-07-21T06:15:30Z</time>
      </trkpt>
      <trkpt lat="43.5582650" lon="-5.9246140">
        <ele>-4.8</ele>
        <time>2021-07-21T06:15:33Z</time>
      </trkpt>
      <trkpt lat="43.5583760" lon="-5.9245910">
        <ele>-4.8</ele>
        <time>2021-07-21T06:15:37Z</time>
      </trkpt>
      <trkpt lat="43.5583820" lon="-5.9245660">
        <ele>-4.8</ele>
        <time>2021-07-21T06:15:38Z</time>
      </trkpt>
      <trkpt lat="43.5584170" lon="-5.9244780">
        <ele>-4.8</ele>
        <time>2021-07-21T06:15:42Z</time>
      </trkpt>
      <trkpt lat="43.5584270" lon="-5.9244590">
        <ele>-4.8</ele>
        <time>2021-07-21T06:15:43Z</time>
      </trkpt>
      <trkpt lat="43.5584470" lon="-5.9244510">
        <ele>-4.8</ele>
        <time>2021-07-21T06:15:44Z</time>
      </trkpt>
      <trkpt lat="43.5584620" lon="-5.9244420">
        <ele>-4.8</ele>
        <time>2021-07-21T06:15:45Z</time>
      </trkpt>
      <trkpt lat="43.5585410" lon="-5.9243870">
        <ele>-4.8</ele>
        <time>2021-07-21T06:15:50Z</time>
      </trkpt>
      <trkpt lat="43.5585510" lon="-5.9243580">
        <ele>-4.8</ele>
        <time>2021-07-21T06:15:51Z</time>
      </trkpt>
      <trkpt lat="43.5586060" lon="-5.9243040">
        <ele>-4.0</ele>
        <time>2021-07-21T06:15:54Z</time>
      </trkpt>
      <trkpt lat="43.5586290" lon="-5.9242880">
        <ele>-3.6</ele>
        <time>2021-07-21T06:15:55Z</time>
      </trkpt>
      <trkpt lat="43.5586500" lon="-5.9242740">
        <ele>-3.2</ele>
        <time>2021-07-21T06:15:56Z</time>
      </trkpt>
      <trkpt lat="43.5586740" lon="-5.9242590">
        <ele>-2.8</ele>
        <time>2021-07-21T06:15:57Z</time>
      </trkpt>
      <trkpt lat="43.5586970" lon="-5.9242430">
        <ele>-2.8</ele>
        <time>2021-07-21T06:15:58Z</time>
      </trkpt>
      <trkpt lat="43.5588320" lon="-5.9242770">
        <ele>-2.8</ele>
        <time>2021-07-21T06:16:03Z</time>
      </trkpt>
      <trkpt lat="43.5588650" lon="-5.9242840">
        <ele>-2.8</ele>
        <time>2021-07-21T06:16:04Z</time>
      </trkpt>
      <trkpt lat="43.5589540" lon="-5.9242230">
        <ele>-2.8</ele>
        <time>2021-07-21T06:16:09Z</time>
      </trkpt>
      <trkpt lat="43.5589570" lon="-5.9242290">
        <ele>-2.8</ele>
        <time>2021-07-21T06:16:10Z</time>
      </trkpt>
      <trkpt lat="43.5590580" lon="-5.9241500">
        <ele>-2.8</ele>
        <time>2021-07-21T06:19:18Z</time>
      </trkpt>
      <trkpt lat="43.5590250" lon="-5.9241500">
        <ele>-2.8</ele>
        <time>2021-07-21T06:19:20Z</time>
      </trkpt>
      <trkpt lat="43.5589070" lon="-5.9240920">
        <ele>-2.8</ele>
        <time>2021-07-21T06:19:26Z</time>
      </trkpt>
      <trkpt lat="43.5589170" lon="-5.9240480">
        <ele>-2.8</ele>
        <time>2021-07-21T06:19:29Z</time>
      </trkpt>
      <trkpt lat="43.5589900" lon="-5.9239860">
        <ele>-2.8</ele>
        <time>2021-07-21T06:19:31Z</time>
      </trkpt>
      <trkpt lat="43.5590790" lon="-5.9238140">
        <ele>-2.8</ele>
        <time>2021-07-21T06:19:36Z</time>
      </trkpt>
      <trkpt lat="43.5591090" lon="-5.9236550">
        <ele>-2.8</ele>
        <time>2021-07-21T06:19:42Z</time>
      </trkpt>
      <trkpt lat="43.5591200" lon="-5.9236370">
        <ele>-2.4</ele>
        <time>2021-07-21T06:19:43Z</time>
      </trkpt>
      <trkpt lat="43.5591280" lon="-5.9236180">
        <ele>-2.0</ele>
        <time>2021-07-21T06:19:44Z</time>
      </trkpt>
      <trkpt lat="43.5591360" lon="-5.9236080">
        <ele>-1.6</ele>
        <time>2021-07-21T06:19:45Z</time>
      </trkpt>
      <trkpt lat="43.5591450" lon="-5.9236040">
        <ele>-1.2</ele>
        <time>2021-07-21T06:19:46Z</time>
      </trkpt>
      <trkpt lat="43.5591550" lon="-5.9236000">
        <ele>-0.8</ele>
        <time>2021-07-21T06:19:47Z</time>
      </trkpt>
      <trkpt lat="43.5591640" lon="-5.9235960">
        <ele>-0.8</ele>
        <time>2021-07-21T06:19:48Z</time>
      </trkpt>
      <trkpt lat="43.5591640" lon="-5.9235960">
        <ele>-0.8</ele>
        <time>2021-07-21T06:19:52Z</time>
      </trkpt>
      <trkpt lat="43.5591640" lon="-5.9235960">
        <ele>-0.8</ele>
        <time>2021-07-21T06:19:54Z</time>
      </trkpt>
      <trkpt lat="43.5591640" lon="-5.9235960">
        <ele>-0.2</ele>
        <time>2021-07-21T06:19:55Z</time>
      </trkpt>
      <trkpt lat="43.5591640" lon="-5.9235960">
        <ele>0.2</ele>
        <time>2021-07-21T06:19:56Z</time>
      </trkpt>
      <trkpt lat="43.5591640" lon="-5.9235960">
        <ele>0.6</ele>
        <time>2021-07-21T06:19:57Z</time>
      </trkpt>
      <trkpt lat="43.5591640" lon="-5.9235960">
        <ele>1.0</ele>
        <time>2021-07-21T06:19:58Z</time>
      </trkpt>
      <trkpt lat="43.5591640" lon="-5.9235960">
        <ele>1.4</ele>
        <time>2021-07-21T06:19:59Z</time>
      </trkpt>
      <trkpt lat="43.5591640" lon="-5.9235960">
        <ele>1.4</ele>
        <time>2021-07-21T06:20:00Z</time>
      </trkpt>
      <trkpt lat="43.5591640" lon="-5.9235960">
        <ele>1.4</ele>
        <time>2021-07-21T06:20:01Z</time>
      </trkpt>
      <trkpt lat="43.5591640" lon="-5.9235960">
        <ele>1.4</ele>
        <time>2021-07-21T06:20:03Z</time>
      </trkpt>
      <trkpt lat="43.5591640" lon="-5.9235960">
        <ele>1.4</ele>
        <time>2021-07-21T06:20:04Z</time>
      </trkpt>
      <trkpt lat="43.5591640" lon="-5.9235960">
        <ele>1.4</ele>
        <time>2021-07-21T06:20:05Z</time>
      </trkpt>
      <trkpt lat="43.5591640" lon="-5.9235960">
        <ele>1.4</ele>
        <time>2021-07-21T06:20:08Z</time>
      </trkpt>
      <trkpt lat="43.5596730" lon="-5.9235770">
        <ele>1.4</ele>
        <time>2021-07-21T06:20:13Z</time>
      </trkpt>
      <trkpt lat="43.5597440" lon="-5.9233630">
        <ele>1.4</ele>
        <time>2021-07-21T06:20:19Z</time>
      </trkpt>
      <trkpt lat="43.5598170" lon="-5.9230980">
        <ele>1.4</ele>
        <time>2021-07-21T06:20:25Z</time>
      </trkpt>
      <trkpt lat="43.5598380" lon="-5.9230700">
        <ele>1.4</ele>
        <time>2021-07-21T06:20:26Z</time>
      </trkpt>
      <trkpt lat="43.5598800" lon="-5.9230410">
        <ele>1.4</ele>
        <time>2021-07-21T06:20:27Z</time>
      </trkpt>
      <trkpt lat="43.5599600" lon="-5.9229760">
        <ele>1.4</ele>
        <time>2021-07-21T06:20:30Z</time>
      </trkpt>
      <trkpt lat="43.5599910" lon="-5.9229650">
        <ele>1.4</ele>
        <time>2021-07-21T06:20:31Z</time>
      </trkpt>
      <trkpt lat="43.5600760" lon="-5.9229390">
        <ele>1.4</ele>
        <time>2021-07-21T06:20:34Z</time>
      </trkpt>
      <trkpt lat="43.5601800" lon="-5.9229010">
        <ele>1.4</ele>
        <time>2021-07-21T06:20:37Z</time>
      </trkpt>
      <trkpt lat="43.5603050" lon="-5.9228660">
        <ele>1.4</ele>
        <time>2021-07-21T06:20:40Z</time>
      </trkpt>
      <trkpt lat="43.5604540" lon="-5.9228350">
        <ele>1.0</ele>
        <time>2021-07-21T06:20:44Z</time>
      </trkpt>
      <trkpt lat="43.5604950" lon="-5.9228220">
        <ele>0.6</ele>
        <time>2021-07-21T06:20:45Z</time>
      </trkpt>
      <trkpt lat="43.5605370" lon="-5.9228080">
        <ele>0.2</ele>
        <time>2021-07-21T06:20:46Z</time>
      </trkpt>
      <trkpt lat="43.5605710" lon="-5.9227880">
        <ele>-0.4</ele>
        <time>2021-07-21T06:20:47Z</time>
      </trkpt>
      <trkpt lat="43.5606020" lon="-5.9227840">
        <ele>-0.8</ele>
        <time>2021-07-21T06:20:48Z</time>
      </trkpt>
      <trkpt lat="43.5606670" lon="-5.9227970">
        <ele>-0.8</ele>
        <time>2021-07-21T06:20:50Z</time>
      </trkpt>
      <trkpt lat="43.5606830" lon="-5.9227980">
        <ele>-1.2</ele>
        <time>2021-07-21T06:20:51Z</time>
      </trkpt>
      <trkpt lat="43.5607030" lon="-5.9228070">
        <ele>-1.6</ele>
        <time>2021-07-21T06:20:52Z</time>
      </trkpt>
      <trkpt lat="43.5607210" lon="-5.9228160">
        <ele>-2.0</ele>
        <time>2021-07-21T06:20:53Z</time>
      </trkpt>
      <trkpt lat="43.5607350" lon="-5.9228260">
        <ele>-2.4</ele>
        <time>2021-07-21T06:20:54Z</time>
      </trkpt>
      <trkpt lat="43.5607490" lon="-5.9228350">
        <ele>-2.8</ele>
        <time>2021-07-21T06:20:55Z</time>
      </trkpt>
      <trkpt lat="43.5607530" lon="-5.9228240">
        <ele>-2.8</ele>
        <time>2021-07-21T06:20:58Z</time>
      </trkpt>
      <trkpt lat="43.5607520" lon="-5.9227880">
        <ele>-2.8</ele>
        <time>2021-07-21T06:21:00Z</time>
      </trkpt>
      <trkpt lat="43.5607770" lon="-5.9227890">
        <ele>-2.8</ele>
        <time>2021-07-21T06:21:02Z</time>
      </trkpt>
      <trkpt lat="43.5608370" lon="-5.9227780">
        <ele>-2.8</ele>
        <time>2021-07-21T06:21:05Z</time>
      </trkpt>
      <trkpt lat="43.5609420" lon="-5.9228410">
        <ele>-2.8</ele>
        <time>2021-07-21T06:21:09Z</time>
      </trkpt>
      <trkpt lat="43.5611020" lon="-5.9229410">
        <ele>-2.8</ele>
        <time>2021-07-21T06:21:15Z</time>
      </trkpt>
      <trkpt lat="43.5612240" lon="-5.9229840">
        <ele>-2.8</ele>
        <time>2021-07-21T06:21:19Z</time>
      </trkpt>
      <trkpt lat="43.5613080" lon="-5.9230390">
        <ele>-2.8</ele>
        <time>2021-07-21T06:21:23Z</time>
      </trkpt>
      <trkpt lat="43.5613320" lon="-5.9230540">
        <ele>-2.8</ele>
        <time>2021-07-21T06:21:24Z</time>
      </trkpt>
      <trkpt lat="43.5613470" lon="-5.9230950">
        <ele>-2.8</ele>
        <time>2021-07-21T06:21:27Z</time>
      </trkpt>
      <trkpt lat="43.5613730" lon="-5.9231240">
        <ele>-2.8</ele>
        <time>2021-07-21T06:21:29Z</time>
      </trkpt>
      <trkpt lat="43.5614310" lon="-5.9231820">
        <ele>-2.8</ele>
        <time>2021-07-21T06:21:31Z</time>
      </trkpt>
      <trkpt lat="43.5615880" lon="-5.9234320">
        <ele>-2.8</ele>
        <time>2021-07-21T06:21:38Z</time>
      </trkpt>
      <trkpt lat="43.5616450" lon="-5.9235500">
        <ele>-2.8</ele>
        <time>2021-07-21T06:21:41Z</time>
      </trkpt>
      <trkpt lat="43.5617390" lon="-5.9236870">
        <ele>-2.8</ele>
        <time>2021-07-21T06:21:45Z</time>
      </trkpt>
      <trkpt lat="43.5617880" lon="-5.9237410">
        <ele>-2.8</ele>
        <time>2021-07-21T06:21:47Z</time>
      </trkpt>
      <trkpt lat="43.5619920" lon="-5.9239440">
        <ele>-2.8</ele>
        <time>2021-07-21T06:21:55Z</time>
      </trkpt>
      <trkpt lat="43.5622000" lon="-5.9241060">
        <ele>-2.8</ele>
        <time>2021-07-21T06:22:03Z</time>
      </trkpt>
      <trkpt lat="43.5622340" lon="-5.9240890">
        <ele>-2.8</ele>
        <time>2021-07-21T06:22:04Z</time>
      </trkpt>
      <trkpt lat="43.5622660" lon="-5.9240920">
        <ele>-2.8</ele>
        <time>2021-07-21T06:22:08Z</time>
      </trkpt>
      <trkpt lat="43.5622610" lon="-5.9241190">
        <ele>-2.8</ele>
        <time>2021-07-21T06:22:09Z</time>
      </trkpt>
      <trkpt lat="43.5622710" lon="-5.9242080">
        <ele>-2.8</ele>
        <time>2021-07-21T06:22:13Z</time>
      </trkpt>
      <trkpt lat="43.5623120" lon="-5.9242140">
        <ele>-2.8</ele>
        <time>2021-07-21T06:22:15Z</time>
      </trkpt>
      <trkpt lat="43.5623540" lon="-5.9241890">
        <ele>-2.8</ele>
        <time>2021-07-21T06:22:17Z</time>
      </trkpt>
      <trkpt lat="43.5623840" lon="-5.9241780">
        <ele>-2.8</ele>
        <time>2021-07-21T06:22:18Z</time>
      </trkpt>
      <trkpt lat="43.5625460" lon="-5.9240900">
        <ele>-2.8</ele>
        <time>2021-07-21T06:22:21Z</time>
      </trkpt>
      <trkpt lat="43.5625810" lon="-5.9240910">
        <ele>-2.8</ele>
        <time>2021-07-21T06:22:22Z</time>
      </trkpt>
      <trkpt lat="43.5626470" lon="-5.9241050">
        <ele>-2.8</ele>
        <time>2021-07-21T06:22:24Z</time>
      </trkpt>
      <trkpt lat="43.5627930" lon="-5.9241640">
        <ele>-2.8</ele>
        <time>2021-07-21T06:22:29Z</time>
      </trkpt>
      <trkpt lat="43.5628560" lon="-5.9243260">
        <ele>-2.8</ele>
        <time>2021-07-21T06:22:34Z</time>
      </trkpt>
      <trkpt lat="43.5629050" lon="-5.9243870">
        <ele>-2.8</ele>
        <time>2021-07-21T06:22:36Z</time>
      </trkpt>
      <trkpt lat="43.5629540" lon="-5.9244220">
        <ele>-2.8</ele>
        <time>2021-07-21T06:22:38Z</time>
      </trkpt>
      <trkpt lat="43.5631630" lon="-5.9245400">
        <ele>-2.8</ele>
        <time>2021-07-21T06:22:45Z</time>
      </trkpt>
      <trkpt lat="43.5632820" lon="-5.9247350">
        <ele>-2.8</ele>
        <time>2021-07-21T06:22:51Z</time>
      </trkpt>
      <trkpt lat="43.5634520" lon="-5.9250290">
        <ele>-2.8</ele>
        <time>2021-07-21T06:23:00Z</time>
      </trkpt>
      <trkpt lat="43.5635240" lon="-5.9252460">
        <ele>-2.8</ele>
        <time>2021-07-21T06:23:06Z</time>
      </trkpt>
      <trkpt lat="43.5636620" lon="-5.9254130">
        <ele>-2.8</ele>
        <time>2021-07-21T06:23:13Z</time>
      </trkpt>
      <trkpt lat="43.5638270" lon="-5.9256210">
        <ele>-2.8</ele>
        <time>2021-07-21T06:23:20Z</time>
      </trkpt>
      <trkpt lat="43.5640260" lon="-5.9257950">
        <ele>-2.8</ele>
        <time>2021-07-21T06:23:27Z</time>
      </trkpt>
      <trkpt lat="43.5640930" lon="-5.9258210">
        <ele>-2.8</ele>
        <time>2021-07-21T06:23:29Z</time>
      </trkpt>
      <trkpt lat="43.5642000" lon="-5.9258730">
        <ele>-2.8</ele>
        <time>2021-07-21T06:23:33Z</time>
      </trkpt>
      <trkpt lat="43.5642170" lon="-5.9258990">
        <ele>-2.8</ele>
        <time>2021-07-21T06:23:34Z</time>
      </trkpt>
      <trkpt lat="43.5642310" lon="-5.9259220">
        <ele>-2.8</ele>
        <time>2021-07-21T06:23:35Z</time>
      </trkpt>
      <trkpt lat="43.5642580" lon="-5.9259740">
        <ele>-3.2</ele>
        <time>2021-07-21T06:23:39Z</time>
      </trkpt>
      <trkpt lat="43.5642700" lon="-5.9259990">
        <ele>-3.6</ele>
        <time>2021-07-21T06:23:40Z</time>
      </trkpt>
      <trkpt lat="43.5642860" lon="-5.9260230">
        <ele>-4.0</ele>
        <time>2021-07-21T06:23:41Z</time>
      </trkpt>
      <trkpt lat="43.5642950" lon="-5.9260470">
        <ele>-4.4</ele>
        <time>2021-07-21T06:23:42Z</time>
      </trkpt>
      <trkpt lat="43.5643060" lon="-5.9260810">
        <ele>-4.8</ele>
        <time>2021-07-21T06:23:43Z</time>
      </trkpt>
      <trkpt lat="43.5643190" lon="-5.9261160">
        <ele>-4.8</ele>
        <time>2021-07-21T06:23:44Z</time>
      </trkpt>
      <trkpt lat="43.5644670" lon="-5.9261530">
        <ele>-4.8</ele>
        <time>2021-07-21T06:23:49Z</time>
      </trkpt>
      <trkpt lat="43.5645050" lon="-5.9261180">
        <ele>-4.8</ele>
        <time>2021-07-21T06:23:50Z</time>
      </trkpt>
      <trkpt lat="43.5645320" lon="-5.9260960">
        <ele>-4.8</ele>
        <time>2021-07-21T06:23:53Z</time>
      </trkpt>
      <trkpt lat="43.5646590" lon="-5.9259560">
        <ele>-4.8</ele>
        <time>2021-07-21T06:23:58Z</time>
      </trkpt>
      <trkpt lat="43.5646970" lon="-5.9259270">
        <ele>-4.8</ele>
        <time>2021-07-21T06:23:59Z</time>
      </trkpt>
      <trkpt lat="43.5648810" lon="-5.9259160">
        <ele>-4.8</ele>
        <time>2021-07-21T06:24:04Z</time>
      </trkpt>
      <trkpt lat="43.5649750" lon="-5.9259530">
        <ele>-4.8</ele>
        <time>2021-07-21T06:24:07Z</time>
      </trkpt>
      <trkpt lat="43.5650730" lon="-5.9260200">
        <ele>-4.8</ele>
        <time>2021-07-21T06:24:10Z</time>
      </trkpt>
      <trkpt lat="43.5652770" lon="-5.9262060">
        <ele>-4.8</ele>
        <time>2021-07-21T06:24:17Z</time>
      </trkpt>
      <trkpt lat="43.5653280" lon="-5.9262490">
        <ele>-4.8</ele>
        <time>2021-07-21T06:24:19Z</time>
      </trkpt>
      <trkpt lat="43.5653490" lon="-5.9262740">
        <ele>-4.8</ele>
        <time>2021-07-21T06:24:20Z</time>
      </trkpt>
      <trkpt lat="43.5654120" lon="-5.9263510">
        <ele>-4.8</ele>
        <time>2021-07-21T06:24:23Z</time>
      </trkpt>
      <trkpt lat="43.5655050" lon="-5.9264340">
        <ele>-4.8</ele>
        <time>2021-07-21T06:24:27Z</time>
      </trkpt>
      <trkpt lat="43.5655850" lon="-5.9265000">
        <ele>-4.8</ele>
        <time>2021-07-21T06:24:30Z</time>
      </trkpt>
      <trkpt lat="43.5657730" lon="-5.9267080">
        <ele>-4.8</ele>
        <time>2021-07-21T06:24:37Z</time>
      </trkpt>
      <trkpt lat="43.5659990" lon="-5.9267780">
        <ele>-4.8</ele>
        <time>2021-07-21T06:24:43Z</time>
      </trkpt>
      <trkpt lat="43.5660960" lon="-5.9268120">
        <ele>-4.8</ele>
        <time>2021-07-21T06:24:46Z</time>
      </trkpt>
      <trkpt lat="43.5661440" lon="-5.9268470">
        <ele>-4.8</ele>
        <time>2021-07-21T06:24:49Z</time>
      </trkpt>
      <trkpt lat="43.5662290" lon="-5.9268820">
        <ele>-4.8</ele>
        <time>2021-07-21T06:24:55Z</time>
      </trkpt>
      <trkpt lat="43.5663800" lon="-5.9269600">
        <ele>-4.8</ele>
        <time>2021-07-21T06:25:00Z</time>
      </trkpt>
      <trkpt lat="43.5666050" lon="-5.9270690">
        <ele>-4.8</ele>
        <time>2021-07-21T06:25:07Z</time>
      </trkpt>
      <trkpt lat="43.5666930" lon="-5.9271100">
        <ele>-4.8</ele>
        <time>2021-07-21T06:25:12Z</time>
      </trkpt>
      <trkpt lat="43.5667100" lon="-5.9271230">
        <ele>-4.8</ele>
        <time>2021-07-21T06:25:14Z</time>
      </trkpt>
      <trkpt lat="43.5667890" lon="-5.9272100">
        <ele>-6.8</ele>
        <time>2021-07-21T06:27:48Z</time>
      </trkpt>
      <trkpt lat="43.5668080" lon="-5.9272170">
        <ele>-6.8</ele>
        <time>2021-07-21T06:27:49Z</time>
      </trkpt>
      <trkpt lat="43.5669620" lon="-5.9272840">
        <ele>-6.8</ele>
        <time>2021-07-21T06:27:55Z</time>
      </trkpt>
      <trkpt lat="43.5672220" lon="-5.9273810">
        <ele>-6.8</ele>
        <time>2021-07-21T06:28:03Z</time>
      </trkpt>
      <trkpt lat="43.5673770" lon="-5.9274290">
        <ele>-6.8</ele>
        <time>2021-07-21T06:28:09Z</time>
      </trkpt>
      <trkpt lat="43.5674910" lon="-5.9274730">
        <ele>-6.8</ele>
        <time>2021-07-21T06:28:14Z</time>
      </trkpt>
      <trkpt lat="43.5676250" lon="-5.9275140">
        <ele>-6.8</ele>
        <time>2021-07-21T06:28:18Z</time>
      </trkpt>
      <trkpt lat="43.5677230" lon="-5.9275410">
        <ele>-6.8</ele>
        <time>2021-07-21T06:28:21Z</time>
      </trkpt>
      <trkpt lat="43.5679050" lon="-5.9276070">
        <ele>-6.8</ele>
        <time>2021-07-21T06:28:27Z</time>
      </trkpt>
      <trkpt lat="43.5679880" lon="-5.9276520">
        <ele>-6.8</ele>
        <time>2021-07-21T06:28:30Z</time>
      </trkpt>
      <trkpt lat="43.5680580" lon="-5.9276570">
        <ele>-6.8</ele>
        <time>2021-07-21T06:28:32Z</time>
      </trkpt>
      <trkpt lat="43.5682740" lon="-5.9276940">
        <ele>-6.8</ele>
        <time>2021-07-21T06:28:38Z</time>
      </trkpt>
      <trkpt lat="43.5685610" lon="-5.9277510">
        <ele>-6.8</ele>
        <time>2021-07-21T06:28:46Z</time>
      </trkpt>
      <trkpt lat="43.5688160" lon="-5.9278470">
        <ele>-6.8</ele>
        <time>2021-07-21T06:28:53Z</time>
      </trkpt>
      <trkpt lat="43.5690890" lon="-5.9279260">
        <ele>-6.8</ele>
        <time>2021-07-21T06:29:00Z</time>
      </trkpt>
      <trkpt lat="43.5694200" lon="-5.9279890">
        <ele>-6.8</ele>
        <time>2021-07-21T06:29:08Z</time>
      </trkpt>
      <trkpt lat="43.5697070" lon="-5.9280350">
        <ele>-6.8</ele>
        <time>2021-07-21T06:29:16Z</time>
      </trkpt>
      <trkpt lat="43.5699720" lon="-5.9280770">
        <ele>-6.8</ele>
        <time>2021-07-21T06:29:23Z</time>
      </trkpt>
      <trkpt lat="43.5702330" lon="-5.9281570">
        <ele>-6.8</ele>
        <time>2021-07-21T06:29:30Z</time>
      </trkpt>
      <trkpt lat="43.5704630" lon="-5.9282060">
        <ele>-6.8</ele>
        <time>2021-07-21T06:29:36Z</time>
      </trkpt>
      <trkpt lat="43.5707310" lon="-5.9282580">
        <ele>-6.8</ele>
        <time>2021-07-21T06:29:43Z</time>
      </trkpt>
      <trkpt lat="43.5710220" lon="-5.9282990">
        <ele>-6.8</ele>
        <time>2021-07-21T06:29:51Z</time>
      </trkpt>
      <trkpt lat="43.5712080" lon="-5.9283320">
        <ele>-6.8</ele>
        <time>2021-07-21T06:29:56Z</time>
      </trkpt>
      <trkpt lat="43.5713920" lon="-5.9283720">
        <ele>-6.8</ele>
        <time>2021-07-21T06:30:01Z</time>
      </trkpt>
      <trkpt lat="43.5717040" lon="-5.9284380">
        <ele>-6.8</ele>
        <time>2021-07-21T06:30:09Z</time>
      </trkpt>
      <trkpt lat="43.5720090" lon="-5.9284970">
        <ele>-6.8</ele>
        <time>2021-07-21T06:30:17Z</time>
      </trkpt>
      <trkpt lat="43.5721400" lon="-5.9285310">
        <ele>-6.8</ele>
        <time>2021-07-21T06:30:21Z</time>
      </trkpt>
      <trkpt lat="43.5722030" lon="-5.9285530">
        <ele>-6.8</ele>
        <time>2021-07-21T06:30:23Z</time>
      </trkpt>
      <trkpt lat="43.5723670" lon="-5.9285990">
        <ele>-6.8</ele>
        <time>2021-07-21T06:30:28Z</time>
      </trkpt>
      <trkpt lat="43.5726400" lon="-5.9286590">
        <ele>-6.8</ele>
        <time>2021-07-21T06:30:36Z</time>
      </trkpt>
      <trkpt lat="43.5727920" lon="-5.9286820">
        <ele>-6.8</ele>
        <time>2021-07-21T06:30:42Z</time>
      </trkpt>
      <trkpt lat="43.5728090" lon="-5.9286800">
        <ele>-6.8</ele>
        <time>2021-07-21T06:30:43Z</time>
      </trkpt>
      <trkpt lat="43.5728140" lon="-5.9286800">
        <ele>-6.8</ele>
        <time>2021-07-21T06:30:44Z</time>
      </trkpt>
      <trkpt lat="43.5728390" lon="-5.9286630">
        <ele>-6.8</ele>
        <time>2021-07-21T06:31:09Z</time>
      </trkpt>
      <trkpt lat="43.5728580" lon="-5.9286580">
        <ele>-6.8</ele>
        <time>2021-07-21T06:31:10Z</time>
      </trkpt>
      <trkpt lat="43.5729490" lon="-5.9286600">
        <ele>-6.8</ele>
        <time>2021-07-21T06:31:13Z</time>
      </trkpt>
      <trkpt lat="43.5730140" lon="-5.9286670">
        <ele>-6.8</ele>
        <time>2021-07-21T06:31:15Z</time>
      </trkpt>
      <trkpt lat="43.5730780" lon="-5.9286810">
        <ele>-6.8</ele>
        <time>2021-07-21T06:31:17Z</time>
      </trkpt>
      <trkpt lat="43.5732080" lon="-5.9287350">
        <ele>-6.8</ele>
        <time>2021-07-21T06:31:21Z</time>
      </trkpt>
      <trkpt lat="43.5733660" lon="-5.9288040">
        <ele>-6.8</ele>
        <time>2021-07-21T06:31:26Z</time>
      </trkpt>
      <trkpt lat="43.5734010" lon="-5.9288110">
        <ele>-6.8</ele>
        <time>2021-07-21T06:31:27Z</time>
      </trkpt>
      <trkpt lat="43.5735070" lon="-5.9288390">
        <ele>-6.8</ele>
        <time>2021-07-21T06:31:30Z</time>
      </trkpt>
      <trkpt lat="43.5736520" lon="-5.9288810">
        <ele>-6.8</ele>
        <time>2021-07-21T06:31:34Z</time>
      </trkpt>
      <trkpt lat="43.5738630" lon="-5.9289400">
        <ele>-6.8</ele>
        <time>2021-07-21T06:31:40Z</time>
      </trkpt>
      <trkpt lat="43.5739320" lon="-5.9289860">
        <ele>-6.8</ele>
        <time>2021-07-21T06:31:42Z</time>
      </trkpt>
      <trkpt lat="43.5741340" lon="-5.9290600">
        <ele>-6.8</ele>
        <time>2021-07-21T06:31:48Z</time>
      </trkpt>
      <trkpt lat="43.5743300" lon="-5.9292090">
        <ele>-6.8</ele>
        <time>2021-07-21T06:31:54Z</time>
      </trkpt>
      <trkpt lat="43.5744670" lon="-5.9293890">
        <ele>-6.8</ele>
        <time>2021-07-21T06:32:00Z</time>
      </trkpt>
      <trkpt lat="43.5745230" lon="-5.9294790">
        <ele>-6.8</ele>
        <time>2021-07-21T06:32:04Z</time>
      </trkpt>
      <trkpt lat="43.5745250" lon="-5.9294810">
        <ele>-6.8</ele>
        <time>2021-07-21T06:32:05Z</time>
      </trkpt>
      <trkpt lat="43.5745400" lon="-5.9295040">
        <ele>-6.8</ele>
        <time>2021-07-21T06:32:35Z</time>
      </trkpt>
      <trkpt lat="43.5745490" lon="-5.9295280">
        <ele>-6.8</ele>
        <time>2021-07-21T06:32:36Z</time>
      </trkpt>
      <trkpt lat="43.5745710" lon="-5.9295940">
        <ele>-6.8</ele>
        <time>2021-07-21T06:32:38Z</time>
      </trkpt>
      <trkpt lat="43.5745810" lon="-5.9296330">
        <ele>-6.8</ele>
        <time>2021-07-21T06:32:39Z</time>
      </trkpt>
      <trkpt lat="43.5745900" lon="-5.9296760">
        <ele>-6.8</ele>
        <time>2021-07-21T06:32:40Z</time>
      </trkpt>
      <trkpt lat="43.5746000" lon="-5.9297640">
        <ele>-6.8</ele>
        <time>2021-07-21T06:32:42Z</time>
      </trkpt>
      <trkpt lat="43.5745950" lon="-5.9299360">
        <ele>-6.8</ele>
        <time>2021-07-21T06:32:46Z</time>
      </trkpt>
      <trkpt lat="43.5745640" lon="-5.9302450">
        <ele>-6.8</ele>
        <time>2021-07-21T06:32:53Z</time>
      </trkpt>
      <trkpt lat="43.5745350" lon="-5.9304260">
        <ele>-6.8</ele>
        <time>2021-07-21T06:32:57Z</time>
      </trkpt>
      <trkpt lat="43.5745150" lon="-5.9305250">
        <ele>-6.8</ele>
        <time>2021-07-21T06:32:59Z</time>
      </trkpt>
      <trkpt lat="43.5744750" lon="-5.9307090">
        <ele>-6.8</ele>
        <time>2021-07-21T06:33:03Z</time>
      </trkpt>
      <trkpt lat="43.5744340" lon="-5.9309070">
        <ele>-6.8</ele>
        <time>2021-07-21T06:33:07Z</time>
      </trkpt>
      <trkpt lat="43.5743470" lon="-5.9313450">
        <ele>-6.8</ele>
        <time>2021-07-21T06:33:16Z</time>
      </trkpt>
      <trkpt lat="43.5742880" lon="-5.9317700">
        <ele>-6.8</ele>
        <time>2021-07-21T06:33:25Z</time>
      </trkpt>
      <trkpt lat="43.5742930" lon="-5.9321420">
        <ele>-6.8</ele>
        <time>2021-07-21T06:33:32Z</time>
      </trkpt>
      <trkpt lat="43.5742940" lon="-5.9323740">
        <ele>-6.8</ele>
        <time>2021-07-21T06:33:36Z</time>
      </trkpt>
      <trkpt lat="43.5742860" lon="-5.9324960">
        <ele>-6.8</ele>
        <time>2021-07-21T06:33:39Z</time>
      </trkpt>
      <trkpt lat="43.5742880" lon="-5.9327030">
        <ele>-6.8</ele>
        <time>2021-07-21T06:33:46Z</time>
      </trkpt>
      <trkpt lat="43.5743010" lon="-5.9330310">
        <ele>-6.8</ele>
        <time>2021-07-21T06:33:54Z</time>
      </trkpt>
      <trkpt lat="43.5743230" lon="-5.9332270">
        <ele>-6.8</ele>
        <time>2021-07-21T06:33:59Z</time>
      </trkpt>
      <trkpt lat="43.5743360" lon="-5.9333730">
        <ele>-6.8</ele>
        <time>2021-07-21T06:34:02Z</time>
      </trkpt>
      <trkpt lat="43.5743480" lon="-5.9335310">
        <ele>-6.8</ele>
        <time>2021-07-21T06:34:05Z</time>
      </trkpt>
      <trkpt lat="43.5743540" lon="-5.9336430">
        <ele>-6.8</ele>
        <time>2021-07-21T06:34:07Z</time>
      </trkpt>
      <trkpt lat="43.5743840" lon="-5.9340770">
        <ele>-6.8</ele>
        <time>2021-07-21T06:34:15Z</time>
      </trkpt>
      <trkpt lat="43.5744160" lon="-5.9346620">
        <ele>-6.8</ele>
        <time>2021-07-21T06:34:26Z</time>
      </trkpt>
      <trkpt lat="43.5744320" lon="-5.9349980">
        <ele>-6.8</ele>
        <time>2021-07-21T06:34:33Z</time>
      </trkpt>
      <trkpt lat="43.5744730" lon="-5.9352280">
        <ele>-6.8</ele>
        <time>2021-07-21T06:34:39Z</time>
      </trkpt>
      <trkpt lat="43.5744870" lon="-5.9356300">
        <ele>-6.8</ele>
        <time>2021-07-21T06:34:47Z</time>
      </trkpt>
      <trkpt lat="43.5744590" lon="-5.9359740">
        <ele>-6.8</ele>
        <time>2021-07-21T06:34:52Z</time>
      </trkpt>
      <trkpt lat="43.5744780" lon="-5.9363310">
        <ele>-6.8</ele>
        <time>2021-07-21T06:34:58Z</time>
      </trkpt>
      <trkpt lat="43.5745390" lon="-5.9368410">
        <ele>-6.8</ele>
        <time>2021-07-21T06:35:07Z</time>
      </trkpt>
      <trkpt lat="43.5746090" lon="-5.9372340">
        <ele>-6.8</ele>
        <time>2021-07-21T06:35:15Z</time>
      </trkpt>
      <trkpt lat="43.5746710" lon="-5.9375140">
        <ele>-6.8</ele>
        <time>2021-07-21T06:35:21Z</time>
      </trkpt>
      <trkpt lat="43.5747190" lon="-5.9378520">
        <ele>-6.8</ele>
        <time>2021-07-21T06:35:28Z</time>
      </trkpt>
      <trkpt lat="43.5747330" lon="-5.9382400">
        <ele>-6.8</ele>
        <time>2021-07-21T06:35:35Z</time>
      </trkpt>
      <trkpt lat="43.5747580" lon="-5.9386960">
        <ele>-6.8</ele>
        <time>2021-07-21T06:35:43Z</time>
      </trkpt>
      <trkpt lat="43.5747820" lon="-5.9389960">
        <ele>-6.8</ele>
        <time>2021-07-21T06:35:49Z</time>
      </trkpt>
      <trkpt lat="43.5748120" lon="-5.9393380">
        <ele>-6.8</ele>
        <time>2021-07-21T06:35:56Z</time>
      </trkpt>
      <trkpt lat="43.5748500" lon="-5.9398330">
        <ele>-6.8</ele>
        <time>2021-07-21T06:36:05Z</time>
      </trkpt>
      <trkpt lat="43.5748730" lon="-5.9401910">
        <ele>-6.8</ele>
        <time>2021-07-21T06:36:11Z</time>
      </trkpt>
      <trkpt lat="43.5748910" lon="-5.9405580">
        <ele>-6.8</ele>
        <time>2021-07-21T06:36:17Z</time>
      </trkpt>
      <trkpt lat="43.5749310" lon="-5.9410580">
        <ele>-6.8</ele>
        <time>2021-07-21T06:36:25Z</time>
      </trkpt>
      <trkpt lat="43.5749580" lon="-5.9414340">
        <ele>-6.8</ele>
        <time>2021-07-21T06:36:31Z</time>
      </trkpt>
      <trkpt lat="43.5749640" lon="-5.9414880">
        <ele>-6.8</ele>
        <time>2021-07-21T06:36:32Z</time>
      </trkpt>
      <trkpt lat="43.5749890" lon="-5.9418210">
        <ele>-6.8</ele>
        <time>2021-07-21T06:36:38Z</time>
      </trkpt>
      <trkpt lat="43.5750310" lon="-5.9422410">
        <ele>-6.8</ele>
        <time>2021-07-21T06:36:45Z</time>
      </trkpt>
      <trkpt lat="43.5750430" lon="-5.9426370">
        <ele>-6.8</ele>
        <time>2021-07-21T06:36:52Z</time>
      </trkpt>
      <trkpt lat="43.5749990" lon="-5.9430760">
        <ele>-6.8</ele>
        <time>2021-07-21T06:37:00Z</time>
      </trkpt>
      <trkpt lat="43.5749070" lon="-5.9435360">
        <ele>-6.8</ele>
        <time>2021-07-21T06:37:08Z</time>
      </trkpt>
      <trkpt lat="43.5748310" lon="-5.9438180">
        <ele>-6.8</ele>
        <time>2021-07-21T06:37:13Z</time>
      </trkpt>
      <trkpt lat="43.5747900" lon="-5.9439240">
        <ele>-6.8</ele>
        <time>2021-07-21T06:37:15Z</time>
      </trkpt>
      <trkpt lat="43.5746000" lon="-5.9443260">
        <ele>-6.8</ele>
        <time>2021-07-21T06:37:22Z</time>
      </trkpt>
      <trkpt lat="43.5744320" lon="-5.9446560">
        <ele>-6.8</ele>
        <time>2021-07-21T06:37:28Z</time>
      </trkpt>
      <trkpt lat="43.5743710" lon="-5.9447710">
        <ele>-6.8</ele>
        <time>2021-07-21T06:37:30Z</time>
      </trkpt>
      <trkpt lat="43.5742330" lon="-5.9450450">
        <ele>-6.8</ele>
        <time>2021-07-21T06:37:35Z</time>
      </trkpt>
      <trkpt lat="43.5741500" lon="-5.9452160">
        <ele>-6.8</ele>
        <time>2021-07-21T06:37:38Z</time>
      </trkpt>
      <trkpt lat="43.5741230" lon="-5.9452690">
        <ele>-6.8</ele>
        <time>2021-07-21T06:37:39Z</time>
      </trkpt>
      <trkpt lat="43.5738970" lon="-5.9457160">
        <ele>-6.8</ele>
        <time>2021-07-21T06:37:48Z</time>
      </trkpt>
      <trkpt lat="43.5737700" lon="-5.9460320">
        <ele>-6.8</ele>
        <time>2021-07-21T06:37:54Z</time>
      </trkpt>
      <trkpt lat="43.5735890" lon="-5.9465030">
        <ele>-6.8</ele>
        <time>2021-07-21T06:38:03Z</time>
      </trkpt>
      <trkpt lat="43.5735080" lon="-5.9468080">
        <ele>-6.8</ele>
        <time>2021-07-21T06:38:09Z</time>
      </trkpt>
      <trkpt lat="43.5734440" lon="-5.9471250">
        <ele>-6.8</ele>
        <time>2021-07-21T06:38:15Z</time>
      </trkpt>
      <trkpt lat="43.5733980" lon="-5.9474460">
        <ele>-6.8</ele>
        <time>2021-07-21T06:38:21Z</time>
      </trkpt>
      <trkpt lat="43.5733390" lon="-5.9478130">
        <ele>-6.8</ele>
        <time>2021-07-21T06:38:28Z</time>
      </trkpt>
      <trkpt lat="43.5732690" lon="-5.9482370">
        <ele>-6.8</ele>
        <time>2021-07-21T06:38:36Z</time>
      </trkpt>
      <trkpt lat="43.5732600" lon="-5.9484610">
        <ele>-6.8</ele>
        <time>2021-07-21T06:38:40Z</time>
      </trkpt>
      <trkpt lat="43.5732470" lon="-5.9485450">
        <ele>-6.8</ele>
        <time>2021-07-21T06:38:42Z</time>
      </trkpt>
      <trkpt lat="43.5731780" lon="-5.9489080">
        <ele>-6.8</ele>
        <time>2021-07-21T06:38:49Z</time>
      </trkpt>
      <trkpt lat="43.5731630" lon="-5.9490160">
        <ele>-6.8</ele>
        <time>2021-07-21T06:38:51Z</time>
      </trkpt>
      <trkpt lat="43.5731450" lon="-5.9491210">
        <ele>-6.8</ele>
        <time>2021-07-21T06:38:53Z</time>
      </trkpt>
      <trkpt lat="43.5731270" lon="-5.9492220">
        <ele>-6.8</ele>
        <time>2021-07-21T06:38:55Z</time>
      </trkpt>
      <trkpt lat="43.5730620" lon="-5.9496380">
        <ele>-6.8</ele>
        <time>2021-07-21T06:39:03Z</time>
      </trkpt>
      <trkpt lat="43.5730430" lon="-5.9497800">
        <ele>-6.8</ele>
        <time>2021-07-21T06:39:06Z</time>
      </trkpt>
      <trkpt lat="43.5730190" lon="-5.9499840">
        <ele>-6.8</ele>
        <time>2021-07-21T06:39:10Z</time>
      </trkpt>
      <trkpt lat="43.5729570" lon="-5.9503490">
        <ele>-6.8</ele>
        <time>2021-07-21T06:39:18Z</time>
      </trkpt>
      <trkpt lat="43.5729430" lon="-5.9504310">
        <ele>-6.8</ele>
        <time>2021-07-21T06:39:20Z</time>
      </trkpt>
      <trkpt lat="43.5729110" lon="-5.9506610">
        <ele>-6.8</ele>
        <time>2021-07-21T06:39:25Z</time>
      </trkpt>
      <trkpt lat="43.5728920" lon="-5.9507640">
        <ele>-6.8</ele>
        <time>2021-07-21T06:39:27Z</time>
      </trkpt>
      <trkpt lat="43.5728430" lon="-5.9510230">
        <ele>-6.8</ele>
        <time>2021-07-21T06:39:32Z</time>
      </trkpt>
      <trkpt lat="43.5728290" lon="-5.9512580">
        <ele>-6.8</ele>
        <time>2021-07-21T06:39:37Z</time>
      </trkpt>
      <trkpt lat="43.5728250" lon="-5.9513040">
        <ele>-6.8</ele>
        <time>2021-07-21T06:39:38Z</time>
      </trkpt>
      <trkpt lat="43.5727900" lon="-5.9515910">
        <ele>-6.8</ele>
        <time>2021-07-21T06:39:45Z</time>
      </trkpt>
      <trkpt lat="43.5727800" lon="-5.9516780">
        <ele>-6.8</ele>
        <time>2021-07-21T06:39:48Z</time>
      </trkpt>
      <trkpt lat="43.5727800" lon="-5.9516770">
        <ele>-6.8</ele>
        <time>2021-07-21T06:39:49Z</time>
      </trkpt>
      <trkpt lat="43.5727790" lon="-5.9517090">
        <ele>-6.8</ele>
        <time>2021-07-21T06:40:31Z</time>
      </trkpt>
      <trkpt lat="43.5727760" lon="-5.9518170">
        <ele>-6.8</ele>
        <time>2021-07-21T06:40:34Z</time>
      </trkpt>
      <trkpt lat="43.5727620" lon="-5.9519020">
        <ele>-6.8</ele>
        <time>2021-07-21T06:40:36Z</time>
      </trkpt>
      <trkpt lat="43.5727470" lon="-5.9519920">
        <ele>-6.8</ele>
        <time>2021-07-21T06:40:38Z</time>
      </trkpt>
      <trkpt lat="43.5727100" lon="-5.9521990">
        <ele>-6.8</ele>
        <time>2021-07-21T06:40:43Z</time>
      </trkpt>
      <trkpt lat="43.5726630" lon="-5.9524130">
        <ele>-6.8</ele>
        <time>2021-07-21T06:40:48Z</time>
      </trkpt>
      <trkpt lat="43.5726380" lon="-5.9525190">
        <ele>-6.8</ele>
        <time>2021-07-21T06:40:50Z</time>
      </trkpt>
      <trkpt lat="43.5726010" lon="-5.9526860">
        <ele>-6.8</ele>
        <time>2021-07-21T06:40:53Z</time>
      </trkpt>
      <trkpt lat="43.5725710" lon="-5.9528550">
        <ele>-6.8</ele>
        <time>2021-07-21T06:40:56Z</time>
      </trkpt>
      <trkpt lat="43.5724990" lon="-5.9532460">
        <ele>-6.8</ele>
        <time>2021-07-21T06:41:03Z</time>
      </trkpt>
      <trkpt lat="43.5724890" lon="-5.9533010">
        <ele>-6.8</ele>
        <time>2021-07-21T06:41:04Z</time>
      </trkpt>
      <trkpt lat="43.5724390" lon="-5.9536480">
        <ele>-6.8</ele>
        <time>2021-07-21T06:41:10Z</time>
      </trkpt>
      <trkpt lat="43.5723620" lon="-5.9540690">
        <ele>-6.8</ele>
        <time>2021-07-21T06:41:17Z</time>
      </trkpt>
      <trkpt lat="43.5723410" lon="-5.9542390">
        <ele>-6.8</ele>
        <time>2021-07-21T06:41:20Z</time>
      </trkpt>
      <trkpt lat="43.5722860" lon="-5.9545250">
        <ele>-6.8</ele>
        <time>2021-07-21T06:41:25Z</time>
      </trkpt>
      <trkpt lat="43.5722260" lon="-5.9549430">
        <ele>-6.8</ele>
        <time>2021-07-21T06:41:32Z</time>
      </trkpt>
      <trkpt lat="43.5721780" lon="-5.9552520">
        <ele>-6.8</ele>
        <time>2021-07-21T06:41:37Z</time>
      </trkpt>
      <trkpt lat="43.5721370" lon="-5.9554990">
        <ele>-6.8</ele>
        <time>2021-07-21T06:41:41Z</time>
      </trkpt>
      <trkpt lat="43.5720710" lon="-5.9559240">
        <ele>-6.8</ele>
        <time>2021-07-21T06:41:48Z</time>
      </trkpt>
      <trkpt lat="43.5720340" lon="-5.9561660">
        <ele>-6.8</ele>
        <time>2021-07-21T06:41:53Z</time>
      </trkpt>
      <trkpt lat="43.5720290" lon="-5.9561920">
        <ele>-6.8</ele>
        <time>2021-07-21T06:41:54Z</time>
      </trkpt>
      <trkpt lat="43.5720230" lon="-5.9562010">
        <ele>-6.8</ele>
        <time>2021-07-21T06:41:56Z</time>
      </trkpt>
      <trkpt lat="43.5720120" lon="-5.9562070">
        <ele>-9.0</ele>
        <time>2021-07-21T06:42:20Z</time>
      </trkpt>
      <trkpt lat="43.5720110" lon="-5.9562210">
        <ele>-9.0</ele>
        <time>2021-07-21T06:42:21Z</time>
      </trkpt>
      <trkpt lat="43.5720100" lon="-5.9562420">
        <ele>-9.0</ele>
        <time>2021-07-21T06:42:23Z</time>
      </trkpt>
      <trkpt lat="43.5720000" lon="-5.9562740">
        <ele>-9.0</ele>
        <time>2021-07-21T06:42:26Z</time>
      </trkpt>
      <trkpt lat="43.5719920" lon="-5.9562980">
        <ele>-9.0</ele>
        <time>2021-07-21T06:43:24Z</time>
      </trkpt>
      <trkpt lat="43.5719910" lon="-5.9563140">
        <ele>-9.0</ele>
        <time>2021-07-21T06:43:25Z</time>
      </trkpt>
      <trkpt lat="43.5719870" lon="-5.9563850">
        <ele>-9.0</ele>
        <time>2021-07-21T06:43:28Z</time>
      </trkpt>
      <trkpt lat="43.5719810" lon="-5.9564580">
        <ele>-9.0</ele>
        <time>2021-07-21T06:43:30Z</time>
      </trkpt>
      <trkpt lat="43.5719630" lon="-5.9565880">
        <ele>-9.0</ele>
        <time>2021-07-21T06:43:33Z</time>
      </trkpt>
      <trkpt lat="43.5719470" lon="-5.9566820">
        <ele>-9.0</ele>
        <time>2021-07-21T06:43:35Z</time>
      </trkpt>
      <trkpt lat="43.5718940" lon="-5.9570310">
        <ele>-9.0</ele>
        <time>2021-07-21T06:43:43Z</time>
      </trkpt>
      <trkpt lat="43.5718380" lon="-5.9573840">
        <ele>-9.0</ele>
        <time>2021-07-21T06:43:51Z</time>
      </trkpt>
      <trkpt lat="43.5717990" lon="-5.9576410">
        <ele>-9.0</ele>
        <time>2021-07-21T06:43:57Z</time>
      </trkpt>
      <trkpt lat="43.5717780" lon="-5.9577880">
        <ele>-9.0</ele>
        <time>2021-07-21T06:44:02Z</time>
      </trkpt>
      <trkpt lat="43.5717770" lon="-5.9577940">
        <ele>-9.0</ele>
        <time>2021-07-21T06:44:04Z</time>
      </trkpt>
      <trkpt lat="43.5717720" lon="-5.9578240">
        <ele>-9.0</ele>
        <time>2021-07-21T06:44:16Z</time>
      </trkpt>
      <trkpt lat="43.5717670" lon="-5.9578480">
        <ele>-9.0</ele>
        <time>2021-07-21T06:44:17Z</time>
      </trkpt>
      <trkpt lat="43.5717480" lon="-5.9579720">
        <ele>-9.0</ele>
        <time>2021-07-21T06:44:20Z</time>
      </trkpt>
      <trkpt lat="43.5717410" lon="-5.9580650">
        <ele>-9.0</ele>
        <time>2021-07-21T06:44:22Z</time>
      </trkpt>
      <trkpt lat="43.5716800" lon="-5.9584610">
        <ele>-9.0</ele>
        <time>2021-07-21T06:44:29Z</time>
      </trkpt>
      <trkpt lat="43.5716070" lon="-5.9587870">
        <ele>-9.0</ele>
        <time>2021-07-21T06:44:35Z</time>
      </trkpt>
      <trkpt lat="43.5715110" lon="-5.9591740">
        <ele>-9.0</ele>
        <time>2021-07-21T06:44:42Z</time>
      </trkpt>
      <trkpt lat="43.5714360" lon="-5.9596050">
        <ele>-9.0</ele>
        <time>2021-07-21T06:44:50Z</time>
      </trkpt>
      <trkpt lat="43.5713310" lon="-5.9600030">
        <ele>-9.0</ele>
        <time>2021-07-21T06:44:58Z</time>
      </trkpt>
      <trkpt lat="43.5712890" lon="-5.9601800">
        <ele>-9.0</ele>
        <time>2021-07-21T06:45:02Z</time>
      </trkpt>
      <trkpt lat="43.5712890" lon="-5.9602600">
        <ele>-9.0</ele>
        <time>2021-07-21T06:45:04Z</time>
      </trkpt>
      <trkpt lat="43.5712900" lon="-5.9603480">
        <ele>-9.0</ele>
        <time>2021-07-21T06:45:06Z</time>
      </trkpt>
      <trkpt lat="43.5712780" lon="-5.9605100">
        <ele>-9.0</ele>
        <time>2021-07-21T06:45:10Z</time>
      </trkpt>
      <trkpt lat="43.5712590" lon="-5.9605460">
        <ele>-9.0</ele>
        <time>2021-07-21T06:45:11Z</time>
      </trkpt>
      <trkpt lat="43.5711810" lon="-5.9606600">
        <ele>-9.0</ele>
        <time>2021-07-21T06:45:15Z</time>
      </trkpt>
      <trkpt lat="43.5711530" lon="-5.9606910">
        <ele>-9.0</ele>
        <time>2021-07-21T06:45:17Z</time>
      </trkpt>
      <trkpt lat="43.5710430" lon="-5.9607620">
        <ele>-9.0</ele>
        <time>2021-07-21T06:45:23Z</time>
      </trkpt>
      <trkpt lat="43.5710210" lon="-5.9607700">
        <ele>-9.0</ele>
        <time>2021-07-21T06:45:24Z</time>
      </trkpt>
      <trkpt lat="43.5709170" lon="-5.9609020">
        <ele>-9.0</ele>
        <time>2021-07-21T06:45:30Z</time>
      </trkpt>
      <trkpt lat="43.5708450" lon="-5.9610880">
        <ele>-9.0</ele>
        <time>2021-07-21T06:45:35Z</time>
      </trkpt>
      <trkpt lat="43.5707410" lon="-5.9611740">
        <ele>-9.0</ele>
        <time>2021-07-21T06:45:38Z</time>
      </trkpt>
      <trkpt lat="43.5707030" lon="-5.9611960">
        <ele>-9.0</ele>
        <time>2021-07-21T06:45:39Z</time>
      </trkpt>
      <trkpt lat="43.5706310" lon="-5.9612550">
        <ele>-9.0</ele>
        <time>2021-07-21T06:45:41Z</time>
      </trkpt>
      <trkpt lat="43.5705010" lon="-5.9613880">
        <ele>-9.0</ele>
        <time>2021-07-21T06:45:45Z</time>
      </trkpt>
      <trkpt lat="43.5704310" lon="-5.9614580">
        <ele>-9.0</ele>
        <time>2021-07-21T06:45:47Z</time>
      </trkpt>
      <trkpt lat="43.5703000" lon="-5.9615950">
        <ele>-9.0</ele>
        <time>2021-07-21T06:45:51Z</time>
      </trkpt>
      <trkpt lat="43.5701000" lon="-5.9617940">
        <ele>-9.0</ele>
        <time>2021-07-21T06:45:57Z</time>
      </trkpt>
      <trkpt lat="43.5700630" lon="-5.9618240">
        <ele>-9.0</ele>
        <time>2021-07-21T06:45:58Z</time>
      </trkpt>
      <trkpt lat="43.5700280" lon="-5.9618590">
        <ele>-9.0</ele>
        <time>2021-07-21T06:45:59Z</time>
      </trkpt>
      <trkpt lat="43.5699280" lon="-5.9619530">
        <ele>-9.0</ele>
        <time>2021-07-21T06:46:02Z</time>
      </trkpt>
      <trkpt lat="43.5698330" lon="-5.9620460">
        <ele>-9.0</ele>
        <time>2021-07-21T06:46:05Z</time>
      </trkpt>
      <trkpt lat="43.5695190" lon="-5.9623470">
        <ele>-9.0</ele>
        <time>2021-07-21T06:46:15Z</time>
      </trkpt>
      <trkpt lat="43.5694170" lon="-5.9624410">
        <ele>-9.0</ele>
        <time>2021-07-21T06:46:18Z</time>
      </trkpt>
      <trkpt lat="43.5693030" lon="-5.9625940">
        <ele>-9.0</ele>
        <time>2021-07-21T06:46:22Z</time>
      </trkpt>
      <trkpt lat="43.5690400" lon="-5.9628630">
        <ele>-9.0</ele>
        <time>2021-07-21T06:46:30Z</time>
      </trkpt>
      <trkpt lat="43.5688380" lon="-5.9630830">
        <ele>-9.0</ele>
        <time>2021-07-21T06:46:37Z</time>
      </trkpt>
      <trkpt lat="43.5685930" lon="-5.9633390">
        <ele>-9.0</ele>
        <time>2021-07-21T06:46:44Z</time>
      </trkpt>
      <trkpt lat="43.5683450" lon="-5.9635930">
        <ele>-9.0</ele>
        <time>2021-07-21T06:46:52Z</time>
      </trkpt>
      <trkpt lat="43.5681450" lon="-5.9637830">
        <ele>-9.0</ele>
        <time>2021-07-21T06:46:59Z</time>
      </trkpt>
      <trkpt lat="43.5678600" lon="-5.9640900">
        <ele>-9.0</ele>
        <time>2021-07-21T06:47:08Z</time>
      </trkpt>
      <trkpt lat="43.5676430" lon="-5.9643160">
        <ele>-9.0</ele>
        <time>2021-07-21T06:47:15Z</time>
      </trkpt>
      <trkpt lat="43.5674420" lon="-5.9645310">
        <ele>-9.0</ele>
        <time>2021-07-21T06:47:22Z</time>
      </trkpt>
      <trkpt lat="43.5672090" lon="-5.9647820">
        <ele>-9.0</ele>
        <time>2021-07-21T06:47:30Z</time>
      </trkpt>
      <trkpt lat="43.5670030" lon="-5.9649890">
        <ele>-9.0</ele>
        <time>2021-07-21T06:47:37Z</time>
      </trkpt>
      <trkpt lat="43.5668080" lon="-5.9652010">
        <ele>-9.0</ele>
        <time>2021-07-21T06:47:44Z</time>
      </trkpt>
      <trkpt lat="43.5665570" lon="-5.9655180">
        <ele>-9.0</ele>
        <time>2021-07-21T06:47:54Z</time>
      </trkpt>
      <trkpt lat="43.5664550" lon="-5.9656650">
        <ele>-8.6</ele>
        <time>2021-07-21T06:47:58Z</time>
      </trkpt>
      <trkpt lat="43.5664330" lon="-5.9657000">
        <ele>-8.2</ele>
        <time>2021-07-21T06:47:59Z</time>
      </trkpt>
      <trkpt lat="43.5664100" lon="-5.9657370">
        <ele>-7.8</ele>
        <time>2021-07-21T06:48:00Z</time>
      </trkpt>
      <trkpt lat="43.5663900" lon="-5.9657740">
        <ele>-7.0</ele>
        <time>2021-07-21T06:48:01Z</time>
      </trkpt>
      <trkpt lat="43.5663480" lon="-5.9658530">
        <ele>-7.0</ele>
        <time>2021-07-21T06:48:03Z</time>
      </trkpt>
      <trkpt lat="43.5661780" lon="-5.9662050">
        <ele>-7.0</ele>
        <time>2021-07-21T06:48:12Z</time>
      </trkpt>
      <trkpt lat="43.5659900" lon="-5.9664770">
        <ele>-7.0</ele>
        <time>2021-07-21T06:48:20Z</time>
      </trkpt>
      <trkpt lat="43.5657890" lon="-5.9666140">
        <ele>-7.0</ele>
        <time>2021-07-21T06:48:27Z</time>
      </trkpt>
      <trkpt lat="43.5655800" lon="-5.9667210">
        <ele>-7.0</ele>
        <time>2021-07-21T06:48:35Z</time>
      </trkpt>
      <trkpt lat="43.5655790" lon="-5.9667320">
        <ele>-7.0</ele>
        <time>2021-07-21T06:48:37Z</time>
      </trkpt>
      <trkpt lat="43.5655550" lon="-5.9667330">
        <ele>-7.0</ele>
        <time>2021-07-21T06:50:09Z</time>
      </trkpt>
      <trkpt lat="43.5655390" lon="-5.9667410">
        <ele>-7.0</ele>
        <time>2021-07-21T06:50:10Z</time>
      </trkpt>
      <trkpt lat="43.5655040" lon="-5.9667590">
        <ele>-7.0</ele>
        <time>2021-07-21T06:50:12Z</time>
      </trkpt>
      <trkpt lat="43.5654800" lon="-5.9667720">
        <ele>-7.0</ele>
        <time>2021-07-21T06:50:13Z</time>
      </trkpt>
      <trkpt lat="43.5654160" lon="-5.9668080">
        <ele>-7.0</ele>
        <time>2021-07-21T06:50:15Z</time>
      </trkpt>
      <trkpt lat="43.5653140" lon="-5.9668660">
        <ele>-7.0</ele>
        <time>2021-07-21T06:50:18Z</time>
      </trkpt>
      <trkpt lat="43.5652460" lon="-5.9669090">
        <ele>-7.0</ele>
        <time>2021-07-21T06:50:20Z</time>
      </trkpt>
      <trkpt lat="43.5651430" lon="-5.9669780">
        <ele>-7.0</ele>
        <time>2021-07-21T06:50:23Z</time>
      </trkpt>
      <trkpt lat="43.5648570" lon="-5.9672120">
        <ele>-7.0</ele>
        <time>2021-07-21T06:50:31Z</time>
      </trkpt>
      <trkpt lat="43.5646600" lon="-5.9674180">
        <ele>-7.0</ele>
        <time>2021-07-21T06:50:37Z</time>
      </trkpt>
      <trkpt lat="43.5645180" lon="-5.9675700">
        <ele>-7.0</ele>
        <time>2021-07-21T06:50:41Z</time>
      </trkpt>
      <trkpt lat="43.5643820" lon="-5.9677130">
        <ele>-7.0</ele>
        <time>2021-07-21T06:50:45Z</time>
      </trkpt>
      <trkpt lat="43.5643460" lon="-5.9677490">
        <ele>-6.6</ele>
        <time>2021-07-21T06:50:46Z</time>
      </trkpt>
      <trkpt lat="43.5643100" lon="-5.9677820">
        <ele>-6.2</ele>
        <time>2021-07-21T06:50:47Z</time>
      </trkpt>
      <trkpt lat="43.5642760" lon="-5.9678190">
        <ele>-5.6</ele>
        <time>2021-07-21T06:50:48Z</time>
      </trkpt>
      <trkpt lat="43.5642410" lon="-5.9678550">
        <ele>-5.2</ele>
        <time>2021-07-21T06:50:49Z</time>
      </trkpt>
      <trkpt lat="43.5642060" lon="-5.9678910">
        <ele>-4.8</ele>
        <time>2021-07-21T06:50:50Z</time>
      </trkpt>
      <trkpt lat="43.5639630" lon="-5.9681420">
        <ele>-4.8</ele>
        <time>2021-07-21T06:50:57Z</time>
      </trkpt>
      <trkpt lat="43.5636980" lon="-5.9684080">
        <ele>-4.8</ele>
        <time>2021-07-21T06:51:05Z</time>
      </trkpt>
      <trkpt lat="43.5635160" lon="-5.9686080">
        <ele>-4.4</ele>
        <time>2021-07-21T06:51:11Z</time>
      </trkpt>
      <trkpt lat="43.5634830" lon="-5.9686370">
        <ele>-4.0</ele>
        <time>2021-07-21T06:51:12Z</time>
      </trkpt>
      <trkpt lat="43.5634510" lon="-5.9686650">
        <ele>-3.6</ele>
        <time>2021-07-21T06:51:13Z</time>
      </trkpt>
      <trkpt lat="43.5634210" lon="-5.9686960">
        <ele>-3.2</ele>
        <time>2021-07-21T06:51:14Z</time>
      </trkpt>
      <trkpt lat="43.5633930" lon="-5.9687260">
        <ele>-2.8</ele>
        <time>2021-07-21T06:51:15Z</time>
      </trkpt>
      <trkpt lat="43.5631920" lon="-5.9689500">
        <ele>-2.8</ele>
        <time>2021-07-21T06:51:22Z</time>
      </trkpt>
      <trkpt lat="43.5630440" lon="-5.9690920">
        <ele>-2.4</ele>
        <time>2021-07-21T06:51:27Z</time>
      </trkpt>
      <trkpt lat="43.5630150" lon="-5.9691170">
        <ele>-2.0</ele>
        <time>2021-07-21T06:51:28Z</time>
      </trkpt>
      <trkpt lat="43.5629860" lon="-5.9691450">
        <ele>-1.6</ele>
        <time>2021-07-21T06:51:29Z</time>
      </trkpt>
      <trkpt lat="43.5629580" lon="-5.9691770">
        <ele>-1.2</ele>
        <time>2021-07-21T06:51:30Z</time>
      </trkpt>
      <trkpt lat="43.5629310" lon="-5.9692120">
        <ele>-0.8</ele>
        <time>2021-07-21T06:51:31Z</time>
      </trkpt>
      <trkpt lat="43.5627860" lon="-5.9693520">
        <ele>-0.8</ele>
        <time>2021-07-21T06:51:36Z</time>
      </trkpt>
      <trkpt lat="43.5625960" lon="-5.9695520">
        <ele>-0.8</ele>
        <time>2021-07-21T06:51:43Z</time>
      </trkpt>
      <trkpt lat="43.5625700" lon="-5.9695850">
        <ele>0.0</ele>
        <time>2021-07-21T06:51:44Z</time>
      </trkpt>
      <trkpt lat="43.5625460" lon="-5.9696140">
        <ele>0.4</ele>
        <time>2021-07-21T06:51:45Z</time>
      </trkpt>
      <trkpt lat="43.5625180" lon="-5.9696400">
        <ele>0.8</ele>
        <time>2021-07-21T06:51:46Z</time>
      </trkpt>
      <trkpt lat="43.5624900" lon="-5.9696650">
        <ele>1.2</ele>
        <time>2021-07-21T06:51:47Z</time>
      </trkpt>
      <trkpt lat="43.5624340" lon="-5.9697160">
        <ele>1.2</ele>
        <time>2021-07-21T06:51:49Z</time>
      </trkpt>
      <trkpt lat="43.5622480" lon="-5.9699150">
        <ele>1.2</ele>
        <time>2021-07-21T06:51:56Z</time>
      </trkpt>
      <trkpt lat="43.5621410" lon="-5.9700210">
        <ele>1.6</ele>
        <time>2021-07-21T06:52:00Z</time>
      </trkpt>
      <trkpt lat="43.5621150" lon="-5.9700470">
        <ele>2.0</ele>
        <time>2021-07-21T06:52:01Z</time>
      </trkpt>
      <trkpt lat="43.5620890" lon="-5.9700700">
        <ele>2.4</ele>
        <time>2021-07-21T06:52:02Z</time>
      </trkpt>
      <trkpt lat="43.5620630" lon="-5.9700930">
        <ele>2.8</ele>
        <time>2021-07-21T06:52:03Z</time>
      </trkpt>
      <trkpt lat="43.5620390" lon="-5.9701210">
        <ele>3.2</ele>
        <time>2021-07-21T06:52:04Z</time>
      </trkpt>
      <trkpt lat="43.5620150" lon="-5.9701500">
        <ele>3.2</ele>
        <time>2021-07-21T06:52:05Z</time>
      </trkpt>
      <trkpt lat="43.5618430" lon="-5.9703230">
        <ele>3.2</ele>
        <time>2021-07-21T06:52:12Z</time>
      </trkpt>
      <trkpt lat="43.5616680" lon="-5.9705010">
        <ele>3.6</ele>
        <time>2021-07-21T06:52:19Z</time>
      </trkpt>
      <trkpt lat="43.5616440" lon="-5.9705260">
        <ele>4.0</ele>
        <time>2021-07-21T06:52:20Z</time>
      </trkpt>
      <trkpt lat="43.5616210" lon="-5.9705490">
        <ele>4.4</ele>
        <time>2021-07-21T06:52:21Z</time>
      </trkpt>
      <trkpt lat="43.5615970" lon="-5.9705690">
        <ele>4.8</ele>
        <time>2021-07-21T06:52:22Z</time>
      </trkpt>
      <trkpt lat="43.5615750" lon="-5.9705950">
        <ele>5.2</ele>
        <time>2021-07-21T06:52:23Z</time>
      </trkpt>
      <trkpt lat="43.5614560" lon="-5.9707190">
        <ele>5.2</ele>
        <time>2021-07-21T06:52:28Z</time>
      </trkpt>
      <trkpt lat="43.5613140" lon="-5.9708830">
        <ele>5.2</ele>
        <time>2021-07-21T06:52:35Z</time>
      </trkpt>
      <trkpt lat="43.5612940" lon="-5.9710140">
        <ele>5.2</ele>
        <time>2021-07-21T06:52:39Z</time>
      </trkpt>
      <trkpt lat="43.5612760" lon="-5.9710680">
        <ele>5.6</ele>
        <time>2021-07-21T06:52:41Z</time>
      </trkpt>
      <trkpt lat="43.5612660" lon="-5.9710940">
        <ele>6.0</ele>
        <time>2021-07-21T06:52:42Z</time>
      </trkpt>
      <trkpt lat="43.5612570" lon="-5.9711220">
        <ele>6.4</ele>
        <time>2021-07-21T06:52:43Z</time>
      </trkpt>
      <trkpt lat="43.5612480" lon="-5.9711490">
        <ele>6.8</ele>
        <time>2021-07-21T06:52:44Z</time>
      </trkpt>
      <trkpt lat="43.5612400" lon="-5.9711710">
        <ele>7.2</ele>
        <time>2021-07-21T06:52:45Z</time>
      </trkpt>
      <trkpt lat="43.5612290" lon="-5.9712010">
        <ele>7.2</ele>
        <time>2021-07-21T06:52:46Z</time>
      </trkpt>
      <trkpt lat="43.5611630" lon="-5.9713640">
        <ele>7.8</ele>
        <time>2021-07-21T06:52:53Z</time>
      </trkpt>
      <trkpt lat="43.5611510" lon="-5.9713840">
        <ele>8.2</ele>
        <time>2021-07-21T06:52:54Z</time>
      </trkpt>
      <trkpt lat="43.5611360" lon="-5.9714040">
        <ele>8.6</ele>
        <time>2021-07-21T06:52:55Z</time>
      </trkpt>
      <trkpt lat="43.5611240" lon="-5.9714290">
        <ele>9.0</ele>
        <time>2021-07-21T06:52:56Z</time>
      </trkpt>
      <trkpt lat="43.5611140" lon="-5.9714530">
        <ele>9.4</ele>
        <time>2021-07-21T06:52:57Z</time>
      </trkpt>
      <trkpt lat="43.5611040" lon="-5.9714990">
        <ele>9.4</ele>
        <time>2021-07-21T06:52:59Z</time>
      </trkpt>
      <trkpt lat="43.5610810" lon="-5.9715630">
        <ele>9.8</ele>
        <time>2021-07-21T06:53:02Z</time>
      </trkpt>
      <trkpt lat="43.5610790" lon="-5.9715830">
        <ele>10.2</ele>
        <time>2021-07-21T06:53:03Z</time>
      </trkpt>
      <trkpt lat="43.5610730" lon="-5.9716010">
        <ele>10.6</ele>
        <time>2021-07-21T06:53:04Z</time>
      </trkpt>
      <trkpt lat="43.5610650" lon="-5.9716300">
        <ele>11.0</ele>
        <time>2021-07-21T06:53:05Z</time>
      </trkpt>
      <trkpt lat="43.5610530" lon="-5.9716540">
        <ele>11.4</ele>
        <time>2021-07-21T06:53:06Z</time>
      </trkpt>
      <trkpt lat="43.5610240" lon="-5.9717130">
        <ele>11.4</ele>
        <time>2021-07-21T06:53:09Z</time>
      </trkpt>
      <trkpt lat="43.5609970" lon="-5.9717570">
        <ele>11.8</ele>
        <time>2021-07-21T06:53:11Z</time>
      </trkpt>
      <trkpt lat="43.5609890" lon="-5.9717790">
        <ele>12.4</ele>
        <time>2021-07-21T06:53:12Z</time>
      </trkpt>
      <trkpt lat="43.5609780" lon="-5.9718010">
        <ele>12.8</ele>
        <time>2021-07-21T06:53:13Z</time>
      </trkpt>
      <trkpt lat="43.5609710" lon="-5.9718250">
        <ele>13.2</ele>
        <time>2021-07-21T06:53:14Z</time>
      </trkpt>
      <trkpt lat="43.5609580" lon="-5.9718460">
        <ele>13.8</ele>
        <time>2021-07-21T06:53:15Z</time>
      </trkpt>
      <trkpt lat="43.5608980" lon="-5.9719910">
        <ele>13.8</ele>
        <time>2021-07-21T06:53:21Z</time>
      </trkpt>
      <trkpt lat="43.5608230" lon="-5.9722020">
        <ele>13.8</ele>
        <time>2021-07-21T06:53:28Z</time>
      </trkpt>
      <trkpt lat="43.5607680" lon="-5.9723190">
        <ele>13.8</ele>
        <time>2021-07-21T06:53:31Z</time>
      </trkpt>
      <trkpt lat="43.5607330" lon="-5.9724070">
        <ele>13.8</ele>
        <time>2021-07-21T06:53:33Z</time>
      </trkpt>
      <trkpt lat="43.5607110" lon="-5.9724550">
        <ele>13.8</ele>
        <time>2021-07-21T06:53:34Z</time>
      </trkpt>
      <trkpt lat="43.5606720" lon="-5.9725450">
        <ele>13.8</ele>
        <time>2021-07-21T06:53:36Z</time>
      </trkpt>
      <trkpt lat="43.5606380" lon="-5.9726560">
        <ele>13.8</ele>
        <time>2021-07-21T06:53:38Z</time>
      </trkpt>
      <trkpt lat="43.5606160" lon="-5.9727080">
        <ele>13.8</ele>
        <time>2021-07-21T06:53:39Z</time>
      </trkpt>
      <trkpt lat="43.5605350" lon="-5.9728270">
        <ele>13.8</ele>
        <time>2021-07-21T06:53:42Z</time>
      </trkpt>
      <trkpt lat="43.5604830" lon="-5.9728870">
        <ele>13.8</ele>
        <time>2021-07-21T06:53:44Z</time>
      </trkpt>
      <trkpt lat="43.5604250" lon="-5.9729590">
        <ele>13.8</ele>
        <time>2021-07-21T06:53:46Z</time>
      </trkpt>
      <trkpt lat="43.5603920" lon="-5.9729870">
        <ele>13.8</ele>
        <time>2021-07-21T06:53:47Z</time>
      </trkpt>
      <trkpt lat="43.5603600" lon="-5.9730230">
        <ele>13.4</ele>
        <time>2021-07-21T06:53:48Z</time>
      </trkpt>
      <trkpt lat="43.5603270" lon="-5.9730720">
        <ele>13.0</ele>
        <time>2021-07-21T06:53:49Z</time>
      </trkpt>
      <trkpt lat="43.5602860" lon="-5.9730790">
        <ele>12.6</ele>
        <time>2021-07-21T06:53:50Z</time>
      </trkpt>
      <trkpt lat="43.5602620" lon="-5.9730830">
        <ele>12.0</ele>
        <time>2021-07-21T06:53:51Z</time>
      </trkpt>
      <trkpt lat="43.5602580" lon="-5.9730810">
        <ele>11.6</ele>
        <time>2021-07-21T06:53:52Z</time>
      </trkpt>
      <trkpt lat="43.5602270" lon="-5.9731260">
        <ele>11.6</ele>
        <time>2021-07-21T06:53:55Z</time>
      </trkpt>
      <trkpt lat="43.5602720" lon="-5.9732330">
        <ele>11.6</ele>
        <time>2021-07-21T06:53:59Z</time>
      </trkpt>
      <trkpt lat="43.5603490" lon="-5.9735370">
        <ele>11.6</ele>
        <time>2021-07-21T06:54:07Z</time>
      </trkpt>
      <trkpt lat="43.5603980" lon="-5.9738180">
        <ele>11.6</ele>
        <time>2021-07-21T06:54:13Z</time>
      </trkpt>
      <trkpt lat="43.5604400" lon="-5.9739790">
        <ele>11.2</ele>
        <time>2021-07-21T06:54:16Z</time>
      </trkpt>
      <trkpt lat="43.5604490" lon="-5.9740310">
        <ele>10.8</ele>
        <time>2021-07-21T06:54:17Z</time>
      </trkpt>
      <trkpt lat="43.5604470" lon="-5.9740730">
        <ele>10.4</ele>
        <time>2021-07-21T06:54:18Z</time>
      </trkpt>
      <trkpt lat="43.5604410" lon="-5.9741160">
        <ele>10.0</ele>
        <time>2021-07-21T06:54:19Z</time>
      </trkpt>
      <trkpt lat="43.5604320" lon="-5.9741570">
        <ele>9.6</ele>
        <time>2021-07-21T06:54:20Z</time>
      </trkpt>
      <trkpt lat="43.5604520" lon="-5.9742830">
        <ele>9.6</ele>
        <time>2021-07-21T06:54:24Z</time>
      </trkpt>
      <trkpt lat="43.5604780" lon="-5.9742900">
        <ele>9.6</ele>
        <time>2021-07-21T06:54:25Z</time>
      </trkpt>
      <trkpt lat="43.5605200" lon="-5.9743120">
        <ele>9.2</ele>
        <time>2021-07-21T06:54:27Z</time>
      </trkpt>
      <trkpt lat="43.5605270" lon="-5.9743320">
        <ele>8.8</ele>
        <time>2021-07-21T06:54:28Z</time>
      </trkpt>
      <trkpt lat="43.5605340" lon="-5.9743570">
        <ele>8.4</ele>
        <time>2021-07-21T06:54:29Z</time>
      </trkpt>
      <trkpt lat="43.5605530" lon="-5.9743730">
        <ele>8.0</ele>
        <time>2021-07-21T06:54:30Z</time>
      </trkpt>
      <trkpt lat="43.5605740" lon="-5.9743830">
        <ele>7.6</ele>
        <time>2021-07-21T06:54:31Z</time>
      </trkpt>
      <trkpt lat="43.5606010" lon="-5.9743850">
        <ele>7.6</ele>
        <time>2021-07-21T06:54:33Z</time>
      </trkpt>
      <trkpt lat="43.5605980" lon="-5.9743830">
        <ele>7.6</ele>
        <time>2021-07-21T06:54:34Z</time>
      </trkpt>
      <trkpt lat="43.5605820" lon="-5.9744070">
        <ele>7.6</ele>
        <time>2021-07-21T06:54:41Z</time>
      </trkpt>
      <trkpt lat="43.5605430" lon="-5.9744110">
        <ele>7.6</ele>
        <time>2021-07-21T06:54:43Z</time>
      </trkpt>
      <trkpt lat="43.5604810" lon="-5.9744450">
        <ele>7.6</ele>
        <time>2021-07-21T06:54:46Z</time>
      </trkpt>
      <trkpt lat="43.5604490" lon="-5.9745220">
        <ele>7.6</ele>
        <time>2021-07-21T06:54:48Z</time>
      </trkpt>
      <trkpt lat="43.5604320" lon="-5.9746180">
        <ele>7.6</ele>
        <time>2021-07-21T06:54:50Z</time>
      </trkpt>
      <trkpt lat="43.5604120" lon="-5.9747930">
        <ele>7.6</ele>
        <time>2021-07-21T06:54:53Z</time>
      </trkpt>
      <trkpt lat="43.5603530" lon="-5.9752830">
        <ele>7.6</ele>
        <time>2021-07-21T06:55:00Z</time>
      </trkpt>
      <trkpt lat="43.5603240" lon="-5.9754920">
        <ele>7.6</ele>
        <time>2021-07-21T06:55:03Z</time>
      </trkpt>
      <trkpt lat="43.5603170" lon="-5.9755600">
        <ele>7.2</ele>
        <time>2021-07-21T06:55:04Z</time>
      </trkpt>
      <trkpt lat="43.5603070" lon="-5.9756230">
        <ele>6.6</ele>
        <time>2021-07-21T06:55:05Z</time>
      </trkpt>
      <trkpt lat="43.5602990" lon="-5.9756810">
        <ele>6.2</ele>
        <time>2021-07-21T06:55:06Z</time>
      </trkpt>
      <trkpt lat="43.5602910" lon="-5.9757380">
        <ele>5.8</ele>
        <time>2021-07-21T06:55:07Z</time>
      </trkpt>
      <trkpt lat="43.5602830" lon="-5.9757970">
        <ele>5.4</ele>
        <time>2021-07-21T06:55:08Z</time>
      </trkpt>
      <trkpt lat="43.5602620" lon="-5.9759220">
        <ele>5.4</ele>
        <time>2021-07-21T06:55:10Z</time>
      </trkpt>
      <trkpt lat="43.5602140" lon="-5.9761060">
        <ele>5.4</ele>
        <time>2021-07-21T06:55:13Z</time>
      </trkpt>
      <trkpt lat="43.5601800" lon="-5.9762170">
        <ele>5.4</ele>
        <time>2021-07-21T06:55:15Z</time>
      </trkpt>
      <trkpt lat="43.5601400" lon="-5.9764440">
        <ele>5.4</ele>
        <time>2021-07-21T06:55:19Z</time>
      </trkpt>
      <trkpt lat="43.5601110" lon="-5.9766940">
        <ele>5.4</ele>
        <time>2021-07-21T06:55:24Z</time>
      </trkpt>
      <trkpt lat="43.5600970" lon="-5.9767850">
        <ele>5.4</ele>
        <time>2021-07-21T06:55:26Z</time>
      </trkpt>
      <trkpt lat="43.5600560" lon="-5.9770380">
        <ele>5.4</ele>
        <time>2021-07-21T06:55:33Z</time>
      </trkpt>
      <trkpt lat="43.5600510" lon="-5.9771990">
        <ele>5.4</ele>
        <time>2021-07-21T06:55:39Z</time>
      </trkpt>
      <trkpt lat="43.5600340" lon="-5.9773720">
        <ele>5.4</ele>
        <time>2021-07-21T06:55:44Z</time>
      </trkpt>
      <trkpt lat="43.5600290" lon="-5.9774090">
        <ele>5.4</ele>
        <time>2021-07-21T06:55:45Z</time>
      </trkpt>
      <trkpt lat="43.5600260" lon="-5.9774510">
        <ele>5.4</ele>
        <time>2021-07-21T06:55:46Z</time>
      </trkpt>
      <trkpt lat="43.5600170" lon="-5.9775220">
        <ele>5.4</ele>
        <time>2021-07-21T06:55:48Z</time>
      </trkpt>
      <trkpt lat="43.5599940" lon="-5.9776350">
        <ele>5.4</ele>
        <time>2021-07-21T06:55:51Z</time>
      </trkpt>
      <trkpt lat="43.5599840" lon="-5.9776780">
        <ele>5.4</ele>
        <time>2021-07-21T06:55:52Z</time>
      </trkpt>
      <trkpt lat="43.5599650" lon="-5.9778140">
        <ele>5.4</ele>
        <time>2021-07-21T06:55:55Z</time>
      </trkpt>
      <trkpt lat="43.5599590" lon="-5.9779540">
        <ele>5.4</ele>
        <time>2021-07-21T06:55:58Z</time>
      </trkpt>
      <trkpt lat="43.5599610" lon="-5.9779920">
        <ele>5.4</ele>
        <time>2021-07-21T06:55:59Z</time>
      </trkpt>
      <trkpt lat="43.5599370" lon="-5.9781550">
        <ele>5.4</ele>
        <time>2021-07-21T06:56:03Z</time>
      </trkpt>
      <trkpt lat="43.5598880" lon="-5.9783140">
        <ele>5.4</ele>
        <time>2021-07-21T06:56:06Z</time>
      </trkpt>
      <trkpt lat="43.5598570" lon="-5.9785290">
        <ele>5.4</ele>
        <time>2021-07-21T06:56:11Z</time>
      </trkpt>
      <trkpt lat="43.5598400" lon="-5.9786630">
        <ele>5.4</ele>
        <time>2021-07-21T06:56:14Z</time>
      </trkpt>
      <trkpt lat="43.5597830" lon="-5.9790730">
        <ele>5.4</ele>
        <time>2021-07-21T06:56:23Z</time>
      </trkpt>
      <trkpt lat="43.5597430" lon="-5.9793660">
        <ele>5.8</ele>
        <time>2021-07-21T06:56:29Z</time>
      </trkpt>
      <trkpt lat="43.5597320" lon="-5.9794160">
        <ele>6.2</ele>
        <time>2021-07-21T06:56:30Z</time>
      </trkpt>
      <trkpt lat="43.5597240" lon="-5.9794680">
        <ele>6.6</ele>
        <time>2021-07-21T06:56:31Z</time>
      </trkpt>
      <trkpt lat="43.5597190" lon="-5.9795230">
        <ele>7.0</ele>
        <time>2021-07-21T06:56:32Z</time>
      </trkpt>
      <trkpt lat="43.5597110" lon="-5.9795770">
        <ele>7.4</ele>
        <time>2021-07-21T06:56:33Z</time>
      </trkpt>
      <trkpt lat="43.5596660" lon="-5.9797960">
        <ele>7.4</ele>
        <time>2021-07-21T06:56:37Z</time>
      </trkpt>
      <trkpt lat="43.5596000" lon="-5.9802410">
        <ele>7.4</ele>
        <time>2021-07-21T06:56:45Z</time>
      </trkpt>
      <trkpt lat="43.5595610" lon="-5.9805920">
        <ele>7.4</ele>
        <time>2021-07-21T06:56:52Z</time>
      </trkpt>
      <trkpt lat="43.5594720" lon="-5.9811060">
        <ele>7.4</ele>
        <time>2021-07-21T06:57:01Z</time>
      </trkpt>
      <trkpt lat="43.5593410" lon="-5.9815460">
        <ele>7.4</ele>
        <time>2021-07-21T06:57:09Z</time>
      </trkpt>
      <trkpt lat="43.5591860" lon="-5.9819300">
        <ele>7.4</ele>
        <time>2021-07-21T06:57:16Z</time>
      </trkpt>
      <trkpt lat="43.5591660" lon="-5.9819870">
        <ele>7.4</ele>
        <time>2021-07-21T06:57:17Z</time>
      </trkpt>
      <trkpt lat="43.5591420" lon="-5.9820370">
        <ele>7.4</ele>
        <time>2021-07-21T06:57:18Z</time>
      </trkpt>
      <trkpt lat="43.5590270" lon="-5.9822300">
        <ele>7.4</ele>
        <time>2021-07-21T06:57:22Z</time>
      </trkpt>
      <trkpt lat="43.5589960" lon="-5.9822780">
        <ele>7.4</ele>
        <time>2021-07-21T06:57:23Z</time>
      </trkpt>
      <trkpt lat="43.5588640" lon="-5.9824750">
        <ele>7.4</ele>
        <time>2021-07-21T06:57:28Z</time>
      </trkpt>
      <trkpt lat="43.5588120" lon="-5.9825410">
        <ele>7.4</ele>
        <time>2021-07-21T06:57:30Z</time>
      </trkpt>
      <trkpt lat="43.5587380" lon="-5.9825920">
        <ele>7.4</ele>
        <time>2021-07-21T06:57:32Z</time>
      </trkpt>
      <trkpt lat="43.5586650" lon="-5.9826280">
        <ele>7.4</ele>
        <time>2021-07-21T06:57:34Z</time>
      </trkpt>
      <trkpt lat="43.5585260" lon="-5.9826640">
        <ele>7.4</ele>
        <time>2021-07-21T06:57:38Z</time>
      </trkpt>
      <trkpt lat="43.5585030" lon="-5.9826870">
        <ele>7.4</ele>
        <time>2021-07-21T06:57:39Z</time>
      </trkpt>
      <trkpt lat="43.5584810" lon="-5.9827100">
        <ele>7.4</ele>
        <time>2021-07-21T06:57:40Z</time>
      </trkpt>
      <trkpt lat="43.5584000" lon="-5.9827260">
        <ele>7.4</ele>
        <time>2021-07-21T06:57:43Z</time>
      </trkpt>
      <trkpt lat="43.5583760" lon="-5.9827120">
        <ele>7.4</ele>
        <time>2021-07-21T06:57:44Z</time>
      </trkpt>
      <trkpt lat="43.5582360" lon="-5.9826500">
        <ele>7.4</ele>
        <time>2021-07-21T06:57:49Z</time>
      </trkpt>
      <trkpt lat="43.5582140" lon="-5.9826560">
        <ele>7.4</ele>
        <time>2021-07-21T06:57:50Z</time>
      </trkpt>
      <trkpt lat="43.5581910" lon="-5.9826960">
        <ele>7.4</ele>
        <time>2021-07-21T06:57:52Z</time>
      </trkpt>
      <trkpt lat="43.5581940" lon="-5.9827270">
        <ele>7.4</ele>
        <time>2021-07-21T06:57:53Z</time>
      </trkpt>
      <trkpt lat="43.5581890" lon="-5.9827590">
        <ele>7.8</ele>
        <time>2021-07-21T06:57:54Z</time>
      </trkpt>
      <trkpt lat="43.5581860" lon="-5.9827950">
        <ele>8.2</ele>
        <time>2021-07-21T06:57:55Z</time>
      </trkpt>
      <trkpt lat="43.5581790" lon="-5.9828330">
        <ele>8.6</ele>
        <time>2021-07-21T06:57:56Z</time>
      </trkpt>
      <trkpt lat="43.5581730" lon="-5.9828710">
        <ele>9.2</ele>
        <time>2021-07-21T06:57:57Z</time>
      </trkpt>
      <trkpt lat="43.5581670" lon="-5.9829100">
        <ele>9.6</ele>
        <time>2021-07-21T06:57:58Z</time>
      </trkpt>
      <trkpt lat="43.5581600" lon="-5.9829520">
        <ele>9.6</ele>
        <time>2021-07-21T06:57:59Z</time>
      </trkpt>
      <trkpt lat="43.5580920" lon="-5.9833220">
        <ele>9.6</ele>
        <time>2021-07-21T06:58:07Z</time>
      </trkpt>
      <trkpt lat="43.5580060" lon="-5.9836080">
        <ele>9.6</ele>
        <time>2021-07-21T06:58:13Z</time>
      </trkpt>
      <trkpt lat="43.5579420" lon="-5.9838120">
        <ele>9.6</ele>
        <time>2021-07-21T06:58:17Z</time>
      </trkpt>
      <trkpt lat="43.5579140" lon="-5.9839570">
        <ele>9.6</ele>
        <time>2021-07-21T06:58:20Z</time>
      </trkpt>
      <trkpt lat="43.5578550" lon="-5.9842620">
        <ele>9.6</ele>
        <time>2021-07-21T06:58:26Z</time>
      </trkpt>
      <trkpt lat="43.5578430" lon="-5.9843140">
        <ele>9.6</ele>
        <time>2021-07-21T06:58:27Z</time>
      </trkpt>
      <trkpt lat="43.5577930" lon="-5.9845220">
        <ele>10.0</ele>
        <time>2021-07-21T06:58:31Z</time>
      </trkpt>
      <trkpt lat="43.5577820" lon="-5.9845780">
        <ele>10.4</ele>
        <time>2021-07-21T06:58:32Z</time>
      </trkpt>
      <trkpt lat="43.5577680" lon="-5.9846360">
        <ele>10.8</ele>
        <time>2021-07-21T06:58:33Z</time>
      </trkpt>
      <trkpt lat="43.5577550" lon="-5.9846960">
        <ele>11.2</ele>
        <time>2021-07-21T06:58:34Z</time>
      </trkpt>
      <trkpt lat="43.5577440" lon="-5.9847530">
        <ele>11.6</ele>
        <time>2021-07-21T06:58:35Z</time>
      </trkpt>
      <trkpt lat="43.5577220" lon="-5.9848660">
        <ele>11.6</ele>
        <time>2021-07-21T06:58:37Z</time>
      </trkpt>
      <trkpt lat="43.5576360" lon="-5.9853660">
        <ele>11.6</ele>
        <time>2021-07-21T06:58:46Z</time>
      </trkpt>
      <trkpt lat="43.5575570" lon="-5.9857830">
        <ele>11.6</ele>
        <time>2021-07-21T06:58:54Z</time>
      </trkpt>
      <trkpt lat="43.5574500" lon="-5.9863660">
        <ele>11.6</ele>
        <time>2021-07-21T06:59:05Z</time>
      </trkpt>
      <trkpt lat="43.5574010" lon="-5.9866300">
        <ele>12.0</ele>
        <time>2021-07-21T06:59:10Z</time>
      </trkpt>
      <trkpt lat="43.5573920" lon="-5.9866840">
        <ele>12.4</ele>
        <time>2021-07-21T06:59:11Z</time>
      </trkpt>
      <trkpt lat="43.5573840" lon="-5.9867370">
        <ele>12.8</ele>
        <time>2021-07-21T06:59:12Z</time>
      </trkpt>
      <trkpt lat="43.5573750" lon="-5.9867900">
        <ele>13.2</ele>
        <time>2021-07-21T06:59:13Z</time>
      </trkpt>
      <trkpt lat="43.5573660" lon="-5.9868430">
        <ele>13.6</ele>
        <time>2021-07-21T06:59:14Z</time>
      </trkpt>
      <trkpt lat="43.5572890" lon="-5.9872540">
        <ele>13.6</ele>
        <time>2021-07-21T06:59:22Z</time>
      </trkpt>
      <trkpt lat="43.5572240" lon="-5.9876000">
        <ele>13.6</ele>
        <time>2021-07-21T06:59:29Z</time>
      </trkpt>
      <trkpt lat="43.5571460" lon="-5.9880230">
        <ele>13.6</ele>
        <time>2021-07-21T06:59:37Z</time>
      </trkpt>
      <trkpt lat="43.5570580" lon="-5.9884450">
        <ele>13.6</ele>
        <time>2021-07-21T06:59:45Z</time>
      </trkpt>
      <trkpt lat="43.5570230" lon="-5.9886040">
        <ele>14.0</ele>
        <time>2021-07-21T06:59:48Z</time>
      </trkpt>
      <trkpt lat="43.5570120" lon="-5.9886550">
        <ele>14.4</ele>
        <time>2021-07-21T06:59:49Z</time>
      </trkpt>
      <trkpt lat="43.5570030" lon="-5.9887060">
        <ele>14.8</ele>
        <time>2021-07-21T06:59:50Z</time>
      </trkpt>
      <trkpt lat="43.5569910" lon="-5.9887560">
        <ele>15.2</ele>
        <time>2021-07-21T06:59:51Z</time>
      </trkpt>
      <trkpt lat="43.5569780" lon="-5.9888070">
        <ele>15.6</ele>
        <time>2021-07-21T06:59:52Z</time>
      </trkpt>
      <trkpt lat="43.5569460" lon="-5.9889120">
        <ele>15.6</ele>
        <time>2021-07-21T06:59:54Z</time>
      </trkpt>
      <trkpt lat="43.5568260" lon="-5.9893290">
        <ele>15.6</ele>
        <time>2021-07-21T07:00:02Z</time>
      </trkpt>
      <trkpt lat="43.5566400" lon="-5.9898100">
        <ele>15.6</ele>
        <time>2021-07-21T07:00:12Z</time>
      </trkpt>
      <trkpt lat="43.5564750" lon="-5.9901690">
        <ele>15.6</ele>
        <time>2021-07-21T07:00:20Z</time>
      </trkpt>
      <trkpt lat="43.5564530" lon="-5.9902130">
        <ele>16.0</ele>
        <time>2021-07-21T07:00:21Z</time>
      </trkpt>
      <trkpt lat="43.5564290" lon="-5.9902590">
        <ele>16.8</ele>
        <time>2021-07-21T07:00:22Z</time>
      </trkpt>
      <trkpt lat="43.5564050" lon="-5.9903050">
        <ele>17.2</ele>
        <time>2021-07-21T07:00:23Z</time>
      </trkpt>
      <trkpt lat="43.5563810" lon="-5.9903520">
        <ele>17.6</ele>
        <time>2021-07-21T07:00:24Z</time>
      </trkpt>
      <trkpt lat="43.5563150" lon="-5.9904720">
        <ele>17.6</ele>
        <time>2021-07-21T07:00:27Z</time>
      </trkpt>
      <trkpt lat="43.5561220" lon="-5.9908380">
        <ele>17.6</ele>
        <time>2021-07-21T07:00:36Z</time>
      </trkpt>
      <trkpt lat="43.5559820" lon="-5.9910710">
        <ele>17.6</ele>
        <time>2021-07-21T07:00:42Z</time>
      </trkpt>
      <trkpt lat="43.5559080" lon="-5.9912270">
        <ele>18.4</ele>
        <time>2021-07-21T07:00:46Z</time>
      </trkpt>
      <trkpt lat="43.5558890" lon="-5.9912670">
        <ele>18.8</ele>
        <time>2021-07-21T07:00:47Z</time>
      </trkpt>
      <trkpt lat="43.5558700" lon="-5.9913060">
        <ele>19.2</ele>
        <time>2021-07-21T07:00:48Z</time>
      </trkpt>
      <trkpt lat="43.5558490" lon="-5.9913430">
        <ele>19.6</ele>
        <time>2021-07-21T07:00:49Z</time>
      </trkpt>
      <trkpt lat="43.5557470" lon="-5.9915260">
        <ele>19.6</ele>
        <time>2021-07-21T07:00:54Z</time>
      </trkpt>
      <trkpt lat="43.5556300" lon="-5.9917390">
        <ele>19.6</ele>
        <time>2021-07-21T07:01:00Z</time>
      </trkpt>
      <trkpt lat="43.5555430" lon="-5.9918860">
        <ele>20.0</ele>
        <time>2021-07-21T07:01:04Z</time>
      </trkpt>
      <trkpt lat="43.5555220" lon="-5.9919240">
        <ele>20.4</ele>
        <time>2021-07-21T07:01:05Z</time>
      </trkpt>
      <trkpt lat="43.5555010" lon="-5.9919610">
        <ele>20.8</ele>
        <time>2021-07-21T07:01:06Z</time>
      </trkpt>
      <trkpt lat="43.5554790" lon="-5.9919990">
        <ele>21.4</ele>
        <time>2021-07-21T07:01:07Z</time>
      </trkpt>
      <trkpt lat="43.5554580" lon="-5.9920400">
        <ele>21.8</ele>
        <time>2021-07-21T07:01:08Z</time>
      </trkpt>
      <trkpt lat="43.5553420" lon="-5.9922640">
        <ele>21.8</ele>
        <time>2021-07-21T07:01:14Z</time>
      </trkpt>
      <trkpt lat="43.5551570" lon="-5.9926070">
        <ele>21.8</ele>
        <time>2021-07-21T07:01:23Z</time>
      </trkpt>
      <trkpt lat="43.5550680" lon="-5.9927550">
        <ele>22.2</ele>
        <time>2021-07-21T07:01:27Z</time>
      </trkpt>
      <trkpt lat="43.5550450" lon="-5.9927900">
        <ele>22.6</ele>
        <time>2021-07-21T07:01:28Z</time>
      </trkpt>
      <trkpt lat="43.5550230" lon="-5.9928250">
        <ele>23.0</ele>
        <time>2021-07-21T07:01:29Z</time>
      </trkpt>
      <trkpt lat="43.5550000" lon="-5.9928600">
        <ele>23.4</ele>
        <time>2021-07-21T07:01:30Z</time>
      </trkpt>
      <trkpt lat="43.5549780" lon="-5.9929000">
        <ele>23.8</ele>
        <time>2021-07-21T07:01:31Z</time>
      </trkpt>
      <trkpt lat="43.5548740" lon="-5.9930920">
        <ele>23.8</ele>
        <time>2021-07-21T07:01:36Z</time>
      </trkpt>
      <trkpt lat="43.5547320" lon="-5.9933430">
        <ele>23.8</ele>
        <time>2021-07-21T07:01:43Z</time>
      </trkpt>
      <trkpt lat="43.5546580" lon="-5.9934910">
        <ele>24.2</ele>
        <time>2021-07-21T07:01:47Z</time>
      </trkpt>
      <trkpt lat="43.5546380" lon="-5.9935280">
        <ele>24.8</ele>
        <time>2021-07-21T07:01:48Z</time>
      </trkpt>
      <trkpt lat="43.5546170" lon="-5.9935650">
        <ele>25.2</ele>
        <time>2021-07-21T07:01:49Z</time>
      </trkpt>
      <trkpt lat="43.5545970" lon="-5.9935990">
        <ele>25.6</ele>
        <time>2021-07-21T07:01:50Z</time>
      </trkpt>
      <trkpt lat="43.5545770" lon="-5.9936310">
        <ele>26.0</ele>
        <time>2021-07-21T07:01:51Z</time>
      </trkpt>
      <trkpt lat="43.5544020" lon="-5.9939610">
        <ele>26.0</ele>
        <time>2021-07-21T07:02:00Z</time>
      </trkpt>
      <trkpt lat="43.5542230" lon="-5.9942910">
        <ele>26.4</ele>
        <time>2021-07-21T07:02:09Z</time>
      </trkpt>
      <trkpt lat="43.5542010" lon="-5.9943290">
        <ele>26.8</ele>
        <time>2021-07-21T07:02:10Z</time>
      </trkpt>
      <trkpt lat="43.5541790" lon="-5.9943680">
        <ele>27.2</ele>
        <time>2021-07-21T07:02:11Z</time>
      </trkpt>
      <trkpt lat="43.5541580" lon="-5.9944050">
        <ele>27.6</ele>
        <time>2021-07-21T07:02:12Z</time>
      </trkpt>
      <trkpt lat="43.5541380" lon="-5.9944430">
        <ele>28.0</ele>
        <time>2021-07-21T07:02:13Z</time>
      </trkpt>
      <trkpt lat="43.5540740" lon="-5.9945540">
        <ele>28.0</ele>
        <time>2021-07-21T07:02:16Z</time>
      </trkpt>
      <trkpt lat="43.5539160" lon="-5.9948440">
        <ele>28.0</ele>
        <time>2021-07-21T07:02:24Z</time>
      </trkpt>
      <trkpt lat="43.5538720" lon="-5.9949200">
        <ele>28.4</ele>
        <time>2021-07-21T07:02:26Z</time>
      </trkpt>
      <trkpt lat="43.5538530" lon="-5.9949540">
        <ele>28.8</ele>
        <time>2021-07-21T07:02:27Z</time>
      </trkpt>
      <trkpt lat="43.5538340" lon="-5.9949920">
        <ele>29.2</ele>
        <time>2021-07-21T07:02:28Z</time>
      </trkpt>
      <trkpt lat="43.5538140" lon="-5.9950310">
        <ele>29.6</ele>
        <time>2021-07-21T07:02:29Z</time>
      </trkpt>
      <trkpt lat="43.5537960" lon="-5.9950720">
        <ele>30.0</ele>
        <time>2021-07-21T07:02:30Z</time>
      </trkpt>
      <trkpt lat="43.5537580" lon="-5.9951440">
        <ele>30.0</ele>
        <time>2021-07-21T07:02:32Z</time>
      </trkpt>
      <trkpt lat="43.5536120" lon="-5.9954040">
        <ele>30.0</ele>
        <time>2021-07-21T07:02:39Z</time>
      </trkpt>
      <trkpt lat="43.5534760" lon="-5.9956580">
        <ele>30.4</ele>
        <time>2021-07-21T07:02:46Z</time>
      </trkpt>
      <trkpt lat="43.5534530" lon="-5.9956950">
        <ele>30.8</ele>
        <time>2021-07-21T07:02:47Z</time>
      </trkpt>
      <trkpt lat="43.5534310" lon="-5.9957320">
        <ele>31.2</ele>
        <time>2021-07-21T07:02:48Z</time>
      </trkpt>
      <trkpt lat="43.5534100" lon="-5.9957700">
        <ele>31.8</ele>
        <time>2021-07-21T07:02:49Z</time>
      </trkpt>
      <trkpt lat="43.5533910" lon="-5.9958080">
        <ele>32.2</ele>
        <time>2021-07-21T07:02:50Z</time>
      </trkpt>
      <trkpt lat="43.5532950" lon="-5.9959790">
        <ele>32.2</ele>
        <time>2021-07-21T07:02:55Z</time>
      </trkpt>
      <trkpt lat="43.5531160" lon="-5.9963050">
        <ele>32.2</ele>
        <time>2021-07-21T07:03:04Z</time>
      </trkpt>
      <trkpt lat="43.5529640" lon="-5.9965780">
        <ele>32.2</ele>
        <time>2021-07-21T07:03:11Z</time>
      </trkpt>
      <trkpt lat="43.5528740" lon="-5.9967360">
        <ele>33.0</ele>
        <time>2021-07-21T07:03:15Z</time>
      </trkpt>
      <trkpt lat="43.5528530" lon="-5.9967830">
        <ele>33.4</ele>
        <time>2021-07-21T07:03:16Z</time>
      </trkpt>
      <trkpt lat="43.5528320" lon="-5.9968250">
        <ele>33.8</ele>
        <time>2021-07-21T07:03:17Z</time>
      </trkpt>
      <trkpt lat="43.5528090" lon="-5.9968650">
        <ele>34.2</ele>
        <time>2021-07-21T07:03:18Z</time>
      </trkpt>
      <trkpt lat="43.5527620" lon="-5.9969430">
        <ele>34.2</ele>
        <time>2021-07-21T07:03:20Z</time>
      </trkpt>
      <trkpt lat="43.5526360" lon="-5.9971760">
        <ele>34.2</ele>
        <time>2021-07-21T07:03:26Z</time>
      </trkpt>
      <trkpt lat="43.5525810" lon="-5.9972820">
        <ele>34.2</ele>
        <time>2021-07-21T07:03:29Z</time>
      </trkpt>
      <trkpt lat="43.5524220" lon="-5.9975740">
        <ele>34.2</ele>
        <time>2021-07-21T07:03:36Z</time>
      </trkpt>
      <trkpt lat="43.5523140" lon="-5.9977810">
        <ele>34.2</ele>
        <time>2021-07-21T07:03:41Z</time>
      </trkpt>
      <trkpt lat="43.5521670" lon="-5.9980310">
        <ele>34.2</ele>
        <time>2021-07-21T07:03:48Z</time>
      </trkpt>
      <trkpt lat="43.5521310" lon="-5.9981020">
        <ele>34.2</ele>
        <time>2021-07-21T07:03:50Z</time>
      </trkpt>
      <trkpt lat="43.5520480" lon="-5.9982580">
        <ele>34.2</ele>
        <time>2021-07-21T07:03:54Z</time>
      </trkpt>
      <trkpt lat="43.5519810" lon="-5.9983780">
        <ele>34.2</ele>
        <time>2021-07-21T07:03:57Z</time>
      </trkpt>
      <trkpt lat="43.5518070" lon="-5.9987090">
        <ele>34.2</ele>
        <time>2021-07-21T07:04:05Z</time>
      </trkpt>
      <trkpt lat="43.5517620" lon="-5.9987890">
        <ele>34.6</ele>
        <time>2021-07-21T07:04:07Z</time>
      </trkpt>
      <trkpt lat="43.5517400" lon="-5.9988270">
        <ele>35.0</ele>
        <time>2021-07-21T07:04:08Z</time>
      </trkpt>
      <trkpt lat="43.5517200" lon="-5.9988660">
        <ele>35.4</ele>
        <time>2021-07-21T07:04:09Z</time>
      </trkpt>
      <trkpt lat="43.5517010" lon="-5.9989020">
        <ele>35.8</ele>
        <time>2021-07-21T07:04:10Z</time>
      </trkpt>
      <trkpt lat="43.5516840" lon="-5.9989340">
        <ele>36.2</ele>
        <time>2021-07-21T07:04:11Z</time>
      </trkpt>
      <trkpt lat="43.5516520" lon="-5.9990000">
        <ele>36.2</ele>
        <time>2021-07-21T07:04:13Z</time>
      </trkpt>
      <trkpt lat="43.5515740" lon="-5.9991490">
        <ele>36.2</ele>
        <time>2021-07-21T07:04:18Z</time>
      </trkpt>
      <trkpt lat="43.5515480" lon="-5.9992000">
        <ele>36.2</ele>
        <time>2021-07-21T07:04:20Z</time>
      </trkpt>
      <trkpt lat="43.5515200" lon="-5.9992590">
        <ele>36.2</ele>
        <time>2021-07-21T07:04:24Z</time>
      </trkpt>
      <trkpt lat="43.5515000" lon="-5.9992890">
        <ele>36.2</ele>
        <time>2021-07-21T07:06:00Z</time>
      </trkpt>
      <trkpt lat="43.5514890" lon="-5.9993090">
        <ele>36.2</ele>
        <time>2021-07-21T07:06:01Z</time>
      </trkpt>
      <trkpt lat="43.5514230" lon="-5.9994350">
        <ele>36.2</ele>
        <time>2021-07-21T07:06:06Z</time>
      </trkpt>
      <trkpt lat="43.5513770" lon="-5.9995530">
        <ele>36.2</ele>
        <time>2021-07-21T07:06:09Z</time>
      </trkpt>
      <trkpt lat="43.5513320" lon="-5.9996780">
        <ele>36.2</ele>
        <time>2021-07-21T07:06:12Z</time>
      </trkpt>
      <trkpt lat="43.5513000" lon="-5.9997560">
        <ele>36.2</ele>
        <time>2021-07-21T07:06:14Z</time>
      </trkpt>
      <trkpt lat="43.5512510" lon="-5.9999120">
        <ele>36.2</ele>
        <time>2021-07-21T07:06:18Z</time>
      </trkpt>
      <trkpt lat="43.5512410" lon="-5.9999530">
        <ele>36.6</ele>
        <time>2021-07-21T07:06:19Z</time>
      </trkpt>
      <trkpt lat="43.5512310" lon="-5.9999940">
        <ele>37.0</ele>
        <time>2021-07-21T07:06:20Z</time>
      </trkpt>
      <trkpt lat="43.5512210" lon="-6.0000350">
        <ele>37.4</ele>
        <time>2021-07-21T07:06:21Z</time>
      </trkpt>
      <trkpt lat="43.5512090" lon="-6.0000780">
        <ele>37.8</ele>
        <time>2021-07-21T07:06:22Z</time>
      </trkpt>
      <trkpt lat="43.5511970" lon="-6.0001220">
        <ele>38.4</ele>
        <time>2021-07-21T07:06:23Z</time>
      </trkpt>
      <trkpt lat="43.5511670" lon="-6.0002480">
        <ele>38.4</ele>
        <time>2021-07-21T07:06:26Z</time>
      </trkpt>
      <trkpt lat="43.5511390" lon="-6.0003690">
        <ele>38.4</ele>
        <time>2021-07-21T07:06:29Z</time>
      </trkpt>
      <trkpt lat="43.5511190" lon="-6.0004550">
        <ele>38.8</ele>
        <time>2021-07-21T07:06:31Z</time>
      </trkpt>
      <trkpt lat="43.5511100" lon="-6.0004980">
        <ele>39.6</ele>
        <time>2021-07-21T07:06:32Z</time>
      </trkpt>
      <trkpt lat="43.5510990" lon="-6.0005410">
        <ele>40.0</ele>
        <time>2021-07-21T07:06:33Z</time>
      </trkpt>
      <trkpt lat="43.5510890" lon="-6.0005850">
        <ele>40.4</ele>
        <time>2021-07-21T07:06:34Z</time>
      </trkpt>
      <trkpt lat="43.5510620" lon="-6.0007070">
        <ele>40.4</ele>
        <time>2021-07-21T07:06:37Z</time>
      </trkpt>
      <trkpt lat="43.5510230" lon="-6.0008260">
        <ele>40.8</ele>
        <time>2021-07-21T07:06:40Z</time>
      </trkpt>
      <trkpt lat="43.5510080" lon="-6.0008650">
        <ele>41.2</ele>
        <time>2021-07-21T07:06:41Z</time>
      </trkpt>
      <trkpt lat="43.5509940" lon="-6.0009040">
        <ele>41.6</ele>
        <time>2021-07-21T07:06:42Z</time>
      </trkpt>
      <trkpt lat="43.5509770" lon="-6.0009440">
        <ele>42.0</ele>
        <time>2021-07-21T07:06:43Z</time>
      </trkpt>
      <trkpt lat="43.5509590" lon="-6.0009820">
        <ele>42.4</ele>
        <time>2021-07-21T07:06:44Z</time>
      </trkpt>
      <trkpt lat="43.5509410" lon="-6.0010180">
        <ele>42.4</ele>
        <time>2021-07-21T07:06:45Z</time>
      </trkpt>
      <trkpt lat="43.5508220" lon="-6.0012740">
        <ele>42.4</ele>
        <time>2021-07-21T07:06:52Z</time>
      </trkpt>
      <trkpt lat="43.5507960" lon="-6.0013630">
        <ele>42.4</ele>
        <time>2021-07-21T07:06:54Z</time>
      </trkpt>
      <trkpt lat="43.5507640" lon="-6.0015020">
        <ele>43.2</ele>
        <time>2021-07-21T07:06:57Z</time>
      </trkpt>
      <trkpt lat="43.5507530" lon="-6.0015480">
        <ele>43.6</ele>
        <time>2021-07-21T07:06:58Z</time>
      </trkpt>
      <trkpt lat="43.5507390" lon="-6.0015940">
        <ele>44.0</ele>
        <time>2021-07-21T07:06:59Z</time>
      </trkpt>
      <trkpt lat="43.5507200" lon="-6.0016390">
        <ele>44.4</ele>
        <time>2021-07-21T07:07:00Z</time>
      </trkpt>
      <trkpt lat="43.5505870" lon="-6.0017960">
        <ele>44.4</ele>
        <time>2021-07-21T07:07:05Z</time>
      </trkpt>
      <trkpt lat="43.5503790" lon="-6.0019010">
        <ele>44.4</ele>
        <time>2021-07-21T07:07:11Z</time>
      </trkpt>
      <trkpt lat="43.5503050" lon="-6.0019580">
        <ele>44.4</ele>
        <time>2021-07-21T07:07:13Z</time>
      </trkpt>
      <trkpt lat="43.5501980" lon="-6.0020810">
        <ele>44.4</ele>
        <time>2021-07-21T07:07:16Z</time>
      </trkpt>
      <trkpt lat="43.5500340" lon="-6.0023230">
        <ele>44.4</ele>
        <time>2021-07-21T07:07:21Z</time>
      </trkpt>
      <trkpt lat="43.5499760" lon="-6.0024270">
        <ele>44.4</ele>
        <time>2021-07-21T07:07:23Z</time>
      </trkpt>
      <trkpt lat="43.5498910" lon="-6.0025730">
        <ele>44.4</ele>
        <time>2021-07-21T07:07:26Z</time>
      </trkpt>
      <trkpt lat="43.5497850" lon="-6.0027700">
        <ele>44.4</ele>
        <time>2021-07-21T07:07:30Z</time>
      </trkpt>
      <trkpt lat="43.5497600" lon="-6.0028230">
        <ele>44.4</ele>
        <time>2021-07-21T07:07:31Z</time>
      </trkpt>
      <trkpt lat="43.5496040" lon="-6.0031550">
        <ele>44.4</ele>
        <time>2021-07-21T07:07:38Z</time>
      </trkpt>
      <trkpt lat="43.5495810" lon="-6.0032000">
        <ele>44.8</ele>
        <time>2021-07-21T07:07:39Z</time>
      </trkpt>
      <trkpt lat="43.5495570" lon="-6.0032420">
        <ele>45.2</ele>
        <time>2021-07-21T07:07:40Z</time>
      </trkpt>
      <trkpt lat="43.5495340" lon="-6.0032870">
        <ele>45.6</ele>
        <time>2021-07-21T07:07:41Z</time>
      </trkpt>
      <trkpt lat="43.5495150" lon="-6.0033300">
        <ele>46.0</ele>
        <time>2021-07-21T07:07:42Z</time>
      </trkpt>
      <trkpt lat="43.5494960" lon="-6.0033720">
        <ele>46.4</ele>
        <time>2021-07-21T07:07:43Z</time>
      </trkpt>
      <trkpt lat="43.5493980" lon="-6.0035870">
        <ele>46.4</ele>
        <time>2021-07-21T07:07:48Z</time>
      </trkpt>
      <trkpt lat="43.5492360" lon="-6.0039270">
        <ele>46.8</ele>
        <time>2021-07-21T07:07:56Z</time>
      </trkpt>
      <trkpt lat="43.5492160" lon="-6.0039660">
        <ele>47.2</ele>
        <time>2021-07-21T07:07:57Z</time>
      </trkpt>
      <trkpt lat="43.5491930" lon="-6.0040050">
        <ele>47.6</ele>
        <time>2021-07-21T07:07:58Z</time>
      </trkpt>
      <trkpt lat="43.5491710" lon="-6.0040440">
        <ele>48.2</ele>
        <time>2021-07-21T07:07:59Z</time>
      </trkpt>
      <trkpt lat="43.5491480" lon="-6.0040830">
        <ele>48.6</ele>
        <time>2021-07-21T07:08:00Z</time>
      </trkpt>
      <trkpt lat="43.5489980" lon="-6.0043630">
        <ele>48.6</ele>
        <time>2021-07-21T07:08:07Z</time>
      </trkpt>
      <trkpt lat="43.5489550" lon="-6.0044390">
        <ele>49.0</ele>
        <time>2021-07-21T07:08:09Z</time>
      </trkpt>
      <trkpt lat="43.5489340" lon="-6.0044780">
        <ele>49.4</ele>
        <time>2021-07-21T07:08:10Z</time>
      </trkpt>
      <trkpt lat="43.5489120" lon="-6.0045170">
        <ele>50.2</ele>
        <time>2021-07-21T07:08:11Z</time>
      </trkpt>
      <trkpt lat="43.5488890" lon="-6.0045540">
        <ele>50.6</ele>
        <time>2021-07-21T07:08:12Z</time>
      </trkpt>
      <trkpt lat="43.5488270" lon="-6.0046730">
        <ele>50.6</ele>
        <time>2021-07-21T07:08:15Z</time>
      </trkpt>
      <trkpt lat="43.5486750" lon="-6.0050000">
        <ele>50.6</ele>
        <time>2021-07-21T07:08:23Z</time>
      </trkpt>
      <trkpt lat="43.5486350" lon="-6.0050870">
        <ele>51.0</ele>
        <time>2021-07-21T07:08:25Z</time>
      </trkpt>
      <trkpt lat="43.5486150" lon="-6.0051300">
        <ele>51.4</ele>
        <time>2021-07-21T07:08:26Z</time>
      </trkpt>
      <trkpt lat="43.5485960" lon="-6.0051730">
        <ele>51.8</ele>
        <time>2021-07-21T07:08:27Z</time>
      </trkpt>
      <trkpt lat="43.5485800" lon="-6.0052150">
        <ele>52.2</ele>
        <time>2021-07-21T07:08:28Z</time>
      </trkpt>
      <trkpt lat="43.5485600" lon="-6.0052550">
        <ele>52.6</ele>
        <time>2021-07-21T07:08:29Z</time>
      </trkpt>
      <trkpt lat="43.5485420" lon="-6.0052940">
        <ele>52.6</ele>
        <time>2021-07-21T07:08:30Z</time>
      </trkpt>
      <trkpt lat="43.5483810" lon="-6.0056010">
        <ele>52.6</ele>
        <time>2021-07-21T07:08:38Z</time>
      </trkpt>
      <trkpt lat="43.5483050" lon="-6.0057630">
        <ele>53.0</ele>
        <time>2021-07-21T07:08:42Z</time>
      </trkpt>
      <trkpt lat="43.5482840" lon="-6.0058010">
        <ele>53.4</ele>
        <time>2021-07-21T07:08:43Z</time>
      </trkpt>
      <trkpt lat="43.5482630" lon="-6.0058410">
        <ele>54.0</ele>
        <time>2021-07-21T07:08:44Z</time>
      </trkpt>
      <trkpt lat="43.5482430" lon="-6.0058820">
        <ele>54.4</ele>
        <time>2021-07-21T07:08:45Z</time>
      </trkpt>
      <trkpt lat="43.5482260" lon="-6.0059260">
        <ele>54.8</ele>
        <time>2021-07-21T07:08:46Z</time>
      </trkpt>
      <trkpt lat="43.5480490" lon="-6.0062840">
        <ele>54.8</ele>
        <time>2021-07-21T07:08:55Z</time>
      </trkpt>
      <trkpt lat="43.5480110" lon="-6.0063580">
        <ele>55.2</ele>
        <time>2021-07-21T07:08:57Z</time>
      </trkpt>
      <trkpt lat="43.5479910" lon="-6.0063950">
        <ele>55.6</ele>
        <time>2021-07-21T07:08:58Z</time>
      </trkpt>
      <trkpt lat="43.5479740" lon="-6.0064310">
        <ele>56.0</ele>
        <time>2021-07-21T07:08:59Z</time>
      </trkpt>
      <trkpt lat="43.5479570" lon="-6.0064690">
        <ele>56.4</ele>
        <time>2021-07-21T07:09:00Z</time>
      </trkpt>
      <trkpt lat="43.5479410" lon="-6.0065100">
        <ele>56.8</ele>
        <time>2021-07-21T07:09:01Z</time>
      </trkpt>
      <trkpt lat="43.5479040" lon="-6.0065920">
        <ele>56.8</ele>
        <time>2021-07-21T07:09:03Z</time>
      </trkpt>
      <trkpt lat="43.5477490" lon="-6.0069640">
        <ele>56.8</ele>
        <time>2021-07-21T07:09:12Z</time>
      </trkpt>
      <trkpt lat="43.5477030" lon="-6.0071010">
        <ele>57.2</ele>
        <time>2021-07-21T07:09:15Z</time>
      </trkpt>
      <trkpt lat="43.5476880" lon="-6.0071470">
        <ele>57.6</ele>
        <time>2021-07-21T07:09:16Z</time>
      </trkpt>
      <trkpt lat="43.5476730" lon="-6.0071920">
        <ele>58.0</ele>
        <time>2021-07-21T07:09:17Z</time>
      </trkpt>
      <trkpt lat="43.5476570" lon="-6.0072360">
        <ele>58.4</ele>
        <time>2021-07-21T07:09:18Z</time>
      </trkpt>
      <trkpt lat="43.5476440" lon="-6.0072780">
        <ele>58.8</ele>
        <time>2021-07-21T07:09:19Z</time>
      </trkpt>
      <trkpt lat="43.5476210" lon="-6.0073630">
        <ele>58.8</ele>
        <time>2021-07-21T07:09:21Z</time>
      </trkpt>
      <trkpt lat="43.5475020" lon="-6.0078130">
        <ele>58.8</ele>
        <time>2021-07-21T07:09:31Z</time>
      </trkpt>
      <trkpt lat="43.5474790" lon="-6.0079040">
        <ele>59.2</ele>
        <time>2021-07-21T07:09:33Z</time>
      </trkpt>
      <trkpt lat="43.5474700" lon="-6.0079490">
        <ele>59.6</ele>
        <time>2021-07-21T07:09:34Z</time>
      </trkpt>
      <trkpt lat="43.5474620" lon="-6.0079940">
        <ele>60.0</ele>
        <time>2021-07-21T07:09:35Z</time>
      </trkpt>
      <trkpt lat="43.5474550" lon="-6.0080380">
        <ele>60.4</ele>
        <time>2021-07-21T07:09:36Z</time>
      </trkpt>
      <trkpt lat="43.5474490" lon="-6.0080860">
        <ele>60.8</ele>
        <time>2021-07-21T07:09:37Z</time>
      </trkpt>
      <trkpt lat="43.5474310" lon="-6.0082300">
        <ele>60.8</ele>
        <time>2021-07-21T07:09:40Z</time>
      </trkpt>
      <trkpt lat="43.5473820" lon="-6.0086320">
        <ele>60.8</ele>
        <time>2021-07-21T07:09:48Z</time>
      </trkpt>
      <trkpt lat="43.5473470" lon="-6.0090270">
        <ele>61.2</ele>
        <time>2021-07-21T07:09:56Z</time>
      </trkpt>
      <trkpt lat="43.5473430" lon="-6.0090720">
        <ele>61.6</ele>
        <time>2021-07-21T07:09:57Z</time>
      </trkpt>
      <trkpt lat="43.5473410" lon="-6.0091210">
        <ele>62.0</ele>
        <time>2021-07-21T07:09:58Z</time>
      </trkpt>
      <trkpt lat="43.5473400" lon="-6.0091690">
        <ele>62.4</ele>
        <time>2021-07-21T07:09:59Z</time>
      </trkpt>
      <trkpt lat="43.5473370" lon="-6.0092180">
        <ele>63.0</ele>
        <time>2021-07-21T07:10:00Z</time>
      </trkpt>
      <trkpt lat="43.5473370" lon="-6.0095100">
        <ele>63.0</ele>
        <time>2021-07-21T07:10:06Z</time>
      </trkpt>
      <trkpt lat="43.5473200" lon="-6.0098500">
        <ele>63.0</ele>
        <time>2021-07-21T07:10:13Z</time>
      </trkpt>
      <trkpt lat="43.5473170" lon="-6.0099010">
        <ele>63.0</ele>
        <time>2021-07-21T07:10:14Z</time>
      </trkpt>
      <trkpt lat="43.5473040" lon="-6.0102470">
        <ele>63.4</ele>
        <time>2021-07-21T07:10:21Z</time>
      </trkpt>
      <trkpt lat="43.5472990" lon="-6.0102970">
        <ele>63.8</ele>
        <time>2021-07-21T07:10:22Z</time>
      </trkpt>
      <trkpt lat="43.5472940" lon="-6.0103460">
        <ele>64.2</ele>
        <time>2021-07-21T07:10:23Z</time>
      </trkpt>
      <trkpt lat="43.5472910" lon="-6.0103960">
        <ele>64.6</ele>
        <time>2021-07-21T07:10:24Z</time>
      </trkpt>
      <trkpt lat="43.5472870" lon="-6.0104450">
        <ele>65.0</ele>
        <time>2021-07-21T07:10:25Z</time>
      </trkpt>
      <trkpt lat="43.5472520" lon="-6.0107800">
        <ele>65.0</ele>
        <time>2021-07-21T07:10:32Z</time>
      </trkpt>
      <trkpt lat="43.5471920" lon="-6.0111720">
        <ele>65.0</ele>
        <time>2021-07-21T07:10:40Z</time>
      </trkpt>
      <trkpt lat="43.5470780" lon="-6.0115940">
        <ele>65.0</ele>
        <time>2021-07-21T07:10:49Z</time>
      </trkpt>
      <trkpt lat="43.5470310" lon="-6.0117290">
        <ele>65.4</ele>
        <time>2021-07-21T07:10:52Z</time>
      </trkpt>
      <trkpt lat="43.5470140" lon="-6.0117760">
        <ele>65.8</ele>
        <time>2021-07-21T07:10:53Z</time>
      </trkpt>
      <trkpt lat="43.5469950" lon="-6.0118220">
        <ele>66.2</ele>
        <time>2021-07-21T07:10:54Z</time>
      </trkpt>
      <trkpt lat="43.5469760" lon="-6.0118640">
        <ele>66.6</ele>
        <time>2021-07-21T07:10:55Z</time>
      </trkpt>
      <trkpt lat="43.5469580" lon="-6.0119060">
        <ele>67.0</ele>
        <time>2021-07-21T07:10:56Z</time>
      </trkpt>
      <trkpt lat="43.5469370" lon="-6.0119480">
        <ele>67.0</ele>
        <time>2021-07-21T07:10:57Z</time>
      </trkpt>
      <trkpt lat="43.5467510" lon="-6.0123170">
        <ele>67.0</ele>
        <time>2021-07-21T07:11:06Z</time>
      </trkpt>
      <trkpt lat="43.5465700" lon="-6.0126330">
        <ele>67.4</ele>
        <time>2021-07-21T07:11:14Z</time>
      </trkpt>
      <trkpt lat="43.5465450" lon="-6.0126700">
        <ele>67.8</ele>
        <time>2021-07-21T07:11:15Z</time>
      </trkpt>
      <trkpt lat="43.5465200" lon="-6.0127090">
        <ele>68.2</ele>
        <time>2021-07-21T07:11:16Z</time>
      </trkpt>
      <trkpt lat="43.5464970" lon="-6.0127460">
        <ele>68.6</ele>
        <time>2021-07-21T07:11:17Z</time>
      </trkpt>
      <trkpt lat="43.5464730" lon="-6.0127810">
        <ele>69.2</ele>
        <time>2021-07-21T07:11:18Z</time>
      </trkpt>
      <trkpt lat="43.5463180" lon="-6.0130470">
        <ele>69.2</ele>
        <time>2021-07-21T07:11:25Z</time>
      </trkpt>
      <trkpt lat="43.5462300" lon="-6.0131920">
        <ele>69.6</ele>
        <time>2021-07-21T07:11:29Z</time>
      </trkpt>
      <trkpt lat="43.5462070" lon="-6.0132250">
        <ele>70.0</ele>
        <time>2021-07-21T07:11:30Z</time>
      </trkpt>
      <trkpt lat="43.5461850" lon="-6.0132630">
        <ele>70.4</ele>
        <time>2021-07-21T07:11:31Z</time>
      </trkpt>
      <trkpt lat="43.5461630" lon="-6.0133000">
        <ele>70.8</ele>
        <time>2021-07-21T07:11:32Z</time>
      </trkpt>
      <trkpt lat="43.5461410" lon="-6.0133360">
        <ele>71.2</ele>
        <time>2021-07-21T07:11:33Z</time>
      </trkpt>
      <trkpt lat="43.5460980" lon="-6.0134090">
        <ele>71.2</ele>
        <time>2021-07-21T07:11:35Z</time>
      </trkpt>
      <trkpt lat="43.5459260" lon="-6.0136980">
        <ele>71.2</ele>
        <time>2021-07-21T07:11:43Z</time>
      </trkpt>
      <trkpt lat="43.5458220" lon="-6.0138790">
        <ele>71.6</ele>
        <time>2021-07-21T07:11:48Z</time>
      </trkpt>
      <trkpt lat="43.5458000" lon="-6.0139170">
        <ele>72.0</ele>
        <time>2021-07-21T07:11:49Z</time>
      </trkpt>
      <trkpt lat="43.5457780" lon="-6.0139530">
        <ele>72.4</ele>
        <time>2021-07-21T07:11:50Z</time>
      </trkpt>
      <trkpt lat="43.5457560" lon="-6.0139890">
        <ele>72.8</ele>
        <time>2021-07-21T07:11:51Z</time>
      </trkpt>
      <trkpt lat="43.5457330" lon="-6.0140260">
        <ele>73.2</ele>
        <time>2021-07-21T07:11:52Z</time>
      </trkpt>
      <trkpt lat="43.5457110" lon="-6.0140610">
        <ele>73.2</ele>
        <time>2021-07-21T07:11:53Z</time>
      </trkpt>
      <trkpt lat="43.5455230" lon="-6.0143770">
        <ele>73.2</ele>
        <time>2021-07-21T07:12:02Z</time>
      </trkpt>
      <trkpt lat="43.5454520" lon="-6.0144740">
        <ele>73.6</ele>
        <time>2021-07-21T07:12:05Z</time>
      </trkpt>
      <trkpt lat="43.5454280" lon="-6.0145140">
        <ele>74.0</ele>
        <time>2021-07-21T07:12:06Z</time>
      </trkpt>
      <trkpt lat="43.5454050" lon="-6.0145520">
        <ele>74.4</ele>
        <time>2021-07-21T07:12:07Z</time>
      </trkpt>
      <trkpt lat="43.5453730" lon="-6.0145880">
        <ele>74.8</ele>
        <time>2021-07-21T07:12:08Z</time>
      </trkpt>
      <trkpt lat="43.5453430" lon="-6.0146250">
        <ele>75.2</ele>
        <time>2021-07-21T07:12:09Z</time>
      </trkpt>
      <trkpt lat="43.5453170" lon="-6.0146620">
        <ele>75.2</ele>
        <time>2021-07-21T07:12:10Z</time>
      </trkpt>
      <trkpt lat="43.5451430" lon="-6.0150120">
        <ele>75.2</ele>
        <time>2021-07-21T07:12:19Z</time>
      </trkpt>
      <trkpt lat="43.5450830" lon="-6.0151240">
        <ele>75.6</ele>
        <time>2021-07-21T07:12:22Z</time>
      </trkpt>
      <trkpt lat="43.5450590" lon="-6.0151630">
        <ele>76.2</ele>
        <time>2021-07-21T07:12:23Z</time>
      </trkpt>
      <trkpt lat="43.5450380" lon="-6.0152000">
        <ele>76.6</ele>
        <time>2021-07-21T07:12:24Z</time>
      </trkpt>
      <trkpt lat="43.5450160" lon="-6.0152400">
        <ele>77.0</ele>
        <time>2021-07-21T07:12:25Z</time>
      </trkpt>
      <trkpt lat="43.5449920" lon="-6.0152800">
        <ele>77.4</ele>
        <time>2021-07-21T07:12:26Z</time>
      </trkpt>
      <trkpt lat="43.5448130" lon="-6.0155660">
        <ele>77.4</ele>
        <time>2021-07-21T07:12:34Z</time>
      </trkpt>
      <trkpt lat="43.5446790" lon="-6.0157960">
        <ele>77.8</ele>
        <time>2021-07-21T07:12:40Z</time>
      </trkpt>
      <trkpt lat="43.5446560" lon="-6.0158350">
        <ele>78.2</ele>
        <time>2021-07-21T07:12:41Z</time>
      </trkpt>
      <trkpt lat="43.5446340" lon="-6.0158710">
        <ele>78.8</ele>
        <time>2021-07-21T07:12:42Z</time>
      </trkpt>
      <trkpt lat="43.5446120" lon="-6.0159070">
        <ele>79.6</ele>
        <time>2021-07-21T07:12:43Z</time>
      </trkpt>
      <trkpt lat="43.5444440" lon="-6.0162100">
        <ele>79.6</ele>
        <time>2021-07-21T07:12:51Z</time>
      </trkpt>
      <trkpt lat="43.5442710" lon="-6.0165110">
        <ele>80.0</ele>
        <time>2021-07-21T07:12:59Z</time>
      </trkpt>
      <trkpt lat="43.5442480" lon="-6.0165490">
        <ele>80.4</ele>
        <time>2021-07-21T07:13:00Z</time>
      </trkpt>
      <trkpt lat="43.5442240" lon="-6.0165850">
        <ele>80.8</ele>
        <time>2021-07-21T07:13:01Z</time>
      </trkpt>
      <trkpt lat="43.5442020" lon="-6.0166240">
        <ele>81.2</ele>
        <time>2021-07-21T07:13:02Z</time>
      </trkpt>
      <trkpt lat="43.5441820" lon="-6.0166620">
        <ele>81.6</ele>
        <time>2021-07-21T07:13:03Z</time>
      </trkpt>
      <trkpt lat="43.5440480" lon="-6.0168830">
        <ele>81.6</ele>
        <time>2021-07-21T07:13:09Z</time>
      </trkpt>
      <trkpt lat="43.5438700" lon="-6.0171830">
        <ele>82.0</ele>
        <time>2021-07-21T07:13:17Z</time>
      </trkpt>
      <trkpt lat="43.5438480" lon="-6.0172180">
        <ele>82.4</ele>
        <time>2021-07-21T07:13:18Z</time>
      </trkpt>
      <trkpt lat="43.5438270" lon="-6.0172520">
        <ele>82.8</ele>
        <time>2021-07-21T07:13:19Z</time>
      </trkpt>
      <trkpt lat="43.5438060" lon="-6.0172920">
        <ele>83.2</ele>
        <time>2021-07-21T07:13:20Z</time>
      </trkpt>
      <trkpt lat="43.5437830" lon="-6.0173300">
        <ele>83.6</ele>
        <time>2021-07-21T07:13:21Z</time>
      </trkpt>
      <trkpt lat="43.5435860" lon="-6.0176660">
        <ele>83.6</ele>
        <time>2021-07-21T07:13:31Z</time>
      </trkpt>
      <trkpt lat="43.5434100" lon="-6.0179600">
        <ele>84.0</ele>
        <time>2021-07-21T07:13:39Z</time>
      </trkpt>
      <trkpt lat="43.5433890" lon="-6.0179990">
        <ele>84.4</ele>
        <time>2021-07-21T07:13:40Z</time>
      </trkpt>
      <trkpt lat="43.5433690" lon="-6.0180350">
        <ele>84.8</ele>
        <time>2021-07-21T07:13:41Z</time>
      </trkpt>
      <trkpt lat="43.5433470" lon="-6.0180670">
        <ele>85.4</ele>
        <time>2021-07-21T07:13:42Z</time>
      </trkpt>
      <trkpt lat="43.5433240" lon="-6.0181020">
        <ele>85.8</ele>
        <time>2021-07-21T07:13:43Z</time>
      </trkpt>
      <trkpt lat="43.5432350" lon="-6.0182540">
        <ele>85.8</ele>
        <time>2021-07-21T07:13:47Z</time>
      </trkpt>
      <trkpt lat="43.5429980" lon="-6.0186560">
        <ele>85.8</ele>
        <time>2021-07-21T07:13:58Z</time>
      </trkpt>
      <trkpt lat="43.5429570" lon="-6.0187300">
        <ele>86.2</ele>
        <time>2021-07-21T07:14:00Z</time>
      </trkpt>
      <trkpt lat="43.5429350" lon="-6.0187660">
        <ele>86.6</ele>
        <time>2021-07-21T07:14:01Z</time>
      </trkpt>
      <trkpt lat="43.5429140" lon="-6.0188030">
        <ele>87.0</ele>
        <time>2021-07-21T07:14:02Z</time>
      </trkpt>
      <trkpt lat="43.5428920" lon="-6.0188390">
        <ele>87.4</ele>
        <time>2021-07-21T07:14:03Z</time>
      </trkpt>
      <trkpt lat="43.5428680" lon="-6.0188730">
        <ele>87.8</ele>
        <time>2021-07-21T07:14:04Z</time>
      </trkpt>
      <trkpt lat="43.5428270" lon="-6.0189470">
        <ele>87.8</ele>
        <time>2021-07-21T07:14:06Z</time>
      </trkpt>
      <trkpt lat="43.5426790" lon="-6.0192110">
        <ele>87.8</ele>
        <time>2021-07-21T07:14:13Z</time>
      </trkpt>
      <trkpt lat="43.5425000" lon="-6.0195590">
        <ele>88.2</ele>
        <time>2021-07-21T07:14:22Z</time>
      </trkpt>
      <trkpt lat="43.5424820" lon="-6.0196000">
        <ele>89.0</ele>
        <time>2021-07-21T07:14:23Z</time>
      </trkpt>
      <trkpt lat="43.5424650" lon="-6.0196430">
        <ele>89.4</ele>
        <time>2021-07-21T07:14:24Z</time>
      </trkpt>
      <trkpt lat="43.5424460" lon="-6.0196870">
        <ele>89.8</ele>
        <time>2021-07-21T07:14:25Z</time>
      </trkpt>
      <trkpt lat="43.5423380" lon="-6.0199350">
        <ele>89.8</ele>
        <time>2021-07-21T07:14:31Z</time>
      </trkpt>
      <trkpt lat="43.5421910" lon="-6.0203570">
        <ele>89.8</ele>
        <time>2021-07-21T07:14:40Z</time>
      </trkpt>
      <trkpt lat="43.5420360" lon="-6.0208770">
        <ele>89.8</ele>
        <time>2021-07-21T07:14:50Z</time>
      </trkpt>
      <trkpt lat="43.5419450" lon="-6.0212900">
        <ele>89.8</ele>
        <time>2021-07-21T07:14:58Z</time>
      </trkpt>
      <trkpt lat="43.5419360" lon="-6.0213350">
        <ele>89.8</ele>
        <time>2021-07-21T07:14:59Z</time>
      </trkpt>
      <trkpt lat="43.5419050" lon="-6.0214710">
        <ele>89.8</ele>
        <time>2021-07-21T07:15:02Z</time>
      </trkpt>
      <trkpt lat="43.5418550" lon="-6.0217240">
        <ele>89.8</ele>
        <time>2021-07-21T07:15:07Z</time>
      </trkpt>
      <trkpt lat="43.5418100" lon="-6.0219560">
        <ele>89.8</ele>
        <time>2021-07-21T07:15:11Z</time>
      </trkpt>
      <trkpt lat="43.5417720" lon="-6.0221260">
        <ele>89.8</ele>
        <time>2021-07-21T07:15:14Z</time>
      </trkpt>
      <trkpt lat="43.5417450" lon="-6.0222390">
        <ele>89.8</ele>
        <time>2021-07-21T07:15:16Z</time>
      </trkpt>
      <trkpt lat="43.5416980" lon="-6.0224810">
        <ele>89.8</ele>
        <time>2021-07-21T07:15:20Z</time>
      </trkpt>
      <trkpt lat="43.5416700" lon="-6.0226160">
        <ele>89.8</ele>
        <time>2021-07-21T07:15:22Z</time>
      </trkpt>
      <trkpt lat="43.5416300" lon="-6.0228230">
        <ele>89.8</ele>
        <time>2021-07-21T07:15:25Z</time>
      </trkpt>
      <trkpt lat="43.5415730" lon="-6.0231160">
        <ele>89.8</ele>
        <time>2021-07-21T07:15:29Z</time>
      </trkpt>
      <trkpt lat="43.5415250" lon="-6.0233530">
        <ele>89.8</ele>
        <time>2021-07-21T07:15:32Z</time>
      </trkpt>
      <trkpt lat="43.5415080" lon="-6.0234400">
        <ele>89.8</ele>
        <time>2021-07-21T07:15:33Z</time>
      </trkpt>
      <trkpt lat="43.5414230" lon="-6.0238700">
        <ele>89.4</ele>
        <time>2021-07-21T07:15:38Z</time>
      </trkpt>
      <trkpt lat="43.5414090" lon="-6.0239550">
        <ele>89.0</ele>
        <time>2021-07-21T07:15:39Z</time>
      </trkpt>
      <trkpt lat="43.5413940" lon="-6.0240450">
        <ele>88.6</ele>
        <time>2021-07-21T07:15:40Z</time>
      </trkpt>
      <trkpt lat="43.5413810" lon="-6.0241320">
        <ele>88.2</ele>
        <time>2021-07-21T07:15:41Z</time>
      </trkpt>
      <trkpt lat="43.5413700" lon="-6.0242170">
        <ele>87.8</ele>
        <time>2021-07-21T07:15:42Z</time>
      </trkpt>
      <trkpt lat="43.5413510" lon="-6.0243890">
        <ele>87.4</ele>
        <time>2021-07-21T07:15:44Z</time>
      </trkpt>
      <trkpt lat="43.5413390" lon="-6.0244780">
        <ele>86.8</ele>
        <time>2021-07-21T07:15:45Z</time>
      </trkpt>
      <trkpt lat="43.5413300" lon="-6.0245720">
        <ele>86.4</ele>
        <time>2021-07-21T07:15:46Z</time>
      </trkpt>
      <trkpt lat="43.5413280" lon="-6.0246700">
        <ele>85.8</ele>
        <time>2021-07-21T07:15:47Z</time>
      </trkpt>
      <trkpt lat="43.5413310" lon="-6.0247770">
        <ele>85.4</ele>
        <time>2021-07-21T07:15:48Z</time>
      </trkpt>
      <trkpt lat="43.5413680" lon="-6.0252120">
        <ele>84.8</ele>
        <time>2021-07-21T07:15:52Z</time>
      </trkpt>
      <trkpt lat="43.5413790" lon="-6.0253220">
        <ele>84.4</ele>
        <time>2021-07-21T07:15:53Z</time>
      </trkpt>
      <trkpt lat="43.5413860" lon="-6.0254350">
        <ele>84.0</ele>
        <time>2021-07-21T07:15:54Z</time>
      </trkpt>
      <trkpt lat="43.5413950" lon="-6.0255560">
        <ele>83.6</ele>
        <time>2021-07-21T07:15:55Z</time>
      </trkpt>
      <trkpt lat="43.5414070" lon="-6.0256730">
        <ele>83.0</ele>
        <time>2021-07-21T07:15:56Z</time>
      </trkpt>
      <trkpt lat="43.5414170" lon="-6.0257940">
        <ele>82.4</ele>
        <time>2021-07-21T07:15:57Z</time>
      </trkpt>
      <trkpt lat="43.5414260" lon="-6.0259130">
        <ele>81.8</ele>
        <time>2021-07-21T07:15:58Z</time>
      </trkpt>
      <trkpt lat="43.5414340" lon="-6.0260320">
        <ele>81.2</ele>
        <time>2021-07-21T07:15:59Z</time>
      </trkpt>
      <trkpt lat="43.5414410" lon="-6.0261470">
        <ele>80.6</ele>
        <time>2021-07-21T07:16:00Z</time>
      </trkpt>
      <trkpt lat="43.5414490" lon="-6.0262600">
        <ele>80.0</ele>
        <time>2021-07-21T07:16:01Z</time>
      </trkpt>
      <trkpt lat="43.5414540" lon="-6.0263750">
        <ele>79.0</ele>
        <time>2021-07-21T07:16:02Z</time>
      </trkpt>
      <trkpt lat="43.5414610" lon="-6.0264800">
        <ele>78.6</ele>
        <time>2021-07-21T07:16:03Z</time>
      </trkpt>
      <trkpt lat="43.5414680" lon="-6.0265840">
        <ele>78.2</ele>
        <time>2021-07-21T07:16:04Z</time>
      </trkpt>
      <trkpt lat="43.5414780" lon="-6.0266890">
        <ele>77.6</ele>
        <time>2021-07-21T07:16:05Z</time>
      </trkpt>
      <trkpt lat="43.5414890" lon="-6.0267950">
        <ele>77.0</ele>
        <time>2021-07-21T07:16:06Z</time>
      </trkpt>
      <trkpt lat="43.5415000" lon="-6.0269050">
        <ele>76.6</ele>
        <time>2021-07-21T07:16:07Z</time>
      </trkpt>
      <trkpt lat="43.5415090" lon="-6.0270190">
        <ele>76.0</ele>
        <time>2021-07-21T07:16:08Z</time>
      </trkpt>
      <trkpt lat="43.5415170" lon="-6.0271320">
        <ele>75.6</ele>
        <time>2021-07-21T07:16:09Z</time>
      </trkpt>
      <trkpt lat="43.5415230" lon="-6.0272470">
        <ele>75.2</ele>
        <time>2021-07-21T07:16:10Z</time>
      </trkpt>
      <trkpt lat="43.5415270" lon="-6.0273540">
        <ele>74.6</ele>
        <time>2021-07-21T07:16:11Z</time>
      </trkpt>
      <trkpt lat="43.5415230" lon="-6.0274590">
        <ele>74.2</ele>
        <time>2021-07-21T07:16:12Z</time>
      </trkpt>
      <trkpt lat="43.5415170" lon="-6.0275590">
        <ele>73.6</ele>
        <time>2021-07-21T07:16:13Z</time>
      </trkpt>
      <trkpt lat="43.5415130" lon="-6.0276600">
        <ele>73.2</ele>
        <time>2021-07-21T07:16:14Z</time>
      </trkpt>
      <trkpt lat="43.5415090" lon="-6.0277630">
        <ele>72.6</ele>
        <time>2021-07-21T07:16:15Z</time>
      </trkpt>
      <trkpt lat="43.5415030" lon="-6.0278680">
        <ele>72.0</ele>
        <time>2021-07-21T07:16:16Z</time>
      </trkpt>
      <trkpt lat="43.5414930" lon="-6.0279790">
        <ele>71.4</ele>
        <time>2021-07-21T07:16:17Z</time>
      </trkpt>
      <trkpt lat="43.5414780" lon="-6.0280890">
        <ele>71.0</ele>
        <time>2021-07-21T07:16:18Z</time>
      </trkpt>
      <trkpt lat="43.5414590" lon="-6.0282000">
        <ele>70.6</ele>
        <time>2021-07-21T07:16:19Z</time>
      </trkpt>
      <trkpt lat="43.5414360" lon="-6.0283180">
        <ele>70.2</ele>
        <time>2021-07-21T07:16:20Z</time>
      </trkpt>
      <trkpt lat="43.5414100" lon="-6.0284360">
        <ele>69.6</ele>
        <time>2021-07-21T07:16:21Z</time>
      </trkpt>
      <trkpt lat="43.5413820" lon="-6.0285570">
        <ele>69.2</ele>
        <time>2021-07-21T07:16:22Z</time>
      </trkpt>
      <trkpt lat="43.5413510" lon="-6.0286750">
        <ele>68.8</ele>
        <time>2021-07-21T07:16:23Z</time>
      </trkpt>
      <trkpt lat="43.5413180" lon="-6.0287950">
        <ele>68.4</ele>
        <time>2021-07-21T07:16:24Z</time>
      </trkpt>
      <trkpt lat="43.5412810" lon="-6.0289160">
        <ele>68.0</ele>
        <time>2021-07-21T07:16:25Z</time>
      </trkpt>
      <trkpt lat="43.5412400" lon="-6.0290320">
        <ele>67.6</ele>
        <time>2021-07-21T07:16:26Z</time>
      </trkpt>
      <trkpt lat="43.5412000" lon="-6.0291460">
        <ele>66.6</ele>
        <time>2021-07-21T07:16:27Z</time>
      </trkpt>
      <trkpt lat="43.5411580" lon="-6.0292610">
        <ele>66.0</ele>
        <time>2021-07-21T07:16:28Z</time>
      </trkpt>
      <trkpt lat="43.5411180" lon="-6.0293770">
        <ele>65.4</ele>
        <time>2021-07-21T07:16:29Z</time>
      </trkpt>
      <trkpt lat="43.5410770" lon="-6.0294910">
        <ele>64.6</ele>
        <time>2021-07-21T07:16:30Z</time>
      </trkpt>
      <trkpt lat="43.5410390" lon="-6.0295990">
        <ele>64.0</ele>
        <time>2021-07-21T07:16:31Z</time>
      </trkpt>
      <trkpt lat="43.5409970" lon="-6.0297110">
        <ele>63.4</ele>
        <time>2021-07-21T07:16:32Z</time>
      </trkpt>
      <trkpt lat="43.5409590" lon="-6.0298160">
        <ele>62.6</ele>
        <time>2021-07-21T07:16:33Z</time>
      </trkpt>
      <trkpt lat="43.5409230" lon="-6.0299210">
        <ele>62.0</ele>
        <time>2021-07-21T07:16:34Z</time>
      </trkpt>
      <trkpt lat="43.5408860" lon="-6.0300250">
        <ele>61.2</ele>
        <time>2021-07-21T07:16:35Z</time>
      </trkpt>
      <trkpt lat="43.5408480" lon="-6.0301290">
        <ele>60.6</ele>
        <time>2021-07-21T07:16:36Z</time>
      </trkpt>
      <trkpt lat="43.5408110" lon="-6.0302320">
        <ele>60.0</ele>
        <time>2021-07-21T07:16:37Z</time>
      </trkpt>
      <trkpt lat="43.5407740" lon="-6.0303340">
        <ele>59.4</ele>
        <time>2021-07-21T07:16:38Z</time>
      </trkpt>
      <trkpt lat="43.5407400" lon="-6.0304350">
        <ele>58.8</ele>
        <time>2021-07-21T07:16:39Z</time>
      </trkpt>
      <trkpt lat="43.5407040" lon="-6.0305410">
        <ele>58.2</ele>
        <time>2021-07-21T07:16:40Z</time>
      </trkpt>
      <trkpt lat="43.5406700" lon="-6.0306380">
        <ele>57.6</ele>
        <time>2021-07-21T07:16:41Z</time>
      </trkpt>
      <trkpt lat="43.5406370" lon="-6.0307370">
        <ele>57.0</ele>
        <time>2021-07-21T07:16:42Z</time>
      </trkpt>
      <trkpt lat="43.5406060" lon="-6.0308370">
        <ele>56.4</ele>
        <time>2021-07-21T07:16:43Z</time>
      </trkpt>
      <trkpt lat="43.5405790" lon="-6.0309370">
        <ele>55.8</ele>
        <time>2021-07-21T07:16:44Z</time>
      </trkpt>
      <trkpt lat="43.5405630" lon="-6.0310430">
        <ele>55.2</ele>
        <time>2021-07-21T07:16:45Z</time>
      </trkpt>
      <trkpt lat="43.5405540" lon="-6.0311470">
        <ele>54.6</ele>
        <time>2021-07-21T07:16:46Z</time>
      </trkpt>
      <trkpt lat="43.5405500" lon="-6.0312510">
        <ele>54.0</ele>
        <time>2021-07-21T07:16:47Z</time>
      </trkpt>
      <trkpt lat="43.5405460" lon="-6.0313540">
        <ele>53.4</ele>
        <time>2021-07-21T07:16:48Z</time>
      </trkpt>
      <trkpt lat="43.5405480" lon="-6.0315540">
        <ele>53.4</ele>
        <time>2021-07-21T07:16:50Z</time>
      </trkpt>
      <trkpt lat="43.5405510" lon="-6.0319130">
        <ele>53.0</ele>
        <time>2021-07-21T07:16:54Z</time>
      </trkpt>
      <trkpt lat="43.5405540" lon="-6.0320000">
        <ele>52.6</ele>
        <time>2021-07-21T07:16:55Z</time>
      </trkpt>
      <trkpt lat="43.5405550" lon="-6.0320800">
        <ele>52.2</ele>
        <time>2021-07-21T07:16:56Z</time>
      </trkpt>
      <trkpt lat="43.5405580" lon="-6.0321550">
        <ele>51.8</ele>
        <time>2021-07-21T07:16:57Z</time>
      </trkpt>
      <trkpt lat="43.5405590" lon="-6.0322260">
        <ele>51.4</ele>
        <time>2021-07-21T07:16:58Z</time>
      </trkpt>
      <trkpt lat="43.5405640" lon="-6.0325230">
        <ele>51.4</ele>
        <time>2021-07-21T07:17:03Z</time>
      </trkpt>
      <trkpt lat="43.5405550" lon="-6.0326340">
        <ele>51.4</ele>
        <time>2021-07-21T07:17:05Z</time>
      </trkpt>
      <trkpt lat="43.5405550" lon="-6.0326860">
        <ele>51.4</ele>
        <time>2021-07-21T07:17:06Z</time>
      </trkpt>
      <trkpt lat="43.5405560" lon="-6.0327850">
        <ele>51.4</ele>
        <time>2021-07-21T07:17:08Z</time>
      </trkpt>
      <trkpt lat="43.5405550" lon="-6.0328340">
        <ele>51.4</ele>
        <time>2021-07-21T07:17:09Z</time>
      </trkpt>
      <trkpt lat="43.5405470" lon="-6.0329260">
        <ele>51.4</ele>
        <time>2021-07-21T07:17:11Z</time>
      </trkpt>
      <trkpt lat="43.5405340" lon="-6.0330020">
        <ele>51.4</ele>
        <time>2021-07-21T07:17:13Z</time>
      </trkpt>
      <trkpt lat="43.5405100" lon="-6.0331100">
        <ele>51.4</ele>
        <time>2021-07-21T07:17:16Z</time>
      </trkpt>
      <trkpt lat="43.5404860" lon="-6.0332480">
        <ele>51.4</ele>
        <time>2021-07-21T07:17:20Z</time>
      </trkpt>
      <trkpt lat="43.5404650" lon="-6.0333400">
        <ele>51.4</ele>
        <time>2021-07-21T07:17:23Z</time>
      </trkpt>
      <trkpt lat="43.5404490" lon="-6.0333930">
        <ele>51.8</ele>
        <time>2021-07-21T07:17:25Z</time>
      </trkpt>
      <trkpt lat="43.5404410" lon="-6.0334200">
        <ele>52.2</ele>
        <time>2021-07-21T07:17:26Z</time>
      </trkpt>
      <trkpt lat="43.5404360" lon="-6.0334490">
        <ele>52.6</ele>
        <time>2021-07-21T07:17:27Z</time>
      </trkpt>
      <trkpt lat="43.5404300" lon="-6.0334750">
        <ele>53.2</ele>
        <time>2021-07-21T07:17:28Z</time>
      </trkpt>
      <trkpt lat="43.5404250" lon="-6.0335000">
        <ele>53.6</ele>
        <time>2021-07-21T07:17:29Z</time>
      </trkpt>
      <trkpt lat="43.5404150" lon="-6.0335430">
        <ele>53.6</ele>
        <time>2021-07-21T07:17:31Z</time>
      </trkpt>
      <trkpt lat="43.5404130" lon="-6.0335460">
        <ele>53.6</ele>
        <time>2021-07-21T07:17:32Z</time>
      </trkpt>
      <trkpt lat="43.5403980" lon="-6.0335790">
        <ele>53.6</ele>
        <time>2021-07-21T07:19:47Z</time>
      </trkpt>
      <trkpt lat="43.5403910" lon="-6.0335980">
        <ele>53.6</ele>
        <time>2021-07-21T07:19:48Z</time>
      </trkpt>
      <trkpt lat="43.5403750" lon="-6.0336570">
        <ele>53.6</ele>
        <time>2021-07-21T07:19:51Z</time>
      </trkpt>
      <trkpt lat="43.5403670" lon="-6.0337010">
        <ele>53.6</ele>
        <time>2021-07-21T07:19:53Z</time>
      </trkpt>
      <trkpt lat="43.5403600" lon="-6.0337270">
        <ele>53.6</ele>
        <time>2021-07-21T07:19:54Z</time>
      </trkpt>
      <trkpt lat="43.5403450" lon="-6.0337890">
        <ele>53.6</ele>
        <time>2021-07-21T07:19:56Z</time>
      </trkpt>
      <trkpt lat="43.5403280" lon="-6.0338480">
        <ele>53.6</ele>
        <time>2021-07-21T07:19:58Z</time>
      </trkpt>
      <trkpt lat="43.5403100" lon="-6.0339080">
        <ele>54.0</ele>
        <time>2021-07-21T07:20:00Z</time>
      </trkpt>
      <trkpt lat="43.5403040" lon="-6.0339360">
        <ele>54.4</ele>
        <time>2021-07-21T07:20:01Z</time>
      </trkpt>
      <trkpt lat="43.5402990" lon="-6.0339650">
        <ele>54.8</ele>
        <time>2021-07-21T07:20:02Z</time>
      </trkpt>
      <trkpt lat="43.5402910" lon="-6.0339950">
        <ele>55.2</ele>
        <time>2021-07-21T07:20:03Z</time>
      </trkpt>
      <trkpt lat="43.5402840" lon="-6.0340220">
        <ele>55.6</ele>
        <time>2021-07-21T07:20:04Z</time>
      </trkpt>
      <trkpt lat="43.5402500" lon="-6.0342020">
        <ele>55.6</ele>
        <time>2021-07-21T07:20:10Z</time>
      </trkpt>
      <trkpt lat="43.5402370" lon="-6.0342610">
        <ele>56.2</ele>
        <time>2021-07-21T07:20:12Z</time>
      </trkpt>
      <trkpt lat="43.5402330" lon="-6.0342860">
        <ele>56.6</ele>
        <time>2021-07-21T07:20:13Z</time>
      </trkpt>
      <trkpt lat="43.5402280" lon="-6.0343140">
        <ele>57.0</ele>
        <time>2021-07-21T07:20:14Z</time>
      </trkpt>
      <trkpt lat="43.5402210" lon="-6.0343430">
        <ele>57.4</ele>
        <time>2021-07-21T07:20:15Z</time>
      </trkpt>
      <trkpt lat="43.5402150" lon="-6.0343730">
        <ele>57.8</ele>
        <time>2021-07-21T07:20:16Z</time>
      </trkpt>
      <trkpt lat="43.5401790" lon="-6.0345630">
        <ele>57.8</ele>
        <time>2021-07-21T07:20:22Z</time>
      </trkpt>
      <trkpt lat="43.5401810" lon="-6.0346240">
        <ele>57.8</ele>
        <time>2021-07-21T07:20:24Z</time>
      </trkpt>
      <trkpt lat="43.5401810" lon="-6.0346550">
        <ele>58.4</ele>
        <time>2021-07-21T07:20:25Z</time>
      </trkpt>
      <trkpt lat="43.5401800" lon="-6.0346870">
        <ele>58.8</ele>
        <time>2021-07-21T07:20:26Z</time>
      </trkpt>
      <trkpt lat="43.5401780" lon="-6.0347180">
        <ele>59.2</ele>
        <time>2021-07-21T07:20:27Z</time>
      </trkpt>
      <trkpt lat="43.5401790" lon="-6.0347510">
        <ele>59.6</ele>
        <time>2021-07-21T07:20:28Z</time>
      </trkpt>
      <trkpt lat="43.5401800" lon="-6.0347820">
        <ele>60.0</ele>
        <time>2021-07-21T07:20:29Z</time>
      </trkpt>
      <trkpt lat="43.5401790" lon="-6.0348980">
        <ele>60.0</ele>
        <time>2021-07-21T07:20:33Z</time>
      </trkpt>
      <trkpt lat="43.5401850" lon="-6.0350140">
        <ele>60.4</ele>
        <time>2021-07-21T07:20:37Z</time>
      </trkpt>
      <trkpt lat="43.5401880" lon="-6.0350390">
        <ele>60.8</ele>
        <time>2021-07-21T07:20:38Z</time>
      </trkpt>
      <trkpt lat="43.5401890" lon="-6.0350670">
        <ele>61.2</ele>
        <time>2021-07-21T07:20:39Z</time>
      </trkpt>
      <trkpt lat="43.5401920" lon="-6.0350970">
        <ele>61.8</ele>
        <time>2021-07-21T07:20:40Z</time>
      </trkpt>
      <trkpt lat="43.5401950" lon="-6.0351260">
        <ele>62.2</ele>
        <time>2021-07-21T07:20:41Z</time>
      </trkpt>
      <trkpt lat="43.5402370" lon="-6.0353060">
        <ele>62.6</ele>
        <time>2021-07-21T07:20:48Z</time>
      </trkpt>
      <trkpt lat="43.5402430" lon="-6.0353340">
        <ele>63.0</ele>
        <time>2021-07-21T07:20:49Z</time>
      </trkpt>
      <trkpt lat="43.5402480" lon="-6.0353610">
        <ele>63.4</ele>
        <time>2021-07-21T07:20:50Z</time>
      </trkpt>
      <trkpt lat="43.5402520" lon="-6.0353870">
        <ele>63.8</ele>
        <time>2021-07-21T07:20:51Z</time>
      </trkpt>
      <trkpt lat="43.5402580" lon="-6.0354140">
        <ele>64.2</ele>
        <time>2021-07-21T07:20:52Z</time>
      </trkpt>
      <trkpt lat="43.5403150" lon="-6.0355310">
        <ele>64.2</ele>
        <time>2021-07-21T07:20:57Z</time>
      </trkpt>
      <trkpt lat="43.5403340" lon="-6.0356020">
        <ele>64.6</ele>
        <time>2021-07-21T07:21:00Z</time>
      </trkpt>
      <trkpt lat="43.5403440" lon="-6.0356230">
        <ele>65.0</ele>
        <time>2021-07-21T07:21:01Z</time>
      </trkpt>
      <trkpt lat="43.5403540" lon="-6.0356470">
        <ele>65.4</ele>
        <time>2021-07-21T07:21:02Z</time>
      </trkpt>
      <trkpt lat="43.5403620" lon="-6.0356700">
        <ele>65.8</ele>
        <time>2021-07-21T07:21:03Z</time>
      </trkpt>
      <trkpt lat="43.5403720" lon="-6.0356890">
        <ele>66.4</ele>
        <time>2021-07-21T07:21:04Z</time>
      </trkpt>
      <trkpt lat="43.5404590" lon="-6.0358750">
        <ele>66.8</ele>
        <time>2021-07-21T07:21:13Z</time>
      </trkpt>
      <trkpt lat="43.5404680" lon="-6.0358970">
        <ele>67.2</ele>
        <time>2021-07-21T07:21:14Z</time>
      </trkpt>
      <trkpt lat="43.5404790" lon="-6.0359170">
        <ele>67.6</ele>
        <time>2021-07-21T07:21:15Z</time>
      </trkpt>
      <trkpt lat="43.5404910" lon="-6.0359370">
        <ele>68.0</ele>
        <time>2021-07-21T07:21:16Z</time>
      </trkpt>
      <trkpt lat="43.5405020" lon="-6.0359580">
        <ele>68.4</ele>
        <time>2021-07-21T07:21:17Z</time>
      </trkpt>
      <trkpt lat="43.5405410" lon="-6.0360520">
        <ele>68.4</ele>
        <time>2021-07-21T07:21:21Z</time>
      </trkpt>
      <trkpt lat="43.5405950" lon="-6.0361810">
        <ele>68.8</ele>
        <time>2021-07-21T07:21:27Z</time>
      </trkpt>
      <trkpt lat="43.5406050" lon="-6.0362030">
        <ele>69.2</ele>
        <time>2021-07-21T07:21:28Z</time>
      </trkpt>
      <trkpt lat="43.5406170" lon="-6.0362240">
        <ele>69.6</ele>
        <time>2021-07-21T07:21:29Z</time>
      </trkpt>
      <trkpt lat="43.5406270" lon="-6.0362480">
        <ele>70.0</ele>
        <time>2021-07-21T07:21:30Z</time>
      </trkpt>
      <trkpt lat="43.5406370" lon="-6.0362700">
        <ele>70.4</ele>
        <time>2021-07-21T07:21:31Z</time>
      </trkpt>
      <trkpt lat="43.5406810" lon="-6.0363780">
        <ele>70.4</ele>
        <time>2021-07-21T07:21:36Z</time>
      </trkpt>
      <trkpt lat="43.5407480" lon="-6.0365250">
        <ele>70.8</ele>
        <time>2021-07-21T07:21:42Z</time>
      </trkpt>
      <trkpt lat="43.5407570" lon="-6.0365480">
        <ele>71.2</ele>
        <time>2021-07-21T07:21:43Z</time>
      </trkpt>
      <trkpt lat="43.5407680" lon="-6.0365700">
        <ele>71.6</ele>
        <time>2021-07-21T07:21:44Z</time>
      </trkpt>
      <trkpt lat="43.5407770" lon="-6.0365940">
        <ele>72.0</ele>
        <time>2021-07-21T07:21:45Z</time>
      </trkpt>
      <trkpt lat="43.5407870" lon="-6.0366150">
        <ele>72.4</ele>
        <time>2021-07-21T07:21:46Z</time>
      </trkpt>
      <trkpt lat="43.5408520" lon="-6.0367750">
        <ele>72.4</ele>
        <time>2021-07-21T07:21:53Z</time>
      </trkpt>
      <trkpt lat="43.5409050" lon="-6.0369110">
        <ele>72.8</ele>
        <time>2021-07-21T07:21:59Z</time>
      </trkpt>
      <trkpt lat="43.5409130" lon="-6.0369360">
        <ele>73.2</ele>
        <time>2021-07-21T07:22:00Z</time>
      </trkpt>
      <trkpt lat="43.5409220" lon="-6.0369620">
        <ele>73.6</ele>
        <time>2021-07-21T07:22:01Z</time>
      </trkpt>
      <trkpt lat="43.5409330" lon="-6.0369840">
        <ele>74.0</ele>
        <time>2021-07-21T07:22:02Z</time>
      </trkpt>
      <trkpt lat="43.5409430" lon="-6.0370070">
        <ele>74.6</ele>
        <time>2021-07-21T07:22:03Z</time>
      </trkpt>
      <trkpt lat="43.5410100" lon="-6.0372040">
        <ele>74.6</ele>
        <time>2021-07-21T07:22:11Z</time>
      </trkpt>
      <trkpt lat="43.5410380" lon="-6.0372790">
        <ele>75.0</ele>
        <time>2021-07-21T07:22:14Z</time>
      </trkpt>
      <trkpt lat="43.5410450" lon="-6.0373040">
        <ele>75.4</ele>
        <time>2021-07-21T07:22:15Z</time>
      </trkpt>
      <trkpt lat="43.5410550" lon="-6.0373320">
        <ele>75.8</ele>
        <time>2021-07-21T07:22:16Z</time>
      </trkpt>
      <trkpt lat="43.5410680" lon="-6.0373560">
        <ele>76.2</ele>
        <time>2021-07-21T07:22:17Z</time>
      </trkpt>
      <trkpt lat="43.5410800" lon="-6.0373800">
        <ele>76.6</ele>
        <time>2021-07-21T07:22:18Z</time>
      </trkpt>
      <trkpt lat="43.5410960" lon="-6.0374350">
        <ele>76.6</ele>
        <time>2021-07-21T07:22:20Z</time>
      </trkpt>
      <trkpt lat="43.5411070" lon="-6.0376760">
        <ele>76.6</ele>
        <time>2021-07-21T07:22:28Z</time>
      </trkpt>
      <trkpt lat="43.5411070" lon="-6.0377070">
        <ele>77.0</ele>
        <time>2021-07-21T07:22:29Z</time>
      </trkpt>
      <trkpt lat="43.5411080" lon="-6.0377370">
        <ele>77.4</ele>
        <time>2021-07-21T07:22:30Z</time>
      </trkpt>
      <trkpt lat="43.5411060" lon="-6.0377660">
        <ele>77.8</ele>
        <time>2021-07-21T07:22:31Z</time>
      </trkpt>
      <trkpt lat="43.5411040" lon="-6.0377970">
        <ele>78.2</ele>
        <time>2021-07-21T07:22:32Z</time>
      </trkpt>
      <trkpt lat="43.5411020" lon="-6.0378260">
        <ele>78.6</ele>
        <time>2021-07-21T07:22:33Z</time>
      </trkpt>
      <trkpt lat="43.5410850" lon="-6.0379220">
        <ele>78.6</ele>
        <time>2021-07-21T07:22:36Z</time>
      </trkpt>
      <trkpt lat="43.5409960" lon="-6.0381280">
        <ele>78.6</ele>
        <time>2021-07-21T07:22:44Z</time>
      </trkpt>
      <trkpt lat="43.5409670" lon="-6.0381770">
        <ele>79.0</ele>
        <time>2021-07-21T07:22:46Z</time>
      </trkpt>
      <trkpt lat="43.5409530" lon="-6.0382020">
        <ele>79.4</ele>
        <time>2021-07-21T07:22:47Z</time>
      </trkpt>
      <trkpt lat="43.5409380" lon="-6.0382200">
        <ele>79.8</ele>
        <time>2021-07-21T07:22:48Z</time>
      </trkpt>
      <trkpt lat="43.5409220" lon="-6.0382410">
        <ele>80.2</ele>
        <time>2021-07-21T07:22:49Z</time>
      </trkpt>
      <trkpt lat="43.5408990" lon="-6.0382610">
        <ele>80.6</ele>
        <time>2021-07-21T07:22:50Z</time>
      </trkpt>
      <trkpt lat="43.5408600" lon="-6.0383090">
        <ele>80.6</ele>
        <time>2021-07-21T07:22:52Z</time>
      </trkpt>
      <trkpt lat="43.5407210" lon="-6.0384230">
        <ele>80.6</ele>
        <time>2021-07-21T07:22:59Z</time>
      </trkpt>
      <trkpt lat="43.5406440" lon="-6.0384610">
        <ele>81.0</ele>
        <time>2021-07-21T07:23:03Z</time>
      </trkpt>
      <trkpt lat="43.5406220" lon="-6.0384670">
        <ele>81.4</ele>
        <time>2021-07-21T07:23:04Z</time>
      </trkpt>
      <trkpt lat="43.5405980" lon="-6.0384710">
        <ele>81.8</ele>
        <time>2021-07-21T07:23:05Z</time>
      </trkpt>
      <trkpt lat="43.5405740" lon="-6.0384700">
        <ele>82.4</ele>
        <time>2021-07-21T07:23:06Z</time>
      </trkpt>
      <trkpt lat="43.5405480" lon="-6.0384710">
        <ele>82.8</ele>
        <time>2021-07-21T07:23:07Z</time>
      </trkpt>
      <trkpt lat="43.5403810" lon="-6.0384480">
        <ele>82.8</ele>
        <time>2021-07-21T07:23:14Z</time>
      </trkpt>
      <trkpt lat="43.5402320" lon="-6.0383660">
        <ele>82.8</ele>
        <time>2021-07-21T07:23:21Z</time>
      </trkpt>
      <trkpt lat="43.5401710" lon="-6.0383180">
        <ele>83.2</ele>
        <time>2021-07-21T07:23:24Z</time>
      </trkpt>
      <trkpt lat="43.5401510" lon="-6.0383010">
        <ele>83.6</ele>
        <time>2021-07-21T07:23:25Z</time>
      </trkpt>
      <trkpt lat="43.5401320" lon="-6.0382880">
        <ele>84.4</ele>
        <time>2021-07-21T07:23:26Z</time>
      </trkpt>
      <trkpt lat="43.5401140" lon="-6.0382740">
        <ele>84.8</ele>
        <time>2021-07-21T07:23:27Z</time>
      </trkpt>
      <trkpt lat="43.5400820" lon="-6.0382360">
        <ele>84.8</ele>
        <time>2021-07-21T07:23:29Z</time>
      </trkpt>
      <trkpt lat="43.5399560" lon="-6.0380700">
        <ele>84.8</ele>
        <time>2021-07-21T07:23:36Z</time>
      </trkpt>
      <trkpt lat="43.5398010" lon="-6.0378790">
        <ele>84.8</ele>
        <time>2021-07-21T07:23:44Z</time>
      </trkpt>
      <trkpt lat="43.5397820" lon="-6.0378640">
        <ele>85.4</ele>
        <time>2021-07-21T07:23:45Z</time>
      </trkpt>
      <trkpt lat="43.5397650" lon="-6.0378450">
        <ele>85.8</ele>
        <time>2021-07-21T07:23:46Z</time>
      </trkpt>
      <trkpt lat="43.5397490" lon="-6.0378280">
        <ele>86.2</ele>
        <time>2021-07-21T07:23:47Z</time>
      </trkpt>
      <trkpt lat="43.5397300" lon="-6.0378100">
        <ele>86.6</ele>
        <time>2021-07-21T07:23:48Z</time>
      </trkpt>
      <trkpt lat="43.5397110" lon="-6.0377950">
        <ele>87.0</ele>
        <time>2021-07-21T07:23:49Z</time>
      </trkpt>
      <trkpt lat="43.5396710" lon="-6.0377610">
        <ele>87.0</ele>
        <time>2021-07-21T07:23:51Z</time>
      </trkpt>
      <trkpt lat="43.5395060" lon="-6.0376880">
        <ele>87.4</ele>
        <time>2021-07-21T07:23:59Z</time>
      </trkpt>
      <trkpt lat="43.5394850" lon="-6.0376840">
        <ele>87.8</ele>
        <time>2021-07-21T07:24:00Z</time>
      </trkpt>
      <trkpt lat="43.5394620" lon="-6.0376800">
        <ele>88.2</ele>
        <time>2021-07-21T07:24:01Z</time>
      </trkpt>
      <trkpt lat="43.5394370" lon="-6.0376730">
        <ele>88.6</ele>
        <time>2021-07-21T07:24:02Z</time>
      </trkpt>
      <trkpt lat="43.5394130" lon="-6.0376690">
        <ele>89.0</ele>
        <time>2021-07-21T07:24:03Z</time>
      </trkpt>
      <trkpt lat="43.5393040" lon="-6.0376580">
        <ele>89.0</ele>
        <time>2021-07-21T07:24:08Z</time>
      </trkpt>
      <trkpt lat="43.5392020" lon="-6.0376790">
        <ele>89.4</ele>
        <time>2021-07-21T07:24:13Z</time>
      </trkpt>
      <trkpt lat="43.5391850" lon="-6.0376880">
        <ele>89.8</ele>
        <time>2021-07-21T07:24:14Z</time>
      </trkpt>
      <trkpt lat="43.5391650" lon="-6.0376930">
        <ele>90.6</ele>
        <time>2021-07-21T07:24:15Z</time>
      </trkpt>
      <trkpt lat="43.5391440" lon="-6.0376940">
        <ele>91.0</ele>
        <time>2021-07-21T07:24:16Z</time>
      </trkpt>
      <trkpt lat="43.5391240" lon="-6.0377000">
        <ele>91.0</ele>
        <time>2021-07-21T07:24:17Z</time>
      </trkpt>
      <trkpt lat="43.5389830" lon="-6.0377850">
        <ele>91.0</ele>
        <time>2021-07-21T07:24:24Z</time>
      </trkpt>
      <trkpt lat="43.5389230" lon="-6.0378230">
        <ele>91.4</ele>
        <time>2021-07-21T07:24:27Z</time>
      </trkpt>
      <trkpt lat="43.5389060" lon="-6.0378380">
        <ele>92.0</ele>
        <time>2021-07-21T07:24:28Z</time>
      </trkpt>
      <trkpt lat="43.5388890" lon="-6.0378580">
        <ele>92.4</ele>
        <time>2021-07-21T07:24:29Z</time>
      </trkpt>
      <trkpt lat="43.5388720" lon="-6.0378730">
        <ele>92.8</ele>
        <time>2021-07-21T07:24:30Z</time>
      </trkpt>
      <trkpt lat="43.5388580" lon="-6.0378890">
        <ele>93.2</ele>
        <time>2021-07-21T07:24:31Z</time>
      </trkpt>
      <trkpt lat="43.5388100" lon="-6.0379430">
        <ele>93.2</ele>
        <time>2021-07-21T07:24:34Z</time>
      </trkpt>
      <trkpt lat="43.5387150" lon="-6.0381140">
        <ele>93.6</ele>
        <time>2021-07-21T07:24:42Z</time>
      </trkpt>
      <trkpt lat="43.5387000" lon="-6.0381350">
        <ele>94.0</ele>
        <time>2021-07-21T07:24:43Z</time>
      </trkpt>
      <trkpt lat="43.5386860" lon="-6.0381590">
        <ele>94.4</ele>
        <time>2021-07-21T07:24:44Z</time>
      </trkpt>
      <trkpt lat="43.5386740" lon="-6.0381840">
        <ele>94.8</ele>
        <time>2021-07-21T07:24:45Z</time>
      </trkpt>
      <trkpt lat="43.5386610" lon="-6.0382100">
        <ele>95.2</ele>
        <time>2021-07-21T07:24:46Z</time>
      </trkpt>
      <trkpt lat="43.5386010" lon="-6.0383690">
        <ele>95.2</ele>
        <time>2021-07-21T07:24:52Z</time>
      </trkpt>
      <trkpt lat="43.5385570" lon="-6.0385160">
        <ele>95.6</ele>
        <time>2021-07-21T07:24:58Z</time>
      </trkpt>
      <trkpt lat="43.5385500" lon="-6.0385440">
        <ele>96.0</ele>
        <time>2021-07-21T07:24:59Z</time>
      </trkpt>
      <trkpt lat="43.5385430" lon="-6.0385690">
        <ele>96.4</ele>
        <time>2021-07-21T07:25:00Z</time>
      </trkpt>
      <trkpt lat="43.5385370" lon="-6.0385990">
        <ele>97.0</ele>
        <time>2021-07-21T07:25:01Z</time>
      </trkpt>
      <trkpt lat="43.5385310" lon="-6.0386270">
        <ele>97.4</ele>
        <time>2021-07-21T07:25:02Z</time>
      </trkpt>
      <trkpt lat="43.5385070" lon="-6.0387900">
        <ele>97.4</ele>
        <time>2021-07-21T07:25:08Z</time>
      </trkpt>
      <trkpt lat="43.5384960" lon="-6.0389260">
        <ele>97.8</ele>
        <time>2021-07-21T07:25:13Z</time>
      </trkpt>
      <trkpt lat="43.5384910" lon="-6.0389520">
        <ele>98.2</ele>
        <time>2021-07-21T07:25:14Z</time>
      </trkpt>
      <trkpt lat="43.5384890" lon="-6.0389810">
        <ele>98.6</ele>
        <time>2021-07-21T07:25:15Z</time>
      </trkpt>
      <trkpt lat="43.5384810" lon="-6.0390050">
        <ele>99.0</ele>
        <time>2021-07-21T07:25:16Z</time>
      </trkpt>
      <trkpt lat="43.5384760" lon="-6.0390320">
        <ele>99.4</ele>
        <time>2021-07-21T07:25:17Z</time>
      </trkpt>
      <trkpt lat="43.5384510" lon="-6.0392200">
        <ele>99.4</ele>
        <time>2021-07-21T07:25:24Z</time>
      </trkpt>
      <trkpt lat="43.5384180" lon="-6.0394320">
        <ele>99.8</ele>
        <time>2021-07-21T07:25:32Z</time>
      </trkpt>
      <trkpt lat="43.5384140" lon="-6.0394590">
        <ele>100.2</ele>
        <time>2021-07-21T07:25:33Z</time>
      </trkpt>
      <trkpt lat="43.5384050" lon="-6.0394900">
        <ele>100.6</ele>
        <time>2021-07-21T07:25:34Z</time>
      </trkpt>
      <trkpt lat="43.5384010" lon="-6.0395180">
        <ele>101.0</ele>
        <time>2021-07-21T07:25:35Z</time>
      </trkpt>
      <trkpt lat="43.5383960" lon="-6.0395460">
        <ele>101.4</ele>
        <time>2021-07-21T07:25:36Z</time>
      </trkpt>
      <trkpt lat="43.5383890" lon="-6.0396320">
        <ele>101.4</ele>
        <time>2021-07-21T07:25:39Z</time>
      </trkpt>
      <trkpt lat="43.5383750" lon="-6.0398770">
        <ele>101.4</ele>
        <time>2021-07-21T07:25:48Z</time>
      </trkpt>
      <trkpt lat="43.5383690" lon="-6.0399330">
        <ele>102.0</ele>
        <time>2021-07-21T07:25:50Z</time>
      </trkpt>
      <trkpt lat="43.5383680" lon="-6.0399620">
        <ele>102.4</ele>
        <time>2021-07-21T07:25:51Z</time>
      </trkpt>
      <trkpt lat="43.5383660" lon="-6.0399910">
        <ele>102.8</ele>
        <time>2021-07-21T07:25:52Z</time>
      </trkpt>
      <trkpt lat="43.5383670" lon="-6.0400160">
        <ele>103.2</ele>
        <time>2021-07-21T07:25:53Z</time>
      </trkpt>
      <trkpt lat="43.5383680" lon="-6.0400380">
        <ele>103.6</ele>
        <time>2021-07-21T07:25:54Z</time>
      </trkpt>
      <trkpt lat="43.5383620" lon="-6.0400640">
        <ele>103.6</ele>
        <time>2021-07-21T07:25:55Z</time>
      </trkpt>
      <trkpt lat="43.5383490" lon="-6.0402410">
        <ele>103.6</ele>
        <time>2021-07-21T07:26:02Z</time>
      </trkpt>
      <trkpt lat="43.5382960" lon="-6.0404380">
        <ele>104.0</ele>
        <time>2021-07-21T07:26:09Z</time>
      </trkpt>
      <trkpt lat="43.5383010" lon="-6.0404680">
        <ele>104.4</ele>
        <time>2021-07-21T07:26:10Z</time>
      </trkpt>
      <trkpt lat="43.5383050" lon="-6.0404990">
        <ele>104.8</ele>
        <time>2021-07-21T07:26:11Z</time>
      </trkpt>
      <trkpt lat="43.5383060" lon="-6.0405230">
        <ele>105.2</ele>
        <time>2021-07-21T07:26:12Z</time>
      </trkpt>
      <trkpt lat="43.5383050" lon="-6.0405470">
        <ele>105.6</ele>
        <time>2021-07-21T07:26:13Z</time>
      </trkpt>
      <trkpt lat="43.5382770" lon="-6.0406930">
        <ele>105.6</ele>
        <time>2021-07-21T07:26:19Z</time>
      </trkpt>
      <trkpt lat="43.5382610" lon="-6.0407270">
        <ele>105.6</ele>
        <time>2021-07-21T07:26:21Z</time>
      </trkpt>
      <trkpt lat="43.5382440" lon="-6.0408230">
        <ele>105.6</ele>
        <time>2021-07-21T07:26:25Z</time>
      </trkpt>
      <trkpt lat="43.5382340" lon="-6.0408490">
        <ele>106.0</ele>
        <time>2021-07-21T07:26:26Z</time>
      </trkpt>
      <trkpt lat="43.5382290" lon="-6.0408650">
        <ele>106.6</ele>
        <time>2021-07-21T07:26:27Z</time>
      </trkpt>
      <trkpt lat="43.5382220" lon="-6.0408880">
        <ele>107.0</ele>
        <time>2021-07-21T07:26:28Z</time>
      </trkpt>
      <trkpt lat="43.5382150" lon="-6.0409110">
        <ele>107.4</ele>
        <time>2021-07-21T07:26:29Z</time>
      </trkpt>
      <trkpt lat="43.5382060" lon="-6.0409310">
        <ele>107.8</ele>
        <time>2021-07-21T07:26:30Z</time>
      </trkpt>
      <trkpt lat="43.5381980" lon="-6.0409560">
        <ele>107.8</ele>
        <time>2021-07-21T07:26:31Z</time>
      </trkpt>
      <trkpt lat="43.5381450" lon="-6.0411560">
        <ele>107.8</ele>
        <time>2021-07-21T07:26:39Z</time>
      </trkpt>
      <trkpt lat="43.5380890" lon="-6.0412820">
        <ele>108.2</ele>
        <time>2021-07-21T07:26:44Z</time>
      </trkpt>
      <trkpt lat="43.5380780" lon="-6.0413040">
        <ele>108.6</ele>
        <time>2021-07-21T07:26:45Z</time>
      </trkpt>
      <trkpt lat="43.5380640" lon="-6.0413300">
        <ele>109.0</ele>
        <time>2021-07-21T07:26:46Z</time>
      </trkpt>
      <trkpt lat="43.5380520" lon="-6.0413540">
        <ele>109.4</ele>
        <time>2021-07-21T07:26:47Z</time>
      </trkpt>
      <trkpt lat="43.5380390" lon="-6.0413780">
        <ele>109.8</ele>
        <time>2021-07-21T07:26:48Z</time>
      </trkpt>
      <trkpt lat="43.5379640" lon="-6.0415090">
        <ele>109.8</ele>
        <time>2021-07-21T07:26:54Z</time>
      </trkpt>
      <trkpt lat="43.5378230" lon="-6.0416560">
        <ele>110.2</ele>
        <time>2021-07-21T07:27:02Z</time>
      </trkpt>
      <trkpt lat="43.5378060" lon="-6.0416750">
        <ele>110.8</ele>
        <time>2021-07-21T07:27:03Z</time>
      </trkpt>
      <trkpt lat="43.5377910" lon="-6.0416930">
        <ele>111.2</ele>
        <time>2021-07-21T07:27:04Z</time>
      </trkpt>
      <trkpt lat="43.5377790" lon="-6.0417120">
        <ele>111.6</ele>
        <time>2021-07-21T07:27:05Z</time>
      </trkpt>
      <trkpt lat="43.5377650" lon="-6.0417290">
        <ele>112.0</ele>
        <time>2021-07-21T07:27:06Z</time>
      </trkpt>
      <trkpt lat="43.5377070" lon="-6.0418020">
        <ele>112.0</ele>
        <time>2021-07-21T07:27:10Z</time>
      </trkpt>
      <trkpt lat="43.5376100" lon="-6.0419410">
        <ele>112.4</ele>
        <time>2021-07-21T07:27:17Z</time>
      </trkpt>
      <trkpt lat="43.5375970" lon="-6.0419610">
        <ele>112.8</ele>
        <time>2021-07-21T07:27:18Z</time>
      </trkpt>
      <trkpt lat="43.5375850" lon="-6.0419850">
        <ele>113.2</ele>
        <time>2021-07-21T07:27:19Z</time>
      </trkpt>
      <trkpt lat="43.5375740" lon="-6.0420100">
        <ele>113.6</ele>
        <time>2021-07-21T07:27:20Z</time>
      </trkpt>
      <trkpt lat="43.5375640" lon="-6.0420350">
        <ele>114.0</ele>
        <time>2021-07-21T07:27:21Z</time>
      </trkpt>
      <trkpt lat="43.5375390" lon="-6.0421390">
        <ele>114.0</ele>
        <time>2021-07-21T07:27:25Z</time>
      </trkpt>
      <trkpt lat="43.5374380" lon="-6.0422740">
        <ele>114.4</ele>
        <time>2021-07-21T07:27:32Z</time>
      </trkpt>
      <trkpt lat="43.5374270" lon="-6.0422960">
        <ele>115.2</ele>
        <time>2021-07-21T07:27:33Z</time>
      </trkpt>
      <trkpt lat="43.5374100" lon="-6.0423160">
        <ele>115.6</ele>
        <time>2021-07-21T07:27:34Z</time>
      </trkpt>
      <trkpt lat="43.5373940" lon="-6.0423330">
        <ele>116.0</ele>
        <time>2021-07-21T07:27:35Z</time>
      </trkpt>
      <trkpt lat="43.5373450" lon="-6.0423680">
        <ele>116.0</ele>
        <time>2021-07-21T07:27:38Z</time>
      </trkpt>
      <trkpt lat="43.5372340" lon="-6.0424680">
        <ele>116.6</ele>
        <time>2021-07-21T07:27:45Z</time>
      </trkpt>
      <trkpt lat="43.5372160" lon="-6.0424780">
        <ele>117.0</ele>
        <time>2021-07-21T07:27:46Z</time>
      </trkpt>
      <trkpt lat="43.5371990" lon="-6.0424940">
        <ele>117.4</ele>
        <time>2021-07-21T07:27:47Z</time>
      </trkpt>
      <trkpt lat="43.5371830" lon="-6.0425020">
        <ele>117.8</ele>
        <time>2021-07-21T07:27:48Z</time>
      </trkpt>
      <trkpt lat="43.5371640" lon="-6.0425130">
        <ele>118.2</ele>
        <time>2021-07-21T07:27:49Z</time>
      </trkpt>
      <trkpt lat="43.5371110" lon="-6.0425350">
        <ele>118.2</ele>
        <time>2021-07-21T07:27:52Z</time>
      </trkpt>
      <trkpt lat="43.5369520" lon="-6.0426130">
        <ele>118.2</ele>
        <time>2021-07-21T07:28:01Z</time>
      </trkpt>
      <trkpt lat="43.5368910" lon="-6.0426310">
        <ele>118.6</ele>
        <time>2021-07-21T07:28:04Z</time>
      </trkpt>
      <trkpt lat="43.5368710" lon="-6.0426360">
        <ele>119.0</ele>
        <time>2021-07-21T07:28:05Z</time>
      </trkpt>
      <trkpt lat="43.5368510" lon="-6.0426370">
        <ele>119.4</ele>
        <time>2021-07-21T07:28:06Z</time>
      </trkpt>
      <trkpt lat="43.5368350" lon="-6.0426440">
        <ele>119.8</ele>
        <time>2021-07-21T07:28:07Z</time>
      </trkpt>
      <trkpt lat="43.5368120" lon="-6.0426480">
        <ele>120.2</ele>
        <time>2021-07-21T07:28:08Z</time>
      </trkpt>
      <trkpt lat="43.5367910" lon="-6.0426490">
        <ele>120.2</ele>
        <time>2021-07-21T07:28:09Z</time>
      </trkpt>
      <trkpt lat="43.5366130" lon="-6.0426400">
        <ele>120.2</ele>
        <time>2021-07-21T07:28:17Z</time>
      </trkpt>
      <trkpt lat="43.5364370" lon="-6.0426240">
        <ele>120.2</ele>
        <time>2021-07-21T07:28:25Z</time>
      </trkpt>
      <trkpt lat="43.5364150" lon="-6.0426200">
        <ele>120.6</ele>
        <time>2021-07-21T07:28:26Z</time>
      </trkpt>
      <trkpt lat="43.5363900" lon="-6.0426150">
        <ele>121.0</ele>
        <time>2021-07-21T07:28:27Z</time>
      </trkpt>
      <trkpt lat="43.5363670" lon="-6.0426120">
        <ele>121.4</ele>
        <time>2021-07-21T07:28:28Z</time>
      </trkpt>
      <trkpt lat="43.5363430" lon="-6.0426070">
        <ele>121.8</ele>
        <time>2021-07-21T07:28:29Z</time>
      </trkpt>
      <trkpt lat="43.5363190" lon="-6.0426000">
        <ele>122.2</ele>
        <time>2021-07-21T07:28:30Z</time>
      </trkpt>
      <trkpt lat="43.5362170" lon="-6.0425810">
        <ele>122.2</ele>
        <time>2021-07-21T07:28:34Z</time>
      </trkpt>
      <trkpt lat="43.5360060" lon="-6.0425410">
        <ele>122.2</ele>
        <time>2021-07-21T07:28:42Z</time>
      </trkpt>
      <trkpt lat="43.5358480" lon="-6.0425320">
        <ele>122.6</ele>
        <time>2021-07-21T07:28:48Z</time>
      </trkpt>
      <trkpt lat="43.5358190" lon="-6.0425370">
        <ele>123.2</ele>
        <time>2021-07-21T07:28:49Z</time>
      </trkpt>
      <trkpt lat="43.5357910" lon="-6.0425470">
        <ele>123.6</ele>
        <time>2021-07-21T07:28:50Z</time>
      </trkpt>
      <trkpt lat="43.5357640" lon="-6.0425580">
        <ele>124.0</ele>
        <time>2021-07-21T07:28:51Z</time>
      </trkpt>
      <trkpt lat="43.5357390" lon="-6.0425670">
        <ele>124.4</ele>
        <time>2021-07-21T07:28:52Z</time>
      </trkpt>
      <trkpt lat="43.5355430" lon="-6.0426400">
        <ele>124.4</ele>
        <time>2021-07-21T07:29:00Z</time>
      </trkpt>
      <trkpt lat="43.5354610" lon="-6.0427030">
        <ele>124.8</ele>
        <time>2021-07-21T07:29:04Z</time>
      </trkpt>
      <trkpt lat="43.5354390" lon="-6.0427220">
        <ele>125.2</ele>
        <time>2021-07-21T07:29:05Z</time>
      </trkpt>
      <trkpt lat="43.5354190" lon="-6.0427400">
        <ele>125.6</ele>
        <time>2021-07-21T07:29:06Z</time>
      </trkpt>
      <trkpt lat="43.5354020" lon="-6.0427600">
        <ele>126.0</ele>
        <time>2021-07-21T07:29:07Z</time>
      </trkpt>
      <trkpt lat="43.5353820" lon="-6.0427800">
        <ele>126.4</ele>
        <time>2021-07-21T07:29:08Z</time>
      </trkpt>
      <trkpt lat="43.5352100" lon="-6.0429530">
        <ele>126.4</ele>
        <time>2021-07-21T07:29:17Z</time>
      </trkpt>
      <trkpt lat="43.5351100" lon="-6.0430400">
        <ele>126.8</ele>
        <time>2021-07-21T07:29:22Z</time>
      </trkpt>
      <trkpt lat="43.5350900" lon="-6.0430530">
        <ele>127.2</ele>
        <time>2021-07-21T07:29:23Z</time>
      </trkpt>
      <trkpt lat="43.5350730" lon="-6.0430730">
        <ele>127.8</ele>
        <time>2021-07-21T07:29:24Z</time>
      </trkpt>
      <trkpt lat="43.5350530" lon="-6.0430900">
        <ele>128.2</ele>
        <time>2021-07-21T07:29:25Z</time>
      </trkpt>
      <trkpt lat="43.5350350" lon="-6.0431080">
        <ele>128.6</ele>
        <time>2021-07-21T07:29:26Z</time>
      </trkpt>
      <trkpt lat="43.5348770" lon="-6.0432540">
        <ele>128.6</ele>
        <time>2021-07-21T07:29:34Z</time>
      </trkpt>
      <trkpt lat="43.5347810" lon="-6.0433500">
        <ele>129.0</ele>
        <time>2021-07-21T07:29:39Z</time>
      </trkpt>
      <trkpt lat="43.5347620" lon="-6.0433680">
        <ele>129.4</ele>
        <time>2021-07-21T07:29:40Z</time>
      </trkpt>
      <trkpt lat="43.5347420" lon="-6.0433890">
        <ele>129.8</ele>
        <time>2021-07-21T07:29:41Z</time>
      </trkpt>
      <trkpt lat="43.5347220" lon="-6.0434050">
        <ele>130.2</ele>
        <time>2021-07-21T07:29:42Z</time>
      </trkpt>
      <trkpt lat="43.5347020" lon="-6.0434230">
        <ele>130.6</ele>
        <time>2021-07-21T07:29:43Z</time>
      </trkpt>
      <trkpt lat="43.5346800" lon="-6.0434410">
        <ele>130.6</ele>
        <time>2021-07-21T07:29:44Z</time>
      </trkpt>
      <trkpt lat="43.5345020" lon="-6.0436170">
        <ele>130.6</ele>
        <time>2021-07-21T07:29:53Z</time>
      </trkpt>
      <trkpt lat="43.5344230" lon="-6.0436890">
        <ele>131.0</ele>
        <time>2021-07-21T07:29:57Z</time>
      </trkpt>
      <trkpt lat="43.5344030" lon="-6.0437060">
        <ele>131.4</ele>
        <time>2021-07-21T07:29:58Z</time>
      </trkpt>
      <trkpt lat="43.5343840" lon="-6.0437230">
        <ele>131.8</ele>
        <time>2021-07-21T07:29:59Z</time>
      </trkpt>
      <trkpt lat="43.5343630" lon="-6.0437420">
        <ele>132.2</ele>
        <time>2021-07-21T07:30:00Z</time>
      </trkpt>
      <trkpt lat="43.5343450" lon="-6.0437570">
        <ele>132.6</ele>
        <time>2021-07-21T07:30:01Z</time>
      </trkpt>
      <trkpt lat="43.5343210" lon="-6.0437710">
        <ele>132.6</ele>
        <time>2021-07-21T07:30:02Z</time>
      </trkpt>
      <trkpt lat="43.5341180" lon="-6.0439470">
        <ele>132.6</ele>
        <time>2021-07-21T07:30:12Z</time>
      </trkpt>
      <trkpt lat="43.5340350" lon="-6.0440120">
        <ele>133.0</ele>
        <time>2021-07-21T07:30:16Z</time>
      </trkpt>
      <trkpt lat="43.5340140" lon="-6.0440280">
        <ele>133.4</ele>
        <time>2021-07-21T07:30:17Z</time>
      </trkpt>
      <trkpt lat="43.5339940" lon="-6.0440450">
        <ele>133.8</ele>
        <time>2021-07-21T07:30:18Z</time>
      </trkpt>
      <trkpt lat="43.5339730" lon="-6.0440600">
        <ele>134.2</ele>
        <time>2021-07-21T07:30:19Z</time>
      </trkpt>
      <trkpt lat="43.5339520" lon="-6.0440800">
        <ele>134.6</ele>
        <time>2021-07-21T07:30:20Z</time>
      </trkpt>
      <trkpt lat="43.5338910" lon="-6.0441350">
        <ele>134.6</ele>
        <time>2021-07-21T07:30:23Z</time>
      </trkpt>
      <trkpt lat="43.5336940" lon="-6.0442990">
        <ele>134.6</ele>
        <time>2021-07-21T07:30:33Z</time>
      </trkpt>
      <trkpt lat="43.5336740" lon="-6.0443180">
        <ele>135.0</ele>
        <time>2021-07-21T07:30:34Z</time>
      </trkpt>
      <trkpt lat="43.5336550" lon="-6.0443350">
        <ele>135.4</ele>
        <time>2021-07-21T07:30:35Z</time>
      </trkpt>
      <trkpt lat="43.5336350" lon="-6.0443510">
        <ele>135.8</ele>
        <time>2021-07-21T07:30:36Z</time>
      </trkpt>
      <trkpt lat="43.5336150" lon="-6.0443680">
        <ele>136.2</ele>
        <time>2021-07-21T07:30:37Z</time>
      </trkpt>
      <trkpt lat="43.5335930" lon="-6.0443860">
        <ele>136.6</ele>
        <time>2021-07-21T07:30:38Z</time>
      </trkpt>
      <trkpt lat="43.5334700" lon="-6.0444990">
        <ele>136.6</ele>
        <time>2021-07-21T07:30:44Z</time>
      </trkpt>
      <trkpt lat="43.5333230" lon="-6.0446280">
        <ele>137.0</ele>
        <time>2021-07-21T07:30:51Z</time>
      </trkpt>
      <trkpt lat="43.5333020" lon="-6.0446450">
        <ele>137.4</ele>
        <time>2021-07-21T07:30:52Z</time>
      </trkpt>
      <trkpt lat="43.5332820" lon="-6.0446640">
        <ele>137.8</ele>
        <time>2021-07-21T07:30:53Z</time>
      </trkpt>
      <trkpt lat="43.5332630" lon="-6.0446830">
        <ele>138.2</ele>
        <time>2021-07-21T07:30:54Z</time>
      </trkpt>
      <trkpt lat="43.5332400" lon="-6.0446990">
        <ele>138.6</ele>
        <time>2021-07-21T07:30:55Z</time>
      </trkpt>
      <trkpt lat="43.5330680" lon="-6.0448490">
        <ele>138.6</ele>
        <time>2021-07-21T07:31:03Z</time>
      </trkpt>
      <trkpt lat="43.5328590" lon="-6.0450360">
        <ele>138.6</ele>
        <time>2021-07-21T07:31:12Z</time>
      </trkpt>
      <trkpt lat="43.5326740" lon="-6.0451990">
        <ele>138.6</ele>
        <time>2021-07-21T07:31:20Z</time>
      </trkpt>
      <trkpt lat="43.5326000" lon="-6.0452600">
        <ele>138.6</ele>
        <time>2021-07-21T07:31:23Z</time>
      </trkpt>
      <trkpt lat="43.5324940" lon="-6.0453360">
        <ele>138.6</ele>
        <time>2021-07-21T07:31:27Z</time>
      </trkpt>
      <trkpt lat="43.5324200" lon="-6.0453910">
        <ele>138.6</ele>
        <time>2021-07-21T07:31:30Z</time>
      </trkpt>
      <trkpt lat="43.5323390" lon="-6.0454470">
        <ele>138.6</ele>
        <time>2021-07-21T07:31:33Z</time>
      </trkpt>
      <trkpt lat="43.5322740" lon="-6.0454880">
        <ele>138.6</ele>
        <time>2021-07-21T07:31:35Z</time>
      </trkpt>
      <trkpt lat="43.5321680" lon="-6.0455490">
        <ele>138.6</ele>
        <time>2021-07-21T07:31:38Z</time>
      </trkpt>
      <trkpt lat="43.5320470" lon="-6.0456270">
        <ele>138.6</ele>
        <time>2021-07-21T07:31:41Z</time>
      </trkpt>
      <trkpt lat="43.5320010" lon="-6.0456560">
        <ele>138.6</ele>
        <time>2021-07-21T07:31:42Z</time>
      </trkpt>
      <trkpt lat="43.5319520" lon="-6.0456820">
        <ele>138.6</ele>
        <time>2021-07-21T07:31:43Z</time>
      </trkpt>
      <trkpt lat="43.5317350" lon="-6.0458000">
        <ele>138.6</ele>
        <time>2021-07-21T07:31:47Z</time>
      </trkpt>
      <trkpt lat="43.5316760" lon="-6.0458370">
        <ele>138.6</ele>
        <time>2021-07-21T07:31:48Z</time>
      </trkpt>
      <trkpt lat="43.5315510" lon="-6.0459390">
        <ele>138.6</ele>
        <time>2021-07-21T07:31:50Z</time>
      </trkpt>
      <trkpt lat="43.5313600" lon="-6.0461280">
        <ele>138.2</ele>
        <time>2021-07-21T07:31:53Z</time>
      </trkpt>
      <trkpt lat="43.5312950" lon="-6.0462010">
        <ele>137.8</ele>
        <time>2021-07-21T07:31:54Z</time>
      </trkpt>
      <trkpt lat="43.5312330" lon="-6.0462750">
        <ele>137.4</ele>
        <time>2021-07-21T07:31:55Z</time>
      </trkpt>
      <trkpt lat="43.5311680" lon="-6.0463520">
        <ele>137.0</ele>
        <time>2021-07-21T07:31:56Z</time>
      </trkpt>
      <trkpt lat="43.5311070" lon="-6.0464240">
        <ele>136.6</ele>
        <time>2021-07-21T07:31:57Z</time>
      </trkpt>
      <trkpt lat="43.5310500" lon="-6.0464980">
        <ele>136.2</ele>
        <time>2021-07-21T07:31:58Z</time>
      </trkpt>
      <trkpt lat="43.5309960" lon="-6.0465770">
        <ele>135.8</ele>
        <time>2021-07-21T07:31:59Z</time>
      </trkpt>
      <trkpt lat="43.5309440" lon="-6.0466600">
        <ele>135.4</ele>
        <time>2021-07-21T07:32:00Z</time>
      </trkpt>
      <trkpt lat="43.5308960" lon="-6.0467480">
        <ele>135.0</ele>
        <time>2021-07-21T07:32:01Z</time>
      </trkpt>
      <trkpt lat="43.5308490" lon="-6.0468400">
        <ele>134.6</ele>
        <time>2021-07-21T07:32:02Z</time>
      </trkpt>
      <trkpt lat="43.5307500" lon="-6.0470300">
        <ele>133.6</ele>
        <time>2021-07-21T07:32:04Z</time>
      </trkpt>
      <trkpt lat="43.5306980" lon="-6.0471230">
        <ele>133.2</ele>
        <time>2021-07-21T07:32:05Z</time>
      </trkpt>
      <trkpt lat="43.5306430" lon="-6.0472100">
        <ele>132.8</ele>
        <time>2021-07-21T07:32:06Z</time>
      </trkpt>
      <trkpt lat="43.5305860" lon="-6.0472880">
        <ele>132.2</ele>
        <time>2021-07-21T07:32:07Z</time>
      </trkpt>
      <trkpt lat="43.5303940" lon="-6.0474880">
        <ele>132.2</ele>
        <time>2021-07-21T07:32:10Z</time>
      </trkpt>
      <trkpt lat="43.5303200" lon="-6.0475360">
        <ele>132.2</ele>
        <time>2021-07-21T07:32:11Z</time>
      </trkpt>
      <trkpt lat="43.5302410" lon="-6.0475780">
        <ele>131.8</ele>
        <time>2021-07-21T07:32:12Z</time>
      </trkpt>
      <trkpt lat="43.5301600" lon="-6.0476100">
        <ele>131.4</ele>
        <time>2021-07-21T07:32:13Z</time>
      </trkpt>
      <trkpt lat="43.5300780" lon="-6.0476360">
        <ele>131.0</ele>
        <time>2021-07-21T07:32:14Z</time>
      </trkpt>
      <trkpt lat="43.5299940" lon="-6.0476580">
        <ele>130.6</ele>
        <time>2021-07-21T07:32:15Z</time>
      </trkpt>
      <trkpt lat="43.5299090" lon="-6.0476750">
        <ele>130.2</ele>
        <time>2021-07-21T07:32:16Z</time>
      </trkpt>
      <trkpt lat="43.5298210" lon="-6.0476860">
        <ele>129.6</ele>
        <time>2021-07-21T07:32:17Z</time>
      </trkpt>
      <trkpt lat="43.5297340" lon="-6.0476960">
        <ele>129.2</ele>
        <time>2021-07-21T07:32:18Z</time>
      </trkpt>
      <trkpt lat="43.5296440" lon="-6.0477060">
        <ele>128.8</ele>
        <time>2021-07-21T07:32:19Z</time>
      </trkpt>
      <trkpt lat="43.5295580" lon="-6.0477190">
        <ele>128.2</ele>
        <time>2021-07-21T07:32:20Z</time>
      </trkpt>
      <trkpt lat="43.5294710" lon="-6.0477340">
        <ele>127.8</ele>
        <time>2021-07-21T07:32:21Z</time>
      </trkpt>
      <trkpt lat="43.5293870" lon="-6.0477600">
        <ele>127.2</ele>
        <time>2021-07-21T07:32:22Z</time>
      </trkpt>
      <trkpt lat="43.5293050" lon="-6.0477950">
        <ele>126.6</ele>
        <time>2021-07-21T07:32:23Z</time>
      </trkpt>
      <trkpt lat="43.5292270" lon="-6.0478410">
        <ele>126.0</ele>
        <time>2021-07-21T07:32:24Z</time>
      </trkpt>
      <trkpt lat="43.5291520" lon="-6.0479010">
        <ele>125.4</ele>
        <time>2021-07-21T07:32:25Z</time>
      </trkpt>
      <trkpt lat="43.5290800" lon="-6.0479710">
        <ele>124.8</ele>
        <time>2021-07-21T07:32:26Z</time>
      </trkpt>
      <trkpt lat="43.5290100" lon="-6.0480570">
        <ele>124.2</ele>
        <time>2021-07-21T07:32:27Z</time>
      </trkpt>
      <trkpt lat="43.5289500" lon="-6.0481490">
        <ele>123.6</ele>
        <time>2021-07-21T07:32:28Z</time>
      </trkpt>
      <trkpt lat="43.5288920" lon="-6.0482460">
        <ele>123.0</ele>
        <time>2021-07-21T07:32:29Z</time>
      </trkpt>
      <trkpt lat="43.5288360" lon="-6.0483450">
        <ele>122.6</ele>
        <time>2021-07-21T07:32:30Z</time>
      </trkpt>
      <trkpt lat="43.5287810" lon="-6.0484460">
        <ele>122.2</ele>
        <time>2021-07-21T07:32:31Z</time>
      </trkpt>
      <trkpt lat="43.5287260" lon="-6.0485460">
        <ele>121.6</ele>
        <time>2021-07-21T07:32:32Z</time>
      </trkpt>
      <trkpt lat="43.5286720" lon="-6.0486490">
        <ele>121.2</ele>
        <time>2021-07-21T07:32:33Z</time>
      </trkpt>
      <trkpt lat="43.5286200" lon="-6.0487510">
        <ele>120.6</ele>
        <time>2021-07-21T07:32:34Z</time>
      </trkpt>
      <trkpt lat="43.5285690" lon="-6.0488590">
        <ele>120.2</ele>
        <time>2021-07-21T07:32:35Z</time>
      </trkpt>
      <trkpt lat="43.5285220" lon="-6.0489590">
        <ele>119.6</ele>
        <time>2021-07-21T07:32:36Z</time>
      </trkpt>
      <trkpt lat="43.5284730" lon="-6.0490550">
        <ele>119.0</ele>
        <time>2021-07-21T07:32:37Z</time>
      </trkpt>
      <trkpt lat="43.5284230" lon="-6.0491510">
        <ele>118.6</ele>
        <time>2021-07-21T07:32:38Z</time>
      </trkpt>
      <trkpt lat="43.5283750" lon="-6.0492430">
        <ele>118.0</ele>
        <time>2021-07-21T07:32:39Z</time>
      </trkpt>
      <trkpt lat="43.5283290" lon="-6.0493320">
        <ele>117.4</ele>
        <time>2021-07-21T07:32:40Z</time>
      </trkpt>
      <trkpt lat="43.5282830" lon="-6.0494180">
        <ele>116.8</ele>
        <time>2021-07-21T07:32:41Z</time>
      </trkpt>
      <trkpt lat="43.5282380" lon="-6.0495030">
        <ele>116.2</ele>
        <time>2021-07-21T07:32:42Z</time>
      </trkpt>
      <trkpt lat="43.5281940" lon="-6.0495910">
        <ele>115.6</ele>
        <time>2021-07-21T07:32:43Z</time>
      </trkpt>
      <trkpt lat="43.5281520" lon="-6.0496820">
        <ele>115.0</ele>
        <time>2021-07-21T07:32:44Z</time>
      </trkpt>
      <trkpt lat="43.5281100" lon="-6.0497750">
        <ele>114.6</ele>
        <time>2021-07-21T07:32:45Z</time>
      </trkpt>
      <trkpt lat="43.5280700" lon="-6.0498730">
        <ele>114.0</ele>
        <time>2021-07-21T07:32:46Z</time>
      </trkpt>
      <trkpt lat="43.5280350" lon="-6.0499750">
        <ele>113.4</ele>
        <time>2021-07-21T07:32:47Z</time>
      </trkpt>
      <trkpt lat="43.5280050" lon="-6.0500810">
        <ele>113.4</ele>
        <time>2021-07-21T07:32:48Z</time>
      </trkpt>
      <trkpt lat="43.5279800" lon="-6.0501960">
        <ele>113.0</ele>
        <time>2021-07-21T07:32:49Z</time>
      </trkpt>
      <trkpt lat="43.5279610" lon="-6.0503090">
        <ele>112.4</ele>
        <time>2021-07-21T07:32:50Z</time>
      </trkpt>
      <trkpt lat="43.5279510" lon="-6.0504270">
        <ele>112.0</ele>
        <time>2021-07-21T07:32:51Z</time>
      </trkpt>
      <trkpt lat="43.5279480" lon="-6.0505460">
        <ele>111.6</ele>
        <time>2021-07-21T07:32:52Z</time>
      </trkpt>
      <trkpt lat="43.5279510" lon="-6.0506650">
        <ele>110.4</ele>
        <time>2021-07-21T07:32:53Z</time>
      </trkpt>
      <trkpt lat="43.5279570" lon="-6.0507830">
        <ele>110.0</ele>
        <time>2021-07-21T07:32:54Z</time>
      </trkpt>
      <trkpt lat="43.5279780" lon="-6.0509000">
        <ele>109.4</ele>
        <time>2021-07-21T07:32:55Z</time>
      </trkpt>
      <trkpt lat="43.5280080" lon="-6.0510140">
        <ele>109.0</ele>
        <time>2021-07-21T07:32:56Z</time>
      </trkpt>
      <trkpt lat="43.5280480" lon="-6.0511320">
        <ele>108.4</ele>
        <time>2021-07-21T07:32:57Z</time>
      </trkpt>
      <trkpt lat="43.5280900" lon="-6.0512420">
        <ele>108.0</ele>
        <time>2021-07-21T07:32:58Z</time>
      </trkpt>
      <trkpt lat="43.5281390" lon="-6.0513480">
        <ele>107.4</ele>
        <time>2021-07-21T07:32:59Z</time>
      </trkpt>
      <trkpt lat="43.5281930" lon="-6.0514490">
        <ele>107.0</ele>
        <time>2021-07-21T07:33:00Z</time>
      </trkpt>
      <trkpt lat="43.5282480" lon="-6.0515450">
        <ele>106.4</ele>
        <time>2021-07-21T07:33:01Z</time>
      </trkpt>
      <trkpt lat="43.5283040" lon="-6.0516340">
        <ele>106.0</ele>
        <time>2021-07-21T07:33:02Z</time>
      </trkpt>
      <trkpt lat="43.5283620" lon="-6.0517160">
        <ele>105.4</ele>
        <time>2021-07-21T07:33:03Z</time>
      </trkpt>
      <trkpt lat="43.5284220" lon="-6.0517930">
        <ele>105.0</ele>
        <time>2021-07-21T07:33:04Z</time>
      </trkpt>
      <trkpt lat="43.5284860" lon="-6.0518710">
        <ele>104.4</ele>
        <time>2021-07-21T07:33:05Z</time>
      </trkpt>
      <trkpt lat="43.5285480" lon="-6.0519480">
        <ele>104.0</ele>
        <time>2021-07-21T07:33:06Z</time>
      </trkpt>
      <trkpt lat="43.5286080" lon="-6.0520270">
        <ele>103.4</ele>
        <time>2021-07-21T07:33:07Z</time>
      </trkpt>
      <trkpt lat="43.5286680" lon="-6.0521050">
        <ele>102.8</ele>
        <time>2021-07-21T07:33:08Z</time>
      </trkpt>
      <trkpt lat="43.5287260" lon="-6.0521820">
        <ele>102.2</ele>
        <time>2021-07-21T07:33:09Z</time>
      </trkpt>
      <trkpt lat="43.5287860" lon="-6.0522590">
        <ele>101.6</ele>
        <time>2021-07-21T07:33:10Z</time>
      </trkpt>
      <trkpt lat="43.5289090" lon="-6.0524190">
        <ele>101.2</ele>
        <time>2021-07-21T07:33:12Z</time>
      </trkpt>
      <trkpt lat="43.5289750" lon="-6.0525060">
        <ele>100.8</ele>
        <time>2021-07-21T07:33:13Z</time>
      </trkpt>
      <trkpt lat="43.5290370" lon="-6.0525870">
        <ele>100.4</ele>
        <time>2021-07-21T07:33:14Z</time>
      </trkpt>
      <trkpt lat="43.5290980" lon="-6.0526650">
        <ele>99.8</ele>
        <time>2021-07-21T07:33:15Z</time>
      </trkpt>
      <trkpt lat="43.5291580" lon="-6.0527440">
        <ele>99.4</ele>
        <time>2021-07-21T07:33:16Z</time>
      </trkpt>
      <trkpt lat="43.5292170" lon="-6.0528200">
        <ele>99.0</ele>
        <time>2021-07-21T07:33:17Z</time>
      </trkpt>
      <trkpt lat="43.5292760" lon="-6.0528950">
        <ele>98.0</ele>
        <time>2021-07-21T07:33:18Z</time>
      </trkpt>
      <trkpt lat="43.5293320" lon="-6.0529670">
        <ele>97.6</ele>
        <time>2021-07-21T07:33:19Z</time>
      </trkpt>
      <trkpt lat="43.5293870" lon="-6.0530420">
        <ele>97.0</ele>
        <time>2021-07-21T07:33:20Z</time>
      </trkpt>
      <trkpt lat="43.5294410" lon="-6.0531140">
        <ele>96.6</ele>
        <time>2021-07-21T07:33:21Z</time>
      </trkpt>
      <trkpt lat="43.5294950" lon="-6.0531870">
        <ele>96.0</ele>
        <time>2021-07-21T07:33:22Z</time>
      </trkpt>
      <trkpt lat="43.5295500" lon="-6.0532610">
        <ele>95.6</ele>
        <time>2021-07-21T07:33:23Z</time>
      </trkpt>
      <trkpt lat="43.5296080" lon="-6.0533370">
        <ele>95.0</ele>
        <time>2021-07-21T07:33:24Z</time>
      </trkpt>
      <trkpt lat="43.5297840" lon="-6.0535730">
        <ele>94.6</ele>
        <time>2021-07-21T07:33:27Z</time>
      </trkpt>
      <trkpt lat="43.5298390" lon="-6.0536580">
        <ele>94.2</ele>
        <time>2021-07-21T07:33:28Z</time>
      </trkpt>
      <trkpt lat="43.5298930" lon="-6.0537480">
        <ele>93.8</ele>
        <time>2021-07-21T07:33:29Z</time>
      </trkpt>
      <trkpt lat="43.5299460" lon="-6.0538420">
        <ele>93.4</ele>
        <time>2021-07-21T07:33:30Z</time>
      </trkpt>
      <trkpt lat="43.5299960" lon="-6.0539440">
        <ele>93.0</ele>
        <time>2021-07-21T07:33:31Z</time>
      </trkpt>
      <trkpt lat="43.5300460" lon="-6.0540470">
        <ele>92.6</ele>
        <time>2021-07-21T07:33:32Z</time>
      </trkpt>
      <trkpt lat="43.5300940" lon="-6.0541560">
        <ele>92.0</ele>
        <time>2021-07-21T07:33:33Z</time>
      </trkpt>
      <trkpt lat="43.5301420" lon="-6.0542660">
        <ele>91.6</ele>
        <time>2021-07-21T07:33:34Z</time>
      </trkpt>
      <trkpt lat="43.5301880" lon="-6.0543840">
        <ele>91.2</ele>
        <time>2021-07-21T07:33:35Z</time>
      </trkpt>
      <trkpt lat="43.5302300" lon="-6.0544980">
        <ele>90.8</ele>
        <time>2021-07-21T07:33:36Z</time>
      </trkpt>
      <trkpt lat="43.5302700" lon="-6.0546130">
        <ele>90.4</ele>
        <time>2021-07-21T07:33:37Z</time>
      </trkpt>
      <trkpt lat="43.5303060" lon="-6.0547290">
        <ele>89.8</ele>
        <time>2021-07-21T07:33:38Z</time>
      </trkpt>
      <trkpt lat="43.5303380" lon="-6.0548480">
        <ele>89.4</ele>
        <time>2021-07-21T07:33:39Z</time>
      </trkpt>
      <trkpt lat="43.5303660" lon="-6.0549690">
        <ele>89.0</ele>
        <time>2021-07-21T07:33:40Z</time>
      </trkpt>
      <trkpt lat="43.5303930" lon="-6.0550910">
        <ele>88.6</ele>
        <time>2021-07-21T07:33:41Z</time>
      </trkpt>
      <trkpt lat="43.5304170" lon="-6.0552200">
        <ele>88.0</ele>
        <time>2021-07-21T07:33:42Z</time>
      </trkpt>
      <trkpt lat="43.5304370" lon="-6.0553460">
        <ele>87.0</ele>
        <time>2021-07-21T07:33:43Z</time>
      </trkpt>
      <trkpt lat="43.5304530" lon="-6.0554720">
        <ele>86.4</ele>
        <time>2021-07-21T07:33:44Z</time>
      </trkpt>
      <trkpt lat="43.5304880" lon="-6.0558550">
        <ele>86.0</ele>
        <time>2021-07-21T07:33:47Z</time>
      </trkpt>
      <trkpt lat="43.5304940" lon="-6.0559840">
        <ele>85.6</ele>
        <time>2021-07-21T07:33:48Z</time>
      </trkpt>
      <trkpt lat="43.5304970" lon="-6.0561120">
        <ele>85.0</ele>
        <time>2021-07-21T07:33:49Z</time>
      </trkpt>
      <trkpt lat="43.5304960" lon="-6.0562460">
        <ele>84.6</ele>
        <time>2021-07-21T07:33:50Z</time>
      </trkpt>
      <trkpt lat="43.5304920" lon="-6.0563760">
        <ele>84.2</ele>
        <time>2021-07-21T07:33:51Z</time>
      </trkpt>
      <trkpt lat="43.5304840" lon="-6.0565050">
        <ele>83.6</ele>
        <time>2021-07-21T07:33:52Z</time>
      </trkpt>
      <trkpt lat="43.5304720" lon="-6.0566330">
        <ele>83.2</ele>
        <time>2021-07-21T07:33:53Z</time>
      </trkpt>
      <trkpt lat="43.5304570" lon="-6.0567620">
        <ele>82.8</ele>
        <time>2021-07-21T07:33:54Z</time>
      </trkpt>
      <trkpt lat="43.5304400" lon="-6.0568950">
        <ele>82.4</ele>
        <time>2021-07-21T07:33:55Z</time>
      </trkpt>
      <trkpt lat="43.5304230" lon="-6.0570280">
        <ele>81.8</ele>
        <time>2021-07-21T07:33:56Z</time>
      </trkpt>
      <trkpt lat="43.5304060" lon="-6.0571610">
        <ele>81.4</ele>
        <time>2021-07-21T07:33:57Z</time>
      </trkpt>
      <trkpt lat="43.5303870" lon="-6.0572980">
        <ele>80.8</ele>
        <time>2021-07-21T07:33:58Z</time>
      </trkpt>
      <trkpt lat="43.5303680" lon="-6.0574270">
        <ele>80.2</ele>
        <time>2021-07-21T07:33:59Z</time>
      </trkpt>
      <trkpt lat="43.5303480" lon="-6.0575570">
        <ele>79.6</ele>
        <time>2021-07-21T07:34:00Z</time>
      </trkpt>
      <trkpt lat="43.5303290" lon="-6.0576870">
        <ele>79.2</ele>
        <time>2021-07-21T07:34:01Z</time>
      </trkpt>
      <trkpt lat="43.5303110" lon="-6.0578130">
        <ele>78.6</ele>
        <time>2021-07-21T07:34:02Z</time>
      </trkpt>
      <trkpt lat="43.5302950" lon="-6.0579450">
        <ele>78.0</ele>
        <time>2021-07-21T07:34:03Z</time>
      </trkpt>
      <trkpt lat="43.5302820" lon="-6.0580720">
        <ele>77.4</ele>
        <time>2021-07-21T07:34:04Z</time>
      </trkpt>
      <trkpt lat="43.5302730" lon="-6.0581960">
        <ele>76.8</ele>
        <time>2021-07-21T07:34:05Z</time>
      </trkpt>
      <trkpt lat="43.5302730" lon="-6.0583200">
        <ele>76.4</ele>
        <time>2021-07-21T07:34:06Z</time>
      </trkpt>
      <trkpt lat="43.5302780" lon="-6.0584350">
        <ele>75.6</ele>
        <time>2021-07-21T07:34:07Z</time>
      </trkpt>
      <trkpt lat="43.5302910" lon="-6.0585500">
        <ele>74.2</ele>
        <time>2021-07-21T07:34:08Z</time>
      </trkpt>
      <trkpt lat="43.5303100" lon="-6.0586630">
        <ele>73.4</ele>
        <time>2021-07-21T07:34:09Z</time>
      </trkpt>
      <trkpt lat="43.5303340" lon="-6.0587770">
        <ele>73.0</ele>
        <time>2021-07-21T07:34:10Z</time>
      </trkpt>
      <trkpt lat="43.5303630" lon="-6.0588900">
        <ele>72.4</ele>
        <time>2021-07-21T07:34:11Z</time>
      </trkpt>
      <trkpt lat="43.5303980" lon="-6.0589960">
        <ele>71.8</ele>
        <time>2021-07-21T07:34:12Z</time>
      </trkpt>
      <trkpt lat="43.5304440" lon="-6.0591040">
        <ele>71.2</ele>
        <time>2021-07-21T07:34:13Z</time>
      </trkpt>
      <trkpt lat="43.5304930" lon="-6.0592040">
        <ele>70.6</ele>
        <time>2021-07-21T07:34:14Z</time>
      </trkpt>
      <trkpt lat="43.5305480" lon="-6.0593000">
        <ele>70.2</ele>
        <time>2021-07-21T07:34:15Z</time>
      </trkpt>
      <trkpt lat="43.5306070" lon="-6.0593870">
        <ele>69.8</ele>
        <time>2021-07-21T07:34:16Z</time>
      </trkpt>
      <trkpt lat="43.5306790" lon="-6.0594660">
        <ele>69.2</ele>
        <time>2021-07-21T07:34:17Z</time>
      </trkpt>
      <trkpt lat="43.5307520" lon="-6.0595410">
        <ele>68.8</ele>
        <time>2021-07-21T07:34:18Z</time>
      </trkpt>
      <trkpt lat="43.5308260" lon="-6.0596100">
        <ele>68.2</ele>
        <time>2021-07-21T07:34:19Z</time>
      </trkpt>
      <trkpt lat="43.5309010" lon="-6.0596720">
        <ele>67.8</ele>
        <time>2021-07-21T07:34:20Z</time>
      </trkpt>
      <trkpt lat="43.5309810" lon="-6.0597310">
        <ele>67.2</ele>
        <time>2021-07-21T07:34:21Z</time>
      </trkpt>
      <trkpt lat="43.5310570" lon="-6.0597780">
        <ele>66.6</ele>
        <time>2021-07-21T07:34:22Z</time>
      </trkpt>
      <trkpt lat="43.5311370" lon="-6.0598180">
        <ele>66.2</ele>
        <time>2021-07-21T07:34:23Z</time>
      </trkpt>
      <trkpt lat="43.5312140" lon="-6.0598550">
        <ele>65.8</ele>
        <time>2021-07-21T07:34:24Z</time>
      </trkpt>
      <trkpt lat="43.5312910" lon="-6.0598910">
        <ele>65.2</ele>
        <time>2021-07-21T07:34:25Z</time>
      </trkpt>
      <trkpt lat="43.5313700" lon="-6.0599300">
        <ele>64.8</ele>
        <time>2021-07-21T07:34:26Z</time>
      </trkpt>
      <trkpt lat="43.5314490" lon="-6.0599710">
        <ele>64.4</ele>
        <time>2021-07-21T07:34:27Z</time>
      </trkpt>
      <trkpt lat="43.5315340" lon="-6.0600150">
        <ele>63.8</ele>
        <time>2021-07-21T07:34:28Z</time>
      </trkpt>
      <trkpt lat="43.5316160" lon="-6.0600590">
        <ele>63.4</ele>
        <time>2021-07-21T07:34:29Z</time>
      </trkpt>
      <trkpt lat="43.5316980" lon="-6.0601030">
        <ele>62.8</ele>
        <time>2021-07-21T07:34:30Z</time>
      </trkpt>
      <trkpt lat="43.5317820" lon="-6.0601480">
        <ele>62.2</ele>
        <time>2021-07-21T07:34:31Z</time>
      </trkpt>
      <trkpt lat="43.5318680" lon="-6.0601920">
        <ele>61.6</ele>
        <time>2021-07-21T07:34:32Z</time>
      </trkpt>
      <trkpt lat="43.5319540" lon="-6.0602360">
        <ele>61.2</ele>
        <time>2021-07-21T07:34:33Z</time>
      </trkpt>
      <trkpt lat="43.5320390" lon="-6.0602780">
        <ele>60.8</ele>
        <time>2021-07-21T07:34:34Z</time>
      </trkpt>
      <trkpt lat="43.5321220" lon="-6.0603190">
        <ele>60.4</ele>
        <time>2021-07-21T07:34:35Z</time>
      </trkpt>
      <trkpt lat="43.5322070" lon="-6.0603610">
        <ele>59.8</ele>
        <time>2021-07-21T07:34:36Z</time>
      </trkpt>
      <trkpt lat="43.5322850" lon="-6.0604020">
        <ele>59.4</ele>
        <time>2021-07-21T07:34:37Z</time>
      </trkpt>
      <trkpt lat="43.5323600" lon="-6.0604420">
        <ele>58.8</ele>
        <time>2021-07-21T07:34:38Z</time>
      </trkpt>
      <trkpt lat="43.5324300" lon="-6.0604790">
        <ele>58.2</ele>
        <time>2021-07-21T07:34:39Z</time>
      </trkpt>
      <trkpt lat="43.5324950" lon="-6.0605150">
        <ele>57.6</ele>
        <time>2021-07-21T07:34:40Z</time>
      </trkpt>
      <trkpt lat="43.5325570" lon="-6.0605480">
        <ele>57.0</ele>
        <time>2021-07-21T07:34:41Z</time>
      </trkpt>
      <trkpt lat="43.5326190" lon="-6.0605790">
        <ele>56.2</ele>
        <time>2021-07-21T07:34:42Z</time>
      </trkpt>
      <trkpt lat="43.5326820" lon="-6.0606130">
        <ele>55.6</ele>
        <time>2021-07-21T07:34:43Z</time>
      </trkpt>
      <trkpt lat="43.5327500" lon="-6.0606470">
        <ele>55.0</ele>
        <time>2021-07-21T07:34:44Z</time>
      </trkpt>
      <trkpt lat="43.5328150" lon="-6.0606830">
        <ele>54.4</ele>
        <time>2021-07-21T07:34:45Z</time>
      </trkpt>
      <trkpt lat="43.5328810" lon="-6.0607210">
        <ele>54.0</ele>
        <time>2021-07-21T07:34:46Z</time>
      </trkpt>
      <trkpt lat="43.5329440" lon="-6.0607630">
        <ele>53.4</ele>
        <time>2021-07-21T07:34:47Z</time>
      </trkpt>
      <trkpt lat="43.5330080" lon="-6.0608060">
        <ele>52.8</ele>
        <time>2021-07-21T07:34:48Z</time>
      </trkpt>
      <trkpt lat="43.5332030" lon="-6.0609580">
        <ele>52.2</ele>
        <time>2021-07-21T07:34:51Z</time>
      </trkpt>
      <trkpt lat="43.5332660" lon="-6.0610080">
        <ele>51.8</ele>
        <time>2021-07-21T07:34:52Z</time>
      </trkpt>
      <trkpt lat="43.5333300" lon="-6.0610610">
        <ele>51.4</ele>
        <time>2021-07-21T07:34:53Z</time>
      </trkpt>
      <trkpt lat="43.5333900" lon="-6.0611180">
        <ele>51.0</ele>
        <time>2021-07-21T07:34:54Z</time>
      </trkpt>
      <trkpt lat="43.5334460" lon="-6.0611770">
        <ele>50.4</ele>
        <time>2021-07-21T07:34:55Z</time>
      </trkpt>
      <trkpt lat="43.5335480" lon="-6.0613140">
        <ele>49.6</ele>
        <time>2021-07-21T07:34:57Z</time>
      </trkpt>
      <trkpt lat="43.5336010" lon="-6.0613900">
        <ele>49.2</ele>
        <time>2021-07-21T07:34:58Z</time>
      </trkpt>
      <trkpt lat="43.5336610" lon="-6.0614720">
        <ele>48.8</ele>
        <time>2021-07-21T07:34:59Z</time>
      </trkpt>
      <trkpt lat="43.5337180" lon="-6.0615560">
        <ele>48.2</ele>
        <time>2021-07-21T07:35:00Z</time>
      </trkpt>
      <trkpt lat="43.5338750" lon="-6.0618370">
        <ele>47.8</ele>
        <time>2021-07-21T07:35:03Z</time>
      </trkpt>
      <trkpt lat="43.5339230" lon="-6.0619400">
        <ele>47.4</ele>
        <time>2021-07-21T07:35:04Z</time>
      </trkpt>
      <trkpt lat="43.5339660" lon="-6.0620460">
        <ele>46.8</ele>
        <time>2021-07-21T07:35:05Z</time>
      </trkpt>
      <trkpt lat="43.5340100" lon="-6.0621590">
        <ele>46.4</ele>
        <time>2021-07-21T07:35:06Z</time>
      </trkpt>
      <trkpt lat="43.5340490" lon="-6.0622700">
        <ele>46.0</ele>
        <time>2021-07-21T07:35:07Z</time>
      </trkpt>
      <trkpt lat="43.5340850" lon="-6.0623800">
        <ele>45.6</ele>
        <time>2021-07-21T07:35:08Z</time>
      </trkpt>
      <trkpt lat="43.5341190" lon="-6.0624900">
        <ele>45.2</ele>
        <time>2021-07-21T07:35:09Z</time>
      </trkpt>
      <trkpt lat="43.5341490" lon="-6.0626000">
        <ele>44.8</ele>
        <time>2021-07-21T07:35:10Z</time>
      </trkpt>
      <trkpt lat="43.5341760" lon="-6.0627130">
        <ele>44.2</ele>
        <time>2021-07-21T07:35:11Z</time>
      </trkpt>
      <trkpt lat="43.5341990" lon="-6.0628290">
        <ele>43.8</ele>
        <time>2021-07-21T07:35:12Z</time>
      </trkpt>
      <trkpt lat="43.5342190" lon="-6.0629450">
        <ele>43.4</ele>
        <time>2021-07-21T07:35:13Z</time>
      </trkpt>
      <trkpt lat="43.5342360" lon="-6.0630660">
        <ele>43.0</ele>
        <time>2021-07-21T07:35:14Z</time>
      </trkpt>
      <trkpt lat="43.5342470" lon="-6.0631780">
        <ele>42.6</ele>
        <time>2021-07-21T07:35:15Z</time>
      </trkpt>
      <trkpt lat="43.5342550" lon="-6.0632880">
        <ele>42.2</ele>
        <time>2021-07-21T07:35:16Z</time>
      </trkpt>
      <trkpt lat="43.5342610" lon="-6.0633970">
        <ele>41.8</ele>
        <time>2021-07-21T07:35:17Z</time>
      </trkpt>
      <trkpt lat="43.5342650" lon="-6.0637220">
        <ele>41.4</ele>
        <time>2021-07-21T07:35:20Z</time>
      </trkpt>
      <trkpt lat="43.5342610" lon="-6.0638300">
        <ele>41.0</ele>
        <time>2021-07-21T07:35:21Z</time>
      </trkpt>
      <trkpt lat="43.5342530" lon="-6.0639410">
        <ele>40.2</ele>
        <time>2021-07-21T07:35:22Z</time>
      </trkpt>
      <trkpt lat="43.5342440" lon="-6.0640480">
        <ele>39.8</ele>
        <time>2021-07-21T07:35:23Z</time>
      </trkpt>
      <trkpt lat="43.5341750" lon="-6.0644790">
        <ele>39.8</ele>
        <time>2021-07-21T07:35:27Z</time>
      </trkpt>
      <trkpt lat="43.5341260" lon="-6.0647040">
        <ele>39.4</ele>
        <time>2021-07-21T07:35:29Z</time>
      </trkpt>
      <trkpt lat="43.5341040" lon="-6.0648180">
        <ele>39.0</ele>
        <time>2021-07-21T07:35:30Z</time>
      </trkpt>
      <trkpt lat="43.5340830" lon="-6.0649330">
        <ele>38.6</ele>
        <time>2021-07-21T07:35:31Z</time>
      </trkpt>
      <trkpt lat="43.5340650" lon="-6.0650460">
        <ele>38.2</ele>
        <time>2021-07-21T07:35:32Z</time>
      </trkpt>
      <trkpt lat="43.5340510" lon="-6.0651580">
        <ele>37.6</ele>
        <time>2021-07-21T07:35:33Z</time>
      </trkpt>
      <trkpt lat="43.5340380" lon="-6.0652720">
        <ele>37.2</ele>
        <time>2021-07-21T07:35:34Z</time>
      </trkpt>
      <trkpt lat="43.5340250" lon="-6.0653870">
        <ele>36.6</ele>
        <time>2021-07-21T07:35:35Z</time>
      </trkpt>
      <trkpt lat="43.5340160" lon="-6.0655050">
        <ele>36.0</ele>
        <time>2021-07-21T07:35:36Z</time>
      </trkpt>
      <trkpt lat="43.5340120" lon="-6.0656300">
        <ele>35.6</ele>
        <time>2021-07-21T07:35:37Z</time>
      </trkpt>
      <trkpt lat="43.5340150" lon="-6.0657510">
        <ele>35.0</ele>
        <time>2021-07-21T07:35:38Z</time>
      </trkpt>
      <trkpt lat="43.5340260" lon="-6.0658760">
        <ele>34.6</ele>
        <time>2021-07-21T07:35:39Z</time>
      </trkpt>
      <trkpt lat="43.5340430" lon="-6.0660010">
        <ele>34.2</ele>
        <time>2021-07-21T07:35:40Z</time>
      </trkpt>
      <trkpt lat="43.5340640" lon="-6.0661270">
        <ele>33.8</ele>
        <time>2021-07-21T07:35:41Z</time>
      </trkpt>
      <trkpt lat="43.5340860" lon="-6.0662460">
        <ele>33.2</ele>
        <time>2021-07-21T07:35:42Z</time>
      </trkpt>
      <trkpt lat="43.5341360" lon="-6.0664700">
        <ele>32.8</ele>
        <time>2021-07-21T07:35:44Z</time>
      </trkpt>
      <trkpt lat="43.5341580" lon="-6.0665710">
        <ele>32.2</ele>
        <time>2021-07-21T07:35:45Z</time>
      </trkpt>
      <trkpt lat="43.5341780" lon="-6.0666710">
        <ele>31.2</ele>
        <time>2021-07-21T07:35:46Z</time>
      </trkpt>
      <trkpt lat="43.5341960" lon="-6.0667700">
        <ele>30.6</ele>
        <time>2021-07-21T07:35:47Z</time>
      </trkpt>
      <trkpt lat="43.5342140" lon="-6.0668720">
        <ele>30.2</ele>
        <time>2021-07-21T07:35:48Z</time>
      </trkpt>
      <trkpt lat="43.5342340" lon="-6.0669700">
        <ele>29.6</ele>
        <time>2021-07-21T07:35:49Z</time>
      </trkpt>
      <trkpt lat="43.5342530" lon="-6.0670640">
        <ele>29.0</ele>
        <time>2021-07-21T07:35:50Z</time>
      </trkpt>
      <trkpt lat="43.5342720" lon="-6.0671590">
        <ele>28.6</ele>
        <time>2021-07-21T07:35:51Z</time>
      </trkpt>
      <trkpt lat="43.5342890" lon="-6.0672460">
        <ele>28.6</ele>
        <time>2021-07-21T07:35:52Z</time>
      </trkpt>
      <trkpt lat="43.5343630" lon="-6.0677120">
        <ele>28.6</ele>
        <time>2021-07-21T07:35:58Z</time>
      </trkpt>
      <trkpt lat="43.5343800" lon="-6.0681360">
        <ele>28.6</ele>
        <time>2021-07-21T07:36:05Z</time>
      </trkpt>
      <trkpt lat="43.5343600" lon="-6.0684540">
        <ele>28.0</ele>
        <time>2021-07-21T07:36:11Z</time>
      </trkpt>
      <trkpt lat="43.5343540" lon="-6.0685050">
        <ele>27.6</ele>
        <time>2021-07-21T07:36:12Z</time>
      </trkpt>
      <trkpt lat="43.5343480" lon="-6.0685590">
        <ele>27.2</ele>
        <time>2021-07-21T07:36:13Z</time>
      </trkpt>
      <trkpt lat="43.5343400" lon="-6.0686130">
        <ele>26.8</ele>
        <time>2021-07-21T07:36:14Z</time>
      </trkpt>
      <trkpt lat="43.5343340" lon="-6.0686700">
        <ele>26.4</ele>
        <time>2021-07-21T07:36:15Z</time>
      </trkpt>
      <trkpt lat="43.5343220" lon="-6.0687800">
        <ele>26.4</ele>
        <time>2021-07-21T07:36:17Z</time>
      </trkpt>
      <trkpt lat="43.5343110" lon="-6.0688870">
        <ele>26.4</ele>
        <time>2021-07-21T07:36:19Z</time>
      </trkpt>
      <trkpt lat="43.5342890" lon="-6.0693060">
        <ele>26.4</ele>
        <time>2021-07-21T07:36:27Z</time>
      </trkpt>
      <trkpt lat="43.5343220" lon="-6.0694330">
        <ele>26.4</ele>
        <time>2021-07-21T07:36:30Z</time>
      </trkpt>
      <trkpt lat="43.5343260" lon="-6.0694770">
        <ele>26.4</ele>
        <time>2021-07-21T07:36:31Z</time>
      </trkpt>
      <trkpt lat="43.5343070" lon="-6.0696420">
        <ele>26.4</ele>
        <time>2021-07-21T07:36:35Z</time>
      </trkpt>
      <trkpt lat="43.5342910" lon="-6.0697670">
        <ele>26.4</ele>
        <time>2021-07-21T07:36:38Z</time>
      </trkpt>
      <trkpt lat="43.5342790" lon="-6.0698620">
        <ele>26.4</ele>
        <time>2021-07-21T07:36:40Z</time>
      </trkpt>
      <trkpt lat="43.5342590" lon="-6.0701690">
        <ele>26.4</ele>
        <time>2021-07-21T07:36:47Z</time>
      </trkpt>
      <trkpt lat="43.5342960" lon="-6.0704110">
        <ele>26.4</ele>
        <time>2021-07-21T07:36:53Z</time>
      </trkpt>
      <trkpt lat="43.5343340" lon="-6.0704650">
        <ele>26.4</ele>
        <time>2021-07-21T07:36:55Z</time>
      </trkpt>
      <trkpt lat="43.5344170" lon="-6.0705200">
        <ele>26.4</ele>
        <time>2021-07-21T07:36:58Z</time>
      </trkpt>
      <trkpt lat="43.5344750" lon="-6.0705560">
        <ele>26.4</ele>
        <time>2021-07-21T07:37:02Z</time>
      </trkpt>
      <trkpt lat="43.5344810" lon="-6.0705870">
        <ele>24.4</ele>
        <time>2021-07-21T07:40:17Z</time>
      </trkpt>
      <trkpt lat="43.5344950" lon="-6.0706660">
        <ele>24.4</ele>
        <time>2021-07-21T07:40:20Z</time>
      </trkpt>
      <trkpt lat="43.5344980" lon="-6.0707530">
        <ele>24.4</ele>
        <time>2021-07-21T07:40:22Z</time>
      </trkpt>
      <trkpt lat="43.5344930" lon="-6.0708930">
        <ele>24.4</ele>
        <time>2021-07-21T07:40:25Z</time>
      </trkpt>
      <trkpt lat="43.5344860" lon="-6.0709360">
        <ele>24.4</ele>
        <time>2021-07-21T07:40:26Z</time>
      </trkpt>
      <trkpt lat="43.5344720" lon="-6.0710230">
        <ele>24.4</ele>
        <time>2021-07-21T07:40:28Z</time>
      </trkpt>
      <trkpt lat="43.5344500" lon="-6.0712450">
        <ele>24.4</ele>
        <time>2021-07-21T07:40:33Z</time>
      </trkpt>
      <trkpt lat="43.5344810" lon="-6.0713530">
        <ele>24.4</ele>
        <time>2021-07-21T07:40:35Z</time>
      </trkpt>
      <trkpt lat="43.5345150" lon="-6.0714150">
        <ele>24.4</ele>
        <time>2021-07-21T07:40:36Z</time>
      </trkpt>
      <trkpt lat="43.5345610" lon="-6.0714770">
        <ele>24.4</ele>
        <time>2021-07-21T07:40:37Z</time>
      </trkpt>
      <trkpt lat="43.5347210" lon="-6.0716580">
        <ele>24.4</ele>
        <time>2021-07-21T07:40:40Z</time>
      </trkpt>
      <trkpt lat="43.5348410" lon="-6.0717910">
        <ele>24.4</ele>
        <time>2021-07-21T07:40:42Z</time>
      </trkpt>
      <trkpt lat="43.5349630" lon="-6.0719230">
        <ele>24.0</ele>
        <time>2021-07-21T07:40:44Z</time>
      </trkpt>
      <trkpt lat="43.5350270" lon="-6.0719920">
        <ele>23.6</ele>
        <time>2021-07-21T07:40:45Z</time>
      </trkpt>
      <trkpt lat="43.5350880" lon="-6.0720580">
        <ele>23.2</ele>
        <time>2021-07-21T07:40:46Z</time>
      </trkpt>
      <trkpt lat="43.5351480" lon="-6.0721230">
        <ele>22.8</ele>
        <time>2021-07-21T07:40:47Z</time>
      </trkpt>
      <trkpt lat="43.5352030" lon="-6.0721850">
        <ele>22.4</ele>
        <time>2021-07-21T07:40:48Z</time>
      </trkpt>
      <trkpt lat="43.5353130" lon="-6.0723070">
        <ele>22.4</ele>
        <time>2021-07-21T07:40:50Z</time>
      </trkpt>
      <trkpt lat="43.5354080" lon="-6.0724270">
        <ele>21.8</ele>
        <time>2021-07-21T07:40:52Z</time>
      </trkpt>
      <trkpt lat="43.5354490" lon="-6.0724850">
        <ele>21.4</ele>
        <time>2021-07-21T07:40:53Z</time>
      </trkpt>
      <trkpt lat="43.5354880" lon="-6.0725450">
        <ele>21.0</ele>
        <time>2021-07-21T07:40:54Z</time>
      </trkpt>
      <trkpt lat="43.5355250" lon="-6.0726070">
        <ele>20.6</ele>
        <time>2021-07-21T07:40:55Z</time>
      </trkpt>
      <trkpt lat="43.5355580" lon="-6.0726700">
        <ele>20.2</ele>
        <time>2021-07-21T07:40:56Z</time>
      </trkpt>
      <trkpt lat="43.5357330" lon="-6.0731500">
        <ele>20.2</ele>
        <time>2021-07-21T07:41:03Z</time>
      </trkpt>
      <trkpt lat="43.5357570" lon="-6.0733770">
        <ele>19.8</ele>
        <time>2021-07-21T07:41:06Z</time>
      </trkpt>
      <trkpt lat="43.5357600" lon="-6.0734550">
        <ele>19.4</ele>
        <time>2021-07-21T07:41:07Z</time>
      </trkpt>
      <trkpt lat="43.5357620" lon="-6.0735280">
        <ele>18.6</ele>
        <time>2021-07-21T07:41:08Z</time>
      </trkpt>
      <trkpt lat="43.5357610" lon="-6.0735990">
        <ele>18.2</ele>
        <time>2021-07-21T07:41:09Z</time>
      </trkpt>
      <trkpt lat="43.5357250" lon="-6.0738700">
        <ele>17.8</ele>
        <time>2021-07-21T07:41:13Z</time>
      </trkpt>
      <trkpt lat="43.5357110" lon="-6.0739400">
        <ele>17.4</ele>
        <time>2021-07-21T07:41:14Z</time>
      </trkpt>
      <trkpt lat="43.5356960" lon="-6.0740060">
        <ele>17.0</ele>
        <time>2021-07-21T07:41:15Z</time>
      </trkpt>
      <trkpt lat="43.5356790" lon="-6.0740720">
        <ele>16.4</ele>
        <time>2021-07-21T07:41:16Z</time>
      </trkpt>
      <trkpt lat="43.5356630" lon="-6.0741340">
        <ele>16.0</ele>
        <time>2021-07-21T07:41:17Z</time>
      </trkpt>
      <trkpt lat="43.5356140" lon="-6.0743140">
        <ele>15.6</ele>
        <time>2021-07-21T07:41:20Z</time>
      </trkpt>
      <trkpt lat="43.5355960" lon="-6.0743760">
        <ele>15.2</ele>
        <time>2021-07-21T07:41:21Z</time>
      </trkpt>
      <trkpt lat="43.5355770" lon="-6.0744450">
        <ele>14.8</ele>
        <time>2021-07-21T07:41:22Z</time>
      </trkpt>
      <trkpt lat="43.5355590" lon="-6.0745130">
        <ele>14.4</ele>
        <time>2021-07-21T07:41:23Z</time>
      </trkpt>
      <trkpt lat="43.5355400" lon="-6.0745840">
        <ele>13.8</ele>
        <time>2021-07-21T07:41:24Z</time>
      </trkpt>
      <trkpt lat="43.5354850" lon="-6.0747700">
        <ele>13.4</ele>
        <time>2021-07-21T07:41:27Z</time>
      </trkpt>
      <trkpt lat="43.5354670" lon="-6.0748230">
        <ele>13.0</ele>
        <time>2021-07-21T07:41:28Z</time>
      </trkpt>
      <trkpt lat="43.5354480" lon="-6.0748780">
        <ele>12.6</ele>
        <time>2021-07-21T07:41:29Z</time>
      </trkpt>
      <trkpt lat="43.5354300" lon="-6.0749360">
        <ele>12.2</ele>
        <time>2021-07-21T07:41:30Z</time>
      </trkpt>
      <trkpt lat="43.5354100" lon="-6.0749990">
        <ele>11.8</ele>
        <time>2021-07-21T07:41:31Z</time>
      </trkpt>
      <trkpt lat="43.5353430" lon="-6.0752170">
        <ele>11.4</ele>
        <time>2021-07-21T07:41:34Z</time>
      </trkpt>
      <trkpt lat="43.5353200" lon="-6.0752890">
        <ele>11.0</ele>
        <time>2021-07-21T07:41:35Z</time>
      </trkpt>
      <trkpt lat="43.5352940" lon="-6.0753640">
        <ele>10.6</ele>
        <time>2021-07-21T07:41:36Z</time>
      </trkpt>
      <trkpt lat="43.5352710" lon="-6.0754370">
        <ele>10.0</ele>
        <time>2021-07-21T07:41:37Z</time>
      </trkpt>
      <trkpt lat="43.5352480" lon="-6.0755110">
        <ele>9.6</ele>
        <time>2021-07-21T07:41:38Z</time>
      </trkpt>
      <trkpt lat="43.5351980" lon="-6.0756720">
        <ele>9.2</ele>
        <time>2021-07-21T07:41:40Z</time>
      </trkpt>
      <trkpt lat="43.5351720" lon="-6.0757560">
        <ele>8.8</ele>
        <time>2021-07-21T07:41:41Z</time>
      </trkpt>
      <trkpt lat="43.5351450" lon="-6.0758400">
        <ele>8.4</ele>
        <time>2021-07-21T07:41:42Z</time>
      </trkpt>
      <trkpt lat="43.5351170" lon="-6.0759310">
        <ele>8.0</ele>
        <time>2021-07-21T07:41:43Z</time>
      </trkpt>
      <trkpt lat="43.5350880" lon="-6.0760180">
        <ele>7.4</ele>
        <time>2021-07-21T07:41:44Z</time>
      </trkpt>
      <trkpt lat="43.5350610" lon="-6.0761070">
        <ele>7.0</ele>
        <time>2021-07-21T07:41:45Z</time>
      </trkpt>
      <trkpt lat="43.5350350" lon="-6.0761970">
        <ele>6.6</ele>
        <time>2021-07-21T07:41:46Z</time>
      </trkpt>
      <trkpt lat="43.5350080" lon="-6.0762850">
        <ele>6.2</ele>
        <time>2021-07-21T07:41:47Z</time>
      </trkpt>
      <trkpt lat="43.5349820" lon="-6.0763680">
        <ele>5.6</ele>
        <time>2021-07-21T07:41:48Z</time>
      </trkpt>
      <trkpt lat="43.5349560" lon="-6.0764500">
        <ele>5.2</ele>
        <time>2021-07-21T07:41:49Z</time>
      </trkpt>
      <trkpt lat="43.5349320" lon="-6.0765280">
        <ele>4.8</ele>
        <time>2021-07-21T07:41:50Z</time>
      </trkpt>
      <trkpt lat="43.5349080" lon="-6.0766090">
        <ele>4.2</ele>
        <time>2021-07-21T07:41:51Z</time>
      </trkpt>
      <trkpt lat="43.5348850" lon="-6.0766870">
        <ele>3.8</ele>
        <time>2021-07-21T07:41:52Z</time>
      </trkpt>
      <trkpt lat="43.5348600" lon="-6.0767660">
        <ele>3.4</ele>
        <time>2021-07-21T07:41:53Z</time>
      </trkpt>
      <trkpt lat="43.5348330" lon="-6.0768470">
        <ele>2.8</ele>
        <time>2021-07-21T07:41:54Z</time>
      </trkpt>
      <trkpt lat="43.5348040" lon="-6.0769330">
        <ele>2.4</ele>
        <time>2021-07-21T07:41:55Z</time>
      </trkpt>
      <trkpt lat="43.5347720" lon="-6.0770280">
        <ele>1.8</ele>
        <time>2021-07-21T07:41:56Z</time>
      </trkpt>
      <trkpt lat="43.5347400" lon="-6.0771260">
        <ele>1.2</ele>
        <time>2021-07-21T07:41:57Z</time>
      </trkpt>
      <trkpt lat="43.5347120" lon="-6.0772230">
        <ele>0.8</ele>
        <time>2021-07-21T07:41:58Z</time>
      </trkpt>
      <trkpt lat="43.5346840" lon="-6.0773250">
        <ele>0.4</ele>
        <time>2021-07-21T07:41:59Z</time>
      </trkpt>
      <trkpt lat="43.5346630" lon="-6.0774260">
        <ele>-0.2</ele>
        <time>2021-07-21T07:42:00Z</time>
      </trkpt>
      <trkpt lat="43.5346470" lon="-6.0775310">
        <ele>-0.6</ele>
        <time>2021-07-21T07:42:01Z</time>
      </trkpt>
      <trkpt lat="43.5346350" lon="-6.0776370">
        <ele>-1.0</ele>
        <time>2021-07-21T07:42:02Z</time>
      </trkpt>
      <trkpt lat="43.5346240" lon="-6.0777390">
        <ele>-1.4</ele>
        <time>2021-07-21T07:42:03Z</time>
      </trkpt>
      <trkpt lat="43.5346150" lon="-6.0778390">
        <ele>-2.0</ele>
        <time>2021-07-21T07:42:04Z</time>
      </trkpt>
      <trkpt lat="43.5346090" lon="-6.0779380">
        <ele>-2.4</ele>
        <time>2021-07-21T07:42:05Z</time>
      </trkpt>
      <trkpt lat="43.5346070" lon="-6.0780390">
        <ele>-3.0</ele>
        <time>2021-07-21T07:42:06Z</time>
      </trkpt>
      <trkpt lat="43.5346070" lon="-6.0781340">
        <ele>-3.6</ele>
        <time>2021-07-21T07:42:07Z</time>
      </trkpt>
      <trkpt lat="43.5346070" lon="-6.0782280">
        <ele>-4.2</ele>
        <time>2021-07-21T07:42:08Z</time>
      </trkpt>
      <trkpt lat="43.5346090" lon="-6.0783210">
        <ele>-4.8</ele>
        <time>2021-07-21T07:42:09Z</time>
      </trkpt>
      <trkpt lat="43.5346140" lon="-6.0784090">
        <ele>-5.2</ele>
        <time>2021-07-21T07:42:10Z</time>
      </trkpt>
      <trkpt lat="43.5346170" lon="-6.0785030">
        <ele>-5.8</ele>
        <time>2021-07-21T07:42:11Z</time>
      </trkpt>
      <trkpt lat="43.5346210" lon="-6.0786030">
        <ele>-6.4</ele>
        <time>2021-07-21T07:42:12Z</time>
      </trkpt>
      <trkpt lat="43.5346260" lon="-6.0787100">
        <ele>-6.8</ele>
        <time>2021-07-21T07:42:13Z</time>
      </trkpt>
      <trkpt lat="43.5346300" lon="-6.0788130">
        <ele>-7.4</ele>
        <time>2021-07-21T07:42:14Z</time>
      </trkpt>
      <trkpt lat="43.5346300" lon="-6.0789160">
        <ele>-7.8</ele>
        <time>2021-07-21T07:42:15Z</time>
      </trkpt>
      <trkpt lat="43.5346330" lon="-6.0790180">
        <ele>-8.2</ele>
        <time>2021-07-21T07:42:16Z</time>
      </trkpt>
      <trkpt lat="43.5346370" lon="-6.0791190">
        <ele>-8.8</ele>
        <time>2021-07-21T07:42:17Z</time>
      </trkpt>
      <trkpt lat="43.5346400" lon="-6.0792190">
        <ele>-9.2</ele>
        <time>2021-07-21T07:42:18Z</time>
      </trkpt>
      <trkpt lat="43.5346430" lon="-6.0793220">
        <ele>-9.8</ele>
        <time>2021-07-21T07:42:19Z</time>
      </trkpt>
      <trkpt lat="43.5346450" lon="-6.0794250">
        <ele>-10.2</ele>
        <time>2021-07-21T07:42:20Z</time>
      </trkpt>
      <trkpt lat="43.5346490" lon="-6.0795300">
        <ele>-10.8</ele>
        <time>2021-07-21T07:42:21Z</time>
      </trkpt>
      <trkpt lat="43.5346560" lon="-6.0796290">
        <ele>-11.8</ele>
        <time>2021-07-21T07:42:22Z</time>
      </trkpt>
      <trkpt lat="43.5346630" lon="-6.0797260">
        <ele>-12.2</ele>
        <time>2021-07-21T07:42:23Z</time>
      </trkpt>
      <trkpt lat="43.5346690" lon="-6.0798170">
        <ele>-13.0</ele>
        <time>2021-07-21T07:42:24Z</time>
      </trkpt>
      <trkpt lat="43.5346710" lon="-6.0799030">
        <ele>-13.6</ele>
        <time>2021-07-21T07:42:25Z</time>
      </trkpt>
      <trkpt lat="43.5346740" lon="-6.0799910">
        <ele>-14.2</ele>
        <time>2021-07-21T07:42:26Z</time>
      </trkpt>
      <trkpt lat="43.5346800" lon="-6.0800810">
        <ele>-14.8</ele>
        <time>2021-07-21T07:42:27Z</time>
      </trkpt>
      <trkpt lat="43.5346860" lon="-6.0801760">
        <ele>-15.4</ele>
        <time>2021-07-21T07:42:28Z</time>
      </trkpt>
      <trkpt lat="43.5346960" lon="-6.0802660">
        <ele>-15.8</ele>
        <time>2021-07-21T07:42:29Z</time>
      </trkpt>
      <trkpt lat="43.5347100" lon="-6.0803580">
        <ele>-16.4</ele>
        <time>2021-07-21T07:42:30Z</time>
      </trkpt>
      <trkpt lat="43.5347260" lon="-6.0804480">
        <ele>-17.0</ele>
        <time>2021-07-21T07:42:31Z</time>
      </trkpt>
      <trkpt lat="43.5347450" lon="-6.0805360">
        <ele>-17.4</ele>
        <time>2021-07-21T07:42:32Z</time>
      </trkpt>
      <trkpt lat="43.5347680" lon="-6.0806190">
        <ele>-17.8</ele>
        <time>2021-07-21T07:42:33Z</time>
      </trkpt>
      <trkpt lat="43.5347960" lon="-6.0806990">
        <ele>-18.2</ele>
        <time>2021-07-21T07:42:34Z</time>
      </trkpt>
      <trkpt lat="43.5348280" lon="-6.0807780">
        <ele>-18.6</ele>
        <time>2021-07-21T07:42:35Z</time>
      </trkpt>
      <trkpt lat="43.5348660" lon="-6.0808600">
        <ele>-19.2</ele>
        <time>2021-07-21T07:42:36Z</time>
      </trkpt>
      <trkpt lat="43.5349040" lon="-6.0809330">
        <ele>-19.6</ele>
        <time>2021-07-21T07:42:37Z</time>
      </trkpt>
      <trkpt lat="43.5349940" lon="-6.0810710">
        <ele>-20.0</ele>
        <time>2021-07-21T07:42:39Z</time>
      </trkpt>
      <trkpt lat="43.5350460" lon="-6.0811320">
        <ele>-20.4</ele>
        <time>2021-07-21T07:42:40Z</time>
      </trkpt>
      <trkpt lat="43.5350980" lon="-6.0811880">
        <ele>-20.8</ele>
        <time>2021-07-21T07:42:41Z</time>
      </trkpt>
      <trkpt lat="43.5351540" lon="-6.0812430">
        <ele>-21.2</ele>
        <time>2021-07-21T07:42:42Z</time>
      </trkpt>
      <trkpt lat="43.5352150" lon="-6.0812950">
        <ele>-21.6</ele>
        <time>2021-07-21T07:42:43Z</time>
      </trkpt>
      <trkpt lat="43.5354430" lon="-6.0814380">
        <ele>-21.6</ele>
        <time>2021-07-21T07:42:47Z</time>
      </trkpt>
      <trkpt lat="43.5357400" lon="-6.0815320">
        <ele>-21.6</ele>
        <time>2021-07-21T07:42:53Z</time>
      </trkpt>
      <trkpt lat="43.5359060" lon="-6.0815450">
        <ele>-21.6</ele>
        <time>2021-07-21T07:42:57Z</time>
      </trkpt>
      <trkpt lat="43.5359950" lon="-6.0815620">
        <ele>-21.6</ele>
        <time>2021-07-21T07:42:59Z</time>
      </trkpt>
      <trkpt lat="43.5360860" lon="-6.0815830">
        <ele>-21.6</ele>
        <time>2021-07-21T07:43:01Z</time>
      </trkpt>
      <trkpt lat="43.5361320" lon="-6.0815930">
        <ele>-21.6</ele>
        <time>2021-07-21T07:43:02Z</time>
      </trkpt>
      <trkpt lat="43.5361800" lon="-6.0816010">
        <ele>-21.6</ele>
        <time>2021-07-21T07:43:03Z</time>
      </trkpt>
      <trkpt lat="43.5363290" lon="-6.0816320">
        <ele>-21.6</ele>
        <time>2021-07-21T07:43:06Z</time>
      </trkpt>
      <trkpt lat="43.5363780" lon="-6.0816390">
        <ele>-22.0</ele>
        <time>2021-07-21T07:43:07Z</time>
      </trkpt>
      <trkpt lat="43.5364270" lon="-6.0816490">
        <ele>-22.4</ele>
        <time>2021-07-21T07:43:08Z</time>
      </trkpt>
      <trkpt lat="43.5364750" lon="-6.0816590">
        <ele>-22.8</ele>
        <time>2021-07-21T07:43:09Z</time>
      </trkpt>
      <trkpt lat="43.5365250" lon="-6.0816710">
        <ele>-23.2</ele>
        <time>2021-07-21T07:43:10Z</time>
      </trkpt>
      <trkpt lat="43.5365740" lon="-6.0816830">
        <ele>-23.6</ele>
        <time>2021-07-21T07:43:11Z</time>
      </trkpt>
      <trkpt lat="43.5368230" lon="-6.0817370">
        <ele>-23.6</ele>
        <time>2021-07-21T07:43:16Z</time>
      </trkpt>
      <trkpt lat="43.5370180" lon="-6.0817770">
        <ele>-23.6</ele>
        <time>2021-07-21T07:43:20Z</time>
      </trkpt>
      <trkpt lat="43.5372600" lon="-6.0818360">
        <ele>-23.6</ele>
        <time>2021-07-21T07:43:25Z</time>
      </trkpt>
      <trkpt lat="43.5375570" lon="-6.0819070">
        <ele>-23.6</ele>
        <time>2021-07-21T07:43:31Z</time>
      </trkpt>
      <trkpt lat="43.5378590" lon="-6.0819700">
        <ele>-23.6</ele>
        <time>2021-07-21T07:43:37Z</time>
      </trkpt>
      <trkpt lat="43.5381100" lon="-6.0820260">
        <ele>-23.6</ele>
        <time>2021-07-21T07:43:42Z</time>
      </trkpt>
      <trkpt lat="43.5384410" lon="-6.0820990">
        <ele>-23.6</ele>
        <time>2021-07-21T07:43:49Z</time>
      </trkpt>
      <trkpt lat="43.5385240" lon="-6.0821260">
        <ele>-23.6</ele>
        <time>2021-07-21T07:43:51Z</time>
      </trkpt>
      <trkpt lat="43.5387690" lon="-6.0822160">
        <ele>-23.6</ele>
        <time>2021-07-21T07:43:58Z</time>
      </trkpt>
      <trkpt lat="43.5389120" lon="-6.0823120">
        <ele>-23.6</ele>
        <time>2021-07-21T07:44:03Z</time>
      </trkpt>
      <trkpt lat="43.5389350" lon="-6.0823380">
        <ele>-23.6</ele>
        <time>2021-07-21T07:44:04Z</time>
      </trkpt>
      <trkpt lat="43.5390070" lon="-6.0824130">
        <ele>-23.2</ele>
        <time>2021-07-21T07:44:07Z</time>
      </trkpt>
      <trkpt lat="43.5390310" lon="-6.0824390">
        <ele>-22.8</ele>
        <time>2021-07-21T07:44:08Z</time>
      </trkpt>
      <trkpt lat="43.5390540" lon="-6.0824660">
        <ele>-22.4</ele>
        <time>2021-07-21T07:44:09Z</time>
      </trkpt>
      <trkpt lat="43.5390770" lon="-6.0824920">
        <ele>-22.0</ele>
        <time>2021-07-21T07:44:10Z</time>
      </trkpt>
      <trkpt lat="43.5391000" lon="-6.0825200">
        <ele>-21.6</ele>
        <time>2021-07-21T07:44:11Z</time>
      </trkpt>
      <trkpt lat="43.5392040" lon="-6.0826930">
        <ele>-21.6</ele>
        <time>2021-07-21T07:44:17Z</time>
      </trkpt>
      <trkpt lat="43.5392180" lon="-6.0827240">
        <ele>-21.6</ele>
        <time>2021-07-21T07:44:18Z</time>
      </trkpt>
      <trkpt lat="43.5392570" lon="-6.0828050">
        <ele>-21.2</ele>
        <time>2021-07-21T07:44:21Z</time>
      </trkpt>
      <trkpt lat="43.5392710" lon="-6.0828270">
        <ele>-20.8</ele>
        <time>2021-07-21T07:44:22Z</time>
      </trkpt>
      <trkpt lat="43.5392800" lon="-6.0828520">
        <ele>-20.4</ele>
        <time>2021-07-21T07:44:23Z</time>
      </trkpt>
      <trkpt lat="43.5392870" lon="-6.0828770">
        <ele>-20.0</ele>
        <time>2021-07-21T07:44:24Z</time>
      </trkpt>
      <trkpt lat="43.5392960" lon="-6.0829040">
        <ele>-19.6</ele>
        <time>2021-07-21T07:44:25Z</time>
      </trkpt>
      <trkpt lat="43.5393580" lon="-6.0831300">
        <ele>-19.6</ele>
        <time>2021-07-21T07:44:33Z</time>
      </trkpt>
      <trkpt lat="43.5393820" lon="-6.0832200">
        <ele>-19.2</ele>
        <time>2021-07-21T07:44:36Z</time>
      </trkpt>
      <trkpt lat="43.5393880" lon="-6.0832470">
        <ele>-18.8</ele>
        <time>2021-07-21T07:44:37Z</time>
      </trkpt>
      <trkpt lat="43.5393930" lon="-6.0832730">
        <ele>-18.2</ele>
        <time>2021-07-21T07:44:38Z</time>
      </trkpt>
      <trkpt lat="43.5393990" lon="-6.0832990">
        <ele>-17.8</ele>
        <time>2021-07-21T07:44:39Z</time>
      </trkpt>
      <trkpt lat="43.5394030" lon="-6.0833280">
        <ele>-17.4</ele>
        <time>2021-07-21T07:44:40Z</time>
      </trkpt>
      <trkpt lat="43.5394250" lon="-6.0835010">
        <ele>-17.4</ele>
        <time>2021-07-21T07:44:46Z</time>
      </trkpt>
      <trkpt lat="43.5394510" lon="-6.0836520">
        <ele>-17.0</ele>
        <time>2021-07-21T07:44:51Z</time>
      </trkpt>
      <trkpt lat="43.5394550" lon="-6.0836830">
        <ele>-16.6</ele>
        <time>2021-07-21T07:44:52Z</time>
      </trkpt>
      <trkpt lat="43.5394590" lon="-6.0837140">
        <ele>-16.2</ele>
        <time>2021-07-21T07:44:53Z</time>
      </trkpt>
      <trkpt lat="43.5394640" lon="-6.0837430">
        <ele>-15.8</ele>
        <time>2021-07-21T07:44:54Z</time>
      </trkpt>
      <trkpt lat="43.5394690" lon="-6.0837730">
        <ele>-15.4</ele>
        <time>2021-07-21T07:44:55Z</time>
      </trkpt>
      <trkpt lat="43.5394970" lon="-6.0839720">
        <ele>-15.4</ele>
        <time>2021-07-21T07:45:02Z</time>
      </trkpt>
      <trkpt lat="43.5395150" lon="-6.0841000">
        <ele>-15.0</ele>
        <time>2021-07-21T07:45:07Z</time>
      </trkpt>
      <trkpt lat="43.5395190" lon="-6.0841220">
        <ele>-14.6</ele>
        <time>2021-07-21T07:45:08Z</time>
      </trkpt>
      <trkpt lat="43.5395220" lon="-6.0841440">
        <ele>-14.2</ele>
        <time>2021-07-21T07:45:09Z</time>
      </trkpt>
      <trkpt lat="43.5395250" lon="-6.0841670">
        <ele>-13.8</ele>
        <time>2021-07-21T07:45:10Z</time>
      </trkpt>
      <trkpt lat="43.5395270" lon="-6.0841890">
        <ele>-13.4</ele>
        <time>2021-07-21T07:45:11Z</time>
      </trkpt>
      <trkpt lat="43.5395530" lon="-6.0843760">
        <ele>-13.4</ele>
        <time>2021-07-21T07:45:19Z</time>
      </trkpt>
      <trkpt lat="43.5395730" lon="-6.0844710">
        <ele>-13.0</ele>
        <time>2021-07-21T07:45:23Z</time>
      </trkpt>
      <trkpt lat="43.5395740" lon="-6.0844950">
        <ele>-12.4</ele>
        <time>2021-07-21T07:45:24Z</time>
      </trkpt>
      <trkpt lat="43.5395760" lon="-6.0845180">
        <ele>-12.0</ele>
        <time>2021-07-21T07:45:25Z</time>
      </trkpt>
      <trkpt lat="43.5395830" lon="-6.0845400">
        <ele>-11.6</ele>
        <time>2021-07-21T07:45:26Z</time>
      </trkpt>
      <trkpt lat="43.5395890" lon="-6.0845630">
        <ele>-11.2</ele>
        <time>2021-07-21T07:45:27Z</time>
      </trkpt>
      <trkpt lat="43.5395930" lon="-6.0845870">
        <ele>-11.2</ele>
        <time>2021-07-21T07:45:28Z</time>
      </trkpt>
      <trkpt lat="43.5396050" lon="-6.0848340">
        <ele>-11.2</ele>
        <time>2021-07-21T07:45:35Z</time>
      </trkpt>
      <trkpt lat="43.5396230" lon="-6.0849830">
        <ele>-10.4</ele>
        <time>2021-07-21T07:45:40Z</time>
      </trkpt>
      <trkpt lat="43.5396260" lon="-6.0850100">
        <ele>-10.0</ele>
        <time>2021-07-21T07:45:41Z</time>
      </trkpt>
      <trkpt lat="43.5396300" lon="-6.0850370">
        <ele>-9.6</ele>
        <time>2021-07-21T07:45:42Z</time>
      </trkpt>
      <trkpt lat="43.5396340" lon="-6.0850620">
        <ele>-9.2</ele>
        <time>2021-07-21T07:45:43Z</time>
      </trkpt>
      <trkpt lat="43.5396370" lon="-6.0850900">
        <ele>-9.2</ele>
        <time>2021-07-21T07:45:44Z</time>
      </trkpt>
      <trkpt lat="43.5396440" lon="-6.0853030">
        <ele>-9.2</ele>
        <time>2021-07-21T07:45:52Z</time>
      </trkpt>
      <trkpt lat="43.5396530" lon="-6.0854220">
        <ele>-8.8</ele>
        <time>2021-07-21T07:45:57Z</time>
      </trkpt>
      <trkpt lat="43.5396570" lon="-6.0854460">
        <ele>-8.4</ele>
        <time>2021-07-21T07:45:58Z</time>
      </trkpt>
      <trkpt lat="43.5396610" lon="-6.0854720">
        <ele>-8.0</ele>
        <time>2021-07-21T07:45:59Z</time>
      </trkpt>
      <trkpt lat="43.5396630" lon="-6.0854960">
        <ele>-7.6</ele>
        <time>2021-07-21T07:46:00Z</time>
      </trkpt>
      <trkpt lat="43.5396670" lon="-6.0855210">
        <ele>-7.2</ele>
        <time>2021-07-21T07:46:01Z</time>
      </trkpt>
      <trkpt lat="43.5397050" lon="-6.0856680">
        <ele>-7.2</ele>
        <time>2021-07-21T07:46:07Z</time>
      </trkpt>
      <trkpt lat="43.5397290" lon="-6.0857950">
        <ele>-6.8</ele>
        <time>2021-07-21T07:46:12Z</time>
      </trkpt>
      <trkpt lat="43.5397310" lon="-6.0858230">
        <ele>-6.4</ele>
        <time>2021-07-21T07:46:13Z</time>
      </trkpt>
      <trkpt lat="43.5397370" lon="-6.0858500">
        <ele>-6.0</ele>
        <time>2021-07-21T07:46:14Z</time>
      </trkpt>
      <trkpt lat="43.5397430" lon="-6.0858700">
        <ele>-5.6</ele>
        <time>2021-07-21T07:46:15Z</time>
      </trkpt>
      <trkpt lat="43.5397480" lon="-6.0858920">
        <ele>-5.2</ele>
        <time>2021-07-21T07:46:16Z</time>
      </trkpt>
      <trkpt lat="43.5397940" lon="-6.0860630">
        <ele>-5.2</ele>
        <time>2021-07-21T07:46:23Z</time>
      </trkpt>
      <trkpt lat="43.5398290" lon="-6.0862130">
        <ele>-5.2</ele>
        <time>2021-07-21T07:46:30Z</time>
      </trkpt>
      <trkpt lat="43.5398340" lon="-6.0862380">
        <ele>-4.8</ele>
        <time>2021-07-21T07:46:31Z</time>
      </trkpt>
      <trkpt lat="43.5398410" lon="-6.0862680">
        <ele>-4.2</ele>
        <time>2021-07-21T07:46:32Z</time>
      </trkpt>
      <trkpt lat="43.5398470" lon="-6.0862960">
        <ele>-3.8</ele>
        <time>2021-07-21T07:46:33Z</time>
      </trkpt>
      <trkpt lat="43.5398540" lon="-6.0863230">
        <ele>-3.4</ele>
        <time>2021-07-21T07:46:34Z</time>
      </trkpt>
      <trkpt lat="43.5398610" lon="-6.0863440">
        <ele>-3.0</ele>
        <time>2021-07-21T07:46:35Z</time>
      </trkpt>
      <trkpt lat="43.5398870" lon="-6.0864140">
        <ele>-3.0</ele>
        <time>2021-07-21T07:46:39Z</time>
      </trkpt>
      <trkpt lat="43.5399560" lon="-6.0865660">
        <ele>-3.0</ele>
        <time>2021-07-21T07:46:47Z</time>
      </trkpt>
      <trkpt lat="43.5399860" lon="-6.0866420">
        <ele>-2.6</ele>
        <time>2021-07-21T07:46:50Z</time>
      </trkpt>
      <trkpt lat="43.5399960" lon="-6.0866710">
        <ele>-2.2</ele>
        <time>2021-07-21T07:46:51Z</time>
      </trkpt>
      <trkpt lat="43.5400090" lon="-6.0866990">
        <ele>-1.8</ele>
        <time>2021-07-21T07:46:52Z</time>
      </trkpt>
      <trkpt lat="43.5400180" lon="-6.0867210">
        <ele>-1.4</ele>
        <time>2021-07-21T07:46:53Z</time>
      </trkpt>
      <trkpt lat="43.5400290" lon="-6.0867460">
        <ele>-0.8</ele>
        <time>2021-07-21T07:46:54Z</time>
      </trkpt>
      <trkpt lat="43.5400380" lon="-6.0867700">
        <ele>-0.8</ele>
        <time>2021-07-21T07:46:55Z</time>
      </trkpt>
      <trkpt lat="43.5401190" lon="-6.0869440">
        <ele>-0.8</ele>
        <time>2021-07-21T07:47:03Z</time>
      </trkpt>
      <trkpt lat="43.5401570" lon="-6.0870280">
        <ele>-0.4</ele>
        <time>2021-07-21T07:47:07Z</time>
      </trkpt>
      <trkpt lat="43.5401670" lon="-6.0870530">
        <ele>0.0</ele>
        <time>2021-07-21T07:47:08Z</time>
      </trkpt>
      <trkpt lat="43.5401760" lon="-6.0870780">
        <ele>0.4</ele>
        <time>2021-07-21T07:47:09Z</time>
      </trkpt>
      <trkpt lat="43.5401870" lon="-6.0871030">
        <ele>0.8</ele>
        <time>2021-07-21T07:47:10Z</time>
      </trkpt>
      <trkpt lat="43.5401970" lon="-6.0871260">
        <ele>1.2</ele>
        <time>2021-07-21T07:47:11Z</time>
      </trkpt>
      <trkpt lat="43.5403000" lon="-6.0873040">
        <ele>1.2</ele>
        <time>2021-07-21T07:47:20Z</time>
      </trkpt>
      <trkpt lat="43.5403220" lon="-6.0873450">
        <ele>1.6</ele>
        <time>2021-07-21T07:47:22Z</time>
      </trkpt>
      <trkpt lat="43.5403340" lon="-6.0873630">
        <ele>2.0</ele>
        <time>2021-07-21T07:47:23Z</time>
      </trkpt>
      <trkpt lat="43.5403440" lon="-6.0873840">
        <ele>2.4</ele>
        <time>2021-07-21T07:47:24Z</time>
      </trkpt>
      <trkpt lat="43.5403540" lon="-6.0874030">
        <ele>2.8</ele>
        <time>2021-07-21T07:47:25Z</time>
      </trkpt>
      <trkpt lat="43.5403660" lon="-6.0874220">
        <ele>3.2</ele>
        <time>2021-07-21T07:47:26Z</time>
      </trkpt>
      <trkpt lat="43.5403920" lon="-6.0874550">
        <ele>3.2</ele>
        <time>2021-07-21T07:47:28Z</time>
      </trkpt>
      <trkpt lat="43.5405000" lon="-6.0876070">
        <ele>3.2</ele>
        <time>2021-07-21T07:47:37Z</time>
      </trkpt>
      <trkpt lat="43.5405430" lon="-6.0876560">
        <ele>3.6</ele>
        <time>2021-07-21T07:47:40Z</time>
      </trkpt>
      <trkpt lat="43.5405560" lon="-6.0876730">
        <ele>4.0</ele>
        <time>2021-07-21T07:47:41Z</time>
      </trkpt>
      <trkpt lat="43.5405680" lon="-6.0876920">
        <ele>4.4</ele>
        <time>2021-07-21T07:47:42Z</time>
      </trkpt>
      <trkpt lat="43.5405790" lon="-6.0877130">
        <ele>4.8</ele>
        <time>2021-07-21T07:47:43Z</time>
      </trkpt>
      <trkpt lat="43.5405900" lon="-6.0877340">
        <ele>5.2</ele>
        <time>2021-07-21T07:47:44Z</time>
      </trkpt>
      <trkpt lat="43.5406210" lon="-6.0877720">
        <ele>5.2</ele>
        <time>2021-07-21T07:47:46Z</time>
      </trkpt>
      <trkpt lat="43.5407230" lon="-6.0879080">
        <ele>5.2</ele>
        <time>2021-07-21T07:47:53Z</time>
      </trkpt>
      <trkpt lat="43.5407360" lon="-6.0879270">
        <ele>5.6</ele>
        <time>2021-07-21T07:47:54Z</time>
      </trkpt>
      <trkpt lat="43.5407510" lon="-6.0879440">
        <ele>6.0</ele>
        <time>2021-07-21T07:47:55Z</time>
      </trkpt>
      <trkpt lat="43.5407600" lon="-6.0879640">
        <ele>6.4</ele>
        <time>2021-07-21T07:47:56Z</time>
      </trkpt>
      <trkpt lat="43.5407710" lon="-6.0879860">
        <ele>6.8</ele>
        <time>2021-07-21T07:47:57Z</time>
      </trkpt>
      <trkpt lat="43.5407840" lon="-6.0880040">
        <ele>7.2</ele>
        <time>2021-07-21T07:47:58Z</time>
      </trkpt>
      <trkpt lat="43.5408130" lon="-6.0880420">
        <ele>7.2</ele>
        <time>2021-07-21T07:48:00Z</time>
      </trkpt>
      <trkpt lat="43.5409210" lon="-6.0881970">
        <ele>7.2</ele>
        <time>2021-07-21T07:48:08Z</time>
      </trkpt>
      <trkpt lat="43.5409500" lon="-6.0882360">
        <ele>7.6</ele>
        <time>2021-07-21T07:48:10Z</time>
      </trkpt>
      <trkpt lat="43.5409630" lon="-6.0882560">
        <ele>8.2</ele>
        <time>2021-07-21T07:48:11Z</time>
      </trkpt>
      <trkpt lat="43.5409760" lon="-6.0882770">
        <ele>8.6</ele>
        <time>2021-07-21T07:48:12Z</time>
      </trkpt>
      <trkpt lat="43.5409910" lon="-6.0882940">
        <ele>9.0</ele>
        <time>2021-07-21T07:48:13Z</time>
      </trkpt>
      <trkpt lat="43.5410070" lon="-6.0883080">
        <ele>9.6</ele>
        <time>2021-07-21T07:48:14Z</time>
      </trkpt>
      <trkpt lat="43.5410500" lon="-6.0883550">
        <ele>9.6</ele>
        <time>2021-07-21T07:48:17Z</time>
      </trkpt>
      <trkpt lat="43.5411400" lon="-6.0884750">
        <ele>9.6</ele>
        <time>2021-07-21T07:48:24Z</time>
      </trkpt>
      <trkpt lat="43.5412070" lon="-6.0885800">
        <ele>10.0</ele>
        <time>2021-07-21T07:48:30Z</time>
      </trkpt>
      <trkpt lat="43.5412210" lon="-6.0885950">
        <ele>10.4</ele>
        <time>2021-07-21T07:48:31Z</time>
      </trkpt>
      <trkpt lat="43.5412350" lon="-6.0886120">
        <ele>10.8</ele>
        <time>2021-07-21T07:48:32Z</time>
      </trkpt>
      <trkpt lat="43.5412490" lon="-6.0886310">
        <ele>11.2</ele>
        <time>2021-07-21T07:48:33Z</time>
      </trkpt>
      <trkpt lat="43.5412620" lon="-6.0886520">
        <ele>11.6</ele>
        <time>2021-07-21T07:48:34Z</time>
      </trkpt>
      <trkpt lat="43.5413330" lon="-6.0887420">
        <ele>11.6</ele>
        <time>2021-07-21T07:48:39Z</time>
      </trkpt>
      <trkpt lat="43.5414480" lon="-6.0888940">
        <ele>12.2</ele>
        <time>2021-07-21T07:48:47Z</time>
      </trkpt>
      <trkpt lat="43.5414570" lon="-6.0889130">
        <ele>12.6</ele>
        <time>2021-07-21T07:48:48Z</time>
      </trkpt>
      <trkpt lat="43.5414700" lon="-6.0889380">
        <ele>13.0</ele>
        <time>2021-07-21T07:48:49Z</time>
      </trkpt>
      <trkpt lat="43.5414840" lon="-6.0889480">
        <ele>13.4</ele>
        <time>2021-07-21T07:48:50Z</time>
      </trkpt>
      <trkpt lat="43.5414970" lon="-6.0889640">
        <ele>13.8</ele>
        <time>2021-07-21T07:48:51Z</time>
      </trkpt>
      <trkpt lat="43.5415380" lon="-6.0890180">
        <ele>13.8</ele>
        <time>2021-07-21T07:48:54Z</time>
      </trkpt>
      <trkpt lat="43.5416350" lon="-6.0891760">
        <ele>14.2</ele>
        <time>2021-07-21T07:49:02Z</time>
      </trkpt>
      <trkpt lat="43.5416500" lon="-6.0891920">
        <ele>14.6</ele>
        <time>2021-07-21T07:49:03Z</time>
      </trkpt>
      <trkpt lat="43.5416650" lon="-6.0892110">
        <ele>15.0</ele>
        <time>2021-07-21T07:49:04Z</time>
      </trkpt>
      <trkpt lat="43.5416820" lon="-6.0892310">
        <ele>15.4</ele>
        <time>2021-07-21T07:49:05Z</time>
      </trkpt>
      <trkpt lat="43.5416960" lon="-6.0892500">
        <ele>16.0</ele>
        <time>2021-07-21T07:49:06Z</time>
      </trkpt>
      <trkpt lat="43.5417490" lon="-6.0893220">
        <ele>16.0</ele>
        <time>2021-07-21T07:49:10Z</time>
      </trkpt>
      <trkpt lat="43.5418570" lon="-6.0894660">
        <ele>16.0</ele>
        <time>2021-07-21T07:49:18Z</time>
      </trkpt>
      <trkpt lat="43.5418750" lon="-6.0894960">
        <ele>16.4</ele>
        <time>2021-07-21T07:49:20Z</time>
      </trkpt>
      <trkpt lat="43.5418880" lon="-6.0895130">
        <ele>16.8</ele>
        <time>2021-07-21T07:49:21Z</time>
      </trkpt>
      <trkpt lat="43.5418990" lon="-6.0895330">
        <ele>17.2</ele>
        <time>2021-07-21T07:49:22Z</time>
      </trkpt>
      <trkpt lat="43.5419170" lon="-6.0895560">
        <ele>18.0</ele>
        <time>2021-07-21T07:49:23Z</time>
      </trkpt>
      <trkpt lat="43.5419500" lon="-6.0895950">
        <ele>18.0</ele>
        <time>2021-07-21T07:49:25Z</time>
      </trkpt>
      <trkpt lat="43.5421060" lon="-6.0897730">
        <ele>18.0</ele>
        <time>2021-07-21T07:49:35Z</time>
      </trkpt>
      <trkpt lat="43.5421200" lon="-6.0897930">
        <ele>18.4</ele>
        <time>2021-07-21T07:49:36Z</time>
      </trkpt>
      <trkpt lat="43.5421320" lon="-6.0898200">
        <ele>18.8</ele>
        <time>2021-07-21T07:49:37Z</time>
      </trkpt>
      <trkpt lat="43.5421450" lon="-6.0898460">
        <ele>19.2</ele>
        <time>2021-07-21T07:49:38Z</time>
      </trkpt>
      <trkpt lat="43.5421570" lon="-6.0898720">
        <ele>19.6</ele>
        <time>2021-07-21T07:49:39Z</time>
      </trkpt>
      <trkpt lat="43.5421680" lon="-6.0898910">
        <ele>20.0</ele>
        <time>2021-07-21T07:49:40Z</time>
      </trkpt>
      <trkpt lat="43.5422200" lon="-6.0899530">
        <ele>20.0</ele>
        <time>2021-07-21T07:49:43Z</time>
      </trkpt>
      <trkpt lat="43.5423360" lon="-6.0901110">
        <ele>20.4</ele>
        <time>2021-07-21T07:49:50Z</time>
      </trkpt>
      <trkpt lat="43.5423530" lon="-6.0901320">
        <ele>20.8</ele>
        <time>2021-07-21T07:49:51Z</time>
      </trkpt>
      <trkpt lat="43.5423720" lon="-6.0901540">
        <ele>21.2</ele>
        <time>2021-07-21T07:49:52Z</time>
      </trkpt>
      <trkpt lat="43.5423950" lon="-6.0901700">
        <ele>21.6</ele>
        <time>2021-07-21T07:49:53Z</time>
      </trkpt>
      <trkpt lat="43.5424160" lon="-6.0901880">
        <ele>22.0</ele>
        <time>2021-07-21T07:49:54Z</time>
      </trkpt>
      <trkpt lat="43.5425010" lon="-6.0902900">
        <ele>22.0</ele>
        <time>2021-07-21T07:49:59Z</time>
      </trkpt>
      <trkpt lat="43.5426030" lon="-6.0904170">
        <ele>22.4</ele>
        <time>2021-07-21T07:50:05Z</time>
      </trkpt>
      <trkpt lat="43.5426150" lon="-6.0904390">
        <ele>22.8</ele>
        <time>2021-07-21T07:50:06Z</time>
      </trkpt>
      <trkpt lat="43.5426280" lon="-6.0904580">
        <ele>23.2</ele>
        <time>2021-07-21T07:50:07Z</time>
      </trkpt>
      <trkpt lat="43.5426410" lon="-6.0904810">
        <ele>23.6</ele>
        <time>2021-07-21T07:50:08Z</time>
      </trkpt>
      <trkpt lat="43.5426520" lon="-6.0905010">
        <ele>24.0</ele>
        <time>2021-07-21T07:50:09Z</time>
      </trkpt>
      <trkpt lat="43.5427280" lon="-6.0906460">
        <ele>24.0</ele>
        <time>2021-07-21T07:50:15Z</time>
      </trkpt>
      <trkpt lat="43.5427990" lon="-6.0907980">
        <ele>24.4</ele>
        <time>2021-07-21T07:50:21Z</time>
      </trkpt>
      <trkpt lat="43.5428110" lon="-6.0908230">
        <ele>24.8</ele>
        <time>2021-07-21T07:50:22Z</time>
      </trkpt>
      <trkpt lat="43.5428260" lon="-6.0908510">
        <ele>25.2</ele>
        <time>2021-07-21T07:50:23Z</time>
      </trkpt>
      <trkpt lat="43.5428400" lon="-6.0908740">
        <ele>25.6</ele>
        <time>2021-07-21T07:50:24Z</time>
      </trkpt>
      <trkpt lat="43.5428500" lon="-6.0909000">
        <ele>26.0</ele>
        <time>2021-07-21T07:50:25Z</time>
      </trkpt>
      <trkpt lat="43.5428810" lon="-6.0909900">
        <ele>26.0</ele>
        <time>2021-07-21T07:50:28Z</time>
      </trkpt>
      <trkpt lat="43.5429800" lon="-6.0912550">
        <ele>26.0</ele>
        <time>2021-07-21T07:50:36Z</time>
      </trkpt>
      <trkpt lat="43.5430290" lon="-6.0914210">
        <ele>26.4</ele>
        <time>2021-07-21T07:50:41Z</time>
      </trkpt>
      <trkpt lat="43.5430360" lon="-6.0914550">
        <ele>26.8</ele>
        <time>2021-07-21T07:50:42Z</time>
      </trkpt>
      <trkpt lat="43.5430420" lon="-6.0914890">
        <ele>27.2</ele>
        <time>2021-07-21T07:50:43Z</time>
      </trkpt>
      <trkpt lat="43.5430490" lon="-6.0915200">
        <ele>27.6</ele>
        <time>2021-07-21T07:50:44Z</time>
      </trkpt>
      <trkpt lat="43.5430570" lon="-6.0915530">
        <ele>28.0</ele>
        <time>2021-07-21T07:50:45Z</time>
      </trkpt>
      <trkpt lat="43.5430750" lon="-6.0916180">
        <ele>28.0</ele>
        <time>2021-07-21T07:50:47Z</time>
      </trkpt>
      <trkpt lat="43.5431160" lon="-6.0919090">
        <ele>28.0</ele>
        <time>2021-07-21T07:50:55Z</time>
      </trkpt>
      <trkpt lat="43.5431320" lon="-6.0921610">
        <ele>28.0</ele>
        <time>2021-07-21T07:51:02Z</time>
      </trkpt>
      <trkpt lat="43.5431490" lon="-6.0923190">
        <ele>28.6</ele>
        <time>2021-07-21T07:51:06Z</time>
      </trkpt>
      <trkpt lat="43.5431550" lon="-6.0923590">
        <ele>29.0</ele>
        <time>2021-07-21T07:51:07Z</time>
      </trkpt>
      <trkpt lat="43.5431640" lon="-6.0923990">
        <ele>29.4</ele>
        <time>2021-07-21T07:51:08Z</time>
      </trkpt>
      <trkpt lat="43.5431660" lon="-6.0924390">
        <ele>29.8</ele>
        <time>2021-07-21T07:51:09Z</time>
      </trkpt>
      <trkpt lat="43.5431690" lon="-6.0924780">
        <ele>30.2</ele>
        <time>2021-07-21T07:51:10Z</time>
      </trkpt>
      <trkpt lat="43.5431400" lon="-6.0927230">
        <ele>30.2</ele>
        <time>2021-07-21T07:51:17Z</time>
      </trkpt>
      <trkpt lat="43.5431210" lon="-6.0929650">
        <ele>30.2</ele>
        <time>2021-07-21T07:51:24Z</time>
      </trkpt>
      <trkpt lat="43.5430520" lon="-6.0932590">
        <ele>30.2</ele>
        <time>2021-07-21T07:51:32Z</time>
      </trkpt>
      <trkpt lat="43.5430470" lon="-6.0932980">
        <ele>30.6</ele>
        <time>2021-07-21T07:51:33Z</time>
      </trkpt>
      <trkpt lat="43.5430360" lon="-6.0933400">
        <ele>31.0</ele>
        <time>2021-07-21T07:51:34Z</time>
      </trkpt>
      <trkpt lat="43.5430230" lon="-6.0933800">
        <ele>31.4</ele>
        <time>2021-07-21T07:51:35Z</time>
      </trkpt>
      <trkpt lat="43.5430130" lon="-6.0934220">
        <ele>31.8</ele>
        <time>2021-07-21T07:51:36Z</time>
      </trkpt>
      <trkpt lat="43.5430030" lon="-6.0934630">
        <ele>32.2</ele>
        <time>2021-07-21T07:51:37Z</time>
      </trkpt>
      <trkpt lat="43.5429760" lon="-6.0935350">
        <ele>32.2</ele>
        <time>2021-07-21T07:51:39Z</time>
      </trkpt>
      <trkpt lat="43.5428530" lon="-6.0937890">
        <ele>32.2</ele>
        <time>2021-07-21T07:51:46Z</time>
      </trkpt>
      <trkpt lat="43.5427090" lon="-6.0940630">
        <ele>32.2</ele>
        <time>2021-07-21T07:51:54Z</time>
      </trkpt>
      <trkpt lat="43.5426250" lon="-6.0941950">
        <ele>32.6</ele>
        <time>2021-07-21T07:51:58Z</time>
      </trkpt>
      <trkpt lat="43.5426080" lon="-6.0942280">
        <ele>33.0</ele>
        <time>2021-07-21T07:51:59Z</time>
      </trkpt>
      <trkpt lat="43.5425900" lon="-6.0942590">
        <ele>33.4</ele>
        <time>2021-07-21T07:52:00Z</time>
      </trkpt>
      <trkpt lat="43.5425690" lon="-6.0942880">
        <ele>33.8</ele>
        <time>2021-07-21T07:52:01Z</time>
      </trkpt>
      <trkpt lat="43.5425490" lon="-6.0943170">
        <ele>34.4</ele>
        <time>2021-07-21T07:52:02Z</time>
      </trkpt>
      <trkpt lat="43.5424250" lon="-6.0945010">
        <ele>34.4</ele>
        <time>2021-07-21T07:52:08Z</time>
      </trkpt>
      <trkpt lat="43.5422470" lon="-6.0948080">
        <ele>34.4</ele>
        <time>2021-07-21T07:52:17Z</time>
      </trkpt>
      <trkpt lat="43.5420930" lon="-6.0950770">
        <ele>34.8</ele>
        <time>2021-07-21T07:52:25Z</time>
      </trkpt>
      <trkpt lat="43.5420730" lon="-6.0951030">
        <ele>35.2</ele>
        <time>2021-07-21T07:52:26Z</time>
      </trkpt>
      <trkpt lat="43.5420520" lon="-6.0951330">
        <ele>35.6</ele>
        <time>2021-07-21T07:52:27Z</time>
      </trkpt>
      <trkpt lat="43.5420330" lon="-6.0951610">
        <ele>36.0</ele>
        <time>2021-07-21T07:52:28Z</time>
      </trkpt>
      <trkpt lat="43.5420120" lon="-6.0951880">
        <ele>36.4</ele>
        <time>2021-07-21T07:52:29Z</time>
      </trkpt>
      <trkpt lat="43.5419290" lon="-6.0953320">
        <ele>36.4</ele>
        <time>2021-07-21T07:52:34Z</time>
      </trkpt>
      <trkpt lat="43.5417780" lon="-6.0955790">
        <ele>36.4</ele>
        <time>2021-07-21T07:52:42Z</time>
      </trkpt>
      <trkpt lat="43.5416700" lon="-6.0957750">
        <ele>36.8</ele>
        <time>2021-07-21T07:52:48Z</time>
      </trkpt>
      <trkpt lat="43.5416520" lon="-6.0958060">
        <ele>37.2</ele>
        <time>2021-07-21T07:52:49Z</time>
      </trkpt>
      <trkpt lat="43.5416360" lon="-6.0958380">
        <ele>37.6</ele>
        <time>2021-07-21T07:52:50Z</time>
      </trkpt>
      <trkpt lat="43.5416190" lon="-6.0958670">
        <ele>38.0</ele>
        <time>2021-07-21T07:52:51Z</time>
      </trkpt>
      <trkpt lat="43.5416010" lon="-6.0958970">
        <ele>38.4</ele>
        <time>2021-07-21T07:52:52Z</time>
      </trkpt>
      <trkpt lat="43.5414710" lon="-6.0961120">
        <ele>38.4</ele>
        <time>2021-07-21T07:52:59Z</time>
      </trkpt>
      <trkpt lat="43.5413130" lon="-6.0964590">
        <ele>38.4</ele>
        <time>2021-07-21T07:53:09Z</time>
      </trkpt>
      <trkpt lat="43.5412450" lon="-6.0966450">
        <ele>38.8</ele>
        <time>2021-07-21T07:53:14Z</time>
      </trkpt>
      <trkpt lat="43.5412350" lon="-6.0966840">
        <ele>39.2</ele>
        <time>2021-07-21T07:53:15Z</time>
      </trkpt>
      <trkpt lat="43.5412200" lon="-6.0967220">
        <ele>39.6</ele>
        <time>2021-07-21T07:53:16Z</time>
      </trkpt>
      <trkpt lat="43.5412060" lon="-6.0967590">
        <ele>40.0</ele>
        <time>2021-07-21T07:53:17Z</time>
      </trkpt>
      <trkpt lat="43.5411950" lon="-6.0967960">
        <ele>40.4</ele>
        <time>2021-07-21T07:53:18Z</time>
      </trkpt>
      <trkpt lat="43.5411270" lon="-6.0970510">
        <ele>40.4</ele>
        <time>2021-07-21T07:53:25Z</time>
      </trkpt>
      <trkpt lat="43.5410880" lon="-6.0972800">
        <ele>40.4</ele>
        <time>2021-07-21T07:53:31Z</time>
      </trkpt>
      <trkpt lat="43.5410500" lon="-6.0975460">
        <ele>40.8</ele>
        <time>2021-07-21T07:53:38Z</time>
      </trkpt>
      <trkpt lat="43.5410460" lon="-6.0975890">
        <ele>41.2</ele>
        <time>2021-07-21T07:53:39Z</time>
      </trkpt>
      <trkpt lat="43.5410440" lon="-6.0976300">
        <ele>41.6</ele>
        <time>2021-07-21T07:53:40Z</time>
      </trkpt>
      <trkpt lat="43.5410410" lon="-6.0976750">
        <ele>42.0</ele>
        <time>2021-07-21T07:53:41Z</time>
      </trkpt>
      <trkpt lat="43.5410390" lon="-6.0977160">
        <ele>42.4</ele>
        <time>2021-07-21T07:53:42Z</time>
      </trkpt>
      <trkpt lat="43.5410390" lon="-6.0979300">
        <ele>42.4</ele>
        <time>2021-07-21T07:53:47Z</time>
      </trkpt>
      <trkpt lat="43.5410560" lon="-6.0982940">
        <ele>42.4</ele>
        <time>2021-07-21T07:53:56Z</time>
      </trkpt>
      <trkpt lat="43.5410630" lon="-6.0984530">
        <ele>42.8</ele>
        <time>2021-07-21T07:54:00Z</time>
      </trkpt>
      <trkpt lat="43.5410650" lon="-6.0984940">
        <ele>43.2</ele>
        <time>2021-07-21T07:54:01Z</time>
      </trkpt>
      <trkpt lat="43.5410630" lon="-6.0985340">
        <ele>43.6</ele>
        <time>2021-07-21T07:54:02Z</time>
      </trkpt>
      <trkpt lat="43.5410610" lon="-6.0985740">
        <ele>44.0</ele>
        <time>2021-07-21T07:54:03Z</time>
      </trkpt>
      <trkpt lat="43.5410650" lon="-6.0986120">
        <ele>44.4</ele>
        <time>2021-07-21T07:54:04Z</time>
      </trkpt>
      <trkpt lat="43.5410810" lon="-6.0986940">
        <ele>44.4</ele>
        <time>2021-07-21T07:54:06Z</time>
      </trkpt>
      <trkpt lat="43.5411350" lon="-6.0989120">
        <ele>44.4</ele>
        <time>2021-07-21T07:54:13Z</time>
      </trkpt>
      <trkpt lat="43.5411830" lon="-6.0990590">
        <ele>44.4</ele>
        <time>2021-07-21T07:54:20Z</time>
      </trkpt>
      <trkpt lat="43.5411820" lon="-6.0990270">
        <ele>44.4</ele>
        <time>2021-07-21T07:59:12Z</time>
      </trkpt>
      <trkpt lat="43.5411750" lon="-6.0990370">
        <ele>44.4</ele>
        <time>2021-07-21T07:59:13Z</time>
      </trkpt>
      <trkpt lat="43.5411680" lon="-6.0990590">
        <ele>44.4</ele>
        <time>2021-07-21T07:59:15Z</time>
      </trkpt>
      <trkpt lat="43.5411710" lon="-6.0990540">
        <ele>44.4</ele>
        <time>2021-07-21T07:59:17Z</time>
      </trkpt>
      <trkpt lat="43.5411920" lon="-6.0991080">
        <ele>46.0</ele>
        <time>2021-07-21T07:59:37Z</time>
      </trkpt>
      <trkpt lat="43.5412020" lon="-6.0991300">
        <ele>46.6</ele>
        <time>2021-07-21T07:59:38Z</time>
      </trkpt>
      <trkpt lat="43.5412670" lon="-6.0993450">
        <ele>46.6</ele>
        <time>2021-07-21T07:59:45Z</time>
      </trkpt>
      <trkpt lat="43.5413420" lon="-6.0995480">
        <ele>46.6</ele>
        <time>2021-07-21T07:59:52Z</time>
      </trkpt>
      <trkpt lat="43.5413820" lon="-6.0996340">
        <ele>46.6</ele>
        <time>2021-07-21T07:59:55Z</time>
      </trkpt>
      <trkpt lat="43.5413910" lon="-6.0996590">
        <ele>47.0</ele>
        <time>2021-07-21T07:59:56Z</time>
      </trkpt>
      <trkpt lat="43.5414020" lon="-6.0996840">
        <ele>47.4</ele>
        <time>2021-07-21T07:59:57Z</time>
      </trkpt>
      <trkpt lat="43.5414130" lon="-6.0997100">
        <ele>47.8</ele>
        <time>2021-07-21T07:59:58Z</time>
      </trkpt>
      <trkpt lat="43.5414250" lon="-6.0997390">
        <ele>48.2</ele>
        <time>2021-07-21T07:59:59Z</time>
      </trkpt>
      <trkpt lat="43.5414390" lon="-6.0997630">
        <ele>48.6</ele>
        <time>2021-07-21T08:00:00Z</time>
      </trkpt>
      <trkpt lat="43.5414750" lon="-6.0998410">
        <ele>48.6</ele>
        <time>2021-07-21T08:00:03Z</time>
      </trkpt>
      <trkpt lat="43.5415430" lon="-6.1000080">
        <ele>48.6</ele>
        <time>2021-07-21T08:00:09Z</time>
      </trkpt>
      <trkpt lat="43.5415570" lon="-6.1000330">
        <ele>48.6</ele>
        <time>2021-07-21T08:00:10Z</time>
      </trkpt>
      <trkpt lat="43.5415790" lon="-6.1000830">
        <ele>49.0</ele>
        <time>2021-07-21T08:00:12Z</time>
      </trkpt>
      <trkpt lat="43.5415900" lon="-6.1001060">
        <ele>49.6</ele>
        <time>2021-07-21T08:00:13Z</time>
      </trkpt>
      <trkpt lat="43.5416010" lon="-6.1001270">
        <ele>50.0</ele>
        <time>2021-07-21T08:00:14Z</time>
      </trkpt>
      <trkpt lat="43.5416150" lon="-6.1001480">
        <ele>50.4</ele>
        <time>2021-07-21T08:00:15Z</time>
      </trkpt>
      <trkpt lat="43.5416250" lon="-6.1001700">
        <ele>50.8</ele>
        <time>2021-07-21T08:00:16Z</time>
      </trkpt>
      <trkpt lat="43.5416580" lon="-6.1002440">
        <ele>50.8</ele>
        <time>2021-07-21T08:00:19Z</time>
      </trkpt>
      <trkpt lat="43.5417320" lon="-6.1004430">
        <ele>50.8</ele>
        <time>2021-07-21T08:00:27Z</time>
      </trkpt>
      <trkpt lat="43.5417460" lon="-6.1004910">
        <ele>51.2</ele>
        <time>2021-07-21T08:00:29Z</time>
      </trkpt>
      <trkpt lat="43.5417570" lon="-6.1005150">
        <ele>52.0</ele>
        <time>2021-07-21T08:00:30Z</time>
      </trkpt>
      <trkpt lat="43.5417680" lon="-6.1005360">
        <ele>52.4</ele>
        <time>2021-07-21T08:00:31Z</time>
      </trkpt>
      <trkpt lat="43.5417780" lon="-6.1005580">
        <ele>52.8</ele>
        <time>2021-07-21T08:00:32Z</time>
      </trkpt>
      <trkpt lat="43.5418020" lon="-6.1006220">
        <ele>52.8</ele>
        <time>2021-07-21T08:00:35Z</time>
      </trkpt>
      <trkpt lat="43.5418640" lon="-6.1007920">
        <ele>52.8</ele>
        <time>2021-07-21T08:00:43Z</time>
      </trkpt>
      <trkpt lat="43.5418950" lon="-6.1008590">
        <ele>53.2</ele>
        <time>2021-07-21T08:00:46Z</time>
      </trkpt>
      <trkpt lat="43.5419100" lon="-6.1008730">
        <ele>53.6</ele>
        <time>2021-07-21T08:00:47Z</time>
      </trkpt>
      <trkpt lat="43.5419260" lon="-6.1008840">
        <ele>54.0</ele>
        <time>2021-07-21T08:00:48Z</time>
      </trkpt>
      <trkpt lat="43.5419420" lon="-6.1008950">
        <ele>54.4</ele>
        <time>2021-07-21T08:00:49Z</time>
      </trkpt>
      <trkpt lat="43.5419570" lon="-6.1009100">
        <ele>54.8</ele>
        <time>2021-07-21T08:00:50Z</time>
      </trkpt>
      <trkpt lat="43.5420360" lon="-6.1010070">
        <ele>54.8</ele>
        <time>2021-07-21T08:00:56Z</time>
      </trkpt>
      <trkpt lat="43.5420590" lon="-6.1010820">
        <ele>54.8</ele>
        <time>2021-07-21T08:01:00Z</time>
      </trkpt>
      <trkpt lat="43.5420580" lon="-6.1010900">
        <ele>54.8</ele>
        <time>2021-07-21T08:01:01Z</time>
      </trkpt>
      <trkpt lat="43.5420590" lon="-6.1010990">
        <ele>54.8</ele>
        <time>2021-07-21T08:01:03Z</time>
      </trkpt>
      <trkpt lat="43.5420380" lon="-6.1011160">
        <ele>54.8</ele>
        <time>2021-07-21T08:03:54Z</time>
      </trkpt>
      <trkpt lat="43.5420260" lon="-6.1011360">
        <ele>54.8</ele>
        <time>2021-07-21T08:03:55Z</time>
      </trkpt>
      <trkpt lat="43.5419740" lon="-6.1013160">
        <ele>54.8</ele>
        <time>2021-07-21T08:04:01Z</time>
      </trkpt>
      <trkpt lat="43.5419730" lon="-6.1013880">
        <ele>55.4</ele>
        <time>2021-07-21T08:04:03Z</time>
      </trkpt>
      <trkpt lat="43.5419740" lon="-6.1014210">
        <ele>55.8</ele>
        <time>2021-07-21T08:04:04Z</time>
      </trkpt>
      <trkpt lat="43.5419730" lon="-6.1014550">
        <ele>56.2</ele>
        <time>2021-07-21T08:04:05Z</time>
      </trkpt>
      <trkpt lat="43.5419730" lon="-6.1014870">
        <ele>56.6</ele>
        <time>2021-07-21T08:04:06Z</time>
      </trkpt>
      <trkpt lat="43.5419740" lon="-6.1015200">
        <ele>57.0</ele>
        <time>2021-07-21T08:04:07Z</time>
      </trkpt>
      <trkpt lat="43.5419800" lon="-6.1016510">
        <ele>57.0</ele>
        <time>2021-07-21T08:04:11Z</time>
      </trkpt>
      <trkpt lat="43.5419790" lon="-6.1018540">
        <ele>57.4</ele>
        <time>2021-07-21T08:04:17Z</time>
      </trkpt>
      <trkpt lat="43.5419770" lon="-6.1018870">
        <ele>57.8</ele>
        <time>2021-07-21T08:04:18Z</time>
      </trkpt>
      <trkpt lat="43.5419730" lon="-6.1019210">
        <ele>58.2</ele>
        <time>2021-07-21T08:04:19Z</time>
      </trkpt>
      <trkpt lat="43.5419690" lon="-6.1019560">
        <ele>58.6</ele>
        <time>2021-07-21T08:04:20Z</time>
      </trkpt>
      <trkpt lat="43.5419650" lon="-6.1019870">
        <ele>59.0</ele>
        <time>2021-07-21T08:04:21Z</time>
      </trkpt>
      <trkpt lat="43.5419530" lon="-6.1021070">
        <ele>59.0</ele>
        <time>2021-07-21T08:04:25Z</time>
      </trkpt>
      <trkpt lat="43.5419410" lon="-6.1022000">
        <ele>59.0</ele>
        <time>2021-07-21T08:04:28Z</time>
      </trkpt>
      <trkpt lat="43.5419210" lon="-6.1023240">
        <ele>59.0</ele>
        <time>2021-07-21T08:04:32Z</time>
      </trkpt>
      <trkpt lat="43.5419110" lon="-6.1023800">
        <ele>59.4</ele>
        <time>2021-07-21T08:04:34Z</time>
      </trkpt>
      <trkpt lat="43.5419070" lon="-6.1024090">
        <ele>59.8</ele>
        <time>2021-07-21T08:04:35Z</time>
      </trkpt>
      <trkpt lat="43.5419010" lon="-6.1024380">
        <ele>60.6</ele>
        <time>2021-07-21T08:04:36Z</time>
      </trkpt>
      <trkpt lat="43.5418940" lon="-6.1024660">
        <ele>61.0</ele>
        <time>2021-07-21T08:04:37Z</time>
      </trkpt>
      <trkpt lat="43.5418860" lon="-6.1024950">
        <ele>61.0</ele>
        <time>2021-07-21T08:04:38Z</time>
      </trkpt>
      <trkpt lat="43.5418450" lon="-6.1026880">
        <ele>61.0</ele>
        <time>2021-07-21T08:04:46Z</time>
      </trkpt>
      <trkpt lat="43.5418830" lon="-6.1027400">
        <ele>61.6</ele>
        <time>2021-07-21T08:04:50Z</time>
      </trkpt>
      <trkpt lat="43.5418970" lon="-6.1027490">
        <ele>62.0</ele>
        <time>2021-07-21T08:04:51Z</time>
      </trkpt>
      <trkpt lat="43.5419100" lon="-6.1027580">
        <ele>62.4</ele>
        <time>2021-07-21T08:04:52Z</time>
      </trkpt>
      <trkpt lat="43.5419220" lon="-6.1027710">
        <ele>62.8</ele>
        <time>2021-07-21T08:04:53Z</time>
      </trkpt>
      <trkpt lat="43.5419320" lon="-6.1027840">
        <ele>63.2</ele>
        <time>2021-07-21T08:04:54Z</time>
      </trkpt>
      <trkpt lat="43.5419880" lon="-6.1028460">
        <ele>63.8</ele>
        <time>2021-07-21T08:04:59Z</time>
      </trkpt>
      <trkpt lat="43.5420010" lon="-6.1028560">
        <ele>64.2</ele>
        <time>2021-07-21T08:05:00Z</time>
      </trkpt>
      <trkpt lat="43.5420150" lon="-6.1028660">
        <ele>64.6</ele>
        <time>2021-07-21T08:05:01Z</time>
      </trkpt>
      <trkpt lat="43.5420280" lon="-6.1028760">
        <ele>65.4</ele>
        <time>2021-07-21T08:05:02Z</time>
      </trkpt>
      <trkpt lat="43.5420950" lon="-6.1029650">
        <ele>65.8</ele>
        <time>2021-07-21T08:05:08Z</time>
      </trkpt>
      <trkpt lat="43.5421060" lon="-6.1029790">
        <ele>66.2</ele>
        <time>2021-07-21T08:05:09Z</time>
      </trkpt>
      <trkpt lat="43.5421170" lon="-6.1029910">
        <ele>66.6</ele>
        <time>2021-07-21T08:05:10Z</time>
      </trkpt>
      <trkpt lat="43.5421270" lon="-6.1030050">
        <ele>67.0</ele>
        <time>2021-07-21T08:05:11Z</time>
      </trkpt>
      <trkpt lat="43.5421370" lon="-6.1030190">
        <ele>67.4</ele>
        <time>2021-07-21T08:05:12Z</time>
      </trkpt>
      <trkpt lat="43.5421810" lon="-6.1031110">
        <ele>67.4</ele>
        <time>2021-07-21T08:05:17Z</time>
      </trkpt>
      <trkpt lat="43.5421830" lon="-6.1031310">
        <ele>67.8</ele>
        <time>2021-07-21T08:05:18Z</time>
      </trkpt>
      <trkpt lat="43.5421860" lon="-6.1031510">
        <ele>68.2</ele>
        <time>2021-07-21T08:05:19Z</time>
      </trkpt>
      <trkpt lat="43.5421890" lon="-6.1031670">
        <ele>68.6</ele>
        <time>2021-07-21T08:05:20Z</time>
      </trkpt>
      <trkpt lat="43.5421930" lon="-6.1031840">
        <ele>69.0</ele>
        <time>2021-07-21T08:05:21Z</time>
      </trkpt>
      <trkpt lat="43.5421940" lon="-6.1031990">
        <ele>69.4</ele>
        <time>2021-07-21T08:05:22Z</time>
      </trkpt>
      <trkpt lat="43.5421880" lon="-6.1032230">
        <ele>69.4</ele>
        <time>2021-07-21T08:05:24Z</time>
      </trkpt>
      <trkpt lat="43.5421750" lon="-6.1032680">
        <ele>69.8</ele>
        <time>2021-07-21T08:05:27Z</time>
      </trkpt>
      <trkpt lat="43.5421710" lon="-6.1032850">
        <ele>70.2</ele>
        <time>2021-07-21T08:05:28Z</time>
      </trkpt>
      <trkpt lat="43.5421680" lon="-6.1033030">
        <ele>70.6</ele>
        <time>2021-07-21T08:05:29Z</time>
      </trkpt>
      <trkpt lat="43.5421640" lon="-6.1033200">
        <ele>71.2</ele>
        <time>2021-07-21T08:05:30Z</time>
      </trkpt>
      <trkpt lat="43.5421600" lon="-6.1033380">
        <ele>71.6</ele>
        <time>2021-07-21T08:05:31Z</time>
      </trkpt>
      <trkpt lat="43.5421490" lon="-6.1033750">
        <ele>71.6</ele>
        <time>2021-07-21T08:05:33Z</time>
      </trkpt>
      <trkpt lat="43.5421230" lon="-6.1034580">
        <ele>72.0</ele>
        <time>2021-07-21T08:05:38Z</time>
      </trkpt>
      <trkpt lat="43.5421160" lon="-6.1034760">
        <ele>72.4</ele>
        <time>2021-07-21T08:05:39Z</time>
      </trkpt>
      <trkpt lat="43.5421100" lon="-6.1034950">
        <ele>72.8</ele>
        <time>2021-07-21T08:05:40Z</time>
      </trkpt>
      <trkpt lat="43.5421050" lon="-6.1035120">
        <ele>73.2</ele>
        <time>2021-07-21T08:05:41Z</time>
      </trkpt>
      <trkpt lat="43.5420990" lon="-6.1035330">
        <ele>73.8</ele>
        <time>2021-07-21T08:05:42Z</time>
      </trkpt>
      <trkpt lat="43.5420500" lon="-6.1036560">
        <ele>73.8</ele>
        <time>2021-07-21T08:05:49Z</time>
      </trkpt>
      <trkpt lat="43.5420450" lon="-6.1036740">
        <ele>74.2</ele>
        <time>2021-07-21T08:05:50Z</time>
      </trkpt>
      <trkpt lat="43.5420380" lon="-6.1036920">
        <ele>75.0</ele>
        <time>2021-07-21T08:05:51Z</time>
      </trkpt>
      <trkpt lat="43.5420310" lon="-6.1037090">
        <ele>75.4</ele>
        <time>2021-07-21T08:05:52Z</time>
      </trkpt>
      <trkpt lat="43.5420220" lon="-6.1037250">
        <ele>76.0</ele>
        <time>2021-07-21T08:05:53Z</time>
      </trkpt>
      <trkpt lat="43.5419990" lon="-6.1037780">
        <ele>76.0</ele>
        <time>2021-07-21T08:05:56Z</time>
      </trkpt>
      <trkpt lat="43.5419590" lon="-6.1038430">
        <ele>76.4</ele>
        <time>2021-07-21T08:06:00Z</time>
      </trkpt>
      <trkpt lat="43.5419530" lon="-6.1038540">
        <ele>76.8</ele>
        <time>2021-07-21T08:06:01Z</time>
      </trkpt>
      <trkpt lat="43.5419540" lon="-6.1038590">
        <ele>77.2</ele>
        <time>2021-07-21T08:06:02Z</time>
      </trkpt>
      <trkpt lat="43.5420690" lon="-6.1046470">
        <ele>88.6</ele>
        <time>2021-07-21T08:07:39Z</time>
      </trkpt>
      <trkpt lat="43.5420730" lon="-6.1046670">
        <ele>88.6</ele>
        <time>2021-07-21T08:07:40Z</time>
      </trkpt>
      <trkpt lat="43.5421070" lon="-6.1047500">
        <ele>89.0</ele>
        <time>2021-07-21T08:07:46Z</time>
      </trkpt>
      <trkpt lat="43.5421140" lon="-6.1047650">
        <ele>89.4</ele>
        <time>2021-07-21T08:07:47Z</time>
      </trkpt>
      <trkpt lat="43.5421200" lon="-6.1047770">
        <ele>89.8</ele>
        <time>2021-07-21T08:07:48Z</time>
      </trkpt>
      <trkpt lat="43.5421260" lon="-6.1047900">
        <ele>90.2</ele>
        <time>2021-07-21T08:07:49Z</time>
      </trkpt>
      <trkpt lat="43.5421290" lon="-6.1048070">
        <ele>90.6</ele>
        <time>2021-07-21T08:07:50Z</time>
      </trkpt>
      <trkpt lat="43.5421290" lon="-6.1048610">
        <ele>90.6</ele>
        <time>2021-07-21T08:07:53Z</time>
      </trkpt>
      <trkpt lat="43.5421420" lon="-6.1049470">
        <ele>91.0</ele>
        <time>2021-07-21T08:07:58Z</time>
      </trkpt>
      <trkpt lat="43.5421470" lon="-6.1049610">
        <ele>91.4</ele>
        <time>2021-07-21T08:07:59Z</time>
      </trkpt>
      <trkpt lat="43.5421470" lon="-6.1049790">
        <ele>91.8</ele>
        <time>2021-07-21T08:08:00Z</time>
      </trkpt>
      <trkpt lat="43.5421480" lon="-6.1049970">
        <ele>92.4</ele>
        <time>2021-07-21T08:08:01Z</time>
      </trkpt>
      <trkpt lat="43.5421500" lon="-6.1050150">
        <ele>92.8</ele>
        <time>2021-07-21T08:08:02Z</time>
      </trkpt>
      <trkpt lat="43.5421520" lon="-6.1050310">
        <ele>92.8</ele>
        <time>2021-07-21T08:08:03Z</time>
      </trkpt>
      <trkpt lat="43.5421810" lon="-6.1051710">
        <ele>92.8</ele>
        <time>2021-07-21T08:08:12Z</time>
      </trkpt>
      <trkpt lat="43.5422160" lon="-6.1053120">
        <ele>92.8</ele>
        <time>2021-07-21T08:08:21Z</time>
      </trkpt>
      <trkpt lat="43.5422240" lon="-6.1053220">
        <ele>92.8</ele>
        <time>2021-07-21T08:08:22Z</time>
      </trkpt>
      <trkpt lat="43.5422520" lon="-6.1053660">
        <ele>93.2</ele>
        <time>2021-07-21T08:08:26Z</time>
      </trkpt>
      <trkpt lat="43.5422580" lon="-6.1053750">
        <ele>93.6</ele>
        <time>2021-07-21T08:08:27Z</time>
      </trkpt>
      <trkpt lat="43.5422650" lon="-6.1053860">
        <ele>94.0</ele>
        <time>2021-07-21T08:08:28Z</time>
      </trkpt>
      <trkpt lat="43.5422690" lon="-6.1054040">
        <ele>94.4</ele>
        <time>2021-07-21T08:08:29Z</time>
      </trkpt>
      <trkpt lat="43.5422730" lon="-6.1054210">
        <ele>94.8</ele>
        <time>2021-07-21T08:08:30Z</time>
      </trkpt>
      <trkpt lat="43.5422710" lon="-6.1054520">
        <ele>94.8</ele>
        <time>2021-07-21T08:08:32Z</time>
      </trkpt>
      <trkpt lat="43.5422640" lon="-6.1054650">
        <ele>94.8</ele>
        <time>2021-07-21T08:08:33Z</time>
      </trkpt>
      <trkpt lat="43.5422540" lon="-6.1054970">
        <ele>94.8</ele>
        <time>2021-07-21T08:08:35Z</time>
      </trkpt>
      <trkpt lat="43.5422550" lon="-6.1055040">
        <ele>94.8</ele>
        <time>2021-07-21T08:08:36Z</time>
      </trkpt>
      <trkpt lat="43.5422790" lon="-6.1055470">
        <ele>94.8</ele>
        <time>2021-07-21T08:09:27Z</time>
      </trkpt>
      <trkpt lat="43.5422870" lon="-6.1055660">
        <ele>94.8</ele>
        <time>2021-07-21T08:09:28Z</time>
      </trkpt>
      <trkpt lat="43.5423310" lon="-6.1056380">
        <ele>94.8</ele>
        <time>2021-07-21T08:09:33Z</time>
      </trkpt>
      <trkpt lat="43.5423390" lon="-6.1056660">
        <ele>94.8</ele>
        <time>2021-07-21T08:09:34Z</time>
      </trkpt>
      <trkpt lat="43.5423620" lon="-6.1058610">
        <ele>94.8</ele>
        <time>2021-07-21T08:09:40Z</time>
      </trkpt>
      <trkpt lat="43.5423640" lon="-6.1059000">
        <ele>94.8</ele>
        <time>2021-07-21T08:09:41Z</time>
      </trkpt>
      <trkpt lat="43.5423690" lon="-6.1060660">
        <ele>94.8</ele>
        <time>2021-07-21T08:09:46Z</time>
      </trkpt>
      <trkpt lat="43.5423750" lon="-6.1061370">
        <ele>94.8</ele>
        <time>2021-07-21T08:09:48Z</time>
      </trkpt>
      <trkpt lat="43.5423820" lon="-6.1062980">
        <ele>94.8</ele>
        <time>2021-07-21T08:09:52Z</time>
      </trkpt>
      <trkpt lat="43.5423840" lon="-6.1064190">
        <ele>94.8</ele>
        <time>2021-07-21T08:09:55Z</time>
      </trkpt>
      <trkpt lat="43.5423770" lon="-6.1064540">
        <ele>94.8</ele>
        <time>2021-07-21T08:09:56Z</time>
      </trkpt>
      <trkpt lat="43.5423610" lon="-6.1066150">
        <ele>94.8</ele>
        <time>2021-07-21T08:10:00Z</time>
      </trkpt>
      <trkpt lat="43.5423490" lon="-6.1067330">
        <ele>94.8</ele>
        <time>2021-07-21T08:10:03Z</time>
      </trkpt>
      <trkpt lat="43.5423330" lon="-6.1069710">
        <ele>94.8</ele>
        <time>2021-07-21T08:10:09Z</time>
      </trkpt>
      <trkpt lat="43.5423410" lon="-6.1071380">
        <ele>95.2</ele>
        <time>2021-07-21T08:10:13Z</time>
      </trkpt>
      <trkpt lat="43.5423400" lon="-6.1071780">
        <ele>95.6</ele>
        <time>2021-07-21T08:10:14Z</time>
      </trkpt>
      <trkpt lat="43.5423390" lon="-6.1072140">
        <ele>96.0</ele>
        <time>2021-07-21T08:10:15Z</time>
      </trkpt>
      <trkpt lat="43.5423370" lon="-6.1072440">
        <ele>96.4</ele>
        <time>2021-07-21T08:10:16Z</time>
      </trkpt>
      <trkpt lat="43.5423370" lon="-6.1072770">
        <ele>96.8</ele>
        <time>2021-07-21T08:10:17Z</time>
      </trkpt>
      <trkpt lat="43.5423190" lon="-6.1074780">
        <ele>96.8</ele>
        <time>2021-07-21T08:10:23Z</time>
      </trkpt>
      <trkpt lat="43.5423250" lon="-6.1075650">
        <ele>96.8</ele>
        <time>2021-07-21T08:10:26Z</time>
      </trkpt>
      <trkpt lat="43.5423550" lon="-6.1076150">
        <ele>96.8</ele>
        <time>2021-07-21T08:10:28Z</time>
      </trkpt>
      <trkpt lat="43.5424460" lon="-6.1077580">
        <ele>96.8</ele>
        <time>2021-07-21T08:10:32Z</time>
      </trkpt>
      <trkpt lat="43.5424770" lon="-6.1077950">
        <ele>96.8</ele>
        <time>2021-07-21T08:10:33Z</time>
      </trkpt>
      <trkpt lat="43.5425460" lon="-6.1078610">
        <ele>96.8</ele>
        <time>2021-07-21T08:10:35Z</time>
      </trkpt>
      <trkpt lat="43.5426730" lon="-6.1079110">
        <ele>96.8</ele>
        <time>2021-07-21T08:10:38Z</time>
      </trkpt>
      <trkpt lat="43.5427100" lon="-6.1079150">
        <ele>96.8</ele>
        <time>2021-07-21T08:10:39Z</time>
      </trkpt>
      <trkpt lat="43.5427380" lon="-6.1079100">
        <ele>96.2</ele>
        <time>2021-07-21T08:10:40Z</time>
      </trkpt>
      <trkpt lat="43.5427610" lon="-6.1079040">
        <ele>95.8</ele>
        <time>2021-07-21T08:10:41Z</time>
      </trkpt>
      <trkpt lat="43.5427790" lon="-6.1078990">
        <ele>95.2</ele>
        <time>2021-07-21T08:10:42Z</time>
      </trkpt>
      <trkpt lat="43.5427920" lon="-6.1078950">
        <ele>94.8</ele>
        <time>2021-07-21T08:10:43Z</time>
      </trkpt>
      <trkpt lat="43.5427960" lon="-6.1078950">
        <ele>94.2</ele>
        <time>2021-07-21T08:10:44Z</time>
      </trkpt>
      <trkpt lat="43.5427960" lon="-6.1079080">
        <ele>92.2</ele>
        <time>2021-07-21T08:10:48Z</time>
      </trkpt>
      <trkpt lat="43.5427920" lon="-6.1079220">
        <ele>92.2</ele>
        <time>2021-07-21T08:10:49Z</time>
      </trkpt>
      <trkpt lat="43.5427700" lon="-6.1079410">
        <ele>92.2</ele>
        <time>2021-07-21T08:10:51Z</time>
      </trkpt>
      <trkpt lat="43.5427410" lon="-6.1079490">
        <ele>92.2</ele>
        <time>2021-07-21T08:10:53Z</time>
      </trkpt>
      <trkpt lat="43.5427270" lon="-6.1079510">
        <ele>92.2</ele>
        <time>2021-07-21T08:10:54Z</time>
      </trkpt>
      <trkpt lat="43.5427030" lon="-6.1079540">
        <ele>92.2</ele>
        <time>2021-07-21T08:10:56Z</time>
      </trkpt>
      <trkpt lat="43.5426340" lon="-6.1079470">
        <ele>92.2</ele>
        <time>2021-07-21T08:11:02Z</time>
      </trkpt>
      <trkpt lat="43.5426020" lon="-6.1079330">
        <ele>92.8</ele>
        <time>2021-07-21T08:11:05Z</time>
      </trkpt>
      <trkpt lat="43.5425950" lon="-6.1079300">
        <ele>93.2</ele>
        <time>2021-07-21T08:11:06Z</time>
      </trkpt>
      <trkpt lat="43.5425880" lon="-6.1079240">
        <ele>93.6</ele>
        <time>2021-07-21T08:11:07Z</time>
      </trkpt>
      <trkpt lat="43.5425790" lon="-6.1079170">
        <ele>94.0</ele>
        <time>2021-07-21T08:11:08Z</time>
      </trkpt>
      <trkpt lat="43.5425710" lon="-6.1079090">
        <ele>94.4</ele>
        <time>2021-07-21T08:11:09Z</time>
      </trkpt>
      <trkpt lat="43.5425250" lon="-6.1078680">
        <ele>94.4</ele>
        <time>2021-07-21T08:11:12Z</time>
      </trkpt>
      <trkpt lat="43.5425100" lon="-6.1078520">
        <ele>94.4</ele>
        <time>2021-07-21T08:11:13Z</time>
      </trkpt>
      <trkpt lat="43.5424230" lon="-6.1077650">
        <ele>94.4</ele>
        <time>2021-07-21T08:11:19Z</time>
      </trkpt>
      <trkpt lat="43.5423950" lon="-6.1077250">
        <ele>94.4</ele>
        <time>2021-07-21T08:11:22Z</time>
      </trkpt>
      <trkpt lat="43.5423850" lon="-6.1077110">
        <ele>94.8</ele>
        <time>2021-07-21T08:11:23Z</time>
      </trkpt>
      <trkpt lat="43.5423750" lon="-6.1076980">
        <ele>95.2</ele>
        <time>2021-07-21T08:11:24Z</time>
      </trkpt>
      <trkpt lat="43.5423690" lon="-6.1076850">
        <ele>95.6</ele>
        <time>2021-07-21T08:11:25Z</time>
      </trkpt>
      <trkpt lat="43.5423630" lon="-6.1076770">
        <ele>96.0</ele>
        <time>2021-07-21T08:11:26Z</time>
      </trkpt>
      <trkpt lat="43.5423560" lon="-6.1076730">
        <ele>96.4</ele>
        <time>2021-07-21T08:11:27Z</time>
      </trkpt>
      <trkpt lat="43.5423310" lon="-6.1076680">
        <ele>96.4</ele>
        <time>2021-07-21T08:11:29Z</time>
      </trkpt>
      <trkpt lat="43.5423080" lon="-6.1076960">
        <ele>96.4</ele>
        <time>2021-07-21T08:11:31Z</time>
      </trkpt>
      <trkpt lat="43.5422770" lon="-6.1077620">
        <ele>96.4</ele>
        <time>2021-07-21T08:11:36Z</time>
      </trkpt>
      <trkpt lat="43.5422760" lon="-6.1077670">
        <ele>96.4</ele>
        <time>2021-07-21T08:11:37Z</time>
      </trkpt>
      <trkpt lat="43.5422710" lon="-6.1077950">
        <ele>96.4</ele>
        <time>2021-07-21T08:11:56Z</time>
      </trkpt>
      <trkpt lat="43.5422570" lon="-6.1078470">
        <ele>96.4</ele>
        <time>2021-07-21T08:11:58Z</time>
      </trkpt>
      <trkpt lat="43.5422290" lon="-6.1079850">
        <ele>96.8</ele>
        <time>2021-07-21T08:12:02Z</time>
      </trkpt>
      <trkpt lat="43.5422170" lon="-6.1080230">
        <ele>97.2</ele>
        <time>2021-07-21T08:12:03Z</time>
      </trkpt>
      <trkpt lat="43.5422020" lon="-6.1080590">
        <ele>97.6</ele>
        <time>2021-07-21T08:12:04Z</time>
      </trkpt>
      <trkpt lat="43.5421880" lon="-6.1080950">
        <ele>98.2</ele>
        <time>2021-07-21T08:12:05Z</time>
      </trkpt>
      <trkpt lat="43.5421730" lon="-6.1081260">
        <ele>98.6</ele>
        <time>2021-07-21T08:12:06Z</time>
      </trkpt>
      <trkpt lat="43.5420850" lon="-6.1082910">
        <ele>98.6</ele>
        <time>2021-07-21T08:12:11Z</time>
      </trkpt>
      <trkpt lat="43.5419440" lon="-6.1084730">
        <ele>98.6</ele>
        <time>2021-07-21T08:12:17Z</time>
      </trkpt>
      <trkpt lat="43.5417700" lon="-6.1086880">
        <ele>98.6</ele>
        <time>2021-07-21T08:12:24Z</time>
      </trkpt>
      <trkpt lat="43.5416430" lon="-6.1088340">
        <ele>98.6</ele>
        <time>2021-07-21T08:12:30Z</time>
      </trkpt>
      <trkpt lat="43.5416790" lon="-6.1089240">
        <ele>98.6</ele>
        <time>2021-07-21T08:12:33Z</time>
      </trkpt>
      <trkpt lat="43.5417010" lon="-6.1089520">
        <ele>99.0</ele>
        <time>2021-07-21T08:12:34Z</time>
      </trkpt>
      <trkpt lat="43.5417230" lon="-6.1089840">
        <ele>99.4</ele>
        <time>2021-07-21T08:12:35Z</time>
      </trkpt>
      <trkpt lat="43.5417460" lon="-6.1090210">
        <ele>99.8</ele>
        <time>2021-07-21T08:12:36Z</time>
      </trkpt>
      <trkpt lat="43.5417700" lon="-6.1090570">
        <ele>100.2</ele>
        <time>2021-07-21T08:12:37Z</time>
      </trkpt>
      <trkpt lat="43.5417950" lon="-6.1090920">
        <ele>100.6</ele>
        <time>2021-07-21T08:12:38Z</time>
      </trkpt>
      <trkpt lat="43.5418210" lon="-6.1091270">
        <ele>100.6</ele>
        <time>2021-07-21T08:12:39Z</time>
      </trkpt>
      <trkpt lat="43.5420070" lon="-6.1093860">
        <ele>100.6</ele>
        <time>2021-07-21T08:12:46Z</time>
      </trkpt>
      <trkpt lat="43.5420330" lon="-6.1094240">
        <ele>100.6</ele>
        <time>2021-07-21T08:12:47Z</time>
      </trkpt>
      <trkpt lat="43.5420860" lon="-6.1094990">
        <ele>100.6</ele>
        <time>2021-07-21T08:12:49Z</time>
      </trkpt>
      <trkpt lat="43.5421380" lon="-6.1095690">
        <ele>100.6</ele>
        <time>2021-07-21T08:12:51Z</time>
      </trkpt>
      <trkpt lat="43.5421900" lon="-6.1096460">
        <ele>100.6</ele>
        <time>2021-07-21T08:12:53Z</time>
      </trkpt>
      <trkpt lat="43.5424110" lon="-6.1100080">
        <ele>100.6</ele>
        <time>2021-07-21T08:13:01Z</time>
      </trkpt>
      <trkpt lat="43.5425650" lon="-6.1104100">
        <ele>100.6</ele>
        <time>2021-07-21T08:13:08Z</time>
      </trkpt>
      <trkpt lat="43.5426010" lon="-6.1105460">
        <ele>100.2</ele>
        <time>2021-07-21T08:13:10Z</time>
      </trkpt>
      <trkpt lat="43.5426190" lon="-6.1106180">
        <ele>99.8</ele>
        <time>2021-07-21T08:13:11Z</time>
      </trkpt>
      <trkpt lat="43.5426370" lon="-6.1106930">
        <ele>99.4</ele>
        <time>2021-07-21T08:13:12Z</time>
      </trkpt>
      <trkpt lat="43.5426550" lon="-6.1107650">
        <ele>99.0</ele>
        <time>2021-07-21T08:13:13Z</time>
      </trkpt>
      <trkpt lat="43.5426730" lon="-6.1108390">
        <ele>98.6</ele>
        <time>2021-07-21T08:13:14Z</time>
      </trkpt>
      <trkpt lat="43.5427090" lon="-6.1109870">
        <ele>98.6</ele>
        <time>2021-07-21T08:13:16Z</time>
      </trkpt>
      <trkpt lat="43.5427630" lon="-6.1112120">
        <ele>98.6</ele>
        <time>2021-07-21T08:13:19Z</time>
      </trkpt>
      <trkpt lat="43.5427800" lon="-6.1112820">
        <ele>98.6</ele>
        <time>2021-07-21T08:13:20Z</time>
      </trkpt>
      <trkpt lat="43.5428170" lon="-6.1114190">
        <ele>98.6</ele>
        <time>2021-07-21T08:13:22Z</time>
      </trkpt>
      <trkpt lat="43.5428710" lon="-6.1116030">
        <ele>98.6</ele>
        <time>2021-07-21T08:13:25Z</time>
      </trkpt>
      <trkpt lat="43.5429530" lon="-6.1118840">
        <ele>98.6</ele>
        <time>2021-07-21T08:13:30Z</time>
      </trkpt>
      <trkpt lat="43.5429700" lon="-6.1119390">
        <ele>98.6</ele>
        <time>2021-07-21T08:13:31Z</time>
      </trkpt>
      <trkpt lat="43.5429880" lon="-6.1119920">
        <ele>98.6</ele>
        <time>2021-07-21T08:13:32Z</time>
      </trkpt>
      <trkpt lat="43.5430190" lon="-6.1121010">
        <ele>98.6</ele>
        <time>2021-07-21T08:13:34Z</time>
      </trkpt>
      <trkpt lat="43.5430460" lon="-6.1122040">
        <ele>98.6</ele>
        <time>2021-07-21T08:13:36Z</time>
      </trkpt>
      <trkpt lat="43.5430850" lon="-6.1123360">
        <ele>98.6</ele>
        <time>2021-07-21T08:13:39Z</time>
      </trkpt>
      <trkpt lat="43.5431410" lon="-6.1124510">
        <ele>98.6</ele>
        <time>2021-07-21T08:13:42Z</time>
      </trkpt>
      <trkpt lat="43.5432020" lon="-6.1125380">
        <ele>98.6</ele>
        <time>2021-07-21T08:13:45Z</time>
      </trkpt>
      <trkpt lat="43.5432410" lon="-6.1125910">
        <ele>98.6</ele>
        <time>2021-07-21T08:13:47Z</time>
      </trkpt>
      <trkpt lat="43.5432840" lon="-6.1126400">
        <ele>98.6</ele>
        <time>2021-07-21T08:13:49Z</time>
      </trkpt>
      <trkpt lat="43.5433270" lon="-6.1126900">
        <ele>98.6</ele>
        <time>2021-07-21T08:13:51Z</time>
      </trkpt>
      <trkpt lat="43.5433840" lon="-6.1127600">
        <ele>98.6</ele>
        <time>2021-07-21T08:13:54Z</time>
      </trkpt>
      <trkpt lat="43.5434090" lon="-6.1128050">
        <ele>98.6</ele>
        <time>2021-07-21T08:13:56Z</time>
      </trkpt>
      <trkpt lat="43.5434140" lon="-6.1128300">
        <ele>98.6</ele>
        <time>2021-07-21T08:13:57Z</time>
      </trkpt>
      <trkpt lat="43.5433890" lon="-6.1128830">
        <ele>99.0</ele>
        <time>2021-07-21T08:14:00Z</time>
      </trkpt>
      <trkpt lat="43.5433660" lon="-6.1128890">
        <ele>99.4</ele>
        <time>2021-07-21T08:14:01Z</time>
      </trkpt>
      <trkpt lat="43.5433410" lon="-6.1128990">
        <ele>99.8</ele>
        <time>2021-07-21T08:14:02Z</time>
      </trkpt>
      <trkpt lat="43.5433180" lon="-6.1129100">
        <ele>100.4</ele>
        <time>2021-07-21T08:14:03Z</time>
      </trkpt>
      <trkpt lat="43.5432910" lon="-6.1129180">
        <ele>100.8</ele>
        <time>2021-07-21T08:14:04Z</time>
      </trkpt>
      <trkpt lat="43.5432060" lon="-6.1129400">
        <ele>100.8</ele>
        <time>2021-07-21T08:14:07Z</time>
      </trkpt>
      <trkpt lat="43.5429520" lon="-6.1130060">
        <ele>100.8</ele>
        <time>2021-07-21T08:14:16Z</time>
      </trkpt>
      <trkpt lat="43.5429180" lon="-6.1130420">
        <ele>100.8</ele>
        <time>2021-07-21T08:14:20Z</time>
      </trkpt>
      <trkpt lat="43.5429250" lon="-6.1131480">
        <ele>100.8</ele>
        <time>2021-07-21T08:14:25Z</time>
      </trkpt>
      <trkpt lat="43.5429810" lon="-6.1133120">
        <ele>101.6</ele>
        <time>2021-07-21T08:14:30Z</time>
      </trkpt>
      <trkpt lat="43.5429910" lon="-6.1133480">
        <ele>102.0</ele>
        <time>2021-07-21T08:14:31Z</time>
      </trkpt>
      <trkpt lat="43.5430010" lon="-6.1133840">
        <ele>102.4</ele>
        <time>2021-07-21T08:14:32Z</time>
      </trkpt>
      <trkpt lat="43.5430100" lon="-6.1134220">
        <ele>102.8</ele>
        <time>2021-07-21T08:14:33Z</time>
      </trkpt>
      <trkpt lat="43.5430480" lon="-6.1135940">
        <ele>102.8</ele>
        <time>2021-07-21T08:14:38Z</time>
      </trkpt>
      <trkpt lat="43.5430530" lon="-6.1137010">
        <ele>103.2</ele>
        <time>2021-07-21T08:14:41Z</time>
      </trkpt>
      <trkpt lat="43.5430560" lon="-6.1137380">
        <ele>103.6</ele>
        <time>2021-07-21T08:14:42Z</time>
      </trkpt>
      <trkpt lat="43.5430580" lon="-6.1137730">
        <ele>104.0</ele>
        <time>2021-07-21T08:14:43Z</time>
      </trkpt>
      <trkpt lat="43.5430600" lon="-6.1138070">
        <ele>104.4</ele>
        <time>2021-07-21T08:14:44Z</time>
      </trkpt>
      <trkpt lat="43.5430630" lon="-6.1138420">
        <ele>104.8</ele>
        <time>2021-07-21T08:14:45Z</time>
      </trkpt>
      <trkpt lat="43.5430640" lon="-6.1138780">
        <ele>104.8</ele>
        <time>2021-07-21T08:14:46Z</time>
      </trkpt>
      <trkpt lat="43.5430820" lon="-6.1141120">
        <ele>104.8</ele>
        <time>2021-07-21T08:14:53Z</time>
      </trkpt>
      <trkpt lat="43.5430830" lon="-6.1141480">
        <ele>105.2</ele>
        <time>2021-07-21T08:14:54Z</time>
      </trkpt>
      <trkpt lat="43.5430840" lon="-6.1141820">
        <ele>106.0</ele>
        <time>2021-07-21T08:14:55Z</time>
      </trkpt>
      <trkpt lat="43.5430850" lon="-6.1142160">
        <ele>106.4</ele>
        <time>2021-07-21T08:14:56Z</time>
      </trkpt>
      <trkpt lat="43.5430890" lon="-6.1142530">
        <ele>107.0</ele>
        <time>2021-07-21T08:14:57Z</time>
      </trkpt>
      <trkpt lat="43.5430930" lon="-6.1144570">
        <ele>107.0</ele>
        <time>2021-07-21T08:15:03Z</time>
      </trkpt>
      <trkpt lat="43.5431440" lon="-6.1147110">
        <ele>107.0</ele>
        <time>2021-07-21T08:15:10Z</time>
      </trkpt>
      <trkpt lat="43.5431070" lon="-6.1149640">
        <ele>107.0</ele>
        <time>2021-07-21T08:15:16Z</time>
      </trkpt>
      <trkpt lat="43.5430280" lon="-6.1153050">
        <ele>107.0</ele>
        <time>2021-07-21T08:15:24Z</time>
      </trkpt>
      <trkpt lat="43.5430080" lon="-6.1154860">
        <ele>107.0</ele>
        <time>2021-07-21T08:15:28Z</time>
      </trkpt>
      <trkpt lat="43.5430000" lon="-6.1155850">
        <ele>107.0</ele>
        <time>2021-07-21T08:15:30Z</time>
      </trkpt>
      <trkpt lat="43.5429960" lon="-6.1156750">
        <ele>107.0</ele>
        <time>2021-07-21T08:15:32Z</time>
      </trkpt>
      <trkpt lat="43.5429930" lon="-6.1157670">
        <ele>107.0</ele>
        <time>2021-07-21T08:15:34Z</time>
      </trkpt>
      <trkpt lat="43.5429980" lon="-6.1158950">
        <ele>107.0</ele>
        <time>2021-07-21T08:15:37Z</time>
      </trkpt>
      <trkpt lat="43.5430000" lon="-6.1159780">
        <ele>107.0</ele>
        <time>2021-07-21T08:15:39Z</time>
      </trkpt>
      <trkpt lat="43.5430010" lon="-6.1160190">
        <ele>107.0</ele>
        <time>2021-07-21T08:15:40Z</time>
      </trkpt>
      <trkpt lat="43.5430040" lon="-6.1161160">
        <ele>107.0</ele>
        <time>2021-07-21T08:15:42Z</time>
      </trkpt>
      <trkpt lat="43.5430220" lon="-6.1163680">
        <ele>107.0</ele>
        <time>2021-07-21T08:15:47Z</time>
      </trkpt>
      <trkpt lat="43.5430570" lon="-6.1165270">
        <ele>107.0</ele>
        <time>2021-07-21T08:15:50Z</time>
      </trkpt>
      <trkpt lat="43.5430800" lon="-6.1165840">
        <ele>107.0</ele>
        <time>2021-07-21T08:15:51Z</time>
      </trkpt>
      <trkpt lat="43.5431310" lon="-6.1167040">
        <ele>107.0</ele>
        <time>2021-07-21T08:15:53Z</time>
      </trkpt>
      <trkpt lat="43.5432520" lon="-6.1170810">
        <ele>107.0</ele>
        <time>2021-07-21T08:15:59Z</time>
      </trkpt>
      <trkpt lat="43.5432710" lon="-6.1171400">
        <ele>106.4</ele>
        <time>2021-07-21T08:16:00Z</time>
      </trkpt>
      <trkpt lat="43.5432890" lon="-6.1171950">
        <ele>106.0</ele>
        <time>2021-07-21T08:16:01Z</time>
      </trkpt>
      <trkpt lat="43.5433060" lon="-6.1172500">
        <ele>105.6</ele>
        <time>2021-07-21T08:16:02Z</time>
      </trkpt>
      <trkpt lat="43.5433240" lon="-6.1173120">
        <ele>105.2</ele>
        <time>2021-07-21T08:16:03Z</time>
      </trkpt>
      <trkpt lat="43.5433410" lon="-6.1173740">
        <ele>104.8</ele>
        <time>2021-07-21T08:16:04Z</time>
      </trkpt>
      <trkpt lat="43.5433580" lon="-6.1174350">
        <ele>104.2</ele>
        <time>2021-07-21T08:16:05Z</time>
      </trkpt>
      <trkpt lat="43.5433730" lon="-6.1174970">
        <ele>103.8</ele>
        <time>2021-07-21T08:16:06Z</time>
      </trkpt>
      <trkpt lat="43.5433920" lon="-6.1175640">
        <ele>103.2</ele>
        <time>2021-07-21T08:16:07Z</time>
      </trkpt>
      <trkpt lat="43.5434110" lon="-6.1176350">
        <ele>102.8</ele>
        <time>2021-07-21T08:16:08Z</time>
      </trkpt>
      <trkpt lat="43.5434480" lon="-6.1177630">
        <ele>102.8</ele>
        <time>2021-07-21T08:16:10Z</time>
      </trkpt>
      <trkpt lat="43.5434630" lon="-6.1178240">
        <ele>102.2</ele>
        <time>2021-07-21T08:16:11Z</time>
      </trkpt>
      <trkpt lat="43.5434800" lon="-6.1178820">
        <ele>101.8</ele>
        <time>2021-07-21T08:16:12Z</time>
      </trkpt>
      <trkpt lat="43.5434960" lon="-6.1179390">
        <ele>101.4</ele>
        <time>2021-07-21T08:16:13Z</time>
      </trkpt>
      <trkpt lat="43.5435110" lon="-6.1179980">
        <ele>100.8</ele>
        <time>2021-07-21T08:16:14Z</time>
      </trkpt>
      <trkpt lat="43.5435200" lon="-6.1180470">
        <ele>100.4</ele>
        <time>2021-07-21T08:16:15Z</time>
      </trkpt>
      <trkpt lat="43.5435550" lon="-6.1181690">
        <ele>100.4</ele>
        <time>2021-07-21T08:16:18Z</time>
      </trkpt>
      <trkpt lat="43.5435640" lon="-6.1182030">
        <ele>100.4</ele>
        <time>2021-07-21T08:16:19Z</time>
      </trkpt>
      <trkpt lat="43.5435860" lon="-6.1182990">
        <ele>99.4</ele>
        <time>2021-07-21T08:16:22Z</time>
      </trkpt>
      <trkpt lat="43.5435920" lon="-6.1183280">
        <ele>99.0</ele>
        <time>2021-07-21T08:16:23Z</time>
      </trkpt>
      <trkpt lat="43.5435960" lon="-6.1183540">
        <ele>98.4</ele>
        <time>2021-07-21T08:16:24Z</time>
      </trkpt>
      <trkpt lat="43.5436010" lon="-6.1183800">
        <ele>97.8</ele>
        <time>2021-07-21T08:16:25Z</time>
      </trkpt>
      <trkpt lat="43.5436050" lon="-6.1184060">
        <ele>97.4</ele>
        <time>2021-07-21T08:16:26Z</time>
      </trkpt>
      <trkpt lat="43.5436080" lon="-6.1184330">
        <ele>96.8</ele>
        <time>2021-07-21T08:16:27Z</time>
      </trkpt>
      <trkpt lat="43.5436130" lon="-6.1184610">
        <ele>96.2</ele>
        <time>2021-07-21T08:16:28Z</time>
      </trkpt>
      <trkpt lat="43.5436210" lon="-6.1184840">
        <ele>95.6</ele>
        <time>2021-07-21T08:16:29Z</time>
      </trkpt>
      <trkpt lat="43.5436280" lon="-6.1184940">
        <ele>95.2</ele>
        <time>2021-07-21T08:16:30Z</time>
      </trkpt>
      <trkpt lat="43.5436300" lon="-6.1184920">
        <ele>94.8</ele>
        <time>2021-07-21T08:16:31Z</time>
      </trkpt>
      <trkpt lat="43.5436360" lon="-6.1184970">
        <ele>94.4</ele>
        <time>2021-07-21T08:16:32Z</time>
      </trkpt>
      <trkpt lat="43.5436430" lon="-6.1185120">
        <ele>93.8</ele>
        <time>2021-07-21T08:16:33Z</time>
      </trkpt>
      <trkpt lat="43.5436470" lon="-6.1185280">
        <ele>93.4</ele>
        <time>2021-07-21T08:16:34Z</time>
      </trkpt>
      <trkpt lat="43.5436510" lon="-6.1185530">
        <ele>93.4</ele>
        <time>2021-07-21T08:16:35Z</time>
      </trkpt>
      <trkpt lat="43.5436560" lon="-6.1186470">
        <ele>93.4</ele>
        <time>2021-07-21T08:16:38Z</time>
      </trkpt>
      <trkpt lat="43.5436720" lon="-6.1188110">
        <ele>93.0</ele>
        <time>2021-07-21T08:16:42Z</time>
      </trkpt>
      <trkpt lat="43.5436790" lon="-6.1188520">
        <ele>92.4</ele>
        <time>2021-07-21T08:16:43Z</time>
      </trkpt>
      <trkpt lat="43.5436820" lon="-6.1188950">
        <ele>92.0</ele>
        <time>2021-07-21T08:16:44Z</time>
      </trkpt>
      <trkpt lat="43.5436840" lon="-6.1189400">
        <ele>91.4</ele>
        <time>2021-07-21T08:16:45Z</time>
      </trkpt>
      <trkpt lat="43.5436810" lon="-6.1190020">
        <ele>91.0</ele>
        <time>2021-07-21T08:16:46Z</time>
      </trkpt>
      <trkpt lat="43.5436820" lon="-6.1190590">
        <ele>90.6</ele>
        <time>2021-07-21T08:16:47Z</time>
      </trkpt>
      <trkpt lat="43.5436830" lon="-6.1190950">
        <ele>90.2</ele>
        <time>2021-07-21T08:16:48Z</time>
      </trkpt>
      <trkpt lat="43.5436930" lon="-6.1191430">
        <ele>89.8</ele>
        <time>2021-07-21T08:16:49Z</time>
      </trkpt>
      <trkpt lat="43.5437080" lon="-6.1191800">
        <ele>89.4</ele>
        <time>2021-07-21T08:16:50Z</time>
      </trkpt>
      <trkpt lat="43.5437270" lon="-6.1192170">
        <ele>88.8</ele>
        <time>2021-07-21T08:16:51Z</time>
      </trkpt>
      <trkpt lat="43.5437510" lon="-6.1192460">
        <ele>88.4</ele>
        <time>2021-07-21T08:16:52Z</time>
      </trkpt>
      <trkpt lat="43.5437670" lon="-6.1192580">
        <ele>87.8</ele>
        <time>2021-07-21T08:16:53Z</time>
      </trkpt>
      <trkpt lat="43.5437930" lon="-6.1192570">
        <ele>87.4</ele>
        <time>2021-07-21T08:16:54Z</time>
      </trkpt>
      <trkpt lat="43.5438090" lon="-6.1192510">
        <ele>86.8</ele>
        <time>2021-07-21T08:16:55Z</time>
      </trkpt>
      <trkpt lat="43.5438340" lon="-6.1192140">
        <ele>86.8</ele>
        <time>2021-07-21T08:16:57Z</time>
      </trkpt>
      <trkpt lat="43.5438580" lon="-6.1191400">
        <ele>86.8</ele>
        <time>2021-07-21T08:17:00Z</time>
      </trkpt>
      <trkpt lat="43.5438760" lon="-6.1190820">
        <ele>86.4</ele>
        <time>2021-07-21T08:17:02Z</time>
      </trkpt>
      <trkpt lat="43.5438800" lon="-6.1190560">
        <ele>86.0</ele>
        <time>2021-07-21T08:17:03Z</time>
      </trkpt>
      <trkpt lat="43.5438800" lon="-6.1190410">
        <ele>85.6</ele>
        <time>2021-07-21T08:17:04Z</time>
      </trkpt>
      <trkpt lat="43.5438850" lon="-6.1190240">
        <ele>85.2</ele>
        <time>2021-07-21T08:17:05Z</time>
      </trkpt>
      <trkpt lat="43.5438850" lon="-6.1190020">
        <ele>84.8</ele>
        <time>2021-07-21T08:17:06Z</time>
      </trkpt>
      <trkpt lat="43.5438840" lon="-6.1189630">
        <ele>84.8</ele>
        <time>2021-07-21T08:17:08Z</time>
      </trkpt>
      <trkpt lat="43.5438820" lon="-6.1189010">
        <ele>84.0</ele>
        <time>2021-07-21T08:17:11Z</time>
      </trkpt>
      <trkpt lat="43.5438780" lon="-6.1188730">
        <ele>83.6</ele>
        <time>2021-07-21T08:17:12Z</time>
      </trkpt>
      <trkpt lat="43.5438790" lon="-6.1188420">
        <ele>83.0</ele>
        <time>2021-07-21T08:17:13Z</time>
      </trkpt>
      <trkpt lat="43.5438820" lon="-6.1188160">
        <ele>82.6</ele>
        <time>2021-07-21T08:17:14Z</time>
      </trkpt>
      <trkpt lat="43.5438800" lon="-6.1187820">
        <ele>82.2</ele>
        <time>2021-07-21T08:17:15Z</time>
      </trkpt>
      <trkpt lat="43.5438820" lon="-6.1187530">
        <ele>81.8</ele>
        <time>2021-07-21T08:17:16Z</time>
      </trkpt>
      <trkpt lat="43.5438840" lon="-6.1187260">
        <ele>81.4</ele>
        <time>2021-07-21T08:17:17Z</time>
      </trkpt>
      <trkpt lat="43.5438870" lon="-6.1186980">
        <ele>81.0</ele>
        <time>2021-07-21T08:17:18Z</time>
      </trkpt>
      <trkpt lat="43.5438910" lon="-6.1186710">
        <ele>80.6</ele>
        <time>2021-07-21T08:17:19Z</time>
      </trkpt>
      <trkpt lat="43.5439150" lon="-6.1186030">
        <ele>80.6</ele>
        <time>2021-07-21T08:17:23Z</time>
      </trkpt>
      <trkpt lat="43.5439240" lon="-6.1185830">
        <ele>80.2</ele>
        <time>2021-07-21T08:17:24Z</time>
      </trkpt>
      <trkpt lat="43.5443020" lon="-6.1188530">
        <ele>76.6</ele>
        <time>2021-07-21T08:19:02Z</time>
      </trkpt>
      <trkpt lat="43.5443440" lon="-6.1189210">
        <ele>76.6</ele>
        <time>2021-07-21T08:19:05Z</time>
      </trkpt>
      <trkpt lat="43.5443600" lon="-6.1189440">
        <ele>76.2</ele>
        <time>2021-07-21T08:19:06Z</time>
      </trkpt>
      <trkpt lat="43.5443760" lon="-6.1189680">
        <ele>75.8</ele>
        <time>2021-07-21T08:19:07Z</time>
      </trkpt>
      <trkpt lat="43.5443910" lon="-6.1189900">
        <ele>75.4</ele>
        <time>2021-07-21T08:19:08Z</time>
      </trkpt>
      <trkpt lat="43.5444070" lon="-6.1190040">
        <ele>75.0</ele>
        <time>2021-07-21T08:19:09Z</time>
      </trkpt>
      <trkpt lat="43.5444200" lon="-6.1190170">
        <ele>74.6</ele>
        <time>2021-07-21T08:19:10Z</time>
      </trkpt>
      <trkpt lat="43.5444430" lon="-6.1190400">
        <ele>74.6</ele>
        <time>2021-07-21T08:19:13Z</time>
      </trkpt>
      <trkpt lat="43.5446600" lon="-6.1192020">
        <ele>72.0</ele>
        <time>2021-07-21T08:19:31Z</time>
      </trkpt>
      <trkpt lat="43.5446850" lon="-6.1192140">
        <ele>71.6</ele>
        <time>2021-07-21T08:19:32Z</time>
      </trkpt>
      <trkpt lat="43.5447130" lon="-6.1192250">
        <ele>71.2</ele>
        <time>2021-07-21T08:19:33Z</time>
      </trkpt>
      <trkpt lat="43.5447450" lon="-6.1192370">
        <ele>70.8</ele>
        <time>2021-07-21T08:19:34Z</time>
      </trkpt>
      <trkpt lat="43.5447790" lon="-6.1192500">
        <ele>70.4</ele>
        <time>2021-07-21T08:19:35Z</time>
      </trkpt>
      <trkpt lat="43.5449290" lon="-6.1193490">
        <ele>70.4</ele>
        <time>2021-07-21T08:19:39Z</time>
      </trkpt>
      <trkpt lat="43.5449620" lon="-6.1193760">
        <ele>70.4</ele>
        <time>2021-07-21T08:19:40Z</time>
      </trkpt>
      <trkpt lat="43.5449950" lon="-6.1193930">
        <ele>69.8</ele>
        <time>2021-07-21T08:19:41Z</time>
      </trkpt>
      <trkpt lat="43.5450230" lon="-6.1194100">
        <ele>69.4</ele>
        <time>2021-07-21T08:19:42Z</time>
      </trkpt>
      <trkpt lat="43.5450560" lon="-6.1194220">
        <ele>69.0</ele>
        <time>2021-07-21T08:19:43Z</time>
      </trkpt>
      <trkpt lat="43.5450890" lon="-6.1194280">
        <ele>68.4</ele>
        <time>2021-07-21T08:19:44Z</time>
      </trkpt>
      <trkpt lat="43.5451160" lon="-6.1194400">
        <ele>68.0</ele>
        <time>2021-07-21T08:19:45Z</time>
      </trkpt>
      <trkpt lat="43.5451360" lon="-6.1194570">
        <ele>68.0</ele>
        <time>2021-07-21T08:19:46Z</time>
      </trkpt>
      <trkpt lat="43.5451830" lon="-6.1194820">
        <ele>67.6</ele>
        <time>2021-07-21T08:19:48Z</time>
      </trkpt>
      <trkpt lat="43.5452040" lon="-6.1194900">
        <ele>67.2</ele>
        <time>2021-07-21T08:19:49Z</time>
      </trkpt>
      <trkpt lat="43.5452200" lon="-6.1195030">
        <ele>66.8</ele>
        <time>2021-07-21T08:19:50Z</time>
      </trkpt>
      <trkpt lat="43.5452390" lon="-6.1195210">
        <ele>66.4</ele>
        <time>2021-07-21T08:19:51Z</time>
      </trkpt>
      <trkpt lat="43.5452590" lon="-6.1195330">
        <ele>66.0</ele>
        <time>2021-07-21T08:19:52Z</time>
      </trkpt>
      <trkpt lat="43.5452730" lon="-6.1195430">
        <ele>66.0</ele>
        <time>2021-07-21T08:19:53Z</time>
      </trkpt>
      <trkpt lat="43.5453700" lon="-6.1196040">
        <ele>65.6</ele>
        <time>2021-07-21T08:19:59Z</time>
      </trkpt>
      <trkpt lat="43.5453780" lon="-6.1196200">
        <ele>65.2</ele>
        <time>2021-07-21T08:20:00Z</time>
      </trkpt>
      <trkpt lat="43.5453830" lon="-6.1196280">
        <ele>64.6</ele>
        <time>2021-07-21T08:20:01Z</time>
      </trkpt>
      <trkpt lat="43.5454060" lon="-6.1196500">
        <ele>64.2</ele>
        <time>2021-07-21T08:20:02Z</time>
      </trkpt>
      <trkpt lat="43.5454260" lon="-6.1196720">
        <ele>63.8</ele>
        <time>2021-07-21T08:20:03Z</time>
      </trkpt>
      <trkpt lat="43.5454550" lon="-6.1197110">
        <ele>63.8</ele>
        <time>2021-07-21T08:20:05Z</time>
      </trkpt>
      <trkpt lat="43.5454690" lon="-6.1197320">
        <ele>63.4</ele>
        <time>2021-07-21T08:20:06Z</time>
      </trkpt>
      <trkpt lat="43.5454930" lon="-6.1197530">
        <ele>63.0</ele>
        <time>2021-07-21T08:20:07Z</time>
      </trkpt>
      <trkpt lat="43.5455020" lon="-6.1197630">
        <ele>62.6</ele>
        <time>2021-07-21T08:20:08Z</time>
      </trkpt>
      <trkpt lat="43.5455150" lon="-6.1197770">
        <ele>62.2</ele>
        <time>2021-07-21T08:20:09Z</time>
      </trkpt>
      <trkpt lat="43.5455320" lon="-6.1197920">
        <ele>61.6</ele>
        <time>2021-07-21T08:20:10Z</time>
      </trkpt>
      <trkpt lat="43.5455670" lon="-6.1198250">
        <ele>61.6</ele>
        <time>2021-07-21T08:20:12Z</time>
      </trkpt>
      <trkpt lat="43.5456300" lon="-6.1198700">
        <ele>61.2</ele>
        <time>2021-07-21T08:20:15Z</time>
      </trkpt>
      <trkpt lat="43.5456480" lon="-6.1198980">
        <ele>60.8</ele>
        <time>2021-07-21T08:20:16Z</time>
      </trkpt>
      <trkpt lat="43.5456640" lon="-6.1199190">
        <ele>60.4</ele>
        <time>2021-07-21T08:20:17Z</time>
      </trkpt>
      <trkpt lat="43.5456800" lon="-6.1199340">
        <ele>60.0</ele>
        <time>2021-07-21T08:20:18Z</time>
      </trkpt>
      <trkpt lat="43.5456960" lon="-6.1199500">
        <ele>59.6</ele>
        <time>2021-07-21T08:20:19Z</time>
      </trkpt>
      <trkpt lat="43.5457800" lon="-6.1200570">
        <ele>59.6</ele>
        <time>2021-07-21T08:20:24Z</time>
      </trkpt>
      <trkpt lat="43.5458460" lon="-6.1201310">
        <ele>59.2</ele>
        <time>2021-07-21T08:20:27Z</time>
      </trkpt>
      <trkpt lat="43.5458670" lon="-6.1201880">
        <ele>58.8</ele>
        <time>2021-07-21T08:20:28Z</time>
      </trkpt>
      <trkpt lat="43.5458870" lon="-6.1202170">
        <ele>57.8</ele>
        <time>2021-07-21T08:20:29Z</time>
      </trkpt>
      <trkpt lat="43.5459060" lon="-6.1202470">
        <ele>57.4</ele>
        <time>2021-07-21T08:20:30Z</time>
      </trkpt>
      <trkpt lat="43.5459220" lon="-6.1202610">
        <ele>57.4</ele>
        <time>2021-07-21T08:20:31Z</time>
      </trkpt>
      <trkpt lat="43.5460420" lon="-6.1203910">
        <ele>57.0</ele>
        <time>2021-07-21T08:20:36Z</time>
      </trkpt>
      <trkpt lat="43.5460720" lon="-6.1204100">
        <ele>56.6</ele>
        <time>2021-07-21T08:20:37Z</time>
      </trkpt>
      <trkpt lat="43.5460980" lon="-6.1204230">
        <ele>56.0</ele>
        <time>2021-07-21T08:20:38Z</time>
      </trkpt>
      <trkpt lat="43.5461140" lon="-6.1204310">
        <ele>55.6</ele>
        <time>2021-07-21T08:20:39Z</time>
      </trkpt>
      <trkpt lat="43.5461410" lon="-6.1204420">
        <ele>55.2</ele>
        <time>2021-07-21T08:20:40Z</time>
      </trkpt>
      <trkpt lat="43.5462160" lon="-6.1204900">
        <ele>54.6</ele>
        <time>2021-07-21T08:20:43Z</time>
      </trkpt>
      <trkpt lat="43.5462370" lon="-6.1205070">
        <ele>54.2</ele>
        <time>2021-07-21T08:20:44Z</time>
      </trkpt>
      <trkpt lat="43.5462560" lon="-6.1205170">
        <ele>53.8</ele>
        <time>2021-07-21T08:20:45Z</time>
      </trkpt>
      <trkpt lat="43.5462760" lon="-6.1205260">
        <ele>53.4</ele>
        <time>2021-07-21T08:20:46Z</time>
      </trkpt>
      <trkpt lat="43.5462980" lon="-6.1205390">
        <ele>53.0</ele>
        <time>2021-07-21T08:20:47Z</time>
      </trkpt>
      <trkpt lat="43.5464100" lon="-6.1206120">
        <ele>52.6</ele>
        <time>2021-07-21T08:20:52Z</time>
      </trkpt>
      <trkpt lat="43.5464310" lon="-6.1206260">
        <ele>51.6</ele>
        <time>2021-07-21T08:20:53Z</time>
      </trkpt>
      <trkpt lat="43.5464540" lon="-6.1206370">
        <ele>51.2</ele>
        <time>2021-07-21T08:20:54Z</time>
      </trkpt>
      <trkpt lat="43.5464710" lon="-6.1206470">
        <ele>50.8</ele>
        <time>2021-07-21T08:20:55Z</time>
      </trkpt>
      <trkpt lat="43.5465590" lon="-6.1206970">
        <ele>50.4</ele>
        <time>2021-07-21T08:20:58Z</time>
      </trkpt>
      <trkpt lat="43.5465860" lon="-6.1207170">
        <ele>50.0</ele>
        <time>2021-07-21T08:20:59Z</time>
      </trkpt>
      <trkpt lat="43.5466100" lon="-6.1207410">
        <ele>49.6</ele>
        <time>2021-07-21T08:21:00Z</time>
      </trkpt>
      <trkpt lat="43.5466300" lon="-6.1207700">
        <ele>49.2</ele>
        <time>2021-07-21T08:21:01Z</time>
      </trkpt>
      <trkpt lat="43.5466470" lon="-6.1207930">
        <ele>48.8</ele>
        <time>2021-07-21T08:21:02Z</time>
      </trkpt>
      <trkpt lat="43.5466850" lon="-6.1208290">
        <ele>48.8</ele>
        <time>2021-07-21T08:21:04Z</time>
      </trkpt>
      <trkpt lat="43.5467730" lon="-6.1209010">
        <ele>48.8</ele>
        <time>2021-07-21T08:21:08Z</time>
      </trkpt>
      <trkpt lat="43.5467930" lon="-6.1209490">
        <ele>48.2</ele>
        <time>2021-07-21T08:21:10Z</time>
      </trkpt>
      <trkpt lat="43.5468020" lon="-6.1209610">
        <ele>47.8</ele>
        <time>2021-07-21T08:21:11Z</time>
      </trkpt>
      <trkpt lat="43.5468110" lon="-6.1209960">
        <ele>47.4</ele>
        <time>2021-07-21T08:21:12Z</time>
      </trkpt>
      <trkpt lat="43.5468250" lon="-6.1210340">
        <ele>47.0</ele>
        <time>2021-07-21T08:21:13Z</time>
      </trkpt>
      <trkpt lat="43.5468390" lon="-6.1210750">
        <ele>46.4</ele>
        <time>2021-07-21T08:21:14Z</time>
      </trkpt>
      <trkpt lat="43.5468830" lon="-6.1212200">
        <ele>46.4</ele>
        <time>2021-07-21T08:21:17Z</time>
      </trkpt>
      <trkpt lat="43.5468960" lon="-6.1212360">
        <ele>45.6</ele>
        <time>2021-07-21T08:21:18Z</time>
      </trkpt>
      <trkpt lat="43.5469130" lon="-6.1212790">
        <ele>45.2</ele>
        <time>2021-07-21T08:21:19Z</time>
      </trkpt>
      <trkpt lat="43.5469320" lon="-6.1213390">
        <ele>44.8</ele>
        <time>2021-07-21T08:21:20Z</time>
      </trkpt>
      <trkpt lat="43.5469470" lon="-6.1213820">
        <ele>44.4</ele>
        <time>2021-07-21T08:21:21Z</time>
      </trkpt>
      <trkpt lat="43.5469730" lon="-6.1214540">
        <ele>44.4</ele>
        <time>2021-07-21T08:21:23Z</time>
      </trkpt>
      <trkpt lat="43.5470170" lon="-6.1215670">
        <ele>44.0</ele>
        <time>2021-07-21T08:21:27Z</time>
      </trkpt>
      <trkpt lat="43.5470290" lon="-6.1215930">
        <ele>43.6</ele>
        <time>2021-07-21T08:21:28Z</time>
      </trkpt>
      <trkpt lat="43.5470390" lon="-6.1216180">
        <ele>43.0</ele>
        <time>2021-07-21T08:21:29Z</time>
      </trkpt>
      <trkpt lat="43.5470490" lon="-6.1216400">
        <ele>42.6</ele>
        <time>2021-07-21T08:21:30Z</time>
      </trkpt>
      <trkpt lat="43.5470590" lon="-6.1216620">
        <ele>42.2</ele>
        <time>2021-07-21T08:21:31Z</time>
      </trkpt>
      <trkpt lat="43.5470750" lon="-6.1216840">
        <ele>42.2</ele>
        <time>2021-07-21T08:21:34Z</time>
      </trkpt>
      <trkpt lat="43.5470810" lon="-6.1217020">
        <ele>42.2</ele>
        <time>2021-07-21T08:21:35Z</time>
      </trkpt>
      <trkpt lat="43.5475980" lon="-6.1218510">
        <ele>25.6</ele>
        <time>2021-07-21T08:23:07Z</time>
      </trkpt>
      <trkpt lat="43.5475960" lon="-6.1218960">
        <ele>25.6</ele>
        <time>2021-07-21T08:23:09Z</time>
      </trkpt>
      <trkpt lat="43.5476100" lon="-6.1219630">
        <ele>25.2</ele>
        <time>2021-07-21T08:23:12Z</time>
      </trkpt>
      <trkpt lat="43.5476200" lon="-6.1219910">
        <ele>24.8</ele>
        <time>2021-07-21T08:23:13Z</time>
      </trkpt>
      <trkpt lat="43.5476300" lon="-6.1220180">
        <ele>24.2</ele>
        <time>2021-07-21T08:23:14Z</time>
      </trkpt>
      <trkpt lat="43.5476370" lon="-6.1220420">
        <ele>23.8</ele>
        <time>2021-07-21T08:23:15Z</time>
      </trkpt>
      <trkpt lat="43.5476440" lon="-6.1220620">
        <ele>23.4</ele>
        <time>2021-07-21T08:23:16Z</time>
      </trkpt>
      <trkpt lat="43.5476500" lon="-6.1220810">
        <ele>23.4</ele>
        <time>2021-07-21T08:23:17Z</time>
      </trkpt>
      <trkpt lat="43.5476510" lon="-6.1221250">
        <ele>23.4</ele>
        <time>2021-07-21T08:23:19Z</time>
      </trkpt>
      <trkpt lat="43.5476250" lon="-6.1221940">
        <ele>23.4</ele>
        <time>2021-07-21T08:24:05Z</time>
      </trkpt>
      <trkpt lat="43.5476400" lon="-6.1222000">
        <ele>23.4</ele>
        <time>2021-07-21T08:24:06Z</time>
      </trkpt>
      <trkpt lat="43.5476530" lon="-6.1222040">
        <ele>23.4</ele>
        <time>2021-07-21T08:24:07Z</time>
      </trkpt>
      <trkpt lat="43.5476910" lon="-6.1221960">
        <ele>23.4</ele>
        <time>2021-07-21T08:24:10Z</time>
      </trkpt>
      <trkpt lat="43.5477670" lon="-6.1221690">
        <ele>23.4</ele>
        <time>2021-07-21T08:24:15Z</time>
      </trkpt>
      <trkpt lat="43.5478480" lon="-6.1221480">
        <ele>23.8</ele>
        <time>2021-07-21T08:24:20Z</time>
      </trkpt>
      <trkpt lat="43.5478620" lon="-6.1221480">
        <ele>24.4</ele>
        <time>2021-07-21T08:24:21Z</time>
      </trkpt>
      <trkpt lat="43.5478720" lon="-6.1221450">
        <ele>24.8</ele>
        <time>2021-07-21T08:24:22Z</time>
      </trkpt>
      <trkpt lat="43.5478820" lon="-6.1221430">
        <ele>25.2</ele>
        <time>2021-07-21T08:24:23Z</time>
      </trkpt>
      <trkpt lat="43.5478870" lon="-6.1221380">
        <ele>25.6</ele>
        <time>2021-07-21T08:24:24Z</time>
      </trkpt>
      <trkpt lat="43.5481260" lon="-6.1220530">
        <ele>27.6</ele>
        <time>2021-07-21T08:24:40Z</time>
      </trkpt>
      <trkpt lat="43.5481560" lon="-6.1220410">
        <ele>27.6</ele>
        <time>2021-07-21T08:24:42Z</time>
      </trkpt>
      <trkpt lat="43.5481800" lon="-6.1220230">
        <ele>28.0</ele>
        <time>2021-07-21T08:24:44Z</time>
      </trkpt>
      <trkpt lat="43.5481910" lon="-6.1220150">
        <ele>28.6</ele>
        <time>2021-07-21T08:24:45Z</time>
      </trkpt>
      <trkpt lat="43.5482020" lon="-6.1220050">
        <ele>29.0</ele>
        <time>2021-07-21T08:24:46Z</time>
      </trkpt>
      <trkpt lat="43.5482160" lon="-6.1219960">
        <ele>29.4</ele>
        <time>2021-07-21T08:24:47Z</time>
      </trkpt>
      <trkpt lat="43.5482330" lon="-6.1219890">
        <ele>29.8</ele>
        <time>2021-07-21T08:24:48Z</time>
      </trkpt>
      <trkpt lat="43.5483020" lon="-6.1219260">
        <ele>30.2</ele>
        <time>2021-07-21T08:24:53Z</time>
      </trkpt>
      <trkpt lat="43.5483180" lon="-6.1219140">
        <ele>30.6</ele>
        <time>2021-07-21T08:24:54Z</time>
      </trkpt>
      <trkpt lat="43.5483340" lon="-6.1219000">
        <ele>31.0</ele>
        <time>2021-07-21T08:24:55Z</time>
      </trkpt>
      <trkpt lat="43.5483460" lon="-6.1218900">
        <ele>31.4</ele>
        <time>2021-07-21T08:24:56Z</time>
      </trkpt>
      <trkpt lat="43.5483600" lon="-6.1218800">
        <ele>31.8</ele>
        <time>2021-07-21T08:24:57Z</time>
      </trkpt>
      <trkpt lat="43.5483970" lon="-6.1218410">
        <ele>31.8</ele>
        <time>2021-07-21T08:25:00Z</time>
      </trkpt>
      <trkpt lat="43.5484230" lon="-6.1218260">
        <ele>31.8</ele>
        <time>2021-07-21T08:25:02Z</time>
      </trkpt>
      <trkpt lat="43.5484620" lon="-6.1218640">
        <ele>31.8</ele>
        <time>2021-07-21T08:25:05Z</time>
      </trkpt>
      <trkpt lat="43.5484800" lon="-6.1219070">
        <ele>31.8</ele>
        <time>2021-07-21T08:25:07Z</time>
      </trkpt>
      <trkpt lat="43.5484950" lon="-6.1219950">
        <ele>31.8</ele>
        <time>2021-07-21T08:25:10Z</time>
      </trkpt>
      <trkpt lat="43.5485230" lon="-6.1222100">
        <ele>31.8</ele>
        <time>2021-07-21T08:25:16Z</time>
      </trkpt>
      <trkpt lat="43.5485570" lon="-6.1224000">
        <ele>31.8</ele>
        <time>2021-07-21T08:25:22Z</time>
      </trkpt>
      <trkpt lat="43.5485940" lon="-6.1225460">
        <ele>32.2</ele>
        <time>2021-07-21T08:25:27Z</time>
      </trkpt>
      <trkpt lat="43.5486020" lon="-6.1225710">
        <ele>32.6</ele>
        <time>2021-07-21T08:25:28Z</time>
      </trkpt>
      <trkpt lat="43.5486080" lon="-6.1225990">
        <ele>33.0</ele>
        <time>2021-07-21T08:25:29Z</time>
      </trkpt>
      <trkpt lat="43.5486160" lon="-6.1226280">
        <ele>33.6</ele>
        <time>2021-07-21T08:25:30Z</time>
      </trkpt>
      <trkpt lat="43.5486200" lon="-6.1226570">
        <ele>34.0</ele>
        <time>2021-07-21T08:25:31Z</time>
      </trkpt>
      <trkpt lat="43.5486460" lon="-6.1228200">
        <ele>34.0</ele>
        <time>2021-07-21T08:25:36Z</time>
      </trkpt>
      <trkpt lat="43.5486990" lon="-6.1230260">
        <ele>34.0</ele>
        <time>2021-07-21T08:25:43Z</time>
      </trkpt>
      <trkpt lat="43.5486990" lon="-6.1230570">
        <ele>34.4</ele>
        <time>2021-07-21T08:25:44Z</time>
      </trkpt>
      <trkpt lat="43.5487000" lon="-6.1230880">
        <ele>34.8</ele>
        <time>2021-07-21T08:25:45Z</time>
      </trkpt>
      <trkpt lat="43.5487070" lon="-6.1231180">
        <ele>35.2</ele>
        <time>2021-07-21T08:25:46Z</time>
      </trkpt>
      <trkpt lat="43.5487180" lon="-6.1231450">
        <ele>35.6</ele>
        <time>2021-07-21T08:25:47Z</time>
      </trkpt>
      <trkpt lat="43.5487320" lon="-6.1231710">
        <ele>36.0</ele>
        <time>2021-07-21T08:25:48Z</time>
      </trkpt>
      <trkpt lat="43.5487520" lon="-6.1231960">
        <ele>36.0</ele>
        <time>2021-07-21T08:25:49Z</time>
      </trkpt>
      <trkpt lat="43.5488240" lon="-6.1233690">
        <ele>36.0</ele>
        <time>2021-07-21T08:25:56Z</time>
      </trkpt>
      <trkpt lat="43.5488860" lon="-6.1234770">
        <ele>36.4</ele>
        <time>2021-07-21T08:26:00Z</time>
      </trkpt>
      <trkpt lat="43.5489010" lon="-6.1235030">
        <ele>36.8</ele>
        <time>2021-07-21T08:26:01Z</time>
      </trkpt>
      <trkpt lat="43.5489200" lon="-6.1235290">
        <ele>37.2</ele>
        <time>2021-07-21T08:26:02Z</time>
      </trkpt>
      <trkpt lat="43.5489310" lon="-6.1235590">
        <ele>37.6</ele>
        <time>2021-07-21T08:26:03Z</time>
      </trkpt>
      <trkpt lat="43.5489400" lon="-6.1235890">
        <ele>38.0</ele>
        <time>2021-07-21T08:26:04Z</time>
      </trkpt>
      <trkpt lat="43.5489430" lon="-6.1236160">
        <ele>38.0</ele>
        <time>2021-07-21T08:26:05Z</time>
      </trkpt>
      <trkpt lat="43.5489230" lon="-6.1238150">
        <ele>38.0</ele>
        <time>2021-07-21T08:26:12Z</time>
      </trkpt>
      <trkpt lat="43.5489050" lon="-6.1239180">
        <ele>38.0</ele>
        <time>2021-07-21T08:26:16Z</time>
      </trkpt>
      <trkpt lat="43.5489030" lon="-6.1239400">
        <ele>38.4</ele>
        <time>2021-07-21T08:26:17Z</time>
      </trkpt>
      <trkpt lat="43.5489000" lon="-6.1239610">
        <ele>38.8</ele>
        <time>2021-07-21T08:26:18Z</time>
      </trkpt>
      <trkpt lat="43.5488980" lon="-6.1239850">
        <ele>39.2</ele>
        <time>2021-07-21T08:26:19Z</time>
      </trkpt>
      <trkpt lat="43.5488970" lon="-6.1240080">
        <ele>39.6</ele>
        <time>2021-07-21T08:26:20Z</time>
      </trkpt>
      <trkpt lat="43.5488960" lon="-6.1240360">
        <ele>40.0</ele>
        <time>2021-07-21T08:26:21Z</time>
      </trkpt>
      <trkpt lat="43.5488980" lon="-6.1240630">
        <ele>40.0</ele>
        <time>2021-07-21T08:26:22Z</time>
      </trkpt>
      <trkpt lat="43.5489290" lon="-6.1241280">
        <ele>40.0</ele>
        <time>2021-07-21T08:26:25Z</time>
      </trkpt>
      <trkpt lat="43.5490610" lon="-6.1241930">
        <ele>40.0</ele>
        <time>2021-07-21T08:26:31Z</time>
      </trkpt>
      <trkpt lat="43.5490860" lon="-6.1242010">
        <ele>40.4</ele>
        <time>2021-07-21T08:26:32Z</time>
      </trkpt>
      <trkpt lat="43.5491090" lon="-6.1242060">
        <ele>40.8</ele>
        <time>2021-07-21T08:26:33Z</time>
      </trkpt>
      <trkpt lat="43.5491310" lon="-6.1242090">
        <ele>41.2</ele>
        <time>2021-07-21T08:26:34Z</time>
      </trkpt>
      <trkpt lat="43.5491560" lon="-6.1242160">
        <ele>41.6</ele>
        <time>2021-07-21T08:26:35Z</time>
      </trkpt>
      <trkpt lat="43.5491810" lon="-6.1242270">
        <ele>42.0</ele>
        <time>2021-07-21T08:26:36Z</time>
      </trkpt>
      <trkpt lat="43.5492250" lon="-6.1242580">
        <ele>42.0</ele>
        <time>2021-07-21T08:26:38Z</time>
      </trkpt>
      <trkpt lat="43.5493350" lon="-6.1243150">
        <ele>42.0</ele>
        <time>2021-07-21T08:26:44Z</time>
      </trkpt>
      <trkpt lat="43.5493710" lon="-6.1243410">
        <ele>42.4</ele>
        <time>2021-07-21T08:26:46Z</time>
      </trkpt>
      <trkpt lat="43.5493920" lon="-6.1243560">
        <ele>42.8</ele>
        <time>2021-07-21T08:26:47Z</time>
      </trkpt>
      <trkpt lat="43.5494100" lon="-6.1243700">
        <ele>43.2</ele>
        <time>2021-07-21T08:26:48Z</time>
      </trkpt>
      <trkpt lat="43.5494250" lon="-6.1243860">
        <ele>43.8</ele>
        <time>2021-07-21T08:26:49Z</time>
      </trkpt>
      <trkpt lat="43.5494380" lon="-6.1244000">
        <ele>44.2</ele>
        <time>2021-07-21T08:26:50Z</time>
      </trkpt>
      <trkpt lat="43.5494710" lon="-6.1244290">
        <ele>44.2</ele>
        <time>2021-07-21T08:26:52Z</time>
      </trkpt>
      <trkpt lat="43.5496020" lon="-6.1245450">
        <ele>44.2</ele>
        <time>2021-07-21T08:26:59Z</time>
      </trkpt>
      <trkpt lat="43.5497170" lon="-6.1246200">
        <ele>44.6</ele>
        <time>2021-07-21T08:27:04Z</time>
      </trkpt>
      <trkpt lat="43.5497410" lon="-6.1246340">
        <ele>45.0</ele>
        <time>2021-07-21T08:27:05Z</time>
      </trkpt>
      <trkpt lat="43.5497670" lon="-6.1246490">
        <ele>45.4</ele>
        <time>2021-07-21T08:27:06Z</time>
      </trkpt>
      <trkpt lat="43.5497910" lon="-6.1246630">
        <ele>45.8</ele>
        <time>2021-07-21T08:27:07Z</time>
      </trkpt>
      <trkpt lat="43.5498150" lon="-6.1246730">
        <ele>46.2</ele>
        <time>2021-07-21T08:27:08Z</time>
      </trkpt>
      <trkpt lat="43.5499150" lon="-6.1247210">
        <ele>46.2</ele>
        <time>2021-07-21T08:27:13Z</time>
      </trkpt>
      <trkpt lat="43.5500030" lon="-6.1247700">
        <ele>46.6</ele>
        <time>2021-07-21T08:27:17Z</time>
      </trkpt>
      <trkpt lat="43.5500250" lon="-6.1247830">
        <ele>47.0</ele>
        <time>2021-07-21T08:27:18Z</time>
      </trkpt>
      <trkpt lat="43.5500470" lon="-6.1247970">
        <ele>47.4</ele>
        <time>2021-07-21T08:27:19Z</time>
      </trkpt>
      <trkpt lat="43.5500650" lon="-6.1248200">
        <ele>47.8</ele>
        <time>2021-07-21T08:27:20Z</time>
      </trkpt>
      <trkpt lat="43.5500820" lon="-6.1248430">
        <ele>48.2</ele>
        <time>2021-07-21T08:27:21Z</time>
      </trkpt>
      <trkpt lat="43.5501810" lon="-6.1250010">
        <ele>48.2</ele>
        <time>2021-07-21T08:27:28Z</time>
      </trkpt>
      <trkpt lat="43.5501910" lon="-6.1250550">
        <ele>48.8</ele>
        <time>2021-07-21T08:27:30Z</time>
      </trkpt>
      <trkpt lat="43.5501900" lon="-6.1250790">
        <ele>49.2</ele>
        <time>2021-07-21T08:27:31Z</time>
      </trkpt>
      <trkpt lat="43.5501870" lon="-6.1251030">
        <ele>49.6</ele>
        <time>2021-07-21T08:27:32Z</time>
      </trkpt>
      <trkpt lat="43.5501830" lon="-6.1251280">
        <ele>50.0</ele>
        <time>2021-07-21T08:27:33Z</time>
      </trkpt>
      <trkpt lat="43.5501770" lon="-6.1251560">
        <ele>50.6</ele>
        <time>2021-07-21T08:27:34Z</time>
      </trkpt>
      <trkpt lat="43.5501110" lon="-6.1253390">
        <ele>50.6</ele>
        <time>2021-07-21T08:27:40Z</time>
      </trkpt>
      <trkpt lat="43.5500570" lon="-6.1254740">
        <ele>50.6</ele>
        <time>2021-07-21T08:27:46Z</time>
      </trkpt>
      <trkpt lat="43.5500410" lon="-6.1255260">
        <ele>51.0</ele>
        <time>2021-07-21T08:27:48Z</time>
      </trkpt>
      <trkpt lat="43.5500340" lon="-6.1255510">
        <ele>51.4</ele>
        <time>2021-07-21T08:27:49Z</time>
      </trkpt>
      <trkpt lat="43.5500270" lon="-6.1255780">
        <ele>51.8</ele>
        <time>2021-07-21T08:27:50Z</time>
      </trkpt>
      <trkpt lat="43.5500220" lon="-6.1256020">
        <ele>52.2</ele>
        <time>2021-07-21T08:27:51Z</time>
      </trkpt>
      <trkpt lat="43.5500160" lon="-6.1256260">
        <ele>52.6</ele>
        <time>2021-07-21T08:27:52Z</time>
      </trkpt>
      <trkpt lat="43.5500100" lon="-6.1256510">
        <ele>52.6</ele>
        <time>2021-07-21T08:27:53Z</time>
      </trkpt>
      <trkpt lat="43.5499510" lon="-6.1258150">
        <ele>52.6</ele>
        <time>2021-07-21T08:28:00Z</time>
      </trkpt>
      <trkpt lat="43.5499080" lon="-6.1259280">
        <ele>53.0</ele>
        <time>2021-07-21T08:28:05Z</time>
      </trkpt>
      <trkpt lat="43.5499000" lon="-6.1259510">
        <ele>53.4</ele>
        <time>2021-07-21T08:28:06Z</time>
      </trkpt>
      <trkpt lat="43.5498940" lon="-6.1259750">
        <ele>53.8</ele>
        <time>2021-07-21T08:28:07Z</time>
      </trkpt>
      <trkpt lat="43.5498890" lon="-6.1259950">
        <ele>54.2</ele>
        <time>2021-07-21T08:28:08Z</time>
      </trkpt>
      <trkpt lat="43.5498800" lon="-6.1260150">
        <ele>54.6</ele>
        <time>2021-07-21T08:28:09Z</time>
      </trkpt>
      <trkpt lat="43.5498450" lon="-6.1261080">
        <ele>54.6</ele>
        <time>2021-07-21T08:28:13Z</time>
      </trkpt>
      <trkpt lat="43.5498050" lon="-6.1262250">
        <ele>55.0</ele>
        <time>2021-07-21T08:28:19Z</time>
      </trkpt>
      <trkpt lat="43.5497960" lon="-6.1262450">
        <ele>55.4</ele>
        <time>2021-07-21T08:28:20Z</time>
      </trkpt>
      <trkpt lat="43.5497890" lon="-6.1262640">
        <ele>55.8</ele>
        <time>2021-07-21T08:28:21Z</time>
      </trkpt>
      <trkpt lat="43.5497770" lon="-6.1262800">
        <ele>56.4</ele>
        <time>2021-07-21T08:28:22Z</time>
      </trkpt>
      <trkpt lat="43.5497650" lon="-6.1262960">
        <ele>56.8</ele>
        <time>2021-07-21T08:28:23Z</time>
      </trkpt>
      <trkpt lat="43.5497570" lon="-6.1263160">
        <ele>56.8</ele>
        <time>2021-07-21T08:28:24Z</time>
      </trkpt>
      <trkpt lat="43.5497440" lon="-6.1263630">
        <ele>56.8</ele>
        <time>2021-07-21T08:28:26Z</time>
      </trkpt>
      <trkpt lat="43.5496900" lon="-6.1264890">
        <ele>56.8</ele>
        <time>2021-07-21T08:28:32Z</time>
      </trkpt>
      <trkpt lat="43.5496810" lon="-6.1265080">
        <ele>57.2</ele>
        <time>2021-07-21T08:28:33Z</time>
      </trkpt>
      <trkpt lat="43.5496670" lon="-6.1265280">
        <ele>57.6</ele>
        <time>2021-07-21T08:28:34Z</time>
      </trkpt>
      <trkpt lat="43.5496480" lon="-6.1265480">
        <ele>58.0</ele>
        <time>2021-07-21T08:28:35Z</time>
      </trkpt>
      <trkpt lat="43.5496330" lon="-6.1265650">
        <ele>58.4</ele>
        <time>2021-07-21T08:28:36Z</time>
      </trkpt>
      <trkpt lat="43.5496210" lon="-6.1265830">
        <ele>58.8</ele>
        <time>2021-07-21T08:28:37Z</time>
      </trkpt>
      <trkpt lat="43.5495960" lon="-6.1266360">
        <ele>58.8</ele>
        <time>2021-07-21T08:28:40Z</time>
      </trkpt>
      <trkpt lat="43.5495470" lon="-6.1267270">
        <ele>58.8</ele>
        <time>2021-07-21T08:28:44Z</time>
      </trkpt>
      <trkpt lat="43.5495000" lon="-6.1267870">
        <ele>58.8</ele>
        <time>2021-07-21T08:28:48Z</time>
      </trkpt>
      <trkpt lat="43.5494910" lon="-6.1268090">
        <ele>58.8</ele>
        <time>2021-07-21T08:28:49Z</time>
      </trkpt>
      <trkpt lat="43.5494490" lon="-6.1269050">
        <ele>59.2</ele>
        <time>2021-07-21T08:28:54Z</time>
      </trkpt>
      <trkpt lat="43.5494470" lon="-6.1269200">
        <ele>59.6</ele>
        <time>2021-07-21T08:28:55Z</time>
      </trkpt>
      <trkpt lat="43.5494420" lon="-6.1269340">
        <ele>60.0</ele>
        <time>2021-07-21T08:28:56Z</time>
      </trkpt>
      <trkpt lat="43.5494320" lon="-6.1269500">
        <ele>60.6</ele>
        <time>2021-07-21T08:28:57Z</time>
      </trkpt>
      <trkpt lat="43.5494240" lon="-6.1269690">
        <ele>61.0</ele>
        <time>2021-07-21T08:28:58Z</time>
      </trkpt>
      <trkpt lat="43.5493930" lon="-6.1270300">
        <ele>61.0</ele>
        <time>2021-07-21T08:29:02Z</time>
      </trkpt>
      <trkpt lat="43.5493270" lon="-6.1272420">
        <ele>61.0</ele>
        <time>2021-07-21T08:29:10Z</time>
      </trkpt>
      <trkpt lat="43.5493240" lon="-6.1272680">
        <ele>61.4</ele>
        <time>2021-07-21T08:29:11Z</time>
      </trkpt>
      <trkpt lat="43.5493180" lon="-6.1272930">
        <ele>61.8</ele>
        <time>2021-07-21T08:29:12Z</time>
      </trkpt>
      <trkpt lat="43.5493240" lon="-6.1273280">
        <ele>62.2</ele>
        <time>2021-07-21T08:29:13Z</time>
      </trkpt>
      <trkpt lat="43.5493310" lon="-6.1273620">
        <ele>62.6</ele>
        <time>2021-07-21T08:29:14Z</time>
      </trkpt>
      <trkpt lat="43.5493430" lon="-6.1274000">
        <ele>63.0</ele>
        <time>2021-07-21T08:29:15Z</time>
      </trkpt>
      <trkpt lat="43.5493530" lon="-6.1274280">
        <ele>63.0</ele>
        <time>2021-07-21T08:29:16Z</time>
      </trkpt>
      <trkpt lat="43.5493870" lon="-6.1276100">
        <ele>63.0</ele>
        <time>2021-07-21T08:29:22Z</time>
      </trkpt>
      <trkpt lat="43.5493870" lon="-6.1276440">
        <ele>63.4</ele>
        <time>2021-07-21T08:29:23Z</time>
      </trkpt>
      <trkpt lat="43.5493870" lon="-6.1276770">
        <ele>63.8</ele>
        <time>2021-07-21T08:29:24Z</time>
      </trkpt>
      <trkpt lat="43.5493880" lon="-6.1277030">
        <ele>64.2</ele>
        <time>2021-07-21T08:29:25Z</time>
      </trkpt>
      <trkpt lat="43.5493890" lon="-6.1277260">
        <ele>64.8</ele>
        <time>2021-07-21T08:29:26Z</time>
      </trkpt>
      <trkpt lat="43.5493940" lon="-6.1277430">
        <ele>65.2</ele>
        <time>2021-07-21T08:29:27Z</time>
      </trkpt>
      <trkpt lat="43.5493950" lon="-6.1277850">
        <ele>65.2</ele>
        <time>2021-07-21T08:29:29Z</time>
      </trkpt>
      <trkpt lat="43.5493900" lon="-6.1278130">
        <ele>65.2</ele>
        <time>2021-07-21T08:29:30Z</time>
      </trkpt>
      <trkpt lat="43.5493830" lon="-6.1279690">
        <ele>65.2</ele>
        <time>2021-07-21T08:29:35Z</time>
      </trkpt>
      <trkpt lat="43.5493970" lon="-6.1281470">
        <ele>65.6</ele>
        <time>2021-07-21T08:29:41Z</time>
      </trkpt>
      <trkpt lat="43.5493900" lon="-6.1281740">
        <ele>66.0</ele>
        <time>2021-07-21T08:29:42Z</time>
      </trkpt>
      <trkpt lat="43.5493860" lon="-6.1281980">
        <ele>66.4</ele>
        <time>2021-07-21T08:29:43Z</time>
      </trkpt>
      <trkpt lat="43.5493830" lon="-6.1282190">
        <ele>66.8</ele>
        <time>2021-07-21T08:29:44Z</time>
      </trkpt>
      <trkpt lat="43.5493780" lon="-6.1282420">
        <ele>67.2</ele>
        <time>2021-07-21T08:29:45Z</time>
      </trkpt>
      <trkpt lat="43.5493670" lon="-6.1283250">
        <ele>67.2</ele>
        <time>2021-07-21T08:29:48Z</time>
      </trkpt>
      <trkpt lat="43.5493530" lon="-6.1284860">
        <ele>67.2</ele>
        <time>2021-07-21T08:29:54Z</time>
      </trkpt>
      <trkpt lat="43.5493440" lon="-6.1285050">
        <ele>67.2</ele>
        <time>2021-07-21T08:29:55Z</time>
      </trkpt>
      <trkpt lat="43.5493240" lon="-6.1286030">
        <ele>67.6</ele>
        <time>2021-07-21T08:29:59Z</time>
      </trkpt>
      <trkpt lat="43.5493200" lon="-6.1286200">
        <ele>68.0</ele>
        <time>2021-07-21T08:30:00Z</time>
      </trkpt>
      <trkpt lat="43.5493130" lon="-6.1286350">
        <ele>68.4</ele>
        <time>2021-07-21T08:30:01Z</time>
      </trkpt>
      <trkpt lat="43.5493040" lon="-6.1286540">
        <ele>68.8</ele>
        <time>2021-07-21T08:30:02Z</time>
      </trkpt>
      <trkpt lat="43.5492970" lon="-6.1286700">
        <ele>69.2</ele>
        <time>2021-07-21T08:30:03Z</time>
      </trkpt>
      <trkpt lat="43.5492250" lon="-6.1287960">
        <ele>69.2</ele>
        <time>2021-07-21T08:30:09Z</time>
      </trkpt>
      <trkpt lat="43.5491360" lon="-6.1289330">
        <ele>69.2</ele>
        <time>2021-07-21T08:30:16Z</time>
      </trkpt>
      <trkpt lat="43.5491180" lon="-6.1289440">
        <ele>69.2</ele>
        <time>2021-07-21T08:30:17Z</time>
      </trkpt>
      <trkpt lat="43.5490630" lon="-6.1289660">
        <ele>69.6</ele>
        <time>2021-07-21T08:30:20Z</time>
      </trkpt>
      <trkpt lat="43.5490440" lon="-6.1289740">
        <ele>70.0</ele>
        <time>2021-07-21T08:30:21Z</time>
      </trkpt>
      <trkpt lat="43.5490270" lon="-6.1289820">
        <ele>70.4</ele>
        <time>2021-07-21T08:30:22Z</time>
      </trkpt>
      <trkpt lat="43.5490130" lon="-6.1289910">
        <ele>70.8</ele>
        <time>2021-07-21T08:30:23Z</time>
      </trkpt>
      <trkpt lat="43.5489980" lon="-6.1289980">
        <ele>71.2</ele>
        <time>2021-07-21T08:30:24Z</time>
      </trkpt>
      <trkpt lat="43.5489650" lon="-6.1290110">
        <ele>71.2</ele>
        <time>2021-07-21T08:30:26Z</time>
      </trkpt>
      <trkpt lat="43.5488170" lon="-6.1290410">
        <ele>71.2</ele>
        <time>2021-07-21T08:30:34Z</time>
      </trkpt>
      <trkpt lat="43.5486170" lon="-6.1290500">
        <ele>71.2</ele>
        <time>2021-07-21T08:30:41Z</time>
      </trkpt>
      <trkpt lat="43.5485390" lon="-6.1290610">
        <ele>71.6</ele>
        <time>2021-07-21T08:30:44Z</time>
      </trkpt>
      <trkpt lat="43.5485190" lon="-6.1290670">
        <ele>72.6</ele>
        <time>2021-07-21T08:30:45Z</time>
      </trkpt>
      <trkpt lat="43.5485020" lon="-6.1290750">
        <ele>73.0</ele>
        <time>2021-07-21T08:30:46Z</time>
      </trkpt>
      <trkpt lat="43.5484840" lon="-6.1290820">
        <ele>73.4</ele>
        <time>2021-07-21T08:30:47Z</time>
      </trkpt>
      <trkpt lat="43.5484510" lon="-6.1290920">
        <ele>73.4</ele>
        <time>2021-07-21T08:30:49Z</time>
      </trkpt>
      <trkpt lat="43.5483530" lon="-6.1291310">
        <ele>73.4</ele>
        <time>2021-07-21T08:30:55Z</time>
      </trkpt>
      <trkpt lat="43.5481900" lon="-6.1291720">
        <ele>73.4</ele>
        <time>2021-07-21T08:31:02Z</time>
      </trkpt>
      <trkpt lat="43.5480720" lon="-6.1292090">
        <ele>73.8</ele>
        <time>2021-07-21T08:31:08Z</time>
      </trkpt>
      <trkpt lat="43.5480530" lon="-6.1292230">
        <ele>74.2</ele>
        <time>2021-07-21T08:31:09Z</time>
      </trkpt>
      <trkpt lat="43.5480340" lon="-6.1292330">
        <ele>75.0</ele>
        <time>2021-07-21T08:31:10Z</time>
      </trkpt>
      <trkpt lat="43.5480170" lon="-6.1292430">
        <ele>75.4</ele>
        <time>2021-07-21T08:31:11Z</time>
      </trkpt>
      <trkpt lat="43.5480020" lon="-6.1292520">
        <ele>75.4</ele>
        <time>2021-07-21T08:31:12Z</time>
      </trkpt>
      <trkpt lat="43.5478970" lon="-6.1293280">
        <ele>75.4</ele>
        <time>2021-07-21T08:31:21Z</time>
      </trkpt>
      <trkpt lat="43.5478780" lon="-6.1293690">
        <ele>75.4</ele>
        <time>2021-07-21T08:31:24Z</time>
      </trkpt>
      <trkpt lat="43.5478700" lon="-6.1294440">
        <ele>75.4</ele>
        <time>2021-07-21T08:31:27Z</time>
      </trkpt>
      <trkpt lat="43.5478720" lon="-6.1295050">
        <ele>75.4</ele>
        <time>2021-07-21T08:31:29Z</time>
      </trkpt>
      <trkpt lat="43.5478840" lon="-6.1295990">
        <ele>76.2</ele>
        <time>2021-07-21T08:31:34Z</time>
      </trkpt>
      <trkpt lat="43.5478900" lon="-6.1296190">
        <ele>76.6</ele>
        <time>2021-07-21T08:31:35Z</time>
      </trkpt>
      <trkpt lat="43.5478920" lon="-6.1296450">
        <ele>77.0</ele>
        <time>2021-07-21T08:31:36Z</time>
      </trkpt>
      <trkpt lat="43.5478960" lon="-6.1296740">
        <ele>77.4</ele>
        <time>2021-07-21T08:31:37Z</time>
      </trkpt>
      <trkpt lat="43.5479020" lon="-6.1297860">
        <ele>77.4</ele>
        <time>2021-07-21T08:31:41Z</time>
      </trkpt>
      <trkpt lat="43.5478860" lon="-6.1299680">
        <ele>77.4</ele>
        <time>2021-07-21T08:31:48Z</time>
      </trkpt>
      <trkpt lat="43.5478390" lon="-6.1301100">
        <ele>77.4</ele>
        <time>2021-07-21T08:31:55Z</time>
      </trkpt>
      <trkpt lat="43.5477870" lon="-6.1301830">
        <ele>78.0</ele>
        <time>2021-07-21T08:31:58Z</time>
      </trkpt>
      <trkpt lat="43.5477720" lon="-6.1302030">
        <ele>78.8</ele>
        <time>2021-07-21T08:31:59Z</time>
      </trkpt>
      <trkpt lat="43.5477480" lon="-6.1302250">
        <ele>79.2</ele>
        <time>2021-07-21T08:32:00Z</time>
      </trkpt>
      <trkpt lat="43.5477210" lon="-6.1302440">
        <ele>79.6</ele>
        <time>2021-07-21T08:32:01Z</time>
      </trkpt>
      <trkpt lat="43.5476920" lon="-6.1302610">
        <ele>79.6</ele>
        <time>2021-07-21T08:32:02Z</time>
      </trkpt>
      <trkpt lat="43.5475240" lon="-6.1303160">
        <ele>79.6</ele>
        <time>2021-07-21T08:32:09Z</time>
      </trkpt>
      <trkpt lat="43.5474210" lon="-6.1303400">
        <ele>80.0</ele>
        <time>2021-07-21T08:32:16Z</time>
      </trkpt>
      <trkpt lat="43.5474020" lon="-6.1303430">
        <ele>80.4</ele>
        <time>2021-07-21T08:32:17Z</time>
      </trkpt>
      <trkpt lat="43.5473840" lon="-6.1303510">
        <ele>80.8</ele>
        <time>2021-07-21T08:32:18Z</time>
      </trkpt>
      <trkpt lat="43.5473660" lon="-6.1303630">
        <ele>81.2</ele>
        <time>2021-07-21T08:32:19Z</time>
      </trkpt>
      <trkpt lat="43.5473450" lon="-6.1303770">
        <ele>81.6</ele>
        <time>2021-07-21T08:32:20Z</time>
      </trkpt>
      <trkpt lat="43.5472670" lon="-6.1304270">
        <ele>81.6</ele>
        <time>2021-07-21T08:32:25Z</time>
      </trkpt>
      <trkpt lat="43.5471440" lon="-6.1305620">
        <ele>81.6</ele>
        <time>2021-07-21T08:32:34Z</time>
      </trkpt>
      <trkpt lat="43.5471270" lon="-6.1305970">
        <ele>81.6</ele>
        <time>2021-07-21T08:32:36Z</time>
      </trkpt>
      <trkpt lat="43.5470690" lon="-6.1306980">
        <ele>81.6</ele>
        <time>2021-07-21T08:32:40Z</time>
      </trkpt>
      <trkpt lat="43.5470230" lon="-6.1307190">
        <ele>81.6</ele>
        <time>2021-07-21T08:32:43Z</time>
      </trkpt>
      <trkpt lat="43.5469280" lon="-6.1307790">
        <ele>81.6</ele>
        <time>2021-07-21T08:32:47Z</time>
      </trkpt>
      <trkpt lat="43.5469070" lon="-6.1307900">
        <ele>82.0</ele>
        <time>2021-07-21T08:32:48Z</time>
      </trkpt>
      <trkpt lat="43.5468890" lon="-6.1308040">
        <ele>83.0</ele>
        <time>2021-07-21T08:32:49Z</time>
      </trkpt>
      <trkpt lat="43.5468740" lon="-6.1308220">
        <ele>83.4</ele>
        <time>2021-07-21T08:32:50Z</time>
      </trkpt>
      <trkpt lat="43.5468580" lon="-6.1308460">
        <ele>83.8</ele>
        <time>2021-07-21T08:32:51Z</time>
      </trkpt>
      <trkpt lat="43.5468410" lon="-6.1308650">
        <ele>83.8</ele>
        <time>2021-07-21T08:32:52Z</time>
      </trkpt>
      <trkpt lat="43.5467240" lon="-6.1309960">
        <ele>83.8</ele>
        <time>2021-07-21T08:33:00Z</time>
      </trkpt>
      <trkpt lat="43.5465680" lon="-6.1309590">
        <ele>83.8</ele>
        <time>2021-07-21T08:33:06Z</time>
      </trkpt>
      <trkpt lat="43.5465390" lon="-6.1309500">
        <ele>84.2</ele>
        <time>2021-07-21T08:33:07Z</time>
      </trkpt>
      <trkpt lat="43.5465110" lon="-6.1309400">
        <ele>84.6</ele>
        <time>2021-07-21T08:33:08Z</time>
      </trkpt>
      <trkpt lat="43.5464810" lon="-6.1309380">
        <ele>85.0</ele>
        <time>2021-07-21T08:33:09Z</time>
      </trkpt>
      <trkpt lat="43.5464530" lon="-6.1309330">
        <ele>85.4</ele>
        <time>2021-07-21T08:33:10Z</time>
      </trkpt>
      <trkpt lat="43.5464310" lon="-6.1309280">
        <ele>85.8</ele>
        <time>2021-07-21T08:33:11Z</time>
      </trkpt>
      <trkpt lat="43.5464090" lon="-6.1309230">
        <ele>85.8</ele>
        <time>2021-07-21T08:33:12Z</time>
      </trkpt>
      <trkpt lat="43.5462410" lon="-6.1309040">
        <ele>85.8</ele>
        <time>2021-07-21T08:33:19Z</time>
      </trkpt>
      <trkpt lat="43.5460820" lon="-6.1309020">
        <ele>85.8</ele>
        <time>2021-07-21T08:33:26Z</time>
      </trkpt>
      <trkpt lat="43.5460540" lon="-6.1309050">
        <ele>86.2</ele>
        <time>2021-07-21T08:33:27Z</time>
      </trkpt>
      <trkpt lat="43.5460290" lon="-6.1309170">
        <ele>86.8</ele>
        <time>2021-07-21T08:33:28Z</time>
      </trkpt>
      <trkpt lat="43.5460120" lon="-6.1309310">
        <ele>87.2</ele>
        <time>2021-07-21T08:33:29Z</time>
      </trkpt>
      <trkpt lat="43.5459950" lon="-6.1309370">
        <ele>87.6</ele>
        <time>2021-07-21T08:33:30Z</time>
      </trkpt>
      <trkpt lat="43.5459790" lon="-6.1309440">
        <ele>88.0</ele>
        <time>2021-07-21T08:33:31Z</time>
      </trkpt>
      <trkpt lat="43.5458610" lon="-6.1309780">
        <ele>88.0</ele>
        <time>2021-07-21T08:33:38Z</time>
      </trkpt>
      <trkpt lat="43.5458200" lon="-6.1309940">
        <ele>88.0</ele>
        <time>2021-07-21T08:33:40Z</time>
      </trkpt>
      <trkpt lat="43.5457230" lon="-6.1310080">
        <ele>88.4</ele>
        <time>2021-07-21T08:33:44Z</time>
      </trkpt>
      <trkpt lat="43.5457050" lon="-6.1310180">
        <ele>88.8</ele>
        <time>2021-07-21T08:33:45Z</time>
      </trkpt>
      <trkpt lat="43.5456870" lon="-6.1310330">
        <ele>89.2</ele>
        <time>2021-07-21T08:33:46Z</time>
      </trkpt>
      <trkpt lat="43.5456600" lon="-6.1310390">
        <ele>89.6</ele>
        <time>2021-07-21T08:33:47Z</time>
      </trkpt>
      <trkpt lat="43.5456330" lon="-6.1310430">
        <ele>90.0</ele>
        <time>2021-07-21T08:33:48Z</time>
      </trkpt>
      <trkpt lat="43.5454700" lon="-6.1311150">
        <ele>90.0</ele>
        <time>2021-07-21T08:33:56Z</time>
      </trkpt>
      <trkpt lat="43.5453530" lon="-6.1311700">
        <ele>90.4</ele>
        <time>2021-07-21T08:34:03Z</time>
      </trkpt>
      <trkpt lat="43.5453390" lon="-6.1311780">
        <ele>91.0</ele>
        <time>2021-07-21T08:34:04Z</time>
      </trkpt>
      <trkpt lat="43.5453240" lon="-6.1311860">
        <ele>91.4</ele>
        <time>2021-07-21T08:34:05Z</time>
      </trkpt>
      <trkpt lat="43.5453080" lon="-6.1311980">
        <ele>91.8</ele>
        <time>2021-07-21T08:34:06Z</time>
      </trkpt>
      <trkpt lat="43.5452920" lon="-6.1312130">
        <ele>92.2</ele>
        <time>2021-07-21T08:34:07Z</time>
      </trkpt>
      <trkpt lat="43.5452300" lon="-6.1312730">
        <ele>92.2</ele>
        <time>2021-07-21T08:34:11Z</time>
      </trkpt>
      <trkpt lat="43.5452070" lon="-6.1313080">
        <ele>92.2</ele>
        <time>2021-07-21T08:34:13Z</time>
      </trkpt>
      <trkpt lat="43.5451860" lon="-6.1313370">
        <ele>92.2</ele>
        <time>2021-07-21T08:34:16Z</time>
      </trkpt>
      <trkpt lat="43.5451770" lon="-6.1313370">
        <ele>92.2</ele>
        <time>2021-07-21T08:34:17Z</time>
      </trkpt>
      <trkpt lat="43.5451490" lon="-6.1313230">
        <ele>96.2</ele>
        <time>2021-07-21T08:55:21Z</time>
      </trkpt>
      <trkpt lat="43.5451480" lon="-6.1313050">
        <ele>96.2</ele>
        <time>2021-07-21T08:55:22Z</time>
      </trkpt>
      <trkpt lat="43.5451510" lon="-6.1312900">
        <ele>96.2</ele>
        <time>2021-07-21T08:55:23Z</time>
      </trkpt>
      <trkpt lat="43.5451690" lon="-6.1312700">
        <ele>96.2</ele>
        <time>2021-07-21T08:55:25Z</time>
      </trkpt>
      <trkpt lat="43.5451790" lon="-6.1312660">
        <ele>96.2</ele>
        <time>2021-07-21T08:55:26Z</time>
      </trkpt>
      <trkpt lat="43.5452010" lon="-6.1312530">
        <ele>96.2</ele>
        <time>2021-07-21T08:55:29Z</time>
      </trkpt>
      <trkpt lat="43.5451520" lon="-6.1313260">
        <ele>98.2</ele>
        <time>2021-07-21T09:02:57Z</time>
      </trkpt>
      <trkpt lat="43.5451310" lon="-6.1313730">
        <ele>98.2</ele>
        <time>2021-07-21T09:02:59Z</time>
      </trkpt>
      <trkpt lat="43.5450950" lon="-6.1314860">
        <ele>98.2</ele>
        <time>2021-07-21T09:03:03Z</time>
      </trkpt>
      <trkpt lat="43.5450970" lon="-6.1315130">
        <ele>98.2</ele>
        <time>2021-07-21T09:03:04Z</time>
      </trkpt>
      <trkpt lat="43.5452040" lon="-6.1317170">
        <ele>98.2</ele>
        <time>2021-07-21T09:03:12Z</time>
      </trkpt>
      <trkpt lat="43.5452890" lon="-6.1317840">
        <ele>98.2</ele>
        <time>2021-07-21T09:03:16Z</time>
      </trkpt>
      <trkpt lat="43.5453550" lon="-6.1318300">
        <ele>98.6</ele>
        <time>2021-07-21T09:03:19Z</time>
      </trkpt>
      <trkpt lat="43.5453800" lon="-6.1318460">
        <ele>99.0</ele>
        <time>2021-07-21T09:03:20Z</time>
      </trkpt>
      <trkpt lat="43.5454050" lon="-6.1318640">
        <ele>99.4</ele>
        <time>2021-07-21T09:03:21Z</time>
      </trkpt>
      <trkpt lat="43.5454270" lon="-6.1318760">
        <ele>99.8</ele>
        <time>2021-07-21T09:03:22Z</time>
      </trkpt>
      <trkpt lat="43.5454520" lon="-6.1318860">
        <ele>100.2</ele>
        <time>2021-07-21T09:03:23Z</time>
      </trkpt>
      <trkpt lat="43.5455260" lon="-6.1319370">
        <ele>100.2</ele>
        <time>2021-07-21T09:03:26Z</time>
      </trkpt>
      <trkpt lat="43.5455490" lon="-6.1319540">
        <ele>100.2</ele>
        <time>2021-07-21T09:03:27Z</time>
      </trkpt>
      <trkpt lat="43.5456180" lon="-6.1320070">
        <ele>100.2</ele>
        <time>2021-07-21T09:03:30Z</time>
      </trkpt>
      <trkpt lat="43.5456400" lon="-6.1320280">
        <ele>100.8</ele>
        <time>2021-07-21T09:03:31Z</time>
      </trkpt>
      <trkpt lat="43.5456630" lon="-6.1320490">
        <ele>101.2</ele>
        <time>2021-07-21T09:03:32Z</time>
      </trkpt>
      <trkpt lat="43.5456860" lon="-6.1320700">
        <ele>101.6</ele>
        <time>2021-07-21T09:03:33Z</time>
      </trkpt>
      <trkpt lat="43.5457090" lon="-6.1320900">
        <ele>102.0</ele>
        <time>2021-07-21T09:03:34Z</time>
      </trkpt>
      <trkpt lat="43.5457310" lon="-6.1321100">
        <ele>102.4</ele>
        <time>2021-07-21T09:03:35Z</time>
      </trkpt>
      <trkpt lat="43.5457540" lon="-6.1321320">
        <ele>102.4</ele>
        <time>2021-07-21T09:03:36Z</time>
      </trkpt>
      <trkpt lat="43.5458460" lon="-6.1322440">
        <ele>102.4</ele>
        <time>2021-07-21T09:03:41Z</time>
      </trkpt>
      <trkpt lat="43.5458670" lon="-6.1322660">
        <ele>102.4</ele>
        <time>2021-07-21T09:03:42Z</time>
      </trkpt>
      <trkpt lat="43.5458880" lon="-6.1322860">
        <ele>102.8</ele>
        <time>2021-07-21T09:03:43Z</time>
      </trkpt>
      <trkpt lat="43.5459090" lon="-6.1323070">
        <ele>103.6</ele>
        <time>2021-07-21T09:03:44Z</time>
      </trkpt>
      <trkpt lat="43.5459270" lon="-6.1323290">
        <ele>104.0</ele>
        <time>2021-07-21T09:03:45Z</time>
      </trkpt>
      <trkpt lat="43.5459470" lon="-6.1323520">
        <ele>104.4</ele>
        <time>2021-07-21T09:03:46Z</time>
      </trkpt>
      <trkpt lat="43.5460180" lon="-6.1324450">
        <ele>104.4</ele>
        <time>2021-07-21T09:03:50Z</time>
      </trkpt>
      <trkpt lat="43.5461410" lon="-6.1325820">
        <ele>104.8</ele>
        <time>2021-07-21T09:03:56Z</time>
      </trkpt>
      <trkpt lat="43.5461610" lon="-6.1326050">
        <ele>105.2</ele>
        <time>2021-07-21T09:03:57Z</time>
      </trkpt>
      <trkpt lat="43.5461830" lon="-6.1326240">
        <ele>105.6</ele>
        <time>2021-07-21T09:03:58Z</time>
      </trkpt>
      <trkpt lat="43.5462020" lon="-6.1326420">
        <ele>106.0</ele>
        <time>2021-07-21T09:03:59Z</time>
      </trkpt>
      <trkpt lat="43.5462200" lon="-6.1326600">
        <ele>106.4</ele>
        <time>2021-07-21T09:04:00Z</time>
      </trkpt>
      <trkpt lat="43.5462950" lon="-6.1327480">
        <ele>106.4</ele>
        <time>2021-07-21T09:04:04Z</time>
      </trkpt>
      <trkpt lat="43.5464470" lon="-6.1328910">
        <ele>106.4</ele>
        <time>2021-07-21T09:04:10Z</time>
      </trkpt>
      <trkpt lat="43.5466530" lon="-6.1330980">
        <ele>106.4</ele>
        <time>2021-07-21T09:04:17Z</time>
      </trkpt>
      <trkpt lat="43.5468670" lon="-6.1332960">
        <ele>106.4</ele>
        <time>2021-07-21T09:04:24Z</time>
      </trkpt>
      <trkpt lat="43.5470040" lon="-6.1334650">
        <ele>106.4</ele>
        <time>2021-07-21T09:04:29Z</time>
      </trkpt>
      <trkpt lat="43.5471110" lon="-6.1336040">
        <ele>106.4</ele>
        <time>2021-07-21T09:04:33Z</time>
      </trkpt>
      <trkpt lat="43.5471860" lon="-6.1336920">
        <ele>106.4</ele>
        <time>2021-07-21T09:04:36Z</time>
      </trkpt>
      <trkpt lat="43.5472530" lon="-6.1337900">
        <ele>106.4</ele>
        <time>2021-07-21T09:04:40Z</time>
      </trkpt>
      <trkpt lat="43.5472570" lon="-6.1337950">
        <ele>106.4</ele>
        <time>2021-07-21T09:04:41Z</time>
      </trkpt>
      <trkpt lat="43.5472930" lon="-6.1338080">
        <ele>106.4</ele>
        <time>2021-07-21T09:05:06Z</time>
      </trkpt>
      <trkpt lat="43.5473080" lon="-6.1338220">
        <ele>106.4</ele>
        <time>2021-07-21T09:05:07Z</time>
      </trkpt>
      <trkpt lat="43.5473830" lon="-6.1339170">
        <ele>106.4</ele>
        <time>2021-07-21T09:05:11Z</time>
      </trkpt>
      <trkpt lat="43.5474080" lon="-6.1339460">
        <ele>106.4</ele>
        <time>2021-07-21T09:05:12Z</time>
      </trkpt>
      <trkpt lat="43.5474930" lon="-6.1340440">
        <ele>106.8</ele>
        <time>2021-07-21T09:05:15Z</time>
      </trkpt>
      <trkpt lat="43.5475230" lon="-6.1340840">
        <ele>107.2</ele>
        <time>2021-07-21T09:05:16Z</time>
      </trkpt>
      <trkpt lat="43.5475530" lon="-6.1341230">
        <ele>107.6</ele>
        <time>2021-07-21T09:05:17Z</time>
      </trkpt>
      <trkpt lat="43.5475850" lon="-6.1341610">
        <ele>108.0</ele>
        <time>2021-07-21T09:05:18Z</time>
      </trkpt>
      <trkpt lat="43.5476200" lon="-6.1341940">
        <ele>108.4</ele>
        <time>2021-07-21T09:05:19Z</time>
      </trkpt>
      <trkpt lat="43.5477750" lon="-6.1343400">
        <ele>108.4</ele>
        <time>2021-07-21T09:05:24Z</time>
      </trkpt>
      <trkpt lat="43.5478770" lon="-6.1344470">
        <ele>108.4</ele>
        <time>2021-07-21T09:05:27Z</time>
      </trkpt>
      <trkpt lat="43.5479480" lon="-6.1345190">
        <ele>108.4</ele>
        <time>2021-07-21T09:05:29Z</time>
      </trkpt>
      <trkpt lat="43.5480240" lon="-6.1345950">
        <ele>108.4</ele>
        <time>2021-07-21T09:05:31Z</time>
      </trkpt>
      <trkpt lat="43.5480600" lon="-6.1346340">
        <ele>108.4</ele>
        <time>2021-07-21T09:05:32Z</time>
      </trkpt>
      <trkpt lat="43.5481260" lon="-6.1347050">
        <ele>108.4</ele>
        <time>2021-07-21T09:05:34Z</time>
      </trkpt>
      <trkpt lat="43.5481490" lon="-6.1347280">
        <ele>108.0</ele>
        <time>2021-07-21T09:05:35Z</time>
      </trkpt>
      <trkpt lat="43.5481680" lon="-6.1347500">
        <ele>107.6</ele>
        <time>2021-07-21T09:05:36Z</time>
      </trkpt>
      <trkpt lat="43.5481890" lon="-6.1347780">
        <ele>107.2</ele>
        <time>2021-07-21T09:05:37Z</time>
      </trkpt>
      <trkpt lat="43.5482140" lon="-6.1348120">
        <ele>106.8</ele>
        <time>2021-07-21T09:05:38Z</time>
      </trkpt>
      <trkpt lat="43.5482410" lon="-6.1348490">
        <ele>106.4</ele>
        <time>2021-07-21T09:05:39Z</time>
      </trkpt>
      <trkpt lat="43.5483040" lon="-6.1349310">
        <ele>106.4</ele>
        <time>2021-07-21T09:05:41Z</time>
      </trkpt>
      <trkpt lat="43.5483360" lon="-6.1349730">
        <ele>106.4</ele>
        <time>2021-07-21T09:05:42Z</time>
      </trkpt>
      <trkpt lat="43.5483680" lon="-6.1350160">
        <ele>106.4</ele>
        <time>2021-07-21T09:05:43Z</time>
      </trkpt>
      <trkpt lat="43.5485750" lon="-6.1352990">
        <ele>106.4</ele>
        <time>2021-07-21T09:05:49Z</time>
      </trkpt>
      <trkpt lat="43.5487600" lon="-6.1355900">
        <ele>106.0</ele>
        <time>2021-07-21T09:05:54Z</time>
      </trkpt>
      <trkpt lat="43.5487940" lon="-6.1356530">
        <ele>105.6</ele>
        <time>2021-07-21T09:05:55Z</time>
      </trkpt>
      <trkpt lat="43.5488270" lon="-6.1357200">
        <ele>105.2</ele>
        <time>2021-07-21T09:05:56Z</time>
      </trkpt>
      <trkpt lat="43.5488570" lon="-6.1357850">
        <ele>104.8</ele>
        <time>2021-07-21T09:05:57Z</time>
      </trkpt>
      <trkpt lat="43.5488870" lon="-6.1358500">
        <ele>104.2</ele>
        <time>2021-07-21T09:05:58Z</time>
      </trkpt>
      <trkpt lat="43.5489740" lon="-6.1360520">
        <ele>104.2</ele>
        <time>2021-07-21T09:06:01Z</time>
      </trkpt>
      <trkpt lat="43.5490940" lon="-6.1363280">
        <ele>103.8</ele>
        <time>2021-07-21T09:06:05Z</time>
      </trkpt>
      <trkpt lat="43.5491140" lon="-6.1363930">
        <ele>103.4</ele>
        <time>2021-07-21T09:06:06Z</time>
      </trkpt>
      <trkpt lat="43.5491250" lon="-6.1364520">
        <ele>103.0</ele>
        <time>2021-07-21T09:06:07Z</time>
      </trkpt>
      <trkpt lat="43.5491250" lon="-6.1365100">
        <ele>102.6</ele>
        <time>2021-07-21T09:06:08Z</time>
      </trkpt>
      <trkpt lat="43.5491220" lon="-6.1365580">
        <ele>102.2</ele>
        <time>2021-07-21T09:06:09Z</time>
      </trkpt>
      <trkpt lat="43.5491190" lon="-6.1365950">
        <ele>102.2</ele>
        <time>2021-07-21T09:06:10Z</time>
      </trkpt>
      <trkpt lat="43.5491460" lon="-6.1367670">
        <ele>102.2</ele>
        <time>2021-07-21T09:06:15Z</time>
      </trkpt>
      <trkpt lat="43.5491970" lon="-6.1368560">
        <ele>102.2</ele>
        <time>2021-07-21T09:06:17Z</time>
      </trkpt>
      <trkpt lat="43.5492550" lon="-6.1369300">
        <ele>102.2</ele>
        <time>2021-07-21T09:06:19Z</time>
      </trkpt>
      <trkpt lat="43.5494600" lon="-6.1371910">
        <ele>102.2</ele>
        <time>2021-07-21T09:06:25Z</time>
      </trkpt>
      <trkpt lat="43.5495350" lon="-6.1372950">
        <ele>101.8</ele>
        <time>2021-07-21T09:06:27Z</time>
      </trkpt>
      <trkpt lat="43.5495720" lon="-6.1373460">
        <ele>101.4</ele>
        <time>2021-07-21T09:06:28Z</time>
      </trkpt>
      <trkpt lat="43.5496110" lon="-6.1373980">
        <ele>101.0</ele>
        <time>2021-07-21T09:06:29Z</time>
      </trkpt>
      <trkpt lat="43.5496500" lon="-6.1374520">
        <ele>100.6</ele>
        <time>2021-07-21T09:06:30Z</time>
      </trkpt>
      <trkpt lat="43.5496890" lon="-6.1375060">
        <ele>100.2</ele>
        <time>2021-07-21T09:06:31Z</time>
      </trkpt>
      <trkpt lat="43.5497700" lon="-6.1376150">
        <ele>100.2</ele>
        <time>2021-07-21T09:06:33Z</time>
      </trkpt>
      <trkpt lat="43.5499000" lon="-6.1377850">
        <ele>99.4</ele>
        <time>2021-07-21T09:06:36Z</time>
      </trkpt>
      <trkpt lat="43.5499430" lon="-6.1378400">
        <ele>99.0</ele>
        <time>2021-07-21T09:06:37Z</time>
      </trkpt>
      <trkpt lat="43.5499870" lon="-6.1378930">
        <ele>98.6</ele>
        <time>2021-07-21T09:06:38Z</time>
      </trkpt>
      <trkpt lat="43.5500320" lon="-6.1379440">
        <ele>98.2</ele>
        <time>2021-07-21T09:06:39Z</time>
      </trkpt>
      <trkpt lat="43.5501270" lon="-6.1380420">
        <ele>98.2</ele>
        <time>2021-07-21T09:06:41Z</time>
      </trkpt>
      <trkpt lat="43.5504830" lon="-6.1384040">
        <ele>98.2</ele>
        <time>2021-07-21T09:06:49Z</time>
      </trkpt>
      <trkpt lat="43.5505700" lon="-6.1384940">
        <ele>98.2</ele>
        <time>2021-07-21T09:06:51Z</time>
      </trkpt>
      <trkpt lat="43.5506090" lon="-6.1385420">
        <ele>97.6</ele>
        <time>2021-07-21T09:06:52Z</time>
      </trkpt>
      <trkpt lat="43.5506470" lon="-6.1385850">
        <ele>97.2</ele>
        <time>2021-07-21T09:06:53Z</time>
      </trkpt>
      <trkpt lat="43.5506860" lon="-6.1386290">
        <ele>96.8</ele>
        <time>2021-07-21T09:06:54Z</time>
      </trkpt>
      <trkpt lat="43.5507230" lon="-6.1386710">
        <ele>96.4</ele>
        <time>2021-07-21T09:06:55Z</time>
      </trkpt>
      <trkpt lat="43.5507610" lon="-6.1387110">
        <ele>96.0</ele>
        <time>2021-07-21T09:06:56Z</time>
      </trkpt>
      <trkpt lat="43.5507910" lon="-6.1387430">
        <ele>96.0</ele>
        <time>2021-07-21T09:06:57Z</time>
      </trkpt>
      <trkpt lat="43.5508860" lon="-6.1388510">
        <ele>96.0</ele>
        <time>2021-07-21T09:07:00Z</time>
      </trkpt>
      <trkpt lat="43.5510070" lon="-6.1390160">
        <ele>96.0</ele>
        <time>2021-07-21T09:07:04Z</time>
      </trkpt>
      <trkpt lat="43.5510730" lon="-6.1391010">
        <ele>96.0</ele>
        <time>2021-07-21T09:07:06Z</time>
      </trkpt>
      <trkpt lat="43.5511360" lon="-6.1391900">
        <ele>96.0</ele>
        <time>2021-07-21T09:07:08Z</time>
      </trkpt>
      <trkpt lat="43.5511970" lon="-6.1392880">
        <ele>96.0</ele>
        <time>2021-07-21T09:07:10Z</time>
      </trkpt>
      <trkpt lat="43.5513410" lon="-6.1394980">
        <ele>96.0</ele>
        <time>2021-07-21T09:07:14Z</time>
      </trkpt>
      <trkpt lat="43.5514510" lon="-6.1396710">
        <ele>96.0</ele>
        <time>2021-07-21T09:07:17Z</time>
      </trkpt>
      <trkpt lat="43.5515560" lon="-6.1398330">
        <ele>96.0</ele>
        <time>2021-07-21T09:07:20Z</time>
      </trkpt>
      <trkpt lat="43.5516930" lon="-6.1400370">
        <ele>96.0</ele>
        <time>2021-07-21T09:07:24Z</time>
      </trkpt>
      <trkpt lat="43.5518260" lon="-6.1402270">
        <ele>96.0</ele>
        <time>2021-07-21T09:07:28Z</time>
      </trkpt>
      <trkpt lat="43.5519670" lon="-6.1404040">
        <ele>96.0</ele>
        <time>2021-07-21T09:07:32Z</time>
      </trkpt>
      <trkpt lat="43.5521460" lon="-6.1406350">
        <ele>96.0</ele>
        <time>2021-07-21T09:07:38Z</time>
      </trkpt>
      <trkpt lat="43.5522250" lon="-6.1407070">
        <ele>95.6</ele>
        <time>2021-07-21T09:07:42Z</time>
      </trkpt>
      <trkpt lat="43.5522270" lon="-6.1407060">
        <ele>95.2</ele>
        <time>2021-07-21T09:07:43Z</time>
      </trkpt>
      <trkpt lat="43.5522270" lon="-6.1407040">
        <ele>94.8</ele>
        <time>2021-07-21T09:07:44Z</time>
      </trkpt>
      <trkpt lat="43.5522230" lon="-6.1407050">
        <ele>94.4</ele>
        <time>2021-07-21T09:07:45Z</time>
      </trkpt>
      <trkpt lat="43.5522130" lon="-6.1407440">
        <ele>94.0</ele>
        <time>2021-07-21T09:07:52Z</time>
      </trkpt>
      <trkpt lat="43.5522340" lon="-6.1408170">
        <ele>94.0</ele>
        <time>2021-07-21T09:07:54Z</time>
      </trkpt>
      <trkpt lat="43.5522860" lon="-6.1409550">
        <ele>94.0</ele>
        <time>2021-07-21T09:07:57Z</time>
      </trkpt>
      <trkpt lat="43.5523380" lon="-6.1410940">
        <ele>94.0</ele>
        <time>2021-07-21T09:08:00Z</time>
      </trkpt>
      <trkpt lat="43.5523940" lon="-6.1412340">
        <ele>94.0</ele>
        <time>2021-07-21T09:08:03Z</time>
      </trkpt>
      <trkpt lat="43.5524440" lon="-6.1413120">
        <ele>94.0</ele>
        <time>2021-07-21T09:08:05Z</time>
      </trkpt>
      <trkpt lat="43.5524680" lon="-6.1413520">
        <ele>94.0</ele>
        <time>2021-07-21T09:08:06Z</time>
      </trkpt>
      <trkpt lat="43.5525260" lon="-6.1414280">
        <ele>94.0</ele>
        <time>2021-07-21T09:08:08Z</time>
      </trkpt>
      <trkpt lat="43.5526720" lon="-6.1416750">
        <ele>94.0</ele>
        <time>2021-07-21T09:08:13Z</time>
      </trkpt>
      <trkpt lat="43.5528120" lon="-6.1419240">
        <ele>93.6</ele>
        <time>2021-07-21T09:08:18Z</time>
      </trkpt>
      <trkpt lat="43.5528390" lon="-6.1419750">
        <ele>93.2</ele>
        <time>2021-07-21T09:08:19Z</time>
      </trkpt>
      <trkpt lat="43.5528660" lon="-6.1420250">
        <ele>92.6</ele>
        <time>2021-07-21T09:08:20Z</time>
      </trkpt>
      <trkpt lat="43.5528930" lon="-6.1420750">
        <ele>92.2</ele>
        <time>2021-07-21T09:08:21Z</time>
      </trkpt>
      <trkpt lat="43.5529250" lon="-6.1421270">
        <ele>91.8</ele>
        <time>2021-07-21T09:08:22Z</time>
      </trkpt>
      <trkpt lat="43.5531550" lon="-6.1425390">
        <ele>91.8</ele>
        <time>2021-07-21T09:08:30Z</time>
      </trkpt>
      <trkpt lat="43.5531800" lon="-6.1425930">
        <ele>91.8</ele>
        <time>2021-07-21T09:08:31Z</time>
      </trkpt>
      <trkpt lat="43.5533880" lon="-6.1430200">
        <ele>91.4</ele>
        <time>2021-07-21T09:08:39Z</time>
      </trkpt>
      <trkpt lat="43.5534170" lon="-6.1430720">
        <ele>90.6</ele>
        <time>2021-07-21T09:08:40Z</time>
      </trkpt>
      <trkpt lat="43.5534420" lon="-6.1431260">
        <ele>90.2</ele>
        <time>2021-07-21T09:08:41Z</time>
      </trkpt>
      <trkpt lat="43.5534720" lon="-6.1431810">
        <ele>89.8</ele>
        <time>2021-07-21T09:08:42Z</time>
      </trkpt>
      <trkpt lat="43.5535500" lon="-6.1433420">
        <ele>89.8</ele>
        <time>2021-07-21T09:08:45Z</time>
      </trkpt>
      <trkpt lat="43.5537580" lon="-6.1437710">
        <ele>89.8</ele>
        <time>2021-07-21T09:08:53Z</time>
      </trkpt>
      <trkpt lat="43.5538510" lon="-6.1439560">
        <ele>89.4</ele>
        <time>2021-07-21T09:08:58Z</time>
      </trkpt>
      <trkpt lat="43.5538660" lon="-6.1439820">
        <ele>89.0</ele>
        <time>2021-07-21T09:08:59Z</time>
      </trkpt>
      <trkpt lat="43.5538800" lon="-6.1440110">
        <ele>88.6</ele>
        <time>2021-07-21T09:09:00Z</time>
      </trkpt>
      <trkpt lat="43.5538940" lon="-6.1440410">
        <ele>88.2</ele>
        <time>2021-07-21T09:09:01Z</time>
      </trkpt>
      <trkpt lat="43.5539060" lon="-6.1440730">
        <ele>87.8</ele>
        <time>2021-07-21T09:09:02Z</time>
      </trkpt>
      <trkpt lat="43.5539700" lon="-6.1442160">
        <ele>87.8</ele>
        <time>2021-07-21T09:09:07Z</time>
      </trkpt>
      <trkpt lat="43.5540190" lon="-6.1443720">
        <ele>87.8</ele>
        <time>2021-07-21T09:09:11Z</time>
      </trkpt>
      <trkpt lat="43.5540360" lon="-6.1444290">
        <ele>87.8</ele>
        <time>2021-07-21T09:09:13Z</time>
      </trkpt>
      <trkpt lat="43.5540430" lon="-6.1444850">
        <ele>87.8</ele>
        <time>2021-07-21T09:09:17Z</time>
      </trkpt>
      <trkpt lat="43.5540350" lon="-6.1445780">
        <ele>85.6</ele>
        <time>2021-07-21T09:11:38Z</time>
      </trkpt>
      <trkpt lat="43.5540410" lon="-6.1446120">
        <ele>85.6</ele>
        <time>2021-07-21T09:11:39Z</time>
      </trkpt>
      <trkpt lat="43.5540970" lon="-6.1447960">
        <ele>85.6</ele>
        <time>2021-07-21T09:11:43Z</time>
      </trkpt>
      <trkpt lat="43.5541820" lon="-6.1451590">
        <ele>85.6</ele>
        <time>2021-07-21T09:11:48Z</time>
      </trkpt>
      <trkpt lat="43.5542200" lon="-6.1453380">
        <ele>85.2</ele>
        <time>2021-07-21T09:11:50Z</time>
      </trkpt>
      <trkpt lat="43.5542400" lon="-6.1454340">
        <ele>84.8</ele>
        <time>2021-07-21T09:11:51Z</time>
      </trkpt>
      <trkpt lat="43.5542640" lon="-6.1455400">
        <ele>84.4</ele>
        <time>2021-07-21T09:11:52Z</time>
      </trkpt>
      <trkpt lat="43.5542870" lon="-6.1456430">
        <ele>84.0</ele>
        <time>2021-07-21T09:11:53Z</time>
      </trkpt>
      <trkpt lat="43.5543070" lon="-6.1457440">
        <ele>83.6</ele>
        <time>2021-07-21T09:11:54Z</time>
      </trkpt>
      <trkpt lat="43.5543390" lon="-6.1459400">
        <ele>83.2</ele>
        <time>2021-07-21T09:11:56Z</time>
      </trkpt>
      <trkpt lat="43.5543540" lon="-6.1460410">
        <ele>82.8</ele>
        <time>2021-07-21T09:11:57Z</time>
      </trkpt>
      <trkpt lat="43.5543690" lon="-6.1461440">
        <ele>82.4</ele>
        <time>2021-07-21T09:11:58Z</time>
      </trkpt>
      <trkpt lat="43.5543920" lon="-6.1462550">
        <ele>81.4</ele>
        <time>2021-07-21T09:11:59Z</time>
      </trkpt>
      <trkpt lat="43.5544130" lon="-6.1463580">
        <ele>80.8</ele>
        <time>2021-07-21T09:12:00Z</time>
      </trkpt>
      <trkpt lat="43.5544360" lon="-6.1464620">
        <ele>80.2</ele>
        <time>2021-07-21T09:12:01Z</time>
      </trkpt>
      <trkpt lat="43.5544590" lon="-6.1465640">
        <ele>79.8</ele>
        <time>2021-07-21T09:12:02Z</time>
      </trkpt>
      <trkpt lat="43.5544840" lon="-6.1466640">
        <ele>79.2</ele>
        <time>2021-07-21T09:12:03Z</time>
      </trkpt>
      <trkpt lat="43.5545080" lon="-6.1467580">
        <ele>78.6</ele>
        <time>2021-07-21T09:12:04Z</time>
      </trkpt>
      <trkpt lat="43.5545320" lon="-6.1468510">
        <ele>78.0</ele>
        <time>2021-07-21T09:12:05Z</time>
      </trkpt>
      <trkpt lat="43.5545580" lon="-6.1469460">
        <ele>77.2</ele>
        <time>2021-07-21T09:12:06Z</time>
      </trkpt>
      <trkpt lat="43.5545860" lon="-6.1470360">
        <ele>76.6</ele>
        <time>2021-07-21T09:12:07Z</time>
      </trkpt>
      <trkpt lat="43.5546280" lon="-6.1471190">
        <ele>75.8</ele>
        <time>2021-07-21T09:12:08Z</time>
      </trkpt>
      <trkpt lat="43.5546750" lon="-6.1472030">
        <ele>75.2</ele>
        <time>2021-07-21T09:12:09Z</time>
      </trkpt>
      <trkpt lat="43.5547300" lon="-6.1472790">
        <ele>74.6</ele>
        <time>2021-07-21T09:12:10Z</time>
      </trkpt>
      <trkpt lat="43.5547860" lon="-6.1473510">
        <ele>74.0</ele>
        <time>2021-07-21T09:12:11Z</time>
      </trkpt>
      <trkpt lat="43.5548430" lon="-6.1474240">
        <ele>73.6</ele>
        <time>2021-07-21T09:12:12Z</time>
      </trkpt>
      <trkpt lat="43.5549000" lon="-6.1474960">
        <ele>73.2</ele>
        <time>2021-07-21T09:12:13Z</time>
      </trkpt>
      <trkpt lat="43.5549610" lon="-6.1475720">
        <ele>72.6</ele>
        <time>2021-07-21T09:12:14Z</time>
      </trkpt>
      <trkpt lat="43.5550190" lon="-6.1476480">
        <ele>72.0</ele>
        <time>2021-07-21T09:12:15Z</time>
      </trkpt>
      <trkpt lat="43.5550740" lon="-6.1477180">
        <ele>71.6</ele>
        <time>2021-07-21T09:12:16Z</time>
      </trkpt>
      <trkpt lat="43.5551260" lon="-6.1477860">
        <ele>71.0</ele>
        <time>2021-07-21T09:12:17Z</time>
      </trkpt>
      <trkpt lat="43.5551750" lon="-6.1478470">
        <ele>70.4</ele>
        <time>2021-07-21T09:12:18Z</time>
      </trkpt>
      <trkpt lat="43.5552210" lon="-6.1479020">
        <ele>69.8</ele>
        <time>2021-07-21T09:12:19Z</time>
      </trkpt>
      <trkpt lat="43.5552620" lon="-6.1479540">
        <ele>69.2</ele>
        <time>2021-07-21T09:12:20Z</time>
      </trkpt>
      <trkpt lat="43.5553020" lon="-6.1480080">
        <ele>68.6</ele>
        <time>2021-07-21T09:12:21Z</time>
      </trkpt>
      <trkpt lat="43.5553480" lon="-6.1480660">
        <ele>68.0</ele>
        <time>2021-07-21T09:12:22Z</time>
      </trkpt>
      <trkpt lat="43.5553990" lon="-6.1481200">
        <ele>66.6</ele>
        <time>2021-07-21T09:12:23Z</time>
      </trkpt>
      <trkpt lat="43.5554550" lon="-6.1481690">
        <ele>66.0</ele>
        <time>2021-07-21T09:12:24Z</time>
      </trkpt>
      <trkpt lat="43.5555140" lon="-6.1482160">
        <ele>65.2</ele>
        <time>2021-07-21T09:12:25Z</time>
      </trkpt>
      <trkpt lat="43.5555780" lon="-6.1482590">
        <ele>64.8</ele>
        <time>2021-07-21T09:12:26Z</time>
      </trkpt>
      <trkpt lat="43.5556430" lon="-6.1483010">
        <ele>64.4</ele>
        <time>2021-07-21T09:12:27Z</time>
      </trkpt>
      <trkpt lat="43.5557080" lon="-6.1483440">
        <ele>64.0</ele>
        <time>2021-07-21T09:12:28Z</time>
      </trkpt>
      <trkpt lat="43.5557770" lon="-6.1483860">
        <ele>63.6</ele>
        <time>2021-07-21T09:12:29Z</time>
      </trkpt>
      <trkpt lat="43.5558410" lon="-6.1484300">
        <ele>63.0</ele>
        <time>2021-07-21T09:12:30Z</time>
      </trkpt>
      <trkpt lat="43.5559660" lon="-6.1485160">
        <ele>62.6</ele>
        <time>2021-07-21T09:12:32Z</time>
      </trkpt>
      <trkpt lat="43.5560260" lon="-6.1485610">
        <ele>62.2</ele>
        <time>2021-07-21T09:12:33Z</time>
      </trkpt>
      <trkpt lat="43.5560870" lon="-6.1486030">
        <ele>61.6</ele>
        <time>2021-07-21T09:12:34Z</time>
      </trkpt>
      <trkpt lat="43.5561490" lon="-6.1486390">
        <ele>61.0</ele>
        <time>2021-07-21T09:12:35Z</time>
      </trkpt>
      <trkpt lat="43.5562240" lon="-6.1486580">
        <ele>60.4</ele>
        <time>2021-07-21T09:12:36Z</time>
      </trkpt>
      <trkpt lat="43.5563030" lon="-6.1486780">
        <ele>59.8</ele>
        <time>2021-07-21T09:12:37Z</time>
      </trkpt>
      <trkpt lat="43.5563760" lon="-6.1486960">
        <ele>59.2</ele>
        <time>2021-07-21T09:12:38Z</time>
      </trkpt>
      <trkpt lat="43.5564510" lon="-6.1487130">
        <ele>58.6</ele>
        <time>2021-07-21T09:12:39Z</time>
      </trkpt>
      <trkpt lat="43.5565200" lon="-6.1487250">
        <ele>58.0</ele>
        <time>2021-07-21T09:12:40Z</time>
      </trkpt>
      <trkpt lat="43.5565890" lon="-6.1487430">
        <ele>57.6</ele>
        <time>2021-07-21T09:12:41Z</time>
      </trkpt>
      <trkpt lat="43.5566610" lon="-6.1487600">
        <ele>57.2</ele>
        <time>2021-07-21T09:12:42Z</time>
      </trkpt>
      <trkpt lat="43.5567390" lon="-6.1487670">
        <ele>56.6</ele>
        <time>2021-07-21T09:12:43Z</time>
      </trkpt>
      <trkpt lat="43.5568180" lon="-6.1487740">
        <ele>56.0</ele>
        <time>2021-07-21T09:12:44Z</time>
      </trkpt>
      <trkpt lat="43.5568860" lon="-6.1487760">
        <ele>55.4</ele>
        <time>2021-07-21T09:12:45Z</time>
      </trkpt>
      <trkpt lat="43.5569620" lon="-6.1487630">
        <ele>54.8</ele>
        <time>2021-07-21T09:12:46Z</time>
      </trkpt>
      <trkpt lat="43.5570390" lon="-6.1487450">
        <ele>54.2</ele>
        <time>2021-07-21T09:12:47Z</time>
      </trkpt>
      <trkpt lat="43.5571100" lon="-6.1487300">
        <ele>52.8</ele>
        <time>2021-07-21T09:12:48Z</time>
      </trkpt>
      <trkpt lat="43.5571770" lon="-6.1487160">
        <ele>52.0</ele>
        <time>2021-07-21T09:12:49Z</time>
      </trkpt>
      <trkpt lat="43.5572410" lon="-6.1487020">
        <ele>51.2</ele>
        <time>2021-07-21T09:12:50Z</time>
      </trkpt>
      <trkpt lat="43.5573050" lon="-6.1486910">
        <ele>50.4</ele>
        <time>2021-07-21T09:12:51Z</time>
      </trkpt>
      <trkpt lat="43.5573660" lon="-6.1486840">
        <ele>49.6</ele>
        <time>2021-07-21T09:12:52Z</time>
      </trkpt>
      <trkpt lat="43.5574210" lon="-6.1486750">
        <ele>49.0</ele>
        <time>2021-07-21T09:12:53Z</time>
      </trkpt>
      <trkpt lat="43.5574730" lon="-6.1486710">
        <ele>48.4</ele>
        <time>2021-07-21T09:12:54Z</time>
      </trkpt>
      <trkpt lat="43.5575270" lon="-6.1486690">
        <ele>47.6</ele>
        <time>2021-07-21T09:12:55Z</time>
      </trkpt>
      <trkpt lat="43.5575830" lon="-6.1486740">
        <ele>47.0</ele>
        <time>2021-07-21T09:12:56Z</time>
      </trkpt>
      <trkpt lat="43.5576380" lon="-6.1486860">
        <ele>46.2</ele>
        <time>2021-07-21T09:12:57Z</time>
      </trkpt>
      <trkpt lat="43.5577510" lon="-6.1487140">
        <ele>45.8</ele>
        <time>2021-07-21T09:12:59Z</time>
      </trkpt>
      <trkpt lat="43.5578120" lon="-6.1487310">
        <ele>45.2</ele>
        <time>2021-07-21T09:13:00Z</time>
      </trkpt>
      <trkpt lat="43.5578730" lon="-6.1487480">
        <ele>44.8</ele>
        <time>2021-07-21T09:13:01Z</time>
      </trkpt>
      <trkpt lat="43.5579270" lon="-6.1487650">
        <ele>44.2</ele>
        <time>2021-07-21T09:13:02Z</time>
      </trkpt>
      <trkpt lat="43.5579840" lon="-6.1487910">
        <ele>43.8</ele>
        <time>2021-07-21T09:13:03Z</time>
      </trkpt>
      <trkpt lat="43.5580450" lon="-6.1488220">
        <ele>43.4</ele>
        <time>2021-07-21T09:13:04Z</time>
      </trkpt>
      <trkpt lat="43.5581070" lon="-6.1488510">
        <ele>43.0</ele>
        <time>2021-07-21T09:13:05Z</time>
      </trkpt>
      <trkpt lat="43.5581690" lon="-6.1488830">
        <ele>42.4</ele>
        <time>2021-07-21T09:13:06Z</time>
      </trkpt>
      <trkpt lat="43.5582270" lon="-6.1489180">
        <ele>42.0</ele>
        <time>2021-07-21T09:13:07Z</time>
      </trkpt>
      <trkpt lat="43.5582830" lon="-6.1489540">
        <ele>41.4</ele>
        <time>2021-07-21T09:13:08Z</time>
      </trkpt>
      <trkpt lat="43.5583350" lon="-6.1489900">
        <ele>40.8</ele>
        <time>2021-07-21T09:13:09Z</time>
      </trkpt>
      <trkpt lat="43.5583830" lon="-6.1490190">
        <ele>40.2</ele>
        <time>2021-07-21T09:13:10Z</time>
      </trkpt>
      <trkpt lat="43.5584270" lon="-6.1490440">
        <ele>39.6</ele>
        <time>2021-07-21T09:13:11Z</time>
      </trkpt>
      <trkpt lat="43.5584670" lon="-6.1490740">
        <ele>39.0</ele>
        <time>2021-07-21T09:13:12Z</time>
      </trkpt>
      <trkpt lat="43.5585070" lon="-6.1490970">
        <ele>37.6</ele>
        <time>2021-07-21T09:13:13Z</time>
      </trkpt>
      <trkpt lat="43.5585450" lon="-6.1491190">
        <ele>37.2</ele>
        <time>2021-07-21T09:13:14Z</time>
      </trkpt>
      <trkpt lat="43.5585790" lon="-6.1491390">
        <ele>36.6</ele>
        <time>2021-07-21T09:13:15Z</time>
      </trkpt>
      <trkpt lat="43.5586110" lon="-6.1491550">
        <ele>36.0</ele>
        <time>2021-07-21T09:13:16Z</time>
      </trkpt>
      <trkpt lat="43.5586410" lon="-6.1491680">
        <ele>35.4</ele>
        <time>2021-07-21T09:13:17Z</time>
      </trkpt>
      <trkpt lat="43.5586700" lon="-6.1491810">
        <ele>34.8</ele>
        <time>2021-07-21T09:13:18Z</time>
      </trkpt>
      <trkpt lat="43.5586970" lon="-6.1491950">
        <ele>34.4</ele>
        <time>2021-07-21T09:13:19Z</time>
      </trkpt>
      <trkpt lat="43.5587170" lon="-6.1492010">
        <ele>34.0</ele>
        <time>2021-07-21T09:13:20Z</time>
      </trkpt>
      <trkpt lat="43.5587400" lon="-6.1491980">
        <ele>33.6</ele>
        <time>2021-07-21T09:13:21Z</time>
      </trkpt>
      <trkpt lat="43.5587620" lon="-6.1491880">
        <ele>33.2</ele>
        <time>2021-07-21T09:13:22Z</time>
      </trkpt>
      <trkpt lat="43.5587850" lon="-6.1491810">
        <ele>32.8</ele>
        <time>2021-07-21T09:13:23Z</time>
      </trkpt>
      <trkpt lat="43.5588140" lon="-6.1491670">
        <ele>32.4</ele>
        <time>2021-07-21T09:13:24Z</time>
      </trkpt>
      <trkpt lat="43.5588890" lon="-6.1491000">
        <ele>32.0</ele>
        <time>2021-07-21T09:13:25Z</time>
      </trkpt>
      <trkpt lat="43.5589460" lon="-6.1490560">
        <ele>31.6</ele>
        <time>2021-07-21T09:13:26Z</time>
      </trkpt>
      <trkpt lat="43.5589920" lon="-6.1490320">
        <ele>31.0</ele>
        <time>2021-07-21T09:13:27Z</time>
      </trkpt>
      <trkpt lat="43.5590160" lon="-6.1490200">
        <ele>30.6</ele>
        <time>2021-07-21T09:13:28Z</time>
      </trkpt>
      <trkpt lat="43.5590370" lon="-6.1490160">
        <ele>30.0</ele>
        <time>2021-07-21T09:13:29Z</time>
      </trkpt>
      <trkpt lat="43.5590610" lon="-6.1490120">
        <ele>29.4</ele>
        <time>2021-07-21T09:13:30Z</time>
      </trkpt>
      <trkpt lat="43.5590870" lon="-6.1490070">
        <ele>28.8</ele>
        <time>2021-07-21T09:13:31Z</time>
      </trkpt>
      <trkpt lat="43.5591100" lon="-6.1489990">
        <ele>28.2</ele>
        <time>2021-07-21T09:13:32Z</time>
      </trkpt>
      <trkpt lat="43.5591290" lon="-6.1489900">
        <ele>28.2</ele>
        <time>2021-07-21T09:13:33Z</time>
      </trkpt>
      <trkpt lat="43.5591500" lon="-6.1489860">
        <ele>27.8</ele>
        <time>2021-07-21T09:13:34Z</time>
      </trkpt>
      <trkpt lat="43.5591690" lon="-6.1489790">
        <ele>27.4</ele>
        <time>2021-07-21T09:13:35Z</time>
      </trkpt>
      <trkpt lat="43.5591920" lon="-6.1489780">
        <ele>27.0</ele>
        <time>2021-07-21T09:13:36Z</time>
      </trkpt>
      <trkpt lat="43.5592190" lon="-6.1489690">
        <ele>26.0</ele>
        <time>2021-07-21T09:13:37Z</time>
      </trkpt>
      <trkpt lat="43.5592480" lon="-6.1489590">
        <ele>25.4</ele>
        <time>2021-07-21T09:13:38Z</time>
      </trkpt>
      <trkpt lat="43.5592820" lon="-6.1489480">
        <ele>24.8</ele>
        <time>2021-07-21T09:13:39Z</time>
      </trkpt>
      <trkpt lat="43.5593040" lon="-6.1489600">
        <ele>24.4</ele>
        <time>2021-07-21T09:13:40Z</time>
      </trkpt>
      <trkpt lat="43.5593350" lon="-6.1489520">
        <ele>23.8</ele>
        <time>2021-07-21T09:13:41Z</time>
      </trkpt>
      <trkpt lat="43.5594070" lon="-6.1489460">
        <ele>23.4</ele>
        <time>2021-07-21T09:13:43Z</time>
      </trkpt>
      <trkpt lat="43.5594480" lon="-6.1489480">
        <ele>23.0</ele>
        <time>2021-07-21T09:13:44Z</time>
      </trkpt>
      <trkpt lat="43.5594890" lon="-6.1489560">
        <ele>22.6</ele>
        <time>2021-07-21T09:13:45Z</time>
      </trkpt>
      <trkpt lat="43.5595260" lon="-6.1489600">
        <ele>22.2</ele>
        <time>2021-07-21T09:13:46Z</time>
      </trkpt>
      <trkpt lat="43.5595710" lon="-6.1489710">
        <ele>21.8</ele>
        <time>2021-07-21T09:13:47Z</time>
      </trkpt>
      <trkpt lat="43.5596210" lon="-6.1489850">
        <ele>21.4</ele>
        <time>2021-07-21T09:13:48Z</time>
      </trkpt>
      <trkpt lat="43.5596690" lon="-6.1489980">
        <ele>20.8</ele>
        <time>2021-07-21T09:13:49Z</time>
      </trkpt>
      <trkpt lat="43.5597120" lon="-6.1490100">
        <ele>20.4</ele>
        <time>2021-07-21T09:13:50Z</time>
      </trkpt>
      <trkpt lat="43.5597560" lon="-6.1490180">
        <ele>20.0</ele>
        <time>2021-07-21T09:13:51Z</time>
      </trkpt>
      <trkpt lat="43.5597980" lon="-6.1490200">
        <ele>19.6</ele>
        <time>2021-07-21T09:13:52Z</time>
      </trkpt>
      <trkpt lat="43.5598480" lon="-6.1490020">
        <ele>19.0</ele>
        <time>2021-07-21T09:13:53Z</time>
      </trkpt>
      <trkpt lat="43.5598900" lon="-6.1490010">
        <ele>18.6</ele>
        <time>2021-07-21T09:13:54Z</time>
      </trkpt>
      <trkpt lat="43.5599290" lon="-6.1489930">
        <ele>18.0</ele>
        <time>2021-07-21T09:13:55Z</time>
      </trkpt>
      <trkpt lat="43.5599740" lon="-6.1489750">
        <ele>17.6</ele>
        <time>2021-07-21T09:13:56Z</time>
      </trkpt>
      <trkpt lat="43.5600160" lon="-6.1489570">
        <ele>17.0</ele>
        <time>2021-07-21T09:13:57Z</time>
      </trkpt>
      <trkpt lat="43.5601300" lon="-6.1488740">
        <ele>17.0</ele>
        <time>2021-07-21T09:14:00Z</time>
      </trkpt>
      <trkpt lat="43.5601920" lon="-6.1488070">
        <ele>16.6</ele>
        <time>2021-07-21T09:14:02Z</time>
      </trkpt>
      <trkpt lat="43.5602160" lon="-6.1487730">
        <ele>16.2</ele>
        <time>2021-07-21T09:14:03Z</time>
      </trkpt>
      <trkpt lat="43.5602400" lon="-6.1487410">
        <ele>15.8</ele>
        <time>2021-07-21T09:14:04Z</time>
      </trkpt>
      <trkpt lat="43.5602720" lon="-6.1487120">
        <ele>15.4</ele>
        <time>2021-07-21T09:14:05Z</time>
      </trkpt>
      <trkpt lat="43.5603080" lon="-6.1486890">
        <ele>15.0</ele>
        <time>2021-07-21T09:14:06Z</time>
      </trkpt>
      <trkpt lat="43.5603430" lon="-6.1486630">
        <ele>14.6</ele>
        <time>2021-07-21T09:14:07Z</time>
      </trkpt>
      <trkpt lat="43.5603780" lon="-6.1486390">
        <ele>14.0</ele>
        <time>2021-07-21T09:14:08Z</time>
      </trkpt>
      <trkpt lat="43.5604190" lon="-6.1486150">
        <ele>13.6</ele>
        <time>2021-07-21T09:14:09Z</time>
      </trkpt>
      <trkpt lat="43.5604580" lon="-6.1485930">
        <ele>13.0</ele>
        <time>2021-07-21T09:14:10Z</time>
      </trkpt>
      <trkpt lat="43.5604930" lon="-6.1485690">
        <ele>12.6</ele>
        <time>2021-07-21T09:14:11Z</time>
      </trkpt>
      <trkpt lat="43.5605480" lon="-6.1485370">
        <ele>12.2</ele>
        <time>2021-07-21T09:14:12Z</time>
      </trkpt>
      <trkpt lat="43.5606030" lon="-6.1485060">
        <ele>11.6</ele>
        <time>2021-07-21T09:14:13Z</time>
      </trkpt>
      <trkpt lat="43.5606340" lon="-6.1484780">
        <ele>11.2</ele>
        <time>2021-07-21T09:14:14Z</time>
      </trkpt>
      <trkpt lat="43.5606600" lon="-6.1484400">
        <ele>10.8</ele>
        <time>2021-07-21T09:14:15Z</time>
      </trkpt>
      <trkpt lat="43.5607060" lon="-6.1483830">
        <ele>10.2</ele>
        <time>2021-07-21T09:14:16Z</time>
      </trkpt>
      <trkpt lat="43.5607300" lon="-6.1483490">
        <ele>9.6</ele>
        <time>2021-07-21T09:14:17Z</time>
      </trkpt>
      <trkpt lat="43.5607520" lon="-6.1483200">
        <ele>9.2</ele>
        <time>2021-07-21T09:14:18Z</time>
      </trkpt>
      <trkpt lat="43.5608080" lon="-6.1482940">
        <ele>8.6</ele>
        <time>2021-07-21T09:14:19Z</time>
      </trkpt>
      <trkpt lat="43.5608540" lon="-6.1482750">
        <ele>8.0</ele>
        <time>2021-07-21T09:14:20Z</time>
      </trkpt>
      <trkpt lat="43.5609770" lon="-6.1482580">
        <ele>7.6</ele>
        <time>2021-07-21T09:14:22Z</time>
      </trkpt>
      <trkpt lat="43.5610140" lon="-6.1482570">
        <ele>7.2</ele>
        <time>2021-07-21T09:14:23Z</time>
      </trkpt>
      <trkpt lat="43.5610500" lon="-6.1482550">
        <ele>6.8</ele>
        <time>2021-07-21T09:14:24Z</time>
      </trkpt>
      <trkpt lat="43.5610890" lon="-6.1482490">
        <ele>6.4</ele>
        <time>2021-07-21T09:14:25Z</time>
      </trkpt>
      <trkpt lat="43.5611290" lon="-6.1482530">
        <ele>6.0</ele>
        <time>2021-07-21T09:14:26Z</time>
      </trkpt>
      <trkpt lat="43.5611650" lon="-6.1482460">
        <ele>5.0</ele>
        <time>2021-07-21T09:14:27Z</time>
      </trkpt>
      <trkpt lat="43.5612020" lon="-6.1482410">
        <ele>4.6</ele>
        <time>2021-07-21T09:14:28Z</time>
      </trkpt>
      <trkpt lat="43.5612590" lon="-6.1482000">
        <ele>4.2</ele>
        <time>2021-07-21T09:14:29Z</time>
      </trkpt>
      <trkpt lat="43.5613070" lon="-6.1481920">
        <ele>3.6</ele>
        <time>2021-07-21T09:14:30Z</time>
      </trkpt>
      <trkpt lat="43.5613450" lon="-6.1481680">
        <ele>3.2</ele>
        <time>2021-07-21T09:14:31Z</time>
      </trkpt>
      <trkpt lat="43.5613850" lon="-6.1481520">
        <ele>2.8</ele>
        <time>2021-07-21T09:14:32Z</time>
      </trkpt>
      <trkpt lat="43.5614170" lon="-6.1481410">
        <ele>2.4</ele>
        <time>2021-07-21T09:14:33Z</time>
      </trkpt>
      <trkpt lat="43.5614440" lon="-6.1481380">
        <ele>2.0</ele>
        <time>2021-07-21T09:14:34Z</time>
      </trkpt>
      <trkpt lat="43.5614530" lon="-6.1481380">
        <ele>1.6</ele>
        <time>2021-07-21T09:14:35Z</time>
      </trkpt>
      <trkpt lat="43.5614750" lon="-6.1481180">
        <ele>1.6</ele>
        <time>2021-07-21T09:14:48Z</time>
      </trkpt>
      <trkpt lat="43.5615050" lon="-6.1480850">
        <ele>1.6</ele>
        <time>2021-07-21T09:14:50Z</time>
      </trkpt>
      <trkpt lat="43.5615570" lon="-6.1478900">
        <ele>1.2</ele>
        <time>2021-07-21T09:14:54Z</time>
      </trkpt>
      <trkpt lat="43.5615470" lon="-6.1478480">
        <ele>0.8</ele>
        <time>2021-07-21T09:14:55Z</time>
      </trkpt>
      <trkpt lat="43.5615160" lon="-6.1477990">
        <ele>0.4</ele>
        <time>2021-07-21T09:14:56Z</time>
      </trkpt>
      <trkpt lat="43.5614840" lon="-6.1477520">
        <ele>0.0</ele>
        <time>2021-07-21T09:14:57Z</time>
      </trkpt>
      <trkpt lat="43.5614540" lon="-6.1477170">
        <ele>-0.4</ele>
        <time>2021-07-21T09:14:58Z</time>
      </trkpt>
      <trkpt lat="43.5613820" lon="-6.1476430">
        <ele>-0.8</ele>
        <time>2021-07-21T09:15:00Z</time>
      </trkpt>
      <trkpt lat="43.5613490" lon="-6.1476050">
        <ele>-1.2</ele>
        <time>2021-07-21T09:15:01Z</time>
      </trkpt>
      <trkpt lat="43.5613210" lon="-6.1475690">
        <ele>-1.6</ele>
        <time>2021-07-21T09:15:02Z</time>
      </trkpt>
      <trkpt lat="43.5612930" lon="-6.1475370">
        <ele>-2.2</ele>
        <time>2021-07-21T09:15:03Z</time>
      </trkpt>
      <trkpt lat="43.5612720" lon="-6.1475050">
        <ele>-2.6</ele>
        <time>2021-07-21T09:15:04Z</time>
      </trkpt>
      <trkpt lat="43.5612440" lon="-6.1473660">
        <ele>-3.0</ele>
        <time>2021-07-21T09:15:07Z</time>
      </trkpt>
      <trkpt lat="43.5612280" lon="-6.1473170">
        <ele>-3.4</ele>
        <time>2021-07-21T09:15:08Z</time>
      </trkpt>
      <trkpt lat="43.5612120" lon="-6.1472640">
        <ele>-3.8</ele>
        <time>2021-07-21T09:15:09Z</time>
      </trkpt>
      <trkpt lat="43.5611970" lon="-6.1472090">
        <ele>-4.4</ele>
        <time>2021-07-21T09:15:10Z</time>
      </trkpt>
      <trkpt lat="43.5611820" lon="-6.1471510">
        <ele>-4.8</ele>
        <time>2021-07-21T09:15:11Z</time>
      </trkpt>
      <trkpt lat="43.5611660" lon="-6.1470980">
        <ele>-5.2</ele>
        <time>2021-07-21T09:15:12Z</time>
      </trkpt>
      <trkpt lat="43.5611520" lon="-6.1470430">
        <ele>-5.6</ele>
        <time>2021-07-21T09:15:13Z</time>
      </trkpt>
      <trkpt lat="43.5611400" lon="-6.1469870">
        <ele>-6.0</ele>
        <time>2021-07-21T09:15:14Z</time>
      </trkpt>
      <trkpt lat="43.5611330" lon="-6.1469310">
        <ele>-6.4</ele>
        <time>2021-07-21T09:15:15Z</time>
      </trkpt>
      <trkpt lat="43.5611260" lon="-6.1468730">
        <ele>-7.6</ele>
        <time>2021-07-21T09:15:16Z</time>
      </trkpt>
      <trkpt lat="43.5611240" lon="-6.1468170">
        <ele>-8.0</ele>
        <time>2021-07-21T09:15:17Z</time>
      </trkpt>
      <trkpt lat="43.5611240" lon="-6.1467650">
        <ele>-8.6</ele>
        <time>2021-07-21T09:15:18Z</time>
      </trkpt>
      <trkpt lat="43.5611360" lon="-6.1467120">
        <ele>-9.2</ele>
        <time>2021-07-21T09:15:19Z</time>
      </trkpt>
      <trkpt lat="43.5611530" lon="-6.1466640">
        <ele>-9.6</ele>
        <time>2021-07-21T09:15:20Z</time>
      </trkpt>
      <trkpt lat="43.5611680" lon="-6.1466170">
        <ele>-10.0</ele>
        <time>2021-07-21T09:15:21Z</time>
      </trkpt>
      <trkpt lat="43.5611830" lon="-6.1465730">
        <ele>-10.4</ele>
        <time>2021-07-21T09:15:22Z</time>
      </trkpt>
      <trkpt lat="43.5611930" lon="-6.1465390">
        <ele>-10.8</ele>
        <time>2021-07-21T09:15:23Z</time>
      </trkpt>
      <trkpt lat="43.5612110" lon="-6.1465200">
        <ele>-11.2</ele>
        <time>2021-07-21T09:15:24Z</time>
      </trkpt>
      <trkpt lat="43.5612640" lon="-6.1464980">
        <ele>-11.2</ele>
        <time>2021-07-21T09:15:26Z</time>
      </trkpt>
      <trkpt lat="43.5613840" lon="-6.1464690">
        <ele>-11.2</ele>
        <time>2021-07-21T09:15:29Z</time>
      </trkpt>
      <trkpt lat="43.5614870" lon="-6.1464210">
        <ele>-11.2</ele>
        <time>2021-07-21T09:15:32Z</time>
      </trkpt>
      <trkpt lat="43.5615720" lon="-6.1464250">
        <ele>-11.6</ele>
        <time>2021-07-21T09:15:35Z</time>
      </trkpt>
      <trkpt lat="43.5616040" lon="-6.1464270">
        <ele>-12.0</ele>
        <time>2021-07-21T09:15:36Z</time>
      </trkpt>
      <trkpt lat="43.5616320" lon="-6.1464140">
        <ele>-12.4</ele>
        <time>2021-07-21T09:15:37Z</time>
      </trkpt>
      <trkpt lat="43.5616610" lon="-6.1464020">
        <ele>-12.8</ele>
        <time>2021-07-21T09:15:38Z</time>
      </trkpt>
      <trkpt lat="43.5616960" lon="-6.1463980">
        <ele>-13.2</ele>
        <time>2021-07-21T09:15:39Z</time>
      </trkpt>
      <trkpt lat="43.5620530" lon="-6.1464370">
        <ele>-13.2</ele>
        <time>2021-07-21T09:15:46Z</time>
      </trkpt>
      <trkpt lat="43.5622960" lon="-6.1464680">
        <ele>-13.6</ele>
        <time>2021-07-21T09:15:52Z</time>
      </trkpt>
      <trkpt lat="43.5623450" lon="-6.1464830">
        <ele>-14.0</ele>
        <time>2021-07-21T09:15:53Z</time>
      </trkpt>
      <trkpt lat="43.5623940" lon="-6.1464960">
        <ele>-14.4</ele>
        <time>2021-07-21T09:15:54Z</time>
      </trkpt>
      <trkpt lat="43.5624420" lon="-6.1465040">
        <ele>-14.8</ele>
        <time>2021-07-21T09:15:55Z</time>
      </trkpt>
      <trkpt lat="43.5624970" lon="-6.1464980">
        <ele>-15.2</ele>
        <time>2021-07-21T09:15:56Z</time>
      </trkpt>
      <trkpt lat="43.5626090" lon="-6.1464700">
        <ele>-15.2</ele>
        <time>2021-07-21T09:15:58Z</time>
      </trkpt>
      <trkpt lat="43.5626850" lon="-6.1464390">
        <ele>-15.2</ele>
        <time>2021-07-21T09:15:59Z</time>
      </trkpt>
      <trkpt lat="43.5628340" lon="-6.1463710">
        <ele>-15.6</ele>
        <time>2021-07-21T09:16:02Z</time>
      </trkpt>
      <trkpt lat="43.5628750" lon="-6.1463410">
        <ele>-16.0</ele>
        <time>2021-07-21T09:16:03Z</time>
      </trkpt>
      <trkpt lat="43.5629020" lon="-6.1463040">
        <ele>-16.4</ele>
        <time>2021-07-21T09:16:04Z</time>
      </trkpt>
      <trkpt lat="43.5629210" lon="-6.1462640">
        <ele>-16.8</ele>
        <time>2021-07-21T09:16:05Z</time>
      </trkpt>
      <trkpt lat="43.5629350" lon="-6.1462230">
        <ele>-17.4</ele>
        <time>2021-07-21T09:16:06Z</time>
      </trkpt>
      <trkpt lat="43.5629590" lon="-6.1461560">
        <ele>-17.4</ele>
        <time>2021-07-21T09:16:08Z</time>
      </trkpt>
      <trkpt lat="43.5630010" lon="-6.1461010">
        <ele>-17.4</ele>
        <time>2021-07-21T09:16:12Z</time>
      </trkpt>
      <trkpt lat="43.5630090" lon="-6.1460910">
        <ele>-17.4</ele>
        <time>2021-07-21T09:16:13Z</time>
      </trkpt>
      <trkpt lat="43.5630110" lon="-6.1460770">
        <ele>-17.4</ele>
        <time>2021-07-21T09:16:15Z</time>
      </trkpt>
      <trkpt lat="43.5629900" lon="-6.1460160">
        <ele>-17.4</ele>
        <time>2021-07-21T09:16:29Z</time>
      </trkpt>
      <trkpt lat="43.5629990" lon="-6.1460090">
        <ele>-17.4</ele>
        <time>2021-07-21T09:16:30Z</time>
      </trkpt>
      <trkpt lat="43.5630110" lon="-6.1460030">
        <ele>-17.4</ele>
        <time>2021-07-21T09:16:32Z</time>
      </trkpt>
      <trkpt lat="43.5631350" lon="-6.1457810">
        <ele>-17.2</ele>
        <time>2021-07-21T09:17:16Z</time>
      </trkpt>
      <trkpt lat="43.5631400" lon="-6.1457600">
        <ele>-17.2</ele>
        <time>2021-07-21T09:17:17Z</time>
      </trkpt>
      <trkpt lat="43.5631390" lon="-6.1457410">
        <ele>-17.2</ele>
        <time>2021-07-21T09:17:18Z</time>
      </trkpt>
      <trkpt lat="43.5631480" lon="-6.1456890">
        <ele>-17.2</ele>
        <time>2021-07-21T09:17:23Z</time>
      </trkpt>
      <trkpt lat="43.5630840" lon="-6.1456340">
        <ele>-17.2</ele>
        <time>2021-07-21T09:17:34Z</time>
      </trkpt>
      <trkpt lat="43.5630740" lon="-6.1456390">
        <ele>-17.2</ele>
        <time>2021-07-21T09:17:36Z</time>
      </trkpt>
      <trkpt lat="43.5630820" lon="-6.1456430">
        <ele>-17.2</ele>
        <time>2021-07-21T09:17:38Z</time>
      </trkpt>
      <trkpt lat="43.5630880" lon="-6.1456510">
        <ele>-17.2</ele>
        <time>2021-07-21T09:17:40Z</time>
      </trkpt>
      <trkpt lat="43.5631940" lon="-6.1458060">
        <ele>-17.0</ele>
        <time>2021-07-21T09:28:36Z</time>
      </trkpt>
      <trkpt lat="43.5631910" lon="-6.1458200">
        <ele>-17.0</ele>
        <time>2021-07-21T09:28:37Z</time>
      </trkpt>
      <trkpt lat="43.5631850" lon="-6.1458270">
        <ele>-17.0</ele>
        <time>2021-07-21T09:28:38Z</time>
      </trkpt>
      <trkpt lat="43.5631680" lon="-6.1458400">
        <ele>-17.0</ele>
        <time>2021-07-21T09:28:41Z</time>
      </trkpt>
      <trkpt lat="43.5631170" lon="-6.1458830">
        <ele>-17.0</ele>
        <time>2021-07-21T09:28:46Z</time>
      </trkpt>
      <trkpt lat="43.5630950" lon="-6.1458930">
        <ele>-17.0</ele>
        <time>2021-07-21T09:28:47Z</time>
      </trkpt>
      <trkpt lat="43.5630080" lon="-6.1459170">
        <ele>-20.8</ele>
        <time>2021-07-21T09:29:16Z</time>
      </trkpt>
      <trkpt lat="43.5629850" lon="-6.1459100">
        <ele>-21.2</ele>
        <time>2021-07-21T09:29:17Z</time>
      </trkpt>
      <trkpt lat="43.5629660" lon="-6.1459010">
        <ele>-21.2</ele>
        <time>2021-07-21T09:29:18Z</time>
      </trkpt>
      <trkpt lat="43.5629020" lon="-6.1459160">
        <ele>-21.2</ele>
        <time>2021-07-21T09:29:22Z</time>
      </trkpt>
      <trkpt lat="43.5629040" lon="-6.1459060">
        <ele>-21.2</ele>
        <time>2021-07-21T09:29:23Z</time>
      </trkpt>
      <trkpt lat="43.5628990" lon="-6.1458350">
        <ele>-21.2</ele>
        <time>2021-07-21T09:29:26Z</time>
      </trkpt>
      <trkpt lat="43.5629280" lon="-6.1457030">
        <ele>-21.2</ele>
        <time>2021-07-21T09:29:29Z</time>
      </trkpt>
      <trkpt lat="43.5629270" lon="-6.1456730">
        <ele>-21.2</ele>
        <time>2021-07-21T09:29:30Z</time>
      </trkpt>
      <trkpt lat="43.5629300" lon="-6.1456480">
        <ele>-21.2</ele>
        <time>2021-07-21T09:29:31Z</time>
      </trkpt>
      <trkpt lat="43.5629440" lon="-6.1454690">
        <ele>-21.2</ele>
        <time>2021-07-21T09:29:35Z</time>
      </trkpt>
      <trkpt lat="43.5629780" lon="-6.1453380">
        <ele>-21.8</ele>
        <time>2021-07-21T09:29:39Z</time>
      </trkpt>
      <trkpt lat="43.5629920" lon="-6.1453160">
        <ele>-22.6</ele>
        <time>2021-07-21T09:29:40Z</time>
      </trkpt>
      <trkpt lat="43.5630070" lon="-6.1452960">
        <ele>-23.0</ele>
        <time>2021-07-21T09:29:41Z</time>
      </trkpt>
      <trkpt lat="43.5630260" lon="-6.1452820">
        <ele>-23.6</ele>
        <time>2021-07-21T09:29:42Z</time>
      </trkpt>
      <trkpt lat="43.5631080" lon="-6.1452870">
        <ele>-23.6</ele>
        <time>2021-07-21T09:29:45Z</time>
      </trkpt>
      <trkpt lat="43.5631330" lon="-6.1453030">
        <ele>-23.6</ele>
        <time>2021-07-21T09:29:46Z</time>
      </trkpt>
      <trkpt lat="43.5631750" lon="-6.1453390">
        <ele>-23.6</ele>
        <time>2021-07-21T09:29:48Z</time>
      </trkpt>
      <trkpt lat="43.5632290" lon="-6.1454980">
        <ele>-23.6</ele>
        <time>2021-07-21T09:29:51Z</time>
      </trkpt>
      <trkpt lat="43.5633670" lon="-6.1458200">
        <ele>-23.6</ele>
        <time>2021-07-21T09:29:58Z</time>
      </trkpt>
      <trkpt lat="43.5634280" lon="-6.1458950">
        <ele>-24.0</ele>
        <time>2021-07-21T09:30:01Z</time>
      </trkpt>
      <trkpt lat="43.5634400" lon="-6.1459140">
        <ele>-24.4</ele>
        <time>2021-07-21T09:30:02Z</time>
      </trkpt>
      <trkpt lat="43.5634500" lon="-6.1459300">
        <ele>-24.8</ele>
        <time>2021-07-21T09:30:03Z</time>
      </trkpt>
      <trkpt lat="43.5634500" lon="-6.1459390">
        <ele>-25.6</ele>
        <time>2021-07-21T09:30:04Z</time>
      </trkpt>
      <trkpt lat="43.5634090" lon="-6.1458830">
        <ele>-25.6</ele>
        <time>2021-07-21T09:30:16Z</time>
      </trkpt>
      <trkpt lat="43.5633940" lon="-6.1458560">
        <ele>-25.6</ele>
        <time>2021-07-21T09:30:18Z</time>
      </trkpt>
      <trkpt lat="43.5633840" lon="-6.1458440">
        <ele>-25.6</ele>
        <time>2021-07-21T09:30:19Z</time>
      </trkpt>
      <trkpt lat="43.5633610" lon="-6.1458650">
        <ele>-25.6</ele>
        <time>2021-07-21T09:30:22Z</time>
      </trkpt>
      <trkpt lat="43.5633840" lon="-6.1459010">
        <ele>-25.6</ele>
        <time>2021-07-21T09:30:24Z</time>
      </trkpt>
      <trkpt lat="43.5634340" lon="-6.1459830">
        <ele>-25.6</ele>
        <time>2021-07-21T09:30:27Z</time>
      </trkpt>
      <trkpt lat="43.5634890" lon="-6.1460920">
        <ele>-25.6</ele>
        <time>2021-07-21T09:30:30Z</time>
      </trkpt>
      <trkpt lat="43.5635140" lon="-6.1461720">
        <ele>-25.6</ele>
        <time>2021-07-21T09:30:32Z</time>
      </trkpt>
      <trkpt lat="43.5635310" lon="-6.1462110">
        <ele>-25.6</ele>
        <time>2021-07-21T09:30:33Z</time>
      </trkpt>
      <trkpt lat="43.5636220" lon="-6.1464960">
        <ele>-25.6</ele>
        <time>2021-07-21T09:30:39Z</time>
      </trkpt>
      <trkpt lat="43.5636360" lon="-6.1465520">
        <ele>-25.6</ele>
        <time>2021-07-21T09:30:40Z</time>
      </trkpt>
      <trkpt lat="43.5637080" lon="-6.1468260">
        <ele>-25.6</ele>
        <time>2021-07-21T09:30:46Z</time>
      </trkpt>
      <trkpt lat="43.5637190" lon="-6.1468650">
        <ele>-25.6</ele>
        <time>2021-07-21T09:30:47Z</time>
      </trkpt>
      <trkpt lat="43.5637150" lon="-6.1470770">
        <ele>-25.6</ele>
        <time>2021-07-21T09:30:52Z</time>
      </trkpt>
      <trkpt lat="43.5636510" lon="-6.1472570">
        <ele>-25.6</ele>
        <time>2021-07-21T09:30:57Z</time>
      </trkpt>
      <trkpt lat="43.5636540" lon="-6.1472970">
        <ele>-25.6</ele>
        <time>2021-07-21T09:30:58Z</time>
      </trkpt>
      <trkpt lat="43.5637170" lon="-6.1474420">
        <ele>-25.6</ele>
        <time>2021-07-21T09:31:02Z</time>
      </trkpt>
      <trkpt lat="43.5637370" lon="-6.1474770">
        <ele>-25.6</ele>
        <time>2021-07-21T09:31:03Z</time>
      </trkpt>
      <trkpt lat="43.5638190" lon="-6.1475130">
        <ele>-25.6</ele>
        <time>2021-07-21T09:31:07Z</time>
      </trkpt>
      <trkpt lat="43.5638740" lon="-6.1475070">
        <ele>-25.6</ele>
        <time>2021-07-21T09:31:10Z</time>
      </trkpt>
      <trkpt lat="43.5639040" lon="-6.1475220">
        <ele>-25.6</ele>
        <time>2021-07-21T09:31:12Z</time>
      </trkpt>
      <trkpt lat="43.5639180" lon="-6.1475320">
        <ele>-25.6</ele>
        <time>2021-07-21T09:31:13Z</time>
      </trkpt>
      <trkpt lat="43.5640350" lon="-6.1475760">
        <ele>-25.6</ele>
        <time>2021-07-21T09:31:19Z</time>
      </trkpt>
      <trkpt lat="43.5640540" lon="-6.1475810">
        <ele>-25.6</ele>
        <time>2021-07-21T09:31:20Z</time>
      </trkpt>
      <trkpt lat="43.5642400" lon="-6.1476180">
        <ele>-25.6</ele>
        <time>2021-07-21T09:31:28Z</time>
      </trkpt>
      <trkpt lat="43.5643290" lon="-6.1476060">
        <ele>-25.6</ele>
        <time>2021-07-21T09:31:32Z</time>
      </trkpt>
      <trkpt lat="43.5643580" lon="-6.1475630">
        <ele>-25.6</ele>
        <time>2021-07-21T09:31:34Z</time>
      </trkpt>
      <trkpt lat="43.5644170" lon="-6.1475480">
        <ele>-25.6</ele>
        <time>2021-07-21T09:31:38Z</time>
      </trkpt>
      <trkpt lat="43.5644230" lon="-6.1475500">
        <ele>-25.6</ele>
        <time>2021-07-21T09:31:39Z</time>
      </trkpt>
      <trkpt lat="43.5644560" lon="-6.1475830">
        <ele>-25.6</ele>
        <time>2021-07-21T09:31:45Z</time>
      </trkpt>
      <trkpt lat="43.5644660" lon="-6.1475720">
        <ele>-25.6</ele>
        <time>2021-07-21T09:31:46Z</time>
      </trkpt>
      <trkpt lat="43.5644630" lon="-6.1475680">
        <ele>-25.6</ele>
        <time>2021-07-21T09:31:47Z</time>
      </trkpt>
      <trkpt lat="43.5644510" lon="-6.1475230">
        <ele>-25.6</ele>
        <time>2021-07-21T09:32:43Z</time>
      </trkpt>
      <trkpt lat="43.5644550" lon="-6.1475450">
        <ele>-25.6</ele>
        <time>2021-07-21T09:32:45Z</time>
      </trkpt>
      <trkpt lat="43.5644180" lon="-6.1475560">
        <ele>-25.6</ele>
        <time>2021-07-21T09:32:50Z</time>
      </trkpt>
      <trkpt lat="43.5643820" lon="-6.1475090">
        <ele>-25.6</ele>
        <time>2021-07-21T09:34:15Z</time>
      </trkpt>
      <trkpt lat="43.5643560" lon="-6.1474760">
        <ele>-25.6</ele>
        <time>2021-07-21T09:34:19Z</time>
      </trkpt>
      <trkpt lat="43.5643530" lon="-6.1474510">
        <ele>-25.6</ele>
        <time>2021-07-21T09:34:23Z</time>
      </trkpt>
      <trkpt lat="43.5643490" lon="-6.1474720">
        <ele>-25.6</ele>
        <time>2021-07-21T09:35:10Z</time>
      </trkpt>
      <trkpt lat="43.5643330" lon="-6.1474780">
        <ele>-25.6</ele>
        <time>2021-07-21T09:35:11Z</time>
      </trkpt>
      <trkpt lat="43.5641940" lon="-6.1474500">
        <ele>-25.6</ele>
        <time>2021-07-21T09:35:19Z</time>
      </trkpt>
      <trkpt lat="43.5641780" lon="-6.1474500">
        <ele>-26.0</ele>
        <time>2021-07-21T09:35:20Z</time>
      </trkpt>
      <trkpt lat="43.5641640" lon="-6.1474500">
        <ele>-26.4</ele>
        <time>2021-07-21T09:35:21Z</time>
      </trkpt>
      <trkpt lat="43.5641550" lon="-6.1474500">
        <ele>-26.8</ele>
        <time>2021-07-21T09:35:22Z</time>
      </trkpt>
      <trkpt lat="43.5641440" lon="-6.1474500">
        <ele>-27.4</ele>
        <time>2021-07-21T09:35:23Z</time>
      </trkpt>
      <trkpt lat="43.5641360" lon="-6.1474520">
        <ele>-27.8</ele>
        <time>2021-07-21T09:35:24Z</time>
      </trkpt>
      <trkpt lat="43.5641370" lon="-6.1474500">
        <ele>-27.8</ele>
        <time>2021-07-21T09:35:25Z</time>
      </trkpt>
      <trkpt lat="43.5643950" lon="-6.1476640">
        <ele>-27.4</ele>
        <time>2021-07-21T09:36:22Z</time>
      </trkpt>
      <trkpt lat="43.5644070" lon="-6.1476800">
        <ele>-27.0</ele>
        <time>2021-07-21T09:36:23Z</time>
      </trkpt>
      <trkpt lat="43.5644190" lon="-6.1476910">
        <ele>-26.6</ele>
        <time>2021-07-21T09:36:24Z</time>
      </trkpt>
      <trkpt lat="43.5644290" lon="-6.1476990">
        <ele>-26.2</ele>
        <time>2021-07-21T09:36:25Z</time>
      </trkpt>
      <trkpt lat="43.5644430" lon="-6.1477100">
        <ele>-25.8</ele>
        <time>2021-07-21T09:36:26Z</time>
      </trkpt>
      <trkpt lat="43.5644640" lon="-6.1477270">
        <ele>-25.8</ele>
        <time>2021-07-21T09:36:28Z</time>
      </trkpt>
      <trkpt lat="43.5644740" lon="-6.1477310">
        <ele>-25.8</ele>
        <time>2021-07-21T09:36:29Z</time>
      </trkpt>
      <trkpt lat="43.5644860" lon="-6.1477290">
        <ele>-25.8</ele>
        <time>2021-07-21T09:36:30Z</time>
      </trkpt>
      <trkpt lat="43.5645380" lon="-6.1477340">
        <ele>-25.8</ele>
        <time>2021-07-21T09:36:34Z</time>
      </trkpt>
      <trkpt lat="43.5645330" lon="-6.1477430">
        <ele>-25.8</ele>
        <time>2021-07-21T09:36:35Z</time>
      </trkpt>
      <trkpt lat="43.5645080" lon="-6.1477410">
        <ele>-25.8</ele>
        <time>2021-07-21T09:36:39Z</time>
      </trkpt>
      <trkpt lat="43.5644770" lon="-6.1477430">
        <ele>-25.8</ele>
        <time>2021-07-21T09:41:33Z</time>
      </trkpt>
      <trkpt lat="43.5644890" lon="-6.1477360">
        <ele>-25.8</ele>
        <time>2021-07-21T09:41:34Z</time>
      </trkpt>
      <trkpt lat="43.5645390" lon="-6.1477350">
        <ele>-25.8</ele>
        <time>2021-07-21T09:41:40Z</time>
      </trkpt>
      <trkpt lat="43.5645770" lon="-6.1477340">
        <ele>-25.8</ele>
        <time>2021-07-21T09:42:35Z</time>
      </trkpt>
      <trkpt lat="43.5645810" lon="-6.1477320">
        <ele>-25.8</ele>
        <time>2021-07-21T09:42:36Z</time>
      </trkpt>
      <trkpt lat="43.5645790" lon="-6.1477360">
        <ele>-25.8</ele>
        <time>2021-07-21T09:42:37Z</time>
      </trkpt>
      <trkpt lat="43.5645980" lon="-6.1477380">
        <ele>-25.8</ele>
        <time>2021-07-21T09:42:39Z</time>
      </trkpt>
      <trkpt lat="43.5646380" lon="-6.1477460">
        <ele>-25.8</ele>
        <time>2021-07-21T09:42:41Z</time>
      </trkpt>
      <trkpt lat="43.5646820" lon="-6.1477700">
        <ele>-25.8</ele>
        <time>2021-07-21T09:42:43Z</time>
      </trkpt>
      <trkpt lat="43.5647590" lon="-6.1478250">
        <ele>-25.8</ele>
        <time>2021-07-21T09:42:46Z</time>
      </trkpt>
      <trkpt lat="43.5647850" lon="-6.1478630">
        <ele>-25.8</ele>
        <time>2021-07-21T09:42:47Z</time>
      </trkpt>
      <trkpt lat="43.5648300" lon="-6.1479930">
        <ele>-25.8</ele>
        <time>2021-07-21T09:42:50Z</time>
      </trkpt>
      <trkpt lat="43.5648350" lon="-6.1480860">
        <ele>-25.8</ele>
        <time>2021-07-21T09:42:52Z</time>
      </trkpt>
      <trkpt lat="43.5648150" lon="-6.1482180">
        <ele>-25.8</ele>
        <time>2021-07-21T09:42:55Z</time>
      </trkpt>
      <trkpt lat="43.5648050" lon="-6.1483070">
        <ele>-25.8</ele>
        <time>2021-07-21T09:42:57Z</time>
      </trkpt>
      <trkpt lat="43.5647940" lon="-6.1484340">
        <ele>-25.8</ele>
        <time>2021-07-21T09:43:00Z</time>
      </trkpt>
      <trkpt lat="43.5647590" lon="-6.1486040">
        <ele>-25.8</ele>
        <time>2021-07-21T09:43:04Z</time>
      </trkpt>
      <trkpt lat="43.5647290" lon="-6.1488740">
        <ele>-25.8</ele>
        <time>2021-07-21T09:43:10Z</time>
      </trkpt>
      <trkpt lat="43.5647240" lon="-6.1489720">
        <ele>-25.8</ele>
        <time>2021-07-21T09:43:12Z</time>
      </trkpt>
      <trkpt lat="43.5647420" lon="-6.1491390">
        <ele>-25.8</ele>
        <time>2021-07-21T09:43:15Z</time>
      </trkpt>
      <trkpt lat="43.5647890" lon="-6.1493180">
        <ele>-25.8</ele>
        <time>2021-07-21T09:43:18Z</time>
      </trkpt>
      <trkpt lat="43.5649500" lon="-6.1496050">
        <ele>-25.8</ele>
        <time>2021-07-21T09:43:24Z</time>
      </trkpt>
      <trkpt lat="43.5651990" lon="-6.1499880">
        <ele>-25.8</ele>
        <time>2021-07-21T09:43:32Z</time>
      </trkpt>
      <trkpt lat="43.5653140" lon="-6.1501620">
        <ele>-25.8</ele>
        <time>2021-07-21T09:43:36Z</time>
      </trkpt>
      <trkpt lat="43.5653700" lon="-6.1502370">
        <ele>-25.8</ele>
        <time>2021-07-21T09:43:38Z</time>
      </trkpt>
      <trkpt lat="43.5654220" lon="-6.1503110">
        <ele>-25.8</ele>
        <time>2021-07-21T09:43:40Z</time>
      </trkpt>
      <trkpt lat="43.5654650" lon="-6.1503770">
        <ele>-25.8</ele>
        <time>2021-07-21T09:43:42Z</time>
      </trkpt>
      <trkpt lat="43.5655230" lon="-6.1504540">
        <ele>-25.8</ele>
        <time>2021-07-21T09:43:45Z</time>
      </trkpt>
      <trkpt lat="43.5655310" lon="-6.1504850">
        <ele>-25.8</ele>
        <time>2021-07-21T09:43:46Z</time>
      </trkpt>
      <trkpt lat="43.5655330" lon="-6.1505130">
        <ele>-25.8</ele>
        <time>2021-07-21T09:43:47Z</time>
      </trkpt>
      <trkpt lat="43.5655090" lon="-6.1505450">
        <ele>-25.8</ele>
        <time>2021-07-21T09:43:49Z</time>
      </trkpt>
      <trkpt lat="43.5654900" lon="-6.1506490">
        <ele>-25.8</ele>
        <time>2021-07-21T09:43:53Z</time>
      </trkpt>
      <trkpt lat="43.5654820" lon="-6.1507920">
        <ele>-25.8</ele>
        <time>2021-07-21T09:43:56Z</time>
      </trkpt>
      <trkpt lat="43.5654820" lon="-6.1509460">
        <ele>-25.8</ele>
        <time>2021-07-21T09:43:59Z</time>
      </trkpt>
      <trkpt lat="43.5654820" lon="-6.1510500">
        <ele>-25.8</ele>
        <time>2021-07-21T09:44:01Z</time>
      </trkpt>
      <trkpt lat="43.5654730" lon="-6.1512400">
        <ele>-25.8</ele>
        <time>2021-07-21T09:44:05Z</time>
      </trkpt>
      <trkpt lat="43.5654800" lon="-6.1516220">
        <ele>-25.8</ele>
        <time>2021-07-21T09:44:13Z</time>
      </trkpt>
      <trkpt lat="43.5655950" lon="-6.1519600">
        <ele>-25.8</ele>
        <time>2021-07-21T09:44:20Z</time>
      </trkpt>
      <trkpt lat="43.5657100" lon="-6.1521320">
        <ele>-25.8</ele>
        <time>2021-07-21T09:44:24Z</time>
      </trkpt>
      <trkpt lat="43.5657680" lon="-6.1522190">
        <ele>-25.8</ele>
        <time>2021-07-21T09:44:26Z</time>
      </trkpt>
      <trkpt lat="43.5659210" lon="-6.1524080">
        <ele>-25.8</ele>
        <time>2021-07-21T09:44:31Z</time>
      </trkpt>
      <trkpt lat="43.5660150" lon="-6.1524770">
        <ele>-25.8</ele>
        <time>2021-07-21T09:44:34Z</time>
      </trkpt>
      <trkpt lat="43.5660450" lon="-6.1524700">
        <ele>-25.8</ele>
        <time>2021-07-21T09:44:35Z</time>
      </trkpt>
      <trkpt lat="43.5661030" lon="-6.1524380">
        <ele>-25.8</ele>
        <time>2021-07-21T09:44:37Z</time>
      </trkpt>
      <trkpt lat="43.5661260" lon="-6.1524210">
        <ele>-25.8</ele>
        <time>2021-07-21T09:44:38Z</time>
      </trkpt>
      <trkpt lat="43.5661590" lon="-6.1523990">
        <ele>-25.8</ele>
        <time>2021-07-21T09:44:40Z</time>
      </trkpt>
      <trkpt lat="43.5661680" lon="-6.1524010">
        <ele>-25.8</ele>
        <time>2021-07-21T09:44:42Z</time>
      </trkpt>
      <trkpt lat="43.5661750" lon="-6.1524080">
        <ele>-25.8</ele>
        <time>2021-07-21T09:44:43Z</time>
      </trkpt>
      <trkpt lat="43.5661990" lon="-6.1524690">
        <ele>-25.8</ele>
        <time>2021-07-21T09:44:46Z</time>
      </trkpt>
      <trkpt lat="43.5662020" lon="-6.1525030">
        <ele>-25.8</ele>
        <time>2021-07-21T09:44:47Z</time>
      </trkpt>
      <trkpt lat="43.5662570" lon="-6.1526650">
        <ele>-25.8</ele>
        <time>2021-07-21T09:44:51Z</time>
      </trkpt>
      <trkpt lat="43.5663950" lon="-6.1527800">
        <ele>-25.8</ele>
        <time>2021-07-21T09:44:55Z</time>
      </trkpt>
      <trkpt lat="43.5664360" lon="-6.1527990">
        <ele>-25.8</ele>
        <time>2021-07-21T09:44:56Z</time>
      </trkpt>
      <trkpt lat="43.5665670" lon="-6.1528610">
        <ele>-25.8</ele>
        <time>2021-07-21T09:44:59Z</time>
      </trkpt>
      <trkpt lat="43.5667590" lon="-6.1529410">
        <ele>-25.8</ele>
        <time>2021-07-21T09:45:03Z</time>
      </trkpt>
      <trkpt lat="43.5669130" lon="-6.1530140">
        <ele>-25.8</ele>
        <time>2021-07-21T09:45:06Z</time>
      </trkpt>
      <trkpt lat="43.5671100" lon="-6.1531460">
        <ele>-25.8</ele>
        <time>2021-07-21T09:45:10Z</time>
      </trkpt>
      <trkpt lat="43.5674480" lon="-6.1533880">
        <ele>-25.8</ele>
        <time>2021-07-21T09:45:18Z</time>
      </trkpt>
      <trkpt lat="43.5675630" lon="-6.1534690">
        <ele>-25.8</ele>
        <time>2021-07-21T09:45:21Z</time>
      </trkpt>
      <trkpt lat="43.5676050" lon="-6.1534880">
        <ele>-25.8</ele>
        <time>2021-07-21T09:45:22Z</time>
      </trkpt>
      <trkpt lat="43.5676980" lon="-6.1534870">
        <ele>-25.8</ele>
        <time>2021-07-21T09:45:24Z</time>
      </trkpt>
      <trkpt lat="43.5677870" lon="-6.1534390">
        <ele>-25.8</ele>
        <time>2021-07-21T09:45:26Z</time>
      </trkpt>
      <trkpt lat="43.5678300" lon="-6.1534190">
        <ele>-25.8</ele>
        <time>2021-07-21T09:45:27Z</time>
      </trkpt>
      <trkpt lat="43.5679180" lon="-6.1534070">
        <ele>-25.8</ele>
        <time>2021-07-21T09:45:29Z</time>
      </trkpt>
      <trkpt lat="43.5679630" lon="-6.1534150">
        <ele>-25.4</ele>
        <time>2021-07-21T09:45:30Z</time>
      </trkpt>
      <trkpt lat="43.5680070" lon="-6.1534350">
        <ele>-24.8</ele>
        <time>2021-07-21T09:45:31Z</time>
      </trkpt>
      <trkpt lat="43.5680490" lon="-6.1534670">
        <ele>-24.4</ele>
        <time>2021-07-21T09:45:32Z</time>
      </trkpt>
      <trkpt lat="43.5680870" lon="-6.1535090">
        <ele>-24.0</ele>
        <time>2021-07-21T09:45:33Z</time>
      </trkpt>
      <trkpt lat="43.5681120" lon="-6.1535530">
        <ele>-23.6</ele>
        <time>2021-07-21T09:45:34Z</time>
      </trkpt>
      <trkpt lat="43.5681300" lon="-6.1536910">
        <ele>-23.6</ele>
        <time>2021-07-21T09:45:37Z</time>
      </trkpt>
      <trkpt lat="43.5680840" lon="-6.1538730">
        <ele>-23.6</ele>
        <time>2021-07-21T09:45:41Z</time>
      </trkpt>
      <trkpt lat="43.5680070" lon="-6.1539710">
        <ele>-23.2</ele>
        <time>2021-07-21T09:45:44Z</time>
      </trkpt>
      <trkpt lat="43.5679790" lon="-6.1539880">
        <ele>-22.8</ele>
        <time>2021-07-21T09:45:45Z</time>
      </trkpt>
      <trkpt lat="43.5679490" lon="-6.1540000">
        <ele>-22.4</ele>
        <time>2021-07-21T09:45:46Z</time>
      </trkpt>
      <trkpt lat="43.5679200" lon="-6.1540080">
        <ele>-22.0</ele>
        <time>2021-07-21T09:45:47Z</time>
      </trkpt>
      <trkpt lat="43.5678910" lon="-6.1540130">
        <ele>-21.6</ele>
        <time>2021-07-21T09:45:48Z</time>
      </trkpt>
      <trkpt lat="43.5678160" lon="-6.1540080">
        <ele>-21.6</ele>
        <time>2021-07-21T09:45:51Z</time>
      </trkpt>
      <trkpt lat="43.5677960" lon="-6.1540010">
        <ele>-21.6</ele>
        <time>2021-07-21T09:45:52Z</time>
      </trkpt>
      <trkpt lat="43.5677580" lon="-6.1539820">
        <ele>-21.2</ele>
        <time>2021-07-21T09:45:54Z</time>
      </trkpt>
      <trkpt lat="43.5677370" lon="-6.1539700">
        <ele>-20.2</ele>
        <time>2021-07-21T09:45:55Z</time>
      </trkpt>
      <trkpt lat="43.5677160" lon="-6.1539560">
        <ele>-19.8</ele>
        <time>2021-07-21T09:45:56Z</time>
      </trkpt>
      <trkpt lat="43.5676970" lon="-6.1539410">
        <ele>-19.4</ele>
        <time>2021-07-21T09:45:57Z</time>
      </trkpt>
      <trkpt lat="43.5676390" lon="-6.1539030">
        <ele>-19.4</ele>
        <time>2021-07-21T09:46:00Z</time>
      </trkpt>
      <trkpt lat="43.5675810" lon="-6.1538640">
        <ele>-19.0</ele>
        <time>2021-07-21T09:46:03Z</time>
      </trkpt>
      <trkpt lat="43.5675630" lon="-6.1538500">
        <ele>-18.6</ele>
        <time>2021-07-21T09:46:04Z</time>
      </trkpt>
      <trkpt lat="43.5675450" lon="-6.1538390">
        <ele>-18.2</ele>
        <time>2021-07-21T09:46:05Z</time>
      </trkpt>
      <trkpt lat="43.5675280" lon="-6.1538290">
        <ele>-17.6</ele>
        <time>2021-07-21T09:46:06Z</time>
      </trkpt>
      <trkpt lat="43.5675100" lon="-6.1538190">
        <ele>-17.2</ele>
        <time>2021-07-21T09:46:07Z</time>
      </trkpt>
      <trkpt lat="43.5674930" lon="-6.1538060">
        <ele>-17.2</ele>
        <time>2021-07-21T09:46:08Z</time>
      </trkpt>
      <trkpt lat="43.5674200" lon="-6.1537620">
        <ele>-16.8</ele>
        <time>2021-07-21T09:46:12Z</time>
      </trkpt>
      <trkpt lat="43.5674010" lon="-6.1537490">
        <ele>-16.4</ele>
        <time>2021-07-21T09:46:13Z</time>
      </trkpt>
      <trkpt lat="43.5673840" lon="-6.1537330">
        <ele>-16.0</ele>
        <time>2021-07-21T09:46:14Z</time>
      </trkpt>
      <trkpt lat="43.5673650" lon="-6.1537190">
        <ele>-15.6</ele>
        <time>2021-07-21T09:46:15Z</time>
      </trkpt>
      <trkpt lat="43.5673450" lon="-6.1537090">
        <ele>-15.2</ele>
        <time>2021-07-21T09:46:16Z</time>
      </trkpt>
      <trkpt lat="43.5672890" lon="-6.1536780">
        <ele>-14.8</ele>
        <time>2021-07-21T09:46:19Z</time>
      </trkpt>
      <trkpt lat="43.5672720" lon="-6.1536670">
        <ele>-14.4</ele>
        <time>2021-07-21T09:46:20Z</time>
      </trkpt>
      <trkpt lat="43.5672550" lon="-6.1536570">
        <ele>-14.0</ele>
        <time>2021-07-21T09:46:21Z</time>
      </trkpt>
      <trkpt lat="43.5672380" lon="-6.1536470">
        <ele>-13.6</ele>
        <time>2021-07-21T09:46:22Z</time>
      </trkpt>
      <trkpt lat="43.5672200" lon="-6.1536380">
        <ele>-13.2</ele>
        <time>2021-07-21T09:46:23Z</time>
      </trkpt>
      <trkpt lat="43.5672030" lon="-6.1536280">
        <ele>-13.2</ele>
        <time>2021-07-21T09:46:24Z</time>
      </trkpt>
      <trkpt lat="43.5671330" lon="-6.1535840">
        <ele>-12.8</ele>
        <time>2021-07-21T09:46:28Z</time>
      </trkpt>
      <trkpt lat="43.5671150" lon="-6.1535720">
        <ele>-12.2</ele>
        <time>2021-07-21T09:46:29Z</time>
      </trkpt>
      <trkpt lat="43.5670980" lon="-6.1535600">
        <ele>-11.8</ele>
        <time>2021-07-21T09:46:30Z</time>
      </trkpt>
      <trkpt lat="43.5670800" lon="-6.1535480">
        <ele>-11.4</ele>
        <time>2021-07-21T09:46:31Z</time>
      </trkpt>
      <trkpt lat="43.5670630" lon="-6.1535350">
        <ele>-11.0</ele>
        <time>2021-07-21T09:46:32Z</time>
      </trkpt>
      <trkpt lat="43.5669950" lon="-6.1534840">
        <ele>-10.6</ele>
        <time>2021-07-21T09:46:36Z</time>
      </trkpt>
      <trkpt lat="43.5669780" lon="-6.1534770">
        <ele>-10.2</ele>
        <time>2021-07-21T09:46:37Z</time>
      </trkpt>
      <trkpt lat="43.5669640" lon="-6.1534710">
        <ele>-9.8</ele>
        <time>2021-07-21T09:46:38Z</time>
      </trkpt>
      <trkpt lat="43.5669470" lon="-6.1534660">
        <ele>-9.4</ele>
        <time>2021-07-21T09:46:39Z</time>
      </trkpt>
      <trkpt lat="43.5669280" lon="-6.1534610">
        <ele>-8.8</ele>
        <time>2021-07-21T09:46:40Z</time>
      </trkpt>
      <trkpt lat="43.5668580" lon="-6.1534440">
        <ele>-8.4</ele>
        <time>2021-07-21T09:46:44Z</time>
      </trkpt>
      <trkpt lat="43.5668450" lon="-6.1534400">
        <ele>-8.0</ele>
        <time>2021-07-21T09:46:45Z</time>
      </trkpt>
      <trkpt lat="43.5668290" lon="-6.1534400">
        <ele>-7.6</ele>
        <time>2021-07-21T09:46:46Z</time>
      </trkpt>
      <trkpt lat="43.5668130" lon="-6.1534410">
        <ele>-7.2</ele>
        <time>2021-07-21T09:46:47Z</time>
      </trkpt>
      <trkpt lat="43.5667970" lon="-6.1534420">
        <ele>-6.8</ele>
        <time>2021-07-21T09:46:48Z</time>
      </trkpt>
      <trkpt lat="43.5667220" lon="-6.1534460">
        <ele>-6.4</ele>
        <time>2021-07-21T09:46:52Z</time>
      </trkpt>
      <trkpt lat="43.5667030" lon="-6.1534440">
        <ele>-6.0</ele>
        <time>2021-07-21T09:46:53Z</time>
      </trkpt>
      <trkpt lat="43.5666850" lon="-6.1534400">
        <ele>-5.6</ele>
        <time>2021-07-21T09:46:54Z</time>
      </trkpt>
      <trkpt lat="43.5666700" lon="-6.1534380">
        <ele>-5.2</ele>
        <time>2021-07-21T09:46:55Z</time>
      </trkpt>
      <trkpt lat="43.5666550" lon="-6.1534370">
        <ele>-4.8</ele>
        <time>2021-07-21T09:46:56Z</time>
      </trkpt>
      <trkpt lat="43.5665890" lon="-6.1534330">
        <ele>-4.4</ele>
        <time>2021-07-21T09:47:00Z</time>
      </trkpt>
      <trkpt lat="43.5665690" lon="-6.1534350">
        <ele>-4.0</ele>
        <time>2021-07-21T09:47:01Z</time>
      </trkpt>
      <trkpt lat="43.5665500" lon="-6.1534380">
        <ele>-3.6</ele>
        <time>2021-07-21T09:47:02Z</time>
      </trkpt>
      <trkpt lat="43.5665310" lon="-6.1534360">
        <ele>-3.2</ele>
        <time>2021-07-21T09:47:03Z</time>
      </trkpt>
      <trkpt lat="43.5665120" lon="-6.1534330">
        <ele>-2.8</ele>
        <time>2021-07-21T09:47:04Z</time>
      </trkpt>
      <trkpt lat="43.5664450" lon="-6.1534140">
        <ele>-2.8</ele>
        <time>2021-07-21T09:47:08Z</time>
      </trkpt>
      <trkpt lat="43.5664270" lon="-6.1534090">
        <ele>-2.2</ele>
        <time>2021-07-21T09:47:09Z</time>
      </trkpt>
      <trkpt lat="43.5664100" lon="-6.1534040">
        <ele>-1.8</ele>
        <time>2021-07-21T09:47:10Z</time>
      </trkpt>
      <trkpt lat="43.5663950" lon="-6.1533980">
        <ele>-1.4</ele>
        <time>2021-07-21T09:47:11Z</time>
      </trkpt>
      <trkpt lat="43.5663780" lon="-6.1533930">
        <ele>-1.0</ele>
        <time>2021-07-21T09:47:12Z</time>
      </trkpt>
      <trkpt lat="43.5663620" lon="-6.1533890">
        <ele>-0.6</ele>
        <time>2021-07-21T09:47:13Z</time>
      </trkpt>
      <trkpt lat="43.5663280" lon="-6.1533810">
        <ele>-0.6</ele>
        <time>2021-07-21T09:47:15Z</time>
      </trkpt>
      <trkpt lat="43.5662650" lon="-6.1533680">
        <ele>0.0</ele>
        <time>2021-07-21T09:47:19Z</time>
      </trkpt>
      <trkpt lat="43.5662480" lon="-6.1533660">
        <ele>0.4</ele>
        <time>2021-07-21T09:47:20Z</time>
      </trkpt>
      <trkpt lat="43.5662290" lon="-6.1533630">
        <ele>0.8</ele>
        <time>2021-07-21T09:47:21Z</time>
      </trkpt>
      <trkpt lat="43.5662100" lon="-6.1533610">
        <ele>1.2</ele>
        <time>2021-07-21T09:47:22Z</time>
      </trkpt>
      <trkpt lat="43.5661940" lon="-6.1533610">
        <ele>1.6</ele>
        <time>2021-07-21T09:47:23Z</time>
      </trkpt>
      <trkpt lat="43.5661800" lon="-6.1533610">
        <ele>1.6</ele>
        <time>2021-07-21T09:47:25Z</time>
      </trkpt>
      <trkpt lat="43.5659860" lon="-6.1533220">
        <ele>3.8</ele>
        <time>2021-07-21T09:47:54Z</time>
      </trkpt>
      <trkpt lat="43.5659710" lon="-6.1533160">
        <ele>3.8</ele>
        <time>2021-07-21T09:47:55Z</time>
      </trkpt>
      <trkpt lat="43.5659310" lon="-6.1533080">
        <ele>4.2</ele>
        <time>2021-07-21T09:47:58Z</time>
      </trkpt>
      <trkpt lat="43.5659180" lon="-6.1533060">
        <ele>4.6</ele>
        <time>2021-07-21T09:47:59Z</time>
      </trkpt>
      <trkpt lat="43.5659040" lon="-6.1533020">
        <ele>5.0</ele>
        <time>2021-07-21T09:48:00Z</time>
      </trkpt>
      <trkpt lat="43.5658910" lon="-6.1532950">
        <ele>5.4</ele>
        <time>2021-07-21T09:48:01Z</time>
      </trkpt>
      <trkpt lat="43.5658790" lon="-6.1532910">
        <ele>5.8</ele>
        <time>2021-07-21T09:48:02Z</time>
      </trkpt>
      <trkpt lat="43.5658540" lon="-6.1532870">
        <ele>5.8</ele>
        <time>2021-07-21T09:48:04Z</time>
      </trkpt>
      <trkpt lat="43.5657380" lon="-6.1532710">
        <ele>6.4</ele>
        <time>2021-07-21T09:48:13Z</time>
      </trkpt>
      <trkpt lat="43.5657280" lon="-6.1532690">
        <ele>6.8</ele>
        <time>2021-07-21T09:48:14Z</time>
      </trkpt>
      <trkpt lat="43.5657150" lon="-6.1532680">
        <ele>7.2</ele>
        <time>2021-07-21T09:48:15Z</time>
      </trkpt>
      <trkpt lat="43.5657010" lon="-6.1532660">
        <ele>7.6</ele>
        <time>2021-07-21T09:48:16Z</time>
      </trkpt>
      <trkpt lat="43.5656890" lon="-6.1532620">
        <ele>8.0</ele>
        <time>2021-07-21T09:48:17Z</time>
      </trkpt>
      <trkpt lat="43.5656170" lon="-6.1532580">
        <ele>8.0</ele>
        <time>2021-07-21T09:48:23Z</time>
      </trkpt>
      <trkpt lat="43.5655790" lon="-6.1532490">
        <ele>8.4</ele>
        <time>2021-07-21T09:48:26Z</time>
      </trkpt>
      <trkpt lat="43.5655660" lon="-6.1532460">
        <ele>9.0</ele>
        <time>2021-07-21T09:48:27Z</time>
      </trkpt>
      <trkpt lat="43.5655550" lon="-6.1532420">
        <ele>9.4</ele>
        <time>2021-07-21T09:48:28Z</time>
      </trkpt>
      <trkpt lat="43.5655440" lon="-6.1532430">
        <ele>9.8</ele>
        <time>2021-07-21T09:48:29Z</time>
      </trkpt>
      <trkpt lat="43.5655300" lon="-6.1532450">
        <ele>10.2</ele>
        <time>2021-07-21T09:48:30Z</time>
      </trkpt>
      <trkpt lat="43.5655000" lon="-6.1532580">
        <ele>10.2</ele>
        <time>2021-07-21T09:48:33Z</time>
      </trkpt>
      <trkpt lat="43.5654200" lon="-6.1532770">
        <ele>10.6</ele>
        <time>2021-07-21T09:48:40Z</time>
      </trkpt>
      <trkpt lat="43.5654080" lon="-6.1532860">
        <ele>11.0</ele>
        <time>2021-07-21T09:48:41Z</time>
      </trkpt>
      <trkpt lat="43.5653950" lon="-6.1532930">
        <ele>11.4</ele>
        <time>2021-07-21T09:48:42Z</time>
      </trkpt>
      <trkpt lat="43.5653850" lon="-6.1533030">
        <ele>12.0</ele>
        <time>2021-07-21T09:48:43Z</time>
      </trkpt>
      <trkpt lat="43.5653770" lon="-6.1533100">
        <ele>12.4</ele>
        <time>2021-07-21T09:48:44Z</time>
      </trkpt>
      <trkpt lat="43.5653350" lon="-6.1533620">
        <ele>12.4</ele>
        <time>2021-07-21T09:48:49Z</time>
      </trkpt>
      <trkpt lat="43.5653230" lon="-6.1533810">
        <ele>12.8</ele>
        <time>2021-07-21T09:48:51Z</time>
      </trkpt>
      <trkpt lat="43.5653150" lon="-6.1533900">
        <ele>13.2</ele>
        <time>2021-07-21T09:48:52Z</time>
      </trkpt>
      <trkpt lat="43.5653040" lon="-6.1533990">
        <ele>13.6</ele>
        <time>2021-07-21T09:48:53Z</time>
      </trkpt>
      <trkpt lat="43.5652930" lon="-6.1534090">
        <ele>14.0</ele>
        <time>2021-07-21T09:48:54Z</time>
      </trkpt>
      <trkpt lat="43.5652840" lon="-6.1534160">
        <ele>14.4</ele>
        <time>2021-07-21T09:48:55Z</time>
      </trkpt>
      <trkpt lat="43.5652590" lon="-6.1534300">
        <ele>14.4</ele>
        <time>2021-07-21T09:48:58Z</time>
      </trkpt>
      <trkpt lat="43.5652140" lon="-6.1534640">
        <ele>14.8</ele>
        <time>2021-07-21T09:49:06Z</time>
      </trkpt>
      <trkpt lat="43.5652110" lon="-6.1534780">
        <ele>15.2</ele>
        <time>2021-07-21T09:49:07Z</time>
      </trkpt>
      <trkpt lat="43.5652130" lon="-6.1534920">
        <ele>15.6</ele>
        <time>2021-07-21T09:49:08Z</time>
      </trkpt>
      <trkpt lat="43.5652180" lon="-6.1535030">
        <ele>16.0</ele>
        <time>2021-07-21T09:49:09Z</time>
      </trkpt>
      <trkpt lat="43.5652200" lon="-6.1535220">
        <ele>16.4</ele>
        <time>2021-07-21T09:49:10Z</time>
      </trkpt>
      <trkpt lat="43.5652010" lon="-6.1535840">
        <ele>16.4</ele>
        <time>2021-07-21T09:49:15Z</time>
      </trkpt>
      <trkpt lat="43.5651790" lon="-6.1536220">
        <ele>17.0</ele>
        <time>2021-07-21T09:49:19Z</time>
      </trkpt>
      <trkpt lat="43.5651750" lon="-6.1536340">
        <ele>17.4</ele>
        <time>2021-07-21T09:49:20Z</time>
      </trkpt>
      <trkpt lat="43.5651750" lon="-6.1536440">
        <ele>17.8</ele>
        <time>2021-07-21T09:49:21Z</time>
      </trkpt>
      <trkpt lat="43.5651730" lon="-6.1536570">
        <ele>18.2</ele>
        <time>2021-07-21T09:49:22Z</time>
      </trkpt>
      <trkpt lat="43.5651690" lon="-6.1536660">
        <ele>18.6</ele>
        <time>2021-07-21T09:49:23Z</time>
      </trkpt>
      <trkpt lat="43.5651430" lon="-6.1537580">
        <ele>18.6</ele>
        <time>2021-07-21T09:49:31Z</time>
      </trkpt>
      <trkpt lat="43.5651270" lon="-6.1537980">
        <ele>19.0</ele>
        <time>2021-07-21T09:49:34Z</time>
      </trkpt>
      <trkpt lat="43.5651220" lon="-6.1538130">
        <ele>19.4</ele>
        <time>2021-07-21T09:49:35Z</time>
      </trkpt>
      <trkpt lat="43.5651190" lon="-6.1538260">
        <ele>20.4</ele>
        <time>2021-07-21T09:49:36Z</time>
      </trkpt>
      <trkpt lat="43.5651160" lon="-6.1538400">
        <ele>20.8</ele>
        <time>2021-07-21T09:49:37Z</time>
      </trkpt>
      <trkpt lat="43.5651120" lon="-6.1538720">
        <ele>20.8</ele>
        <time>2021-07-21T09:49:40Z</time>
      </trkpt>
      <trkpt lat="43.5651210" lon="-6.1539350">
        <ele>21.2</ele>
        <time>2021-07-21T09:49:47Z</time>
      </trkpt>
      <trkpt lat="43.5651140" lon="-6.1539460">
        <ele>21.6</ele>
        <time>2021-07-21T09:49:48Z</time>
      </trkpt>
      <trkpt lat="43.5651080" lon="-6.1539550">
        <ele>22.0</ele>
        <time>2021-07-21T09:49:49Z</time>
      </trkpt>
      <trkpt lat="43.5651010" lon="-6.1539650">
        <ele>22.4</ele>
        <time>2021-07-21T09:49:50Z</time>
      </trkpt>
      <trkpt lat="43.5650930" lon="-6.1539660">
        <ele>22.8</ele>
        <time>2021-07-21T09:49:51Z</time>
      </trkpt>
      <trkpt lat="43.5650770" lon="-6.1540010">
        <ele>22.8</ele>
        <time>2021-07-21T09:49:55Z</time>
      </trkpt>
      <trkpt lat="43.5650440" lon="-6.1540670">
        <ele>23.6</ele>
        <time>2021-07-21T09:50:01Z</time>
      </trkpt>
      <trkpt lat="43.5650360" lon="-6.1540780">
        <ele>24.0</ele>
        <time>2021-07-21T09:50:02Z</time>
      </trkpt>
      <trkpt lat="43.5650280" lon="-6.1540860">
        <ele>24.4</ele>
        <time>2021-07-21T09:50:03Z</time>
      </trkpt>
      <trkpt lat="43.5650200" lon="-6.1540940">
        <ele>24.8</ele>
        <time>2021-07-21T09:50:04Z</time>
      </trkpt>
      <trkpt lat="43.5649760" lon="-6.1541280">
        <ele>24.8</ele>
        <time>2021-07-21T09:50:09Z</time>
      </trkpt>
      <trkpt lat="43.5649530" lon="-6.1541390">
        <ele>24.8</ele>
        <time>2021-07-21T09:50:11Z</time>
      </trkpt>
      <trkpt lat="43.5649230" lon="-6.1541610">
        <ele>25.2</ele>
        <time>2021-07-21T09:50:14Z</time>
      </trkpt>
      <trkpt lat="43.5649110" lon="-6.1541700">
        <ele>25.6</ele>
        <time>2021-07-21T09:50:15Z</time>
      </trkpt>
      <trkpt lat="43.5649000" lon="-6.1541760">
        <ele>26.0</ele>
        <time>2021-07-21T09:50:16Z</time>
      </trkpt>
      <trkpt lat="43.5648890" lon="-6.1541810">
        <ele>26.4</ele>
        <time>2021-07-21T09:50:17Z</time>
      </trkpt>
      <trkpt lat="43.5648790" lon="-6.1541860">
        <ele>26.8</ele>
        <time>2021-07-21T09:50:18Z</time>
      </trkpt>
      <trkpt lat="43.5647950" lon="-6.1542420">
        <ele>26.8</ele>
        <time>2021-07-21T09:50:26Z</time>
      </trkpt>
      <trkpt lat="43.5647590" lon="-6.1542550">
        <ele>27.4</ele>
        <time>2021-07-21T09:50:29Z</time>
      </trkpt>
      <trkpt lat="43.5647470" lon="-6.1542600">
        <ele>27.8</ele>
        <time>2021-07-21T09:50:30Z</time>
      </trkpt>
      <trkpt lat="43.5647340" lon="-6.1542620">
        <ele>28.2</ele>
        <time>2021-07-21T09:50:31Z</time>
      </trkpt>
      <trkpt lat="43.5647200" lon="-6.1542660">
        <ele>28.6</ele>
        <time>2021-07-21T09:50:32Z</time>
      </trkpt>
      <trkpt lat="43.5647050" lon="-6.1542700">
        <ele>29.0</ele>
        <time>2021-07-21T09:50:33Z</time>
      </trkpt>
      <trkpt lat="43.5646800" lon="-6.1542740">
        <ele>29.0</ele>
        <time>2021-07-21T09:50:35Z</time>
      </trkpt>
      <trkpt lat="43.5645580" lon="-6.1542910">
        <ele>29.4</ele>
        <time>2021-07-21T09:50:45Z</time>
      </trkpt>
      <trkpt lat="43.5645480" lon="-6.1542940">
        <ele>29.8</ele>
        <time>2021-07-21T09:50:46Z</time>
      </trkpt>
      <trkpt lat="43.5645370" lon="-6.1542970">
        <ele>30.2</ele>
        <time>2021-07-21T09:50:47Z</time>
      </trkpt>
      <trkpt lat="43.5645260" lon="-6.1542970">
        <ele>30.6</ele>
        <time>2021-07-21T09:50:48Z</time>
      </trkpt>
      <trkpt lat="43.5645140" lon="-6.1543010">
        <ele>31.0</ele>
        <time>2021-07-21T09:50:49Z</time>
      </trkpt>
      <trkpt lat="43.5644020" lon="-6.1543220">
        <ele>31.0</ele>
        <time>2021-07-21T09:50:59Z</time>
      </trkpt>
      <trkpt lat="43.5643750" lon="-6.1543240">
        <ele>31.6</ele>
        <time>2021-07-21T09:51:01Z</time>
      </trkpt>
      <trkpt lat="43.5643630" lon="-6.1543260">
        <ele>32.0</ele>
        <time>2021-07-21T09:51:02Z</time>
      </trkpt>
      <trkpt lat="43.5643510" lon="-6.1543250">
        <ele>32.4</ele>
        <time>2021-07-21T09:51:03Z</time>
      </trkpt>
      <trkpt lat="43.5643380" lon="-6.1543240">
        <ele>32.8</ele>
        <time>2021-07-21T09:51:04Z</time>
      </trkpt>
      <trkpt lat="43.5643260" lon="-6.1543240">
        <ele>33.2</ele>
        <time>2021-07-21T09:51:05Z</time>
      </trkpt>
      <trkpt lat="43.5643030" lon="-6.1543210">
        <ele>33.2</ele>
        <time>2021-07-21T09:51:07Z</time>
      </trkpt>
      <trkpt lat="43.5641870" lon="-6.1543350">
        <ele>33.6</ele>
        <time>2021-07-21T09:51:15Z</time>
      </trkpt>
      <trkpt lat="43.5641720" lon="-6.1543440">
        <ele>34.0</ele>
        <time>2021-07-21T09:51:16Z</time>
      </trkpt>
      <trkpt lat="43.5641520" lon="-6.1543530">
        <ele>34.4</ele>
        <time>2021-07-21T09:51:17Z</time>
      </trkpt>
      <trkpt lat="43.5641350" lon="-6.1543620">
        <ele>34.8</ele>
        <time>2021-07-21T09:51:18Z</time>
      </trkpt>
      <trkpt lat="43.5641240" lon="-6.1543590">
        <ele>35.2</ele>
        <time>2021-07-21T09:51:19Z</time>
      </trkpt>
      <trkpt lat="43.5640820" lon="-6.1543620">
        <ele>35.2</ele>
        <time>2021-07-21T09:51:24Z</time>
      </trkpt>
      <trkpt lat="43.5640400" lon="-6.1543550">
        <ele>35.6</ele>
        <time>2021-07-21T09:51:32Z</time>
      </trkpt>
      <trkpt lat="43.5640340" lon="-6.1543550">
        <ele>36.2</ele>
        <time>2021-07-21T09:51:33Z</time>
      </trkpt>
      <trkpt lat="43.5640300" lon="-6.1543560">
        <ele>36.6</ele>
        <time>2021-07-21T09:51:34Z</time>
      </trkpt>
      <trkpt lat="43.5640200" lon="-6.1543610">
        <ele>37.0</ele>
        <time>2021-07-21T09:51:35Z</time>
      </trkpt>
      <trkpt lat="43.5640160" lon="-6.1543610">
        <ele>37.4</ele>
        <time>2021-07-21T09:51:36Z</time>
      </trkpt>
      <trkpt lat="43.5640080" lon="-6.1544050">
        <ele>37.4</ele>
        <time>2021-07-21T09:51:40Z</time>
      </trkpt>
      <trkpt lat="43.5640030" lon="-6.1544360">
        <ele>37.4</ele>
        <time>2021-07-21T09:51:43Z</time>
      </trkpt>
      <trkpt lat="43.5639870" lon="-6.1544650">
        <ele>37.8</ele>
        <time>2021-07-21T09:51:46Z</time>
      </trkpt>
      <trkpt lat="43.5639810" lon="-6.1544780">
        <ele>38.2</ele>
        <time>2021-07-21T09:51:47Z</time>
      </trkpt>
      <trkpt lat="43.5639750" lon="-6.1544910">
        <ele>38.6</ele>
        <time>2021-07-21T09:51:48Z</time>
      </trkpt>
      <trkpt lat="43.5639730" lon="-6.1545200">
        <ele>39.0</ele>
        <time>2021-07-21T09:51:49Z</time>
      </trkpt>
      <trkpt lat="43.5639730" lon="-6.1545430">
        <ele>39.6</ele>
        <time>2021-07-21T09:51:50Z</time>
      </trkpt>
      <trkpt lat="43.5639800" lon="-6.1547040">
        <ele>39.6</ele>
        <time>2021-07-21T09:51:57Z</time>
      </trkpt>
      <trkpt lat="43.5639870" lon="-6.1547600">
        <ele>40.0</ele>
        <time>2021-07-21T09:52:00Z</time>
      </trkpt>
      <trkpt lat="43.5639870" lon="-6.1547810">
        <ele>40.4</ele>
        <time>2021-07-21T09:52:01Z</time>
      </trkpt>
      <trkpt lat="43.5639880" lon="-6.1548020">
        <ele>40.8</ele>
        <time>2021-07-21T09:52:02Z</time>
      </trkpt>
      <trkpt lat="43.5639880" lon="-6.1548230">
        <ele>41.2</ele>
        <time>2021-07-21T09:52:03Z</time>
      </trkpt>
      <trkpt lat="43.5639870" lon="-6.1548400">
        <ele>41.6</ele>
        <time>2021-07-21T09:52:04Z</time>
      </trkpt>
      <trkpt lat="43.5639850" lon="-6.1548610">
        <ele>41.6</ele>
        <time>2021-07-21T09:52:05Z</time>
      </trkpt>
      <trkpt lat="43.5640070" lon="-6.1550120">
        <ele>41.6</ele>
        <time>2021-07-21T09:52:13Z</time>
      </trkpt>
      <trkpt lat="43.5640150" lon="-6.1550510">
        <ele>42.0</ele>
        <time>2021-07-21T09:52:15Z</time>
      </trkpt>
      <trkpt lat="43.5640230" lon="-6.1550650">
        <ele>42.4</ele>
        <time>2021-07-21T09:52:16Z</time>
      </trkpt>
      <trkpt lat="43.5640280" lon="-6.1550730">
        <ele>42.8</ele>
        <time>2021-07-21T09:52:17Z</time>
      </trkpt>
      <trkpt lat="43.5640430" lon="-6.1550830">
        <ele>43.2</ele>
        <time>2021-07-21T09:52:18Z</time>
      </trkpt>
      <trkpt lat="43.5640560" lon="-6.1550940">
        <ele>43.6</ele>
        <time>2021-07-21T09:52:19Z</time>
      </trkpt>
      <trkpt lat="43.5640680" lon="-6.1551000">
        <ele>43.6</ele>
        <time>2021-07-21T09:52:20Z</time>
      </trkpt>
      <trkpt lat="43.5641510" lon="-6.1550580">
        <ele>43.6</ele>
        <time>2021-07-21T09:52:26Z</time>
      </trkpt>
      <trkpt lat="43.5642200" lon="-6.1550130">
        <ele>43.6</ele>
        <time>2021-07-21T09:52:30Z</time>
      </trkpt>
      <trkpt lat="43.5642700" lon="-6.1549870">
        <ele>44.0</ele>
        <time>2021-07-21T09:52:33Z</time>
      </trkpt>
      <trkpt lat="43.5642850" lon="-6.1549820">
        <ele>44.4</ele>
        <time>2021-07-21T09:52:34Z</time>
      </trkpt>
      <trkpt lat="43.5642960" lon="-6.1549740">
        <ele>44.8</ele>
        <time>2021-07-21T09:52:35Z</time>
      </trkpt>
      <trkpt lat="43.5643040" lon="-6.1549710">
        <ele>45.2</ele>
        <time>2021-07-21T09:52:36Z</time>
      </trkpt>
      <trkpt lat="43.5643120" lon="-6.1549700">
        <ele>45.8</ele>
        <time>2021-07-21T09:52:37Z</time>
      </trkpt>
      <trkpt lat="43.5643490" lon="-6.1549410">
        <ele>45.8</ele>
        <time>2021-07-21T09:52:41Z</time>
      </trkpt>
      <trkpt lat="43.5644150" lon="-6.1549070">
        <ele>45.8</ele>
        <time>2021-07-21T09:52:48Z</time>
      </trkpt>
      <trkpt lat="43.5644280" lon="-6.1548970">
        <ele>46.2</ele>
        <time>2021-07-21T09:52:49Z</time>
      </trkpt>
      <trkpt lat="43.5644410" lon="-6.1548910">
        <ele>46.6</ele>
        <time>2021-07-21T09:52:50Z</time>
      </trkpt>
      <trkpt lat="43.5644510" lon="-6.1548830">
        <ele>47.0</ele>
        <time>2021-07-21T09:52:51Z</time>
      </trkpt>
      <trkpt lat="43.5644610" lon="-6.1548760">
        <ele>47.4</ele>
        <time>2021-07-21T09:52:52Z</time>
      </trkpt>
      <trkpt lat="43.5644720" lon="-6.1548690">
        <ele>47.8</ele>
        <time>2021-07-21T09:52:53Z</time>
      </trkpt>
      <trkpt lat="43.5645460" lon="-6.1548340">
        <ele>47.8</ele>
        <time>2021-07-21T09:52:57Z</time>
      </trkpt>
      <trkpt lat="43.5646040" lon="-6.1548110">
        <ele>47.8</ele>
        <time>2021-07-21T09:53:02Z</time>
      </trkpt>
      <trkpt lat="43.5658470" lon="-6.1548660">
        <ele>63.8</ele>
        <time>2021-07-21T09:55:09Z</time>
      </trkpt>
      <trkpt lat="43.5658580" lon="-6.1548730">
        <ele>64.2</ele>
        <time>2021-07-21T09:55:10Z</time>
      </trkpt>
      <trkpt lat="43.5659200" lon="-6.1549310">
        <ele>64.2</ele>
        <time>2021-07-21T09:55:18Z</time>
      </trkpt>
      <trkpt lat="43.5659220" lon="-6.1549390">
        <ele>64.2</ele>
        <time>2021-07-21T09:55:20Z</time>
      </trkpt>
      <trkpt lat="43.5659400" lon="-6.1549760">
        <ele>64.2</ele>
        <time>2021-07-21T09:55:42Z</time>
      </trkpt>
      <trkpt lat="43.5659460" lon="-6.1549930">
        <ele>64.2</ele>
        <time>2021-07-21T09:55:43Z</time>
      </trkpt>
      <trkpt lat="43.5659540" lon="-6.1550100">
        <ele>64.6</ele>
        <time>2021-07-21T09:55:44Z</time>
      </trkpt>
      <trkpt lat="43.5659630" lon="-6.1550230">
        <ele>65.0</ele>
        <time>2021-07-21T09:55:45Z</time>
      </trkpt>
      <trkpt lat="43.5659690" lon="-6.1550360">
        <ele>65.4</ele>
        <time>2021-07-21T09:55:46Z</time>
      </trkpt>
      <trkpt lat="43.5659780" lon="-6.1550470">
        <ele>66.2</ele>
        <time>2021-07-21T09:55:47Z</time>
      </trkpt>
      <trkpt lat="43.5660160" lon="-6.1551060">
        <ele>66.2</ele>
        <time>2021-07-21T09:55:51Z</time>
      </trkpt>
      <trkpt lat="43.5660250" lon="-6.1551250">
        <ele>66.2</ele>
        <time>2021-07-21T09:55:52Z</time>
      </trkpt>
      <trkpt lat="43.5660590" lon="-6.1552550">
        <ele>66.2</ele>
        <time>2021-07-21T09:55:59Z</time>
      </trkpt>
      <trkpt lat="43.5660800" lon="-6.1553630">
        <ele>66.6</ele>
        <time>2021-07-21T09:56:05Z</time>
      </trkpt>
      <trkpt lat="43.5660770" lon="-6.1553760">
        <ele>67.0</ele>
        <time>2021-07-21T09:56:06Z</time>
      </trkpt>
      <trkpt lat="43.5660750" lon="-6.1553950">
        <ele>67.6</ele>
        <time>2021-07-21T09:56:07Z</time>
      </trkpt>
      <trkpt lat="43.5660780" lon="-6.1554040">
        <ele>68.0</ele>
        <time>2021-07-21T09:56:08Z</time>
      </trkpt>
      <trkpt lat="43.5660820" lon="-6.1554150">
        <ele>68.4</ele>
        <time>2021-07-21T09:56:09Z</time>
      </trkpt>
      <trkpt lat="43.5660940" lon="-6.1554120">
        <ele>68.4</ele>
        <time>2021-07-21T09:56:11Z</time>
      </trkpt>
      <trkpt lat="43.5660980" lon="-6.1554310">
        <ele>68.4</ele>
        <time>2021-07-21T09:56:19Z</time>
      </trkpt>
      <trkpt lat="43.5660990" lon="-6.1554420">
        <ele>68.4</ele>
        <time>2021-07-21T09:56:20Z</time>
      </trkpt>
      <trkpt lat="43.5661020" lon="-6.1554790">
        <ele>68.4</ele>
        <time>2021-07-21T09:56:23Z</time>
      </trkpt>
      <trkpt lat="43.5660760" lon="-6.1555550">
        <ele>68.4</ele>
        <time>2021-07-21T09:56:28Z</time>
      </trkpt>
      <trkpt lat="43.5660470" lon="-6.1557200">
        <ele>68.4</ele>
        <time>2021-07-21T09:56:36Z</time>
      </trkpt>
      <trkpt lat="43.5660390" lon="-6.1557620">
        <ele>68.8</ele>
        <time>2021-07-21T09:56:38Z</time>
      </trkpt>
      <trkpt lat="43.5660330" lon="-6.1557790">
        <ele>69.2</ele>
        <time>2021-07-21T09:56:39Z</time>
      </trkpt>
      <trkpt lat="43.5660240" lon="-6.1557960">
        <ele>69.6</ele>
        <time>2021-07-21T09:56:40Z</time>
      </trkpt>
      <trkpt lat="43.5660170" lon="-6.1558150">
        <ele>70.0</ele>
        <time>2021-07-21T09:56:41Z</time>
      </trkpt>
      <trkpt lat="43.5660100" lon="-6.1558330">
        <ele>70.4</ele>
        <time>2021-07-21T09:56:42Z</time>
      </trkpt>
      <trkpt lat="43.5659920" lon="-6.1558790">
        <ele>70.4</ele>
        <time>2021-07-21T09:56:45Z</time>
      </trkpt>
      <trkpt lat="43.5659870" lon="-6.1559150">
        <ele>70.4</ele>
        <time>2021-07-21T09:56:47Z</time>
      </trkpt>
      <trkpt lat="43.5660040" lon="-6.1559670">
        <ele>70.4</ele>
        <time>2021-07-21T09:56:50Z</time>
      </trkpt>
      <trkpt lat="43.5660550" lon="-6.1560890">
        <ele>70.4</ele>
        <time>2021-07-21T09:56:58Z</time>
      </trkpt>
      <trkpt lat="43.5660520" lon="-6.1561080">
        <ele>70.4</ele>
        <time>2021-07-21T09:57:01Z</time>
      </trkpt>
      <trkpt lat="43.5660380" lon="-6.1561260">
        <ele>70.4</ele>
        <time>2021-07-21T09:58:47Z</time>
      </trkpt>
      <trkpt lat="43.5660270" lon="-6.1561420">
        <ele>70.4</ele>
        <time>2021-07-21T09:58:48Z</time>
      </trkpt>
      <trkpt lat="43.5659850" lon="-6.1561940">
        <ele>70.4</ele>
        <time>2021-07-21T09:58:51Z</time>
      </trkpt>
      <trkpt lat="43.5659160" lon="-6.1562260">
        <ele>70.4</ele>
        <time>2021-07-21T09:58:55Z</time>
      </trkpt>
      <trkpt lat="43.5658490" lon="-6.1561650">
        <ele>70.4</ele>
        <time>2021-07-21T09:58:59Z</time>
      </trkpt>
      <trkpt lat="43.5657770" lon="-6.1562230">
        <ele>70.4</ele>
        <time>2021-07-21T09:59:03Z</time>
      </trkpt>
      <trkpt lat="43.5657440" lon="-6.1562760">
        <ele>70.4</ele>
        <time>2021-07-21T09:59:05Z</time>
      </trkpt>
      <trkpt lat="43.5657090" lon="-6.1563270">
        <ele>70.8</ele>
        <time>2021-07-21T09:59:07Z</time>
      </trkpt>
      <trkpt lat="43.5656960" lon="-6.1563540">
        <ele>71.2</ele>
        <time>2021-07-21T09:59:08Z</time>
      </trkpt>
      <trkpt lat="43.5656800" lon="-6.1563770">
        <ele>71.6</ele>
        <time>2021-07-21T09:59:09Z</time>
      </trkpt>
      <trkpt lat="43.5656640" lon="-6.1564000">
        <ele>72.0</ele>
        <time>2021-07-21T09:59:10Z</time>
      </trkpt>
      <trkpt lat="43.5656480" lon="-6.1564250">
        <ele>72.4</ele>
        <time>2021-07-21T09:59:11Z</time>
      </trkpt>
      <trkpt lat="43.5655570" lon="-6.1565480">
        <ele>72.4</ele>
        <time>2021-07-21T09:59:16Z</time>
      </trkpt>
      <trkpt lat="43.5655210" lon="-6.1566010">
        <ele>72.4</ele>
        <time>2021-07-21T09:59:18Z</time>
      </trkpt>
      <trkpt lat="43.5654400" lon="-6.1567110">
        <ele>72.4</ele>
        <time>2021-07-21T09:59:22Z</time>
      </trkpt>
      <trkpt lat="43.5654180" lon="-6.1567380">
        <ele>72.8</ele>
        <time>2021-07-21T09:59:23Z</time>
      </trkpt>
      <trkpt lat="43.5653960" lon="-6.1567630">
        <ele>73.2</ele>
        <time>2021-07-21T09:59:24Z</time>
      </trkpt>
      <trkpt lat="43.5653740" lon="-6.1567880">
        <ele>73.6</ele>
        <time>2021-07-21T09:59:25Z</time>
      </trkpt>
      <trkpt lat="43.5653520" lon="-6.1568130">
        <ele>74.0</ele>
        <time>2021-07-21T09:59:26Z</time>
      </trkpt>
      <trkpt lat="43.5653300" lon="-6.1568370">
        <ele>74.4</ele>
        <time>2021-07-21T09:59:28Z</time>
      </trkpt>
      <trkpt lat="43.5651440" lon="-6.1570100">
        <ele>74.4</ele>
        <time>2021-07-21T09:59:36Z</time>
      </trkpt>
      <trkpt lat="43.5651000" lon="-6.1570490">
        <ele>74.8</ele>
        <time>2021-07-21T09:59:38Z</time>
      </trkpt>
      <trkpt lat="43.5650770" lon="-6.1570650">
        <ele>75.2</ele>
        <time>2021-07-21T09:59:39Z</time>
      </trkpt>
      <trkpt lat="43.5650530" lon="-6.1570800">
        <ele>75.6</ele>
        <time>2021-07-21T09:59:40Z</time>
      </trkpt>
      <trkpt lat="43.5650300" lon="-6.1570940">
        <ele>76.0</ele>
        <time>2021-07-21T09:59:41Z</time>
      </trkpt>
      <trkpt lat="43.5650080" lon="-6.1571120">
        <ele>76.4</ele>
        <time>2021-07-21T09:59:42Z</time>
      </trkpt>
      <trkpt lat="43.5649370" lon="-6.1571650">
        <ele>76.4</ele>
        <time>2021-07-21T09:59:45Z</time>
      </trkpt>
      <trkpt lat="43.5647460" lon="-6.1572900">
        <ele>76.4</ele>
        <time>2021-07-21T09:59:53Z</time>
      </trkpt>
      <trkpt lat="43.5646700" lon="-6.1573370">
        <ele>76.8</ele>
        <time>2021-07-21T09:59:56Z</time>
      </trkpt>
      <trkpt lat="43.5646450" lon="-6.1573500">
        <ele>77.2</ele>
        <time>2021-07-21T09:59:57Z</time>
      </trkpt>
      <trkpt lat="43.5646190" lon="-6.1573650">
        <ele>77.6</ele>
        <time>2021-07-21T09:59:58Z</time>
      </trkpt>
      <trkpt lat="43.5645930" lon="-6.1573800">
        <ele>78.0</ele>
        <time>2021-07-21T09:59:59Z</time>
      </trkpt>
      <trkpt lat="43.5645690" lon="-6.1573960">
        <ele>78.4</ele>
        <time>2021-07-21T10:00:00Z</time>
      </trkpt>
      <trkpt lat="43.5643680" lon="-6.1575140">
        <ele>78.4</ele>
        <time>2021-07-21T10:00:08Z</time>
      </trkpt>
      <trkpt lat="43.5642100" lon="-6.1575980">
        <ele>78.8</ele>
        <time>2021-07-21T10:00:14Z</time>
      </trkpt>
      <trkpt lat="43.5641830" lon="-6.1576150">
        <ele>79.4</ele>
        <time>2021-07-21T10:00:15Z</time>
      </trkpt>
      <trkpt lat="43.5641540" lon="-6.1576310">
        <ele>79.8</ele>
        <time>2021-07-21T10:00:16Z</time>
      </trkpt>
      <trkpt lat="43.5641280" lon="-6.1576480">
        <ele>80.2</ele>
        <time>2021-07-21T10:00:17Z</time>
      </trkpt>
      <trkpt lat="43.5641010" lon="-6.1576640">
        <ele>80.6</ele>
        <time>2021-07-21T10:00:18Z</time>
      </trkpt>
      <trkpt lat="43.5638920" lon="-6.1577860">
        <ele>80.6</ele>
        <time>2021-07-21T10:00:25Z</time>
      </trkpt>
      <trkpt lat="43.5636460" lon="-6.1579320">
        <ele>80.6</ele>
        <time>2021-07-21T10:00:33Z</time>
      </trkpt>
      <trkpt lat="43.5635100" lon="-6.1580150">
        <ele>80.6</ele>
        <time>2021-07-21T10:00:37Z</time>
      </trkpt>
      <trkpt lat="43.5634410" lon="-6.1580580">
        <ele>80.6</ele>
        <time>2021-07-21T10:00:39Z</time>
      </trkpt>
      <trkpt lat="43.5633100" lon="-6.1581600">
        <ele>80.6</ele>
        <time>2021-07-21T10:00:43Z</time>
      </trkpt>
      <trkpt lat="43.5632430" lon="-6.1582130">
        <ele>80.6</ele>
        <time>2021-07-21T10:00:45Z</time>
      </trkpt>
      <trkpt lat="43.5630590" lon="-6.1583720">
        <ele>80.6</ele>
        <time>2021-07-21T10:00:50Z</time>
      </trkpt>
      <trkpt lat="43.5629140" lon="-6.1585170">
        <ele>80.6</ele>
        <time>2021-07-21T10:00:54Z</time>
      </trkpt>
      <trkpt lat="43.5626820" lon="-6.1587760">
        <ele>80.6</ele>
        <time>2021-07-21T10:01:01Z</time>
      </trkpt>
      <trkpt lat="43.5626530" lon="-6.1588140">
        <ele>80.6</ele>
        <time>2021-07-21T10:01:02Z</time>
      </trkpt>
      <trkpt lat="43.5624750" lon="-6.1590580">
        <ele>80.6</ele>
        <time>2021-07-21T10:01:08Z</time>
      </trkpt>
      <trkpt lat="43.5624480" lon="-6.1591000">
        <ele>80.6</ele>
        <time>2021-07-21T10:01:09Z</time>
      </trkpt>
      <trkpt lat="43.5622810" lon="-6.1593640">
        <ele>80.6</ele>
        <time>2021-07-21T10:01:15Z</time>
      </trkpt>
      <trkpt lat="43.5622290" lon="-6.1594580">
        <ele>80.6</ele>
        <time>2021-07-21T10:01:17Z</time>
      </trkpt>
      <trkpt lat="43.5620300" lon="-6.1598270">
        <ele>80.6</ele>
        <time>2021-07-21T10:01:25Z</time>
      </trkpt>
      <trkpt lat="43.5620080" lon="-6.1598780">
        <ele>80.6</ele>
        <time>2021-07-21T10:01:26Z</time>
      </trkpt>
      <trkpt lat="43.5619180" lon="-6.1600830">
        <ele>80.6</ele>
        <time>2021-07-21T10:01:30Z</time>
      </trkpt>
      <trkpt lat="43.5618460" lon="-6.1602330">
        <ele>80.6</ele>
        <time>2021-07-21T10:01:33Z</time>
      </trkpt>
      <trkpt lat="43.5617080" lon="-6.1605430">
        <ele>80.6</ele>
        <time>2021-07-21T10:01:39Z</time>
      </trkpt>
      <trkpt lat="43.5616180" lon="-6.1607500">
        <ele>80.6</ele>
        <time>2021-07-21T10:01:43Z</time>
      </trkpt>
      <trkpt lat="43.5615290" lon="-6.1609450">
        <ele>81.0</ele>
        <time>2021-07-21T10:01:47Z</time>
      </trkpt>
      <trkpt lat="43.5615070" lon="-6.1609940">
        <ele>81.4</ele>
        <time>2021-07-21T10:01:48Z</time>
      </trkpt>
      <trkpt lat="43.5614870" lon="-6.1610450">
        <ele>81.8</ele>
        <time>2021-07-21T10:01:49Z</time>
      </trkpt>
      <trkpt lat="43.5614650" lon="-6.1610970">
        <ele>82.2</ele>
        <time>2021-07-21T10:01:50Z</time>
      </trkpt>
      <trkpt lat="43.5614420" lon="-6.1611480">
        <ele>82.6</ele>
        <time>2021-07-21T10:01:51Z</time>
      </trkpt>
      <trkpt lat="43.5614220" lon="-6.1611970">
        <ele>82.6</ele>
        <time>2021-07-21T10:01:52Z</time>
      </trkpt>
      <trkpt lat="43.5612730" lon="-6.1615180">
        <ele>82.6</ele>
        <time>2021-07-21T10:01:59Z</time>
      </trkpt>
      <trkpt lat="43.5611730" lon="-6.1617640">
        <ele>83.0</ele>
        <time>2021-07-21T10:02:04Z</time>
      </trkpt>
      <trkpt lat="43.5611510" lon="-6.1618120">
        <ele>83.4</ele>
        <time>2021-07-21T10:02:05Z</time>
      </trkpt>
      <trkpt lat="43.5611300" lon="-6.1618600">
        <ele>83.8</ele>
        <time>2021-07-21T10:02:06Z</time>
      </trkpt>
      <trkpt lat="43.5611090" lon="-6.1619080">
        <ele>84.2</ele>
        <time>2021-07-21T10:02:07Z</time>
      </trkpt>
      <trkpt lat="43.5610890" lon="-6.1619570">
        <ele>84.6</ele>
        <time>2021-07-21T10:02:08Z</time>
      </trkpt>
      <trkpt lat="43.5609470" lon="-6.1622810">
        <ele>84.6</ele>
        <time>2021-07-21T10:02:15Z</time>
      </trkpt>
      <trkpt lat="43.5607770" lon="-6.1626430">
        <ele>85.0</ele>
        <time>2021-07-21T10:02:23Z</time>
      </trkpt>
      <trkpt lat="43.5607590" lon="-6.1626910">
        <ele>85.4</ele>
        <time>2021-07-21T10:02:24Z</time>
      </trkpt>
      <trkpt lat="43.5607440" lon="-6.1627400">
        <ele>85.8</ele>
        <time>2021-07-21T10:02:25Z</time>
      </trkpt>
      <trkpt lat="43.5607260" lon="-6.1627860">
        <ele>86.2</ele>
        <time>2021-07-21T10:02:26Z</time>
      </trkpt>
      <trkpt lat="43.5607100" lon="-6.1628340">
        <ele>86.8</ele>
        <time>2021-07-21T10:02:27Z</time>
      </trkpt>
      <trkpt lat="43.5606350" lon="-6.1630180">
        <ele>86.8</ele>
        <time>2021-07-21T10:02:31Z</time>
      </trkpt>
      <trkpt lat="43.5605000" lon="-6.1633240">
        <ele>86.8</ele>
        <time>2021-07-21T10:02:38Z</time>
      </trkpt>
      <trkpt lat="43.5604430" lon="-6.1634590">
        <ele>87.2</ele>
        <time>2021-07-21T10:02:41Z</time>
      </trkpt>
      <trkpt lat="43.5604220" lon="-6.1635050">
        <ele>87.6</ele>
        <time>2021-07-21T10:02:42Z</time>
      </trkpt>
      <trkpt lat="43.5604020" lon="-6.1635470">
        <ele>88.0</ele>
        <time>2021-07-21T10:02:43Z</time>
      </trkpt>
      <trkpt lat="43.5603840" lon="-6.1635880">
        <ele>88.4</ele>
        <time>2021-07-21T10:02:44Z</time>
      </trkpt>
      <trkpt lat="43.5603670" lon="-6.1636330">
        <ele>88.8</ele>
        <time>2021-07-21T10:02:45Z</time>
      </trkpt>
      <trkpt lat="43.5603500" lon="-6.1636770">
        <ele>88.8</ele>
        <time>2021-07-21T10:02:46Z</time>
      </trkpt>
      <trkpt lat="43.5601800" lon="-6.1640460">
        <ele>88.8</ele>
        <time>2021-07-21T10:02:55Z</time>
      </trkpt>
      <trkpt lat="43.5600750" lon="-6.1642990">
        <ele>89.2</ele>
        <time>2021-07-21T10:03:01Z</time>
      </trkpt>
      <trkpt lat="43.5600570" lon="-6.1643440">
        <ele>89.6</ele>
        <time>2021-07-21T10:03:02Z</time>
      </trkpt>
      <trkpt lat="43.5600400" lon="-6.1643860">
        <ele>90.0</ele>
        <time>2021-07-21T10:03:03Z</time>
      </trkpt>
      <trkpt lat="43.5600230" lon="-6.1644290">
        <ele>90.4</ele>
        <time>2021-07-21T10:03:04Z</time>
      </trkpt>
      <trkpt lat="43.5600020" lon="-6.1644730">
        <ele>90.8</ele>
        <time>2021-07-21T10:03:05Z</time>
      </trkpt>
      <trkpt lat="43.5598730" lon="-6.1647620">
        <ele>90.8</ele>
        <time>2021-07-21T10:03:12Z</time>
      </trkpt>
      <trkpt lat="43.5598140" lon="-6.1648900">
        <ele>91.2</ele>
        <time>2021-07-21T10:03:15Z</time>
      </trkpt>
      <trkpt lat="43.5597980" lon="-6.1649330">
        <ele>91.6</ele>
        <time>2021-07-21T10:03:16Z</time>
      </trkpt>
      <trkpt lat="43.5597790" lon="-6.1649750">
        <ele>92.0</ele>
        <time>2021-07-21T10:03:17Z</time>
      </trkpt>
      <trkpt lat="43.5597600" lon="-6.1650150">
        <ele>92.4</ele>
        <time>2021-07-21T10:03:18Z</time>
      </trkpt>
      <trkpt lat="43.5597430" lon="-6.1650570">
        <ele>92.8</ele>
        <time>2021-07-21T10:03:19Z</time>
      </trkpt>
      <trkpt lat="43.5597280" lon="-6.1650990">
        <ele>92.8</ele>
        <time>2021-07-21T10:03:20Z</time>
      </trkpt>
      <trkpt lat="43.5596090" lon="-6.1653850">
        <ele>92.8</ele>
        <time>2021-07-21T10:03:27Z</time>
      </trkpt>
      <trkpt lat="43.5595620" lon="-6.1655000">
        <ele>93.2</ele>
        <time>2021-07-21T10:03:30Z</time>
      </trkpt>
      <trkpt lat="43.5595480" lon="-6.1655360">
        <ele>93.8</ele>
        <time>2021-07-21T10:03:31Z</time>
      </trkpt>
      <trkpt lat="43.5595320" lon="-6.1655760">
        <ele>94.2</ele>
        <time>2021-07-21T10:03:32Z</time>
      </trkpt>
      <trkpt lat="43.5595130" lon="-6.1656150">
        <ele>94.6</ele>
        <time>2021-07-21T10:03:33Z</time>
      </trkpt>
      <trkpt lat="43.5594960" lon="-6.1656500">
        <ele>95.0</ele>
        <time>2021-07-21T10:03:34Z</time>
      </trkpt>
      <trkpt lat="43.5594640" lon="-6.1657280">
        <ele>95.0</ele>
        <time>2021-07-21T10:03:36Z</time>
      </trkpt>
      <trkpt lat="43.5593470" lon="-6.1660100">
        <ele>95.0</ele>
        <time>2021-07-21T10:03:44Z</time>
      </trkpt>
      <trkpt lat="43.5592690" lon="-6.1661870">
        <ele>95.4</ele>
        <time>2021-07-21T10:03:49Z</time>
      </trkpt>
      <trkpt lat="43.5592540" lon="-6.1662210">
        <ele>95.8</ele>
        <time>2021-07-21T10:03:50Z</time>
      </trkpt>
      <trkpt lat="43.5592370" lon="-6.1662560">
        <ele>96.2</ele>
        <time>2021-07-21T10:03:51Z</time>
      </trkpt>
      <trkpt lat="43.5592220" lon="-6.1662900">
        <ele>96.6</ele>
        <time>2021-07-21T10:03:52Z</time>
      </trkpt>
      <trkpt lat="43.5592050" lon="-6.1663240">
        <ele>97.0</ele>
        <time>2021-07-21T10:03:53Z</time>
      </trkpt>
      <trkpt lat="43.5590600" lon="-6.1666410">
        <ele>97.4</ele>
        <time>2021-07-21T10:04:02Z</time>
      </trkpt>
      <trkpt lat="43.5590450" lon="-6.1666750">
        <ele>97.8</ele>
        <time>2021-07-21T10:04:03Z</time>
      </trkpt>
      <trkpt lat="43.5590310" lon="-6.1667100">
        <ele>98.2</ele>
        <time>2021-07-21T10:04:04Z</time>
      </trkpt>
      <trkpt lat="43.5590130" lon="-6.1667420">
        <ele>98.6</ele>
        <time>2021-07-21T10:04:05Z</time>
      </trkpt>
      <trkpt lat="43.5589960" lon="-6.1667780">
        <ele>99.0</ele>
        <time>2021-07-21T10:04:06Z</time>
      </trkpt>
      <trkpt lat="43.5589360" lon="-6.1669170">
        <ele>99.0</ele>
        <time>2021-07-21T10:04:10Z</time>
      </trkpt>
      <trkpt lat="43.5588460" lon="-6.1671130">
        <ele>99.4</ele>
        <time>2021-07-21T10:04:16Z</time>
      </trkpt>
      <trkpt lat="43.5588300" lon="-6.1671470">
        <ele>99.8</ele>
        <time>2021-07-21T10:04:17Z</time>
      </trkpt>
      <trkpt lat="43.5588120" lon="-6.1671800">
        <ele>100.2</ele>
        <time>2021-07-21T10:04:18Z</time>
      </trkpt>
      <trkpt lat="43.5587960" lon="-6.1672090">
        <ele>100.6</ele>
        <time>2021-07-21T10:04:19Z</time>
      </trkpt>
      <trkpt lat="43.5587850" lon="-6.1672460">
        <ele>101.0</ele>
        <time>2021-07-21T10:04:20Z</time>
      </trkpt>
      <trkpt lat="43.5587260" lon="-6.1673730">
        <ele>101.0</ele>
        <time>2021-07-21T10:04:24Z</time>
      </trkpt>
      <trkpt lat="43.5586440" lon="-6.1675330">
        <ele>101.6</ele>
        <time>2021-07-21T10:04:29Z</time>
      </trkpt>
      <trkpt lat="43.5586280" lon="-6.1675660">
        <ele>102.0</ele>
        <time>2021-07-21T10:04:30Z</time>
      </trkpt>
      <trkpt lat="43.5586140" lon="-6.1675970">
        <ele>102.4</ele>
        <time>2021-07-21T10:04:31Z</time>
      </trkpt>
      <trkpt lat="43.5586030" lon="-6.1676240">
        <ele>102.8</ele>
        <time>2021-07-21T10:04:32Z</time>
      </trkpt>
      <trkpt lat="43.5585880" lon="-6.1676540">
        <ele>103.2</ele>
        <time>2021-07-21T10:04:33Z</time>
      </trkpt>
      <trkpt lat="43.5585010" lon="-6.1678400">
        <ele>103.2</ele>
        <time>2021-07-21T10:04:39Z</time>
      </trkpt>
      <trkpt lat="43.5584330" lon="-6.1679950">
        <ele>103.6</ele>
        <time>2021-07-21T10:04:44Z</time>
      </trkpt>
      <trkpt lat="43.5584160" lon="-6.1680220">
        <ele>104.0</ele>
        <time>2021-07-21T10:04:45Z</time>
      </trkpt>
      <trkpt lat="43.5584070" lon="-6.1680490">
        <ele>104.4</ele>
        <time>2021-07-21T10:04:46Z</time>
      </trkpt>
      <trkpt lat="43.5583980" lon="-6.1680790">
        <ele>104.8</ele>
        <time>2021-07-21T10:04:47Z</time>
      </trkpt>
      <trkpt lat="43.5583880" lon="-6.1681070">
        <ele>105.2</ele>
        <time>2021-07-21T10:04:48Z</time>
      </trkpt>
      <trkpt lat="43.5583150" lon="-6.1682500">
        <ele>105.2</ele>
        <time>2021-07-21T10:04:53Z</time>
      </trkpt>
      <trkpt lat="43.5582570" lon="-6.1683550">
        <ele>105.6</ele>
        <time>2021-07-21T10:04:57Z</time>
      </trkpt>
      <trkpt lat="43.5582430" lon="-6.1683800">
        <ele>106.0</ele>
        <time>2021-07-21T10:04:58Z</time>
      </trkpt>
      <trkpt lat="43.5582290" lon="-6.1684090">
        <ele>106.4</ele>
        <time>2021-07-21T10:04:59Z</time>
      </trkpt>
      <trkpt lat="43.5582190" lon="-6.1684400">
        <ele>106.8</ele>
        <time>2021-07-21T10:05:00Z</time>
      </trkpt>
      <trkpt lat="43.5582040" lon="-6.1684690">
        <ele>107.2</ele>
        <time>2021-07-21T10:05:01Z</time>
      </trkpt>
      <trkpt lat="43.5581010" lon="-6.1686660">
        <ele>107.2</ele>
        <time>2021-07-21T10:05:08Z</time>
      </trkpt>
      <trkpt lat="43.5580630" lon="-6.1687530">
        <ele>107.6</ele>
        <time>2021-07-21T10:05:11Z</time>
      </trkpt>
      <trkpt lat="43.5580530" lon="-6.1687800">
        <ele>108.0</ele>
        <time>2021-07-21T10:05:12Z</time>
      </trkpt>
      <trkpt lat="43.5580400" lon="-6.1688080">
        <ele>108.4</ele>
        <time>2021-07-21T10:05:13Z</time>
      </trkpt>
      <trkpt lat="43.5580280" lon="-6.1688310">
        <ele>109.0</ele>
        <time>2021-07-21T10:05:14Z</time>
      </trkpt>
      <trkpt lat="43.5580150" lon="-6.1688580">
        <ele>109.4</ele>
        <time>2021-07-21T10:05:15Z</time>
      </trkpt>
      <trkpt lat="43.5579440" lon="-6.1690080">
        <ele>109.8</ele>
        <time>2021-07-21T10:05:21Z</time>
      </trkpt>
      <trkpt lat="43.5579320" lon="-6.1690340">
        <ele>110.2</ele>
        <time>2021-07-21T10:05:22Z</time>
      </trkpt>
      <trkpt lat="43.5579190" lon="-6.1690630">
        <ele>110.6</ele>
        <time>2021-07-21T10:05:23Z</time>
      </trkpt>
      <trkpt lat="43.5579050" lon="-6.1690890">
        <ele>111.0</ele>
        <time>2021-07-21T10:05:24Z</time>
      </trkpt>
      <trkpt lat="43.5578930" lon="-6.1691140">
        <ele>111.4</ele>
        <time>2021-07-21T10:05:25Z</time>
      </trkpt>
      <trkpt lat="43.5578250" lon="-6.1692540">
        <ele>111.4</ele>
        <time>2021-07-21T10:05:31Z</time>
      </trkpt>
      <trkpt lat="43.5577660" lon="-6.1693580">
        <ele>111.8</ele>
        <time>2021-07-21T10:05:36Z</time>
      </trkpt>
      <trkpt lat="43.5577580" lon="-6.1693770">
        <ele>112.2</ele>
        <time>2021-07-21T10:05:37Z</time>
      </trkpt>
      <trkpt lat="43.5577480" lon="-6.1694030">
        <ele>112.6</ele>
        <time>2021-07-21T10:05:38Z</time>
      </trkpt>
      <trkpt lat="43.5577360" lon="-6.1694260">
        <ele>113.0</ele>
        <time>2021-07-21T10:05:39Z</time>
      </trkpt>
      <trkpt lat="43.5577280" lon="-6.1694490">
        <ele>113.4</ele>
        <time>2021-07-21T10:05:40Z</time>
      </trkpt>
      <trkpt lat="43.5576860" lon="-6.1695410">
        <ele>114.0</ele>
        <time>2021-07-21T10:05:44Z</time>
      </trkpt>
      <trkpt lat="43.5576740" lon="-6.1695640">
        <ele>114.4</ele>
        <time>2021-07-21T10:05:45Z</time>
      </trkpt>
      <trkpt lat="43.5576620" lon="-6.1695880">
        <ele>114.8</ele>
        <time>2021-07-21T10:05:46Z</time>
      </trkpt>
      <trkpt lat="43.5576510" lon="-6.1696120">
        <ele>115.2</ele>
        <time>2021-07-21T10:05:47Z</time>
      </trkpt>
      <trkpt lat="43.5576390" lon="-6.1696370">
        <ele>115.6</ele>
        <time>2021-07-21T10:05:48Z</time>
      </trkpt>
      <trkpt lat="43.5575570" lon="-6.1697850">
        <ele>116.0</ele>
        <time>2021-07-21T10:05:54Z</time>
      </trkpt>
      <trkpt lat="43.5575420" lon="-6.1698120">
        <ele>116.4</ele>
        <time>2021-07-21T10:05:55Z</time>
      </trkpt>
      <trkpt lat="43.5575300" lon="-6.1698370">
        <ele>116.8</ele>
        <time>2021-07-21T10:05:56Z</time>
      </trkpt>
      <trkpt lat="43.5575190" lon="-6.1698680">
        <ele>117.2</ele>
        <time>2021-07-21T10:05:57Z</time>
      </trkpt>
      <trkpt lat="43.5575080" lon="-6.1698980">
        <ele>117.6</ele>
        <time>2021-07-21T10:05:58Z</time>
      </trkpt>
      <trkpt lat="43.5574930" lon="-6.1700370">
        <ele>117.6</ele>
        <time>2021-07-21T10:06:02Z</time>
      </trkpt>
      <trkpt lat="43.5575240" lon="-6.1702930">
        <ele>117.6</ele>
        <time>2021-07-21T10:06:08Z</time>
      </trkpt>
      <trkpt lat="43.5574810" lon="-6.1705710">
        <ele>117.6</ele>
        <time>2021-07-21T10:06:14Z</time>
      </trkpt>
      <trkpt lat="43.5575250" lon="-6.1707620">
        <ele>117.6</ele>
        <time>2021-07-21T10:06:18Z</time>
      </trkpt>
      <trkpt lat="43.5576470" lon="-6.1710080">
        <ele>117.6</ele>
        <time>2021-07-21T10:06:23Z</time>
      </trkpt>
      <trkpt lat="43.5576740" lon="-6.1710660">
        <ele>117.6</ele>
        <time>2021-07-21T10:06:24Z</time>
      </trkpt>
      <trkpt lat="43.5577280" lon="-6.1711700">
        <ele>117.6</ele>
        <time>2021-07-21T10:06:26Z</time>
      </trkpt>
      <trkpt lat="43.5577600" lon="-6.1712190">
        <ele>117.6</ele>
        <time>2021-07-21T10:06:27Z</time>
      </trkpt>
      <trkpt lat="43.5578530" lon="-6.1713700">
        <ele>117.6</ele>
        <time>2021-07-21T10:06:30Z</time>
      </trkpt>
      <trkpt lat="43.5578860" lon="-6.1714260">
        <ele>117.6</ele>
        <time>2021-07-21T10:06:31Z</time>
      </trkpt>
      <trkpt lat="43.5582140" lon="-6.1720140">
        <ele>117.6</ele>
        <time>2021-07-21T10:06:41Z</time>
      </trkpt>
      <trkpt lat="43.5583580" lon="-6.1722800">
        <ele>117.6</ele>
        <time>2021-07-21T10:06:45Z</time>
      </trkpt>
      <trkpt lat="43.5583950" lon="-6.1723500">
        <ele>117.2</ele>
        <time>2021-07-21T10:06:46Z</time>
      </trkpt>
      <trkpt lat="43.5584360" lon="-6.1724230">
        <ele>116.6</ele>
        <time>2021-07-21T10:06:47Z</time>
      </trkpt>
      <trkpt lat="43.5584760" lon="-6.1724940">
        <ele>116.2</ele>
        <time>2021-07-21T10:06:48Z</time>
      </trkpt>
      <trkpt lat="43.5585140" lon="-6.1725660">
        <ele>115.8</ele>
        <time>2021-07-21T10:06:49Z</time>
      </trkpt>
      <trkpt lat="43.5585560" lon="-6.1726420">
        <ele>115.4</ele>
        <time>2021-07-21T10:06:50Z</time>
      </trkpt>
      <trkpt lat="43.5586000" lon="-6.1727210">
        <ele>115.4</ele>
        <time>2021-07-21T10:06:51Z</time>
      </trkpt>
      <trkpt lat="43.5588710" lon="-6.1732380">
        <ele>115.0</ele>
        <time>2021-07-21T10:06:57Z</time>
      </trkpt>
      <trkpt lat="43.5589180" lon="-6.1733310">
        <ele>114.6</ele>
        <time>2021-07-21T10:06:58Z</time>
      </trkpt>
      <trkpt lat="43.5589640" lon="-6.1734260">
        <ele>114.2</ele>
        <time>2021-07-21T10:06:59Z</time>
      </trkpt>
      <trkpt lat="43.5590110" lon="-6.1735210">
        <ele>113.8</ele>
        <time>2021-07-21T10:07:00Z</time>
      </trkpt>
      <trkpt lat="43.5590590" lon="-6.1736160">
        <ele>113.4</ele>
        <time>2021-07-21T10:07:01Z</time>
      </trkpt>
      <trkpt lat="43.5591080" lon="-6.1737210">
        <ele>113.0</ele>
        <time>2021-07-21T10:07:02Z</time>
      </trkpt>
      <trkpt lat="43.5591520" lon="-6.1738230">
        <ele>112.4</ele>
        <time>2021-07-21T10:07:03Z</time>
      </trkpt>
      <trkpt lat="43.5591950" lon="-6.1739190">
        <ele>112.0</ele>
        <time>2021-07-21T10:07:04Z</time>
      </trkpt>
      <trkpt lat="43.5592450" lon="-6.1740110">
        <ele>111.6</ele>
        <time>2021-07-21T10:07:05Z</time>
      </trkpt>
      <trkpt lat="43.5592920" lon="-6.1741050">
        <ele>111.0</ele>
        <time>2021-07-21T10:07:06Z</time>
      </trkpt>
      <trkpt lat="43.5593380" lon="-6.1741990">
        <ele>110.4</ele>
        <time>2021-07-21T10:07:07Z</time>
      </trkpt>
      <trkpt lat="43.5593820" lon="-6.1742870">
        <ele>109.8</ele>
        <time>2021-07-21T10:07:08Z</time>
      </trkpt>
      <trkpt lat="43.5594220" lon="-6.1743730">
        <ele>109.2</ele>
        <time>2021-07-21T10:07:09Z</time>
      </trkpt>
      <trkpt lat="43.5594630" lon="-6.1744580">
        <ele>108.4</ele>
        <time>2021-07-21T10:07:10Z</time>
      </trkpt>
      <trkpt lat="43.5595000" lon="-6.1745340">
        <ele>107.8</ele>
        <time>2021-07-21T10:07:11Z</time>
      </trkpt>
      <trkpt lat="43.5595360" lon="-6.1746030">
        <ele>107.2</ele>
        <time>2021-07-21T10:07:12Z</time>
      </trkpt>
      <trkpt lat="43.5595720" lon="-6.1746700">
        <ele>106.6</ele>
        <time>2021-07-21T10:07:13Z</time>
      </trkpt>
      <trkpt lat="43.5596060" lon="-6.1747420">
        <ele>106.0</ele>
        <time>2021-07-21T10:07:14Z</time>
      </trkpt>
      <trkpt lat="43.5596430" lon="-6.1748130">
        <ele>105.4</ele>
        <time>2021-07-21T10:07:15Z</time>
      </trkpt>
      <trkpt lat="43.5596800" lon="-6.1748830">
        <ele>104.8</ele>
        <time>2021-07-21T10:07:16Z</time>
      </trkpt>
      <trkpt lat="43.5597180" lon="-6.1749560">
        <ele>104.2</ele>
        <time>2021-07-21T10:07:17Z</time>
      </trkpt>
      <trkpt lat="43.5597900" lon="-6.1751040">
        <ele>103.2</ele>
        <time>2021-07-21T10:07:19Z</time>
      </trkpt>
      <trkpt lat="43.5598290" lon="-6.1751810">
        <ele>102.8</ele>
        <time>2021-07-21T10:07:20Z</time>
      </trkpt>
      <trkpt lat="43.5598720" lon="-6.1752600">
        <ele>102.4</ele>
        <time>2021-07-21T10:07:21Z</time>
      </trkpt>
      <trkpt lat="43.5599160" lon="-6.1753420">
        <ele>101.8</ele>
        <time>2021-07-21T10:07:22Z</time>
      </trkpt>
      <trkpt lat="43.5600130" lon="-6.1755160">
        <ele>101.8</ele>
        <time>2021-07-21T10:07:24Z</time>
      </trkpt>
      <trkpt lat="43.5600610" lon="-6.1756060">
        <ele>101.4</ele>
        <time>2021-07-21T10:07:25Z</time>
      </trkpt>
      <trkpt lat="43.5601100" lon="-6.1756990">
        <ele>101.0</ele>
        <time>2021-07-21T10:07:26Z</time>
      </trkpt>
      <trkpt lat="43.5601590" lon="-6.1757910">
        <ele>100.6</ele>
        <time>2021-07-21T10:07:27Z</time>
      </trkpt>
      <trkpt lat="43.5602080" lon="-6.1758850">
        <ele>100.2</ele>
        <time>2021-07-21T10:07:28Z</time>
      </trkpt>
      <trkpt lat="43.5602570" lon="-6.1759810">
        <ele>99.6</ele>
        <time>2021-07-21T10:07:29Z</time>
      </trkpt>
      <trkpt lat="43.5605070" lon="-6.1764740">
        <ele>99.6</ele>
        <time>2021-07-21T10:07:34Z</time>
      </trkpt>
      <trkpt lat="43.5605550" lon="-6.1765690">
        <ele>99.2</ele>
        <time>2021-07-21T10:07:35Z</time>
      </trkpt>
      <trkpt lat="43.5606040" lon="-6.1766610">
        <ele>98.8</ele>
        <time>2021-07-21T10:07:36Z</time>
      </trkpt>
      <trkpt lat="43.5606530" lon="-6.1767390">
        <ele>98.4</ele>
        <time>2021-07-21T10:07:37Z</time>
      </trkpt>
      <trkpt lat="43.5607060" lon="-6.1768100">
        <ele>97.8</ele>
        <time>2021-07-21T10:07:38Z</time>
      </trkpt>
      <trkpt lat="43.5607580" lon="-6.1768740">
        <ele>97.4</ele>
        <time>2021-07-21T10:07:39Z</time>
      </trkpt>
      <trkpt lat="43.5608150" lon="-6.1769290">
        <ele>97.0</ele>
        <time>2021-07-21T10:07:40Z</time>
      </trkpt>
      <trkpt lat="43.5608650" lon="-6.1769720">
        <ele>96.4</ele>
        <time>2021-07-21T10:07:41Z</time>
      </trkpt>
      <trkpt lat="43.5609160" lon="-6.1770080">
        <ele>96.0</ele>
        <time>2021-07-21T10:07:42Z</time>
      </trkpt>
      <trkpt lat="43.5609660" lon="-6.1770420">
        <ele>95.4</ele>
        <time>2021-07-21T10:07:43Z</time>
      </trkpt>
      <trkpt lat="43.5610160" lon="-6.1770670">
        <ele>95.0</ele>
        <time>2021-07-21T10:07:44Z</time>
      </trkpt>
      <trkpt lat="43.5610670" lon="-6.1770920">
        <ele>95.0</ele>
        <time>2021-07-21T10:07:45Z</time>
      </trkpt>
      <trkpt lat="43.5611150" lon="-6.1771220">
        <ele>95.0</ele>
        <time>2021-07-21T10:07:46Z</time>
      </trkpt>
      <trkpt lat="43.5611640" lon="-6.1771460">
        <ele>94.6</ele>
        <time>2021-07-21T10:07:47Z</time>
      </trkpt>
      <trkpt lat="43.5612140" lon="-6.1771770">
        <ele>94.2</ele>
        <time>2021-07-21T10:07:48Z</time>
      </trkpt>
      <trkpt lat="43.5612520" lon="-6.1772090">
        <ele>93.8</ele>
        <time>2021-07-21T10:07:49Z</time>
      </trkpt>
      <trkpt lat="43.5612910" lon="-6.1772460">
        <ele>93.4</ele>
        <time>2021-07-21T10:07:50Z</time>
      </trkpt>
      <trkpt lat="43.5613300" lon="-6.1772800">
        <ele>93.0</ele>
        <time>2021-07-21T10:07:51Z</time>
      </trkpt>
      <trkpt lat="43.5614020" lon="-6.1773530">
        <ele>93.0</ele>
        <time>2021-07-21T10:07:53Z</time>
      </trkpt>
      <trkpt lat="43.5614940" lon="-6.1775050">
        <ele>93.0</ele>
        <time>2021-07-21T10:07:56Z</time>
      </trkpt>
      <trkpt lat="43.5615400" lon="-6.1776320">
        <ele>93.0</ele>
        <time>2021-07-21T10:07:58Z</time>
      </trkpt>
      <trkpt lat="43.5615520" lon="-6.1776980">
        <ele>93.0</ele>
        <time>2021-07-21T10:07:59Z</time>
      </trkpt>
      <trkpt lat="43.5615580" lon="-6.1777660">
        <ele>93.0</ele>
        <time>2021-07-21T10:08:00Z</time>
      </trkpt>
      <trkpt lat="43.5615550" lon="-6.1779030">
        <ele>93.0</ele>
        <time>2021-07-21T10:08:02Z</time>
      </trkpt>
      <trkpt lat="43.5615560" lon="-6.1781060">
        <ele>93.0</ele>
        <time>2021-07-21T10:08:05Z</time>
      </trkpt>
      <trkpt lat="43.5615570" lon="-6.1781690">
        <ele>93.0</ele>
        <time>2021-07-21T10:08:06Z</time>
      </trkpt>
      <trkpt lat="43.5615860" lon="-6.1784270">
        <ele>93.0</ele>
        <time>2021-07-21T10:08:10Z</time>
      </trkpt>
      <trkpt lat="43.5616200" lon="-6.1785490">
        <ele>93.0</ele>
        <time>2021-07-21T10:08:12Z</time>
      </trkpt>
      <trkpt lat="43.5616700" lon="-6.1786600">
        <ele>92.6</ele>
        <time>2021-07-21T10:08:14Z</time>
      </trkpt>
      <trkpt lat="43.5616980" lon="-6.1787120">
        <ele>92.2</ele>
        <time>2021-07-21T10:08:15Z</time>
      </trkpt>
      <trkpt lat="43.5617300" lon="-6.1787630">
        <ele>91.6</ele>
        <time>2021-07-21T10:08:16Z</time>
      </trkpt>
      <trkpt lat="43.5617660" lon="-6.1788110">
        <ele>91.2</ele>
        <time>2021-07-21T10:08:17Z</time>
      </trkpt>
      <trkpt lat="43.5618020" lon="-6.1788580">
        <ele>90.8</ele>
        <time>2021-07-21T10:08:18Z</time>
      </trkpt>
      <trkpt lat="43.5619210" lon="-6.1789780">
        <ele>90.8</ele>
        <time>2021-07-21T10:08:21Z</time>
      </trkpt>
      <trkpt lat="43.5620010" lon="-6.1790470">
        <ele>90.8</ele>
        <time>2021-07-21T10:08:23Z</time>
      </trkpt>
      <trkpt lat="43.5620620" lon="-6.1791040">
        <ele>90.8</ele>
        <time>2021-07-21T10:08:25Z</time>
      </trkpt>
      <trkpt lat="43.5621010" lon="-6.1791230">
        <ele>90.8</ele>
        <time>2021-07-21T10:08:27Z</time>
      </trkpt>
      <trkpt lat="43.5621280" lon="-6.1791460">
        <ele>90.4</ele>
        <time>2021-07-21T10:08:29Z</time>
      </trkpt>
      <trkpt lat="43.5621280" lon="-6.1791430">
        <ele>90.0</ele>
        <time>2021-07-21T10:08:30Z</time>
      </trkpt>
      <trkpt lat="43.5621300" lon="-6.1791520">
        <ele>88.8</ele>
        <time>2021-07-21T10:09:12Z</time>
      </trkpt>
      <trkpt lat="43.5621340" lon="-6.1791680">
        <ele>88.8</ele>
        <time>2021-07-21T10:09:13Z</time>
      </trkpt>
      <trkpt lat="43.5622150" lon="-6.1792760">
        <ele>88.8</ele>
        <time>2021-07-21T10:09:18Z</time>
      </trkpt>
      <trkpt lat="43.5623750" lon="-6.1794420">
        <ele>88.8</ele>
        <time>2021-07-21T10:09:23Z</time>
      </trkpt>
      <trkpt lat="43.5624090" lon="-6.1794810">
        <ele>88.8</ele>
        <time>2021-07-21T10:09:24Z</time>
      </trkpt>
      <trkpt lat="43.5626510" lon="-6.1797880">
        <ele>88.8</ele>
        <time>2021-07-21T10:09:31Z</time>
      </trkpt>
      <trkpt lat="43.5626830" lon="-6.1798450">
        <ele>88.8</ele>
        <time>2021-07-21T10:09:32Z</time>
      </trkpt>
      <trkpt lat="43.5628640" lon="-6.1802050">
        <ele>88.4</ele>
        <time>2021-07-21T10:09:37Z</time>
      </trkpt>
      <trkpt lat="43.5628970" lon="-6.1802830">
        <ele>88.0</ele>
        <time>2021-07-21T10:09:38Z</time>
      </trkpt>
      <trkpt lat="43.5629290" lon="-6.1803600">
        <ele>87.6</ele>
        <time>2021-07-21T10:09:39Z</time>
      </trkpt>
      <trkpt lat="43.5629590" lon="-6.1804310">
        <ele>87.2</ele>
        <time>2021-07-21T10:09:40Z</time>
      </trkpt>
      <trkpt lat="43.5629860" lon="-6.1804990">
        <ele>86.8</ele>
        <time>2021-07-21T10:09:41Z</time>
      </trkpt>
      <trkpt lat="43.5630100" lon="-6.1805710">
        <ele>86.4</ele>
        <time>2021-07-21T10:09:42Z</time>
      </trkpt>
      <trkpt lat="43.5630220" lon="-6.1806440">
        <ele>86.0</ele>
        <time>2021-07-21T10:09:43Z</time>
      </trkpt>
      <trkpt lat="43.5630190" lon="-6.1807240">
        <ele>85.6</ele>
        <time>2021-07-21T10:09:44Z</time>
      </trkpt>
      <trkpt lat="43.5630050" lon="-6.1807990">
        <ele>85.0</ele>
        <time>2021-07-21T10:09:45Z</time>
      </trkpt>
      <trkpt lat="43.5629860" lon="-6.1808740">
        <ele>84.6</ele>
        <time>2021-07-21T10:09:46Z</time>
      </trkpt>
      <trkpt lat="43.5629560" lon="-6.1809500">
        <ele>84.6</ele>
        <time>2021-07-21T10:09:47Z</time>
      </trkpt>
      <trkpt lat="43.5629170" lon="-6.1810200">
        <ele>84.2</ele>
        <time>2021-07-21T10:09:48Z</time>
      </trkpt>
      <trkpt lat="43.5628670" lon="-6.1810920">
        <ele>83.8</ele>
        <time>2021-07-21T10:09:49Z</time>
      </trkpt>
      <trkpt lat="43.5628190" lon="-6.1811570">
        <ele>83.4</ele>
        <time>2021-07-21T10:09:50Z</time>
      </trkpt>
      <trkpt lat="43.5627620" lon="-6.1812280">
        <ele>83.0</ele>
        <time>2021-07-21T10:09:51Z</time>
      </trkpt>
      <trkpt lat="43.5627020" lon="-6.1813030">
        <ele>82.6</ele>
        <time>2021-07-21T10:09:52Z</time>
      </trkpt>
      <trkpt lat="43.5625750" lon="-6.1814530">
        <ele>82.2</ele>
        <time>2021-07-21T10:09:54Z</time>
      </trkpt>
      <trkpt lat="43.5625120" lon="-6.1815290">
        <ele>81.6</ele>
        <time>2021-07-21T10:09:55Z</time>
      </trkpt>
      <trkpt lat="43.5624460" lon="-6.1816020">
        <ele>81.2</ele>
        <time>2021-07-21T10:09:56Z</time>
      </trkpt>
      <trkpt lat="43.5623810" lon="-6.1816810">
        <ele>80.8</ele>
        <time>2021-07-21T10:09:57Z</time>
      </trkpt>
      <trkpt lat="43.5623160" lon="-6.1817540">
        <ele>80.4</ele>
        <time>2021-07-21T10:09:58Z</time>
      </trkpt>
      <trkpt lat="43.5621870" lon="-6.1819150">
        <ele>80.0</ele>
        <time>2021-07-21T10:10:00Z</time>
      </trkpt>
      <trkpt lat="43.5621220" lon="-6.1820030">
        <ele>79.4</ele>
        <time>2021-07-21T10:10:01Z</time>
      </trkpt>
      <trkpt lat="43.5620560" lon="-6.1820920">
        <ele>79.0</ele>
        <time>2021-07-21T10:10:02Z</time>
      </trkpt>
      <trkpt lat="43.5619880" lon="-6.1821830">
        <ele>78.4</ele>
        <time>2021-07-21T10:10:03Z</time>
      </trkpt>
      <trkpt lat="43.5619210" lon="-6.1822660">
        <ele>78.0</ele>
        <time>2021-07-21T10:10:04Z</time>
      </trkpt>
      <trkpt lat="43.5618500" lon="-6.1823570">
        <ele>77.4</ele>
        <time>2021-07-21T10:10:05Z</time>
      </trkpt>
      <trkpt lat="43.5617800" lon="-6.1824420">
        <ele>76.8</ele>
        <time>2021-07-21T10:10:06Z</time>
      </trkpt>
      <trkpt lat="43.5617130" lon="-6.1825270">
        <ele>76.2</ele>
        <time>2021-07-21T10:10:07Z</time>
      </trkpt>
      <trkpt lat="43.5616470" lon="-6.1826120">
        <ele>75.8</ele>
        <time>2021-07-21T10:10:08Z</time>
      </trkpt>
      <trkpt lat="43.5615800" lon="-6.1826920">
        <ele>75.2</ele>
        <time>2021-07-21T10:10:09Z</time>
      </trkpt>
      <trkpt lat="43.5615110" lon="-6.1827710">
        <ele>74.6</ele>
        <time>2021-07-21T10:10:10Z</time>
      </trkpt>
      <trkpt lat="43.5614410" lon="-6.1828450">
        <ele>74.0</ele>
        <time>2021-07-21T10:10:11Z</time>
      </trkpt>
      <trkpt lat="43.5613680" lon="-6.1829230">
        <ele>73.0</ele>
        <time>2021-07-21T10:10:12Z</time>
      </trkpt>
      <trkpt lat="43.5612980" lon="-6.1829930">
        <ele>72.4</ele>
        <time>2021-07-21T10:10:13Z</time>
      </trkpt>
      <trkpt lat="43.5612300" lon="-6.1830600">
        <ele>71.8</ele>
        <time>2021-07-21T10:10:14Z</time>
      </trkpt>
      <trkpt lat="43.5611600" lon="-6.1831270">
        <ele>71.4</ele>
        <time>2021-07-21T10:10:15Z</time>
      </trkpt>
      <trkpt lat="43.5610870" lon="-6.1831890">
        <ele>70.8</ele>
        <time>2021-07-21T10:10:16Z</time>
      </trkpt>
      <trkpt lat="43.5610130" lon="-6.1832490">
        <ele>70.4</ele>
        <time>2021-07-21T10:10:17Z</time>
      </trkpt>
      <trkpt lat="43.5609390" lon="-6.1833100">
        <ele>69.8</ele>
        <time>2021-07-21T10:10:18Z</time>
      </trkpt>
      <trkpt lat="43.5608560" lon="-6.1833720">
        <ele>69.2</ele>
        <time>2021-07-21T10:10:19Z</time>
      </trkpt>
      <trkpt lat="43.5607730" lon="-6.1834270">
        <ele>68.8</ele>
        <time>2021-07-21T10:10:20Z</time>
      </trkpt>
      <trkpt lat="43.5606900" lon="-6.1834810">
        <ele>68.4</ele>
        <time>2021-07-21T10:10:21Z</time>
      </trkpt>
      <trkpt lat="43.5606080" lon="-6.1835310">
        <ele>68.0</ele>
        <time>2021-07-21T10:10:22Z</time>
      </trkpt>
      <trkpt lat="43.5605260" lon="-6.1835720">
        <ele>67.4</ele>
        <time>2021-07-21T10:10:23Z</time>
      </trkpt>
      <trkpt lat="43.5604440" lon="-6.1836130">
        <ele>67.0</ele>
        <time>2021-07-21T10:10:24Z</time>
      </trkpt>
      <trkpt lat="43.5603620" lon="-6.1836570">
        <ele>66.6</ele>
        <time>2021-07-21T10:10:25Z</time>
      </trkpt>
      <trkpt lat="43.5602800" lon="-6.1836980">
        <ele>66.0</ele>
        <time>2021-07-21T10:10:26Z</time>
      </trkpt>
      <trkpt lat="43.5601940" lon="-6.1837400">
        <ele>65.6</ele>
        <time>2021-07-21T10:10:27Z</time>
      </trkpt>
      <trkpt lat="43.5601110" lon="-6.1837800">
        <ele>65.2</ele>
        <time>2021-07-21T10:10:28Z</time>
      </trkpt>
      <trkpt lat="43.5600260" lon="-6.1838260">
        <ele>64.6</ele>
        <time>2021-07-21T10:10:29Z</time>
      </trkpt>
      <trkpt lat="43.5599420" lon="-6.1838770">
        <ele>64.0</ele>
        <time>2021-07-21T10:10:30Z</time>
      </trkpt>
      <trkpt lat="43.5598580" lon="-6.1839320">
        <ele>63.6</ele>
        <time>2021-07-21T10:10:31Z</time>
      </trkpt>
      <trkpt lat="43.5597730" lon="-6.1839930">
        <ele>63.0</ele>
        <time>2021-07-21T10:10:32Z</time>
      </trkpt>
      <trkpt lat="43.5596890" lon="-6.1840620">
        <ele>62.4</ele>
        <time>2021-07-21T10:10:33Z</time>
      </trkpt>
      <trkpt lat="43.5596070" lon="-6.1841400">
        <ele>62.0</ele>
        <time>2021-07-21T10:10:34Z</time>
      </trkpt>
      <trkpt lat="43.5595280" lon="-6.1842300">
        <ele>61.4</ele>
        <time>2021-07-21T10:10:35Z</time>
      </trkpt>
      <trkpt lat="43.5594560" lon="-6.1843250">
        <ele>61.0</ele>
        <time>2021-07-21T10:10:36Z</time>
      </trkpt>
      <trkpt lat="43.5593850" lon="-6.1844180">
        <ele>60.0</ele>
        <time>2021-07-21T10:10:37Z</time>
      </trkpt>
      <trkpt lat="43.5593130" lon="-6.1845120">
        <ele>59.4</ele>
        <time>2021-07-21T10:10:38Z</time>
      </trkpt>
      <trkpt lat="43.5592410" lon="-6.1845990">
        <ele>58.8</ele>
        <time>2021-07-21T10:10:39Z</time>
      </trkpt>
      <trkpt lat="43.5591680" lon="-6.1846850">
        <ele>58.0</ele>
        <time>2021-07-21T10:10:40Z</time>
      </trkpt>
      <trkpt lat="43.5590880" lon="-6.1847750">
        <ele>57.4</ele>
        <time>2021-07-21T10:10:41Z</time>
      </trkpt>
      <trkpt lat="43.5590120" lon="-6.1848650">
        <ele>56.6</ele>
        <time>2021-07-21T10:10:42Z</time>
      </trkpt>
      <trkpt lat="43.5589360" lon="-6.1849550">
        <ele>55.8</ele>
        <time>2021-07-21T10:10:43Z</time>
      </trkpt>
      <trkpt lat="43.5588640" lon="-6.1850440">
        <ele>55.0</ele>
        <time>2021-07-21T10:10:44Z</time>
      </trkpt>
      <trkpt lat="43.5587930" lon="-6.1851350">
        <ele>54.2</ele>
        <time>2021-07-21T10:10:45Z</time>
      </trkpt>
      <trkpt lat="43.5587250" lon="-6.1852140">
        <ele>53.2</ele>
        <time>2021-07-21T10:10:46Z</time>
      </trkpt>
      <trkpt lat="43.5586710" lon="-6.1852780">
        <ele>52.2</ele>
        <time>2021-07-21T10:10:47Z</time>
      </trkpt>
      <trkpt lat="43.5586330" lon="-6.1853250">
        <ele>51.2</ele>
        <time>2021-07-21T10:10:48Z</time>
      </trkpt>
      <trkpt lat="43.5586070" lon="-6.1853660">
        <ele>50.0</ele>
        <time>2021-07-21T10:10:49Z</time>
      </trkpt>
      <trkpt lat="43.5585830" lon="-6.1854080">
        <ele>49.0</ele>
        <time>2021-07-21T10:10:50Z</time>
      </trkpt>
      <trkpt lat="43.5585630" lon="-6.1854410">
        <ele>47.8</ele>
        <time>2021-07-21T10:10:51Z</time>
      </trkpt>
      <trkpt lat="43.5585360" lon="-6.1854730">
        <ele>46.6</ele>
        <time>2021-07-21T10:10:52Z</time>
      </trkpt>
      <trkpt lat="43.5585000" lon="-6.1855060">
        <ele>46.0</ele>
        <time>2021-07-21T10:10:53Z</time>
      </trkpt>
      <trkpt lat="43.5584580" lon="-6.1855470">
        <ele>45.2</ele>
        <time>2021-07-21T10:10:54Z</time>
      </trkpt>
      <trkpt lat="43.5584140" lon="-6.1855960">
        <ele>44.6</ele>
        <time>2021-07-21T10:10:55Z</time>
      </trkpt>
      <trkpt lat="43.5583680" lon="-6.1856570">
        <ele>43.8</ele>
        <time>2021-07-21T10:10:56Z</time>
      </trkpt>
      <trkpt lat="43.5583180" lon="-6.1857190">
        <ele>43.2</ele>
        <time>2021-07-21T10:10:57Z</time>
      </trkpt>
      <trkpt lat="43.5581540" lon="-6.1859240">
        <ele>42.8</ele>
        <time>2021-07-21T10:11:00Z</time>
      </trkpt>
      <trkpt lat="43.5580970" lon="-6.1859940">
        <ele>41.8</ele>
        <time>2021-07-21T10:11:01Z</time>
      </trkpt>
      <trkpt lat="43.5580400" lon="-6.1860650">
        <ele>41.4</ele>
        <time>2021-07-21T10:11:02Z</time>
      </trkpt>
      <trkpt lat="43.5579830" lon="-6.1861400">
        <ele>40.8</ele>
        <time>2021-07-21T10:11:03Z</time>
      </trkpt>
      <trkpt lat="43.5579250" lon="-6.1862160">
        <ele>40.4</ele>
        <time>2021-07-21T10:11:04Z</time>
      </trkpt>
      <trkpt lat="43.5578670" lon="-6.1862930">
        <ele>39.8</ele>
        <time>2021-07-21T10:11:05Z</time>
      </trkpt>
      <trkpt lat="43.5578110" lon="-6.1863670">
        <ele>39.4</ele>
        <time>2021-07-21T10:11:06Z</time>
      </trkpt>
      <trkpt lat="43.5577560" lon="-6.1864420">
        <ele>38.8</ele>
        <time>2021-07-21T10:11:07Z</time>
      </trkpt>
      <trkpt lat="43.5577010" lon="-6.1865160">
        <ele>38.2</ele>
        <time>2021-07-21T10:11:08Z</time>
      </trkpt>
      <trkpt lat="43.5576500" lon="-6.1865890">
        <ele>37.6</ele>
        <time>2021-07-21T10:11:09Z</time>
      </trkpt>
      <trkpt lat="43.5575990" lon="-6.1866590">
        <ele>37.0</ele>
        <time>2021-07-21T10:11:10Z</time>
      </trkpt>
      <trkpt lat="43.5575510" lon="-6.1867280">
        <ele>36.4</ele>
        <time>2021-07-21T10:11:11Z</time>
      </trkpt>
      <trkpt lat="43.5575050" lon="-6.1867990">
        <ele>35.8</ele>
        <time>2021-07-21T10:11:12Z</time>
      </trkpt>
      <trkpt lat="43.5574580" lon="-6.1868690">
        <ele>35.0</ele>
        <time>2021-07-21T10:11:13Z</time>
      </trkpt>
      <trkpt lat="43.5574120" lon="-6.1869370">
        <ele>34.4</ele>
        <time>2021-07-21T10:11:14Z</time>
      </trkpt>
      <trkpt lat="43.5573640" lon="-6.1870050">
        <ele>33.8</ele>
        <time>2021-07-21T10:11:15Z</time>
      </trkpt>
      <trkpt lat="43.5573170" lon="-6.1870770">
        <ele>33.0</ele>
        <time>2021-07-21T10:11:16Z</time>
      </trkpt>
      <trkpt lat="43.5572710" lon="-6.1871440">
        <ele>32.6</ele>
        <time>2021-07-21T10:11:17Z</time>
      </trkpt>
      <trkpt lat="43.5572250" lon="-6.1872140">
        <ele>32.0</ele>
        <time>2021-07-21T10:11:18Z</time>
      </trkpt>
      <trkpt lat="43.5571800" lon="-6.1872840">
        <ele>31.4</ele>
        <time>2021-07-21T10:11:19Z</time>
      </trkpt>
      <trkpt lat="43.5571370" lon="-6.1873480">
        <ele>31.0</ele>
        <time>2021-07-21T10:11:20Z</time>
      </trkpt>
      <trkpt lat="43.5570910" lon="-6.1874070">
        <ele>30.4</ele>
        <time>2021-07-21T10:11:21Z</time>
      </trkpt>
      <trkpt lat="43.5570480" lon="-6.1874700">
        <ele>30.0</ele>
        <time>2021-07-21T10:11:22Z</time>
      </trkpt>
      <trkpt lat="43.5570010" lon="-6.1875340">
        <ele>29.4</ele>
        <time>2021-07-21T10:11:23Z</time>
      </trkpt>
      <trkpt lat="43.5569550" lon="-6.1876010">
        <ele>29.0</ele>
        <time>2021-07-21T10:11:24Z</time>
      </trkpt>
      <trkpt lat="43.5569110" lon="-6.1876630">
        <ele>28.4</ele>
        <time>2021-07-21T10:11:25Z</time>
      </trkpt>
      <trkpt lat="43.5568670" lon="-6.1877220">
        <ele>27.6</ele>
        <time>2021-07-21T10:11:26Z</time>
      </trkpt>
      <trkpt lat="43.5568190" lon="-6.1877820">
        <ele>27.0</ele>
        <time>2021-07-21T10:11:27Z</time>
      </trkpt>
      <trkpt lat="43.5567700" lon="-6.1878430">
        <ele>26.6</ele>
        <time>2021-07-21T10:11:28Z</time>
      </trkpt>
      <trkpt lat="43.5567230" lon="-6.1879000">
        <ele>26.2</ele>
        <time>2021-07-21T10:11:29Z</time>
      </trkpt>
      <trkpt lat="43.5566670" lon="-6.1879540">
        <ele>25.6</ele>
        <time>2021-07-21T10:11:30Z</time>
      </trkpt>
      <trkpt lat="43.5566150" lon="-6.1880050">
        <ele>25.2</ele>
        <time>2021-07-21T10:11:31Z</time>
      </trkpt>
      <trkpt lat="43.5565640" lon="-6.1880550">
        <ele>24.8</ele>
        <time>2021-07-21T10:11:32Z</time>
      </trkpt>
      <trkpt lat="43.5565120" lon="-6.1880990">
        <ele>24.2</ele>
        <time>2021-07-21T10:11:33Z</time>
      </trkpt>
      <trkpt lat="43.5564580" lon="-6.1881420">
        <ele>23.8</ele>
        <time>2021-07-21T10:11:34Z</time>
      </trkpt>
      <trkpt lat="43.5564020" lon="-6.1881840">
        <ele>23.2</ele>
        <time>2021-07-21T10:11:35Z</time>
      </trkpt>
      <trkpt lat="43.5563330" lon="-6.1882050">
        <ele>22.8</ele>
        <time>2021-07-21T10:11:36Z</time>
      </trkpt>
      <trkpt lat="43.5562520" lon="-6.1882170">
        <ele>22.2</ele>
        <time>2021-07-21T10:11:37Z</time>
      </trkpt>
      <trkpt lat="43.5561750" lon="-6.1882260">
        <ele>21.6</ele>
        <time>2021-07-21T10:11:38Z</time>
      </trkpt>
      <trkpt lat="43.5561050" lon="-6.1882330">
        <ele>21.2</ele>
        <time>2021-07-21T10:11:39Z</time>
      </trkpt>
      <trkpt lat="43.5560390" lon="-6.1882350">
        <ele>20.6</ele>
        <time>2021-07-21T10:11:40Z</time>
      </trkpt>
      <trkpt lat="43.5559760" lon="-6.1882410">
        <ele>20.2</ele>
        <time>2021-07-21T10:11:41Z</time>
      </trkpt>
      <trkpt lat="43.5559120" lon="-6.1882630">
        <ele>19.6</ele>
        <time>2021-07-21T10:11:42Z</time>
      </trkpt>
      <trkpt lat="43.5558470" lon="-6.1882890">
        <ele>19.0</ele>
        <time>2021-07-21T10:11:43Z</time>
      </trkpt>
      <trkpt lat="43.5557990" lon="-6.1883220">
        <ele>18.6</ele>
        <time>2021-07-21T10:11:44Z</time>
      </trkpt>
      <trkpt lat="43.5557480" lon="-6.1883660">
        <ele>18.0</ele>
        <time>2021-07-21T10:11:45Z</time>
      </trkpt>
      <trkpt lat="43.5556990" lon="-6.1884230">
        <ele>17.4</ele>
        <time>2021-07-21T10:11:46Z</time>
      </trkpt>
      <trkpt lat="43.5556550" lon="-6.1884850">
        <ele>16.8</ele>
        <time>2021-07-21T10:11:47Z</time>
      </trkpt>
      <trkpt lat="43.5556170" lon="-6.1885470">
        <ele>16.4</ele>
        <time>2021-07-21T10:11:48Z</time>
      </trkpt>
      <trkpt lat="43.5555830" lon="-6.1886090">
        <ele>16.0</ele>
        <time>2021-07-21T10:11:49Z</time>
      </trkpt>
      <trkpt lat="43.5555490" lon="-6.1886620">
        <ele>15.4</ele>
        <time>2021-07-21T10:11:50Z</time>
      </trkpt>
      <trkpt lat="43.5555170" lon="-6.1887200">
        <ele>14.6</ele>
        <time>2021-07-21T10:11:51Z</time>
      </trkpt>
      <trkpt lat="43.5554870" lon="-6.1887790">
        <ele>14.6</ele>
        <time>2021-07-21T10:11:52Z</time>
      </trkpt>
      <trkpt lat="43.5554520" lon="-6.1888390">
        <ele>14.2</ele>
        <time>2021-07-21T10:11:53Z</time>
      </trkpt>
      <trkpt lat="43.5554180" lon="-6.1889030">
        <ele>13.8</ele>
        <time>2021-07-21T10:11:54Z</time>
      </trkpt>
      <trkpt lat="43.5553790" lon="-6.1889650">
        <ele>13.2</ele>
        <time>2021-07-21T10:11:55Z</time>
      </trkpt>
      <trkpt lat="43.5553430" lon="-6.1890300">
        <ele>12.8</ele>
        <time>2021-07-21T10:11:56Z</time>
      </trkpt>
      <trkpt lat="43.5552970" lon="-6.1890950">
        <ele>12.4</ele>
        <time>2021-07-21T10:11:57Z</time>
      </trkpt>
      <trkpt lat="43.5551330" lon="-6.1892920">
        <ele>12.0</ele>
        <time>2021-07-21T10:12:00Z</time>
      </trkpt>
      <trkpt lat="43.5550720" lon="-6.1893640">
        <ele>11.6</ele>
        <time>2021-07-21T10:12:01Z</time>
      </trkpt>
      <trkpt lat="43.5550080" lon="-6.1894360">
        <ele>11.2</ele>
        <time>2021-07-21T10:12:02Z</time>
      </trkpt>
      <trkpt lat="43.5549370" lon="-6.1895120">
        <ele>10.8</ele>
        <time>2021-07-21T10:12:03Z</time>
      </trkpt>
      <trkpt lat="43.5548690" lon="-6.1895850">
        <ele>10.4</ele>
        <time>2021-07-21T10:12:04Z</time>
      </trkpt>
      <trkpt lat="43.5548010" lon="-6.1896620">
        <ele>10.0</ele>
        <time>2021-07-21T10:12:05Z</time>
      </trkpt>
      <trkpt lat="43.5547340" lon="-6.1897360">
        <ele>9.4</ele>
        <time>2021-07-21T10:12:06Z</time>
      </trkpt>
      <trkpt lat="43.5546760" lon="-6.1898110">
        <ele>9.0</ele>
        <time>2021-07-21T10:12:07Z</time>
      </trkpt>
      <trkpt lat="43.5546180" lon="-6.1898880">
        <ele>8.6</ele>
        <time>2021-07-21T10:12:08Z</time>
      </trkpt>
      <trkpt lat="43.5545490" lon="-6.1899690">
        <ele>8.0</ele>
        <time>2021-07-21T10:12:09Z</time>
      </trkpt>
      <trkpt lat="43.5544890" lon="-6.1900550">
        <ele>7.6</ele>
        <time>2021-07-21T10:12:10Z</time>
      </trkpt>
      <trkpt lat="43.5544250" lon="-6.1901280">
        <ele>7.0</ele>
        <time>2021-07-21T10:12:11Z</time>
      </trkpt>
      <trkpt lat="43.5543580" lon="-6.1901960">
        <ele>6.4</ele>
        <time>2021-07-21T10:12:12Z</time>
      </trkpt>
      <trkpt lat="43.5542930" lon="-6.1902730">
        <ele>6.0</ele>
        <time>2021-07-21T10:12:13Z</time>
      </trkpt>
      <trkpt lat="43.5542370" lon="-6.1903500">
        <ele>5.4</ele>
        <time>2021-07-21T10:12:14Z</time>
      </trkpt>
      <trkpt lat="43.5541780" lon="-6.1904420">
        <ele>4.2</ele>
        <time>2021-07-21T10:12:15Z</time>
      </trkpt>
      <trkpt lat="43.5541080" lon="-6.1905180">
        <ele>3.8</ele>
        <time>2021-07-21T10:12:16Z</time>
      </trkpt>
      <trkpt lat="43.5540370" lon="-6.1905980">
        <ele>3.2</ele>
        <time>2021-07-21T10:12:17Z</time>
      </trkpt>
      <trkpt lat="43.5539620" lon="-6.1906620">
        <ele>2.8</ele>
        <time>2021-07-21T10:12:18Z</time>
      </trkpt>
      <trkpt lat="43.5538840" lon="-6.1907230">
        <ele>2.2</ele>
        <time>2021-07-21T10:12:19Z</time>
      </trkpt>
      <trkpt lat="43.5538030" lon="-6.1907730">
        <ele>1.6</ele>
        <time>2021-07-21T10:12:20Z</time>
      </trkpt>
      <trkpt lat="43.5537210" lon="-6.1908240">
        <ele>1.0</ele>
        <time>2021-07-21T10:12:21Z</time>
      </trkpt>
      <trkpt lat="43.5536360" lon="-6.1908750">
        <ele>0.4</ele>
        <time>2021-07-21T10:12:22Z</time>
      </trkpt>
      <trkpt lat="43.5535500" lon="-6.1909260">
        <ele>-0.2</ele>
        <time>2021-07-21T10:12:23Z</time>
      </trkpt>
      <trkpt lat="43.5534640" lon="-6.1909800">
        <ele>-0.8</ele>
        <time>2021-07-21T10:12:24Z</time>
      </trkpt>
      <trkpt lat="43.5533870" lon="-6.1910230">
        <ele>-1.4</ele>
        <time>2021-07-21T10:12:25Z</time>
      </trkpt>
      <trkpt lat="43.5533120" lon="-6.1910600">
        <ele>-2.0</ele>
        <time>2021-07-21T10:12:26Z</time>
      </trkpt>
      <trkpt lat="43.5532390" lon="-6.1911060">
        <ele>-2.8</ele>
        <time>2021-07-21T10:12:27Z</time>
      </trkpt>
      <trkpt lat="43.5531680" lon="-6.1911430">
        <ele>-3.4</ele>
        <time>2021-07-21T10:12:28Z</time>
      </trkpt>
      <trkpt lat="43.5530940" lon="-6.1911860">
        <ele>-4.2</ele>
        <time>2021-07-21T10:12:29Z</time>
      </trkpt>
      <trkpt lat="43.5530270" lon="-6.1912290">
        <ele>-4.8</ele>
        <time>2021-07-21T10:12:30Z</time>
      </trkpt>
      <trkpt lat="43.5529620" lon="-6.1912740">
        <ele>-5.4</ele>
        <time>2021-07-21T10:12:31Z</time>
      </trkpt>
      <trkpt lat="43.5529040" lon="-6.1913190">
        <ele>-6.2</ele>
        <time>2021-07-21T10:12:32Z</time>
      </trkpt>
      <trkpt lat="43.5528480" lon="-6.1913670">
        <ele>-6.8</ele>
        <time>2021-07-21T10:12:33Z</time>
      </trkpt>
      <trkpt lat="43.5527990" lon="-6.1914160">
        <ele>-7.4</ele>
        <time>2021-07-21T10:12:34Z</time>
      </trkpt>
      <trkpt lat="43.5527610" lon="-6.1914710">
        <ele>-8.0</ele>
        <time>2021-07-21T10:12:35Z</time>
      </trkpt>
      <trkpt lat="43.5527310" lon="-6.1915390">
        <ele>-8.6</ele>
        <time>2021-07-21T10:12:36Z</time>
      </trkpt>
      <trkpt lat="43.5527130" lon="-6.1916020">
        <ele>-9.2</ele>
        <time>2021-07-21T10:12:37Z</time>
      </trkpt>
      <trkpt lat="43.5526990" lon="-6.1916730">
        <ele>-9.8</ele>
        <time>2021-07-21T10:12:38Z</time>
      </trkpt>
      <trkpt lat="43.5527020" lon="-6.1917430">
        <ele>-10.4</ele>
        <time>2021-07-21T10:12:39Z</time>
      </trkpt>
      <trkpt lat="43.5527220" lon="-6.1918870">
        <ele>-10.4</ele>
        <time>2021-07-21T10:12:41Z</time>
      </trkpt>
      <trkpt lat="43.5527340" lon="-6.1920340">
        <ele>-10.4</ele>
        <time>2021-07-21T10:12:43Z</time>
      </trkpt>
      <trkpt lat="43.5527560" lon="-6.1921770">
        <ele>-10.4</ele>
        <time>2021-07-21T10:12:45Z</time>
      </trkpt>
      <trkpt lat="43.5527790" lon="-6.1923200">
        <ele>-10.4</ele>
        <time>2021-07-21T10:12:47Z</time>
      </trkpt>
      <trkpt lat="43.5527850" lon="-6.1923870">
        <ele>-10.4</ele>
        <time>2021-07-21T10:12:48Z</time>
      </trkpt>
      <trkpt lat="43.5528020" lon="-6.1925230">
        <ele>-10.4</ele>
        <time>2021-07-21T10:12:50Z</time>
      </trkpt>
      <trkpt lat="43.5528120" lon="-6.1925920">
        <ele>-10.8</ele>
        <time>2021-07-21T10:12:51Z</time>
      </trkpt>
      <trkpt lat="43.5528220" lon="-6.1926610">
        <ele>-11.2</ele>
        <time>2021-07-21T10:12:52Z</time>
      </trkpt>
      <trkpt lat="43.5528290" lon="-6.1927340">
        <ele>-11.6</ele>
        <time>2021-07-21T10:12:53Z</time>
      </trkpt>
      <trkpt lat="43.5528370" lon="-6.1928050">
        <ele>-12.0</ele>
        <time>2021-07-21T10:12:54Z</time>
      </trkpt>
      <trkpt lat="43.5528480" lon="-6.1928720">
        <ele>-12.4</ele>
        <time>2021-07-21T10:12:55Z</time>
      </trkpt>
      <trkpt lat="43.5528700" lon="-6.1929950">
        <ele>-12.4</ele>
        <time>2021-07-21T10:12:57Z</time>
      </trkpt>
      <trkpt lat="43.5529090" lon="-6.1933630">
        <ele>-12.4</ele>
        <time>2021-07-21T10:13:04Z</time>
      </trkpt>
      <trkpt lat="43.5529200" lon="-6.1934400">
        <ele>-12.4</ele>
        <time>2021-07-21T10:13:08Z</time>
      </trkpt>
      <trkpt lat="43.5529200" lon="-6.1934360">
        <ele>-12.4</ele>
        <time>2021-07-21T10:13:09Z</time>
      </trkpt>
      <trkpt lat="43.5528950" lon="-6.1934190">
        <ele>-12.4</ele>
        <time>2021-07-21T10:13:16Z</time>
      </trkpt>
      <trkpt lat="43.5528750" lon="-6.1933750">
        <ele>-12.4</ele>
        <time>2021-07-21T10:13:18Z</time>
      </trkpt>
      <trkpt lat="43.5528610" lon="-6.1933020">
        <ele>-12.4</ele>
        <time>2021-07-21T10:13:21Z</time>
      </trkpt>
      <trkpt lat="43.5528570" lon="-6.1931950">
        <ele>-12.4</ele>
        <time>2021-07-21T10:13:26Z</time>
      </trkpt>
      <trkpt lat="43.5528770" lon="-6.1932130">
        <ele>-12.4</ele>
        <time>2021-07-21T10:13:28Z</time>
      </trkpt>
      <trkpt lat="43.5528910" lon="-6.1932430">
        <ele>-12.4</ele>
        <time>2021-07-21T10:13:30Z</time>
      </trkpt>
      <trkpt lat="43.5528920" lon="-6.1932520">
        <ele>-12.4</ele>
        <time>2021-07-21T10:13:32Z</time>
      </trkpt>
      <trkpt lat="43.5528970" lon="-6.1932840">
        <ele>-12.4</ele>
        <time>2021-07-21T10:14:18Z</time>
      </trkpt>
      <trkpt lat="43.5528970" lon="-6.1933130">
        <ele>-12.4</ele>
        <time>2021-07-21T10:14:19Z</time>
      </trkpt>
      <trkpt lat="43.5529320" lon="-6.1935670">
        <ele>-12.4</ele>
        <time>2021-07-21T10:14:25Z</time>
      </trkpt>
      <trkpt lat="43.5529500" lon="-6.1937610">
        <ele>-12.4</ele>
        <time>2021-07-21T10:14:28Z</time>
      </trkpt>
      <trkpt lat="43.5529740" lon="-6.1939740">
        <ele>-12.4</ele>
        <time>2021-07-21T10:14:31Z</time>
      </trkpt>
      <trkpt lat="43.5530030" lon="-6.1941870">
        <ele>-12.4</ele>
        <time>2021-07-21T10:14:34Z</time>
      </trkpt>
      <trkpt lat="43.5530440" lon="-6.1945600">
        <ele>-12.4</ele>
        <time>2021-07-21T10:14:39Z</time>
      </trkpt>
      <trkpt lat="43.5530920" lon="-6.1949320">
        <ele>-12.4</ele>
        <time>2021-07-21T10:14:44Z</time>
      </trkpt>
      <trkpt lat="43.5531350" lon="-6.1952340">
        <ele>-12.4</ele>
        <time>2021-07-21T10:14:48Z</time>
      </trkpt>
      <trkpt lat="43.5531460" lon="-6.1953030">
        <ele>-12.4</ele>
        <time>2021-07-21T10:14:49Z</time>
      </trkpt>
      <trkpt lat="43.5532440" lon="-6.1960290">
        <ele>-12.4</ele>
        <time>2021-07-21T10:14:59Z</time>
      </trkpt>
      <trkpt lat="43.5533320" lon="-6.1966830">
        <ele>-12.4</ele>
        <time>2021-07-21T10:15:08Z</time>
      </trkpt>
      <trkpt lat="43.5533400" lon="-6.1967620">
        <ele>-12.4</ele>
        <time>2021-07-21T10:15:09Z</time>
      </trkpt>
      <trkpt lat="43.5533650" lon="-6.1971770">
        <ele>-12.4</ele>
        <time>2021-07-21T10:15:15Z</time>
      </trkpt>
      <trkpt lat="43.5532980" lon="-6.1975840">
        <ele>-12.4</ele>
        <time>2021-07-21T10:15:22Z</time>
      </trkpt>
      <trkpt lat="43.5532840" lon="-6.1976350">
        <ele>-12.0</ele>
        <time>2021-07-21T10:15:23Z</time>
      </trkpt>
      <trkpt lat="43.5532650" lon="-6.1976830">
        <ele>-11.6</ele>
        <time>2021-07-21T10:15:24Z</time>
      </trkpt>
      <trkpt lat="43.5532460" lon="-6.1977300">
        <ele>-11.2</ele>
        <time>2021-07-21T10:15:25Z</time>
      </trkpt>
      <trkpt lat="43.5532270" lon="-6.1977760">
        <ele>-10.8</ele>
        <time>2021-07-21T10:15:26Z</time>
      </trkpt>
      <trkpt lat="43.5532120" lon="-6.1978210">
        <ele>-10.4</ele>
        <time>2021-07-21T10:15:27Z</time>
      </trkpt>
      <trkpt lat="43.5531710" lon="-6.1979060">
        <ele>-10.4</ele>
        <time>2021-07-21T10:15:29Z</time>
      </trkpt>
      <trkpt lat="43.5530600" lon="-6.1981290">
        <ele>-9.8</ele>
        <time>2021-07-21T10:15:34Z</time>
      </trkpt>
      <trkpt lat="43.5530410" lon="-6.1981740">
        <ele>-9.4</ele>
        <time>2021-07-21T10:15:35Z</time>
      </trkpt>
      <trkpt lat="43.5530210" lon="-6.1982160">
        <ele>-9.0</ele>
        <time>2021-07-21T10:15:36Z</time>
      </trkpt>
      <trkpt lat="43.5530020" lon="-6.1982630">
        <ele>-8.6</ele>
        <time>2021-07-21T10:15:37Z</time>
      </trkpt>
      <trkpt lat="43.5529840" lon="-6.1983050">
        <ele>-8.2</ele>
        <time>2021-07-21T10:15:38Z</time>
      </trkpt>
      <trkpt lat="43.5528760" lon="-6.1985100">
        <ele>-8.2</ele>
        <time>2021-07-21T10:15:43Z</time>
      </trkpt>
      <trkpt lat="43.5528550" lon="-6.1985530">
        <ele>-7.8</ele>
        <time>2021-07-21T10:15:44Z</time>
      </trkpt>
      <trkpt lat="43.5528370" lon="-6.1985970">
        <ele>-7.2</ele>
        <time>2021-07-21T10:15:45Z</time>
      </trkpt>
      <trkpt lat="43.5528210" lon="-6.1986400">
        <ele>-6.8</ele>
        <time>2021-07-21T10:15:46Z</time>
      </trkpt>
      <trkpt lat="43.5528070" lon="-6.1986860">
        <ele>-6.4</ele>
        <time>2021-07-21T10:15:47Z</time>
      </trkpt>
      <trkpt lat="43.5527910" lon="-6.1987270">
        <ele>-6.0</ele>
        <time>2021-07-21T10:15:48Z</time>
      </trkpt>
      <trkpt lat="43.5527430" lon="-6.1988990">
        <ele>-6.0</ele>
        <time>2021-07-21T10:15:52Z</time>
      </trkpt>
      <trkpt lat="43.5527040" lon="-6.1990730">
        <ele>-5.6</ele>
        <time>2021-07-21T10:15:56Z</time>
      </trkpt>
      <trkpt lat="43.5526960" lon="-6.1991180">
        <ele>-5.2</ele>
        <time>2021-07-21T10:15:57Z</time>
      </trkpt>
      <trkpt lat="43.5526910" lon="-6.1991590">
        <ele>-4.2</ele>
        <time>2021-07-21T10:15:58Z</time>
      </trkpt>
      <trkpt lat="43.5526820" lon="-6.1992030">
        <ele>-3.8</ele>
        <time>2021-07-21T10:15:59Z</time>
      </trkpt>
      <trkpt lat="43.5526730" lon="-6.1992470">
        <ele>-3.8</ele>
        <time>2021-07-21T10:16:00Z</time>
      </trkpt>
      <trkpt lat="43.5526080" lon="-6.1995340">
        <ele>-3.4</ele>
        <time>2021-07-21T10:16:07Z</time>
      </trkpt>
      <trkpt lat="43.5525980" lon="-6.1995740">
        <ele>-3.0</ele>
        <time>2021-07-21T10:16:08Z</time>
      </trkpt>
      <trkpt lat="43.5525920" lon="-6.1996140">
        <ele>-2.6</ele>
        <time>2021-07-21T10:16:09Z</time>
      </trkpt>
      <trkpt lat="43.5525870" lon="-6.1996510">
        <ele>-2.2</ele>
        <time>2021-07-21T10:16:10Z</time>
      </trkpt>
      <trkpt lat="43.5525820" lon="-6.1996880">
        <ele>-1.8</ele>
        <time>2021-07-21T10:16:11Z</time>
      </trkpt>
      <trkpt lat="43.5525470" lon="-6.1998770">
        <ele>-1.8</ele>
        <time>2021-07-21T10:16:16Z</time>
      </trkpt>
      <trkpt lat="43.5525330" lon="-6.2000670">
        <ele>-1.4</ele>
        <time>2021-07-21T10:16:21Z</time>
      </trkpt>
      <trkpt lat="43.5525300" lon="-6.2001050">
        <ele>-0.6</ele>
        <time>2021-07-21T10:16:22Z</time>
      </trkpt>
      <trkpt lat="43.5525270" lon="-6.2001440">
        <ele>-0.2</ele>
        <time>2021-07-21T10:16:23Z</time>
      </trkpt>
      <trkpt lat="43.5525240" lon="-6.2001850">
        <ele>0.2</ele>
        <time>2021-07-21T10:16:24Z</time>
      </trkpt>
      <trkpt lat="43.5525180" lon="-6.2002220">
        <ele>0.2</ele>
        <time>2021-07-21T10:16:25Z</time>
      </trkpt>
      <trkpt lat="43.5525140" lon="-6.2005250">
        <ele>0.2</ele>
        <time>2021-07-21T10:16:33Z</time>
      </trkpt>
      <trkpt lat="43.5525150" lon="-6.2005600">
        <ele>0.6</ele>
        <time>2021-07-21T10:16:34Z</time>
      </trkpt>
      <trkpt lat="43.5525160" lon="-6.2005930">
        <ele>1.0</ele>
        <time>2021-07-21T10:16:35Z</time>
      </trkpt>
      <trkpt lat="43.5525190" lon="-6.2006290">
        <ele>1.4</ele>
        <time>2021-07-21T10:16:36Z</time>
      </trkpt>
      <trkpt lat="43.5525210" lon="-6.2006650">
        <ele>1.8</ele>
        <time>2021-07-21T10:16:37Z</time>
      </trkpt>
      <trkpt lat="43.5525250" lon="-6.2007040">
        <ele>2.2</ele>
        <time>2021-07-21T10:16:38Z</time>
      </trkpt>
      <trkpt lat="43.5525260" lon="-6.2007380">
        <ele>2.2</ele>
        <time>2021-07-21T10:16:39Z</time>
      </trkpt>
      <trkpt lat="43.5525400" lon="-6.2009110">
        <ele>2.2</ele>
        <time>2021-07-21T10:16:44Z</time>
      </trkpt>
      <trkpt lat="43.5525450" lon="-6.2010140">
        <ele>3.2</ele>
        <time>2021-07-21T10:16:47Z</time>
      </trkpt>
      <trkpt lat="43.5525480" lon="-6.2010480">
        <ele>3.6</ele>
        <time>2021-07-21T10:16:48Z</time>
      </trkpt>
      <trkpt lat="43.5525480" lon="-6.2010840">
        <ele>4.0</ele>
        <time>2021-07-21T10:16:49Z</time>
      </trkpt>
      <trkpt lat="43.5525490" lon="-6.2011200">
        <ele>4.4</ele>
        <time>2021-07-21T10:16:50Z</time>
      </trkpt>
      <trkpt lat="43.5525600" lon="-6.2012320">
        <ele>4.4</ele>
        <time>2021-07-21T10:16:53Z</time>
      </trkpt>
      <trkpt lat="43.5526020" lon="-6.2014810">
        <ele>4.8</ele>
        <time>2021-07-21T10:17:00Z</time>
      </trkpt>
      <trkpt lat="43.5526120" lon="-6.2015170">
        <ele>5.2</ele>
        <time>2021-07-21T10:17:01Z</time>
      </trkpt>
      <trkpt lat="43.5526250" lon="-6.2015500">
        <ele>5.6</ele>
        <time>2021-07-21T10:17:02Z</time>
      </trkpt>
      <trkpt lat="43.5526400" lon="-6.2015790">
        <ele>6.0</ele>
        <time>2021-07-21T10:17:03Z</time>
      </trkpt>
      <trkpt lat="43.5526560" lon="-6.2016100">
        <ele>6.4</ele>
        <time>2021-07-21T10:17:04Z</time>
      </trkpt>
      <trkpt lat="43.5528240" lon="-6.2018290">
        <ele>6.4</ele>
        <time>2021-07-21T10:17:12Z</time>
      </trkpt>
      <trkpt lat="43.5529300" lon="-6.2019490">
        <ele>6.8</ele>
        <time>2021-07-21T10:17:16Z</time>
      </trkpt>
      <trkpt lat="43.5529550" lon="-6.2019820">
        <ele>7.2</ele>
        <time>2021-07-21T10:17:17Z</time>
      </trkpt>
      <trkpt lat="43.5529800" lon="-6.2020140">
        <ele>7.6</ele>
        <time>2021-07-21T10:17:18Z</time>
      </trkpt>
      <trkpt lat="43.5530070" lon="-6.2020460">
        <ele>8.0</ele>
        <time>2021-07-21T10:17:19Z</time>
      </trkpt>
      <trkpt lat="43.5530310" lon="-6.2020770">
        <ele>8.6</ele>
        <time>2021-07-21T10:17:20Z</time>
      </trkpt>
      <trkpt lat="43.5531490" lon="-6.2023170">
        <ele>8.6</ele>
        <time>2021-07-21T10:17:26Z</time>
      </trkpt>
      <trkpt lat="43.5531630" lon="-6.2026160">
        <ele>8.6</ele>
        <time>2021-07-21T10:17:32Z</time>
      </trkpt>
      <trkpt lat="43.5531020" lon="-6.2027590">
        <ele>8.6</ele>
        <time>2021-07-21T10:17:35Z</time>
      </trkpt>
      <trkpt lat="43.5530150" lon="-6.2028970">
        <ele>8.6</ele>
        <time>2021-07-21T10:17:38Z</time>
      </trkpt>
      <trkpt lat="43.5528010" lon="-6.2032300">
        <ele>8.6</ele>
        <time>2021-07-21T10:17:46Z</time>
      </trkpt>
      <trkpt lat="43.5526470" lon="-6.2034580">
        <ele>9.0</ele>
        <time>2021-07-21T10:17:52Z</time>
      </trkpt>
      <trkpt lat="43.5526230" lon="-6.2034930">
        <ele>9.4</ele>
        <time>2021-07-21T10:17:53Z</time>
      </trkpt>
      <trkpt lat="43.5525920" lon="-6.2035210">
        <ele>9.8</ele>
        <time>2021-07-21T10:17:54Z</time>
      </trkpt>
      <trkpt lat="43.5525640" lon="-6.2035500">
        <ele>10.2</ele>
        <time>2021-07-21T10:17:55Z</time>
      </trkpt>
      <trkpt lat="43.5525340" lon="-6.2035770">
        <ele>10.6</ele>
        <time>2021-07-21T10:17:56Z</time>
      </trkpt>
      <trkpt lat="43.5523200" lon="-6.2037310">
        <ele>10.6</ele>
        <time>2021-07-21T10:18:03Z</time>
      </trkpt>
      <trkpt lat="43.5520990" lon="-6.2038400">
        <ele>10.6</ele>
        <time>2021-07-21T10:18:10Z</time>
      </trkpt>
      <trkpt lat="43.5520130" lon="-6.2038920">
        <ele>11.0</ele>
        <time>2021-07-21T10:18:13Z</time>
      </trkpt>
      <trkpt lat="43.5519880" lon="-6.2039100">
        <ele>11.4</ele>
        <time>2021-07-21T10:18:14Z</time>
      </trkpt>
      <trkpt lat="43.5519620" lon="-6.2039300">
        <ele>11.8</ele>
        <time>2021-07-21T10:18:15Z</time>
      </trkpt>
      <trkpt lat="43.5519350" lon="-6.2039530">
        <ele>12.2</ele>
        <time>2021-07-21T10:18:16Z</time>
      </trkpt>
      <trkpt lat="43.5519060" lon="-6.2039760">
        <ele>12.6</ele>
        <time>2021-07-21T10:18:17Z</time>
      </trkpt>
      <trkpt lat="43.5518790" lon="-6.2040000">
        <ele>12.6</ele>
        <time>2021-07-21T10:18:18Z</time>
      </trkpt>
      <trkpt lat="43.5517210" lon="-6.2042290">
        <ele>12.6</ele>
        <time>2021-07-21T10:18:26Z</time>
      </trkpt>
      <trkpt lat="43.5516690" lon="-6.2043290">
        <ele>13.0</ele>
        <time>2021-07-21T10:18:29Z</time>
      </trkpt>
      <trkpt lat="43.5516550" lon="-6.2043620">
        <ele>13.6</ele>
        <time>2021-07-21T10:18:30Z</time>
      </trkpt>
      <trkpt lat="43.5516390" lon="-6.2043940">
        <ele>14.0</ele>
        <time>2021-07-21T10:18:31Z</time>
      </trkpt>
      <trkpt lat="43.5516220" lon="-6.2044270">
        <ele>14.4</ele>
        <time>2021-07-21T10:18:32Z</time>
      </trkpt>
      <trkpt lat="43.5516060" lon="-6.2044610">
        <ele>14.8</ele>
        <time>2021-07-21T10:18:33Z</time>
      </trkpt>
      <trkpt lat="43.5515550" lon="-6.2045530">
        <ele>14.8</ele>
        <time>2021-07-21T10:18:36Z</time>
      </trkpt>
      <trkpt lat="43.5514440" lon="-6.2047820">
        <ele>14.8</ele>
        <time>2021-07-21T10:18:43Z</time>
      </trkpt>
      <trkpt lat="43.5513980" lon="-6.2048810">
        <ele>15.2</ele>
        <time>2021-07-21T10:18:46Z</time>
      </trkpt>
      <trkpt lat="43.5513800" lon="-6.2049150">
        <ele>15.6</ele>
        <time>2021-07-21T10:18:47Z</time>
      </trkpt>
      <trkpt lat="43.5513630" lon="-6.2049500">
        <ele>16.0</ele>
        <time>2021-07-21T10:18:48Z</time>
      </trkpt>
      <trkpt lat="43.5513460" lon="-6.2049840">
        <ele>16.4</ele>
        <time>2021-07-21T10:18:49Z</time>
      </trkpt>
      <trkpt lat="43.5513290" lon="-6.2050170">
        <ele>16.8</ele>
        <time>2021-07-21T10:18:50Z</time>
      </trkpt>
      <trkpt lat="43.5513130" lon="-6.2050490">
        <ele>16.8</ele>
        <time>2021-07-21T10:18:51Z</time>
      </trkpt>
      <trkpt lat="43.5511760" lon="-6.2053130">
        <ele>16.8</ele>
        <time>2021-07-21T10:19:00Z</time>
      </trkpt>
      <trkpt lat="43.5511270" lon="-6.2053990">
        <ele>17.2</ele>
        <time>2021-07-21T10:19:03Z</time>
      </trkpt>
      <trkpt lat="43.5511130" lon="-6.2054300">
        <ele>17.6</ele>
        <time>2021-07-21T10:19:04Z</time>
      </trkpt>
      <trkpt lat="43.5511000" lon="-6.2054620">
        <ele>18.0</ele>
        <time>2021-07-21T10:19:05Z</time>
      </trkpt>
      <trkpt lat="43.5510880" lon="-6.2054930">
        <ele>18.4</ele>
        <time>2021-07-21T10:19:06Z</time>
      </trkpt>
      <trkpt lat="43.5510740" lon="-6.2055240">
        <ele>18.8</ele>
        <time>2021-07-21T10:19:07Z</time>
      </trkpt>
      <trkpt lat="43.5510450" lon="-6.2055850">
        <ele>18.8</ele>
        <time>2021-07-21T10:19:09Z</time>
      </trkpt>
      <trkpt lat="43.5509230" lon="-6.2058340">
        <ele>18.8</ele>
        <time>2021-07-21T10:19:17Z</time>
      </trkpt>
      <trkpt lat="43.5508930" lon="-6.2058960">
        <ele>19.2</ele>
        <time>2021-07-21T10:19:19Z</time>
      </trkpt>
      <trkpt lat="43.5508740" lon="-6.2059270">
        <ele>19.6</ele>
        <time>2021-07-21T10:19:20Z</time>
      </trkpt>
      <trkpt lat="43.5508550" lon="-6.2059580">
        <ele>20.0</ele>
        <time>2021-07-21T10:19:21Z</time>
      </trkpt>
      <trkpt lat="43.5508380" lon="-6.2059910">
        <ele>20.4</ele>
        <time>2021-07-21T10:19:22Z</time>
      </trkpt>
      <trkpt lat="43.5508230" lon="-6.2060230">
        <ele>20.8</ele>
        <time>2021-07-21T10:19:23Z</time>
      </trkpt>
      <trkpt lat="43.5507890" lon="-6.2060890">
        <ele>20.8</ele>
        <time>2021-07-21T10:19:25Z</time>
      </trkpt>
      <trkpt lat="43.5506560" lon="-6.2063540">
        <ele>20.8</ele>
        <time>2021-07-21T10:19:33Z</time>
      </trkpt>
      <trkpt lat="43.5506190" lon="-6.2064140">
        <ele>21.2</ele>
        <time>2021-07-21T10:19:35Z</time>
      </trkpt>
      <trkpt lat="43.5506020" lon="-6.2064460">
        <ele>21.6</ele>
        <time>2021-07-21T10:19:36Z</time>
      </trkpt>
      <trkpt lat="43.5505880" lon="-6.2064800">
        <ele>22.0</ele>
        <time>2021-07-21T10:19:37Z</time>
      </trkpt>
      <trkpt lat="43.5505780" lon="-6.2065150">
        <ele>22.4</ele>
        <time>2021-07-21T10:19:38Z</time>
      </trkpt>
      <trkpt lat="43.5505670" lon="-6.2065500">
        <ele>22.8</ele>
        <time>2021-07-21T10:19:39Z</time>
      </trkpt>
      <trkpt lat="43.5505500" lon="-6.2066280">
        <ele>22.8</ele>
        <time>2021-07-21T10:19:41Z</time>
      </trkpt>
      <trkpt lat="43.5505560" lon="-6.2069100">
        <ele>22.8</ele>
        <time>2021-07-21T10:19:48Z</time>
      </trkpt>
      <trkpt lat="43.5505640" lon="-6.2069500">
        <ele>23.2</ele>
        <time>2021-07-21T10:19:49Z</time>
      </trkpt>
      <trkpt lat="43.5505710" lon="-6.2069890">
        <ele>23.6</ele>
        <time>2021-07-21T10:19:50Z</time>
      </trkpt>
      <trkpt lat="43.5505790" lon="-6.2070260">
        <ele>24.0</ele>
        <time>2021-07-21T10:19:51Z</time>
      </trkpt>
      <trkpt lat="43.5505860" lon="-6.2070640">
        <ele>24.4</ele>
        <time>2021-07-21T10:19:52Z</time>
      </trkpt>
      <trkpt lat="43.5505940" lon="-6.2071020">
        <ele>24.8</ele>
        <time>2021-07-21T10:19:53Z</time>
      </trkpt>
      <trkpt lat="43.5506210" lon="-6.2072660">
        <ele>24.8</ele>
        <time>2021-07-21T10:19:57Z</time>
      </trkpt>
      <trkpt lat="43.5506670" lon="-6.2076090">
        <ele>24.8</ele>
        <time>2021-07-21T10:20:05Z</time>
      </trkpt>
      <trkpt lat="43.5506760" lon="-6.2076880">
        <ele>25.2</ele>
        <time>2021-07-21T10:20:07Z</time>
      </trkpt>
      <trkpt lat="43.5506790" lon="-6.2077240">
        <ele>25.8</ele>
        <time>2021-07-21T10:20:08Z</time>
      </trkpt>
      <trkpt lat="43.5506830" lon="-6.2077630">
        <ele>26.2</ele>
        <time>2021-07-21T10:20:09Z</time>
      </trkpt>
      <trkpt lat="43.5506860" lon="-6.2078010">
        <ele>26.6</ele>
        <time>2021-07-21T10:20:10Z</time>
      </trkpt>
      <trkpt lat="43.5506890" lon="-6.2078380">
        <ele>27.0</ele>
        <time>2021-07-21T10:20:11Z</time>
      </trkpt>
      <trkpt lat="43.5506970" lon="-6.2079140">
        <ele>27.0</ele>
        <time>2021-07-21T10:20:13Z</time>
      </trkpt>
      <trkpt lat="43.5506990" lon="-6.2082620">
        <ele>27.4</ele>
        <time>2021-07-21T10:20:22Z</time>
      </trkpt>
      <trkpt lat="43.5506950" lon="-6.2083000">
        <ele>27.8</ele>
        <time>2021-07-21T10:20:23Z</time>
      </trkpt>
      <trkpt lat="43.5506910" lon="-6.2083400">
        <ele>28.2</ele>
        <time>2021-07-21T10:20:24Z</time>
      </trkpt>
      <trkpt lat="43.5506850" lon="-6.2083760">
        <ele>28.6</ele>
        <time>2021-07-21T10:20:25Z</time>
      </trkpt>
      <trkpt lat="43.5506810" lon="-6.2084130">
        <ele>29.2</ele>
        <time>2021-07-21T10:20:26Z</time>
      </trkpt>
      <trkpt lat="43.5506550" lon="-6.2085590">
        <ele>29.2</ele>
        <time>2021-07-21T10:20:30Z</time>
      </trkpt>
      <trkpt lat="43.5506150" lon="-6.2087300">
        <ele>29.2</ele>
        <time>2021-07-21T10:20:36Z</time>
      </trkpt>
      <trkpt lat="43.5505970" lon="-6.2087370">
        <ele>29.2</ele>
        <time>2021-07-21T10:20:37Z</time>
      </trkpt>
      <trkpt lat="43.5505360" lon="-6.2087410">
        <ele>29.2</ele>
        <time>2021-07-21T10:20:42Z</time>
      </trkpt>
      <trkpt lat="43.5505660" lon="-6.2087920">
        <ele>29.2</ele>
        <time>2021-07-21T10:21:36Z</time>
      </trkpt>
      <trkpt lat="43.5505740" lon="-6.2088100">
        <ele>29.2</ele>
        <time>2021-07-21T10:21:37Z</time>
      </trkpt>
      <trkpt lat="43.5505870" lon="-6.2088540">
        <ele>29.2</ele>
        <time>2021-07-21T10:21:39Z</time>
      </trkpt>
      <trkpt lat="43.5505790" lon="-6.2089170">
        <ele>29.6</ele>
        <time>2021-07-21T10:21:41Z</time>
      </trkpt>
      <trkpt lat="43.5505710" lon="-6.2089510">
        <ele>30.0</ele>
        <time>2021-07-21T10:21:42Z</time>
      </trkpt>
      <trkpt lat="43.5505640" lon="-6.2089860">
        <ele>30.4</ele>
        <time>2021-07-21T10:21:43Z</time>
      </trkpt>
      <trkpt lat="43.5505550" lon="-6.2090220">
        <ele>31.2</ele>
        <time>2021-07-21T10:21:44Z</time>
      </trkpt>
      <trkpt lat="43.5505370" lon="-6.2091380">
        <ele>31.2</ele>
        <time>2021-07-21T10:21:47Z</time>
      </trkpt>
      <trkpt lat="43.5505200" lon="-6.2092900">
        <ele>31.2</ele>
        <time>2021-07-21T10:21:51Z</time>
      </trkpt>
      <trkpt lat="43.5505130" lon="-6.2093670">
        <ele>31.2</ele>
        <time>2021-07-21T10:21:53Z</time>
      </trkpt>
      <trkpt lat="43.5505230" lon="-6.2096460">
        <ele>31.6</ele>
        <time>2021-07-21T10:22:00Z</time>
      </trkpt>
      <trkpt lat="43.5505280" lon="-6.2096830">
        <ele>32.0</ele>
        <time>2021-07-21T10:22:01Z</time>
      </trkpt>
      <trkpt lat="43.5505330" lon="-6.2097220">
        <ele>32.4</ele>
        <time>2021-07-21T10:22:02Z</time>
      </trkpt>
      <trkpt lat="43.5505370" lon="-6.2097590">
        <ele>32.8</ele>
        <time>2021-07-21T10:22:03Z</time>
      </trkpt>
      <trkpt lat="43.5505410" lon="-6.2097950">
        <ele>33.2</ele>
        <time>2021-07-21T10:22:04Z</time>
      </trkpt>
      <trkpt lat="43.5505820" lon="-6.2100680">
        <ele>33.2</ele>
        <time>2021-07-21T10:22:11Z</time>
      </trkpt>
      <trkpt lat="43.5505860" lon="-6.2101790">
        <ele>33.6</ele>
        <time>2021-07-21T10:22:14Z</time>
      </trkpt>
      <trkpt lat="43.5505860" lon="-6.2102150">
        <ele>34.0</ele>
        <time>2021-07-21T10:22:15Z</time>
      </trkpt>
      <trkpt lat="43.5505880" lon="-6.2102520">
        <ele>34.4</ele>
        <time>2021-07-21T10:22:16Z</time>
      </trkpt>
      <trkpt lat="43.5505900" lon="-6.2102900">
        <ele>34.8</ele>
        <time>2021-07-21T10:22:17Z</time>
      </trkpt>
      <trkpt lat="43.5505910" lon="-6.2103300">
        <ele>35.2</ele>
        <time>2021-07-21T10:22:18Z</time>
      </trkpt>
      <trkpt lat="43.5505910" lon="-6.2104120">
        <ele>35.2</ele>
        <time>2021-07-21T10:22:20Z</time>
      </trkpt>
      <trkpt lat="43.5505790" lon="-6.2108020">
        <ele>35.2</ele>
        <time>2021-07-21T10:22:30Z</time>
      </trkpt>
      <trkpt lat="43.5505770" lon="-6.2108830">
        <ele>35.6</ele>
        <time>2021-07-21T10:22:32Z</time>
      </trkpt>
      <trkpt lat="43.5505770" lon="-6.2109250">
        <ele>36.0</ele>
        <time>2021-07-21T10:22:33Z</time>
      </trkpt>
      <trkpt lat="43.5505800" lon="-6.2109640">
        <ele>37.0</ele>
        <time>2021-07-21T10:22:34Z</time>
      </trkpt>
      <trkpt lat="43.5505830" lon="-6.2110010">
        <ele>37.4</ele>
        <time>2021-07-21T10:22:35Z</time>
      </trkpt>
      <trkpt lat="43.5505850" lon="-6.2110390">
        <ele>37.4</ele>
        <time>2021-07-21T10:22:36Z</time>
      </trkpt>
      <trkpt lat="43.5506460" lon="-6.2112640">
        <ele>37.4</ele>
        <time>2021-07-21T10:22:42Z</time>
      </trkpt>
      <trkpt lat="43.5507320" lon="-6.2114760">
        <ele>37.8</ele>
        <time>2021-07-21T10:22:48Z</time>
      </trkpt>
      <trkpt lat="43.5507480" lon="-6.2115090">
        <ele>38.2</ele>
        <time>2021-07-21T10:22:49Z</time>
      </trkpt>
      <trkpt lat="43.5507640" lon="-6.2115390">
        <ele>38.6</ele>
        <time>2021-07-21T10:22:50Z</time>
      </trkpt>
      <trkpt lat="43.5507790" lon="-6.2115700">
        <ele>39.0</ele>
        <time>2021-07-21T10:22:51Z</time>
      </trkpt>
      <trkpt lat="43.5507930" lon="-6.2116020">
        <ele>39.6</ele>
        <time>2021-07-21T10:22:52Z</time>
      </trkpt>
      <trkpt lat="43.5508720" lon="-6.2117950">
        <ele>39.6</ele>
        <time>2021-07-21T10:22:58Z</time>
      </trkpt>
      <trkpt lat="43.5509260" lon="-6.2120350">
        <ele>40.0</ele>
        <time>2021-07-21T10:23:05Z</time>
      </trkpt>
      <trkpt lat="43.5509260" lon="-6.2120730">
        <ele>40.4</ele>
        <time>2021-07-21T10:23:06Z</time>
      </trkpt>
      <trkpt lat="43.5509280" lon="-6.2121110">
        <ele>40.8</ele>
        <time>2021-07-21T10:23:07Z</time>
      </trkpt>
      <trkpt lat="43.5509310" lon="-6.2121490">
        <ele>41.2</ele>
        <time>2021-07-21T10:23:08Z</time>
      </trkpt>
      <trkpt lat="43.5509320" lon="-6.2121870">
        <ele>41.8</ele>
        <time>2021-07-21T10:23:09Z</time>
      </trkpt>
      <trkpt lat="43.5509370" lon="-6.2123630">
        <ele>41.8</ele>
        <time>2021-07-21T10:23:14Z</time>
      </trkpt>
      <trkpt lat="43.5509340" lon="-6.2126720">
        <ele>41.8</ele>
        <time>2021-07-21T10:23:22Z</time>
      </trkpt>
      <trkpt lat="43.5509290" lon="-6.2128330">
        <ele>42.2</ele>
        <time>2021-07-21T10:23:26Z</time>
      </trkpt>
      <trkpt lat="43.5509270" lon="-6.2128760">
        <ele>42.6</ele>
        <time>2021-07-21T10:23:27Z</time>
      </trkpt>
      <trkpt lat="43.5509220" lon="-6.2129180">
        <ele>43.0</ele>
        <time>2021-07-21T10:23:28Z</time>
      </trkpt>
      <trkpt lat="43.5509180" lon="-6.2129600">
        <ele>43.4</ele>
        <time>2021-07-21T10:23:29Z</time>
      </trkpt>
      <trkpt lat="43.5509150" lon="-6.2130040">
        <ele>43.8</ele>
        <time>2021-07-21T10:23:30Z</time>
      </trkpt>
      <trkpt lat="43.5509030" lon="-6.2133520">
        <ele>43.8</ele>
        <time>2021-07-21T10:23:38Z</time>
      </trkpt>
      <trkpt lat="43.5508100" lon="-6.2135830">
        <ele>43.8</ele>
        <time>2021-07-21T10:23:44Z</time>
      </trkpt>
      <trkpt lat="43.5506850" lon="-6.2136440">
        <ele>43.8</ele>
        <time>2021-07-21T10:23:48Z</time>
      </trkpt>
      <trkpt lat="43.5506500" lon="-6.2136510">
        <ele>43.8</ele>
        <time>2021-07-21T10:23:49Z</time>
      </trkpt>
      <trkpt lat="43.5505070" lon="-6.2135810">
        <ele>43.8</ele>
        <time>2021-07-21T10:23:54Z</time>
      </trkpt>
      <trkpt lat="43.5504640" lon="-6.2135060">
        <ele>44.2</ele>
        <time>2021-07-21T10:23:56Z</time>
      </trkpt>
      <trkpt lat="43.5504440" lon="-6.2134660">
        <ele>44.6</ele>
        <time>2021-07-21T10:23:57Z</time>
      </trkpt>
      <trkpt lat="43.5504230" lon="-6.2134260">
        <ele>45.0</ele>
        <time>2021-07-21T10:23:58Z</time>
      </trkpt>
      <trkpt lat="43.5504050" lon="-6.2133850">
        <ele>45.6</ele>
        <time>2021-07-21T10:23:59Z</time>
      </trkpt>
      <trkpt lat="43.5503880" lon="-6.2133430">
        <ele>46.0</ele>
        <time>2021-07-21T10:24:00Z</time>
      </trkpt>
      <trkpt lat="43.5502860" lon="-6.2130790">
        <ele>46.0</ele>
        <time>2021-07-21T10:24:06Z</time>
      </trkpt>
      <trkpt lat="43.5501220" lon="-6.2129130">
        <ele>46.0</ele>
        <time>2021-07-21T10:24:12Z</time>
      </trkpt>
      <trkpt lat="43.5499110" lon="-6.2127660">
        <ele>46.0</ele>
        <time>2021-07-21T10:24:19Z</time>
      </trkpt>
      <trkpt lat="43.5497020" lon="-6.2126320">
        <ele>46.0</ele>
        <time>2021-07-21T10:24:26Z</time>
      </trkpt>
      <trkpt lat="43.5494560" lon="-6.2125870">
        <ele>46.0</ele>
        <time>2021-07-21T10:24:33Z</time>
      </trkpt>
      <trkpt lat="43.5493070" lon="-6.2126790">
        <ele>46.4</ele>
        <time>2021-07-21T10:24:38Z</time>
      </trkpt>
      <trkpt lat="43.5492810" lon="-6.2127050">
        <ele>46.8</ele>
        <time>2021-07-21T10:24:39Z</time>
      </trkpt>
      <trkpt lat="43.5492550" lon="-6.2127330">
        <ele>47.2</ele>
        <time>2021-07-21T10:24:40Z</time>
      </trkpt>
      <trkpt lat="43.5492270" lon="-6.2127610">
        <ele>47.6</ele>
        <time>2021-07-21T10:24:41Z</time>
      </trkpt>
      <trkpt lat="43.5492000" lon="-6.2127890">
        <ele>48.0</ele>
        <time>2021-07-21T10:24:42Z</time>
      </trkpt>
      <trkpt lat="43.5490690" lon="-6.2129690">
        <ele>48.0</ele>
        <time>2021-07-21T10:24:48Z</time>
      </trkpt>
      <trkpt lat="43.5489680" lon="-6.2132290">
        <ele>48.0</ele>
        <time>2021-07-21T10:24:55Z</time>
      </trkpt>
      <trkpt lat="43.5489600" lon="-6.2132670">
        <ele>48.4</ele>
        <time>2021-07-21T10:24:56Z</time>
      </trkpt>
      <trkpt lat="43.5489550" lon="-6.2133050">
        <ele>48.8</ele>
        <time>2021-07-21T10:24:57Z</time>
      </trkpt>
      <trkpt lat="43.5489500" lon="-6.2133450">
        <ele>49.2</ele>
        <time>2021-07-21T10:24:58Z</time>
      </trkpt>
      <trkpt lat="43.5489430" lon="-6.2133830">
        <ele>49.6</ele>
        <time>2021-07-21T10:24:59Z</time>
      </trkpt>
      <trkpt lat="43.5489350" lon="-6.2134210">
        <ele>50.0</ele>
        <time>2021-07-21T10:25:00Z</time>
      </trkpt>
      <trkpt lat="43.5489260" lon="-6.2134580">
        <ele>50.0</ele>
        <time>2021-07-21T10:25:01Z</time>
      </trkpt>
      <trkpt lat="43.5488740" lon="-6.2137510">
        <ele>50.0</ele>
        <time>2021-07-21T10:25:09Z</time>
      </trkpt>
      <trkpt lat="43.5488220" lon="-6.2140110">
        <ele>50.4</ele>
        <time>2021-07-21T10:25:16Z</time>
      </trkpt>
      <trkpt lat="43.5488170" lon="-6.2140500">
        <ele>50.8</ele>
        <time>2021-07-21T10:25:17Z</time>
      </trkpt>
      <trkpt lat="43.5488130" lon="-6.2140880">
        <ele>51.2</ele>
        <time>2021-07-21T10:25:18Z</time>
      </trkpt>
      <trkpt lat="43.5488060" lon="-6.2141240">
        <ele>51.6</ele>
        <time>2021-07-21T10:25:19Z</time>
      </trkpt>
      <trkpt lat="43.5487980" lon="-6.2141590">
        <ele>52.0</ele>
        <time>2021-07-21T10:25:20Z</time>
      </trkpt>
      <trkpt lat="43.5487680" lon="-6.2143350">
        <ele>52.0</ele>
        <time>2021-07-21T10:25:25Z</time>
      </trkpt>
      <trkpt lat="43.5487010" lon="-6.2146230">
        <ele>52.0</ele>
        <time>2021-07-21T10:25:33Z</time>
      </trkpt>
      <trkpt lat="43.5486670" lon="-6.2147150">
        <ele>52.4</ele>
        <time>2021-07-21T10:25:36Z</time>
      </trkpt>
      <trkpt lat="43.5486550" lon="-6.2147450">
        <ele>53.0</ele>
        <time>2021-07-21T10:25:37Z</time>
      </trkpt>
      <trkpt lat="43.5486410" lon="-6.2147760">
        <ele>53.4</ele>
        <time>2021-07-21T10:25:38Z</time>
      </trkpt>
      <trkpt lat="43.5486240" lon="-6.2148070">
        <ele>53.8</ele>
        <time>2021-07-21T10:25:39Z</time>
      </trkpt>
      <trkpt lat="43.5486070" lon="-6.2148390">
        <ele>54.2</ele>
        <time>2021-07-21T10:25:40Z</time>
      </trkpt>
      <trkpt lat="43.5484540" lon="-6.2150660">
        <ele>54.2</ele>
        <time>2021-07-21T10:25:48Z</time>
      </trkpt>
      <trkpt lat="43.5483390" lon="-6.2152320">
        <ele>54.6</ele>
        <time>2021-07-21T10:25:54Z</time>
      </trkpt>
      <trkpt lat="43.5483200" lon="-6.2152630">
        <ele>55.0</ele>
        <time>2021-07-21T10:25:55Z</time>
      </trkpt>
      <trkpt lat="43.5483000" lon="-6.2152920">
        <ele>55.4</ele>
        <time>2021-07-21T10:25:56Z</time>
      </trkpt>
      <trkpt lat="43.5482780" lon="-6.2153190">
        <ele>55.8</ele>
        <time>2021-07-21T10:25:57Z</time>
      </trkpt>
      <trkpt lat="43.5482560" lon="-6.2153500">
        <ele>56.2</ele>
        <time>2021-07-21T10:25:58Z</time>
      </trkpt>
      <trkpt lat="43.5481070" lon="-6.2155720">
        <ele>56.2</ele>
        <time>2021-07-21T10:26:05Z</time>
      </trkpt>
      <trkpt lat="43.5479310" lon="-6.2158090">
        <ele>56.2</ele>
        <time>2021-07-21T10:26:13Z</time>
      </trkpt>
      <trkpt lat="43.5478200" lon="-6.2159650">
        <ele>56.6</ele>
        <time>2021-07-21T10:26:18Z</time>
      </trkpt>
      <trkpt lat="43.5477980" lon="-6.2159910">
        <ele>57.0</ele>
        <time>2021-07-21T10:26:19Z</time>
      </trkpt>
      <trkpt lat="43.5477790" lon="-6.2160170">
        <ele>57.4</ele>
        <time>2021-07-21T10:26:20Z</time>
      </trkpt>
      <trkpt lat="43.5477600" lon="-6.2160460">
        <ele>57.8</ele>
        <time>2021-07-21T10:26:21Z</time>
      </trkpt>
      <trkpt lat="43.5477410" lon="-6.2160760">
        <ele>58.2</ele>
        <time>2021-07-21T10:26:22Z</time>
      </trkpt>
      <trkpt lat="43.5477220" lon="-6.2161040">
        <ele>58.2</ele>
        <time>2021-07-21T10:26:23Z</time>
      </trkpt>
      <trkpt lat="43.5475740" lon="-6.2163310">
        <ele>58.2</ele>
        <time>2021-07-21T10:26:31Z</time>
      </trkpt>
      <trkpt lat="43.5474940" lon="-6.2165370">
        <ele>58.6</ele>
        <time>2021-07-21T10:26:36Z</time>
      </trkpt>
      <trkpt lat="43.5474770" lon="-6.2165750">
        <ele>59.0</ele>
        <time>2021-07-21T10:26:37Z</time>
      </trkpt>
      <trkpt lat="43.5474620" lon="-6.2166180">
        <ele>59.4</ele>
        <time>2021-07-21T10:26:38Z</time>
      </trkpt>
      <trkpt lat="43.5474490" lon="-6.2166610">
        <ele>59.8</ele>
        <time>2021-07-21T10:26:39Z</time>
      </trkpt>
      <trkpt lat="43.5474320" lon="-6.2167000">
        <ele>60.2</ele>
        <time>2021-07-21T10:26:40Z</time>
      </trkpt>
      <trkpt lat="43.5473470" lon="-6.2169170">
        <ele>60.2</ele>
        <time>2021-07-21T10:26:46Z</time>
      </trkpt>
      <trkpt lat="43.5472520" lon="-6.2171460">
        <ele>60.6</ele>
        <time>2021-07-21T10:26:52Z</time>
      </trkpt>
      <trkpt lat="43.5472380" lon="-6.2171830">
        <ele>61.0</ele>
        <time>2021-07-21T10:26:53Z</time>
      </trkpt>
      <trkpt lat="43.5472230" lon="-6.2172200">
        <ele>61.4</ele>
        <time>2021-07-21T10:26:54Z</time>
      </trkpt>
      <trkpt lat="43.5472080" lon="-6.2172570">
        <ele>61.8</ele>
        <time>2021-07-21T10:26:55Z</time>
      </trkpt>
      <trkpt lat="43.5471920" lon="-6.2172920">
        <ele>62.2</ele>
        <time>2021-07-21T10:26:56Z</time>
      </trkpt>
      <trkpt lat="43.5471110" lon="-6.2175000">
        <ele>62.2</ele>
        <time>2021-07-21T10:27:02Z</time>
      </trkpt>
      <trkpt lat="43.5470030" lon="-6.2177510">
        <ele>62.2</ele>
        <time>2021-07-21T10:27:08Z</time>
      </trkpt>
      <trkpt lat="43.5469370" lon="-6.2179090">
        <ele>62.2</ele>
        <time>2021-07-21T10:27:11Z</time>
      </trkpt>
      <trkpt lat="43.5468890" lon="-6.2180360">
        <ele>62.2</ele>
        <time>2021-07-21T10:27:13Z</time>
      </trkpt>
      <trkpt lat="43.5467870" lon="-6.2184210">
        <ele>62.2</ele>
        <time>2021-07-21T10:27:18Z</time>
      </trkpt>
      <trkpt lat="43.5467590" lon="-6.2185980">
        <ele>62.2</ele>
        <time>2021-07-21T10:27:20Z</time>
      </trkpt>
      <trkpt lat="43.5467370" lon="-6.2187860">
        <ele>61.8</ele>
        <time>2021-07-21T10:27:22Z</time>
      </trkpt>
      <trkpt lat="43.5467290" lon="-6.2188840">
        <ele>61.4</ele>
        <time>2021-07-21T10:27:23Z</time>
      </trkpt>
      <trkpt lat="43.5467230" lon="-6.2189840">
        <ele>61.0</ele>
        <time>2021-07-21T10:27:24Z</time>
      </trkpt>
      <trkpt lat="43.5467210" lon="-6.2190920">
        <ele>60.6</ele>
        <time>2021-07-21T10:27:25Z</time>
      </trkpt>
      <trkpt lat="43.5467240" lon="-6.2191990">
        <ele>60.2</ele>
        <time>2021-07-21T10:27:26Z</time>
      </trkpt>
      <trkpt lat="43.5467350" lon="-6.2194230">
        <ele>60.2</ele>
        <time>2021-07-21T10:27:28Z</time>
      </trkpt>
      <trkpt lat="43.5467440" lon="-6.2195410">
        <ele>59.8</ele>
        <time>2021-07-21T10:27:29Z</time>
      </trkpt>
      <trkpt lat="43.5467560" lon="-6.2196570">
        <ele>58.8</ele>
        <time>2021-07-21T10:27:30Z</time>
      </trkpt>
      <trkpt lat="43.5467720" lon="-6.2197760">
        <ele>58.4</ele>
        <time>2021-07-21T10:27:31Z</time>
      </trkpt>
      <trkpt lat="43.5467870" lon="-6.2198980">
        <ele>57.8</ele>
        <time>2021-07-21T10:27:32Z</time>
      </trkpt>
      <trkpt lat="43.5468290" lon="-6.2201450">
        <ele>57.4</ele>
        <time>2021-07-21T10:27:34Z</time>
      </trkpt>
      <trkpt lat="43.5468670" lon="-6.2202600">
        <ele>57.0</ele>
        <time>2021-07-21T10:27:35Z</time>
      </trkpt>
      <trkpt lat="43.5469180" lon="-6.2203750">
        <ele>56.6</ele>
        <time>2021-07-21T10:27:36Z</time>
      </trkpt>
      <trkpt lat="43.5469670" lon="-6.2204890">
        <ele>56.2</ele>
        <time>2021-07-21T10:27:37Z</time>
      </trkpt>
      <trkpt lat="43.5470200" lon="-6.2206020">
        <ele>55.8</ele>
        <time>2021-07-21T10:27:38Z</time>
      </trkpt>
      <trkpt lat="43.5470740" lon="-6.2207090">
        <ele>55.4</ele>
        <time>2021-07-21T10:27:39Z</time>
      </trkpt>
      <trkpt lat="43.5471340" lon="-6.2208130">
        <ele>55.0</ele>
        <time>2021-07-21T10:27:40Z</time>
      </trkpt>
      <trkpt lat="43.5471990" lon="-6.2209180">
        <ele>54.6</ele>
        <time>2021-07-21T10:27:41Z</time>
      </trkpt>
      <trkpt lat="43.5472630" lon="-6.2210140">
        <ele>54.0</ele>
        <time>2021-07-21T10:27:42Z</time>
      </trkpt>
      <trkpt lat="43.5473320" lon="-6.2211110">
        <ele>53.4</ele>
        <time>2021-07-21T10:27:43Z</time>
      </trkpt>
      <trkpt lat="43.5474020" lon="-6.2212070">
        <ele>52.8</ele>
        <time>2021-07-21T10:27:44Z</time>
      </trkpt>
      <trkpt lat="43.5474760" lon="-6.2213000">
        <ele>52.2</ele>
        <time>2021-07-21T10:27:45Z</time>
      </trkpt>
      <trkpt lat="43.5475500" lon="-6.2213910">
        <ele>51.6</ele>
        <time>2021-07-21T10:27:46Z</time>
      </trkpt>
      <trkpt lat="43.5476210" lon="-6.2214780">
        <ele>51.2</ele>
        <time>2021-07-21T10:27:47Z</time>
      </trkpt>
      <trkpt lat="43.5476990" lon="-6.2215720">
        <ele>50.8</ele>
        <time>2021-07-21T10:27:48Z</time>
      </trkpt>
      <trkpt lat="43.5477730" lon="-6.2216600">
        <ele>50.4</ele>
        <time>2021-07-21T10:27:49Z</time>
      </trkpt>
      <trkpt lat="43.5478450" lon="-6.2217470">
        <ele>49.8</ele>
        <time>2021-07-21T10:27:50Z</time>
      </trkpt>
      <trkpt lat="43.5479200" lon="-6.2218360">
        <ele>49.4</ele>
        <time>2021-07-21T10:27:51Z</time>
      </trkpt>
      <trkpt lat="43.5479960" lon="-6.2219240">
        <ele>48.8</ele>
        <time>2021-07-21T10:27:52Z</time>
      </trkpt>
      <trkpt lat="43.5480720" lon="-6.2220130">
        <ele>48.4</ele>
        <time>2021-07-21T10:27:53Z</time>
      </trkpt>
      <trkpt lat="43.5481470" lon="-6.2221010">
        <ele>47.8</ele>
        <time>2021-07-21T10:27:54Z</time>
      </trkpt>
      <trkpt lat="43.5482210" lon="-6.2221900">
        <ele>46.8</ele>
        <time>2021-07-21T10:27:55Z</time>
      </trkpt>
      <trkpt lat="43.5482980" lon="-6.2222850">
        <ele>46.4</ele>
        <time>2021-07-21T10:27:56Z</time>
      </trkpt>
      <trkpt lat="43.5483720" lon="-6.2223780">
        <ele>46.0</ele>
        <time>2021-07-21T10:27:57Z</time>
      </trkpt>
      <trkpt lat="43.5484470" lon="-6.2224730">
        <ele>45.2</ele>
        <time>2021-07-21T10:27:58Z</time>
      </trkpt>
      <trkpt lat="43.5485220" lon="-6.2225690">
        <ele>44.6</ele>
        <time>2021-07-21T10:27:59Z</time>
      </trkpt>
      <trkpt lat="43.5485980" lon="-6.2226630">
        <ele>43.8</ele>
        <time>2021-07-21T10:28:00Z</time>
      </trkpt>
      <trkpt lat="43.5486760" lon="-6.2227570">
        <ele>43.2</ele>
        <time>2021-07-21T10:28:01Z</time>
      </trkpt>
      <trkpt lat="43.5487530" lon="-6.2228500">
        <ele>42.6</ele>
        <time>2021-07-21T10:28:02Z</time>
      </trkpt>
      <trkpt lat="43.5488300" lon="-6.2229440">
        <ele>42.0</ele>
        <time>2021-07-21T10:28:03Z</time>
      </trkpt>
      <trkpt lat="43.5489130" lon="-6.2230400">
        <ele>41.4</ele>
        <time>2021-07-21T10:28:04Z</time>
      </trkpt>
      <trkpt lat="43.5489930" lon="-6.2231350">
        <ele>40.6</ele>
        <time>2021-07-21T10:28:05Z</time>
      </trkpt>
      <trkpt lat="43.5490710" lon="-6.2232300">
        <ele>39.8</ele>
        <time>2021-07-21T10:28:06Z</time>
      </trkpt>
      <trkpt lat="43.5491500" lon="-6.2233260">
        <ele>39.2</ele>
        <time>2021-07-21T10:28:07Z</time>
      </trkpt>
      <trkpt lat="43.5492270" lon="-6.2234200">
        <ele>38.4</ele>
        <time>2021-07-21T10:28:08Z</time>
      </trkpt>
      <trkpt lat="43.5493040" lon="-6.2235140">
        <ele>37.6</ele>
        <time>2021-07-21T10:28:09Z</time>
      </trkpt>
      <trkpt lat="43.5493810" lon="-6.2236070">
        <ele>37.0</ele>
        <time>2021-07-21T10:28:10Z</time>
      </trkpt>
      <trkpt lat="43.5494610" lon="-6.2237050">
        <ele>36.4</ele>
        <time>2021-07-21T10:28:11Z</time>
      </trkpt>
      <trkpt lat="43.5495370" lon="-6.2238000">
        <ele>35.8</ele>
        <time>2021-07-21T10:28:12Z</time>
      </trkpt>
      <trkpt lat="43.5496120" lon="-6.2238920">
        <ele>35.2</ele>
        <time>2021-07-21T10:28:13Z</time>
      </trkpt>
      <trkpt lat="43.5496860" lon="-6.2239860">
        <ele>34.6</ele>
        <time>2021-07-21T10:28:14Z</time>
      </trkpt>
      <trkpt lat="43.5497630" lon="-6.2240800">
        <ele>34.2</ele>
        <time>2021-07-21T10:28:15Z</time>
      </trkpt>
      <trkpt lat="43.5498410" lon="-6.2241770">
        <ele>33.8</ele>
        <time>2021-07-21T10:28:16Z</time>
      </trkpt>
      <trkpt lat="43.5499190" lon="-6.2242730">
        <ele>33.4</ele>
        <time>2021-07-21T10:28:17Z</time>
      </trkpt>
      <trkpt lat="43.5500030" lon="-6.2243730">
        <ele>32.8</ele>
        <time>2021-07-21T10:28:18Z</time>
      </trkpt>
      <trkpt lat="43.5500820" lon="-6.2244730">
        <ele>32.4</ele>
        <time>2021-07-21T10:28:19Z</time>
      </trkpt>
      <trkpt lat="43.5501570" lon="-6.2245710">
        <ele>31.4</ele>
        <time>2021-07-21T10:28:20Z</time>
      </trkpt>
      <trkpt lat="43.5502340" lon="-6.2246710">
        <ele>30.8</ele>
        <time>2021-07-21T10:28:21Z</time>
      </trkpt>
      <trkpt lat="43.5503110" lon="-6.2247690">
        <ele>30.2</ele>
        <time>2021-07-21T10:28:22Z</time>
      </trkpt>
      <trkpt lat="43.5503860" lon="-6.2248650">
        <ele>29.6</ele>
        <time>2021-07-21T10:28:23Z</time>
      </trkpt>
      <trkpt lat="43.5504620" lon="-6.2249620">
        <ele>29.0</ele>
        <time>2021-07-21T10:28:24Z</time>
      </trkpt>
      <trkpt lat="43.5505380" lon="-6.2250570">
        <ele>28.4</ele>
        <time>2021-07-21T10:28:25Z</time>
      </trkpt>
      <trkpt lat="43.5506130" lon="-6.2251530">
        <ele>27.8</ele>
        <time>2021-07-21T10:28:26Z</time>
      </trkpt>
      <trkpt lat="43.5506900" lon="-6.2252530">
        <ele>27.4</ele>
        <time>2021-07-21T10:28:27Z</time>
      </trkpt>
      <trkpt lat="43.5507680" lon="-6.2253380">
        <ele>26.8</ele>
        <time>2021-07-21T10:28:28Z</time>
      </trkpt>
      <trkpt lat="43.5508430" lon="-6.2254190">
        <ele>26.2</ele>
        <time>2021-07-21T10:28:29Z</time>
      </trkpt>
      <trkpt lat="43.5509160" lon="-6.2254980">
        <ele>25.6</ele>
        <time>2021-07-21T10:28:30Z</time>
      </trkpt>
      <trkpt lat="43.5509890" lon="-6.2255720">
        <ele>25.0</ele>
        <time>2021-07-21T10:28:31Z</time>
      </trkpt>
      <trkpt lat="43.5510620" lon="-6.2256400">
        <ele>24.4</ele>
        <time>2021-07-21T10:28:32Z</time>
      </trkpt>
      <trkpt lat="43.5511350" lon="-6.2257040">
        <ele>23.8</ele>
        <time>2021-07-21T10:28:33Z</time>
      </trkpt>
      <trkpt lat="43.5512120" lon="-6.2257630">
        <ele>23.4</ele>
        <time>2021-07-21T10:28:34Z</time>
      </trkpt>
      <trkpt lat="43.5512860" lon="-6.2258120">
        <ele>22.8</ele>
        <time>2021-07-21T10:28:35Z</time>
      </trkpt>
      <trkpt lat="43.5513560" lon="-6.2258580">
        <ele>22.2</ele>
        <time>2021-07-21T10:28:36Z</time>
      </trkpt>
      <trkpt lat="43.5514240" lon="-6.2259000">
        <ele>21.6</ele>
        <time>2021-07-21T10:28:37Z</time>
      </trkpt>
      <trkpt lat="43.5516820" lon="-6.2260660">
        <ele>21.6</ele>
        <time>2021-07-21T10:28:41Z</time>
      </trkpt>
      <trkpt lat="43.5517980" lon="-6.2261410">
        <ele>21.2</ele>
        <time>2021-07-21T10:28:43Z</time>
      </trkpt>
      <trkpt lat="43.5518530" lon="-6.2261750">
        <ele>20.4</ele>
        <time>2021-07-21T10:28:44Z</time>
      </trkpt>
      <trkpt lat="43.5519100" lon="-6.2262080">
        <ele>19.8</ele>
        <time>2021-07-21T10:28:45Z</time>
      </trkpt>
      <trkpt lat="43.5519660" lon="-6.2262390">
        <ele>19.4</ele>
        <time>2021-07-21T10:28:46Z</time>
      </trkpt>
      <trkpt lat="43.5520780" lon="-6.2263060">
        <ele>19.4</ele>
        <time>2021-07-21T10:28:48Z</time>
      </trkpt>
      <trkpt lat="43.5523860" lon="-6.2265040">
        <ele>19.0</ele>
        <time>2021-07-21T10:28:53Z</time>
      </trkpt>
      <trkpt lat="43.5524510" lon="-6.2265480">
        <ele>18.6</ele>
        <time>2021-07-21T10:28:54Z</time>
      </trkpt>
      <trkpt lat="43.5525180" lon="-6.2265940">
        <ele>18.2</ele>
        <time>2021-07-21T10:28:55Z</time>
      </trkpt>
      <trkpt lat="43.5525880" lon="-6.2266430">
        <ele>17.6</ele>
        <time>2021-07-21T10:28:56Z</time>
      </trkpt>
      <trkpt lat="43.5526560" lon="-6.2266900">
        <ele>17.2</ele>
        <time>2021-07-21T10:28:57Z</time>
      </trkpt>
      <trkpt lat="43.5529170" lon="-6.2269120">
        <ele>16.8</ele>
        <time>2021-07-21T10:29:01Z</time>
      </trkpt>
      <trkpt lat="43.5529830" lon="-6.2269760">
        <ele>16.2</ele>
        <time>2021-07-21T10:29:02Z</time>
      </trkpt>
      <trkpt lat="43.5530490" lon="-6.2270450">
        <ele>15.8</ele>
        <time>2021-07-21T10:29:03Z</time>
      </trkpt>
      <trkpt lat="43.5531170" lon="-6.2271210">
        <ele>15.4</ele>
        <time>2021-07-21T10:29:04Z</time>
      </trkpt>
      <trkpt lat="43.5531830" lon="-6.2271930">
        <ele>14.8</ele>
        <time>2021-07-21T10:29:05Z</time>
      </trkpt>
      <trkpt lat="43.5532490" lon="-6.2272660">
        <ele>14.4</ele>
        <time>2021-07-21T10:29:06Z</time>
      </trkpt>
      <trkpt lat="43.5533140" lon="-6.2273410">
        <ele>14.0</ele>
        <time>2021-07-21T10:29:07Z</time>
      </trkpt>
      <trkpt lat="43.5533790" lon="-6.2274160">
        <ele>13.6</ele>
        <time>2021-07-21T10:29:08Z</time>
      </trkpt>
      <trkpt lat="43.5534460" lon="-6.2274950">
        <ele>12.8</ele>
        <time>2021-07-21T10:29:09Z</time>
      </trkpt>
      <trkpt lat="43.5535760" lon="-6.2276500">
        <ele>12.4</ele>
        <time>2021-07-21T10:29:11Z</time>
      </trkpt>
      <trkpt lat="43.5536300" lon="-6.2277280">
        <ele>11.8</ele>
        <time>2021-07-21T10:29:12Z</time>
      </trkpt>
      <trkpt lat="43.5536750" lon="-6.2278120">
        <ele>11.4</ele>
        <time>2021-07-21T10:29:13Z</time>
      </trkpt>
      <trkpt lat="43.5537120" lon="-6.2279040">
        <ele>11.0</ele>
        <time>2021-07-21T10:29:14Z</time>
      </trkpt>
      <trkpt lat="43.5537480" lon="-6.2279930">
        <ele>10.4</ele>
        <time>2021-07-21T10:29:15Z</time>
      </trkpt>
      <trkpt lat="43.5537790" lon="-6.2280850">
        <ele>9.8</ele>
        <time>2021-07-21T10:29:16Z</time>
      </trkpt>
      <trkpt lat="43.5538010" lon="-6.2281800">
        <ele>9.2</ele>
        <time>2021-07-21T10:29:17Z</time>
      </trkpt>
      <trkpt lat="43.5538170" lon="-6.2282790">
        <ele>8.6</ele>
        <time>2021-07-21T10:29:18Z</time>
      </trkpt>
      <trkpt lat="43.5538320" lon="-6.2283840">
        <ele>8.2</ele>
        <time>2021-07-21T10:29:19Z</time>
      </trkpt>
      <trkpt lat="43.5538480" lon="-6.2284860">
        <ele>7.6</ele>
        <time>2021-07-21T10:29:20Z</time>
      </trkpt>
      <trkpt lat="43.5538680" lon="-6.2285920">
        <ele>7.0</ele>
        <time>2021-07-21T10:29:21Z</time>
      </trkpt>
      <trkpt lat="43.5538950" lon="-6.2287030">
        <ele>6.4</ele>
        <time>2021-07-21T10:29:22Z</time>
      </trkpt>
      <trkpt lat="43.5539380" lon="-6.2288010">
        <ele>6.0</ele>
        <time>2021-07-21T10:29:23Z</time>
      </trkpt>
      <trkpt lat="43.5539910" lon="-6.2288950">
        <ele>5.4</ele>
        <time>2021-07-21T10:29:24Z</time>
      </trkpt>
      <trkpt lat="43.5540580" lon="-6.2289690">
        <ele>5.0</ele>
        <time>2021-07-21T10:29:25Z</time>
      </trkpt>
      <trkpt lat="43.5541280" lon="-6.2290260">
        <ele>4.4</ele>
        <time>2021-07-21T10:29:26Z</time>
      </trkpt>
      <trkpt lat="43.5542050" lon="-6.2290610">
        <ele>3.8</ele>
        <time>2021-07-21T10:29:27Z</time>
      </trkpt>
      <trkpt lat="43.5542820" lon="-6.2290740">
        <ele>3.4</ele>
        <time>2021-07-21T10:29:28Z</time>
      </trkpt>
      <trkpt lat="43.5543620" lon="-6.2290690">
        <ele>3.0</ele>
        <time>2021-07-21T10:29:29Z</time>
      </trkpt>
      <trkpt lat="43.5544390" lon="-6.2290570">
        <ele>2.4</ele>
        <time>2021-07-21T10:29:30Z</time>
      </trkpt>
      <trkpt lat="43.5545250" lon="-6.2290310">
        <ele>2.0</ele>
        <time>2021-07-21T10:29:31Z</time>
      </trkpt>
      <trkpt lat="43.5546080" lon="-6.2290060">
        <ele>1.4</ele>
        <time>2021-07-21T10:29:32Z</time>
      </trkpt>
      <trkpt lat="43.5547770" lon="-6.2289510">
        <ele>1.0</ele>
        <time>2021-07-21T10:29:34Z</time>
      </trkpt>
      <trkpt lat="43.5548580" lon="-6.2289260">
        <ele>0.6</ele>
        <time>2021-07-21T10:29:35Z</time>
      </trkpt>
      <trkpt lat="43.5549400" lon="-6.2289030">
        <ele>0.2</ele>
        <time>2021-07-21T10:29:36Z</time>
      </trkpt>
      <trkpt lat="43.5550240" lon="-6.2288780">
        <ele>-0.2</ele>
        <time>2021-07-21T10:29:37Z</time>
      </trkpt>
      <trkpt lat="43.5551080" lon="-6.2288540">
        <ele>-0.8</ele>
        <time>2021-07-21T10:29:38Z</time>
      </trkpt>
      <trkpt lat="43.5551900" lon="-6.2288290">
        <ele>-1.2</ele>
        <time>2021-07-21T10:29:39Z</time>
      </trkpt>
      <trkpt lat="43.5552690" lon="-6.2288050">
        <ele>-1.6</ele>
        <time>2021-07-21T10:29:40Z</time>
      </trkpt>
      <trkpt lat="43.5553470" lon="-6.2287810">
        <ele>-2.0</ele>
        <time>2021-07-21T10:29:41Z</time>
      </trkpt>
      <trkpt lat="43.5554240" lon="-6.2287580">
        <ele>-2.4</ele>
        <time>2021-07-21T10:29:42Z</time>
      </trkpt>
      <trkpt lat="43.5555010" lon="-6.2287360">
        <ele>-3.0</ele>
        <time>2021-07-21T10:29:43Z</time>
      </trkpt>
      <trkpt lat="43.5555790" lon="-6.2287160">
        <ele>-3.4</ele>
        <time>2021-07-21T10:29:44Z</time>
      </trkpt>
      <trkpt lat="43.5556570" lon="-6.2286950">
        <ele>-4.0</ele>
        <time>2021-07-21T10:29:45Z</time>
      </trkpt>
      <trkpt lat="43.5557350" lon="-6.2286710">
        <ele>-4.6</ele>
        <time>2021-07-21T10:29:46Z</time>
      </trkpt>
      <trkpt lat="43.5558170" lon="-6.2286470">
        <ele>-5.0</ele>
        <time>2021-07-21T10:29:47Z</time>
      </trkpt>
      <trkpt lat="43.5559000" lon="-6.2286230">
        <ele>-5.4</ele>
        <time>2021-07-21T10:29:48Z</time>
      </trkpt>
      <trkpt lat="43.5559840" lon="-6.2286010">
        <ele>-6.0</ele>
        <time>2021-07-21T10:29:49Z</time>
      </trkpt>
      <trkpt lat="43.5560730" lon="-6.2285740">
        <ele>-6.4</ele>
        <time>2021-07-21T10:29:50Z</time>
      </trkpt>
      <trkpt lat="43.5561550" lon="-6.2285500">
        <ele>-6.8</ele>
        <time>2021-07-21T10:29:51Z</time>
      </trkpt>
      <trkpt lat="43.5562350" lon="-6.2285250">
        <ele>-7.2</ele>
        <time>2021-07-21T10:29:52Z</time>
      </trkpt>
      <trkpt lat="43.5564010" lon="-6.2284750">
        <ele>-7.6</ele>
        <time>2021-07-21T10:29:54Z</time>
      </trkpt>
      <trkpt lat="43.5564820" lon="-6.2284480">
        <ele>-8.0</ele>
        <time>2021-07-21T10:29:55Z</time>
      </trkpt>
      <trkpt lat="43.5565620" lon="-6.2284200">
        <ele>-8.4</ele>
        <time>2021-07-21T10:29:56Z</time>
      </trkpt>
      <trkpt lat="43.5566450" lon="-6.2283940">
        <ele>-9.4</ele>
        <time>2021-07-21T10:29:57Z</time>
      </trkpt>
      <trkpt lat="43.5568060" lon="-6.2283470">
        <ele>-9.8</ele>
        <time>2021-07-21T10:29:59Z</time>
      </trkpt>
      <trkpt lat="43.5568860" lon="-6.2283250">
        <ele>-10.2</ele>
        <time>2021-07-21T10:30:00Z</time>
      </trkpt>
      <trkpt lat="43.5569690" lon="-6.2283030">
        <ele>-10.6</ele>
        <time>2021-07-21T10:30:01Z</time>
      </trkpt>
      <trkpt lat="43.5570510" lon="-6.2282810">
        <ele>-11.0</ele>
        <time>2021-07-21T10:30:02Z</time>
      </trkpt>
      <trkpt lat="43.5571330" lon="-6.2282580">
        <ele>-11.6</ele>
        <time>2021-07-21T10:30:03Z</time>
      </trkpt>
      <trkpt lat="43.5574590" lon="-6.2281620">
        <ele>-12.0</ele>
        <time>2021-07-21T10:30:07Z</time>
      </trkpt>
      <trkpt lat="43.5575390" lon="-6.2281370">
        <ele>-12.4</ele>
        <time>2021-07-21T10:30:08Z</time>
      </trkpt>
      <trkpt lat="43.5576150" lon="-6.2281160">
        <ele>-13.0</ele>
        <time>2021-07-21T10:30:09Z</time>
      </trkpt>
      <trkpt lat="43.5576880" lon="-6.2280970">
        <ele>-13.4</ele>
        <time>2021-07-21T10:30:10Z</time>
      </trkpt>
      <trkpt lat="43.5577600" lon="-6.2280780">
        <ele>-14.0</ele>
        <time>2021-07-21T10:30:11Z</time>
      </trkpt>
      <trkpt lat="43.5578340" lon="-6.2280600">
        <ele>-14.4</ele>
        <time>2021-07-21T10:30:12Z</time>
      </trkpt>
      <trkpt lat="43.5579010" lon="-6.2280510">
        <ele>-15.0</ele>
        <time>2021-07-21T10:30:13Z</time>
      </trkpt>
      <trkpt lat="43.5579680" lon="-6.2280480">
        <ele>-15.6</ele>
        <time>2021-07-21T10:30:14Z</time>
      </trkpt>
      <trkpt lat="43.5580380" lon="-6.2280530">
        <ele>-16.2</ele>
        <time>2021-07-21T10:30:15Z</time>
      </trkpt>
      <trkpt lat="43.5581100" lon="-6.2280680">
        <ele>-16.6</ele>
        <time>2021-07-21T10:30:16Z</time>
      </trkpt>
      <trkpt lat="43.5581800" lon="-6.2280900">
        <ele>-17.2</ele>
        <time>2021-07-21T10:30:17Z</time>
      </trkpt>
      <trkpt lat="43.5582480" lon="-6.2281210">
        <ele>-17.8</ele>
        <time>2021-07-21T10:30:18Z</time>
      </trkpt>
      <trkpt lat="43.5583110" lon="-6.2281640">
        <ele>-18.4</ele>
        <time>2021-07-21T10:30:19Z</time>
      </trkpt>
      <trkpt lat="43.5584260" lon="-6.2282710">
        <ele>-18.4</ele>
        <time>2021-07-21T10:30:21Z</time>
      </trkpt>
      <trkpt lat="43.5584750" lon="-6.2283270">
        <ele>-18.4</ele>
        <time>2021-07-21T10:30:22Z</time>
      </trkpt>
      <trkpt lat="43.5585210" lon="-6.2283840">
        <ele>-18.8</ele>
        <time>2021-07-21T10:30:23Z</time>
      </trkpt>
      <trkpt lat="43.5585670" lon="-6.2284380">
        <ele>-19.2</ele>
        <time>2021-07-21T10:30:24Z</time>
      </trkpt>
      <trkpt lat="43.5586100" lon="-6.2284900">
        <ele>-19.6</ele>
        <time>2021-07-21T10:30:25Z</time>
      </trkpt>
      <trkpt lat="43.5586500" lon="-6.2285410">
        <ele>-20.0</ele>
        <time>2021-07-21T10:30:26Z</time>
      </trkpt>
      <trkpt lat="43.5586910" lon="-6.2285940">
        <ele>-20.4</ele>
        <time>2021-07-21T10:30:27Z</time>
      </trkpt>
      <trkpt lat="43.5587660" lon="-6.2286920">
        <ele>-20.4</ele>
        <time>2021-07-21T10:30:29Z</time>
      </trkpt>
      <trkpt lat="43.5588420" lon="-6.2287920">
        <ele>-20.4</ele>
        <time>2021-07-21T10:30:31Z</time>
      </trkpt>
      <trkpt lat="43.5589550" lon="-6.2289430">
        <ele>-20.4</ele>
        <time>2021-07-21T10:30:34Z</time>
      </trkpt>
      <trkpt lat="43.5589930" lon="-6.2289930">
        <ele>-20.4</ele>
        <time>2021-07-21T10:30:35Z</time>
      </trkpt>
      <trkpt lat="43.5590720" lon="-6.2290930">
        <ele>-20.4</ele>
        <time>2021-07-21T10:30:37Z</time>
      </trkpt>
      <trkpt lat="43.5592250" lon="-6.2292840">
        <ele>-20.4</ele>
        <time>2021-07-21T10:30:41Z</time>
      </trkpt>
      <trkpt lat="43.5593430" lon="-6.2294290">
        <ele>-20.4</ele>
        <time>2021-07-21T10:30:44Z</time>
      </trkpt>
      <trkpt lat="43.5593800" lon="-6.2294730">
        <ele>-20.4</ele>
        <time>2021-07-21T10:30:45Z</time>
      </trkpt>
      <trkpt lat="43.5595270" lon="-6.2296560">
        <ele>-20.4</ele>
        <time>2021-07-21T10:30:49Z</time>
      </trkpt>
      <trkpt lat="43.5596290" lon="-6.2297740">
        <ele>-20.4</ele>
        <time>2021-07-21T10:30:52Z</time>
      </trkpt>
      <trkpt lat="43.5598180" lon="-6.2300320">
        <ele>-20.4</ele>
        <time>2021-07-21T10:30:59Z</time>
      </trkpt>
      <trkpt lat="43.5599740" lon="-6.2302350">
        <ele>-20.4</ele>
        <time>2021-07-21T10:31:05Z</time>
      </trkpt>
      <trkpt lat="43.5600420" lon="-6.2302840">
        <ele>-20.0</ele>
        <time>2021-07-21T10:31:07Z</time>
      </trkpt>
      <trkpt lat="43.5600800" lon="-6.2303000">
        <ele>-19.6</ele>
        <time>2021-07-21T10:31:08Z</time>
      </trkpt>
      <trkpt lat="43.5601190" lon="-6.2303170">
        <ele>-19.2</ele>
        <time>2021-07-21T10:31:09Z</time>
      </trkpt>
      <trkpt lat="43.5601560" lon="-6.2303310">
        <ele>-18.8</ele>
        <time>2021-07-21T10:31:10Z</time>
      </trkpt>
      <trkpt lat="43.5601940" lon="-6.2303430">
        <ele>-18.2</ele>
        <time>2021-07-21T10:31:11Z</time>
      </trkpt>
      <trkpt lat="43.5604100" lon="-6.2303880">
        <ele>-18.2</ele>
        <time>2021-07-21T10:31:17Z</time>
      </trkpt>
      <trkpt lat="43.5604470" lon="-6.2303960">
        <ele>-17.8</ele>
        <time>2021-07-21T10:31:18Z</time>
      </trkpt>
      <trkpt lat="43.5604800" lon="-6.2304000">
        <ele>-17.4</ele>
        <time>2021-07-21T10:31:19Z</time>
      </trkpt>
      <trkpt lat="43.5605130" lon="-6.2304080">
        <ele>-17.0</ele>
        <time>2021-07-21T10:31:20Z</time>
      </trkpt>
      <trkpt lat="43.5605440" lon="-6.2304130">
        <ele>-16.6</ele>
        <time>2021-07-21T10:31:21Z</time>
      </trkpt>
      <trkpt lat="43.5605740" lon="-6.2304220">
        <ele>-16.2</ele>
        <time>2021-07-21T10:31:22Z</time>
      </trkpt>
      <trkpt lat="43.5606040" lon="-6.2304300">
        <ele>-16.2</ele>
        <time>2021-07-21T10:31:23Z</time>
      </trkpt>
      <trkpt lat="43.5609340" lon="-6.2305180">
        <ele>-16.2</ele>
        <time>2021-07-21T10:31:33Z</time>
      </trkpt>
      <trkpt lat="43.5611500" lon="-6.2305590">
        <ele>-16.2</ele>
        <time>2021-07-21T10:31:39Z</time>
      </trkpt>
      <trkpt lat="43.5612730" lon="-6.2306030">
        <ele>-16.2</ele>
        <time>2021-07-21T10:31:43Z</time>
      </trkpt>
      <trkpt lat="43.5614100" lon="-6.2306230">
        <ele>-16.2</ele>
        <time>2021-07-21T10:31:47Z</time>
      </trkpt>
      <trkpt lat="43.5614850" lon="-6.2306090">
        <ele>-16.2</ele>
        <time>2021-07-21T10:31:49Z</time>
      </trkpt>
      <trkpt lat="43.5615670" lon="-6.2306190">
        <ele>-16.2</ele>
        <time>2021-07-21T10:31:52Z</time>
      </trkpt>
      <trkpt lat="43.5616220" lon="-6.2306370">
        <ele>-16.2</ele>
        <time>2021-07-21T10:31:54Z</time>
      </trkpt>
      <trkpt lat="43.5616850" lon="-6.2306750">
        <ele>-16.2</ele>
        <time>2021-07-21T10:31:57Z</time>
      </trkpt>
      <trkpt lat="43.5617990" lon="-6.2306890">
        <ele>-16.2</ele>
        <time>2021-07-21T10:32:02Z</time>
      </trkpt>
      <trkpt lat="43.5618330" lon="-6.2306630">
        <ele>-16.2</ele>
        <time>2021-07-21T10:32:07Z</time>
      </trkpt>
      <trkpt lat="43.5618160" lon="-6.2306000">
        <ele>-16.2</ele>
        <time>2021-07-21T10:42:13Z</time>
      </trkpt>
      <trkpt lat="43.5618220" lon="-6.2306150">
        <ele>-16.2</ele>
        <time>2021-07-21T10:42:14Z</time>
      </trkpt>
      <trkpt lat="43.5618270" lon="-6.2306450">
        <ele>-16.2</ele>
        <time>2021-07-21T10:42:16Z</time>
      </trkpt>
      <trkpt lat="43.5618330" lon="-6.2306600">
        <ele>-16.2</ele>
        <time>2021-07-21T10:42:19Z</time>
      </trkpt>
      <trkpt lat="43.5618590" lon="-6.2307110">
        <ele>-16.2</ele>
        <time>2021-07-21T10:42:36Z</time>
      </trkpt>
      <trkpt lat="43.5618660" lon="-6.2307240">
        <ele>-16.2</ele>
        <time>2021-07-21T10:42:37Z</time>
      </trkpt>
      <trkpt lat="43.5619550" lon="-6.2308330">
        <ele>-16.2</ele>
        <time>2021-07-21T10:42:43Z</time>
      </trkpt>
      <trkpt lat="43.5620160" lon="-6.2309120">
        <ele>-16.2</ele>
        <time>2021-07-21T10:42:46Z</time>
      </trkpt>
      <trkpt lat="43.5620350" lon="-6.2309410">
        <ele>-15.8</ele>
        <time>2021-07-21T10:42:47Z</time>
      </trkpt>
      <trkpt lat="43.5620600" lon="-6.2309670">
        <ele>-15.4</ele>
        <time>2021-07-21T10:42:48Z</time>
      </trkpt>
      <trkpt lat="43.5620840" lon="-6.2309850">
        <ele>-15.0</ele>
        <time>2021-07-21T10:42:49Z</time>
      </trkpt>
      <trkpt lat="43.5621100" lon="-6.2310080">
        <ele>-14.6</ele>
        <time>2021-07-21T10:42:50Z</time>
      </trkpt>
      <trkpt lat="43.5621350" lon="-6.2310350">
        <ele>-14.2</ele>
        <time>2021-07-21T10:42:51Z</time>
      </trkpt>
      <trkpt lat="43.5622220" lon="-6.2311530">
        <ele>-14.2</ele>
        <time>2021-07-21T10:42:55Z</time>
      </trkpt>
      <trkpt lat="43.5622430" lon="-6.2311860">
        <ele>-14.2</ele>
        <time>2021-07-21T10:42:56Z</time>
      </trkpt>
      <trkpt lat="43.5623170" lon="-6.2312870">
        <ele>-14.2</ele>
        <time>2021-07-21T10:43:00Z</time>
      </trkpt>
      <trkpt lat="43.5623830" lon="-6.2313590">
        <ele>-13.8</ele>
        <time>2021-07-21T10:43:03Z</time>
      </trkpt>
      <trkpt lat="43.5624020" lon="-6.2313850">
        <ele>-13.4</ele>
        <time>2021-07-21T10:43:04Z</time>
      </trkpt>
      <trkpt lat="43.5624210" lon="-6.2314140">
        <ele>-12.8</ele>
        <time>2021-07-21T10:43:05Z</time>
      </trkpt>
      <trkpt lat="43.5624360" lon="-6.2314430">
        <ele>-12.4</ele>
        <time>2021-07-21T10:43:06Z</time>
      </trkpt>
      <trkpt lat="43.5624530" lon="-6.2314720">
        <ele>-12.0</ele>
        <time>2021-07-21T10:43:07Z</time>
      </trkpt>
      <trkpt lat="43.5625290" lon="-6.2315780">
        <ele>-12.0</ele>
        <time>2021-07-21T10:43:11Z</time>
      </trkpt>
      <trkpt lat="43.5626050" lon="-6.2316740">
        <ele>-11.6</ele>
        <time>2021-07-21T10:43:15Z</time>
      </trkpt>
      <trkpt lat="43.5626240" lon="-6.2316960">
        <ele>-11.2</ele>
        <time>2021-07-21T10:43:16Z</time>
      </trkpt>
      <trkpt lat="43.5626420" lon="-6.2317220">
        <ele>-10.8</ele>
        <time>2021-07-21T10:43:17Z</time>
      </trkpt>
      <trkpt lat="43.5626560" lon="-6.2317510">
        <ele>-10.4</ele>
        <time>2021-07-21T10:43:18Z</time>
      </trkpt>
      <trkpt lat="43.5626740" lon="-6.2317790">
        <ele>-9.8</ele>
        <time>2021-07-21T10:43:19Z</time>
      </trkpt>
      <trkpt lat="43.5627480" lon="-6.2318740">
        <ele>-9.8</ele>
        <time>2021-07-21T10:43:23Z</time>
      </trkpt>
      <trkpt lat="43.5628220" lon="-6.2319650">
        <ele>-9.4</ele>
        <time>2021-07-21T10:43:27Z</time>
      </trkpt>
      <trkpt lat="43.5628370" lon="-6.2319900">
        <ele>-9.0</ele>
        <time>2021-07-21T10:43:28Z</time>
      </trkpt>
      <trkpt lat="43.5628560" lon="-6.2320110">
        <ele>-8.6</ele>
        <time>2021-07-21T10:43:29Z</time>
      </trkpt>
      <trkpt lat="43.5628720" lon="-6.2320340">
        <ele>-8.2</ele>
        <time>2021-07-21T10:43:30Z</time>
      </trkpt>
      <trkpt lat="43.5628870" lon="-6.2320520">
        <ele>-7.8</ele>
        <time>2021-07-21T10:43:31Z</time>
      </trkpt>
      <trkpt lat="43.5629610" lon="-6.2321430">
        <ele>-7.8</ele>
        <time>2021-07-21T10:43:35Z</time>
      </trkpt>
      <trkpt lat="43.5630550" lon="-6.2322740">
        <ele>-7.4</ele>
        <time>2021-07-21T10:43:41Z</time>
      </trkpt>
      <trkpt lat="43.5630750" lon="-6.2322980">
        <ele>-7.0</ele>
        <time>2021-07-21T10:43:42Z</time>
      </trkpt>
      <trkpt lat="43.5630960" lon="-6.2323170">
        <ele>-6.6</ele>
        <time>2021-07-21T10:43:43Z</time>
      </trkpt>
      <trkpt lat="43.5631160" lon="-6.2323370">
        <ele>-6.2</ele>
        <time>2021-07-21T10:43:44Z</time>
      </trkpt>
      <trkpt lat="43.5631350" lon="-6.2323540">
        <ele>-5.6</ele>
        <time>2021-07-21T10:43:45Z</time>
      </trkpt>
      <trkpt lat="43.5631870" lon="-6.2324270">
        <ele>-5.6</ele>
        <time>2021-07-21T10:43:49Z</time>
      </trkpt>
      <trkpt lat="43.5632860" lon="-6.2325430">
        <ele>-5.2</ele>
        <time>2021-07-21T10:43:54Z</time>
      </trkpt>
      <trkpt lat="43.5633040" lon="-6.2325680">
        <ele>-4.8</ele>
        <time>2021-07-21T10:43:55Z</time>
      </trkpt>
      <trkpt lat="43.5633210" lon="-6.2325930">
        <ele>-4.4</ele>
        <time>2021-07-21T10:43:56Z</time>
      </trkpt>
      <trkpt lat="43.5633430" lon="-6.2326130">
        <ele>-3.6</ele>
        <time>2021-07-21T10:43:57Z</time>
      </trkpt>
      <trkpt lat="43.5634270" lon="-6.2327240">
        <ele>-3.6</ele>
        <time>2021-07-21T10:44:02Z</time>
      </trkpt>
      <trkpt lat="43.5634750" lon="-6.2328000">
        <ele>-3.2</ele>
        <time>2021-07-21T10:44:05Z</time>
      </trkpt>
      <trkpt lat="43.5634920" lon="-6.2328230">
        <ele>-2.6</ele>
        <time>2021-07-21T10:44:06Z</time>
      </trkpt>
      <trkpt lat="43.5635070" lon="-6.2328500">
        <ele>-2.2</ele>
        <time>2021-07-21T10:44:07Z</time>
      </trkpt>
      <trkpt lat="43.5635210" lon="-6.2328810">
        <ele>-1.8</ele>
        <time>2021-07-21T10:44:08Z</time>
      </trkpt>
      <trkpt lat="43.5635350" lon="-6.2329110">
        <ele>-1.4</ele>
        <time>2021-07-21T10:44:09Z</time>
      </trkpt>
      <trkpt lat="43.5635480" lon="-6.2329430">
        <ele>-1.4</ele>
        <time>2021-07-21T10:44:10Z</time>
      </trkpt>
      <trkpt lat="43.5636290" lon="-6.2331610">
        <ele>-1.4</ele>
        <time>2021-07-21T10:44:17Z</time>
      </trkpt>
      <trkpt lat="43.5636480" lon="-6.2332230">
        <ele>-1.0</ele>
        <time>2021-07-21T10:44:19Z</time>
      </trkpt>
      <trkpt lat="43.5636540" lon="-6.2332550">
        <ele>-0.6</ele>
        <time>2021-07-21T10:44:20Z</time>
      </trkpt>
      <trkpt lat="43.5636610" lon="-6.2332870">
        <ele>-0.2</ele>
        <time>2021-07-21T10:44:21Z</time>
      </trkpt>
      <trkpt lat="43.5636680" lon="-6.2333180">
        <ele>0.8</ele>
        <time>2021-07-21T10:44:22Z</time>
      </trkpt>
      <trkpt lat="43.5636970" lon="-6.2334450">
        <ele>0.8</ele>
        <time>2021-07-21T10:44:26Z</time>
      </trkpt>
      <trkpt lat="43.5637450" lon="-6.2336580">
        <ele>1.2</ele>
        <time>2021-07-21T10:44:33Z</time>
      </trkpt>
      <trkpt lat="43.5637530" lon="-6.2336890">
        <ele>1.6</ele>
        <time>2021-07-21T10:44:34Z</time>
      </trkpt>
      <trkpt lat="43.5637610" lon="-6.2337210">
        <ele>2.0</ele>
        <time>2021-07-21T10:44:35Z</time>
      </trkpt>
      <trkpt lat="43.5637680" lon="-6.2337500">
        <ele>2.4</ele>
        <time>2021-07-21T10:44:36Z</time>
      </trkpt>
      <trkpt lat="43.5637800" lon="-6.2337740">
        <ele>2.8</ele>
        <time>2021-07-21T10:44:37Z</time>
      </trkpt>
      <trkpt lat="43.5638410" lon="-6.2339250">
        <ele>2.8</ele>
        <time>2021-07-21T10:44:43Z</time>
      </trkpt>
      <trkpt lat="43.5638670" lon="-6.2339700">
        <ele>3.2</ele>
        <time>2021-07-21T10:44:45Z</time>
      </trkpt>
      <trkpt lat="43.5638830" lon="-6.2339910">
        <ele>4.0</ele>
        <time>2021-07-21T10:44:46Z</time>
      </trkpt>
      <trkpt lat="43.5638990" lon="-6.2340130">
        <ele>4.4</ele>
        <time>2021-07-21T10:44:47Z</time>
      </trkpt>
      <trkpt lat="43.5639150" lon="-6.2340290">
        <ele>4.8</ele>
        <time>2021-07-21T10:44:48Z</time>
      </trkpt>
      <trkpt lat="43.5639710" lon="-6.2341150">
        <ele>4.8</ele>
        <time>2021-07-21T10:44:52Z</time>
      </trkpt>
      <trkpt lat="43.5640450" lon="-6.2342350">
        <ele>5.4</ele>
        <time>2021-07-21T10:44:57Z</time>
      </trkpt>
      <trkpt lat="43.5640590" lon="-6.2342590">
        <ele>5.8</ele>
        <time>2021-07-21T10:44:58Z</time>
      </trkpt>
      <trkpt lat="43.5640750" lon="-6.2342850">
        <ele>6.2</ele>
        <time>2021-07-21T10:44:59Z</time>
      </trkpt>
      <trkpt lat="43.5640910" lon="-6.2343040">
        <ele>6.6</ele>
        <time>2021-07-21T10:45:00Z</time>
      </trkpt>
      <trkpt lat="43.5641070" lon="-6.2343250">
        <ele>7.0</ele>
        <time>2021-07-21T10:45:01Z</time>
      </trkpt>
      <trkpt lat="43.5641220" lon="-6.2343470">
        <ele>7.0</ele>
        <time>2021-07-21T10:45:02Z</time>
      </trkpt>
      <trkpt lat="43.5642470" lon="-6.2345290">
        <ele>7.4</ele>
        <time>2021-07-21T10:45:10Z</time>
      </trkpt>
      <trkpt lat="43.5642610" lon="-6.2345530">
        <ele>8.4</ele>
        <time>2021-07-21T10:45:11Z</time>
      </trkpt>
      <trkpt lat="43.5642750" lon="-6.2345720">
        <ele>8.8</ele>
        <time>2021-07-21T10:45:12Z</time>
      </trkpt>
      <trkpt lat="43.5642870" lon="-6.2345920">
        <ele>9.2</ele>
        <time>2021-07-21T10:45:13Z</time>
      </trkpt>
      <trkpt lat="43.5643710" lon="-6.2347390">
        <ele>9.2</ele>
        <time>2021-07-21T10:45:19Z</time>
      </trkpt>
      <trkpt lat="43.5644010" lon="-6.2348100">
        <ele>9.6</ele>
        <time>2021-07-21T10:45:22Z</time>
      </trkpt>
      <trkpt lat="43.5644210" lon="-6.2348280">
        <ele>10.0</ele>
        <time>2021-07-21T10:45:23Z</time>
      </trkpt>
      <trkpt lat="43.5644420" lon="-6.2348490">
        <ele>10.4</ele>
        <time>2021-07-21T10:45:24Z</time>
      </trkpt>
      <trkpt lat="43.5644610" lon="-6.2348780">
        <ele>10.8</ele>
        <time>2021-07-21T10:45:25Z</time>
      </trkpt>
      <trkpt lat="43.5644800" lon="-6.2349080">
        <ele>11.2</ele>
        <time>2021-07-21T10:45:26Z</time>
      </trkpt>
      <trkpt lat="43.5645980" lon="-6.2350870">
        <ele>11.6</ele>
        <time>2021-07-21T10:45:33Z</time>
      </trkpt>
      <trkpt lat="43.5646130" lon="-6.2351120">
        <ele>12.0</ele>
        <time>2021-07-21T10:45:34Z</time>
      </trkpt>
      <trkpt lat="43.5646300" lon="-6.2351380">
        <ele>12.4</ele>
        <time>2021-07-21T10:45:35Z</time>
      </trkpt>
      <trkpt lat="43.5646430" lon="-6.2351670">
        <ele>13.2</ele>
        <time>2021-07-21T10:45:36Z</time>
      </trkpt>
      <trkpt lat="43.5647090" lon="-6.2353060">
        <ele>13.2</ele>
        <time>2021-07-21T10:45:41Z</time>
      </trkpt>
      <trkpt lat="43.5647250" lon="-6.2353670">
        <ele>13.6</ele>
        <time>2021-07-21T10:45:43Z</time>
      </trkpt>
      <trkpt lat="43.5647330" lon="-6.2353970">
        <ele>14.0</ele>
        <time>2021-07-21T10:45:44Z</time>
      </trkpt>
      <trkpt lat="43.5647390" lon="-6.2354270">
        <ele>14.6</ele>
        <time>2021-07-21T10:45:45Z</time>
      </trkpt>
      <trkpt lat="43.5647460" lon="-6.2354540">
        <ele>15.0</ele>
        <time>2021-07-21T10:45:46Z</time>
      </trkpt>
      <trkpt lat="43.5647520" lon="-6.2354830">
        <ele>15.4</ele>
        <time>2021-07-21T10:45:47Z</time>
      </trkpt>
      <trkpt lat="43.5647700" lon="-6.2356040">
        <ele>15.4</ele>
        <time>2021-07-21T10:45:51Z</time>
      </trkpt>
      <trkpt lat="43.5647850" lon="-6.2357950">
        <ele>15.8</ele>
        <time>2021-07-21T10:45:57Z</time>
      </trkpt>
      <trkpt lat="43.5647900" lon="-6.2358260">
        <ele>16.2</ele>
        <time>2021-07-21T10:45:58Z</time>
      </trkpt>
      <trkpt lat="43.5647950" lon="-6.2358580">
        <ele>16.6</ele>
        <time>2021-07-21T10:45:59Z</time>
      </trkpt>
      <trkpt lat="43.5647990" lon="-6.2358860">
        <ele>17.4</ele>
        <time>2021-07-21T10:46:00Z</time>
      </trkpt>
      <trkpt lat="43.5648330" lon="-6.2361630">
        <ele>17.4</ele>
        <time>2021-07-21T10:46:09Z</time>
      </trkpt>
      <trkpt lat="43.5648350" lon="-6.2361950">
        <ele>17.8</ele>
        <time>2021-07-21T10:46:10Z</time>
      </trkpt>
      <trkpt lat="43.5648410" lon="-6.2362230">
        <ele>18.2</ele>
        <time>2021-07-21T10:46:11Z</time>
      </trkpt>
      <trkpt lat="43.5648450" lon="-6.2362500">
        <ele>18.6</ele>
        <time>2021-07-21T10:46:12Z</time>
      </trkpt>
      <trkpt lat="43.5648490" lon="-6.2362790">
        <ele>19.0</ele>
        <time>2021-07-21T10:46:13Z</time>
      </trkpt>
      <trkpt lat="43.5648540" lon="-6.2363100">
        <ele>19.6</ele>
        <time>2021-07-21T10:46:14Z</time>
      </trkpt>
      <trkpt lat="43.5648670" lon="-6.2364290">
        <ele>19.6</ele>
        <time>2021-07-21T10:46:18Z</time>
      </trkpt>
      <trkpt lat="43.5648910" lon="-6.2366160">
        <ele>20.0</ele>
        <time>2021-07-21T10:46:24Z</time>
      </trkpt>
      <trkpt lat="43.5648940" lon="-6.2366450">
        <ele>20.8</ele>
        <time>2021-07-21T10:46:25Z</time>
      </trkpt>
      <trkpt lat="43.5648960" lon="-6.2366750">
        <ele>21.2</ele>
        <time>2021-07-21T10:46:26Z</time>
      </trkpt>
      <trkpt lat="43.5649010" lon="-6.2367050">
        <ele>21.8</ele>
        <time>2021-07-21T10:46:27Z</time>
      </trkpt>
      <trkpt lat="43.5649390" lon="-6.2369780">
        <ele>21.8</ele>
        <time>2021-07-21T10:46:36Z</time>
      </trkpt>
      <trkpt lat="43.5649420" lon="-6.2370080">
        <ele>22.2</ele>
        <time>2021-07-21T10:46:37Z</time>
      </trkpt>
      <trkpt lat="43.5649450" lon="-6.2370340">
        <ele>22.6</ele>
        <time>2021-07-21T10:46:38Z</time>
      </trkpt>
      <trkpt lat="43.5649470" lon="-6.2370630">
        <ele>23.0</ele>
        <time>2021-07-21T10:46:39Z</time>
      </trkpt>
      <trkpt lat="43.5649460" lon="-6.2370890">
        <ele>23.4</ele>
        <time>2021-07-21T10:46:40Z</time>
      </trkpt>
      <trkpt lat="43.5649490" lon="-6.2371140">
        <ele>23.8</ele>
        <time>2021-07-21T10:46:41Z</time>
      </trkpt>
      <trkpt lat="43.5649630" lon="-6.2371900">
        <ele>23.8</ele>
        <time>2021-07-21T10:46:44Z</time>
      </trkpt>
      <trkpt lat="43.5649790" lon="-6.2373320">
        <ele>23.8</ele>
        <time>2021-07-21T10:46:52Z</time>
      </trkpt>
      <trkpt lat="43.5649730" lon="-6.2373870">
        <ele>23.8</ele>
        <time>2021-07-21T10:47:49Z</time>
      </trkpt>
      <trkpt lat="43.5649730" lon="-6.2373990">
        <ele>23.8</ele>
        <time>2021-07-21T10:47:50Z</time>
      </trkpt>
      <trkpt lat="43.5649800" lon="-6.2374460">
        <ele>23.8</ele>
        <time>2021-07-21T10:47:52Z</time>
      </trkpt>
      <trkpt lat="43.5649870" lon="-6.2375060">
        <ele>24.2</ele>
        <time>2021-07-21T10:47:54Z</time>
      </trkpt>
      <trkpt lat="43.5649920" lon="-6.2375350">
        <ele>24.6</ele>
        <time>2021-07-21T10:47:55Z</time>
      </trkpt>
      <trkpt lat="43.5649920" lon="-6.2375630">
        <ele>25.0</ele>
        <time>2021-07-21T10:47:56Z</time>
      </trkpt>
      <trkpt lat="43.5649930" lon="-6.2375920">
        <ele>25.4</ele>
        <time>2021-07-21T10:47:57Z</time>
      </trkpt>
      <trkpt lat="43.5649890" lon="-6.2376200">
        <ele>25.8</ele>
        <time>2021-07-21T10:47:58Z</time>
      </trkpt>
      <trkpt lat="43.5649850" lon="-6.2376500">
        <ele>25.8</ele>
        <time>2021-07-21T10:47:59Z</time>
      </trkpt>
      <trkpt lat="43.5649440" lon="-6.2378020">
        <ele>25.8</ele>
        <time>2021-07-21T10:48:04Z</time>
      </trkpt>
      <trkpt lat="43.5649230" lon="-6.2378630">
        <ele>26.2</ele>
        <time>2021-07-21T10:48:06Z</time>
      </trkpt>
      <trkpt lat="43.5649100" lon="-6.2378880">
        <ele>26.6</ele>
        <time>2021-07-21T10:48:07Z</time>
      </trkpt>
      <trkpt lat="43.5648970" lon="-6.2379130">
        <ele>27.0</ele>
        <time>2021-07-21T10:48:08Z</time>
      </trkpt>
      <trkpt lat="43.5648900" lon="-6.2379380">
        <ele>27.4</ele>
        <time>2021-07-21T10:48:09Z</time>
      </trkpt>
      <trkpt lat="43.5648760" lon="-6.2379650">
        <ele>27.8</ele>
        <time>2021-07-21T10:48:10Z</time>
      </trkpt>
      <trkpt lat="43.5648350" lon="-6.2380420">
        <ele>27.8</ele>
        <time>2021-07-21T10:48:13Z</time>
      </trkpt>
      <trkpt lat="43.5647490" lon="-6.2381770">
        <ele>27.8</ele>
        <time>2021-07-21T10:48:19Z</time>
      </trkpt>
      <trkpt lat="43.5647200" lon="-6.2382180">
        <ele>28.2</ele>
        <time>2021-07-21T10:48:21Z</time>
      </trkpt>
      <trkpt lat="43.5647040" lon="-6.2382350">
        <ele>28.6</ele>
        <time>2021-07-21T10:48:22Z</time>
      </trkpt>
      <trkpt lat="43.5646870" lon="-6.2382560">
        <ele>29.0</ele>
        <time>2021-07-21T10:48:23Z</time>
      </trkpt>
      <trkpt lat="43.5646720" lon="-6.2382810">
        <ele>29.6</ele>
        <time>2021-07-21T10:48:24Z</time>
      </trkpt>
      <trkpt lat="43.5646590" lon="-6.2383050">
        <ele>30.0</ele>
        <time>2021-07-21T10:48:25Z</time>
      </trkpt>
      <trkpt lat="43.5645740" lon="-6.2384470">
        <ele>30.0</ele>
        <time>2021-07-21T10:48:31Z</time>
      </trkpt>
      <trkpt lat="43.5645160" lon="-6.2385400">
        <ele>30.4</ele>
        <time>2021-07-21T10:48:36Z</time>
      </trkpt>
      <trkpt lat="43.5645090" lon="-6.2385650">
        <ele>30.8</ele>
        <time>2021-07-21T10:48:37Z</time>
      </trkpt>
      <trkpt lat="43.5645000" lon="-6.2385900">
        <ele>31.2</ele>
        <time>2021-07-21T10:48:38Z</time>
      </trkpt>
      <trkpt lat="43.5644880" lon="-6.2386180">
        <ele>31.6</ele>
        <time>2021-07-21T10:48:39Z</time>
      </trkpt>
      <trkpt lat="43.5644710" lon="-6.2386450">
        <ele>32.0</ele>
        <time>2021-07-21T10:48:40Z</time>
      </trkpt>
      <trkpt lat="43.5644190" lon="-6.2387470">
        <ele>32.0</ele>
        <time>2021-07-21T10:48:45Z</time>
      </trkpt>
      <trkpt lat="43.5643280" lon="-6.2388240">
        <ele>32.4</ele>
        <time>2021-07-21T10:48:50Z</time>
      </trkpt>
      <trkpt lat="43.5643170" lon="-6.2388480">
        <ele>32.8</ele>
        <time>2021-07-21T10:48:51Z</time>
      </trkpt>
      <trkpt lat="43.5643010" lon="-6.2388750">
        <ele>33.2</ele>
        <time>2021-07-21T10:48:52Z</time>
      </trkpt>
      <trkpt lat="43.5642840" lon="-6.2389020">
        <ele>34.2</ele>
        <time>2021-07-21T10:48:53Z</time>
      </trkpt>
      <trkpt lat="43.5642210" lon="-6.2390480">
        <ele>34.2</ele>
        <time>2021-07-21T10:48:58Z</time>
      </trkpt>
      <trkpt lat="43.5641670" lon="-6.2391900">
        <ele>34.6</ele>
        <time>2021-07-21T10:49:02Z</time>
      </trkpt>
      <trkpt lat="43.5641500" lon="-6.2392260">
        <ele>35.0</ele>
        <time>2021-07-21T10:49:03Z</time>
      </trkpt>
      <trkpt lat="43.5641410" lon="-6.2392620">
        <ele>35.4</ele>
        <time>2021-07-21T10:49:04Z</time>
      </trkpt>
      <trkpt lat="43.5641310" lon="-6.2392980">
        <ele>35.8</ele>
        <time>2021-07-21T10:49:05Z</time>
      </trkpt>
      <trkpt lat="43.5641190" lon="-6.2393240">
        <ele>36.2</ele>
        <time>2021-07-21T10:49:06Z</time>
      </trkpt>
      <trkpt lat="43.5640480" lon="-6.2394790">
        <ele>36.2</ele>
        <time>2021-07-21T10:49:12Z</time>
      </trkpt>
      <trkpt lat="43.5640040" lon="-6.2395730">
        <ele>36.6</ele>
        <time>2021-07-21T10:49:16Z</time>
      </trkpt>
      <trkpt lat="43.5639930" lon="-6.2395970">
        <ele>37.0</ele>
        <time>2021-07-21T10:49:17Z</time>
      </trkpt>
      <trkpt lat="43.5639810" lon="-6.2396190">
        <ele>38.0</ele>
        <time>2021-07-21T10:49:18Z</time>
      </trkpt>
      <trkpt lat="43.5639630" lon="-6.2396380">
        <ele>38.4</ele>
        <time>2021-07-21T10:49:19Z</time>
      </trkpt>
      <trkpt lat="43.5638920" lon="-6.2397930">
        <ele>38.4</ele>
        <time>2021-07-21T10:49:25Z</time>
      </trkpt>
      <trkpt lat="43.5638370" lon="-6.2399300">
        <ele>38.8</ele>
        <time>2021-07-21T10:49:30Z</time>
      </trkpt>
      <trkpt lat="43.5638260" lon="-6.2399550">
        <ele>39.2</ele>
        <time>2021-07-21T10:49:31Z</time>
      </trkpt>
      <trkpt lat="43.5638170" lon="-6.2399770">
        <ele>39.6</ele>
        <time>2021-07-21T10:49:32Z</time>
      </trkpt>
      <trkpt lat="43.5638050" lon="-6.2399990">
        <ele>40.0</ele>
        <time>2021-07-21T10:49:33Z</time>
      </trkpt>
      <trkpt lat="43.5637930" lon="-6.2400210">
        <ele>40.4</ele>
        <time>2021-07-21T10:49:34Z</time>
      </trkpt>
      <trkpt lat="43.5637090" lon="-6.2401710">
        <ele>40.4</ele>
        <time>2021-07-21T10:49:41Z</time>
      </trkpt>
      <trkpt lat="43.5636810" lon="-6.2402210">
        <ele>41.2</ele>
        <time>2021-07-21T10:49:43Z</time>
      </trkpt>
      <trkpt lat="43.5636710" lon="-6.2402480">
        <ele>41.6</ele>
        <time>2021-07-21T10:49:44Z</time>
      </trkpt>
      <trkpt lat="43.5636580" lon="-6.2402710">
        <ele>42.0</ele>
        <time>2021-07-21T10:49:45Z</time>
      </trkpt>
      <trkpt lat="43.5636440" lon="-6.2402910">
        <ele>42.4</ele>
        <time>2021-07-21T10:49:46Z</time>
      </trkpt>
      <trkpt lat="43.5636040" lon="-6.2403500">
        <ele>42.4</ele>
        <time>2021-07-21T10:49:49Z</time>
      </trkpt>
      <trkpt lat="43.5635010" lon="-6.2404410">
        <ele>42.4</ele>
        <time>2021-07-21T10:49:55Z</time>
      </trkpt>
      <trkpt lat="43.5634210" lon="-6.2404940">
        <ele>43.0</ele>
        <time>2021-07-21T10:49:58Z</time>
      </trkpt>
      <trkpt lat="43.5633940" lon="-6.2405070">
        <ele>43.4</ele>
        <time>2021-07-21T10:49:59Z</time>
      </trkpt>
      <trkpt lat="43.5633640" lon="-6.2405180">
        <ele>43.8</ele>
        <time>2021-07-21T10:50:00Z</time>
      </trkpt>
      <trkpt lat="43.5633390" lon="-6.2405300">
        <ele>44.2</ele>
        <time>2021-07-21T10:50:01Z</time>
      </trkpt>
      <trkpt lat="43.5633170" lon="-6.2405520">
        <ele>44.6</ele>
        <time>2021-07-21T10:50:02Z</time>
      </trkpt>
      <trkpt lat="43.5631900" lon="-6.2407020">
        <ele>44.6</ele>
        <time>2021-07-21T10:50:08Z</time>
      </trkpt>
      <trkpt lat="43.5631140" lon="-6.2407960">
        <ele>45.0</ele>
        <time>2021-07-21T10:50:12Z</time>
      </trkpt>
      <trkpt lat="43.5630940" lon="-6.2408220">
        <ele>45.4</ele>
        <time>2021-07-21T10:50:13Z</time>
      </trkpt>
      <trkpt lat="43.5630760" lon="-6.2408460">
        <ele>46.0</ele>
        <time>2021-07-21T10:50:14Z</time>
      </trkpt>
      <trkpt lat="43.5630550" lon="-6.2408660">
        <ele>46.4</ele>
        <time>2021-07-21T10:50:15Z</time>
      </trkpt>
      <trkpt lat="43.5630370" lon="-6.2408880">
        <ele>46.8</ele>
        <time>2021-07-21T10:50:16Z</time>
      </trkpt>
      <trkpt lat="43.5628990" lon="-6.2410590">
        <ele>47.2</ele>
        <time>2021-07-21T10:50:23Z</time>
      </trkpt>
      <trkpt lat="43.5628840" lon="-6.2410860">
        <ele>47.6</ele>
        <time>2021-07-21T10:50:24Z</time>
      </trkpt>
      <trkpt lat="43.5628670" lon="-6.2411120">
        <ele>48.0</ele>
        <time>2021-07-21T10:50:25Z</time>
      </trkpt>
      <trkpt lat="43.5628470" lon="-6.2411400">
        <ele>48.4</ele>
        <time>2021-07-21T10:50:26Z</time>
      </trkpt>
      <trkpt lat="43.5628260" lon="-6.2411690">
        <ele>48.8</ele>
        <time>2021-07-21T10:50:27Z</time>
      </trkpt>
      <trkpt lat="43.5626990" lon="-6.2412870">
        <ele>48.8</ele>
        <time>2021-07-21T10:50:33Z</time>
      </trkpt>
      <trkpt lat="43.5626810" lon="-6.2413150">
        <ele>49.2</ele>
        <time>2021-07-21T10:50:34Z</time>
      </trkpt>
      <trkpt lat="43.5626610" lon="-6.2413380">
        <ele>49.6</ele>
        <time>2021-07-21T10:50:35Z</time>
      </trkpt>
      <trkpt lat="43.5626390" lon="-6.2413630">
        <ele>50.0</ele>
        <time>2021-07-21T10:50:36Z</time>
      </trkpt>
      <trkpt lat="43.5626200" lon="-6.2413870">
        <ele>50.6</ele>
        <time>2021-07-21T10:50:37Z</time>
      </trkpt>
      <trkpt lat="43.5625960" lon="-6.2414070">
        <ele>51.0</ele>
        <time>2021-07-21T10:50:38Z</time>
      </trkpt>
      <trkpt lat="43.5625060" lon="-6.2414770">
        <ele>51.0</ele>
        <time>2021-07-21T10:50:42Z</time>
      </trkpt>
      <trkpt lat="43.5624070" lon="-6.2415610">
        <ele>51.4</ele>
        <time>2021-07-21T10:50:47Z</time>
      </trkpt>
      <trkpt lat="43.5623870" lon="-6.2415800">
        <ele>51.8</ele>
        <time>2021-07-21T10:50:48Z</time>
      </trkpt>
      <trkpt lat="43.5623690" lon="-6.2416010">
        <ele>52.2</ele>
        <time>2021-07-21T10:50:49Z</time>
      </trkpt>
      <trkpt lat="43.5623490" lon="-6.2416230">
        <ele>52.6</ele>
        <time>2021-07-21T10:50:50Z</time>
      </trkpt>
      <trkpt lat="43.5623250" lon="-6.2416400">
        <ele>53.0</ele>
        <time>2021-07-21T10:50:51Z</time>
      </trkpt>
      <trkpt lat="43.5622010" lon="-6.2416820">
        <ele>53.0</ele>
        <time>2021-07-21T10:50:56Z</time>
      </trkpt>
      <trkpt lat="43.5620810" lon="-6.2417340">
        <ele>53.4</ele>
        <time>2021-07-21T10:51:01Z</time>
      </trkpt>
      <trkpt lat="43.5620560" lon="-6.2417430">
        <ele>53.8</ele>
        <time>2021-07-21T10:51:02Z</time>
      </trkpt>
      <trkpt lat="43.5620250" lon="-6.2417510">
        <ele>54.2</ele>
        <time>2021-07-21T10:51:03Z</time>
      </trkpt>
      <trkpt lat="43.5620000" lon="-6.2417520">
        <ele>54.6</ele>
        <time>2021-07-21T10:51:04Z</time>
      </trkpt>
      <trkpt lat="43.5619690" lon="-6.2417530">
        <ele>55.0</ele>
        <time>2021-07-21T10:51:05Z</time>
      </trkpt>
      <trkpt lat="43.5618170" lon="-6.2417620">
        <ele>55.0</ele>
        <time>2021-07-21T10:51:10Z</time>
      </trkpt>
      <trkpt lat="43.5616620" lon="-6.2418350">
        <ele>55.4</ele>
        <time>2021-07-21T10:51:16Z</time>
      </trkpt>
      <trkpt lat="43.5616390" lon="-6.2418420">
        <ele>55.8</ele>
        <time>2021-07-21T10:51:17Z</time>
      </trkpt>
      <trkpt lat="43.5616150" lon="-6.2418530">
        <ele>56.2</ele>
        <time>2021-07-21T10:51:18Z</time>
      </trkpt>
      <trkpt lat="43.5615920" lon="-6.2418650">
        <ele>56.6</ele>
        <time>2021-07-21T10:51:19Z</time>
      </trkpt>
      <trkpt lat="43.5615670" lon="-6.2418790">
        <ele>57.0</ele>
        <time>2021-07-21T10:51:20Z</time>
      </trkpt>
      <trkpt lat="43.5614510" lon="-6.2419580">
        <ele>57.0</ele>
        <time>2021-07-21T10:51:25Z</time>
      </trkpt>
      <trkpt lat="43.5613420" lon="-6.2420440">
        <ele>57.4</ele>
        <time>2021-07-21T10:51:30Z</time>
      </trkpt>
      <trkpt lat="43.5613190" lon="-6.2420610">
        <ele>57.8</ele>
        <time>2021-07-21T10:51:31Z</time>
      </trkpt>
      <trkpt lat="43.5612960" lon="-6.2420790">
        <ele>58.2</ele>
        <time>2021-07-21T10:51:32Z</time>
      </trkpt>
      <trkpt lat="43.5612740" lon="-6.2420960">
        <ele>58.6</ele>
        <time>2021-07-21T10:51:33Z</time>
      </trkpt>
      <trkpt lat="43.5612530" lon="-6.2421130">
        <ele>59.0</ele>
        <time>2021-07-21T10:51:34Z</time>
      </trkpt>
      <trkpt lat="43.5610380" lon="-6.2422940">
        <ele>59.0</ele>
        <time>2021-07-21T10:51:44Z</time>
      </trkpt>
      <trkpt lat="43.5610000" lon="-6.2423320">
        <ele>59.4</ele>
        <time>2021-07-21T10:51:46Z</time>
      </trkpt>
      <trkpt lat="43.5609800" lon="-6.2423480">
        <ele>59.8</ele>
        <time>2021-07-21T10:51:47Z</time>
      </trkpt>
      <trkpt lat="43.5609590" lon="-6.2423670">
        <ele>60.2</ele>
        <time>2021-07-21T10:51:48Z</time>
      </trkpt>
      <trkpt lat="43.5609400" lon="-6.2423900">
        <ele>60.6</ele>
        <time>2021-07-21T10:51:49Z</time>
      </trkpt>
      <trkpt lat="43.5609220" lon="-6.2424120">
        <ele>61.2</ele>
        <time>2021-07-21T10:51:50Z</time>
      </trkpt>
      <trkpt lat="43.5608670" lon="-6.2425300">
        <ele>61.2</ele>
        <time>2021-07-21T10:51:54Z</time>
      </trkpt>
      <trkpt lat="43.5608130" lon="-6.2427140">
        <ele>61.6</ele>
        <time>2021-07-21T10:52:00Z</time>
      </trkpt>
      <trkpt lat="43.5608060" lon="-6.2427440">
        <ele>62.0</ele>
        <time>2021-07-21T10:52:01Z</time>
      </trkpt>
      <trkpt lat="43.5608020" lon="-6.2427740">
        <ele>62.4</ele>
        <time>2021-07-21T10:52:02Z</time>
      </trkpt>
      <trkpt lat="43.5608020" lon="-6.2428070">
        <ele>62.8</ele>
        <time>2021-07-21T10:52:03Z</time>
      </trkpt>
      <trkpt lat="43.5608030" lon="-6.2428410">
        <ele>63.2</ele>
        <time>2021-07-21T10:52:04Z</time>
      </trkpt>
      <trkpt lat="43.5608170" lon="-6.2430190">
        <ele>63.2</ele>
        <time>2021-07-21T10:52:10Z</time>
      </trkpt>
      <trkpt lat="43.5608420" lon="-6.2430910">
        <ele>63.6</ele>
        <time>2021-07-21T10:52:13Z</time>
      </trkpt>
      <trkpt lat="43.5608560" lon="-6.2431120">
        <ele>64.0</ele>
        <time>2021-07-21T10:52:14Z</time>
      </trkpt>
      <trkpt lat="43.5608710" lon="-6.2431280">
        <ele>64.4</ele>
        <time>2021-07-21T10:52:15Z</time>
      </trkpt>
      <trkpt lat="43.5608870" lon="-6.2431390">
        <ele>64.8</ele>
        <time>2021-07-21T10:52:16Z</time>
      </trkpt>
      <trkpt lat="43.5609050" lon="-6.2431500">
        <ele>65.2</ele>
        <time>2021-07-21T10:52:17Z</time>
      </trkpt>
      <trkpt lat="43.5610260" lon="-6.2431570">
        <ele>65.2</ele>
        <time>2021-07-21T10:52:23Z</time>
      </trkpt>
      <trkpt lat="43.5610440" lon="-6.2431520">
        <ele>65.6</ele>
        <time>2021-07-21T10:52:24Z</time>
      </trkpt>
      <trkpt lat="43.5610630" lon="-6.2431450">
        <ele>66.0</ele>
        <time>2021-07-21T10:52:25Z</time>
      </trkpt>
      <trkpt lat="43.5610820" lon="-6.2431390">
        <ele>66.4</ele>
        <time>2021-07-21T10:52:26Z</time>
      </trkpt>
      <trkpt lat="43.5611000" lon="-6.2431300">
        <ele>66.8</ele>
        <time>2021-07-21T10:52:27Z</time>
      </trkpt>
      <trkpt lat="43.5611210" lon="-6.2431220">
        <ele>67.2</ele>
        <time>2021-07-21T10:52:28Z</time>
      </trkpt>
      <trkpt lat="43.5611540" lon="-6.2430950">
        <ele>67.2</ele>
        <time>2021-07-21T10:52:30Z</time>
      </trkpt>
      <trkpt lat="43.5612690" lon="-6.2430190">
        <ele>67.2</ele>
        <time>2021-07-21T10:52:37Z</time>
      </trkpt>
      <trkpt lat="43.5612840" lon="-6.2430100">
        <ele>67.6</ele>
        <time>2021-07-21T10:52:38Z</time>
      </trkpt>
      <trkpt lat="43.5613020" lon="-6.2430040">
        <ele>68.2</ele>
        <time>2021-07-21T10:52:39Z</time>
      </trkpt>
      <trkpt lat="43.5613180" lon="-6.2429970">
        <ele>68.6</ele>
        <time>2021-07-21T10:52:40Z</time>
      </trkpt>
      <trkpt lat="43.5613360" lon="-6.2429860">
        <ele>69.0</ele>
        <time>2021-07-21T10:52:41Z</time>
      </trkpt>
      <trkpt lat="43.5613550" lon="-6.2429770">
        <ele>69.4</ele>
        <time>2021-07-21T10:52:42Z</time>
      </trkpt>
      <trkpt lat="43.5614090" lon="-6.2429360">
        <ele>69.4</ele>
        <time>2021-07-21T10:52:45Z</time>
      </trkpt>
      <trkpt lat="43.5615040" lon="-6.2428680">
        <ele>69.4</ele>
        <time>2021-07-21T10:52:51Z</time>
      </trkpt>
      <trkpt lat="43.5615750" lon="-6.2428260">
        <ele>69.8</ele>
        <time>2021-07-21T10:52:55Z</time>
      </trkpt>
      <trkpt lat="43.5615930" lon="-6.2428150">
        <ele>70.2</ele>
        <time>2021-07-21T10:52:56Z</time>
      </trkpt>
      <trkpt lat="43.5616090" lon="-6.2428020">
        <ele>70.6</ele>
        <time>2021-07-21T10:52:57Z</time>
      </trkpt>
      <trkpt lat="43.5616270" lon="-6.2427890">
        <ele>71.0</ele>
        <time>2021-07-21T10:52:58Z</time>
      </trkpt>
      <trkpt lat="43.5616430" lon="-6.2427790">
        <ele>71.4</ele>
        <time>2021-07-21T10:52:59Z</time>
      </trkpt>
      <trkpt lat="43.5617700" lon="-6.2427340">
        <ele>71.4</ele>
        <time>2021-07-21T10:53:05Z</time>
      </trkpt>
      <trkpt lat="43.5618950" lon="-6.2426700">
        <ele>71.8</ele>
        <time>2021-07-21T10:53:11Z</time>
      </trkpt>
      <trkpt lat="43.5619170" lon="-6.2426650">
        <ele>72.2</ele>
        <time>2021-07-21T10:53:12Z</time>
      </trkpt>
      <trkpt lat="43.5619400" lon="-6.2426560">
        <ele>72.6</ele>
        <time>2021-07-21T10:53:13Z</time>
      </trkpt>
      <trkpt lat="43.5619600" lon="-6.2426460">
        <ele>73.0</ele>
        <time>2021-07-21T10:53:14Z</time>
      </trkpt>
      <trkpt lat="43.5619790" lon="-6.2426380">
        <ele>73.4</ele>
        <time>2021-07-21T10:53:15Z</time>
      </trkpt>
      <trkpt lat="43.5621130" lon="-6.2425790">
        <ele>73.4</ele>
        <time>2021-07-21T10:53:22Z</time>
      </trkpt>
      <trkpt lat="43.5621660" lon="-6.2425520">
        <ele>74.2</ele>
        <time>2021-07-21T10:53:25Z</time>
      </trkpt>
      <trkpt lat="43.5621840" lon="-6.2425390">
        <ele>74.6</ele>
        <time>2021-07-21T10:53:26Z</time>
      </trkpt>
      <trkpt lat="43.5622030" lon="-6.2425270">
        <ele>75.0</ele>
        <time>2021-07-21T10:53:27Z</time>
      </trkpt>
      <trkpt lat="43.5622200" lon="-6.2425180">
        <ele>75.4</ele>
        <time>2021-07-21T10:53:28Z</time>
      </trkpt>
      <trkpt lat="43.5622380" lon="-6.2425090">
        <ele>75.4</ele>
        <time>2021-07-21T10:53:29Z</time>
      </trkpt>
      <trkpt lat="43.5623710" lon="-6.2424590">
        <ele>75.4</ele>
        <time>2021-07-21T10:53:36Z</time>
      </trkpt>
      <trkpt lat="43.5624440" lon="-6.2424440">
        <ele>76.0</ele>
        <time>2021-07-21T10:53:40Z</time>
      </trkpt>
      <trkpt lat="43.5624610" lon="-6.2424400">
        <ele>76.4</ele>
        <time>2021-07-21T10:53:41Z</time>
      </trkpt>
      <trkpt lat="43.5624770" lon="-6.2424350">
        <ele>76.8</ele>
        <time>2021-07-21T10:53:42Z</time>
      </trkpt>
      <trkpt lat="43.5624940" lon="-6.2424270">
        <ele>77.2</ele>
        <time>2021-07-21T10:53:43Z</time>
      </trkpt>
      <trkpt lat="43.5625090" lon="-6.2424220">
        <ele>77.6</ele>
        <time>2021-07-21T10:53:44Z</time>
      </trkpt>
      <trkpt lat="43.5626710" lon="-6.2423960">
        <ele>77.6</ele>
        <time>2021-07-21T10:53:52Z</time>
      </trkpt>
      <trkpt lat="43.5627350" lon="-6.2423800">
        <ele>78.0</ele>
        <time>2021-07-21T10:53:55Z</time>
      </trkpt>
      <trkpt lat="43.5627560" lon="-6.2423790">
        <ele>78.4</ele>
        <time>2021-07-21T10:53:56Z</time>
      </trkpt>
      <trkpt lat="43.5627800" lon="-6.2423770">
        <ele>78.8</ele>
        <time>2021-07-21T10:53:57Z</time>
      </trkpt>
      <trkpt lat="43.5628040" lon="-6.2423740">
        <ele>79.2</ele>
        <time>2021-07-21T10:53:58Z</time>
      </trkpt>
      <trkpt lat="43.5628280" lon="-6.2423720">
        <ele>79.8</ele>
        <time>2021-07-21T10:53:59Z</time>
      </trkpt>
      <trkpt lat="43.5629650" lon="-6.2423410">
        <ele>79.8</ele>
        <time>2021-07-21T10:54:05Z</time>
      </trkpt>
      <trkpt lat="43.5630510" lon="-6.2423040">
        <ele>80.2</ele>
        <time>2021-07-21T10:54:10Z</time>
      </trkpt>
      <trkpt lat="43.5630700" lon="-6.2422980">
        <ele>80.6</ele>
        <time>2021-07-21T10:54:11Z</time>
      </trkpt>
      <trkpt lat="43.5630870" lon="-6.2422880">
        <ele>81.0</ele>
        <time>2021-07-21T10:54:12Z</time>
      </trkpt>
      <trkpt lat="43.5631050" lon="-6.2422800">
        <ele>81.4</ele>
        <time>2021-07-21T10:54:13Z</time>
      </trkpt>
      <trkpt lat="43.5631220" lon="-6.2422720">
        <ele>81.8</ele>
        <time>2021-07-21T10:54:14Z</time>
      </trkpt>
      <trkpt lat="43.5632130" lon="-6.2422330">
        <ele>81.8</ele>
        <time>2021-07-21T10:54:19Z</time>
      </trkpt>
      <trkpt lat="43.5632770" lon="-6.2422150">
        <ele>82.2</ele>
        <time>2021-07-21T10:54:22Z</time>
      </trkpt>
      <trkpt lat="43.5632980" lon="-6.2422100">
        <ele>82.6</ele>
        <time>2021-07-21T10:54:23Z</time>
      </trkpt>
      <trkpt lat="43.5633200" lon="-6.2422060">
        <ele>83.0</ele>
        <time>2021-07-21T10:54:24Z</time>
      </trkpt>
      <trkpt lat="43.5633420" lon="-6.2422040">
        <ele>83.6</ele>
        <time>2021-07-21T10:54:25Z</time>
      </trkpt>
      <trkpt lat="43.5633630" lon="-6.2422010">
        <ele>84.0</ele>
        <time>2021-07-21T10:54:26Z</time>
      </trkpt>
      <trkpt lat="43.5633820" lon="-6.2421950">
        <ele>84.0</ele>
        <time>2021-07-21T10:54:27Z</time>
      </trkpt>
      <trkpt lat="43.5635000" lon="-6.2421780">
        <ele>84.0</ele>
        <time>2021-07-21T10:54:33Z</time>
      </trkpt>
      <trkpt lat="43.5635840" lon="-6.2421810">
        <ele>84.4</ele>
        <time>2021-07-21T10:54:37Z</time>
      </trkpt>
      <trkpt lat="43.5636050" lon="-6.2421830">
        <ele>84.8</ele>
        <time>2021-07-21T10:54:38Z</time>
      </trkpt>
      <trkpt lat="43.5636270" lon="-6.2421850">
        <ele>85.6</ele>
        <time>2021-07-21T10:54:39Z</time>
      </trkpt>
      <trkpt lat="43.5636490" lon="-6.2421870">
        <ele>86.0</ele>
        <time>2021-07-21T10:54:40Z</time>
      </trkpt>
      <trkpt lat="43.5636720" lon="-6.2421890">
        <ele>86.0</ele>
        <time>2021-07-21T10:54:41Z</time>
      </trkpt>
      <trkpt lat="43.5638340" lon="-6.2421430">
        <ele>86.0</ele>
        <time>2021-07-21T10:54:50Z</time>
      </trkpt>
      <trkpt lat="43.5639230" lon="-6.2420630">
        <ele>86.0</ele>
        <time>2021-07-21T10:54:56Z</time>
      </trkpt>
      <trkpt lat="43.5639700" lon="-6.2420180">
        <ele>86.0</ele>
        <time>2021-07-21T10:54:59Z</time>
      </trkpt>
      <trkpt lat="43.5639850" lon="-6.2419980">
        <ele>86.0</ele>
        <time>2021-07-21T10:55:01Z</time>
      </trkpt>
      <trkpt lat="43.5640140" lon="-6.2419780">
        <ele>86.0</ele>
        <time>2021-07-21T10:59:47Z</time>
      </trkpt>
      <trkpt lat="43.5640320" lon="-6.2419690">
        <ele>86.0</ele>
        <time>2021-07-21T10:59:48Z</time>
      </trkpt>
      <trkpt lat="43.5641060" lon="-6.2419610">
        <ele>86.0</ele>
        <time>2021-07-21T10:59:51Z</time>
      </trkpt>
      <trkpt lat="43.5641820" lon="-6.2419990">
        <ele>86.0</ele>
        <time>2021-07-21T10:59:55Z</time>
      </trkpt>
      <trkpt lat="43.5642050" lon="-6.2420180">
        <ele>86.0</ele>
        <time>2021-07-21T10:59:56Z</time>
      </trkpt>
      <trkpt lat="43.5642770" lon="-6.2421210">
        <ele>86.0</ele>
        <time>2021-07-21T11:00:01Z</time>
      </trkpt>
      <trkpt lat="43.5643340" lon="-6.2422580">
        <ele>86.0</ele>
        <time>2021-07-21T11:00:05Z</time>
      </trkpt>
      <trkpt lat="43.5643470" lon="-6.2423350">
        <ele>86.4</ele>
        <time>2021-07-21T11:00:07Z</time>
      </trkpt>
      <trkpt lat="43.5643450" lon="-6.2423710">
        <ele>86.8</ele>
        <time>2021-07-21T11:00:08Z</time>
      </trkpt>
      <trkpt lat="43.5643450" lon="-6.2424080">
        <ele>87.4</ele>
        <time>2021-07-21T11:00:09Z</time>
      </trkpt>
      <trkpt lat="43.5643390" lon="-6.2424450">
        <ele>87.8</ele>
        <time>2021-07-21T11:00:10Z</time>
      </trkpt>
      <trkpt lat="43.5643260" lon="-6.2424770">
        <ele>88.2</ele>
        <time>2021-07-21T11:00:11Z</time>
      </trkpt>
      <trkpt lat="43.5642380" lon="-6.2426820">
        <ele>88.2</ele>
        <time>2021-07-21T11:00:17Z</time>
      </trkpt>
      <trkpt lat="43.5641800" lon="-6.2428270">
        <ele>88.2</ele>
        <time>2021-07-21T11:00:21Z</time>
      </trkpt>
      <trkpt lat="43.5641670" lon="-6.2429440">
        <ele>88.2</ele>
        <time>2021-07-21T11:00:24Z</time>
      </trkpt>
      <trkpt lat="43.5641680" lon="-6.2430470">
        <ele>88.2</ele>
        <time>2021-07-21T11:00:27Z</time>
      </trkpt>
      <trkpt lat="43.5641630" lon="-6.2431370">
        <ele>88.6</ele>
        <time>2021-07-21T11:00:30Z</time>
      </trkpt>
      <trkpt lat="43.5641610" lon="-6.2431670">
        <ele>89.0</ele>
        <time>2021-07-21T11:00:31Z</time>
      </trkpt>
      <trkpt lat="43.5641590" lon="-6.2431960">
        <ele>89.4</ele>
        <time>2021-07-21T11:00:32Z</time>
      </trkpt>
      <trkpt lat="43.5641590" lon="-6.2432250">
        <ele>90.0</ele>
        <time>2021-07-21T11:00:33Z</time>
      </trkpt>
      <trkpt lat="43.5641570" lon="-6.2432540">
        <ele>90.4</ele>
        <time>2021-07-21T11:00:34Z</time>
      </trkpt>
      <trkpt lat="43.5641390" lon="-6.2433720">
        <ele>90.8</ele>
        <time>2021-07-21T11:00:38Z</time>
      </trkpt>
      <trkpt lat="43.5641340" lon="-6.2434030">
        <ele>91.2</ele>
        <time>2021-07-21T11:00:39Z</time>
      </trkpt>
      <trkpt lat="43.5641280" lon="-6.2434380">
        <ele>91.6</ele>
        <time>2021-07-21T11:00:40Z</time>
      </trkpt>
      <trkpt lat="43.5641210" lon="-6.2434760">
        <ele>92.0</ele>
        <time>2021-07-21T11:00:41Z</time>
      </trkpt>
      <trkpt lat="43.5641130" lon="-6.2435160">
        <ele>92.4</ele>
        <time>2021-07-21T11:00:42Z</time>
      </trkpt>
      <trkpt lat="43.5640600" lon="-6.2437380">
        <ele>92.4</ele>
        <time>2021-07-21T11:00:48Z</time>
      </trkpt>
      <trkpt lat="43.5640160" lon="-6.2438450">
        <ele>92.4</ele>
        <time>2021-07-21T11:00:53Z</time>
      </trkpt>
      <trkpt lat="43.5639870" lon="-6.2438670">
        <ele>92.4</ele>
        <time>2021-07-21T11:00:55Z</time>
      </trkpt>
      <trkpt lat="43.5639770" lon="-6.2438880">
        <ele>92.4</ele>
        <time>2021-07-21T11:00:57Z</time>
      </trkpt>
      <trkpt lat="43.5639790" lon="-6.2439260">
        <ele>92.4</ele>
        <time>2021-07-21T11:01:47Z</time>
      </trkpt>
      <trkpt lat="43.5639850" lon="-6.2439470">
        <ele>92.4</ele>
        <time>2021-07-21T11:01:48Z</time>
      </trkpt>
      <trkpt lat="43.5639900" lon="-6.2440510">
        <ele>92.4</ele>
        <time>2021-07-21T11:01:51Z</time>
      </trkpt>
      <trkpt lat="43.5639770" lon="-6.2441390">
        <ele>92.4</ele>
        <time>2021-07-21T11:01:53Z</time>
      </trkpt>
      <trkpt lat="43.5639540" lon="-6.2442230">
        <ele>92.8</ele>
        <time>2021-07-21T11:01:55Z</time>
      </trkpt>
      <trkpt lat="43.5639410" lon="-6.2442690">
        <ele>93.2</ele>
        <time>2021-07-21T11:01:56Z</time>
      </trkpt>
      <trkpt lat="43.5639260" lon="-6.2443140">
        <ele>93.6</ele>
        <time>2021-07-21T11:01:57Z</time>
      </trkpt>
      <trkpt lat="43.5639140" lon="-6.2443610">
        <ele>94.0</ele>
        <time>2021-07-21T11:01:58Z</time>
      </trkpt>
      <trkpt lat="43.5639000" lon="-6.2444070">
        <ele>94.4</ele>
        <time>2021-07-21T11:01:59Z</time>
      </trkpt>
      <trkpt lat="43.5638800" lon="-6.2444940">
        <ele>94.4</ele>
        <time>2021-07-21T11:02:01Z</time>
      </trkpt>
      <trkpt lat="43.5638130" lon="-6.2447480">
        <ele>94.4</ele>
        <time>2021-07-21T11:02:08Z</time>
      </trkpt>
      <trkpt lat="43.5637590" lon="-6.2449500">
        <ele>94.4</ele>
        <time>2021-07-21T11:02:13Z</time>
      </trkpt>
      <trkpt lat="43.5637340" lon="-6.2450370">
        <ele>94.4</ele>
        <time>2021-07-21T11:02:15Z</time>
      </trkpt>
      <trkpt lat="43.5636840" lon="-6.2452110">
        <ele>94.8</ele>
        <time>2021-07-21T11:02:19Z</time>
      </trkpt>
      <trkpt lat="43.5636740" lon="-6.2452580">
        <ele>95.4</ele>
        <time>2021-07-21T11:02:20Z</time>
      </trkpt>
      <trkpt lat="43.5636640" lon="-6.2453040">
        <ele>95.8</ele>
        <time>2021-07-21T11:02:21Z</time>
      </trkpt>
      <trkpt lat="43.5636540" lon="-6.2453510">
        <ele>96.2</ele>
        <time>2021-07-21T11:02:22Z</time>
      </trkpt>
      <trkpt lat="43.5636420" lon="-6.2453970">
        <ele>96.6</ele>
        <time>2021-07-21T11:02:23Z</time>
      </trkpt>
      <trkpt lat="43.5635920" lon="-6.2456320">
        <ele>96.6</ele>
        <time>2021-07-21T11:02:28Z</time>
      </trkpt>
      <trkpt lat="43.5635750" lon="-6.2457210">
        <ele>96.6</ele>
        <time>2021-07-21T11:02:30Z</time>
      </trkpt>
      <trkpt lat="43.5635280" lon="-6.2459430">
        <ele>97.0</ele>
        <time>2021-07-21T11:02:35Z</time>
      </trkpt>
      <trkpt lat="43.5635210" lon="-6.2459830">
        <ele>97.4</ele>
        <time>2021-07-21T11:02:36Z</time>
      </trkpt>
      <trkpt lat="43.5635120" lon="-6.2460240">
        <ele>97.8</ele>
        <time>2021-07-21T11:02:37Z</time>
      </trkpt>
      <trkpt lat="43.5635010" lon="-6.2460650">
        <ele>98.2</ele>
        <time>2021-07-21T11:02:38Z</time>
      </trkpt>
      <trkpt lat="43.5634900" lon="-6.2461060">
        <ele>98.6</ele>
        <time>2021-07-21T11:02:39Z</time>
      </trkpt>
      <trkpt lat="43.5634270" lon="-6.2462990">
        <ele>98.6</ele>
        <time>2021-07-21T11:02:44Z</time>
      </trkpt>
      <trkpt lat="43.5633020" lon="-6.2466000">
        <ele>98.6</ele>
        <time>2021-07-21T11:02:51Z</time>
      </trkpt>
      <trkpt lat="43.5631160" lon="-6.2470190">
        <ele>98.6</ele>
        <time>2021-07-21T11:02:59Z</time>
      </trkpt>
      <trkpt lat="43.5630180" lon="-6.2472620">
        <ele>98.6</ele>
        <time>2021-07-21T11:03:05Z</time>
      </trkpt>
      <trkpt lat="43.5628820" lon="-6.2476040">
        <ele>98.6</ele>
        <time>2021-07-21T11:03:11Z</time>
      </trkpt>
      <trkpt lat="43.5628380" lon="-6.2477290">
        <ele>98.6</ele>
        <time>2021-07-21T11:03:13Z</time>
      </trkpt>
      <trkpt lat="43.5627240" lon="-6.2479070">
        <ele>98.6</ele>
        <time>2021-07-21T11:03:16Z</time>
      </trkpt>
      <trkpt lat="43.5626860" lon="-6.2479560">
        <ele>98.6</ele>
        <time>2021-07-21T11:03:17Z</time>
      </trkpt>
      <trkpt lat="43.5626340" lon="-6.2480430">
        <ele>98.6</ele>
        <time>2021-07-21T11:03:19Z</time>
      </trkpt>
      <trkpt lat="43.5625500" lon="-6.2482360">
        <ele>98.6</ele>
        <time>2021-07-21T11:03:23Z</time>
      </trkpt>
      <trkpt lat="43.5624640" lon="-6.2483980">
        <ele>98.6</ele>
        <time>2021-07-21T11:03:26Z</time>
      </trkpt>
      <trkpt lat="43.5623380" lon="-6.2486480">
        <ele>98.6</ele>
        <time>2021-07-21T11:03:31Z</time>
      </trkpt>
      <trkpt lat="43.5621860" lon="-6.2489850">
        <ele>98.6</ele>
        <time>2021-07-21T11:03:38Z</time>
      </trkpt>
      <trkpt lat="43.5621350" lon="-6.2490700">
        <ele>99.0</ele>
        <time>2021-07-21T11:03:40Z</time>
      </trkpt>
      <trkpt lat="43.5621110" lon="-6.2491040">
        <ele>99.4</ele>
        <time>2021-07-21T11:03:41Z</time>
      </trkpt>
      <trkpt lat="43.5620850" lon="-6.2491400">
        <ele>99.8</ele>
        <time>2021-07-21T11:03:42Z</time>
      </trkpt>
      <trkpt lat="43.5620570" lon="-6.2491760">
        <ele>100.6</ele>
        <time>2021-07-21T11:03:43Z</time>
      </trkpt>
      <trkpt lat="43.5620250" lon="-6.2492130">
        <ele>100.6</ele>
        <time>2021-07-21T11:03:44Z</time>
      </trkpt>
      <trkpt lat="43.5618410" lon="-6.2494310">
        <ele>100.6</ele>
        <time>2021-07-21T11:03:50Z</time>
      </trkpt>
      <trkpt lat="43.5617160" lon="-6.2496950">
        <ele>100.6</ele>
        <time>2021-07-21T11:03:56Z</time>
      </trkpt>
      <trkpt lat="43.5616120" lon="-6.2500520">
        <ele>100.6</ele>
        <time>2021-07-21T11:04:02Z</time>
      </trkpt>
      <trkpt lat="43.5615760" lon="-6.2501810">
        <ele>100.6</ele>
        <time>2021-07-21T11:04:04Z</time>
      </trkpt>
      <trkpt lat="43.5615450" lon="-6.2503690">
        <ele>100.6</ele>
        <time>2021-07-21T11:04:07Z</time>
      </trkpt>
      <trkpt lat="43.5615310" lon="-6.2504370">
        <ele>100.6</ele>
        <time>2021-07-21T11:04:08Z</time>
      </trkpt>
      <trkpt lat="43.5614600" lon="-6.2506730">
        <ele>100.6</ele>
        <time>2021-07-21T11:04:11Z</time>
      </trkpt>
      <trkpt lat="43.5613940" lon="-6.2508600">
        <ele>100.6</ele>
        <time>2021-07-21T11:04:13Z</time>
      </trkpt>
      <trkpt lat="43.5613690" lon="-6.2509430">
        <ele>100.6</ele>
        <time>2021-07-21T11:04:14Z</time>
      </trkpt>
      <trkpt lat="43.5613490" lon="-6.2510260">
        <ele>100.6</ele>
        <time>2021-07-21T11:04:15Z</time>
      </trkpt>
      <trkpt lat="43.5613290" lon="-6.2511140">
        <ele>100.6</ele>
        <time>2021-07-21T11:04:16Z</time>
      </trkpt>
      <trkpt lat="43.5612990" lon="-6.2513030">
        <ele>100.6</ele>
        <time>2021-07-21T11:04:18Z</time>
      </trkpt>
      <trkpt lat="43.5612860" lon="-6.2513970">
        <ele>100.6</ele>
        <time>2021-07-21T11:04:19Z</time>
      </trkpt>
      <trkpt lat="43.5612740" lon="-6.2514940">
        <ele>100.2</ele>
        <time>2021-07-21T11:04:20Z</time>
      </trkpt>
      <trkpt lat="43.5612700" lon="-6.2515920">
        <ele>99.6</ele>
        <time>2021-07-21T11:04:21Z</time>
      </trkpt>
      <trkpt lat="43.5612700" lon="-6.2516970">
        <ele>99.2</ele>
        <time>2021-07-21T11:04:22Z</time>
      </trkpt>
      <trkpt lat="43.5612710" lon="-6.2517960">
        <ele>98.8</ele>
        <time>2021-07-21T11:04:23Z</time>
      </trkpt>
      <trkpt lat="43.5612770" lon="-6.2518920">
        <ele>98.4</ele>
        <time>2021-07-21T11:04:24Z</time>
      </trkpt>
      <trkpt lat="43.5612900" lon="-6.2521010">
        <ele>98.4</ele>
        <time>2021-07-21T11:04:27Z</time>
      </trkpt>
      <trkpt lat="43.5612920" lon="-6.2521340">
        <ele>97.8</ele>
        <time>2021-07-21T11:04:28Z</time>
      </trkpt>
      <trkpt lat="43.5612890" lon="-6.2521500">
        <ele>97.4</ele>
        <time>2021-07-21T11:04:29Z</time>
      </trkpt>
      <trkpt lat="43.5612890" lon="-6.2521500">
        <ele>97.0</ele>
        <time>2021-07-21T11:04:30Z</time>
      </trkpt>
      <trkpt lat="43.5612730" lon="-6.2521790">
        <ele>96.0</ele>
        <time>2021-07-21T11:04:43Z</time>
      </trkpt>
      <trkpt lat="43.5612460" lon="-6.2522360">
        <ele>96.0</ele>
        <time>2021-07-21T11:04:45Z</time>
      </trkpt>
      <trkpt lat="43.5612360" lon="-6.2522620">
        <ele>96.0</ele>
        <time>2021-07-21T11:04:46Z</time>
      </trkpt>
      <trkpt lat="43.5612270" lon="-6.2522950">
        <ele>96.0</ele>
        <time>2021-07-21T11:04:47Z</time>
      </trkpt>
      <trkpt lat="43.5612240" lon="-6.2523300">
        <ele>96.0</ele>
        <time>2021-07-21T11:04:48Z</time>
      </trkpt>
      <trkpt lat="43.5612190" lon="-6.2524230">
        <ele>96.0</ele>
        <time>2021-07-21T11:04:50Z</time>
      </trkpt>
      <trkpt lat="43.5612190" lon="-6.2524750">
        <ele>96.0</ele>
        <time>2021-07-21T11:04:51Z</time>
      </trkpt>
      <trkpt lat="43.5612190" lon="-6.2525920">
        <ele>96.0</ele>
        <time>2021-07-21T11:04:53Z</time>
      </trkpt>
      <trkpt lat="43.5612310" lon="-6.2527620">
        <ele>96.0</ele>
        <time>2021-07-21T11:04:56Z</time>
      </trkpt>
      <trkpt lat="43.5612240" lon="-6.2530110">
        <ele>96.0</ele>
        <time>2021-07-21T11:05:01Z</time>
      </trkpt>
      <trkpt lat="43.5612240" lon="-6.2531250">
        <ele>96.4</ele>
        <time>2021-07-21T11:05:03Z</time>
      </trkpt>
      <trkpt lat="43.5612230" lon="-6.2531790">
        <ele>96.8</ele>
        <time>2021-07-21T11:05:04Z</time>
      </trkpt>
      <trkpt lat="43.5612240" lon="-6.2532370">
        <ele>97.2</ele>
        <time>2021-07-21T11:05:05Z</time>
      </trkpt>
      <trkpt lat="43.5612200" lon="-6.2533000">
        <ele>97.6</ele>
        <time>2021-07-21T11:05:06Z</time>
      </trkpt>
      <trkpt lat="43.5612150" lon="-6.2533620">
        <ele>98.0</ele>
        <time>2021-07-21T11:05:07Z</time>
      </trkpt>
      <trkpt lat="43.5612120" lon="-6.2534170">
        <ele>98.0</ele>
        <time>2021-07-21T11:05:08Z</time>
      </trkpt>
      <trkpt lat="43.5611900" lon="-6.2538390">
        <ele>98.0</ele>
        <time>2021-07-21T11:05:15Z</time>
      </trkpt>
      <trkpt lat="43.5611510" lon="-6.2541570">
        <ele>98.0</ele>
        <time>2021-07-21T11:05:21Z</time>
      </trkpt>
      <trkpt lat="43.5610900" lon="-6.2544940">
        <ele>98.0</ele>
        <time>2021-07-21T11:05:27Z</time>
      </trkpt>
      <trkpt lat="43.5610760" lon="-6.2545480">
        <ele>98.4</ele>
        <time>2021-07-21T11:05:28Z</time>
      </trkpt>
      <trkpt lat="43.5610610" lon="-6.2546040">
        <ele>98.8</ele>
        <time>2021-07-21T11:05:29Z</time>
      </trkpt>
      <trkpt lat="43.5610470" lon="-6.2546600">
        <ele>99.2</ele>
        <time>2021-07-21T11:05:30Z</time>
      </trkpt>
      <trkpt lat="43.5610330" lon="-6.2547140">
        <ele>99.6</ele>
        <time>2021-07-21T11:05:31Z</time>
      </trkpt>
      <trkpt lat="43.5610170" lon="-6.2547650">
        <ele>100.0</ele>
        <time>2021-07-21T11:05:32Z</time>
      </trkpt>
      <trkpt lat="43.5609780" lon="-6.2549200">
        <ele>100.0</ele>
        <time>2021-07-21T11:05:35Z</time>
      </trkpt>
      <trkpt lat="43.5610210" lon="-6.2552170">
        <ele>100.0</ele>
        <time>2021-07-21T11:05:40Z</time>
      </trkpt>
      <trkpt lat="43.5611260" lon="-6.2552920">
        <ele>100.0</ele>
        <time>2021-07-21T11:05:43Z</time>
      </trkpt>
      <trkpt lat="43.5612780" lon="-6.2552340">
        <ele>100.0</ele>
        <time>2021-07-21T11:05:46Z</time>
      </trkpt>
      <trkpt lat="43.5614080" lon="-6.2551310">
        <ele>100.0</ele>
        <time>2021-07-21T11:05:49Z</time>
      </trkpt>
      <trkpt lat="43.5614860" lon="-6.2550600">
        <ele>100.0</ele>
        <time>2021-07-21T11:05:51Z</time>
      </trkpt>
      <trkpt lat="43.5616160" lon="-6.2549340">
        <ele>100.4</ele>
        <time>2021-07-21T11:05:55Z</time>
      </trkpt>
      <trkpt lat="43.5616440" lon="-6.2549020">
        <ele>101.0</ele>
        <time>2021-07-21T11:05:56Z</time>
      </trkpt>
      <trkpt lat="43.5616740" lon="-6.2548690">
        <ele>101.4</ele>
        <time>2021-07-21T11:05:57Z</time>
      </trkpt>
      <trkpt lat="43.5617020" lon="-6.2548410">
        <ele>101.8</ele>
        <time>2021-07-21T11:05:58Z</time>
      </trkpt>
      <trkpt lat="43.5617270" lon="-6.2548140">
        <ele>102.2</ele>
        <time>2021-07-21T11:05:59Z</time>
      </trkpt>
      <trkpt lat="43.5618000" lon="-6.2547500">
        <ele>102.2</ele>
        <time>2021-07-21T11:06:02Z</time>
      </trkpt>
      <trkpt lat="43.5619490" lon="-6.2546780">
        <ele>102.6</ele>
        <time>2021-07-21T11:06:08Z</time>
      </trkpt>
      <trkpt lat="43.5619750" lon="-6.2546860">
        <ele>103.0</ele>
        <time>2021-07-21T11:06:09Z</time>
      </trkpt>
      <trkpt lat="43.5620010" lon="-6.2546960">
        <ele>103.8</ele>
        <time>2021-07-21T11:06:10Z</time>
      </trkpt>
      <trkpt lat="43.5620280" lon="-6.2547140">
        <ele>104.2</ele>
        <time>2021-07-21T11:06:11Z</time>
      </trkpt>
      <trkpt lat="43.5620660" lon="-6.2547530">
        <ele>104.2</ele>
        <time>2021-07-21T11:06:13Z</time>
      </trkpt>
      <trkpt lat="43.5620830" lon="-6.2547840">
        <ele>104.6</ele>
        <time>2021-07-21T11:06:14Z</time>
      </trkpt>
      <trkpt lat="43.5620980" lon="-6.2548160">
        <ele>105.0</ele>
        <time>2021-07-21T11:06:15Z</time>
      </trkpt>
      <trkpt lat="43.5621130" lon="-6.2548500">
        <ele>105.4</ele>
        <time>2021-07-21T11:06:16Z</time>
      </trkpt>
      <trkpt lat="43.5621230" lon="-6.2548840">
        <ele>106.0</ele>
        <time>2021-07-21T11:06:17Z</time>
      </trkpt>
      <trkpt lat="43.5621310" lon="-6.2549200">
        <ele>106.4</ele>
        <time>2021-07-21T11:06:18Z</time>
      </trkpt>
      <trkpt lat="43.5621360" lon="-6.2549590">
        <ele>106.4</ele>
        <time>2021-07-21T11:06:19Z</time>
      </trkpt>
      <trkpt lat="43.5621570" lon="-6.2551180">
        <ele>106.8</ele>
        <time>2021-07-21T11:06:23Z</time>
      </trkpt>
      <trkpt lat="43.5621640" lon="-6.2551530">
        <ele>107.2</ele>
        <time>2021-07-21T11:06:24Z</time>
      </trkpt>
      <trkpt lat="43.5621690" lon="-6.2551890">
        <ele>107.6</ele>
        <time>2021-07-21T11:06:25Z</time>
      </trkpt>
      <trkpt lat="43.5621740" lon="-6.2552250">
        <ele>108.0</ele>
        <time>2021-07-21T11:06:26Z</time>
      </trkpt>
      <trkpt lat="43.5621780" lon="-6.2552610">
        <ele>108.4</ele>
        <time>2021-07-21T11:06:27Z</time>
      </trkpt>
      <trkpt lat="43.5622110" lon="-6.2554760">
        <ele>108.4</ele>
        <time>2021-07-21T11:06:33Z</time>
      </trkpt>
      <trkpt lat="43.5622210" lon="-6.2555460">
        <ele>108.8</ele>
        <time>2021-07-21T11:06:35Z</time>
      </trkpt>
      <trkpt lat="43.5622260" lon="-6.2555800">
        <ele>109.2</ele>
        <time>2021-07-21T11:06:36Z</time>
      </trkpt>
      <trkpt lat="43.5622330" lon="-6.2556160">
        <ele>109.6</ele>
        <time>2021-07-21T11:06:37Z</time>
      </trkpt>
      <trkpt lat="43.5622370" lon="-6.2556520">
        <ele>110.0</ele>
        <time>2021-07-21T11:06:38Z</time>
      </trkpt>
      <trkpt lat="43.5622420" lon="-6.2556880">
        <ele>110.6</ele>
        <time>2021-07-21T11:06:39Z</time>
      </trkpt>
      <trkpt lat="43.5622610" lon="-6.2558710">
        <ele>110.6</ele>
        <time>2021-07-21T11:06:44Z</time>
      </trkpt>
      <trkpt lat="43.5622920" lon="-6.2560830">
        <ele>111.0</ele>
        <time>2021-07-21T11:06:50Z</time>
      </trkpt>
      <trkpt lat="43.5622960" lon="-6.2561180">
        <ele>111.4</ele>
        <time>2021-07-21T11:06:51Z</time>
      </trkpt>
      <trkpt lat="43.5623010" lon="-6.2561540">
        <ele>111.8</ele>
        <time>2021-07-21T11:06:52Z</time>
      </trkpt>
      <trkpt lat="43.5623050" lon="-6.2561880">
        <ele>112.2</ele>
        <time>2021-07-21T11:06:53Z</time>
      </trkpt>
      <trkpt lat="43.5623110" lon="-6.2562210">
        <ele>112.8</ele>
        <time>2021-07-21T11:06:54Z</time>
      </trkpt>
      <trkpt lat="43.5623420" lon="-6.2564590">
        <ele>113.2</ele>
        <time>2021-07-21T11:07:01Z</time>
      </trkpt>
      <trkpt lat="43.5623450" lon="-6.2564950">
        <ele>113.6</ele>
        <time>2021-07-21T11:07:02Z</time>
      </trkpt>
      <trkpt lat="43.5623480" lon="-6.2565310">
        <ele>114.0</ele>
        <time>2021-07-21T11:07:03Z</time>
      </trkpt>
      <trkpt lat="43.5623520" lon="-6.2565680">
        <ele>114.4</ele>
        <time>2021-07-21T11:07:04Z</time>
      </trkpt>
      <trkpt lat="43.5623550" lon="-6.2566030">
        <ele>114.8</ele>
        <time>2021-07-21T11:07:05Z</time>
      </trkpt>
      <trkpt lat="43.5623650" lon="-6.2567470">
        <ele>114.8</ele>
        <time>2021-07-21T11:07:09Z</time>
      </trkpt>
      <trkpt lat="43.5623920" lon="-6.2570070">
        <ele>114.8</ele>
        <time>2021-07-21T11:07:16Z</time>
      </trkpt>
      <trkpt lat="43.5623940" lon="-6.2570480">
        <ele>115.2</ele>
        <time>2021-07-21T11:07:17Z</time>
      </trkpt>
      <trkpt lat="43.5624000" lon="-6.2570900">
        <ele>115.6</ele>
        <time>2021-07-21T11:07:18Z</time>
      </trkpt>
      <trkpt lat="43.5624080" lon="-6.2571300">
        <ele>116.0</ele>
        <time>2021-07-21T11:07:19Z</time>
      </trkpt>
      <trkpt lat="43.5624170" lon="-6.2571680">
        <ele>116.4</ele>
        <time>2021-07-21T11:07:20Z</time>
      </trkpt>
      <trkpt lat="43.5624240" lon="-6.2572050">
        <ele>116.8</ele>
        <time>2021-07-21T11:07:21Z</time>
      </trkpt>
      <trkpt lat="43.5624280" lon="-6.2572460">
        <ele>116.8</ele>
        <time>2021-07-21T11:07:22Z</time>
      </trkpt>
      <trkpt lat="43.5624690" lon="-6.2575690">
        <ele>116.8</ele>
        <time>2021-07-21T11:07:30Z</time>
      </trkpt>
      <trkpt lat="43.5625050" lon="-6.2579070">
        <ele>117.2</ele>
        <time>2021-07-21T11:07:39Z</time>
      </trkpt>
      <trkpt lat="43.5625110" lon="-6.2579450">
        <ele>117.6</ele>
        <time>2021-07-21T11:07:40Z</time>
      </trkpt>
      <trkpt lat="43.5625160" lon="-6.2579850">
        <ele>118.0</ele>
        <time>2021-07-21T11:07:41Z</time>
      </trkpt>
      <trkpt lat="43.5625230" lon="-6.2580250">
        <ele>118.4</ele>
        <time>2021-07-21T11:07:42Z</time>
      </trkpt>
      <trkpt lat="43.5625310" lon="-6.2580650">
        <ele>118.8</ele>
        <time>2021-07-21T11:07:43Z</time>
      </trkpt>
      <trkpt lat="43.5625660" lon="-6.2583100">
        <ele>118.8</ele>
        <time>2021-07-21T11:07:49Z</time>
      </trkpt>
      <trkpt lat="43.5625810" lon="-6.2585590">
        <ele>118.8</ele>
        <time>2021-07-21T11:07:55Z</time>
      </trkpt>
      <trkpt lat="43.5625740" lon="-6.2589010">
        <ele>118.8</ele>
        <time>2021-07-21T11:08:03Z</time>
      </trkpt>
      <trkpt lat="43.5625710" lon="-6.2589430">
        <ele>119.2</ele>
        <time>2021-07-21T11:08:04Z</time>
      </trkpt>
      <trkpt lat="43.5625670" lon="-6.2589830">
        <ele>119.6</ele>
        <time>2021-07-21T11:08:05Z</time>
      </trkpt>
      <trkpt lat="43.5625650" lon="-6.2590240">
        <ele>120.2</ele>
        <time>2021-07-21T11:08:06Z</time>
      </trkpt>
      <trkpt lat="43.5625620" lon="-6.2590650">
        <ele>120.6</ele>
        <time>2021-07-21T11:08:07Z</time>
      </trkpt>
      <trkpt lat="43.5625600" lon="-6.2591060">
        <ele>121.0</ele>
        <time>2021-07-21T11:08:08Z</time>
      </trkpt>
      <trkpt lat="43.5625510" lon="-6.2592900">
        <ele>121.0</ele>
        <time>2021-07-21T11:08:13Z</time>
      </trkpt>
      <trkpt lat="43.5624720" lon="-6.2596660">
        <ele>121.0</ele>
        <time>2021-07-21T11:08:22Z</time>
      </trkpt>
      <trkpt lat="43.5624200" lon="-6.2598780">
        <ele>121.0</ele>
        <time>2021-07-21T11:08:26Z</time>
      </trkpt>
      <trkpt lat="43.5623870" lon="-6.2599590">
        <ele>121.0</ele>
        <time>2021-07-21T11:08:28Z</time>
      </trkpt>
      <trkpt lat="43.5623400" lon="-6.2600520">
        <ele>120.6</ele>
        <time>2021-07-21T11:08:31Z</time>
      </trkpt>
      <trkpt lat="43.5623270" lon="-6.2600830">
        <ele>120.2</ele>
        <time>2021-07-21T11:08:32Z</time>
      </trkpt>
      <trkpt lat="43.5623160" lon="-6.2601070">
        <ele>119.8</ele>
        <time>2021-07-21T11:08:33Z</time>
      </trkpt>
      <trkpt lat="43.5623070" lon="-6.2601270">
        <ele>119.4</ele>
        <time>2021-07-21T11:08:34Z</time>
      </trkpt>
      <trkpt lat="43.5623000" lon="-6.2601490">
        <ele>119.0</ele>
        <time>2021-07-21T11:08:35Z</time>
      </trkpt>
      <trkpt lat="43.5622900" lon="-6.2601730">
        <ele>118.4</ele>
        <time>2021-07-21T11:08:36Z</time>
      </trkpt>
      <trkpt lat="43.5622800" lon="-6.2601910">
        <ele>118.0</ele>
        <time>2021-07-21T11:08:37Z</time>
      </trkpt>
      <trkpt lat="43.5622720" lon="-6.2602140">
        <ele>117.4</ele>
        <time>2021-07-21T11:08:38Z</time>
      </trkpt>
      <trkpt lat="43.5622640" lon="-6.2602400">
        <ele>117.0</ele>
        <time>2021-07-21T11:08:39Z</time>
      </trkpt>
      <trkpt lat="43.5622580" lon="-6.2602640">
        <ele>116.4</ele>
        <time>2021-07-21T11:08:40Z</time>
      </trkpt>
      <trkpt lat="43.5622540" lon="-6.2602870">
        <ele>116.0</ele>
        <time>2021-07-21T11:08:41Z</time>
      </trkpt>
      <trkpt lat="43.5622420" lon="-6.2603170">
        <ele>115.6</ele>
        <time>2021-07-21T11:08:42Z</time>
      </trkpt>
      <trkpt lat="43.5622390" lon="-6.2603540">
        <ele>115.2</ele>
        <time>2021-07-21T11:08:43Z</time>
      </trkpt>
      <trkpt lat="43.5622310" lon="-6.2603940">
        <ele>114.8</ele>
        <time>2021-07-21T11:08:44Z</time>
      </trkpt>
      <trkpt lat="43.5622190" lon="-6.2604520">
        <ele>114.8</ele>
        <time>2021-07-21T11:08:46Z</time>
      </trkpt>
      <trkpt lat="43.5622240" lon="-6.2604600">
        <ele>114.4</ele>
        <time>2021-07-21T11:08:47Z</time>
      </trkpt>
      <trkpt lat="43.5622360" lon="-6.2604560">
        <ele>114.0</ele>
        <time>2021-07-21T11:08:48Z</time>
      </trkpt>
      <trkpt lat="43.5622380" lon="-6.2604610">
        <ele>113.4</ele>
        <time>2021-07-21T11:08:49Z</time>
      </trkpt>
      <trkpt lat="43.5622390" lon="-6.2604620">
        <ele>113.0</ele>
        <time>2021-07-21T11:08:50Z</time>
      </trkpt>
      <trkpt lat="43.5622460" lon="-6.2604610">
        <ele>112.6</ele>
        <time>2021-07-21T11:08:51Z</time>
      </trkpt>
      <trkpt lat="43.5622550" lon="-6.2604590">
        <ele>112.6</ele>
        <time>2021-07-21T11:08:52Z</time>
      </trkpt>
      <trkpt lat="43.5622550" lon="-6.2604590">
        <ele>112.6</ele>
        <time>2021-07-21T11:08:54Z</time>
      </trkpt>
      <trkpt lat="43.5622550" lon="-6.2604590">
        <ele>112.6</ele>
        <time>2021-07-21T11:08:55Z</time>
      </trkpt>
      <trkpt lat="43.5622550" lon="-6.2604590">
        <ele>112.6</ele>
        <time>2021-07-21T11:08:57Z</time>
      </trkpt>
      <trkpt lat="43.5622550" lon="-6.2604590">
        <ele>112.6</ele>
        <time>2021-07-21T11:08:58Z</time>
      </trkpt>
      <trkpt lat="43.5622550" lon="-6.2604590">
        <ele>112.6</ele>
        <time>2021-07-21T11:08:59Z</time>
      </trkpt>
      <trkpt lat="43.5622550" lon="-6.2604590">
        <ele>112.6</ele>
        <time>2021-07-21T11:09:03Z</time>
      </trkpt>
      <trkpt lat="43.5622550" lon="-6.2604590">
        <ele>112.6</ele>
        <time>2021-07-21T11:09:08Z</time>
      </trkpt>
      <trkpt lat="43.5622550" lon="-6.2604590">
        <ele>112.6</ele>
        <time>2021-07-21T11:09:09Z</time>
      </trkpt>
      <trkpt lat="43.5622550" lon="-6.2604590">
        <ele>112.6</ele>
        <time>2021-07-21T11:09:12Z</time>
      </trkpt>
      <trkpt lat="43.5622550" lon="-6.2604590">
        <ele>112.6</ele>
        <time>2021-07-21T11:09:13Z</time>
      </trkpt>
      <trkpt lat="43.5622550" lon="-6.2604590">
        <ele>112.6</ele>
        <time>2021-07-21T11:09:16Z</time>
      </trkpt>
      <trkpt lat="43.5622550" lon="-6.2604590">
        <ele>112.6</ele>
        <time>2021-07-21T11:09:17Z</time>
      </trkpt>
      <trkpt lat="43.5622550" lon="-6.2604590">
        <ele>112.6</ele>
        <time>2021-07-21T11:09:20Z</time>
      </trkpt>
      <trkpt lat="43.5622550" lon="-6.2604590">
        <ele>112.6</ele>
        <time>2021-07-21T11:09:21Z</time>
      </trkpt>
      <trkpt lat="43.5622550" lon="-6.2604590">
        <ele>112.6</ele>
        <time>2021-07-21T11:09:22Z</time>
      </trkpt>
      <trkpt lat="43.5622550" lon="-6.2604590">
        <ele>112.6</ele>
        <time>2021-07-21T11:09:23Z</time>
      </trkpt>
      <trkpt lat="43.5622550" lon="-6.2604590">
        <ele>112.2</ele>
        <time>2021-07-21T11:09:25Z</time>
      </trkpt>
      <trkpt lat="43.5622550" lon="-6.2604590">
        <ele>111.8</ele>
        <time>2021-07-21T11:09:26Z</time>
      </trkpt>
      <trkpt lat="43.5622550" lon="-6.2604590">
        <ele>111.4</ele>
        <time>2021-07-21T11:09:27Z</time>
      </trkpt>
      <trkpt lat="43.5622550" lon="-6.2604590">
        <ele>111.0</ele>
        <time>2021-07-21T11:09:28Z</time>
      </trkpt>
      <trkpt lat="43.5622550" lon="-6.2604590">
        <ele>110.6</ele>
        <time>2021-07-21T11:09:29Z</time>
      </trkpt>
      <trkpt lat="43.5622550" lon="-6.2604590">
        <ele>110.6</ele>
        <time>2021-07-21T11:09:31Z</time>
      </trkpt>
      <trkpt lat="43.5622550" lon="-6.2604590">
        <ele>110.6</ele>
        <time>2021-07-21T11:09:32Z</time>
      </trkpt>
      <trkpt lat="43.5622550" lon="-6.2604590">
        <ele>110.6</ele>
        <time>2021-07-21T11:09:33Z</time>
      </trkpt>
      <trkpt lat="43.5622550" lon="-6.2604590">
        <ele>110.6</ele>
        <time>2021-07-21T11:09:37Z</time>
      </trkpt>
      <trkpt lat="43.5622550" lon="-6.2604590">
        <ele>110.6</ele>
        <time>2021-07-21T11:09:39Z</time>
      </trkpt>
      <trkpt lat="43.5622550" lon="-6.2604590">
        <ele>110.6</ele>
        <time>2021-07-21T11:09:42Z</time>
      </trkpt>
      <trkpt lat="43.5622550" lon="-6.2604590">
        <ele>110.2</ele>
        <time>2021-07-21T11:09:44Z</time>
      </trkpt>
      <trkpt lat="43.5622550" lon="-6.2604590">
        <ele>109.8</ele>
        <time>2021-07-21T11:09:45Z</time>
      </trkpt>
      <trkpt lat="43.5622550" lon="-6.2604590">
        <ele>109.4</ele>
        <time>2021-07-21T11:09:46Z</time>
      </trkpt>
      <trkpt lat="43.5622550" lon="-6.2604590">
        <ele>109.0</ele>
        <time>2021-07-21T11:09:47Z</time>
      </trkpt>
      <trkpt lat="43.5622550" lon="-6.2604590">
        <ele>108.4</ele>
        <time>2021-07-21T11:09:48Z</time>
      </trkpt>
      <trkpt lat="43.5622550" lon="-6.2604590">
        <ele>108.0</ele>
        <time>2021-07-21T11:09:57Z</time>
      </trkpt>
      <trkpt lat="43.5622550" lon="-6.2604590">
        <ele>107.6</ele>
        <time>2021-07-21T11:09:58Z</time>
      </trkpt>
      <trkpt lat="43.5622550" lon="-6.2604590">
        <ele>107.2</ele>
        <time>2021-07-21T11:09:59Z</time>
      </trkpt>
      <trkpt lat="43.5622550" lon="-6.2604590">
        <ele>106.8</ele>
        <time>2021-07-21T11:10:00Z</time>
      </trkpt>
      <trkpt lat="43.5622550" lon="-6.2604590">
        <ele>106.4</ele>
        <time>2021-07-21T11:10:01Z</time>
      </trkpt>
      <trkpt lat="43.5622550" lon="-6.2604590">
        <ele>106.4</ele>
        <time>2021-07-21T11:10:03Z</time>
      </trkpt>
      <trkpt lat="43.5622550" lon="-6.2604590">
        <ele>106.4</ele>
        <time>2021-07-21T11:10:05Z</time>
      </trkpt>
      <trkpt lat="43.5622550" lon="-6.2604590">
        <ele>106.4</ele>
        <time>2021-07-21T11:10:07Z</time>
      </trkpt>
      <trkpt lat="43.5622550" lon="-6.2604590">
        <ele>106.4</ele>
        <time>2021-07-21T11:10:08Z</time>
      </trkpt>
      <trkpt lat="43.5622550" lon="-6.2604590">
        <ele>106.4</ele>
        <time>2021-07-21T11:10:10Z</time>
      </trkpt>
      <trkpt lat="43.5622550" lon="-6.2604590">
        <ele>106.4</ele>
        <time>2021-07-21T11:10:11Z</time>
      </trkpt>
      <trkpt lat="43.5622550" lon="-6.2604590">
        <ele>106.4</ele>
        <time>2021-07-21T11:10:12Z</time>
      </trkpt>
      <trkpt lat="43.5622550" lon="-6.2604590">
        <ele>106.4</ele>
        <time>2021-07-21T11:10:13Z</time>
      </trkpt>
      <trkpt lat="43.5622550" lon="-6.2604590">
        <ele>106.4</ele>
        <time>2021-07-21T11:10:16Z</time>
      </trkpt>
      <trkpt lat="43.5622550" lon="-6.2604590">
        <ele>106.4</ele>
        <time>2021-07-21T11:10:17Z</time>
      </trkpt>
      <trkpt lat="43.5622550" lon="-6.2604590">
        <ele>106.4</ele>
        <time>2021-07-21T11:10:18Z</time>
      </trkpt>
      <trkpt lat="43.5622550" lon="-6.2604590">
        <ele>106.4</ele>
        <time>2021-07-21T11:10:19Z</time>
      </trkpt>
      <trkpt lat="43.5622550" lon="-6.2604590">
        <ele>106.4</ele>
        <time>2021-07-21T11:10:20Z</time>
      </trkpt>
      <trkpt lat="43.5622550" lon="-6.2604590">
        <ele>106.4</ele>
        <time>2021-07-21T11:10:21Z</time>
      </trkpt>
      <trkpt lat="43.5622550" lon="-6.2604590">
        <ele>106.4</ele>
        <time>2021-07-21T11:10:22Z</time>
      </trkpt>
      <trkpt lat="43.5622550" lon="-6.2604590">
        <ele>106.4</ele>
        <time>2021-07-21T11:10:23Z</time>
      </trkpt>
      <trkpt lat="43.5622550" lon="-6.2604590">
        <ele>106.4</ele>
        <time>2021-07-21T11:10:25Z</time>
      </trkpt>
      <trkpt lat="43.5622550" lon="-6.2604590">
        <ele>106.0</ele>
        <time>2021-07-21T11:10:27Z</time>
      </trkpt>
      <trkpt lat="43.5622550" lon="-6.2604590">
        <ele>105.6</ele>
        <time>2021-07-21T11:10:28Z</time>
      </trkpt>
      <trkpt lat="43.5622550" lon="-6.2604590">
        <ele>105.2</ele>
        <time>2021-07-21T11:10:29Z</time>
      </trkpt>
      <trkpt lat="43.5622550" lon="-6.2604590">
        <ele>104.8</ele>
        <time>2021-07-21T11:10:30Z</time>
      </trkpt>
      <trkpt lat="43.5622550" lon="-6.2604590">
        <ele>104.4</ele>
        <time>2021-07-21T11:10:31Z</time>
      </trkpt>
      <trkpt lat="43.5622550" lon="-6.2604590">
        <ele>104.4</ele>
        <time>2021-07-21T11:10:32Z</time>
      </trkpt>
      <trkpt lat="43.5622550" lon="-6.2604590">
        <ele>104.4</ele>
        <time>2021-07-21T11:10:34Z</time>
      </trkpt>
      <trkpt lat="43.5622550" lon="-6.2604590">
        <ele>104.4</ele>
        <time>2021-07-21T11:10:38Z</time>
      </trkpt>
      <trkpt lat="43.5622550" lon="-6.2604590">
        <ele>104.4</ele>
        <time>2021-07-21T11:10:41Z</time>
      </trkpt>
      <trkpt lat="43.5622550" lon="-6.2604590">
        <ele>104.4</ele>
        <time>2021-07-21T11:10:42Z</time>
      </trkpt>
      <trkpt lat="43.5622550" lon="-6.2604590">
        <ele>104.4</ele>
        <time>2021-07-21T11:10:43Z</time>
      </trkpt>
      <trkpt lat="43.5622550" lon="-6.2604590">
        <ele>104.4</ele>
        <time>2021-07-21T11:10:44Z</time>
      </trkpt>
      <trkpt lat="43.5622550" lon="-6.2604590">
        <ele>104.4</ele>
        <time>2021-07-21T11:10:45Z</time>
      </trkpt>
      <trkpt lat="43.5629950" lon="-6.2604290">
        <ele>104.4</ele>
        <time>2021-07-21T11:10:48Z</time>
      </trkpt>
      <trkpt lat="43.5629910" lon="-6.2604390">
        <ele>104.8</ele>
        <time>2021-07-21T11:10:49Z</time>
      </trkpt>
      <trkpt lat="43.5629980" lon="-6.2604440">
        <ele>105.2</ele>
        <time>2021-07-21T11:10:50Z</time>
      </trkpt>
      <trkpt lat="43.5630040" lon="-6.2604590">
        <ele>105.8</ele>
        <time>2021-07-21T11:10:51Z</time>
      </trkpt>
      <trkpt lat="43.5630000" lon="-6.2604720">
        <ele>106.2</ele>
        <time>2021-07-21T11:10:52Z</time>
      </trkpt>
      <trkpt lat="43.5629960" lon="-6.2604880">
        <ele>106.6</ele>
        <time>2021-07-21T11:10:53Z</time>
      </trkpt>
      <trkpt lat="43.5629890" lon="-6.2605380">
        <ele>106.6</ele>
        <time>2021-07-21T11:10:56Z</time>
      </trkpt>
      <trkpt lat="43.5630050" lon="-6.2605610">
        <ele>107.0</ele>
        <time>2021-07-21T11:10:57Z</time>
      </trkpt>
      <trkpt lat="43.5630110" lon="-6.2605820">
        <ele>107.6</ele>
        <time>2021-07-21T11:10:58Z</time>
      </trkpt>
      <trkpt lat="43.5630210" lon="-6.2606050">
        <ele>108.0</ele>
        <time>2021-07-21T11:10:59Z</time>
      </trkpt>
      <trkpt lat="43.5630310" lon="-6.2606250">
        <ele>108.4</ele>
        <time>2021-07-21T11:11:00Z</time>
      </trkpt>
      <trkpt lat="43.5630400" lon="-6.2606410">
        <ele>108.8</ele>
        <time>2021-07-21T11:11:01Z</time>
      </trkpt>
      <trkpt lat="43.5630650" lon="-6.2606990">
        <ele>108.8</ele>
        <time>2021-07-21T11:11:04Z</time>
      </trkpt>
      <trkpt lat="43.5630910" lon="-6.2607470">
        <ele>108.8</ele>
        <time>2021-07-21T11:11:07Z</time>
      </trkpt>
      <trkpt lat="43.5631180" lon="-6.2607830">
        <ele>109.2</ele>
        <time>2021-07-21T11:11:09Z</time>
      </trkpt>
      <trkpt lat="43.5631300" lon="-6.2608010">
        <ele>109.6</ele>
        <time>2021-07-21T11:11:10Z</time>
      </trkpt>
      <trkpt lat="43.5631440" lon="-6.2608140">
        <ele>110.0</ele>
        <time>2021-07-21T11:11:11Z</time>
      </trkpt>
      <trkpt lat="43.5631550" lon="-6.2608270">
        <ele>110.4</ele>
        <time>2021-07-21T11:11:12Z</time>
      </trkpt>
      <trkpt lat="43.5631700" lon="-6.2608350">
        <ele>110.8</ele>
        <time>2021-07-21T11:11:13Z</time>
      </trkpt>
      <trkpt lat="43.5631960" lon="-6.2608550">
        <ele>110.8</ele>
        <time>2021-07-21T11:11:15Z</time>
      </trkpt>
      <trkpt lat="43.5632780" lon="-6.2609570">
        <ele>110.8</ele>
        <time>2021-07-21T11:11:22Z</time>
      </trkpt>
      <trkpt lat="43.5632890" lon="-6.2609650">
        <ele>110.8</ele>
        <time>2021-07-21T11:11:25Z</time>
      </trkpt>
      <trkpt lat="43.5633340" lon="-6.2610110">
        <ele>110.8</ele>
        <time>2021-07-21T11:12:04Z</time>
      </trkpt>
      <trkpt lat="43.5633480" lon="-6.2610340">
        <ele>110.8</ele>
        <time>2021-07-21T11:12:05Z</time>
      </trkpt>
      <trkpt lat="43.5633950" lon="-6.2612240">
        <ele>110.8</ele>
        <time>2021-07-21T11:12:10Z</time>
      </trkpt>
      <trkpt lat="43.5634570" lon="-6.2616040">
        <ele>110.8</ele>
        <time>2021-07-21T11:12:18Z</time>
      </trkpt>
      <trkpt lat="43.5634730" lon="-6.2617990">
        <ele>111.6</ele>
        <time>2021-07-21T11:12:22Z</time>
      </trkpt>
      <trkpt lat="43.5634760" lon="-6.2618490">
        <ele>112.2</ele>
        <time>2021-07-21T11:12:23Z</time>
      </trkpt>
      <trkpt lat="43.5634750" lon="-6.2619000">
        <ele>112.6</ele>
        <time>2021-07-21T11:12:24Z</time>
      </trkpt>
      <trkpt lat="43.5634730" lon="-6.2619520">
        <ele>113.0</ele>
        <time>2021-07-21T11:12:25Z</time>
      </trkpt>
      <trkpt lat="43.5634660" lon="-6.2620510">
        <ele>113.0</ele>
        <time>2021-07-21T11:12:27Z</time>
      </trkpt>
      <trkpt lat="43.5634120" lon="-6.2623740">
        <ele>113.0</ele>
        <time>2021-07-21T11:12:34Z</time>
      </trkpt>
      <trkpt lat="43.5633520" lon="-6.2625310">
        <ele>113.0</ele>
        <time>2021-07-21T11:12:39Z</time>
      </trkpt>
      <trkpt lat="43.5632080" lon="-6.2628670">
        <ele>113.0</ele>
        <time>2021-07-21T11:12:46Z</time>
      </trkpt>
      <trkpt lat="43.5631280" lon="-6.2630790">
        <ele>113.0</ele>
        <time>2021-07-21T11:12:50Z</time>
      </trkpt>
      <trkpt lat="43.5630370" lon="-6.2633560">
        <ele>113.4</ele>
        <time>2021-07-21T11:12:55Z</time>
      </trkpt>
      <trkpt lat="43.5630160" lon="-6.2634080">
        <ele>113.8</ele>
        <time>2021-07-21T11:12:56Z</time>
      </trkpt>
      <trkpt lat="43.5629980" lon="-6.2634620">
        <ele>114.2</ele>
        <time>2021-07-21T11:12:57Z</time>
      </trkpt>
      <trkpt lat="43.5629800" lon="-6.2635150">
        <ele>114.6</ele>
        <time>2021-07-21T11:12:58Z</time>
      </trkpt>
      <trkpt lat="43.5629610" lon="-6.2635690">
        <ele>115.0</ele>
        <time>2021-07-21T11:12:59Z</time>
      </trkpt>
      <trkpt lat="43.5628250" lon="-6.2639580">
        <ele>115.0</ele>
        <time>2021-07-21T11:13:06Z</time>
      </trkpt>
      <trkpt lat="43.5626400" lon="-6.2644950">
        <ele>115.0</ele>
        <time>2021-07-21T11:13:16Z</time>
      </trkpt>
      <trkpt lat="43.5625620" lon="-6.2649130">
        <ele>115.4</ele>
        <time>2021-07-21T11:13:23Z</time>
      </trkpt>
      <trkpt lat="43.5625580" lon="-6.2649750">
        <ele>115.8</ele>
        <time>2021-07-21T11:13:24Z</time>
      </trkpt>
      <trkpt lat="43.5625540" lon="-6.2650400">
        <ele>116.2</ele>
        <time>2021-07-21T11:13:25Z</time>
      </trkpt>
      <trkpt lat="43.5625500" lon="-6.2651040">
        <ele>116.6</ele>
        <time>2021-07-21T11:13:26Z</time>
      </trkpt>
      <trkpt lat="43.5625460" lon="-6.2651650">
        <ele>117.0</ele>
        <time>2021-07-21T11:13:27Z</time>
      </trkpt>
      <trkpt lat="43.5625320" lon="-6.2654730">
        <ele>117.0</ele>
        <time>2021-07-21T11:13:32Z</time>
      </trkpt>
      <trkpt lat="43.5625200" lon="-6.2660210">
        <ele>117.0</ele>
        <time>2021-07-21T11:13:41Z</time>
      </trkpt>
      <trkpt lat="43.5625050" lon="-6.2664950">
        <ele>117.4</ele>
        <time>2021-07-21T11:13:49Z</time>
      </trkpt>
      <trkpt lat="43.5624970" lon="-6.2665520">
        <ele>117.8</ele>
        <time>2021-07-21T11:13:50Z</time>
      </trkpt>
      <trkpt lat="43.5624850" lon="-6.2666080">
        <ele>118.2</ele>
        <time>2021-07-21T11:13:51Z</time>
      </trkpt>
      <trkpt lat="43.5624720" lon="-6.2666620">
        <ele>118.6</ele>
        <time>2021-07-21T11:13:52Z</time>
      </trkpt>
      <trkpt lat="43.5624540" lon="-6.2667140">
        <ele>119.0</ele>
        <time>2021-07-21T11:13:53Z</time>
      </trkpt>
      <trkpt lat="43.5623810" lon="-6.2668610">
        <ele>119.0</ele>
        <time>2021-07-21T11:13:56Z</time>
      </trkpt>
      <trkpt lat="43.5623220" lon="-6.2669430">
        <ele>119.0</ele>
        <time>2021-07-21T11:13:58Z</time>
      </trkpt>
      <trkpt lat="43.5622080" lon="-6.2670850">
        <ele>119.0</ele>
        <time>2021-07-21T11:14:02Z</time>
      </trkpt>
      <trkpt lat="43.5620480" lon="-6.2672000">
        <ele>119.4</ele>
        <time>2021-07-21T11:14:07Z</time>
      </trkpt>
      <trkpt lat="43.5620100" lon="-6.2672120">
        <ele>119.8</ele>
        <time>2021-07-21T11:14:08Z</time>
      </trkpt>
      <trkpt lat="43.5619710" lon="-6.2672170">
        <ele>120.2</ele>
        <time>2021-07-21T11:14:09Z</time>
      </trkpt>
      <trkpt lat="43.5619310" lon="-6.2672110">
        <ele>120.6</ele>
        <time>2021-07-21T11:14:10Z</time>
      </trkpt>
      <trkpt lat="43.5618960" lon="-6.2671960">
        <ele>121.0</ele>
        <time>2021-07-21T11:14:11Z</time>
      </trkpt>
      <trkpt lat="43.5618610" lon="-6.2671720">
        <ele>121.0</ele>
        <time>2021-07-21T11:14:12Z</time>
      </trkpt>
      <trkpt lat="43.5617000" lon="-6.2669880">
        <ele>121.0</ele>
        <time>2021-07-21T11:14:17Z</time>
      </trkpt>
      <trkpt lat="43.5614980" lon="-6.2666930">
        <ele>121.0</ele>
        <time>2021-07-21T11:14:23Z</time>
      </trkpt>
      <trkpt lat="43.5614400" lon="-6.2665760">
        <ele>121.0</ele>
        <time>2021-07-21T11:14:25Z</time>
      </trkpt>
      <trkpt lat="43.5613930" lon="-6.2664800">
        <ele>121.0</ele>
        <time>2021-07-21T11:14:27Z</time>
      </trkpt>
      <trkpt lat="43.5613670" lon="-6.2664370">
        <ele>121.0</ele>
        <time>2021-07-21T11:14:28Z</time>
      </trkpt>
      <trkpt lat="43.5613020" lon="-6.2663010">
        <ele>121.0</ele>
        <time>2021-07-21T11:14:31Z</time>
      </trkpt>
      <trkpt lat="43.5612240" lon="-6.2661550">
        <ele>121.0</ele>
        <time>2021-07-21T11:14:34Z</time>
      </trkpt>
      <trkpt lat="43.5611910" lon="-6.2661090">
        <ele>121.0</ele>
        <time>2021-07-21T11:14:35Z</time>
      </trkpt>
      <trkpt lat="43.5610800" lon="-6.2659050">
        <ele>121.0</ele>
        <time>2021-07-21T11:14:39Z</time>
      </trkpt>
      <trkpt lat="43.5610280" lon="-6.2658090">
        <ele>121.0</ele>
        <time>2021-07-21T11:14:41Z</time>
      </trkpt>
      <trkpt lat="43.5609580" lon="-6.2657500">
        <ele>121.0</ele>
        <time>2021-07-21T11:14:43Z</time>
      </trkpt>
      <trkpt lat="43.5609110" lon="-6.2657360">
        <ele>121.0</ele>
        <time>2021-07-21T11:14:44Z</time>
      </trkpt>
      <trkpt lat="43.5608340" lon="-6.2657560">
        <ele>121.0</ele>
        <time>2021-07-21T11:14:46Z</time>
      </trkpt>
      <trkpt lat="43.5607910" lon="-6.2657870">
        <ele>121.0</ele>
        <time>2021-07-21T11:14:47Z</time>
      </trkpt>
      <trkpt lat="43.5607300" lon="-6.2659300">
        <ele>121.0</ele>
        <time>2021-07-21T11:14:50Z</time>
      </trkpt>
      <trkpt lat="43.5606980" lon="-6.2660510">
        <ele>121.0</ele>
        <time>2021-07-21T11:14:52Z</time>
      </trkpt>
      <trkpt lat="43.5606580" lon="-6.2663010">
        <ele>121.0</ele>
        <time>2021-07-21T11:14:56Z</time>
      </trkpt>
      <trkpt lat="43.5606430" lon="-6.2664240">
        <ele>121.0</ele>
        <time>2021-07-21T11:14:58Z</time>
      </trkpt>
      <trkpt lat="43.5605990" lon="-6.2666850">
        <ele>121.0</ele>
        <time>2021-07-21T11:15:02Z</time>
      </trkpt>
      <trkpt lat="43.5605820" lon="-6.2667480">
        <ele>121.0</ele>
        <time>2021-07-21T11:15:03Z</time>
      </trkpt>
      <trkpt lat="43.5605310" lon="-6.2668640">
        <ele>121.0</ele>
        <time>2021-07-21T11:15:05Z</time>
      </trkpt>
      <trkpt lat="43.5604740" lon="-6.2669540">
        <ele>121.0</ele>
        <time>2021-07-21T11:15:07Z</time>
      </trkpt>
      <trkpt lat="43.5603720" lon="-6.2670830">
        <ele>121.0</ele>
        <time>2021-07-21T11:15:10Z</time>
      </trkpt>
      <trkpt lat="43.5603270" lon="-6.2671280">
        <ele>121.0</ele>
        <time>2021-07-21T11:15:11Z</time>
      </trkpt>
      <trkpt lat="43.5602270" lon="-6.2672250">
        <ele>121.0</ele>
        <time>2021-07-21T11:15:13Z</time>
      </trkpt>
      <trkpt lat="43.5601230" lon="-6.2673160">
        <ele>120.6</ele>
        <time>2021-07-21T11:15:15Z</time>
      </trkpt>
      <trkpt lat="43.5600690" lon="-6.2673590">
        <ele>120.2</ele>
        <time>2021-07-21T11:15:16Z</time>
      </trkpt>
      <trkpt lat="43.5600130" lon="-6.2674040">
        <ele>119.8</ele>
        <time>2021-07-21T11:15:17Z</time>
      </trkpt>
      <trkpt lat="43.5599540" lon="-6.2674440">
        <ele>119.4</ele>
        <time>2021-07-21T11:15:18Z</time>
      </trkpt>
      <trkpt lat="43.5598900" lon="-6.2674830">
        <ele>119.0</ele>
        <time>2021-07-21T11:15:19Z</time>
      </trkpt>
      <trkpt lat="43.5598210" lon="-6.2675160">
        <ele>119.0</ele>
        <time>2021-07-21T11:15:20Z</time>
      </trkpt>
      <trkpt lat="43.5595490" lon="-6.2676140">
        <ele>119.0</ele>
        <time>2021-07-21T11:15:24Z</time>
      </trkpt>
      <trkpt lat="43.5594050" lon="-6.2676660">
        <ele>118.4</ele>
        <time>2021-07-21T11:15:26Z</time>
      </trkpt>
      <trkpt lat="43.5593350" lon="-6.2676930">
        <ele>118.0</ele>
        <time>2021-07-21T11:15:27Z</time>
      </trkpt>
      <trkpt lat="43.5592580" lon="-6.2677230">
        <ele>117.6</ele>
        <time>2021-07-21T11:15:28Z</time>
      </trkpt>
      <trkpt lat="43.5591860" lon="-6.2677510">
        <ele>117.2</ele>
        <time>2021-07-21T11:15:29Z</time>
      </trkpt>
      <trkpt lat="43.5591150" lon="-6.2677780">
        <ele>116.8</ele>
        <time>2021-07-21T11:15:30Z</time>
      </trkpt>
      <trkpt lat="43.5588350" lon="-6.2678770">
        <ele>116.8</ele>
        <time>2021-07-21T11:15:34Z</time>
      </trkpt>
      <trkpt lat="43.5587320" lon="-6.2679190">
        <ele>116.4</ele>
        <time>2021-07-21T11:15:36Z</time>
      </trkpt>
      <trkpt lat="43.5586890" lon="-6.2679630">
        <ele>115.8</ele>
        <time>2021-07-21T11:15:37Z</time>
      </trkpt>
      <trkpt lat="43.5586520" lon="-6.2680140">
        <ele>115.4</ele>
        <time>2021-07-21T11:15:38Z</time>
      </trkpt>
      <trkpt lat="43.5586180" lon="-6.2680770">
        <ele>115.0</ele>
        <time>2021-07-21T11:15:39Z</time>
      </trkpt>
      <trkpt lat="43.5586010" lon="-6.2681520">
        <ele>114.4</ele>
        <time>2021-07-21T11:15:40Z</time>
      </trkpt>
      <trkpt lat="43.5585930" lon="-6.2682840">
        <ele>114.4</ele>
        <time>2021-07-21T11:15:42Z</time>
      </trkpt>
      <trkpt lat="43.5586690" lon="-6.2683810">
        <ele>114.4</ele>
        <time>2021-07-21T11:15:45Z</time>
      </trkpt>
      <trkpt lat="43.5587740" lon="-6.2683970">
        <ele>114.4</ele>
        <time>2021-07-21T11:15:47Z</time>
      </trkpt>
      <trkpt lat="43.5588340" lon="-6.2684050">
        <ele>114.4</ele>
        <time>2021-07-21T11:15:48Z</time>
      </trkpt>
      <trkpt lat="43.5588900" lon="-6.2684150">
        <ele>114.4</ele>
        <time>2021-07-21T11:15:49Z</time>
      </trkpt>
      <trkpt lat="43.5589490" lon="-6.2684220">
        <ele>114.4</ele>
        <time>2021-07-21T11:15:50Z</time>
      </trkpt>
      <trkpt lat="43.5590090" lon="-6.2684290">
        <ele>114.4</ele>
        <time>2021-07-21T11:15:51Z</time>
      </trkpt>
      <trkpt lat="43.5591220" lon="-6.2684380">
        <ele>114.4</ele>
        <time>2021-07-21T11:15:53Z</time>
      </trkpt>
      <trkpt lat="43.5592260" lon="-6.2684350">
        <ele>114.4</ele>
        <time>2021-07-21T11:15:55Z</time>
      </trkpt>
      <trkpt lat="43.5592810" lon="-6.2684400">
        <ele>114.4</ele>
        <time>2021-07-21T11:15:56Z</time>
      </trkpt>
      <trkpt lat="43.5595740" lon="-6.2684470">
        <ele>114.4</ele>
        <time>2021-07-21T11:16:02Z</time>
      </trkpt>
      <trkpt lat="43.5596870" lon="-6.2684800">
        <ele>114.4</ele>
        <time>2021-07-21T11:16:04Z</time>
      </trkpt>
      <trkpt lat="43.5597980" lon="-6.2684890">
        <ele>114.4</ele>
        <time>2021-07-21T11:16:06Z</time>
      </trkpt>
      <trkpt lat="43.5598490" lon="-6.2684890">
        <ele>114.4</ele>
        <time>2021-07-21T11:16:07Z</time>
      </trkpt>
      <trkpt lat="43.5599680" lon="-6.2685050">
        <ele>114.4</ele>
        <time>2021-07-21T11:16:09Z</time>
      </trkpt>
      <trkpt lat="43.5601390" lon="-6.2685400">
        <ele>114.4</ele>
        <time>2021-07-21T11:16:12Z</time>
      </trkpt>
      <trkpt lat="43.5602870" lon="-6.2686720">
        <ele>114.4</ele>
        <time>2021-07-21T11:16:16Z</time>
      </trkpt>
      <trkpt lat="43.5603510" lon="-6.2689040">
        <ele>114.4</ele>
        <time>2021-07-21T11:16:19Z</time>
      </trkpt>
      <trkpt lat="43.5603640" lon="-6.2692050">
        <ele>114.4</ele>
        <time>2021-07-21T11:16:23Z</time>
      </trkpt>
      <trkpt lat="43.5603600" lon="-6.2692730">
        <ele>114.4</ele>
        <time>2021-07-21T11:16:24Z</time>
      </trkpt>
      <trkpt lat="43.5603020" lon="-6.2696790">
        <ele>114.4</ele>
        <time>2021-07-21T11:16:30Z</time>
      </trkpt>
      <trkpt lat="43.5602860" lon="-6.2700870">
        <ele>114.4</ele>
        <time>2021-07-21T11:16:36Z</time>
      </trkpt>
      <trkpt lat="43.5602430" lon="-6.2706240">
        <ele>114.4</ele>
        <time>2021-07-21T11:16:43Z</time>
      </trkpt>
      <trkpt lat="43.5602360" lon="-6.2710160">
        <ele>114.4</ele>
        <time>2021-07-21T11:16:48Z</time>
      </trkpt>
      <trkpt lat="43.5602400" lon="-6.2710960">
        <ele>114.4</ele>
        <time>2021-07-21T11:16:49Z</time>
      </trkpt>
      <trkpt lat="43.5603260" lon="-6.2712610">
        <ele>114.4</ele>
        <time>2021-07-21T11:16:52Z</time>
      </trkpt>
      <trkpt lat="43.5603540" lon="-6.2712980">
        <ele>114.4</ele>
        <time>2021-07-21T11:16:53Z</time>
      </trkpt>
      <trkpt lat="43.5604450" lon="-6.2713890">
        <ele>114.4</ele>
        <time>2021-07-21T11:16:56Z</time>
      </trkpt>
      <trkpt lat="43.5606240" lon="-6.2715630">
        <ele>114.4</ele>
        <time>2021-07-21T11:17:01Z</time>
      </trkpt>
      <trkpt lat="43.5606720" lon="-6.2716020">
        <ele>114.4</ele>
        <time>2021-07-21T11:17:02Z</time>
      </trkpt>
      <trkpt lat="43.5608880" lon="-6.2717470">
        <ele>114.4</ele>
        <time>2021-07-21T11:17:06Z</time>
      </trkpt>
      <trkpt lat="43.5610530" lon="-6.2718400">
        <ele>114.4</ele>
        <time>2021-07-21T11:17:09Z</time>
      </trkpt>
      <trkpt lat="43.5611070" lon="-6.2718720">
        <ele>114.0</ele>
        <time>2021-07-21T11:17:10Z</time>
      </trkpt>
      <trkpt lat="43.5611510" lon="-6.2719060">
        <ele>113.6</ele>
        <time>2021-07-21T11:17:11Z</time>
      </trkpt>
      <trkpt lat="43.5611950" lon="-6.2719380">
        <ele>113.2</ele>
        <time>2021-07-21T11:17:12Z</time>
      </trkpt>
      <trkpt lat="43.5612430" lon="-6.2719700">
        <ele>112.8</ele>
        <time>2021-07-21T11:17:13Z</time>
      </trkpt>
      <trkpt lat="43.5612930" lon="-6.2720040">
        <ele>112.4</ele>
        <time>2021-07-21T11:17:14Z</time>
      </trkpt>
      <trkpt lat="43.5613440" lon="-6.2720460">
        <ele>112.4</ele>
        <time>2021-07-21T11:17:15Z</time>
      </trkpt>
      <trkpt lat="43.5614980" lon="-6.2722200">
        <ele>112.0</ele>
        <time>2021-07-21T11:17:18Z</time>
      </trkpt>
      <trkpt lat="43.5615410" lon="-6.2722880">
        <ele>111.0</ele>
        <time>2021-07-21T11:17:19Z</time>
      </trkpt>
      <trkpt lat="43.5615830" lon="-6.2723630">
        <ele>110.6</ele>
        <time>2021-07-21T11:17:20Z</time>
      </trkpt>
      <trkpt lat="43.5616230" lon="-6.2724390">
        <ele>110.0</ele>
        <time>2021-07-21T11:17:21Z</time>
      </trkpt>
      <trkpt lat="43.5616780" lon="-6.2725210">
        <ele>109.6</ele>
        <time>2021-07-21T11:17:22Z</time>
      </trkpt>
      <trkpt lat="43.5617270" lon="-6.2726050">
        <ele>109.2</ele>
        <time>2021-07-21T11:17:23Z</time>
      </trkpt>
      <trkpt lat="43.5617840" lon="-6.2726940">
        <ele>108.8</ele>
        <time>2021-07-21T11:17:24Z</time>
      </trkpt>
      <trkpt lat="43.5618280" lon="-6.2727770">
        <ele>108.2</ele>
        <time>2021-07-21T11:17:25Z</time>
      </trkpt>
      <trkpt lat="43.5618700" lon="-6.2728520">
        <ele>107.8</ele>
        <time>2021-07-21T11:17:26Z</time>
      </trkpt>
      <trkpt lat="43.5619070" lon="-6.2729420">
        <ele>107.2</ele>
        <time>2021-07-21T11:17:27Z</time>
      </trkpt>
      <trkpt lat="43.5619450" lon="-6.2730420">
        <ele>106.8</ele>
        <time>2021-07-21T11:17:28Z</time>
      </trkpt>
      <trkpt lat="43.5619760" lon="-6.2731530">
        <ele>106.2</ele>
        <time>2021-07-21T11:17:29Z</time>
      </trkpt>
      <trkpt lat="43.5620000" lon="-6.2732660">
        <ele>105.6</ele>
        <time>2021-07-21T11:17:30Z</time>
      </trkpt>
      <trkpt lat="43.5619960" lon="-6.2734020">
        <ele>105.2</ele>
        <time>2021-07-21T11:17:31Z</time>
      </trkpt>
      <trkpt lat="43.5619910" lon="-6.2735410">
        <ele>104.6</ele>
        <time>2021-07-21T11:17:32Z</time>
      </trkpt>
      <trkpt lat="43.5619830" lon="-6.2736690">
        <ele>104.2</ele>
        <time>2021-07-21T11:17:33Z</time>
      </trkpt>
      <trkpt lat="43.5619740" lon="-6.2737930">
        <ele>103.6</ele>
        <time>2021-07-21T11:17:34Z</time>
      </trkpt>
      <trkpt lat="43.5619610" lon="-6.2739180">
        <ele>103.2</ele>
        <time>2021-07-21T11:17:35Z</time>
      </trkpt>
      <trkpt lat="43.5619410" lon="-6.2740270">
        <ele>102.6</ele>
        <time>2021-07-21T11:17:36Z</time>
      </trkpt>
      <trkpt lat="43.5619190" lon="-6.2741400">
        <ele>102.2</ele>
        <time>2021-07-21T11:17:37Z</time>
      </trkpt>
      <trkpt lat="43.5618900" lon="-6.2742470">
        <ele>101.6</ele>
        <time>2021-07-21T11:17:38Z</time>
      </trkpt>
      <trkpt lat="43.5618530" lon="-6.2743410">
        <ele>101.0</ele>
        <time>2021-07-21T11:17:39Z</time>
      </trkpt>
      <trkpt lat="43.5618070" lon="-6.2744210">
        <ele>100.6</ele>
        <time>2021-07-21T11:17:40Z</time>
      </trkpt>
      <trkpt lat="43.5617660" lon="-6.2744990">
        <ele>100.0</ele>
        <time>2021-07-21T11:17:41Z</time>
      </trkpt>
      <trkpt lat="43.5617150" lon="-6.2745770">
        <ele>99.4</ele>
        <time>2021-07-21T11:17:42Z</time>
      </trkpt>
      <trkpt lat="43.5616470" lon="-6.2746400">
        <ele>98.8</ele>
        <time>2021-07-21T11:17:43Z</time>
      </trkpt>
      <trkpt lat="43.5615840" lon="-6.2746860">
        <ele>97.4</ele>
        <time>2021-07-21T11:17:44Z</time>
      </trkpt>
      <trkpt lat="43.5615140" lon="-6.2747040">
        <ele>96.8</ele>
        <time>2021-07-21T11:17:45Z</time>
      </trkpt>
      <trkpt lat="43.5614390" lon="-6.2747150">
        <ele>96.2</ele>
        <time>2021-07-21T11:17:46Z</time>
      </trkpt>
      <trkpt lat="43.5613380" lon="-6.2747150">
        <ele>95.6</ele>
        <time>2021-07-21T11:17:47Z</time>
      </trkpt>
      <trkpt lat="43.5612470" lon="-6.2746930">
        <ele>94.8</ele>
        <time>2021-07-21T11:17:48Z</time>
      </trkpt>
      <trkpt lat="43.5611550" lon="-6.2746510">
        <ele>94.4</ele>
        <time>2021-07-21T11:17:49Z</time>
      </trkpt>
      <trkpt lat="43.5610670" lon="-6.2746030">
        <ele>93.8</ele>
        <time>2021-07-21T11:17:50Z</time>
      </trkpt>
      <trkpt lat="43.5609740" lon="-6.2745460">
        <ele>93.2</ele>
        <time>2021-07-21T11:17:51Z</time>
      </trkpt>
      <trkpt lat="43.5608890" lon="-6.2744840">
        <ele>92.6</ele>
        <time>2021-07-21T11:17:52Z</time>
      </trkpt>
      <trkpt lat="43.5608070" lon="-6.2744260">
        <ele>92.2</ele>
        <time>2021-07-21T11:17:53Z</time>
      </trkpt>
      <trkpt lat="43.5607320" lon="-6.2743750">
        <ele>91.6</ele>
        <time>2021-07-21T11:17:54Z</time>
      </trkpt>
      <trkpt lat="43.5606640" lon="-6.2743340">
        <ele>91.0</ele>
        <time>2021-07-21T11:17:55Z</time>
      </trkpt>
      <trkpt lat="43.5605990" lon="-6.2743020">
        <ele>90.2</ele>
        <time>2021-07-21T11:17:56Z</time>
      </trkpt>
      <trkpt lat="43.5605420" lon="-6.2742810">
        <ele>89.4</ele>
        <time>2021-07-21T11:17:57Z</time>
      </trkpt>
      <trkpt lat="43.5604870" lon="-6.2742760">
        <ele>88.6</ele>
        <time>2021-07-21T11:17:58Z</time>
      </trkpt>
      <trkpt lat="43.5604470" lon="-6.2743040">
        <ele>88.0</ele>
        <time>2021-07-21T11:17:59Z</time>
      </trkpt>
      <trkpt lat="43.5604130" lon="-6.2743410">
        <ele>87.4</ele>
        <time>2021-07-21T11:18:00Z</time>
      </trkpt>
      <trkpt lat="43.5603780" lon="-6.2744010">
        <ele>86.8</ele>
        <time>2021-07-21T11:18:01Z</time>
      </trkpt>
      <trkpt lat="43.5603500" lon="-6.2744670">
        <ele>86.2</ele>
        <time>2021-07-21T11:18:02Z</time>
      </trkpt>
      <trkpt lat="43.5603320" lon="-6.2745390">
        <ele>85.6</ele>
        <time>2021-07-21T11:18:03Z</time>
      </trkpt>
      <trkpt lat="43.5603240" lon="-6.2746170">
        <ele>85.0</ele>
        <time>2021-07-21T11:18:04Z</time>
      </trkpt>
      <trkpt lat="43.5603390" lon="-6.2747330">
        <ele>85.0</ele>
        <time>2021-07-21T11:18:06Z</time>
      </trkpt>
      <trkpt lat="43.5603650" lon="-6.2748030">
        <ele>84.0</ele>
        <time>2021-07-21T11:18:08Z</time>
      </trkpt>
      <trkpt lat="43.5603780" lon="-6.2748390">
        <ele>83.6</ele>
        <time>2021-07-21T11:18:09Z</time>
      </trkpt>
      <trkpt lat="43.5603910" lon="-6.2748820">
        <ele>83.2</ele>
        <time>2021-07-21T11:18:10Z</time>
      </trkpt>
      <trkpt lat="43.5604110" lon="-6.2749280">
        <ele>82.6</ele>
        <time>2021-07-21T11:18:11Z</time>
      </trkpt>
      <trkpt lat="43.5604300" lon="-6.2749800">
        <ele>82.2</ele>
        <time>2021-07-21T11:18:12Z</time>
      </trkpt>
      <trkpt lat="43.5604490" lon="-6.2750330">
        <ele>81.6</ele>
        <time>2021-07-21T11:18:13Z</time>
      </trkpt>
      <trkpt lat="43.5604700" lon="-6.2750900">
        <ele>81.2</ele>
        <time>2021-07-21T11:18:14Z</time>
      </trkpt>
      <trkpt lat="43.5604830" lon="-6.2751640">
        <ele>80.6</ele>
        <time>2021-07-21T11:18:15Z</time>
      </trkpt>
      <trkpt lat="43.5604950" lon="-6.2752450">
        <ele>80.0</ele>
        <time>2021-07-21T11:18:16Z</time>
      </trkpt>
      <trkpt lat="43.5605040" lon="-6.2753360">
        <ele>79.4</ele>
        <time>2021-07-21T11:18:17Z</time>
      </trkpt>
      <trkpt lat="43.5605120" lon="-6.2754330">
        <ele>78.8</ele>
        <time>2021-07-21T11:18:18Z</time>
      </trkpt>
      <trkpt lat="43.5605060" lon="-6.2755420">
        <ele>78.0</ele>
        <time>2021-07-21T11:18:19Z</time>
      </trkpt>
      <trkpt lat="43.5605050" lon="-6.2756490">
        <ele>77.4</ele>
        <time>2021-07-21T11:18:20Z</time>
      </trkpt>
      <trkpt lat="43.5604980" lon="-6.2757580">
        <ele>77.4</ele>
        <time>2021-07-21T11:18:21Z</time>
      </trkpt>
      <trkpt lat="43.5604830" lon="-6.2758780">
        <ele>77.0</ele>
        <time>2021-07-21T11:18:22Z</time>
      </trkpt>
      <trkpt lat="43.5604630" lon="-6.2759810">
        <ele>76.6</ele>
        <time>2021-07-21T11:18:23Z</time>
      </trkpt>
      <trkpt lat="43.5604420" lon="-6.2760700">
        <ele>76.2</ele>
        <time>2021-07-21T11:18:24Z</time>
      </trkpt>
      <trkpt lat="43.5604150" lon="-6.2761400">
        <ele>75.8</ele>
        <time>2021-07-21T11:18:25Z</time>
      </trkpt>
      <trkpt lat="43.5603830" lon="-6.2762000">
        <ele>75.4</ele>
        <time>2021-07-21T11:18:26Z</time>
      </trkpt>
      <trkpt lat="43.5603100" lon="-6.2763230">
        <ele>75.4</ele>
        <time>2021-07-21T11:18:28Z</time>
      </trkpt>
      <trkpt lat="43.5602210" lon="-6.2764570">
        <ele>75.4</ele>
        <time>2021-07-21T11:18:30Z</time>
      </trkpt>
      <trkpt lat="43.5600560" lon="-6.2766610">
        <ele>74.8</ele>
        <time>2021-07-21T11:18:33Z</time>
      </trkpt>
      <trkpt lat="43.5600070" lon="-6.2767370">
        <ele>74.4</ele>
        <time>2021-07-21T11:18:34Z</time>
      </trkpt>
      <trkpt lat="43.5599570" lon="-6.2768070">
        <ele>73.8</ele>
        <time>2021-07-21T11:18:35Z</time>
      </trkpt>
      <trkpt lat="43.5599010" lon="-6.2768770">
        <ele>73.4</ele>
        <time>2021-07-21T11:18:36Z</time>
      </trkpt>
      <trkpt lat="43.5598470" lon="-6.2769530">
        <ele>72.8</ele>
        <time>2021-07-21T11:18:37Z</time>
      </trkpt>
      <trkpt lat="43.5597910" lon="-6.2770150">
        <ele>72.8</ele>
        <time>2021-07-21T11:18:38Z</time>
      </trkpt>
      <trkpt lat="43.5596590" lon="-6.2771400">
        <ele>72.4</ele>
        <time>2021-07-21T11:18:40Z</time>
      </trkpt>
      <trkpt lat="43.5595840" lon="-6.2772060">
        <ele>72.0</ele>
        <time>2021-07-21T11:18:41Z</time>
      </trkpt>
      <trkpt lat="43.5595040" lon="-6.2772710">
        <ele>71.6</ele>
        <time>2021-07-21T11:18:42Z</time>
      </trkpt>
      <trkpt lat="43.5594150" lon="-6.2773300">
        <ele>71.0</ele>
        <time>2021-07-21T11:18:43Z</time>
      </trkpt>
      <trkpt lat="43.5593280" lon="-6.2773920">
        <ele>70.6</ele>
        <time>2021-07-21T11:18:44Z</time>
      </trkpt>
      <trkpt lat="43.5592360" lon="-6.2774510">
        <ele>70.2</ele>
        <time>2021-07-21T11:18:45Z</time>
      </trkpt>
      <trkpt lat="43.5591390" lon="-6.2775120">
        <ele>69.6</ele>
        <time>2021-07-21T11:18:46Z</time>
      </trkpt>
      <trkpt lat="43.5590440" lon="-6.2775620">
        <ele>69.2</ele>
        <time>2021-07-21T11:18:47Z</time>
      </trkpt>
      <trkpt lat="43.5589510" lon="-6.2776170">
        <ele>68.8</ele>
        <time>2021-07-21T11:18:48Z</time>
      </trkpt>
      <trkpt lat="43.5588620" lon="-6.2776760">
        <ele>68.2</ele>
        <time>2021-07-21T11:18:49Z</time>
      </trkpt>
      <trkpt lat="43.5587710" lon="-6.2777290">
        <ele>67.6</ele>
        <time>2021-07-21T11:18:50Z</time>
      </trkpt>
      <trkpt lat="43.5586860" lon="-6.2777750">
        <ele>67.0</ele>
        <time>2021-07-21T11:18:51Z</time>
      </trkpt>
      <trkpt lat="43.5586030" lon="-6.2778250">
        <ele>66.4</ele>
        <time>2021-07-21T11:18:52Z</time>
      </trkpt>
      <trkpt lat="43.5585170" lon="-6.2778800">
        <ele>65.8</ele>
        <time>2021-07-21T11:18:53Z</time>
      </trkpt>
      <trkpt lat="43.5584450" lon="-6.2779410">
        <ele>65.2</ele>
        <time>2021-07-21T11:18:54Z</time>
      </trkpt>
      <trkpt lat="43.5583970" lon="-6.2780240">
        <ele>64.6</ele>
        <time>2021-07-21T11:18:55Z</time>
      </trkpt>
      <trkpt lat="43.5583640" lon="-6.2781060">
        <ele>63.8</ele>
        <time>2021-07-21T11:18:56Z</time>
      </trkpt>
      <trkpt lat="43.5583510" lon="-6.2781880">
        <ele>63.2</ele>
        <time>2021-07-21T11:18:57Z</time>
      </trkpt>
      <trkpt lat="43.5583530" lon="-6.2782610">
        <ele>63.2</ele>
        <time>2021-07-21T11:18:58Z</time>
      </trkpt>
      <trkpt lat="43.5584570" lon="-6.2784200">
        <ele>63.2</ele>
        <time>2021-07-21T11:19:01Z</time>
      </trkpt>
      <trkpt lat="43.5586180" lon="-6.2784250">
        <ele>63.2</ele>
        <time>2021-07-21T11:19:04Z</time>
      </trkpt>
      <trkpt lat="43.5586710" lon="-6.2784040">
        <ele>63.2</ele>
        <time>2021-07-21T11:19:05Z</time>
      </trkpt>
      <trkpt lat="43.5587240" lon="-6.2783760">
        <ele>63.2</ele>
        <time>2021-07-21T11:19:06Z</time>
      </trkpt>
      <trkpt lat="43.5587740" lon="-6.2783440">
        <ele>63.2</ele>
        <time>2021-07-21T11:19:07Z</time>
      </trkpt>
      <trkpt lat="43.5588280" lon="-6.2783090">
        <ele>63.2</ele>
        <time>2021-07-21T11:19:08Z</time>
      </trkpt>
      <trkpt lat="43.5588780" lon="-6.2782760">
        <ele>63.2</ele>
        <time>2021-07-21T11:19:09Z</time>
      </trkpt>
      <trkpt lat="43.5589760" lon="-6.2782270">
        <ele>63.2</ele>
        <time>2021-07-21T11:19:11Z</time>
      </trkpt>
      <trkpt lat="43.5590750" lon="-6.2781930">
        <ele>63.2</ele>
        <time>2021-07-21T11:19:13Z</time>
      </trkpt>
      <trkpt lat="43.5591740" lon="-6.2781580">
        <ele>63.2</ele>
        <time>2021-07-21T11:19:15Z</time>
      </trkpt>
      <trkpt lat="43.5592180" lon="-6.2781490">
        <ele>63.2</ele>
        <time>2021-07-21T11:19:16Z</time>
      </trkpt>
      <trkpt lat="43.5593430" lon="-6.2781230">
        <ele>63.2</ele>
        <time>2021-07-21T11:19:19Z</time>
      </trkpt>
      <trkpt lat="43.5593820" lon="-6.2781160">
        <ele>63.2</ele>
        <time>2021-07-21T11:19:20Z</time>
      </trkpt>
      <trkpt lat="43.5594970" lon="-6.2781020">
        <ele>63.2</ele>
        <time>2021-07-21T11:19:23Z</time>
      </trkpt>
      <trkpt lat="43.5595870" lon="-6.2780880">
        <ele>63.2</ele>
        <time>2021-07-21T11:19:26Z</time>
      </trkpt>
      <trkpt lat="43.5596840" lon="-6.2780680">
        <ele>63.2</ele>
        <time>2021-07-21T11:19:29Z</time>
      </trkpt>
      <trkpt lat="43.5597390" lon="-6.2780560">
        <ele>63.2</ele>
        <time>2021-07-21T11:19:31Z</time>
      </trkpt>
      <trkpt lat="43.5598010" lon="-6.2780460">
        <ele>63.6</ele>
        <time>2021-07-21T11:19:33Z</time>
      </trkpt>
      <trkpt lat="43.5598330" lon="-6.2780360">
        <ele>64.0</ele>
        <time>2021-07-21T11:19:34Z</time>
      </trkpt>
      <trkpt lat="43.5598670" lon="-6.2780350">
        <ele>64.4</ele>
        <time>2021-07-21T11:19:35Z</time>
      </trkpt>
      <trkpt lat="43.5599020" lon="-6.2780330">
        <ele>64.8</ele>
        <time>2021-07-21T11:19:36Z</time>
      </trkpt>
      <trkpt lat="43.5599400" lon="-6.2780260">
        <ele>65.2</ele>
        <time>2021-07-21T11:19:37Z</time>
      </trkpt>
      <trkpt lat="43.5600950" lon="-6.2779980">
        <ele>65.2</ele>
        <time>2021-07-21T11:19:42Z</time>
      </trkpt>
      <trkpt lat="43.5602070" lon="-6.2779710">
        <ele>65.6</ele>
        <time>2021-07-21T11:19:46Z</time>
      </trkpt>
      <trkpt lat="43.5602410" lon="-6.2779590">
        <ele>66.4</ele>
        <time>2021-07-21T11:19:47Z</time>
      </trkpt>
      <trkpt lat="43.5602690" lon="-6.2779460">
        <ele>67.0</ele>
        <time>2021-07-21T11:19:48Z</time>
      </trkpt>
      <trkpt lat="43.5602920" lon="-6.2779320">
        <ele>67.4</ele>
        <time>2021-07-21T11:19:49Z</time>
      </trkpt>
      <trkpt lat="43.5603790" lon="-6.2778800">
        <ele>67.4</ele>
        <time>2021-07-21T11:19:52Z</time>
      </trkpt>
      <trkpt lat="43.5604620" lon="-6.2778330">
        <ele>67.8</ele>
        <time>2021-07-21T11:19:55Z</time>
      </trkpt>
      <trkpt lat="43.5604880" lon="-6.2778150">
        <ele>68.2</ele>
        <time>2021-07-21T11:19:56Z</time>
      </trkpt>
      <trkpt lat="43.5605140" lon="-6.2777960">
        <ele>68.6</ele>
        <time>2021-07-21T11:19:57Z</time>
      </trkpt>
      <trkpt lat="43.5605350" lon="-6.2777780">
        <ele>69.0</ele>
        <time>2021-07-21T11:19:58Z</time>
      </trkpt>
      <trkpt lat="43.5605570" lon="-6.2777620">
        <ele>69.4</ele>
        <time>2021-07-21T11:19:59Z</time>
      </trkpt>
      <trkpt lat="43.5607500" lon="-6.2775970">
        <ele>69.4</ele>
        <time>2021-07-21T11:20:07Z</time>
      </trkpt>
      <trkpt lat="43.5607720" lon="-6.2775780">
        <ele>69.8</ele>
        <time>2021-07-21T11:20:08Z</time>
      </trkpt>
      <trkpt lat="43.5608000" lon="-6.2775580">
        <ele>70.2</ele>
        <time>2021-07-21T11:20:09Z</time>
      </trkpt>
      <trkpt lat="43.5608240" lon="-6.2775400">
        <ele>70.6</ele>
        <time>2021-07-21T11:20:10Z</time>
      </trkpt>
      <trkpt lat="43.5608380" lon="-6.2775310">
        <ele>71.0</ele>
        <time>2021-07-21T11:20:11Z</time>
      </trkpt>
      <trkpt lat="43.5608600" lon="-6.2775080">
        <ele>71.4</ele>
        <time>2021-07-21T11:20:12Z</time>
      </trkpt>
      <trkpt lat="43.5608820" lon="-6.2774950">
        <ele>71.4</ele>
        <time>2021-07-21T11:20:13Z</time>
      </trkpt>
      <trkpt lat="43.5610180" lon="-6.2774380">
        <ele>71.4</ele>
        <time>2021-07-21T11:20:18Z</time>
      </trkpt>
      <trkpt lat="43.5610660" lon="-6.2774090">
        <ele>71.4</ele>
        <time>2021-07-21T11:20:20Z</time>
      </trkpt>
      <trkpt lat="43.5610870" lon="-6.2773940">
        <ele>72.0</ele>
        <time>2021-07-21T11:20:21Z</time>
      </trkpt>
      <trkpt lat="43.5611080" lon="-6.2773850">
        <ele>72.4</ele>
        <time>2021-07-21T11:20:22Z</time>
      </trkpt>
      <trkpt lat="43.5611260" lon="-6.2773710">
        <ele>72.8</ele>
        <time>2021-07-21T11:20:23Z</time>
      </trkpt>
      <trkpt lat="43.5611450" lon="-6.2773560">
        <ele>73.2</ele>
        <time>2021-07-21T11:20:24Z</time>
      </trkpt>
      <trkpt lat="43.5611650" lon="-6.2773430">
        <ele>73.6</ele>
        <time>2021-07-21T11:20:25Z</time>
      </trkpt>
      <trkpt lat="43.5612170" lon="-6.2773150">
        <ele>73.6</ele>
        <time>2021-07-21T11:20:27Z</time>
      </trkpt>
      <trkpt lat="43.5614460" lon="-6.2771770">
        <ele>74.0</ele>
        <time>2021-07-21T11:20:35Z</time>
      </trkpt>
      <trkpt lat="43.5614690" lon="-6.2771560">
        <ele>74.8</ele>
        <time>2021-07-21T11:20:36Z</time>
      </trkpt>
      <trkpt lat="43.5614900" lon="-6.2771410">
        <ele>75.2</ele>
        <time>2021-07-21T11:20:37Z</time>
      </trkpt>
      <trkpt lat="43.5615160" lon="-6.2771250">
        <ele>75.8</ele>
        <time>2021-07-21T11:20:38Z</time>
      </trkpt>
      <trkpt lat="43.5616080" lon="-6.2770640">
        <ele>75.8</ele>
        <time>2021-07-21T11:20:42Z</time>
      </trkpt>
      <trkpt lat="43.5617120" lon="-6.2770100">
        <ele>75.8</ele>
        <time>2021-07-21T11:20:47Z</time>
      </trkpt>
      <trkpt lat="43.5617350" lon="-6.2770050">
        <ele>76.2</ele>
        <time>2021-07-21T11:20:48Z</time>
      </trkpt>
      <trkpt lat="43.5617580" lon="-6.2769990">
        <ele>76.6</ele>
        <time>2021-07-21T11:20:49Z</time>
      </trkpt>
      <trkpt lat="43.5617800" lon="-6.2769920">
        <ele>77.0</ele>
        <time>2021-07-21T11:20:50Z</time>
      </trkpt>
      <trkpt lat="43.5618040" lon="-6.2769860">
        <ele>77.4</ele>
        <time>2021-07-21T11:20:51Z</time>
      </trkpt>
      <trkpt lat="43.5618300" lon="-6.2769840">
        <ele>77.8</ele>
        <time>2021-07-21T11:20:52Z</time>
      </trkpt>
      <trkpt lat="43.5619140" lon="-6.2769840">
        <ele>77.8</ele>
        <time>2021-07-21T11:20:55Z</time>
      </trkpt>
      <trkpt lat="43.5620970" lon="-6.2769770">
        <ele>78.2</ele>
        <time>2021-07-21T11:21:01Z</time>
      </trkpt>
      <trkpt lat="43.5621300" lon="-6.2769820">
        <ele>78.6</ele>
        <time>2021-07-21T11:21:02Z</time>
      </trkpt>
      <trkpt lat="43.5621650" lon="-6.2769920">
        <ele>79.0</ele>
        <time>2021-07-21T11:21:03Z</time>
      </trkpt>
      <trkpt lat="43.5621990" lon="-6.2769980">
        <ele>79.4</ele>
        <time>2021-07-21T11:21:04Z</time>
      </trkpt>
      <trkpt lat="43.5622290" lon="-6.2770040">
        <ele>79.8</ele>
        <time>2021-07-21T11:21:05Z</time>
      </trkpt>
      <trkpt lat="43.5623750" lon="-6.2770460">
        <ele>79.8</ele>
        <time>2021-07-21T11:21:10Z</time>
      </trkpt>
      <trkpt lat="43.5625720" lon="-6.2771060">
        <ele>80.2</ele>
        <time>2021-07-21T11:21:17Z</time>
      </trkpt>
      <trkpt lat="43.5625990" lon="-6.2771140">
        <ele>80.6</ele>
        <time>2021-07-21T11:21:18Z</time>
      </trkpt>
      <trkpt lat="43.5626270" lon="-6.2771190">
        <ele>81.0</ele>
        <time>2021-07-21T11:21:19Z</time>
      </trkpt>
      <trkpt lat="43.5626550" lon="-6.2771250">
        <ele>81.6</ele>
        <time>2021-07-21T11:21:20Z</time>
      </trkpt>
      <trkpt lat="43.5626840" lon="-6.2771300">
        <ele>82.0</ele>
        <time>2021-07-21T11:21:21Z</time>
      </trkpt>
      <trkpt lat="43.5628670" lon="-6.2772320">
        <ele>82.0</ele>
        <time>2021-07-21T11:21:28Z</time>
      </trkpt>
      <trkpt lat="43.5629350" lon="-6.2772550">
        <ele>82.4</ele>
        <time>2021-07-21T11:21:31Z</time>
      </trkpt>
      <trkpt lat="43.5629610" lon="-6.2772640">
        <ele>82.8</ele>
        <time>2021-07-21T11:21:32Z</time>
      </trkpt>
      <trkpt lat="43.5629860" lon="-6.2772730">
        <ele>83.2</ele>
        <time>2021-07-21T11:21:33Z</time>
      </trkpt>
      <trkpt lat="43.5630120" lon="-6.2772830">
        <ele>83.6</ele>
        <time>2021-07-21T11:21:34Z</time>
      </trkpt>
      <trkpt lat="43.5630380" lon="-6.2772910">
        <ele>84.0</ele>
        <time>2021-07-21T11:21:35Z</time>
      </trkpt>
      <trkpt lat="43.5630930" lon="-6.2772990">
        <ele>84.0</ele>
        <time>2021-07-21T11:21:37Z</time>
      </trkpt>
      <trkpt lat="43.5633030" lon="-6.2773740">
        <ele>84.0</ele>
        <time>2021-07-21T11:21:45Z</time>
      </trkpt>
      <trkpt lat="43.5633270" lon="-6.2773830">
        <ele>84.4</ele>
        <time>2021-07-21T11:21:46Z</time>
      </trkpt>
      <trkpt lat="43.5633500" lon="-6.2773950">
        <ele>84.8</ele>
        <time>2021-07-21T11:21:47Z</time>
      </trkpt>
      <trkpt lat="43.5633740" lon="-6.2774070">
        <ele>85.2</ele>
        <time>2021-07-21T11:21:48Z</time>
      </trkpt>
      <trkpt lat="43.5633980" lon="-6.2774170">
        <ele>85.6</ele>
        <time>2021-07-21T11:21:49Z</time>
      </trkpt>
      <trkpt lat="43.5634220" lon="-6.2774270">
        <ele>86.2</ele>
        <time>2021-07-21T11:21:50Z</time>
      </trkpt>
      <trkpt lat="43.5635460" lon="-6.2774950">
        <ele>86.2</ele>
        <time>2021-07-21T11:21:55Z</time>
      </trkpt>
      <trkpt lat="43.5636350" lon="-6.2775720">
        <ele>86.6</ele>
        <time>2021-07-21T11:21:59Z</time>
      </trkpt>
      <trkpt lat="43.5636550" lon="-6.2775900">
        <ele>87.0</ele>
        <time>2021-07-21T11:22:00Z</time>
      </trkpt>
      <trkpt lat="43.5636760" lon="-6.2776110">
        <ele>87.4</ele>
        <time>2021-07-21T11:22:01Z</time>
      </trkpt>
      <trkpt lat="43.5637000" lon="-6.2776310">
        <ele>87.8</ele>
        <time>2021-07-21T11:22:02Z</time>
      </trkpt>
      <trkpt lat="43.5637240" lon="-6.2776490">
        <ele>88.2</ele>
        <time>2021-07-21T11:22:03Z</time>
      </trkpt>
      <trkpt lat="43.5638430" lon="-6.2778320">
        <ele>88.2</ele>
        <time>2021-07-21T11:22:10Z</time>
      </trkpt>
      <trkpt lat="43.5639160" lon="-6.2779780">
        <ele>89.0</ele>
        <time>2021-07-21T11:22:15Z</time>
      </trkpt>
      <trkpt lat="43.5639280" lon="-6.2780140">
        <ele>89.4</ele>
        <time>2021-07-21T11:22:16Z</time>
      </trkpt>
      <trkpt lat="43.5639410" lon="-6.2780490">
        <ele>90.0</ele>
        <time>2021-07-21T11:22:17Z</time>
      </trkpt>
      <trkpt lat="43.5639500" lon="-6.2780850">
        <ele>90.4</ele>
        <time>2021-07-21T11:22:18Z</time>
      </trkpt>
      <trkpt lat="43.5639570" lon="-6.2781190">
        <ele>90.4</ele>
        <time>2021-07-21T11:22:19Z</time>
      </trkpt>
      <trkpt lat="43.5639720" lon="-6.2784200">
        <ele>90.4</ele>
        <time>2021-07-21T11:22:27Z</time>
      </trkpt>
      <trkpt lat="43.5639790" lon="-6.2786640">
        <ele>90.8</ele>
        <time>2021-07-21T11:22:33Z</time>
      </trkpt>
      <trkpt lat="43.5639780" lon="-6.2787070">
        <ele>91.2</ele>
        <time>2021-07-21T11:22:34Z</time>
      </trkpt>
      <trkpt lat="43.5639790" lon="-6.2787480">
        <ele>91.6</ele>
        <time>2021-07-21T11:22:35Z</time>
      </trkpt>
      <trkpt lat="43.5639810" lon="-6.2787910">
        <ele>92.0</ele>
        <time>2021-07-21T11:22:36Z</time>
      </trkpt>
      <trkpt lat="43.5639810" lon="-6.2788360">
        <ele>92.4</ele>
        <time>2021-07-21T11:22:37Z</time>
      </trkpt>
      <trkpt lat="43.5639790" lon="-6.2792090">
        <ele>92.4</ele>
        <time>2021-07-21T11:22:45Z</time>
      </trkpt>
      <trkpt lat="43.5639740" lon="-6.2795470">
        <ele>92.4</ele>
        <time>2021-07-21T11:22:52Z</time>
      </trkpt>
      <trkpt lat="43.5639720" lon="-6.2797520">
        <ele>92.4</ele>
        <time>2021-07-21T11:22:56Z</time>
      </trkpt>
      <trkpt lat="43.5639750" lon="-6.2800180">
        <ele>92.4</ele>
        <time>2021-07-21T11:23:01Z</time>
      </trkpt>
      <trkpt lat="43.5639780" lon="-6.2800710">
        <ele>92.4</ele>
        <time>2021-07-21T11:23:02Z</time>
      </trkpt>
      <trkpt lat="43.5639710" lon="-6.2802270">
        <ele>92.4</ele>
        <time>2021-07-21T11:23:05Z</time>
      </trkpt>
      <trkpt lat="43.5639750" lon="-6.2803230">
        <ele>92.4</ele>
        <time>2021-07-21T11:23:07Z</time>
      </trkpt>
      <trkpt lat="43.5639750" lon="-6.2803730">
        <ele>92.4</ele>
        <time>2021-07-21T11:23:08Z</time>
      </trkpt>
      <trkpt lat="43.5639780" lon="-6.2807540">
        <ele>92.4</ele>
        <time>2021-07-21T11:23:15Z</time>
      </trkpt>
      <trkpt lat="43.5639760" lon="-6.2809050">
        <ele>92.4</ele>
        <time>2021-07-21T11:23:18Z</time>
      </trkpt>
      <trkpt lat="43.5639730" lon="-6.2810900">
        <ele>92.4</ele>
        <time>2021-07-21T11:23:22Z</time>
      </trkpt>
      <trkpt lat="43.5639660" lon="-6.2812120">
        <ele>92.4</ele>
        <time>2021-07-21T11:23:25Z</time>
      </trkpt>
      <trkpt lat="43.5639420" lon="-6.2813540">
        <ele>92.4</ele>
        <time>2021-07-21T11:23:28Z</time>
      </trkpt>
      <trkpt lat="43.5638620" lon="-6.2815680">
        <ele>92.4</ele>
        <time>2021-07-21T11:23:33Z</time>
      </trkpt>
      <trkpt lat="43.5638390" lon="-6.2816150">
        <ele>92.4</ele>
        <time>2021-07-21T11:23:34Z</time>
      </trkpt>
      <trkpt lat="43.5637210" lon="-6.2818210">
        <ele>92.4</ele>
        <time>2021-07-21T11:23:39Z</time>
      </trkpt>
      <trkpt lat="43.5636520" lon="-6.2819410">
        <ele>92.4</ele>
        <time>2021-07-21T11:23:42Z</time>
      </trkpt>
      <trkpt lat="43.5635710" lon="-6.2821480">
        <ele>92.4</ele>
        <time>2021-07-21T11:23:46Z</time>
      </trkpt>
      <trkpt lat="43.5635330" lon="-6.2823070">
        <ele>92.4</ele>
        <time>2021-07-21T11:23:49Z</time>
      </trkpt>
      <trkpt lat="43.5634290" lon="-6.2827350">
        <ele>92.4</ele>
        <time>2021-07-21T11:23:57Z</time>
      </trkpt>
      <trkpt lat="43.5633960" lon="-6.2828450">
        <ele>92.4</ele>
        <time>2021-07-21T11:23:59Z</time>
      </trkpt>
      <trkpt lat="43.5632940" lon="-6.2831900">
        <ele>92.4</ele>
        <time>2021-07-21T11:24:06Z</time>
      </trkpt>
      <trkpt lat="43.5632290" lon="-6.2834030">
        <ele>92.4</ele>
        <time>2021-07-21T11:24:11Z</time>
      </trkpt>
      <trkpt lat="43.5632010" lon="-6.2834900">
        <ele>92.4</ele>
        <time>2021-07-21T11:24:14Z</time>
      </trkpt>
      <trkpt lat="43.5631770" lon="-6.2835590">
        <ele>92.4</ele>
        <time>2021-07-21T11:24:19Z</time>
      </trkpt>
      <trkpt lat="43.5631620" lon="-6.2835250">
        <ele>92.4</ele>
        <time>2021-07-21T11:24:33Z</time>
      </trkpt>
      <trkpt lat="43.5631140" lon="-6.2834590">
        <ele>92.4</ele>
        <time>2021-07-21T11:24:36Z</time>
      </trkpt>
      <trkpt lat="43.5629760" lon="-6.2833250">
        <ele>92.4</ele>
        <time>2021-07-21T11:24:43Z</time>
      </trkpt>
      <trkpt lat="43.5628730" lon="-6.2833150">
        <ele>92.8</ele>
        <time>2021-07-21T11:24:47Z</time>
      </trkpt>
      <trkpt lat="43.5628490" lon="-6.2833270">
        <ele>93.2</ele>
        <time>2021-07-21T11:24:48Z</time>
      </trkpt>
      <trkpt lat="43.5628310" lon="-6.2833560">
        <ele>93.6</ele>
        <time>2021-07-21T11:24:49Z</time>
      </trkpt>
      <trkpt lat="43.5628170" lon="-6.2833880">
        <ele>94.0</ele>
        <time>2021-07-21T11:24:50Z</time>
      </trkpt>
      <trkpt lat="43.5628050" lon="-6.2834190">
        <ele>94.4</ele>
        <time>2021-07-21T11:24:51Z</time>
      </trkpt>
      <trkpt lat="43.5627840" lon="-6.2834360">
        <ele>94.4</ele>
        <time>2021-07-21T11:24:52Z</time>
      </trkpt>
      <trkpt lat="43.5627500" lon="-6.2833820">
        <ele>94.4</ele>
        <time>2021-07-21T11:24:55Z</time>
      </trkpt>
      <trkpt lat="43.5627850" lon="-6.2833150">
        <ele>94.4</ele>
        <time>2021-07-21T11:24:59Z</time>
      </trkpt>
      <trkpt lat="43.5627840" lon="-6.2833210">
        <ele>94.4</ele>
        <time>2021-07-21T11:25:00Z</time>
      </trkpt>
      <trkpt lat="43.5627910" lon="-6.2833030">
        <ele>94.4</ele>
        <time>2021-07-21T11:25:32Z</time>
      </trkpt>
      <trkpt lat="43.5628080" lon="-6.2832600">
        <ele>94.4</ele>
        <time>2021-07-21T11:25:34Z</time>
      </trkpt>
      <trkpt lat="43.5628160" lon="-6.2832460">
        <ele>94.4</ele>
        <time>2021-07-21T11:25:35Z</time>
      </trkpt>
      <trkpt lat="43.5628430" lon="-6.2832420">
        <ele>94.4</ele>
        <time>2021-07-21T11:25:40Z</time>
      </trkpt>
      <trkpt lat="43.5628530" lon="-6.2832460">
        <ele>94.4</ele>
        <time>2021-07-21T11:31:33Z</time>
      </trkpt>
      <trkpt lat="43.5628680" lon="-6.2832580">
        <ele>94.4</ele>
        <time>2021-07-21T11:31:34Z</time>
      </trkpt>
      <trkpt lat="43.5629540" lon="-6.2833380">
        <ele>94.4</ele>
        <time>2021-07-21T11:31:38Z</time>
      </trkpt>
      <trkpt lat="43.5630670" lon="-6.2834080">
        <ele>94.4</ele>
        <time>2021-07-21T11:31:42Z</time>
      </trkpt>
      <trkpt lat="43.5630840" lon="-6.2834220">
        <ele>94.0</ele>
        <time>2021-07-21T11:31:43Z</time>
      </trkpt>
      <trkpt lat="43.5630960" lon="-6.2834320">
        <ele>93.2</ele>
        <time>2021-07-21T11:31:44Z</time>
      </trkpt>
      <trkpt lat="43.5631040" lon="-6.2834370">
        <ele>92.8</ele>
        <time>2021-07-21T11:31:45Z</time>
      </trkpt>
      <trkpt lat="43.5631080" lon="-6.2834400">
        <ele>92.4</ele>
        <time>2021-07-21T11:31:46Z</time>
      </trkpt>
      <trkpt lat="43.5631170" lon="-6.2834560">
        <ele>92.4</ele>
        <time>2021-07-21T11:31:54Z</time>
      </trkpt>
      <trkpt lat="43.5631240" lon="-6.2834790">
        <ele>92.4</ele>
        <time>2021-07-21T11:31:55Z</time>
      </trkpt>
      <trkpt lat="43.5631360" lon="-6.2836230">
        <ele>92.4</ele>
        <time>2021-07-21T11:31:59Z</time>
      </trkpt>
      <trkpt lat="43.5631250" lon="-6.2836650">
        <ele>92.4</ele>
        <time>2021-07-21T11:32:00Z</time>
      </trkpt>
      <trkpt lat="43.5631110" lon="-6.2837110">
        <ele>92.4</ele>
        <time>2021-07-21T11:32:01Z</time>
      </trkpt>
      <trkpt lat="43.5630690" lon="-6.2838630">
        <ele>92.4</ele>
        <time>2021-07-21T11:32:04Z</time>
      </trkpt>
      <trkpt lat="43.5630430" lon="-6.2839860">
        <ele>92.4</ele>
        <time>2021-07-21T11:32:06Z</time>
      </trkpt>
      <trkpt lat="43.5630030" lon="-6.2842380">
        <ele>92.4</ele>
        <time>2021-07-21T11:32:10Z</time>
      </trkpt>
      <trkpt lat="43.5629630" lon="-6.2844890">
        <ele>92.4</ele>
        <time>2021-07-21T11:32:14Z</time>
      </trkpt>
      <trkpt lat="43.5629350" lon="-6.2846910">
        <ele>92.4</ele>
        <time>2021-07-21T11:32:17Z</time>
      </trkpt>
      <trkpt lat="43.5629000" lon="-6.2848890">
        <ele>92.4</ele>
        <time>2021-07-21T11:32:20Z</time>
      </trkpt>
      <trkpt lat="43.5628730" lon="-6.2850260">
        <ele>92.4</ele>
        <time>2021-07-21T11:32:22Z</time>
      </trkpt>
      <trkpt lat="43.5627700" lon="-6.2854660">
        <ele>92.4</ele>
        <time>2021-07-21T11:32:29Z</time>
      </trkpt>
      <trkpt lat="43.5627460" lon="-6.2855210">
        <ele>92.4</ele>
        <time>2021-07-21T11:32:30Z</time>
      </trkpt>
      <trkpt lat="43.5627170" lon="-6.2855730">
        <ele>91.8</ele>
        <time>2021-07-21T11:32:31Z</time>
      </trkpt>
      <trkpt lat="43.5626850" lon="-6.2856180">
        <ele>91.4</ele>
        <time>2021-07-21T11:32:32Z</time>
      </trkpt>
      <trkpt lat="43.5626490" lon="-6.2856590">
        <ele>90.6</ele>
        <time>2021-07-21T11:32:33Z</time>
      </trkpt>
      <trkpt lat="43.5626140" lon="-6.2856950">
        <ele>90.2</ele>
        <time>2021-07-21T11:32:34Z</time>
      </trkpt>
      <trkpt lat="43.5625060" lon="-6.2857670">
        <ele>90.2</ele>
        <time>2021-07-21T11:32:37Z</time>
      </trkpt>
      <trkpt lat="43.5624630" lon="-6.2857770">
        <ele>90.2</ele>
        <time>2021-07-21T11:32:38Z</time>
      </trkpt>
      <trkpt lat="43.5624180" lon="-6.2857850">
        <ele>90.2</ele>
        <time>2021-07-21T11:32:39Z</time>
      </trkpt>
      <trkpt lat="43.5622120" lon="-6.2857960">
        <ele>90.2</ele>
        <time>2021-07-21T11:32:43Z</time>
      </trkpt>
      <trkpt lat="43.5621010" lon="-6.2858000">
        <ele>90.2</ele>
        <time>2021-07-21T11:32:45Z</time>
      </trkpt>
      <trkpt lat="43.5618800" lon="-6.2858070">
        <ele>90.2</ele>
        <time>2021-07-21T11:32:49Z</time>
      </trkpt>
      <trkpt lat="43.5616770" lon="-6.2858230">
        <ele>90.2</ele>
        <time>2021-07-21T11:32:53Z</time>
      </trkpt>
      <trkpt lat="43.5616270" lon="-6.2858340">
        <ele>90.2</ele>
        <time>2021-07-21T11:32:54Z</time>
      </trkpt>
      <trkpt lat="43.5615240" lon="-6.2858710">
        <ele>90.2</ele>
        <time>2021-07-21T11:32:56Z</time>
      </trkpt>
      <trkpt lat="43.5613740" lon="-6.2859820">
        <ele>90.2</ele>
        <time>2021-07-21T11:32:59Z</time>
      </trkpt>
      <trkpt lat="43.5612940" lon="-6.2860820">
        <ele>90.2</ele>
        <time>2021-07-21T11:33:01Z</time>
      </trkpt>
      <trkpt lat="43.5611810" lon="-6.2862260">
        <ele>90.2</ele>
        <time>2021-07-21T11:33:04Z</time>
      </trkpt>
      <trkpt lat="43.5611440" lon="-6.2862720">
        <ele>90.2</ele>
        <time>2021-07-21T11:33:05Z</time>
      </trkpt>
      <trkpt lat="43.5610700" lon="-6.2863700">
        <ele>90.2</ele>
        <time>2021-07-21T11:33:07Z</time>
      </trkpt>
      <trkpt lat="43.5609290" lon="-6.2865450">
        <ele>90.2</ele>
        <time>2021-07-21T11:33:11Z</time>
      </trkpt>
      <trkpt lat="43.5608290" lon="-6.2866620">
        <ele>90.2</ele>
        <time>2021-07-21T11:33:14Z</time>
      </trkpt>
      <trkpt lat="43.5605990" lon="-6.2868360">
        <ele>90.2</ele>
        <time>2021-07-21T11:33:20Z</time>
      </trkpt>
      <trkpt lat="43.5605580" lon="-6.2868510">
        <ele>90.2</ele>
        <time>2021-07-21T11:33:21Z</time>
      </trkpt>
      <trkpt lat="43.5605140" lon="-6.2868670">
        <ele>91.0</ele>
        <time>2021-07-21T11:33:22Z</time>
      </trkpt>
      <trkpt lat="43.5604730" lon="-6.2868770">
        <ele>91.4</ele>
        <time>2021-07-21T11:33:23Z</time>
      </trkpt>
      <trkpt lat="43.5604350" lon="-6.2868860">
        <ele>91.8</ele>
        <time>2021-07-21T11:33:24Z</time>
      </trkpt>
      <trkpt lat="43.5603970" lon="-6.2868940">
        <ele>92.2</ele>
        <time>2021-07-21T11:33:25Z</time>
      </trkpt>
      <trkpt lat="43.5602850" lon="-6.2869140">
        <ele>92.2</ele>
        <time>2021-07-21T11:33:28Z</time>
      </trkpt>
      <trkpt lat="43.5601520" lon="-6.2869240">
        <ele>92.2</ele>
        <time>2021-07-21T11:33:33Z</time>
      </trkpt>
      <trkpt lat="43.5601460" lon="-6.2869260">
        <ele>92.2</ele>
        <time>2021-07-21T11:33:35Z</time>
      </trkpt>
      <trkpt lat="43.5601280" lon="-6.2869150">
        <ele>92.2</ele>
        <time>2021-07-21T11:34:35Z</time>
      </trkpt>
      <trkpt lat="43.5601130" lon="-6.2869090">
        <ele>92.2</ele>
        <time>2021-07-21T11:34:36Z</time>
      </trkpt>
      <trkpt lat="43.5600780" lon="-6.2868990">
        <ele>92.2</ele>
        <time>2021-07-21T11:34:38Z</time>
      </trkpt>
      <trkpt lat="43.5600270" lon="-6.2868920">
        <ele>92.2</ele>
        <time>2021-07-21T11:34:40Z</time>
      </trkpt>
      <trkpt lat="43.5599650" lon="-6.2868650">
        <ele>92.2</ele>
        <time>2021-07-21T11:34:42Z</time>
      </trkpt>
      <trkpt lat="43.5598640" lon="-6.2868020">
        <ele>92.2</ele>
        <time>2021-07-21T11:34:45Z</time>
      </trkpt>
      <trkpt lat="43.5597960" lon="-6.2867350">
        <ele>92.2</ele>
        <time>2021-07-21T11:34:47Z</time>
      </trkpt>
      <trkpt lat="43.5596020" lon="-6.2865020">
        <ele>92.2</ele>
        <time>2021-07-21T11:34:53Z</time>
      </trkpt>
      <trkpt lat="43.5595730" lon="-6.2864650">
        <ele>92.2</ele>
        <time>2021-07-21T11:34:54Z</time>
      </trkpt>
      <trkpt lat="43.5594860" lon="-6.2863570">
        <ele>92.2</ele>
        <time>2021-07-21T11:34:57Z</time>
      </trkpt>
      <trkpt lat="43.5593560" lon="-6.2861890">
        <ele>92.2</ele>
        <time>2021-07-21T11:35:02Z</time>
      </trkpt>
      <trkpt lat="43.5593290" lon="-6.2861580">
        <ele>92.2</ele>
        <time>2021-07-21T11:35:03Z</time>
      </trkpt>
      <trkpt lat="43.5591040" lon="-6.2858960">
        <ele>92.2</ele>
        <time>2021-07-21T11:35:10Z</time>
      </trkpt>
      <trkpt lat="43.5588790" lon="-6.2857230">
        <ele>92.2</ele>
        <time>2021-07-21T11:35:15Z</time>
      </trkpt>
      <trkpt lat="43.5588320" lon="-6.2857050">
        <ele>92.2</ele>
        <time>2021-07-21T11:35:16Z</time>
      </trkpt>
      <trkpt lat="43.5586100" lon="-6.2857160">
        <ele>91.8</ele>
        <time>2021-07-21T11:35:21Z</time>
      </trkpt>
      <trkpt lat="43.5585660" lon="-6.2857310">
        <ele>91.4</ele>
        <time>2021-07-21T11:35:22Z</time>
      </trkpt>
      <trkpt lat="43.5585210" lon="-6.2857470">
        <ele>91.0</ele>
        <time>2021-07-21T11:35:23Z</time>
      </trkpt>
      <trkpt lat="43.5584740" lon="-6.2857610">
        <ele>90.6</ele>
        <time>2021-07-21T11:35:24Z</time>
      </trkpt>
      <trkpt lat="43.5584280" lon="-6.2857760">
        <ele>90.2</ele>
        <time>2021-07-21T11:35:25Z</time>
      </trkpt>
      <trkpt lat="43.5581320" lon="-6.2858890">
        <ele>90.2</ele>
        <time>2021-07-21T11:35:31Z</time>
      </trkpt>
      <trkpt lat="43.5577660" lon="-6.2860170">
        <ele>90.2</ele>
        <time>2021-07-21T11:35:38Z</time>
      </trkpt>
      <trkpt lat="43.5577120" lon="-6.2860350">
        <ele>89.8</ele>
        <time>2021-07-21T11:35:39Z</time>
      </trkpt>
      <trkpt lat="43.5576570" lon="-6.2860540">
        <ele>89.4</ele>
        <time>2021-07-21T11:35:40Z</time>
      </trkpt>
      <trkpt lat="43.5576050" lon="-6.2860740">
        <ele>88.8</ele>
        <time>2021-07-21T11:35:41Z</time>
      </trkpt>
      <trkpt lat="43.5575510" lon="-6.2860930">
        <ele>88.4</ele>
        <time>2021-07-21T11:35:42Z</time>
      </trkpt>
      <trkpt lat="43.5574970" lon="-6.2861120">
        <ele>88.0</ele>
        <time>2021-07-21T11:35:43Z</time>
      </trkpt>
      <trkpt lat="43.5573890" lon="-6.2861570">
        <ele>88.0</ele>
        <time>2021-07-21T11:35:45Z</time>
      </trkpt>
      <trkpt lat="43.5573350" lon="-6.2861780">
        <ele>88.0</ele>
        <time>2021-07-21T11:35:46Z</time>
      </trkpt>
      <trkpt lat="43.5569600" lon="-6.2863090">
        <ele>88.0</ele>
        <time>2021-07-21T11:35:53Z</time>
      </trkpt>
      <trkpt lat="43.5567900" lon="-6.2863870">
        <ele>87.6</ele>
        <time>2021-07-21T11:35:56Z</time>
      </trkpt>
      <trkpt lat="43.5567360" lon="-6.2864270">
        <ele>87.2</ele>
        <time>2021-07-21T11:35:57Z</time>
      </trkpt>
      <trkpt lat="43.5566870" lon="-6.2864830">
        <ele>86.8</ele>
        <time>2021-07-21T11:35:58Z</time>
      </trkpt>
      <trkpt lat="43.5566430" lon="-6.2865530">
        <ele>86.4</ele>
        <time>2021-07-21T11:35:59Z</time>
      </trkpt>
      <trkpt lat="43.5566060" lon="-6.2866390">
        <ele>86.0</ele>
        <time>2021-07-21T11:36:00Z</time>
      </trkpt>
      <trkpt lat="43.5565780" lon="-6.2867310">
        <ele>86.0</ele>
        <time>2021-07-21T11:36:01Z</time>
      </trkpt>
      <trkpt lat="43.5565600" lon="-6.2868300">
        <ele>85.6</ele>
        <time>2021-07-21T11:36:02Z</time>
      </trkpt>
      <trkpt lat="43.5565510" lon="-6.2869320">
        <ele>85.2</ele>
        <time>2021-07-21T11:36:03Z</time>
      </trkpt>
      <trkpt lat="43.5565530" lon="-6.2870350">
        <ele>84.8</ele>
        <time>2021-07-21T11:36:04Z</time>
      </trkpt>
      <trkpt lat="43.5565620" lon="-6.2871320">
        <ele>84.4</ele>
        <time>2021-07-21T11:36:05Z</time>
      </trkpt>
      <trkpt lat="43.5565740" lon="-6.2872200">
        <ele>83.8</ele>
        <time>2021-07-21T11:36:06Z</time>
      </trkpt>
      <trkpt lat="43.5565910" lon="-6.2873060">
        <ele>83.8</ele>
        <time>2021-07-21T11:36:07Z</time>
      </trkpt>
      <trkpt lat="43.5566150" lon="-6.2873830">
        <ele>83.8</ele>
        <time>2021-07-21T11:36:08Z</time>
      </trkpt>
      <trkpt lat="43.5567370" lon="-6.2875730">
        <ele>83.8</ele>
        <time>2021-07-21T11:36:11Z</time>
      </trkpt>
      <trkpt lat="43.5567910" lon="-6.2876330">
        <ele>83.8</ele>
        <time>2021-07-21T11:36:12Z</time>
      </trkpt>
      <trkpt lat="43.5569380" lon="-6.2878040">
        <ele>83.4</ele>
        <time>2021-07-21T11:36:15Z</time>
      </trkpt>
      <trkpt lat="43.5569830" lon="-6.2878590">
        <ele>83.0</ele>
        <time>2021-07-21T11:36:16Z</time>
      </trkpt>
      <trkpt lat="43.5570250" lon="-6.2879130">
        <ele>82.6</ele>
        <time>2021-07-21T11:36:17Z</time>
      </trkpt>
      <trkpt lat="43.5570680" lon="-6.2879660">
        <ele>82.2</ele>
        <time>2021-07-21T11:36:18Z</time>
      </trkpt>
      <trkpt lat="43.5571140" lon="-6.2880200">
        <ele>81.8</ele>
        <time>2021-07-21T11:36:19Z</time>
      </trkpt>
      <trkpt lat="43.5571580" lon="-6.2880750">
        <ele>81.8</ele>
        <time>2021-07-21T11:36:20Z</time>
      </trkpt>
      <trkpt lat="43.5572850" lon="-6.2882310">
        <ele>81.8</ele>
        <time>2021-07-21T11:36:23Z</time>
      </trkpt>
      <trkpt lat="43.5573290" lon="-6.2882800">
        <ele>81.8</ele>
        <time>2021-07-21T11:36:24Z</time>
      </trkpt>
      <trkpt lat="43.5573660" lon="-6.2883280">
        <ele>81.8</ele>
        <time>2021-07-21T11:36:25Z</time>
      </trkpt>
      <trkpt lat="43.5574800" lon="-6.2884820">
        <ele>81.8</ele>
        <time>2021-07-21T11:36:28Z</time>
      </trkpt>
      <trkpt lat="43.5577430" lon="-6.2888960">
        <ele>81.8</ele>
        <time>2021-07-21T11:36:35Z</time>
      </trkpt>
      <trkpt lat="43.5578180" lon="-6.2890360">
        <ele>81.4</ele>
        <time>2021-07-21T11:36:37Z</time>
      </trkpt>
      <trkpt lat="43.5578580" lon="-6.2891050">
        <ele>80.8</ele>
        <time>2021-07-21T11:36:38Z</time>
      </trkpt>
      <trkpt lat="43.5578970" lon="-6.2891720">
        <ele>80.0</ele>
        <time>2021-07-21T11:36:39Z</time>
      </trkpt>
      <trkpt lat="43.5579340" lon="-6.2892410">
        <ele>79.6</ele>
        <time>2021-07-21T11:36:40Z</time>
      </trkpt>
      <trkpt lat="43.5580050" lon="-6.2893870">
        <ele>79.6</ele>
        <time>2021-07-21T11:36:42Z</time>
      </trkpt>
      <trkpt lat="43.5580970" lon="-6.2896320">
        <ele>79.6</ele>
        <time>2021-07-21T11:36:45Z</time>
      </trkpt>
      <trkpt lat="43.5581670" lon="-6.2898970">
        <ele>79.6</ele>
        <time>2021-07-21T11:36:48Z</time>
      </trkpt>
      <trkpt lat="43.5582370" lon="-6.2903000">
        <ele>79.2</ele>
        <time>2021-07-21T11:36:52Z</time>
      </trkpt>
      <trkpt lat="43.5582530" lon="-6.2904060">
        <ele>78.6</ele>
        <time>2021-07-21T11:36:53Z</time>
      </trkpt>
      <trkpt lat="43.5582710" lon="-6.2905100">
        <ele>78.2</ele>
        <time>2021-07-21T11:36:54Z</time>
      </trkpt>
      <trkpt lat="43.5582920" lon="-6.2906120">
        <ele>77.6</ele>
        <time>2021-07-21T11:36:55Z</time>
      </trkpt>
      <trkpt lat="43.5583190" lon="-6.2907060">
        <ele>77.0</ele>
        <time>2021-07-21T11:36:56Z</time>
      </trkpt>
      <trkpt lat="43.5583670" lon="-6.2907910">
        <ele>76.4</ele>
        <time>2021-07-21T11:36:57Z</time>
      </trkpt>
      <trkpt lat="43.5584270" lon="-6.2908670">
        <ele>75.8</ele>
        <time>2021-07-21T11:36:58Z</time>
      </trkpt>
      <trkpt lat="43.5584850" lon="-6.2909270">
        <ele>75.0</ele>
        <time>2021-07-21T11:36:59Z</time>
      </trkpt>
      <trkpt lat="43.5586320" lon="-6.2911340">
        <ele>75.0</ele>
        <time>2021-07-21T11:37:02Z</time>
      </trkpt>
      <trkpt lat="43.5586760" lon="-6.2913010">
        <ele>74.6</ele>
        <time>2021-07-21T11:37:04Z</time>
      </trkpt>
      <trkpt lat="43.5586780" lon="-6.2913840">
        <ele>74.2</ele>
        <time>2021-07-21T11:37:05Z</time>
      </trkpt>
      <trkpt lat="43.5586680" lon="-6.2914640">
        <ele>73.8</ele>
        <time>2021-07-21T11:37:06Z</time>
      </trkpt>
      <trkpt lat="43.5586500" lon="-6.2915340">
        <ele>73.2</ele>
        <time>2021-07-21T11:37:07Z</time>
      </trkpt>
      <trkpt lat="43.5586260" lon="-6.2916000">
        <ele>72.8</ele>
        <time>2021-07-21T11:37:08Z</time>
      </trkpt>
      <trkpt lat="43.5584710" lon="-6.2917460">
        <ele>72.4</ele>
        <time>2021-07-21T11:37:11Z</time>
      </trkpt>
      <trkpt lat="43.5583790" lon="-6.2917970">
        <ele>72.0</ele>
        <time>2021-07-21T11:37:12Z</time>
      </trkpt>
      <trkpt lat="43.5582870" lon="-6.2918470">
        <ele>71.6</ele>
        <time>2021-07-21T11:37:13Z</time>
      </trkpt>
      <trkpt lat="43.5582010" lon="-6.2918990">
        <ele>71.2</ele>
        <time>2021-07-21T11:37:14Z</time>
      </trkpt>
      <trkpt lat="43.5581130" lon="-6.2919520">
        <ele>70.8</ele>
        <time>2021-07-21T11:37:15Z</time>
      </trkpt>
      <trkpt lat="43.5579420" lon="-6.2920520">
        <ele>70.4</ele>
        <time>2021-07-21T11:37:17Z</time>
      </trkpt>
      <trkpt lat="43.5578600" lon="-6.2920920">
        <ele>70.0</ele>
        <time>2021-07-21T11:37:18Z</time>
      </trkpt>
      <trkpt lat="43.5577810" lon="-6.2921230">
        <ele>69.6</ele>
        <time>2021-07-21T11:37:19Z</time>
      </trkpt>
      <trkpt lat="43.5576990" lon="-6.2921470">
        <ele>69.2</ele>
        <time>2021-07-21T11:37:20Z</time>
      </trkpt>
      <trkpt lat="43.5576200" lon="-6.2921660">
        <ele>68.8</ele>
        <time>2021-07-21T11:37:21Z</time>
      </trkpt>
      <trkpt lat="43.5574750" lon="-6.2922220">
        <ele>68.8</ele>
        <time>2021-07-21T11:37:23Z</time>
      </trkpt>
      <trkpt lat="43.5573460" lon="-6.2923280">
        <ele>68.4</ele>
        <time>2021-07-21T11:37:25Z</time>
      </trkpt>
      <trkpt lat="43.5572960" lon="-6.2923980">
        <ele>68.0</ele>
        <time>2021-07-21T11:37:26Z</time>
      </trkpt>
      <trkpt lat="43.5572540" lon="-6.2924750">
        <ele>67.4</ele>
        <time>2021-07-21T11:37:27Z</time>
      </trkpt>
      <trkpt lat="43.5572170" lon="-6.2925550">
        <ele>66.6</ele>
        <time>2021-07-21T11:37:28Z</time>
      </trkpt>
      <trkpt lat="43.5569380" lon="-6.2930670">
        <ele>66.2</ele>
        <time>2021-07-21T11:37:35Z</time>
      </trkpt>
      <trkpt lat="43.5569070" lon="-6.2931460">
        <ele>65.8</ele>
        <time>2021-07-21T11:37:36Z</time>
      </trkpt>
      <trkpt lat="43.5568850" lon="-6.2932330">
        <ele>65.2</ele>
        <time>2021-07-21T11:37:37Z</time>
      </trkpt>
      <trkpt lat="43.5568700" lon="-6.2933180">
        <ele>64.8</ele>
        <time>2021-07-21T11:37:38Z</time>
      </trkpt>
      <trkpt lat="43.5568660" lon="-6.2934050">
        <ele>64.2</ele>
        <time>2021-07-21T11:37:39Z</time>
      </trkpt>
      <trkpt lat="43.5568700" lon="-6.2934840">
        <ele>63.8</ele>
        <time>2021-07-21T11:37:40Z</time>
      </trkpt>
      <trkpt lat="43.5568840" lon="-6.2935560">
        <ele>63.2</ele>
        <time>2021-07-21T11:37:41Z</time>
      </trkpt>
      <trkpt lat="43.5569010" lon="-6.2936280">
        <ele>62.8</ele>
        <time>2021-07-21T11:37:42Z</time>
      </trkpt>
      <trkpt lat="43.5569120" lon="-6.2937040">
        <ele>62.2</ele>
        <time>2021-07-21T11:37:43Z</time>
      </trkpt>
      <trkpt lat="43.5568980" lon="-6.2939400">
        <ele>61.8</ele>
        <time>2021-07-21T11:37:46Z</time>
      </trkpt>
      <trkpt lat="43.5568760" lon="-6.2940200">
        <ele>61.4</ele>
        <time>2021-07-21T11:37:47Z</time>
      </trkpt>
      <trkpt lat="43.5568430" lon="-6.2940950">
        <ele>61.0</ele>
        <time>2021-07-21T11:37:48Z</time>
      </trkpt>
      <trkpt lat="43.5568040" lon="-6.2941640">
        <ele>60.6</ele>
        <time>2021-07-21T11:37:49Z</time>
      </trkpt>
      <trkpt lat="43.5567470" lon="-6.2942180">
        <ele>60.0</ele>
        <time>2021-07-21T11:37:50Z</time>
      </trkpt>
      <trkpt lat="43.5566630" lon="-6.2942650">
        <ele>59.6</ele>
        <time>2021-07-21T11:37:51Z</time>
      </trkpt>
      <trkpt lat="43.5565930" lon="-6.2943160">
        <ele>59.0</ele>
        <time>2021-07-21T11:37:52Z</time>
      </trkpt>
      <trkpt lat="43.5565320" lon="-6.2943710">
        <ele>57.8</ele>
        <time>2021-07-21T11:37:53Z</time>
      </trkpt>
      <trkpt lat="43.5564790" lon="-6.2944270">
        <ele>57.4</ele>
        <time>2021-07-21T11:37:54Z</time>
      </trkpt>
      <trkpt lat="43.5564320" lon="-6.2944840">
        <ele>56.8</ele>
        <time>2021-07-21T11:37:55Z</time>
      </trkpt>
      <trkpt lat="43.5563930" lon="-6.2945390">
        <ele>56.2</ele>
        <time>2021-07-21T11:37:56Z</time>
      </trkpt>
      <trkpt lat="43.5563610" lon="-6.2945930">
        <ele>55.6</ele>
        <time>2021-07-21T11:37:57Z</time>
      </trkpt>
      <trkpt lat="43.5563390" lon="-6.2946520">
        <ele>55.6</ele>
        <time>2021-07-21T11:37:58Z</time>
      </trkpt>
      <trkpt lat="43.5563240" lon="-6.2947130">
        <ele>55.2</ele>
        <time>2021-07-21T11:37:59Z</time>
      </trkpt>
      <trkpt lat="43.5563140" lon="-6.2947700">
        <ele>54.6</ele>
        <time>2021-07-21T11:38:00Z</time>
      </trkpt>
      <trkpt lat="43.5563130" lon="-6.2948270">
        <ele>54.2</ele>
        <time>2021-07-21T11:38:01Z</time>
      </trkpt>
      <trkpt lat="43.5563230" lon="-6.2948820">
        <ele>53.8</ele>
        <time>2021-07-21T11:38:02Z</time>
      </trkpt>
      <trkpt lat="43.5563430" lon="-6.2949330">
        <ele>53.2</ele>
        <time>2021-07-21T11:38:03Z</time>
      </trkpt>
      <trkpt lat="43.5564210" lon="-6.2950110">
        <ele>53.2</ele>
        <time>2021-07-21T11:38:05Z</time>
      </trkpt>
      <trkpt lat="43.5565230" lon="-6.2950380">
        <ele>53.2</ele>
        <time>2021-07-21T11:38:07Z</time>
      </trkpt>
      <trkpt lat="43.5565720" lon="-6.2950210">
        <ele>53.2</ele>
        <time>2021-07-21T11:38:08Z</time>
      </trkpt>
      <trkpt lat="43.5566190" lon="-6.2949890">
        <ele>53.2</ele>
        <time>2021-07-21T11:38:09Z</time>
      </trkpt>
      <trkpt lat="43.5566650" lon="-6.2949510">
        <ele>53.2</ele>
        <time>2021-07-21T11:38:10Z</time>
      </trkpt>
      <trkpt lat="43.5567130" lon="-6.2949180">
        <ele>53.2</ele>
        <time>2021-07-21T11:38:11Z</time>
      </trkpt>
      <trkpt lat="43.5568110" lon="-6.2948680">
        <ele>53.2</ele>
        <time>2021-07-21T11:38:13Z</time>
      </trkpt>
      <trkpt lat="43.5569470" lon="-6.2947970">
        <ele>53.2</ele>
        <time>2021-07-21T11:38:16Z</time>
      </trkpt>
      <trkpt lat="43.5570340" lon="-6.2947580">
        <ele>53.2</ele>
        <time>2021-07-21T11:38:18Z</time>
      </trkpt>
      <trkpt lat="43.5571210" lon="-6.2947290">
        <ele>53.2</ele>
        <time>2021-07-21T11:38:20Z</time>
      </trkpt>
      <trkpt lat="43.5572090" lon="-6.2946940">
        <ele>53.2</ele>
        <time>2021-07-21T11:38:22Z</time>
      </trkpt>
      <trkpt lat="43.5572510" lon="-6.2946860">
        <ele>53.8</ele>
        <time>2021-07-21T11:38:23Z</time>
      </trkpt>
      <trkpt lat="43.5572940" lon="-6.2946740">
        <ele>54.2</ele>
        <time>2021-07-21T11:38:24Z</time>
      </trkpt>
      <trkpt lat="43.5573350" lon="-6.2946620">
        <ele>54.6</ele>
        <time>2021-07-21T11:38:25Z</time>
      </trkpt>
      <trkpt lat="43.5573730" lon="-6.2946490">
        <ele>55.0</ele>
        <time>2021-07-21T11:38:26Z</time>
      </trkpt>
      <trkpt lat="43.5574120" lon="-6.2946370">
        <ele>55.4</ele>
        <time>2021-07-21T11:38:27Z</time>
      </trkpt>
      <trkpt lat="43.5575250" lon="-6.2946080">
        <ele>55.4</ele>
        <time>2021-07-21T11:38:30Z</time>
      </trkpt>
      <trkpt lat="43.5576650" lon="-6.2945760">
        <ele>55.4</ele>
        <time>2021-07-21T11:38:34Z</time>
      </trkpt>
      <trkpt lat="43.5577360" lon="-6.2945530">
        <ele>55.8</ele>
        <time>2021-07-21T11:38:36Z</time>
      </trkpt>
      <trkpt lat="43.5577720" lon="-6.2945400">
        <ele>56.2</ele>
        <time>2021-07-21T11:38:37Z</time>
      </trkpt>
      <trkpt lat="43.5578040" lon="-6.2945310">
        <ele>56.6</ele>
        <time>2021-07-21T11:38:38Z</time>
      </trkpt>
      <trkpt lat="43.5578360" lon="-6.2945220">
        <ele>57.0</ele>
        <time>2021-07-21T11:38:39Z</time>
      </trkpt>
      <trkpt lat="43.5578690" lon="-6.2945160">
        <ele>57.4</ele>
        <time>2021-07-21T11:38:40Z</time>
      </trkpt>
      <trkpt lat="43.5579020" lon="-6.2945060">
        <ele>57.4</ele>
        <time>2021-07-21T11:38:41Z</time>
      </trkpt>
      <trkpt lat="43.5581010" lon="-6.2944650">
        <ele>57.8</ele>
        <time>2021-07-21T11:38:47Z</time>
      </trkpt>
      <trkpt lat="43.5581340" lon="-6.2944560">
        <ele>58.2</ele>
        <time>2021-07-21T11:38:48Z</time>
      </trkpt>
      <trkpt lat="43.5581670" lon="-6.2944490">
        <ele>58.6</ele>
        <time>2021-07-21T11:38:49Z</time>
      </trkpt>
      <trkpt lat="43.5581980" lon="-6.2944420">
        <ele>59.0</ele>
        <time>2021-07-21T11:38:50Z</time>
      </trkpt>
      <trkpt lat="43.5582300" lon="-6.2944360">
        <ele>59.6</ele>
        <time>2021-07-21T11:38:51Z</time>
      </trkpt>
      <trkpt lat="43.5583550" lon="-6.2943810">
        <ele>59.6</ele>
        <time>2021-07-21T11:38:55Z</time>
      </trkpt>
      <trkpt lat="43.5584390" lon="-6.2943000">
        <ele>60.0</ele>
        <time>2021-07-21T11:38:58Z</time>
      </trkpt>
      <trkpt lat="43.5584630" lon="-6.2942700">
        <ele>60.4</ele>
        <time>2021-07-21T11:38:59Z</time>
      </trkpt>
      <trkpt lat="43.5584830" lon="-6.2942370">
        <ele>60.8</ele>
        <time>2021-07-21T11:39:00Z</time>
      </trkpt>
      <trkpt lat="43.5585010" lon="-6.2942010">
        <ele>61.2</ele>
        <time>2021-07-21T11:39:01Z</time>
      </trkpt>
      <trkpt lat="43.5585190" lon="-6.2941640">
        <ele>61.6</ele>
        <time>2021-07-21T11:39:02Z</time>
      </trkpt>
      <trkpt lat="43.5586650" lon="-6.2938800">
        <ele>62.0</ele>
        <time>2021-07-21T11:39:09Z</time>
      </trkpt>
      <trkpt lat="43.5586830" lon="-6.2938450">
        <ele>62.4</ele>
        <time>2021-07-21T11:39:10Z</time>
      </trkpt>
      <trkpt lat="43.5586990" lon="-6.2938090">
        <ele>62.8</ele>
        <time>2021-07-21T11:39:11Z</time>
      </trkpt>
      <trkpt lat="43.5587140" lon="-6.2937760">
        <ele>63.2</ele>
        <time>2021-07-21T11:39:12Z</time>
      </trkpt>
      <trkpt lat="43.5587300" lon="-6.2937460">
        <ele>63.6</ele>
        <time>2021-07-21T11:39:13Z</time>
      </trkpt>
      <trkpt lat="43.5588260" lon="-6.2935860">
        <ele>63.6</ele>
        <time>2021-07-21T11:39:18Z</time>
      </trkpt>
      <trkpt lat="43.5588940" lon="-6.2935150">
        <ele>64.0</ele>
        <time>2021-07-21T11:39:21Z</time>
      </trkpt>
      <trkpt lat="43.5589200" lon="-6.2934920">
        <ele>64.4</ele>
        <time>2021-07-21T11:39:22Z</time>
      </trkpt>
      <trkpt lat="43.5589420" lon="-6.2934790">
        <ele>64.8</ele>
        <time>2021-07-21T11:39:23Z</time>
      </trkpt>
      <trkpt lat="43.5589680" lon="-6.2934640">
        <ele>65.2</ele>
        <time>2021-07-21T11:39:24Z</time>
      </trkpt>
      <trkpt lat="43.5589930" lon="-6.2934520">
        <ele>65.6</ele>
        <time>2021-07-21T11:39:25Z</time>
      </trkpt>
      <trkpt lat="43.5591530" lon="-6.2934050">
        <ele>65.6</ele>
        <time>2021-07-21T11:39:31Z</time>
      </trkpt>
      <trkpt lat="43.5593530" lon="-6.2933520">
        <ele>66.0</ele>
        <time>2021-07-21T11:39:38Z</time>
      </trkpt>
      <trkpt lat="43.5593820" lon="-6.2933440">
        <ele>66.4</ele>
        <time>2021-07-21T11:39:39Z</time>
      </trkpt>
      <trkpt lat="43.5594120" lon="-6.2933320">
        <ele>67.0</ele>
        <time>2021-07-21T11:39:40Z</time>
      </trkpt>
      <trkpt lat="43.5594400" lon="-6.2933220">
        <ele>67.4</ele>
        <time>2021-07-21T11:39:41Z</time>
      </trkpt>
      <trkpt lat="43.5594680" lon="-6.2933150">
        <ele>67.8</ele>
        <time>2021-07-21T11:39:42Z</time>
      </trkpt>
      <trkpt lat="43.5595750" lon="-6.2932810">
        <ele>67.8</ele>
        <time>2021-07-21T11:39:46Z</time>
      </trkpt>
      <trkpt lat="43.5597080" lon="-6.2932450">
        <ele>68.2</ele>
        <time>2021-07-21T11:39:51Z</time>
      </trkpt>
      <trkpt lat="43.5597360" lon="-6.2932360">
        <ele>68.6</ele>
        <time>2021-07-21T11:39:52Z</time>
      </trkpt>
      <trkpt lat="43.5597640" lon="-6.2932300">
        <ele>69.0</ele>
        <time>2021-07-21T11:39:53Z</time>
      </trkpt>
      <trkpt lat="43.5597930" lon="-6.2932260">
        <ele>69.4</ele>
        <time>2021-07-21T11:39:54Z</time>
      </trkpt>
      <trkpt lat="43.5598200" lon="-6.2932200">
        <ele>69.8</ele>
        <time>2021-07-21T11:39:55Z</time>
      </trkpt>
      <trkpt lat="43.5599760" lon="-6.2931920">
        <ele>69.8</ele>
        <time>2021-07-21T11:40:01Z</time>
      </trkpt>
      <trkpt lat="43.5600750" lon="-6.2931940">
        <ele>70.2</ele>
        <time>2021-07-21T11:40:05Z</time>
      </trkpt>
      <trkpt lat="43.5601020" lon="-6.2931950">
        <ele>70.6</ele>
        <time>2021-07-21T11:40:06Z</time>
      </trkpt>
      <trkpt lat="43.5601330" lon="-6.2931990">
        <ele>71.0</ele>
        <time>2021-07-21T11:40:07Z</time>
      </trkpt>
      <trkpt lat="43.5601650" lon="-6.2931970">
        <ele>71.4</ele>
        <time>2021-07-21T11:40:08Z</time>
      </trkpt>
      <trkpt lat="43.5601950" lon="-6.2932000">
        <ele>71.8</ele>
        <time>2021-07-21T11:40:09Z</time>
      </trkpt>
      <trkpt lat="43.5603630" lon="-6.2932260">
        <ele>71.8</ele>
        <time>2021-07-21T11:40:15Z</time>
      </trkpt>
      <trkpt lat="43.5605190" lon="-6.2932330">
        <ele>72.2</ele>
        <time>2021-07-21T11:40:21Z</time>
      </trkpt>
      <trkpt lat="43.5605470" lon="-6.2932340">
        <ele>73.0</ele>
        <time>2021-07-21T11:40:22Z</time>
      </trkpt>
      <trkpt lat="43.5605720" lon="-6.2932340">
        <ele>73.4</ele>
        <time>2021-07-21T11:40:23Z</time>
      </trkpt>
      <trkpt lat="43.5605990" lon="-6.2932360">
        <ele>73.8</ele>
        <time>2021-07-21T11:40:24Z</time>
      </trkpt>
      <trkpt lat="43.5607210" lon="-6.2932640">
        <ele>73.8</ele>
        <time>2021-07-21T11:40:29Z</time>
      </trkpt>
      <trkpt lat="43.5608190" lon="-6.2933100">
        <ele>74.2</ele>
        <time>2021-07-21T11:40:33Z</time>
      </trkpt>
      <trkpt lat="43.5608400" lon="-6.2933290">
        <ele>74.6</ele>
        <time>2021-07-21T11:40:34Z</time>
      </trkpt>
      <trkpt lat="43.5608630" lon="-6.2933480">
        <ele>75.0</ele>
        <time>2021-07-21T11:40:35Z</time>
      </trkpt>
      <trkpt lat="43.5608830" lon="-6.2933710">
        <ele>75.6</ele>
        <time>2021-07-21T11:40:36Z</time>
      </trkpt>
      <trkpt lat="43.5609020" lon="-6.2933970">
        <ele>76.0</ele>
        <time>2021-07-21T11:40:37Z</time>
      </trkpt>
      <trkpt lat="43.5609680" lon="-6.2935960">
        <ele>76.0</ele>
        <time>2021-07-21T11:40:43Z</time>
      </trkpt>
      <trkpt lat="43.5609990" lon="-6.2938950">
        <ele>76.4</ele>
        <time>2021-07-21T11:40:51Z</time>
      </trkpt>
      <trkpt lat="43.5610030" lon="-6.2939320">
        <ele>76.8</ele>
        <time>2021-07-21T11:40:52Z</time>
      </trkpt>
      <trkpt lat="43.5610060" lon="-6.2939670">
        <ele>77.2</ele>
        <time>2021-07-21T11:40:53Z</time>
      </trkpt>
      <trkpt lat="43.5610110" lon="-6.2940040">
        <ele>77.6</ele>
        <time>2021-07-21T11:40:54Z</time>
      </trkpt>
      <trkpt lat="43.5610150" lon="-6.2940400">
        <ele>78.0</ele>
        <time>2021-07-21T11:40:55Z</time>
      </trkpt>
      <trkpt lat="43.5610430" lon="-6.2943540">
        <ele>78.0</ele>
        <time>2021-07-21T11:41:04Z</time>
      </trkpt>
      <trkpt lat="43.5610550" lon="-6.2944190">
        <ele>78.4</ele>
        <time>2021-07-21T11:41:06Z</time>
      </trkpt>
      <trkpt lat="43.5610600" lon="-6.2944510">
        <ele>78.8</ele>
        <time>2021-07-21T11:41:07Z</time>
      </trkpt>
      <trkpt lat="43.5610620" lon="-6.2944830">
        <ele>79.2</ele>
        <time>2021-07-21T11:41:08Z</time>
      </trkpt>
      <trkpt lat="43.5610630" lon="-6.2945190">
        <ele>79.6</ele>
        <time>2021-07-21T11:41:09Z</time>
      </trkpt>
      <trkpt lat="43.5610640" lon="-6.2945520">
        <ele>80.0</ele>
        <time>2021-07-21T11:41:10Z</time>
      </trkpt>
      <trkpt lat="43.5610660" lon="-6.2946510">
        <ele>80.0</ele>
        <time>2021-07-21T11:41:13Z</time>
      </trkpt>
      <trkpt lat="43.5610620" lon="-6.2949270">
        <ele>80.4</ele>
        <time>2021-07-21T11:41:21Z</time>
      </trkpt>
      <trkpt lat="43.5610570" lon="-6.2949610">
        <ele>80.8</ele>
        <time>2021-07-21T11:41:22Z</time>
      </trkpt>
      <trkpt lat="43.5610530" lon="-6.2949970">
        <ele>81.2</ele>
        <time>2021-07-21T11:41:23Z</time>
      </trkpt>
      <trkpt lat="43.5610490" lon="-6.2950300">
        <ele>81.6</ele>
        <time>2021-07-21T11:41:24Z</time>
      </trkpt>
      <trkpt lat="43.5610460" lon="-6.2950640">
        <ele>82.0</ele>
        <time>2021-07-21T11:41:25Z</time>
      </trkpt>
      <trkpt lat="43.5610180" lon="-6.2953230">
        <ele>82.0</ele>
        <time>2021-07-21T11:41:32Z</time>
      </trkpt>
      <trkpt lat="43.5609820" lon="-6.2955690">
        <ele>82.4</ele>
        <time>2021-07-21T11:41:39Z</time>
      </trkpt>
      <trkpt lat="43.5609780" lon="-6.2956020">
        <ele>82.8</ele>
        <time>2021-07-21T11:41:40Z</time>
      </trkpt>
      <trkpt lat="43.5609780" lon="-6.2956390">
        <ele>83.2</ele>
        <time>2021-07-21T11:41:41Z</time>
      </trkpt>
      <trkpt lat="43.5609770" lon="-6.2956740">
        <ele>83.8</ele>
        <time>2021-07-21T11:41:42Z</time>
      </trkpt>
      <trkpt lat="43.5609730" lon="-6.2957100">
        <ele>84.2</ele>
        <time>2021-07-21T11:41:43Z</time>
      </trkpt>
      <trkpt lat="43.5609320" lon="-6.2959230">
        <ele>84.2</ele>
        <time>2021-07-21T11:41:49Z</time>
      </trkpt>
      <trkpt lat="43.5608550" lon="-6.2961260">
        <ele>84.2</ele>
        <time>2021-07-21T11:41:56Z</time>
      </trkpt>
      <trkpt lat="43.5608310" lon="-6.2962200">
        <ele>84.2</ele>
        <time>2021-07-21T11:41:59Z</time>
      </trkpt>
      <trkpt lat="43.5607950" lon="-6.2963700">
        <ele>84.2</ele>
        <time>2021-07-21T11:42:03Z</time>
      </trkpt>
      <trkpt lat="43.5608200" lon="-6.2965390">
        <ele>84.2</ele>
        <time>2021-07-21T11:42:07Z</time>
      </trkpt>
      <trkpt lat="43.5609530" lon="-6.2967770">
        <ele>84.2</ele>
        <time>2021-07-21T11:42:12Z</time>
      </trkpt>
      <trkpt lat="43.5610530" lon="-6.2969580">
        <ele>84.2</ele>
        <time>2021-07-21T11:42:16Z</time>
      </trkpt>
      <trkpt lat="43.5610930" lon="-6.2970710">
        <ele>83.8</ele>
        <time>2021-07-21T11:42:18Z</time>
      </trkpt>
      <trkpt lat="43.5611180" lon="-6.2971300">
        <ele>83.4</ele>
        <time>2021-07-21T11:42:19Z</time>
      </trkpt>
      <trkpt lat="43.5611480" lon="-6.2971900">
        <ele>82.8</ele>
        <time>2021-07-21T11:42:20Z</time>
      </trkpt>
      <trkpt lat="43.5611840" lon="-6.2972470">
        <ele>82.4</ele>
        <time>2021-07-21T11:42:21Z</time>
      </trkpt>
      <trkpt lat="43.5612280" lon="-6.2972960">
        <ele>82.0</ele>
        <time>2021-07-21T11:42:22Z</time>
      </trkpt>
      <trkpt lat="43.5612730" lon="-6.2973440">
        <ele>82.0</ele>
        <time>2021-07-21T11:42:23Z</time>
      </trkpt>
      <trkpt lat="43.5613650" lon="-6.2974270">
        <ele>82.0</ele>
        <time>2021-07-21T11:42:25Z</time>
      </trkpt>
      <trkpt lat="43.5614080" lon="-6.2974670">
        <ele>82.0</ele>
        <time>2021-07-21T11:42:26Z</time>
      </trkpt>
      <trkpt lat="43.5614480" lon="-6.2975110">
        <ele>82.0</ele>
        <time>2021-07-21T11:42:27Z</time>
      </trkpt>
      <trkpt lat="43.5615280" lon="-6.2975970">
        <ele>82.0</ele>
        <time>2021-07-21T11:42:29Z</time>
      </trkpt>
      <trkpt lat="43.5615700" lon="-6.2976330">
        <ele>82.0</ele>
        <time>2021-07-21T11:42:30Z</time>
      </trkpt>
      <trkpt lat="43.5617160" lon="-6.2977330">
        <ele>82.0</ele>
        <time>2021-07-21T11:42:33Z</time>
      </trkpt>
      <trkpt lat="43.5618210" lon="-6.2977980">
        <ele>81.6</ele>
        <time>2021-07-21T11:42:35Z</time>
      </trkpt>
      <trkpt lat="43.5618750" lon="-6.2978290">
        <ele>81.2</ele>
        <time>2021-07-21T11:42:36Z</time>
      </trkpt>
      <trkpt lat="43.5619300" lon="-6.2978560">
        <ele>80.8</ele>
        <time>2021-07-21T11:42:37Z</time>
      </trkpt>
      <trkpt lat="43.5619850" lon="-6.2978820">
        <ele>80.4</ele>
        <time>2021-07-21T11:42:38Z</time>
      </trkpt>
      <trkpt lat="43.5620410" lon="-6.2979110">
        <ele>80.0</ele>
        <time>2021-07-21T11:42:40Z</time>
      </trkpt>
      <trkpt lat="43.5621540" lon="-6.2979240">
        <ele>79.6</ele>
        <time>2021-07-21T11:42:42Z</time>
      </trkpt>
      <trkpt lat="43.5622170" lon="-6.2979020">
        <ele>79.2</ele>
        <time>2021-07-21T11:42:43Z</time>
      </trkpt>
      <trkpt lat="43.5622820" lon="-6.2978830">
        <ele>78.8</ele>
        <time>2021-07-21T11:42:44Z</time>
      </trkpt>
      <trkpt lat="43.5623460" lon="-6.2978680">
        <ele>78.4</ele>
        <time>2021-07-21T11:42:45Z</time>
      </trkpt>
      <trkpt lat="43.5624070" lon="-6.2978540">
        <ele>78.0</ele>
        <time>2021-07-21T11:42:46Z</time>
      </trkpt>
      <trkpt lat="43.5626350" lon="-6.2977980">
        <ele>78.0</ele>
        <time>2021-07-21T11:42:50Z</time>
      </trkpt>
      <trkpt lat="43.5629010" lon="-6.2978580">
        <ele>78.0</ele>
        <time>2021-07-21T11:42:55Z</time>
      </trkpt>
      <trkpt lat="43.5630440" lon="-6.2979110">
        <ele>77.4</ele>
        <time>2021-07-21T11:42:58Z</time>
      </trkpt>
      <trkpt lat="43.5630860" lon="-6.2979260">
        <ele>77.0</ele>
        <time>2021-07-21T11:42:59Z</time>
      </trkpt>
      <trkpt lat="43.5631250" lon="-6.2979400">
        <ele>76.6</ele>
        <time>2021-07-21T11:43:00Z</time>
      </trkpt>
      <trkpt lat="43.5631660" lon="-6.2979490">
        <ele>76.2</ele>
        <time>2021-07-21T11:43:01Z</time>
      </trkpt>
      <trkpt lat="43.5632090" lon="-6.2979550">
        <ele>75.8</ele>
        <time>2021-07-21T11:43:02Z</time>
      </trkpt>
      <trkpt lat="43.5632500" lon="-6.2979670">
        <ele>75.8</ele>
        <time>2021-07-21T11:43:03Z</time>
      </trkpt>
      <trkpt lat="43.5633380" lon="-6.2979880">
        <ele>75.8</ele>
        <time>2021-07-21T11:43:05Z</time>
      </trkpt>
      <trkpt lat="43.5633900" lon="-6.2979930">
        <ele>75.4</ele>
        <time>2021-07-21T11:43:06Z</time>
      </trkpt>
      <trkpt lat="43.5634410" lon="-6.2979970">
        <ele>75.0</ele>
        <time>2021-07-21T11:43:07Z</time>
      </trkpt>
      <trkpt lat="43.5634910" lon="-6.2979970">
        <ele>74.6</ele>
        <time>2021-07-21T11:43:08Z</time>
      </trkpt>
      <trkpt lat="43.5635450" lon="-6.2980000">
        <ele>74.2</ele>
        <time>2021-07-21T11:43:09Z</time>
      </trkpt>
      <trkpt lat="43.5635980" lon="-6.2980030">
        <ele>73.8</ele>
        <time>2021-07-21T11:43:10Z</time>
      </trkpt>
      <trkpt lat="43.5636530" lon="-6.2980100">
        <ele>73.2</ele>
        <time>2021-07-21T11:43:11Z</time>
      </trkpt>
      <trkpt lat="43.5637050" lon="-6.2980170">
        <ele>72.8</ele>
        <time>2021-07-21T11:43:12Z</time>
      </trkpt>
      <trkpt lat="43.5637570" lon="-6.2980210">
        <ele>72.2</ele>
        <time>2021-07-21T11:43:13Z</time>
      </trkpt>
      <trkpt lat="43.5638100" lon="-6.2980250">
        <ele>71.8</ele>
        <time>2021-07-21T11:43:14Z</time>
      </trkpt>
      <trkpt lat="43.5638610" lon="-6.2980320">
        <ele>70.8</ele>
        <time>2021-07-21T11:43:15Z</time>
      </trkpt>
      <trkpt lat="43.5639080" lon="-6.2980390">
        <ele>70.4</ele>
        <time>2021-07-21T11:43:16Z</time>
      </trkpt>
      <trkpt lat="43.5639520" lon="-6.2980490">
        <ele>70.0</ele>
        <time>2021-07-21T11:43:17Z</time>
      </trkpt>
      <trkpt lat="43.5639920" lon="-6.2980640">
        <ele>69.4</ele>
        <time>2021-07-21T11:43:18Z</time>
      </trkpt>
      <trkpt lat="43.5640350" lon="-6.2980810">
        <ele>69.0</ele>
        <time>2021-07-21T11:43:19Z</time>
      </trkpt>
      <trkpt lat="43.5640680" lon="-6.2980940">
        <ele>69.0</ele>
        <time>2021-07-21T11:43:20Z</time>
      </trkpt>
      <trkpt lat="43.5640980" lon="-6.2981040">
        <ele>68.6</ele>
        <time>2021-07-21T11:43:21Z</time>
      </trkpt>
      <trkpt lat="43.5641240" lon="-6.2981120">
        <ele>68.0</ele>
        <time>2021-07-21T11:43:22Z</time>
      </trkpt>
      <trkpt lat="43.5641500" lon="-6.2981240">
        <ele>67.6</ele>
        <time>2021-07-21T11:43:23Z</time>
      </trkpt>
      <trkpt lat="43.5641780" lon="-6.2981330">
        <ele>67.0</ele>
        <time>2021-07-21T11:43:24Z</time>
      </trkpt>
      <trkpt lat="43.5642080" lon="-6.2981450">
        <ele>66.6</ele>
        <time>2021-07-21T11:43:25Z</time>
      </trkpt>
      <trkpt lat="43.5642390" lon="-6.2981570">
        <ele>66.6</ele>
        <time>2021-07-21T11:43:26Z</time>
      </trkpt>
      <trkpt lat="43.5643560" lon="-6.2982120">
        <ele>66.6</ele>
        <time>2021-07-21T11:43:30Z</time>
      </trkpt>
      <trkpt lat="43.5643980" lon="-6.2982220">
        <ele>66.2</ele>
        <time>2021-07-21T11:43:32Z</time>
      </trkpt>
      <trkpt lat="43.5644160" lon="-6.2982270">
        <ele>65.6</ele>
        <time>2021-07-21T11:43:33Z</time>
      </trkpt>
      <trkpt lat="43.5644320" lon="-6.2982330">
        <ele>65.2</ele>
        <time>2021-07-21T11:43:34Z</time>
      </trkpt>
      <trkpt lat="43.5644440" lon="-6.2982420">
        <ele>64.8</ele>
        <time>2021-07-21T11:43:35Z</time>
      </trkpt>
      <trkpt lat="43.5644520" lon="-6.2982530">
        <ele>64.4</ele>
        <time>2021-07-21T11:43:36Z</time>
      </trkpt>
      <trkpt lat="43.5644670" lon="-6.2982970">
        <ele>64.4</ele>
        <time>2021-07-21T11:43:38Z</time>
      </trkpt>
      <trkpt lat="43.5644720" lon="-6.2983370">
        <ele>64.4</ele>
        <time>2021-07-21T11:43:40Z</time>
      </trkpt>
      <trkpt lat="43.5644790" lon="-6.2983550">
        <ele>64.4</ele>
        <time>2021-07-21T11:43:43Z</time>
      </trkpt>
      <trkpt lat="43.5644490" lon="-6.2983130">
        <ele>64.4</ele>
        <time>2021-07-21T11:45:42Z</time>
      </trkpt>
      <trkpt lat="43.5644520" lon="-6.2982940">
        <ele>64.4</ele>
        <time>2021-07-21T11:45:43Z</time>
      </trkpt>
      <trkpt lat="43.5644580" lon="-6.2982550">
        <ele>64.4</ele>
        <time>2021-07-21T11:45:45Z</time>
      </trkpt>
      <trkpt lat="43.5645020" lon="-6.2981190">
        <ele>64.4</ele>
        <time>2021-07-21T11:45:53Z</time>
      </trkpt>
      <trkpt lat="43.5645460" lon="-6.2980200">
        <ele>64.0</ele>
        <time>2021-07-21T11:46:00Z</time>
      </trkpt>
      <trkpt lat="43.5645460" lon="-6.2980190">
        <ele>63.6</ele>
        <time>2021-07-21T11:46:01Z</time>
      </trkpt>
      <trkpt lat="43.5645810" lon="-6.2980530">
        <ele>62.4</ele>
        <time>2021-07-21T11:46:10Z</time>
      </trkpt>
      <trkpt lat="43.5646150" lon="-6.2981060">
        <ele>62.4</ele>
        <time>2021-07-21T11:46:12Z</time>
      </trkpt>
      <trkpt lat="43.5646220" lon="-6.2981120">
        <ele>62.4</ele>
        <time>2021-07-21T11:46:14Z</time>
      </trkpt>
      <trkpt lat="43.5646360" lon="-6.2981340">
        <ele>60.4</ele>
        <time>2021-07-21T11:50:43Z</time>
      </trkpt>
      <trkpt lat="43.5646490" lon="-6.2981470">
        <ele>60.4</ele>
        <time>2021-07-21T11:50:44Z</time>
      </trkpt>
      <trkpt lat="43.5646850" lon="-6.2981910">
        <ele>60.4</ele>
        <time>2021-07-21T11:50:46Z</time>
      </trkpt>
      <trkpt lat="43.5647380" lon="-6.2982630">
        <ele>60.4</ele>
        <time>2021-07-21T11:50:49Z</time>
      </trkpt>
      <trkpt lat="43.5647750" lon="-6.2983160">
        <ele>60.0</ele>
        <time>2021-07-21T11:50:52Z</time>
      </trkpt>
      <trkpt lat="43.5647820" lon="-6.2983220">
        <ele>59.6</ele>
        <time>2021-07-21T11:50:53Z</time>
      </trkpt>
      <trkpt lat="43.5647810" lon="-6.2983240">
        <ele>59.2</ele>
        <time>2021-07-21T11:50:54Z</time>
      </trkpt>
      <trkpt lat="43.5647810" lon="-6.2983290">
        <ele>58.6</ele>
        <time>2021-07-21T11:50:55Z</time>
      </trkpt>
      <trkpt lat="43.5647520" lon="-6.2982670">
        <ele>58.2</ele>
        <time>2021-07-21T11:54:48Z</time>
      </trkpt>
      <trkpt lat="43.5647310" lon="-6.2982430">
        <ele>58.2</ele>
        <time>2021-07-21T11:54:50Z</time>
      </trkpt>
      <trkpt lat="43.5647230" lon="-6.2982300">
        <ele>58.2</ele>
        <time>2021-07-21T11:54:53Z</time>
      </trkpt>
      <trkpt lat="43.5647170" lon="-6.2982880">
        <ele>58.2</ele>
        <time>2021-07-21T11:55:09Z</time>
      </trkpt>
      <trkpt lat="43.5647190" lon="-6.2983090">
        <ele>58.2</ele>
        <time>2021-07-21T11:55:10Z</time>
      </trkpt>
      <trkpt lat="43.5647230" lon="-6.2983400">
        <ele>58.2</ele>
        <time>2021-07-21T11:55:12Z</time>
      </trkpt>
      <trkpt lat="43.5647180" lon="-6.2983440">
        <ele>58.2</ele>
        <time>2021-07-21T11:55:14Z</time>
      </trkpt>
      <trkpt lat="43.5647410" lon="-6.2983220">
        <ele>58.2</ele>
        <time>2021-07-21T12:10:54Z</time>
      </trkpt>
      <trkpt lat="43.5647820" lon="-6.2983370">
        <ele>58.2</ele>
        <time>2021-07-21T12:10:58Z</time>
      </trkpt>
      <trkpt lat="43.5647880" lon="-6.2983320">
        <ele>58.2</ele>
        <time>2021-07-21T12:10:59Z</time>
      </trkpt>
      <trkpt lat="43.5647880" lon="-6.2983320">
        <ele>58.2</ele>
        <time>2021-07-21T12:11:00Z</time>
      </trkpt>
      <trkpt lat="43.5647560" lon="-6.2982650">
        <ele>58.2</ele>
        <time>2021-07-21T12:14:31Z</time>
      </trkpt>
      <trkpt lat="43.5647460" lon="-6.2982520">
        <ele>58.2</ele>
        <time>2021-07-21T12:14:32Z</time>
      </trkpt>
      <trkpt lat="43.5646980" lon="-6.2981980">
        <ele>58.2</ele>
        <time>2021-07-21T12:14:37Z</time>
      </trkpt>
      <trkpt lat="43.5646930" lon="-6.2981880">
        <ele>58.6</ele>
        <time>2021-07-21T12:14:38Z</time>
      </trkpt>
      <trkpt lat="43.5646820" lon="-6.2981770">
        <ele>59.2</ele>
        <time>2021-07-21T12:14:39Z</time>
      </trkpt>
      <trkpt lat="43.5646740" lon="-6.2981650">
        <ele>59.6</ele>
        <time>2021-07-21T12:14:40Z</time>
      </trkpt>
      <trkpt lat="43.5646630" lon="-6.2981540">
        <ele>60.0</ele>
        <time>2021-07-21T12:14:41Z</time>
      </trkpt>
      <trkpt lat="43.5646560" lon="-6.2981470">
        <ele>60.4</ele>
        <time>2021-07-21T12:14:42Z</time>
      </trkpt>
      <trkpt lat="43.5646210" lon="-6.2981040">
        <ele>60.8</ele>
        <time>2021-07-21T12:14:47Z</time>
      </trkpt>
      <trkpt lat="43.5646130" lon="-6.2980880">
        <ele>61.2</ele>
        <time>2021-07-21T12:14:48Z</time>
      </trkpt>
      <trkpt lat="43.5646040" lon="-6.2980740">
        <ele>61.6</ele>
        <time>2021-07-21T12:14:49Z</time>
      </trkpt>
      <trkpt lat="43.5645950" lon="-6.2980620">
        <ele>62.0</ele>
        <time>2021-07-21T12:14:50Z</time>
      </trkpt>
      <trkpt lat="43.5645850" lon="-6.2980530">
        <ele>62.4</ele>
        <time>2021-07-21T12:14:51Z</time>
      </trkpt>
      <trkpt lat="43.5645650" lon="-6.2980340">
        <ele>62.4</ele>
        <time>2021-07-21T12:14:54Z</time>
      </trkpt>
      <trkpt lat="43.5645600" lon="-6.2980320">
        <ele>62.4</ele>
        <time>2021-07-21T12:14:55Z</time>
      </trkpt>
      <trkpt lat="43.5645380" lon="-6.2980630">
        <ele>62.4</ele>
        <time>2021-07-21T12:15:00Z</time>
      </trkpt>
      <trkpt lat="43.5645340" lon="-6.2980770">
        <ele>62.4</ele>
        <time>2021-07-21T12:15:01Z</time>
      </trkpt>
      <trkpt lat="43.5645170" lon="-6.2981180">
        <ele>62.4</ele>
        <time>2021-07-21T12:15:04Z</time>
      </trkpt>
      <trkpt lat="43.5645160" lon="-6.2981220">
        <ele>62.8</ele>
        <time>2021-07-21T12:15:05Z</time>
      </trkpt>
      <trkpt lat="43.5645120" lon="-6.2981290">
        <ele>63.4</ele>
        <time>2021-07-21T12:15:06Z</time>
      </trkpt>
      <trkpt lat="43.5645120" lon="-6.2981270">
        <ele>63.8</ele>
        <time>2021-07-21T12:15:07Z</time>
      </trkpt>
      <trkpt lat="43.5645000" lon="-6.2981540">
        <ele>64.6</ele>
        <time>2021-07-21T12:15:20Z</time>
      </trkpt>
      <trkpt lat="43.5644290" lon="-6.2982520">
        <ele>64.6</ele>
        <time>2021-07-21T12:15:27Z</time>
      </trkpt>
      <trkpt lat="43.5643560" lon="-6.2982350">
        <ele>64.6</ele>
        <time>2021-07-21T12:15:31Z</time>
      </trkpt>
      <trkpt lat="43.5643340" lon="-6.2982280">
        <ele>64.6</ele>
        <time>2021-07-21T12:15:32Z</time>
      </trkpt>
      <trkpt lat="43.5642940" lon="-6.2981980">
        <ele>65.0</ele>
        <time>2021-07-21T12:15:34Z</time>
      </trkpt>
      <trkpt lat="43.5642750" lon="-6.2981800">
        <ele>65.4</ele>
        <time>2021-07-21T12:15:35Z</time>
      </trkpt>
      <trkpt lat="43.5642500" lon="-6.2981690">
        <ele>65.8</ele>
        <time>2021-07-21T12:15:36Z</time>
      </trkpt>
      <trkpt lat="43.5642270" lon="-6.2981600">
        <ele>66.2</ele>
        <time>2021-07-21T12:15:37Z</time>
      </trkpt>
      <trkpt lat="43.5642030" lon="-6.2981510">
        <ele>66.6</ele>
        <time>2021-07-21T12:15:38Z</time>
      </trkpt>
      <trkpt lat="43.5641800" lon="-6.2981410">
        <ele>66.6</ele>
        <time>2021-07-21T12:15:39Z</time>
      </trkpt>
      <trkpt lat="43.5640020" lon="-6.2980680">
        <ele>66.6</ele>
        <time>2021-07-21T12:15:48Z</time>
      </trkpt>
      <trkpt lat="43.5639370" lon="-6.2980450">
        <ele>67.0</ele>
        <time>2021-07-21T12:15:52Z</time>
      </trkpt>
      <trkpt lat="43.5639210" lon="-6.2980390">
        <ele>67.4</ele>
        <time>2021-07-21T12:15:53Z</time>
      </trkpt>
      <trkpt lat="43.5639030" lon="-6.2980370">
        <ele>67.8</ele>
        <time>2021-07-21T12:15:54Z</time>
      </trkpt>
      <trkpt lat="43.5638870" lon="-6.2980310">
        <ele>68.4</ele>
        <time>2021-07-21T12:15:55Z</time>
      </trkpt>
      <trkpt lat="43.5638670" lon="-6.2980280">
        <ele>68.8</ele>
        <time>2021-07-21T12:15:56Z</time>
      </trkpt>
      <trkpt lat="43.5637790" lon="-6.2980180">
        <ele>68.8</ele>
        <time>2021-07-21T12:16:01Z</time>
      </trkpt>
      <trkpt lat="43.5636750" lon="-6.2979980">
        <ele>69.2</ele>
        <time>2021-07-21T12:16:08Z</time>
      </trkpt>
      <trkpt lat="43.5636570" lon="-6.2979930">
        <ele>69.6</ele>
        <time>2021-07-21T12:16:09Z</time>
      </trkpt>
      <trkpt lat="43.5636360" lon="-6.2979930">
        <ele>70.0</ele>
        <time>2021-07-21T12:16:10Z</time>
      </trkpt>
      <trkpt lat="43.5636170" lon="-6.2979920">
        <ele>70.4</ele>
        <time>2021-07-21T12:16:11Z</time>
      </trkpt>
      <trkpt lat="43.5635990" lon="-6.2979880">
        <ele>70.8</ele>
        <time>2021-07-21T12:16:12Z</time>
      </trkpt>
      <trkpt lat="43.5635390" lon="-6.2979760">
        <ele>70.8</ele>
        <time>2021-07-21T12:16:15Z</time>
      </trkpt>
      <trkpt lat="43.5634740" lon="-6.2979720">
        <ele>71.2</ele>
        <time>2021-07-21T12:16:18Z</time>
      </trkpt>
      <trkpt lat="43.5634520" lon="-6.2979780">
        <ele>71.6</ele>
        <time>2021-07-21T12:16:19Z</time>
      </trkpt>
      <trkpt lat="43.5634310" lon="-6.2979820">
        <ele>72.0</ele>
        <time>2021-07-21T12:16:20Z</time>
      </trkpt>
      <trkpt lat="43.5634090" lon="-6.2979800">
        <ele>72.4</ele>
        <time>2021-07-21T12:16:21Z</time>
      </trkpt>
      <trkpt lat="43.5633860" lon="-6.2979800">
        <ele>73.0</ele>
        <time>2021-07-21T12:16:22Z</time>
      </trkpt>
      <trkpt lat="43.5633660" lon="-6.2979770">
        <ele>73.0</ele>
        <time>2021-07-21T12:16:23Z</time>
      </trkpt>
      <trkpt lat="43.5632230" lon="-6.2979540">
        <ele>73.4</ele>
        <time>2021-07-21T12:16:30Z</time>
      </trkpt>
      <trkpt lat="43.5632050" lon="-6.2979480">
        <ele>73.8</ele>
        <time>2021-07-21T12:16:31Z</time>
      </trkpt>
      <trkpt lat="43.5631850" lon="-6.2979410">
        <ele>74.8</ele>
        <time>2021-07-21T12:16:32Z</time>
      </trkpt>
      <trkpt lat="43.5631670" lon="-6.2979330">
        <ele>75.2</ele>
        <time>2021-07-21T12:16:33Z</time>
      </trkpt>
      <trkpt lat="43.5630120" lon="-6.2978920">
        <ele>75.2</ele>
        <time>2021-07-21T12:16:41Z</time>
      </trkpt>
      <trkpt lat="43.5628230" lon="-6.2978390">
        <ele>75.2</ele>
        <time>2021-07-21T12:16:48Z</time>
      </trkpt>
      <trkpt lat="43.5626940" lon="-6.2978260">
        <ele>75.6</ele>
        <time>2021-07-21T12:16:52Z</time>
      </trkpt>
      <trkpt lat="43.5626650" lon="-6.2978180">
        <ele>76.0</ele>
        <time>2021-07-21T12:16:53Z</time>
      </trkpt>
      <trkpt lat="43.5626350" lon="-6.2978130">
        <ele>76.4</ele>
        <time>2021-07-21T12:16:54Z</time>
      </trkpt>
      <trkpt lat="43.5626050" lon="-6.2978090">
        <ele>76.8</ele>
        <time>2021-07-21T12:16:55Z</time>
      </trkpt>
      <trkpt lat="43.5625730" lon="-6.2978050">
        <ele>77.2</ele>
        <time>2021-07-21T12:16:56Z</time>
      </trkpt>
      <trkpt lat="43.5623750" lon="-6.2978300">
        <ele>77.2</ele>
        <time>2021-07-21T12:17:02Z</time>
      </trkpt>
      <trkpt lat="43.5621250" lon="-6.2978720">
        <ele>77.2</ele>
        <time>2021-07-21T12:17:09Z</time>
      </trkpt>
      <trkpt lat="43.5619260" lon="-6.2978750">
        <ele>77.2</ele>
        <time>2021-07-21T12:17:16Z</time>
      </trkpt>
      <trkpt lat="43.5619010" lon="-6.2978600">
        <ele>77.6</ele>
        <time>2021-07-21T12:17:17Z</time>
      </trkpt>
      <trkpt lat="43.5618710" lon="-6.2978430">
        <ele>78.0</ele>
        <time>2021-07-21T12:17:18Z</time>
      </trkpt>
      <trkpt lat="43.5618420" lon="-6.2978300">
        <ele>78.4</ele>
        <time>2021-07-21T12:17:19Z</time>
      </trkpt>
      <trkpt lat="43.5618170" lon="-6.2978100">
        <ele>78.8</ele>
        <time>2021-07-21T12:17:20Z</time>
      </trkpt>
      <trkpt lat="43.5617860" lon="-6.2977910">
        <ele>79.2</ele>
        <time>2021-07-21T12:17:21Z</time>
      </trkpt>
      <trkpt lat="43.5617550" lon="-6.2977750">
        <ele>79.2</ele>
        <time>2021-07-21T12:17:22Z</time>
      </trkpt>
      <trkpt lat="43.5615600" lon="-6.2976360">
        <ele>79.2</ele>
        <time>2021-07-21T12:17:29Z</time>
      </trkpt>
      <trkpt lat="43.5615300" lon="-6.2976140">
        <ele>79.6</ele>
        <time>2021-07-21T12:17:30Z</time>
      </trkpt>
      <trkpt lat="43.5615050" lon="-6.2975920">
        <ele>80.0</ele>
        <time>2021-07-21T12:17:31Z</time>
      </trkpt>
      <trkpt lat="43.5614790" lon="-6.2975610">
        <ele>80.6</ele>
        <time>2021-07-21T12:17:32Z</time>
      </trkpt>
      <trkpt lat="43.5614540" lon="-6.2975300">
        <ele>81.0</ele>
        <time>2021-07-21T12:17:33Z</time>
      </trkpt>
      <trkpt lat="43.5614280" lon="-6.2975000">
        <ele>81.4</ele>
        <time>2021-07-21T12:17:34Z</time>
      </trkpt>
      <trkpt lat="43.5613440" lon="-6.2974250">
        <ele>81.4</ele>
        <time>2021-07-21T12:17:37Z</time>
      </trkpt>
      <trkpt lat="43.5611190" lon="-6.2971550">
        <ele>81.4</ele>
        <time>2021-07-21T12:17:45Z</time>
      </trkpt>
      <trkpt lat="43.5610380" lon="-6.2969240">
        <ele>81.8</ele>
        <time>2021-07-21T12:17:51Z</time>
      </trkpt>
      <trkpt lat="43.5610240" lon="-6.2968920">
        <ele>82.2</ele>
        <time>2021-07-21T12:17:52Z</time>
      </trkpt>
      <trkpt lat="43.5610080" lon="-6.2968650">
        <ele>82.6</ele>
        <time>2021-07-21T12:17:53Z</time>
      </trkpt>
      <trkpt lat="43.5609910" lon="-6.2968280">
        <ele>83.2</ele>
        <time>2021-07-21T12:17:54Z</time>
      </trkpt>
      <trkpt lat="43.5609720" lon="-6.2967940">
        <ele>83.6</ele>
        <time>2021-07-21T12:17:55Z</time>
      </trkpt>
      <trkpt lat="43.5609360" lon="-6.2967300">
        <ele>83.6</ele>
        <time>2021-07-21T12:17:57Z</time>
      </trkpt>
      <trkpt lat="43.5608530" lon="-6.2965740">
        <ele>84.0</ele>
        <time>2021-07-21T12:18:02Z</time>
      </trkpt>
      <trkpt lat="43.5608320" lon="-6.2965470">
        <ele>84.4</ele>
        <time>2021-07-21T12:18:03Z</time>
      </trkpt>
      <trkpt lat="43.5608210" lon="-6.2965150">
        <ele>84.8</ele>
        <time>2021-07-21T12:18:04Z</time>
      </trkpt>
      <trkpt lat="43.5608180" lon="-6.2964830">
        <ele>85.2</ele>
        <time>2021-07-21T12:18:05Z</time>
      </trkpt>
      <trkpt lat="43.5608130" lon="-6.2964520">
        <ele>85.6</ele>
        <time>2021-07-21T12:18:06Z</time>
      </trkpt>
      <trkpt lat="43.5607520" lon="-6.2963370">
        <ele>85.6</ele>
        <time>2021-07-21T12:18:10Z</time>
      </trkpt>
      <trkpt lat="43.5606490" lon="-6.2962090">
        <ele>85.6</ele>
        <time>2021-07-21T12:18:15Z</time>
      </trkpt>
      <trkpt lat="43.5606250" lon="-6.2962000">
        <ele>86.0</ele>
        <time>2021-07-21T12:18:16Z</time>
      </trkpt>
      <trkpt lat="43.5605980" lon="-6.2961970">
        <ele>86.4</ele>
        <time>2021-07-21T12:18:17Z</time>
      </trkpt>
      <trkpt lat="43.5605670" lon="-6.2961970">
        <ele>86.8</ele>
        <time>2021-07-21T12:18:18Z</time>
      </trkpt>
      <trkpt lat="43.5605340" lon="-6.2961990">
        <ele>87.2</ele>
        <time>2021-07-21T12:18:19Z</time>
      </trkpt>
      <trkpt lat="43.5605040" lon="-6.2961980">
        <ele>87.6</ele>
        <time>2021-07-21T12:18:20Z</time>
      </trkpt>
      <trkpt lat="43.5602250" lon="-6.2961940">
        <ele>87.6</ele>
        <time>2021-07-21T12:18:28Z</time>
      </trkpt>
      <trkpt lat="43.5601190" lon="-6.2961910">
        <ele>87.6</ele>
        <time>2021-07-21T12:18:31Z</time>
      </trkpt>
      <trkpt lat="43.5600020" lon="-6.2962070">
        <ele>87.6</ele>
        <time>2021-07-21T12:18:34Z</time>
      </trkpt>
      <trkpt lat="43.5599590" lon="-6.2962210">
        <ele>87.6</ele>
        <time>2021-07-21T12:18:35Z</time>
      </trkpt>
      <trkpt lat="43.5597970" lon="-6.2963390">
        <ele>87.6</ele>
        <time>2021-07-21T12:18:39Z</time>
      </trkpt>
      <trkpt lat="43.5595470" lon="-6.2965900">
        <ele>87.6</ele>
        <time>2021-07-21T12:18:46Z</time>
      </trkpt>
      <trkpt lat="43.5592640" lon="-6.2969150">
        <ele>87.6</ele>
        <time>2021-07-21T12:18:54Z</time>
      </trkpt>
      <trkpt lat="43.5589340" lon="-6.2973020">
        <ele>87.6</ele>
        <time>2021-07-21T12:19:03Z</time>
      </trkpt>
      <trkpt lat="43.5588790" lon="-6.2973930">
        <ele>87.6</ele>
        <time>2021-07-21T12:19:05Z</time>
      </trkpt>
      <trkpt lat="43.5588380" lon="-6.2974960">
        <ele>87.6</ele>
        <time>2021-07-21T12:19:07Z</time>
      </trkpt>
      <trkpt lat="43.5588250" lon="-6.2975540">
        <ele>87.6</ele>
        <time>2021-07-21T12:19:08Z</time>
      </trkpt>
      <trkpt lat="43.5588080" lon="-6.2976690">
        <ele>87.6</ele>
        <time>2021-07-21T12:19:10Z</time>
      </trkpt>
      <trkpt lat="43.5587930" lon="-6.2979140">
        <ele>87.6</ele>
        <time>2021-07-21T12:19:14Z</time>
      </trkpt>
      <trkpt lat="43.5587970" lon="-6.2979810">
        <ele>87.6</ele>
        <time>2021-07-21T12:19:15Z</time>
      </trkpt>
      <trkpt lat="43.5588020" lon="-6.2981940">
        <ele>87.6</ele>
        <time>2021-07-21T12:19:18Z</time>
      </trkpt>
      <trkpt lat="43.5588030" lon="-6.2982620">
        <ele>88.2</ele>
        <time>2021-07-21T12:19:19Z</time>
      </trkpt>
      <trkpt lat="43.5588040" lon="-6.2983320">
        <ele>88.6</ele>
        <time>2021-07-21T12:19:20Z</time>
      </trkpt>
      <trkpt lat="43.5588040" lon="-6.2983980">
        <ele>89.0</ele>
        <time>2021-07-21T12:19:21Z</time>
      </trkpt>
      <trkpt lat="43.5588050" lon="-6.2984650">
        <ele>89.4</ele>
        <time>2021-07-21T12:19:22Z</time>
      </trkpt>
      <trkpt lat="43.5588060" lon="-6.2985340">
        <ele>89.8</ele>
        <time>2021-07-21T12:19:23Z</time>
      </trkpt>
      <trkpt lat="43.5588000" lon="-6.2986690">
        <ele>89.8</ele>
        <time>2021-07-21T12:19:25Z</time>
      </trkpt>
      <trkpt lat="43.5587570" lon="-6.2988640">
        <ele>89.8</ele>
        <time>2021-07-21T12:19:28Z</time>
      </trkpt>
      <trkpt lat="43.5587300" lon="-6.2989270">
        <ele>89.8</ele>
        <time>2021-07-21T12:19:29Z</time>
      </trkpt>
      <trkpt lat="43.5586410" lon="-6.2990390">
        <ele>89.8</ele>
        <time>2021-07-21T12:19:31Z</time>
      </trkpt>
      <trkpt lat="43.5585910" lon="-6.2990900">
        <ele>89.8</ele>
        <time>2021-07-21T12:19:32Z</time>
      </trkpt>
      <trkpt lat="43.5585350" lon="-6.2991450">
        <ele>89.8</ele>
        <time>2021-07-21T12:19:33Z</time>
      </trkpt>
      <trkpt lat="43.5584780" lon="-6.2992080">
        <ele>89.4</ele>
        <time>2021-07-21T12:19:34Z</time>
      </trkpt>
      <trkpt lat="43.5584210" lon="-6.2992800">
        <ele>89.0</ele>
        <time>2021-07-21T12:19:35Z</time>
      </trkpt>
      <trkpt lat="43.5583670" lon="-6.2993600">
        <ele>88.4</ele>
        <time>2021-07-21T12:19:36Z</time>
      </trkpt>
      <trkpt lat="43.5583160" lon="-6.2994440">
        <ele>88.0</ele>
        <time>2021-07-21T12:19:37Z</time>
      </trkpt>
      <trkpt lat="43.5582670" lon="-6.2995350">
        <ele>87.6</ele>
        <time>2021-07-21T12:19:38Z</time>
      </trkpt>
      <trkpt lat="43.5581740" lon="-6.2997130">
        <ele>87.6</ele>
        <time>2021-07-21T12:19:40Z</time>
      </trkpt>
      <trkpt lat="43.5581300" lon="-6.2998040">
        <ele>87.2</ele>
        <time>2021-07-21T12:19:41Z</time>
      </trkpt>
      <trkpt lat="43.5580800" lon="-6.2998980">
        <ele>86.6</ele>
        <time>2021-07-21T12:19:42Z</time>
      </trkpt>
      <trkpt lat="43.5580330" lon="-6.2999860">
        <ele>86.2</ele>
        <time>2021-07-21T12:19:43Z</time>
      </trkpt>
      <trkpt lat="43.5579850" lon="-6.3000710">
        <ele>85.8</ele>
        <time>2021-07-21T12:19:44Z</time>
      </trkpt>
      <trkpt lat="43.5579370" lon="-6.3001490">
        <ele>85.2</ele>
        <time>2021-07-21T12:19:45Z</time>
      </trkpt>
      <trkpt lat="43.5578840" lon="-6.3002180">
        <ele>84.8</ele>
        <time>2021-07-21T12:19:46Z</time>
      </trkpt>
      <trkpt lat="43.5578250" lon="-6.3002720">
        <ele>84.2</ele>
        <time>2021-07-21T12:19:47Z</time>
      </trkpt>
      <trkpt lat="43.5577600" lon="-6.3003150">
        <ele>83.8</ele>
        <time>2021-07-21T12:19:48Z</time>
      </trkpt>
      <trkpt lat="43.5576910" lon="-6.3003470">
        <ele>83.2</ele>
        <time>2021-07-21T12:19:49Z</time>
      </trkpt>
      <trkpt lat="43.5576200" lon="-6.3003610">
        <ele>82.8</ele>
        <time>2021-07-21T12:19:50Z</time>
      </trkpt>
      <trkpt lat="43.5575450" lon="-6.3003600">
        <ele>82.8</ele>
        <time>2021-07-21T12:19:51Z</time>
      </trkpt>
      <trkpt lat="43.5574700" lon="-6.3003460">
        <ele>82.4</ele>
        <time>2021-07-21T12:19:52Z</time>
      </trkpt>
      <trkpt lat="43.5573980" lon="-6.3003260">
        <ele>81.8</ele>
        <time>2021-07-21T12:19:53Z</time>
      </trkpt>
      <trkpt lat="43.5573260" lon="-6.3003010">
        <ele>81.4</ele>
        <time>2021-07-21T12:19:54Z</time>
      </trkpt>
      <trkpt lat="43.5572550" lon="-6.3002900">
        <ele>81.0</ele>
        <time>2021-07-21T12:19:55Z</time>
      </trkpt>
      <trkpt lat="43.5571820" lon="-6.3002820">
        <ele>80.4</ele>
        <time>2021-07-21T12:19:56Z</time>
      </trkpt>
      <trkpt lat="43.5571010" lon="-6.3003080">
        <ele>80.0</ele>
        <time>2021-07-21T12:19:57Z</time>
      </trkpt>
      <trkpt lat="43.5570330" lon="-6.3003530">
        <ele>79.4</ele>
        <time>2021-07-21T12:19:58Z</time>
      </trkpt>
      <trkpt lat="43.5569740" lon="-6.3004100">
        <ele>79.0</ele>
        <time>2021-07-21T12:19:59Z</time>
      </trkpt>
      <trkpt lat="43.5569240" lon="-6.3004850">
        <ele>78.4</ele>
        <time>2021-07-21T12:20:00Z</time>
      </trkpt>
      <trkpt lat="43.5568860" lon="-6.3005750">
        <ele>78.0</ele>
        <time>2021-07-21T12:20:01Z</time>
      </trkpt>
      <trkpt lat="43.5568650" lon="-6.3006740">
        <ele>77.6</ele>
        <time>2021-07-21T12:20:02Z</time>
      </trkpt>
      <trkpt lat="43.5568640" lon="-6.3007780">
        <ele>77.0</ele>
        <time>2021-07-21T12:20:03Z</time>
      </trkpt>
      <trkpt lat="43.5568780" lon="-6.3008870">
        <ele>76.6</ele>
        <time>2021-07-21T12:20:04Z</time>
      </trkpt>
      <trkpt lat="43.5569060" lon="-6.3009800">
        <ele>76.2</ele>
        <time>2021-07-21T12:20:05Z</time>
      </trkpt>
      <trkpt lat="43.5569310" lon="-6.3010810">
        <ele>76.2</ele>
        <time>2021-07-21T12:20:06Z</time>
      </trkpt>
      <trkpt lat="43.5569650" lon="-6.3012790">
        <ele>76.2</ele>
        <time>2021-07-21T12:20:08Z</time>
      </trkpt>
      <trkpt lat="43.5569690" lon="-6.3013830">
        <ele>75.6</ele>
        <time>2021-07-21T12:20:09Z</time>
      </trkpt>
      <trkpt lat="43.5569550" lon="-6.3014850">
        <ele>75.2</ele>
        <time>2021-07-21T12:20:10Z</time>
      </trkpt>
      <trkpt lat="43.5569310" lon="-6.3015800">
        <ele>74.8</ele>
        <time>2021-07-21T12:20:11Z</time>
      </trkpt>
      <trkpt lat="43.5568920" lon="-6.3016720">
        <ele>74.2</ele>
        <time>2021-07-21T12:20:12Z</time>
      </trkpt>
      <trkpt lat="43.5568400" lon="-6.3017480">
        <ele>73.8</ele>
        <time>2021-07-21T12:20:13Z</time>
      </trkpt>
      <trkpt lat="43.5567820" lon="-6.3018160">
        <ele>73.0</ele>
        <time>2021-07-21T12:20:14Z</time>
      </trkpt>
      <trkpt lat="43.5567200" lon="-6.3018740">
        <ele>72.6</ele>
        <time>2021-07-21T12:20:15Z</time>
      </trkpt>
      <trkpt lat="43.5566500" lon="-6.3019290">
        <ele>72.2</ele>
        <time>2021-07-21T12:20:16Z</time>
      </trkpt>
      <trkpt lat="43.5565770" lon="-6.3019690">
        <ele>71.8</ele>
        <time>2021-07-21T12:20:17Z</time>
      </trkpt>
      <trkpt lat="43.5565010" lon="-6.3019900">
        <ele>71.8</ele>
        <time>2021-07-21T12:20:18Z</time>
      </trkpt>
      <trkpt lat="43.5564260" lon="-6.3019950">
        <ele>71.4</ele>
        <time>2021-07-21T12:20:19Z</time>
      </trkpt>
      <trkpt lat="43.5563410" lon="-6.3019990">
        <ele>71.0</ele>
        <time>2021-07-21T12:20:20Z</time>
      </trkpt>
      <trkpt lat="43.5562600" lon="-6.3019860">
        <ele>70.4</ele>
        <time>2021-07-21T12:20:21Z</time>
      </trkpt>
      <trkpt lat="43.5561760" lon="-6.3019700">
        <ele>70.0</ele>
        <time>2021-07-21T12:20:22Z</time>
      </trkpt>
      <trkpt lat="43.5560940" lon="-6.3019400">
        <ele>69.6</ele>
        <time>2021-07-21T12:20:23Z</time>
      </trkpt>
      <trkpt lat="43.5560110" lon="-6.3019050">
        <ele>69.2</ele>
        <time>2021-07-21T12:20:24Z</time>
      </trkpt>
      <trkpt lat="43.5559260" lon="-6.3018580">
        <ele>68.8</ele>
        <time>2021-07-21T12:20:25Z</time>
      </trkpt>
      <trkpt lat="43.5558440" lon="-6.3018160">
        <ele>68.4</ele>
        <time>2021-07-21T12:20:26Z</time>
      </trkpt>
      <trkpt lat="43.5557570" lon="-6.3017830">
        <ele>68.0</ele>
        <time>2021-07-21T12:20:27Z</time>
      </trkpt>
      <trkpt lat="43.5556780" lon="-6.3017630">
        <ele>67.4</ele>
        <time>2021-07-21T12:20:28Z</time>
      </trkpt>
      <trkpt lat="43.5555960" lon="-6.3017440">
        <ele>66.8</ele>
        <time>2021-07-21T12:20:29Z</time>
      </trkpt>
      <trkpt lat="43.5555220" lon="-6.3017300">
        <ele>66.4</ele>
        <time>2021-07-21T12:20:30Z</time>
      </trkpt>
      <trkpt lat="43.5554510" lon="-6.3017270">
        <ele>65.6</ele>
        <time>2021-07-21T12:20:31Z</time>
      </trkpt>
      <trkpt lat="43.5553810" lon="-6.3017310">
        <ele>65.0</ele>
        <time>2021-07-21T12:20:32Z</time>
      </trkpt>
      <trkpt lat="43.5553120" lon="-6.3017480">
        <ele>64.2</ele>
        <time>2021-07-21T12:20:33Z</time>
      </trkpt>
      <trkpt lat="43.5552410" lon="-6.3017790">
        <ele>63.6</ele>
        <time>2021-07-21T12:20:34Z</time>
      </trkpt>
      <trkpt lat="43.5551670" lon="-6.3018460">
        <ele>63.0</ele>
        <time>2021-07-21T12:20:35Z</time>
      </trkpt>
      <trkpt lat="43.5551110" lon="-6.3019210">
        <ele>62.4</ele>
        <time>2021-07-21T12:20:36Z</time>
      </trkpt>
      <trkpt lat="43.5550650" lon="-6.3020090">
        <ele>61.8</ele>
        <time>2021-07-21T12:20:37Z</time>
      </trkpt>
      <trkpt lat="43.5550200" lon="-6.3020930">
        <ele>61.2</ele>
        <time>2021-07-21T12:20:38Z</time>
      </trkpt>
      <trkpt lat="43.5549760" lon="-6.3021730">
        <ele>60.6</ele>
        <time>2021-07-21T12:20:39Z</time>
      </trkpt>
      <trkpt lat="43.5549340" lon="-6.3022510">
        <ele>60.0</ele>
        <time>2021-07-21T12:20:40Z</time>
      </trkpt>
      <trkpt lat="43.5548930" lon="-6.3023270">
        <ele>59.6</ele>
        <time>2021-07-21T12:20:41Z</time>
      </trkpt>
      <trkpt lat="43.5548500" lon="-6.3024100">
        <ele>59.2</ele>
        <time>2021-07-21T12:20:42Z</time>
      </trkpt>
      <trkpt lat="43.5548050" lon="-6.3024890">
        <ele>58.8</ele>
        <time>2021-07-21T12:20:43Z</time>
      </trkpt>
      <trkpt lat="43.5547620" lon="-6.3025610">
        <ele>58.4</ele>
        <time>2021-07-21T12:20:44Z</time>
      </trkpt>
      <trkpt lat="43.5546670" lon="-6.3026690">
        <ele>58.0</ele>
        <time>2021-07-21T12:20:46Z</time>
      </trkpt>
      <trkpt lat="43.5546090" lon="-6.3026890">
        <ele>57.6</ele>
        <time>2021-07-21T12:20:47Z</time>
      </trkpt>
      <trkpt lat="43.5545500" lon="-6.3026950">
        <ele>57.0</ele>
        <time>2021-07-21T12:20:48Z</time>
      </trkpt>
      <trkpt lat="43.5544870" lon="-6.3026890">
        <ele>56.6</ele>
        <time>2021-07-21T12:20:49Z</time>
      </trkpt>
      <trkpt lat="43.5544140" lon="-6.3026620">
        <ele>56.2</ele>
        <time>2021-07-21T12:20:50Z</time>
      </trkpt>
      <trkpt lat="43.5543450" lon="-6.3026280">
        <ele>56.2</ele>
        <time>2021-07-21T12:20:51Z</time>
      </trkpt>
      <trkpt lat="43.5542730" lon="-6.3025860">
        <ele>55.8</ele>
        <time>2021-07-21T12:20:52Z</time>
      </trkpt>
      <trkpt lat="43.5542000" lon="-6.3025470">
        <ele>55.4</ele>
        <time>2021-07-21T12:20:53Z</time>
      </trkpt>
      <trkpt lat="43.5541270" lon="-6.3025110">
        <ele>55.0</ele>
        <time>2021-07-21T12:20:54Z</time>
      </trkpt>
      <trkpt lat="43.5540520" lon="-6.3024900">
        <ele>54.6</ele>
        <time>2021-07-21T12:20:55Z</time>
      </trkpt>
      <trkpt lat="43.5539770" lon="-6.3024750">
        <ele>54.2</ele>
        <time>2021-07-21T12:20:56Z</time>
      </trkpt>
      <trkpt lat="43.5538320" lon="-6.3024610">
        <ele>53.8</ele>
        <time>2021-07-21T12:20:58Z</time>
      </trkpt>
      <trkpt lat="43.5537660" lon="-6.3024760">
        <ele>53.2</ele>
        <time>2021-07-21T12:20:59Z</time>
      </trkpt>
      <trkpt lat="43.5536960" lon="-6.3025000">
        <ele>52.8</ele>
        <time>2021-07-21T12:21:00Z</time>
      </trkpt>
      <trkpt lat="43.5536340" lon="-6.3025280">
        <ele>52.4</ele>
        <time>2021-07-21T12:21:01Z</time>
      </trkpt>
      <trkpt lat="43.5535670" lon="-6.3025730">
        <ele>52.0</ele>
        <time>2021-07-21T12:21:02Z</time>
      </trkpt>
      <trkpt lat="43.5535030" lon="-6.3026360">
        <ele>51.6</ele>
        <time>2021-07-21T12:21:03Z</time>
      </trkpt>
      <trkpt lat="43.5534490" lon="-6.3027070">
        <ele>50.8</ele>
        <time>2021-07-21T12:21:04Z</time>
      </trkpt>
      <trkpt lat="43.5533960" lon="-6.3027750">
        <ele>50.4</ele>
        <time>2021-07-21T12:21:05Z</time>
      </trkpt>
      <trkpt lat="43.5533500" lon="-6.3028450">
        <ele>49.8</ele>
        <time>2021-07-21T12:21:06Z</time>
      </trkpt>
      <trkpt lat="43.5533160" lon="-6.3029090">
        <ele>49.4</ele>
        <time>2021-07-21T12:21:07Z</time>
      </trkpt>
      <trkpt lat="43.5532960" lon="-6.3029700">
        <ele>49.0</ele>
        <time>2021-07-21T12:21:08Z</time>
      </trkpt>
      <trkpt lat="43.5532860" lon="-6.3030270">
        <ele>48.6</ele>
        <time>2021-07-21T12:21:09Z</time>
      </trkpt>
      <trkpt lat="43.5532850" lon="-6.3030790">
        <ele>48.0</ele>
        <time>2021-07-21T12:21:10Z</time>
      </trkpt>
      <trkpt lat="43.5532920" lon="-6.3031290">
        <ele>47.6</ele>
        <time>2021-07-21T12:21:11Z</time>
      </trkpt>
      <trkpt lat="43.5533030" lon="-6.3031790">
        <ele>47.6</ele>
        <time>2021-07-21T12:21:12Z</time>
      </trkpt>
      <trkpt lat="43.5533450" lon="-6.3032600">
        <ele>47.6</ele>
        <time>2021-07-21T12:21:14Z</time>
      </trkpt>
      <trkpt lat="43.5533920" lon="-6.3033270">
        <ele>47.6</ele>
        <time>2021-07-21T12:21:16Z</time>
      </trkpt>
      <trkpt lat="43.5534450" lon="-6.3034030">
        <ele>47.6</ele>
        <time>2021-07-21T12:21:18Z</time>
      </trkpt>
      <trkpt lat="43.5535010" lon="-6.3034860">
        <ele>47.6</ele>
        <time>2021-07-21T12:21:20Z</time>
      </trkpt>
      <trkpt lat="43.5535380" lon="-6.3035240">
        <ele>47.6</ele>
        <time>2021-07-21T12:21:21Z</time>
      </trkpt>
      <trkpt lat="43.5535830" lon="-6.3035460">
        <ele>47.6</ele>
        <time>2021-07-21T12:21:22Z</time>
      </trkpt>
      <trkpt lat="43.5536710" lon="-6.3035560">
        <ele>47.6</ele>
        <time>2021-07-21T12:21:24Z</time>
      </trkpt>
      <trkpt lat="43.5537520" lon="-6.3035410">
        <ele>47.6</ele>
        <time>2021-07-21T12:21:26Z</time>
      </trkpt>
      <trkpt lat="43.5538260" lon="-6.3035210">
        <ele>47.6</ele>
        <time>2021-07-21T12:21:28Z</time>
      </trkpt>
      <trkpt lat="43.5539000" lon="-6.3035150">
        <ele>47.6</ele>
        <time>2021-07-21T12:21:30Z</time>
      </trkpt>
      <trkpt lat="43.5539370" lon="-6.3035030">
        <ele>47.6</ele>
        <time>2021-07-21T12:21:31Z</time>
      </trkpt>
      <trkpt lat="43.5540120" lon="-6.3034870">
        <ele>47.6</ele>
        <time>2021-07-21T12:21:33Z</time>
      </trkpt>
      <trkpt lat="43.5540800" lon="-6.3034950">
        <ele>47.6</ele>
        <time>2021-07-21T12:21:35Z</time>
      </trkpt>
      <trkpt lat="43.5541450" lon="-6.3035160">
        <ele>48.0</ele>
        <time>2021-07-21T12:21:37Z</time>
      </trkpt>
      <trkpt lat="43.5541770" lon="-6.3035300">
        <ele>48.4</ele>
        <time>2021-07-21T12:21:38Z</time>
      </trkpt>
      <trkpt lat="43.5542070" lon="-6.3035420">
        <ele>48.8</ele>
        <time>2021-07-21T12:21:39Z</time>
      </trkpt>
      <trkpt lat="43.5542400" lon="-6.3035570">
        <ele>49.4</ele>
        <time>2021-07-21T12:21:40Z</time>
      </trkpt>
      <trkpt lat="43.5542660" lon="-6.3035720">
        <ele>49.8</ele>
        <time>2021-07-21T12:21:41Z</time>
      </trkpt>
      <trkpt lat="43.5543750" lon="-6.3036660">
        <ele>49.8</ele>
        <time>2021-07-21T12:21:45Z</time>
      </trkpt>
      <trkpt lat="43.5544970" lon="-6.3037770">
        <ele>49.8</ele>
        <time>2021-07-21T12:21:50Z</time>
      </trkpt>
      <trkpt lat="43.5546030" lon="-6.3038300">
        <ele>50.2</ele>
        <time>2021-07-21T12:21:54Z</time>
      </trkpt>
      <trkpt lat="43.5546340" lon="-6.3038350">
        <ele>50.6</ele>
        <time>2021-07-21T12:21:55Z</time>
      </trkpt>
      <trkpt lat="43.5546660" lon="-6.3038400">
        <ele>51.0</ele>
        <time>2021-07-21T12:21:56Z</time>
      </trkpt>
      <trkpt lat="43.5546900" lon="-6.3038430">
        <ele>51.4</ele>
        <time>2021-07-21T12:21:57Z</time>
      </trkpt>
      <trkpt lat="43.5547130" lon="-6.3038410">
        <ele>51.8</ele>
        <time>2021-07-21T12:21:58Z</time>
      </trkpt>
      <trkpt lat="43.5548130" lon="-6.3038270">
        <ele>51.8</ele>
        <time>2021-07-21T12:22:02Z</time>
      </trkpt>
      <trkpt lat="43.5548370" lon="-6.3038150">
        <ele>52.2</ele>
        <time>2021-07-21T12:22:03Z</time>
      </trkpt>
      <trkpt lat="43.5548590" lon="-6.3038090">
        <ele>52.6</ele>
        <time>2021-07-21T12:22:04Z</time>
      </trkpt>
      <trkpt lat="43.5548780" lon="-6.3037910">
        <ele>53.2</ele>
        <time>2021-07-21T12:22:05Z</time>
      </trkpt>
      <trkpt lat="43.5548980" lon="-6.3037840">
        <ele>53.6</ele>
        <time>2021-07-21T12:22:06Z</time>
      </trkpt>
      <trkpt lat="43.5549260" lon="-6.3037700">
        <ele>54.0</ele>
        <time>2021-07-21T12:22:07Z</time>
      </trkpt>
      <trkpt lat="43.5551500" lon="-6.3036670">
        <ele>54.4</ele>
        <time>2021-07-21T12:22:13Z</time>
      </trkpt>
      <trkpt lat="43.5551900" lon="-6.3036460">
        <ele>54.8</ele>
        <time>2021-07-21T12:22:14Z</time>
      </trkpt>
      <trkpt lat="43.5552320" lon="-6.3036210">
        <ele>55.2</ele>
        <time>2021-07-21T12:22:15Z</time>
      </trkpt>
      <trkpt lat="43.5552700" lon="-6.3035970">
        <ele>55.6</ele>
        <time>2021-07-21T12:22:16Z</time>
      </trkpt>
      <trkpt lat="43.5553010" lon="-6.3035730">
        <ele>56.0</ele>
        <time>2021-07-21T12:22:17Z</time>
      </trkpt>
      <trkpt lat="43.5554030" lon="-6.3035140">
        <ele>56.0</ele>
        <time>2021-07-21T12:22:21Z</time>
      </trkpt>
      <trkpt lat="43.5554800" lon="-6.3034800">
        <ele>56.4</ele>
        <time>2021-07-21T12:22:24Z</time>
      </trkpt>
      <trkpt lat="43.5555110" lon="-6.3034710">
        <ele>56.8</ele>
        <time>2021-07-21T12:22:25Z</time>
      </trkpt>
      <trkpt lat="43.5555410" lon="-6.3034600">
        <ele>57.2</ele>
        <time>2021-07-21T12:22:26Z</time>
      </trkpt>
      <trkpt lat="43.5555720" lon="-6.3034490">
        <ele>57.6</ele>
        <time>2021-07-21T12:22:27Z</time>
      </trkpt>
      <trkpt lat="43.5555970" lon="-6.3034430">
        <ele>58.0</ele>
        <time>2021-07-21T12:22:28Z</time>
      </trkpt>
      <trkpt lat="43.5557290" lon="-6.3034280">
        <ele>58.0</ele>
        <time>2021-07-21T12:22:33Z</time>
      </trkpt>
      <trkpt lat="43.5557760" lon="-6.3034420">
        <ele>58.4</ele>
        <time>2021-07-21T12:22:35Z</time>
      </trkpt>
      <trkpt lat="43.5557950" lon="-6.3034520">
        <ele>59.0</ele>
        <time>2021-07-21T12:22:36Z</time>
      </trkpt>
      <trkpt lat="43.5558140" lon="-6.3034630">
        <ele>59.4</ele>
        <time>2021-07-21T12:22:37Z</time>
      </trkpt>
      <trkpt lat="43.5558310" lon="-6.3034770">
        <ele>59.8</ele>
        <time>2021-07-21T12:22:38Z</time>
      </trkpt>
      <trkpt lat="43.5558490" lon="-6.3034840">
        <ele>60.2</ele>
        <time>2021-07-21T12:22:39Z</time>
      </trkpt>
      <trkpt lat="43.5558710" lon="-6.3034950">
        <ele>60.2</ele>
        <time>2021-07-21T12:22:40Z</time>
      </trkpt>
      <trkpt lat="43.5560000" lon="-6.3035610">
        <ele>60.2</ele>
        <time>2021-07-21T12:22:46Z</time>
      </trkpt>
      <trkpt lat="43.5560260" lon="-6.3035740">
        <ele>60.2</ele>
        <time>2021-07-21T12:22:47Z</time>
      </trkpt>
      <trkpt lat="43.5560500" lon="-6.3035840">
        <ele>60.6</ele>
        <time>2021-07-21T12:22:48Z</time>
      </trkpt>
      <trkpt lat="43.5560770" lon="-6.3036000">
        <ele>61.0</ele>
        <time>2021-07-21T12:22:49Z</time>
      </trkpt>
      <trkpt lat="43.5560970" lon="-6.3036160">
        <ele>61.4</ele>
        <time>2021-07-21T12:22:50Z</time>
      </trkpt>
      <trkpt lat="43.5561250" lon="-6.3036290">
        <ele>61.8</ele>
        <time>2021-07-21T12:22:51Z</time>
      </trkpt>
      <trkpt lat="43.5561460" lon="-6.3036530">
        <ele>62.2</ele>
        <time>2021-07-21T12:22:52Z</time>
      </trkpt>
      <trkpt lat="43.5561980" lon="-6.3037060">
        <ele>62.2</ele>
        <time>2021-07-21T12:22:54Z</time>
      </trkpt>
      <trkpt lat="43.5563490" lon="-6.3038600">
        <ele>62.6</ele>
        <time>2021-07-21T12:23:01Z</time>
      </trkpt>
      <trkpt lat="43.5563670" lon="-6.3038810">
        <ele>63.2</ele>
        <time>2021-07-21T12:23:02Z</time>
      </trkpt>
      <trkpt lat="43.5563850" lon="-6.3038980">
        <ele>63.6</ele>
        <time>2021-07-21T12:23:03Z</time>
      </trkpt>
      <trkpt lat="43.5563970" lon="-6.3039100">
        <ele>64.0</ele>
        <time>2021-07-21T12:23:04Z</time>
      </trkpt>
      <trkpt lat="43.5564150" lon="-6.3039200">
        <ele>64.4</ele>
        <time>2021-07-21T12:23:05Z</time>
      </trkpt>
      <trkpt lat="43.5565030" lon="-6.3039610">
        <ele>64.4</ele>
        <time>2021-07-21T12:23:09Z</time>
      </trkpt>
      <trkpt lat="43.5565600" lon="-6.3039900">
        <ele>64.8</ele>
        <time>2021-07-21T12:23:12Z</time>
      </trkpt>
      <trkpt lat="43.5565780" lon="-6.3039940">
        <ele>65.2</ele>
        <time>2021-07-21T12:23:13Z</time>
      </trkpt>
      <trkpt lat="43.5565970" lon="-6.3040070">
        <ele>65.6</ele>
        <time>2021-07-21T12:23:14Z</time>
      </trkpt>
      <trkpt lat="43.5566180" lon="-6.3040210">
        <ele>66.0</ele>
        <time>2021-07-21T12:23:15Z</time>
      </trkpt>
      <trkpt lat="43.5566410" lon="-6.3040400">
        <ele>66.6</ele>
        <time>2021-07-21T12:23:16Z</time>
      </trkpt>
      <trkpt lat="43.5568020" lon="-6.3041520">
        <ele>66.6</ele>
        <time>2021-07-21T12:23:23Z</time>
      </trkpt>
      <trkpt lat="43.5568930" lon="-6.3042020">
        <ele>67.0</ele>
        <time>2021-07-21T12:23:27Z</time>
      </trkpt>
      <trkpt lat="43.5569140" lon="-6.3042110">
        <ele>67.4</ele>
        <time>2021-07-21T12:23:28Z</time>
      </trkpt>
      <trkpt lat="43.5569340" lon="-6.3042150">
        <ele>67.8</ele>
        <time>2021-07-21T12:23:29Z</time>
      </trkpt>
      <trkpt lat="43.5569620" lon="-6.3042190">
        <ele>68.2</ele>
        <time>2021-07-21T12:23:30Z</time>
      </trkpt>
      <trkpt lat="43.5569900" lon="-6.3042180">
        <ele>68.6</ele>
        <time>2021-07-21T12:23:31Z</time>
      </trkpt>
      <trkpt lat="43.5570140" lon="-6.3042220">
        <ele>68.6</ele>
        <time>2021-07-21T12:23:32Z</time>
      </trkpt>
      <trkpt lat="43.5571710" lon="-6.3042790">
        <ele>69.0</ele>
        <time>2021-07-21T12:23:38Z</time>
      </trkpt>
      <trkpt lat="43.5571970" lon="-6.3042960">
        <ele>69.4</ele>
        <time>2021-07-21T12:23:39Z</time>
      </trkpt>
      <trkpt lat="43.5572260" lon="-6.3043140">
        <ele>70.0</ele>
        <time>2021-07-21T12:23:40Z</time>
      </trkpt>
      <trkpt lat="43.5572540" lon="-6.3043270">
        <ele>70.4</ele>
        <time>2021-07-21T12:23:41Z</time>
      </trkpt>
      <trkpt lat="43.5572860" lon="-6.3043270">
        <ele>70.8</ele>
        <time>2021-07-21T12:23:42Z</time>
      </trkpt>
      <trkpt lat="43.5574520" lon="-6.3043410">
        <ele>70.8</ele>
        <time>2021-07-21T12:23:48Z</time>
      </trkpt>
      <trkpt lat="43.5575750" lon="-6.3043110">
        <ele>71.2</ele>
        <time>2021-07-21T12:23:52Z</time>
      </trkpt>
      <trkpt lat="43.5575970" lon="-6.3042930">
        <ele>71.6</ele>
        <time>2021-07-21T12:23:53Z</time>
      </trkpt>
      <trkpt lat="43.5576140" lon="-6.3042750">
        <ele>72.0</ele>
        <time>2021-07-21T12:23:54Z</time>
      </trkpt>
      <trkpt lat="43.5576360" lon="-6.3042500">
        <ele>72.4</ele>
        <time>2021-07-21T12:23:55Z</time>
      </trkpt>
      <trkpt lat="43.5576570" lon="-6.3042300">
        <ele>73.0</ele>
        <time>2021-07-21T12:23:56Z</time>
      </trkpt>
      <trkpt lat="43.5577480" lon="-6.3041250">
        <ele>73.0</ele>
        <time>2021-07-21T12:24:00Z</time>
      </trkpt>
      <trkpt lat="43.5578180" lon="-6.3040600">
        <ele>73.4</ele>
        <time>2021-07-21T12:24:03Z</time>
      </trkpt>
      <trkpt lat="43.5578450" lon="-6.3040370">
        <ele>73.8</ele>
        <time>2021-07-21T12:24:04Z</time>
      </trkpt>
      <trkpt lat="43.5578660" lon="-6.3040190">
        <ele>74.2</ele>
        <time>2021-07-21T12:24:05Z</time>
      </trkpt>
      <trkpt lat="43.5578850" lon="-6.3040060">
        <ele>74.6</ele>
        <time>2021-07-21T12:24:06Z</time>
      </trkpt>
      <trkpt lat="43.5579120" lon="-6.3040010">
        <ele>75.0</ele>
        <time>2021-07-21T12:24:07Z</time>
      </trkpt>
      <trkpt lat="43.5580300" lon="-6.3039430">
        <ele>75.0</ele>
        <time>2021-07-21T12:24:12Z</time>
      </trkpt>
      <trkpt lat="43.5581830" lon="-6.3038920">
        <ele>75.4</ele>
        <time>2021-07-21T12:24:18Z</time>
      </trkpt>
      <trkpt lat="43.5582240" lon="-6.3038630">
        <ele>75.8</ele>
        <time>2021-07-21T12:24:19Z</time>
      </trkpt>
      <trkpt lat="43.5582530" lon="-6.3038430">
        <ele>76.2</ele>
        <time>2021-07-21T12:24:20Z</time>
      </trkpt>
      <trkpt lat="43.5582740" lon="-6.3038260">
        <ele>76.6</ele>
        <time>2021-07-21T12:24:21Z</time>
      </trkpt>
      <trkpt lat="43.5583030" lon="-6.3037970">
        <ele>77.0</ele>
        <time>2021-07-21T12:24:22Z</time>
      </trkpt>
      <trkpt lat="43.5584110" lon="-6.3036400">
        <ele>77.6</ele>
        <time>2021-07-21T12:24:29Z</time>
      </trkpt>
      <trkpt lat="43.5584220" lon="-6.3036230">
        <ele>78.0</ele>
        <time>2021-07-21T12:24:30Z</time>
      </trkpt>
      <trkpt lat="43.5584350" lon="-6.3035980">
        <ele>78.4</ele>
        <time>2021-07-21T12:24:31Z</time>
      </trkpt>
      <trkpt lat="43.5584490" lon="-6.3035720">
        <ele>78.8</ele>
        <time>2021-07-21T12:24:32Z</time>
      </trkpt>
      <trkpt lat="43.5584690" lon="-6.3035550">
        <ele>79.4</ele>
        <time>2021-07-21T12:24:33Z</time>
      </trkpt>
      <trkpt lat="43.5585640" lon="-6.3034760">
        <ele>79.4</ele>
        <time>2021-07-21T12:24:37Z</time>
      </trkpt>
      <trkpt lat="43.5586120" lon="-6.3034480">
        <ele>79.8</ele>
        <time>2021-07-21T12:24:39Z</time>
      </trkpt>
      <trkpt lat="43.5586410" lon="-6.3034380">
        <ele>80.2</ele>
        <time>2021-07-21T12:24:40Z</time>
      </trkpt>
      <trkpt lat="43.5586700" lon="-6.3034270">
        <ele>80.6</ele>
        <time>2021-07-21T12:24:41Z</time>
      </trkpt>
      <trkpt lat="43.5586960" lon="-6.3034200">
        <ele>81.0</ele>
        <time>2021-07-21T12:24:42Z</time>
      </trkpt>
      <trkpt lat="43.5587230" lon="-6.3034160">
        <ele>81.4</ele>
        <time>2021-07-21T12:24:43Z</time>
      </trkpt>
      <trkpt lat="43.5587490" lon="-6.3034160">
        <ele>81.4</ele>
        <time>2021-07-21T12:24:44Z</time>
      </trkpt>
      <trkpt lat="43.5590050" lon="-6.3034800">
        <ele>81.4</ele>
        <time>2021-07-21T12:24:54Z</time>
      </trkpt>
      <trkpt lat="43.5590790" lon="-6.3035050">
        <ele>82.0</ele>
        <time>2021-07-21T12:24:57Z</time>
      </trkpt>
      <trkpt lat="43.5591050" lon="-6.3035140">
        <ele>82.4</ele>
        <time>2021-07-21T12:24:58Z</time>
      </trkpt>
      <trkpt lat="43.5591300" lon="-6.3035260">
        <ele>82.8</ele>
        <time>2021-07-21T12:24:59Z</time>
      </trkpt>
      <trkpt lat="43.5591560" lon="-6.3035400">
        <ele>83.2</ele>
        <time>2021-07-21T12:25:00Z</time>
      </trkpt>
      <trkpt lat="43.5591800" lon="-6.3035580">
        <ele>83.6</ele>
        <time>2021-07-21T12:25:01Z</time>
      </trkpt>
      <trkpt lat="43.5592020" lon="-6.3035710">
        <ele>83.6</ele>
        <time>2021-07-21T12:25:02Z</time>
      </trkpt>
      <trkpt lat="43.5594120" lon="-6.3037610">
        <ele>83.6</ele>
        <time>2021-07-21T12:25:11Z</time>
      </trkpt>
      <trkpt lat="43.5595360" lon="-6.3038740">
        <ele>84.0</ele>
        <time>2021-07-21T12:25:17Z</time>
      </trkpt>
      <trkpt lat="43.5595570" lon="-6.3038960">
        <ele>84.4</ele>
        <time>2021-07-21T12:25:18Z</time>
      </trkpt>
      <trkpt lat="43.5595770" lon="-6.3039160">
        <ele>84.8</ele>
        <time>2021-07-21T12:25:19Z</time>
      </trkpt>
      <trkpt lat="43.5596000" lon="-6.3039420">
        <ele>85.2</ele>
        <time>2021-07-21T12:25:20Z</time>
      </trkpt>
      <trkpt lat="43.5596210" lon="-6.3039630">
        <ele>85.6</ele>
        <time>2021-07-21T12:25:21Z</time>
      </trkpt>
      <trkpt lat="43.5597480" lon="-6.3041190">
        <ele>85.6</ele>
        <time>2021-07-21T12:25:28Z</time>
      </trkpt>
      <trkpt lat="43.5598060" lon="-6.3042250">
        <ele>86.0</ele>
        <time>2021-07-21T12:25:32Z</time>
      </trkpt>
      <trkpt lat="43.5598170" lon="-6.3042530">
        <ele>86.4</ele>
        <time>2021-07-21T12:25:33Z</time>
      </trkpt>
      <trkpt lat="43.5598260" lon="-6.3042810">
        <ele>86.8</ele>
        <time>2021-07-21T12:25:34Z</time>
      </trkpt>
      <trkpt lat="43.5598300" lon="-6.3043150">
        <ele>87.4</ele>
        <time>2021-07-21T12:25:35Z</time>
      </trkpt>
      <trkpt lat="43.5598330" lon="-6.3043500">
        <ele>87.8</ele>
        <time>2021-07-21T12:25:36Z</time>
      </trkpt>
      <trkpt lat="43.5598320" lon="-6.3044630">
        <ele>87.8</ele>
        <time>2021-07-21T12:25:39Z</time>
      </trkpt>
      <trkpt lat="43.5597930" lon="-6.3046750">
        <ele>87.8</ele>
        <time>2021-07-21T12:25:45Z</time>
      </trkpt>
      <trkpt lat="43.5597700" lon="-6.3047350">
        <ele>87.8</ele>
        <time>2021-07-21T12:25:47Z</time>
      </trkpt>
      <trkpt lat="43.5596180" lon="-6.3049740">
        <ele>88.2</ele>
        <time>2021-07-21T12:25:55Z</time>
      </trkpt>
      <trkpt lat="43.5595960" lon="-6.3049990">
        <ele>88.6</ele>
        <time>2021-07-21T12:25:56Z</time>
      </trkpt>
      <trkpt lat="43.5595720" lon="-6.3050240">
        <ele>89.0</ele>
        <time>2021-07-21T12:25:57Z</time>
      </trkpt>
      <trkpt lat="43.5595500" lon="-6.3050470">
        <ele>89.4</ele>
        <time>2021-07-21T12:25:58Z</time>
      </trkpt>
      <trkpt lat="43.5595280" lon="-6.3050690">
        <ele>89.8</ele>
        <time>2021-07-21T12:25:59Z</time>
      </trkpt>
      <trkpt lat="43.5594370" lon="-6.3051730">
        <ele>89.8</ele>
        <time>2021-07-21T12:26:03Z</time>
      </trkpt>
      <trkpt lat="43.5592730" lon="-6.3053250">
        <ele>89.8</ele>
        <time>2021-07-21T12:26:10Z</time>
      </trkpt>
      <trkpt lat="43.5590560" lon="-6.3055100">
        <ele>89.8</ele>
        <time>2021-07-21T12:26:19Z</time>
      </trkpt>
      <trkpt lat="43.5589820" lon="-6.3055540">
        <ele>90.2</ele>
        <time>2021-07-21T12:26:22Z</time>
      </trkpt>
      <trkpt lat="43.5589560" lon="-6.3055670">
        <ele>90.6</ele>
        <time>2021-07-21T12:26:23Z</time>
      </trkpt>
      <trkpt lat="43.5589290" lon="-6.3055780">
        <ele>91.0</ele>
        <time>2021-07-21T12:26:24Z</time>
      </trkpt>
      <trkpt lat="43.5589030" lon="-6.3055920">
        <ele>91.4</ele>
        <time>2021-07-21T12:26:25Z</time>
      </trkpt>
      <trkpt lat="43.5588780" lon="-6.3056080">
        <ele>91.8</ele>
        <time>2021-07-21T12:26:26Z</time>
      </trkpt>
      <trkpt lat="43.5588270" lon="-6.3056420">
        <ele>91.8</ele>
        <time>2021-07-21T12:26:28Z</time>
      </trkpt>
      <trkpt lat="43.5585910" lon="-6.3057570">
        <ele>91.8</ele>
        <time>2021-07-21T12:26:37Z</time>
      </trkpt>
      <trkpt lat="43.5584570" lon="-6.3058280">
        <ele>92.2</ele>
        <time>2021-07-21T12:26:42Z</time>
      </trkpt>
      <trkpt lat="43.5584290" lon="-6.3058430">
        <ele>92.8</ele>
        <time>2021-07-21T12:26:43Z</time>
      </trkpt>
      <trkpt lat="43.5584020" lon="-6.3058570">
        <ele>93.2</ele>
        <time>2021-07-21T12:26:44Z</time>
      </trkpt>
      <trkpt lat="43.5583750" lon="-6.3058710">
        <ele>93.6</ele>
        <time>2021-07-21T12:26:45Z</time>
      </trkpt>
      <trkpt lat="43.5583490" lon="-6.3058840">
        <ele>94.0</ele>
        <time>2021-07-21T12:26:46Z</time>
      </trkpt>
      <trkpt lat="43.5581820" lon="-6.3059640">
        <ele>94.0</ele>
        <time>2021-07-21T12:26:52Z</time>
      </trkpt>
      <trkpt lat="43.5579350" lon="-6.3060940">
        <ele>94.0</ele>
        <time>2021-07-21T12:27:01Z</time>
      </trkpt>
      <trkpt lat="43.5578810" lon="-6.3061250">
        <ele>94.4</ele>
        <time>2021-07-21T12:27:03Z</time>
      </trkpt>
      <trkpt lat="43.5578560" lon="-6.3061450">
        <ele>94.8</ele>
        <time>2021-07-21T12:27:04Z</time>
      </trkpt>
      <trkpt lat="43.5578310" lon="-6.3061690">
        <ele>95.2</ele>
        <time>2021-07-21T12:27:05Z</time>
      </trkpt>
      <trkpt lat="43.5578060" lon="-6.3061930">
        <ele>95.8</ele>
        <time>2021-07-21T12:27:06Z</time>
      </trkpt>
      <trkpt lat="43.5577800" lon="-6.3062190">
        <ele>96.2</ele>
        <time>2021-07-21T12:27:07Z</time>
      </trkpt>
      <trkpt lat="43.5577320" lon="-6.3062690">
        <ele>96.2</ele>
        <time>2021-07-21T12:27:09Z</time>
      </trkpt>
      <trkpt lat="43.5575600" lon="-6.3064090">
        <ele>96.6</ele>
        <time>2021-07-21T12:27:16Z</time>
      </trkpt>
      <trkpt lat="43.5575360" lon="-6.3064260">
        <ele>97.0</ele>
        <time>2021-07-21T12:27:17Z</time>
      </trkpt>
      <trkpt lat="43.5575120" lon="-6.3064410">
        <ele>97.4</ele>
        <time>2021-07-21T12:27:18Z</time>
      </trkpt>
      <trkpt lat="43.5574870" lon="-6.3064540">
        <ele>97.8</ele>
        <time>2021-07-21T12:27:19Z</time>
      </trkpt>
      <trkpt lat="43.5574590" lon="-6.3064670">
        <ele>98.2</ele>
        <time>2021-07-21T12:27:20Z</time>
      </trkpt>
      <trkpt lat="43.5573710" lon="-6.3064970">
        <ele>98.2</ele>
        <time>2021-07-21T12:27:23Z</time>
      </trkpt>
      <trkpt lat="43.5570970" lon="-6.3066060">
        <ele>98.2</ele>
        <time>2021-07-21T12:27:31Z</time>
      </trkpt>
      <trkpt lat="43.5569580" lon="-6.3067010">
        <ele>98.2</ele>
        <time>2021-07-21T12:27:36Z</time>
      </trkpt>
      <trkpt lat="43.5569320" lon="-6.3067320">
        <ele>98.2</ele>
        <time>2021-07-21T12:27:37Z</time>
      </trkpt>
      <trkpt lat="43.5567930" lon="-6.3069670">
        <ele>98.2</ele>
        <time>2021-07-21T12:27:43Z</time>
      </trkpt>
      <trkpt lat="43.5567760" lon="-6.3070100">
        <ele>98.6</ele>
        <time>2021-07-21T12:27:44Z</time>
      </trkpt>
      <trkpt lat="43.5567590" lon="-6.3070520">
        <ele>99.0</ele>
        <time>2021-07-21T12:27:45Z</time>
      </trkpt>
      <trkpt lat="43.5567420" lon="-6.3070940">
        <ele>99.4</ele>
        <time>2021-07-21T12:27:46Z</time>
      </trkpt>
      <trkpt lat="43.5567250" lon="-6.3071370">
        <ele>99.8</ele>
        <time>2021-07-21T12:27:47Z</time>
      </trkpt>
      <trkpt lat="43.5567080" lon="-6.3071830">
        <ele>100.2</ele>
        <time>2021-07-21T12:27:48Z</time>
      </trkpt>
      <trkpt lat="43.5566460" lon="-6.3073220">
        <ele>100.2</ele>
        <time>2021-07-21T12:27:51Z</time>
      </trkpt>
      <trkpt lat="43.5565000" lon="-6.3076840">
        <ele>100.2</ele>
        <time>2021-07-21T12:27:59Z</time>
      </trkpt>
      <trkpt lat="43.5564400" lon="-6.3078200">
        <ele>100.2</ele>
        <time>2021-07-21T12:28:02Z</time>
      </trkpt>
      <trkpt lat="43.5563740" lon="-6.3079690">
        <ele>100.2</ele>
        <time>2021-07-21T12:28:05Z</time>
      </trkpt>
      <trkpt lat="43.5562640" lon="-6.3082330">
        <ele>100.2</ele>
        <time>2021-07-21T12:28:11Z</time>
      </trkpt>
      <trkpt lat="43.5562450" lon="-6.3082800">
        <ele>100.2</ele>
        <time>2021-07-21T12:28:12Z</time>
      </trkpt>
      <trkpt lat="43.5560930" lon="-6.3086680">
        <ele>100.2</ele>
        <time>2021-07-21T12:28:20Z</time>
      </trkpt>
      <trkpt lat="43.5560460" lon="-6.3088030">
        <ele>100.2</ele>
        <time>2021-07-21T12:28:23Z</time>
      </trkpt>
      <trkpt lat="43.5559760" lon="-6.3089900">
        <ele>100.2</ele>
        <time>2021-07-21T12:28:27Z</time>
      </trkpt>
      <trkpt lat="43.5557600" lon="-6.3093320">
        <ele>100.2</ele>
        <time>2021-07-21T12:28:35Z</time>
      </trkpt>
      <trkpt lat="43.5555430" lon="-6.3096340">
        <ele>100.2</ele>
        <time>2021-07-21T12:28:43Z</time>
      </trkpt>
      <trkpt lat="43.5553230" lon="-6.3099550">
        <ele>100.6</ele>
        <time>2021-07-21T12:28:51Z</time>
      </trkpt>
      <trkpt lat="43.5552990" lon="-6.3099940">
        <ele>101.0</ele>
        <time>2021-07-21T12:28:52Z</time>
      </trkpt>
      <trkpt lat="43.5552730" lon="-6.3100340">
        <ele>101.4</ele>
        <time>2021-07-21T12:28:53Z</time>
      </trkpt>
      <trkpt lat="43.5552450" lon="-6.3100730">
        <ele>101.8</ele>
        <time>2021-07-21T12:28:54Z</time>
      </trkpt>
      <trkpt lat="43.5552160" lon="-6.3101110">
        <ele>102.2</ele>
        <time>2021-07-21T12:28:55Z</time>
      </trkpt>
      <trkpt lat="43.5551070" lon="-6.3102730">
        <ele>102.2</ele>
        <time>2021-07-21T12:28:59Z</time>
      </trkpt>
      <trkpt lat="43.5549750" lon="-6.3104670">
        <ele>102.2</ele>
        <time>2021-07-21T12:29:04Z</time>
      </trkpt>
      <trkpt lat="43.5548410" lon="-6.3106650">
        <ele>102.2</ele>
        <time>2021-07-21T12:29:09Z</time>
      </trkpt>
      <trkpt lat="43.5546970" lon="-6.3109390">
        <ele>102.2</ele>
        <time>2021-07-21T12:29:15Z</time>
      </trkpt>
      <trkpt lat="43.5546740" lon="-6.3109860">
        <ele>102.2</ele>
        <time>2021-07-21T12:29:16Z</time>
      </trkpt>
      <trkpt lat="43.5544890" lon="-6.3113910">
        <ele>102.2</ele>
        <time>2021-07-21T12:29:24Z</time>
      </trkpt>
      <trkpt lat="43.5543380" lon="-6.3117500">
        <ele>102.2</ele>
        <time>2021-07-21T12:29:31Z</time>
      </trkpt>
      <trkpt lat="43.5542950" lon="-6.3118450">
        <ele>102.2</ele>
        <time>2021-07-21T12:29:33Z</time>
      </trkpt>
      <trkpt lat="43.5542350" lon="-6.3119990">
        <ele>102.2</ele>
        <time>2021-07-21T12:29:36Z</time>
      </trkpt>
      <trkpt lat="43.5542170" lon="-6.3120490">
        <ele>102.2</ele>
        <time>2021-07-21T12:29:37Z</time>
      </trkpt>
      <trkpt lat="43.5541750" lon="-6.3121470">
        <ele>102.2</ele>
        <time>2021-07-21T12:29:39Z</time>
      </trkpt>
      <trkpt lat="43.5541540" lon="-6.3121940">
        <ele>102.2</ele>
        <time>2021-07-21T12:29:40Z</time>
      </trkpt>
      <trkpt lat="43.5541230" lon="-6.3122740">
        <ele>102.2</ele>
        <time>2021-07-21T12:29:42Z</time>
      </trkpt>
      <trkpt lat="43.5541100" lon="-6.3123160">
        <ele>102.2</ele>
        <time>2021-07-21T12:29:44Z</time>
      </trkpt>
      <trkpt lat="43.5541110" lon="-6.3123220">
        <ele>102.2</ele>
        <time>2021-07-21T12:29:45Z</time>
      </trkpt>
      <trkpt lat="43.5540940" lon="-6.3123430">
        <ele>102.2</ele>
        <time>2021-07-21T12:30:29Z</time>
      </trkpt>
      <trkpt lat="43.5540840" lon="-6.3123640">
        <ele>102.2</ele>
        <time>2021-07-21T12:30:30Z</time>
      </trkpt>
      <trkpt lat="43.5540730" lon="-6.3123860">
        <ele>102.2</ele>
        <time>2021-07-21T12:30:31Z</time>
      </trkpt>
      <trkpt lat="43.5540430" lon="-6.3124460">
        <ele>102.2</ele>
        <time>2021-07-21T12:30:33Z</time>
      </trkpt>
      <trkpt lat="43.5539880" lon="-6.3125630">
        <ele>102.2</ele>
        <time>2021-07-21T12:30:36Z</time>
      </trkpt>
      <trkpt lat="43.5538720" lon="-6.3127700">
        <ele>102.2</ele>
        <time>2021-07-21T12:30:41Z</time>
      </trkpt>
      <trkpt lat="43.5538460" lon="-6.3128160">
        <ele>102.2</ele>
        <time>2021-07-21T12:30:42Z</time>
      </trkpt>
      <trkpt lat="43.5538230" lon="-6.3128620">
        <ele>102.2</ele>
        <time>2021-07-21T12:30:43Z</time>
      </trkpt>
      <trkpt lat="43.5537760" lon="-6.3129510">
        <ele>102.2</ele>
        <time>2021-07-21T12:30:45Z</time>
      </trkpt>
      <trkpt lat="43.5536750" lon="-6.3131160">
        <ele>102.2</ele>
        <time>2021-07-21T12:30:49Z</time>
      </trkpt>
      <trkpt lat="43.5535990" lon="-6.3132490">
        <ele>102.2</ele>
        <time>2021-07-21T12:30:52Z</time>
      </trkpt>
      <trkpt lat="43.5534190" lon="-6.3135820">
        <ele>102.2</ele>
        <time>2021-07-21T12:30:59Z</time>
      </trkpt>
      <trkpt lat="43.5533930" lon="-6.3136260">
        <ele>102.2</ele>
        <time>2021-07-21T12:31:00Z</time>
      </trkpt>
      <trkpt lat="43.5533680" lon="-6.3136690">
        <ele>101.8</ele>
        <time>2021-07-21T12:31:01Z</time>
      </trkpt>
      <trkpt lat="43.5533440" lon="-6.3137150">
        <ele>101.4</ele>
        <time>2021-07-21T12:31:02Z</time>
      </trkpt>
      <trkpt lat="43.5533190" lon="-6.3137600">
        <ele>101.0</ele>
        <time>2021-07-21T12:31:03Z</time>
      </trkpt>
      <trkpt lat="43.5532950" lon="-6.3138040">
        <ele>100.6</ele>
        <time>2021-07-21T12:31:04Z</time>
      </trkpt>
      <trkpt lat="43.5532730" lon="-6.3138440">
        <ele>100.2</ele>
        <time>2021-07-21T12:31:05Z</time>
      </trkpt>
      <trkpt lat="43.5532570" lon="-6.3138780">
        <ele>100.2</ele>
        <time>2021-07-21T12:31:06Z</time>
      </trkpt>
      <trkpt lat="43.5532300" lon="-6.3139280">
        <ele>100.2</ele>
        <time>2021-07-21T12:31:08Z</time>
      </trkpt>
      <trkpt lat="43.5531830" lon="-6.3140040">
        <ele>100.2</ele>
        <time>2021-07-21T12:31:10Z</time>
      </trkpt>
      <trkpt lat="43.5530730" lon="-6.3142040">
        <ele>100.2</ele>
        <time>2021-07-21T12:31:14Z</time>
      </trkpt>
      <trkpt lat="43.5529790" lon="-6.3143720">
        <ele>100.2</ele>
        <time>2021-07-21T12:31:17Z</time>
      </trkpt>
      <trkpt lat="43.5529460" lon="-6.3144270">
        <ele>99.8</ele>
        <time>2021-07-21T12:31:18Z</time>
      </trkpt>
      <trkpt lat="43.5529110" lon="-6.3144790">
        <ele>99.4</ele>
        <time>2021-07-21T12:31:19Z</time>
      </trkpt>
      <trkpt lat="43.5528720" lon="-6.3145230">
        <ele>99.0</ele>
        <time>2021-07-21T12:31:20Z</time>
      </trkpt>
      <trkpt lat="43.5528240" lon="-6.3145600">
        <ele>98.6</ele>
        <time>2021-07-21T12:31:21Z</time>
      </trkpt>
      <trkpt lat="43.5527750" lon="-6.3145840">
        <ele>98.2</ele>
        <time>2021-07-21T12:31:22Z</time>
      </trkpt>
      <trkpt lat="43.5525650" lon="-6.3145770">
        <ele>98.2</ele>
        <time>2021-07-21T12:31:26Z</time>
      </trkpt>
      <trkpt lat="43.5524440" lon="-6.3144940">
        <ele>98.2</ele>
        <time>2021-07-21T12:31:28Z</time>
      </trkpt>
      <trkpt lat="43.5523770" lon="-6.3144390">
        <ele>97.8</ele>
        <time>2021-07-21T12:31:29Z</time>
      </trkpt>
      <trkpt lat="43.5523050" lon="-6.3143800">
        <ele>97.4</ele>
        <time>2021-07-21T12:31:30Z</time>
      </trkpt>
      <trkpt lat="43.5522330" lon="-6.3143220">
        <ele>97.0</ele>
        <time>2021-07-21T12:31:31Z</time>
      </trkpt>
      <trkpt lat="43.5521610" lon="-6.3142630">
        <ele>96.6</ele>
        <time>2021-07-21T12:31:32Z</time>
      </trkpt>
      <trkpt lat="43.5520900" lon="-6.3142020">
        <ele>96.0</ele>
        <time>2021-07-21T12:31:33Z</time>
      </trkpt>
      <trkpt lat="43.5519440" lon="-6.3140860">
        <ele>95.6</ele>
        <time>2021-07-21T12:31:35Z</time>
      </trkpt>
      <trkpt lat="43.5518680" lon="-6.3140270">
        <ele>95.2</ele>
        <time>2021-07-21T12:31:36Z</time>
      </trkpt>
      <trkpt lat="43.5517960" lon="-6.3139740">
        <ele>94.8</ele>
        <time>2021-07-21T12:31:37Z</time>
      </trkpt>
      <trkpt lat="43.5517280" lon="-6.3139210">
        <ele>94.2</ele>
        <time>2021-07-21T12:31:38Z</time>
      </trkpt>
      <trkpt lat="43.5516650" lon="-6.3138770">
        <ele>93.8</ele>
        <time>2021-07-21T12:31:39Z</time>
      </trkpt>
      <trkpt lat="43.5516080" lon="-6.3138450">
        <ele>93.4</ele>
        <time>2021-07-21T12:31:40Z</time>
      </trkpt>
      <trkpt lat="43.5515560" lon="-6.3138350">
        <ele>92.8</ele>
        <time>2021-07-21T12:31:41Z</time>
      </trkpt>
      <trkpt lat="43.5515070" lon="-6.3138490">
        <ele>92.4</ele>
        <time>2021-07-21T12:31:42Z</time>
      </trkpt>
      <trkpt lat="43.5514620" lon="-6.3138890">
        <ele>91.8</ele>
        <time>2021-07-21T12:31:43Z</time>
      </trkpt>
      <trkpt lat="43.5514380" lon="-6.3139420">
        <ele>91.4</ele>
        <time>2021-07-21T12:31:44Z</time>
      </trkpt>
      <trkpt lat="43.5514650" lon="-6.3141210">
        <ele>91.4</ele>
        <time>2021-07-21T12:31:47Z</time>
      </trkpt>
      <trkpt lat="43.5515300" lon="-6.3142270">
        <ele>91.4</ele>
        <time>2021-07-21T12:31:49Z</time>
      </trkpt>
      <trkpt lat="43.5515660" lon="-6.3142790">
        <ele>91.4</ele>
        <time>2021-07-21T12:31:50Z</time>
      </trkpt>
      <trkpt lat="43.5516080" lon="-6.3143320">
        <ele>91.4</ele>
        <time>2021-07-21T12:31:51Z</time>
      </trkpt>
      <trkpt lat="43.5516470" lon="-6.3143840">
        <ele>91.4</ele>
        <time>2021-07-21T12:31:52Z</time>
      </trkpt>
      <trkpt lat="43.5516840" lon="-6.3144370">
        <ele>91.4</ele>
        <time>2021-07-21T12:31:53Z</time>
      </trkpt>
      <trkpt lat="43.5517170" lon="-6.3144970">
        <ele>91.4</ele>
        <time>2021-07-21T12:31:54Z</time>
      </trkpt>
      <trkpt lat="43.5517730" lon="-6.3146120">
        <ele>91.4</ele>
        <time>2021-07-21T12:31:56Z</time>
      </trkpt>
      <trkpt lat="43.5517950" lon="-6.3146710">
        <ele>91.4</ele>
        <time>2021-07-21T12:31:57Z</time>
      </trkpt>
      <trkpt lat="43.5518420" lon="-6.3148020">
        <ele>91.4</ele>
        <time>2021-07-21T12:31:59Z</time>
      </trkpt>
      <trkpt lat="43.5519220" lon="-6.3150510">
        <ele>91.4</ele>
        <time>2021-07-21T12:32:03Z</time>
      </trkpt>
      <trkpt lat="43.5519790" lon="-6.3152300">
        <ele>91.4</ele>
        <time>2021-07-21T12:32:06Z</time>
      </trkpt>
      <trkpt lat="43.5520690" lon="-6.3154500">
        <ele>91.4</ele>
        <time>2021-07-21T12:32:10Z</time>
      </trkpt>
      <trkpt lat="43.5522110" lon="-6.3157040">
        <ele>91.4</ele>
        <time>2021-07-21T12:32:15Z</time>
      </trkpt>
      <trkpt lat="43.5522670" lon="-6.3157940">
        <ele>91.4</ele>
        <time>2021-07-21T12:32:17Z</time>
      </trkpt>
      <trkpt lat="43.5523950" lon="-6.3160460">
        <ele>91.4</ele>
        <time>2021-07-21T12:32:22Z</time>
      </trkpt>
      <trkpt lat="43.5524150" lon="-6.3160980">
        <ele>91.4</ele>
        <time>2021-07-21T12:32:23Z</time>
      </trkpt>
      <trkpt lat="43.5524720" lon="-6.3163850">
        <ele>91.4</ele>
        <time>2021-07-21T12:32:29Z</time>
      </trkpt>
      <trkpt lat="43.5524440" lon="-6.3165220">
        <ele>91.8</ele>
        <time>2021-07-21T12:32:32Z</time>
      </trkpt>
      <trkpt lat="43.5524230" lon="-6.3165690">
        <ele>92.2</ele>
        <time>2021-07-21T12:32:33Z</time>
      </trkpt>
      <trkpt lat="43.5524010" lon="-6.3166200">
        <ele>92.6</ele>
        <time>2021-07-21T12:32:34Z</time>
      </trkpt>
      <trkpt lat="43.5523740" lon="-6.3166660">
        <ele>93.0</ele>
        <time>2021-07-21T12:32:35Z</time>
      </trkpt>
      <trkpt lat="43.5523430" lon="-6.3167020">
        <ele>93.4</ele>
        <time>2021-07-21T12:32:36Z</time>
      </trkpt>
      <trkpt lat="43.5522810" lon="-6.3167620">
        <ele>93.4</ele>
        <time>2021-07-21T12:32:38Z</time>
      </trkpt>
      <trkpt lat="43.5521130" lon="-6.3168300">
        <ele>93.4</ele>
        <time>2021-07-21T12:32:43Z</time>
      </trkpt>
      <trkpt lat="43.5520090" lon="-6.3168550">
        <ele>93.4</ele>
        <time>2021-07-21T12:32:46Z</time>
      </trkpt>
      <trkpt lat="43.5518870" lon="-6.3168670">
        <ele>93.4</ele>
        <time>2021-07-21T12:32:49Z</time>
      </trkpt>
      <trkpt lat="43.5516150" lon="-6.3168920">
        <ele>93.4</ele>
        <time>2021-07-21T12:32:55Z</time>
      </trkpt>
      <trkpt lat="43.5514890" lon="-6.3168890">
        <ele>93.4</ele>
        <time>2021-07-21T12:32:58Z</time>
      </trkpt>
      <trkpt lat="43.5512880" lon="-6.3168440">
        <ele>93.4</ele>
        <time>2021-07-21T12:33:02Z</time>
      </trkpt>
      <trkpt lat="43.5509860" lon="-6.3167120">
        <ele>93.4</ele>
        <time>2021-07-21T12:33:08Z</time>
      </trkpt>
      <trkpt lat="43.5508740" lon="-6.3166910">
        <ele>93.4</ele>
        <time>2021-07-21T12:33:10Z</time>
      </trkpt>
      <trkpt lat="43.5507620" lon="-6.3167190">
        <ele>93.4</ele>
        <time>2021-07-21T12:33:12Z</time>
      </trkpt>
      <trkpt lat="43.5506820" lon="-6.3168020">
        <ele>93.4</ele>
        <time>2021-07-21T12:33:14Z</time>
      </trkpt>
      <trkpt lat="43.5506490" lon="-6.3168570">
        <ele>93.4</ele>
        <time>2021-07-21T12:33:15Z</time>
      </trkpt>
      <trkpt lat="43.5506130" lon="-6.3170360">
        <ele>93.4</ele>
        <time>2021-07-21T12:33:18Z</time>
      </trkpt>
      <trkpt lat="43.5506230" lon="-6.3172260">
        <ele>93.4</ele>
        <time>2021-07-21T12:33:21Z</time>
      </trkpt>
      <trkpt lat="43.5506530" lon="-6.3173580">
        <ele>93.4</ele>
        <time>2021-07-21T12:33:23Z</time>
      </trkpt>
      <trkpt lat="43.5507010" lon="-6.3174760">
        <ele>93.4</ele>
        <time>2021-07-21T12:33:25Z</time>
      </trkpt>
      <trkpt lat="43.5507820" lon="-6.3176560">
        <ele>93.4</ele>
        <time>2021-07-21T12:33:28Z</time>
      </trkpt>
      <trkpt lat="43.5509300" lon="-6.3179320">
        <ele>93.4</ele>
        <time>2021-07-21T12:33:33Z</time>
      </trkpt>
      <trkpt lat="43.5509620" lon="-6.3179780">
        <ele>93.4</ele>
        <time>2021-07-21T12:33:34Z</time>
      </trkpt>
      <trkpt lat="43.5509970" lon="-6.3180220">
        <ele>93.4</ele>
        <time>2021-07-21T12:33:35Z</time>
      </trkpt>
      <trkpt lat="43.5512730" lon="-6.3183370">
        <ele>93.4</ele>
        <time>2021-07-21T12:33:42Z</time>
      </trkpt>
      <trkpt lat="43.5513070" lon="-6.3183830">
        <ele>93.4</ele>
        <time>2021-07-21T12:33:43Z</time>
      </trkpt>
      <trkpt lat="43.5513910" lon="-6.3185480">
        <ele>93.4</ele>
        <time>2021-07-21T12:33:46Z</time>
      </trkpt>
      <trkpt lat="43.5514110" lon="-6.3186130">
        <ele>93.4</ele>
        <time>2021-07-21T12:33:47Z</time>
      </trkpt>
      <trkpt lat="43.5514240" lon="-6.3186830">
        <ele>93.4</ele>
        <time>2021-07-21T12:33:48Z</time>
      </trkpt>
      <trkpt lat="43.5514390" lon="-6.3188800">
        <ele>93.4</ele>
        <time>2021-07-21T12:33:51Z</time>
      </trkpt>
      <trkpt lat="43.5513890" lon="-6.3191080">
        <ele>93.4</ele>
        <time>2021-07-21T12:33:55Z</time>
      </trkpt>
      <trkpt lat="43.5513590" lon="-6.3191540">
        <ele>93.4</ele>
        <time>2021-07-21T12:33:56Z</time>
      </trkpt>
      <trkpt lat="43.5511580" lon="-6.3193080">
        <ele>93.4</ele>
        <time>2021-07-21T12:34:01Z</time>
      </trkpt>
      <trkpt lat="43.5511090" lon="-6.3193270">
        <ele>93.4</ele>
        <time>2021-07-21T12:34:02Z</time>
      </trkpt>
      <trkpt lat="43.5510620" lon="-6.3193410">
        <ele>93.4</ele>
        <time>2021-07-21T12:34:03Z</time>
      </trkpt>
      <trkpt lat="43.5508450" lon="-6.3193640">
        <ele>93.4</ele>
        <time>2021-07-21T12:34:07Z</time>
      </trkpt>
      <trkpt lat="43.5507010" lon="-6.3193740">
        <ele>93.4</ele>
        <time>2021-07-21T12:34:10Z</time>
      </trkpt>
      <trkpt lat="43.5505110" lon="-6.3193910">
        <ele>93.4</ele>
        <time>2021-07-21T12:34:14Z</time>
      </trkpt>
      <trkpt lat="43.5502070" lon="-6.3194430">
        <ele>93.4</ele>
        <time>2021-07-21T12:34:20Z</time>
      </trkpt>
      <trkpt lat="43.5501620" lon="-6.3194690">
        <ele>93.4</ele>
        <time>2021-07-21T12:34:21Z</time>
      </trkpt>
      <trkpt lat="43.5500820" lon="-6.3195540">
        <ele>93.4</ele>
        <time>2021-07-21T12:34:23Z</time>
      </trkpt>
      <trkpt lat="43.5500290" lon="-6.3196830">
        <ele>93.4</ele>
        <time>2021-07-21T12:34:25Z</time>
      </trkpt>
      <trkpt lat="43.5500320" lon="-6.3199770">
        <ele>93.4</ele>
        <time>2021-07-21T12:34:29Z</time>
      </trkpt>
      <trkpt lat="43.5501760" lon="-6.3201980">
        <ele>93.4</ele>
        <time>2021-07-21T12:34:33Z</time>
      </trkpt>
      <trkpt lat="43.5503580" lon="-6.3202820">
        <ele>93.4</ele>
        <time>2021-07-21T12:34:37Z</time>
      </trkpt>
      <trkpt lat="43.5504030" lon="-6.3202970">
        <ele>93.4</ele>
        <time>2021-07-21T12:34:38Z</time>
      </trkpt>
      <trkpt lat="43.5505430" lon="-6.3203450">
        <ele>93.4</ele>
        <time>2021-07-21T12:34:41Z</time>
      </trkpt>
      <trkpt lat="43.5506600" lon="-6.3204500">
        <ele>93.4</ele>
        <time>2021-07-21T12:34:44Z</time>
      </trkpt>
      <trkpt lat="43.5507340" lon="-6.3206910">
        <ele>93.4</ele>
        <time>2021-07-21T12:34:48Z</time>
      </trkpt>
      <trkpt lat="43.5507280" lon="-6.3208720">
        <ele>93.4</ele>
        <time>2021-07-21T12:34:51Z</time>
      </trkpt>
      <trkpt lat="43.5507080" lon="-6.3209980">
        <ele>93.4</ele>
        <time>2021-07-21T12:34:53Z</time>
      </trkpt>
      <trkpt lat="43.5506210" lon="-6.3213260">
        <ele>93.4</ele>
        <time>2021-07-21T12:34:58Z</time>
      </trkpt>
      <trkpt lat="43.5505930" lon="-6.3214590">
        <ele>93.4</ele>
        <time>2021-07-21T12:35:00Z</time>
      </trkpt>
      <trkpt lat="43.5505290" lon="-6.3217180">
        <ele>93.4</ele>
        <time>2021-07-21T12:35:04Z</time>
      </trkpt>
      <trkpt lat="43.5504170" lon="-6.3221790">
        <ele>93.4</ele>
        <time>2021-07-21T12:35:11Z</time>
      </trkpt>
      <trkpt lat="43.5503080" lon="-6.3226630">
        <ele>93.4</ele>
        <time>2021-07-21T12:35:18Z</time>
      </trkpt>
      <trkpt lat="43.5502350" lon="-6.3230320">
        <ele>93.4</ele>
        <time>2021-07-21T12:35:24Z</time>
      </trkpt>
      <trkpt lat="43.5502290" lon="-6.3230910">
        <ele>93.4</ele>
        <time>2021-07-21T12:35:25Z</time>
      </trkpt>
      <trkpt lat="43.5501810" lon="-6.3233090">
        <ele>93.4</ele>
        <time>2021-07-21T12:35:29Z</time>
      </trkpt>
      <trkpt lat="43.5501640" lon="-6.3233630">
        <ele>93.8</ele>
        <time>2021-07-21T12:35:30Z</time>
      </trkpt>
      <trkpt lat="43.5501430" lon="-6.3234150">
        <ele>94.2</ele>
        <time>2021-07-21T12:35:31Z</time>
      </trkpt>
      <trkpt lat="43.5501250" lon="-6.3234620">
        <ele>94.6</ele>
        <time>2021-07-21T12:35:32Z</time>
      </trkpt>
      <trkpt lat="43.5501060" lon="-6.3235130">
        <ele>95.0</ele>
        <time>2021-07-21T12:35:33Z</time>
      </trkpt>
      <trkpt lat="43.5500830" lon="-6.3235650">
        <ele>95.4</ele>
        <time>2021-07-21T12:35:34Z</time>
      </trkpt>
      <trkpt lat="43.5500550" lon="-6.3236170">
        <ele>95.4</ele>
        <time>2021-07-21T12:35:35Z</time>
      </trkpt>
      <trkpt lat="43.5499140" lon="-6.3239310">
        <ele>95.4</ele>
        <time>2021-07-21T12:35:40Z</time>
      </trkpt>
      <trkpt lat="43.5498980" lon="-6.3240040">
        <ele>95.4</ele>
        <time>2021-07-21T12:35:41Z</time>
      </trkpt>
      <trkpt lat="43.5499030" lon="-6.3243010">
        <ele>95.4</ele>
        <time>2021-07-21T12:35:45Z</time>
      </trkpt>
      <trkpt lat="43.5500220" lon="-6.3244960">
        <ele>95.4</ele>
        <time>2021-07-21T12:35:49Z</time>
      </trkpt>
      <trkpt lat="43.5500990" lon="-6.3245460">
        <ele>95.4</ele>
        <time>2021-07-21T12:35:51Z</time>
      </trkpt>
      <trkpt lat="43.5501860" lon="-6.3245810">
        <ele>95.4</ele>
        <time>2021-07-21T12:35:53Z</time>
      </trkpt>
      <trkpt lat="43.5502350" lon="-6.3245890">
        <ele>95.4</ele>
        <time>2021-07-21T12:35:54Z</time>
      </trkpt>
      <trkpt lat="43.5503760" lon="-6.3246050">
        <ele>95.4</ele>
        <time>2021-07-21T12:35:57Z</time>
      </trkpt>
      <trkpt lat="43.5504690" lon="-6.3246230">
        <ele>95.4</ele>
        <time>2021-07-21T12:35:59Z</time>
      </trkpt>
      <trkpt lat="43.5505250" lon="-6.3246410">
        <ele>95.4</ele>
        <time>2021-07-21T12:36:00Z</time>
      </trkpt>
      <trkpt lat="43.5505830" lon="-6.3246670">
        <ele>95.4</ele>
        <time>2021-07-21T12:36:01Z</time>
      </trkpt>
      <trkpt lat="43.5507580" lon="-6.3247800">
        <ele>95.4</ele>
        <time>2021-07-21T12:36:04Z</time>
      </trkpt>
      <trkpt lat="43.5508030" lon="-6.3248330">
        <ele>95.4</ele>
        <time>2021-07-21T12:36:05Z</time>
      </trkpt>
      <trkpt lat="43.5508800" lon="-6.3249690">
        <ele>95.4</ele>
        <time>2021-07-21T12:36:07Z</time>
      </trkpt>
      <trkpt lat="43.5509170" lon="-6.3250460">
        <ele>95.4</ele>
        <time>2021-07-21T12:36:08Z</time>
      </trkpt>
      <trkpt lat="43.5509500" lon="-6.3251210">
        <ele>95.0</ele>
        <time>2021-07-21T12:36:09Z</time>
      </trkpt>
      <trkpt lat="43.5509820" lon="-6.3251950">
        <ele>94.6</ele>
        <time>2021-07-21T12:36:10Z</time>
      </trkpt>
      <trkpt lat="43.5510080" lon="-6.3252700">
        <ele>94.0</ele>
        <time>2021-07-21T12:36:11Z</time>
      </trkpt>
      <trkpt lat="43.5510290" lon="-6.3253490">
        <ele>93.6</ele>
        <time>2021-07-21T12:36:12Z</time>
      </trkpt>
      <trkpt lat="43.5510460" lon="-6.3254300">
        <ele>93.2</ele>
        <time>2021-07-21T12:36:13Z</time>
      </trkpt>
      <trkpt lat="43.5510640" lon="-6.3255910">
        <ele>93.2</ele>
        <time>2021-07-21T12:36:15Z</time>
      </trkpt>
      <trkpt lat="43.5510500" lon="-6.3258300">
        <ele>93.2</ele>
        <time>2021-07-21T12:36:18Z</time>
      </trkpt>
      <trkpt lat="43.5510250" lon="-6.3259730">
        <ele>93.2</ele>
        <time>2021-07-21T12:36:20Z</time>
      </trkpt>
      <trkpt lat="43.5510090" lon="-6.3260450">
        <ele>93.2</ele>
        <time>2021-07-21T12:36:21Z</time>
      </trkpt>
      <trkpt lat="43.5509710" lon="-6.3261820">
        <ele>93.2</ele>
        <time>2021-07-21T12:36:23Z</time>
      </trkpt>
      <trkpt lat="43.5509460" lon="-6.3262480">
        <ele>93.2</ele>
        <time>2021-07-21T12:36:24Z</time>
      </trkpt>
      <trkpt lat="43.5509160" lon="-6.3263150">
        <ele>93.2</ele>
        <time>2021-07-21T12:36:25Z</time>
      </trkpt>
      <trkpt lat="43.5508870" lon="-6.3263780">
        <ele>93.2</ele>
        <time>2021-07-21T12:36:26Z</time>
      </trkpt>
      <trkpt lat="43.5508520" lon="-6.3264420">
        <ele>92.8</ele>
        <time>2021-07-21T12:36:27Z</time>
      </trkpt>
      <trkpt lat="43.5508150" lon="-6.3265090">
        <ele>92.2</ele>
        <time>2021-07-21T12:36:28Z</time>
      </trkpt>
      <trkpt lat="43.5507770" lon="-6.3265780">
        <ele>91.8</ele>
        <time>2021-07-21T12:36:29Z</time>
      </trkpt>
      <trkpt lat="43.5507390" lon="-6.3266490">
        <ele>91.4</ele>
        <time>2021-07-21T12:36:30Z</time>
      </trkpt>
      <trkpt lat="43.5507020" lon="-6.3267200">
        <ele>91.0</ele>
        <time>2021-07-21T12:36:31Z</time>
      </trkpt>
      <trkpt lat="43.5506630" lon="-6.3267900">
        <ele>91.0</ele>
        <time>2021-07-21T12:36:32Z</time>
      </trkpt>
      <trkpt lat="43.5505480" lon="-6.3270040">
        <ele>91.0</ele>
        <time>2021-07-21T12:36:35Z</time>
      </trkpt>
      <trkpt lat="43.5504210" lon="-6.3272850">
        <ele>91.0</ele>
        <time>2021-07-21T12:36:39Z</time>
      </trkpt>
      <trkpt lat="43.5503960" lon="-6.3273580">
        <ele>91.0</ele>
        <time>2021-07-21T12:36:40Z</time>
      </trkpt>
      <trkpt lat="43.5503560" lon="-6.3274940">
        <ele>91.0</ele>
        <time>2021-07-21T12:36:42Z</time>
      </trkpt>
      <trkpt lat="43.5503370" lon="-6.3275580">
        <ele>90.6</ele>
        <time>2021-07-21T12:36:43Z</time>
      </trkpt>
      <trkpt lat="43.5503180" lon="-6.3276190">
        <ele>89.8</ele>
        <time>2021-07-21T12:36:44Z</time>
      </trkpt>
      <trkpt lat="43.5502970" lon="-6.3276800">
        <ele>89.2</ele>
        <time>2021-07-21T12:36:45Z</time>
      </trkpt>
      <trkpt lat="43.5502770" lon="-6.3277420">
        <ele>88.8</ele>
        <time>2021-07-21T12:36:46Z</time>
      </trkpt>
      <trkpt lat="43.5502580" lon="-6.3278050">
        <ele>88.8</ele>
        <time>2021-07-21T12:36:47Z</time>
      </trkpt>
      <trkpt lat="43.5502370" lon="-6.3278710">
        <ele>88.8</ele>
        <time>2021-07-21T12:36:48Z</time>
      </trkpt>
      <trkpt lat="43.5502030" lon="-6.3280080">
        <ele>88.8</ele>
        <time>2021-07-21T12:36:50Z</time>
      </trkpt>
      <trkpt lat="43.5501890" lon="-6.3280770">
        <ele>88.8</ele>
        <time>2021-07-21T12:36:51Z</time>
      </trkpt>
      <trkpt lat="43.5501650" lon="-6.3282140">
        <ele>88.8</ele>
        <time>2021-07-21T12:36:53Z</time>
      </trkpt>
      <trkpt lat="43.5501520" lon="-6.3285050">
        <ele>88.8</ele>
        <time>2021-07-21T12:36:57Z</time>
      </trkpt>
      <trkpt lat="43.5501720" lon="-6.3286500">
        <ele>88.8</ele>
        <time>2021-07-21T12:36:59Z</time>
      </trkpt>
      <trkpt lat="43.5502650" lon="-6.3288160">
        <ele>88.8</ele>
        <time>2021-07-21T12:37:02Z</time>
      </trkpt>
      <trkpt lat="43.5503440" lon="-6.3288950">
        <ele>88.8</ele>
        <time>2021-07-21T12:37:04Z</time>
      </trkpt>
      <trkpt lat="43.5504630" lon="-6.3289980">
        <ele>88.8</ele>
        <time>2021-07-21T12:37:07Z</time>
      </trkpt>
      <trkpt lat="43.5505040" lon="-6.3290300">
        <ele>88.8</ele>
        <time>2021-07-21T12:37:08Z</time>
      </trkpt>
      <trkpt lat="43.5506200" lon="-6.3291300">
        <ele>88.8</ele>
        <time>2021-07-21T12:37:11Z</time>
      </trkpt>
      <trkpt lat="43.5506560" lon="-6.3291640">
        <ele>88.8</ele>
        <time>2021-07-21T12:37:12Z</time>
      </trkpt>
      <trkpt lat="43.5507640" lon="-6.3292650">
        <ele>88.8</ele>
        <time>2021-07-21T12:37:15Z</time>
      </trkpt>
      <trkpt lat="43.5508010" lon="-6.3292960">
        <ele>89.4</ele>
        <time>2021-07-21T12:37:16Z</time>
      </trkpt>
      <trkpt lat="43.5508380" lon="-6.3293270">
        <ele>89.8</ele>
        <time>2021-07-21T12:37:17Z</time>
      </trkpt>
      <trkpt lat="43.5508770" lon="-6.3293620">
        <ele>90.2</ele>
        <time>2021-07-21T12:37:18Z</time>
      </trkpt>
      <trkpt lat="43.5509130" lon="-6.3293950">
        <ele>90.6</ele>
        <time>2021-07-21T12:37:19Z</time>
      </trkpt>
      <trkpt lat="43.5509490" lon="-6.3294300">
        <ele>91.0</ele>
        <time>2021-07-21T12:37:20Z</time>
      </trkpt>
      <trkpt lat="43.5510610" lon="-6.3295270">
        <ele>91.0</ele>
        <time>2021-07-21T12:37:23Z</time>
      </trkpt>
      <trkpt lat="43.5513970" lon="-6.3298220">
        <ele>91.0</ele>
        <time>2021-07-21T12:37:32Z</time>
      </trkpt>
      <trkpt lat="43.5515330" lon="-6.3299530">
        <ele>91.0</ele>
        <time>2021-07-21T12:37:36Z</time>
      </trkpt>
      <trkpt lat="43.5516140" lon="-6.3300810">
        <ele>91.0</ele>
        <time>2021-07-21T12:37:39Z</time>
      </trkpt>
      <trkpt lat="43.5516610" lon="-6.3301920">
        <ele>91.0</ele>
        <time>2021-07-21T12:37:41Z</time>
      </trkpt>
      <trkpt lat="43.5516980" lon="-6.3303260">
        <ele>91.0</ele>
        <time>2021-07-21T12:37:43Z</time>
      </trkpt>
      <trkpt lat="43.5517170" lon="-6.3303940">
        <ele>91.0</ele>
        <time>2021-07-21T12:37:44Z</time>
      </trkpt>
      <trkpt lat="43.5517360" lon="-6.3304660">
        <ele>90.6</ele>
        <time>2021-07-21T12:37:45Z</time>
      </trkpt>
      <trkpt lat="43.5517530" lon="-6.3305410">
        <ele>90.2</ele>
        <time>2021-07-21T12:37:46Z</time>
      </trkpt>
      <trkpt lat="43.5517710" lon="-6.3306150">
        <ele>89.8</ele>
        <time>2021-07-21T12:37:47Z</time>
      </trkpt>
      <trkpt lat="43.5517920" lon="-6.3306940">
        <ele>89.4</ele>
        <time>2021-07-21T12:37:48Z</time>
      </trkpt>
      <trkpt lat="43.5518120" lon="-6.3307690">
        <ele>89.0</ele>
        <time>2021-07-21T12:37:49Z</time>
      </trkpt>
      <trkpt lat="43.5518500" lon="-6.3309170">
        <ele>89.0</ele>
        <time>2021-07-21T12:37:51Z</time>
      </trkpt>
      <trkpt lat="43.5518880" lon="-6.3310590">
        <ele>89.0</ele>
        <time>2021-07-21T12:37:53Z</time>
      </trkpt>
      <trkpt lat="43.5519050" lon="-6.3311250">
        <ele>89.0</ele>
        <time>2021-07-21T12:37:54Z</time>
      </trkpt>
      <trkpt lat="43.5519370" lon="-6.3312520">
        <ele>89.0</ele>
        <time>2021-07-21T12:37:56Z</time>
      </trkpt>
      <trkpt lat="43.5520020" lon="-6.3314820">
        <ele>89.0</ele>
        <time>2021-07-21T12:38:00Z</time>
      </trkpt>
      <trkpt lat="43.5520350" lon="-6.3316020">
        <ele>89.0</ele>
        <time>2021-07-21T12:38:02Z</time>
      </trkpt>
      <trkpt lat="43.5520820" lon="-6.3317840">
        <ele>89.0</ele>
        <time>2021-07-21T12:38:05Z</time>
      </trkpt>
      <trkpt lat="43.5521220" lon="-6.3319410">
        <ele>89.0</ele>
        <time>2021-07-21T12:38:08Z</time>
      </trkpt>
      <trkpt lat="43.5522060" lon="-6.3322630">
        <ele>89.0</ele>
        <time>2021-07-21T12:38:14Z</time>
      </trkpt>
      <trkpt lat="43.5522210" lon="-6.3323210">
        <ele>89.0</ele>
        <time>2021-07-21T12:38:15Z</time>
      </trkpt>
      <trkpt lat="43.5522490" lon="-6.3324390">
        <ele>89.0</ele>
        <time>2021-07-21T12:38:17Z</time>
      </trkpt>
      <trkpt lat="43.5523110" lon="-6.3327390">
        <ele>89.0</ele>
        <time>2021-07-21T12:38:22Z</time>
      </trkpt>
      <trkpt lat="43.5523420" lon="-6.3329110">
        <ele>89.0</ele>
        <time>2021-07-21T12:38:25Z</time>
      </trkpt>
      <trkpt lat="43.5523900" lon="-6.3333380">
        <ele>89.0</ele>
        <time>2021-07-21T12:38:32Z</time>
      </trkpt>
      <trkpt lat="43.5524010" lon="-6.3335330">
        <ele>89.0</ele>
        <time>2021-07-21T12:38:35Z</time>
      </trkpt>
      <trkpt lat="43.5523870" lon="-6.3337900">
        <ele>89.0</ele>
        <time>2021-07-21T12:38:39Z</time>
      </trkpt>
      <trkpt lat="43.5523080" lon="-6.3343760">
        <ele>89.0</ele>
        <time>2021-07-21T12:38:48Z</time>
      </trkpt>
      <trkpt lat="43.5522250" lon="-6.3350370">
        <ele>89.0</ele>
        <time>2021-07-21T12:38:58Z</time>
      </trkpt>
      <trkpt lat="43.5522160" lon="-6.3353470">
        <ele>89.0</ele>
        <time>2021-07-21T12:39:03Z</time>
      </trkpt>
      <trkpt lat="43.5522070" lon="-6.3354580">
        <ele>89.0</ele>
        <time>2021-07-21T12:39:05Z</time>
      </trkpt>
      <trkpt lat="43.5521800" lon="-6.3358620">
        <ele>89.0</ele>
        <time>2021-07-21T12:39:12Z</time>
      </trkpt>
      <trkpt lat="43.5521520" lon="-6.3363540">
        <ele>89.0</ele>
        <time>2021-07-21T12:39:20Z</time>
      </trkpt>
      <trkpt lat="43.5521410" lon="-6.3366810">
        <ele>89.0</ele>
        <time>2021-07-21T12:39:25Z</time>
      </trkpt>
      <trkpt lat="43.5521350" lon="-6.3368720">
        <ele>89.0</ele>
        <time>2021-07-21T12:39:28Z</time>
      </trkpt>
      <trkpt lat="43.5520620" lon="-6.3373150">
        <ele>89.0</ele>
        <time>2021-07-21T12:39:35Z</time>
      </trkpt>
      <trkpt lat="43.5520430" lon="-6.3373750">
        <ele>88.6</ele>
        <time>2021-07-21T12:39:36Z</time>
      </trkpt>
      <trkpt lat="43.5520210" lon="-6.3374350">
        <ele>87.8</ele>
        <time>2021-07-21T12:39:37Z</time>
      </trkpt>
      <trkpt lat="43.5519960" lon="-6.3374930">
        <ele>87.2</ele>
        <time>2021-07-21T12:39:38Z</time>
      </trkpt>
      <trkpt lat="43.5519670" lon="-6.3375490">
        <ele>86.8</ele>
        <time>2021-07-21T12:39:39Z</time>
      </trkpt>
      <trkpt lat="43.5519290" lon="-6.3376000">
        <ele>86.8</ele>
        <time>2021-07-21T12:39:40Z</time>
      </trkpt>
      <trkpt lat="43.5518890" lon="-6.3376450">
        <ele>86.8</ele>
        <time>2021-07-21T12:39:41Z</time>
      </trkpt>
      <trkpt lat="43.5517950" lon="-6.3377110">
        <ele>86.8</ele>
        <time>2021-07-21T12:39:43Z</time>
      </trkpt>
      <trkpt lat="43.5516930" lon="-6.3377400">
        <ele>86.8</ele>
        <time>2021-07-21T12:39:45Z</time>
      </trkpt>
      <trkpt lat="43.5515210" lon="-6.3377080">
        <ele>86.8</ele>
        <time>2021-07-21T12:39:48Z</time>
      </trkpt>
      <trkpt lat="43.5514660" lon="-6.3376840">
        <ele>86.8</ele>
        <time>2021-07-21T12:39:49Z</time>
      </trkpt>
      <trkpt lat="43.5513590" lon="-6.3376150">
        <ele>86.4</ele>
        <time>2021-07-21T12:39:51Z</time>
      </trkpt>
      <trkpt lat="43.5513100" lon="-6.3375660">
        <ele>86.0</ele>
        <time>2021-07-21T12:39:52Z</time>
      </trkpt>
      <trkpt lat="43.5512640" lon="-6.3375050">
        <ele>85.6</ele>
        <time>2021-07-21T12:39:53Z</time>
      </trkpt>
      <trkpt lat="43.5512190" lon="-6.3374340">
        <ele>85.2</ele>
        <time>2021-07-21T12:39:54Z</time>
      </trkpt>
      <trkpt lat="43.5511700" lon="-6.3373510">
        <ele>84.8</ele>
        <time>2021-07-21T12:39:55Z</time>
      </trkpt>
      <trkpt lat="43.5510710" lon="-6.3371880">
        <ele>84.4</ele>
        <time>2021-07-21T12:39:57Z</time>
      </trkpt>
      <trkpt lat="43.5510220" lon="-6.3371030">
        <ele>84.0</ele>
        <time>2021-07-21T12:39:58Z</time>
      </trkpt>
      <trkpt lat="43.5509740" lon="-6.3370190">
        <ele>83.6</ele>
        <time>2021-07-21T12:39:59Z</time>
      </trkpt>
      <trkpt lat="43.5509240" lon="-6.3369400">
        <ele>83.0</ele>
        <time>2021-07-21T12:40:00Z</time>
      </trkpt>
      <trkpt lat="43.5508710" lon="-6.3368710">
        <ele>82.4</ele>
        <time>2021-07-21T12:40:01Z</time>
      </trkpt>
      <trkpt lat="43.5508140" lon="-6.3368090">
        <ele>81.2</ele>
        <time>2021-07-21T12:40:02Z</time>
      </trkpt>
      <trkpt lat="43.5507450" lon="-6.3367550">
        <ele>80.6</ele>
        <time>2021-07-21T12:40:03Z</time>
      </trkpt>
      <trkpt lat="43.5506730" lon="-6.3367150">
        <ele>80.0</ele>
        <time>2021-07-21T12:40:04Z</time>
      </trkpt>
      <trkpt lat="43.5506030" lon="-6.3366770">
        <ele>79.4</ele>
        <time>2021-07-21T12:40:05Z</time>
      </trkpt>
      <trkpt lat="43.5505320" lon="-6.3366390">
        <ele>78.8</ele>
        <time>2021-07-21T12:40:06Z</time>
      </trkpt>
      <trkpt lat="43.5504660" lon="-6.3365970">
        <ele>78.4</ele>
        <time>2021-07-21T12:40:07Z</time>
      </trkpt>
      <trkpt lat="43.5504040" lon="-6.3365530">
        <ele>77.8</ele>
        <time>2021-07-21T12:40:08Z</time>
      </trkpt>
      <trkpt lat="43.5503450" lon="-6.3365090">
        <ele>77.4</ele>
        <time>2021-07-21T12:40:09Z</time>
      </trkpt>
      <trkpt lat="43.5502830" lon="-6.3364690">
        <ele>76.8</ele>
        <time>2021-07-21T12:40:10Z</time>
      </trkpt>
      <trkpt lat="43.5502170" lon="-6.3364390">
        <ele>76.4</ele>
        <time>2021-07-21T12:40:11Z</time>
      </trkpt>
      <trkpt lat="43.5501460" lon="-6.3364170">
        <ele>75.8</ele>
        <time>2021-07-21T12:40:12Z</time>
      </trkpt>
      <trkpt lat="43.5500710" lon="-6.3364070">
        <ele>75.4</ele>
        <time>2021-07-21T12:40:13Z</time>
      </trkpt>
      <trkpt lat="43.5499880" lon="-6.3364050">
        <ele>74.8</ele>
        <time>2021-07-21T12:40:14Z</time>
      </trkpt>
      <trkpt lat="43.5499090" lon="-6.3364070">
        <ele>74.4</ele>
        <time>2021-07-21T12:40:15Z</time>
      </trkpt>
      <trkpt lat="43.5498290" lon="-6.3364030">
        <ele>73.8</ele>
        <time>2021-07-21T12:40:16Z</time>
      </trkpt>
      <trkpt lat="43.5497510" lon="-6.3363940">
        <ele>73.4</ele>
        <time>2021-07-21T12:40:17Z</time>
      </trkpt>
      <trkpt lat="43.5496710" lon="-6.3363790">
        <ele>73.0</ele>
        <time>2021-07-21T12:40:18Z</time>
      </trkpt>
      <trkpt lat="43.5495970" lon="-6.3363650">
        <ele>72.6</ele>
        <time>2021-07-21T12:40:19Z</time>
      </trkpt>
      <trkpt lat="43.5495200" lon="-6.3363470">
        <ele>72.2</ele>
        <time>2021-07-21T12:40:20Z</time>
      </trkpt>
      <trkpt lat="43.5494420" lon="-6.3363240">
        <ele>71.8</ele>
        <time>2021-07-21T12:40:21Z</time>
      </trkpt>
      <trkpt lat="43.5493610" lon="-6.3362970">
        <ele>71.2</ele>
        <time>2021-07-21T12:40:22Z</time>
      </trkpt>
      <trkpt lat="43.5492770" lon="-6.3362650">
        <ele>70.8</ele>
        <time>2021-07-21T12:40:23Z</time>
      </trkpt>
      <trkpt lat="43.5491900" lon="-6.3362390">
        <ele>70.2</ele>
        <time>2021-07-21T12:40:24Z</time>
      </trkpt>
      <trkpt lat="43.5491030" lon="-6.3362180">
        <ele>69.8</ele>
        <time>2021-07-21T12:40:25Z</time>
      </trkpt>
      <trkpt lat="43.5490140" lon="-6.3361960">
        <ele>69.2</ele>
        <time>2021-07-21T12:40:26Z</time>
      </trkpt>
      <trkpt lat="43.5489330" lon="-6.3361710">
        <ele>68.2</ele>
        <time>2021-07-21T12:40:27Z</time>
      </trkpt>
      <trkpt lat="43.5488540" lon="-6.3361450">
        <ele>67.8</ele>
        <time>2021-07-21T12:40:28Z</time>
      </trkpt>
      <trkpt lat="43.5487800" lon="-6.3361160">
        <ele>67.0</ele>
        <time>2021-07-21T12:40:29Z</time>
      </trkpt>
      <trkpt lat="43.5487050" lon="-6.3360860">
        <ele>66.4</ele>
        <time>2021-07-21T12:40:30Z</time>
      </trkpt>
      <trkpt lat="43.5486310" lon="-6.3360500">
        <ele>65.8</ele>
        <time>2021-07-21T12:40:31Z</time>
      </trkpt>
      <trkpt lat="43.5485570" lon="-6.3360180">
        <ele>65.2</ele>
        <time>2021-07-21T12:40:32Z</time>
      </trkpt>
      <trkpt lat="43.5484830" lon="-6.3359860">
        <ele>64.8</ele>
        <time>2021-07-21T12:40:33Z</time>
      </trkpt>
      <trkpt lat="43.5484150" lon="-6.3359670">
        <ele>64.2</ele>
        <time>2021-07-21T12:40:34Z</time>
      </trkpt>
      <trkpt lat="43.5483490" lon="-6.3359520">
        <ele>63.6</ele>
        <time>2021-07-21T12:40:35Z</time>
      </trkpt>
      <trkpt lat="43.5482810" lon="-6.3359360">
        <ele>63.0</ele>
        <time>2021-07-21T12:40:36Z</time>
      </trkpt>
      <trkpt lat="43.5482070" lon="-6.3359120">
        <ele>62.4</ele>
        <time>2021-07-21T12:40:37Z</time>
      </trkpt>
      <trkpt lat="43.5481230" lon="-6.3358880">
        <ele>62.0</ele>
        <time>2021-07-21T12:40:38Z</time>
      </trkpt>
      <trkpt lat="43.5480330" lon="-6.3358510">
        <ele>61.6</ele>
        <time>2021-07-21T12:40:39Z</time>
      </trkpt>
      <trkpt lat="43.5479390" lon="-6.3358080">
        <ele>61.2</ele>
        <time>2021-07-21T12:40:40Z</time>
      </trkpt>
      <trkpt lat="43.5478490" lon="-6.3357690">
        <ele>60.6</ele>
        <time>2021-07-21T12:40:41Z</time>
      </trkpt>
      <trkpt lat="43.5477600" lon="-6.3357290">
        <ele>60.2</ele>
        <time>2021-07-21T12:40:42Z</time>
      </trkpt>
      <trkpt lat="43.5476710" lon="-6.3356880">
        <ele>59.8</ele>
        <time>2021-07-21T12:40:43Z</time>
      </trkpt>
      <trkpt lat="43.5475830" lon="-6.3356460">
        <ele>59.4</ele>
        <time>2021-07-21T12:40:44Z</time>
      </trkpt>
      <trkpt lat="43.5475020" lon="-6.3356030">
        <ele>59.0</ele>
        <time>2021-07-21T12:40:45Z</time>
      </trkpt>
      <trkpt lat="43.5474250" lon="-6.3355580">
        <ele>58.2</ele>
        <time>2021-07-21T12:40:46Z</time>
      </trkpt>
      <trkpt lat="43.5473480" lon="-6.3355100">
        <ele>57.4</ele>
        <time>2021-07-21T12:40:47Z</time>
      </trkpt>
      <trkpt lat="43.5472730" lon="-6.3354540">
        <ele>56.6</ele>
        <time>2021-07-21T12:40:48Z</time>
      </trkpt>
      <trkpt lat="43.5472110" lon="-6.3353990">
        <ele>56.0</ele>
        <time>2021-07-21T12:40:49Z</time>
      </trkpt>
      <trkpt lat="43.5471530" lon="-6.3353400">
        <ele>55.4</ele>
        <time>2021-07-21T12:40:50Z</time>
      </trkpt>
      <trkpt lat="43.5470980" lon="-6.3352760">
        <ele>54.6</ele>
        <time>2021-07-21T12:40:51Z</time>
      </trkpt>
      <trkpt lat="43.5470420" lon="-6.3352130">
        <ele>53.4</ele>
        <time>2021-07-21T12:40:52Z</time>
      </trkpt>
      <trkpt lat="43.5469860" lon="-6.3351510">
        <ele>52.8</ele>
        <time>2021-07-21T12:40:53Z</time>
      </trkpt>
      <trkpt lat="43.5469300" lon="-6.3350980">
        <ele>52.2</ele>
        <time>2021-07-21T12:40:54Z</time>
      </trkpt>
      <trkpt lat="43.5468730" lon="-6.3350540">
        <ele>51.6</ele>
        <time>2021-07-21T12:40:55Z</time>
      </trkpt>
      <trkpt lat="43.5468100" lon="-6.3350250">
        <ele>50.8</ele>
        <time>2021-07-21T12:40:56Z</time>
      </trkpt>
      <trkpt lat="43.5467360" lon="-6.3350160">
        <ele>50.2</ele>
        <time>2021-07-21T12:40:57Z</time>
      </trkpt>
      <trkpt lat="43.5466620" lon="-6.3350150">
        <ele>49.8</ele>
        <time>2021-07-21T12:40:58Z</time>
      </trkpt>
      <trkpt lat="43.5465880" lon="-6.3350170">
        <ele>49.4</ele>
        <time>2021-07-21T12:40:59Z</time>
      </trkpt>
      <trkpt lat="43.5465170" lon="-6.3350230">
        <ele>49.0</ele>
        <time>2021-07-21T12:41:00Z</time>
      </trkpt>
      <trkpt lat="43.5464490" lon="-6.3350310">
        <ele>48.6</ele>
        <time>2021-07-21T12:41:01Z</time>
      </trkpt>
      <trkpt lat="43.5463830" lon="-6.3350240">
        <ele>48.0</ele>
        <time>2021-07-21T12:41:02Z</time>
      </trkpt>
      <trkpt lat="43.5463100" lon="-6.3350020">
        <ele>47.4</ele>
        <time>2021-07-21T12:41:03Z</time>
      </trkpt>
      <trkpt lat="43.5462400" lon="-6.3349710">
        <ele>46.8</ele>
        <time>2021-07-21T12:41:04Z</time>
      </trkpt>
      <trkpt lat="43.5461840" lon="-6.3349330">
        <ele>46.2</ele>
        <time>2021-07-21T12:41:05Z</time>
      </trkpt>
      <trkpt lat="43.5461290" lon="-6.3348980">
        <ele>45.6</ele>
        <time>2021-07-21T12:41:06Z</time>
      </trkpt>
      <trkpt lat="43.5460820" lon="-6.3348500">
        <ele>45.2</ele>
        <time>2021-07-21T12:41:07Z</time>
      </trkpt>
      <trkpt lat="43.5460350" lon="-6.3347960">
        <ele>44.6</ele>
        <time>2021-07-21T12:41:08Z</time>
      </trkpt>
      <trkpt lat="43.5459900" lon="-6.3347290">
        <ele>44.0</ele>
        <time>2021-07-21T12:41:09Z</time>
      </trkpt>
      <trkpt lat="43.5459470" lon="-6.3346580">
        <ele>43.6</ele>
        <time>2021-07-21T12:41:10Z</time>
      </trkpt>
      <trkpt lat="43.5459010" lon="-6.3345840">
        <ele>43.2</ele>
        <time>2021-07-21T12:41:11Z</time>
      </trkpt>
      <trkpt lat="43.5458530" lon="-6.3344990">
        <ele>42.6</ele>
        <time>2021-07-21T12:41:12Z</time>
      </trkpt>
      <trkpt lat="43.5458060" lon="-6.3344120">
        <ele>42.2</ele>
        <time>2021-07-21T12:41:13Z</time>
      </trkpt>
      <trkpt lat="43.5457510" lon="-6.3343160">
        <ele>41.8</ele>
        <time>2021-07-21T12:41:14Z</time>
      </trkpt>
      <trkpt lat="43.5457000" lon="-6.3342200">
        <ele>41.4</ele>
        <time>2021-07-21T12:41:15Z</time>
      </trkpt>
      <trkpt lat="43.5456440" lon="-6.3341310">
        <ele>41.0</ele>
        <time>2021-07-21T12:41:16Z</time>
      </trkpt>
      <trkpt lat="43.5455870" lon="-6.3340440">
        <ele>40.0</ele>
        <time>2021-07-21T12:41:17Z</time>
      </trkpt>
      <trkpt lat="43.5455270" lon="-6.3339640">
        <ele>39.4</ele>
        <time>2021-07-21T12:41:18Z</time>
      </trkpt>
      <trkpt lat="43.5454590" lon="-6.3338940">
        <ele>38.6</ele>
        <time>2021-07-21T12:41:19Z</time>
      </trkpt>
      <trkpt lat="43.5453890" lon="-6.3338370">
        <ele>37.8</ele>
        <time>2021-07-21T12:41:20Z</time>
      </trkpt>
      <trkpt lat="43.5453170" lon="-6.3337970">
        <ele>37.0</ele>
        <time>2021-07-21T12:41:21Z</time>
      </trkpt>
      <trkpt lat="43.5452450" lon="-6.3337660">
        <ele>36.2</ele>
        <time>2021-07-21T12:41:22Z</time>
      </trkpt>
      <trkpt lat="43.5451790" lon="-6.3337410">
        <ele>35.4</ele>
        <time>2021-07-21T12:41:23Z</time>
      </trkpt>
      <trkpt lat="43.5451160" lon="-6.3337240">
        <ele>34.6</ele>
        <time>2021-07-21T12:41:24Z</time>
      </trkpt>
      <trkpt lat="43.5450580" lon="-6.3337360">
        <ele>33.8</ele>
        <time>2021-07-21T12:41:25Z</time>
      </trkpt>
      <trkpt lat="43.5450030" lon="-6.3337710">
        <ele>33.0</ele>
        <time>2021-07-21T12:41:26Z</time>
      </trkpt>
      <trkpt lat="43.5449600" lon="-6.3338230">
        <ele>32.4</ele>
        <time>2021-07-21T12:41:27Z</time>
      </trkpt>
      <trkpt lat="43.5449300" lon="-6.3338840">
        <ele>31.6</ele>
        <time>2021-07-21T12:41:28Z</time>
      </trkpt>
      <trkpt lat="43.5448800" lon="-6.3340100">
        <ele>31.6</ele>
        <time>2021-07-21T12:41:30Z</time>
      </trkpt>
      <trkpt lat="43.5448360" lon="-6.3341820">
        <ele>31.6</ele>
        <time>2021-07-21T12:41:33Z</time>
      </trkpt>
      <trkpt lat="43.5448390" lon="-6.3342270">
        <ele>31.6</ele>
        <time>2021-07-21T12:41:34Z</time>
      </trkpt>
      <trkpt lat="43.5448660" lon="-6.3343130">
        <ele>31.6</ele>
        <time>2021-07-21T12:41:36Z</time>
      </trkpt>
      <trkpt lat="43.5448840" lon="-6.3343570">
        <ele>31.6</ele>
        <time>2021-07-21T12:41:37Z</time>
      </trkpt>
      <trkpt lat="43.5449060" lon="-6.3343940">
        <ele>31.6</ele>
        <time>2021-07-21T12:41:38Z</time>
      </trkpt>
      <trkpt lat="43.5449490" lon="-6.3344610">
        <ele>31.6</ele>
        <time>2021-07-21T12:41:40Z</time>
      </trkpt>
      <trkpt lat="43.5449730" lon="-6.3344910">
        <ele>31.6</ele>
        <time>2021-07-21T12:41:41Z</time>
      </trkpt>
      <trkpt lat="43.5450220" lon="-6.3345540">
        <ele>31.6</ele>
        <time>2021-07-21T12:41:43Z</time>
      </trkpt>
      <trkpt lat="43.5450640" lon="-6.3346170">
        <ele>31.6</ele>
        <time>2021-07-21T12:41:45Z</time>
      </trkpt>
      <trkpt lat="43.5451170" lon="-6.3347110">
        <ele>31.6</ele>
        <time>2021-07-21T12:41:48Z</time>
      </trkpt>
      <trkpt lat="43.5451570" lon="-6.3348110">
        <ele>31.6</ele>
        <time>2021-07-21T12:41:51Z</time>
      </trkpt>
      <trkpt lat="43.5451680" lon="-6.3348460">
        <ele>31.6</ele>
        <time>2021-07-21T12:41:52Z</time>
      </trkpt>
      <trkpt lat="43.5452220" lon="-6.3350010">
        <ele>31.6</ele>
        <time>2021-07-21T12:41:57Z</time>
      </trkpt>
      <trkpt lat="43.5452340" lon="-6.3350640">
        <ele>31.6</ele>
        <time>2021-07-21T12:41:59Z</time>
      </trkpt>
      <trkpt lat="43.5452650" lon="-6.3352150">
        <ele>32.0</ele>
        <time>2021-07-21T12:42:04Z</time>
      </trkpt>
      <trkpt lat="43.5452680" lon="-6.3352500">
        <ele>32.4</ele>
        <time>2021-07-21T12:42:06Z</time>
      </trkpt>
      <trkpt lat="43.5452700" lon="-6.3352840">
        <ele>32.8</ele>
        <time>2021-07-21T12:42:07Z</time>
      </trkpt>
      <trkpt lat="43.5452710" lon="-6.3353130">
        <ele>33.6</ele>
        <time>2021-07-21T12:42:08Z</time>
      </trkpt>
      <trkpt lat="43.5452640" lon="-6.3354280">
        <ele>33.6</ele>
        <time>2021-07-21T12:42:12Z</time>
      </trkpt>
      <trkpt lat="43.5452740" lon="-6.3355150">
        <ele>34.0</ele>
        <time>2021-07-21T12:42:16Z</time>
      </trkpt>
      <trkpt lat="43.5452790" lon="-6.3355330">
        <ele>34.4</ele>
        <time>2021-07-21T12:42:17Z</time>
      </trkpt>
      <trkpt lat="43.5452870" lon="-6.3355540">
        <ele>34.8</ele>
        <time>2021-07-21T12:42:18Z</time>
      </trkpt>
      <trkpt lat="43.5452970" lon="-6.3355810">
        <ele>35.2</ele>
        <time>2021-07-21T12:42:19Z</time>
      </trkpt>
      <trkpt lat="43.5453060" lon="-6.3356090">
        <ele>35.6</ele>
        <time>2021-07-21T12:42:20Z</time>
      </trkpt>
      <trkpt lat="43.5453660" lon="-6.3357460">
        <ele>35.6</ele>
        <time>2021-07-21T12:42:25Z</time>
      </trkpt>
      <trkpt lat="43.5453980" lon="-6.3358460">
        <ele>36.0</ele>
        <time>2021-07-21T12:42:28Z</time>
      </trkpt>
      <trkpt lat="43.5454070" lon="-6.3358800">
        <ele>36.4</ele>
        <time>2021-07-21T12:42:29Z</time>
      </trkpt>
      <trkpt lat="43.5454170" lon="-6.3359140">
        <ele>36.8</ele>
        <time>2021-07-21T12:42:30Z</time>
      </trkpt>
      <trkpt lat="43.5454260" lon="-6.3359430">
        <ele>37.2</ele>
        <time>2021-07-21T12:42:31Z</time>
      </trkpt>
      <trkpt lat="43.5454360" lon="-6.3359760">
        <ele>37.8</ele>
        <time>2021-07-21T12:42:32Z</time>
      </trkpt>
      <trkpt lat="43.5454490" lon="-6.3360070">
        <ele>37.8</ele>
        <time>2021-07-21T12:42:33Z</time>
      </trkpt>
      <trkpt lat="43.5455180" lon="-6.3362180">
        <ele>37.8</ele>
        <time>2021-07-21T12:42:40Z</time>
      </trkpt>
      <trkpt lat="43.5455380" lon="-6.3362710">
        <ele>38.2</ele>
        <time>2021-07-21T12:42:42Z</time>
      </trkpt>
      <trkpt lat="43.5455470" lon="-6.3362970">
        <ele>38.6</ele>
        <time>2021-07-21T12:42:43Z</time>
      </trkpt>
      <trkpt lat="43.5455580" lon="-6.3363140">
        <ele>39.0</ele>
        <time>2021-07-21T12:42:44Z</time>
      </trkpt>
      <trkpt lat="43.5455690" lon="-6.3363340">
        <ele>39.4</ele>
        <time>2021-07-21T12:42:45Z</time>
      </trkpt>
      <trkpt lat="43.5455820" lon="-6.3363510">
        <ele>39.8</ele>
        <time>2021-07-21T12:42:46Z</time>
      </trkpt>
      <trkpt lat="43.5456880" lon="-6.3364290">
        <ele>39.8</ele>
        <time>2021-07-21T12:42:52Z</time>
      </trkpt>
      <trkpt lat="43.5457250" lon="-6.3364360">
        <ele>40.2</ele>
        <time>2021-07-21T12:42:54Z</time>
      </trkpt>
      <trkpt lat="43.5457420" lon="-6.3364370">
        <ele>40.6</ele>
        <time>2021-07-21T12:42:55Z</time>
      </trkpt>
      <trkpt lat="43.5457600" lon="-6.3364370">
        <ele>41.0</ele>
        <time>2021-07-21T12:42:56Z</time>
      </trkpt>
      <trkpt lat="43.5457780" lon="-6.3364380">
        <ele>41.8</ele>
        <time>2021-07-21T12:42:57Z</time>
      </trkpt>
      <trkpt lat="43.5458250" lon="-6.3364460">
        <ele>41.8</ele>
        <time>2021-07-21T12:43:00Z</time>
      </trkpt>
      <trkpt lat="43.5459280" lon="-6.3364870">
        <ele>42.2</ele>
        <time>2021-07-21T12:43:06Z</time>
      </trkpt>
      <trkpt lat="43.5459460" lon="-6.3364920">
        <ele>42.6</ele>
        <time>2021-07-21T12:43:07Z</time>
      </trkpt>
      <trkpt lat="43.5459650" lon="-6.3364930">
        <ele>43.0</ele>
        <time>2021-07-21T12:43:08Z</time>
      </trkpt>
      <trkpt lat="43.5459840" lon="-6.3364970">
        <ele>43.4</ele>
        <time>2021-07-21T12:43:09Z</time>
      </trkpt>
      <trkpt lat="43.5460010" lon="-6.3365020">
        <ele>43.8</ele>
        <time>2021-07-21T12:43:10Z</time>
      </trkpt>
      <trkpt lat="43.5460750" lon="-6.3365300">
        <ele>43.8</ele>
        <time>2021-07-21T12:43:14Z</time>
      </trkpt>
      <trkpt lat="43.5461570" lon="-6.3365550">
        <ele>44.4</ele>
        <time>2021-07-21T12:43:19Z</time>
      </trkpt>
      <trkpt lat="43.5461810" lon="-6.3365750">
        <ele>44.8</ele>
        <time>2021-07-21T12:43:20Z</time>
      </trkpt>
      <trkpt lat="43.5462040" lon="-6.3365910">
        <ele>45.2</ele>
        <time>2021-07-21T12:43:21Z</time>
      </trkpt>
      <trkpt lat="43.5462220" lon="-6.3366090">
        <ele>46.0</ele>
        <time>2021-07-21T12:43:22Z</time>
      </trkpt>
      <trkpt lat="43.5463100" lon="-6.3367010">
        <ele>46.0</ele>
        <time>2021-07-21T12:43:27Z</time>
      </trkpt>
      <trkpt lat="43.5463850" lon="-6.3368260">
        <ele>46.4</ele>
        <time>2021-07-21T12:43:33Z</time>
      </trkpt>
      <trkpt lat="43.5463960" lon="-6.3368480">
        <ele>46.8</ele>
        <time>2021-07-21T12:43:34Z</time>
      </trkpt>
      <trkpt lat="43.5464050" lon="-6.3368730">
        <ele>47.2</ele>
        <time>2021-07-21T12:43:35Z</time>
      </trkpt>
      <trkpt lat="43.5464130" lon="-6.3369010">
        <ele>47.6</ele>
        <time>2021-07-21T12:43:36Z</time>
      </trkpt>
      <trkpt lat="43.5464240" lon="-6.3369230">
        <ele>48.0</ele>
        <time>2021-07-21T12:43:37Z</time>
      </trkpt>
      <trkpt lat="43.5464640" lon="-6.3369890">
        <ele>48.0</ele>
        <time>2021-07-21T12:43:40Z</time>
      </trkpt>
      <trkpt lat="43.5465550" lon="-6.3370910">
        <ele>48.4</ele>
        <time>2021-07-21T12:43:46Z</time>
      </trkpt>
      <trkpt lat="43.5465710" lon="-6.3370990">
        <ele>48.8</ele>
        <time>2021-07-21T12:43:47Z</time>
      </trkpt>
      <trkpt lat="43.5465900" lon="-6.3371090">
        <ele>49.2</ele>
        <time>2021-07-21T12:43:48Z</time>
      </trkpt>
      <trkpt lat="43.5466090" lon="-6.3371210">
        <ele>49.6</ele>
        <time>2021-07-21T12:43:49Z</time>
      </trkpt>
      <trkpt lat="43.5466320" lon="-6.3371340">
        <ele>50.2</ele>
        <time>2021-07-21T12:43:50Z</time>
      </trkpt>
      <trkpt lat="43.5467010" lon="-6.3371600">
        <ele>50.2</ele>
        <time>2021-07-21T12:43:53Z</time>
      </trkpt>
      <trkpt lat="43.5468100" lon="-6.3372500">
        <ele>50.6</ele>
        <time>2021-07-21T12:43:59Z</time>
      </trkpt>
      <trkpt lat="43.5468290" lon="-6.3372690">
        <ele>51.0</ele>
        <time>2021-07-21T12:44:00Z</time>
      </trkpt>
      <trkpt lat="43.5468500" lon="-6.3372910">
        <ele>51.4</ele>
        <time>2021-07-21T12:44:01Z</time>
      </trkpt>
      <trkpt lat="43.5468710" lon="-6.3373160">
        <ele>51.8</ele>
        <time>2021-07-21T12:44:02Z</time>
      </trkpt>
      <trkpt lat="43.5468920" lon="-6.3373360">
        <ele>52.2</ele>
        <time>2021-07-21T12:44:03Z</time>
      </trkpt>
      <trkpt lat="43.5469320" lon="-6.3373780">
        <ele>52.2</ele>
        <time>2021-07-21T12:44:05Z</time>
      </trkpt>
      <trkpt lat="43.5470160" lon="-6.3374920">
        <ele>52.6</ele>
        <time>2021-07-21T12:44:11Z</time>
      </trkpt>
      <trkpt lat="43.5470330" lon="-6.3375110">
        <ele>53.0</ele>
        <time>2021-07-21T12:44:12Z</time>
      </trkpt>
      <trkpt lat="43.5470500" lon="-6.3375330">
        <ele>53.4</ele>
        <time>2021-07-21T12:44:13Z</time>
      </trkpt>
      <trkpt lat="43.5470670" lon="-6.3375570">
        <ele>53.8</ele>
        <time>2021-07-21T12:44:14Z</time>
      </trkpt>
      <trkpt lat="43.5470810" lon="-6.3375780">
        <ele>54.2</ele>
        <time>2021-07-21T12:44:15Z</time>
      </trkpt>
      <trkpt lat="43.5471630" lon="-6.3377410">
        <ele>54.2</ele>
        <time>2021-07-21T12:44:22Z</time>
      </trkpt>
      <trkpt lat="43.5471790" lon="-6.3377990">
        <ele>54.6</ele>
        <time>2021-07-21T12:44:25Z</time>
      </trkpt>
      <trkpt lat="43.5471840" lon="-6.3378220">
        <ele>55.0</ele>
        <time>2021-07-21T12:44:26Z</time>
      </trkpt>
      <trkpt lat="43.5471880" lon="-6.3378420">
        <ele>55.4</ele>
        <time>2021-07-21T12:44:27Z</time>
      </trkpt>
      <trkpt lat="43.5471900" lon="-6.3378710">
        <ele>55.8</ele>
        <time>2021-07-21T12:44:28Z</time>
      </trkpt>
      <trkpt lat="43.5471910" lon="-6.3378960">
        <ele>56.2</ele>
        <time>2021-07-21T12:44:29Z</time>
      </trkpt>
      <trkpt lat="43.5471780" lon="-6.3380100">
        <ele>56.2</ele>
        <time>2021-07-21T12:44:34Z</time>
      </trkpt>
      <trkpt lat="43.5471550" lon="-6.3380920">
        <ele>56.8</ele>
        <time>2021-07-21T12:44:37Z</time>
      </trkpt>
      <trkpt lat="43.5471450" lon="-6.3381130">
        <ele>57.2</ele>
        <time>2021-07-21T12:44:38Z</time>
      </trkpt>
      <trkpt lat="43.5471340" lon="-6.3381370">
        <ele>57.6</ele>
        <time>2021-07-21T12:44:39Z</time>
      </trkpt>
      <trkpt lat="43.5471220" lon="-6.3381570">
        <ele>58.0</ele>
        <time>2021-07-21T12:44:40Z</time>
      </trkpt>
      <trkpt lat="43.5471090" lon="-6.3381800">
        <ele>58.4</ele>
        <time>2021-07-21T12:44:41Z</time>
      </trkpt>
      <trkpt lat="43.5470500" lon="-6.3383160">
        <ele>58.4</ele>
        <time>2021-07-21T12:44:47Z</time>
      </trkpt>
      <trkpt lat="43.5470070" lon="-6.3384040">
        <ele>58.8</ele>
        <time>2021-07-21T12:44:51Z</time>
      </trkpt>
      <trkpt lat="43.5469940" lon="-6.3384260">
        <ele>59.2</ele>
        <time>2021-07-21T12:44:52Z</time>
      </trkpt>
      <trkpt lat="43.5469820" lon="-6.3384490">
        <ele>59.6</ele>
        <time>2021-07-21T12:44:53Z</time>
      </trkpt>
      <trkpt lat="43.5469730" lon="-6.3384780">
        <ele>60.0</ele>
        <time>2021-07-21T12:44:54Z</time>
      </trkpt>
      <trkpt lat="43.5469580" lon="-6.3385070">
        <ele>60.4</ele>
        <time>2021-07-21T12:44:55Z</time>
      </trkpt>
      <trkpt lat="43.5468990" lon="-6.3386250">
        <ele>60.4</ele>
        <time>2021-07-21T12:45:00Z</time>
      </trkpt>
      <trkpt lat="43.5468530" lon="-6.3387160">
        <ele>61.0</ele>
        <time>2021-07-21T12:45:04Z</time>
      </trkpt>
      <trkpt lat="43.5468420" lon="-6.3387390">
        <ele>61.4</ele>
        <time>2021-07-21T12:45:05Z</time>
      </trkpt>
      <trkpt lat="43.5468310" lon="-6.3387560">
        <ele>61.8</ele>
        <time>2021-07-21T12:45:06Z</time>
      </trkpt>
      <trkpt lat="43.5468200" lon="-6.3387790">
        <ele>62.2</ele>
        <time>2021-07-21T12:45:07Z</time>
      </trkpt>
      <trkpt lat="43.5468080" lon="-6.3388040">
        <ele>62.6</ele>
        <time>2021-07-21T12:45:08Z</time>
      </trkpt>
      <trkpt lat="43.5467330" lon="-6.3389420">
        <ele>62.6</ele>
        <time>2021-07-21T12:45:14Z</time>
      </trkpt>
      <trkpt lat="43.5466600" lon="-6.3390440">
        <ele>63.0</ele>
        <time>2021-07-21T12:45:19Z</time>
      </trkpt>
      <trkpt lat="43.5466490" lon="-6.3390570">
        <ele>63.4</ele>
        <time>2021-07-21T12:45:20Z</time>
      </trkpt>
      <trkpt lat="43.5466350" lon="-6.3390720">
        <ele>63.8</ele>
        <time>2021-07-21T12:45:21Z</time>
      </trkpt>
      <trkpt lat="43.5466160" lon="-6.3390890">
        <ele>64.2</ele>
        <time>2021-07-21T12:45:22Z</time>
      </trkpt>
      <trkpt lat="43.5466000" lon="-6.3391050">
        <ele>64.6</ele>
        <time>2021-07-21T12:45:23Z</time>
      </trkpt>
      <trkpt lat="43.5465020" lon="-6.3391940">
        <ele>64.6</ele>
        <time>2021-07-21T12:45:29Z</time>
      </trkpt>
      <trkpt lat="43.5464330" lon="-6.3392520">
        <ele>65.0</ele>
        <time>2021-07-21T12:45:33Z</time>
      </trkpt>
      <trkpt lat="43.5464150" lon="-6.3392620">
        <ele>65.4</ele>
        <time>2021-07-21T12:45:34Z</time>
      </trkpt>
      <trkpt lat="43.5463990" lon="-6.3392760">
        <ele>65.8</ele>
        <time>2021-07-21T12:45:35Z</time>
      </trkpt>
      <trkpt lat="43.5463850" lon="-6.3392890">
        <ele>66.2</ele>
        <time>2021-07-21T12:45:36Z</time>
      </trkpt>
      <trkpt lat="43.5463710" lon="-6.3393010">
        <ele>66.6</ele>
        <time>2021-07-21T12:45:37Z</time>
      </trkpt>
      <trkpt lat="43.5462580" lon="-6.3393780">
        <ele>66.6</ele>
        <time>2021-07-21T12:45:45Z</time>
      </trkpt>
      <trkpt lat="43.5462420" lon="-6.3393880">
        <ele>67.2</ele>
        <time>2021-07-21T12:45:46Z</time>
      </trkpt>
      <trkpt lat="43.5462250" lon="-6.3393960">
        <ele>67.6</ele>
        <time>2021-07-21T12:45:47Z</time>
      </trkpt>
      <trkpt lat="43.5462090" lon="-6.3394060">
        <ele>68.0</ele>
        <time>2021-07-21T12:45:48Z</time>
      </trkpt>
      <trkpt lat="43.5461950" lon="-6.3394190">
        <ele>68.4</ele>
        <time>2021-07-21T12:45:49Z</time>
      </trkpt>
      <trkpt lat="43.5461800" lon="-6.3394230">
        <ele>68.8</ele>
        <time>2021-07-21T12:45:50Z</time>
      </trkpt>
      <trkpt lat="43.5461220" lon="-6.3394320">
        <ele>68.8</ele>
        <time>2021-07-21T12:45:53Z</time>
      </trkpt>
      <trkpt lat="43.5460500" lon="-6.3394520">
        <ele>69.2</ele>
        <time>2021-07-21T12:45:59Z</time>
      </trkpt>
      <trkpt lat="43.5460340" lon="-6.3394550">
        <ele>69.6</ele>
        <time>2021-07-21T12:46:00Z</time>
      </trkpt>
      <trkpt lat="43.5460170" lon="-6.3394590">
        <ele>70.2</ele>
        <time>2021-07-21T12:46:01Z</time>
      </trkpt>
      <trkpt lat="43.5460020" lon="-6.3394650">
        <ele>70.6</ele>
        <time>2021-07-21T12:46:02Z</time>
      </trkpt>
      <trkpt lat="43.5459840" lon="-6.3394750">
        <ele>71.0</ele>
        <time>2021-07-21T12:46:03Z</time>
      </trkpt>
      <trkpt lat="43.5458940" lon="-6.3395110">
        <ele>71.0</ele>
        <time>2021-07-21T12:46:09Z</time>
      </trkpt>
      <trkpt lat="43.5458010" lon="-6.3395600">
        <ele>71.4</ele>
        <time>2021-07-21T12:46:13Z</time>
      </trkpt>
      <trkpt lat="43.5457920" lon="-6.3395850">
        <ele>72.2</ele>
        <time>2021-07-21T12:46:14Z</time>
      </trkpt>
      <trkpt lat="43.5457780" lon="-6.3396110">
        <ele>72.6</ele>
        <time>2021-07-21T12:46:15Z</time>
      </trkpt>
      <trkpt lat="43.5457640" lon="-6.3396370">
        <ele>73.0</ele>
        <time>2021-07-21T12:46:16Z</time>
      </trkpt>
      <trkpt lat="43.5457110" lon="-6.3398090">
        <ele>73.0</ele>
        <time>2021-07-21T12:46:22Z</time>
      </trkpt>
      <trkpt lat="43.5457120" lon="-6.3400090">
        <ele>73.0</ele>
        <time>2021-07-21T12:46:28Z</time>
      </trkpt>
      <trkpt lat="43.5457230" lon="-6.3400420">
        <ele>73.4</ele>
        <time>2021-07-21T12:46:29Z</time>
      </trkpt>
      <trkpt lat="43.5457330" lon="-6.3400780">
        <ele>73.8</ele>
        <time>2021-07-21T12:46:30Z</time>
      </trkpt>
      <trkpt lat="43.5457520" lon="-6.3401210">
        <ele>74.2</ele>
        <time>2021-07-21T12:46:31Z</time>
      </trkpt>
      <trkpt lat="43.5457660" lon="-6.3401520">
        <ele>74.8</ele>
        <time>2021-07-21T12:46:32Z</time>
      </trkpt>
      <trkpt lat="43.5457850" lon="-6.3401780">
        <ele>75.2</ele>
        <time>2021-07-21T12:46:33Z</time>
      </trkpt>
      <trkpt lat="43.5458060" lon="-6.3401930">
        <ele>75.2</ele>
        <time>2021-07-21T12:46:34Z</time>
      </trkpt>
      <trkpt lat="43.5459340" lon="-6.3402230">
        <ele>75.2</ele>
        <time>2021-07-21T12:46:41Z</time>
      </trkpt>
      <trkpt lat="43.5459470" lon="-6.3402280">
        <ele>75.6</ele>
        <time>2021-07-21T12:46:42Z</time>
      </trkpt>
      <trkpt lat="43.5459570" lon="-6.3402280">
        <ele>76.0</ele>
        <time>2021-07-21T12:46:43Z</time>
      </trkpt>
      <trkpt lat="43.5459650" lon="-6.3402340">
        <ele>76.4</ele>
        <time>2021-07-21T12:46:44Z</time>
      </trkpt>
      <trkpt lat="43.5459780" lon="-6.3402400">
        <ele>76.8</ele>
        <time>2021-07-21T12:46:45Z</time>
      </trkpt>
      <trkpt lat="43.5459900" lon="-6.3402490">
        <ele>77.2</ele>
        <time>2021-07-21T12:46:46Z</time>
      </trkpt>
      <trkpt lat="43.5460040" lon="-6.3402570">
        <ele>77.2</ele>
        <time>2021-07-21T12:46:47Z</time>
      </trkpt>
      <trkpt lat="43.5461660" lon="-6.3402840">
        <ele>77.6</ele>
        <time>2021-07-21T12:46:54Z</time>
      </trkpt>
      <trkpt lat="43.5461850" lon="-6.3403040">
        <ele>78.0</ele>
        <time>2021-07-21T12:46:55Z</time>
      </trkpt>
      <trkpt lat="43.5462020" lon="-6.3403210">
        <ele>78.4</ele>
        <time>2021-07-21T12:46:56Z</time>
      </trkpt>
      <trkpt lat="43.5462180" lon="-6.3403440">
        <ele>78.8</ele>
        <time>2021-07-21T12:46:57Z</time>
      </trkpt>
      <trkpt lat="43.5462360" lon="-6.3403620">
        <ele>79.2</ele>
        <time>2021-07-21T12:46:58Z</time>
      </trkpt>
      <trkpt lat="43.5462930" lon="-6.3404360">
        <ele>79.2</ele>
        <time>2021-07-21T12:47:02Z</time>
      </trkpt>
      <trkpt lat="43.5463460" lon="-6.3405420">
        <ele>79.6</ele>
        <time>2021-07-21T12:47:07Z</time>
      </trkpt>
      <trkpt lat="43.5463540" lon="-6.3405650">
        <ele>80.0</ele>
        <time>2021-07-21T12:47:08Z</time>
      </trkpt>
      <trkpt lat="43.5463620" lon="-6.3405890">
        <ele>80.4</ele>
        <time>2021-07-21T12:47:09Z</time>
      </trkpt>
      <trkpt lat="43.5463680" lon="-6.3406120">
        <ele>80.8</ele>
        <time>2021-07-21T12:47:10Z</time>
      </trkpt>
      <trkpt lat="43.5463740" lon="-6.3406360">
        <ele>81.2</ele>
        <time>2021-07-21T12:47:11Z</time>
      </trkpt>
      <trkpt lat="43.5464100" lon="-6.3407470">
        <ele>81.2</ele>
        <time>2021-07-21T12:47:16Z</time>
      </trkpt>
      <trkpt lat="43.5464420" lon="-6.3408820">
        <ele>81.2</ele>
        <time>2021-07-21T12:47:22Z</time>
      </trkpt>
      <trkpt lat="43.5464520" lon="-6.3409210">
        <ele>81.6</ele>
        <time>2021-07-21T12:47:24Z</time>
      </trkpt>
      <trkpt lat="43.5464540" lon="-6.3409440">
        <ele>82.0</ele>
        <time>2021-07-21T12:47:25Z</time>
      </trkpt>
      <trkpt lat="43.5464550" lon="-6.3409650">
        <ele>82.4</ele>
        <time>2021-07-21T12:47:26Z</time>
      </trkpt>
      <trkpt lat="43.5464560" lon="-6.3409900">
        <ele>83.0</ele>
        <time>2021-07-21T12:47:27Z</time>
      </trkpt>
      <trkpt lat="43.5464560" lon="-6.3410160">
        <ele>83.4</ele>
        <time>2021-07-21T12:47:28Z</time>
      </trkpt>
      <trkpt lat="43.5464390" lon="-6.3411910">
        <ele>83.8</ele>
        <time>2021-07-21T12:47:35Z</time>
      </trkpt>
      <trkpt lat="43.5464330" lon="-6.3412210">
        <ele>84.2</ele>
        <time>2021-07-21T12:47:36Z</time>
      </trkpt>
      <trkpt lat="43.5464250" lon="-6.3412550">
        <ele>84.6</ele>
        <time>2021-07-21T12:47:37Z</time>
      </trkpt>
      <trkpt lat="43.5464180" lon="-6.3412850">
        <ele>85.0</ele>
        <time>2021-07-21T12:47:38Z</time>
      </trkpt>
      <trkpt lat="43.5464090" lon="-6.3413120">
        <ele>85.4</ele>
        <time>2021-07-21T12:47:39Z</time>
      </trkpt>
      <trkpt lat="43.5463870" lon="-6.3413550">
        <ele>85.4</ele>
        <time>2021-07-21T12:47:41Z</time>
      </trkpt>
      <trkpt lat="43.5462920" lon="-6.3415320">
        <ele>85.8</ele>
        <time>2021-07-21T12:47:49Z</time>
      </trkpt>
      <trkpt lat="43.5462770" lon="-6.3415470">
        <ele>86.2</ele>
        <time>2021-07-21T12:47:50Z</time>
      </trkpt>
      <trkpt lat="43.5462610" lon="-6.3415680">
        <ele>86.6</ele>
        <time>2021-07-21T12:47:51Z</time>
      </trkpt>
      <trkpt lat="43.5462450" lon="-6.3415900">
        <ele>87.0</ele>
        <time>2021-07-21T12:47:52Z</time>
      </trkpt>
      <trkpt lat="43.5462320" lon="-6.3416050">
        <ele>87.4</ele>
        <time>2021-07-21T12:47:53Z</time>
      </trkpt>
      <trkpt lat="43.5461780" lon="-6.3417000">
        <ele>87.4</ele>
        <time>2021-07-21T12:47:58Z</time>
      </trkpt>
      <trkpt lat="43.5461070" lon="-6.3418310">
        <ele>87.4</ele>
        <time>2021-07-21T12:48:05Z</time>
      </trkpt>
      <trkpt lat="43.5460950" lon="-6.3418510">
        <ele>87.8</ele>
        <time>2021-07-21T12:48:06Z</time>
      </trkpt>
      <trkpt lat="43.5460830" lon="-6.3418690">
        <ele>88.2</ele>
        <time>2021-07-21T12:48:07Z</time>
      </trkpt>
      <trkpt lat="43.5460730" lon="-6.3418890">
        <ele>88.8</ele>
        <time>2021-07-21T12:48:08Z</time>
      </trkpt>
      <trkpt lat="43.5460600" lon="-6.3419080">
        <ele>89.2</ele>
        <time>2021-07-21T12:48:09Z</time>
      </trkpt>
      <trkpt lat="43.5460480" lon="-6.3419310">
        <ele>89.6</ele>
        <time>2021-07-21T12:48:10Z</time>
      </trkpt>
      <trkpt lat="43.5460100" lon="-6.3420460">
        <ele>89.6</ele>
        <time>2021-07-21T12:48:14Z</time>
      </trkpt>
      <trkpt lat="43.5459640" lon="-6.3422780">
        <ele>90.0</ele>
        <time>2021-07-21T12:48:21Z</time>
      </trkpt>
      <trkpt lat="43.5459610" lon="-6.3423130">
        <ele>90.4</ele>
        <time>2021-07-21T12:48:22Z</time>
      </trkpt>
      <trkpt lat="43.5459590" lon="-6.3423460">
        <ele>90.8</ele>
        <time>2021-07-21T12:48:23Z</time>
      </trkpt>
      <trkpt lat="43.5459590" lon="-6.3423740">
        <ele>91.2</ele>
        <time>2021-07-21T12:48:24Z</time>
      </trkpt>
      <trkpt lat="43.5459560" lon="-6.3424040">
        <ele>91.8</ele>
        <time>2021-07-21T12:48:25Z</time>
      </trkpt>
      <trkpt lat="43.5459570" lon="-6.3424910">
        <ele>91.8</ele>
        <time>2021-07-21T12:48:28Z</time>
      </trkpt>
      <trkpt lat="43.5459630" lon="-6.3427030">
        <ele>91.8</ele>
        <time>2021-07-21T12:48:34Z</time>
      </trkpt>
      <trkpt lat="43.5459750" lon="-6.3429520">
        <ele>91.8</ele>
        <time>2021-07-21T12:48:40Z</time>
      </trkpt>
      <trkpt lat="43.5459990" lon="-6.3432850">
        <ele>91.8</ele>
        <time>2021-07-21T12:48:47Z</time>
      </trkpt>
      <trkpt lat="43.5460010" lon="-6.3433670">
        <ele>91.8</ele>
        <time>2021-07-21T12:48:49Z</time>
      </trkpt>
      <trkpt lat="43.5460050" lon="-6.3435020">
        <ele>91.8</ele>
        <time>2021-07-21T12:48:52Z</time>
      </trkpt>
      <trkpt lat="43.5460090" lon="-6.3435500">
        <ele>91.8</ele>
        <time>2021-07-21T12:48:53Z</time>
      </trkpt>
      <trkpt lat="43.5460330" lon="-6.3438440">
        <ele>91.8</ele>
        <time>2021-07-21T12:48:59Z</time>
      </trkpt>
      <trkpt lat="43.5460420" lon="-6.3439410">
        <ele>91.8</ele>
        <time>2021-07-21T12:49:01Z</time>
      </trkpt>
      <trkpt lat="43.5460460" lon="-6.3440340">
        <ele>91.8</ele>
        <time>2021-07-21T12:49:03Z</time>
      </trkpt>
      <trkpt lat="43.5460470" lon="-6.3440740">
        <ele>91.8</ele>
        <time>2021-07-21T12:49:04Z</time>
      </trkpt>
      <trkpt lat="43.5460130" lon="-6.3442510">
        <ele>91.8</ele>
        <time>2021-07-21T12:49:08Z</time>
      </trkpt>
      <trkpt lat="43.5459130" lon="-6.3444390">
        <ele>91.8</ele>
        <time>2021-07-21T12:49:13Z</time>
      </trkpt>
      <trkpt lat="43.5458330" lon="-6.3445440">
        <ele>91.8</ele>
        <time>2021-07-21T12:49:16Z</time>
      </trkpt>
      <trkpt lat="43.5457060" lon="-6.3447240">
        <ele>91.8</ele>
        <time>2021-07-21T12:49:21Z</time>
      </trkpt>
      <trkpt lat="43.5456520" lon="-6.3448550">
        <ele>91.8</ele>
        <time>2021-07-21T12:49:24Z</time>
      </trkpt>
      <trkpt lat="43.5456340" lon="-6.3449510">
        <ele>91.8</ele>
        <time>2021-07-21T12:49:26Z</time>
      </trkpt>
      <trkpt lat="43.5456280" lon="-6.3450020">
        <ele>91.8</ele>
        <time>2021-07-21T12:49:27Z</time>
      </trkpt>
      <trkpt lat="43.5456300" lon="-6.3452170">
        <ele>91.8</ele>
        <time>2021-07-21T12:49:31Z</time>
      </trkpt>
      <trkpt lat="43.5456380" lon="-6.3453880">
        <ele>91.8</ele>
        <time>2021-07-21T12:49:34Z</time>
      </trkpt>
      <trkpt lat="43.5456480" lon="-6.3456860">
        <ele>91.8</ele>
        <time>2021-07-21T12:49:40Z</time>
      </trkpt>
      <trkpt lat="43.5456480" lon="-6.3457240">
        <ele>91.8</ele>
        <time>2021-07-21T12:49:41Z</time>
      </trkpt>
      <trkpt lat="43.5456540" lon="-6.3458840">
        <ele>91.8</ele>
        <time>2021-07-21T12:49:44Z</time>
      </trkpt>
      <trkpt lat="43.5456530" lon="-6.3459940">
        <ele>91.8</ele>
        <time>2021-07-21T12:49:46Z</time>
      </trkpt>
      <trkpt lat="43.5456550" lon="-6.3461090">
        <ele>91.8</ele>
        <time>2021-07-21T12:49:48Z</time>
      </trkpt>
      <trkpt lat="43.5456590" lon="-6.3462840">
        <ele>91.8</ele>
        <time>2021-07-21T12:49:51Z</time>
      </trkpt>
      <trkpt lat="43.5456590" lon="-6.3463390">
        <ele>92.2</ele>
        <time>2021-07-21T12:49:52Z</time>
      </trkpt>
      <trkpt lat="43.5456590" lon="-6.3463920">
        <ele>92.6</ele>
        <time>2021-07-21T12:49:53Z</time>
      </trkpt>
      <trkpt lat="43.5456620" lon="-6.3464440">
        <ele>93.0</ele>
        <time>2021-07-21T12:49:54Z</time>
      </trkpt>
      <trkpt lat="43.5456690" lon="-6.3464970">
        <ele>93.4</ele>
        <time>2021-07-21T12:49:55Z</time>
      </trkpt>
      <trkpt lat="43.5456780" lon="-6.3465450">
        <ele>93.8</ele>
        <time>2021-07-21T12:49:56Z</time>
      </trkpt>
      <trkpt lat="43.5457360" lon="-6.3466870">
        <ele>93.8</ele>
        <time>2021-07-21T12:49:59Z</time>
      </trkpt>
      <trkpt lat="43.5459430" lon="-6.3469450">
        <ele>93.8</ele>
        <time>2021-07-21T12:50:05Z</time>
      </trkpt>
      <trkpt lat="43.5460980" lon="-6.3469930">
        <ele>93.8</ele>
        <time>2021-07-21T12:50:09Z</time>
      </trkpt>
      <trkpt lat="43.5461370" lon="-6.3469970">
        <ele>93.8</ele>
        <time>2021-07-21T12:50:10Z</time>
      </trkpt>
      <trkpt lat="43.5463670" lon="-6.3469600">
        <ele>93.8</ele>
        <time>2021-07-21T12:50:16Z</time>
      </trkpt>
      <trkpt lat="43.5465780" lon="-6.3468440">
        <ele>93.8</ele>
        <time>2021-07-21T12:50:22Z</time>
      </trkpt>
      <trkpt lat="43.5467440" lon="-6.3467470">
        <ele>93.8</ele>
        <time>2021-07-21T12:50:28Z</time>
      </trkpt>
      <trkpt lat="43.5468680" lon="-6.3466390">
        <ele>93.8</ele>
        <time>2021-07-21T12:50:32Z</time>
      </trkpt>
      <trkpt lat="43.5469300" lon="-6.3465900">
        <ele>93.8</ele>
        <time>2021-07-21T12:50:34Z</time>
      </trkpt>
      <trkpt lat="43.5469600" lon="-6.3465670">
        <ele>94.2</ele>
        <time>2021-07-21T12:50:35Z</time>
      </trkpt>
      <trkpt lat="43.5469880" lon="-6.3465490">
        <ele>94.6</ele>
        <time>2021-07-21T12:50:36Z</time>
      </trkpt>
      <trkpt lat="43.5470180" lon="-6.3465330">
        <ele>95.0</ele>
        <time>2021-07-21T12:50:37Z</time>
      </trkpt>
      <trkpt lat="43.5470490" lon="-6.3465110">
        <ele>95.4</ele>
        <time>2021-07-21T12:50:38Z</time>
      </trkpt>
      <trkpt lat="43.5470820" lon="-6.3464890">
        <ele>95.8</ele>
        <time>2021-07-21T12:50:39Z</time>
      </trkpt>
      <trkpt lat="43.5471510" lon="-6.3464480">
        <ele>95.8</ele>
        <time>2021-07-21T12:50:41Z</time>
      </trkpt>
      <trkpt lat="43.5474090" lon="-6.3463200">
        <ele>95.8</ele>
        <time>2021-07-21T12:50:49Z</time>
      </trkpt>
      <trkpt lat="43.5474740" lon="-6.3462940">
        <ele>96.2</ele>
        <time>2021-07-21T12:50:51Z</time>
      </trkpt>
      <trkpt lat="43.5475020" lon="-6.3462850">
        <ele>96.6</ele>
        <time>2021-07-21T12:50:52Z</time>
      </trkpt>
      <trkpt lat="43.5475310" lon="-6.3462810">
        <ele>97.0</ele>
        <time>2021-07-21T12:50:53Z</time>
      </trkpt>
      <trkpt lat="43.5475590" lon="-6.3462810">
        <ele>97.4</ele>
        <time>2021-07-21T12:50:54Z</time>
      </trkpt>
      <trkpt lat="43.5475880" lon="-6.3462830">
        <ele>97.8</ele>
        <time>2021-07-21T12:50:55Z</time>
      </trkpt>
      <trkpt lat="43.5476730" lon="-6.3462900">
        <ele>97.8</ele>
        <time>2021-07-21T12:50:58Z</time>
      </trkpt>
      <trkpt lat="43.5478610" lon="-6.3463470">
        <ele>97.8</ele>
        <time>2021-07-21T12:51:05Z</time>
      </trkpt>
      <trkpt lat="43.5479820" lon="-6.3464530">
        <ele>98.2</ele>
        <time>2021-07-21T12:51:10Z</time>
      </trkpt>
      <trkpt lat="43.5480030" lon="-6.3464800">
        <ele>98.6</ele>
        <time>2021-07-21T12:51:11Z</time>
      </trkpt>
      <trkpt lat="43.5480220" lon="-6.3465130">
        <ele>99.4</ele>
        <time>2021-07-21T12:51:12Z</time>
      </trkpt>
      <trkpt lat="43.5480410" lon="-6.3465460">
        <ele>99.8</ele>
        <time>2021-07-21T12:51:13Z</time>
      </trkpt>
      <trkpt lat="43.5481580" lon="-6.3467750">
        <ele>99.8</ele>
        <time>2021-07-21T12:51:20Z</time>
      </trkpt>
      <trkpt lat="43.5482620" lon="-6.3470150">
        <ele>99.8</ele>
        <time>2021-07-21T12:51:27Z</time>
      </trkpt>
      <trkpt lat="43.5483960" lon="-6.3473180">
        <ele>100.2</ele>
        <time>2021-07-21T12:51:35Z</time>
      </trkpt>
      <trkpt lat="43.5484150" lon="-6.3473570">
        <ele>101.0</ele>
        <time>2021-07-21T12:51:36Z</time>
      </trkpt>
      <trkpt lat="43.5484310" lon="-6.3473940">
        <ele>101.4</ele>
        <time>2021-07-21T12:51:37Z</time>
      </trkpt>
      <trkpt lat="43.5484460" lon="-6.3474280">
        <ele>101.8</ele>
        <time>2021-07-21T12:51:38Z</time>
      </trkpt>
      <trkpt lat="43.5485080" lon="-6.3475720">
        <ele>101.8</ele>
        <time>2021-07-21T12:51:42Z</time>
      </trkpt>
      <trkpt lat="43.5485220" lon="-6.3476130">
        <ele>101.8</ele>
        <time>2021-07-21T12:51:43Z</time>
      </trkpt>
      <trkpt lat="43.5486390" lon="-6.3479040">
        <ele>101.8</ele>
        <time>2021-07-21T12:51:49Z</time>
      </trkpt>
      <trkpt lat="43.5486580" lon="-6.3479530">
        <ele>101.8</ele>
        <time>2021-07-21T12:51:50Z</time>
      </trkpt>
      <trkpt lat="43.5486820" lon="-6.3480590">
        <ele>101.8</ele>
        <time>2021-07-21T12:51:52Z</time>
      </trkpt>
      <trkpt lat="43.5486870" lon="-6.3481710">
        <ele>101.8</ele>
        <time>2021-07-21T12:51:54Z</time>
      </trkpt>
      <trkpt lat="43.5486830" lon="-6.3482330">
        <ele>101.8</ele>
        <time>2021-07-21T12:51:55Z</time>
      </trkpt>
      <trkpt lat="43.5486700" lon="-6.3483610">
        <ele>101.8</ele>
        <time>2021-07-21T12:51:57Z</time>
      </trkpt>
      <trkpt lat="43.5486180" lon="-6.3486180">
        <ele>101.8</ele>
        <time>2021-07-21T12:52:01Z</time>
      </trkpt>
      <trkpt lat="43.5485810" lon="-6.3487500">
        <ele>101.4</ele>
        <time>2021-07-21T12:52:03Z</time>
      </trkpt>
      <trkpt lat="43.5485630" lon="-6.3488200">
        <ele>101.0</ele>
        <time>2021-07-21T12:52:04Z</time>
      </trkpt>
      <trkpt lat="43.5485450" lon="-6.3488950">
        <ele>100.6</ele>
        <time>2021-07-21T12:52:05Z</time>
      </trkpt>
      <trkpt lat="43.5485250" lon="-6.3489660">
        <ele>100.2</ele>
        <time>2021-07-21T12:52:06Z</time>
      </trkpt>
      <trkpt lat="43.5485060" lon="-6.3490370">
        <ele>99.8</ele>
        <time>2021-07-21T12:52:07Z</time>
      </trkpt>
      <trkpt lat="43.5484880" lon="-6.3491110">
        <ele>99.8</ele>
        <time>2021-07-21T12:52:08Z</time>
      </trkpt>
      <trkpt lat="43.5484690" lon="-6.3491840">
        <ele>99.8</ele>
        <time>2021-07-21T12:52:09Z</time>
      </trkpt>
      <trkpt lat="43.5483900" lon="-6.3494930">
        <ele>99.8</ele>
        <time>2021-07-21T12:52:13Z</time>
      </trkpt>
      <trkpt lat="43.5482940" lon="-6.3498050">
        <ele>99.4</ele>
        <time>2021-07-21T12:52:17Z</time>
      </trkpt>
      <trkpt lat="43.5482640" lon="-6.3498820">
        <ele>98.8</ele>
        <time>2021-07-21T12:52:18Z</time>
      </trkpt>
      <trkpt lat="43.5482330" lon="-6.3499600">
        <ele>98.4</ele>
        <time>2021-07-21T12:52:19Z</time>
      </trkpt>
      <trkpt lat="43.5481950" lon="-6.3500370">
        <ele>98.0</ele>
        <time>2021-07-21T12:52:20Z</time>
      </trkpt>
      <trkpt lat="43.5481550" lon="-6.3501070">
        <ele>97.6</ele>
        <time>2021-07-21T12:52:21Z</time>
      </trkpt>
      <trkpt lat="43.5480700" lon="-6.3502340">
        <ele>97.6</ele>
        <time>2021-07-21T12:52:23Z</time>
      </trkpt>
      <trkpt lat="43.5478670" lon="-6.3504610">
        <ele>97.6</ele>
        <time>2021-07-21T12:52:27Z</time>
      </trkpt>
      <trkpt lat="43.5478090" lon="-6.3505160">
        <ele>97.2</ele>
        <time>2021-07-21T12:52:28Z</time>
      </trkpt>
      <trkpt lat="43.5477520" lon="-6.3505720">
        <ele>96.8</ele>
        <time>2021-07-21T12:52:29Z</time>
      </trkpt>
      <trkpt lat="43.5476980" lon="-6.3506270">
        <ele>96.4</ele>
        <time>2021-07-21T12:52:30Z</time>
      </trkpt>
      <trkpt lat="43.5476430" lon="-6.3506810">
        <ele>96.0</ele>
        <time>2021-07-21T12:52:31Z</time>
      </trkpt>
      <trkpt lat="43.5475880" lon="-6.3507330">
        <ele>95.6</ele>
        <time>2021-07-21T12:52:32Z</time>
      </trkpt>
      <trkpt lat="43.5474290" lon="-6.3508950">
        <ele>95.2</ele>
        <time>2021-07-21T12:52:35Z</time>
      </trkpt>
      <trkpt lat="43.5473790" lon="-6.3509510">
        <ele>94.8</ele>
        <time>2021-07-21T12:52:36Z</time>
      </trkpt>
      <trkpt lat="43.5473290" lon="-6.3510080">
        <ele>94.4</ele>
        <time>2021-07-21T12:52:37Z</time>
      </trkpt>
      <trkpt lat="43.5472760" lon="-6.3510670">
        <ele>94.0</ele>
        <time>2021-07-21T12:52:38Z</time>
      </trkpt>
      <trkpt lat="43.5472230" lon="-6.3511240">
        <ele>93.6</ele>
        <time>2021-07-21T12:52:39Z</time>
      </trkpt>
      <trkpt lat="43.5468790" lon="-6.3515750">
        <ele>93.6</ele>
        <time>2021-07-21T12:52:46Z</time>
      </trkpt>
      <trkpt lat="43.5467390" lon="-6.3517950">
        <ele>93.6</ele>
        <time>2021-07-21T12:52:49Z</time>
      </trkpt>
      <trkpt lat="43.5466990" lon="-6.3518830">
        <ele>93.2</ele>
        <time>2021-07-21T12:52:50Z</time>
      </trkpt>
      <trkpt lat="43.5466750" lon="-6.3519750">
        <ele>92.2</ele>
        <time>2021-07-21T12:52:51Z</time>
      </trkpt>
      <trkpt lat="43.5466600" lon="-6.3520680">
        <ele>91.8</ele>
        <time>2021-07-21T12:52:52Z</time>
      </trkpt>
      <trkpt lat="43.5466560" lon="-6.3521600">
        <ele>91.4</ele>
        <time>2021-07-21T12:52:53Z</time>
      </trkpt>
      <trkpt lat="43.5466770" lon="-6.3524110">
        <ele>91.4</ele>
        <time>2021-07-21T12:52:56Z</time>
      </trkpt>
      <trkpt lat="43.5466890" lon="-6.3524860">
        <ele>91.4</ele>
        <time>2021-07-21T12:52:57Z</time>
      </trkpt>
      <trkpt lat="43.5467130" lon="-6.3525560">
        <ele>91.4</ele>
        <time>2021-07-21T12:52:58Z</time>
      </trkpt>
      <trkpt lat="43.5467770" lon="-6.3526480">
        <ele>91.4</ele>
        <time>2021-07-21T12:53:00Z</time>
      </trkpt>
      <trkpt lat="43.5468350" lon="-6.3527160">
        <ele>91.4</ele>
        <time>2021-07-21T12:53:02Z</time>
      </trkpt>
      <trkpt lat="43.5468700" lon="-6.3527360">
        <ele>91.4</ele>
        <time>2021-07-21T12:53:03Z</time>
      </trkpt>
      <trkpt lat="43.5469060" lon="-6.3527470">
        <ele>91.4</ele>
        <time>2021-07-21T12:53:04Z</time>
      </trkpt>
      <trkpt lat="43.5469410" lon="-6.3527630">
        <ele>91.4</ele>
        <time>2021-07-21T12:53:05Z</time>
      </trkpt>
      <trkpt lat="43.5470210" lon="-6.3527690">
        <ele>91.4</ele>
        <time>2021-07-21T12:53:07Z</time>
      </trkpt>
      <trkpt lat="43.5470570" lon="-6.3527750">
        <ele>91.4</ele>
        <time>2021-07-21T12:53:08Z</time>
      </trkpt>
      <trkpt lat="43.5471240" lon="-6.3527840">
        <ele>91.4</ele>
        <time>2021-07-21T12:53:10Z</time>
      </trkpt>
      <trkpt lat="43.5471950" lon="-6.3527890">
        <ele>91.4</ele>
        <time>2021-07-21T12:53:12Z</time>
      </trkpt>
      <trkpt lat="43.5472930" lon="-6.3528130">
        <ele>91.4</ele>
        <time>2021-07-21T12:53:15Z</time>
      </trkpt>
      <trkpt lat="43.5473590" lon="-6.3528440">
        <ele>91.4</ele>
        <time>2021-07-21T12:53:17Z</time>
      </trkpt>
      <trkpt lat="43.5474550" lon="-6.3528960">
        <ele>91.8</ele>
        <time>2021-07-21T12:53:20Z</time>
      </trkpt>
      <trkpt lat="43.5474870" lon="-6.3529200">
        <ele>92.2</ele>
        <time>2021-07-21T12:53:21Z</time>
      </trkpt>
      <trkpt lat="43.5475160" lon="-6.3529460">
        <ele>92.6</ele>
        <time>2021-07-21T12:53:22Z</time>
      </trkpt>
      <trkpt lat="43.5475480" lon="-6.3529670">
        <ele>93.0</ele>
        <time>2021-07-21T12:53:23Z</time>
      </trkpt>
      <trkpt lat="43.5475770" lon="-6.3529920">
        <ele>93.4</ele>
        <time>2021-07-21T12:53:24Z</time>
      </trkpt>
      <trkpt lat="43.5476010" lon="-6.3530220">
        <ele>93.4</ele>
        <time>2021-07-21T12:53:25Z</time>
      </trkpt>
      <trkpt lat="43.5477720" lon="-6.3532020">
        <ele>93.4</ele>
        <time>2021-07-21T12:53:31Z</time>
      </trkpt>
      <trkpt lat="43.5478810" lon="-6.3533200">
        <ele>93.4</ele>
        <time>2021-07-21T12:53:35Z</time>
      </trkpt>
      <trkpt lat="43.5480740" lon="-6.3535260">
        <ele>93.8</ele>
        <time>2021-07-21T12:53:42Z</time>
      </trkpt>
      <trkpt lat="43.5481010" lon="-6.3535570">
        <ele>94.2</ele>
        <time>2021-07-21T12:53:43Z</time>
      </trkpt>
      <trkpt lat="43.5481230" lon="-6.3535950">
        <ele>94.6</ele>
        <time>2021-07-21T12:53:44Z</time>
      </trkpt>
      <trkpt lat="43.5481470" lon="-6.3536300">
        <ele>95.0</ele>
        <time>2021-07-21T12:53:45Z</time>
      </trkpt>
      <trkpt lat="43.5481720" lon="-6.3536680">
        <ele>95.4</ele>
        <time>2021-07-21T12:53:46Z</time>
      </trkpt>
      <trkpt lat="43.5483200" lon="-6.3539580">
        <ele>95.4</ele>
        <time>2021-07-21T12:53:53Z</time>
      </trkpt>
      <trkpt lat="43.5484540" lon="-6.3543240">
        <ele>95.4</ele>
        <time>2021-07-21T12:54:00Z</time>
      </trkpt>
      <trkpt lat="43.5484760" lon="-6.3543830">
        <ele>95.4</ele>
        <time>2021-07-21T12:54:01Z</time>
      </trkpt>
      <trkpt lat="43.5485310" lon="-6.3545850">
        <ele>95.4</ele>
        <time>2021-07-21T12:54:04Z</time>
      </trkpt>
      <trkpt lat="43.5485440" lon="-6.3546610">
        <ele>95.4</ele>
        <time>2021-07-21T12:54:05Z</time>
      </trkpt>
      <trkpt lat="43.5485680" lon="-6.3548250">
        <ele>95.0</ele>
        <time>2021-07-21T12:54:07Z</time>
      </trkpt>
      <trkpt lat="43.5485750" lon="-6.3549090">
        <ele>94.6</ele>
        <time>2021-07-21T12:54:08Z</time>
      </trkpt>
      <trkpt lat="43.5485820" lon="-6.3549980">
        <ele>94.2</ele>
        <time>2021-07-21T12:54:09Z</time>
      </trkpt>
      <trkpt lat="43.5485870" lon="-6.3550880">
        <ele>93.8</ele>
        <time>2021-07-21T12:54:10Z</time>
      </trkpt>
      <trkpt lat="43.5485920" lon="-6.3551820">
        <ele>93.4</ele>
        <time>2021-07-21T12:54:11Z</time>
      </trkpt>
      <trkpt lat="43.5486080" lon="-6.3554740">
        <ele>93.4</ele>
        <time>2021-07-21T12:54:14Z</time>
      </trkpt>
      <trkpt lat="43.5486200" lon="-6.3557730">
        <ele>92.8</ele>
        <time>2021-07-21T12:54:17Z</time>
      </trkpt>
      <trkpt lat="43.5486250" lon="-6.3558730">
        <ele>92.4</ele>
        <time>2021-07-21T12:54:18Z</time>
      </trkpt>
      <trkpt lat="43.5486310" lon="-6.3559660">
        <ele>92.0</ele>
        <time>2021-07-21T12:54:19Z</time>
      </trkpt>
      <trkpt lat="43.5486320" lon="-6.3560660">
        <ele>91.6</ele>
        <time>2021-07-21T12:54:20Z</time>
      </trkpt>
      <trkpt lat="43.5486320" lon="-6.3561650">
        <ele>91.0</ele>
        <time>2021-07-21T12:54:21Z</time>
      </trkpt>
      <trkpt lat="43.5486240" lon="-6.3562650">
        <ele>91.0</ele>
        <time>2021-07-21T12:54:22Z</time>
      </trkpt>
      <trkpt lat="43.5485240" lon="-6.3565300">
        <ele>90.6</ele>
        <time>2021-07-21T12:54:25Z</time>
      </trkpt>
      <trkpt lat="43.5484730" lon="-6.3566070">
        <ele>90.0</ele>
        <time>2021-07-21T12:54:26Z</time>
      </trkpt>
      <trkpt lat="43.5484200" lon="-6.3566780">
        <ele>89.6</ele>
        <time>2021-07-21T12:54:27Z</time>
      </trkpt>
      <trkpt lat="43.5483640" lon="-6.3567460">
        <ele>89.2</ele>
        <time>2021-07-21T12:54:28Z</time>
      </trkpt>
      <trkpt lat="43.5483060" lon="-6.3568080">
        <ele>88.6</ele>
        <time>2021-07-21T12:54:29Z</time>
      </trkpt>
      <trkpt lat="43.5481880" lon="-6.3569030">
        <ele>88.6</ele>
        <time>2021-07-21T12:54:31Z</time>
      </trkpt>
      <trkpt lat="43.5480560" lon="-6.3569480">
        <ele>88.6</ele>
        <time>2021-07-21T12:54:33Z</time>
      </trkpt>
      <trkpt lat="43.5479890" lon="-6.3569520">
        <ele>88.6</ele>
        <time>2021-07-21T12:54:34Z</time>
      </trkpt>
      <trkpt lat="43.5477840" lon="-6.3569190">
        <ele>88.2</ele>
        <time>2021-07-21T12:54:37Z</time>
      </trkpt>
      <trkpt lat="43.5477120" lon="-6.3569080">
        <ele>87.8</ele>
        <time>2021-07-21T12:54:38Z</time>
      </trkpt>
      <trkpt lat="43.5476400" lon="-6.3568990">
        <ele>87.4</ele>
        <time>2021-07-21T12:54:39Z</time>
      </trkpt>
      <trkpt lat="43.5475630" lon="-6.3568890">
        <ele>87.0</ele>
        <time>2021-07-21T12:54:40Z</time>
      </trkpt>
      <trkpt lat="43.5474820" lon="-6.3568850">
        <ele>86.6</ele>
        <time>2021-07-21T12:54:41Z</time>
      </trkpt>
      <trkpt lat="43.5473040" lon="-6.3568820">
        <ele>86.2</ele>
        <time>2021-07-21T12:54:43Z</time>
      </trkpt>
      <trkpt lat="43.5472120" lon="-6.3568910">
        <ele>85.8</ele>
        <time>2021-07-21T12:54:44Z</time>
      </trkpt>
      <trkpt lat="43.5471210" lon="-6.3569080">
        <ele>85.4</ele>
        <time>2021-07-21T12:54:45Z</time>
      </trkpt>
      <trkpt lat="43.5470310" lon="-6.3569260">
        <ele>85.0</ele>
        <time>2021-07-21T12:54:46Z</time>
      </trkpt>
      <trkpt lat="43.5469400" lon="-6.3569460">
        <ele>84.6</ele>
        <time>2021-07-21T12:54:47Z</time>
      </trkpt>
      <trkpt lat="43.5468480" lon="-6.3569660">
        <ele>84.6</ele>
        <time>2021-07-21T12:54:48Z</time>
      </trkpt>
      <trkpt lat="43.5466640" lon="-6.3569870">
        <ele>84.0</ele>
        <time>2021-07-21T12:54:50Z</time>
      </trkpt>
      <trkpt lat="43.5465690" lon="-6.3569900">
        <ele>83.6</ele>
        <time>2021-07-21T12:54:51Z</time>
      </trkpt>
      <trkpt lat="43.5464730" lon="-6.3569960">
        <ele>83.0</ele>
        <time>2021-07-21T12:54:52Z</time>
      </trkpt>
      <trkpt lat="43.5463860" lon="-6.3570050">
        <ele>82.6</ele>
        <time>2021-07-21T12:54:53Z</time>
      </trkpt>
      <trkpt lat="43.5463050" lon="-6.3570130">
        <ele>81.6</ele>
        <time>2021-07-21T12:54:54Z</time>
      </trkpt>
      <trkpt lat="43.5462270" lon="-6.3570150">
        <ele>81.2</ele>
        <time>2021-07-21T12:54:55Z</time>
      </trkpt>
      <trkpt lat="43.5461560" lon="-6.3570170">
        <ele>80.8</ele>
        <time>2021-07-21T12:54:56Z</time>
      </trkpt>
      <trkpt lat="43.5460840" lon="-6.3570170">
        <ele>80.2</ele>
        <time>2021-07-21T12:54:57Z</time>
      </trkpt>
      <trkpt lat="43.5460140" lon="-6.3570300">
        <ele>79.8</ele>
        <time>2021-07-21T12:54:58Z</time>
      </trkpt>
      <trkpt lat="43.5459460" lon="-6.3570480">
        <ele>79.2</ele>
        <time>2021-07-21T12:54:59Z</time>
      </trkpt>
      <trkpt lat="43.5458850" lon="-6.3570860">
        <ele>78.6</ele>
        <time>2021-07-21T12:55:00Z</time>
      </trkpt>
      <trkpt lat="43.5458330" lon="-6.3571280">
        <ele>78.0</ele>
        <time>2021-07-21T12:55:01Z</time>
      </trkpt>
      <trkpt lat="43.5457940" lon="-6.3571930">
        <ele>77.6</ele>
        <time>2021-07-21T12:55:02Z</time>
      </trkpt>
      <trkpt lat="43.5457900" lon="-6.3574680">
        <ele>77.2</ele>
        <time>2021-07-21T12:55:05Z</time>
      </trkpt>
      <trkpt lat="43.5458220" lon="-6.3575430">
        <ele>76.8</ele>
        <time>2021-07-21T12:55:06Z</time>
      </trkpt>
      <trkpt lat="43.5458740" lon="-6.3575890">
        <ele>76.2</ele>
        <time>2021-07-21T12:55:07Z</time>
      </trkpt>
      <trkpt lat="43.5459220" lon="-6.3576290">
        <ele>75.8</ele>
        <time>2021-07-21T12:55:08Z</time>
      </trkpt>
      <trkpt lat="43.5459650" lon="-6.3576540">
        <ele>75.4</ele>
        <time>2021-07-21T12:55:09Z</time>
      </trkpt>
      <trkpt lat="43.5460390" lon="-6.3576900">
        <ele>75.4</ele>
        <time>2021-07-21T12:55:11Z</time>
      </trkpt>
      <trkpt lat="43.5460740" lon="-6.3577050">
        <ele>75.4</ele>
        <time>2021-07-21T12:55:12Z</time>
      </trkpt>
      <trkpt lat="43.5461540" lon="-6.3577310">
        <ele>75.4</ele>
        <time>2021-07-21T12:55:14Z</time>
      </trkpt>
      <trkpt lat="43.5462580" lon="-6.3577750">
        <ele>75.4</ele>
        <time>2021-07-21T12:55:17Z</time>
      </trkpt>
      <trkpt lat="43.5463550" lon="-6.3578320">
        <ele>75.4</ele>
        <time>2021-07-21T12:55:20Z</time>
      </trkpt>
      <trkpt lat="43.5464260" lon="-6.3578700">
        <ele>75.4</ele>
        <time>2021-07-21T12:55:22Z</time>
      </trkpt>
      <trkpt lat="43.5465000" lon="-6.3579100">
        <ele>75.4</ele>
        <time>2021-07-21T12:55:24Z</time>
      </trkpt>
      <trkpt lat="43.5465840" lon="-6.3579540">
        <ele>75.4</ele>
        <time>2021-07-21T12:55:26Z</time>
      </trkpt>
      <trkpt lat="43.5466960" lon="-6.3580250">
        <ele>75.4</ele>
        <time>2021-07-21T12:55:29Z</time>
      </trkpt>
      <trkpt lat="43.5467310" lon="-6.3580450">
        <ele>75.4</ele>
        <time>2021-07-21T12:55:30Z</time>
      </trkpt>
      <trkpt lat="43.5468290" lon="-6.3581130">
        <ele>75.4</ele>
        <time>2021-07-21T12:55:33Z</time>
      </trkpt>
      <trkpt lat="43.5469130" lon="-6.3581630">
        <ele>75.4</ele>
        <time>2021-07-21T12:55:36Z</time>
      </trkpt>
      <trkpt lat="43.5469430" lon="-6.3581860">
        <ele>75.4</ele>
        <time>2021-07-21T12:55:37Z</time>
      </trkpt>
      <trkpt lat="43.5470790" lon="-6.3582720">
        <ele>75.4</ele>
        <time>2021-07-21T12:55:42Z</time>
      </trkpt>
      <trkpt lat="43.5471360" lon="-6.3582950">
        <ele>76.4</ele>
        <time>2021-07-21T12:55:44Z</time>
      </trkpt>
      <trkpt lat="43.5471640" lon="-6.3583190">
        <ele>76.8</ele>
        <time>2021-07-21T12:55:45Z</time>
      </trkpt>
      <trkpt lat="43.5471870" lon="-6.3583380">
        <ele>77.2</ele>
        <time>2021-07-21T12:55:46Z</time>
      </trkpt>
      <trkpt lat="43.5472140" lon="-6.3583570">
        <ele>77.6</ele>
        <time>2021-07-21T12:55:47Z</time>
      </trkpt>
      <trkpt lat="43.5472900" lon="-6.3584160">
        <ele>77.6</ele>
        <time>2021-07-21T12:55:50Z</time>
      </trkpt>
      <trkpt lat="43.5474180" lon="-6.3585150">
        <ele>78.0</ele>
        <time>2021-07-21T12:55:57Z</time>
      </trkpt>
      <trkpt lat="43.5474360" lon="-6.3585300">
        <ele>78.4</ele>
        <time>2021-07-21T12:55:58Z</time>
      </trkpt>
      <trkpt lat="43.5474520" lon="-6.3585460">
        <ele>78.8</ele>
        <time>2021-07-21T12:55:59Z</time>
      </trkpt>
      <trkpt lat="43.5474710" lon="-6.3585680">
        <ele>79.2</ele>
        <time>2021-07-21T12:56:00Z</time>
      </trkpt>
      <trkpt lat="43.5474960" lon="-6.3585890">
        <ele>79.6</ele>
        <time>2021-07-21T12:56:01Z</time>
      </trkpt>
      <trkpt lat="43.5475430" lon="-6.3586490">
        <ele>79.6</ele>
        <time>2021-07-21T12:56:04Z</time>
      </trkpt>
      <trkpt lat="43.5475770" lon="-6.3587580">
        <ele>79.6</ele>
        <time>2021-07-21T12:56:09Z</time>
      </trkpt>
      <trkpt lat="43.5475830" lon="-6.3587860">
        <ele>80.0</ele>
        <time>2021-07-21T12:56:10Z</time>
      </trkpt>
      <trkpt lat="43.5475830" lon="-6.3588090">
        <ele>80.4</ele>
        <time>2021-07-21T12:56:11Z</time>
      </trkpt>
      <trkpt lat="43.5475860" lon="-6.3588390">
        <ele>80.8</ele>
        <time>2021-07-21T12:56:12Z</time>
      </trkpt>
      <trkpt lat="43.5475870" lon="-6.3588670">
        <ele>81.2</ele>
        <time>2021-07-21T12:56:13Z</time>
      </trkpt>
      <trkpt lat="43.5475870" lon="-6.3589040">
        <ele>81.8</ele>
        <time>2021-07-21T12:56:14Z</time>
      </trkpt>
      <trkpt lat="43.5475980" lon="-6.3589910">
        <ele>81.8</ele>
        <time>2021-07-21T12:56:17Z</time>
      </trkpt>
      <trkpt lat="43.5475940" lon="-6.3591580">
        <ele>82.2</ele>
        <time>2021-07-21T12:56:24Z</time>
      </trkpt>
      <trkpt lat="43.5475900" lon="-6.3591820">
        <ele>82.6</ele>
        <time>2021-07-21T12:56:25Z</time>
      </trkpt>
      <trkpt lat="43.5475870" lon="-6.3592030">
        <ele>83.0</ele>
        <time>2021-07-21T12:56:26Z</time>
      </trkpt>
      <trkpt lat="43.5475830" lon="-6.3592280">
        <ele>83.4</ele>
        <time>2021-07-21T12:56:27Z</time>
      </trkpt>
      <trkpt lat="43.5475810" lon="-6.3592480">
        <ele>83.8</ele>
        <time>2021-07-21T12:56:28Z</time>
      </trkpt>
      <trkpt lat="43.5475670" lon="-6.3593430">
        <ele>83.8</ele>
        <time>2021-07-21T12:56:31Z</time>
      </trkpt>
      <trkpt lat="43.5475490" lon="-6.3595340">
        <ele>84.2</ele>
        <time>2021-07-21T12:56:38Z</time>
      </trkpt>
      <trkpt lat="43.5475440" lon="-6.3595580">
        <ele>84.6</ele>
        <time>2021-07-21T12:56:39Z</time>
      </trkpt>
      <trkpt lat="43.5475350" lon="-6.3595870">
        <ele>85.0</ele>
        <time>2021-07-21T12:56:40Z</time>
      </trkpt>
      <trkpt lat="43.5475260" lon="-6.3596150">
        <ele>85.4</ele>
        <time>2021-07-21T12:56:41Z</time>
      </trkpt>
      <trkpt lat="43.5475140" lon="-6.3596430">
        <ele>85.8</ele>
        <time>2021-07-21T12:56:42Z</time>
      </trkpt>
      <trkpt lat="43.5474660" lon="-6.3597240">
        <ele>85.8</ele>
        <time>2021-07-21T12:56:45Z</time>
      </trkpt>
      <trkpt lat="43.5473650" lon="-6.3598610">
        <ele>85.8</ele>
        <time>2021-07-21T12:56:51Z</time>
      </trkpt>
      <trkpt lat="43.5472980" lon="-6.3599790">
        <ele>86.2</ele>
        <time>2021-07-21T12:56:57Z</time>
      </trkpt>
      <trkpt lat="43.5472850" lon="-6.3600030">
        <ele>87.2</ele>
        <time>2021-07-21T12:56:58Z</time>
      </trkpt>
      <trkpt lat="43.5472720" lon="-6.3600260">
        <ele>87.6</ele>
        <time>2021-07-21T12:56:59Z</time>
      </trkpt>
      <trkpt lat="43.5472570" lon="-6.3600450">
        <ele>88.0</ele>
        <time>2021-07-21T12:57:00Z</time>
      </trkpt>
      <trkpt lat="43.5471770" lon="-6.3601560">
        <ele>88.0</ele>
        <time>2021-07-21T12:57:05Z</time>
      </trkpt>
      <trkpt lat="43.5471610" lon="-6.3601870">
        <ele>88.0</ele>
        <time>2021-07-21T12:57:06Z</time>
      </trkpt>
      <trkpt lat="43.5470140" lon="-6.3603710">
        <ele>88.0</ele>
        <time>2021-07-21T12:57:13Z</time>
      </trkpt>
      <trkpt lat="43.5469080" lon="-6.3605050">
        <ele>88.4</ele>
        <time>2021-07-21T12:57:18Z</time>
      </trkpt>
      <trkpt lat="43.5468850" lon="-6.3605320">
        <ele>88.8</ele>
        <time>2021-07-21T12:57:19Z</time>
      </trkpt>
      <trkpt lat="43.5468620" lon="-6.3605560">
        <ele>89.2</ele>
        <time>2021-07-21T12:57:20Z</time>
      </trkpt>
      <trkpt lat="43.5468440" lon="-6.3605810">
        <ele>89.6</ele>
        <time>2021-07-21T12:57:21Z</time>
      </trkpt>
      <trkpt lat="43.5468230" lon="-6.3606020">
        <ele>90.0</ele>
        <time>2021-07-21T12:57:22Z</time>
      </trkpt>
      <trkpt lat="43.5466760" lon="-6.3607830">
        <ele>90.0</ele>
        <time>2021-07-21T12:57:29Z</time>
      </trkpt>
      <trkpt lat="43.5465070" lon="-6.3610030">
        <ele>90.0</ele>
        <time>2021-07-21T12:57:38Z</time>
      </trkpt>
      <trkpt lat="43.5464640" lon="-6.3610530">
        <ele>90.4</ele>
        <time>2021-07-21T12:57:40Z</time>
      </trkpt>
      <trkpt lat="43.5464460" lon="-6.3610800">
        <ele>90.8</ele>
        <time>2021-07-21T12:57:41Z</time>
      </trkpt>
      <trkpt lat="43.5464250" lon="-6.3611060">
        <ele>91.2</ele>
        <time>2021-07-21T12:57:42Z</time>
      </trkpt>
      <trkpt lat="43.5464070" lon="-6.3611310">
        <ele>91.6</ele>
        <time>2021-07-21T12:57:43Z</time>
      </trkpt>
      <trkpt lat="43.5463900" lon="-6.3611550">
        <ele>92.0</ele>
        <time>2021-07-21T12:57:44Z</time>
      </trkpt>
      <trkpt lat="43.5463140" lon="-6.3612560">
        <ele>92.0</ele>
        <time>2021-07-21T12:57:48Z</time>
      </trkpt>
      <trkpt lat="43.5462390" lon="-6.3613740">
        <ele>92.0</ele>
        <time>2021-07-21T12:57:53Z</time>
      </trkpt>
      <trkpt lat="43.5461940" lon="-6.3615430">
        <ele>92.0</ele>
        <time>2021-07-21T12:58:00Z</time>
      </trkpt>
      <trkpt lat="43.5462210" lon="-6.3617700">
        <ele>92.0</ele>
        <time>2021-07-21T12:58:07Z</time>
      </trkpt>
      <trkpt lat="43.5463230" lon="-6.3619920">
        <ele>92.0</ele>
        <time>2021-07-21T12:58:13Z</time>
      </trkpt>
      <trkpt lat="43.5463840" lon="-6.3621020">
        <ele>92.4</ele>
        <time>2021-07-21T12:58:16Z</time>
      </trkpt>
      <trkpt lat="43.5464120" lon="-6.3621400">
        <ele>92.8</ele>
        <time>2021-07-21T12:58:17Z</time>
      </trkpt>
      <trkpt lat="43.5464340" lon="-6.3621790">
        <ele>93.2</ele>
        <time>2021-07-21T12:58:18Z</time>
      </trkpt>
      <trkpt lat="43.5464570" lon="-6.3622260">
        <ele>93.8</ele>
        <time>2021-07-21T12:58:19Z</time>
      </trkpt>
      <trkpt lat="43.5464800" lon="-6.3622760">
        <ele>94.2</ele>
        <time>2021-07-21T12:58:20Z</time>
      </trkpt>
      <trkpt lat="43.5466420" lon="-6.3626100">
        <ele>94.2</ele>
        <time>2021-07-21T12:58:27Z</time>
      </trkpt>
      <trkpt lat="43.5467120" lon="-6.3627360">
        <ele>94.2</ele>
        <time>2021-07-21T12:58:30Z</time>
      </trkpt>
      <trkpt lat="43.5467600" lon="-6.3628260">
        <ele>94.2</ele>
        <time>2021-07-21T12:58:32Z</time>
      </trkpt>
      <trkpt lat="43.5468320" lon="-6.3629680">
        <ele>94.2</ele>
        <time>2021-07-21T12:58:35Z</time>
      </trkpt>
      <trkpt lat="43.5469760" lon="-6.3632590">
        <ele>93.6</ele>
        <time>2021-07-21T12:58:40Z</time>
      </trkpt>
      <trkpt lat="43.5469980" lon="-6.3633330">
        <ele>93.2</ele>
        <time>2021-07-21T12:58:41Z</time>
      </trkpt>
      <trkpt lat="43.5470130" lon="-6.3634010">
        <ele>92.8</ele>
        <time>2021-07-21T12:58:42Z</time>
      </trkpt>
      <trkpt lat="43.5470220" lon="-6.3634680">
        <ele>92.4</ele>
        <time>2021-07-21T12:58:43Z</time>
      </trkpt>
      <trkpt lat="43.5470270" lon="-6.3635260">
        <ele>91.8</ele>
        <time>2021-07-21T12:58:44Z</time>
      </trkpt>
      <trkpt lat="43.5470290" lon="-6.3635950">
        <ele>91.8</ele>
        <time>2021-07-21T12:58:45Z</time>
      </trkpt>
      <trkpt lat="43.5470250" lon="-6.3636690">
        <ele>91.4</ele>
        <time>2021-07-21T12:58:46Z</time>
      </trkpt>
      <trkpt lat="43.5470160" lon="-6.3637450">
        <ele>91.0</ele>
        <time>2021-07-21T12:58:47Z</time>
      </trkpt>
      <trkpt lat="43.5470010" lon="-6.3638230">
        <ele>90.6</ele>
        <time>2021-07-21T12:58:48Z</time>
      </trkpt>
      <trkpt lat="43.5469740" lon="-6.3638970">
        <ele>90.2</ele>
        <time>2021-07-21T12:58:49Z</time>
      </trkpt>
      <trkpt lat="43.5469330" lon="-6.3639630">
        <ele>89.8</ele>
        <time>2021-07-21T12:58:50Z</time>
      </trkpt>
      <trkpt lat="43.5468200" lon="-6.3640580">
        <ele>89.8</ele>
        <time>2021-07-21T12:58:52Z</time>
      </trkpt>
      <trkpt lat="43.5466850" lon="-6.3641400">
        <ele>89.8</ele>
        <time>2021-07-21T12:58:54Z</time>
      </trkpt>
      <trkpt lat="43.5466180" lon="-6.3641840">
        <ele>89.4</ele>
        <time>2021-07-21T12:58:55Z</time>
      </trkpt>
      <trkpt lat="43.5465480" lon="-6.3642320">
        <ele>88.8</ele>
        <time>2021-07-21T12:58:56Z</time>
      </trkpt>
      <trkpt lat="43.5464800" lon="-6.3642880">
        <ele>88.4</ele>
        <time>2021-07-21T12:58:57Z</time>
      </trkpt>
      <trkpt lat="43.5464120" lon="-6.3643440">
        <ele>88.0</ele>
        <time>2021-07-21T12:58:58Z</time>
      </trkpt>
      <trkpt lat="43.5463500" lon="-6.3644050">
        <ele>87.6</ele>
        <time>2021-07-21T12:58:59Z</time>
      </trkpt>
      <trkpt lat="43.5462250" lon="-6.3645270">
        <ele>87.2</ele>
        <time>2021-07-21T12:59:01Z</time>
      </trkpt>
      <trkpt lat="43.5461610" lon="-6.3645770">
        <ele>86.2</ele>
        <time>2021-07-21T12:59:02Z</time>
      </trkpt>
      <trkpt lat="43.5460920" lon="-6.3646250">
        <ele>85.8</ele>
        <time>2021-07-21T12:59:03Z</time>
      </trkpt>
      <trkpt lat="43.5460220" lon="-6.3646610">
        <ele>85.4</ele>
        <time>2021-07-21T12:59:04Z</time>
      </trkpt>
      <trkpt lat="43.5459520" lon="-6.3646960">
        <ele>85.0</ele>
        <time>2021-07-21T12:59:05Z</time>
      </trkpt>
      <trkpt lat="43.5458820" lon="-6.3647240">
        <ele>84.4</ele>
        <time>2021-07-21T12:59:06Z</time>
      </trkpt>
      <trkpt lat="43.5458110" lon="-6.3647490">
        <ele>84.0</ele>
        <time>2021-07-21T12:59:07Z</time>
      </trkpt>
      <trkpt lat="43.5457420" lon="-6.3647670">
        <ele>83.6</ele>
        <time>2021-07-21T12:59:08Z</time>
      </trkpt>
      <trkpt lat="43.5456700" lon="-6.3647850">
        <ele>83.0</ele>
        <time>2021-07-21T12:59:09Z</time>
      </trkpt>
      <trkpt lat="43.5455970" lon="-6.3647950">
        <ele>82.4</ele>
        <time>2021-07-21T12:59:10Z</time>
      </trkpt>
      <trkpt lat="43.5455200" lon="-6.3647910">
        <ele>82.0</ele>
        <time>2021-07-21T12:59:11Z</time>
      </trkpt>
      <trkpt lat="43.5454400" lon="-6.3647740">
        <ele>81.4</ele>
        <time>2021-07-21T12:59:12Z</time>
      </trkpt>
      <trkpt lat="43.5453620" lon="-6.3647530">
        <ele>80.8</ele>
        <time>2021-07-21T12:59:13Z</time>
      </trkpt>
      <trkpt lat="43.5452820" lon="-6.3647270">
        <ele>80.8</ele>
        <time>2021-07-21T12:59:14Z</time>
      </trkpt>
      <trkpt lat="43.5451160" lon="-6.3646680">
        <ele>80.4</ele>
        <time>2021-07-21T12:59:16Z</time>
      </trkpt>
      <trkpt lat="43.5450300" lon="-6.3646370">
        <ele>80.0</ele>
        <time>2021-07-21T12:59:17Z</time>
      </trkpt>
      <trkpt lat="43.5449430" lon="-6.3646030">
        <ele>79.4</ele>
        <time>2021-07-21T12:59:18Z</time>
      </trkpt>
      <trkpt lat="43.5448560" lon="-6.3645600">
        <ele>79.0</ele>
        <time>2021-07-21T12:59:19Z</time>
      </trkpt>
      <trkpt lat="43.5447740" lon="-6.3645180">
        <ele>78.6</ele>
        <time>2021-07-21T12:59:20Z</time>
      </trkpt>
      <trkpt lat="43.5446090" lon="-6.3644400">
        <ele>78.2</ele>
        <time>2021-07-21T12:59:22Z</time>
      </trkpt>
      <trkpt lat="43.5445270" lon="-6.3644070">
        <ele>77.8</ele>
        <time>2021-07-21T12:59:23Z</time>
      </trkpt>
      <trkpt lat="43.5444460" lon="-6.3643750">
        <ele>77.4</ele>
        <time>2021-07-21T12:59:24Z</time>
      </trkpt>
      <trkpt lat="43.5443650" lon="-6.3643480">
        <ele>76.8</ele>
        <time>2021-07-21T12:59:25Z</time>
      </trkpt>
      <trkpt lat="43.5442820" lon="-6.3643210">
        <ele>76.4</ele>
        <time>2021-07-21T12:59:26Z</time>
      </trkpt>
      <trkpt lat="43.5441990" lon="-6.3643000">
        <ele>76.0</ele>
        <time>2021-07-21T12:59:27Z</time>
      </trkpt>
      <trkpt lat="43.5441180" lon="-6.3642800">
        <ele>75.6</ele>
        <time>2021-07-21T12:59:28Z</time>
      </trkpt>
      <trkpt lat="43.5440390" lon="-6.3642640">
        <ele>75.0</ele>
        <time>2021-07-21T12:59:29Z</time>
      </trkpt>
      <trkpt lat="43.5439540" lon="-6.3642520">
        <ele>74.6</ele>
        <time>2021-07-21T12:59:30Z</time>
      </trkpt>
      <trkpt lat="43.5438730" lon="-6.3642430">
        <ele>74.0</ele>
        <time>2021-07-21T12:59:31Z</time>
      </trkpt>
      <trkpt lat="43.5437950" lon="-6.3642420">
        <ele>73.6</ele>
        <time>2021-07-21T12:59:32Z</time>
      </trkpt>
      <trkpt lat="43.5437270" lon="-6.3642470">
        <ele>73.0</ele>
        <time>2021-07-21T12:59:33Z</time>
      </trkpt>
      <trkpt lat="43.5436640" lon="-6.3642570">
        <ele>72.4</ele>
        <time>2021-07-21T12:59:34Z</time>
      </trkpt>
      <trkpt lat="43.5436000" lon="-6.3642750">
        <ele>71.8</ele>
        <time>2021-07-21T12:59:35Z</time>
      </trkpt>
      <trkpt lat="43.5435430" lon="-6.3643090">
        <ele>71.2</ele>
        <time>2021-07-21T12:59:36Z</time>
      </trkpt>
      <trkpt lat="43.5435000" lon="-6.3643560">
        <ele>70.6</ele>
        <time>2021-07-21T12:59:37Z</time>
      </trkpt>
      <trkpt lat="43.5434660" lon="-6.3644020">
        <ele>69.8</ele>
        <time>2021-07-21T12:59:38Z</time>
      </trkpt>
      <trkpt lat="43.5434540" lon="-6.3645350">
        <ele>69.8</ele>
        <time>2021-07-21T12:59:40Z</time>
      </trkpt>
      <trkpt lat="43.5434570" lon="-6.3646690">
        <ele>69.4</ele>
        <time>2021-07-21T12:59:42Z</time>
      </trkpt>
      <trkpt lat="43.5434630" lon="-6.3647360">
        <ele>69.0</ele>
        <time>2021-07-21T12:59:43Z</time>
      </trkpt>
      <trkpt lat="43.5434800" lon="-6.3647870">
        <ele>68.6</ele>
        <time>2021-07-21T12:59:44Z</time>
      </trkpt>
      <trkpt lat="43.5434920" lon="-6.3648280">
        <ele>68.2</ele>
        <time>2021-07-21T12:59:45Z</time>
      </trkpt>
      <trkpt lat="43.5435110" lon="-6.3648730">
        <ele>67.8</ele>
        <time>2021-07-21T12:59:46Z</time>
      </trkpt>
      <trkpt lat="43.5435780" lon="-6.3649430">
        <ele>67.8</ele>
        <time>2021-07-21T12:59:48Z</time>
      </trkpt>
      <trkpt lat="43.5436140" lon="-6.3649720">
        <ele>67.8</ele>
        <time>2021-07-21T12:59:49Z</time>
      </trkpt>
      <trkpt lat="43.5436500" lon="-6.3650040">
        <ele>67.8</ele>
        <time>2021-07-21T12:59:50Z</time>
      </trkpt>
      <trkpt lat="43.5436790" lon="-6.3650300">
        <ele>67.8</ele>
        <time>2021-07-21T12:59:51Z</time>
      </trkpt>
      <trkpt lat="43.5437470" lon="-6.3650850">
        <ele>67.8</ele>
        <time>2021-07-21T12:59:53Z</time>
      </trkpt>
      <trkpt lat="43.5438140" lon="-6.3651380">
        <ele>67.8</ele>
        <time>2021-07-21T12:59:55Z</time>
      </trkpt>
      <trkpt lat="43.5438520" lon="-6.3651650">
        <ele>67.8</ele>
        <time>2021-07-21T12:59:56Z</time>
      </trkpt>
      <trkpt lat="43.5439050" lon="-6.3652210">
        <ele>67.8</ele>
        <time>2021-07-21T12:59:58Z</time>
      </trkpt>
      <trkpt lat="43.5439700" lon="-6.3652680">
        <ele>67.8</ele>
        <time>2021-07-21T13:00:00Z</time>
      </trkpt>
      <trkpt lat="43.5440020" lon="-6.3652910">
        <ele>67.8</ele>
        <time>2021-07-21T13:00:01Z</time>
      </trkpt>
      <trkpt lat="43.5440960" lon="-6.3653680">
        <ele>67.8</ele>
        <time>2021-07-21T13:00:04Z</time>
      </trkpt>
      <trkpt lat="43.5441290" lon="-6.3653940">
        <ele>68.4</ele>
        <time>2021-07-21T13:00:05Z</time>
      </trkpt>
      <trkpt lat="43.5441620" lon="-6.3654200">
        <ele>68.8</ele>
        <time>2021-07-21T13:00:06Z</time>
      </trkpt>
      <trkpt lat="43.5441970" lon="-6.3654390">
        <ele>69.2</ele>
        <time>2021-07-21T13:00:07Z</time>
      </trkpt>
      <trkpt lat="43.5442310" lon="-6.3654590">
        <ele>69.6</ele>
        <time>2021-07-21T13:00:08Z</time>
      </trkpt>
      <trkpt lat="43.5442700" lon="-6.3654830">
        <ele>70.0</ele>
        <time>2021-07-21T13:00:09Z</time>
      </trkpt>
      <trkpt lat="43.5443040" lon="-6.3655010">
        <ele>70.0</ele>
        <time>2021-07-21T13:00:10Z</time>
      </trkpt>
      <trkpt lat="43.5444600" lon="-6.3655910">
        <ele>70.0</ele>
        <time>2021-07-21T13:00:15Z</time>
      </trkpt>
      <trkpt lat="43.5444940" lon="-6.3656140">
        <ele>70.0</ele>
        <time>2021-07-21T13:00:16Z</time>
      </trkpt>
      <trkpt lat="43.5445620" lon="-6.3656560">
        <ele>70.4</ele>
        <time>2021-07-21T13:00:18Z</time>
      </trkpt>
      <trkpt lat="43.5445950" lon="-6.3656730">
        <ele>70.8</ele>
        <time>2021-07-21T13:00:19Z</time>
      </trkpt>
      <trkpt lat="43.5446280" lon="-6.3656940">
        <ele>71.2</ele>
        <time>2021-07-21T13:00:20Z</time>
      </trkpt>
      <trkpt lat="43.5446570" lon="-6.3657070">
        <ele>71.8</ele>
        <time>2021-07-21T13:00:21Z</time>
      </trkpt>
      <trkpt lat="43.5446850" lon="-6.3657200">
        <ele>72.2</ele>
        <time>2021-07-21T13:00:22Z</time>
      </trkpt>
      <trkpt lat="43.5447470" lon="-6.3657530">
        <ele>72.2</ele>
        <time>2021-07-21T13:00:24Z</time>
      </trkpt>
      <trkpt lat="43.5449140" lon="-6.3659300">
        <ele>72.2</ele>
        <time>2021-07-21T13:00:31Z</time>
      </trkpt>
      <trkpt lat="43.5450780" lon="-6.3661600">
        <ele>72.2</ele>
        <time>2021-07-21T13:00:39Z</time>
      </trkpt>
      <trkpt lat="43.5451020" lon="-6.3661920">
        <ele>72.6</ele>
        <time>2021-07-21T13:00:40Z</time>
      </trkpt>
      <trkpt lat="43.5451240" lon="-6.3662280">
        <ele>73.4</ele>
        <time>2021-07-21T13:00:41Z</time>
      </trkpt>
      <trkpt lat="43.5451550" lon="-6.3662610">
        <ele>73.8</ele>
        <time>2021-07-21T13:00:42Z</time>
      </trkpt>
      <trkpt lat="43.5451750" lon="-6.3662850">
        <ele>74.2</ele>
        <time>2021-07-21T13:00:43Z</time>
      </trkpt>
      <trkpt lat="43.5452920" lon="-6.3664080">
        <ele>74.2</ele>
        <time>2021-07-21T13:00:48Z</time>
      </trkpt>
      <trkpt lat="43.5455110" lon="-6.3665790">
        <ele>74.2</ele>
        <time>2021-07-21T13:00:56Z</time>
      </trkpt>
      <trkpt lat="43.5455400" lon="-6.3666010">
        <ele>74.6</ele>
        <time>2021-07-21T13:00:57Z</time>
      </trkpt>
      <trkpt lat="43.5455680" lon="-6.3666240">
        <ele>75.0</ele>
        <time>2021-07-21T13:00:58Z</time>
      </trkpt>
      <trkpt lat="43.5455970" lon="-6.3666450">
        <ele>75.4</ele>
        <time>2021-07-21T13:00:59Z</time>
      </trkpt>
      <trkpt lat="43.5456260" lon="-6.3666650">
        <ele>75.8</ele>
        <time>2021-07-21T13:01:00Z</time>
      </trkpt>
      <trkpt lat="43.5456540" lon="-6.3666810">
        <ele>76.2</ele>
        <time>2021-07-21T13:01:01Z</time>
      </trkpt>
      <trkpt lat="43.5457480" lon="-6.3667330">
        <ele>76.2</ele>
        <time>2021-07-21T13:01:04Z</time>
      </trkpt>
      <trkpt lat="43.5459710" lon="-6.3668810">
        <ele>76.2</ele>
        <time>2021-07-21T13:01:12Z</time>
      </trkpt>
      <trkpt lat="43.5459970" lon="-6.3669010">
        <ele>76.2</ele>
        <time>2021-07-21T13:01:13Z</time>
      </trkpt>
      <trkpt lat="43.5462250" lon="-6.3670470">
        <ele>76.2</ele>
        <time>2021-07-21T13:01:21Z</time>
      </trkpt>
      <trkpt lat="43.5463370" lon="-6.3671100">
        <ele>76.6</ele>
        <time>2021-07-21T13:01:25Z</time>
      </trkpt>
      <trkpt lat="43.5463660" lon="-6.3671300">
        <ele>77.0</ele>
        <time>2021-07-21T13:01:26Z</time>
      </trkpt>
      <trkpt lat="43.5463930" lon="-6.3671480">
        <ele>77.4</ele>
        <time>2021-07-21T13:01:27Z</time>
      </trkpt>
      <trkpt lat="43.5464210" lon="-6.3671660">
        <ele>77.8</ele>
        <time>2021-07-21T13:01:28Z</time>
      </trkpt>
      <trkpt lat="43.5464510" lon="-6.3671840">
        <ele>78.2</ele>
        <time>2021-07-21T13:01:29Z</time>
      </trkpt>
      <trkpt lat="43.5465490" lon="-6.3672420">
        <ele>78.2</ele>
        <time>2021-07-21T13:01:32Z</time>
      </trkpt>
      <trkpt lat="43.5468310" lon="-6.3674190">
        <ele>78.2</ele>
        <time>2021-07-21T13:01:40Z</time>
      </trkpt>
      <trkpt lat="43.5469820" lon="-6.3675210">
        <ele>78.2</ele>
        <time>2021-07-21T13:01:44Z</time>
      </trkpt>
      <trkpt lat="43.5471530" lon="-6.3676330">
        <ele>78.2</ele>
        <time>2021-07-21T13:01:48Z</time>
      </trkpt>
      <trkpt lat="43.5475270" lon="-6.3678950">
        <ele>78.2</ele>
        <time>2021-07-21T13:01:56Z</time>
      </trkpt>
      <trkpt lat="43.5478020" lon="-6.3681270">
        <ele>78.2</ele>
        <time>2021-07-21T13:02:02Z</time>
      </trkpt>
      <trkpt lat="43.5478970" lon="-6.3682060">
        <ele>78.2</ele>
        <time>2021-07-21T13:02:04Z</time>
      </trkpt>
      <trkpt lat="43.5479880" lon="-6.3682920">
        <ele>78.2</ele>
        <time>2021-07-21T13:02:06Z</time>
      </trkpt>
      <trkpt lat="43.5480320" lon="-6.3683380">
        <ele>77.8</ele>
        <time>2021-07-21T13:02:07Z</time>
      </trkpt>
      <trkpt lat="43.5480750" lon="-6.3683860">
        <ele>77.4</ele>
        <time>2021-07-21T13:02:08Z</time>
      </trkpt>
      <trkpt lat="43.5481180" lon="-6.3684380">
        <ele>76.8</ele>
        <time>2021-07-21T13:02:09Z</time>
      </trkpt>
      <trkpt lat="43.5481580" lon="-6.3684960">
        <ele>76.4</ele>
        <time>2021-07-21T13:02:10Z</time>
      </trkpt>
      <trkpt lat="43.5481960" lon="-6.3685610">
        <ele>76.0</ele>
        <time>2021-07-21T13:02:11Z</time>
      </trkpt>
      <trkpt lat="43.5482270" lon="-6.3686310">
        <ele>76.0</ele>
        <time>2021-07-21T13:02:12Z</time>
      </trkpt>
      <trkpt lat="43.5482710" lon="-6.3687890">
        <ele>76.0</ele>
        <time>2021-07-21T13:02:14Z</time>
      </trkpt>
      <trkpt lat="43.5482820" lon="-6.3688750">
        <ele>76.0</ele>
        <time>2021-07-21T13:02:15Z</time>
      </trkpt>
      <trkpt lat="43.5482880" lon="-6.3689640">
        <ele>76.0</ele>
        <time>2021-07-21T13:02:16Z</time>
      </trkpt>
      <trkpt lat="43.5482930" lon="-6.3690520">
        <ele>75.6</ele>
        <time>2021-07-21T13:02:17Z</time>
      </trkpt>
      <trkpt lat="43.5482970" lon="-6.3691390">
        <ele>75.2</ele>
        <time>2021-07-21T13:02:18Z</time>
      </trkpt>
      <trkpt lat="43.5483000" lon="-6.3692260">
        <ele>74.2</ele>
        <time>2021-07-21T13:02:19Z</time>
      </trkpt>
      <trkpt lat="43.5483010" lon="-6.3693100">
        <ele>73.8</ele>
        <time>2021-07-21T13:02:20Z</time>
      </trkpt>
      <trkpt lat="43.5483060" lon="-6.3694840">
        <ele>73.8</ele>
        <time>2021-07-21T13:02:22Z</time>
      </trkpt>
      <trkpt lat="43.5482970" lon="-6.3697270">
        <ele>73.8</ele>
        <time>2021-07-21T13:02:25Z</time>
      </trkpt>
      <trkpt lat="43.5482450" lon="-6.3698760">
        <ele>73.4</ele>
        <time>2021-07-21T13:02:27Z</time>
      </trkpt>
      <trkpt lat="43.5482020" lon="-6.3699370">
        <ele>73.0</ele>
        <time>2021-07-21T13:02:28Z</time>
      </trkpt>
      <trkpt lat="43.5481500" lon="-6.3699890">
        <ele>72.6</ele>
        <time>2021-07-21T13:02:29Z</time>
      </trkpt>
      <trkpt lat="43.5480930" lon="-6.3700380">
        <ele>72.2</ele>
        <time>2021-07-21T13:02:30Z</time>
      </trkpt>
      <trkpt lat="43.5480350" lon="-6.3700820">
        <ele>71.8</ele>
        <time>2021-07-21T13:02:31Z</time>
      </trkpt>
      <trkpt lat="43.5479080" lon="-6.3701500">
        <ele>71.8</ele>
        <time>2021-07-21T13:02:33Z</time>
      </trkpt>
      <trkpt lat="43.5478390" lon="-6.3701730">
        <ele>71.8</ele>
        <time>2021-07-21T13:02:34Z</time>
      </trkpt>
      <trkpt lat="43.5477700" lon="-6.3701890">
        <ele>71.4</ele>
        <time>2021-07-21T13:02:35Z</time>
      </trkpt>
      <trkpt lat="43.5477010" lon="-6.3701990">
        <ele>70.8</ele>
        <time>2021-07-21T13:02:36Z</time>
      </trkpt>
      <trkpt lat="43.5476280" lon="-6.3702050">
        <ele>70.4</ele>
        <time>2021-07-21T13:02:37Z</time>
      </trkpt>
      <trkpt lat="43.5475530" lon="-6.3702070">
        <ele>69.8</ele>
        <time>2021-07-21T13:02:38Z</time>
      </trkpt>
      <trkpt lat="43.5474790" lon="-6.3702050">
        <ele>69.4</ele>
        <time>2021-07-21T13:02:39Z</time>
      </trkpt>
      <trkpt lat="43.5474070" lon="-6.3702020">
        <ele>69.0</ele>
        <time>2021-07-21T13:02:40Z</time>
      </trkpt>
      <trkpt lat="43.5473360" lon="-6.3701970">
        <ele>68.4</ele>
        <time>2021-07-21T13:02:41Z</time>
      </trkpt>
      <trkpt lat="43.5472660" lon="-6.3701910">
        <ele>68.0</ele>
        <time>2021-07-21T13:02:42Z</time>
      </trkpt>
      <trkpt lat="43.5471990" lon="-6.3701860">
        <ele>67.6</ele>
        <time>2021-07-21T13:02:43Z</time>
      </trkpt>
      <trkpt lat="43.5471330" lon="-6.3701820">
        <ele>66.6</ele>
        <time>2021-07-21T13:02:44Z</time>
      </trkpt>
      <trkpt lat="43.5470640" lon="-6.3701750">
        <ele>66.0</ele>
        <time>2021-07-21T13:02:45Z</time>
      </trkpt>
      <trkpt lat="43.5469980" lon="-6.3701770">
        <ele>65.6</ele>
        <time>2021-07-21T13:02:46Z</time>
      </trkpt>
      <trkpt lat="43.5469270" lon="-6.3701800">
        <ele>65.2</ele>
        <time>2021-07-21T13:02:47Z</time>
      </trkpt>
      <trkpt lat="43.5468560" lon="-6.3701850">
        <ele>64.6</ele>
        <time>2021-07-21T13:02:48Z</time>
      </trkpt>
      <trkpt lat="43.5467090" lon="-6.3701930">
        <ele>64.2</ele>
        <time>2021-07-21T13:02:50Z</time>
      </trkpt>
      <trkpt lat="43.5466370" lon="-6.3701970">
        <ele>63.8</ele>
        <time>2021-07-21T13:02:51Z</time>
      </trkpt>
      <trkpt lat="43.5465680" lon="-6.3702080">
        <ele>63.4</ele>
        <time>2021-07-21T13:02:52Z</time>
      </trkpt>
      <trkpt lat="43.5465040" lon="-6.3702270">
        <ele>63.0</ele>
        <time>2021-07-21T13:02:53Z</time>
      </trkpt>
      <trkpt lat="43.5464460" lon="-6.3702590">
        <ele>62.6</ele>
        <time>2021-07-21T13:02:54Z</time>
      </trkpt>
      <trkpt lat="43.5463610" lon="-6.3703700">
        <ele>62.2</ele>
        <time>2021-07-21T13:02:56Z</time>
      </trkpt>
      <trkpt lat="43.5463400" lon="-6.3704490">
        <ele>61.8</ele>
        <time>2021-07-21T13:02:57Z</time>
      </trkpt>
      <trkpt lat="43.5463340" lon="-6.3705340">
        <ele>61.4</ele>
        <time>2021-07-21T13:02:58Z</time>
      </trkpt>
      <trkpt lat="43.5463460" lon="-6.3706250">
        <ele>61.0</ele>
        <time>2021-07-21T13:02:59Z</time>
      </trkpt>
      <trkpt lat="43.5463790" lon="-6.3707020">
        <ele>60.4</ele>
        <time>2021-07-21T13:03:00Z</time>
      </trkpt>
      <trkpt lat="43.5464240" lon="-6.3707660">
        <ele>60.0</ele>
        <time>2021-07-21T13:03:01Z</time>
      </trkpt>
      <trkpt lat="43.5464790" lon="-6.3708170">
        <ele>59.4</ele>
        <time>2021-07-21T13:03:02Z</time>
      </trkpt>
      <trkpt lat="43.5465410" lon="-6.3708540">
        <ele>58.8</ele>
        <time>2021-07-21T13:03:03Z</time>
      </trkpt>
      <trkpt lat="43.5466070" lon="-6.3708770">
        <ele>58.4</ele>
        <time>2021-07-21T13:03:04Z</time>
      </trkpt>
      <trkpt lat="43.5467400" lon="-6.3709370">
        <ele>58.4</ele>
        <time>2021-07-21T13:03:06Z</time>
      </trkpt>
      <trkpt lat="43.5468580" lon="-6.3710350">
        <ele>58.4</ele>
        <time>2021-07-21T13:03:08Z</time>
      </trkpt>
      <trkpt lat="43.5469700" lon="-6.3711630">
        <ele>58.0</ele>
        <time>2021-07-21T13:03:10Z</time>
      </trkpt>
      <trkpt lat="43.5470260" lon="-6.3712360">
        <ele>57.4</ele>
        <time>2021-07-21T13:03:11Z</time>
      </trkpt>
      <trkpt lat="43.5470810" lon="-6.3713090">
        <ele>57.0</ele>
        <time>2021-07-21T13:03:12Z</time>
      </trkpt>
      <trkpt lat="43.5471380" lon="-6.3713830">
        <ele>56.6</ele>
        <time>2021-07-21T13:03:13Z</time>
      </trkpt>
      <trkpt lat="43.5471910" lon="-6.3714530">
        <ele>56.0</ele>
        <time>2021-07-21T13:03:14Z</time>
      </trkpt>
      <trkpt lat="43.5472390" lon="-6.3715220">
        <ele>55.6</ele>
        <time>2021-07-21T13:03:15Z</time>
      </trkpt>
      <trkpt lat="43.5472780" lon="-6.3715950">
        <ele>55.2</ele>
        <time>2021-07-21T13:03:16Z</time>
      </trkpt>
      <trkpt lat="43.5473050" lon="-6.3716750">
        <ele>54.6</ele>
        <time>2021-07-21T13:03:17Z</time>
      </trkpt>
      <trkpt lat="43.5473180" lon="-6.3717580">
        <ele>54.2</ele>
        <time>2021-07-21T13:03:18Z</time>
      </trkpt>
      <trkpt lat="43.5473170" lon="-6.3718410">
        <ele>53.6</ele>
        <time>2021-07-21T13:03:19Z</time>
      </trkpt>
      <trkpt lat="43.5472710" lon="-6.3719890">
        <ele>53.6</ele>
        <time>2021-07-21T13:03:21Z</time>
      </trkpt>
      <trkpt lat="43.5472270" lon="-6.3720520">
        <ele>53.2</ele>
        <time>2021-07-21T13:03:22Z</time>
      </trkpt>
      <trkpt lat="43.5471780" lon="-6.3721050">
        <ele>52.8</ele>
        <time>2021-07-21T13:03:23Z</time>
      </trkpt>
      <trkpt lat="43.5471250" lon="-6.3721550">
        <ele>52.4</ele>
        <time>2021-07-21T13:03:24Z</time>
      </trkpt>
      <trkpt lat="43.5470660" lon="-6.3721970">
        <ele>52.0</ele>
        <time>2021-07-21T13:03:25Z</time>
      </trkpt>
      <trkpt lat="43.5469990" lon="-6.3722310">
        <ele>51.6</ele>
        <time>2021-07-21T13:03:26Z</time>
      </trkpt>
      <trkpt lat="43.5469280" lon="-6.3722600">
        <ele>51.6</ele>
        <time>2021-07-21T13:03:27Z</time>
      </trkpt>
      <trkpt lat="43.5466970" lon="-6.3723580">
        <ele>51.2</ele>
        <time>2021-07-21T13:03:30Z</time>
      </trkpt>
      <trkpt lat="43.5466170" lon="-6.3723890">
        <ele>50.8</ele>
        <time>2021-07-21T13:03:31Z</time>
      </trkpt>
      <trkpt lat="43.5465350" lon="-6.3724210">
        <ele>50.4</ele>
        <time>2021-07-21T13:03:32Z</time>
      </trkpt>
      <trkpt lat="43.5464530" lon="-6.3724560">
        <ele>49.8</ele>
        <time>2021-07-21T13:03:33Z</time>
      </trkpt>
      <trkpt lat="43.5463720" lon="-6.3724940">
        <ele>49.4</ele>
        <time>2021-07-21T13:03:34Z</time>
      </trkpt>
      <trkpt lat="43.5462920" lon="-6.3725360">
        <ele>49.0</ele>
        <time>2021-07-21T13:03:35Z</time>
      </trkpt>
      <trkpt lat="43.5462080" lon="-6.3725780">
        <ele>48.6</ele>
        <time>2021-07-21T13:03:36Z</time>
      </trkpt>
      <trkpt lat="43.5461320" lon="-6.3726210">
        <ele>48.2</ele>
        <time>2021-07-21T13:03:37Z</time>
      </trkpt>
      <trkpt lat="43.5460560" lon="-6.3726640">
        <ele>47.8</ele>
        <time>2021-07-21T13:03:38Z</time>
      </trkpt>
      <trkpt lat="43.5459810" lon="-6.3727020">
        <ele>47.4</ele>
        <time>2021-07-21T13:03:39Z</time>
      </trkpt>
      <trkpt lat="43.5458330" lon="-6.3727650">
        <ele>47.0</ele>
        <time>2021-07-21T13:03:41Z</time>
      </trkpt>
      <trkpt lat="43.5457590" lon="-6.3727840">
        <ele>46.4</ele>
        <time>2021-07-21T13:03:42Z</time>
      </trkpt>
      <trkpt lat="43.5456810" lon="-6.3727930">
        <ele>46.0</ele>
        <time>2021-07-21T13:03:43Z</time>
      </trkpt>
      <trkpt lat="43.5456060" lon="-6.3727910">
        <ele>45.6</ele>
        <time>2021-07-21T13:03:44Z</time>
      </trkpt>
      <trkpt lat="43.5455330" lon="-6.3727820">
        <ele>45.2</ele>
        <time>2021-07-21T13:03:45Z</time>
      </trkpt>
      <trkpt lat="43.5453960" lon="-6.3727350">
        <ele>45.2</ele>
        <time>2021-07-21T13:03:47Z</time>
      </trkpt>
      <trkpt lat="43.5453320" lon="-6.3727060">
        <ele>44.8</ele>
        <time>2021-07-21T13:03:48Z</time>
      </trkpt>
      <trkpt lat="43.5452710" lon="-6.3726790">
        <ele>44.4</ele>
        <time>2021-07-21T13:03:49Z</time>
      </trkpt>
      <trkpt lat="43.5452120" lon="-6.3726600">
        <ele>44.0</ele>
        <time>2021-07-21T13:03:50Z</time>
      </trkpt>
      <trkpt lat="43.5451540" lon="-6.3726510">
        <ele>43.6</ele>
        <time>2021-07-21T13:03:51Z</time>
      </trkpt>
      <trkpt lat="43.5451000" lon="-6.3726530">
        <ele>43.2</ele>
        <time>2021-07-21T13:03:52Z</time>
      </trkpt>
      <trkpt lat="43.5449210" lon="-6.3727730">
        <ele>42.6</ele>
        <time>2021-07-21T13:03:56Z</time>
      </trkpt>
      <trkpt lat="43.5449260" lon="-6.3728630">
        <ele>42.2</ele>
        <time>2021-07-21T13:03:57Z</time>
      </trkpt>
      <trkpt lat="43.5449520" lon="-6.3729580">
        <ele>41.8</ele>
        <time>2021-07-21T13:03:58Z</time>
      </trkpt>
      <trkpt lat="43.5449900" lon="-6.3730450">
        <ele>40.8</ele>
        <time>2021-07-21T13:03:59Z</time>
      </trkpt>
      <trkpt lat="43.5450950" lon="-6.3732110">
        <ele>40.8</ele>
        <time>2021-07-21T13:04:01Z</time>
      </trkpt>
      <trkpt lat="43.5453030" lon="-6.3733910">
        <ele>40.4</ele>
        <time>2021-07-21T13:04:04Z</time>
      </trkpt>
      <trkpt lat="43.5453810" lon="-6.3734320">
        <ele>40.0</ele>
        <time>2021-07-21T13:04:05Z</time>
      </trkpt>
      <trkpt lat="43.5454620" lon="-6.3734600">
        <ele>39.6</ele>
        <time>2021-07-21T13:04:06Z</time>
      </trkpt>
      <trkpt lat="43.5455480" lon="-6.3734860">
        <ele>39.2</ele>
        <time>2021-07-21T13:04:07Z</time>
      </trkpt>
      <trkpt lat="43.5456330" lon="-6.3735080">
        <ele>38.8</ele>
        <time>2021-07-21T13:04:08Z</time>
      </trkpt>
      <trkpt lat="43.5457160" lon="-6.3735330">
        <ele>38.4</ele>
        <time>2021-07-21T13:04:09Z</time>
      </trkpt>
      <trkpt lat="43.5458000" lon="-6.3735610">
        <ele>38.0</ele>
        <time>2021-07-21T13:04:10Z</time>
      </trkpt>
      <trkpt lat="43.5458860" lon="-6.3735870">
        <ele>37.6</ele>
        <time>2021-07-21T13:04:11Z</time>
      </trkpt>
      <trkpt lat="43.5459690" lon="-6.3736120">
        <ele>37.2</ele>
        <time>2021-07-21T13:04:12Z</time>
      </trkpt>
      <trkpt lat="43.5460510" lon="-6.3736330">
        <ele>36.8</ele>
        <time>2021-07-21T13:04:13Z</time>
      </trkpt>
      <trkpt lat="43.5461350" lon="-6.3736450">
        <ele>36.2</ele>
        <time>2021-07-21T13:04:14Z</time>
      </trkpt>
      <trkpt lat="43.5462260" lon="-6.3736480">
        <ele>35.8</ele>
        <time>2021-07-21T13:04:15Z</time>
      </trkpt>
      <trkpt lat="43.5463150" lon="-6.3736370">
        <ele>35.0</ele>
        <time>2021-07-21T13:04:16Z</time>
      </trkpt>
      <trkpt lat="43.5464020" lon="-6.3736110">
        <ele>34.4</ele>
        <time>2021-07-21T13:04:17Z</time>
      </trkpt>
      <trkpt lat="43.5464860" lon="-6.3735750">
        <ele>33.6</ele>
        <time>2021-07-21T13:04:18Z</time>
      </trkpt>
      <trkpt lat="43.5465720" lon="-6.3735310">
        <ele>32.8</ele>
        <time>2021-07-21T13:04:19Z</time>
      </trkpt>
      <trkpt lat="43.5466590" lon="-6.3734990">
        <ele>32.2</ele>
        <time>2021-07-21T13:04:20Z</time>
      </trkpt>
      <trkpt lat="43.5468350" lon="-6.3734670">
        <ele>32.2</ele>
        <time>2021-07-21T13:04:22Z</time>
      </trkpt>
      <trkpt lat="43.5469160" lon="-6.3734700">
        <ele>31.6</ele>
        <time>2021-07-21T13:04:23Z</time>
      </trkpt>
      <trkpt lat="43.5469900" lon="-6.3734920">
        <ele>31.2</ele>
        <time>2021-07-21T13:04:24Z</time>
      </trkpt>
      <trkpt lat="43.5470590" lon="-6.3735410">
        <ele>30.8</ele>
        <time>2021-07-21T13:04:25Z</time>
      </trkpt>
      <trkpt lat="43.5471160" lon="-6.3736100">
        <ele>30.2</ele>
        <time>2021-07-21T13:04:26Z</time>
      </trkpt>
      <trkpt lat="43.5471540" lon="-6.3736880">
        <ele>29.6</ele>
        <time>2021-07-21T13:04:27Z</time>
      </trkpt>
      <trkpt lat="43.5471780" lon="-6.3737780">
        <ele>28.8</ele>
        <time>2021-07-21T13:04:28Z</time>
      </trkpt>
      <trkpt lat="43.5471970" lon="-6.3738790">
        <ele>28.2</ele>
        <time>2021-07-21T13:04:29Z</time>
      </trkpt>
      <trkpt lat="43.5472170" lon="-6.3739910">
        <ele>27.6</ele>
        <time>2021-07-21T13:04:30Z</time>
      </trkpt>
      <trkpt lat="43.5472450" lon="-6.3740970">
        <ele>27.0</ele>
        <time>2021-07-21T13:04:31Z</time>
      </trkpt>
      <trkpt lat="43.5472900" lon="-6.3742050">
        <ele>26.4</ele>
        <time>2021-07-21T13:04:32Z</time>
      </trkpt>
      <trkpt lat="43.5473450" lon="-6.3742990">
        <ele>25.6</ele>
        <time>2021-07-21T13:04:33Z</time>
      </trkpt>
      <trkpt lat="43.5474130" lon="-6.3743770">
        <ele>25.0</ele>
        <time>2021-07-21T13:04:34Z</time>
      </trkpt>
      <trkpt lat="43.5474850" lon="-6.3744440">
        <ele>24.6</ele>
        <time>2021-07-21T13:04:35Z</time>
      </trkpt>
      <trkpt lat="43.5475530" lon="-6.3745100">
        <ele>24.0</ele>
        <time>2021-07-21T13:04:36Z</time>
      </trkpt>
      <trkpt lat="43.5476190" lon="-6.3745850">
        <ele>23.4</ele>
        <time>2021-07-21T13:04:37Z</time>
      </trkpt>
      <trkpt lat="43.5476760" lon="-6.3746580">
        <ele>22.8</ele>
        <time>2021-07-21T13:04:38Z</time>
      </trkpt>
      <trkpt lat="43.5477710" lon="-6.3748010">
        <ele>22.8</ele>
        <time>2021-07-21T13:04:40Z</time>
      </trkpt>
      <trkpt lat="43.5478080" lon="-6.3748680">
        <ele>22.4</ele>
        <time>2021-07-21T13:04:41Z</time>
      </trkpt>
      <trkpt lat="43.5478410" lon="-6.3749370">
        <ele>21.8</ele>
        <time>2021-07-21T13:04:42Z</time>
      </trkpt>
      <trkpt lat="43.5478660" lon="-6.3750140">
        <ele>21.4</ele>
        <time>2021-07-21T13:04:43Z</time>
      </trkpt>
      <trkpt lat="43.5478790" lon="-6.3750960">
        <ele>21.0</ele>
        <time>2021-07-21T13:04:44Z</time>
      </trkpt>
      <trkpt lat="43.5478800" lon="-6.3751860">
        <ele>20.4</ele>
        <time>2021-07-21T13:04:45Z</time>
      </trkpt>
      <trkpt lat="43.5478410" lon="-6.3753430">
        <ele>20.0</ele>
        <time>2021-07-21T13:04:47Z</time>
      </trkpt>
      <trkpt lat="43.5478060" lon="-6.3754260">
        <ele>19.0</ele>
        <time>2021-07-21T13:04:48Z</time>
      </trkpt>
      <trkpt lat="43.5477660" lon="-6.3755130">
        <ele>18.4</ele>
        <time>2021-07-21T13:04:49Z</time>
      </trkpt>
      <trkpt lat="43.5477270" lon="-6.3756040">
        <ele>18.0</ele>
        <time>2021-07-21T13:04:50Z</time>
      </trkpt>
      <trkpt lat="43.5476930" lon="-6.3756980">
        <ele>17.6</ele>
        <time>2021-07-21T13:04:51Z</time>
      </trkpt>
      <trkpt lat="43.5476650" lon="-6.3757960">
        <ele>17.2</ele>
        <time>2021-07-21T13:04:52Z</time>
      </trkpt>
      <trkpt lat="43.5476410" lon="-6.3759000">
        <ele>16.8</ele>
        <time>2021-07-21T13:04:53Z</time>
      </trkpt>
      <trkpt lat="43.5476180" lon="-6.3760070">
        <ele>16.4</ele>
        <time>2021-07-21T13:04:54Z</time>
      </trkpt>
      <trkpt lat="43.5475990" lon="-6.3761140">
        <ele>16.0</ele>
        <time>2021-07-21T13:04:55Z</time>
      </trkpt>
      <trkpt lat="43.5475890" lon="-6.3762270">
        <ele>16.0</ele>
        <time>2021-07-21T13:04:56Z</time>
      </trkpt>
      <trkpt lat="43.5475940" lon="-6.3764520">
        <ele>15.4</ele>
        <time>2021-07-21T13:04:58Z</time>
      </trkpt>
      <trkpt lat="43.5476060" lon="-6.3765630">
        <ele>15.0</ele>
        <time>2021-07-21T13:04:59Z</time>
      </trkpt>
      <trkpt lat="43.5476260" lon="-6.3766780">
        <ele>14.6</ele>
        <time>2021-07-21T13:05:00Z</time>
      </trkpt>
      <trkpt lat="43.5476490" lon="-6.3767830">
        <ele>14.0</ele>
        <time>2021-07-21T13:05:01Z</time>
      </trkpt>
      <trkpt lat="43.5476780" lon="-6.3768860">
        <ele>13.6</ele>
        <time>2021-07-21T13:05:02Z</time>
      </trkpt>
      <trkpt lat="43.5477470" lon="-6.3770990">
        <ele>13.2</ele>
        <time>2021-07-21T13:05:04Z</time>
      </trkpt>
      <trkpt lat="43.5477800" lon="-6.3772070">
        <ele>12.6</ele>
        <time>2021-07-21T13:05:05Z</time>
      </trkpt>
      <trkpt lat="43.5478090" lon="-6.3773230">
        <ele>12.2</ele>
        <time>2021-07-21T13:05:06Z</time>
      </trkpt>
      <trkpt lat="43.5478380" lon="-6.3774420">
        <ele>11.8</ele>
        <time>2021-07-21T13:05:07Z</time>
      </trkpt>
      <trkpt lat="43.5478600" lon="-6.3775720">
        <ele>11.2</ele>
        <time>2021-07-21T13:05:08Z</time>
      </trkpt>
      <trkpt lat="43.5478830" lon="-6.3778300">
        <ele>10.8</ele>
        <time>2021-07-21T13:05:10Z</time>
      </trkpt>
      <trkpt lat="43.5478960" lon="-6.3779530">
        <ele>10.4</ele>
        <time>2021-07-21T13:05:11Z</time>
      </trkpt>
      <trkpt lat="43.5479080" lon="-6.3780730">
        <ele>9.6</ele>
        <time>2021-07-21T13:05:12Z</time>
      </trkpt>
      <trkpt lat="43.5479190" lon="-6.3781900">
        <ele>9.2</ele>
        <time>2021-07-21T13:05:13Z</time>
      </trkpt>
      <trkpt lat="43.5479280" lon="-6.3783050">
        <ele>8.8</ele>
        <time>2021-07-21T13:05:14Z</time>
      </trkpt>
      <trkpt lat="43.5479380" lon="-6.3784170">
        <ele>8.4</ele>
        <time>2021-07-21T13:05:15Z</time>
      </trkpt>
      <trkpt lat="43.5479470" lon="-6.3785210">
        <ele>8.0</ele>
        <time>2021-07-21T13:05:16Z</time>
      </trkpt>
      <trkpt lat="43.5479570" lon="-6.3786210">
        <ele>7.6</ele>
        <time>2021-07-21T13:05:17Z</time>
      </trkpt>
      <trkpt lat="43.5479670" lon="-6.3787170">
        <ele>7.2</ele>
        <time>2021-07-21T13:05:18Z</time>
      </trkpt>
      <trkpt lat="43.5479810" lon="-6.3789010">
        <ele>7.2</ele>
        <time>2021-07-21T13:05:20Z</time>
      </trkpt>
      <trkpt lat="43.5479780" lon="-6.3790630">
        <ele>7.2</ele>
        <time>2021-07-21T13:05:22Z</time>
      </trkpt>
      <trkpt lat="43.5479350" lon="-6.3791940">
        <ele>7.2</ele>
        <time>2021-07-21T13:05:24Z</time>
      </trkpt>
      <trkpt lat="43.5478810" lon="-6.3792840">
        <ele>7.2</ele>
        <time>2021-07-21T13:05:26Z</time>
      </trkpt>
      <trkpt lat="43.5478230" lon="-6.3793420">
        <ele>7.2</ele>
        <time>2021-07-21T13:05:28Z</time>
      </trkpt>
      <trkpt lat="43.5477930" lon="-6.3793660">
        <ele>7.2</ele>
        <time>2021-07-21T13:05:29Z</time>
      </trkpt>
      <trkpt lat="43.5477090" lon="-6.3794300">
        <ele>7.2</ele>
        <time>2021-07-21T13:05:32Z</time>
      </trkpt>
      <trkpt lat="43.5476550" lon="-6.3794710">
        <ele>7.2</ele>
        <time>2021-07-21T13:05:34Z</time>
      </trkpt>
      <trkpt lat="43.5476060" lon="-6.3795070">
        <ele>7.2</ele>
        <time>2021-07-21T13:05:36Z</time>
      </trkpt>
      <trkpt lat="43.5475580" lon="-6.3795380">
        <ele>7.2</ele>
        <time>2021-07-21T13:05:38Z</time>
      </trkpt>
      <trkpt lat="43.5475090" lon="-6.3795670">
        <ele>7.2</ele>
        <time>2021-07-21T13:05:40Z</time>
      </trkpt>
      <trkpt lat="43.5474320" lon="-6.3796430">
        <ele>7.2</ele>
        <time>2021-07-21T13:05:44Z</time>
      </trkpt>
      <trkpt lat="43.5473690" lon="-6.3797180">
        <ele>7.2</ele>
        <time>2021-07-21T13:05:47Z</time>
      </trkpt>
      <trkpt lat="43.5473100" lon="-6.3797900">
        <ele>7.6</ele>
        <time>2021-07-21T13:05:50Z</time>
      </trkpt>
      <trkpt lat="43.5472910" lon="-6.3798120">
        <ele>8.0</ele>
        <time>2021-07-21T13:05:51Z</time>
      </trkpt>
      <trkpt lat="43.5472720" lon="-6.3798350">
        <ele>8.4</ele>
        <time>2021-07-21T13:05:52Z</time>
      </trkpt>
      <trkpt lat="43.5472520" lon="-6.3798630">
        <ele>8.8</ele>
        <time>2021-07-21T13:05:53Z</time>
      </trkpt>
      <trkpt lat="43.5472350" lon="-6.3798900">
        <ele>9.4</ele>
        <time>2021-07-21T13:05:54Z</time>
      </trkpt>
      <trkpt lat="43.5472180" lon="-6.3799190">
        <ele>9.4</ele>
        <time>2021-07-21T13:05:55Z</time>
      </trkpt>
      <trkpt lat="43.5471310" lon="-6.3801080">
        <ele>9.4</ele>
        <time>2021-07-21T13:06:01Z</time>
      </trkpt>
      <trkpt lat="43.5470980" lon="-6.3802030">
        <ele>9.8</ele>
        <time>2021-07-21T13:06:04Z</time>
      </trkpt>
      <trkpt lat="43.5470900" lon="-6.3802380">
        <ele>10.2</ele>
        <time>2021-07-21T13:06:05Z</time>
      </trkpt>
      <trkpt lat="43.5470820" lon="-6.3802740">
        <ele>10.6</ele>
        <time>2021-07-21T13:06:06Z</time>
      </trkpt>
      <trkpt lat="43.5470730" lon="-6.3803060">
        <ele>11.0</ele>
        <time>2021-07-21T13:06:07Z</time>
      </trkpt>
      <trkpt lat="43.5470610" lon="-6.3803370">
        <ele>11.4</ele>
        <time>2021-07-21T13:06:08Z</time>
      </trkpt>
      <trkpt lat="43.5470240" lon="-6.3804950">
        <ele>11.4</ele>
        <time>2021-07-21T13:06:13Z</time>
      </trkpt>
      <trkpt lat="43.5469980" lon="-6.3807200">
        <ele>11.8</ele>
        <time>2021-07-21T13:06:20Z</time>
      </trkpt>
      <trkpt lat="43.5469950" lon="-6.3807560">
        <ele>12.2</ele>
        <time>2021-07-21T13:06:21Z</time>
      </trkpt>
      <trkpt lat="43.5469920" lon="-6.3807890">
        <ele>12.6</ele>
        <time>2021-07-21T13:06:22Z</time>
      </trkpt>
      <trkpt lat="43.5469880" lon="-6.3808220">
        <ele>13.0</ele>
        <time>2021-07-21T13:06:23Z</time>
      </trkpt>
      <trkpt lat="43.5469860" lon="-6.3808580">
        <ele>13.6</ele>
        <time>2021-07-21T13:06:24Z</time>
      </trkpt>
      <trkpt lat="43.5469790" lon="-6.3810450">
        <ele>13.6</ele>
        <time>2021-07-21T13:06:30Z</time>
      </trkpt>
      <trkpt lat="43.5469720" lon="-6.3811660">
        <ele>14.0</ele>
        <time>2021-07-21T13:06:34Z</time>
      </trkpt>
      <trkpt lat="43.5469680" lon="-6.3811950">
        <ele>14.4</ele>
        <time>2021-07-21T13:06:35Z</time>
      </trkpt>
      <trkpt lat="43.5469650" lon="-6.3812250">
        <ele>14.8</ele>
        <time>2021-07-21T13:06:36Z</time>
      </trkpt>
      <trkpt lat="43.5469640" lon="-6.3812540">
        <ele>15.2</ele>
        <time>2021-07-21T13:06:37Z</time>
      </trkpt>
      <trkpt lat="43.5469630" lon="-6.3812860">
        <ele>15.6</ele>
        <time>2021-07-21T13:06:38Z</time>
      </trkpt>
      <trkpt lat="43.5469510" lon="-6.3815280">
        <ele>15.6</ele>
        <time>2021-07-21T13:06:46Z</time>
      </trkpt>
      <trkpt lat="43.5469470" lon="-6.3816710">
        <ele>16.4</ele>
        <time>2021-07-21T13:06:51Z</time>
      </trkpt>
      <trkpt lat="43.5469430" lon="-6.3817000">
        <ele>16.8</ele>
        <time>2021-07-21T13:06:52Z</time>
      </trkpt>
      <trkpt lat="43.5469380" lon="-6.3817290">
        <ele>17.2</ele>
        <time>2021-07-21T13:06:53Z</time>
      </trkpt>
      <trkpt lat="43.5469350" lon="-6.3817570">
        <ele>17.6</ele>
        <time>2021-07-21T13:06:54Z</time>
      </trkpt>
      <trkpt lat="43.5469320" lon="-6.3818160">
        <ele>17.6</ele>
        <time>2021-07-21T13:06:56Z</time>
      </trkpt>
      <trkpt lat="43.5469170" lon="-6.3820590">
        <ele>17.6</ele>
        <time>2021-07-21T13:07:05Z</time>
      </trkpt>
      <trkpt lat="43.5469150" lon="-6.3821480">
        <ele>18.0</ele>
        <time>2021-07-21T13:07:08Z</time>
      </trkpt>
      <trkpt lat="43.5469120" lon="-6.3821760">
        <ele>18.4</ele>
        <time>2021-07-21T13:07:09Z</time>
      </trkpt>
      <trkpt lat="43.5469100" lon="-6.3822040">
        <ele>18.8</ele>
        <time>2021-07-21T13:07:10Z</time>
      </trkpt>
      <trkpt lat="43.5469080" lon="-6.3822310">
        <ele>19.2</ele>
        <time>2021-07-21T13:07:11Z</time>
      </trkpt>
      <trkpt lat="43.5469080" lon="-6.3822590">
        <ele>19.6</ele>
        <time>2021-07-21T13:07:12Z</time>
      </trkpt>
      <trkpt lat="43.5469080" lon="-6.3822870">
        <ele>19.6</ele>
        <time>2021-07-21T13:07:13Z</time>
      </trkpt>
      <trkpt lat="43.5468880" lon="-6.3825420">
        <ele>19.6</ele>
        <time>2021-07-21T13:07:22Z</time>
      </trkpt>
      <trkpt lat="43.5468890" lon="-6.3825980">
        <ele>20.0</ele>
        <time>2021-07-21T13:07:24Z</time>
      </trkpt>
      <trkpt lat="43.5468860" lon="-6.3826260">
        <ele>20.4</ele>
        <time>2021-07-21T13:07:25Z</time>
      </trkpt>
      <trkpt lat="43.5468840" lon="-6.3826530">
        <ele>20.8</ele>
        <time>2021-07-21T13:07:26Z</time>
      </trkpt>
      <trkpt lat="43.5468810" lon="-6.3826800">
        <ele>21.2</ele>
        <time>2021-07-21T13:07:27Z</time>
      </trkpt>
      <trkpt lat="43.5468790" lon="-6.3827070">
        <ele>21.6</ele>
        <time>2021-07-21T13:07:28Z</time>
      </trkpt>
      <trkpt lat="43.5468530" lon="-6.3828920">
        <ele>21.6</ele>
        <time>2021-07-21T13:07:35Z</time>
      </trkpt>
      <trkpt lat="43.5467870" lon="-6.3830040">
        <ele>22.0</ele>
        <time>2021-07-21T13:07:40Z</time>
      </trkpt>
      <trkpt lat="43.5467740" lon="-6.3830250">
        <ele>22.4</ele>
        <time>2021-07-21T13:07:41Z</time>
      </trkpt>
      <trkpt lat="43.5467640" lon="-6.3830450">
        <ele>22.8</ele>
        <time>2021-07-21T13:07:42Z</time>
      </trkpt>
      <trkpt lat="43.5467570" lon="-6.3830560">
        <ele>23.2</ele>
        <time>2021-07-21T13:07:43Z</time>
      </trkpt>
      <trkpt lat="43.5467510" lon="-6.3830630">
        <ele>23.6</ele>
        <time>2021-07-21T13:07:44Z</time>
      </trkpt>
      <trkpt lat="43.5467480" lon="-6.3830620">
        <ele>23.6</ele>
        <time>2021-07-21T13:07:45Z</time>
      </trkpt>
      <trkpt lat="43.5467410" lon="-6.3830060">
        <ele>23.6</ele>
        <time>2021-07-21T13:08:36Z</time>
      </trkpt>
      <trkpt lat="43.5467350" lon="-6.3830100">
        <ele>23.6</ele>
        <time>2021-07-21T13:08:37Z</time>
      </trkpt>
      <trkpt lat="43.5467300" lon="-6.3830230">
        <ele>23.6</ele>
        <time>2021-07-21T13:08:39Z</time>
      </trkpt>
      <trkpt lat="43.5466150" lon="-6.3830600">
        <ele>23.6</ele>
        <time>2021-07-21T13:09:41Z</time>
      </trkpt>
      <trkpt lat="43.5465970" lon="-6.3830490">
        <ele>23.6</ele>
        <time>2021-07-21T13:09:42Z</time>
      </trkpt>
      <trkpt lat="43.5465110" lon="-6.3829990">
        <ele>23.6</ele>
        <time>2021-07-21T13:09:46Z</time>
      </trkpt>
      <trkpt lat="43.5464720" lon="-6.3829540">
        <ele>23.6</ele>
        <time>2021-07-21T13:09:48Z</time>
      </trkpt>
      <trkpt lat="43.5464070" lon="-6.3828460">
        <ele>23.6</ele>
        <time>2021-07-21T13:09:52Z</time>
      </trkpt>
      <trkpt lat="43.5463770" lon="-6.3827920">
        <ele>24.0</ele>
        <time>2021-07-21T13:09:54Z</time>
      </trkpt>
      <trkpt lat="43.5463630" lon="-6.3827610">
        <ele>24.4</ele>
        <time>2021-07-21T13:09:55Z</time>
      </trkpt>
      <trkpt lat="43.5463490" lon="-6.3827300">
        <ele>24.8</ele>
        <time>2021-07-21T13:09:56Z</time>
      </trkpt>
      <trkpt lat="43.5463370" lon="-6.3826990">
        <ele>25.2</ele>
        <time>2021-07-21T13:09:57Z</time>
      </trkpt>
      <trkpt lat="43.5463260" lon="-6.3826700">
        <ele>25.6</ele>
        <time>2021-07-21T13:09:58Z</time>
      </trkpt>
      <trkpt lat="43.5462570" lon="-6.3825100">
        <ele>25.6</ele>
        <time>2021-07-21T13:10:04Z</time>
      </trkpt>
      <trkpt lat="43.5462250" lon="-6.3824280">
        <ele>25.6</ele>
        <time>2021-07-21T13:10:07Z</time>
      </trkpt>
      <trkpt lat="43.5462150" lon="-6.3824030">
        <ele>26.2</ele>
        <time>2021-07-21T13:10:08Z</time>
      </trkpt>
      <trkpt lat="43.5462060" lon="-6.3823780">
        <ele>26.6</ele>
        <time>2021-07-21T13:10:09Z</time>
      </trkpt>
      <trkpt lat="43.5461940" lon="-6.3823520">
        <ele>27.0</ele>
        <time>2021-07-21T13:10:10Z</time>
      </trkpt>
      <trkpt lat="43.5461830" lon="-6.3823290">
        <ele>27.4</ele>
        <time>2021-07-21T13:10:11Z</time>
      </trkpt>
      <trkpt lat="43.5461720" lon="-6.3823050">
        <ele>27.8</ele>
        <time>2021-07-21T13:10:12Z</time>
      </trkpt>
      <trkpt lat="43.5461520" lon="-6.3822540">
        <ele>27.8</ele>
        <time>2021-07-21T13:10:14Z</time>
      </trkpt>
      <trkpt lat="43.5460710" lon="-6.3820710">
        <ele>27.8</ele>
        <time>2021-07-21T13:10:21Z</time>
      </trkpt>
      <trkpt lat="43.5460420" lon="-6.3820270">
        <ele>27.8</ele>
        <time>2021-07-21T13:10:23Z</time>
      </trkpt>
      <trkpt lat="43.5459730" lon="-6.3819530">
        <ele>28.2</ele>
        <time>2021-07-21T13:10:27Z</time>
      </trkpt>
      <trkpt lat="43.5459540" lon="-6.3819440">
        <ele>28.6</ele>
        <time>2021-07-21T13:10:28Z</time>
      </trkpt>
      <trkpt lat="43.5459350" lon="-6.3819390">
        <ele>29.2</ele>
        <time>2021-07-21T13:10:29Z</time>
      </trkpt>
      <trkpt lat="43.5459130" lon="-6.3819370">
        <ele>29.6</ele>
        <time>2021-07-21T13:10:30Z</time>
      </trkpt>
      <trkpt lat="43.5458920" lon="-6.3819350">
        <ele>30.0</ele>
        <time>2021-07-21T13:10:31Z</time>
      </trkpt>
      <trkpt lat="43.5457620" lon="-6.3819900">
        <ele>30.0</ele>
        <time>2021-07-21T13:10:37Z</time>
      </trkpt>
      <trkpt lat="43.5457070" lon="-6.3820410">
        <ele>30.4</ele>
        <time>2021-07-21T13:10:40Z</time>
      </trkpt>
      <trkpt lat="43.5456870" lon="-6.3820560">
        <ele>30.8</ele>
        <time>2021-07-21T13:10:41Z</time>
      </trkpt>
      <trkpt lat="43.5456670" lon="-6.3820700">
        <ele>31.2</ele>
        <time>2021-07-21T13:10:42Z</time>
      </trkpt>
      <trkpt lat="43.5456480" lon="-6.3820850">
        <ele>31.6</ele>
        <time>2021-07-21T13:10:43Z</time>
      </trkpt>
      <trkpt lat="43.5456280" lon="-6.3821010">
        <ele>32.0</ele>
        <time>2021-07-21T13:10:44Z</time>
      </trkpt>
      <trkpt lat="43.5456090" lon="-6.3821170">
        <ele>32.0</ele>
        <time>2021-07-21T13:10:45Z</time>
      </trkpt>
      <trkpt lat="43.5454430" lon="-6.3822850">
        <ele>32.0</ele>
        <time>2021-07-21T13:10:54Z</time>
      </trkpt>
      <trkpt lat="43.5454060" lon="-6.3823570">
        <ele>32.4</ele>
        <time>2021-07-21T13:10:57Z</time>
      </trkpt>
      <trkpt lat="43.5453950" lon="-6.3823870">
        <ele>33.2</ele>
        <time>2021-07-21T13:10:58Z</time>
      </trkpt>
      <trkpt lat="43.5453910" lon="-6.3824190">
        <ele>33.6</ele>
        <time>2021-07-21T13:10:59Z</time>
      </trkpt>
      <trkpt lat="43.5453910" lon="-6.3824510">
        <ele>34.0</ele>
        <time>2021-07-21T13:11:00Z</time>
      </trkpt>
      <trkpt lat="43.5453790" lon="-6.3826870">
        <ele>34.0</ele>
        <time>2021-07-21T13:11:08Z</time>
      </trkpt>
      <trkpt lat="43.5453800" lon="-6.3827170">
        <ele>34.6</ele>
        <time>2021-07-21T13:11:09Z</time>
      </trkpt>
      <trkpt lat="43.5453820" lon="-6.3827490">
        <ele>35.0</ele>
        <time>2021-07-21T13:11:10Z</time>
      </trkpt>
      <trkpt lat="43.5453830" lon="-6.3827800">
        <ele>35.4</ele>
        <time>2021-07-21T13:11:11Z</time>
      </trkpt>
      <trkpt lat="43.5453850" lon="-6.3828100">
        <ele>35.8</ele>
        <time>2021-07-21T13:11:12Z</time>
      </trkpt>
      <trkpt lat="43.5453880" lon="-6.3828390">
        <ele>36.2</ele>
        <time>2021-07-21T13:11:13Z</time>
      </trkpt>
      <trkpt lat="43.5454110" lon="-6.3830000">
        <ele>36.2</ele>
        <time>2021-07-21T13:11:18Z</time>
      </trkpt>
      <trkpt lat="43.5454610" lon="-6.3832160">
        <ele>36.2</ele>
        <time>2021-07-21T13:11:25Z</time>
      </trkpt>
      <trkpt lat="43.5454780" lon="-6.3832790">
        <ele>36.6</ele>
        <time>2021-07-21T13:11:27Z</time>
      </trkpt>
      <trkpt lat="43.5454870" lon="-6.3833120">
        <ele>37.0</ele>
        <time>2021-07-21T13:11:28Z</time>
      </trkpt>
      <trkpt lat="43.5454950" lon="-6.3833440">
        <ele>37.4</ele>
        <time>2021-07-21T13:11:29Z</time>
      </trkpt>
      <trkpt lat="43.5455040" lon="-6.3833750">
        <ele>37.8</ele>
        <time>2021-07-21T13:11:30Z</time>
      </trkpt>
      <trkpt lat="43.5455120" lon="-6.3834070">
        <ele>38.2</ele>
        <time>2021-07-21T13:11:31Z</time>
      </trkpt>
      <trkpt lat="43.5455500" lon="-6.3835280">
        <ele>38.2</ele>
        <time>2021-07-21T13:11:35Z</time>
      </trkpt>
      <trkpt lat="43.5455990" lon="-6.3837810">
        <ele>38.2</ele>
        <time>2021-07-21T13:11:43Z</time>
      </trkpt>
      <trkpt lat="43.5456120" lon="-6.3840720">
        <ele>38.6</ele>
        <time>2021-07-21T13:11:51Z</time>
      </trkpt>
      <trkpt lat="43.5456100" lon="-6.3841090">
        <ele>39.0</ele>
        <time>2021-07-21T13:11:52Z</time>
      </trkpt>
      <trkpt lat="43.5456080" lon="-6.3841470">
        <ele>39.4</ele>
        <time>2021-07-21T13:11:53Z</time>
      </trkpt>
      <trkpt lat="43.5456070" lon="-6.3841840">
        <ele>40.0</ele>
        <time>2021-07-21T13:11:54Z</time>
      </trkpt>
      <trkpt lat="43.5456050" lon="-6.3842210">
        <ele>40.4</ele>
        <time>2021-07-21T13:11:55Z</time>
      </trkpt>
      <trkpt lat="43.5455970" lon="-6.3844600">
        <ele>40.4</ele>
        <time>2021-07-21T13:12:02Z</time>
      </trkpt>
      <trkpt lat="43.5455920" lon="-6.3846370">
        <ele>40.8</ele>
        <time>2021-07-21T13:12:07Z</time>
      </trkpt>
      <trkpt lat="43.5455930" lon="-6.3846720">
        <ele>41.2</ele>
        <time>2021-07-21T13:12:08Z</time>
      </trkpt>
      <trkpt lat="43.5455940" lon="-6.3847050">
        <ele>41.6</ele>
        <time>2021-07-21T13:12:09Z</time>
      </trkpt>
      <trkpt lat="43.5455930" lon="-6.3847390">
        <ele>42.0</ele>
        <time>2021-07-21T13:12:10Z</time>
      </trkpt>
      <trkpt lat="43.5455910" lon="-6.3847710">
        <ele>42.4</ele>
        <time>2021-07-21T13:12:11Z</time>
      </trkpt>
      <trkpt lat="43.5455800" lon="-6.3850470">
        <ele>42.4</ele>
        <time>2021-07-21T13:12:19Z</time>
      </trkpt>
      <trkpt lat="43.5455730" lon="-6.3851710">
        <ele>42.8</ele>
        <time>2021-07-21T13:12:23Z</time>
      </trkpt>
      <trkpt lat="43.5455720" lon="-6.3852030">
        <ele>43.2</ele>
        <time>2021-07-21T13:12:24Z</time>
      </trkpt>
      <trkpt lat="43.5455730" lon="-6.3852370">
        <ele>43.6</ele>
        <time>2021-07-21T13:12:25Z</time>
      </trkpt>
      <trkpt lat="43.5455720" lon="-6.3852690">
        <ele>44.0</ele>
        <time>2021-07-21T13:12:26Z</time>
      </trkpt>
      <trkpt lat="43.5455700" lon="-6.3853030">
        <ele>44.4</ele>
        <time>2021-07-21T13:12:27Z</time>
      </trkpt>
      <trkpt lat="43.5455670" lon="-6.3853350">
        <ele>44.4</ele>
        <time>2021-07-21T13:12:28Z</time>
      </trkpt>
      <trkpt lat="43.5455640" lon="-6.3855980">
        <ele>44.4</ele>
        <time>2021-07-21T13:12:36Z</time>
      </trkpt>
      <trkpt lat="43.5455760" lon="-6.3856940">
        <ele>44.8</ele>
        <time>2021-07-21T13:12:39Z</time>
      </trkpt>
      <trkpt lat="43.5455840" lon="-6.3857260">
        <ele>45.2</ele>
        <time>2021-07-21T13:12:40Z</time>
      </trkpt>
      <trkpt lat="43.5455920" lon="-6.3857570">
        <ele>45.6</ele>
        <time>2021-07-21T13:12:41Z</time>
      </trkpt>
      <trkpt lat="43.5455990" lon="-6.3857890">
        <ele>46.0</ele>
        <time>2021-07-21T13:12:42Z</time>
      </trkpt>
      <trkpt lat="43.5456080" lon="-6.3858210">
        <ele>46.4</ele>
        <time>2021-07-21T13:12:43Z</time>
      </trkpt>
      <trkpt lat="43.5456190" lon="-6.3858520">
        <ele>46.4</ele>
        <time>2021-07-21T13:12:44Z</time>
      </trkpt>
      <trkpt lat="43.5457030" lon="-6.3860340">
        <ele>47.0</ele>
        <time>2021-07-21T13:12:51Z</time>
      </trkpt>
      <trkpt lat="43.5457190" lon="-6.3860560">
        <ele>47.4</ele>
        <time>2021-07-21T13:12:52Z</time>
      </trkpt>
      <trkpt lat="43.5457340" lon="-6.3860750">
        <ele>47.8</ele>
        <time>2021-07-21T13:12:53Z</time>
      </trkpt>
      <trkpt lat="43.5457510" lon="-6.3860920">
        <ele>48.2</ele>
        <time>2021-07-21T13:12:54Z</time>
      </trkpt>
      <trkpt lat="43.5457680" lon="-6.3861150">
        <ele>48.6</ele>
        <time>2021-07-21T13:12:55Z</time>
      </trkpt>
      <trkpt lat="43.5458300" lon="-6.3861980">
        <ele>48.6</ele>
        <time>2021-07-21T13:12:59Z</time>
      </trkpt>
      <trkpt lat="43.5458830" lon="-6.3862660">
        <ele>49.0</ele>
        <time>2021-07-21T13:13:03Z</time>
      </trkpt>
      <trkpt lat="43.5458970" lon="-6.3862860">
        <ele>49.6</ele>
        <time>2021-07-21T13:13:04Z</time>
      </trkpt>
      <trkpt lat="43.5459110" lon="-6.3863040">
        <ele>50.0</ele>
        <time>2021-07-21T13:13:05Z</time>
      </trkpt>
      <trkpt lat="43.5459260" lon="-6.3863230">
        <ele>50.4</ele>
        <time>2021-07-21T13:13:06Z</time>
      </trkpt>
      <trkpt lat="43.5459420" lon="-6.3863390">
        <ele>50.8</ele>
        <time>2021-07-21T13:13:07Z</time>
      </trkpt>
      <trkpt lat="43.5460330" lon="-6.3865110">
        <ele>50.8</ele>
        <time>2021-07-21T13:13:15Z</time>
      </trkpt>
      <trkpt lat="43.5460410" lon="-6.3865370">
        <ele>51.2</ele>
        <time>2021-07-21T13:13:16Z</time>
      </trkpt>
      <trkpt lat="43.5460440" lon="-6.3865650">
        <ele>51.6</ele>
        <time>2021-07-21T13:13:17Z</time>
      </trkpt>
      <trkpt lat="43.5460460" lon="-6.3865930">
        <ele>52.0</ele>
        <time>2021-07-21T13:13:18Z</time>
      </trkpt>
      <trkpt lat="43.5460500" lon="-6.3866200">
        <ele>52.6</ele>
        <time>2021-07-21T13:13:19Z</time>
      </trkpt>
      <trkpt lat="43.5460510" lon="-6.3866490">
        <ele>53.0</ele>
        <time>2021-07-21T13:13:20Z</time>
      </trkpt>
      <trkpt lat="43.5460520" lon="-6.3866790">
        <ele>53.0</ele>
        <time>2021-07-21T13:13:21Z</time>
      </trkpt>
      <trkpt lat="43.5460430" lon="-6.3867730">
        <ele>53.0</ele>
        <time>2021-07-21T13:13:25Z</time>
      </trkpt>
      <trkpt lat="43.5460250" lon="-6.3867970">
        <ele>53.0</ele>
        <time>2021-07-21T13:13:27Z</time>
      </trkpt>
      <trkpt lat="43.5460140" lon="-6.3868090">
        <ele>53.0</ele>
        <time>2021-07-21T13:13:29Z</time>
      </trkpt>
      <trkpt lat="43.5459940" lon="-6.3868160">
        <ele>53.0</ele>
        <time>2021-07-21T13:16:19Z</time>
      </trkpt>
      <trkpt lat="43.5459850" lon="-6.3868280">
        <ele>53.0</ele>
        <time>2021-07-21T13:16:20Z</time>
      </trkpt>
      <trkpt lat="43.5459730" lon="-6.3868400">
        <ele>53.0</ele>
        <time>2021-07-21T13:16:23Z</time>
      </trkpt>
      <trkpt lat="43.5459570" lon="-6.3868460">
        <ele>53.0</ele>
        <time>2021-07-21T13:16:40Z</time>
      </trkpt>
      <trkpt lat="43.5459410" lon="-6.3868590">
        <ele>53.0</ele>
        <time>2021-07-21T13:16:41Z</time>
      </trkpt>
      <trkpt lat="43.5458840" lon="-6.3868960">
        <ele>53.0</ele>
        <time>2021-07-21T13:16:44Z</time>
      </trkpt>
      <trkpt lat="43.5458020" lon="-6.3869440">
        <ele>53.0</ele>
        <time>2021-07-21T13:16:48Z</time>
      </trkpt>
      <trkpt lat="43.5457030" lon="-6.3870280">
        <ele>53.0</ele>
        <time>2021-07-21T13:16:54Z</time>
      </trkpt>
      <trkpt lat="43.5456190" lon="-6.3871050">
        <ele>53.0</ele>
        <time>2021-07-21T13:16:59Z</time>
      </trkpt>
      <trkpt lat="43.5455810" lon="-6.3871350">
        <ele>53.4</ele>
        <time>2021-07-21T13:17:01Z</time>
      </trkpt>
      <trkpt lat="43.5455630" lon="-6.3871470">
        <ele>53.8</ele>
        <time>2021-07-21T13:17:02Z</time>
      </trkpt>
      <trkpt lat="43.5455440" lon="-6.3871600">
        <ele>54.2</ele>
        <time>2021-07-21T13:17:03Z</time>
      </trkpt>
      <trkpt lat="43.5455230" lon="-6.3871740">
        <ele>54.6</ele>
        <time>2021-07-21T13:17:04Z</time>
      </trkpt>
      <trkpt lat="43.5454970" lon="-6.3871900">
        <ele>55.0</ele>
        <time>2021-07-21T13:17:05Z</time>
      </trkpt>
      <trkpt lat="43.5454330" lon="-6.3872270">
        <ele>55.0</ele>
        <time>2021-07-21T13:17:08Z</time>
      </trkpt>
      <trkpt lat="43.5454020" lon="-6.3872640">
        <ele>55.0</ele>
        <time>2021-07-21T13:17:10Z</time>
      </trkpt>
      <trkpt lat="43.5452740" lon="-6.3873680">
        <ele>55.0</ele>
        <time>2021-07-21T13:17:16Z</time>
      </trkpt>
      <trkpt lat="43.5451670" lon="-6.3874680">
        <ele>55.0</ele>
        <time>2021-07-21T13:17:21Z</time>
      </trkpt>
      <trkpt lat="43.5451470" lon="-6.3874900">
        <ele>55.0</ele>
        <time>2021-07-21T13:17:22Z</time>
      </trkpt>
      <trkpt lat="43.5451280" lon="-6.3875090">
        <ele>55.0</ele>
        <time>2021-07-21T13:17:23Z</time>
      </trkpt>
      <trkpt lat="43.5450020" lon="-6.3876130">
        <ele>55.4</ele>
        <time>2021-07-21T13:17:29Z</time>
      </trkpt>
      <trkpt lat="43.5449770" lon="-6.3876370">
        <ele>55.8</ele>
        <time>2021-07-21T13:17:30Z</time>
      </trkpt>
      <trkpt lat="43.5449530" lon="-6.3876590">
        <ele>56.2</ele>
        <time>2021-07-21T13:17:31Z</time>
      </trkpt>
      <trkpt lat="43.5449300" lon="-6.3876870">
        <ele>56.6</ele>
        <time>2021-07-21T13:17:32Z</time>
      </trkpt>
      <trkpt lat="43.5449080" lon="-6.3877110">
        <ele>57.0</ele>
        <time>2021-07-21T13:17:33Z</time>
      </trkpt>
      <trkpt lat="43.5448090" lon="-6.3878420">
        <ele>57.0</ele>
        <time>2021-07-21T13:17:38Z</time>
      </trkpt>
      <trkpt lat="43.5447020" lon="-6.3880500">
        <ele>57.0</ele>
        <time>2021-07-21T13:17:44Z</time>
      </trkpt>
      <trkpt lat="43.5446620" lon="-6.3882420">
        <ele>57.0</ele>
        <time>2021-07-21T13:17:49Z</time>
      </trkpt>
      <trkpt lat="43.5446590" lon="-6.3882780">
        <ele>57.0</ele>
        <time>2021-07-21T13:17:50Z</time>
      </trkpt>
      <trkpt lat="43.5446660" lon="-6.3884090">
        <ele>57.0</ele>
        <time>2021-07-21T13:17:54Z</time>
      </trkpt>
      <trkpt lat="43.5446730" lon="-6.3884420">
        <ele>57.0</ele>
        <time>2021-07-21T13:17:56Z</time>
      </trkpt>
      <trkpt lat="43.5446720" lon="-6.3884460">
        <ele>57.0</ele>
        <time>2021-07-21T13:17:57Z</time>
      </trkpt>
      <trkpt lat="43.5446780" lon="-6.3884640">
        <ele>57.0</ele>
        <time>2021-07-21T13:18:02Z</time>
      </trkpt>
      <trkpt lat="43.5447000" lon="-6.3885020">
        <ele>57.0</ele>
        <time>2021-07-21T13:18:04Z</time>
      </trkpt>
      <trkpt lat="43.5447150" lon="-6.3885430">
        <ele>57.0</ele>
        <time>2021-07-21T13:18:06Z</time>
      </trkpt>
      <trkpt lat="43.5447460" lon="-6.3886330">
        <ele>57.0</ele>
        <time>2021-07-21T13:18:09Z</time>
      </trkpt>
      <trkpt lat="43.5447580" lon="-6.3886640">
        <ele>57.0</ele>
        <time>2021-07-21T13:18:10Z</time>
      </trkpt>
      <trkpt lat="43.5448430" lon="-6.3888620">
        <ele>57.0</ele>
        <time>2021-07-21T13:18:16Z</time>
      </trkpt>
      <trkpt lat="43.5448560" lon="-6.3888960">
        <ele>57.0</ele>
        <time>2021-07-21T13:18:17Z</time>
      </trkpt>
      <trkpt lat="43.5448740" lon="-6.3889480">
        <ele>57.0</ele>
        <time>2021-07-21T13:18:19Z</time>
      </trkpt>
      <trkpt lat="43.5449060" lon="-6.3890290">
        <ele>57.0</ele>
        <time>2021-07-21T13:18:22Z</time>
      </trkpt>
      <trkpt lat="43.5449990" lon="-6.3892400">
        <ele>57.0</ele>
        <time>2021-07-21T13:18:27Z</time>
      </trkpt>
      <trkpt lat="43.5450420" lon="-6.3893310">
        <ele>57.0</ele>
        <time>2021-07-21T13:18:30Z</time>
      </trkpt>
      <trkpt lat="43.5450820" lon="-6.3894260">
        <ele>57.0</ele>
        <time>2021-07-21T13:18:32Z</time>
      </trkpt>
      <trkpt lat="43.5451760" lon="-6.3896620">
        <ele>57.0</ele>
        <time>2021-07-21T13:18:37Z</time>
      </trkpt>
      <trkpt lat="43.5452180" lon="-6.3897460">
        <ele>57.0</ele>
        <time>2021-07-21T13:18:39Z</time>
      </trkpt>
      <trkpt lat="43.5453360" lon="-6.3899840">
        <ele>57.0</ele>
        <time>2021-07-21T13:18:44Z</time>
      </trkpt>
      <trkpt lat="43.5454060" lon="-6.3901550">
        <ele>56.6</ele>
        <time>2021-07-21T13:18:47Z</time>
      </trkpt>
      <trkpt lat="43.5454220" lon="-6.3902200">
        <ele>55.6</ele>
        <time>2021-07-21T13:18:48Z</time>
      </trkpt>
      <trkpt lat="43.5454380" lon="-6.3902820">
        <ele>55.2</ele>
        <time>2021-07-21T13:18:49Z</time>
      </trkpt>
      <trkpt lat="43.5454530" lon="-6.3903490">
        <ele>54.8</ele>
        <time>2021-07-21T13:18:50Z</time>
      </trkpt>
      <trkpt lat="43.5454840" lon="-6.3905490">
        <ele>54.8</ele>
        <time>2021-07-21T13:18:53Z</time>
      </trkpt>
      <trkpt lat="43.5454960" lon="-6.3907440">
        <ele>54.8</ele>
        <time>2021-07-21T13:18:56Z</time>
      </trkpt>
      <trkpt lat="43.5454980" lon="-6.3908080">
        <ele>54.8</ele>
        <time>2021-07-21T13:18:57Z</time>
      </trkpt>
      <trkpt lat="43.5454940" lon="-6.3911300">
        <ele>54.8</ele>
        <time>2021-07-21T13:19:02Z</time>
      </trkpt>
      <trkpt lat="43.5454910" lon="-6.3912560">
        <ele>54.4</ele>
        <time>2021-07-21T13:19:04Z</time>
      </trkpt>
      <trkpt lat="43.5454970" lon="-6.3913200">
        <ele>54.0</ele>
        <time>2021-07-21T13:19:05Z</time>
      </trkpt>
      <trkpt lat="43.5455090" lon="-6.3913840">
        <ele>53.4</ele>
        <time>2021-07-21T13:19:06Z</time>
      </trkpt>
      <trkpt lat="43.5455290" lon="-6.3914500">
        <ele>53.0</ele>
        <time>2021-07-21T13:19:07Z</time>
      </trkpt>
      <trkpt lat="43.5455480" lon="-6.3915150">
        <ele>52.6</ele>
        <time>2021-07-21T13:19:08Z</time>
      </trkpt>
      <trkpt lat="43.5455720" lon="-6.3915750">
        <ele>52.6</ele>
        <time>2021-07-21T13:19:09Z</time>
      </trkpt>
      <trkpt lat="43.5456240" lon="-6.3917010">
        <ele>52.2</ele>
        <time>2021-07-21T13:19:11Z</time>
      </trkpt>
      <trkpt lat="43.5456510" lon="-6.3917730">
        <ele>51.6</ele>
        <time>2021-07-21T13:19:12Z</time>
      </trkpt>
      <trkpt lat="43.5456720" lon="-6.3918530">
        <ele>50.6</ele>
        <time>2021-07-21T13:19:13Z</time>
      </trkpt>
      <trkpt lat="43.5456870" lon="-6.3919400">
        <ele>50.0</ele>
        <time>2021-07-21T13:19:14Z</time>
      </trkpt>
      <trkpt lat="43.5456990" lon="-6.3921180">
        <ele>50.0</ele>
        <time>2021-07-21T13:19:16Z</time>
      </trkpt>
      <trkpt lat="43.5457050" lon="-6.3922000">
        <ele>49.6</ele>
        <time>2021-07-21T13:19:17Z</time>
      </trkpt>
      <trkpt lat="43.5457070" lon="-6.3922770">
        <ele>49.2</ele>
        <time>2021-07-21T13:19:18Z</time>
      </trkpt>
      <trkpt lat="43.5457070" lon="-6.3923510">
        <ele>48.8</ele>
        <time>2021-07-21T13:19:19Z</time>
      </trkpt>
      <trkpt lat="43.5457070" lon="-6.3924160">
        <ele>48.4</ele>
        <time>2021-07-21T13:19:20Z</time>
      </trkpt>
      <trkpt lat="43.5457070" lon="-6.3924720">
        <ele>48.0</ele>
        <time>2021-07-21T13:19:21Z</time>
      </trkpt>
      <trkpt lat="43.5457100" lon="-6.3925520">
        <ele>48.0</ele>
        <time>2021-07-21T13:19:23Z</time>
      </trkpt>
      <trkpt lat="43.5457120" lon="-6.3926190">
        <ele>48.0</ele>
        <time>2021-07-21T13:19:25Z</time>
      </trkpt>
      <trkpt lat="43.5457120" lon="-6.3926840">
        <ele>48.0</ele>
        <time>2021-07-21T13:19:27Z</time>
      </trkpt>
      <trkpt lat="43.5457120" lon="-6.3927470">
        <ele>48.0</ele>
        <time>2021-07-21T13:19:29Z</time>
      </trkpt>
      <trkpt lat="43.5457120" lon="-6.3928140">
        <ele>48.0</ele>
        <time>2021-07-21T13:19:31Z</time>
      </trkpt>
      <trkpt lat="43.5457150" lon="-6.3929050">
        <ele>48.0</ele>
        <time>2021-07-21T13:19:34Z</time>
      </trkpt>
      <trkpt lat="43.5457180" lon="-6.3929800">
        <ele>48.8</ele>
        <time>2021-07-21T13:19:37Z</time>
      </trkpt>
      <trkpt lat="43.5457210" lon="-6.3930030">
        <ele>49.2</ele>
        <time>2021-07-21T13:19:38Z</time>
      </trkpt>
      <trkpt lat="43.5457220" lon="-6.3930280">
        <ele>49.6</ele>
        <time>2021-07-21T13:19:39Z</time>
      </trkpt>
      <trkpt lat="43.5457240" lon="-6.3930540">
        <ele>50.0</ele>
        <time>2021-07-21T13:19:40Z</time>
      </trkpt>
      <trkpt lat="43.5457280" lon="-6.3931050">
        <ele>50.0</ele>
        <time>2021-07-21T13:19:42Z</time>
      </trkpt>
      <trkpt lat="43.5457380" lon="-6.3932100">
        <ele>50.0</ele>
        <time>2021-07-21T13:19:46Z</time>
      </trkpt>
      <trkpt lat="43.5457530" lon="-6.3932880">
        <ele>50.0</ele>
        <time>2021-07-21T13:19:49Z</time>
      </trkpt>
      <trkpt lat="43.5457550" lon="-6.3933410">
        <ele>50.4</ele>
        <time>2021-07-21T13:19:51Z</time>
      </trkpt>
      <trkpt lat="43.5457580" lon="-6.3933700">
        <ele>50.8</ele>
        <time>2021-07-21T13:19:52Z</time>
      </trkpt>
      <trkpt lat="43.5457600" lon="-6.3934000">
        <ele>51.2</ele>
        <time>2021-07-21T13:19:53Z</time>
      </trkpt>
      <trkpt lat="43.5457660" lon="-6.3934330">
        <ele>51.6</ele>
        <time>2021-07-21T13:19:54Z</time>
      </trkpt>
      <trkpt lat="43.5457710" lon="-6.3934630">
        <ele>52.0</ele>
        <time>2021-07-21T13:19:55Z</time>
      </trkpt>
      <trkpt lat="43.5457800" lon="-6.3936290">
        <ele>52.0</ele>
        <time>2021-07-21T13:20:01Z</time>
      </trkpt>
      <trkpt lat="43.5457530" lon="-6.3937970">
        <ele>52.0</ele>
        <time>2021-07-21T13:20:07Z</time>
      </trkpt>
      <trkpt lat="43.5457160" lon="-6.3939110">
        <ele>52.4</ele>
        <time>2021-07-21T13:20:12Z</time>
      </trkpt>
      <trkpt lat="43.5457090" lon="-6.3939340">
        <ele>52.8</ele>
        <time>2021-07-21T13:20:13Z</time>
      </trkpt>
      <trkpt lat="43.5457030" lon="-6.3939570">
        <ele>53.4</ele>
        <time>2021-07-21T13:20:14Z</time>
      </trkpt>
      <trkpt lat="43.5456950" lon="-6.3939800">
        <ele>53.8</ele>
        <time>2021-07-21T13:20:15Z</time>
      </trkpt>
      <trkpt lat="43.5456870" lon="-6.3940060">
        <ele>54.2</ele>
        <time>2021-07-21T13:20:16Z</time>
      </trkpt>
      <trkpt lat="43.5456570" lon="-6.3940670">
        <ele>54.2</ele>
        <time>2021-07-21T13:20:19Z</time>
      </trkpt>
      <trkpt lat="43.5456170" lon="-6.3941150">
        <ele>54.2</ele>
        <time>2021-07-21T13:20:22Z</time>
      </trkpt>
      <trkpt lat="43.5455100" lon="-6.3941450">
        <ele>54.2</ele>
        <time>2021-07-21T13:20:28Z</time>
      </trkpt>
      <trkpt lat="43.5454550" lon="-6.3941780">
        <ele>54.2</ele>
        <time>2021-07-21T13:20:32Z</time>
      </trkpt>
      <trkpt lat="43.5454540" lon="-6.3941990">
        <ele>54.2</ele>
        <time>2021-07-21T13:20:33Z</time>
      </trkpt>
      <trkpt lat="43.5455120" lon="-6.3942170">
        <ele>54.2</ele>
        <time>2021-07-21T13:20:37Z</time>
      </trkpt>
      <trkpt lat="43.5455340" lon="-6.3942000">
        <ele>54.6</ele>
        <time>2021-07-21T13:20:38Z</time>
      </trkpt>
      <trkpt lat="43.5455570" lon="-6.3941740">
        <ele>55.0</ele>
        <time>2021-07-21T13:20:39Z</time>
      </trkpt>
      <trkpt lat="43.5455860" lon="-6.3941420">
        <ele>55.4</ele>
        <time>2021-07-21T13:20:40Z</time>
      </trkpt>
      <trkpt lat="43.5456100" lon="-6.3941180">
        <ele>55.8</ele>
        <time>2021-07-21T13:20:41Z</time>
      </trkpt>
      <trkpt lat="43.5456330" lon="-6.3940970">
        <ele>56.2</ele>
        <time>2021-07-21T13:20:42Z</time>
      </trkpt>
      <trkpt lat="43.5456790" lon="-6.3940830">
        <ele>56.2</ele>
        <time>2021-07-21T13:20:44Z</time>
      </trkpt>
      <trkpt lat="43.5456900" lon="-6.3940900">
        <ele>56.2</ele>
        <time>2021-07-21T13:20:46Z</time>
      </trkpt>
      <trkpt lat="43.5457030" lon="-6.3941070">
        <ele>56.2</ele>
        <time>2021-07-21T13:21:56Z</time>
      </trkpt>
      <trkpt lat="43.5457120" lon="-6.3941190">
        <ele>56.2</ele>
        <time>2021-07-21T13:21:57Z</time>
      </trkpt>
      <trkpt lat="43.5457280" lon="-6.3941450">
        <ele>56.2</ele>
        <time>2021-07-21T13:21:59Z</time>
      </trkpt>
      <trkpt lat="43.5457590" lon="-6.3941590">
        <ele>56.2</ele>
        <time>2021-07-21T13:22:01Z</time>
      </trkpt>
      <trkpt lat="43.5457980" lon="-6.3941760">
        <ele>56.2</ele>
        <time>2021-07-21T13:22:03Z</time>
      </trkpt>
      <trkpt lat="43.5458120" lon="-6.3941990">
        <ele>56.2</ele>
        <time>2021-07-21T13:22:04Z</time>
      </trkpt>
      <trkpt lat="43.5458470" lon="-6.3942420">
        <ele>56.2</ele>
        <time>2021-07-21T13:22:06Z</time>
      </trkpt>
      <trkpt lat="43.5458840" lon="-6.3943210">
        <ele>56.2</ele>
        <time>2021-07-21T13:22:09Z</time>
      </trkpt>
      <trkpt lat="43.5458920" lon="-6.3943500">
        <ele>56.2</ele>
        <time>2021-07-21T13:22:10Z</time>
      </trkpt>
      <trkpt lat="43.5459390" lon="-6.3945520">
        <ele>56.2</ele>
        <time>2021-07-21T13:22:17Z</time>
      </trkpt>
      <trkpt lat="43.5459890" lon="-6.3947860">
        <ele>56.2</ele>
        <time>2021-07-21T13:22:25Z</time>
      </trkpt>
      <trkpt lat="43.5460000" lon="-6.3948120">
        <ele>56.2</ele>
        <time>2021-07-21T13:22:26Z</time>
      </trkpt>
      <trkpt lat="43.5460880" lon="-6.3950500">
        <ele>56.2</ele>
        <time>2021-07-21T13:22:33Z</time>
      </trkpt>
      <trkpt lat="43.5462450" lon="-6.3953350">
        <ele>56.2</ele>
        <time>2021-07-21T13:22:42Z</time>
      </trkpt>
      <trkpt lat="43.5463790" lon="-6.3955320">
        <ele>56.2</ele>
        <time>2021-07-21T13:22:48Z</time>
      </trkpt>
      <trkpt lat="43.5464990" lon="-6.3957810">
        <ele>56.2</ele>
        <time>2021-07-21T13:22:55Z</time>
      </trkpt>
      <trkpt lat="43.5466330" lon="-6.3960870">
        <ele>56.2</ele>
        <time>2021-07-21T13:23:03Z</time>
      </trkpt>
      <trkpt lat="43.5466880" lon="-6.3962230">
        <ele>56.2</ele>
        <time>2021-07-21T13:23:07Z</time>
      </trkpt>
      <trkpt lat="43.5467280" lon="-6.3963210">
        <ele>56.6</ele>
        <time>2021-07-21T13:23:10Z</time>
      </trkpt>
      <trkpt lat="43.5467400" lon="-6.3963580">
        <ele>57.0</ele>
        <time>2021-07-21T13:23:11Z</time>
      </trkpt>
      <trkpt lat="43.5467520" lon="-6.3963910">
        <ele>57.4</ele>
        <time>2021-07-21T13:23:12Z</time>
      </trkpt>
      <trkpt lat="43.5467620" lon="-6.3964250">
        <ele>57.8</ele>
        <time>2021-07-21T13:23:13Z</time>
      </trkpt>
      <trkpt lat="43.5467720" lon="-6.3964600">
        <ele>58.2</ele>
        <time>2021-07-21T13:23:14Z</time>
      </trkpt>
      <trkpt lat="43.5468060" lon="-6.3966040">
        <ele>58.2</ele>
        <time>2021-07-21T13:23:18Z</time>
      </trkpt>
      <trkpt lat="43.5468990" lon="-6.3968110">
        <ele>58.2</ele>
        <time>2021-07-21T13:23:25Z</time>
      </trkpt>
      <trkpt lat="43.5470580" lon="-6.3970250">
        <ele>58.2</ele>
        <time>2021-07-21T13:23:33Z</time>
      </trkpt>
      <trkpt lat="43.5471540" lon="-6.3971420">
        <ele>58.2</ele>
        <time>2021-07-21T13:23:37Z</time>
      </trkpt>
      <trkpt lat="43.5472540" lon="-6.3972130">
        <ele>58.2</ele>
        <time>2021-07-21T13:23:40Z</time>
      </trkpt>
      <trkpt lat="43.5473770" lon="-6.3972850">
        <ele>58.2</ele>
        <time>2021-07-21T13:23:43Z</time>
      </trkpt>
      <trkpt lat="43.5474710" lon="-6.3973400">
        <ele>58.2</ele>
        <time>2021-07-21T13:23:45Z</time>
      </trkpt>
      <trkpt lat="43.5475230" lon="-6.3973660">
        <ele>58.2</ele>
        <time>2021-07-21T13:23:46Z</time>
      </trkpt>
      <trkpt lat="43.5475810" lon="-6.3973860">
        <ele>58.2</ele>
        <time>2021-07-21T13:23:47Z</time>
      </trkpt>
      <trkpt lat="43.5476440" lon="-6.3974030">
        <ele>58.2</ele>
        <time>2021-07-21T13:23:48Z</time>
      </trkpt>
      <trkpt lat="43.5477120" lon="-6.3974120">
        <ele>58.2</ele>
        <time>2021-07-21T13:23:49Z</time>
      </trkpt>
      <trkpt lat="43.5478460" lon="-6.3974320">
        <ele>58.2</ele>
        <time>2021-07-21T13:23:51Z</time>
      </trkpt>
      <trkpt lat="43.5479110" lon="-6.3974530">
        <ele>58.2</ele>
        <time>2021-07-21T13:23:52Z</time>
      </trkpt>
      <trkpt lat="43.5479770" lon="-6.3974760">
        <ele>58.2</ele>
        <time>2021-07-21T13:23:53Z</time>
      </trkpt>
      <trkpt lat="43.5481620" lon="-6.3975630">
        <ele>57.8</ele>
        <time>2021-07-21T13:23:56Z</time>
      </trkpt>
      <trkpt lat="43.5482160" lon="-6.3975920">
        <ele>57.4</ele>
        <time>2021-07-21T13:23:57Z</time>
      </trkpt>
      <trkpt lat="43.5482630" lon="-6.3976220">
        <ele>57.0</ele>
        <time>2021-07-21T13:23:58Z</time>
      </trkpt>
      <trkpt lat="43.5483080" lon="-6.3976540">
        <ele>56.6</ele>
        <time>2021-07-21T13:23:59Z</time>
      </trkpt>
      <trkpt lat="43.5483470" lon="-6.3976890">
        <ele>56.2</ele>
        <time>2021-07-21T13:24:00Z</time>
      </trkpt>
      <trkpt lat="43.5483830" lon="-6.3977210">
        <ele>56.2</ele>
        <time>2021-07-21T13:24:01Z</time>
      </trkpt>
      <trkpt lat="43.5484560" lon="-6.3978090">
        <ele>56.2</ele>
        <time>2021-07-21T13:24:05Z</time>
      </trkpt>
      <trkpt lat="43.5484560" lon="-6.3978060">
        <ele>56.2</ele>
        <time>2021-07-21T13:24:06Z</time>
      </trkpt>
      <trkpt lat="43.5484640" lon="-6.3978330">
        <ele>56.2</ele>
        <time>2021-07-21T13:24:09Z</time>
      </trkpt>
      <trkpt lat="43.5484680" lon="-6.3978550">
        <ele>55.4</ele>
        <time>2021-07-21T13:24:10Z</time>
      </trkpt>
      <trkpt lat="43.5484670" lon="-6.3978820">
        <ele>55.0</ele>
        <time>2021-07-21T13:24:11Z</time>
      </trkpt>
      <trkpt lat="43.5484630" lon="-6.3979170">
        <ele>54.6</ele>
        <time>2021-07-21T13:24:12Z</time>
      </trkpt>
      <trkpt lat="43.5484560" lon="-6.3979480">
        <ele>54.2</ele>
        <time>2021-07-21T13:24:13Z</time>
      </trkpt>
      <trkpt lat="43.5484310" lon="-6.3980070">
        <ele>54.2</ele>
        <time>2021-07-21T13:24:15Z</time>
      </trkpt>
      <trkpt lat="43.5484170" lon="-6.3980390">
        <ele>54.2</ele>
        <time>2021-07-21T13:24:16Z</time>
      </trkpt>
      <trkpt lat="43.5483710" lon="-6.3981230">
        <ele>54.2</ele>
        <time>2021-07-21T13:24:19Z</time>
      </trkpt>
      <trkpt lat="43.5483060" lon="-6.3981870">
        <ele>54.2</ele>
        <time>2021-07-21T13:24:22Z</time>
      </trkpt>
      <trkpt lat="43.5481700" lon="-6.3982770">
        <ele>54.2</ele>
        <time>2021-07-21T13:24:27Z</time>
      </trkpt>
      <trkpt lat="43.5481200" lon="-6.3983060">
        <ele>54.2</ele>
        <time>2021-07-21T13:24:29Z</time>
      </trkpt>
      <trkpt lat="43.5480640" lon="-6.3983220">
        <ele>54.6</ele>
        <time>2021-07-21T13:24:31Z</time>
      </trkpt>
      <trkpt lat="43.5480350" lon="-6.3983270">
        <ele>55.0</ele>
        <time>2021-07-21T13:24:32Z</time>
      </trkpt>
      <trkpt lat="43.5480060" lon="-6.3983260">
        <ele>55.4</ele>
        <time>2021-07-21T13:24:33Z</time>
      </trkpt>
      <trkpt lat="43.5479790" lon="-6.3983250">
        <ele>55.8</ele>
        <time>2021-07-21T13:24:34Z</time>
      </trkpt>
      <trkpt lat="43.5479500" lon="-6.3983260">
        <ele>56.2</ele>
        <time>2021-07-21T13:24:35Z</time>
      </trkpt>
      <trkpt lat="43.5477640" lon="-6.3983670">
        <ele>56.2</ele>
        <time>2021-07-21T13:24:42Z</time>
      </trkpt>
      <trkpt lat="43.5477390" lon="-6.3983750">
        <ele>56.2</ele>
        <time>2021-07-21T13:24:43Z</time>
      </trkpt>
      <trkpt lat="43.5476450" lon="-6.3984400">
        <ele>56.2</ele>
        <time>2021-07-21T13:24:47Z</time>
      </trkpt>
      <trkpt lat="43.5476220" lon="-6.3984640">
        <ele>56.6</ele>
        <time>2021-07-21T13:24:48Z</time>
      </trkpt>
      <trkpt lat="43.5476000" lon="-6.3984900">
        <ele>57.0</ele>
        <time>2021-07-21T13:24:49Z</time>
      </trkpt>
      <trkpt lat="43.5475800" lon="-6.3985220">
        <ele>57.4</ele>
        <time>2021-07-21T13:24:50Z</time>
      </trkpt>
      <trkpt lat="43.5475670" lon="-6.3985530">
        <ele>57.8</ele>
        <time>2021-07-21T13:24:51Z</time>
      </trkpt>
      <trkpt lat="43.5475520" lon="-6.3985810">
        <ele>58.2</ele>
        <time>2021-07-21T13:24:52Z</time>
      </trkpt>
      <trkpt lat="43.5475020" lon="-6.3986610">
        <ele>58.2</ele>
        <time>2021-07-21T13:24:55Z</time>
      </trkpt>
      <trkpt lat="43.5473670" lon="-6.3988680">
        <ele>58.2</ele>
        <time>2021-07-21T13:25:03Z</time>
      </trkpt>
      <trkpt lat="43.5473380" lon="-6.3989210">
        <ele>58.6</ele>
        <time>2021-07-21T13:25:05Z</time>
      </trkpt>
      <trkpt lat="43.5473230" lon="-6.3989450">
        <ele>59.0</ele>
        <time>2021-07-21T13:25:06Z</time>
      </trkpt>
      <trkpt lat="43.5473070" lon="-6.3989610">
        <ele>59.4</ele>
        <time>2021-07-21T13:25:07Z</time>
      </trkpt>
      <trkpt lat="43.5472880" lon="-6.3989710">
        <ele>59.8</ele>
        <time>2021-07-21T13:25:08Z</time>
      </trkpt>
      <trkpt lat="43.5472670" lon="-6.3989830">
        <ele>60.2</ele>
        <time>2021-07-21T13:25:09Z</time>
      </trkpt>
      <trkpt lat="43.5472210" lon="-6.3989830">
        <ele>60.2</ele>
        <time>2021-07-21T13:25:11Z</time>
      </trkpt>
      <trkpt lat="43.5471950" lon="-6.3989340">
        <ele>60.2</ele>
        <time>2021-07-21T13:25:13Z</time>
      </trkpt>
      <trkpt lat="43.5471880" lon="-6.3988400">
        <ele>60.2</ele>
        <time>2021-07-21T13:25:16Z</time>
      </trkpt>
      <trkpt lat="43.5471800" lon="-6.3987330">
        <ele>60.2</ele>
        <time>2021-07-21T13:25:19Z</time>
      </trkpt>
      <trkpt lat="43.5471800" lon="-6.3986380">
        <ele>60.2</ele>
        <time>2021-07-21T13:25:22Z</time>
      </trkpt>
      <trkpt lat="43.5471810" lon="-6.3985940">
        <ele>60.2</ele>
        <time>2021-07-21T13:25:24Z</time>
      </trkpt>
      <trkpt lat="43.5471770" lon="-6.3985680">
        <ele>60.2</ele>
        <time>2021-07-21T13:25:26Z</time>
      </trkpt>
      <trkpt lat="43.5471770" lon="-6.3985690">
        <ele>60.2</ele>
        <time>2021-07-21T13:25:27Z</time>
      </trkpt>
      <trkpt lat="43.5470180" lon="-6.3983700">
        <ele>21.4</ele>
        <time>2021-07-22T06:25:24Z</time>
      </trkpt>
      <trkpt lat="43.5470220" lon="-6.3983770">
        <ele>21.4</ele>
        <time>2021-07-22T06:25:25Z</time>
      </trkpt>
      <trkpt lat="43.5470370" lon="-6.3984060">
        <ele>21.4</ele>
        <time>2021-07-22T06:25:27Z</time>
      </trkpt>
      <trkpt lat="43.5470460" lon="-6.3984220">
        <ele>21.4</ele>
        <time>2021-07-22T06:25:28Z</time>
      </trkpt>
      <trkpt lat="43.5470550" lon="-6.3984380">
        <ele>21.4</ele>
        <time>2021-07-22T06:25:29Z</time>
      </trkpt>
      <trkpt lat="43.5470740" lon="-6.3984740">
        <ele>21.4</ele>
        <time>2021-07-22T06:25:31Z</time>
      </trkpt>
      <trkpt lat="43.5471450" lon="-6.3986500">
        <ele>21.4</ele>
        <time>2021-07-22T06:25:38Z</time>
      </trkpt>
      <trkpt lat="43.5471560" lon="-6.3988860">
        <ele>21.4</ele>
        <time>2021-07-22T06:25:46Z</time>
      </trkpt>
      <trkpt lat="43.5471920" lon="-6.3990300">
        <ele>21.4</ele>
        <time>2021-07-22T06:25:53Z</time>
      </trkpt>
      <trkpt lat="43.5472680" lon="-6.3989520">
        <ele>21.4</ele>
        <time>2021-07-22T06:25:57Z</time>
      </trkpt>
      <trkpt lat="43.5472870" lon="-6.3989200">
        <ele>21.4</ele>
        <time>2021-07-22T06:25:58Z</time>
      </trkpt>
      <trkpt lat="43.5474310" lon="-6.3987020">
        <ele>21.4</ele>
        <time>2021-07-22T06:26:04Z</time>
      </trkpt>
      <trkpt lat="43.5475010" lon="-6.3985710">
        <ele>21.4</ele>
        <time>2021-07-22T06:26:07Z</time>
      </trkpt>
      <trkpt lat="43.5475770" lon="-6.3984370">
        <ele>21.4</ele>
        <time>2021-07-22T06:26:10Z</time>
      </trkpt>
      <trkpt lat="43.5476070" lon="-6.3984050">
        <ele>21.4</ele>
        <time>2021-07-22T06:26:11Z</time>
      </trkpt>
      <trkpt lat="43.5476790" lon="-6.3983610">
        <ele>21.4</ele>
        <time>2021-07-22T06:26:13Z</time>
      </trkpt>
      <trkpt lat="43.5477580" lon="-6.3983350">
        <ele>20.8</ele>
        <time>2021-07-22T06:26:15Z</time>
      </trkpt>
      <trkpt lat="43.5477940" lon="-6.3983260">
        <ele>20.4</ele>
        <time>2021-07-22T06:26:16Z</time>
      </trkpt>
      <trkpt lat="43.5478320" lon="-6.3983220">
        <ele>20.0</ele>
        <time>2021-07-22T06:26:17Z</time>
      </trkpt>
      <trkpt lat="43.5478730" lon="-6.3983170">
        <ele>19.6</ele>
        <time>2021-07-22T06:26:18Z</time>
      </trkpt>
      <trkpt lat="43.5479180" lon="-6.3983110">
        <ele>19.2</ele>
        <time>2021-07-22T06:26:19Z</time>
      </trkpt>
      <trkpt lat="43.5479860" lon="-6.3983050">
        <ele>19.2</ele>
        <time>2021-07-22T06:26:20Z</time>
      </trkpt>
      <trkpt lat="43.5481390" lon="-6.3982680">
        <ele>19.2</ele>
        <time>2021-07-22T06:26:23Z</time>
      </trkpt>
      <trkpt lat="43.5482680" lon="-6.3981880">
        <ele>19.2</ele>
        <time>2021-07-22T06:26:26Z</time>
      </trkpt>
      <trkpt lat="43.5483080" lon="-6.3981560">
        <ele>18.8</ele>
        <time>2021-07-22T06:26:27Z</time>
      </trkpt>
      <trkpt lat="43.5483380" lon="-6.3981170">
        <ele>18.4</ele>
        <time>2021-07-22T06:26:28Z</time>
      </trkpt>
      <trkpt lat="43.5483650" lon="-6.3980780">
        <ele>17.6</ele>
        <time>2021-07-22T06:26:29Z</time>
      </trkpt>
      <trkpt lat="43.5483910" lon="-6.3980350">
        <ele>17.2</ele>
        <time>2021-07-22T06:26:30Z</time>
      </trkpt>
      <trkpt lat="43.5484110" lon="-6.3979890">
        <ele>17.2</ele>
        <time>2021-07-22T06:26:31Z</time>
      </trkpt>
      <trkpt lat="43.5484270" lon="-6.3977810">
        <ele>17.2</ele>
        <time>2021-07-22T06:26:35Z</time>
      </trkpt>
      <trkpt lat="43.5483330" lon="-6.3976800">
        <ele>17.2</ele>
        <time>2021-07-22T06:26:38Z</time>
      </trkpt>
      <trkpt lat="43.5483020" lon="-6.3976530">
        <ele>17.2</ele>
        <time>2021-07-22T06:26:39Z</time>
      </trkpt>
      <trkpt lat="43.5481850" lon="-6.3975640">
        <ele>17.2</ele>
        <time>2021-07-22T06:26:43Z</time>
      </trkpt>
      <trkpt lat="43.5481230" lon="-6.3975280">
        <ele>17.2</ele>
        <time>2021-07-22T06:26:45Z</time>
      </trkpt>
      <trkpt lat="43.5478880" lon="-6.3974020">
        <ele>17.2</ele>
        <time>2021-07-22T06:26:53Z</time>
      </trkpt>
      <trkpt lat="43.5478540" lon="-6.3973960">
        <ele>17.2</ele>
        <time>2021-07-22T06:26:54Z</time>
      </trkpt>
      <trkpt lat="43.5477550" lon="-6.3973890">
        <ele>17.2</ele>
        <time>2021-07-22T06:26:57Z</time>
      </trkpt>
      <trkpt lat="43.5476940" lon="-6.3973860">
        <ele>17.2</ele>
        <time>2021-07-22T06:26:59Z</time>
      </trkpt>
      <trkpt lat="43.5476640" lon="-6.3973820">
        <ele>17.2</ele>
        <time>2021-07-22T06:27:00Z</time>
      </trkpt>
      <trkpt lat="43.5476130" lon="-6.3973750">
        <ele>17.2</ele>
        <time>2021-07-22T06:27:02Z</time>
      </trkpt>
      <trkpt lat="43.5475350" lon="-6.3973520">
        <ele>17.2</ele>
        <time>2021-07-22T06:27:05Z</time>
      </trkpt>
      <trkpt lat="43.5474610" lon="-6.3973260">
        <ele>17.2</ele>
        <time>2021-07-22T06:27:08Z</time>
      </trkpt>
      <trkpt lat="43.5473920" lon="-6.3972970">
        <ele>17.2</ele>
        <time>2021-07-22T06:27:11Z</time>
      </trkpt>
      <trkpt lat="43.5473290" lon="-6.3972610">
        <ele>17.2</ele>
        <time>2021-07-22T06:27:14Z</time>
      </trkpt>
      <trkpt lat="43.5472640" lon="-6.3972200">
        <ele>17.2</ele>
        <time>2021-07-22T06:27:17Z</time>
      </trkpt>
      <trkpt lat="43.5472420" lon="-6.3972070">
        <ele>17.2</ele>
        <time>2021-07-22T06:27:18Z</time>
      </trkpt>
      <trkpt lat="43.5472200" lon="-6.3971930">
        <ele>17.6</ele>
        <time>2021-07-22T06:27:19Z</time>
      </trkpt>
      <trkpt lat="43.5471990" lon="-6.3971790">
        <ele>18.0</ele>
        <time>2021-07-22T06:27:20Z</time>
      </trkpt>
      <trkpt lat="43.5471790" lon="-6.3971620">
        <ele>18.4</ele>
        <time>2021-07-22T06:27:21Z</time>
      </trkpt>
      <trkpt lat="43.5471590" lon="-6.3971420">
        <ele>18.8</ele>
        <time>2021-07-22T06:27:22Z</time>
      </trkpt>
      <trkpt lat="43.5471390" lon="-6.3971230">
        <ele>19.2</ele>
        <time>2021-07-22T06:27:23Z</time>
      </trkpt>
      <trkpt lat="43.5470600" lon="-6.3970400">
        <ele>19.2</ele>
        <time>2021-07-22T06:27:27Z</time>
      </trkpt>
      <trkpt lat="43.5469570" lon="-6.3969060">
        <ele>19.2</ele>
        <time>2021-07-22T06:27:33Z</time>
      </trkpt>
      <trkpt lat="43.5469290" lon="-6.3968590">
        <ele>19.2</ele>
        <time>2021-07-22T06:27:35Z</time>
      </trkpt>
      <trkpt lat="43.5467960" lon="-6.3966080">
        <ele>19.2</ele>
        <time>2021-07-22T06:27:43Z</time>
      </trkpt>
      <trkpt lat="43.5467550" lon="-6.3964640">
        <ele>19.2</ele>
        <time>2021-07-22T06:27:47Z</time>
      </trkpt>
      <trkpt lat="43.5467130" lon="-6.3963350">
        <ele>19.2</ele>
        <time>2021-07-22T06:27:50Z</time>
      </trkpt>
      <trkpt lat="43.5466480" lon="-6.3961910">
        <ele>19.2</ele>
        <time>2021-07-22T06:27:53Z</time>
      </trkpt>
      <trkpt lat="43.5466010" lon="-6.3960870">
        <ele>19.2</ele>
        <time>2021-07-22T06:27:55Z</time>
      </trkpt>
      <trkpt lat="43.5465790" lon="-6.3960320">
        <ele>19.2</ele>
        <time>2021-07-22T06:27:56Z</time>
      </trkpt>
      <trkpt lat="43.5465330" lon="-6.3959190">
        <ele>19.2</ele>
        <time>2021-07-22T06:27:58Z</time>
      </trkpt>
      <trkpt lat="43.5464280" lon="-6.3956420">
        <ele>19.2</ele>
        <time>2021-07-22T06:28:03Z</time>
      </trkpt>
      <trkpt lat="43.5464030" lon="-6.3955920">
        <ele>19.2</ele>
        <time>2021-07-22T06:28:04Z</time>
      </trkpt>
      <trkpt lat="43.5463500" lon="-6.3955030">
        <ele>19.2</ele>
        <time>2021-07-22T06:28:06Z</time>
      </trkpt>
      <trkpt lat="43.5462680" lon="-6.3953730">
        <ele>19.2</ele>
        <time>2021-07-22T06:28:09Z</time>
      </trkpt>
      <trkpt lat="43.5462160" lon="-6.3952930">
        <ele>19.2</ele>
        <time>2021-07-22T06:28:11Z</time>
      </trkpt>
      <trkpt lat="43.5461650" lon="-6.3952090">
        <ele>19.2</ele>
        <time>2021-07-22T06:28:13Z</time>
      </trkpt>
      <trkpt lat="43.5460240" lon="-6.3949080">
        <ele>19.2</ele>
        <time>2021-07-22T06:28:20Z</time>
      </trkpt>
      <trkpt lat="43.5459830" lon="-6.3947900">
        <ele>19.2</ele>
        <time>2021-07-22T06:28:23Z</time>
      </trkpt>
      <trkpt lat="43.5459600" lon="-6.3947130">
        <ele>19.2</ele>
        <time>2021-07-22T06:28:25Z</time>
      </trkpt>
      <trkpt lat="43.5459270" lon="-6.3945850">
        <ele>19.2</ele>
        <time>2021-07-22T06:28:28Z</time>
      </trkpt>
      <trkpt lat="43.5458380" lon="-6.3942420">
        <ele>19.2</ele>
        <time>2021-07-22T06:28:35Z</time>
      </trkpt>
      <trkpt lat="43.5458110" lon="-6.3942030">
        <ele>18.8</ele>
        <time>2021-07-22T06:28:36Z</time>
      </trkpt>
      <trkpt lat="43.5457810" lon="-6.3941670">
        <ele>18.4</ele>
        <time>2021-07-22T06:28:37Z</time>
      </trkpt>
      <trkpt lat="43.5457410" lon="-6.3941550">
        <ele>17.8</ele>
        <time>2021-07-22T06:28:38Z</time>
      </trkpt>
      <trkpt lat="43.5456980" lon="-6.3941540">
        <ele>17.4</ele>
        <time>2021-07-22T06:28:39Z</time>
      </trkpt>
      <trkpt lat="43.5456600" lon="-6.3941640">
        <ele>17.0</ele>
        <time>2021-07-22T06:28:40Z</time>
      </trkpt>
      <trkpt lat="43.5455300" lon="-6.3942150">
        <ele>17.0</ele>
        <time>2021-07-22T06:28:44Z</time>
      </trkpt>
      <trkpt lat="43.5453720" lon="-6.3942940">
        <ele>17.0</ele>
        <time>2021-07-22T06:28:50Z</time>
      </trkpt>
      <trkpt lat="43.5453110" lon="-6.3943120">
        <ele>17.0</ele>
        <time>2021-07-22T06:28:53Z</time>
      </trkpt>
      <trkpt lat="43.5452630" lon="-6.3943480">
        <ele>17.0</ele>
        <time>2021-07-22T06:28:56Z</time>
      </trkpt>
      <trkpt lat="43.5452470" lon="-6.3943910">
        <ele>17.4</ele>
        <time>2021-07-22T06:28:58Z</time>
      </trkpt>
      <trkpt lat="43.5452480" lon="-6.3944120">
        <ele>17.8</ele>
        <time>2021-07-22T06:28:59Z</time>
      </trkpt>
      <trkpt lat="43.5452530" lon="-6.3944320">
        <ele>18.4</ele>
        <time>2021-07-22T06:29:00Z</time>
      </trkpt>
      <trkpt lat="43.5452650" lon="-6.3944550">
        <ele>18.8</ele>
        <time>2021-07-22T06:29:01Z</time>
      </trkpt>
      <trkpt lat="43.5452780" lon="-6.3944810">
        <ele>19.2</ele>
        <time>2021-07-22T06:29:02Z</time>
      </trkpt>
      <trkpt lat="43.5453060" lon="-6.3945310">
        <ele>19.2</ele>
        <time>2021-07-22T06:29:04Z</time>
      </trkpt>
      <trkpt lat="43.5453300" lon="-6.3945830">
        <ele>19.2</ele>
        <time>2021-07-22T06:29:06Z</time>
      </trkpt>
      <trkpt lat="43.5453510" lon="-6.3946350">
        <ele>19.2</ele>
        <time>2021-07-22T06:29:08Z</time>
      </trkpt>
      <trkpt lat="43.5453670" lon="-6.3946900">
        <ele>19.2</ele>
        <time>2021-07-22T06:29:10Z</time>
      </trkpt>
      <trkpt lat="43.5453780" lon="-6.3947180">
        <ele>19.6</ele>
        <time>2021-07-22T06:29:11Z</time>
      </trkpt>
      <trkpt lat="43.5453880" lon="-6.3947430">
        <ele>20.0</ele>
        <time>2021-07-22T06:29:12Z</time>
      </trkpt>
      <trkpt lat="43.5453950" lon="-6.3947700">
        <ele>20.4</ele>
        <time>2021-07-22T06:29:13Z</time>
      </trkpt>
      <trkpt lat="43.5453990" lon="-6.3947960">
        <ele>20.8</ele>
        <time>2021-07-22T06:29:14Z</time>
      </trkpt>
      <trkpt lat="43.5454030" lon="-6.3948250">
        <ele>21.2</ele>
        <time>2021-07-22T06:29:15Z</time>
      </trkpt>
      <trkpt lat="43.5454190" lon="-6.3949330">
        <ele>21.2</ele>
        <time>2021-07-22T06:29:19Z</time>
      </trkpt>
      <trkpt lat="43.5454280" lon="-6.3950700">
        <ele>21.2</ele>
        <time>2021-07-22T06:29:24Z</time>
      </trkpt>
      <trkpt lat="43.5454240" lon="-6.3951370">
        <ele>21.6</ele>
        <time>2021-07-22T06:29:27Z</time>
      </trkpt>
      <trkpt lat="43.5454230" lon="-6.3951660">
        <ele>22.2</ele>
        <time>2021-07-22T06:29:28Z</time>
      </trkpt>
      <trkpt lat="43.5454220" lon="-6.3951930">
        <ele>22.6</ele>
        <time>2021-07-22T06:29:29Z</time>
      </trkpt>
      <trkpt lat="43.5454210" lon="-6.3952220">
        <ele>23.0</ele>
        <time>2021-07-22T06:29:30Z</time>
      </trkpt>
      <trkpt lat="43.5454200" lon="-6.3952540">
        <ele>23.4</ele>
        <time>2021-07-22T06:29:31Z</time>
      </trkpt>
      <trkpt lat="43.5454030" lon="-6.3954390">
        <ele>23.4</ele>
        <time>2021-07-22T06:29:37Z</time>
      </trkpt>
      <trkpt lat="43.5453580" lon="-6.3956390">
        <ele>23.8</ele>
        <time>2021-07-22T06:29:44Z</time>
      </trkpt>
      <trkpt lat="43.5453540" lon="-6.3956660">
        <ele>24.2</ele>
        <time>2021-07-22T06:29:45Z</time>
      </trkpt>
      <trkpt lat="43.5453470" lon="-6.3956930">
        <ele>24.6</ele>
        <time>2021-07-22T06:29:46Z</time>
      </trkpt>
      <trkpt lat="43.5453410" lon="-6.3957200">
        <ele>25.0</ele>
        <time>2021-07-22T06:29:47Z</time>
      </trkpt>
      <trkpt lat="43.5453340" lon="-6.3957440">
        <ele>25.4</ele>
        <time>2021-07-22T06:29:48Z</time>
      </trkpt>
      <trkpt lat="43.5452980" lon="-6.3958890">
        <ele>25.4</ele>
        <time>2021-07-22T06:29:53Z</time>
      </trkpt>
      <trkpt lat="43.5452310" lon="-6.3961130">
        <ele>25.8</ele>
        <time>2021-07-22T06:30:01Z</time>
      </trkpt>
      <trkpt lat="43.5452270" lon="-6.3961380">
        <ele>26.2</ele>
        <time>2021-07-22T06:30:02Z</time>
      </trkpt>
      <trkpt lat="43.5452220" lon="-6.3961600">
        <ele>26.6</ele>
        <time>2021-07-22T06:30:03Z</time>
      </trkpt>
      <trkpt lat="43.5452180" lon="-6.3961810">
        <ele>27.0</ele>
        <time>2021-07-22T06:30:04Z</time>
      </trkpt>
      <trkpt lat="43.5452140" lon="-6.3962010">
        <ele>27.4</ele>
        <time>2021-07-22T06:30:05Z</time>
      </trkpt>
      <trkpt lat="43.5452170" lon="-6.3962200">
        <ele>27.4</ele>
        <time>2021-07-22T06:30:06Z</time>
      </trkpt>
      <trkpt lat="43.5452330" lon="-6.3962970">
        <ele>27.4</ele>
        <time>2021-07-22T06:30:09Z</time>
      </trkpt>
      <trkpt lat="43.5452400" lon="-6.3963260">
        <ele>27.4</ele>
        <time>2021-07-22T06:30:10Z</time>
      </trkpt>
      <trkpt lat="43.5452430" lon="-6.3965000">
        <ele>27.4</ele>
        <time>2021-07-22T06:30:14Z</time>
      </trkpt>
      <trkpt lat="43.5452330" lon="-6.3966230">
        <ele>27.4</ele>
        <time>2021-07-22T06:30:16Z</time>
      </trkpt>
      <trkpt lat="43.5452360" lon="-6.3967350">
        <ele>27.4</ele>
        <time>2021-07-22T06:30:18Z</time>
      </trkpt>
      <trkpt lat="43.5452550" lon="-6.3968960">
        <ele>27.4</ele>
        <time>2021-07-22T06:30:22Z</time>
      </trkpt>
      <trkpt lat="43.5452570" lon="-6.3969300">
        <ele>27.4</ele>
        <time>2021-07-22T06:30:23Z</time>
      </trkpt>
      <trkpt lat="43.5453000" lon="-6.3971960">
        <ele>27.4</ele>
        <time>2021-07-22T06:30:31Z</time>
      </trkpt>
      <trkpt lat="43.5453450" lon="-6.3974090">
        <ele>27.4</ele>
        <time>2021-07-22T06:30:37Z</time>
      </trkpt>
      <trkpt lat="43.5454400" lon="-6.3976210">
        <ele>27.4</ele>
        <time>2021-07-22T06:30:44Z</time>
      </trkpt>
      <trkpt lat="43.5455270" lon="-6.3978250">
        <ele>27.4</ele>
        <time>2021-07-22T06:30:51Z</time>
      </trkpt>
      <trkpt lat="43.5455510" lon="-6.3978840">
        <ele>27.8</ele>
        <time>2021-07-22T06:30:53Z</time>
      </trkpt>
      <trkpt lat="43.5455640" lon="-6.3979130">
        <ele>28.2</ele>
        <time>2021-07-22T06:30:54Z</time>
      </trkpt>
      <trkpt lat="43.5455760" lon="-6.3979420">
        <ele>28.6</ele>
        <time>2021-07-22T06:30:55Z</time>
      </trkpt>
      <trkpt lat="43.5455890" lon="-6.3979730">
        <ele>29.0</ele>
        <time>2021-07-22T06:30:56Z</time>
      </trkpt>
      <trkpt lat="43.5456010" lon="-6.3980050">
        <ele>29.4</ele>
        <time>2021-07-22T06:30:57Z</time>
      </trkpt>
      <trkpt lat="43.5456320" lon="-6.3981020">
        <ele>29.4</ele>
        <time>2021-07-22T06:31:00Z</time>
      </trkpt>
      <trkpt lat="43.5456950" lon="-6.3983530">
        <ele>29.4</ele>
        <time>2021-07-22T06:31:08Z</time>
      </trkpt>
      <trkpt lat="43.5457320" lon="-6.3986100">
        <ele>29.4</ele>
        <time>2021-07-22T06:31:16Z</time>
      </trkpt>
      <trkpt lat="43.5457490" lon="-6.3989090">
        <ele>29.4</ele>
        <time>2021-07-22T06:31:25Z</time>
      </trkpt>
      <trkpt lat="43.5457520" lon="-6.3991240">
        <ele>29.4</ele>
        <time>2021-07-22T06:31:32Z</time>
      </trkpt>
      <trkpt lat="43.5457490" lon="-6.3993790">
        <ele>29.4</ele>
        <time>2021-07-22T06:31:40Z</time>
      </trkpt>
      <trkpt lat="43.5457520" lon="-6.3997250">
        <ele>29.4</ele>
        <time>2021-07-22T06:31:50Z</time>
      </trkpt>
      <trkpt lat="43.5457600" lon="-6.3999060">
        <ele>29.8</ele>
        <time>2021-07-22T06:31:56Z</time>
      </trkpt>
      <trkpt lat="43.5457630" lon="-6.3999320">
        <ele>30.2</ele>
        <time>2021-07-22T06:31:57Z</time>
      </trkpt>
      <trkpt lat="43.5457660" lon="-6.3999570">
        <ele>30.6</ele>
        <time>2021-07-22T06:31:58Z</time>
      </trkpt>
      <trkpt lat="43.5457650" lon="-6.3999640">
        <ele>31.0</ele>
        <time>2021-07-22T06:31:59Z</time>
      </trkpt>
      <trkpt lat="43.5457640" lon="-6.3999710">
        <ele>31.6</ele>
        <time>2021-07-22T06:32:00Z</time>
      </trkpt>
      <trkpt lat="43.5457670" lon="-6.4000010">
        <ele>31.6</ele>
        <time>2021-07-22T06:32:20Z</time>
      </trkpt>
      <trkpt lat="43.5457680" lon="-6.4000260">
        <ele>31.6</ele>
        <time>2021-07-22T06:32:21Z</time>
      </trkpt>
      <trkpt lat="43.5457450" lon="-6.4001860">
        <ele>31.6</ele>
        <time>2021-07-22T06:32:26Z</time>
      </trkpt>
      <trkpt lat="43.5457370" lon="-6.4002260">
        <ele>31.6</ele>
        <time>2021-07-22T06:32:27Z</time>
      </trkpt>
      <trkpt lat="43.5456580" lon="-6.4006070">
        <ele>31.6</ele>
        <time>2021-07-22T06:32:36Z</time>
      </trkpt>
      <trkpt lat="43.5455460" lon="-6.4009390">
        <ele>31.6</ele>
        <time>2021-07-22T06:32:44Z</time>
      </trkpt>
      <trkpt lat="43.5455150" lon="-6.4010600">
        <ele>32.0</ele>
        <time>2021-07-22T06:32:47Z</time>
      </trkpt>
      <trkpt lat="43.5455050" lon="-6.4011020">
        <ele>32.4</ele>
        <time>2021-07-22T06:32:48Z</time>
      </trkpt>
      <trkpt lat="43.5454950" lon="-6.4011450">
        <ele>32.8</ele>
        <time>2021-07-22T06:32:49Z</time>
      </trkpt>
      <trkpt lat="43.5454870" lon="-6.4011860">
        <ele>33.2</ele>
        <time>2021-07-22T06:32:50Z</time>
      </trkpt>
      <trkpt lat="43.5454790" lon="-6.4012260">
        <ele>33.6</ele>
        <time>2021-07-22T06:32:51Z</time>
      </trkpt>
      <trkpt lat="43.5454220" lon="-6.4015610">
        <ele>33.6</ele>
        <time>2021-07-22T06:33:00Z</time>
      </trkpt>
      <trkpt lat="43.5453950" lon="-6.4016860">
        <ele>34.0</ele>
        <time>2021-07-22T06:33:04Z</time>
      </trkpt>
      <trkpt lat="43.5453880" lon="-6.4017160">
        <ele>34.4</ele>
        <time>2021-07-22T06:33:05Z</time>
      </trkpt>
      <trkpt lat="43.5453810" lon="-6.4017440">
        <ele>35.2</ele>
        <time>2021-07-22T06:33:06Z</time>
      </trkpt>
      <trkpt lat="43.5453760" lon="-6.4017730">
        <ele>35.6</ele>
        <time>2021-07-22T06:33:07Z</time>
      </trkpt>
      <trkpt lat="43.5453640" lon="-6.4020460">
        <ele>35.6</ele>
        <time>2021-07-22T06:33:15Z</time>
      </trkpt>
      <trkpt lat="43.5453780" lon="-6.4022220">
        <ele>35.6</ele>
        <time>2021-07-22T06:33:20Z</time>
      </trkpt>
      <trkpt lat="43.5453700" lon="-6.4022960">
        <ele>36.0</ele>
        <time>2021-07-22T06:33:22Z</time>
      </trkpt>
      <trkpt lat="43.5453630" lon="-6.4023350">
        <ele>36.4</ele>
        <time>2021-07-22T06:33:23Z</time>
      </trkpt>
      <trkpt lat="43.5453510" lon="-6.4023710">
        <ele>36.8</ele>
        <time>2021-07-22T06:33:24Z</time>
      </trkpt>
      <trkpt lat="43.5453410" lon="-6.4024070">
        <ele>37.2</ele>
        <time>2021-07-22T06:33:25Z</time>
      </trkpt>
      <trkpt lat="43.5453310" lon="-6.4024420">
        <ele>37.6</ele>
        <time>2021-07-22T06:33:26Z</time>
      </trkpt>
      <trkpt lat="43.5453040" lon="-6.4025850">
        <ele>37.6</ele>
        <time>2021-07-22T06:33:30Z</time>
      </trkpt>
      <trkpt lat="43.5452330" lon="-6.4028050">
        <ele>37.6</ele>
        <time>2021-07-22T06:33:37Z</time>
      </trkpt>
      <trkpt lat="43.5452180" lon="-6.4028760">
        <ele>38.0</ele>
        <time>2021-07-22T06:33:39Z</time>
      </trkpt>
      <trkpt lat="43.5452120" lon="-6.4029160">
        <ele>38.4</ele>
        <time>2021-07-22T06:33:40Z</time>
      </trkpt>
      <trkpt lat="43.5452080" lon="-6.4029600">
        <ele>38.8</ele>
        <time>2021-07-22T06:33:41Z</time>
      </trkpt>
      <trkpt lat="43.5452000" lon="-6.4029970">
        <ele>39.2</ele>
        <time>2021-07-22T06:33:42Z</time>
      </trkpt>
      <trkpt lat="43.5451910" lon="-6.4030350">
        <ele>39.6</ele>
        <time>2021-07-22T06:33:43Z</time>
      </trkpt>
      <trkpt lat="43.5451120" lon="-6.4032400">
        <ele>39.6</ele>
        <time>2021-07-22T06:33:49Z</time>
      </trkpt>
      <trkpt lat="43.5449680" lon="-6.4034560">
        <ele>39.6</ele>
        <time>2021-07-22T06:33:56Z</time>
      </trkpt>
      <trkpt lat="43.5448930" lon="-6.4035380">
        <ele>39.6</ele>
        <time>2021-07-22T06:34:00Z</time>
      </trkpt>
      <trkpt lat="43.5448760" lon="-6.4035590">
        <ele>39.6</ele>
        <time>2021-07-22T06:34:01Z</time>
      </trkpt>
      <trkpt lat="43.5448270" lon="-6.4036070">
        <ele>39.6</ele>
        <time>2021-07-22T06:34:04Z</time>
      </trkpt>
      <trkpt lat="43.5447830" lon="-6.4036420">
        <ele>39.6</ele>
        <time>2021-07-22T06:34:07Z</time>
      </trkpt>
      <trkpt lat="43.5447750" lon="-6.4036610">
        <ele>39.6</ele>
        <time>2021-07-22T06:34:09Z</time>
      </trkpt>
      <trkpt lat="43.5447780" lon="-6.4036750">
        <ele>39.6</ele>
        <time>2021-07-22T06:34:11Z</time>
      </trkpt>
      <trkpt lat="43.5447880" lon="-6.4036690">
        <ele>39.6</ele>
        <time>2021-07-22T06:34:12Z</time>
      </trkpt>
      <trkpt lat="43.5448310" lon="-6.4036190">
        <ele>39.6</ele>
        <time>2021-07-22T06:34:16Z</time>
      </trkpt>
      <trkpt lat="43.5449180" lon="-6.4035200">
        <ele>39.6</ele>
        <time>2021-07-22T06:34:20Z</time>
      </trkpt>
      <trkpt lat="43.5450750" lon="-6.4032780">
        <ele>39.6</ele>
        <time>2021-07-22T06:34:27Z</time>
      </trkpt>
      <trkpt lat="43.5451450" lon="-6.4031570">
        <ele>39.6</ele>
        <time>2021-07-22T06:34:30Z</time>
      </trkpt>
      <trkpt lat="43.5451820" lon="-6.4030090">
        <ele>39.6</ele>
        <time>2021-07-22T06:34:33Z</time>
      </trkpt>
      <trkpt lat="43.5451950" lon="-6.4028310">
        <ele>39.6</ele>
        <time>2021-07-22T06:34:36Z</time>
      </trkpt>
      <trkpt lat="43.5452090" lon="-6.4026780">
        <ele>39.6</ele>
        <time>2021-07-22T06:34:39Z</time>
      </trkpt>
      <trkpt lat="43.5451590" lon="-6.4024230">
        <ele>39.6</ele>
        <time>2021-07-22T06:34:45Z</time>
      </trkpt>
      <trkpt lat="43.5451370" lon="-6.4024180">
        <ele>39.6</ele>
        <time>2021-07-22T06:34:46Z</time>
      </trkpt>
      <trkpt lat="43.5450880" lon="-6.4024390">
        <ele>39.6</ele>
        <time>2021-07-22T06:34:48Z</time>
      </trkpt>
      <trkpt lat="43.5450630" lon="-6.4025090">
        <ele>39.6</ele>
        <time>2021-07-22T06:34:50Z</time>
      </trkpt>
      <trkpt lat="43.5450540" lon="-6.4025540">
        <ele>39.6</ele>
        <time>2021-07-22T06:34:51Z</time>
      </trkpt>
      <trkpt lat="43.5450430" lon="-6.4025940">
        <ele>39.6</ele>
        <time>2021-07-22T06:34:52Z</time>
      </trkpt>
      <trkpt lat="43.5450220" lon="-6.4026830">
        <ele>39.6</ele>
        <time>2021-07-22T06:34:54Z</time>
      </trkpt>
      <trkpt lat="43.5449520" lon="-6.4029080">
        <ele>39.6</ele>
        <time>2021-07-22T06:34:59Z</time>
      </trkpt>
      <trkpt lat="43.5449360" lon="-6.4029520">
        <ele>39.6</ele>
        <time>2021-07-22T06:35:00Z</time>
      </trkpt>
      <trkpt lat="43.5448150" lon="-6.4032720">
        <ele>39.6</ele>
        <time>2021-07-22T06:35:07Z</time>
      </trkpt>
      <trkpt lat="43.5447970" lon="-6.4033080">
        <ele>39.6</ele>
        <time>2021-07-22T06:35:08Z</time>
      </trkpt>
      <trkpt lat="43.5446490" lon="-6.4035850">
        <ele>39.6</ele>
        <time>2021-07-22T06:35:15Z</time>
      </trkpt>
      <trkpt lat="43.5445790" lon="-6.4036870">
        <ele>39.6</ele>
        <time>2021-07-22T06:35:18Z</time>
      </trkpt>
      <trkpt lat="43.5445360" lon="-6.4037610">
        <ele>39.6</ele>
        <time>2021-07-22T06:35:20Z</time>
      </trkpt>
      <trkpt lat="43.5445090" lon="-6.4038010">
        <ele>39.6</ele>
        <time>2021-07-22T06:35:21Z</time>
      </trkpt>
      <trkpt lat="43.5443990" lon="-6.4039340">
        <ele>39.6</ele>
        <time>2021-07-22T06:35:25Z</time>
      </trkpt>
      <trkpt lat="43.5443120" lon="-6.4040470">
        <ele>39.6</ele>
        <time>2021-07-22T06:35:28Z</time>
      </trkpt>
      <trkpt lat="43.5440010" lon="-6.4043990">
        <ele>39.6</ele>
        <time>2021-07-22T06:35:36Z</time>
      </trkpt>
      <trkpt lat="43.5439630" lon="-6.4044440">
        <ele>39.2</ele>
        <time>2021-07-22T06:35:37Z</time>
      </trkpt>
      <trkpt lat="43.5439260" lon="-6.4044880">
        <ele>38.8</ele>
        <time>2021-07-22T06:35:38Z</time>
      </trkpt>
      <trkpt lat="43.5438840" lon="-6.4045340">
        <ele>38.4</ele>
        <time>2021-07-22T06:35:39Z</time>
      </trkpt>
      <trkpt lat="43.5438460" lon="-6.4045810">
        <ele>38.0</ele>
        <time>2021-07-22T06:35:40Z</time>
      </trkpt>
      <trkpt lat="43.5438080" lon="-6.4046270">
        <ele>37.6</ele>
        <time>2021-07-22T06:35:41Z</time>
      </trkpt>
      <trkpt lat="43.5436370" lon="-6.4048160">
        <ele>37.6</ele>
        <time>2021-07-22T06:35:45Z</time>
      </trkpt>
      <trkpt lat="43.5435130" lon="-6.4049710">
        <ele>37.6</ele>
        <time>2021-07-22T06:35:48Z</time>
      </trkpt>
      <trkpt lat="43.5434270" lon="-6.4050850">
        <ele>37.6</ele>
        <time>2021-07-22T06:35:50Z</time>
      </trkpt>
      <trkpt lat="43.5433460" lon="-6.4052160">
        <ele>37.6</ele>
        <time>2021-07-22T06:35:52Z</time>
      </trkpt>
      <trkpt lat="43.5433080" lon="-6.4052840">
        <ele>37.2</ele>
        <time>2021-07-22T06:35:53Z</time>
      </trkpt>
      <trkpt lat="43.5432700" lon="-6.4053530">
        <ele>36.8</ele>
        <time>2021-07-22T06:35:54Z</time>
      </trkpt>
      <trkpt lat="43.5432350" lon="-6.4054280">
        <ele>36.4</ele>
        <time>2021-07-22T06:35:55Z</time>
      </trkpt>
      <trkpt lat="43.5432010" lon="-6.4055000">
        <ele>36.0</ele>
        <time>2021-07-22T06:35:56Z</time>
      </trkpt>
      <trkpt lat="43.5431670" lon="-6.4055700">
        <ele>35.6</ele>
        <time>2021-07-22T06:35:57Z</time>
      </trkpt>
      <trkpt lat="43.5431050" lon="-6.4057100">
        <ele>35.6</ele>
        <time>2021-07-22T06:35:59Z</time>
      </trkpt>
      <trkpt lat="43.5429790" lon="-6.4061080">
        <ele>35.6</ele>
        <time>2021-07-22T06:36:05Z</time>
      </trkpt>
      <trkpt lat="43.5429380" lon="-6.4062750">
        <ele>35.6</ele>
        <time>2021-07-22T06:36:08Z</time>
      </trkpt>
      <trkpt lat="43.5429180" lon="-6.4063870">
        <ele>35.6</ele>
        <time>2021-07-22T06:36:10Z</time>
      </trkpt>
      <trkpt lat="43.5429090" lon="-6.4064440">
        <ele>35.6</ele>
        <time>2021-07-22T06:36:11Z</time>
      </trkpt>
      <trkpt lat="43.5428910" lon="-6.4065580">
        <ele>35.6</ele>
        <time>2021-07-22T06:36:13Z</time>
      </trkpt>
      <trkpt lat="43.5428820" lon="-6.4066170">
        <ele>35.6</ele>
        <time>2021-07-22T06:36:14Z</time>
      </trkpt>
      <trkpt lat="43.5428650" lon="-6.4067270">
        <ele>35.6</ele>
        <time>2021-07-22T06:36:16Z</time>
      </trkpt>
      <trkpt lat="43.5428530" lon="-6.4068380">
        <ele>35.6</ele>
        <time>2021-07-22T06:36:18Z</time>
      </trkpt>
      <trkpt lat="43.5428470" lon="-6.4069380">
        <ele>35.6</ele>
        <time>2021-07-22T06:36:20Z</time>
      </trkpt>
      <trkpt lat="43.5428350" lon="-6.4070340">
        <ele>35.6</ele>
        <time>2021-07-22T06:36:22Z</time>
      </trkpt>
      <trkpt lat="43.5428280" lon="-6.4071310">
        <ele>35.6</ele>
        <time>2021-07-22T06:36:24Z</time>
      </trkpt>
      <trkpt lat="43.5428270" lon="-6.4072280">
        <ele>35.6</ele>
        <time>2021-07-22T06:36:26Z</time>
      </trkpt>
      <trkpt lat="43.5428310" lon="-6.4073230">
        <ele>35.6</ele>
        <time>2021-07-22T06:36:28Z</time>
      </trkpt>
      <trkpt lat="43.5428310" lon="-6.4074180">
        <ele>36.0</ele>
        <time>2021-07-22T06:36:30Z</time>
      </trkpt>
      <trkpt lat="43.5428290" lon="-6.4074620">
        <ele>36.4</ele>
        <time>2021-07-22T06:36:31Z</time>
      </trkpt>
      <trkpt lat="43.5428270" lon="-6.4075060">
        <ele>36.8</ele>
        <time>2021-07-22T06:36:32Z</time>
      </trkpt>
      <trkpt lat="43.5428260" lon="-6.4075490">
        <ele>37.2</ele>
        <time>2021-07-22T06:36:33Z</time>
      </trkpt>
      <trkpt lat="43.5428240" lon="-6.4075930">
        <ele>37.6</ele>
        <time>2021-07-22T06:36:34Z</time>
      </trkpt>
      <trkpt lat="43.5428210" lon="-6.4076800">
        <ele>37.6</ele>
        <time>2021-07-22T06:36:36Z</time>
      </trkpt>
      <trkpt lat="43.5428240" lon="-6.4079030">
        <ele>38.0</ele>
        <time>2021-07-22T06:36:41Z</time>
      </trkpt>
      <trkpt lat="43.5428250" lon="-6.4079450">
        <ele>38.4</ele>
        <time>2021-07-22T06:36:42Z</time>
      </trkpt>
      <trkpt lat="43.5428260" lon="-6.4079890">
        <ele>39.0</ele>
        <time>2021-07-22T06:36:43Z</time>
      </trkpt>
      <trkpt lat="43.5428250" lon="-6.4080270">
        <ele>39.4</ele>
        <time>2021-07-22T06:36:44Z</time>
      </trkpt>
      <trkpt lat="43.5428240" lon="-6.4080710">
        <ele>39.8</ele>
        <time>2021-07-22T06:36:45Z</time>
      </trkpt>
      <trkpt lat="43.5428290" lon="-6.4082680">
        <ele>39.8</ele>
        <time>2021-07-22T06:36:50Z</time>
      </trkpt>
      <trkpt lat="43.5428300" lon="-6.4083100">
        <ele>40.2</ele>
        <time>2021-07-22T06:36:51Z</time>
      </trkpt>
      <trkpt lat="43.5428320" lon="-6.4083510">
        <ele>40.6</ele>
        <time>2021-07-22T06:36:52Z</time>
      </trkpt>
      <trkpt lat="43.5428320" lon="-6.4083900">
        <ele>41.0</ele>
        <time>2021-07-22T06:36:53Z</time>
      </trkpt>
      <trkpt lat="43.5428320" lon="-6.4084300">
        <ele>41.4</ele>
        <time>2021-07-22T06:36:54Z</time>
      </trkpt>
      <trkpt lat="43.5428350" lon="-6.4084720">
        <ele>41.8</ele>
        <time>2021-07-22T06:36:55Z</time>
      </trkpt>
      <trkpt lat="43.5428340" lon="-6.4086700">
        <ele>41.8</ele>
        <time>2021-07-22T06:37:00Z</time>
      </trkpt>
      <trkpt lat="43.5428400" lon="-6.4087880">
        <ele>42.2</ele>
        <time>2021-07-22T06:37:03Z</time>
      </trkpt>
      <trkpt lat="43.5428420" lon="-6.4088260">
        <ele>42.8</ele>
        <time>2021-07-22T06:37:04Z</time>
      </trkpt>
      <trkpt lat="43.5428440" lon="-6.4088640">
        <ele>43.2</ele>
        <time>2021-07-22T06:37:05Z</time>
      </trkpt>
      <trkpt lat="43.5428420" lon="-6.4089070">
        <ele>43.6</ele>
        <time>2021-07-22T06:37:06Z</time>
      </trkpt>
      <trkpt lat="43.5428400" lon="-6.4089490">
        <ele>44.0</ele>
        <time>2021-07-22T06:37:07Z</time>
      </trkpt>
      <trkpt lat="43.5428350" lon="-6.4090310">
        <ele>44.0</ele>
        <time>2021-07-22T06:37:09Z</time>
      </trkpt>
      <trkpt lat="43.5428340" lon="-6.4091900">
        <ele>44.6</ele>
        <time>2021-07-22T06:37:13Z</time>
      </trkpt>
      <trkpt lat="43.5428320" lon="-6.4092280">
        <ele>45.0</ele>
        <time>2021-07-22T06:37:14Z</time>
      </trkpt>
      <trkpt lat="43.5428310" lon="-6.4092700">
        <ele>45.4</ele>
        <time>2021-07-22T06:37:15Z</time>
      </trkpt>
      <trkpt lat="43.5428310" lon="-6.4093090">
        <ele>45.8</ele>
        <time>2021-07-22T06:37:16Z</time>
      </trkpt>
      <trkpt lat="43.5428310" lon="-6.4093490">
        <ele>46.2</ele>
        <time>2021-07-22T06:37:17Z</time>
      </trkpt>
      <trkpt lat="43.5428300" lon="-6.4093860">
        <ele>46.2</ele>
        <time>2021-07-22T06:37:18Z</time>
      </trkpt>
      <trkpt lat="43.5428360" lon="-6.4096560">
        <ele>46.6</ele>
        <time>2021-07-22T06:37:25Z</time>
      </trkpt>
      <trkpt lat="43.5428360" lon="-6.4096950">
        <ele>47.0</ele>
        <time>2021-07-22T06:37:26Z</time>
      </trkpt>
      <trkpt lat="43.5428360" lon="-6.4097340">
        <ele>47.4</ele>
        <time>2021-07-22T06:37:27Z</time>
      </trkpt>
      <trkpt lat="43.5428350" lon="-6.4097720">
        <ele>48.0</ele>
        <time>2021-07-22T06:37:28Z</time>
      </trkpt>
      <trkpt lat="43.5428360" lon="-6.4098120">
        <ele>48.4</ele>
        <time>2021-07-22T06:37:29Z</time>
      </trkpt>
      <trkpt lat="43.5428320" lon="-6.4100450">
        <ele>48.4</ele>
        <time>2021-07-22T06:37:35Z</time>
      </trkpt>
      <trkpt lat="43.5428530" lon="-6.4103020">
        <ele>48.4</ele>
        <time>2021-07-22T06:37:43Z</time>
      </trkpt>
      <trkpt lat="43.5428640" lon="-6.4103530">
        <ele>48.4</ele>
        <time>2021-07-22T06:37:47Z</time>
      </trkpt>
      <trkpt lat="43.5428650" lon="-6.4103780">
        <ele>48.4</ele>
        <time>2021-07-22T06:39:04Z</time>
      </trkpt>
      <trkpt lat="43.5428640" lon="-6.4103960">
        <ele>48.4</ele>
        <time>2021-07-22T06:39:05Z</time>
      </trkpt>
      <trkpt lat="43.5428630" lon="-6.4104340">
        <ele>48.4</ele>
        <time>2021-07-22T06:39:07Z</time>
      </trkpt>
      <trkpt lat="43.5428600" lon="-6.4105160">
        <ele>48.8</ele>
        <time>2021-07-22T06:39:10Z</time>
      </trkpt>
      <trkpt lat="43.5428630" lon="-6.4105550">
        <ele>49.2</ele>
        <time>2021-07-22T06:39:11Z</time>
      </trkpt>
      <trkpt lat="43.5428660" lon="-6.4105990">
        <ele>49.6</ele>
        <time>2021-07-22T06:39:12Z</time>
      </trkpt>
      <trkpt lat="43.5428660" lon="-6.4106390">
        <ele>50.0</ele>
        <time>2021-07-22T06:39:13Z</time>
      </trkpt>
      <trkpt lat="43.5428650" lon="-6.4106790">
        <ele>50.4</ele>
        <time>2021-07-22T06:39:14Z</time>
      </trkpt>
      <trkpt lat="43.5428680" lon="-6.4109380">
        <ele>50.4</ele>
        <time>2021-07-22T06:39:20Z</time>
      </trkpt>
      <trkpt lat="43.5428790" lon="-6.4113090">
        <ele>50.4</ele>
        <time>2021-07-22T06:39:28Z</time>
      </trkpt>
      <trkpt lat="43.5428900" lon="-6.4116980">
        <ele>50.4</ele>
        <time>2021-07-22T06:39:35Z</time>
      </trkpt>
      <trkpt lat="43.5428960" lon="-6.4119330">
        <ele>50.4</ele>
        <time>2021-07-22T06:39:39Z</time>
      </trkpt>
      <trkpt lat="43.5429040" lon="-6.4121070">
        <ele>50.4</ele>
        <time>2021-07-22T06:39:42Z</time>
      </trkpt>
      <trkpt lat="43.5429060" lon="-6.4121680">
        <ele>50.4</ele>
        <time>2021-07-22T06:39:43Z</time>
      </trkpt>
      <trkpt lat="43.5429250" lon="-6.4123970">
        <ele>50.4</ele>
        <time>2021-07-22T06:39:47Z</time>
      </trkpt>
      <trkpt lat="43.5429480" lon="-6.4126890">
        <ele>50.4</ele>
        <time>2021-07-22T06:39:52Z</time>
      </trkpt>
      <trkpt lat="43.5429510" lon="-6.4127450">
        <ele>50.4</ele>
        <time>2021-07-22T06:39:53Z</time>
      </trkpt>
      <trkpt lat="43.5429900" lon="-6.4130300">
        <ele>50.4</ele>
        <time>2021-07-22T06:39:58Z</time>
      </trkpt>
      <trkpt lat="43.5430020" lon="-6.4131510">
        <ele>50.4</ele>
        <time>2021-07-22T06:40:00Z</time>
      </trkpt>
      <trkpt lat="43.5430050" lon="-6.4132130">
        <ele>50.4</ele>
        <time>2021-07-22T06:40:01Z</time>
      </trkpt>
      <trkpt lat="43.5430110" lon="-6.4132720">
        <ele>50.4</ele>
        <time>2021-07-22T06:40:02Z</time>
      </trkpt>
      <trkpt lat="43.5430210" lon="-6.4133930">
        <ele>50.4</ele>
        <time>2021-07-22T06:40:04Z</time>
      </trkpt>
      <trkpt lat="43.5430500" lon="-6.4136370">
        <ele>50.4</ele>
        <time>2021-07-22T06:40:08Z</time>
      </trkpt>
      <trkpt lat="43.5430560" lon="-6.4136990">
        <ele>50.0</ele>
        <time>2021-07-22T06:40:09Z</time>
      </trkpt>
      <trkpt lat="43.5430650" lon="-6.4137580">
        <ele>49.6</ele>
        <time>2021-07-22T06:40:10Z</time>
      </trkpt>
      <trkpt lat="43.5430700" lon="-6.4138180">
        <ele>49.2</ele>
        <time>2021-07-22T06:40:11Z</time>
      </trkpt>
      <trkpt lat="43.5430760" lon="-6.4138780">
        <ele>48.8</ele>
        <time>2021-07-22T06:40:12Z</time>
      </trkpt>
      <trkpt lat="43.5430800" lon="-6.4139400">
        <ele>48.2</ele>
        <time>2021-07-22T06:40:13Z</time>
      </trkpt>
      <trkpt lat="43.5430910" lon="-6.4143250">
        <ele>48.2</ele>
        <time>2021-07-22T06:40:19Z</time>
      </trkpt>
      <trkpt lat="43.5430940" lon="-6.4143880">
        <ele>48.2</ele>
        <time>2021-07-22T06:40:20Z</time>
      </trkpt>
      <trkpt lat="43.5430680" lon="-6.4150020">
        <ele>47.8</ele>
        <time>2021-07-22T06:40:29Z</time>
      </trkpt>
      <trkpt lat="43.5430600" lon="-6.4150710">
        <ele>47.0</ele>
        <time>2021-07-22T06:40:30Z</time>
      </trkpt>
      <trkpt lat="43.5430530" lon="-6.4151420">
        <ele>46.6</ele>
        <time>2021-07-22T06:40:31Z</time>
      </trkpt>
      <trkpt lat="43.5430440" lon="-6.4152120">
        <ele>46.2</ele>
        <time>2021-07-22T06:40:32Z</time>
      </trkpt>
      <trkpt lat="43.5430300" lon="-6.4153520">
        <ele>46.2</ele>
        <time>2021-07-22T06:40:34Z</time>
      </trkpt>
      <trkpt lat="43.5430210" lon="-6.4154230">
        <ele>46.2</ele>
        <time>2021-07-22T06:40:35Z</time>
      </trkpt>
      <trkpt lat="43.5430020" lon="-6.4155680">
        <ele>46.2</ele>
        <time>2021-07-22T06:40:37Z</time>
      </trkpt>
      <trkpt lat="43.5429800" lon="-6.4157070">
        <ele>46.2</ele>
        <time>2021-07-22T06:40:39Z</time>
      </trkpt>
      <trkpt lat="43.5429110" lon="-6.4160540">
        <ele>45.8</ele>
        <time>2021-07-22T06:40:44Z</time>
      </trkpt>
      <trkpt lat="43.5428950" lon="-6.4161300">
        <ele>45.4</ele>
        <time>2021-07-22T06:40:45Z</time>
      </trkpt>
      <trkpt lat="43.5428770" lon="-6.4161990">
        <ele>45.0</ele>
        <time>2021-07-22T06:40:46Z</time>
      </trkpt>
      <trkpt lat="43.5428540" lon="-6.4162650">
        <ele>44.4</ele>
        <time>2021-07-22T06:40:47Z</time>
      </trkpt>
      <trkpt lat="43.5428370" lon="-6.4163400">
        <ele>44.0</ele>
        <time>2021-07-22T06:40:48Z</time>
      </trkpt>
      <trkpt lat="43.5428010" lon="-6.4164880">
        <ele>44.0</ele>
        <time>2021-07-22T06:40:50Z</time>
      </trkpt>
      <trkpt lat="43.5427160" lon="-6.4167880">
        <ele>44.0</ele>
        <time>2021-07-22T06:40:54Z</time>
      </trkpt>
      <trkpt lat="43.5426690" lon="-6.4169340">
        <ele>44.0</ele>
        <time>2021-07-22T06:40:56Z</time>
      </trkpt>
      <trkpt lat="43.5426430" lon="-6.4170070">
        <ele>43.6</ele>
        <time>2021-07-22T06:40:57Z</time>
      </trkpt>
      <trkpt lat="43.5426170" lon="-6.4170770">
        <ele>43.2</ele>
        <time>2021-07-22T06:40:58Z</time>
      </trkpt>
      <trkpt lat="43.5425910" lon="-6.4171530">
        <ele>42.8</ele>
        <time>2021-07-22T06:40:59Z</time>
      </trkpt>
      <trkpt lat="43.5425660" lon="-6.4172240">
        <ele>42.4</ele>
        <time>2021-07-22T06:41:00Z</time>
      </trkpt>
      <trkpt lat="43.5425400" lon="-6.4172970">
        <ele>42.0</ele>
        <time>2021-07-22T06:41:01Z</time>
      </trkpt>
      <trkpt lat="43.5424620" lon="-6.4175210">
        <ele>42.0</ele>
        <time>2021-07-22T06:41:04Z</time>
      </trkpt>
      <trkpt lat="43.5423050" lon="-6.4179710">
        <ele>41.6</ele>
        <time>2021-07-22T06:41:10Z</time>
      </trkpt>
      <trkpt lat="43.5422780" lon="-6.4180460">
        <ele>41.2</ele>
        <time>2021-07-22T06:41:11Z</time>
      </trkpt>
      <trkpt lat="43.5422510" lon="-6.4181210">
        <ele>40.8</ele>
        <time>2021-07-22T06:41:12Z</time>
      </trkpt>
      <trkpt lat="43.5422240" lon="-6.4181930">
        <ele>40.4</ele>
        <time>2021-07-22T06:41:13Z</time>
      </trkpt>
      <trkpt lat="43.5421980" lon="-6.4182670">
        <ele>40.0</ele>
        <time>2021-07-22T06:41:14Z</time>
      </trkpt>
      <trkpt lat="43.5420010" lon="-6.4188270">
        <ele>40.0</ele>
        <time>2021-07-22T06:41:22Z</time>
      </trkpt>
      <trkpt lat="43.5419770" lon="-6.4188910">
        <ele>40.0</ele>
        <time>2021-07-22T06:41:23Z</time>
      </trkpt>
      <trkpt lat="43.5418480" lon="-6.4192780">
        <ele>40.0</ele>
        <time>2021-07-22T06:41:30Z</time>
      </trkpt>
      <trkpt lat="43.5418080" lon="-6.4194160">
        <ele>40.0</ele>
        <time>2021-07-22T06:41:33Z</time>
      </trkpt>
      <trkpt lat="43.5417950" lon="-6.4194550">
        <ele>39.6</ele>
        <time>2021-07-22T06:41:34Z</time>
      </trkpt>
      <trkpt lat="43.5417840" lon="-6.4194880">
        <ele>39.2</ele>
        <time>2021-07-22T06:41:35Z</time>
      </trkpt>
      <trkpt lat="43.5417810" lon="-6.4194940">
        <ele>38.8</ele>
        <time>2021-07-22T06:41:36Z</time>
      </trkpt>
      <trkpt lat="43.5417820" lon="-6.4194930">
        <ele>38.2</ele>
        <time>2021-07-22T06:41:37Z</time>
      </trkpt>
      <trkpt lat="43.5417710" lon="-6.4195240">
        <ele>37.8</ele>
        <time>2021-07-22T06:42:16Z</time>
      </trkpt>
      <trkpt lat="43.5417660" lon="-6.4195490">
        <ele>37.8</ele>
        <time>2021-07-22T06:42:17Z</time>
      </trkpt>
      <trkpt lat="43.5417570" lon="-6.4195680">
        <ele>37.8</ele>
        <time>2021-07-22T06:42:18Z</time>
      </trkpt>
      <trkpt lat="43.5417330" lon="-6.4196250">
        <ele>37.8</ele>
        <time>2021-07-22T06:42:20Z</time>
      </trkpt>
      <trkpt lat="43.5416930" lon="-6.4197390">
        <ele>37.8</ele>
        <time>2021-07-22T06:42:23Z</time>
      </trkpt>
      <trkpt lat="43.5416460" lon="-6.4198610">
        <ele>37.8</ele>
        <time>2021-07-22T06:42:26Z</time>
      </trkpt>
      <trkpt lat="43.5415780" lon="-6.4200670">
        <ele>37.8</ele>
        <time>2021-07-22T06:42:31Z</time>
      </trkpt>
      <trkpt lat="43.5414770" lon="-6.4203410">
        <ele>37.8</ele>
        <time>2021-07-22T06:42:37Z</time>
      </trkpt>
      <trkpt lat="43.5413700" lon="-6.4206660">
        <ele>37.8</ele>
        <time>2021-07-22T06:42:44Z</time>
      </trkpt>
      <trkpt lat="43.5412520" lon="-6.4210270">
        <ele>37.8</ele>
        <time>2021-07-22T06:42:51Z</time>
      </trkpt>
      <trkpt lat="43.5412120" lon="-6.4211850">
        <ele>37.8</ele>
        <time>2021-07-22T06:42:54Z</time>
      </trkpt>
      <trkpt lat="43.5411720" lon="-6.4213380">
        <ele>37.8</ele>
        <time>2021-07-22T06:42:57Z</time>
      </trkpt>
      <trkpt lat="43.5410930" lon="-6.4216690">
        <ele>37.8</ele>
        <time>2021-07-22T06:43:03Z</time>
      </trkpt>
      <trkpt lat="43.5410710" lon="-6.4217880">
        <ele>37.8</ele>
        <time>2021-07-22T06:43:05Z</time>
      </trkpt>
      <trkpt lat="43.5409860" lon="-6.4222480">
        <ele>37.8</ele>
        <time>2021-07-22T06:43:13Z</time>
      </trkpt>
      <trkpt lat="43.5409210" lon="-6.4227500">
        <ele>37.8</ele>
        <time>2021-07-22T06:43:21Z</time>
      </trkpt>
      <trkpt lat="43.5409020" lon="-6.4230730">
        <ele>37.8</ele>
        <time>2021-07-22T06:43:27Z</time>
      </trkpt>
      <trkpt lat="43.5408870" lon="-6.4234350">
        <ele>37.8</ele>
        <time>2021-07-22T06:43:33Z</time>
      </trkpt>
      <trkpt lat="43.5409210" lon="-6.4237110">
        <ele>37.8</ele>
        <time>2021-07-22T06:43:38Z</time>
      </trkpt>
      <trkpt lat="43.5409610" lon="-6.4240900">
        <ele>37.8</ele>
        <time>2021-07-22T06:43:44Z</time>
      </trkpt>
      <trkpt lat="43.5409970" lon="-6.4246650">
        <ele>37.8</ele>
        <time>2021-07-22T06:43:52Z</time>
      </trkpt>
      <trkpt lat="43.5411050" lon="-6.4252920">
        <ele>37.8</ele>
        <time>2021-07-22T06:44:02Z</time>
      </trkpt>
      <trkpt lat="43.5411660" lon="-6.4255360">
        <ele>37.8</ele>
        <time>2021-07-22T06:44:06Z</time>
      </trkpt>
      <trkpt lat="43.5412370" lon="-6.4257910">
        <ele>37.8</ele>
        <time>2021-07-22T06:44:10Z</time>
      </trkpt>
      <trkpt lat="43.5414080" lon="-6.4263600">
        <ele>37.8</ele>
        <time>2021-07-22T06:44:19Z</time>
      </trkpt>
      <trkpt lat="43.5415990" lon="-6.4268310">
        <ele>37.8</ele>
        <time>2021-07-22T06:44:27Z</time>
      </trkpt>
      <trkpt lat="43.5417370" lon="-6.4271230">
        <ele>37.4</ele>
        <time>2021-07-22T06:44:32Z</time>
      </trkpt>
      <trkpt lat="43.5417650" lon="-6.4271780">
        <ele>37.0</ele>
        <time>2021-07-22T06:44:33Z</time>
      </trkpt>
      <trkpt lat="43.5417910" lon="-6.4272380">
        <ele>36.6</ele>
        <time>2021-07-22T06:44:34Z</time>
      </trkpt>
      <trkpt lat="43.5418200" lon="-6.4272940">
        <ele>35.8</ele>
        <time>2021-07-22T06:44:35Z</time>
      </trkpt>
      <trkpt lat="43.5420480" lon="-6.4277570">
        <ele>35.8</ele>
        <time>2021-07-22T06:44:43Z</time>
      </trkpt>
      <trkpt lat="43.5421910" lon="-6.4280370">
        <ele>35.8</ele>
        <time>2021-07-22T06:44:48Z</time>
      </trkpt>
      <trkpt lat="43.5422770" lon="-6.4282020">
        <ele>35.8</ele>
        <time>2021-07-22T06:44:51Z</time>
      </trkpt>
      <trkpt lat="43.5425220" lon="-6.4286730">
        <ele>35.8</ele>
        <time>2021-07-22T06:45:00Z</time>
      </trkpt>
      <trkpt lat="43.5426910" lon="-6.4290500">
        <ele>35.8</ele>
        <time>2021-07-22T06:45:07Z</time>
      </trkpt>
      <trkpt lat="43.5429170" lon="-6.4296180">
        <ele>35.8</ele>
        <time>2021-07-22T06:45:17Z</time>
      </trkpt>
      <trkpt lat="43.5430770" lon="-6.4299780">
        <ele>35.8</ele>
        <time>2021-07-22T06:45:24Z</time>
      </trkpt>
      <trkpt lat="43.5431190" lon="-6.4300790">
        <ele>36.2</ele>
        <time>2021-07-22T06:45:26Z</time>
      </trkpt>
      <trkpt lat="43.5431400" lon="-6.4301340">
        <ele>36.6</ele>
        <time>2021-07-22T06:45:27Z</time>
      </trkpt>
      <trkpt lat="43.5431610" lon="-6.4301840">
        <ele>37.2</ele>
        <time>2021-07-22T06:45:28Z</time>
      </trkpt>
      <trkpt lat="43.5431790" lon="-6.4302290">
        <ele>37.6</ele>
        <time>2021-07-22T06:45:29Z</time>
      </trkpt>
      <trkpt lat="43.5432010" lon="-6.4302720">
        <ele>38.0</ele>
        <time>2021-07-22T06:45:30Z</time>
      </trkpt>
      <trkpt lat="43.5432250" lon="-6.4303200">
        <ele>38.0</ele>
        <time>2021-07-22T06:45:31Z</time>
      </trkpt>
      <trkpt lat="43.5433790" lon="-6.4306200">
        <ele>38.0</ele>
        <time>2021-07-22T06:45:38Z</time>
      </trkpt>
      <trkpt lat="43.5435620" lon="-6.4309810">
        <ele>38.0</ele>
        <time>2021-07-22T06:45:46Z</time>
      </trkpt>
      <trkpt lat="43.5437110" lon="-6.4313230">
        <ele>38.0</ele>
        <time>2021-07-22T06:45:53Z</time>
      </trkpt>
      <trkpt lat="43.5439260" lon="-6.4318020">
        <ele>38.0</ele>
        <time>2021-07-22T06:46:03Z</time>
      </trkpt>
      <trkpt lat="43.5441350" lon="-6.4322390">
        <ele>38.0</ele>
        <time>2021-07-22T06:46:12Z</time>
      </trkpt>
      <trkpt lat="43.5441890" lon="-6.4323270">
        <ele>38.4</ele>
        <time>2021-07-22T06:46:14Z</time>
      </trkpt>
      <trkpt lat="43.5442130" lon="-6.4323720">
        <ele>38.8</ele>
        <time>2021-07-22T06:46:15Z</time>
      </trkpt>
      <trkpt lat="43.5442410" lon="-6.4324200">
        <ele>39.2</ele>
        <time>2021-07-22T06:46:16Z</time>
      </trkpt>
      <trkpt lat="43.5442680" lon="-6.4324630">
        <ele>39.6</ele>
        <time>2021-07-22T06:46:17Z</time>
      </trkpt>
      <trkpt lat="43.5442970" lon="-6.4325040">
        <ele>40.0</ele>
        <time>2021-07-22T06:46:18Z</time>
      </trkpt>
      <trkpt lat="43.5444100" lon="-6.4326690">
        <ele>40.0</ele>
        <time>2021-07-22T06:46:22Z</time>
      </trkpt>
      <trkpt lat="43.5446650" lon="-6.4329910">
        <ele>40.0</ele>
        <time>2021-07-22T06:46:30Z</time>
      </trkpt>
      <trkpt lat="43.5447870" lon="-6.4331340">
        <ele>40.0</ele>
        <time>2021-07-22T06:46:34Z</time>
      </trkpt>
      <trkpt lat="43.5448350" lon="-6.4331580">
        <ele>40.0</ele>
        <time>2021-07-22T06:46:36Z</time>
      </trkpt>
      <trkpt lat="43.5448540" lon="-6.4331650">
        <ele>40.0</ele>
        <time>2021-07-22T06:46:37Z</time>
      </trkpt>
      <trkpt lat="43.5449810" lon="-6.4331870">
        <ele>40.0</ele>
        <time>2021-07-22T06:46:42Z</time>
      </trkpt>
      <trkpt lat="43.5450180" lon="-6.4331860">
        <ele>40.0</ele>
        <time>2021-07-22T06:46:43Z</time>
      </trkpt>
      <trkpt lat="43.5451370" lon="-6.4331930">
        <ele>40.0</ele>
        <time>2021-07-22T06:46:46Z</time>
      </trkpt>
      <trkpt lat="43.5452310" lon="-6.4332000">
        <ele>40.0</ele>
        <time>2021-07-22T06:46:48Z</time>
      </trkpt>
      <trkpt lat="43.5452730" lon="-6.4332040">
        <ele>40.0</ele>
        <time>2021-07-22T06:46:49Z</time>
      </trkpt>
      <trkpt lat="43.5455330" lon="-6.4333120">
        <ele>40.0</ele>
        <time>2021-07-22T06:46:55Z</time>
      </trkpt>
      <trkpt lat="43.5457450" lon="-6.4335010">
        <ele>40.0</ele>
        <time>2021-07-22T06:47:01Z</time>
      </trkpt>
      <trkpt lat="43.5458390" lon="-6.4336270">
        <ele>40.0</ele>
        <time>2021-07-22T06:47:04Z</time>
      </trkpt>
      <trkpt lat="43.5459330" lon="-6.4337420">
        <ele>39.6</ele>
        <time>2021-07-22T06:47:07Z</time>
      </trkpt>
      <trkpt lat="43.5459590" lon="-6.4337830">
        <ele>39.2</ele>
        <time>2021-07-22T06:47:08Z</time>
      </trkpt>
      <trkpt lat="43.5459720" lon="-6.4338120">
        <ele>38.8</ele>
        <time>2021-07-22T06:47:09Z</time>
      </trkpt>
      <trkpt lat="43.5459800" lon="-6.4338180">
        <ele>38.4</ele>
        <time>2021-07-22T06:47:10Z</time>
      </trkpt>
      <trkpt lat="43.5459800" lon="-6.4338110">
        <ele>38.0</ele>
        <time>2021-07-22T06:47:11Z</time>
      </trkpt>
      <trkpt lat="43.5459830" lon="-6.4338110">
        <ele>38.0</ele>
        <time>2021-07-22T06:47:12Z</time>
      </trkpt>
      <trkpt lat="43.5460020" lon="-6.4338370">
        <ele>38.0</ele>
        <time>2021-07-22T06:47:30Z</time>
      </trkpt>
      <trkpt lat="43.5460060" lon="-6.4338660">
        <ele>38.0</ele>
        <time>2021-07-22T06:47:31Z</time>
      </trkpt>
      <trkpt lat="43.5460450" lon="-6.4340300">
        <ele>38.0</ele>
        <time>2021-07-22T06:47:35Z</time>
      </trkpt>
      <trkpt lat="43.5460550" lon="-6.4340830">
        <ele>38.0</ele>
        <time>2021-07-22T06:47:36Z</time>
      </trkpt>
      <trkpt lat="43.5460880" lon="-6.4343740">
        <ele>38.0</ele>
        <time>2021-07-22T06:47:41Z</time>
      </trkpt>
      <trkpt lat="43.5460910" lon="-6.4344370">
        <ele>38.0</ele>
        <time>2021-07-22T06:47:42Z</time>
      </trkpt>
      <trkpt lat="43.5460920" lon="-6.4345000">
        <ele>38.0</ele>
        <time>2021-07-22T06:47:43Z</time>
      </trkpt>
      <trkpt lat="43.5460770" lon="-6.4348770">
        <ele>38.0</ele>
        <time>2021-07-22T06:47:50Z</time>
      </trkpt>
      <trkpt lat="43.5460700" lon="-6.4349980">
        <ele>38.0</ele>
        <time>2021-07-22T06:47:53Z</time>
      </trkpt>
      <trkpt lat="43.5461040" lon="-6.4351410">
        <ele>38.0</ele>
        <time>2021-07-22T06:47:56Z</time>
      </trkpt>
      <trkpt lat="43.5461960" lon="-6.4355350">
        <ele>37.6</ele>
        <time>2021-07-22T06:48:03Z</time>
      </trkpt>
      <trkpt lat="43.5462090" lon="-6.4355960">
        <ele>37.2</ele>
        <time>2021-07-22T06:48:04Z</time>
      </trkpt>
      <trkpt lat="43.5462200" lon="-6.4356550">
        <ele>36.8</ele>
        <time>2021-07-22T06:48:05Z</time>
      </trkpt>
      <trkpt lat="43.5462290" lon="-6.4357140">
        <ele>36.4</ele>
        <time>2021-07-22T06:48:06Z</time>
      </trkpt>
      <trkpt lat="43.5462370" lon="-6.4357740">
        <ele>36.0</ele>
        <time>2021-07-22T06:48:07Z</time>
      </trkpt>
      <trkpt lat="43.5462680" lon="-6.4360240">
        <ele>36.0</ele>
        <time>2021-07-22T06:48:11Z</time>
      </trkpt>
      <trkpt lat="43.5463020" lon="-6.4365390">
        <ele>36.0</ele>
        <time>2021-07-22T06:48:19Z</time>
      </trkpt>
      <trkpt lat="43.5463110" lon="-6.4370500">
        <ele>36.0</ele>
        <time>2021-07-22T06:48:27Z</time>
      </trkpt>
      <trkpt lat="43.5463150" lon="-6.4371780">
        <ele>35.4</ele>
        <time>2021-07-22T06:48:29Z</time>
      </trkpt>
      <trkpt lat="43.5463150" lon="-6.4372410">
        <ele>35.0</ele>
        <time>2021-07-22T06:48:30Z</time>
      </trkpt>
      <trkpt lat="43.5463150" lon="-6.4372990">
        <ele>34.6</ele>
        <time>2021-07-22T06:48:31Z</time>
      </trkpt>
      <trkpt lat="43.5463180" lon="-6.4373570">
        <ele>34.2</ele>
        <time>2021-07-22T06:48:32Z</time>
      </trkpt>
      <trkpt lat="43.5463190" lon="-6.4374170">
        <ele>33.8</ele>
        <time>2021-07-22T06:48:33Z</time>
      </trkpt>
      <trkpt lat="43.5463240" lon="-6.4375420">
        <ele>33.8</ele>
        <time>2021-07-22T06:48:35Z</time>
      </trkpt>
      <trkpt lat="43.5463350" lon="-6.4377330">
        <ele>33.8</ele>
        <time>2021-07-22T06:48:38Z</time>
      </trkpt>
      <trkpt lat="43.5463340" lon="-6.4379890">
        <ele>33.8</ele>
        <time>2021-07-22T06:48:42Z</time>
      </trkpt>
      <trkpt lat="43.5463370" lon="-6.4382380">
        <ele>33.8</ele>
        <time>2021-07-22T06:48:46Z</time>
      </trkpt>
      <trkpt lat="43.5463490" lon="-6.4388050">
        <ele>33.8</ele>
        <time>2021-07-22T06:48:55Z</time>
      </trkpt>
      <trkpt lat="43.5463490" lon="-6.4388640">
        <ele>33.8</ele>
        <time>2021-07-22T06:48:56Z</time>
      </trkpt>
      <trkpt lat="43.5463580" lon="-6.4391120">
        <ele>33.8</ele>
        <time>2021-07-22T06:49:00Z</time>
      </trkpt>
      <trkpt lat="43.5463690" lon="-6.4394250">
        <ele>33.8</ele>
        <time>2021-07-22T06:49:05Z</time>
      </trkpt>
      <trkpt lat="43.5463780" lon="-6.4399680">
        <ele>33.8</ele>
        <time>2021-07-22T06:49:14Z</time>
      </trkpt>
      <trkpt lat="43.5463790" lon="-6.4400270">
        <ele>33.8</ele>
        <time>2021-07-22T06:49:15Z</time>
      </trkpt>
      <trkpt lat="43.5463950" lon="-6.4406090">
        <ele>33.8</ele>
        <time>2021-07-22T06:49:25Z</time>
      </trkpt>
      <trkpt lat="43.5463970" lon="-6.4408660">
        <ele>33.8</ele>
        <time>2021-07-22T06:49:30Z</time>
      </trkpt>
      <trkpt lat="43.5464040" lon="-6.4410110">
        <ele>33.4</ele>
        <time>2021-07-22T06:49:33Z</time>
      </trkpt>
      <trkpt lat="43.5464030" lon="-6.4410550">
        <ele>33.0</ele>
        <time>2021-07-22T06:49:34Z</time>
      </trkpt>
      <trkpt lat="43.5464040" lon="-6.4410980">
        <ele>32.6</ele>
        <time>2021-07-22T06:49:35Z</time>
      </trkpt>
      <trkpt lat="43.5464050" lon="-6.4411400">
        <ele>32.2</ele>
        <time>2021-07-22T06:49:36Z</time>
      </trkpt>
      <trkpt lat="43.5464050" lon="-6.4411830">
        <ele>31.8</ele>
        <time>2021-07-22T06:49:37Z</time>
      </trkpt>
      <trkpt lat="43.5464080" lon="-6.4412680">
        <ele>31.8</ele>
        <time>2021-07-22T06:49:39Z</time>
      </trkpt>
      <trkpt lat="43.5464160" lon="-6.4413950">
        <ele>31.8</ele>
        <time>2021-07-22T06:49:42Z</time>
      </trkpt>
      <trkpt lat="43.5464220" lon="-6.4416570">
        <ele>31.8</ele>
        <time>2021-07-22T06:49:49Z</time>
      </trkpt>
      <trkpt lat="43.5464210" lon="-6.4416840">
        <ele>31.8</ele>
        <time>2021-07-22T06:49:51Z</time>
      </trkpt>
      <trkpt lat="43.5464070" lon="-6.4416470">
        <ele>31.8</ele>
        <time>2021-07-22T06:50:01Z</time>
      </trkpt>
      <trkpt lat="43.5464110" lon="-6.4416210">
        <ele>31.8</ele>
        <time>2021-07-22T06:50:02Z</time>
      </trkpt>
      <trkpt lat="43.5464230" lon="-6.4415130">
        <ele>31.8</ele>
        <time>2021-07-22T06:50:06Z</time>
      </trkpt>
      <trkpt lat="43.5464310" lon="-6.4414260">
        <ele>31.8</ele>
        <time>2021-07-22T06:50:09Z</time>
      </trkpt>
      <trkpt lat="43.5464310" lon="-6.4413960">
        <ele>31.8</ele>
        <time>2021-07-22T06:50:10Z</time>
      </trkpt>
      <trkpt lat="43.5464480" lon="-6.4413810">
        <ele>31.8</ele>
        <time>2021-07-22T06:50:11Z</time>
      </trkpt>
      <trkpt lat="43.5464820" lon="-6.4413630">
        <ele>31.8</ele>
        <time>2021-07-22T06:50:13Z</time>
      </trkpt>
      <trkpt lat="43.5465210" lon="-6.4413530">
        <ele>31.8</ele>
        <time>2021-07-22T06:50:15Z</time>
      </trkpt>
      <trkpt lat="43.5465660" lon="-6.4413390">
        <ele>31.8</ele>
        <time>2021-07-22T06:50:17Z</time>
      </trkpt>
      <trkpt lat="43.5465920" lon="-6.4413310">
        <ele>31.4</ele>
        <time>2021-07-22T06:50:18Z</time>
      </trkpt>
      <trkpt lat="43.5466260" lon="-6.4413190">
        <ele>31.0</ele>
        <time>2021-07-22T06:50:19Z</time>
      </trkpt>
      <trkpt lat="43.5466630" lon="-6.4413120">
        <ele>30.6</ele>
        <time>2021-07-22T06:50:20Z</time>
      </trkpt>
      <trkpt lat="43.5467050" lon="-6.4413070">
        <ele>29.8</ele>
        <time>2021-07-22T06:50:21Z</time>
      </trkpt>
      <trkpt lat="43.5468780" lon="-6.4412640">
        <ele>29.4</ele>
        <time>2021-07-22T06:50:26Z</time>
      </trkpt>
      <trkpt lat="43.5469050" lon="-6.4412540">
        <ele>28.8</ele>
        <time>2021-07-22T06:50:27Z</time>
      </trkpt>
      <trkpt lat="43.5469230" lon="-6.4412470">
        <ele>28.4</ele>
        <time>2021-07-22T06:50:28Z</time>
      </trkpt>
      <trkpt lat="43.5469350" lon="-6.4412410">
        <ele>28.0</ele>
        <time>2021-07-22T06:50:29Z</time>
      </trkpt>
      <trkpt lat="43.5469400" lon="-6.4412360">
        <ele>27.6</ele>
        <time>2021-07-22T06:50:30Z</time>
      </trkpt>
      <trkpt lat="43.5469610" lon="-6.4412240">
        <ele>27.6</ele>
        <time>2021-07-22T06:51:08Z</time>
      </trkpt>
      <trkpt lat="43.5470090" lon="-6.4412020">
        <ele>27.6</ele>
        <time>2021-07-22T06:51:10Z</time>
      </trkpt>
      <trkpt lat="43.5470790" lon="-6.4411780">
        <ele>27.2</ele>
        <time>2021-07-22T06:51:13Z</time>
      </trkpt>
      <trkpt lat="43.5470980" lon="-6.4411720">
        <ele>26.8</ele>
        <time>2021-07-22T06:51:14Z</time>
      </trkpt>
      <trkpt lat="43.5471180" lon="-6.4411670">
        <ele>26.4</ele>
        <time>2021-07-22T06:51:15Z</time>
      </trkpt>
      <trkpt lat="43.5471360" lon="-6.4411580">
        <ele>26.0</ele>
        <time>2021-07-22T06:51:16Z</time>
      </trkpt>
      <trkpt lat="43.5471560" lon="-6.4411440">
        <ele>25.6</ele>
        <time>2021-07-22T06:51:17Z</time>
      </trkpt>
      <trkpt lat="43.5472350" lon="-6.4410770">
        <ele>25.6</ele>
        <time>2021-07-22T06:51:20Z</time>
      </trkpt>
      <trkpt lat="43.5472930" lon="-6.4410200">
        <ele>25.6</ele>
        <time>2021-07-22T06:51:22Z</time>
      </trkpt>
      <trkpt lat="43.5475130" lon="-6.4408140">
        <ele>25.6</ele>
        <time>2021-07-22T06:51:28Z</time>
      </trkpt>
      <trkpt lat="43.5475520" lon="-6.4407770">
        <ele>25.6</ele>
        <time>2021-07-22T06:51:29Z</time>
      </trkpt>
      <trkpt lat="43.5476310" lon="-6.4407020">
        <ele>25.6</ele>
        <time>2021-07-22T06:51:31Z</time>
      </trkpt>
      <trkpt lat="43.5476720" lon="-6.4406640">
        <ele>25.2</ele>
        <time>2021-07-22T06:51:32Z</time>
      </trkpt>
      <trkpt lat="43.5477140" lon="-6.4406250">
        <ele>24.8</ele>
        <time>2021-07-22T06:51:33Z</time>
      </trkpt>
      <trkpt lat="43.5477580" lon="-6.4405830">
        <ele>24.2</ele>
        <time>2021-07-22T06:51:34Z</time>
      </trkpt>
      <trkpt lat="43.5478020" lon="-6.4405460">
        <ele>23.4</ele>
        <time>2021-07-22T06:51:35Z</time>
      </trkpt>
      <trkpt lat="43.5479170" lon="-6.4404550">
        <ele>23.4</ele>
        <time>2021-07-22T06:51:38Z</time>
      </trkpt>
      <trkpt lat="43.5480780" lon="-6.4404460">
        <ele>23.4</ele>
        <time>2021-07-22T06:51:42Z</time>
      </trkpt>
      <trkpt lat="43.5482590" lon="-6.4406320">
        <ele>23.4</ele>
        <time>2021-07-22T06:51:47Z</time>
      </trkpt>
      <trkpt lat="43.5484440" lon="-6.4408270">
        <ele>23.4</ele>
        <time>2021-07-22T06:51:52Z</time>
      </trkpt>
      <trkpt lat="43.5484830" lon="-6.4408680">
        <ele>23.0</ele>
        <time>2021-07-22T06:51:53Z</time>
      </trkpt>
      <trkpt lat="43.5485220" lon="-6.4409090">
        <ele>22.6</ele>
        <time>2021-07-22T06:51:54Z</time>
      </trkpt>
      <trkpt lat="43.5485620" lon="-6.4409470">
        <ele>22.2</ele>
        <time>2021-07-22T06:51:55Z</time>
      </trkpt>
      <trkpt lat="43.5486010" lon="-6.4409850">
        <ele>21.8</ele>
        <time>2021-07-22T06:51:56Z</time>
      </trkpt>
      <trkpt lat="43.5486410" lon="-6.4410260">
        <ele>21.4</ele>
        <time>2021-07-22T06:51:57Z</time>
      </trkpt>
      <trkpt lat="43.5488190" lon="-6.4411860">
        <ele>21.0</ele>
        <time>2021-07-22T06:52:02Z</time>
      </trkpt>
      <trkpt lat="43.5488560" lon="-6.4412230">
        <ele>20.6</ele>
        <time>2021-07-22T06:52:03Z</time>
      </trkpt>
      <trkpt lat="43.5488880" lon="-6.4412540">
        <ele>20.2</ele>
        <time>2021-07-22T06:52:04Z</time>
      </trkpt>
      <trkpt lat="43.5489200" lon="-6.4412840">
        <ele>19.8</ele>
        <time>2021-07-22T06:52:05Z</time>
      </trkpt>
      <trkpt lat="43.5489490" lon="-6.4413130">
        <ele>19.4</ele>
        <time>2021-07-22T06:52:06Z</time>
      </trkpt>
      <trkpt lat="43.5490350" lon="-6.4413750">
        <ele>19.4</ele>
        <time>2021-07-22T06:52:09Z</time>
      </trkpt>
      <trkpt lat="43.5491750" lon="-6.4414380">
        <ele>19.0</ele>
        <time>2021-07-22T06:52:13Z</time>
      </trkpt>
      <trkpt lat="43.5492130" lon="-6.4414450">
        <ele>18.6</ele>
        <time>2021-07-22T06:52:14Z</time>
      </trkpt>
      <trkpt lat="43.5492530" lon="-6.4414530">
        <ele>18.2</ele>
        <time>2021-07-22T06:52:15Z</time>
      </trkpt>
      <trkpt lat="43.5492970" lon="-6.4414600">
        <ele>17.8</ele>
        <time>2021-07-22T06:52:16Z</time>
      </trkpt>
      <trkpt lat="43.5493420" lon="-6.4414670">
        <ele>17.4</ele>
        <time>2021-07-22T06:52:17Z</time>
      </trkpt>
      <trkpt lat="43.5494800" lon="-6.4415010">
        <ele>17.4</ele>
        <time>2021-07-22T06:52:20Z</time>
      </trkpt>
      <trkpt lat="43.5495940" lon="-6.4415110">
        <ele>17.0</ele>
        <time>2021-07-22T06:52:23Z</time>
      </trkpt>
      <trkpt lat="43.5496290" lon="-6.4415060">
        <ele>16.2</ele>
        <time>2021-07-22T06:52:24Z</time>
      </trkpt>
      <trkpt lat="43.5496650" lon="-6.4414950">
        <ele>15.8</ele>
        <time>2021-07-22T06:52:25Z</time>
      </trkpt>
      <trkpt lat="43.5497030" lon="-6.4414760">
        <ele>15.2</ele>
        <time>2021-07-22T06:52:26Z</time>
      </trkpt>
      <trkpt lat="43.5497740" lon="-6.4414480">
        <ele>15.2</ele>
        <time>2021-07-22T06:52:28Z</time>
      </trkpt>
      <trkpt lat="43.5499320" lon="-6.4414310">
        <ele>15.2</ele>
        <time>2021-07-22T06:52:32Z</time>
      </trkpt>
      <trkpt lat="43.5499700" lon="-6.4414130">
        <ele>15.2</ele>
        <time>2021-07-22T06:52:33Z</time>
      </trkpt>
      <trkpt lat="43.5500670" lon="-6.4413270">
        <ele>15.2</ele>
        <time>2021-07-22T06:52:37Z</time>
      </trkpt>
      <trkpt lat="43.5500870" lon="-6.4413220">
        <ele>14.8</ele>
        <time>2021-07-22T06:52:38Z</time>
      </trkpt>
      <trkpt lat="43.5501140" lon="-6.4413280">
        <ele>14.4</ele>
        <time>2021-07-22T06:52:39Z</time>
      </trkpt>
      <trkpt lat="43.5501450" lon="-6.4413450">
        <ele>14.0</ele>
        <time>2021-07-22T06:52:40Z</time>
      </trkpt>
      <trkpt lat="43.5501820" lon="-6.4413680">
        <ele>13.6</ele>
        <time>2021-07-22T06:52:41Z</time>
      </trkpt>
      <trkpt lat="43.5502250" lon="-6.4413980">
        <ele>13.2</ele>
        <time>2021-07-22T06:52:42Z</time>
      </trkpt>
      <trkpt lat="43.5503780" lon="-6.4414800">
        <ele>13.2</ele>
        <time>2021-07-22T06:52:45Z</time>
      </trkpt>
      <trkpt lat="43.5504320" lon="-6.4414910">
        <ele>13.2</ele>
        <time>2021-07-22T06:52:46Z</time>
      </trkpt>
      <trkpt lat="43.5506320" lon="-6.4414560">
        <ele>13.2</ele>
        <time>2021-07-22T06:52:50Z</time>
      </trkpt>
      <trkpt lat="43.5507330" lon="-6.4415180">
        <ele>13.2</ele>
        <time>2021-07-22T06:52:53Z</time>
      </trkpt>
      <trkpt lat="43.5507600" lon="-6.4415540">
        <ele>13.2</ele>
        <time>2021-07-22T06:52:54Z</time>
      </trkpt>
      <trkpt lat="43.5507880" lon="-6.4415910">
        <ele>13.2</ele>
        <time>2021-07-22T06:52:55Z</time>
      </trkpt>
      <trkpt lat="43.5508470" lon="-6.4416660">
        <ele>13.2</ele>
        <time>2021-07-22T06:52:57Z</time>
      </trkpt>
      <trkpt lat="43.5509030" lon="-6.4417310">
        <ele>13.2</ele>
        <time>2021-07-22T06:52:59Z</time>
      </trkpt>
      <trkpt lat="43.5509300" lon="-6.4417610">
        <ele>13.2</ele>
        <time>2021-07-22T06:53:00Z</time>
      </trkpt>
      <trkpt lat="43.5509590" lon="-6.4417890">
        <ele>13.2</ele>
        <time>2021-07-22T06:53:01Z</time>
      </trkpt>
      <trkpt lat="43.5509900" lon="-6.4418190">
        <ele>13.2</ele>
        <time>2021-07-22T06:53:02Z</time>
      </trkpt>
      <trkpt lat="43.5510520" lon="-6.4418870">
        <ele>13.2</ele>
        <time>2021-07-22T06:53:04Z</time>
      </trkpt>
      <trkpt lat="43.5511160" lon="-6.4419540">
        <ele>13.2</ele>
        <time>2021-07-22T06:53:06Z</time>
      </trkpt>
      <trkpt lat="43.5511740" lon="-6.4420130">
        <ele>13.2</ele>
        <time>2021-07-22T06:53:08Z</time>
      </trkpt>
      <trkpt lat="43.5513710" lon="-6.4422680">
        <ele>13.2</ele>
        <time>2021-07-22T06:53:16Z</time>
      </trkpt>
      <trkpt lat="43.5514830" lon="-6.4424550">
        <ele>13.2</ele>
        <time>2021-07-22T06:53:22Z</time>
      </trkpt>
      <trkpt lat="43.5514920" lon="-6.4424720">
        <ele>13.2</ele>
        <time>2021-07-22T06:53:23Z</time>
      </trkpt>
      <trkpt lat="43.5514970" lon="-6.4424890">
        <ele>13.2</ele>
        <time>2021-07-22T06:53:25Z</time>
      </trkpt>
      <trkpt lat="43.5514930" lon="-6.4425090">
        <ele>13.2</ele>
        <time>2021-07-22T06:54:43Z</time>
      </trkpt>
      <trkpt lat="43.5514850" lon="-6.4425330">
        <ele>13.2</ele>
        <time>2021-07-22T06:54:44Z</time>
      </trkpt>
      <trkpt lat="43.5514390" lon="-6.4425950">
        <ele>13.2</ele>
        <time>2021-07-22T06:54:47Z</time>
      </trkpt>
      <trkpt lat="43.5513790" lon="-6.4426390">
        <ele>13.2</ele>
        <time>2021-07-22T06:54:49Z</time>
      </trkpt>
      <trkpt lat="43.5513130" lon="-6.4426830">
        <ele>13.2</ele>
        <time>2021-07-22T06:54:51Z</time>
      </trkpt>
      <trkpt lat="43.5512080" lon="-6.4427470">
        <ele>13.2</ele>
        <time>2021-07-22T06:54:54Z</time>
      </trkpt>
      <trkpt lat="43.5510980" lon="-6.4428100">
        <ele>13.2</ele>
        <time>2021-07-22T06:54:57Z</time>
      </trkpt>
      <trkpt lat="43.5509910" lon="-6.4428740">
        <ele>13.2</ele>
        <time>2021-07-22T06:55:00Z</time>
      </trkpt>
      <trkpt lat="43.5508810" lon="-6.4429420">
        <ele>13.2</ele>
        <time>2021-07-22T06:55:03Z</time>
      </trkpt>
      <trkpt lat="43.5508120" lon="-6.4429960">
        <ele>13.2</ele>
        <time>2021-07-22T06:55:05Z</time>
      </trkpt>
      <trkpt lat="43.5505620" lon="-6.4431870">
        <ele>13.2</ele>
        <time>2021-07-22T06:55:12Z</time>
      </trkpt>
      <trkpt lat="43.5503180" lon="-6.4434090">
        <ele>13.2</ele>
        <time>2021-07-22T06:55:19Z</time>
      </trkpt>
      <trkpt lat="43.5500420" lon="-6.4436380">
        <ele>13.2</ele>
        <time>2021-07-22T06:55:27Z</time>
      </trkpt>
      <trkpt lat="43.5499760" lon="-6.4436930">
        <ele>13.6</ele>
        <time>2021-07-22T06:55:29Z</time>
      </trkpt>
      <trkpt lat="43.5499440" lon="-6.4437200">
        <ele>14.0</ele>
        <time>2021-07-22T06:55:30Z</time>
      </trkpt>
      <trkpt lat="43.5499130" lon="-6.4437500">
        <ele>14.4</ele>
        <time>2021-07-22T06:55:31Z</time>
      </trkpt>
      <trkpt lat="43.5498820" lon="-6.4437780">
        <ele>14.8</ele>
        <time>2021-07-22T06:55:32Z</time>
      </trkpt>
      <trkpt lat="43.5498530" lon="-6.4438040">
        <ele>15.4</ele>
        <time>2021-07-22T06:55:33Z</time>
      </trkpt>
      <trkpt lat="43.5497570" lon="-6.4438560">
        <ele>15.4</ele>
        <time>2021-07-22T06:55:36Z</time>
      </trkpt>
      <trkpt lat="43.5495700" lon="-6.4439220">
        <ele>15.4</ele>
        <time>2021-07-22T06:55:42Z</time>
      </trkpt>
      <trkpt lat="43.5495500" lon="-6.4439600">
        <ele>15.4</ele>
        <time>2021-07-22T06:55:43Z</time>
      </trkpt>
      <trkpt lat="43.5495340" lon="-6.4440600">
        <ele>15.4</ele>
        <time>2021-07-22T06:55:45Z</time>
      </trkpt>
      <trkpt lat="43.5495080" lon="-6.4442600">
        <ele>15.4</ele>
        <time>2021-07-22T06:55:49Z</time>
      </trkpt>
      <trkpt lat="43.5494820" lon="-6.4443610">
        <ele>15.4</ele>
        <time>2021-07-22T06:55:51Z</time>
      </trkpt>
      <trkpt lat="43.5493700" lon="-6.4446470">
        <ele>15.4</ele>
        <time>2021-07-22T06:55:57Z</time>
      </trkpt>
      <trkpt lat="43.5493100" lon="-6.4449350">
        <ele>15.4</ele>
        <time>2021-07-22T06:56:03Z</time>
      </trkpt>
      <trkpt lat="43.5491790" lon="-6.4452300">
        <ele>15.4</ele>
        <time>2021-07-22T06:56:10Z</time>
      </trkpt>
      <trkpt lat="43.5490940" lon="-6.4453760">
        <ele>15.4</ele>
        <time>2021-07-22T06:56:14Z</time>
      </trkpt>
      <trkpt lat="43.5490820" lon="-6.4454590">
        <ele>15.4</ele>
        <time>2021-07-22T06:56:16Z</time>
      </trkpt>
      <trkpt lat="43.5490900" lon="-6.4455050">
        <ele>15.4</ele>
        <time>2021-07-22T06:56:17Z</time>
      </trkpt>
      <trkpt lat="43.5491310" lon="-6.4455870">
        <ele>15.4</ele>
        <time>2021-07-22T06:56:19Z</time>
      </trkpt>
      <trkpt lat="43.5491720" lon="-6.4456920">
        <ele>15.4</ele>
        <time>2021-07-22T06:56:21Z</time>
      </trkpt>
      <trkpt lat="43.5491930" lon="-6.4458140">
        <ele>15.4</ele>
        <time>2021-07-22T06:56:23Z</time>
      </trkpt>
      <trkpt lat="43.5492000" lon="-6.4459370">
        <ele>15.4</ele>
        <time>2021-07-22T06:56:25Z</time>
      </trkpt>
      <trkpt lat="43.5491990" lon="-6.4459980">
        <ele>15.4</ele>
        <time>2021-07-22T06:56:26Z</time>
      </trkpt>
      <trkpt lat="43.5491870" lon="-6.4461800">
        <ele>15.4</ele>
        <time>2021-07-22T06:56:29Z</time>
      </trkpt>
      <trkpt lat="43.5490900" lon="-6.4466170">
        <ele>15.4</ele>
        <time>2021-07-22T06:56:36Z</time>
      </trkpt>
      <trkpt lat="43.5489480" lon="-6.4470860">
        <ele>15.4</ele>
        <time>2021-07-22T06:56:44Z</time>
      </trkpt>
      <trkpt lat="43.5487910" lon="-6.4475960">
        <ele>15.4</ele>
        <time>2021-07-22T06:56:53Z</time>
      </trkpt>
      <trkpt lat="43.5486990" lon="-6.4478580">
        <ele>15.4</ele>
        <time>2021-07-22T06:56:58Z</time>
      </trkpt>
      <trkpt lat="43.5486180" lon="-6.4480650">
        <ele>15.4</ele>
        <time>2021-07-22T06:57:02Z</time>
      </trkpt>
      <trkpt lat="43.5484520" lon="-6.4484550">
        <ele>15.4</ele>
        <time>2021-07-22T06:57:10Z</time>
      </trkpt>
      <trkpt lat="43.5484200" lon="-6.4486680">
        <ele>15.4</ele>
        <time>2021-07-22T06:57:15Z</time>
      </trkpt>
      <trkpt lat="43.5485540" lon="-6.4488730">
        <ele>15.4</ele>
        <time>2021-07-22T06:57:20Z</time>
      </trkpt>
      <trkpt lat="43.5488460" lon="-6.4492970">
        <ele>15.4</ele>
        <time>2021-07-22T06:57:29Z</time>
      </trkpt>
      <trkpt lat="43.5490050" lon="-6.4495440">
        <ele>15.4</ele>
        <time>2021-07-22T06:57:34Z</time>
      </trkpt>
      <trkpt lat="43.5491360" lon="-6.4497410">
        <ele>15.4</ele>
        <time>2021-07-22T06:57:38Z</time>
      </trkpt>
      <trkpt lat="43.5493180" lon="-6.4500290">
        <ele>15.4</ele>
        <time>2021-07-22T06:57:43Z</time>
      </trkpt>
      <trkpt lat="43.5494630" lon="-6.4502580">
        <ele>15.4</ele>
        <time>2021-07-22T06:57:47Z</time>
      </trkpt>
      <trkpt lat="43.5497510" lon="-6.4507010">
        <ele>15.4</ele>
        <time>2021-07-22T06:57:55Z</time>
      </trkpt>
      <trkpt lat="43.5498250" lon="-6.4508150">
        <ele>14.8</ele>
        <time>2021-07-22T06:57:57Z</time>
      </trkpt>
      <trkpt lat="43.5498630" lon="-6.4508710">
        <ele>14.4</ele>
        <time>2021-07-22T06:57:58Z</time>
      </trkpt>
      <trkpt lat="43.5499010" lon="-6.4509280">
        <ele>14.0</ele>
        <time>2021-07-22T06:57:59Z</time>
      </trkpt>
      <trkpt lat="43.5499370" lon="-6.4509850">
        <ele>13.4</ele>
        <time>2021-07-22T06:58:00Z</time>
      </trkpt>
      <trkpt lat="43.5499730" lon="-6.4510430">
        <ele>13.0</ele>
        <time>2021-07-22T06:58:01Z</time>
      </trkpt>
      <trkpt lat="43.5501140" lon="-6.4512690">
        <ele>13.0</ele>
        <time>2021-07-22T06:58:05Z</time>
      </trkpt>
      <trkpt lat="43.5503620" lon="-6.4516550">
        <ele>13.0</ele>
        <time>2021-07-22T06:58:12Z</time>
      </trkpt>
      <trkpt lat="43.5503990" lon="-6.4517080">
        <ele>13.0</ele>
        <time>2021-07-22T06:58:13Z</time>
      </trkpt>
      <trkpt lat="43.5506570" lon="-6.4521080">
        <ele>13.0</ele>
        <time>2021-07-22T06:58:20Z</time>
      </trkpt>
      <trkpt lat="43.5506920" lon="-6.4521640">
        <ele>12.6</ele>
        <time>2021-07-22T06:58:21Z</time>
      </trkpt>
      <trkpt lat="43.5507300" lon="-6.4522190">
        <ele>12.2</ele>
        <time>2021-07-22T06:58:22Z</time>
      </trkpt>
      <trkpt lat="43.5507680" lon="-6.4522750">
        <ele>11.8</ele>
        <time>2021-07-22T06:58:23Z</time>
      </trkpt>
      <trkpt lat="43.5508060" lon="-6.4523320">
        <ele>11.4</ele>
        <time>2021-07-22T06:58:24Z</time>
      </trkpt>
      <trkpt lat="43.5508450" lon="-6.4523890">
        <ele>11.0</ele>
        <time>2021-07-22T06:58:25Z</time>
      </trkpt>
      <trkpt lat="43.5509570" lon="-6.4525680">
        <ele>11.0</ele>
        <time>2021-07-22T06:58:28Z</time>
      </trkpt>
      <trkpt lat="43.5511440" lon="-6.4528750">
        <ele>10.4</ele>
        <time>2021-07-22T06:58:33Z</time>
      </trkpt>
      <trkpt lat="43.5511840" lon="-6.4529400">
        <ele>10.0</ele>
        <time>2021-07-22T06:58:34Z</time>
      </trkpt>
      <trkpt lat="43.5512210" lon="-6.4530020">
        <ele>9.2</ele>
        <time>2021-07-22T06:58:35Z</time>
      </trkpt>
      <trkpt lat="43.5512580" lon="-6.4530610">
        <ele>8.6</ele>
        <time>2021-07-22T06:58:36Z</time>
      </trkpt>
      <trkpt lat="43.5513320" lon="-6.4531710">
        <ele>8.6</ele>
        <time>2021-07-22T06:58:38Z</time>
      </trkpt>
      <trkpt lat="43.5515200" lon="-6.4534590">
        <ele>8.6</ele>
        <time>2021-07-22T06:58:43Z</time>
      </trkpt>
      <trkpt lat="43.5515890" lon="-6.4535680">
        <ele>8.6</ele>
        <time>2021-07-22T06:58:45Z</time>
      </trkpt>
      <trkpt lat="43.5518590" lon="-6.4539080">
        <ele>8.2</ele>
        <time>2021-07-22T06:58:52Z</time>
      </trkpt>
      <trkpt lat="43.5519000" lon="-6.4539530">
        <ele>7.8</ele>
        <time>2021-07-22T06:58:53Z</time>
      </trkpt>
      <trkpt lat="43.5519390" lon="-6.4540010">
        <ele>7.4</ele>
        <time>2021-07-22T06:58:54Z</time>
      </trkpt>
      <trkpt lat="43.5519790" lon="-6.4540490">
        <ele>7.0</ele>
        <time>2021-07-22T06:58:55Z</time>
      </trkpt>
      <trkpt lat="43.5520180" lon="-6.4540960">
        <ele>6.6</ele>
        <time>2021-07-22T06:58:56Z</time>
      </trkpt>
      <trkpt lat="43.5520900" lon="-6.4541980">
        <ele>6.6</ele>
        <time>2021-07-22T06:58:58Z</time>
      </trkpt>
      <trkpt lat="43.5521170" lon="-6.4542580">
        <ele>6.6</ele>
        <time>2021-07-22T06:58:59Z</time>
      </trkpt>
      <trkpt lat="43.5521810" lon="-6.4544620">
        <ele>6.6</ele>
        <time>2021-07-22T06:59:02Z</time>
      </trkpt>
      <trkpt lat="43.5521970" lon="-6.4545320">
        <ele>6.6</ele>
        <time>2021-07-22T06:59:03Z</time>
      </trkpt>
      <trkpt lat="43.5522120" lon="-6.4546070">
        <ele>6.6</ele>
        <time>2021-07-22T06:59:04Z</time>
      </trkpt>
      <trkpt lat="43.5522550" lon="-6.4548270">
        <ele>6.2</ele>
        <time>2021-07-22T06:59:07Z</time>
      </trkpt>
      <trkpt lat="43.5522680" lon="-6.4549000">
        <ele>5.8</ele>
        <time>2021-07-22T06:59:08Z</time>
      </trkpt>
      <trkpt lat="43.5522810" lon="-6.4549720">
        <ele>5.4</ele>
        <time>2021-07-22T06:59:09Z</time>
      </trkpt>
      <trkpt lat="43.5522950" lon="-6.4550470">
        <ele>5.0</ele>
        <time>2021-07-22T06:59:10Z</time>
      </trkpt>
      <trkpt lat="43.5523090" lon="-6.4551250">
        <ele>4.6</ele>
        <time>2021-07-22T06:59:11Z</time>
      </trkpt>
      <trkpt lat="43.5523820" lon="-6.4555150">
        <ele>4.6</ele>
        <time>2021-07-22T06:59:16Z</time>
      </trkpt>
      <trkpt lat="43.5524330" lon="-6.4558220">
        <ele>4.6</ele>
        <time>2021-07-22T06:59:20Z</time>
      </trkpt>
      <trkpt lat="43.5525130" lon="-6.4562860">
        <ele>4.6</ele>
        <time>2021-07-22T06:59:26Z</time>
      </trkpt>
      <trkpt lat="43.5525630" lon="-6.4565840">
        <ele>4.6</ele>
        <time>2021-07-22T06:59:30Z</time>
      </trkpt>
      <trkpt lat="43.5526720" lon="-6.4571670">
        <ele>4.6</ele>
        <time>2021-07-22T06:59:38Z</time>
      </trkpt>
      <trkpt lat="43.5527090" lon="-6.4573780">
        <ele>4.2</ele>
        <time>2021-07-22T06:59:41Z</time>
      </trkpt>
      <trkpt lat="43.5527210" lon="-6.4574520">
        <ele>3.8</ele>
        <time>2021-07-22T06:59:42Z</time>
      </trkpt>
      <trkpt lat="43.5527380" lon="-6.4575210">
        <ele>3.4</ele>
        <time>2021-07-22T06:59:43Z</time>
      </trkpt>
      <trkpt lat="43.5527540" lon="-6.4575920">
        <ele>3.0</ele>
        <time>2021-07-22T06:59:44Z</time>
      </trkpt>
      <trkpt lat="43.5527690" lon="-6.4576600">
        <ele>2.6</ele>
        <time>2021-07-22T06:59:45Z</time>
      </trkpt>
      <trkpt lat="43.5528310" lon="-6.4580000">
        <ele>2.6</ele>
        <time>2021-07-22T06:59:50Z</time>
      </trkpt>
      <trkpt lat="43.5529410" lon="-6.4585930">
        <ele>2.6</ele>
        <time>2021-07-22T06:59:59Z</time>
      </trkpt>
      <trkpt lat="43.5530300" lon="-6.4590640">
        <ele>2.6</ele>
        <time>2021-07-22T07:00:07Z</time>
      </trkpt>
      <trkpt lat="43.5530770" lon="-6.4594420">
        <ele>2.6</ele>
        <time>2021-07-22T07:00:14Z</time>
      </trkpt>
      <trkpt lat="43.5530990" lon="-6.4595700">
        <ele>2.6</ele>
        <time>2021-07-22T07:00:17Z</time>
      </trkpt>
      <trkpt lat="43.5531300" lon="-6.4596600">
        <ele>2.6</ele>
        <time>2021-07-22T07:00:20Z</time>
      </trkpt>
      <trkpt lat="43.5531390" lon="-6.4596780">
        <ele>2.0</ele>
        <time>2021-07-22T07:00:22Z</time>
      </trkpt>
      <trkpt lat="43.5531710" lon="-6.4597410">
        <ele>0.4</ele>
        <time>2021-07-22T07:01:42Z</time>
      </trkpt>
      <trkpt lat="43.5531820" lon="-6.4597640">
        <ele>0.4</ele>
        <time>2021-07-22T07:01:43Z</time>
      </trkpt>
      <trkpt lat="43.5532060" lon="-6.4598150">
        <ele>0.4</ele>
        <time>2021-07-22T07:01:45Z</time>
      </trkpt>
      <trkpt lat="43.5532250" lon="-6.4598420">
        <ele>0.4</ele>
        <time>2021-07-22T07:01:46Z</time>
      </trkpt>
      <trkpt lat="43.5532760" lon="-6.4599090">
        <ele>0.4</ele>
        <time>2021-07-22T07:01:48Z</time>
      </trkpt>
      <trkpt lat="43.5533050" lon="-6.4599510">
        <ele>0.4</ele>
        <time>2021-07-22T07:01:49Z</time>
      </trkpt>
      <trkpt lat="43.5535440" lon="-6.4602750">
        <ele>0.4</ele>
        <time>2021-07-22T07:01:56Z</time>
      </trkpt>
      <trkpt lat="43.5538860" lon="-6.4606060">
        <ele>0.4</ele>
        <time>2021-07-22T07:02:04Z</time>
      </trkpt>
      <trkpt lat="43.5541520" lon="-6.4609470">
        <ele>0.4</ele>
        <time>2021-07-22T07:02:11Z</time>
      </trkpt>
      <trkpt lat="43.5541880" lon="-6.4610010">
        <ele>0.4</ele>
        <time>2021-07-22T07:02:12Z</time>
      </trkpt>
      <trkpt lat="43.5544350" lon="-6.4613570">
        <ele>0.4</ele>
        <time>2021-07-22T07:02:19Z</time>
      </trkpt>
      <trkpt lat="43.5547190" lon="-6.4618490">
        <ele>0.4</ele>
        <time>2021-07-22T07:02:28Z</time>
      </trkpt>
      <trkpt lat="43.5548860" lon="-6.4622750">
        <ele>0.4</ele>
        <time>2021-07-22T07:02:35Z</time>
      </trkpt>
      <trkpt lat="43.5549070" lon="-6.4623360">
        <ele>0.0</ele>
        <time>2021-07-22T07:02:36Z</time>
      </trkpt>
      <trkpt lat="43.5549250" lon="-6.4623950">
        <ele>-0.4</ele>
        <time>2021-07-22T07:02:37Z</time>
      </trkpt>
      <trkpt lat="43.5549440" lon="-6.4624550">
        <ele>-1.0</ele>
        <time>2021-07-22T07:02:38Z</time>
      </trkpt>
      <trkpt lat="43.5549630" lon="-6.4625160">
        <ele>-1.4</ele>
        <time>2021-07-22T07:02:39Z</time>
      </trkpt>
      <trkpt lat="43.5549830" lon="-6.4625770">
        <ele>-1.8</ele>
        <time>2021-07-22T07:02:40Z</time>
      </trkpt>
      <trkpt lat="43.5550730" lon="-6.4628760">
        <ele>-1.8</ele>
        <time>2021-07-22T07:02:45Z</time>
      </trkpt>
      <trkpt lat="43.5551470" lon="-6.4630170">
        <ele>-1.8</ele>
        <time>2021-07-22T07:02:48Z</time>
      </trkpt>
      <trkpt lat="43.5552190" lon="-6.4630840">
        <ele>-1.8</ele>
        <time>2021-07-22T07:02:50Z</time>
      </trkpt>
      <trkpt lat="43.5553710" lon="-6.4631560">
        <ele>-1.8</ele>
        <time>2021-07-22T07:02:54Z</time>
      </trkpt>
      <trkpt lat="43.5554030" lon="-6.4631700">
        <ele>-1.8</ele>
        <time>2021-07-22T07:02:55Z</time>
      </trkpt>
      <trkpt lat="43.5556330" lon="-6.4632720">
        <ele>-1.8</ele>
        <time>2021-07-22T07:03:02Z</time>
      </trkpt>
      <trkpt lat="43.5556630" lon="-6.4632870">
        <ele>-1.8</ele>
        <time>2021-07-22T07:03:03Z</time>
      </trkpt>
      <trkpt lat="43.5558280" lon="-6.4633450">
        <ele>-1.8</ele>
        <time>2021-07-22T07:03:08Z</time>
      </trkpt>
      <trkpt lat="43.5558930" lon="-6.4633670">
        <ele>-1.8</ele>
        <time>2021-07-22T07:03:10Z</time>
      </trkpt>
      <trkpt lat="43.5560560" lon="-6.4633480">
        <ele>-1.8</ele>
        <time>2021-07-22T07:03:15Z</time>
      </trkpt>
      <trkpt lat="43.5562000" lon="-6.4633360">
        <ele>-1.4</ele>
        <time>2021-07-22T07:03:19Z</time>
      </trkpt>
      <trkpt lat="43.5562340" lon="-6.4633520">
        <ele>-1.0</ele>
        <time>2021-07-22T07:03:20Z</time>
      </trkpt>
      <trkpt lat="43.5562690" lon="-6.4633680">
        <ele>-0.6</ele>
        <time>2021-07-22T07:03:21Z</time>
      </trkpt>
      <trkpt lat="43.5563020" lon="-6.4633840">
        <ele>-0.2</ele>
        <time>2021-07-22T07:03:22Z</time>
      </trkpt>
      <trkpt lat="43.5563360" lon="-6.4633970">
        <ele>0.2</ele>
        <time>2021-07-22T07:03:23Z</time>
      </trkpt>
      <trkpt lat="43.5565360" lon="-6.4634690">
        <ele>0.2</ele>
        <time>2021-07-22T07:03:29Z</time>
      </trkpt>
      <trkpt lat="43.5567550" lon="-6.4635520">
        <ele>0.2</ele>
        <time>2021-07-22T07:03:36Z</time>
      </trkpt>
      <trkpt lat="43.5570210" lon="-6.4636680">
        <ele>0.2</ele>
        <time>2021-07-22T07:03:43Z</time>
      </trkpt>
      <trkpt lat="43.5571820" lon="-6.4637820">
        <ele>0.2</ele>
        <time>2021-07-22T07:03:47Z</time>
      </trkpt>
      <trkpt lat="43.5573050" lon="-6.4638580">
        <ele>0.2</ele>
        <time>2021-07-22T07:03:50Z</time>
      </trkpt>
      <trkpt lat="43.5574910" lon="-6.4639520">
        <ele>0.2</ele>
        <time>2021-07-22T07:03:54Z</time>
      </trkpt>
      <trkpt lat="43.5576850" lon="-6.4640540">
        <ele>0.2</ele>
        <time>2021-07-22T07:03:58Z</time>
      </trkpt>
      <trkpt lat="43.5577310" lon="-6.4640890">
        <ele>0.2</ele>
        <time>2021-07-22T07:03:59Z</time>
      </trkpt>
      <trkpt lat="43.5578190" lon="-6.4641700">
        <ele>0.2</ele>
        <time>2021-07-22T07:04:01Z</time>
      </trkpt>
      <trkpt lat="43.5579030" lon="-6.4642570">
        <ele>0.2</ele>
        <time>2021-07-22T07:04:03Z</time>
      </trkpt>
      <trkpt lat="43.5579790" lon="-6.4643460">
        <ele>0.2</ele>
        <time>2021-07-22T07:04:05Z</time>
      </trkpt>
      <trkpt lat="43.5580180" lon="-6.4643820">
        <ele>0.2</ele>
        <time>2021-07-22T07:04:06Z</time>
      </trkpt>
      <trkpt lat="43.5581340" lon="-6.4644830">
        <ele>0.2</ele>
        <time>2021-07-22T07:04:09Z</time>
      </trkpt>
      <trkpt lat="43.5582930" lon="-6.4646170">
        <ele>0.2</ele>
        <time>2021-07-22T07:04:13Z</time>
      </trkpt>
      <trkpt lat="43.5584010" lon="-6.4647260">
        <ele>0.2</ele>
        <time>2021-07-22T07:04:16Z</time>
      </trkpt>
      <trkpt lat="43.5584300" lon="-6.4647720">
        <ele>0.2</ele>
        <time>2021-07-22T07:04:17Z</time>
      </trkpt>
      <trkpt lat="43.5585050" lon="-6.4650070">
        <ele>0.2</ele>
        <time>2021-07-22T07:04:21Z</time>
      </trkpt>
      <trkpt lat="43.5584660" lon="-6.4652520">
        <ele>0.2</ele>
        <time>2021-07-22T07:04:25Z</time>
      </trkpt>
      <trkpt lat="43.5584480" lon="-6.4653070">
        <ele>0.2</ele>
        <time>2021-07-22T07:04:26Z</time>
      </trkpt>
      <trkpt lat="43.5583800" lon="-6.4654670">
        <ele>-0.2</ele>
        <time>2021-07-22T07:04:29Z</time>
      </trkpt>
      <trkpt lat="43.5583560" lon="-6.4655190">
        <ele>-0.6</ele>
        <time>2021-07-22T07:04:30Z</time>
      </trkpt>
      <trkpt lat="43.5583330" lon="-6.4655700">
        <ele>-1.0</ele>
        <time>2021-07-22T07:04:31Z</time>
      </trkpt>
      <trkpt lat="43.5583100" lon="-6.4656230">
        <ele>-1.4</ele>
        <time>2021-07-22T07:04:32Z</time>
      </trkpt>
      <trkpt lat="43.5582880" lon="-6.4656760">
        <ele>-1.8</ele>
        <time>2021-07-22T07:04:33Z</time>
      </trkpt>
      <trkpt lat="43.5582670" lon="-6.4657290">
        <ele>-1.8</ele>
        <time>2021-07-22T07:04:34Z</time>
      </trkpt>
      <trkpt lat="43.5581190" lon="-6.4661890">
        <ele>-1.8</ele>
        <time>2021-07-22T07:04:42Z</time>
      </trkpt>
      <trkpt lat="43.5581030" lon="-6.4663180">
        <ele>-1.8</ele>
        <time>2021-07-22T07:04:44Z</time>
      </trkpt>
      <trkpt lat="43.5581190" lon="-6.4664470">
        <ele>-1.8</ele>
        <time>2021-07-22T07:04:46Z</time>
      </trkpt>
      <trkpt lat="43.5581380" lon="-6.4665110">
        <ele>-2.2</ele>
        <time>2021-07-22T07:04:47Z</time>
      </trkpt>
      <trkpt lat="43.5581660" lon="-6.4665710">
        <ele>-2.6</ele>
        <time>2021-07-22T07:04:48Z</time>
      </trkpt>
      <trkpt lat="43.5581950" lon="-6.4666310">
        <ele>-3.0</ele>
        <time>2021-07-22T07:04:49Z</time>
      </trkpt>
      <trkpt lat="43.5582280" lon="-6.4666920">
        <ele>-3.6</ele>
        <time>2021-07-22T07:04:50Z</time>
      </trkpt>
      <trkpt lat="43.5582570" lon="-6.4667510">
        <ele>-4.0</ele>
        <time>2021-07-22T07:04:51Z</time>
      </trkpt>
      <trkpt lat="43.5583990" lon="-6.4670240">
        <ele>-4.0</ele>
        <time>2021-07-22T07:04:56Z</time>
      </trkpt>
      <trkpt lat="43.5586280" lon="-6.4673290">
        <ele>-4.0</ele>
        <time>2021-07-22T07:05:03Z</time>
      </trkpt>
      <trkpt lat="43.5587410" lon="-6.4674160">
        <ele>-4.0</ele>
        <time>2021-07-22T07:05:06Z</time>
      </trkpt>
      <trkpt lat="43.5588950" lon="-6.4675050">
        <ele>-4.0</ele>
        <time>2021-07-22T07:05:10Z</time>
      </trkpt>
      <trkpt lat="43.5590480" lon="-6.4675950">
        <ele>-4.0</ele>
        <time>2021-07-22T07:05:14Z</time>
      </trkpt>
      <trkpt lat="43.5591680" lon="-6.4676550">
        <ele>-4.0</ele>
        <time>2021-07-22T07:05:17Z</time>
      </trkpt>
      <trkpt lat="43.5592070" lon="-6.4676790">
        <ele>-4.0</ele>
        <time>2021-07-22T07:05:18Z</time>
      </trkpt>
      <trkpt lat="43.5592840" lon="-6.4677280">
        <ele>-4.0</ele>
        <time>2021-07-22T07:05:20Z</time>
      </trkpt>
      <trkpt lat="43.5594370" lon="-6.4678150">
        <ele>-4.0</ele>
        <time>2021-07-22T07:05:24Z</time>
      </trkpt>
      <trkpt lat="43.5595520" lon="-6.4678850">
        <ele>-4.0</ele>
        <time>2021-07-22T07:05:27Z</time>
      </trkpt>
      <trkpt lat="43.5598620" lon="-6.4680800">
        <ele>-4.0</ele>
        <time>2021-07-22T07:05:35Z</time>
      </trkpt>
      <trkpt lat="43.5599020" lon="-6.4681010">
        <ele>-4.0</ele>
        <time>2021-07-22T07:05:36Z</time>
      </trkpt>
      <trkpt lat="43.5600270" lon="-6.4681460">
        <ele>-4.0</ele>
        <time>2021-07-22T07:05:39Z</time>
      </trkpt>
      <trkpt lat="43.5601440" lon="-6.4681410">
        <ele>-4.0</ele>
        <time>2021-07-22T07:05:43Z</time>
      </trkpt>
      <trkpt lat="43.5602490" lon="-6.4680990">
        <ele>-4.0</ele>
        <time>2021-07-22T07:05:46Z</time>
      </trkpt>
      <trkpt lat="43.5603510" lon="-6.4680440">
        <ele>-4.0</ele>
        <time>2021-07-22T07:05:49Z</time>
      </trkpt>
      <trkpt lat="43.5606690" lon="-6.4679420">
        <ele>-4.0</ele>
        <time>2021-07-22T07:05:57Z</time>
      </trkpt>
      <trkpt lat="43.5608310" lon="-6.4678860">
        <ele>-4.0</ele>
        <time>2021-07-22T07:06:01Z</time>
      </trkpt>
      <trkpt lat="43.5610040" lon="-6.4678480">
        <ele>-4.0</ele>
        <time>2021-07-22T07:06:05Z</time>
      </trkpt>
      <trkpt lat="43.5611350" lon="-6.4678360">
        <ele>-4.0</ele>
        <time>2021-07-22T07:06:08Z</time>
      </trkpt>
      <trkpt lat="43.5612660" lon="-6.4678690">
        <ele>-4.0</ele>
        <time>2021-07-22T07:06:11Z</time>
      </trkpt>
      <trkpt lat="43.5613070" lon="-6.4678860">
        <ele>-4.0</ele>
        <time>2021-07-22T07:06:12Z</time>
      </trkpt>
      <trkpt lat="43.5614680" lon="-6.4679730">
        <ele>-4.0</ele>
        <time>2021-07-22T07:06:16Z</time>
      </trkpt>
      <trkpt lat="43.5615830" lon="-6.4680490">
        <ele>-4.0</ele>
        <time>2021-07-22T07:06:19Z</time>
      </trkpt>
      <trkpt lat="43.5617030" lon="-6.4681320">
        <ele>-4.0</ele>
        <time>2021-07-22T07:06:22Z</time>
      </trkpt>
      <trkpt lat="43.5620110" lon="-6.4683630">
        <ele>-4.0</ele>
        <time>2021-07-22T07:06:30Z</time>
      </trkpt>
      <trkpt lat="43.5622370" lon="-6.4685270">
        <ele>-4.0</ele>
        <time>2021-07-22T07:06:36Z</time>
      </trkpt>
      <trkpt lat="43.5623680" lon="-6.4686270">
        <ele>-4.0</ele>
        <time>2021-07-22T07:06:40Z</time>
      </trkpt>
      <trkpt lat="43.5624310" lon="-6.4686730">
        <ele>-4.0</ele>
        <time>2021-07-22T07:06:42Z</time>
      </trkpt>
      <trkpt lat="43.5626000" lon="-6.4687980">
        <ele>-4.0</ele>
        <time>2021-07-22T07:06:47Z</time>
      </trkpt>
      <trkpt lat="43.5627220" lon="-6.4688920">
        <ele>-4.0</ele>
        <time>2021-07-22T07:06:51Z</time>
      </trkpt>
      <trkpt lat="43.5628850" lon="-6.4690140">
        <ele>-4.0</ele>
        <time>2021-07-22T07:06:56Z</time>
      </trkpt>
      <trkpt lat="43.5631380" lon="-6.4693230">
        <ele>-4.0</ele>
        <time>2021-07-22T07:07:05Z</time>
      </trkpt>
      <trkpt lat="43.5633750" lon="-6.4696040">
        <ele>-4.0</ele>
        <time>2021-07-22T07:07:13Z</time>
      </trkpt>
      <trkpt lat="43.5634540" lon="-6.4696500">
        <ele>-4.0</ele>
        <time>2021-07-22T07:07:15Z</time>
      </trkpt>
      <trkpt lat="43.5636030" lon="-6.4697040">
        <ele>-4.0</ele>
        <time>2021-07-22T07:07:19Z</time>
      </trkpt>
      <trkpt lat="43.5638780" lon="-6.4697430">
        <ele>-4.0</ele>
        <time>2021-07-22T07:07:26Z</time>
      </trkpt>
      <trkpt lat="43.5640070" lon="-6.4697560">
        <ele>-4.4</ele>
        <time>2021-07-22T07:07:29Z</time>
      </trkpt>
      <trkpt lat="43.5640480" lon="-6.4697640">
        <ele>-4.8</ele>
        <time>2021-07-22T07:07:30Z</time>
      </trkpt>
      <trkpt lat="43.5640890" lon="-6.4697760">
        <ele>-5.2</ele>
        <time>2021-07-22T07:07:31Z</time>
      </trkpt>
      <trkpt lat="43.5641300" lon="-6.4697910">
        <ele>-5.6</ele>
        <time>2021-07-22T07:07:32Z</time>
      </trkpt>
      <trkpt lat="43.5641700" lon="-6.4698090">
        <ele>-6.0</ele>
        <time>2021-07-22T07:07:33Z</time>
      </trkpt>
      <trkpt lat="43.5642520" lon="-6.4698590">
        <ele>-6.0</ele>
        <time>2021-07-22T07:07:35Z</time>
      </trkpt>
      <trkpt lat="43.5642910" lon="-6.4698910">
        <ele>-6.0</ele>
        <time>2021-07-22T07:07:36Z</time>
      </trkpt>
      <trkpt lat="43.5644040" lon="-6.4699800">
        <ele>-6.0</ele>
        <time>2021-07-22T07:07:39Z</time>
      </trkpt>
      <trkpt lat="43.5644730" lon="-6.4700400">
        <ele>-6.0</ele>
        <time>2021-07-22T07:07:41Z</time>
      </trkpt>
      <trkpt lat="43.5645080" lon="-6.4700710">
        <ele>-6.0</ele>
        <time>2021-07-22T07:07:42Z</time>
      </trkpt>
      <trkpt lat="43.5645820" lon="-6.4701260">
        <ele>-6.0</ele>
        <time>2021-07-22T07:07:44Z</time>
      </trkpt>
      <trkpt lat="43.5646670" lon="-6.4701570">
        <ele>-6.0</ele>
        <time>2021-07-22T07:07:47Z</time>
      </trkpt>
      <trkpt lat="43.5648250" lon="-6.4701670">
        <ele>-6.0</ele>
        <time>2021-07-22T07:07:52Z</time>
      </trkpt>
      <trkpt lat="43.5648990" lon="-6.4701580">
        <ele>-6.0</ele>
        <time>2021-07-22T07:07:54Z</time>
      </trkpt>
      <trkpt lat="43.5650190" lon="-6.4701420">
        <ele>-6.4</ele>
        <time>2021-07-22T07:07:57Z</time>
      </trkpt>
      <trkpt lat="43.5650630" lon="-6.4701340">
        <ele>-6.8</ele>
        <time>2021-07-22T07:07:58Z</time>
      </trkpt>
      <trkpt lat="43.5651040" lon="-6.4701290">
        <ele>-7.2</ele>
        <time>2021-07-22T07:07:59Z</time>
      </trkpt>
      <trkpt lat="43.5651510" lon="-6.4701270">
        <ele>-7.6</ele>
        <time>2021-07-22T07:08:00Z</time>
      </trkpt>
      <trkpt lat="43.5651990" lon="-6.4701220">
        <ele>-8.0</ele>
        <time>2021-07-22T07:08:01Z</time>
      </trkpt>
      <trkpt lat="43.5654850" lon="-6.4701250">
        <ele>-8.0</ele>
        <time>2021-07-22T07:08:07Z</time>
      </trkpt>
      <trkpt lat="43.5656320" lon="-6.4701350">
        <ele>-8.0</ele>
        <time>2021-07-22T07:08:10Z</time>
      </trkpt>
      <trkpt lat="43.5658710" lon="-6.4701560">
        <ele>-8.4</ele>
        <time>2021-07-22T07:08:15Z</time>
      </trkpt>
      <trkpt lat="43.5659160" lon="-6.4701620">
        <ele>-8.8</ele>
        <time>2021-07-22T07:08:16Z</time>
      </trkpt>
      <trkpt lat="43.5659580" lon="-6.4701700">
        <ele>-9.2</ele>
        <time>2021-07-22T07:08:17Z</time>
      </trkpt>
      <trkpt lat="43.5660010" lon="-6.4701790">
        <ele>-9.6</ele>
        <time>2021-07-22T07:08:18Z</time>
      </trkpt>
      <trkpt lat="43.5660410" lon="-6.4701880">
        <ele>-10.0</ele>
        <time>2021-07-22T07:08:19Z</time>
      </trkpt>
      <trkpt lat="43.5662160" lon="-6.4702200">
        <ele>-10.0</ele>
        <time>2021-07-22T07:08:23Z</time>
      </trkpt>
      <trkpt lat="43.5663560" lon="-6.4702660">
        <ele>-10.0</ele>
        <time>2021-07-22T07:08:26Z</time>
      </trkpt>
      <trkpt lat="43.5666240" lon="-6.4703620">
        <ele>-10.0</ele>
        <time>2021-07-22T07:08:32Z</time>
      </trkpt>
      <trkpt lat="43.5669390" lon="-6.4704240">
        <ele>-10.0</ele>
        <time>2021-07-22T07:08:40Z</time>
      </trkpt>
      <trkpt lat="43.5671270" lon="-6.4703880">
        <ele>-10.0</ele>
        <time>2021-07-22T07:08:45Z</time>
      </trkpt>
      <trkpt lat="43.5672000" lon="-6.4703640">
        <ele>-10.0</ele>
        <time>2021-07-22T07:08:47Z</time>
      </trkpt>
      <trkpt lat="43.5674650" lon="-6.4702710">
        <ele>-10.0</ele>
        <time>2021-07-22T07:08:54Z</time>
      </trkpt>
      <trkpt lat="43.5675800" lon="-6.4702240">
        <ele>-10.0</ele>
        <time>2021-07-22T07:08:57Z</time>
      </trkpt>
      <trkpt lat="43.5677550" lon="-6.4701630">
        <ele>-10.0</ele>
        <time>2021-07-22T07:09:02Z</time>
      </trkpt>
      <trkpt lat="43.5679690" lon="-6.4700770">
        <ele>-10.0</ele>
        <time>2021-07-22T07:09:08Z</time>
      </trkpt>
      <trkpt lat="43.5680020" lon="-6.4700660">
        <ele>-10.0</ele>
        <time>2021-07-22T07:09:09Z</time>
      </trkpt>
      <trkpt lat="43.5683150" lon="-6.4699430">
        <ele>-10.0</ele>
        <time>2021-07-22T07:09:18Z</time>
      </trkpt>
      <trkpt lat="43.5684520" lon="-6.4698860">
        <ele>-10.0</ele>
        <time>2021-07-22T07:09:22Z</time>
      </trkpt>
      <trkpt lat="43.5685520" lon="-6.4698470">
        <ele>-10.0</ele>
        <time>2021-07-22T07:09:25Z</time>
      </trkpt>
      <trkpt lat="43.5686170" lon="-6.4698220">
        <ele>-10.4</ele>
        <time>2021-07-22T07:09:27Z</time>
      </trkpt>
      <trkpt lat="43.5686480" lon="-6.4698130">
        <ele>-10.8</ele>
        <time>2021-07-22T07:09:28Z</time>
      </trkpt>
      <trkpt lat="43.5686780" lon="-6.4698060">
        <ele>-11.2</ele>
        <time>2021-07-22T07:09:29Z</time>
      </trkpt>
      <trkpt lat="43.5687020" lon="-6.4698040">
        <ele>-11.6</ele>
        <time>2021-07-22T07:09:30Z</time>
      </trkpt>
      <trkpt lat="43.5687260" lon="-6.4697970">
        <ele>-12.2</ele>
        <time>2021-07-22T07:09:31Z</time>
      </trkpt>
      <trkpt lat="43.5687600" lon="-6.4697740">
        <ele>-12.2</ele>
        <time>2021-07-22T07:09:33Z</time>
      </trkpt>
      <trkpt lat="43.5687690" lon="-6.4697690">
        <ele>-12.2</ele>
        <time>2021-07-22T07:09:35Z</time>
      </trkpt>
      <trkpt lat="43.5688190" lon="-6.4697480">
        <ele>-12.2</ele>
        <time>2021-07-22T07:11:00Z</time>
      </trkpt>
      <trkpt lat="43.5688000" lon="-6.4697550">
        <ele>-12.2</ele>
        <time>2021-07-22T07:11:01Z</time>
      </trkpt>
      <trkpt lat="43.5687520" lon="-6.4697840">
        <ele>-12.2</ele>
        <time>2021-07-22T07:11:04Z</time>
      </trkpt>
      <trkpt lat="43.5687390" lon="-6.4698050">
        <ele>-12.2</ele>
        <time>2021-07-22T07:11:05Z</time>
      </trkpt>
      <trkpt lat="43.5687340" lon="-6.4698620">
        <ele>-12.2</ele>
        <time>2021-07-22T07:11:07Z</time>
      </trkpt>
      <trkpt lat="43.5687330" lon="-6.4700210">
        <ele>-12.2</ele>
        <time>2021-07-22T07:11:13Z</time>
      </trkpt>
      <trkpt lat="43.5687330" lon="-6.4700500">
        <ele>-12.2</ele>
        <time>2021-07-22T07:11:14Z</time>
      </trkpt>
      <trkpt lat="43.5687390" lon="-6.4702580">
        <ele>-12.2</ele>
        <time>2021-07-22T07:11:21Z</time>
      </trkpt>
      <trkpt lat="43.5687620" lon="-6.4703370">
        <ele>-12.2</ele>
        <time>2021-07-22T07:11:25Z</time>
      </trkpt>
      <trkpt lat="43.5687660" lon="-6.4703460">
        <ele>-12.2</ele>
        <time>2021-07-22T07:11:27Z</time>
      </trkpt>
      <trkpt lat="43.5688120" lon="-6.4703310">
        <ele>-12.2</ele>
        <time>2021-07-22T07:11:34Z</time>
      </trkpt>
      <trkpt lat="43.5689350" lon="-6.4701870">
        <ele>-12.2</ele>
        <time>2021-07-22T07:11:42Z</time>
      </trkpt>
      <trkpt lat="43.5691390" lon="-6.4700520">
        <ele>-12.2</ele>
        <time>2021-07-22T07:11:51Z</time>
      </trkpt>
      <trkpt lat="43.5693730" lon="-6.4699920">
        <ele>-12.2</ele>
        <time>2021-07-22T07:11:59Z</time>
      </trkpt>
      <trkpt lat="43.5694100" lon="-6.4699800">
        <ele>-12.2</ele>
        <time>2021-07-22T07:12:00Z</time>
      </trkpt>
      <trkpt lat="43.5695680" lon="-6.4699070">
        <ele>-12.2</ele>
        <time>2021-07-22T07:12:05Z</time>
      </trkpt>
      <trkpt lat="43.5696270" lon="-6.4698750">
        <ele>-12.2</ele>
        <time>2021-07-22T07:12:07Z</time>
      </trkpt>
      <trkpt lat="43.5696560" lon="-6.4698590">
        <ele>-12.6</ele>
        <time>2021-07-22T07:12:08Z</time>
      </trkpt>
      <trkpt lat="43.5696820" lon="-6.4698470">
        <ele>-13.0</ele>
        <time>2021-07-22T07:12:09Z</time>
      </trkpt>
      <trkpt lat="43.5697070" lon="-6.4698340">
        <ele>-13.4</ele>
        <time>2021-07-22T07:12:10Z</time>
      </trkpt>
      <trkpt lat="43.5697280" lon="-6.4698300">
        <ele>-13.8</ele>
        <time>2021-07-22T07:12:11Z</time>
      </trkpt>
      <trkpt lat="43.5697500" lon="-6.4698330">
        <ele>-14.2</ele>
        <time>2021-07-22T07:12:12Z</time>
      </trkpt>
      <trkpt lat="43.5697700" lon="-6.4698450">
        <ele>-14.2</ele>
        <time>2021-07-22T07:12:13Z</time>
      </trkpt>
      <trkpt lat="43.5698130" lon="-6.4698710">
        <ele>-14.2</ele>
        <time>2021-07-22T07:12:15Z</time>
      </trkpt>
      <trkpt lat="43.5698950" lon="-6.4699230">
        <ele>-14.2</ele>
        <time>2021-07-22T07:12:21Z</time>
      </trkpt>
      <trkpt lat="43.5699360" lon="-6.4699370">
        <ele>-15.8</ele>
        <time>2021-07-22T07:12:30Z</time>
      </trkpt>
      <trkpt lat="43.5699430" lon="-6.4699470">
        <ele>-16.2</ele>
        <time>2021-07-22T07:12:31Z</time>
      </trkpt>
      <trkpt lat="43.5699460" lon="-6.4699540">
        <ele>-16.2</ele>
        <time>2021-07-22T07:12:33Z</time>
      </trkpt>
      <trkpt lat="43.5698820" lon="-6.4698970">
        <ele>-16.2</ele>
        <time>2021-07-22T07:14:17Z</time>
      </trkpt>
      <trkpt lat="43.5698630" lon="-6.4698840">
        <ele>-16.2</ele>
        <time>2021-07-22T07:14:19Z</time>
      </trkpt>
      <trkpt lat="43.5698510" lon="-6.4698780">
        <ele>-16.2</ele>
        <time>2021-07-22T07:14:20Z</time>
      </trkpt>
      <trkpt lat="43.5698370" lon="-6.4698720">
        <ele>-16.2</ele>
        <time>2021-07-22T07:14:21Z</time>
      </trkpt>
      <trkpt lat="43.5698040" lon="-6.4698510">
        <ele>-16.2</ele>
        <time>2021-07-22T07:14:24Z</time>
      </trkpt>
      <trkpt lat="43.5697750" lon="-6.4698340">
        <ele>-16.2</ele>
        <time>2021-07-22T07:14:28Z</time>
      </trkpt>
      <trkpt lat="43.5697450" lon="-6.4698130">
        <ele>-16.2</ele>
        <time>2021-07-22T07:14:42Z</time>
      </trkpt>
      <trkpt lat="43.5697030" lon="-6.4697600">
        <ele>-16.2</ele>
        <time>2021-07-22T07:14:45Z</time>
      </trkpt>
      <trkpt lat="43.5696590" lon="-6.4696980">
        <ele>-16.2</ele>
        <time>2021-07-22T07:14:48Z</time>
      </trkpt>
      <trkpt lat="43.5695930" lon="-6.4695980">
        <ele>-16.2</ele>
        <time>2021-07-22T07:14:53Z</time>
      </trkpt>
      <trkpt lat="43.5694870" lon="-6.4693550">
        <ele>-16.2</ele>
        <time>2021-07-22T07:15:02Z</time>
      </trkpt>
      <trkpt lat="43.5694850" lon="-6.4691500">
        <ele>-16.2</ele>
        <time>2021-07-22T07:15:08Z</time>
      </trkpt>
      <trkpt lat="43.5695290" lon="-6.4688770">
        <ele>-16.2</ele>
        <time>2021-07-22T07:15:15Z</time>
      </trkpt>
      <trkpt lat="43.5695230" lon="-6.4685080">
        <ele>-16.2</ele>
        <time>2021-07-22T07:15:24Z</time>
      </trkpt>
      <trkpt lat="43.5695130" lon="-6.4682550">
        <ele>-16.2</ele>
        <time>2021-07-22T07:15:30Z</time>
      </trkpt>
      <trkpt lat="43.5695040" lon="-6.4682090">
        <ele>-16.2</ele>
        <time>2021-07-22T07:15:31Z</time>
      </trkpt>
      <trkpt lat="43.5694060" lon="-6.4679750">
        <ele>-16.2</ele>
        <time>2021-07-22T07:15:37Z</time>
      </trkpt>
      <trkpt lat="43.5693620" lon="-6.4679110">
        <ele>-15.8</ele>
        <time>2021-07-22T07:15:39Z</time>
      </trkpt>
      <trkpt lat="43.5693430" lon="-6.4678770">
        <ele>-15.4</ele>
        <time>2021-07-22T07:15:40Z</time>
      </trkpt>
      <trkpt lat="43.5693230" lon="-6.4678420">
        <ele>-15.0</ele>
        <time>2021-07-22T07:15:41Z</time>
      </trkpt>
      <trkpt lat="43.5693030" lon="-6.4678080">
        <ele>-14.6</ele>
        <time>2021-07-22T07:15:42Z</time>
      </trkpt>
      <trkpt lat="43.5692830" lon="-6.4677800">
        <ele>-14.2</ele>
        <time>2021-07-22T07:15:43Z</time>
      </trkpt>
      <trkpt lat="43.5692600" lon="-6.4677510">
        <ele>-14.2</ele>
        <time>2021-07-22T07:15:44Z</time>
      </trkpt>
      <trkpt lat="43.5691140" lon="-6.4675700">
        <ele>-14.2</ele>
        <time>2021-07-22T07:15:51Z</time>
      </trkpt>
      <trkpt lat="43.5689760" lon="-6.4674030">
        <ele>-14.2</ele>
        <time>2021-07-22T07:15:58Z</time>
      </trkpt>
      <trkpt lat="43.5688890" lon="-6.4672900">
        <ele>-14.2</ele>
        <time>2021-07-22T07:16:05Z</time>
      </trkpt>
      <trkpt lat="43.5688850" lon="-6.4672820">
        <ele>-14.2</ele>
        <time>2021-07-22T07:16:07Z</time>
      </trkpt>
      <trkpt lat="43.5689000" lon="-6.4673030">
        <ele>-14.2</ele>
        <time>2021-07-22T07:16:13Z</time>
      </trkpt>
      <trkpt lat="43.5689140" lon="-6.4673200">
        <ele>-14.2</ele>
        <time>2021-07-22T07:16:14Z</time>
      </trkpt>
      <trkpt lat="43.5689530" lon="-6.4673800">
        <ele>-14.2</ele>
        <time>2021-07-22T07:16:18Z</time>
      </trkpt>
      <trkpt lat="43.5689920" lon="-6.4674230">
        <ele>-14.2</ele>
        <time>2021-07-22T07:16:20Z</time>
      </trkpt>
      <trkpt lat="43.5690760" lon="-6.4675270">
        <ele>-14.2</ele>
        <time>2021-07-22T07:16:23Z</time>
      </trkpt>
      <trkpt lat="43.5691050" lon="-6.4675640">
        <ele>-14.2</ele>
        <time>2021-07-22T07:16:24Z</time>
      </trkpt>
      <trkpt lat="43.5692130" lon="-6.4677060">
        <ele>-14.2</ele>
        <time>2021-07-22T07:16:28Z</time>
      </trkpt>
      <trkpt lat="43.5693290" lon="-6.4678750">
        <ele>-14.2</ele>
        <time>2021-07-22T07:16:33Z</time>
      </trkpt>
      <trkpt lat="43.5694340" lon="-6.4680680">
        <ele>-14.2</ele>
        <time>2021-07-22T07:16:38Z</time>
      </trkpt>
      <trkpt lat="43.5694850" lon="-6.4681910">
        <ele>-14.2</ele>
        <time>2021-07-22T07:16:41Z</time>
      </trkpt>
      <trkpt lat="43.5695120" lon="-6.4683110">
        <ele>-14.2</ele>
        <time>2021-07-22T07:16:44Z</time>
      </trkpt>
      <trkpt lat="43.5695140" lon="-6.4683960">
        <ele>-14.2</ele>
        <time>2021-07-22T07:16:46Z</time>
      </trkpt>
      <trkpt lat="43.5695160" lon="-6.4687100">
        <ele>-14.2</ele>
        <time>2021-07-22T07:16:53Z</time>
      </trkpt>
      <trkpt lat="43.5695100" lon="-6.4690310">
        <ele>-14.2</ele>
        <time>2021-07-22T07:17:01Z</time>
      </trkpt>
      <trkpt lat="43.5694460" lon="-6.4692800">
        <ele>-14.2</ele>
        <time>2021-07-22T07:17:08Z</time>
      </trkpt>
      <trkpt lat="43.5695040" lon="-6.4694850">
        <ele>-14.2</ele>
        <time>2021-07-22T07:17:13Z</time>
      </trkpt>
      <trkpt lat="43.5695940" lon="-6.4696570">
        <ele>-14.2</ele>
        <time>2021-07-22T07:17:18Z</time>
      </trkpt>
      <trkpt lat="43.5696300" lon="-6.4697170">
        <ele>-14.2</ele>
        <time>2021-07-22T07:17:20Z</time>
      </trkpt>
      <trkpt lat="43.5696450" lon="-6.4697450">
        <ele>-14.2</ele>
        <time>2021-07-22T07:17:21Z</time>
      </trkpt>
      <trkpt lat="43.5696620" lon="-6.4697640">
        <ele>-14.2</ele>
        <time>2021-07-22T07:17:24Z</time>
      </trkpt>
      <trkpt lat="43.5696430" lon="-6.4697520">
        <ele>-14.2</ele>
        <time>2021-07-22T07:17:34Z</time>
      </trkpt>
      <trkpt lat="43.5696220" lon="-6.4697650">
        <ele>-14.2</ele>
        <time>2021-07-22T07:17:37Z</time>
      </trkpt>
      <trkpt lat="43.5696220" lon="-6.4697640">
        <ele>-14.2</ele>
        <time>2021-07-22T07:17:38Z</time>
      </trkpt>
      <trkpt lat="43.5696200" lon="-6.4698010">
        <ele>-14.2</ele>
        <time>2021-07-22T07:18:35Z</time>
      </trkpt>
      <trkpt lat="43.5696190" lon="-6.4698240">
        <ele>-14.2</ele>
        <time>2021-07-22T07:18:36Z</time>
      </trkpt>
      <trkpt lat="43.5696180" lon="-6.4698430">
        <ele>-14.2</ele>
        <time>2021-07-22T07:18:37Z</time>
      </trkpt>
      <trkpt lat="43.5695940" lon="-6.4698910">
        <ele>-14.2</ele>
        <time>2021-07-22T07:18:41Z</time>
      </trkpt>
      <trkpt lat="43.5695890" lon="-6.4698940">
        <ele>-14.2</ele>
        <time>2021-07-22T07:18:43Z</time>
      </trkpt>
      <trkpt lat="43.5695770" lon="-6.4699000">
        <ele>-14.2</ele>
        <time>2021-07-22T07:18:47Z</time>
      </trkpt>
      <trkpt lat="43.5695310" lon="-6.4699250">
        <ele>-14.2</ele>
        <time>2021-07-22T07:18:50Z</time>
      </trkpt>
      <trkpt lat="43.5694990" lon="-6.4699400">
        <ele>-14.2</ele>
        <time>2021-07-22T07:18:52Z</time>
      </trkpt>
      <trkpt lat="43.5694600" lon="-6.4699620">
        <ele>-14.2</ele>
        <time>2021-07-22T07:18:54Z</time>
      </trkpt>
      <trkpt lat="43.5693960" lon="-6.4699960">
        <ele>-14.2</ele>
        <time>2021-07-22T07:18:57Z</time>
      </trkpt>
      <trkpt lat="43.5692660" lon="-6.4700260">
        <ele>-14.2</ele>
        <time>2021-07-22T07:19:02Z</time>
      </trkpt>
      <trkpt lat="43.5692110" lon="-6.4700350">
        <ele>-14.2</ele>
        <time>2021-07-22T07:19:04Z</time>
      </trkpt>
      <trkpt lat="43.5691240" lon="-6.4700610">
        <ele>-14.2</ele>
        <time>2021-07-22T07:19:07Z</time>
      </trkpt>
      <trkpt lat="43.5690700" lon="-6.4700920">
        <ele>-14.2</ele>
        <time>2021-07-22T07:19:09Z</time>
      </trkpt>
      <trkpt lat="43.5689920" lon="-6.4701470">
        <ele>-14.2</ele>
        <time>2021-07-22T07:19:12Z</time>
      </trkpt>
      <trkpt lat="43.5689170" lon="-6.4702160">
        <ele>-14.2</ele>
        <time>2021-07-22T07:19:15Z</time>
      </trkpt>
      <trkpt lat="43.5688300" lon="-6.4703180">
        <ele>-13.8</ele>
        <time>2021-07-22T07:19:19Z</time>
      </trkpt>
      <trkpt lat="43.5688130" lon="-6.4703330">
        <ele>-13.4</ele>
        <time>2021-07-22T07:19:20Z</time>
      </trkpt>
      <trkpt lat="43.5687960" lon="-6.4703420">
        <ele>-13.0</ele>
        <time>2021-07-22T07:19:21Z</time>
      </trkpt>
      <trkpt lat="43.5687810" lon="-6.4703430">
        <ele>-12.6</ele>
        <time>2021-07-22T07:19:22Z</time>
      </trkpt>
      <trkpt lat="43.5687660" lon="-6.4703350">
        <ele>-12.2</ele>
        <time>2021-07-22T07:19:23Z</time>
      </trkpt>
      <trkpt lat="43.5687250" lon="-6.4703270">
        <ele>-12.2</ele>
        <time>2021-07-22T07:19:25Z</time>
      </trkpt>
      <trkpt lat="43.5685880" lon="-6.4703850">
        <ele>-12.2</ele>
        <time>2021-07-22T07:19:30Z</time>
      </trkpt>
      <trkpt lat="43.5683940" lon="-6.4704850">
        <ele>-12.2</ele>
        <time>2021-07-22T07:19:38Z</time>
      </trkpt>
      <trkpt lat="43.5683620" lon="-6.4705450">
        <ele>-12.2</ele>
        <time>2021-07-22T07:19:40Z</time>
      </trkpt>
      <trkpt lat="43.5682950" lon="-6.4706010">
        <ele>-12.2</ele>
        <time>2021-07-22T07:19:43Z</time>
      </trkpt>
      <trkpt lat="43.5681090" lon="-6.4707130">
        <ele>-12.2</ele>
        <time>2021-07-22T07:19:50Z</time>
      </trkpt>
      <trkpt lat="43.5678970" lon="-6.4708740">
        <ele>-12.2</ele>
        <time>2021-07-22T07:19:58Z</time>
      </trkpt>
      <trkpt lat="43.5678330" lon="-6.4709300">
        <ele>-12.2</ele>
        <time>2021-07-22T07:20:02Z</time>
      </trkpt>
      <trkpt lat="43.5678280" lon="-6.4709230">
        <ele>-12.2</ele>
        <time>2021-07-22T07:20:03Z</time>
      </trkpt>
      <trkpt lat="43.5678450" lon="-6.4708770">
        <ele>-12.2</ele>
        <time>2021-07-22T07:20:07Z</time>
      </trkpt>
      <trkpt lat="43.5678580" lon="-6.4708640">
        <ele>-12.2</ele>
        <time>2021-07-22T07:20:08Z</time>
      </trkpt>
      <trkpt lat="43.5679150" lon="-6.4708020">
        <ele>-12.2</ele>
        <time>2021-07-22T07:20:11Z</time>
      </trkpt>
      <trkpt lat="43.5679590" lon="-6.4707620">
        <ele>-12.2</ele>
        <time>2021-07-22T07:20:13Z</time>
      </trkpt>
      <trkpt lat="43.5680020" lon="-6.4705950">
        <ele>-12.2</ele>
        <time>2021-07-22T07:20:18Z</time>
      </trkpt>
      <trkpt lat="43.5679740" lon="-6.4704250">
        <ele>-12.2</ele>
        <time>2021-07-22T07:20:24Z</time>
      </trkpt>
      <trkpt lat="43.5679570" lon="-6.4703310">
        <ele>-12.2</ele>
        <time>2021-07-22T07:20:28Z</time>
      </trkpt>
      <trkpt lat="43.5679440" lon="-6.4702240">
        <ele>-12.2</ele>
        <time>2021-07-22T07:20:32Z</time>
      </trkpt>
      <trkpt lat="43.5679280" lon="-6.4701390">
        <ele>-12.2</ele>
        <time>2021-07-22T07:20:36Z</time>
      </trkpt>
      <trkpt lat="43.5678880" lon="-6.4701140">
        <ele>-12.2</ele>
        <time>2021-07-22T07:20:39Z</time>
      </trkpt>
      <trkpt lat="43.5677690" lon="-6.4701780">
        <ele>-12.2</ele>
        <time>2021-07-22T07:20:43Z</time>
      </trkpt>
      <trkpt lat="43.5675790" lon="-6.4702510">
        <ele>-12.2</ele>
        <time>2021-07-22T07:20:49Z</time>
      </trkpt>
      <trkpt lat="43.5675150" lon="-6.4702790">
        <ele>-12.2</ele>
        <time>2021-07-22T07:20:51Z</time>
      </trkpt>
      <trkpt lat="43.5673330" lon="-6.4703440">
        <ele>-12.2</ele>
        <time>2021-07-22T07:20:57Z</time>
      </trkpt>
      <trkpt lat="43.5672720" lon="-6.4703740">
        <ele>-12.2</ele>
        <time>2021-07-22T07:20:59Z</time>
      </trkpt>
      <trkpt lat="43.5670620" lon="-6.4704470">
        <ele>-12.2</ele>
        <time>2021-07-22T07:21:05Z</time>
      </trkpt>
      <trkpt lat="43.5667460" lon="-6.4704370">
        <ele>-12.2</ele>
        <time>2021-07-22T07:21:13Z</time>
      </trkpt>
      <trkpt lat="43.5666400" lon="-6.4704070">
        <ele>-12.2</ele>
        <time>2021-07-22T07:21:16Z</time>
      </trkpt>
      <trkpt lat="43.5665800" lon="-6.4703810">
        <ele>-12.2</ele>
        <time>2021-07-22T07:21:18Z</time>
      </trkpt>
      <trkpt lat="43.5665480" lon="-6.4703750">
        <ele>-12.2</ele>
        <time>2021-07-22T07:21:19Z</time>
      </trkpt>
      <trkpt lat="43.5663100" lon="-6.4703050">
        <ele>-12.2</ele>
        <time>2021-07-22T07:21:26Z</time>
      </trkpt>
      <trkpt lat="43.5660880" lon="-6.4702580">
        <ele>-12.2</ele>
        <time>2021-07-22T07:21:32Z</time>
      </trkpt>
      <trkpt lat="43.5659700" lon="-6.4702460">
        <ele>-12.2</ele>
        <time>2021-07-22T07:21:35Z</time>
      </trkpt>
      <trkpt lat="43.5657780" lon="-6.4702200">
        <ele>-12.2</ele>
        <time>2021-07-22T07:21:40Z</time>
      </trkpt>
      <trkpt lat="43.5654460" lon="-6.4701790">
        <ele>-12.2</ele>
        <time>2021-07-22T07:21:49Z</time>
      </trkpt>
      <trkpt lat="43.5653390" lon="-6.4701670">
        <ele>-11.8</ele>
        <time>2021-07-22T07:21:52Z</time>
      </trkpt>
      <trkpt lat="43.5653020" lon="-6.4701640">
        <ele>-11.4</ele>
        <time>2021-07-22T07:21:53Z</time>
      </trkpt>
      <trkpt lat="43.5652690" lon="-6.4701620">
        <ele>-10.8</ele>
        <time>2021-07-22T07:21:54Z</time>
      </trkpt>
      <trkpt lat="43.5652330" lon="-6.4701640">
        <ele>-10.4</ele>
        <time>2021-07-22T07:21:55Z</time>
      </trkpt>
      <trkpt lat="43.5651990" lon="-6.4701650">
        <ele>-10.0</ele>
        <time>2021-07-22T07:21:56Z</time>
      </trkpt>
      <trkpt lat="43.5651270" lon="-6.4701680">
        <ele>-10.0</ele>
        <time>2021-07-22T07:21:58Z</time>
      </trkpt>
      <trkpt lat="43.5648980" lon="-6.4701850">
        <ele>-10.0</ele>
        <time>2021-07-22T07:22:05Z</time>
      </trkpt>
      <trkpt lat="43.5647040" lon="-6.4701790">
        <ele>-10.0</ele>
        <time>2021-07-22T07:22:11Z</time>
      </trkpt>
      <trkpt lat="43.5644890" lon="-6.4700630">
        <ele>-10.0</ele>
        <time>2021-07-22T07:22:18Z</time>
      </trkpt>
      <trkpt lat="43.5644040" lon="-6.4699940">
        <ele>-9.6</ele>
        <time>2021-07-22T07:22:21Z</time>
      </trkpt>
      <trkpt lat="43.5643740" lon="-6.4699690">
        <ele>-9.2</ele>
        <time>2021-07-22T07:22:22Z</time>
      </trkpt>
      <trkpt lat="43.5643430" lon="-6.4699420">
        <ele>-8.8</ele>
        <time>2021-07-22T07:22:23Z</time>
      </trkpt>
      <trkpt lat="43.5643110" lon="-6.4699170">
        <ele>-8.4</ele>
        <time>2021-07-22T07:22:24Z</time>
      </trkpt>
      <trkpt lat="43.5642800" lon="-6.4698930">
        <ele>-8.0</ele>
        <time>2021-07-22T07:22:25Z</time>
      </trkpt>
      <trkpt lat="43.5642170" lon="-6.4698560">
        <ele>-8.0</ele>
        <time>2021-07-22T07:22:27Z</time>
      </trkpt>
      <trkpt lat="43.5639840" lon="-6.4697880">
        <ele>-8.0</ele>
        <time>2021-07-22T07:22:34Z</time>
      </trkpt>
      <trkpt lat="43.5636250" lon="-6.4697330">
        <ele>-8.0</ele>
        <time>2021-07-22T07:22:45Z</time>
      </trkpt>
      <trkpt lat="43.5633670" lon="-6.4696100">
        <ele>-8.0</ele>
        <time>2021-07-22T07:22:53Z</time>
      </trkpt>
      <trkpt lat="43.5633090" lon="-6.4695570">
        <ele>-7.6</ele>
        <time>2021-07-22T07:22:55Z</time>
      </trkpt>
      <trkpt lat="43.5632800" lon="-6.4695250">
        <ele>-7.2</ele>
        <time>2021-07-22T07:22:56Z</time>
      </trkpt>
      <trkpt lat="43.5632510" lon="-6.4694930">
        <ele>-6.8</ele>
        <time>2021-07-22T07:22:57Z</time>
      </trkpt>
      <trkpt lat="43.5632260" lon="-6.4694570">
        <ele>-6.4</ele>
        <time>2021-07-22T07:22:58Z</time>
      </trkpt>
      <trkpt lat="43.5631970" lon="-6.4694200">
        <ele>-6.0</ele>
        <time>2021-07-22T07:22:59Z</time>
      </trkpt>
      <trkpt lat="43.5631480" lon="-6.4693490">
        <ele>-6.0</ele>
        <time>2021-07-22T07:23:01Z</time>
      </trkpt>
      <trkpt lat="43.5629620" lon="-6.4691090">
        <ele>-6.0</ele>
        <time>2021-07-22T07:23:08Z</time>
      </trkpt>
      <trkpt lat="43.5628070" lon="-6.4689620">
        <ele>-6.0</ele>
        <time>2021-07-22T07:23:13Z</time>
      </trkpt>
      <trkpt lat="43.5627400" lon="-6.4689140">
        <ele>-6.0</ele>
        <time>2021-07-22T07:23:15Z</time>
      </trkpt>
      <trkpt lat="43.5625190" lon="-6.4687540">
        <ele>-6.0</ele>
        <time>2021-07-22T07:23:21Z</time>
      </trkpt>
      <trkpt lat="43.5624430" lon="-6.4687000">
        <ele>-6.0</ele>
        <time>2021-07-22T07:23:23Z</time>
      </trkpt>
      <trkpt lat="43.5620590" lon="-6.4684200">
        <ele>-6.0</ele>
        <time>2021-07-22T07:23:34Z</time>
      </trkpt>
      <trkpt lat="43.5617870" lon="-6.4682140">
        <ele>-6.0</ele>
        <time>2021-07-22T07:23:42Z</time>
      </trkpt>
      <trkpt lat="43.5616780" lon="-6.4681410">
        <ele>-6.0</ele>
        <time>2021-07-22T07:23:45Z</time>
      </trkpt>
      <trkpt lat="43.5613890" lon="-6.4679460">
        <ele>-6.0</ele>
        <time>2021-07-22T07:23:53Z</time>
      </trkpt>
      <trkpt lat="43.5613490" lon="-6.4679250">
        <ele>-6.0</ele>
        <time>2021-07-22T07:23:54Z</time>
      </trkpt>
      <trkpt lat="43.5610690" lon="-6.4678520">
        <ele>-6.0</ele>
        <time>2021-07-22T07:24:01Z</time>
      </trkpt>
      <trkpt lat="43.5608380" lon="-6.4679050">
        <ele>-6.0</ele>
        <time>2021-07-22T07:24:07Z</time>
      </trkpt>
      <trkpt lat="43.5605320" lon="-6.4680050">
        <ele>-6.0</ele>
        <time>2021-07-22T07:24:15Z</time>
      </trkpt>
      <trkpt lat="43.5602500" lon="-6.4681300">
        <ele>-6.0</ele>
        <time>2021-07-22T07:24:23Z</time>
      </trkpt>
      <trkpt lat="43.5600570" lon="-6.4681870">
        <ele>-6.0</ele>
        <time>2021-07-22T07:24:28Z</time>
      </trkpt>
      <trkpt lat="43.5600130" lon="-6.4681810">
        <ele>-6.0</ele>
        <time>2021-07-22T07:24:29Z</time>
      </trkpt>
      <trkpt lat="43.5598580" lon="-6.4681100">
        <ele>-6.0</ele>
        <time>2021-07-22T07:24:33Z</time>
      </trkpt>
      <trkpt lat="43.5598240" lon="-6.4680880">
        <ele>-6.0</ele>
        <time>2021-07-22T07:24:34Z</time>
      </trkpt>
      <trkpt lat="43.5597190" lon="-6.4680140">
        <ele>-6.0</ele>
        <time>2021-07-22T07:24:37Z</time>
      </trkpt>
      <trkpt lat="43.5596510" lon="-6.4679710">
        <ele>-6.0</ele>
        <time>2021-07-22T07:24:39Z</time>
      </trkpt>
      <trkpt lat="43.5594990" lon="-6.4678740">
        <ele>-6.0</ele>
        <time>2021-07-22T07:24:43Z</time>
      </trkpt>
      <trkpt lat="43.5592280" lon="-6.4677220">
        <ele>-6.0</ele>
        <time>2021-07-22T07:24:50Z</time>
      </trkpt>
      <trkpt lat="43.5590140" lon="-6.4675990">
        <ele>-6.0</ele>
        <time>2021-07-22T07:24:55Z</time>
      </trkpt>
      <trkpt lat="43.5588830" lon="-6.4675190">
        <ele>-6.0</ele>
        <time>2021-07-22T07:24:58Z</time>
      </trkpt>
      <trkpt lat="43.5585550" lon="-6.4672610">
        <ele>-6.0</ele>
        <time>2021-07-22T07:25:06Z</time>
      </trkpt>
      <trkpt lat="43.5583640" lon="-6.4669620">
        <ele>-6.0</ele>
        <time>2021-07-22T07:25:12Z</time>
      </trkpt>
      <trkpt lat="43.5581640" lon="-6.4666370">
        <ele>-6.0</ele>
        <time>2021-07-22T07:25:19Z</time>
      </trkpt>
      <trkpt lat="43.5581430" lon="-6.4665890">
        <ele>-6.0</ele>
        <time>2021-07-22T07:25:20Z</time>
      </trkpt>
      <trkpt lat="43.5580910" lon="-6.4664310">
        <ele>-6.0</ele>
        <time>2021-07-22T07:25:23Z</time>
      </trkpt>
      <trkpt lat="43.5580790" lon="-6.4662610">
        <ele>-6.0</ele>
        <time>2021-07-22T07:25:26Z</time>
      </trkpt>
      <trkpt lat="43.5581190" lon="-6.4660960">
        <ele>-6.0</ele>
        <time>2021-07-22T07:25:29Z</time>
      </trkpt>
      <trkpt lat="43.5581500" lon="-6.4660000">
        <ele>-6.0</ele>
        <time>2021-07-22T07:25:31Z</time>
      </trkpt>
      <trkpt lat="43.5581660" lon="-6.4659520">
        <ele>-5.6</ele>
        <time>2021-07-22T07:25:32Z</time>
      </trkpt>
      <trkpt lat="43.5581810" lon="-6.4659030">
        <ele>-5.2</ele>
        <time>2021-07-22T07:25:33Z</time>
      </trkpt>
      <trkpt lat="43.5581970" lon="-6.4658550">
        <ele>-4.8</ele>
        <time>2021-07-22T07:25:34Z</time>
      </trkpt>
      <trkpt lat="43.5582140" lon="-6.4658060">
        <ele>-4.2</ele>
        <time>2021-07-22T07:25:35Z</time>
      </trkpt>
      <trkpt lat="43.5582300" lon="-6.4657590">
        <ele>-3.8</ele>
        <time>2021-07-22T07:25:36Z</time>
      </trkpt>
      <trkpt lat="43.5582880" lon="-6.4656170">
        <ele>-3.8</ele>
        <time>2021-07-22T07:25:39Z</time>
      </trkpt>
      <trkpt lat="43.5584730" lon="-6.4651780">
        <ele>-3.8</ele>
        <time>2021-07-22T07:25:48Z</time>
      </trkpt>
      <trkpt lat="43.5584930" lon="-6.4649280">
        <ele>-3.8</ele>
        <time>2021-07-22T07:25:53Z</time>
      </trkpt>
      <trkpt lat="43.5584080" lon="-6.4647530">
        <ele>-3.8</ele>
        <time>2021-07-22T07:25:57Z</time>
      </trkpt>
      <trkpt lat="43.5582110" lon="-6.4645770">
        <ele>-3.8</ele>
        <time>2021-07-22T07:26:03Z</time>
      </trkpt>
      <trkpt lat="43.5579010" lon="-6.4642990">
        <ele>-3.8</ele>
        <time>2021-07-22T07:26:12Z</time>
      </trkpt>
      <trkpt lat="43.5577910" lon="-6.4641540">
        <ele>-3.8</ele>
        <time>2021-07-22T07:26:16Z</time>
      </trkpt>
      <trkpt lat="43.5576460" lon="-6.4640690">
        <ele>-3.4</ele>
        <time>2021-07-22T07:26:20Z</time>
      </trkpt>
      <trkpt lat="43.5576110" lon="-6.4640530">
        <ele>-3.0</ele>
        <time>2021-07-22T07:26:21Z</time>
      </trkpt>
      <trkpt lat="43.5575740" lon="-6.4640410">
        <ele>-2.6</ele>
        <time>2021-07-22T07:26:22Z</time>
      </trkpt>
      <trkpt lat="43.5575400" lon="-6.4640260">
        <ele>-2.2</ele>
        <time>2021-07-22T07:26:23Z</time>
      </trkpt>
      <trkpt lat="43.5575060" lon="-6.4640110">
        <ele>-1.8</ele>
        <time>2021-07-22T07:26:24Z</time>
      </trkpt>
      <trkpt lat="43.5573760" lon="-6.4639480">
        <ele>-1.8</ele>
        <time>2021-07-22T07:26:28Z</time>
      </trkpt>
      <trkpt lat="43.5571370" lon="-6.4638160">
        <ele>-1.8</ele>
        <time>2021-07-22T07:26:36Z</time>
      </trkpt>
      <trkpt lat="43.5569120" lon="-6.4636540">
        <ele>-1.2</ele>
        <time>2021-07-22T07:26:44Z</time>
      </trkpt>
      <trkpt lat="43.5568830" lon="-6.4636330">
        <ele>-0.8</ele>
        <time>2021-07-22T07:26:45Z</time>
      </trkpt>
      <trkpt lat="43.5568530" lon="-6.4636170">
        <ele>-0.4</ele>
        <time>2021-07-22T07:26:46Z</time>
      </trkpt>
      <trkpt lat="43.5568210" lon="-6.4636020">
        <ele>0.0</ele>
        <time>2021-07-22T07:26:47Z</time>
      </trkpt>
      <trkpt lat="43.5567900" lon="-6.4635890">
        <ele>0.4</ele>
        <time>2021-07-22T07:26:48Z</time>
      </trkpt>
      <trkpt lat="43.5566500" lon="-6.4635440">
        <ele>0.4</ele>
        <time>2021-07-22T07:26:52Z</time>
      </trkpt>
      <trkpt lat="43.5565510" lon="-6.4634850">
        <ele>0.4</ele>
        <time>2021-07-22T07:26:55Z</time>
      </trkpt>
      <trkpt lat="43.5564560" lon="-6.4634410">
        <ele>0.4</ele>
        <time>2021-07-22T07:26:58Z</time>
      </trkpt>
      <trkpt lat="43.5563620" lon="-6.4634100">
        <ele>0.4</ele>
        <time>2021-07-22T07:27:01Z</time>
      </trkpt>
      <trkpt lat="43.5563000" lon="-6.4633830">
        <ele>0.4</ele>
        <time>2021-07-22T07:27:03Z</time>
      </trkpt>
      <trkpt lat="43.5562330" lon="-6.4633590">
        <ele>0.4</ele>
        <time>2021-07-22T07:27:05Z</time>
      </trkpt>
      <trkpt lat="43.5561860" lon="-6.4633550">
        <ele>0.4</ele>
        <time>2021-07-22T07:27:06Z</time>
      </trkpt>
      <trkpt lat="43.5561010" lon="-6.4633460">
        <ele>0.4</ele>
        <time>2021-07-22T07:27:08Z</time>
      </trkpt>
      <trkpt lat="43.5560240" lon="-6.4633590">
        <ele>0.4</ele>
        <time>2021-07-22T07:27:10Z</time>
      </trkpt>
      <trkpt lat="43.5559940" lon="-6.4633690">
        <ele>0.4</ele>
        <time>2021-07-22T07:27:11Z</time>
      </trkpt>
      <trkpt lat="43.5559760" lon="-6.4633780">
        <ele>0.4</ele>
        <time>2021-07-22T07:27:12Z</time>
      </trkpt>
      <trkpt lat="43.5559430" lon="-6.4633870">
        <ele>0.4</ele>
        <time>2021-07-22T07:27:14Z</time>
      </trkpt>
      <trkpt lat="43.5559190" lon="-6.4633900">
        <ele>0.4</ele>
        <time>2021-07-22T07:27:15Z</time>
      </trkpt>
      <trkpt lat="43.5558560" lon="-6.4633760">
        <ele>0.4</ele>
        <time>2021-07-22T07:27:17Z</time>
      </trkpt>
      <trkpt lat="43.5557840" lon="-6.4633540">
        <ele>0.4</ele>
        <time>2021-07-22T07:27:19Z</time>
      </trkpt>
      <trkpt lat="43.5557420" lon="-6.4633390">
        <ele>0.0</ele>
        <time>2021-07-22T07:27:20Z</time>
      </trkpt>
      <trkpt lat="43.5556990" lon="-6.4633210">
        <ele>-0.4</ele>
        <time>2021-07-22T07:27:21Z</time>
      </trkpt>
      <trkpt lat="43.5556560" lon="-6.4632920">
        <ele>-0.8</ele>
        <time>2021-07-22T07:27:22Z</time>
      </trkpt>
      <trkpt lat="43.5556150" lon="-6.4632670">
        <ele>-1.2</ele>
        <time>2021-07-22T07:27:23Z</time>
      </trkpt>
      <trkpt lat="43.5555720" lon="-6.4632470">
        <ele>-1.6</ele>
        <time>2021-07-22T07:27:24Z</time>
      </trkpt>
      <trkpt lat="43.5555310" lon="-6.4632260">
        <ele>-1.6</ele>
        <time>2021-07-22T07:27:25Z</time>
      </trkpt>
      <trkpt lat="43.5552480" lon="-6.4631050">
        <ele>-1.6</ele>
        <time>2021-07-22T07:27:31Z</time>
      </trkpt>
      <trkpt lat="43.5552040" lon="-6.4630770">
        <ele>-1.6</ele>
        <time>2021-07-22T07:27:32Z</time>
      </trkpt>
      <trkpt lat="43.5550970" lon="-6.4629560">
        <ele>-1.6</ele>
        <time>2021-07-22T07:27:35Z</time>
      </trkpt>
      <trkpt lat="43.5550720" lon="-6.4629040">
        <ele>-2.0</ele>
        <time>2021-07-22T07:27:36Z</time>
      </trkpt>
      <trkpt lat="43.5550480" lon="-6.4628470">
        <ele>-2.4</ele>
        <time>2021-07-22T07:27:37Z</time>
      </trkpt>
      <trkpt lat="43.5550270" lon="-6.4627930">
        <ele>-2.8</ele>
        <time>2021-07-22T07:27:38Z</time>
      </trkpt>
      <trkpt lat="43.5550090" lon="-6.4627370">
        <ele>-3.2</ele>
        <time>2021-07-22T07:27:39Z</time>
      </trkpt>
      <trkpt lat="43.5549900" lon="-6.4626820">
        <ele>-3.8</ele>
        <time>2021-07-22T07:27:40Z</time>
      </trkpt>
      <trkpt lat="43.5549730" lon="-6.4626280">
        <ele>-3.8</ele>
        <time>2021-07-22T07:27:41Z</time>
      </trkpt>
      <trkpt lat="43.5548800" lon="-6.4623170">
        <ele>-3.8</ele>
        <time>2021-07-22T07:27:46Z</time>
      </trkpt>
      <trkpt lat="43.5548390" lon="-6.4621970">
        <ele>-3.8</ele>
        <time>2021-07-22T07:27:48Z</time>
      </trkpt>
      <trkpt lat="43.5547380" lon="-6.4619640">
        <ele>-3.8</ele>
        <time>2021-07-22T07:27:52Z</time>
      </trkpt>
      <trkpt lat="43.5546880" lon="-6.4618520">
        <ele>-3.8</ele>
        <time>2021-07-22T07:27:54Z</time>
      </trkpt>
      <trkpt lat="43.5546360" lon="-6.4617440">
        <ele>-3.8</ele>
        <time>2021-07-22T07:27:56Z</time>
      </trkpt>
      <trkpt lat="43.5545500" lon="-6.4615920">
        <ele>-3.8</ele>
        <time>2021-07-22T07:27:59Z</time>
      </trkpt>
      <trkpt lat="43.5544000" lon="-6.4613480">
        <ele>-3.8</ele>
        <time>2021-07-22T07:28:04Z</time>
      </trkpt>
      <trkpt lat="43.5543690" lon="-6.4613000">
        <ele>-3.8</ele>
        <time>2021-07-22T07:28:05Z</time>
      </trkpt>
      <trkpt lat="43.5540900" lon="-6.4608860">
        <ele>-3.8</ele>
        <time>2021-07-22T07:28:14Z</time>
      </trkpt>
      <trkpt lat="43.5538500" lon="-6.4605860">
        <ele>-3.8</ele>
        <time>2021-07-22T07:28:21Z</time>
      </trkpt>
      <trkpt lat="43.5535940" lon="-6.4603570">
        <ele>-3.4</ele>
        <time>2021-07-22T07:28:28Z</time>
      </trkpt>
      <trkpt lat="43.5535590" lon="-6.4603270">
        <ele>-3.0</ele>
        <time>2021-07-22T07:28:29Z</time>
      </trkpt>
      <trkpt lat="43.5535230" lon="-6.4602960">
        <ele>-2.6</ele>
        <time>2021-07-22T07:28:30Z</time>
      </trkpt>
      <trkpt lat="43.5534920" lon="-6.4602630">
        <ele>-2.2</ele>
        <time>2021-07-22T07:28:31Z</time>
      </trkpt>
      <trkpt lat="43.5534610" lon="-6.4602280">
        <ele>-1.8</ele>
        <time>2021-07-22T07:28:32Z</time>
      </trkpt>
      <trkpt lat="43.5533490" lon="-6.4600720">
        <ele>-1.8</ele>
        <time>2021-07-22T07:28:36Z</time>
      </trkpt>
      <trkpt lat="43.5531510" lon="-6.4597880">
        <ele>-1.8</ele>
        <time>2021-07-22T07:28:44Z</time>
      </trkpt>
      <trkpt lat="43.5530830" lon="-6.4596980">
        <ele>-1.8</ele>
        <time>2021-07-22T07:28:48Z</time>
      </trkpt>
      <trkpt lat="43.5530610" lon="-6.4596650">
        <ele>-1.8</ele>
        <time>2021-07-22T07:28:50Z</time>
      </trkpt>
      <trkpt lat="43.5530510" lon="-6.4596550">
        <ele>-1.8</ele>
        <time>2021-07-22T07:28:52Z</time>
      </trkpt>
      <trkpt lat="43.5530470" lon="-6.4596300">
        <ele>-1.8</ele>
        <time>2021-07-22T07:29:28Z</time>
      </trkpt>
      <trkpt lat="43.5530620" lon="-6.4596220">
        <ele>-1.8</ele>
        <time>2021-07-22T07:29:29Z</time>
      </trkpt>
      <trkpt lat="43.5531070" lon="-6.4596220">
        <ele>-1.8</ele>
        <time>2021-07-22T07:29:32Z</time>
      </trkpt>
      <trkpt lat="43.5531210" lon="-6.4596400">
        <ele>-1.8</ele>
        <time>2021-07-22T07:29:34Z</time>
      </trkpt>
      <trkpt lat="43.5531240" lon="-6.4596430">
        <ele>-1.8</ele>
        <time>2021-07-22T07:29:35Z</time>
      </trkpt>
      <trkpt lat="43.5531140" lon="-6.4596680">
        <ele>-1.8</ele>
        <time>2021-07-22T07:31:28Z</time>
      </trkpt>
      <trkpt lat="43.5530840" lon="-6.4596770">
        <ele>-1.8</ele>
        <time>2021-07-22T07:31:30Z</time>
      </trkpt>
      <trkpt lat="43.5529710" lon="-6.4596400">
        <ele>-1.8</ele>
        <time>2021-07-22T07:31:35Z</time>
      </trkpt>
      <trkpt lat="43.5528050" lon="-6.4595440">
        <ele>-1.8</ele>
        <time>2021-07-22T07:31:40Z</time>
      </trkpt>
      <trkpt lat="43.5526110" lon="-6.4594320">
        <ele>-1.8</ele>
        <time>2021-07-22T07:31:46Z</time>
      </trkpt>
      <trkpt lat="43.5525370" lon="-6.4594020">
        <ele>-1.8</ele>
        <time>2021-07-22T07:31:48Z</time>
      </trkpt>
      <trkpt lat="43.5524970" lon="-6.4593820">
        <ele>-1.8</ele>
        <time>2021-07-22T07:31:49Z</time>
      </trkpt>
      <trkpt lat="43.5524150" lon="-6.4593420">
        <ele>-1.8</ele>
        <time>2021-07-22T07:31:51Z</time>
      </trkpt>
      <trkpt lat="43.5523290" lon="-6.4593090">
        <ele>-1.8</ele>
        <time>2021-07-22T07:31:53Z</time>
      </trkpt>
      <trkpt lat="43.5522840" lon="-6.4592960">
        <ele>-1.8</ele>
        <time>2021-07-22T07:31:54Z</time>
      </trkpt>
      <trkpt lat="43.5520260" lon="-6.4592400">
        <ele>-1.8</ele>
        <time>2021-07-22T07:32:00Z</time>
      </trkpt>
      <trkpt lat="43.5519420" lon="-6.4592170">
        <ele>-1.8</ele>
        <time>2021-07-22T07:32:02Z</time>
      </trkpt>
      <trkpt lat="43.5518150" lon="-6.4591400">
        <ele>-1.8</ele>
        <time>2021-07-22T07:32:05Z</time>
      </trkpt>
      <trkpt lat="43.5515440" lon="-6.4589100">
        <ele>-1.8</ele>
        <time>2021-07-22T07:32:12Z</time>
      </trkpt>
      <trkpt lat="43.5512900" lon="-6.4586420">
        <ele>-1.8</ele>
        <time>2021-07-22T07:32:19Z</time>
      </trkpt>
      <trkpt lat="43.5510190" lon="-6.4583180">
        <ele>-1.8</ele>
        <time>2021-07-22T07:32:27Z</time>
      </trkpt>
      <trkpt lat="43.5507570" lon="-6.4580130">
        <ele>-1.8</ele>
        <time>2021-07-22T07:32:35Z</time>
      </trkpt>
      <trkpt lat="43.5506350" lon="-6.4578560">
        <ele>-1.8</ele>
        <time>2021-07-22T07:32:39Z</time>
      </trkpt>
      <trkpt lat="43.5505510" lon="-6.4577500">
        <ele>-1.8</ele>
        <time>2021-07-22T07:32:42Z</time>
      </trkpt>
      <trkpt lat="43.5503690" lon="-6.4574940">
        <ele>-1.2</ele>
        <time>2021-07-22T07:32:49Z</time>
      </trkpt>
      <trkpt lat="43.5503430" lon="-6.4574550">
        <ele>-0.4</ele>
        <time>2021-07-22T07:32:50Z</time>
      </trkpt>
      <trkpt lat="43.5503180" lon="-6.4574180">
        <ele>0.0</ele>
        <time>2021-07-22T07:32:51Z</time>
      </trkpt>
      <trkpt lat="43.5502920" lon="-6.4573820">
        <ele>0.4</ele>
        <time>2021-07-22T07:32:52Z</time>
      </trkpt>
      <trkpt lat="43.5501570" lon="-6.4572210">
        <ele>0.4</ele>
        <time>2021-07-22T07:32:57Z</time>
      </trkpt>
      <trkpt lat="43.5499810" lon="-6.4569920">
        <ele>0.4</ele>
        <time>2021-07-22T07:33:04Z</time>
      </trkpt>
      <trkpt lat="43.5499560" lon="-6.4569560">
        <ele>0.4</ele>
        <time>2021-07-22T07:33:05Z</time>
      </trkpt>
      <trkpt lat="43.5497600" lon="-6.4566960">
        <ele>0.4</ele>
        <time>2021-07-22T07:33:13Z</time>
      </trkpt>
      <trkpt lat="43.5497100" lon="-6.4566340">
        <ele>1.4</ele>
        <time>2021-07-22T07:33:15Z</time>
      </trkpt>
      <trkpt lat="43.5496850" lon="-6.4566030">
        <ele>1.8</ele>
        <time>2021-07-22T07:33:16Z</time>
      </trkpt>
      <trkpt lat="43.5496610" lon="-6.4565700">
        <ele>2.2</ele>
        <time>2021-07-22T07:33:17Z</time>
      </trkpt>
      <trkpt lat="43.5496370" lon="-6.4565360">
        <ele>2.6</ele>
        <time>2021-07-22T07:33:18Z</time>
      </trkpt>
      <trkpt lat="43.5495170" lon="-6.4563790">
        <ele>2.6</ele>
        <time>2021-07-22T07:33:23Z</time>
      </trkpt>
      <trkpt lat="43.5493260" lon="-6.4561450">
        <ele>3.0</ele>
        <time>2021-07-22T07:33:31Z</time>
      </trkpt>
      <trkpt lat="43.5493030" lon="-6.4561160">
        <ele>3.4</ele>
        <time>2021-07-22T07:33:32Z</time>
      </trkpt>
      <trkpt lat="43.5492810" lon="-6.4560870">
        <ele>3.8</ele>
        <time>2021-07-22T07:33:33Z</time>
      </trkpt>
      <trkpt lat="43.5492600" lon="-6.4560600">
        <ele>4.2</ele>
        <time>2021-07-22T07:33:34Z</time>
      </trkpt>
      <trkpt lat="43.5492350" lon="-6.4560300">
        <ele>4.6</ele>
        <time>2021-07-22T07:33:35Z</time>
      </trkpt>
      <trkpt lat="43.5491460" lon="-6.4559040">
        <ele>4.6</ele>
        <time>2021-07-22T07:33:39Z</time>
      </trkpt>
      <trkpt lat="43.5490140" lon="-6.4557350">
        <ele>4.6</ele>
        <time>2021-07-22T07:33:45Z</time>
      </trkpt>
      <trkpt lat="43.5488730" lon="-6.4555630">
        <ele>5.0</ele>
        <time>2021-07-22T07:33:51Z</time>
      </trkpt>
      <trkpt lat="43.5488490" lon="-6.4555430">
        <ele>5.6</ele>
        <time>2021-07-22T07:33:52Z</time>
      </trkpt>
      <trkpt lat="43.5488170" lon="-6.4555210">
        <ele>6.0</ele>
        <time>2021-07-22T07:33:53Z</time>
      </trkpt>
      <trkpt lat="43.5487860" lon="-6.4554990">
        <ele>6.4</ele>
        <time>2021-07-22T07:33:54Z</time>
      </trkpt>
      <trkpt lat="43.5487570" lon="-6.4554730">
        <ele>6.8</ele>
        <time>2021-07-22T07:33:55Z</time>
      </trkpt>
      <trkpt lat="43.5485850" lon="-6.4552930">
        <ele>6.8</ele>
        <time>2021-07-22T07:34:01Z</time>
      </trkpt>
      <trkpt lat="43.5484100" lon="-6.4550800">
        <ele>6.8</ele>
        <time>2021-07-22T07:34:08Z</time>
      </trkpt>
      <trkpt lat="43.5482150" lon="-6.4548900">
        <ele>7.2</ele>
        <time>2021-07-22T07:34:15Z</time>
      </trkpt>
      <trkpt lat="43.5481900" lon="-6.4548620">
        <ele>7.6</ele>
        <time>2021-07-22T07:34:16Z</time>
      </trkpt>
      <trkpt lat="43.5481650" lon="-6.4548330">
        <ele>8.0</ele>
        <time>2021-07-22T07:34:17Z</time>
      </trkpt>
      <trkpt lat="43.5481440" lon="-6.4548020">
        <ele>8.4</ele>
        <time>2021-07-22T07:34:18Z</time>
      </trkpt>
      <trkpt lat="43.5481190" lon="-6.4547710">
        <ele>8.8</ele>
        <time>2021-07-22T07:34:19Z</time>
      </trkpt>
      <trkpt lat="43.5480630" lon="-6.4547100">
        <ele>8.8</ele>
        <time>2021-07-22T07:34:21Z</time>
      </trkpt>
      <trkpt lat="43.5478670" lon="-6.4544990">
        <ele>8.8</ele>
        <time>2021-07-22T07:34:28Z</time>
      </trkpt>
      <trkpt lat="43.5476610" lon="-6.4542940">
        <ele>8.8</ele>
        <time>2021-07-22T07:34:35Z</time>
      </trkpt>
      <trkpt lat="43.5475400" lon="-6.4541970">
        <ele>9.2</ele>
        <time>2021-07-22T07:34:39Z</time>
      </trkpt>
      <trkpt lat="43.5475110" lon="-6.4541780">
        <ele>9.6</ele>
        <time>2021-07-22T07:34:40Z</time>
      </trkpt>
      <trkpt lat="43.5474800" lon="-6.4541600">
        <ele>10.0</ele>
        <time>2021-07-22T07:34:41Z</time>
      </trkpt>
      <trkpt lat="43.5474510" lon="-6.4541400">
        <ele>10.4</ele>
        <time>2021-07-22T07:34:42Z</time>
      </trkpt>
      <trkpt lat="43.5474200" lon="-6.4541210">
        <ele>10.8</ele>
        <time>2021-07-22T07:34:43Z</time>
      </trkpt>
      <trkpt lat="43.5473890" lon="-6.4541050">
        <ele>10.8</ele>
        <time>2021-07-22T07:34:44Z</time>
      </trkpt>
      <trkpt lat="43.5471720" lon="-6.4539640">
        <ele>10.8</ele>
        <time>2021-07-22T07:34:51Z</time>
      </trkpt>
      <trkpt lat="43.5471410" lon="-6.4539450">
        <ele>10.8</ele>
        <time>2021-07-22T07:34:52Z</time>
      </trkpt>
      <trkpt lat="43.5468720" lon="-6.4537730">
        <ele>10.8</ele>
        <time>2021-07-22T07:35:01Z</time>
      </trkpt>
      <trkpt lat="43.5466690" lon="-6.4536310">
        <ele>10.8</ele>
        <time>2021-07-22T07:35:08Z</time>
      </trkpt>
      <trkpt lat="43.5466420" lon="-6.4536070">
        <ele>10.8</ele>
        <time>2021-07-22T07:35:09Z</time>
      </trkpt>
      <trkpt lat="43.5465860" lon="-6.4535710">
        <ele>10.8</ele>
        <time>2021-07-22T07:35:11Z</time>
      </trkpt>
      <trkpt lat="43.5465300" lon="-6.4535380">
        <ele>10.8</ele>
        <time>2021-07-22T07:35:13Z</time>
      </trkpt>
      <trkpt lat="43.5464970" lon="-6.4535190">
        <ele>10.8</ele>
        <time>2021-07-22T07:35:14Z</time>
      </trkpt>
      <trkpt lat="43.5464600" lon="-6.4534990">
        <ele>10.8</ele>
        <time>2021-07-22T07:35:15Z</time>
      </trkpt>
      <trkpt lat="43.5464160" lon="-6.4534710">
        <ele>10.2</ele>
        <time>2021-07-22T07:35:16Z</time>
      </trkpt>
      <trkpt lat="43.5463680" lon="-6.4534390">
        <ele>9.8</ele>
        <time>2021-07-22T07:35:17Z</time>
      </trkpt>
      <trkpt lat="43.5463220" lon="-6.4534070">
        <ele>8.8</ele>
        <time>2021-07-22T07:35:18Z</time>
      </trkpt>
      <trkpt lat="43.5462730" lon="-6.4533760">
        <ele>8.4</ele>
        <time>2021-07-22T07:35:19Z</time>
      </trkpt>
      <trkpt lat="43.5461400" lon="-6.4532950">
        <ele>8.4</ele>
        <time>2021-07-22T07:35:22Z</time>
      </trkpt>
      <trkpt lat="43.5460130" lon="-6.4531990">
        <ele>8.4</ele>
        <time>2021-07-22T07:35:25Z</time>
      </trkpt>
      <trkpt lat="43.5459750" lon="-6.4531720">
        <ele>8.4</ele>
        <time>2021-07-22T07:35:26Z</time>
      </trkpt>
      <trkpt lat="43.5458940" lon="-6.4531270">
        <ele>8.4</ele>
        <time>2021-07-22T07:35:28Z</time>
      </trkpt>
      <trkpt lat="43.5458280" lon="-6.4530780">
        <ele>8.4</ele>
        <time>2021-07-22T07:35:30Z</time>
      </trkpt>
      <trkpt lat="43.5458010" lon="-6.4530600">
        <ele>8.4</ele>
        <time>2021-07-22T07:35:31Z</time>
      </trkpt>
      <trkpt lat="43.5457430" lon="-6.4530290">
        <ele>8.4</ele>
        <time>2021-07-22T07:35:34Z</time>
      </trkpt>
      <trkpt lat="43.5457260" lon="-6.4530210">
        <ele>8.4</ele>
        <time>2021-07-22T07:35:35Z</time>
      </trkpt>
      <trkpt lat="43.5457030" lon="-6.4530830">
        <ele>8.4</ele>
        <time>2021-07-22T07:35:39Z</time>
      </trkpt>
      <trkpt lat="43.5457040" lon="-6.4531190">
        <ele>8.4</ele>
        <time>2021-07-22T07:35:40Z</time>
      </trkpt>
      <trkpt lat="43.5456780" lon="-6.4532640">
        <ele>8.4</ele>
        <time>2021-07-22T07:35:43Z</time>
      </trkpt>
      <trkpt lat="43.5456330" lon="-6.4533580">
        <ele>8.4</ele>
        <time>2021-07-22T07:35:45Z</time>
      </trkpt>
      <trkpt lat="43.5455330" lon="-6.4534700">
        <ele>8.4</ele>
        <time>2021-07-22T07:35:48Z</time>
      </trkpt>
      <trkpt lat="43.5455000" lon="-6.4535010">
        <ele>8.4</ele>
        <time>2021-07-22T07:35:49Z</time>
      </trkpt>
      <trkpt lat="43.5453770" lon="-6.4535680">
        <ele>8.4</ele>
        <time>2021-07-22T07:35:53Z</time>
      </trkpt>
      <trkpt lat="43.5453460" lon="-6.4535690">
        <ele>8.4</ele>
        <time>2021-07-22T07:35:54Z</time>
      </trkpt>
      <trkpt lat="43.5452800" lon="-6.4535620">
        <ele>8.4</ele>
        <time>2021-07-22T07:35:56Z</time>
      </trkpt>
      <trkpt lat="43.5452150" lon="-6.4535400">
        <ele>8.4</ele>
        <time>2021-07-22T07:35:58Z</time>
      </trkpt>
      <trkpt lat="43.5451550" lon="-6.4535260">
        <ele>8.4</ele>
        <time>2021-07-22T07:36:00Z</time>
      </trkpt>
      <trkpt lat="43.5451260" lon="-6.4535180">
        <ele>8.4</ele>
        <time>2021-07-22T07:36:01Z</time>
      </trkpt>
      <trkpt lat="43.5450440" lon="-6.4535050">
        <ele>8.4</ele>
        <time>2021-07-22T07:36:04Z</time>
      </trkpt>
      <trkpt lat="43.5449940" lon="-6.4535220">
        <ele>8.8</ele>
        <time>2021-07-22T07:36:06Z</time>
      </trkpt>
      <trkpt lat="43.5449690" lon="-6.4535360">
        <ele>9.2</ele>
        <time>2021-07-22T07:36:07Z</time>
      </trkpt>
      <trkpt lat="43.5449460" lon="-6.4535520">
        <ele>10.2</ele>
        <time>2021-07-22T07:36:08Z</time>
      </trkpt>
      <trkpt lat="43.5449200" lon="-6.4535660">
        <ele>10.6</ele>
        <time>2021-07-22T07:36:09Z</time>
      </trkpt>
      <trkpt lat="43.5448200" lon="-6.4536290">
        <ele>10.6</ele>
        <time>2021-07-22T07:36:13Z</time>
      </trkpt>
      <trkpt lat="43.5447200" lon="-6.4536670">
        <ele>11.0</ele>
        <time>2021-07-22T07:36:17Z</time>
      </trkpt>
      <trkpt lat="43.5446940" lon="-6.4536730">
        <ele>11.4</ele>
        <time>2021-07-22T07:36:18Z</time>
      </trkpt>
      <trkpt lat="43.5446700" lon="-6.4536810">
        <ele>11.8</ele>
        <time>2021-07-22T07:36:19Z</time>
      </trkpt>
      <trkpt lat="43.5446470" lon="-6.4536890">
        <ele>12.2</ele>
        <time>2021-07-22T07:36:20Z</time>
      </trkpt>
      <trkpt lat="43.5446250" lon="-6.4537010">
        <ele>12.6</ele>
        <time>2021-07-22T07:36:21Z</time>
      </trkpt>
      <trkpt lat="43.5444790" lon="-6.4536970">
        <ele>12.6</ele>
        <time>2021-07-22T07:36:27Z</time>
      </trkpt>
      <trkpt lat="43.5444380" lon="-6.4536850">
        <ele>12.6</ele>
        <time>2021-07-22T07:36:29Z</time>
      </trkpt>
      <trkpt lat="43.5443900" lon="-6.4536690">
        <ele>12.6</ele>
        <time>2021-07-22T07:36:31Z</time>
      </trkpt>
      <trkpt lat="43.5443410" lon="-6.4536560">
        <ele>12.6</ele>
        <time>2021-07-22T07:36:33Z</time>
      </trkpt>
      <trkpt lat="43.5443110" lon="-6.4536460">
        <ele>12.2</ele>
        <time>2021-07-22T07:36:34Z</time>
      </trkpt>
      <trkpt lat="43.5442850" lon="-6.4536320">
        <ele>11.8</ele>
        <time>2021-07-22T07:36:35Z</time>
      </trkpt>
      <trkpt lat="43.5442540" lon="-6.4536170">
        <ele>11.4</ele>
        <time>2021-07-22T07:36:36Z</time>
      </trkpt>
      <trkpt lat="43.5442190" lon="-6.4536060">
        <ele>11.0</ele>
        <time>2021-07-22T07:36:37Z</time>
      </trkpt>
      <trkpt lat="43.5441860" lon="-6.4535890">
        <ele>10.6</ele>
        <time>2021-07-22T07:36:38Z</time>
      </trkpt>
      <trkpt lat="43.5441520" lon="-6.4535750">
        <ele>10.2</ele>
        <time>2021-07-22T07:36:39Z</time>
      </trkpt>
      <trkpt lat="43.5441120" lon="-6.4535590">
        <ele>9.6</ele>
        <time>2021-07-22T07:36:40Z</time>
      </trkpt>
      <trkpt lat="43.5440690" lon="-6.4535410">
        <ele>9.2</ele>
        <time>2021-07-22T07:36:41Z</time>
      </trkpt>
      <trkpt lat="43.5440230" lon="-6.4535180">
        <ele>8.8</ele>
        <time>2021-07-22T07:36:42Z</time>
      </trkpt>
      <trkpt lat="43.5439790" lon="-6.4534920">
        <ele>8.4</ele>
        <time>2021-07-22T07:36:43Z</time>
      </trkpt>
      <trkpt lat="43.5439360" lon="-6.4534590">
        <ele>7.8</ele>
        <time>2021-07-22T07:36:44Z</time>
      </trkpt>
      <trkpt lat="43.5438920" lon="-6.4534140">
        <ele>7.4</ele>
        <time>2021-07-22T07:36:45Z</time>
      </trkpt>
      <trkpt lat="43.5438490" lon="-6.4533630">
        <ele>6.8</ele>
        <time>2021-07-22T07:36:46Z</time>
      </trkpt>
      <trkpt lat="43.5438060" lon="-6.4533090">
        <ele>6.4</ele>
        <time>2021-07-22T07:36:47Z</time>
      </trkpt>
      <trkpt lat="43.5437650" lon="-6.4532530">
        <ele>5.8</ele>
        <time>2021-07-22T07:36:48Z</time>
      </trkpt>
      <trkpt lat="43.5437250" lon="-6.4532000">
        <ele>5.4</ele>
        <time>2021-07-22T07:36:49Z</time>
      </trkpt>
      <trkpt lat="43.5436840" lon="-6.4531500">
        <ele>5.0</ele>
        <time>2021-07-22T07:36:50Z</time>
      </trkpt>
      <trkpt lat="43.5436440" lon="-6.4531050">
        <ele>4.4</ele>
        <time>2021-07-22T07:36:51Z</time>
      </trkpt>
      <trkpt lat="43.5436060" lon="-6.4530590">
        <ele>4.0</ele>
        <time>2021-07-22T07:36:52Z</time>
      </trkpt>
      <trkpt lat="43.5435670" lon="-6.4530160">
        <ele>3.6</ele>
        <time>2021-07-22T07:36:53Z</time>
      </trkpt>
      <trkpt lat="43.5434560" lon="-6.4529150">
        <ele>3.2</ele>
        <time>2021-07-22T07:36:56Z</time>
      </trkpt>
      <trkpt lat="43.5434210" lon="-6.4528830">
        <ele>2.2</ele>
        <time>2021-07-22T07:36:57Z</time>
      </trkpt>
      <trkpt lat="43.5433960" lon="-6.4528500">
        <ele>1.8</ele>
        <time>2021-07-22T07:36:58Z</time>
      </trkpt>
      <trkpt lat="43.5433710" lon="-6.4528140">
        <ele>1.4</ele>
        <time>2021-07-22T07:36:59Z</time>
      </trkpt>
      <trkpt lat="43.5433310" lon="-6.4527510">
        <ele>1.4</ele>
        <time>2021-07-22T07:37:01Z</time>
      </trkpt>
      <trkpt lat="43.5432630" lon="-6.4526250">
        <ele>1.4</ele>
        <time>2021-07-22T07:37:05Z</time>
      </trkpt>
      <trkpt lat="43.5432360" lon="-6.4525600">
        <ele>1.0</ele>
        <time>2021-07-22T07:37:07Z</time>
      </trkpt>
      <trkpt lat="43.5432230" lon="-6.4525300">
        <ele>0.6</ele>
        <time>2021-07-22T07:37:08Z</time>
      </trkpt>
      <trkpt lat="43.5432090" lon="-6.4525050">
        <ele>0.2</ele>
        <time>2021-07-22T07:37:09Z</time>
      </trkpt>
      <trkpt lat="43.5431980" lon="-6.4524890">
        <ele>-0.2</ele>
        <time>2021-07-22T07:37:10Z</time>
      </trkpt>
      <trkpt lat="43.5431900" lon="-6.4524820">
        <ele>-0.8</ele>
        <time>2021-07-22T07:37:11Z</time>
      </trkpt>
      <trkpt lat="43.5431860" lon="-6.4524800">
        <ele>-0.8</ele>
        <time>2021-07-22T07:37:12Z</time>
      </trkpt>
      <trkpt lat="43.5431790" lon="-6.4524760">
        <ele>-0.8</ele>
        <time>2021-07-22T07:37:14Z</time>
      </trkpt>
      <trkpt lat="43.5431890" lon="-6.4524560">
        <ele>-0.8</ele>
        <time>2021-07-22T07:37:58Z</time>
      </trkpt>
      <trkpt lat="43.5432140" lon="-6.4524230">
        <ele>-0.8</ele>
        <time>2021-07-22T07:38:00Z</time>
      </trkpt>
      <trkpt lat="43.5432840" lon="-6.4524180">
        <ele>-0.8</ele>
        <time>2021-07-22T07:38:05Z</time>
      </trkpt>
      <trkpt lat="43.5433090" lon="-6.4524230">
        <ele>-0.8</ele>
        <time>2021-07-22T07:38:06Z</time>
      </trkpt>
      <trkpt lat="43.5434360" lon="-6.4524630">
        <ele>-0.8</ele>
        <time>2021-07-22T07:38:12Z</time>
      </trkpt>
      <trkpt lat="43.5434650" lon="-6.4524720">
        <ele>-0.8</ele>
        <time>2021-07-22T07:38:13Z</time>
      </trkpt>
      <trkpt lat="43.5436820" lon="-6.4525260">
        <ele>-0.8</ele>
        <time>2021-07-22T07:38:20Z</time>
      </trkpt>
      <trkpt lat="43.5438480" lon="-6.4525780">
        <ele>-0.8</ele>
        <time>2021-07-22T07:38:25Z</time>
      </trkpt>
      <trkpt lat="43.5441030" lon="-6.4526360">
        <ele>-0.8</ele>
        <time>2021-07-22T07:38:31Z</time>
      </trkpt>
      <trkpt lat="43.5441480" lon="-6.4526420">
        <ele>-0.8</ele>
        <time>2021-07-22T07:38:32Z</time>
      </trkpt>
      <trkpt lat="43.5444550" lon="-6.4526600">
        <ele>-1.2</ele>
        <time>2021-07-22T07:38:38Z</time>
      </trkpt>
      <trkpt lat="43.5445020" lon="-6.4526510">
        <ele>-1.6</ele>
        <time>2021-07-22T07:38:39Z</time>
      </trkpt>
      <trkpt lat="43.5445460" lon="-6.4526440">
        <ele>-2.0</ele>
        <time>2021-07-22T07:38:40Z</time>
      </trkpt>
      <trkpt lat="43.5445810" lon="-6.4526410">
        <ele>-2.4</ele>
        <time>2021-07-22T07:38:41Z</time>
      </trkpt>
      <trkpt lat="43.5446130" lon="-6.4526350">
        <ele>-2.8</ele>
        <time>2021-07-22T07:38:42Z</time>
      </trkpt>
      <trkpt lat="43.5446720" lon="-6.4526150">
        <ele>-2.8</ele>
        <time>2021-07-22T07:38:44Z</time>
      </trkpt>
      <trkpt lat="43.5447050" lon="-6.4525580">
        <ele>-3.2</ele>
        <time>2021-07-22T07:38:47Z</time>
      </trkpt>
      <trkpt lat="43.5446990" lon="-6.4525430">
        <ele>-3.6</ele>
        <time>2021-07-22T07:38:48Z</time>
      </trkpt>
      <trkpt lat="43.5446850" lon="-6.4525400">
        <ele>-4.0</ele>
        <time>2021-07-22T07:38:49Z</time>
      </trkpt>
      <trkpt lat="43.5446630" lon="-6.4525390">
        <ele>-4.4</ele>
        <time>2021-07-22T07:38:51Z</time>
      </trkpt>
      <trkpt lat="43.5446380" lon="-6.4525420">
        <ele>-4.8</ele>
        <time>2021-07-22T07:38:52Z</time>
      </trkpt>
      <trkpt lat="43.5445930" lon="-6.4525500">
        <ele>-4.8</ele>
        <time>2021-07-22T07:38:53Z</time>
      </trkpt>
      <trkpt lat="43.5445540" lon="-6.4525540">
        <ele>-4.8</ele>
        <time>2021-07-22T07:38:54Z</time>
      </trkpt>
      <trkpt lat="43.5444710" lon="-6.4525410">
        <ele>-4.8</ele>
        <time>2021-07-22T07:38:56Z</time>
      </trkpt>
      <trkpt lat="43.5443720" lon="-6.4525060">
        <ele>-4.8</ele>
        <time>2021-07-22T07:38:58Z</time>
      </trkpt>
      <trkpt lat="43.5442660" lon="-6.4524710">
        <ele>-5.2</ele>
        <time>2021-07-22T07:39:00Z</time>
      </trkpt>
      <trkpt lat="43.5442110" lon="-6.4524540">
        <ele>-5.6</ele>
        <time>2021-07-22T07:39:01Z</time>
      </trkpt>
      <trkpt lat="43.5441540" lon="-6.4524350">
        <ele>-6.6</ele>
        <time>2021-07-22T07:39:02Z</time>
      </trkpt>
      <trkpt lat="43.5441000" lon="-6.4524150">
        <ele>-7.0</ele>
        <time>2021-07-22T07:39:03Z</time>
      </trkpt>
      <trkpt lat="43.5439920" lon="-6.4523730">
        <ele>-7.0</ele>
        <time>2021-07-22T07:39:05Z</time>
      </trkpt>
      <trkpt lat="43.5439500" lon="-6.4523530">
        <ele>-7.4</ele>
        <time>2021-07-22T07:39:06Z</time>
      </trkpt>
      <trkpt lat="43.5439040" lon="-6.4523310">
        <ele>-7.8</ele>
        <time>2021-07-22T07:39:07Z</time>
      </trkpt>
      <trkpt lat="43.5438590" lon="-6.4523030">
        <ele>-8.4</ele>
        <time>2021-07-22T07:39:08Z</time>
      </trkpt>
      <trkpt lat="43.5438120" lon="-6.4522720">
        <ele>-8.8</ele>
        <time>2021-07-22T07:39:09Z</time>
      </trkpt>
      <trkpt lat="43.5437640" lon="-6.4522400">
        <ele>-9.2</ele>
        <time>2021-07-22T07:39:10Z</time>
      </trkpt>
      <trkpt lat="43.5436120" lon="-6.4521330">
        <ele>-9.6</ele>
        <time>2021-07-22T07:39:13Z</time>
      </trkpt>
      <trkpt lat="43.5435570" lon="-6.4520850">
        <ele>-10.0</ele>
        <time>2021-07-22T07:39:14Z</time>
      </trkpt>
      <trkpt lat="43.5435050" lon="-6.4520380">
        <ele>-10.6</ele>
        <time>2021-07-22T07:39:15Z</time>
      </trkpt>
      <trkpt lat="43.5434530" lon="-6.4519870">
        <ele>-11.0</ele>
        <time>2021-07-22T07:39:16Z</time>
      </trkpt>
      <trkpt lat="43.5434000" lon="-6.4519310">
        <ele>-11.4</ele>
        <time>2021-07-22T07:39:17Z</time>
      </trkpt>
      <trkpt lat="43.5432980" lon="-6.4518140">
        <ele>-11.8</ele>
        <time>2021-07-22T07:39:19Z</time>
      </trkpt>
      <trkpt lat="43.5432550" lon="-6.4517550">
        <ele>-12.2</ele>
        <time>2021-07-22T07:39:20Z</time>
      </trkpt>
      <trkpt lat="43.5432100" lon="-6.4516930">
        <ele>-12.6</ele>
        <time>2021-07-22T07:39:21Z</time>
      </trkpt>
      <trkpt lat="43.5431640" lon="-6.4516360">
        <ele>-13.0</ele>
        <time>2021-07-22T07:39:22Z</time>
      </trkpt>
      <trkpt lat="43.5431090" lon="-6.4515810">
        <ele>-13.4</ele>
        <time>2021-07-22T07:39:23Z</time>
      </trkpt>
      <trkpt lat="43.5430560" lon="-6.4515240">
        <ele>-13.8</ele>
        <time>2021-07-22T07:39:24Z</time>
      </trkpt>
      <trkpt lat="43.5430050" lon="-6.4514710">
        <ele>-14.4</ele>
        <time>2021-07-22T07:39:25Z</time>
      </trkpt>
      <trkpt lat="43.5429550" lon="-6.4514230">
        <ele>-14.8</ele>
        <time>2021-07-22T07:39:26Z</time>
      </trkpt>
      <trkpt lat="43.5429010" lon="-6.4513850">
        <ele>-15.6</ele>
        <time>2021-07-22T07:39:27Z</time>
      </trkpt>
      <trkpt lat="43.5427230" lon="-6.4512850">
        <ele>-16.0</ele>
        <time>2021-07-22T07:39:30Z</time>
      </trkpt>
      <trkpt lat="43.5426580" lon="-6.4512580">
        <ele>-16.6</ele>
        <time>2021-07-22T07:39:31Z</time>
      </trkpt>
      <trkpt lat="43.5425920" lon="-6.4512380">
        <ele>-17.0</ele>
        <time>2021-07-22T07:39:32Z</time>
      </trkpt>
      <trkpt lat="43.5425260" lon="-6.4512200">
        <ele>-17.4</ele>
        <time>2021-07-22T07:39:33Z</time>
      </trkpt>
      <trkpt lat="43.5424570" lon="-6.4512050">
        <ele>-18.0</ele>
        <time>2021-07-22T07:39:34Z</time>
      </trkpt>
      <trkpt lat="43.5422470" lon="-6.4511670">
        <ele>-18.4</ele>
        <time>2021-07-22T07:39:37Z</time>
      </trkpt>
      <trkpt lat="43.5421730" lon="-6.4511550">
        <ele>-18.8</ele>
        <time>2021-07-22T07:39:38Z</time>
      </trkpt>
      <trkpt lat="43.5421080" lon="-6.4511470">
        <ele>-19.2</ele>
        <time>2021-07-22T07:39:39Z</time>
      </trkpt>
      <trkpt lat="43.5420380" lon="-6.4511390">
        <ele>-19.6</ele>
        <time>2021-07-22T07:39:40Z</time>
      </trkpt>
      <trkpt lat="43.5419530" lon="-6.4511340">
        <ele>-20.2</ele>
        <time>2021-07-22T07:39:41Z</time>
      </trkpt>
      <trkpt lat="43.5417950" lon="-6.4511400">
        <ele>-20.2</ele>
        <time>2021-07-22T07:39:43Z</time>
      </trkpt>
      <trkpt lat="43.5417130" lon="-6.4511570">
        <ele>-20.6</ele>
        <time>2021-07-22T07:39:44Z</time>
      </trkpt>
      <trkpt lat="43.5416300" lon="-6.4511750">
        <ele>-21.0</ele>
        <time>2021-07-22T07:39:45Z</time>
      </trkpt>
      <trkpt lat="43.5415490" lon="-6.4512000">
        <ele>-21.4</ele>
        <time>2021-07-22T07:39:46Z</time>
      </trkpt>
      <trkpt lat="43.5414680" lon="-6.4512320">
        <ele>-21.8</ele>
        <time>2021-07-22T07:39:47Z</time>
      </trkpt>
      <trkpt lat="43.5413910" lon="-6.4512690">
        <ele>-22.2</ele>
        <time>2021-07-22T07:39:48Z</time>
      </trkpt>
      <trkpt lat="43.5412570" lon="-6.4513560">
        <ele>-22.2</ele>
        <time>2021-07-22T07:39:50Z</time>
      </trkpt>
      <trkpt lat="43.5411950" lon="-6.4514060">
        <ele>-23.2</ele>
        <time>2021-07-22T07:39:51Z</time>
      </trkpt>
      <trkpt lat="43.5411370" lon="-6.4514600">
        <ele>-23.6</ele>
        <time>2021-07-22T07:39:52Z</time>
      </trkpt>
      <trkpt lat="43.5410890" lon="-6.4515160">
        <ele>-24.2</ele>
        <time>2021-07-22T07:39:53Z</time>
      </trkpt>
      <trkpt lat="43.5410530" lon="-6.4516050">
        <ele>-24.6</ele>
        <time>2021-07-22T07:39:54Z</time>
      </trkpt>
      <trkpt lat="43.5410180" lon="-6.4516980">
        <ele>-25.0</ele>
        <time>2021-07-22T07:39:55Z</time>
      </trkpt>
      <trkpt lat="43.5409860" lon="-6.4517930">
        <ele>-25.6</ele>
        <time>2021-07-22T07:39:56Z</time>
      </trkpt>
      <trkpt lat="43.5409550" lon="-6.4519020">
        <ele>-26.0</ele>
        <time>2021-07-22T07:39:57Z</time>
      </trkpt>
      <trkpt lat="43.5409340" lon="-6.4520100">
        <ele>-26.4</ele>
        <time>2021-07-22T07:39:58Z</time>
      </trkpt>
      <trkpt lat="43.5409230" lon="-6.4521190">
        <ele>-26.8</ele>
        <time>2021-07-22T07:39:59Z</time>
      </trkpt>
      <trkpt lat="43.5409460" lon="-6.4525160">
        <ele>-26.8</ele>
        <time>2021-07-22T07:40:03Z</time>
      </trkpt>
      <trkpt lat="43.5409570" lon="-6.4526130">
        <ele>-27.2</ele>
        <time>2021-07-22T07:40:04Z</time>
      </trkpt>
      <trkpt lat="43.5409700" lon="-6.4527070">
        <ele>-27.8</ele>
        <time>2021-07-22T07:40:05Z</time>
      </trkpt>
      <trkpt lat="43.5409870" lon="-6.4527980">
        <ele>-28.2</ele>
        <time>2021-07-22T07:40:06Z</time>
      </trkpt>
      <trkpt lat="43.5410100" lon="-6.4528890">
        <ele>-28.8</ele>
        <time>2021-07-22T07:40:07Z</time>
      </trkpt>
      <trkpt lat="43.5410330" lon="-6.4529720">
        <ele>-29.2</ele>
        <time>2021-07-22T07:40:08Z</time>
      </trkpt>
      <trkpt lat="43.5410630" lon="-6.4530520">
        <ele>-29.6</ele>
        <time>2021-07-22T07:40:09Z</time>
      </trkpt>
      <trkpt lat="43.5410980" lon="-6.4531270">
        <ele>-30.2</ele>
        <time>2021-07-22T07:40:10Z</time>
      </trkpt>
      <trkpt lat="43.5411330" lon="-6.4531930">
        <ele>-30.6</ele>
        <time>2021-07-22T07:40:11Z</time>
      </trkpt>
      <trkpt lat="43.5411730" lon="-6.4532550">
        <ele>-31.0</ele>
        <time>2021-07-22T07:40:12Z</time>
      </trkpt>
      <trkpt lat="43.5412100" lon="-6.4533130">
        <ele>-31.4</ele>
        <time>2021-07-22T07:40:13Z</time>
      </trkpt>
      <trkpt lat="43.5413460" lon="-6.4534410">
        <ele>-31.8</ele>
        <time>2021-07-22T07:40:16Z</time>
      </trkpt>
      <trkpt lat="43.5414140" lon="-6.4534580">
        <ele>-32.4</ele>
        <time>2021-07-22T07:40:17Z</time>
      </trkpt>
      <trkpt lat="43.5414780" lon="-6.4534780">
        <ele>-32.8</ele>
        <time>2021-07-22T07:40:18Z</time>
      </trkpt>
      <trkpt lat="43.5415480" lon="-6.4534980">
        <ele>-33.2</ele>
        <time>2021-07-22T07:40:19Z</time>
      </trkpt>
      <trkpt lat="43.5416230" lon="-6.4535170">
        <ele>-33.6</ele>
        <time>2021-07-22T07:40:20Z</time>
      </trkpt>
      <trkpt lat="43.5417000" lon="-6.4535380">
        <ele>-34.2</ele>
        <time>2021-07-22T07:40:21Z</time>
      </trkpt>
      <trkpt lat="43.5417800" lon="-6.4535660">
        <ele>-34.6</ele>
        <time>2021-07-22T07:40:22Z</time>
      </trkpt>
      <trkpt lat="43.5418520" lon="-6.4535950">
        <ele>-35.0</ele>
        <time>2021-07-22T07:40:23Z</time>
      </trkpt>
      <trkpt lat="43.5419240" lon="-6.4536180">
        <ele>-35.4</ele>
        <time>2021-07-22T07:40:24Z</time>
      </trkpt>
      <trkpt lat="43.5420020" lon="-6.4536420">
        <ele>-36.0</ele>
        <time>2021-07-22T07:40:25Z</time>
      </trkpt>
      <trkpt lat="43.5422210" lon="-6.4537450">
        <ele>-36.4</ele>
        <time>2021-07-22T07:40:28Z</time>
      </trkpt>
      <trkpt lat="43.5422850" lon="-6.4537850">
        <ele>-36.8</ele>
        <time>2021-07-22T07:40:29Z</time>
      </trkpt>
      <trkpt lat="43.5423480" lon="-6.4538330">
        <ele>-37.2</ele>
        <time>2021-07-22T07:40:30Z</time>
      </trkpt>
      <trkpt lat="43.5424100" lon="-6.4538780">
        <ele>-37.6</ele>
        <time>2021-07-22T07:40:31Z</time>
      </trkpt>
      <trkpt lat="43.5424650" lon="-6.4539220">
        <ele>-38.2</ele>
        <time>2021-07-22T07:40:32Z</time>
      </trkpt>
      <trkpt lat="43.5425210" lon="-6.4539670">
        <ele>-38.6</ele>
        <time>2021-07-22T07:40:33Z</time>
      </trkpt>
      <trkpt lat="43.5425790" lon="-6.4540070">
        <ele>-39.0</ele>
        <time>2021-07-22T07:40:34Z</time>
      </trkpt>
      <trkpt lat="43.5426340" lon="-6.4540500">
        <ele>-39.6</ele>
        <time>2021-07-22T07:40:35Z</time>
      </trkpt>
      <trkpt lat="43.5426900" lon="-6.4540980">
        <ele>-40.0</ele>
        <time>2021-07-22T07:40:36Z</time>
      </trkpt>
      <trkpt lat="43.5427480" lon="-6.4541480">
        <ele>-40.4</ele>
        <time>2021-07-22T07:40:37Z</time>
      </trkpt>
      <trkpt lat="43.5428490" lon="-6.4542610">
        <ele>-40.4</ele>
        <time>2021-07-22T07:40:39Z</time>
      </trkpt>
      <trkpt lat="43.5428890" lon="-6.4543290">
        <ele>-41.0</ele>
        <time>2021-07-22T07:40:40Z</time>
      </trkpt>
      <trkpt lat="43.5429260" lon="-6.4544050">
        <ele>-42.0</ele>
        <time>2021-07-22T07:40:41Z</time>
      </trkpt>
      <trkpt lat="43.5429640" lon="-6.4544900">
        <ele>-42.4</ele>
        <time>2021-07-22T07:40:42Z</time>
      </trkpt>
      <trkpt lat="43.5429980" lon="-6.4545810">
        <ele>-42.8</ele>
        <time>2021-07-22T07:40:43Z</time>
      </trkpt>
      <trkpt lat="43.5430190" lon="-6.4546730">
        <ele>-42.8</ele>
        <time>2021-07-22T07:40:44Z</time>
      </trkpt>
      <trkpt lat="43.5430410" lon="-6.4547730">
        <ele>-42.8</ele>
        <time>2021-07-22T07:40:45Z</time>
      </trkpt>
      <trkpt lat="43.5430500" lon="-6.4548590">
        <ele>-42.8</ele>
        <time>2021-07-22T07:40:46Z</time>
      </trkpt>
      <trkpt lat="43.5430590" lon="-6.4550240">
        <ele>-43.4</ele>
        <time>2021-07-22T07:40:48Z</time>
      </trkpt>
      <trkpt lat="43.5430590" lon="-6.4550920">
        <ele>-43.8</ele>
        <time>2021-07-22T07:40:49Z</time>
      </trkpt>
      <trkpt lat="43.5430560" lon="-6.4551530">
        <ele>-44.4</ele>
        <time>2021-07-22T07:40:50Z</time>
      </trkpt>
      <trkpt lat="43.5430550" lon="-6.4551980">
        <ele>-44.8</ele>
        <time>2021-07-22T07:40:51Z</time>
      </trkpt>
      <trkpt lat="43.5430530" lon="-6.4552280">
        <ele>-45.2</ele>
        <time>2021-07-22T07:40:52Z</time>
      </trkpt>
      <trkpt lat="43.5430530" lon="-6.4552430">
        <ele>-45.8</ele>
        <time>2021-07-22T07:40:53Z</time>
      </trkpt>
      <trkpt lat="43.5430500" lon="-6.4552430">
        <ele>-46.2</ele>
        <time>2021-07-22T07:40:54Z</time>
      </trkpt>
      <trkpt lat="43.5430500" lon="-6.4552370">
        <ele>-46.6</ele>
        <time>2021-07-22T07:40:55Z</time>
      </trkpt>
      <trkpt lat="43.5430420" lon="-6.4552570">
        <ele>-47.6</ele>
        <time>2021-07-22T07:41:52Z</time>
      </trkpt>
      <trkpt lat="43.5430390" lon="-6.4552830">
        <ele>-47.6</ele>
        <time>2021-07-22T07:41:53Z</time>
      </trkpt>
      <trkpt lat="43.5430340" lon="-6.4553500">
        <ele>-47.6</ele>
        <time>2021-07-22T07:41:55Z</time>
      </trkpt>
      <trkpt lat="43.5430200" lon="-6.4554710">
        <ele>-47.6</ele>
        <time>2021-07-22T07:41:58Z</time>
      </trkpt>
      <trkpt lat="43.5429950" lon="-6.4556200">
        <ele>-47.6</ele>
        <time>2021-07-22T07:42:02Z</time>
      </trkpt>
      <trkpt lat="43.5429730" lon="-6.4557000">
        <ele>-47.6</ele>
        <time>2021-07-22T07:42:04Z</time>
      </trkpt>
      <trkpt lat="43.5429380" lon="-6.4558460">
        <ele>-47.6</ele>
        <time>2021-07-22T07:42:07Z</time>
      </trkpt>
      <trkpt lat="43.5429280" lon="-6.4558980">
        <ele>-48.0</ele>
        <time>2021-07-22T07:42:08Z</time>
      </trkpt>
      <trkpt lat="43.5429150" lon="-6.4559500">
        <ele>-48.4</ele>
        <time>2021-07-22T07:42:09Z</time>
      </trkpt>
      <trkpt lat="43.5428990" lon="-6.4560030">
        <ele>-48.8</ele>
        <time>2021-07-22T07:42:10Z</time>
      </trkpt>
      <trkpt lat="43.5428790" lon="-6.4560540">
        <ele>-49.2</ele>
        <time>2021-07-22T07:42:11Z</time>
      </trkpt>
      <trkpt lat="43.5428570" lon="-6.4561100">
        <ele>-49.6</ele>
        <time>2021-07-22T07:42:12Z</time>
      </trkpt>
      <trkpt lat="43.5428290" lon="-6.4561660">
        <ele>-49.6</ele>
        <time>2021-07-22T07:42:13Z</time>
      </trkpt>
      <trkpt lat="43.5427660" lon="-6.4562920">
        <ele>-49.6</ele>
        <time>2021-07-22T07:42:15Z</time>
      </trkpt>
      <trkpt lat="43.5425930" lon="-6.4566490">
        <ele>-50.4</ele>
        <time>2021-07-22T07:42:20Z</time>
      </trkpt>
      <trkpt lat="43.5425600" lon="-6.4567230">
        <ele>-50.8</ele>
        <time>2021-07-22T07:42:21Z</time>
      </trkpt>
      <trkpt lat="43.5425230" lon="-6.4567970">
        <ele>-51.2</ele>
        <time>2021-07-22T07:42:22Z</time>
      </trkpt>
      <trkpt lat="43.5424820" lon="-6.4568720">
        <ele>-51.6</ele>
        <time>2021-07-22T07:42:23Z</time>
      </trkpt>
      <trkpt lat="43.5424060" lon="-6.4570180">
        <ele>-52.0</ele>
        <time>2021-07-22T07:42:25Z</time>
      </trkpt>
      <trkpt lat="43.5423650" lon="-6.4570870">
        <ele>-52.6</ele>
        <time>2021-07-22T07:42:26Z</time>
      </trkpt>
      <trkpt lat="43.5423220" lon="-6.4571580">
        <ele>-53.0</ele>
        <time>2021-07-22T07:42:27Z</time>
      </trkpt>
      <trkpt lat="43.5422760" lon="-6.4572220">
        <ele>-53.4</ele>
        <time>2021-07-22T07:42:28Z</time>
      </trkpt>
      <trkpt lat="43.5422280" lon="-6.4572850">
        <ele>-53.8</ele>
        <time>2021-07-22T07:42:29Z</time>
      </trkpt>
      <trkpt lat="43.5420120" lon="-6.4575460">
        <ele>-54.2</ele>
        <time>2021-07-22T07:42:33Z</time>
      </trkpt>
      <trkpt lat="43.5419630" lon="-6.4576170">
        <ele>-54.6</ele>
        <time>2021-07-22T07:42:34Z</time>
      </trkpt>
      <trkpt lat="43.5419170" lon="-6.4576900">
        <ele>-55.0</ele>
        <time>2021-07-22T07:42:35Z</time>
      </trkpt>
      <trkpt lat="43.5418740" lon="-6.4577690">
        <ele>-55.4</ele>
        <time>2021-07-22T07:42:36Z</time>
      </trkpt>
      <trkpt lat="43.5418360" lon="-6.4578520">
        <ele>-55.8</ele>
        <time>2021-07-22T07:42:37Z</time>
      </trkpt>
      <trkpt lat="43.5418010" lon="-6.4580560">
        <ele>-55.8</ele>
        <time>2021-07-22T07:42:39Z</time>
      </trkpt>
      <trkpt lat="43.5417980" lon="-6.4581580">
        <ele>-56.2</ele>
        <time>2021-07-22T07:42:40Z</time>
      </trkpt>
      <trkpt lat="43.5418010" lon="-6.4582500">
        <ele>-56.8</ele>
        <time>2021-07-22T07:42:41Z</time>
      </trkpt>
      <trkpt lat="43.5418100" lon="-6.4583350">
        <ele>-57.2</ele>
        <time>2021-07-22T07:42:42Z</time>
      </trkpt>
      <trkpt lat="43.5418180" lon="-6.4584170">
        <ele>-57.6</ele>
        <time>2021-07-22T07:42:43Z</time>
      </trkpt>
      <trkpt lat="43.5418370" lon="-6.4584860">
        <ele>-58.0</ele>
        <time>2021-07-22T07:42:44Z</time>
      </trkpt>
      <trkpt lat="43.5418850" lon="-6.4586090">
        <ele>-58.0</ele>
        <time>2021-07-22T07:42:46Z</time>
      </trkpt>
      <trkpt lat="43.5420650" lon="-6.4588580">
        <ele>-58.0</ele>
        <time>2021-07-22T07:42:51Z</time>
      </trkpt>
      <trkpt lat="43.5422710" lon="-6.4590540">
        <ele>-58.4</ele>
        <time>2021-07-22T07:42:55Z</time>
      </trkpt>
      <trkpt lat="43.5423240" lon="-6.4591050">
        <ele>-58.8</ele>
        <time>2021-07-22T07:42:56Z</time>
      </trkpt>
      <trkpt lat="43.5423800" lon="-6.4591540">
        <ele>-59.4</ele>
        <time>2021-07-22T07:42:57Z</time>
      </trkpt>
      <trkpt lat="43.5424380" lon="-6.4592020">
        <ele>-59.8</ele>
        <time>2021-07-22T07:42:58Z</time>
      </trkpt>
      <trkpt lat="43.5424950" lon="-6.4592460">
        <ele>-60.2</ele>
        <time>2021-07-22T07:42:59Z</time>
      </trkpt>
      <trkpt lat="43.5425540" lon="-6.4592910">
        <ele>-60.8</ele>
        <time>2021-07-22T07:43:00Z</time>
      </trkpt>
      <trkpt lat="43.5426140" lon="-6.4593250">
        <ele>-61.2</ele>
        <time>2021-07-22T07:43:01Z</time>
      </trkpt>
      <trkpt lat="43.5426780" lon="-6.4593500">
        <ele>-61.6</ele>
        <time>2021-07-22T07:43:02Z</time>
      </trkpt>
      <trkpt lat="43.5427400" lon="-6.4593690">
        <ele>-62.2</ele>
        <time>2021-07-22T07:43:03Z</time>
      </trkpt>
      <trkpt lat="43.5428010" lon="-6.4593810">
        <ele>-62.6</ele>
        <time>2021-07-22T07:43:04Z</time>
      </trkpt>
      <trkpt lat="43.5429660" lon="-6.4594010">
        <ele>-63.0</ele>
        <time>2021-07-22T07:43:07Z</time>
      </trkpt>
      <trkpt lat="43.5430170" lon="-6.4594010">
        <ele>-63.6</ele>
        <time>2021-07-22T07:43:08Z</time>
      </trkpt>
      <trkpt lat="43.5430650" lon="-6.4594030">
        <ele>-64.4</ele>
        <time>2021-07-22T07:43:09Z</time>
      </trkpt>
      <trkpt lat="43.5431110" lon="-6.4594160">
        <ele>-64.8</ele>
        <time>2021-07-22T07:43:10Z</time>
      </trkpt>
      <trkpt lat="43.5431780" lon="-6.4594870">
        <ele>-64.8</ele>
        <time>2021-07-22T07:43:12Z</time>
      </trkpt>
      <trkpt lat="43.5432440" lon="-6.4596790">
        <ele>-65.2</ele>
        <time>2021-07-22T07:43:16Z</time>
      </trkpt>
      <trkpt lat="43.5432420" lon="-6.4597350">
        <ele>-65.6</ele>
        <time>2021-07-22T07:43:17Z</time>
      </trkpt>
      <trkpt lat="43.5432360" lon="-6.4597870">
        <ele>-66.0</ele>
        <time>2021-07-22T07:43:18Z</time>
      </trkpt>
      <trkpt lat="43.5432230" lon="-6.4598390">
        <ele>-66.4</ele>
        <time>2021-07-22T07:43:19Z</time>
      </trkpt>
      <trkpt lat="43.5432060" lon="-6.4598880">
        <ele>-66.8</ele>
        <time>2021-07-22T07:43:20Z</time>
      </trkpt>
      <trkpt lat="43.5431470" lon="-6.4600110">
        <ele>-66.8</ele>
        <time>2021-07-22T07:43:23Z</time>
      </trkpt>
      <trkpt lat="43.5431170" lon="-6.4600800">
        <ele>-66.8</ele>
        <time>2021-07-22T07:43:25Z</time>
      </trkpt>
      <trkpt lat="43.5430950" lon="-6.4602080">
        <ele>-66.8</ele>
        <time>2021-07-22T07:43:29Z</time>
      </trkpt>
      <trkpt lat="43.5430860" lon="-6.4602470">
        <ele>-66.8</ele>
        <time>2021-07-22T07:43:30Z</time>
      </trkpt>
      <trkpt lat="43.5430580" lon="-6.4603280">
        <ele>-66.8</ele>
        <time>2021-07-22T07:43:32Z</time>
      </trkpt>
      <trkpt lat="43.5430310" lon="-6.4604120">
        <ele>-66.8</ele>
        <time>2021-07-22T07:43:34Z</time>
      </trkpt>
      <trkpt lat="43.5430160" lon="-6.4604560">
        <ele>-66.8</ele>
        <time>2021-07-22T07:43:35Z</time>
      </trkpt>
      <trkpt lat="43.5430050" lon="-6.4604960">
        <ele>-66.8</ele>
        <time>2021-07-22T07:43:36Z</time>
      </trkpt>
      <trkpt lat="43.5429910" lon="-6.4605890">
        <ele>-66.8</ele>
        <time>2021-07-22T07:43:38Z</time>
      </trkpt>
      <trkpt lat="43.5429930" lon="-6.4606870">
        <ele>-66.8</ele>
        <time>2021-07-22T07:43:40Z</time>
      </trkpt>
      <trkpt lat="43.5429920" lon="-6.4607340">
        <ele>-66.8</ele>
        <time>2021-07-22T07:43:41Z</time>
      </trkpt>
      <trkpt lat="43.5429700" lon="-6.4609100">
        <ele>-66.8</ele>
        <time>2021-07-22T07:43:45Z</time>
      </trkpt>
      <trkpt lat="43.5429380" lon="-6.4610350">
        <ele>-66.8</ele>
        <time>2021-07-22T07:43:48Z</time>
      </trkpt>
      <trkpt lat="43.5428780" lon="-6.4612370">
        <ele>-66.8</ele>
        <time>2021-07-22T07:43:52Z</time>
      </trkpt>
      <trkpt lat="43.5428460" lon="-6.4613470">
        <ele>-66.8</ele>
        <time>2021-07-22T07:43:54Z</time>
      </trkpt>
      <trkpt lat="43.5427880" lon="-6.4615920">
        <ele>-66.8</ele>
        <time>2021-07-22T07:44:00Z</time>
      </trkpt>
      <trkpt lat="43.5427820" lon="-6.4616210">
        <ele>-66.8</ele>
        <time>2021-07-22T07:44:03Z</time>
      </trkpt>
      <trkpt lat="43.5427680" lon="-6.4616720">
        <ele>-66.8</ele>
        <time>2021-07-22T07:44:44Z</time>
      </trkpt>
      <trkpt lat="43.5427600" lon="-6.4616950">
        <ele>-66.8</ele>
        <time>2021-07-22T07:44:45Z</time>
      </trkpt>
      <trkpt lat="43.5426970" lon="-6.4619140">
        <ele>-66.8</ele>
        <time>2021-07-22T07:44:52Z</time>
      </trkpt>
      <trkpt lat="43.5427190" lon="-6.4621750">
        <ele>-66.8</ele>
        <time>2021-07-22T07:44:57Z</time>
      </trkpt>
      <trkpt lat="43.5428320" lon="-6.4622910">
        <ele>-66.8</ele>
        <time>2021-07-22T07:45:00Z</time>
      </trkpt>
      <trkpt lat="43.5429280" lon="-6.4623270">
        <ele>-66.8</ele>
        <time>2021-07-22T07:45:02Z</time>
      </trkpt>
      <trkpt lat="43.5430230" lon="-6.4623460">
        <ele>-66.8</ele>
        <time>2021-07-22T07:45:04Z</time>
      </trkpt>
      <trkpt lat="43.5430680" lon="-6.4623540">
        <ele>-66.8</ele>
        <time>2021-07-22T07:45:05Z</time>
      </trkpt>
      <trkpt lat="43.5432400" lon="-6.4623890">
        <ele>-66.8</ele>
        <time>2021-07-22T07:45:09Z</time>
      </trkpt>
      <trkpt lat="43.5434040" lon="-6.4624310">
        <ele>-66.8</ele>
        <time>2021-07-22T07:45:13Z</time>
      </trkpt>
      <trkpt lat="43.5434890" lon="-6.4624560">
        <ele>-66.8</ele>
        <time>2021-07-22T07:45:15Z</time>
      </trkpt>
      <trkpt lat="43.5436140" lon="-6.4625290">
        <ele>-66.8</ele>
        <time>2021-07-22T07:45:18Z</time>
      </trkpt>
      <trkpt lat="43.5436550" lon="-6.4625670">
        <ele>-66.8</ele>
        <time>2021-07-22T07:45:19Z</time>
      </trkpt>
      <trkpt lat="43.5437760" lon="-6.4626930">
        <ele>-66.8</ele>
        <time>2021-07-22T07:45:22Z</time>
      </trkpt>
      <trkpt lat="43.5438890" lon="-6.4628350">
        <ele>-66.8</ele>
        <time>2021-07-22T07:45:25Z</time>
      </trkpt>
      <trkpt lat="43.5441490" lon="-6.4631510">
        <ele>-66.8</ele>
        <time>2021-07-22T07:45:32Z</time>
      </trkpt>
      <trkpt lat="43.5442220" lon="-6.4632490">
        <ele>-66.8</ele>
        <time>2021-07-22T07:45:34Z</time>
      </trkpt>
      <trkpt lat="43.5442970" lon="-6.4633500">
        <ele>-66.8</ele>
        <time>2021-07-22T07:45:36Z</time>
      </trkpt>
      <trkpt lat="43.5443760" lon="-6.4634480">
        <ele>-66.8</ele>
        <time>2021-07-22T07:45:38Z</time>
      </trkpt>
      <trkpt lat="43.5445000" lon="-6.4635970">
        <ele>-66.8</ele>
        <time>2021-07-22T07:45:41Z</time>
      </trkpt>
      <trkpt lat="43.5447320" lon="-6.4638910">
        <ele>-66.8</ele>
        <time>2021-07-22T07:45:47Z</time>
      </trkpt>
      <trkpt lat="43.5448910" lon="-6.4640800">
        <ele>-66.8</ele>
        <time>2021-07-22T07:45:51Z</time>
      </trkpt>
      <trkpt lat="43.5452030" lon="-6.4644690">
        <ele>-66.8</ele>
        <time>2021-07-22T07:45:59Z</time>
      </trkpt>
      <trkpt lat="43.5454690" lon="-6.4647870">
        <ele>-66.8</ele>
        <time>2021-07-22T07:46:06Z</time>
      </trkpt>
      <trkpt lat="43.5457250" lon="-6.4650860">
        <ele>-66.8</ele>
        <time>2021-07-22T07:46:14Z</time>
      </trkpt>
      <trkpt lat="43.5458570" lon="-6.4652650">
        <ele>-66.8</ele>
        <time>2021-07-22T07:46:20Z</time>
      </trkpt>
      <trkpt lat="43.5459940" lon="-6.4654990">
        <ele>-66.8</ele>
        <time>2021-07-22T07:46:27Z</time>
      </trkpt>
      <trkpt lat="43.5460100" lon="-6.4655300">
        <ele>-66.8</ele>
        <time>2021-07-22T07:46:28Z</time>
      </trkpt>
      <trkpt lat="43.5461490" lon="-6.4658010">
        <ele>-66.8</ele>
        <time>2021-07-22T07:46:36Z</time>
      </trkpt>
      <trkpt lat="43.5461880" lon="-6.4659930">
        <ele>-66.4</ele>
        <time>2021-07-22T07:46:41Z</time>
      </trkpt>
      <trkpt lat="43.5461950" lon="-6.4660320">
        <ele>-66.0</ele>
        <time>2021-07-22T07:46:42Z</time>
      </trkpt>
      <trkpt lat="43.5461960" lon="-6.4660720">
        <ele>-65.6</ele>
        <time>2021-07-22T07:46:43Z</time>
      </trkpt>
      <trkpt lat="43.5461950" lon="-6.4661100">
        <ele>-65.2</ele>
        <time>2021-07-22T07:46:44Z</time>
      </trkpt>
      <trkpt lat="43.5461890" lon="-6.4661500">
        <ele>-64.8</ele>
        <time>2021-07-22T07:46:45Z</time>
      </trkpt>
      <trkpt lat="43.5461540" lon="-6.4662960">
        <ele>-64.8</ele>
        <time>2021-07-22T07:46:50Z</time>
      </trkpt>
      <trkpt lat="43.5461640" lon="-6.4663100">
        <ele>-64.8</ele>
        <time>2021-07-22T07:46:51Z</time>
      </trkpt>
      <trkpt lat="43.5461730" lon="-6.4663280">
        <ele>-64.8</ele>
        <time>2021-07-22T07:46:54Z</time>
      </trkpt>
      <trkpt lat="43.5461730" lon="-6.4663320">
        <ele>-64.8</ele>
        <time>2021-07-22T07:46:55Z</time>
      </trkpt>
      <trkpt lat="43.5461290" lon="-6.4663380">
        <ele>-64.8</ele>
        <time>2021-07-22T07:49:24Z</time>
      </trkpt>
      <trkpt lat="43.5461150" lon="-6.4663560">
        <ele>-64.8</ele>
        <time>2021-07-22T07:49:25Z</time>
      </trkpt>
      <trkpt lat="43.5460920" lon="-6.4663930">
        <ele>-64.8</ele>
        <time>2021-07-22T07:49:27Z</time>
      </trkpt>
      <trkpt lat="43.5460750" lon="-6.4664190">
        <ele>-64.8</ele>
        <time>2021-07-22T07:49:28Z</time>
      </trkpt>
      <trkpt lat="43.5460410" lon="-6.4664640">
        <ele>-64.8</ele>
        <time>2021-07-22T07:49:30Z</time>
      </trkpt>
      <trkpt lat="43.5460040" lon="-6.4665260">
        <ele>-64.8</ele>
        <time>2021-07-22T07:49:33Z</time>
      </trkpt>
      <trkpt lat="43.5459510" lon="-6.4666720">
        <ele>-64.8</ele>
        <time>2021-07-22T07:49:39Z</time>
      </trkpt>
      <trkpt lat="43.5459400" lon="-6.4666930">
        <ele>-64.8</ele>
        <time>2021-07-22T07:49:40Z</time>
      </trkpt>
      <trkpt lat="43.5459240" lon="-6.4667780">
        <ele>-64.8</ele>
        <time>2021-07-22T07:49:44Z</time>
      </trkpt>
      <trkpt lat="43.5459530" lon="-6.4667990">
        <ele>-64.8</ele>
        <time>2021-07-22T07:49:46Z</time>
      </trkpt>
      <trkpt lat="43.5460530" lon="-6.4668490">
        <ele>-65.4</ele>
        <time>2021-07-22T07:49:50Z</time>
      </trkpt>
      <trkpt lat="43.5460760" lon="-6.4668640">
        <ele>-65.8</ele>
        <time>2021-07-22T07:49:51Z</time>
      </trkpt>
      <trkpt lat="43.5461030" lon="-6.4668700">
        <ele>-66.2</ele>
        <time>2021-07-22T07:49:52Z</time>
      </trkpt>
      <trkpt lat="43.5461310" lon="-6.4668600">
        <ele>-66.6</ele>
        <time>2021-07-22T07:49:53Z</time>
      </trkpt>
      <trkpt lat="43.5461540" lon="-6.4668240">
        <ele>-67.0</ele>
        <time>2021-07-22T07:49:54Z</time>
      </trkpt>
      <trkpt lat="43.5461760" lon="-6.4667900">
        <ele>-67.0</ele>
        <time>2021-07-22T07:49:55Z</time>
      </trkpt>
      <trkpt lat="43.5463100" lon="-6.4665890">
        <ele>-67.4</ele>
        <time>2021-07-22T07:50:01Z</time>
      </trkpt>
      <trkpt lat="43.5463360" lon="-6.4665550">
        <ele>-67.8</ele>
        <time>2021-07-22T07:50:02Z</time>
      </trkpt>
      <trkpt lat="43.5463630" lon="-6.4665180">
        <ele>-68.2</ele>
        <time>2021-07-22T07:50:03Z</time>
      </trkpt>
      <trkpt lat="43.5463890" lon="-6.4664820">
        <ele>-68.6</ele>
        <time>2021-07-22T07:50:04Z</time>
      </trkpt>
      <trkpt lat="43.5464080" lon="-6.4664530">
        <ele>-69.0</ele>
        <time>2021-07-22T07:50:05Z</time>
      </trkpt>
      <trkpt lat="43.5464380" lon="-6.4664060">
        <ele>-69.0</ele>
        <time>2021-07-22T07:50:07Z</time>
      </trkpt>
      <trkpt lat="43.5464500" lon="-6.4663990">
        <ele>-69.0</ele>
        <time>2021-07-22T07:50:08Z</time>
      </trkpt>
      <trkpt lat="43.5464710" lon="-6.4664110">
        <ele>-69.0</ele>
        <time>2021-07-22T07:50:10Z</time>
      </trkpt>
      <trkpt lat="43.5464940" lon="-6.4664350">
        <ele>-69.0</ele>
        <time>2021-07-22T07:50:12Z</time>
      </trkpt>
      <trkpt lat="43.5465440" lon="-6.4665780">
        <ele>-69.0</ele>
        <time>2021-07-22T07:50:16Z</time>
      </trkpt>
      <trkpt lat="43.5465560" lon="-6.4666280">
        <ele>-69.0</ele>
        <time>2021-07-22T07:50:17Z</time>
      </trkpt>
      <trkpt lat="43.5466160" lon="-6.4668500">
        <ele>-69.0</ele>
        <time>2021-07-22T07:50:22Z</time>
      </trkpt>
      <trkpt lat="43.5466200" lon="-6.4669570">
        <ele>-69.0</ele>
        <time>2021-07-22T07:50:25Z</time>
      </trkpt>
      <trkpt lat="43.5466140" lon="-6.4670190">
        <ele>-69.0</ele>
        <time>2021-07-22T07:50:27Z</time>
      </trkpt>
      <trkpt lat="43.5465890" lon="-6.4671880">
        <ele>-69.0</ele>
        <time>2021-07-22T07:50:34Z</time>
      </trkpt>
      <trkpt lat="43.5465940" lon="-6.4672090">
        <ele>-69.0</ele>
        <time>2021-07-22T07:50:35Z</time>
      </trkpt>
      <trkpt lat="43.5465930" lon="-6.4673070">
        <ele>-69.0</ele>
        <time>2021-07-22T07:50:40Z</time>
      </trkpt>
      <trkpt lat="43.5465670" lon="-6.4673420">
        <ele>-69.0</ele>
        <time>2021-07-22T07:50:42Z</time>
      </trkpt>
      <trkpt lat="43.5465390" lon="-6.4673970">
        <ele>-69.0</ele>
        <time>2021-07-22T07:50:45Z</time>
      </trkpt>
      <trkpt lat="43.5465010" lon="-6.4674630">
        <ele>-69.0</ele>
        <time>2021-07-22T07:50:48Z</time>
      </trkpt>
      <trkpt lat="43.5464750" lon="-6.4675560">
        <ele>-69.0</ele>
        <time>2021-07-22T07:50:53Z</time>
      </trkpt>
      <trkpt lat="43.5464660" lon="-6.4675690">
        <ele>-69.0</ele>
        <time>2021-07-22T07:50:54Z</time>
      </trkpt>
      <trkpt lat="43.5464310" lon="-6.4676640">
        <ele>-69.0</ele>
        <time>2021-07-22T07:50:59Z</time>
      </trkpt>
      <trkpt lat="43.5464270" lon="-6.4677170">
        <ele>-69.0</ele>
        <time>2021-07-22T07:51:02Z</time>
      </trkpt>
      <trkpt lat="43.5463980" lon="-6.4677550">
        <ele>-69.0</ele>
        <time>2021-07-22T07:51:07Z</time>
      </trkpt>
      <trkpt lat="43.5463890" lon="-6.4677580">
        <ele>-68.6</ele>
        <time>2021-07-22T07:51:08Z</time>
      </trkpt>
      <trkpt lat="43.5463800" lon="-6.4677640">
        <ele>-68.2</ele>
        <time>2021-07-22T07:51:09Z</time>
      </trkpt>
      <trkpt lat="43.5463680" lon="-6.4677770">
        <ele>-67.8</ele>
        <time>2021-07-22T07:51:10Z</time>
      </trkpt>
      <trkpt lat="43.5463590" lon="-6.4677890">
        <ele>-67.4</ele>
        <time>2021-07-22T07:51:11Z</time>
      </trkpt>
      <trkpt lat="43.5463510" lon="-6.4678090">
        <ele>-67.0</ele>
        <time>2021-07-22T07:51:12Z</time>
      </trkpt>
      <trkpt lat="43.5463280" lon="-6.4678710">
        <ele>-67.0</ele>
        <time>2021-07-22T07:51:16Z</time>
      </trkpt>
      <trkpt lat="43.5463050" lon="-6.4679030">
        <ele>-66.6</ele>
        <time>2021-07-22T07:51:19Z</time>
      </trkpt>
      <trkpt lat="43.5462970" lon="-6.4679260">
        <ele>-66.2</ele>
        <time>2021-07-22T07:51:20Z</time>
      </trkpt>
      <trkpt lat="43.5462910" lon="-6.4679270">
        <ele>-65.8</ele>
        <time>2021-07-22T07:51:21Z</time>
      </trkpt>
      <trkpt lat="43.5462870" lon="-6.4679400">
        <ele>-65.4</ele>
        <time>2021-07-22T07:51:22Z</time>
      </trkpt>
      <trkpt lat="43.5462840" lon="-6.4679490">
        <ele>-65.0</ele>
        <time>2021-07-22T07:51:23Z</time>
      </trkpt>
      <trkpt lat="43.5462760" lon="-6.4679790">
        <ele>-65.0</ele>
        <time>2021-07-22T07:51:26Z</time>
      </trkpt>
      <trkpt lat="43.5450410" lon="-6.4698050">
        <ele>-23.4</ele>
        <time>2021-07-22T07:59:03Z</time>
      </trkpt>
      <trkpt lat="43.5450020" lon="-6.4698580">
        <ele>-23.4</ele>
        <time>2021-07-22T07:59:05Z</time>
      </trkpt>
      <trkpt lat="43.5449790" lon="-6.4698760">
        <ele>-23.4</ele>
        <time>2021-07-22T07:59:06Z</time>
      </trkpt>
      <trkpt lat="43.5449240" lon="-6.4699080">
        <ele>-23.4</ele>
        <time>2021-07-22T07:59:08Z</time>
      </trkpt>
      <trkpt lat="43.5448400" lon="-6.4699500">
        <ele>-23.4</ele>
        <time>2021-07-22T07:59:11Z</time>
      </trkpt>
      <trkpt lat="43.5447830" lon="-6.4699860">
        <ele>-23.4</ele>
        <time>2021-07-22T07:59:14Z</time>
      </trkpt>
      <trkpt lat="43.5447380" lon="-6.4700130">
        <ele>-23.4</ele>
        <time>2021-07-22T07:59:16Z</time>
      </trkpt>
      <trkpt lat="43.5447150" lon="-6.4700260">
        <ele>-23.4</ele>
        <time>2021-07-22T07:59:17Z</time>
      </trkpt>
      <trkpt lat="43.5445290" lon="-6.4700900">
        <ele>-23.4</ele>
        <time>2021-07-22T07:59:23Z</time>
      </trkpt>
      <trkpt lat="43.5444370" lon="-6.4701370">
        <ele>-23.4</ele>
        <time>2021-07-22T07:59:26Z</time>
      </trkpt>
      <trkpt lat="43.5444030" lon="-6.4701660">
        <ele>-23.4</ele>
        <time>2021-07-22T07:59:27Z</time>
      </trkpt>
      <trkpt lat="43.5443320" lon="-6.4702120">
        <ele>-23.4</ele>
        <time>2021-07-22T07:59:29Z</time>
      </trkpt>
      <trkpt lat="43.5442290" lon="-6.4702930">
        <ele>-23.4</ele>
        <time>2021-07-22T07:59:32Z</time>
      </trkpt>
      <trkpt lat="43.5441530" lon="-6.4703300">
        <ele>-23.4</ele>
        <time>2021-07-22T07:59:34Z</time>
      </trkpt>
      <trkpt lat="43.5440850" lon="-6.4703690">
        <ele>-24.2</ele>
        <time>2021-07-22T07:59:36Z</time>
      </trkpt>
      <trkpt lat="43.5440530" lon="-6.4703870">
        <ele>-24.6</ele>
        <time>2021-07-22T07:59:37Z</time>
      </trkpt>
      <trkpt lat="43.5440230" lon="-6.4704130">
        <ele>-25.0</ele>
        <time>2021-07-22T07:59:38Z</time>
      </trkpt>
      <trkpt lat="43.5439890" lon="-6.4704320">
        <ele>-25.4</ele>
        <time>2021-07-22T07:59:39Z</time>
      </trkpt>
      <trkpt lat="43.5438450" lon="-6.4705260">
        <ele>-25.4</ele>
        <time>2021-07-22T07:59:43Z</time>
      </trkpt>
      <trkpt lat="43.5435970" lon="-6.4707290">
        <ele>-25.4</ele>
        <time>2021-07-22T07:59:50Z</time>
      </trkpt>
      <trkpt lat="43.5435190" lon="-6.4708030">
        <ele>-25.4</ele>
        <time>2021-07-22T07:59:52Z</time>
      </trkpt>
      <trkpt lat="43.5434490" lon="-6.4708970">
        <ele>-25.8</ele>
        <time>2021-07-22T07:59:54Z</time>
      </trkpt>
      <trkpt lat="43.5434180" lon="-6.4709500">
        <ele>-26.2</ele>
        <time>2021-07-22T07:59:55Z</time>
      </trkpt>
      <trkpt lat="43.5433860" lon="-6.4710010">
        <ele>-26.8</ele>
        <time>2021-07-22T07:59:56Z</time>
      </trkpt>
      <trkpt lat="43.5433520" lon="-6.4710570">
        <ele>-27.2</ele>
        <time>2021-07-22T07:59:57Z</time>
      </trkpt>
      <trkpt lat="43.5433200" lon="-6.4711110">
        <ele>-27.6</ele>
        <time>2021-07-22T07:59:58Z</time>
      </trkpt>
      <trkpt lat="43.5431820" lon="-6.4713150">
        <ele>-27.6</ele>
        <time>2021-07-22T08:00:02Z</time>
      </trkpt>
      <trkpt lat="43.5431470" lon="-6.4713680">
        <ele>-27.6</ele>
        <time>2021-07-22T08:00:03Z</time>
      </trkpt>
      <trkpt lat="43.5429800" lon="-6.4716240">
        <ele>-28.0</ele>
        <time>2021-07-22T08:00:08Z</time>
      </trkpt>
      <trkpt lat="43.5429480" lon="-6.4716710">
        <ele>-28.4</ele>
        <time>2021-07-22T08:00:09Z</time>
      </trkpt>
      <trkpt lat="43.5429180" lon="-6.4717150">
        <ele>-28.8</ele>
        <time>2021-07-22T08:00:10Z</time>
      </trkpt>
      <trkpt lat="43.5428830" lon="-6.4717570">
        <ele>-29.2</ele>
        <time>2021-07-22T08:00:11Z</time>
      </trkpt>
      <trkpt lat="43.5428530" lon="-6.4717940">
        <ele>-29.6</ele>
        <time>2021-07-22T08:00:12Z</time>
      </trkpt>
      <trkpt lat="43.5427440" lon="-6.4719100">
        <ele>-29.6</ele>
        <time>2021-07-22T08:00:16Z</time>
      </trkpt>
      <trkpt lat="43.5425250" lon="-6.4721400">
        <ele>-30.0</ele>
        <time>2021-07-22T08:00:23Z</time>
      </trkpt>
      <trkpt lat="43.5424890" lon="-6.4721770">
        <ele>-30.4</ele>
        <time>2021-07-22T08:00:24Z</time>
      </trkpt>
      <trkpt lat="43.5424520" lon="-6.4722150">
        <ele>-31.4</ele>
        <time>2021-07-22T08:00:25Z</time>
      </trkpt>
      <trkpt lat="43.5424160" lon="-6.4722510">
        <ele>-31.8</ele>
        <time>2021-07-22T08:00:26Z</time>
      </trkpt>
      <trkpt lat="43.5422380" lon="-6.4724290">
        <ele>-31.8</ele>
        <time>2021-07-22T08:00:31Z</time>
      </trkpt>
      <trkpt lat="43.5419760" lon="-6.4726310">
        <ele>-31.8</ele>
        <time>2021-07-22T08:00:38Z</time>
      </trkpt>
      <trkpt lat="43.5419350" lon="-6.4726600">
        <ele>-32.2</ele>
        <time>2021-07-22T08:00:39Z</time>
      </trkpt>
      <trkpt lat="43.5418940" lon="-6.4726940">
        <ele>-32.6</ele>
        <time>2021-07-22T08:00:40Z</time>
      </trkpt>
      <trkpt lat="43.5418550" lon="-6.4727290">
        <ele>-33.0</ele>
        <time>2021-07-22T08:00:41Z</time>
      </trkpt>
      <trkpt lat="43.5418150" lon="-6.4727630">
        <ele>-33.4</ele>
        <time>2021-07-22T08:00:42Z</time>
      </trkpt>
      <trkpt lat="43.5417790" lon="-6.4727940">
        <ele>-33.8</ele>
        <time>2021-07-22T08:00:43Z</time>
      </trkpt>
      <trkpt lat="43.5417440" lon="-6.4728240">
        <ele>-33.8</ele>
        <time>2021-07-22T08:00:44Z</time>
      </trkpt>
      <trkpt lat="43.5415960" lon="-6.4729310">
        <ele>-33.8</ele>
        <time>2021-07-22T08:00:49Z</time>
      </trkpt>
      <trkpt lat="43.5415640" lon="-6.4729430">
        <ele>-33.8</ele>
        <time>2021-07-22T08:00:50Z</time>
      </trkpt>
      <trkpt lat="43.5414940" lon="-6.4729770">
        <ele>-34.2</ele>
        <time>2021-07-22T08:00:52Z</time>
      </trkpt>
      <trkpt lat="43.5414550" lon="-6.4729940">
        <ele>-34.6</ele>
        <time>2021-07-22T08:00:53Z</time>
      </trkpt>
      <trkpt lat="43.5414150" lon="-6.4730100">
        <ele>-35.0</ele>
        <time>2021-07-22T08:00:54Z</time>
      </trkpt>
      <trkpt lat="43.5413730" lon="-6.4730270">
        <ele>-35.4</ele>
        <time>2021-07-22T08:00:55Z</time>
      </trkpt>
      <trkpt lat="43.5413330" lon="-6.4730400">
        <ele>-35.8</ele>
        <time>2021-07-22T08:00:56Z</time>
      </trkpt>
      <trkpt lat="43.5411770" lon="-6.4730770">
        <ele>-35.8</ele>
        <time>2021-07-22T08:01:00Z</time>
      </trkpt>
      <trkpt lat="43.5410570" lon="-6.4730760">
        <ele>-36.2</ele>
        <time>2021-07-22T08:01:05Z</time>
      </trkpt>
      <trkpt lat="43.5410460" lon="-6.4730780">
        <ele>-36.8</ele>
        <time>2021-07-22T08:01:06Z</time>
      </trkpt>
      <trkpt lat="43.5410400" lon="-6.4730800">
        <ele>-37.2</ele>
        <time>2021-07-22T08:01:07Z</time>
      </trkpt>
      <trkpt lat="43.5410370" lon="-6.4730840">
        <ele>-37.6</ele>
        <time>2021-07-22T08:01:08Z</time>
      </trkpt>
      <trkpt lat="43.5410300" lon="-6.4730060">
        <ele>-38.0</ele>
        <time>2021-07-22T08:03:01Z</time>
      </trkpt>
      <trkpt lat="43.5410500" lon="-6.4730050">
        <ele>-38.0</ele>
        <time>2021-07-22T08:03:02Z</time>
      </trkpt>
      <trkpt lat="43.5411100" lon="-6.4729850">
        <ele>-38.0</ele>
        <time>2021-07-22T08:03:05Z</time>
      </trkpt>
      <trkpt lat="43.5411620" lon="-6.4729870">
        <ele>-38.0</ele>
        <time>2021-07-22T08:03:07Z</time>
      </trkpt>
      <trkpt lat="43.5412490" lon="-6.4729780">
        <ele>-38.0</ele>
        <time>2021-07-22T08:03:10Z</time>
      </trkpt>
      <trkpt lat="43.5413740" lon="-6.4729410">
        <ele>-38.0</ele>
        <time>2021-07-22T08:03:14Z</time>
      </trkpt>
      <trkpt lat="43.5414720" lon="-6.4729070">
        <ele>-38.0</ele>
        <time>2021-07-22T08:03:17Z</time>
      </trkpt>
      <trkpt lat="43.5415680" lon="-6.4728590">
        <ele>-38.0</ele>
        <time>2021-07-22T08:03:20Z</time>
      </trkpt>
      <trkpt lat="43.5416020" lon="-6.4728400">
        <ele>-38.0</ele>
        <time>2021-07-22T08:03:21Z</time>
      </trkpt>
      <trkpt lat="43.5416990" lon="-6.4727740">
        <ele>-37.6</ele>
        <time>2021-07-22T08:03:24Z</time>
      </trkpt>
      <trkpt lat="43.5417310" lon="-6.4727490">
        <ele>-37.2</ele>
        <time>2021-07-22T08:03:25Z</time>
      </trkpt>
      <trkpt lat="43.5417650" lon="-6.4727240">
        <ele>-36.8</ele>
        <time>2021-07-22T08:03:26Z</time>
      </trkpt>
      <trkpt lat="43.5417990" lon="-6.4726930">
        <ele>-36.4</ele>
        <time>2021-07-22T08:03:27Z</time>
      </trkpt>
      <trkpt lat="43.5418330" lon="-6.4726620">
        <ele>-35.8</ele>
        <time>2021-07-22T08:03:28Z</time>
      </trkpt>
      <trkpt lat="43.5419570" lon="-6.4725530">
        <ele>-35.8</ele>
        <time>2021-07-22T08:03:32Z</time>
      </trkpt>
      <trkpt lat="43.5420400" lon="-6.4724760">
        <ele>-35.8</ele>
        <time>2021-07-22T08:03:35Z</time>
      </trkpt>
      <trkpt lat="43.5422170" lon="-6.4723160">
        <ele>-35.8</ele>
        <time>2021-07-22T08:03:41Z</time>
      </trkpt>
      <trkpt lat="43.5422790" lon="-6.4722630">
        <ele>-35.4</ele>
        <time>2021-07-22T08:03:43Z</time>
      </trkpt>
      <trkpt lat="43.5423130" lon="-6.4722320">
        <ele>-35.0</ele>
        <time>2021-07-22T08:03:44Z</time>
      </trkpt>
      <trkpt lat="43.5423470" lon="-6.4722020">
        <ele>-34.6</ele>
        <time>2021-07-22T08:03:45Z</time>
      </trkpt>
      <trkpt lat="43.5423830" lon="-6.4721710">
        <ele>-33.8</ele>
        <time>2021-07-22T08:03:46Z</time>
      </trkpt>
      <trkpt lat="43.5424830" lon="-6.4720800">
        <ele>-33.8</ele>
        <time>2021-07-22T08:03:49Z</time>
      </trkpt>
      <trkpt lat="43.5426970" lon="-6.4718680">
        <ele>-33.8</ele>
        <time>2021-07-22T08:03:56Z</time>
      </trkpt>
      <trkpt lat="43.5428280" lon="-6.4717270">
        <ele>-33.4</ele>
        <time>2021-07-22T08:04:01Z</time>
      </trkpt>
      <trkpt lat="43.5428490" lon="-6.4717020">
        <ele>-33.0</ele>
        <time>2021-07-22T08:04:02Z</time>
      </trkpt>
      <trkpt lat="43.5428750" lon="-6.4716810">
        <ele>-32.6</ele>
        <time>2021-07-22T08:04:03Z</time>
      </trkpt>
      <trkpt lat="43.5429010" lon="-6.4716550">
        <ele>-32.2</ele>
        <time>2021-07-22T08:04:04Z</time>
      </trkpt>
      <trkpt lat="43.5429260" lon="-6.4716270">
        <ele>-31.8</ele>
        <time>2021-07-22T08:04:05Z</time>
      </trkpt>
      <trkpt lat="43.5429770" lon="-6.4715680">
        <ele>-31.8</ele>
        <time>2021-07-22T08:04:07Z</time>
      </trkpt>
      <trkpt lat="43.5431530" lon="-6.4713200">
        <ele>-31.8</ele>
        <time>2021-07-22T08:04:14Z</time>
      </trkpt>
      <trkpt lat="43.5432500" lon="-6.4711810">
        <ele>-31.4</ele>
        <time>2021-07-22T08:04:18Z</time>
      </trkpt>
      <trkpt lat="43.5432720" lon="-6.4711490">
        <ele>-31.0</ele>
        <time>2021-07-22T08:04:19Z</time>
      </trkpt>
      <trkpt lat="43.5432950" lon="-6.4711130">
        <ele>-30.6</ele>
        <time>2021-07-22T08:04:20Z</time>
      </trkpt>
      <trkpt lat="43.5433170" lon="-6.4710800">
        <ele>-30.2</ele>
        <time>2021-07-22T08:04:21Z</time>
      </trkpt>
      <trkpt lat="43.5433400" lon="-6.4710480">
        <ele>-29.8</ele>
        <time>2021-07-22T08:04:22Z</time>
      </trkpt>
      <trkpt lat="43.5435160" lon="-6.4708520">
        <ele>-29.8</ele>
        <time>2021-07-22T08:04:29Z</time>
      </trkpt>
      <trkpt lat="43.5436540" lon="-6.4707370">
        <ele>-29.8</ele>
        <time>2021-07-22T08:04:34Z</time>
      </trkpt>
      <trkpt lat="43.5437290" lon="-6.4706700">
        <ele>-29.4</ele>
        <time>2021-07-22T08:04:37Z</time>
      </trkpt>
      <trkpt lat="43.5437550" lon="-6.4706450">
        <ele>-29.0</ele>
        <time>2021-07-22T08:04:38Z</time>
      </trkpt>
      <trkpt lat="43.5437810" lon="-6.4706260">
        <ele>-28.6</ele>
        <time>2021-07-22T08:04:39Z</time>
      </trkpt>
      <trkpt lat="43.5438080" lon="-6.4706070">
        <ele>-28.2</ele>
        <time>2021-07-22T08:04:40Z</time>
      </trkpt>
      <trkpt lat="43.5438350" lon="-6.4705900">
        <ele>-27.8</ele>
        <time>2021-07-22T08:04:41Z</time>
      </trkpt>
      <trkpt lat="43.5440200" lon="-6.4704870">
        <ele>-27.8</ele>
        <time>2021-07-22T08:04:48Z</time>
      </trkpt>
      <trkpt lat="43.5442270" lon="-6.4703800">
        <ele>-27.8</ele>
        <time>2021-07-22T08:04:55Z</time>
      </trkpt>
      <trkpt lat="43.5442820" lon="-6.4703500">
        <ele>-27.4</ele>
        <time>2021-07-22T08:04:57Z</time>
      </trkpt>
      <trkpt lat="43.5443110" lon="-6.4703360">
        <ele>-27.0</ele>
        <time>2021-07-22T08:04:58Z</time>
      </trkpt>
      <trkpt lat="43.5443410" lon="-6.4703240">
        <ele>-26.0</ele>
        <time>2021-07-22T08:04:59Z</time>
      </trkpt>
      <trkpt lat="43.5443720" lon="-6.4703040">
        <ele>-25.6</ele>
        <time>2021-07-22T08:05:00Z</time>
      </trkpt>
      <trkpt lat="43.5443990" lon="-6.4702830">
        <ele>-25.6</ele>
        <time>2021-07-22T08:05:01Z</time>
      </trkpt>
      <trkpt lat="43.5445650" lon="-6.4701550">
        <ele>-25.6</ele>
        <time>2021-07-22T08:05:08Z</time>
      </trkpt>
      <trkpt lat="43.5447390" lon="-6.4700360">
        <ele>-25.6</ele>
        <time>2021-07-22T08:05:14Z</time>
      </trkpt>
      <trkpt lat="43.5447960" lon="-6.4699890">
        <ele>-25.2</ele>
        <time>2021-07-22T08:05:16Z</time>
      </trkpt>
      <trkpt lat="43.5448260" lon="-6.4699670">
        <ele>-24.8</ele>
        <time>2021-07-22T08:05:17Z</time>
      </trkpt>
      <trkpt lat="43.5448570" lon="-6.4699440">
        <ele>-24.4</ele>
        <time>2021-07-22T08:05:18Z</time>
      </trkpt>
      <trkpt lat="43.5448900" lon="-6.4699220">
        <ele>-24.0</ele>
        <time>2021-07-22T08:05:19Z</time>
      </trkpt>
      <trkpt lat="43.5449190" lon="-6.4699010">
        <ele>-23.6</ele>
        <time>2021-07-22T08:05:20Z</time>
      </trkpt>
      <trkpt lat="43.5449470" lon="-6.4698830">
        <ele>-23.6</ele>
        <time>2021-07-22T08:05:21Z</time>
      </trkpt>
      <trkpt lat="43.5450380" lon="-6.4698140">
        <ele>-23.6</ele>
        <time>2021-07-22T08:05:25Z</time>
      </trkpt>
      <trkpt lat="43.5450530" lon="-6.4698020">
        <ele>-23.6</ele>
        <time>2021-07-22T08:05:27Z</time>
      </trkpt>
      <trkpt lat="43.5450600" lon="-6.4697990">
        <ele>-23.6</ele>
        <time>2021-07-22T08:05:28Z</time>
      </trkpt>
      <trkpt lat="43.5451820" lon="-6.4697200">
        <ele>-23.6</ele>
        <time>2021-07-22T08:07:59Z</time>
      </trkpt>
      <trkpt lat="43.5451980" lon="-6.4697040">
        <ele>-23.6</ele>
        <time>2021-07-22T08:08:00Z</time>
      </trkpt>
      <trkpt lat="43.5452170" lon="-6.4696820">
        <ele>-23.6</ele>
        <time>2021-07-22T08:08:01Z</time>
      </trkpt>
      <trkpt lat="43.5452620" lon="-6.4696290">
        <ele>-23.6</ele>
        <time>2021-07-22T08:08:03Z</time>
      </trkpt>
      <trkpt lat="43.5453050" lon="-6.4695700">
        <ele>-23.6</ele>
        <time>2021-07-22T08:08:05Z</time>
      </trkpt>
      <trkpt lat="43.5453490" lon="-6.4695130">
        <ele>-23.6</ele>
        <time>2021-07-22T08:08:07Z</time>
      </trkpt>
      <trkpt lat="43.5453700" lon="-6.4694820">
        <ele>-23.2</ele>
        <time>2021-07-22T08:08:08Z</time>
      </trkpt>
      <trkpt lat="43.5453910" lon="-6.4694500">
        <ele>-22.8</ele>
        <time>2021-07-22T08:08:09Z</time>
      </trkpt>
      <trkpt lat="43.5454130" lon="-6.4694180">
        <ele>-22.4</ele>
        <time>2021-07-22T08:08:10Z</time>
      </trkpt>
      <trkpt lat="43.5454350" lon="-6.4693880">
        <ele>-22.0</ele>
        <time>2021-07-22T08:08:11Z</time>
      </trkpt>
      <trkpt lat="43.5454580" lon="-6.4693570">
        <ele>-21.6</ele>
        <time>2021-07-22T08:08:12Z</time>
      </trkpt>
      <trkpt lat="43.5455570" lon="-6.4692430">
        <ele>-21.6</ele>
        <time>2021-07-22T08:08:16Z</time>
      </trkpt>
      <trkpt lat="43.5456010" lon="-6.4691860">
        <ele>-21.6</ele>
        <time>2021-07-22T08:08:18Z</time>
      </trkpt>
      <trkpt lat="43.5456700" lon="-6.4691240">
        <ele>-21.6</ele>
        <time>2021-07-22T08:08:21Z</time>
      </trkpt>
      <trkpt lat="43.5456960" lon="-6.4691080">
        <ele>-21.6</ele>
        <time>2021-07-22T08:08:22Z</time>
      </trkpt>
      <trkpt lat="43.5457220" lon="-6.4690930">
        <ele>-21.2</ele>
        <time>2021-07-22T08:08:23Z</time>
      </trkpt>
      <trkpt lat="43.5457480" lon="-6.4690780">
        <ele>-20.8</ele>
        <time>2021-07-22T08:08:24Z</time>
      </trkpt>
      <trkpt lat="43.5457750" lon="-6.4690640">
        <ele>-20.4</ele>
        <time>2021-07-22T08:08:25Z</time>
      </trkpt>
      <trkpt lat="43.5458010" lon="-6.4690520">
        <ele>-20.0</ele>
        <time>2021-07-22T08:08:26Z</time>
      </trkpt>
      <trkpt lat="43.5458260" lon="-6.4690370">
        <ele>-19.4</ele>
        <time>2021-07-22T08:08:27Z</time>
      </trkpt>
      <trkpt lat="43.5458930" lon="-6.4690110">
        <ele>-19.4</ele>
        <time>2021-07-22T08:08:29Z</time>
      </trkpt>
      <trkpt lat="43.5460650" lon="-6.4689630">
        <ele>-19.4</ele>
        <time>2021-07-22T08:08:34Z</time>
      </trkpt>
      <trkpt lat="43.5462050" lon="-6.4689380">
        <ele>-19.4</ele>
        <time>2021-07-22T08:08:38Z</time>
      </trkpt>
      <trkpt lat="43.5463350" lon="-6.4688940">
        <ele>-19.0</ele>
        <time>2021-07-22T08:08:42Z</time>
      </trkpt>
      <trkpt lat="43.5463660" lon="-6.4688830">
        <ele>-18.6</ele>
        <time>2021-07-22T08:08:43Z</time>
      </trkpt>
      <trkpt lat="43.5463980" lon="-6.4688660">
        <ele>-18.2</ele>
        <time>2021-07-22T08:08:44Z</time>
      </trkpt>
      <trkpt lat="43.5464280" lon="-6.4688490">
        <ele>-17.8</ele>
        <time>2021-07-22T08:08:45Z</time>
      </trkpt>
      <trkpt lat="43.5464590" lon="-6.4688310">
        <ele>-17.4</ele>
        <time>2021-07-22T08:08:46Z</time>
      </trkpt>
      <trkpt lat="43.5464920" lon="-6.4688170">
        <ele>-17.4</ele>
        <time>2021-07-22T08:08:47Z</time>
      </trkpt>
      <trkpt lat="43.5466740" lon="-6.4686710">
        <ele>-17.4</ele>
        <time>2021-07-22T08:08:54Z</time>
      </trkpt>
      <trkpt lat="43.5468160" lon="-6.4685120">
        <ele>-17.0</ele>
        <time>2021-07-22T08:09:00Z</time>
      </trkpt>
      <trkpt lat="43.5468380" lon="-6.4684910">
        <ele>-16.6</ele>
        <time>2021-07-22T08:09:01Z</time>
      </trkpt>
      <trkpt lat="43.5468580" lon="-6.4684730">
        <ele>-16.2</ele>
        <time>2021-07-22T08:09:02Z</time>
      </trkpt>
      <trkpt lat="43.5468770" lon="-6.4684530">
        <ele>-15.8</ele>
        <time>2021-07-22T08:09:03Z</time>
      </trkpt>
      <trkpt lat="43.5468980" lon="-6.4684350">
        <ele>-15.4</ele>
        <time>2021-07-22T08:09:04Z</time>
      </trkpt>
      <trkpt lat="43.5470390" lon="-6.4683200">
        <ele>-15.4</ele>
        <time>2021-07-22T08:09:10Z</time>
      </trkpt>
      <trkpt lat="43.5470810" lon="-6.4682970">
        <ele>-15.0</ele>
        <time>2021-07-22T08:09:12Z</time>
      </trkpt>
      <trkpt lat="43.5471050" lon="-6.4683010">
        <ele>-14.6</ele>
        <time>2021-07-22T08:09:13Z</time>
      </trkpt>
      <trkpt lat="43.5471300" lon="-6.4683030">
        <ele>-14.2</ele>
        <time>2021-07-22T08:09:14Z</time>
      </trkpt>
      <trkpt lat="43.5471670" lon="-6.4683150">
        <ele>-13.8</ele>
        <time>2021-07-22T08:09:15Z</time>
      </trkpt>
      <trkpt lat="43.5472020" lon="-6.4683270">
        <ele>-13.4</ele>
        <time>2021-07-22T08:09:16Z</time>
      </trkpt>
      <trkpt lat="43.5473580" lon="-6.4684360">
        <ele>-13.4</ele>
        <time>2021-07-22T08:09:21Z</time>
      </trkpt>
      <trkpt lat="43.5474160" lon="-6.4686550">
        <ele>-13.4</ele>
        <time>2021-07-22T08:09:26Z</time>
      </trkpt>
      <trkpt lat="43.5473790" lon="-6.4689410">
        <ele>-13.4</ele>
        <time>2021-07-22T08:09:32Z</time>
      </trkpt>
      <trkpt lat="43.5473580" lon="-6.4690290">
        <ele>-13.0</ele>
        <time>2021-07-22T08:09:34Z</time>
      </trkpt>
      <trkpt lat="43.5473460" lon="-6.4690700">
        <ele>-12.6</ele>
        <time>2021-07-22T08:09:35Z</time>
      </trkpt>
      <trkpt lat="43.5473350" lon="-6.4691080">
        <ele>-12.0</ele>
        <time>2021-07-22T08:09:36Z</time>
      </trkpt>
      <trkpt lat="43.5473250" lon="-6.4691500">
        <ele>-11.6</ele>
        <time>2021-07-22T08:09:37Z</time>
      </trkpt>
      <trkpt lat="43.5473160" lon="-6.4691910">
        <ele>-11.2</ele>
        <time>2021-07-22T08:09:38Z</time>
      </trkpt>
      <trkpt lat="43.5472900" lon="-6.4692700">
        <ele>-11.2</ele>
        <time>2021-07-22T08:09:40Z</time>
      </trkpt>
      <trkpt lat="43.5471870" lon="-6.4696320">
        <ele>-11.2</ele>
        <time>2021-07-22T08:09:49Z</time>
      </trkpt>
      <trkpt lat="43.5471240" lon="-6.4698570">
        <ele>-10.8</ele>
        <time>2021-07-22T08:09:55Z</time>
      </trkpt>
      <trkpt lat="43.5471110" lon="-6.4698950">
        <ele>-10.0</ele>
        <time>2021-07-22T08:09:56Z</time>
      </trkpt>
      <trkpt lat="43.5470990" lon="-6.4699340">
        <ele>-9.6</ele>
        <time>2021-07-22T08:09:57Z</time>
      </trkpt>
      <trkpt lat="43.5470900" lon="-6.4699730">
        <ele>-9.2</ele>
        <time>2021-07-22T08:09:58Z</time>
      </trkpt>
      <trkpt lat="43.5470250" lon="-6.4702100">
        <ele>-9.2</ele>
        <time>2021-07-22T08:10:04Z</time>
      </trkpt>
      <trkpt lat="43.5469320" lon="-6.4705560">
        <ele>-9.2</ele>
        <time>2021-07-22T08:10:13Z</time>
      </trkpt>
      <trkpt lat="43.5469200" lon="-6.4705900">
        <ele>-8.8</ele>
        <time>2021-07-22T08:10:14Z</time>
      </trkpt>
      <trkpt lat="43.5469080" lon="-6.4706240">
        <ele>-8.4</ele>
        <time>2021-07-22T08:10:15Z</time>
      </trkpt>
      <trkpt lat="43.5468960" lon="-6.4706580">
        <ele>-8.0</ele>
        <time>2021-07-22T08:10:16Z</time>
      </trkpt>
      <trkpt lat="43.5468860" lon="-6.4706920">
        <ele>-7.6</ele>
        <time>2021-07-22T08:10:17Z</time>
      </trkpt>
      <trkpt lat="43.5468770" lon="-6.4707260">
        <ele>-7.2</ele>
        <time>2021-07-22T08:10:18Z</time>
      </trkpt>
      <trkpt lat="43.5468470" lon="-6.4708280">
        <ele>-7.2</ele>
        <time>2021-07-22T08:10:21Z</time>
      </trkpt>
      <trkpt lat="43.5467630" lon="-6.4711730">
        <ele>-7.2</ele>
        <time>2021-07-22T08:10:31Z</time>
      </trkpt>
      <trkpt lat="43.5466950" lon="-6.4714210">
        <ele>-6.8</ele>
        <time>2021-07-22T08:10:38Z</time>
      </trkpt>
      <trkpt lat="43.5466820" lon="-6.4714620">
        <ele>-6.4</ele>
        <time>2021-07-22T08:10:39Z</time>
      </trkpt>
      <trkpt lat="43.5466730" lon="-6.4715000">
        <ele>-6.0</ele>
        <time>2021-07-22T08:10:40Z</time>
      </trkpt>
      <trkpt lat="43.5466630" lon="-6.4715370">
        <ele>-5.6</ele>
        <time>2021-07-22T08:10:41Z</time>
      </trkpt>
      <trkpt lat="43.5466500" lon="-6.4715740">
        <ele>-5.2</ele>
        <time>2021-07-22T08:10:42Z</time>
      </trkpt>
      <trkpt lat="43.5466130" lon="-6.4716810">
        <ele>-5.2</ele>
        <time>2021-07-22T08:10:45Z</time>
      </trkpt>
      <trkpt lat="43.5464880" lon="-6.4720240">
        <ele>-4.8</ele>
        <time>2021-07-22T08:10:55Z</time>
      </trkpt>
      <trkpt lat="43.5464720" lon="-6.4720540">
        <ele>-4.4</ele>
        <time>2021-07-22T08:10:56Z</time>
      </trkpt>
      <trkpt lat="43.5464560" lon="-6.4720830">
        <ele>-4.0</ele>
        <time>2021-07-22T08:10:57Z</time>
      </trkpt>
      <trkpt lat="43.5464410" lon="-6.4721150">
        <ele>-3.6</ele>
        <time>2021-07-22T08:10:58Z</time>
      </trkpt>
      <trkpt lat="43.5464240" lon="-6.4721460">
        <ele>-3.2</ele>
        <time>2021-07-22T08:10:59Z</time>
      </trkpt>
      <trkpt lat="43.5463480" lon="-6.4722900">
        <ele>-3.2</ele>
        <time>2021-07-22T08:11:04Z</time>
      </trkpt>
      <trkpt lat="43.5462400" lon="-6.4724570">
        <ele>-3.2</ele>
        <time>2021-07-22T08:11:10Z</time>
      </trkpt>
      <trkpt lat="43.5461050" lon="-6.4726380">
        <ele>-2.8</ele>
        <time>2021-07-22T08:11:17Z</time>
      </trkpt>
      <trkpt lat="43.5460830" lon="-6.4726630">
        <ele>-2.2</ele>
        <time>2021-07-22T08:11:18Z</time>
      </trkpt>
      <trkpt lat="43.5460620" lon="-6.4726880">
        <ele>-1.8</ele>
        <time>2021-07-22T08:11:19Z</time>
      </trkpt>
      <trkpt lat="43.5460410" lon="-6.4727110">
        <ele>-1.4</ele>
        <time>2021-07-22T08:11:20Z</time>
      </trkpt>
      <trkpt lat="43.5460210" lon="-6.4727350">
        <ele>-1.0</ele>
        <time>2021-07-22T08:11:21Z</time>
      </trkpt>
      <trkpt lat="43.5459010" lon="-6.4728880">
        <ele>-1.0</ele>
        <time>2021-07-22T08:11:27Z</time>
      </trkpt>
      <trkpt lat="43.5457720" lon="-6.4730620">
        <ele>-1.0</ele>
        <time>2021-07-22T08:11:34Z</time>
      </trkpt>
      <trkpt lat="43.5456130" lon="-6.4732730">
        <ele>-0.6</ele>
        <time>2021-07-22T08:11:42Z</time>
      </trkpt>
      <trkpt lat="43.5455980" lon="-6.4733000">
        <ele>-0.2</ele>
        <time>2021-07-22T08:11:43Z</time>
      </trkpt>
      <trkpt lat="43.5455800" lon="-6.4733320">
        <ele>0.2</ele>
        <time>2021-07-22T08:11:44Z</time>
      </trkpt>
      <trkpt lat="43.5455630" lon="-6.4733590">
        <ele>0.6</ele>
        <time>2021-07-22T08:11:45Z</time>
      </trkpt>
      <trkpt lat="43.5455470" lon="-6.4733890">
        <ele>1.0</ele>
        <time>2021-07-22T08:11:46Z</time>
      </trkpt>
      <trkpt lat="43.5455130" lon="-6.4734500">
        <ele>1.0</ele>
        <time>2021-07-22T08:11:48Z</time>
      </trkpt>
      <trkpt lat="43.5453820" lon="-6.4737090">
        <ele>1.0</ele>
        <time>2021-07-22T08:11:56Z</time>
      </trkpt>
      <trkpt lat="43.5452910" lon="-6.4739010">
        <ele>1.4</ele>
        <time>2021-07-22T08:12:02Z</time>
      </trkpt>
      <trkpt lat="43.5452750" lon="-6.4739350">
        <ele>1.8</ele>
        <time>2021-07-22T08:12:04Z</time>
      </trkpt>
      <trkpt lat="43.5452580" lon="-6.4739670">
        <ele>2.2</ele>
        <time>2021-07-22T08:12:05Z</time>
      </trkpt>
      <trkpt lat="43.5452410" lon="-6.4739970">
        <ele>2.6</ele>
        <time>2021-07-22T08:12:06Z</time>
      </trkpt>
      <trkpt lat="43.5452250" lon="-6.4740260">
        <ele>3.0</ele>
        <time>2021-07-22T08:12:07Z</time>
      </trkpt>
      <trkpt lat="43.5451330" lon="-6.4741830">
        <ele>3.0</ele>
        <time>2021-07-22T08:12:12Z</time>
      </trkpt>
      <trkpt lat="43.5450110" lon="-6.4744380">
        <ele>3.0</ele>
        <time>2021-07-22T08:12:20Z</time>
      </trkpt>
      <trkpt lat="43.5449660" lon="-6.4745220">
        <ele>3.6</ele>
        <time>2021-07-22T08:12:23Z</time>
      </trkpt>
      <trkpt lat="43.5449500" lon="-6.4745520">
        <ele>4.0</ele>
        <time>2021-07-22T08:12:24Z</time>
      </trkpt>
      <trkpt lat="43.5449390" lon="-6.4745840">
        <ele>4.8</ele>
        <time>2021-07-22T08:12:25Z</time>
      </trkpt>
      <trkpt lat="43.5449250" lon="-6.4746140">
        <ele>5.2</ele>
        <time>2021-07-22T08:12:26Z</time>
      </trkpt>
      <trkpt lat="43.5449110" lon="-6.4746430">
        <ele>5.2</ele>
        <time>2021-07-22T08:12:27Z</time>
      </trkpt>
      <trkpt lat="43.5447880" lon="-6.4748930">
        <ele>5.2</ele>
        <time>2021-07-22T08:12:35Z</time>
      </trkpt>
      <trkpt lat="43.5447060" lon="-6.4750490">
        <ele>5.6</ele>
        <time>2021-07-22T08:12:40Z</time>
      </trkpt>
      <trkpt lat="43.5446920" lon="-6.4750830">
        <ele>6.0</ele>
        <time>2021-07-22T08:12:41Z</time>
      </trkpt>
      <trkpt lat="43.5446730" lon="-6.4751100">
        <ele>6.4</ele>
        <time>2021-07-22T08:12:42Z</time>
      </trkpt>
      <trkpt lat="43.5446540" lon="-6.4751400">
        <ele>6.8</ele>
        <time>2021-07-22T08:12:43Z</time>
      </trkpt>
      <trkpt lat="43.5446390" lon="-6.4751680">
        <ele>7.4</ele>
        <time>2021-07-22T08:12:44Z</time>
      </trkpt>
      <trkpt lat="43.5445330" lon="-6.4753680">
        <ele>7.4</ele>
        <time>2021-07-22T08:12:51Z</time>
      </trkpt>
      <trkpt lat="43.5443590" lon="-6.4755480">
        <ele>7.8</ele>
        <time>2021-07-22T08:12:59Z</time>
      </trkpt>
      <trkpt lat="43.5443370" lon="-6.4755710">
        <ele>8.2</ele>
        <time>2021-07-22T08:13:00Z</time>
      </trkpt>
      <trkpt lat="43.5443140" lon="-6.4755900">
        <ele>8.6</ele>
        <time>2021-07-22T08:13:01Z</time>
      </trkpt>
      <trkpt lat="43.5442930" lon="-6.4756100">
        <ele>9.0</ele>
        <time>2021-07-22T08:13:02Z</time>
      </trkpt>
      <trkpt lat="43.5442670" lon="-6.4756280">
        <ele>9.4</ele>
        <time>2021-07-22T08:13:03Z</time>
      </trkpt>
      <trkpt lat="43.5441300" lon="-6.4756920">
        <ele>9.4</ele>
        <time>2021-07-22T08:13:08Z</time>
      </trkpt>
      <trkpt lat="43.5439060" lon="-6.4757860">
        <ele>9.4</ele>
        <time>2021-07-22T08:13:16Z</time>
      </trkpt>
      <trkpt lat="43.5436710" lon="-6.4758820">
        <ele>9.8</ele>
        <time>2021-07-22T08:13:25Z</time>
      </trkpt>
      <trkpt lat="43.5436450" lon="-6.4758940">
        <ele>10.2</ele>
        <time>2021-07-22T08:13:26Z</time>
      </trkpt>
      <trkpt lat="43.5436190" lon="-6.4759050">
        <ele>10.6</ele>
        <time>2021-07-22T08:13:27Z</time>
      </trkpt>
      <trkpt lat="43.5435960" lon="-6.4759190">
        <ele>11.2</ele>
        <time>2021-07-22T08:13:28Z</time>
      </trkpt>
      <trkpt lat="43.5435710" lon="-6.4759330">
        <ele>11.6</ele>
        <time>2021-07-22T08:13:29Z</time>
      </trkpt>
      <trkpt lat="43.5434790" lon="-6.4759860">
        <ele>11.6</ele>
        <time>2021-07-22T08:13:33Z</time>
      </trkpt>
      <trkpt lat="43.5432940" lon="-6.4761150">
        <ele>11.6</ele>
        <time>2021-07-22T08:13:41Z</time>
      </trkpt>
      <trkpt lat="43.5432710" lon="-6.4761330">
        <ele>12.0</ele>
        <time>2021-07-22T08:13:42Z</time>
      </trkpt>
      <trkpt lat="43.5432520" lon="-6.4761530">
        <ele>12.4</ele>
        <time>2021-07-22T08:13:43Z</time>
      </trkpt>
      <trkpt lat="43.5432340" lon="-6.4761740">
        <ele>12.8</ele>
        <time>2021-07-22T08:13:44Z</time>
      </trkpt>
      <trkpt lat="43.5432150" lon="-6.4761920">
        <ele>13.2</ele>
        <time>2021-07-22T08:13:45Z</time>
      </trkpt>
      <trkpt lat="43.5431980" lon="-6.4762110">
        <ele>13.6</ele>
        <time>2021-07-22T08:13:46Z</time>
      </trkpt>
      <trkpt lat="43.5431700" lon="-6.4762570">
        <ele>13.6</ele>
        <time>2021-07-22T08:13:48Z</time>
      </trkpt>
      <trkpt lat="43.5430890" lon="-6.4764560">
        <ele>13.6</ele>
        <time>2021-07-22T08:13:55Z</time>
      </trkpt>
      <trkpt lat="43.5430820" lon="-6.4764850">
        <ele>14.0</ele>
        <time>2021-07-22T08:13:56Z</time>
      </trkpt>
      <trkpt lat="43.5430740" lon="-6.4765160">
        <ele>14.4</ele>
        <time>2021-07-22T08:13:57Z</time>
      </trkpt>
      <trkpt lat="43.5430620" lon="-6.4765460">
        <ele>14.8</ele>
        <time>2021-07-22T08:13:58Z</time>
      </trkpt>
      <trkpt lat="43.5430540" lon="-6.4765760">
        <ele>15.2</ele>
        <time>2021-07-22T08:13:59Z</time>
      </trkpt>
      <trkpt lat="43.5430430" lon="-6.4766060">
        <ele>15.6</ele>
        <time>2021-07-22T08:14:00Z</time>
      </trkpt>
      <trkpt lat="43.5430110" lon="-6.4767980">
        <ele>15.6</ele>
        <time>2021-07-22T08:14:05Z</time>
      </trkpt>
      <trkpt lat="43.5430000" lon="-6.4768710">
        <ele>16.0</ele>
        <time>2021-07-22T08:14:07Z</time>
      </trkpt>
      <trkpt lat="43.5429940" lon="-6.4769010">
        <ele>16.4</ele>
        <time>2021-07-22T08:14:08Z</time>
      </trkpt>
      <trkpt lat="43.5429910" lon="-6.4769310">
        <ele>16.8</ele>
        <time>2021-07-22T08:14:09Z</time>
      </trkpt>
      <trkpt lat="43.5429880" lon="-6.4769660">
        <ele>17.2</ele>
        <time>2021-07-22T08:14:10Z</time>
      </trkpt>
      <trkpt lat="43.5429890" lon="-6.4770010">
        <ele>17.6</ele>
        <time>2021-07-22T08:14:11Z</time>
      </trkpt>
      <trkpt lat="43.5429890" lon="-6.4770680">
        <ele>17.6</ele>
        <time>2021-07-22T08:14:13Z</time>
      </trkpt>
      <trkpt lat="43.5430040" lon="-6.4773720">
        <ele>17.6</ele>
        <time>2021-07-22T08:14:22Z</time>
      </trkpt>
      <trkpt lat="43.5430260" lon="-6.4774700">
        <ele>18.0</ele>
        <time>2021-07-22T08:14:25Z</time>
      </trkpt>
      <trkpt lat="43.5430290" lon="-6.4775080">
        <ele>18.4</ele>
        <time>2021-07-22T08:14:26Z</time>
      </trkpt>
      <trkpt lat="43.5430310" lon="-6.4775440">
        <ele>18.8</ele>
        <time>2021-07-22T08:14:27Z</time>
      </trkpt>
      <trkpt lat="43.5430350" lon="-6.4775770">
        <ele>19.2</ele>
        <time>2021-07-22T08:14:28Z</time>
      </trkpt>
      <trkpt lat="43.5430350" lon="-6.4776120">
        <ele>19.6</ele>
        <time>2021-07-22T08:14:29Z</time>
      </trkpt>
      <trkpt lat="43.5430710" lon="-6.4778980">
        <ele>19.6</ele>
        <time>2021-07-22T08:14:38Z</time>
      </trkpt>
      <trkpt lat="43.5430820" lon="-6.4779620">
        <ele>20.0</ele>
        <time>2021-07-22T08:14:40Z</time>
      </trkpt>
      <trkpt lat="43.5430860" lon="-6.4779950">
        <ele>20.4</ele>
        <time>2021-07-22T08:14:41Z</time>
      </trkpt>
      <trkpt lat="43.5430900" lon="-6.4780280">
        <ele>21.0</ele>
        <time>2021-07-22T08:14:42Z</time>
      </trkpt>
      <trkpt lat="43.5430970" lon="-6.4780590">
        <ele>21.4</ele>
        <time>2021-07-22T08:14:43Z</time>
      </trkpt>
      <trkpt lat="43.5431030" lon="-6.4780860">
        <ele>21.8</ele>
        <time>2021-07-22T08:14:44Z</time>
      </trkpt>
      <trkpt lat="43.5431070" lon="-6.4781450">
        <ele>21.8</ele>
        <time>2021-07-22T08:14:46Z</time>
      </trkpt>
      <trkpt lat="43.5431300" lon="-6.4783320">
        <ele>21.8</ele>
        <time>2021-07-22T08:14:52Z</time>
      </trkpt>
      <trkpt lat="43.5431500" lon="-6.4784570">
        <ele>22.2</ele>
        <time>2021-07-22T08:14:56Z</time>
      </trkpt>
      <trkpt lat="43.5431520" lon="-6.4784880">
        <ele>22.6</ele>
        <time>2021-07-22T08:14:57Z</time>
      </trkpt>
      <trkpt lat="43.5431550" lon="-6.4785200">
        <ele>23.0</ele>
        <time>2021-07-22T08:14:58Z</time>
      </trkpt>
      <trkpt lat="43.5431590" lon="-6.4785500">
        <ele>23.4</ele>
        <time>2021-07-22T08:14:59Z</time>
      </trkpt>
      <trkpt lat="43.5431630" lon="-6.4785830">
        <ele>23.8</ele>
        <time>2021-07-22T08:15:00Z</time>
      </trkpt>
      <trkpt lat="43.5431650" lon="-6.4788630">
        <ele>23.8</ele>
        <time>2021-07-22T08:15:09Z</time>
      </trkpt>
      <trkpt lat="43.5431630" lon="-6.4789600">
        <ele>24.2</ele>
        <time>2021-07-22T08:15:12Z</time>
      </trkpt>
      <trkpt lat="43.5431590" lon="-6.4789920">
        <ele>24.8</ele>
        <time>2021-07-22T08:15:13Z</time>
      </trkpt>
      <trkpt lat="43.5431530" lon="-6.4790240">
        <ele>25.2</ele>
        <time>2021-07-22T08:15:14Z</time>
      </trkpt>
      <trkpt lat="43.5431450" lon="-6.4790570">
        <ele>25.6</ele>
        <time>2021-07-22T08:15:15Z</time>
      </trkpt>
      <trkpt lat="43.5431380" lon="-6.4790880">
        <ele>26.0</ele>
        <time>2021-07-22T08:15:16Z</time>
      </trkpt>
      <trkpt lat="43.5431250" lon="-6.4791520">
        <ele>26.0</ele>
        <time>2021-07-22T08:15:18Z</time>
      </trkpt>
      <trkpt lat="43.5430470" lon="-6.4793630">
        <ele>26.0</ele>
        <time>2021-07-22T08:15:25Z</time>
      </trkpt>
      <trkpt lat="43.5429510" lon="-6.4795300">
        <ele>26.0</ele>
        <time>2021-07-22T08:15:31Z</time>
      </trkpt>
      <trkpt lat="43.5428430" lon="-6.4796830">
        <ele>26.0</ele>
        <time>2021-07-22T08:15:37Z</time>
      </trkpt>
      <trkpt lat="43.5428040" lon="-6.4797320">
        <ele>26.4</ele>
        <time>2021-07-22T08:15:39Z</time>
      </trkpt>
      <trkpt lat="43.5427850" lon="-6.4797560">
        <ele>26.8</ele>
        <time>2021-07-22T08:15:40Z</time>
      </trkpt>
      <trkpt lat="43.5427630" lon="-6.4797820">
        <ele>27.2</ele>
        <time>2021-07-22T08:15:41Z</time>
      </trkpt>
      <trkpt lat="43.5427430" lon="-6.4798060">
        <ele>27.6</ele>
        <time>2021-07-22T08:15:42Z</time>
      </trkpt>
      <trkpt lat="43.5427240" lon="-6.4798320">
        <ele>28.0</ele>
        <time>2021-07-22T08:15:43Z</time>
      </trkpt>
      <trkpt lat="43.5426170" lon="-6.4799600">
        <ele>28.0</ele>
        <time>2021-07-22T08:15:48Z</time>
      </trkpt>
      <trkpt lat="43.5424630" lon="-6.4801560">
        <ele>28.0</ele>
        <time>2021-07-22T08:15:56Z</time>
      </trkpt>
      <trkpt lat="43.5424040" lon="-6.4802640">
        <ele>28.0</ele>
        <time>2021-07-22T08:16:01Z</time>
      </trkpt>
      <trkpt lat="43.5424050" lon="-6.4802790">
        <ele>28.0</ele>
        <time>2021-07-22T08:16:02Z</time>
      </trkpt>
      <trkpt lat="43.5424080" lon="-6.4802880">
        <ele>28.0</ele>
        <time>2021-07-22T08:16:04Z</time>
      </trkpt>
      <trkpt lat="43.5423770" lon="-6.4803150">
        <ele>28.0</ele>
        <time>2021-07-22T08:18:45Z</time>
      </trkpt>
      <trkpt lat="43.5423610" lon="-6.4803160">
        <ele>28.0</ele>
        <time>2021-07-22T08:18:46Z</time>
      </trkpt>
      <trkpt lat="43.5423070" lon="-6.4803550">
        <ele>28.0</ele>
        <time>2021-07-22T08:18:50Z</time>
      </trkpt>
      <trkpt lat="43.5422640" lon="-6.4803900">
        <ele>28.4</ele>
        <time>2021-07-22T08:18:52Z</time>
      </trkpt>
      <trkpt lat="43.5422440" lon="-6.4804170">
        <ele>28.8</ele>
        <time>2021-07-22T08:18:53Z</time>
      </trkpt>
      <trkpt lat="43.5422180" lon="-6.4804390">
        <ele>29.2</ele>
        <time>2021-07-22T08:18:54Z</time>
      </trkpt>
      <trkpt lat="43.5421980" lon="-6.4804650">
        <ele>29.6</ele>
        <time>2021-07-22T08:18:55Z</time>
      </trkpt>
      <trkpt lat="43.5421740" lon="-6.4804900">
        <ele>30.2</ele>
        <time>2021-07-22T08:18:56Z</time>
      </trkpt>
      <trkpt lat="43.5420610" lon="-6.4806280">
        <ele>30.2</ele>
        <time>2021-07-22T08:19:01Z</time>
      </trkpt>
      <trkpt lat="43.5420180" lon="-6.4806780">
        <ele>30.2</ele>
        <time>2021-07-22T08:19:03Z</time>
      </trkpt>
      <trkpt lat="43.5419080" lon="-6.4808030">
        <ele>30.2</ele>
        <time>2021-07-22T08:19:08Z</time>
      </trkpt>
      <trkpt lat="43.5418450" lon="-6.4808830">
        <ele>30.2</ele>
        <time>2021-07-22T08:19:11Z</time>
      </trkpt>
      <trkpt lat="43.5418240" lon="-6.4809110">
        <ele>30.6</ele>
        <time>2021-07-22T08:19:12Z</time>
      </trkpt>
      <trkpt lat="43.5418020" lon="-6.4809360">
        <ele>31.0</ele>
        <time>2021-07-22T08:19:13Z</time>
      </trkpt>
      <trkpt lat="43.5417810" lon="-6.4809620">
        <ele>31.4</ele>
        <time>2021-07-22T08:19:14Z</time>
      </trkpt>
      <trkpt lat="43.5417600" lon="-6.4809880">
        <ele>31.8</ele>
        <time>2021-07-22T08:19:15Z</time>
      </trkpt>
      <trkpt lat="43.5417390" lon="-6.4810120">
        <ele>32.2</ele>
        <time>2021-07-22T08:19:16Z</time>
      </trkpt>
      <trkpt lat="43.5416250" lon="-6.4811470">
        <ele>32.2</ele>
        <time>2021-07-22T08:19:21Z</time>
      </trkpt>
      <trkpt lat="43.5414640" lon="-6.4813230">
        <ele>32.6</ele>
        <time>2021-07-22T08:19:28Z</time>
      </trkpt>
      <trkpt lat="43.5414420" lon="-6.4813490">
        <ele>33.0</ele>
        <time>2021-07-22T08:19:29Z</time>
      </trkpt>
      <trkpt lat="43.5414210" lon="-6.4813730">
        <ele>33.4</ele>
        <time>2021-07-22T08:19:30Z</time>
      </trkpt>
      <trkpt lat="43.5414010" lon="-6.4813940">
        <ele>33.8</ele>
        <time>2021-07-22T08:19:31Z</time>
      </trkpt>
      <trkpt lat="43.5413790" lon="-6.4814170">
        <ele>34.2</ele>
        <time>2021-07-22T08:19:32Z</time>
      </trkpt>
      <trkpt lat="43.5411800" lon="-6.4815910">
        <ele>34.2</ele>
        <time>2021-07-22T08:19:41Z</time>
      </trkpt>
      <trkpt lat="43.5410480" lon="-6.4816570">
        <ele>34.6</ele>
        <time>2021-07-22T08:19:46Z</time>
      </trkpt>
      <trkpt lat="43.5410210" lon="-6.4816710">
        <ele>35.0</ele>
        <time>2021-07-22T08:19:47Z</time>
      </trkpt>
      <trkpt lat="43.5409910" lon="-6.4816780">
        <ele>35.4</ele>
        <time>2021-07-22T08:19:48Z</time>
      </trkpt>
      <trkpt lat="43.5409590" lon="-6.4816840">
        <ele>36.2</ele>
        <time>2021-07-22T08:19:49Z</time>
      </trkpt>
      <trkpt lat="43.5407960" lon="-6.4817100">
        <ele>36.2</ele>
        <time>2021-07-22T08:19:55Z</time>
      </trkpt>
      <trkpt lat="43.5407680" lon="-6.4817170">
        <ele>36.2</ele>
        <time>2021-07-22T08:19:56Z</time>
      </trkpt>
      <trkpt lat="43.5407130" lon="-6.4817230">
        <ele>36.2</ele>
        <time>2021-07-22T08:19:58Z</time>
      </trkpt>
      <trkpt lat="43.5405690" lon="-6.4817260">
        <ele>36.2</ele>
        <time>2021-07-22T08:20:03Z</time>
      </trkpt>
      <trkpt lat="43.5403460" lon="-6.4817540">
        <ele>36.2</ele>
        <time>2021-07-22T08:20:11Z</time>
      </trkpt>
      <trkpt lat="43.5402610" lon="-6.4817800">
        <ele>37.0</ele>
        <time>2021-07-22T08:20:14Z</time>
      </trkpt>
      <trkpt lat="43.5402320" lon="-6.4817900">
        <ele>37.4</ele>
        <time>2021-07-22T08:20:15Z</time>
      </trkpt>
      <trkpt lat="43.5402040" lon="-6.4818060">
        <ele>37.8</ele>
        <time>2021-07-22T08:20:16Z</time>
      </trkpt>
      <trkpt lat="43.5401740" lon="-6.4818200">
        <ele>38.4</ele>
        <time>2021-07-22T08:20:17Z</time>
      </trkpt>
      <trkpt lat="43.5401110" lon="-6.4818550">
        <ele>38.4</ele>
        <time>2021-07-22T08:20:19Z</time>
      </trkpt>
      <trkpt lat="43.5398970" lon="-6.4820460">
        <ele>38.4</ele>
        <time>2021-07-22T08:20:26Z</time>
      </trkpt>
      <trkpt lat="43.5397340" lon="-6.4822440">
        <ele>38.4</ele>
        <time>2021-07-22T08:20:32Z</time>
      </trkpt>
      <trkpt lat="43.5397090" lon="-6.4822720">
        <ele>38.4</ele>
        <time>2021-07-22T08:20:33Z</time>
      </trkpt>
      <trkpt lat="43.5395490" lon="-6.4824770">
        <ele>39.2</ele>
        <time>2021-07-22T08:20:39Z</time>
      </trkpt>
      <trkpt lat="43.5395250" lon="-6.4825160">
        <ele>39.6</ele>
        <time>2021-07-22T08:20:40Z</time>
      </trkpt>
      <trkpt lat="43.5395020" lon="-6.4825530">
        <ele>40.0</ele>
        <time>2021-07-22T08:20:41Z</time>
      </trkpt>
      <trkpt lat="43.5394790" lon="-6.4825920">
        <ele>40.4</ele>
        <time>2021-07-22T08:20:42Z</time>
      </trkpt>
      <trkpt lat="43.5392440" lon="-6.4828950">
        <ele>40.4</ele>
        <time>2021-07-22T08:20:50Z</time>
      </trkpt>
      <trkpt lat="43.5389410" lon="-6.4832510">
        <ele>40.4</ele>
        <time>2021-07-22T08:21:00Z</time>
      </trkpt>
      <trkpt lat="43.5387220" lon="-6.4835230">
        <ele>40.4</ele>
        <time>2021-07-22T08:21:08Z</time>
      </trkpt>
      <trkpt lat="43.5385150" lon="-6.4837570">
        <ele>40.4</ele>
        <time>2021-07-22T08:21:16Z</time>
      </trkpt>
      <trkpt lat="43.5384280" lon="-6.4838420">
        <ele>40.8</ele>
        <time>2021-07-22T08:21:19Z</time>
      </trkpt>
      <trkpt lat="43.5383950" lon="-6.4838660">
        <ele>41.4</ele>
        <time>2021-07-22T08:21:20Z</time>
      </trkpt>
      <trkpt lat="43.5383590" lon="-6.4838900">
        <ele>41.8</ele>
        <time>2021-07-22T08:21:21Z</time>
      </trkpt>
      <trkpt lat="43.5383180" lon="-6.4839080">
        <ele>42.2</ele>
        <time>2021-07-22T08:21:22Z</time>
      </trkpt>
      <trkpt lat="43.5382740" lon="-6.4839240">
        <ele>42.6</ele>
        <time>2021-07-22T08:21:23Z</time>
      </trkpt>
      <trkpt lat="43.5380800" lon="-6.4839790">
        <ele>42.6</ele>
        <time>2021-07-22T08:21:28Z</time>
      </trkpt>
      <trkpt lat="43.5378820" lon="-6.4839830">
        <ele>42.6</ele>
        <time>2021-07-22T08:21:33Z</time>
      </trkpt>
      <trkpt lat="43.5377800" lon="-6.4839520">
        <ele>42.6</ele>
        <time>2021-07-22T08:21:35Z</time>
      </trkpt>
      <trkpt lat="43.5376580" lon="-6.4839000">
        <ele>42.6</ele>
        <time>2021-07-22T08:21:38Z</time>
      </trkpt>
      <trkpt lat="43.5376160" lon="-6.4838920">
        <ele>42.6</ele>
        <time>2021-07-22T08:21:39Z</time>
      </trkpt>
      <trkpt lat="43.5375360" lon="-6.4838870">
        <ele>42.6</ele>
        <time>2021-07-22T08:21:41Z</time>
      </trkpt>
      <trkpt lat="43.5373130" lon="-6.4838320">
        <ele>42.6</ele>
        <time>2021-07-22T08:21:47Z</time>
      </trkpt>
      <trkpt lat="43.5370500" lon="-6.4837830">
        <ele>42.6</ele>
        <time>2021-07-22T08:21:53Z</time>
      </trkpt>
      <trkpt lat="43.5368000" lon="-6.4838330">
        <ele>42.6</ele>
        <time>2021-07-22T08:21:59Z</time>
      </trkpt>
      <trkpt lat="43.5367590" lon="-6.4838540">
        <ele>42.6</ele>
        <time>2021-07-22T08:22:00Z</time>
      </trkpt>
      <trkpt lat="43.5366080" lon="-6.4839500">
        <ele>42.6</ele>
        <time>2021-07-22T08:22:04Z</time>
      </trkpt>
      <trkpt lat="43.5365180" lon="-6.4840310">
        <ele>43.0</ele>
        <time>2021-07-22T08:22:07Z</time>
      </trkpt>
      <trkpt lat="43.5364890" lon="-6.4840620">
        <ele>43.4</ele>
        <time>2021-07-22T08:22:08Z</time>
      </trkpt>
      <trkpt lat="43.5364610" lon="-6.4840940">
        <ele>43.8</ele>
        <time>2021-07-22T08:22:09Z</time>
      </trkpt>
      <trkpt lat="43.5364330" lon="-6.4841260">
        <ele>44.2</ele>
        <time>2021-07-22T08:22:10Z</time>
      </trkpt>
      <trkpt lat="43.5364040" lon="-6.4841600">
        <ele>44.8</ele>
        <time>2021-07-22T08:22:11Z</time>
      </trkpt>
      <trkpt lat="43.5363230" lon="-6.4842810">
        <ele>44.8</ele>
        <time>2021-07-22T08:22:14Z</time>
      </trkpt>
      <trkpt lat="43.5361610" lon="-6.4844820">
        <ele>44.8</ele>
        <time>2021-07-22T08:22:21Z</time>
      </trkpt>
      <trkpt lat="43.5360180" lon="-6.4847090">
        <ele>45.2</ele>
        <time>2021-07-22T08:22:27Z</time>
      </trkpt>
      <trkpt lat="43.5359940" lon="-6.4847490">
        <ele>45.6</ele>
        <time>2021-07-22T08:22:28Z</time>
      </trkpt>
      <trkpt lat="43.5359720" lon="-6.4847900">
        <ele>46.0</ele>
        <time>2021-07-22T08:22:29Z</time>
      </trkpt>
      <trkpt lat="43.5359470" lon="-6.4848250">
        <ele>46.4</ele>
        <time>2021-07-22T08:22:30Z</time>
      </trkpt>
      <trkpt lat="43.5359220" lon="-6.4848570">
        <ele>46.8</ele>
        <time>2021-07-22T08:22:31Z</time>
      </trkpt>
      <trkpt lat="43.5358420" lon="-6.4849770">
        <ele>46.8</ele>
        <time>2021-07-22T08:22:34Z</time>
      </trkpt>
      <trkpt lat="43.5357850" lon="-6.4850640">
        <ele>46.8</ele>
        <time>2021-07-22T08:22:36Z</time>
      </trkpt>
      <trkpt lat="43.5357180" lon="-6.4851420">
        <ele>46.8</ele>
        <time>2021-07-22T08:22:38Z</time>
      </trkpt>
      <trkpt lat="43.5356530" lon="-6.4852330">
        <ele>46.8</ele>
        <time>2021-07-22T08:22:40Z</time>
      </trkpt>
      <trkpt lat="43.5356170" lon="-6.4852850">
        <ele>46.8</ele>
        <time>2021-07-22T08:22:41Z</time>
      </trkpt>
      <trkpt lat="43.5355430" lon="-6.4853940">
        <ele>46.8</ele>
        <time>2021-07-22T08:22:43Z</time>
      </trkpt>
      <trkpt lat="43.5355060" lon="-6.4854520">
        <ele>46.8</ele>
        <time>2021-07-22T08:22:44Z</time>
      </trkpt>
      <trkpt lat="43.5354690" lon="-6.4855110">
        <ele>46.4</ele>
        <time>2021-07-22T08:22:45Z</time>
      </trkpt>
      <trkpt lat="43.5354280" lon="-6.4855710">
        <ele>45.8</ele>
        <time>2021-07-22T08:22:46Z</time>
      </trkpt>
      <trkpt lat="43.5353860" lon="-6.4856300">
        <ele>45.4</ele>
        <time>2021-07-22T08:22:47Z</time>
      </trkpt>
      <trkpt lat="43.5353450" lon="-6.4856920">
        <ele>45.0</ele>
        <time>2021-07-22T08:22:48Z</time>
      </trkpt>
      <trkpt lat="43.5353030" lon="-6.4857620">
        <ele>44.6</ele>
        <time>2021-07-22T08:22:49Z</time>
      </trkpt>
      <trkpt lat="43.5352130" lon="-6.4859210">
        <ele>44.2</ele>
        <time>2021-07-22T08:22:51Z</time>
      </trkpt>
      <trkpt lat="43.5351710" lon="-6.4860210">
        <ele>43.8</ele>
        <time>2021-07-22T08:22:52Z</time>
      </trkpt>
      <trkpt lat="43.5351370" lon="-6.4861240">
        <ele>43.4</ele>
        <time>2021-07-22T08:22:53Z</time>
      </trkpt>
      <trkpt lat="43.5350990" lon="-6.4862340">
        <ele>43.0</ele>
        <time>2021-07-22T08:22:54Z</time>
      </trkpt>
      <trkpt lat="43.5350660" lon="-6.4863590">
        <ele>42.6</ele>
        <time>2021-07-22T08:22:55Z</time>
      </trkpt>
      <trkpt lat="43.5350130" lon="-6.4865880">
        <ele>42.6</ele>
        <time>2021-07-22T08:22:57Z</time>
      </trkpt>
      <trkpt lat="43.5349940" lon="-6.4869420">
        <ele>42.6</ele>
        <time>2021-07-22T08:23:01Z</time>
      </trkpt>
      <trkpt lat="43.5350030" lon="-6.4870100">
        <ele>42.6</ele>
        <time>2021-07-22T08:23:02Z</time>
      </trkpt>
      <trkpt lat="43.5350500" lon="-6.4872110">
        <ele>42.6</ele>
        <time>2021-07-22T08:23:05Z</time>
      </trkpt>
      <trkpt lat="43.5350910" lon="-6.4873290">
        <ele>42.6</ele>
        <time>2021-07-22T08:23:07Z</time>
      </trkpt>
      <trkpt lat="43.5352220" lon="-6.4875960">
        <ele>42.6</ele>
        <time>2021-07-22T08:23:13Z</time>
      </trkpt>
      <trkpt lat="43.5353020" lon="-6.4876890">
        <ele>42.6</ele>
        <time>2021-07-22T08:23:16Z</time>
      </trkpt>
      <trkpt lat="43.5353630" lon="-6.4877420">
        <ele>42.6</ele>
        <time>2021-07-22T08:23:18Z</time>
      </trkpt>
      <trkpt lat="43.5354000" lon="-6.4877610">
        <ele>42.6</ele>
        <time>2021-07-22T08:23:19Z</time>
      </trkpt>
      <trkpt lat="43.5355090" lon="-6.4878140">
        <ele>42.6</ele>
        <time>2021-07-22T08:23:22Z</time>
      </trkpt>
      <trkpt lat="43.5356080" lon="-6.4878510">
        <ele>42.6</ele>
        <time>2021-07-22T08:23:25Z</time>
      </trkpt>
      <trkpt lat="43.5356430" lon="-6.4878620">
        <ele>42.6</ele>
        <time>2021-07-22T08:23:26Z</time>
      </trkpt>
      <trkpt lat="43.5357800" lon="-6.4879040">
        <ele>42.6</ele>
        <time>2021-07-22T08:23:30Z</time>
      </trkpt>
      <trkpt lat="43.5358790" lon="-6.4879370">
        <ele>42.6</ele>
        <time>2021-07-22T08:23:33Z</time>
      </trkpt>
      <trkpt lat="43.5360980" lon="-6.4879960">
        <ele>42.6</ele>
        <time>2021-07-22T08:23:39Z</time>
      </trkpt>
      <trkpt lat="43.5363860" lon="-6.4880930">
        <ele>42.6</ele>
        <time>2021-07-22T08:23:47Z</time>
      </trkpt>
      <trkpt lat="43.5364480" lon="-6.4881230">
        <ele>43.0</ele>
        <time>2021-07-22T08:23:49Z</time>
      </trkpt>
      <trkpt lat="43.5364770" lon="-6.4881360">
        <ele>43.8</ele>
        <time>2021-07-22T08:23:50Z</time>
      </trkpt>
      <trkpt lat="43.5365040" lon="-6.4881450">
        <ele>44.2</ele>
        <time>2021-07-22T08:23:51Z</time>
      </trkpt>
      <trkpt lat="43.5365320" lon="-6.4881540">
        <ele>44.6</ele>
        <time>2021-07-22T08:23:52Z</time>
      </trkpt>
      <trkpt lat="43.5365890" lon="-6.4881830">
        <ele>44.6</ele>
        <time>2021-07-22T08:23:54Z</time>
      </trkpt>
      <trkpt lat="43.5366860" lon="-6.4882360">
        <ele>44.6</ele>
        <time>2021-07-22T08:23:57Z</time>
      </trkpt>
      <trkpt lat="43.5367960" lon="-6.4883240">
        <ele>44.6</ele>
        <time>2021-07-22T08:24:01Z</time>
      </trkpt>
      <trkpt lat="43.5369450" lon="-6.4885190">
        <ele>44.6</ele>
        <time>2021-07-22T08:24:07Z</time>
      </trkpt>
      <trkpt lat="43.5370540" lon="-6.4887840">
        <ele>44.6</ele>
        <time>2021-07-22T08:24:13Z</time>
      </trkpt>
      <trkpt lat="43.5370710" lon="-6.4888310">
        <ele>45.4</ele>
        <time>2021-07-22T08:24:14Z</time>
      </trkpt>
      <trkpt lat="43.5370900" lon="-6.4888740">
        <ele>45.8</ele>
        <time>2021-07-22T08:24:15Z</time>
      </trkpt>
      <trkpt lat="43.5371030" lon="-6.4889240">
        <ele>46.2</ele>
        <time>2021-07-22T08:24:16Z</time>
      </trkpt>
      <trkpt lat="43.5371170" lon="-6.4889700">
        <ele>46.6</ele>
        <time>2021-07-22T08:24:17Z</time>
      </trkpt>
      <trkpt lat="43.5371680" lon="-6.4890880">
        <ele>46.6</ele>
        <time>2021-07-22T08:24:20Z</time>
      </trkpt>
      <trkpt lat="43.5372640" lon="-6.4893930">
        <ele>46.6</ele>
        <time>2021-07-22T08:24:27Z</time>
      </trkpt>
      <trkpt lat="43.5373400" lon="-6.4896930">
        <ele>46.6</ele>
        <time>2021-07-22T08:24:34Z</time>
      </trkpt>
      <trkpt lat="43.5373640" lon="-6.4898260">
        <ele>47.2</ele>
        <time>2021-07-22T08:24:37Z</time>
      </trkpt>
      <trkpt lat="43.5373710" lon="-6.4898660">
        <ele>47.6</ele>
        <time>2021-07-22T08:24:38Z</time>
      </trkpt>
      <trkpt lat="43.5373810" lon="-6.4899050">
        <ele>48.4</ele>
        <time>2021-07-22T08:24:39Z</time>
      </trkpt>
      <trkpt lat="43.5373900" lon="-6.4899450">
        <ele>48.8</ele>
        <time>2021-07-22T08:24:40Z</time>
      </trkpt>
      <trkpt lat="43.5374000" lon="-6.4899880">
        <ele>48.8</ele>
        <time>2021-07-22T08:24:41Z</time>
      </trkpt>
      <trkpt lat="43.5374270" lon="-6.4903020">
        <ele>48.8</ele>
        <time>2021-07-22T08:24:48Z</time>
      </trkpt>
      <trkpt lat="43.5374440" lon="-6.4906620">
        <ele>48.8</ele>
        <time>2021-07-22T08:24:56Z</time>
      </trkpt>
      <trkpt lat="43.5374240" lon="-6.4908810">
        <ele>48.8</ele>
        <time>2021-07-22T08:25:01Z</time>
      </trkpt>
      <trkpt lat="43.5374240" lon="-6.4909750">
        <ele>48.8</ele>
        <time>2021-07-22T08:25:03Z</time>
      </trkpt>
      <trkpt lat="43.5373980" lon="-6.4912810">
        <ele>48.8</ele>
        <time>2021-07-22T08:25:09Z</time>
      </trkpt>
      <trkpt lat="43.5373870" lon="-6.4914120">
        <ele>48.8</ele>
        <time>2021-07-22T08:25:12Z</time>
      </trkpt>
      <trkpt lat="43.5373820" lon="-6.4914590">
        <ele>48.8</ele>
        <time>2021-07-22T08:25:13Z</time>
      </trkpt>
      <trkpt lat="43.5373750" lon="-6.4915570">
        <ele>48.8</ele>
        <time>2021-07-22T08:25:15Z</time>
      </trkpt>
      <trkpt lat="43.5373570" lon="-6.4919310">
        <ele>48.8</ele>
        <time>2021-07-22T08:25:22Z</time>
      </trkpt>
      <trkpt lat="43.5373520" lon="-6.4920410">
        <ele>48.8</ele>
        <time>2021-07-22T08:25:24Z</time>
      </trkpt>
      <trkpt lat="43.5373290" lon="-6.4922530">
        <ele>48.8</ele>
        <time>2021-07-22T08:25:28Z</time>
      </trkpt>
      <trkpt lat="43.5373260" lon="-6.4923040">
        <ele>48.8</ele>
        <time>2021-07-22T08:25:29Z</time>
      </trkpt>
      <trkpt lat="43.5373160" lon="-6.4924550">
        <ele>48.8</ele>
        <time>2021-07-22T08:25:32Z</time>
      </trkpt>
      <trkpt lat="43.5373060" lon="-6.4926090">
        <ele>48.8</ele>
        <time>2021-07-22T08:25:35Z</time>
      </trkpt>
      <trkpt lat="43.5373020" lon="-6.4926630">
        <ele>48.8</ele>
        <time>2021-07-22T08:25:36Z</time>
      </trkpt>
      <trkpt lat="43.5372890" lon="-6.4927700">
        <ele>48.8</ele>
        <time>2021-07-22T08:25:38Z</time>
      </trkpt>
      <trkpt lat="43.5372800" lon="-6.4928760">
        <ele>48.8</ele>
        <time>2021-07-22T08:25:40Z</time>
      </trkpt>
      <trkpt lat="43.5372690" lon="-6.4930970">
        <ele>48.8</ele>
        <time>2021-07-22T08:25:44Z</time>
      </trkpt>
      <trkpt lat="43.5372490" lon="-6.4933360">
        <ele>48.8</ele>
        <time>2021-07-22T08:25:48Z</time>
      </trkpt>
      <trkpt lat="43.5372240" lon="-6.4935780">
        <ele>48.8</ele>
        <time>2021-07-22T08:25:52Z</time>
      </trkpt>
      <trkpt lat="43.5371930" lon="-6.4938830">
        <ele>48.4</ele>
        <time>2021-07-22T08:25:57Z</time>
      </trkpt>
      <trkpt lat="43.5371880" lon="-6.4939420">
        <ele>48.0</ele>
        <time>2021-07-22T08:25:58Z</time>
      </trkpt>
      <trkpt lat="43.5371820" lon="-6.4939970">
        <ele>47.6</ele>
        <time>2021-07-22T08:25:59Z</time>
      </trkpt>
      <trkpt lat="43.5371770" lon="-6.4940530">
        <ele>47.2</ele>
        <time>2021-07-22T08:26:00Z</time>
      </trkpt>
      <trkpt lat="43.5371750" lon="-6.4941070">
        <ele>46.8</ele>
        <time>2021-07-22T08:26:01Z</time>
      </trkpt>
      <trkpt lat="43.5371670" lon="-6.4943400">
        <ele>46.8</ele>
        <time>2021-07-22T08:26:05Z</time>
      </trkpt>
      <trkpt lat="43.5371510" lon="-6.4947250">
        <ele>46.8</ele>
        <time>2021-07-22T08:26:11Z</time>
      </trkpt>
      <trkpt lat="43.5371510" lon="-6.4948560">
        <ele>46.8</ele>
        <time>2021-07-22T08:26:13Z</time>
      </trkpt>
      <trkpt lat="43.5371570" lon="-6.4950060">
        <ele>46.4</ele>
        <time>2021-07-22T08:26:15Z</time>
      </trkpt>
      <trkpt lat="43.5371530" lon="-6.4950710">
        <ele>46.0</ele>
        <time>2021-07-22T08:26:16Z</time>
      </trkpt>
      <trkpt lat="43.5371480" lon="-6.4951440">
        <ele>45.6</ele>
        <time>2021-07-22T08:26:17Z</time>
      </trkpt>
      <trkpt lat="43.5371410" lon="-6.4952220">
        <ele>44.6</ele>
        <time>2021-07-22T08:26:18Z</time>
      </trkpt>
      <trkpt lat="43.5371100" lon="-6.4956950">
        <ele>44.6</ele>
        <time>2021-07-22T08:26:24Z</time>
      </trkpt>
      <trkpt lat="43.5370880" lon="-6.4959990">
        <ele>44.6</ele>
        <time>2021-07-22T08:26:28Z</time>
      </trkpt>
      <trkpt lat="43.5370720" lon="-6.4961620">
        <ele>44.2</ele>
        <time>2021-07-22T08:26:30Z</time>
      </trkpt>
      <trkpt lat="43.5370650" lon="-6.4962490">
        <ele>43.8</ele>
        <time>2021-07-22T08:26:31Z</time>
      </trkpt>
      <trkpt lat="43.5370570" lon="-6.4963360">
        <ele>43.4</ele>
        <time>2021-07-22T08:26:32Z</time>
      </trkpt>
      <trkpt lat="43.5370480" lon="-6.4964190">
        <ele>43.0</ele>
        <time>2021-07-22T08:26:33Z</time>
      </trkpt>
      <trkpt lat="43.5370380" lon="-6.4965040">
        <ele>42.6</ele>
        <time>2021-07-22T08:26:34Z</time>
      </trkpt>
      <trkpt lat="43.5370040" lon="-6.4968370">
        <ele>42.6</ele>
        <time>2021-07-22T08:26:38Z</time>
      </trkpt>
      <trkpt lat="43.5369890" lon="-6.4970030">
        <ele>42.6</ele>
        <time>2021-07-22T08:26:40Z</time>
      </trkpt>
      <trkpt lat="43.5369650" lon="-6.4971790">
        <ele>42.2</ele>
        <time>2021-07-22T08:26:42Z</time>
      </trkpt>
      <trkpt lat="43.5369520" lon="-6.4972720">
        <ele>41.8</ele>
        <time>2021-07-22T08:26:43Z</time>
      </trkpt>
      <trkpt lat="43.5369380" lon="-6.4973660">
        <ele>41.4</ele>
        <time>2021-07-22T08:26:44Z</time>
      </trkpt>
      <trkpt lat="43.5369280" lon="-6.4974550">
        <ele>40.8</ele>
        <time>2021-07-22T08:26:45Z</time>
      </trkpt>
      <trkpt lat="43.5369170" lon="-6.4975460">
        <ele>40.4</ele>
        <time>2021-07-22T08:26:46Z</time>
      </trkpt>
      <trkpt lat="43.5369010" lon="-6.4977280">
        <ele>40.4</ele>
        <time>2021-07-22T08:26:48Z</time>
      </trkpt>
      <trkpt lat="43.5368500" lon="-6.4981210">
        <ele>40.0</ele>
        <time>2021-07-22T08:26:52Z</time>
      </trkpt>
      <trkpt lat="43.5368380" lon="-6.4982170">
        <ele>39.6</ele>
        <time>2021-07-22T08:26:53Z</time>
      </trkpt>
      <trkpt lat="43.5368250" lon="-6.4983130">
        <ele>39.0</ele>
        <time>2021-07-22T08:26:54Z</time>
      </trkpt>
      <trkpt lat="43.5368140" lon="-6.4984110">
        <ele>38.6</ele>
        <time>2021-07-22T08:26:55Z</time>
      </trkpt>
      <trkpt lat="43.5368020" lon="-6.4985100">
        <ele>38.2</ele>
        <time>2021-07-22T08:26:56Z</time>
      </trkpt>
      <trkpt lat="43.5367780" lon="-6.4987090">
        <ele>38.2</ele>
        <time>2021-07-22T08:26:58Z</time>
      </trkpt>
      <trkpt lat="43.5367450" lon="-6.4990020">
        <ele>37.8</ele>
        <time>2021-07-22T08:27:01Z</time>
      </trkpt>
      <trkpt lat="43.5367350" lon="-6.4991020">
        <ele>37.4</ele>
        <time>2021-07-22T08:27:02Z</time>
      </trkpt>
      <trkpt lat="43.5367220" lon="-6.4992010">
        <ele>37.0</ele>
        <time>2021-07-22T08:27:03Z</time>
      </trkpt>
      <trkpt lat="43.5367120" lon="-6.4993000">
        <ele>36.4</ele>
        <time>2021-07-22T08:27:04Z</time>
      </trkpt>
      <trkpt lat="43.5367010" lon="-6.4993990">
        <ele>36.0</ele>
        <time>2021-07-22T08:27:05Z</time>
      </trkpt>
      <trkpt lat="43.5366800" lon="-6.4996030">
        <ele>35.6</ele>
        <time>2021-07-22T08:27:07Z</time>
      </trkpt>
      <trkpt lat="43.5366720" lon="-6.4997020">
        <ele>35.2</ele>
        <time>2021-07-22T08:27:08Z</time>
      </trkpt>
      <trkpt lat="43.5366610" lon="-6.4998010">
        <ele>34.8</ele>
        <time>2021-07-22T08:27:09Z</time>
      </trkpt>
      <trkpt lat="43.5366510" lon="-6.4999000">
        <ele>34.4</ele>
        <time>2021-07-22T08:27:10Z</time>
      </trkpt>
      <trkpt lat="43.5366420" lon="-6.4999990">
        <ele>34.0</ele>
        <time>2021-07-22T08:27:11Z</time>
      </trkpt>
      <trkpt lat="43.5366040" lon="-6.5004020">
        <ele>33.6</ele>
        <time>2021-07-22T08:27:15Z</time>
      </trkpt>
      <trkpt lat="43.5365940" lon="-6.5005040">
        <ele>33.2</ele>
        <time>2021-07-22T08:27:16Z</time>
      </trkpt>
      <trkpt lat="43.5365840" lon="-6.5006050">
        <ele>32.8</ele>
        <time>2021-07-22T08:27:17Z</time>
      </trkpt>
      <trkpt lat="43.5365760" lon="-6.5007070">
        <ele>32.2</ele>
        <time>2021-07-22T08:27:18Z</time>
      </trkpt>
      <trkpt lat="43.5365660" lon="-6.5008060">
        <ele>31.8</ele>
        <time>2021-07-22T08:27:19Z</time>
      </trkpt>
      <trkpt lat="43.5365230" lon="-6.5011970">
        <ele>31.4</ele>
        <time>2021-07-22T08:27:23Z</time>
      </trkpt>
      <trkpt lat="43.5365140" lon="-6.5012780">
        <ele>30.8</ele>
        <time>2021-07-22T08:27:24Z</time>
      </trkpt>
      <trkpt lat="43.5365040" lon="-6.5013560">
        <ele>30.4</ele>
        <time>2021-07-22T08:27:25Z</time>
      </trkpt>
      <trkpt lat="43.5364950" lon="-6.5014330">
        <ele>30.0</ele>
        <time>2021-07-22T08:27:26Z</time>
      </trkpt>
      <trkpt lat="43.5364880" lon="-6.5015110">
        <ele>29.6</ele>
        <time>2021-07-22T08:27:27Z</time>
      </trkpt>
      <trkpt lat="43.5364580" lon="-6.5018360">
        <ele>29.2</ele>
        <time>2021-07-22T08:27:31Z</time>
      </trkpt>
      <trkpt lat="43.5364500" lon="-6.5019160">
        <ele>28.4</ele>
        <time>2021-07-22T08:27:32Z</time>
      </trkpt>
      <trkpt lat="43.5364420" lon="-6.5019950">
        <ele>28.0</ele>
        <time>2021-07-22T08:27:33Z</time>
      </trkpt>
      <trkpt lat="43.5364360" lon="-6.5020720">
        <ele>27.6</ele>
        <time>2021-07-22T08:27:34Z</time>
      </trkpt>
      <trkpt lat="43.5364310" lon="-6.5021490">
        <ele>27.6</ele>
        <time>2021-07-22T08:27:35Z</time>
      </trkpt>
      <trkpt lat="43.5364300" lon="-6.5023850">
        <ele>27.6</ele>
        <time>2021-07-22T08:27:38Z</time>
      </trkpt>
      <trkpt lat="43.5364620" lon="-6.5025240">
        <ele>27.6</ele>
        <time>2021-07-22T08:27:40Z</time>
      </trkpt>
      <trkpt lat="43.5365060" lon="-6.5026490">
        <ele>27.6</ele>
        <time>2021-07-22T08:27:42Z</time>
      </trkpt>
      <trkpt lat="43.5365210" lon="-6.5027800">
        <ele>27.6</ele>
        <time>2021-07-22T08:27:44Z</time>
      </trkpt>
      <trkpt lat="43.5365140" lon="-6.5028430">
        <ele>27.6</ele>
        <time>2021-07-22T08:27:45Z</time>
      </trkpt>
      <trkpt lat="43.5364470" lon="-6.5030150">
        <ele>27.6</ele>
        <time>2021-07-22T08:27:48Z</time>
      </trkpt>
      <trkpt lat="43.5364200" lon="-6.5030670">
        <ele>27.6</ele>
        <time>2021-07-22T08:27:49Z</time>
      </trkpt>
      <trkpt lat="43.5363950" lon="-6.5031200">
        <ele>27.6</ele>
        <time>2021-07-22T08:27:50Z</time>
      </trkpt>
      <trkpt lat="43.5363390" lon="-6.5033670">
        <ele>27.2</ele>
        <time>2021-07-22T08:27:54Z</time>
      </trkpt>
      <trkpt lat="43.5363320" lon="-6.5034320">
        <ele>26.8</ele>
        <time>2021-07-22T08:27:55Z</time>
      </trkpt>
      <trkpt lat="43.5363240" lon="-6.5035000">
        <ele>26.2</ele>
        <time>2021-07-22T08:27:56Z</time>
      </trkpt>
      <trkpt lat="43.5363180" lon="-6.5035700">
        <ele>25.4</ele>
        <time>2021-07-22T08:27:57Z</time>
      </trkpt>
      <trkpt lat="43.5363030" lon="-6.5037920">
        <ele>25.4</ele>
        <time>2021-07-22T08:28:00Z</time>
      </trkpt>
      <trkpt lat="43.5362580" lon="-6.5042620">
        <ele>25.4</ele>
        <time>2021-07-22T08:28:06Z</time>
      </trkpt>
      <trkpt lat="43.5362440" lon="-6.5044170">
        <ele>25.0</ele>
        <time>2021-07-22T08:28:08Z</time>
      </trkpt>
      <trkpt lat="43.5362370" lon="-6.5044920">
        <ele>24.6</ele>
        <time>2021-07-22T08:28:09Z</time>
      </trkpt>
      <trkpt lat="43.5362300" lon="-6.5045660">
        <ele>24.2</ele>
        <time>2021-07-22T08:28:10Z</time>
      </trkpt>
      <trkpt lat="43.5362230" lon="-6.5046430">
        <ele>23.8</ele>
        <time>2021-07-22T08:28:11Z</time>
      </trkpt>
      <trkpt lat="43.5362160" lon="-6.5047190">
        <ele>23.4</ele>
        <time>2021-07-22T08:28:12Z</time>
      </trkpt>
      <trkpt lat="43.5361750" lon="-6.5051700">
        <ele>23.4</ele>
        <time>2021-07-22T08:28:18Z</time>
      </trkpt>
      <trkpt lat="43.5361840" lon="-6.5053180">
        <ele>23.0</ele>
        <time>2021-07-22T08:28:21Z</time>
      </trkpt>
      <trkpt lat="43.5362040" lon="-6.5053550">
        <ele>22.6</ele>
        <time>2021-07-22T08:28:22Z</time>
      </trkpt>
      <trkpt lat="43.5362250" lon="-6.5053840">
        <ele>22.2</ele>
        <time>2021-07-22T08:28:23Z</time>
      </trkpt>
      <trkpt lat="43.5362440" lon="-6.5054110">
        <ele>21.8</ele>
        <time>2021-07-22T08:28:24Z</time>
      </trkpt>
      <trkpt lat="43.5362620" lon="-6.5054380">
        <ele>21.4</ele>
        <time>2021-07-22T08:28:25Z</time>
      </trkpt>
      <trkpt lat="43.5363310" lon="-6.5055690">
        <ele>21.4</ele>
        <time>2021-07-22T08:28:30Z</time>
      </trkpt>
      <trkpt lat="43.5363320" lon="-6.5055860">
        <ele>21.4</ele>
        <time>2021-07-22T08:28:31Z</time>
      </trkpt>
      <trkpt lat="43.5363270" lon="-6.5056010">
        <ele>21.4</ele>
        <time>2021-07-22T08:28:33Z</time>
      </trkpt>
      <trkpt lat="43.5364140" lon="-6.5056520">
        <ele>21.4</ele>
        <time>2021-07-22T08:53:05Z</time>
      </trkpt>
      <trkpt lat="43.5364320" lon="-6.5056820">
        <ele>21.4</ele>
        <time>2021-07-22T08:53:06Z</time>
      </trkpt>
      <trkpt lat="43.5365610" lon="-6.5059090">
        <ele>21.4</ele>
        <time>2021-07-22T08:53:13Z</time>
      </trkpt>
      <trkpt lat="43.5366000" lon="-6.5059780">
        <ele>21.4</ele>
        <time>2021-07-22T08:53:15Z</time>
      </trkpt>
      <trkpt lat="43.5366600" lon="-6.5060720">
        <ele>21.4</ele>
        <time>2021-07-22T08:53:18Z</time>
      </trkpt>
      <trkpt lat="43.5367020" lon="-6.5061330">
        <ele>21.4</ele>
        <time>2021-07-22T08:53:20Z</time>
      </trkpt>
      <trkpt lat="43.5367770" lon="-6.5062640">
        <ele>21.4</ele>
        <time>2021-07-22T08:53:24Z</time>
      </trkpt>
      <trkpt lat="43.5369680" lon="-6.5065400">
        <ele>21.4</ele>
        <time>2021-07-22T08:53:32Z</time>
      </trkpt>
      <trkpt lat="43.5370770" lon="-6.5067230">
        <ele>21.4</ele>
        <time>2021-07-22T08:53:36Z</time>
      </trkpt>
      <trkpt lat="43.5370890" lon="-6.5067990">
        <ele>21.4</ele>
        <time>2021-07-22T08:53:37Z</time>
      </trkpt>
      <trkpt lat="43.5371180" lon="-6.5069180">
        <ele>21.4</ele>
        <time>2021-07-22T08:53:39Z</time>
      </trkpt>
      <trkpt lat="43.5371650" lon="-6.5071060">
        <ele>21.4</ele>
        <time>2021-07-22T08:53:42Z</time>
      </trkpt>
      <trkpt lat="43.5372890" lon="-6.5074390">
        <ele>21.4</ele>
        <time>2021-07-22T08:53:47Z</time>
      </trkpt>
      <trkpt lat="43.5373740" lon="-6.5076360">
        <ele>21.0</ele>
        <time>2021-07-22T08:53:50Z</time>
      </trkpt>
      <trkpt lat="43.5373980" lon="-6.5076890">
        <ele>20.4</ele>
        <time>2021-07-22T08:53:51Z</time>
      </trkpt>
      <trkpt lat="43.5374230" lon="-6.5077480">
        <ele>20.0</ele>
        <time>2021-07-22T08:53:52Z</time>
      </trkpt>
      <trkpt lat="43.5374490" lon="-6.5078050">
        <ele>19.6</ele>
        <time>2021-07-22T08:53:53Z</time>
      </trkpt>
      <trkpt lat="43.5374750" lon="-6.5078620">
        <ele>19.0</ele>
        <time>2021-07-22T08:53:54Z</time>
      </trkpt>
      <trkpt lat="43.5375840" lon="-6.5081000">
        <ele>18.6</ele>
        <time>2021-07-22T08:53:58Z</time>
      </trkpt>
      <trkpt lat="43.5376110" lon="-6.5081630">
        <ele>18.2</ele>
        <time>2021-07-22T08:53:59Z</time>
      </trkpt>
      <trkpt lat="43.5376350" lon="-6.5082260">
        <ele>17.8</ele>
        <time>2021-07-22T08:54:00Z</time>
      </trkpt>
      <trkpt lat="43.5376590" lon="-6.5082880">
        <ele>17.4</ele>
        <time>2021-07-22T08:54:01Z</time>
      </trkpt>
      <trkpt lat="43.5376870" lon="-6.5083500">
        <ele>17.0</ele>
        <time>2021-07-22T08:54:02Z</time>
      </trkpt>
      <trkpt lat="43.5377750" lon="-6.5085280">
        <ele>17.0</ele>
        <time>2021-07-22T08:54:05Z</time>
      </trkpt>
      <trkpt lat="43.5378260" lon="-6.5086510">
        <ele>17.0</ele>
        <time>2021-07-22T08:54:07Z</time>
      </trkpt>
      <trkpt lat="43.5379140" lon="-6.5089270">
        <ele>17.0</ele>
        <time>2021-07-22T08:54:11Z</time>
      </trkpt>
      <trkpt lat="43.5379860" lon="-6.5091370">
        <ele>16.6</ele>
        <time>2021-07-22T08:54:14Z</time>
      </trkpt>
      <trkpt lat="43.5380180" lon="-6.5092150">
        <ele>16.2</ele>
        <time>2021-07-22T08:54:15Z</time>
      </trkpt>
      <trkpt lat="43.5380460" lon="-6.5092890">
        <ele>15.8</ele>
        <time>2021-07-22T08:54:16Z</time>
      </trkpt>
      <trkpt lat="43.5380740" lon="-6.5093650">
        <ele>15.4</ele>
        <time>2021-07-22T08:54:17Z</time>
      </trkpt>
      <trkpt lat="43.5381000" lon="-6.5094450">
        <ele>15.0</ele>
        <time>2021-07-22T08:54:18Z</time>
      </trkpt>
      <trkpt lat="43.5381540" lon="-6.5096100">
        <ele>15.0</ele>
        <time>2021-07-22T08:54:20Z</time>
      </trkpt>
      <trkpt lat="43.5382530" lon="-6.5098550">
        <ele>14.6</ele>
        <time>2021-07-22T08:54:23Z</time>
      </trkpt>
      <trkpt lat="43.5382900" lon="-6.5099310">
        <ele>14.0</ele>
        <time>2021-07-22T08:54:24Z</time>
      </trkpt>
      <trkpt lat="43.5383300" lon="-6.5100040">
        <ele>13.6</ele>
        <time>2021-07-22T08:54:25Z</time>
      </trkpt>
      <trkpt lat="43.5383710" lon="-6.5100720">
        <ele>13.2</ele>
        <time>2021-07-22T08:54:26Z</time>
      </trkpt>
      <trkpt lat="43.5384120" lon="-6.5101370">
        <ele>12.8</ele>
        <time>2021-07-22T08:54:27Z</time>
      </trkpt>
      <trkpt lat="43.5386390" lon="-6.5103930">
        <ele>12.8</ele>
        <time>2021-07-22T08:54:32Z</time>
      </trkpt>
      <trkpt lat="43.5389080" lon="-6.5106670">
        <ele>12.8</ele>
        <time>2021-07-22T08:54:39Z</time>
      </trkpt>
      <trkpt lat="43.5389390" lon="-6.5107030">
        <ele>12.4</ele>
        <time>2021-07-22T08:54:40Z</time>
      </trkpt>
      <trkpt lat="43.5389690" lon="-6.5107380">
        <ele>12.0</ele>
        <time>2021-07-22T08:54:41Z</time>
      </trkpt>
      <trkpt lat="43.5389990" lon="-6.5107740">
        <ele>11.6</ele>
        <time>2021-07-22T08:54:42Z</time>
      </trkpt>
      <trkpt lat="43.5390270" lon="-6.5108160">
        <ele>10.8</ele>
        <time>2021-07-22T08:54:43Z</time>
      </trkpt>
      <trkpt lat="43.5390560" lon="-6.5108580">
        <ele>10.8</ele>
        <time>2021-07-22T08:54:44Z</time>
      </trkpt>
      <trkpt lat="43.5390860" lon="-6.5109010">
        <ele>10.8</ele>
        <time>2021-07-22T08:54:45Z</time>
      </trkpt>
      <trkpt lat="43.5391120" lon="-6.5109450">
        <ele>10.8</ele>
        <time>2021-07-22T08:54:46Z</time>
      </trkpt>
      <trkpt lat="43.5391520" lon="-6.5110380">
        <ele>10.8</ele>
        <time>2021-07-22T08:54:48Z</time>
      </trkpt>
      <trkpt lat="43.5392130" lon="-6.5111720">
        <ele>10.8</ele>
        <time>2021-07-22T08:54:51Z</time>
      </trkpt>
      <trkpt lat="43.5393310" lon="-6.5114350">
        <ele>10.8</ele>
        <time>2021-07-22T08:54:57Z</time>
      </trkpt>
      <trkpt lat="43.5393460" lon="-6.5114820">
        <ele>10.8</ele>
        <time>2021-07-22T08:54:58Z</time>
      </trkpt>
      <trkpt lat="43.5393390" lon="-6.5116460">
        <ele>10.8</ele>
        <time>2021-07-22T08:55:01Z</time>
      </trkpt>
      <trkpt lat="43.5393240" lon="-6.5116960">
        <ele>10.8</ele>
        <time>2021-07-22T08:55:02Z</time>
      </trkpt>
      <trkpt lat="43.5392990" lon="-6.5117450">
        <ele>10.8</ele>
        <time>2021-07-22T08:55:03Z</time>
      </trkpt>
      <trkpt lat="43.5392660" lon="-6.5117940">
        <ele>10.8</ele>
        <time>2021-07-22T08:55:04Z</time>
      </trkpt>
      <trkpt lat="43.5391950" lon="-6.5118850">
        <ele>10.8</ele>
        <time>2021-07-22T08:55:06Z</time>
      </trkpt>
      <trkpt lat="43.5389840" lon="-6.5121650">
        <ele>10.8</ele>
        <time>2021-07-22T08:55:13Z</time>
      </trkpt>
      <trkpt lat="43.5389240" lon="-6.5122580">
        <ele>10.8</ele>
        <time>2021-07-22T08:55:15Z</time>
      </trkpt>
      <trkpt lat="43.5388970" lon="-6.5123080">
        <ele>10.8</ele>
        <time>2021-07-22T08:55:16Z</time>
      </trkpt>
      <trkpt lat="43.5388490" lon="-6.5124140">
        <ele>10.8</ele>
        <time>2021-07-22T08:55:18Z</time>
      </trkpt>
      <trkpt lat="43.5388310" lon="-6.5124720">
        <ele>10.4</ele>
        <time>2021-07-22T08:55:19Z</time>
      </trkpt>
      <trkpt lat="43.5388160" lon="-6.5125380">
        <ele>10.0</ele>
        <time>2021-07-22T08:55:20Z</time>
      </trkpt>
      <trkpt lat="43.5388060" lon="-6.5126060">
        <ele>9.6</ele>
        <time>2021-07-22T08:55:21Z</time>
      </trkpt>
      <trkpt lat="43.5387970" lon="-6.5126780">
        <ele>9.2</ele>
        <time>2021-07-22T08:55:22Z</time>
      </trkpt>
      <trkpt lat="43.5387880" lon="-6.5127550">
        <ele>8.8</ele>
        <time>2021-07-22T08:55:23Z</time>
      </trkpt>
      <trkpt lat="43.5387780" lon="-6.5128290">
        <ele>8.8</ele>
        <time>2021-07-22T08:55:24Z</time>
      </trkpt>
      <trkpt lat="43.5387280" lon="-6.5132120">
        <ele>8.2</ele>
        <time>2021-07-22T08:55:29Z</time>
      </trkpt>
      <trkpt lat="43.5387220" lon="-6.5132870">
        <ele>7.8</ele>
        <time>2021-07-22T08:55:30Z</time>
      </trkpt>
      <trkpt lat="43.5387180" lon="-6.5133670">
        <ele>7.4</ele>
        <time>2021-07-22T08:55:31Z</time>
      </trkpt>
      <trkpt lat="43.5387140" lon="-6.5134470">
        <ele>7.0</ele>
        <time>2021-07-22T08:55:32Z</time>
      </trkpt>
      <trkpt lat="43.5387090" lon="-6.5135330">
        <ele>6.4</ele>
        <time>2021-07-22T08:55:33Z</time>
      </trkpt>
      <trkpt lat="43.5386770" lon="-6.5139100">
        <ele>6.0</ele>
        <time>2021-07-22T08:55:37Z</time>
      </trkpt>
      <trkpt lat="43.5386710" lon="-6.5140190">
        <ele>5.6</ele>
        <time>2021-07-22T08:55:38Z</time>
      </trkpt>
      <trkpt lat="43.5386670" lon="-6.5141250">
        <ele>5.0</ele>
        <time>2021-07-22T08:55:39Z</time>
      </trkpt>
      <trkpt lat="43.5386670" lon="-6.5142340">
        <ele>4.6</ele>
        <time>2021-07-22T08:55:40Z</time>
      </trkpt>
      <trkpt lat="43.5386690" lon="-6.5143450">
        <ele>4.2</ele>
        <time>2021-07-22T08:55:41Z</time>
      </trkpt>
      <trkpt lat="43.5386740" lon="-6.5144540">
        <ele>3.6</ele>
        <time>2021-07-22T08:55:42Z</time>
      </trkpt>
      <trkpt lat="43.5386810" lon="-6.5145580">
        <ele>3.2</ele>
        <time>2021-07-22T08:55:43Z</time>
      </trkpt>
      <trkpt lat="43.5386880" lon="-6.5146590">
        <ele>2.8</ele>
        <time>2021-07-22T08:55:44Z</time>
      </trkpt>
      <trkpt lat="43.5386900" lon="-6.5147550">
        <ele>2.2</ele>
        <time>2021-07-22T08:55:45Z</time>
      </trkpt>
      <trkpt lat="43.5386870" lon="-6.5148490">
        <ele>1.8</ele>
        <time>2021-07-22T08:55:46Z</time>
      </trkpt>
      <trkpt lat="43.5386520" lon="-6.5149930">
        <ele>1.8</ele>
        <time>2021-07-22T08:55:48Z</time>
      </trkpt>
      <trkpt lat="43.5385710" lon="-6.5151490">
        <ele>1.8</ele>
        <time>2021-07-22T08:55:51Z</time>
      </trkpt>
      <trkpt lat="43.5385160" lon="-6.5152390">
        <ele>1.8</ele>
        <time>2021-07-22T08:55:53Z</time>
      </trkpt>
      <trkpt lat="43.5384290" lon="-6.5154090">
        <ele>1.8</ele>
        <time>2021-07-22T08:55:57Z</time>
      </trkpt>
      <trkpt lat="43.5383850" lon="-6.5154830">
        <ele>1.8</ele>
        <time>2021-07-22T08:55:59Z</time>
      </trkpt>
      <trkpt lat="43.5381880" lon="-6.5158200">
        <ele>1.8</ele>
        <time>2021-07-22T08:56:06Z</time>
      </trkpt>
      <trkpt lat="43.5381620" lon="-6.5158740">
        <ele>1.2</ele>
        <time>2021-07-22T08:56:07Z</time>
      </trkpt>
      <trkpt lat="43.5381360" lon="-6.5159260">
        <ele>0.8</ele>
        <time>2021-07-22T08:56:08Z</time>
      </trkpt>
      <trkpt lat="43.5381110" lon="-6.5159770">
        <ele>0.4</ele>
        <time>2021-07-22T08:56:09Z</time>
      </trkpt>
      <trkpt lat="43.5380880" lon="-6.5160240">
        <ele>-0.2</ele>
        <time>2021-07-22T08:56:10Z</time>
      </trkpt>
      <trkpt lat="43.5380660" lon="-6.5160660">
        <ele>-0.8</ele>
        <time>2021-07-22T08:56:11Z</time>
      </trkpt>
      <trkpt lat="43.5380440" lon="-6.5161040">
        <ele>-1.2</ele>
        <time>2021-07-22T08:56:12Z</time>
      </trkpt>
      <trkpt lat="43.5380260" lon="-6.5161380">
        <ele>-1.8</ele>
        <time>2021-07-22T08:56:13Z</time>
      </trkpt>
      <trkpt lat="43.5380080" lon="-6.5161700">
        <ele>-2.4</ele>
        <time>2021-07-22T08:56:14Z</time>
      </trkpt>
      <trkpt lat="43.5379960" lon="-6.5162000">
        <ele>-3.0</ele>
        <time>2021-07-22T08:56:15Z</time>
      </trkpt>
      <trkpt lat="43.5379890" lon="-6.5162300">
        <ele>-3.4</ele>
        <time>2021-07-22T08:56:16Z</time>
      </trkpt>
      <trkpt lat="43.5379920" lon="-6.5162630">
        <ele>-3.8</ele>
        <time>2021-07-22T08:56:17Z</time>
      </trkpt>
      <trkpt lat="43.5380020" lon="-6.5162860">
        <ele>-4.2</ele>
        <time>2021-07-22T08:56:18Z</time>
      </trkpt>
      <trkpt lat="43.5380170" lon="-6.5162950">
        <ele>-4.6</ele>
        <time>2021-07-22T08:56:19Z</time>
      </trkpt>
      <trkpt lat="43.5380320" lon="-6.5162930">
        <ele>-5.0</ele>
        <time>2021-07-22T08:56:20Z</time>
      </trkpt>
      <trkpt lat="43.5380500" lon="-6.5162740">
        <ele>-5.0</ele>
        <time>2021-07-22T08:56:21Z</time>
      </trkpt>
      <trkpt lat="43.5380700" lon="-6.5162460">
        <ele>-5.0</ele>
        <time>2021-07-22T08:56:22Z</time>
      </trkpt>
      <trkpt lat="43.5381190" lon="-6.5161590">
        <ele>-5.4</ele>
        <time>2021-07-22T08:56:25Z</time>
      </trkpt>
      <trkpt lat="43.5381330" lon="-6.5161340">
        <ele>-6.0</ele>
        <time>2021-07-22T08:56:26Z</time>
      </trkpt>
      <trkpt lat="43.5381500" lon="-6.5161140">
        <ele>-6.4</ele>
        <time>2021-07-22T08:56:27Z</time>
      </trkpt>
      <trkpt lat="43.5381710" lon="-6.5161030">
        <ele>-6.8</ele>
        <time>2021-07-22T08:56:28Z</time>
      </trkpt>
      <trkpt lat="43.5381960" lon="-6.5161020">
        <ele>-7.2</ele>
        <time>2021-07-22T08:56:29Z</time>
      </trkpt>
      <trkpt lat="43.5382260" lon="-6.5161120">
        <ele>-7.6</ele>
        <time>2021-07-22T08:56:30Z</time>
      </trkpt>
      <trkpt lat="43.5382570" lon="-6.5161280">
        <ele>-8.2</ele>
        <time>2021-07-22T08:56:31Z</time>
      </trkpt>
      <trkpt lat="43.5382910" lon="-6.5161490">
        <ele>-8.6</ele>
        <time>2021-07-22T08:56:32Z</time>
      </trkpt>
      <trkpt lat="43.5383280" lon="-6.5161730">
        <ele>-9.2</ele>
        <time>2021-07-22T08:56:33Z</time>
      </trkpt>
      <trkpt lat="43.5384010" lon="-6.5161780">
        <ele>-10.0</ele>
        <time>2021-07-22T08:56:34Z</time>
      </trkpt>
      <trkpt lat="43.5384970" lon="-6.5161830">
        <ele>-10.6</ele>
        <time>2021-07-22T08:56:35Z</time>
      </trkpt>
      <trkpt lat="43.5385810" lon="-6.5162040">
        <ele>-11.2</ele>
        <time>2021-07-22T08:56:36Z</time>
      </trkpt>
      <trkpt lat="43.5386550" lon="-6.5162370">
        <ele>-12.0</ele>
        <time>2021-07-22T08:56:37Z</time>
      </trkpt>
      <trkpt lat="43.5387250" lon="-6.5162790">
        <ele>-12.6</ele>
        <time>2021-07-22T08:56:38Z</time>
      </trkpt>
      <trkpt lat="43.5387910" lon="-6.5163340">
        <ele>-13.4</ele>
        <time>2021-07-22T08:56:39Z</time>
      </trkpt>
      <trkpt lat="43.5388590" lon="-6.5164020">
        <ele>-14.0</ele>
        <time>2021-07-22T08:56:40Z</time>
      </trkpt>
      <trkpt lat="43.5389140" lon="-6.5164700">
        <ele>-14.6</ele>
        <time>2021-07-22T08:56:41Z</time>
      </trkpt>
      <trkpt lat="43.5389700" lon="-6.5165430">
        <ele>-15.2</ele>
        <time>2021-07-22T08:56:42Z</time>
      </trkpt>
      <trkpt lat="43.5390170" lon="-6.5166150">
        <ele>-15.6</ele>
        <time>2021-07-22T08:56:43Z</time>
      </trkpt>
      <trkpt lat="43.5390640" lon="-6.5166910">
        <ele>-16.2</ele>
        <time>2021-07-22T08:56:44Z</time>
      </trkpt>
      <trkpt lat="43.5392220" lon="-6.5169090">
        <ele>-16.2</ele>
        <time>2021-07-22T08:56:47Z</time>
      </trkpt>
      <trkpt lat="43.5392850" lon="-6.5169600">
        <ele>-16.2</ele>
        <time>2021-07-22T08:56:48Z</time>
      </trkpt>
      <trkpt lat="43.5393410" lon="-6.5170050">
        <ele>-16.2</ele>
        <time>2021-07-22T08:56:49Z</time>
      </trkpt>
      <trkpt lat="43.5394720" lon="-6.5170660">
        <ele>-16.2</ele>
        <time>2021-07-22T08:56:51Z</time>
      </trkpt>
      <trkpt lat="43.5396100" lon="-6.5171170">
        <ele>-16.2</ele>
        <time>2021-07-22T08:56:53Z</time>
      </trkpt>
      <trkpt lat="43.5396690" lon="-6.5171460">
        <ele>-16.2</ele>
        <time>2021-07-22T08:56:54Z</time>
      </trkpt>
      <trkpt lat="43.5397820" lon="-6.5171910">
        <ele>-16.2</ele>
        <time>2021-07-22T08:56:56Z</time>
      </trkpt>
      <trkpt lat="43.5398310" lon="-6.5172100">
        <ele>-16.2</ele>
        <time>2021-07-22T08:56:57Z</time>
      </trkpt>
      <trkpt lat="43.5399020" lon="-6.5172480">
        <ele>-16.2</ele>
        <time>2021-07-22T08:56:59Z</time>
      </trkpt>
      <trkpt lat="43.5399580" lon="-6.5172650">
        <ele>-16.2</ele>
        <time>2021-07-22T08:57:01Z</time>
      </trkpt>
      <trkpt lat="43.5400770" lon="-6.5172640">
        <ele>-16.2</ele>
        <time>2021-07-22T08:57:06Z</time>
      </trkpt>
      <trkpt lat="43.5401000" lon="-6.5172630">
        <ele>-16.2</ele>
        <time>2021-07-22T08:57:07Z</time>
      </trkpt>
      <trkpt lat="43.5401190" lon="-6.5172610">
        <ele>-15.8</ele>
        <time>2021-07-22T08:57:08Z</time>
      </trkpt>
      <trkpt lat="43.5401390" lon="-6.5172550">
        <ele>-15.4</ele>
        <time>2021-07-22T08:57:09Z</time>
      </trkpt>
      <trkpt lat="43.5401610" lon="-6.5172470">
        <ele>-15.0</ele>
        <time>2021-07-22T08:57:10Z</time>
      </trkpt>
      <trkpt lat="43.5401820" lon="-6.5172390">
        <ele>-14.6</ele>
        <time>2021-07-22T08:57:11Z</time>
      </trkpt>
      <trkpt lat="43.5402020" lon="-6.5172330">
        <ele>-14.2</ele>
        <time>2021-07-22T08:57:12Z</time>
      </trkpt>
      <trkpt lat="43.5402420" lon="-6.5172200">
        <ele>-13.8</ele>
        <time>2021-07-22T08:57:14Z</time>
      </trkpt>
      <trkpt lat="43.5402630" lon="-6.5172140">
        <ele>-13.4</ele>
        <time>2021-07-22T08:57:15Z</time>
      </trkpt>
      <trkpt lat="43.5402810" lon="-6.5172110">
        <ele>-13.0</ele>
        <time>2021-07-22T08:57:16Z</time>
      </trkpt>
      <trkpt lat="43.5403010" lon="-6.5172090">
        <ele>-12.6</ele>
        <time>2021-07-22T08:57:17Z</time>
      </trkpt>
      <trkpt lat="43.5403190" lon="-6.5172080">
        <ele>-12.2</ele>
        <time>2021-07-22T08:57:18Z</time>
      </trkpt>
      <trkpt lat="43.5403820" lon="-6.5172240">
        <ele>-12.2</ele>
        <time>2021-07-22T08:57:21Z</time>
      </trkpt>
      <trkpt lat="43.5404370" lon="-6.5172550">
        <ele>-11.8</ele>
        <time>2021-07-22T08:57:24Z</time>
      </trkpt>
      <trkpt lat="43.5404520" lon="-6.5172740">
        <ele>-11.4</ele>
        <time>2021-07-22T08:57:25Z</time>
      </trkpt>
      <trkpt lat="43.5404660" lon="-6.5172940">
        <ele>-11.0</ele>
        <time>2021-07-22T08:57:26Z</time>
      </trkpt>
      <trkpt lat="43.5404770" lon="-6.5173160">
        <ele>-10.4</ele>
        <time>2021-07-22T08:57:27Z</time>
      </trkpt>
      <trkpt lat="43.5404860" lon="-6.5173360">
        <ele>-10.0</ele>
        <time>2021-07-22T08:57:28Z</time>
      </trkpt>
      <trkpt lat="43.5405360" lon="-6.5174550">
        <ele>-9.6</ele>
        <time>2021-07-22T08:57:34Z</time>
      </trkpt>
      <trkpt lat="43.5405400" lon="-6.5174750">
        <ele>-9.2</ele>
        <time>2021-07-22T08:57:35Z</time>
      </trkpt>
      <trkpt lat="43.5405420" lon="-6.5174940">
        <ele>-8.8</ele>
        <time>2021-07-22T08:57:36Z</time>
      </trkpt>
      <trkpt lat="43.5405440" lon="-6.5175150">
        <ele>-8.4</ele>
        <time>2021-07-22T08:57:37Z</time>
      </trkpt>
      <trkpt lat="43.5405460" lon="-6.5175330">
        <ele>-8.0</ele>
        <time>2021-07-22T08:57:38Z</time>
      </trkpt>
      <trkpt lat="43.5405540" lon="-6.5176120">
        <ele>-7.6</ele>
        <time>2021-07-22T08:57:42Z</time>
      </trkpt>
      <trkpt lat="43.5405570" lon="-6.5176300">
        <ele>-7.2</ele>
        <time>2021-07-22T08:57:43Z</time>
      </trkpt>
      <trkpt lat="43.5405600" lon="-6.5176470">
        <ele>-6.8</ele>
        <time>2021-07-22T08:57:44Z</time>
      </trkpt>
      <trkpt lat="43.5405630" lon="-6.5176640">
        <ele>-6.2</ele>
        <time>2021-07-22T08:57:45Z</time>
      </trkpt>
      <trkpt lat="43.5405650" lon="-6.5176810">
        <ele>-5.8</ele>
        <time>2021-07-22T08:57:46Z</time>
      </trkpt>
      <trkpt lat="43.5405560" lon="-6.5177890">
        <ele>-5.4</ele>
        <time>2021-07-22T08:57:52Z</time>
      </trkpt>
      <trkpt lat="43.5405570" lon="-6.5178080">
        <ele>-5.0</ele>
        <time>2021-07-22T08:57:53Z</time>
      </trkpt>
      <trkpt lat="43.5405570" lon="-6.5178260">
        <ele>-4.6</ele>
        <time>2021-07-22T08:57:54Z</time>
      </trkpt>
      <trkpt lat="43.5405580" lon="-6.5178450">
        <ele>-4.2</ele>
        <time>2021-07-22T08:57:55Z</time>
      </trkpt>
      <trkpt lat="43.5405600" lon="-6.5178630">
        <ele>-3.8</ele>
        <time>2021-07-22T08:57:56Z</time>
      </trkpt>
      <trkpt lat="43.5405680" lon="-6.5179450">
        <ele>-3.8</ele>
        <time>2021-07-22T08:58:00Z</time>
      </trkpt>
      <trkpt lat="43.5405750" lon="-6.5179880">
        <ele>-3.0</ele>
        <time>2021-07-22T08:58:02Z</time>
      </trkpt>
      <trkpt lat="43.5405820" lon="-6.5180110">
        <ele>-2.6</ele>
        <time>2021-07-22T08:58:03Z</time>
      </trkpt>
      <trkpt lat="43.5405930" lon="-6.5180310">
        <ele>-2.2</ele>
        <time>2021-07-22T08:58:04Z</time>
      </trkpt>
      <trkpt lat="43.5406000" lon="-6.5180540">
        <ele>-1.8</ele>
        <time>2021-07-22T08:58:05Z</time>
      </trkpt>
      <trkpt lat="43.5406240" lon="-6.5181520">
        <ele>-1.8</ele>
        <time>2021-07-22T08:58:09Z</time>
      </trkpt>
      <trkpt lat="43.5406720" lon="-6.5183010">
        <ele>-1.8</ele>
        <time>2021-07-22T08:58:15Z</time>
      </trkpt>
      <trkpt lat="43.5406790" lon="-6.5183270">
        <ele>-1.4</ele>
        <time>2021-07-22T08:58:16Z</time>
      </trkpt>
      <trkpt lat="43.5406850" lon="-6.5183520">
        <ele>-1.0</ele>
        <time>2021-07-22T08:58:17Z</time>
      </trkpt>
      <trkpt lat="43.5406920" lon="-6.5183770">
        <ele>-0.6</ele>
        <time>2021-07-22T08:58:18Z</time>
      </trkpt>
      <trkpt lat="43.5406990" lon="-6.5184010">
        <ele>-0.2</ele>
        <time>2021-07-22T08:58:19Z</time>
      </trkpt>
      <trkpt lat="43.5407040" lon="-6.5184280">
        <ele>0.2</ele>
        <time>2021-07-22T08:58:20Z</time>
      </trkpt>
      <trkpt lat="43.5407050" lon="-6.5184560">
        <ele>0.2</ele>
        <time>2021-07-22T08:58:21Z</time>
      </trkpt>
      <trkpt lat="43.5407220" lon="-6.5185850">
        <ele>0.2</ele>
        <time>2021-07-22T08:58:26Z</time>
      </trkpt>
      <trkpt lat="43.5407330" lon="-6.5187490">
        <ele>0.6</ele>
        <time>2021-07-22T08:58:32Z</time>
      </trkpt>
      <trkpt lat="43.5407370" lon="-6.5187770">
        <ele>1.0</ele>
        <time>2021-07-22T08:58:33Z</time>
      </trkpt>
      <trkpt lat="43.5407440" lon="-6.5188040">
        <ele>1.4</ele>
        <time>2021-07-22T08:58:34Z</time>
      </trkpt>
      <trkpt lat="43.5407500" lon="-6.5188330">
        <ele>1.8</ele>
        <time>2021-07-22T08:58:35Z</time>
      </trkpt>
      <trkpt lat="43.5407530" lon="-6.5188620">
        <ele>2.2</ele>
        <time>2021-07-22T08:58:36Z</time>
      </trkpt>
      <trkpt lat="43.5407810" lon="-6.5190120">
        <ele>2.2</ele>
        <time>2021-07-22T08:58:41Z</time>
      </trkpt>
      <trkpt lat="43.5407970" lon="-6.5192940">
        <ele>2.2</ele>
        <time>2021-07-22T08:58:49Z</time>
      </trkpt>
      <trkpt lat="43.5408080" lon="-6.5194520">
        <ele>2.8</ele>
        <time>2021-07-22T08:58:53Z</time>
      </trkpt>
      <trkpt lat="43.5408060" lon="-6.5194930">
        <ele>3.2</ele>
        <time>2021-07-22T08:58:54Z</time>
      </trkpt>
      <trkpt lat="43.5408010" lon="-6.5195350">
        <ele>3.6</ele>
        <time>2021-07-22T08:58:55Z</time>
      </trkpt>
      <trkpt lat="43.5407990" lon="-6.5195730">
        <ele>4.0</ele>
        <time>2021-07-22T08:58:56Z</time>
      </trkpt>
      <trkpt lat="43.5407940" lon="-6.5196090">
        <ele>4.4</ele>
        <time>2021-07-22T08:58:57Z</time>
      </trkpt>
      <trkpt lat="43.5407770" lon="-6.5197320">
        <ele>4.4</ele>
        <time>2021-07-22T08:59:00Z</time>
      </trkpt>
      <trkpt lat="43.5407800" lon="-6.5198740">
        <ele>4.4</ele>
        <time>2021-07-22T08:59:03Z</time>
      </trkpt>
      <trkpt lat="43.5408470" lon="-6.5201190">
        <ele>4.4</ele>
        <time>2021-07-22T08:59:08Z</time>
      </trkpt>
      <trkpt lat="43.5408800" lon="-6.5202250">
        <ele>4.4</ele>
        <time>2021-07-22T08:59:10Z</time>
      </trkpt>
      <trkpt lat="43.5408970" lon="-6.5202770">
        <ele>4.4</ele>
        <time>2021-07-22T08:59:11Z</time>
      </trkpt>
      <trkpt lat="43.5409350" lon="-6.5203730">
        <ele>4.4</ele>
        <time>2021-07-22T08:59:13Z</time>
      </trkpt>
      <trkpt lat="43.5409790" lon="-6.5204750">
        <ele>4.4</ele>
        <time>2021-07-22T08:59:15Z</time>
      </trkpt>
      <trkpt lat="43.5410050" lon="-6.5205260">
        <ele>4.4</ele>
        <time>2021-07-22T08:59:16Z</time>
      </trkpt>
      <trkpt lat="43.5411020" lon="-6.5207310">
        <ele>4.4</ele>
        <time>2021-07-22T08:59:20Z</time>
      </trkpt>
      <trkpt lat="43.5411750" lon="-6.5208760">
        <ele>4.4</ele>
        <time>2021-07-22T08:59:23Z</time>
      </trkpt>
      <trkpt lat="43.5412820" lon="-6.5211370">
        <ele>4.4</ele>
        <time>2021-07-22T08:59:28Z</time>
      </trkpt>
      <trkpt lat="43.5413050" lon="-6.5211920">
        <ele>4.4</ele>
        <time>2021-07-22T08:59:29Z</time>
      </trkpt>
      <trkpt lat="43.5413460" lon="-6.5212960">
        <ele>4.4</ele>
        <time>2021-07-22T08:59:31Z</time>
      </trkpt>
      <trkpt lat="43.5413650" lon="-6.5213440">
        <ele>4.4</ele>
        <time>2021-07-22T08:59:32Z</time>
      </trkpt>
      <trkpt lat="43.5414160" lon="-6.5214850">
        <ele>4.4</ele>
        <time>2021-07-22T08:59:35Z</time>
      </trkpt>
      <trkpt lat="43.5415190" lon="-6.5217020">
        <ele>4.0</ele>
        <time>2021-07-22T08:59:40Z</time>
      </trkpt>
      <trkpt lat="43.5415470" lon="-6.5217390">
        <ele>3.6</ele>
        <time>2021-07-22T08:59:41Z</time>
      </trkpt>
      <trkpt lat="43.5415720" lon="-6.5217760">
        <ele>2.8</ele>
        <time>2021-07-22T08:59:42Z</time>
      </trkpt>
      <trkpt lat="43.5415950" lon="-6.5218180">
        <ele>2.4</ele>
        <time>2021-07-22T08:59:43Z</time>
      </trkpt>
      <trkpt lat="43.5416270" lon="-6.5219130">
        <ele>2.4</ele>
        <time>2021-07-22T08:59:45Z</time>
      </trkpt>
      <trkpt lat="43.5417250" lon="-6.5221900">
        <ele>2.4</ele>
        <time>2021-07-22T08:59:50Z</time>
      </trkpt>
      <trkpt lat="43.5418930" lon="-6.5225960">
        <ele>2.4</ele>
        <time>2021-07-22T08:59:57Z</time>
      </trkpt>
      <trkpt lat="43.5419910" lon="-6.5228560">
        <ele>2.4</ele>
        <time>2021-07-22T09:00:01Z</time>
      </trkpt>
      <trkpt lat="43.5420730" lon="-6.5230480">
        <ele>2.4</ele>
        <time>2021-07-22T09:00:04Z</time>
      </trkpt>
      <trkpt lat="43.5421540" lon="-6.5232400">
        <ele>2.4</ele>
        <time>2021-07-22T09:00:07Z</time>
      </trkpt>
      <trkpt lat="43.5422090" lon="-6.5233670">
        <ele>2.0</ele>
        <time>2021-07-22T09:00:09Z</time>
      </trkpt>
      <trkpt lat="43.5422330" lon="-6.5234310">
        <ele>1.4</ele>
        <time>2021-07-22T09:00:10Z</time>
      </trkpt>
      <trkpt lat="43.5422590" lon="-6.5234980">
        <ele>1.0</ele>
        <time>2021-07-22T09:00:11Z</time>
      </trkpt>
      <trkpt lat="43.5422860" lon="-6.5235620">
        <ele>0.6</ele>
        <time>2021-07-22T09:00:12Z</time>
      </trkpt>
      <trkpt lat="43.5423110" lon="-6.5236260">
        <ele>0.2</ele>
        <time>2021-07-22T09:00:13Z</time>
      </trkpt>
      <trkpt lat="43.5424940" lon="-6.5240790">
        <ele>0.2</ele>
        <time>2021-07-22T09:00:20Z</time>
      </trkpt>
      <trkpt lat="43.5425720" lon="-6.5242790">
        <ele>-0.2</ele>
        <time>2021-07-22T09:00:23Z</time>
      </trkpt>
      <trkpt lat="43.5425960" lon="-6.5243450">
        <ele>-0.8</ele>
        <time>2021-07-22T09:00:24Z</time>
      </trkpt>
      <trkpt lat="43.5426210" lon="-6.5244130">
        <ele>-1.2</ele>
        <time>2021-07-22T09:00:25Z</time>
      </trkpt>
      <trkpt lat="43.5426480" lon="-6.5244820">
        <ele>-1.6</ele>
        <time>2021-07-22T09:00:26Z</time>
      </trkpt>
      <trkpt lat="43.5426760" lon="-6.5245460">
        <ele>-2.0</ele>
        <time>2021-07-22T09:00:27Z</time>
      </trkpt>
      <trkpt lat="43.5428330" lon="-6.5249460">
        <ele>-2.0</ele>
        <time>2021-07-22T09:00:33Z</time>
      </trkpt>
      <trkpt lat="43.5428610" lon="-6.5250020">
        <ele>-2.0</ele>
        <time>2021-07-22T09:00:34Z</time>
      </trkpt>
      <trkpt lat="43.5429030" lon="-6.5250780">
        <ele>-2.4</ele>
        <time>2021-07-22T09:00:36Z</time>
      </trkpt>
      <trkpt lat="43.5429150" lon="-6.5251020">
        <ele>-2.8</ele>
        <time>2021-07-22T09:00:37Z</time>
      </trkpt>
      <trkpt lat="43.5429190" lon="-6.5251130">
        <ele>-3.2</ele>
        <time>2021-07-22T09:00:38Z</time>
      </trkpt>
      <trkpt lat="43.5429210" lon="-6.5251180">
        <ele>-3.6</ele>
        <time>2021-07-22T09:00:39Z</time>
      </trkpt>
      <trkpt lat="43.5428960" lon="-6.5251180">
        <ele>-4.0</ele>
        <time>2021-07-22T09:00:49Z</time>
      </trkpt>
      <trkpt lat="43.5428530" lon="-6.5250730">
        <ele>-4.0</ele>
        <time>2021-07-22T09:00:52Z</time>
      </trkpt>
      <trkpt lat="43.5428240" lon="-6.5250690">
        <ele>-4.0</ele>
        <time>2021-07-22T09:00:54Z</time>
      </trkpt>
      <trkpt lat="43.5427890" lon="-6.5252410">
        <ele>-4.0</ele>
        <time>2021-07-22T09:00:58Z</time>
      </trkpt>
      <trkpt lat="43.5428040" lon="-6.5254450">
        <ele>-4.0</ele>
        <time>2021-07-22T09:01:02Z</time>
      </trkpt>
      <trkpt lat="43.5428110" lon="-6.5254990">
        <ele>-4.0</ele>
        <time>2021-07-22T09:01:03Z</time>
      </trkpt>
      <trkpt lat="43.5428310" lon="-6.5256050">
        <ele>-4.0</ele>
        <time>2021-07-22T09:01:05Z</time>
      </trkpt>
      <trkpt lat="43.5428390" lon="-6.5256610">
        <ele>-4.0</ele>
        <time>2021-07-22T09:01:06Z</time>
      </trkpt>
      <trkpt lat="43.5428650" lon="-6.5258290">
        <ele>-4.0</ele>
        <time>2021-07-22T09:01:09Z</time>
      </trkpt>
      <trkpt lat="43.5428720" lon="-6.5258830">
        <ele>-4.0</ele>
        <time>2021-07-22T09:01:10Z</time>
      </trkpt>
      <trkpt lat="43.5428960" lon="-6.5260440">
        <ele>-4.0</ele>
        <time>2021-07-22T09:01:13Z</time>
      </trkpt>
      <trkpt lat="43.5429260" lon="-6.5262630">
        <ele>-4.0</ele>
        <time>2021-07-22T09:01:17Z</time>
      </trkpt>
      <trkpt lat="43.5429190" lon="-6.5266720">
        <ele>-4.0</ele>
        <time>2021-07-22T09:01:24Z</time>
      </trkpt>
      <trkpt lat="43.5428850" lon="-6.5270150">
        <ele>-4.0</ele>
        <time>2021-07-22T09:01:31Z</time>
      </trkpt>
      <trkpt lat="43.5428470" lon="-6.5271330">
        <ele>-4.0</ele>
        <time>2021-07-22T09:01:35Z</time>
      </trkpt>
      <trkpt lat="43.5428430" lon="-6.5271430">
        <ele>-4.0</ele>
        <time>2021-07-22T09:01:36Z</time>
      </trkpt>
      <trkpt lat="43.5428460" lon="-6.5271390">
        <ele>-4.0</ele>
        <time>2021-07-22T09:01:37Z</time>
      </trkpt>
      <trkpt lat="43.5428500" lon="-6.5271530">
        <ele>-4.0</ele>
        <time>2021-07-22T09:01:51Z</time>
      </trkpt>
      <trkpt lat="43.5428600" lon="-6.5272070">
        <ele>-4.0</ele>
        <time>2021-07-22T09:01:53Z</time>
      </trkpt>
      <trkpt lat="43.5428720" lon="-6.5272920">
        <ele>-4.0</ele>
        <time>2021-07-22T09:01:55Z</time>
      </trkpt>
      <trkpt lat="43.5428860" lon="-6.5273860">
        <ele>-4.0</ele>
        <time>2021-07-22T09:01:57Z</time>
      </trkpt>
      <trkpt lat="43.5429220" lon="-6.5276280">
        <ele>-4.0</ele>
        <time>2021-07-22T09:02:02Z</time>
      </trkpt>
      <trkpt lat="43.5429420" lon="-6.5277200">
        <ele>-4.0</ele>
        <time>2021-07-22T09:02:04Z</time>
      </trkpt>
      <trkpt lat="43.5429630" lon="-6.5278610">
        <ele>-3.6</ele>
        <time>2021-07-22T09:02:07Z</time>
      </trkpt>
      <trkpt lat="43.5429700" lon="-6.5279100">
        <ele>-3.2</ele>
        <time>2021-07-22T09:02:08Z</time>
      </trkpt>
      <trkpt lat="43.5429760" lon="-6.5279540">
        <ele>-2.8</ele>
        <time>2021-07-22T09:02:09Z</time>
      </trkpt>
      <trkpt lat="43.5429800" lon="-6.5279980">
        <ele>-2.0</ele>
        <time>2021-07-22T09:02:10Z</time>
      </trkpt>
      <trkpt lat="43.5429880" lon="-6.5280460">
        <ele>-2.0</ele>
        <time>2021-07-22T09:02:11Z</time>
      </trkpt>
      <trkpt lat="43.5430890" lon="-6.5283020">
        <ele>-2.0</ele>
        <time>2021-07-22T09:02:17Z</time>
      </trkpt>
      <trkpt lat="43.5432850" lon="-6.5286490">
        <ele>-2.0</ele>
        <time>2021-07-22T09:02:25Z</time>
      </trkpt>
      <trkpt lat="43.5434600" lon="-6.5289770">
        <ele>-2.0</ele>
        <time>2021-07-22T09:02:32Z</time>
      </trkpt>
      <trkpt lat="43.5435230" lon="-6.5290440">
        <ele>-2.0</ele>
        <time>2021-07-22T09:02:34Z</time>
      </trkpt>
      <trkpt lat="43.5437090" lon="-6.5292030">
        <ele>-2.0</ele>
        <time>2021-07-22T09:02:39Z</time>
      </trkpt>
      <trkpt lat="43.5439790" lon="-6.5294010">
        <ele>-2.0</ele>
        <time>2021-07-22T09:02:46Z</time>
      </trkpt>
      <trkpt lat="43.5440700" lon="-6.5294620">
        <ele>-2.0</ele>
        <time>2021-07-22T09:02:48Z</time>
      </trkpt>
      <trkpt lat="43.5442070" lon="-6.5295590">
        <ele>-2.0</ele>
        <time>2021-07-22T09:02:51Z</time>
      </trkpt>
      <trkpt lat="43.5442950" lon="-6.5296150">
        <ele>-2.0</ele>
        <time>2021-07-22T09:02:53Z</time>
      </trkpt>
      <trkpt lat="43.5444280" lon="-6.5296740">
        <ele>-2.0</ele>
        <time>2021-07-22T09:02:56Z</time>
      </trkpt>
      <trkpt lat="43.5445560" lon="-6.5296950">
        <ele>-2.0</ele>
        <time>2021-07-22T09:02:59Z</time>
      </trkpt>
      <trkpt lat="43.5446410" lon="-6.5296940">
        <ele>-2.0</ele>
        <time>2021-07-22T09:03:01Z</time>
      </trkpt>
      <trkpt lat="43.5446830" lon="-6.5296870">
        <ele>-2.4</ele>
        <time>2021-07-22T09:03:02Z</time>
      </trkpt>
      <trkpt lat="43.5447290" lon="-6.5296790">
        <ele>-2.8</ele>
        <time>2021-07-22T09:03:03Z</time>
      </trkpt>
      <trkpt lat="43.5447750" lon="-6.5296680">
        <ele>-3.2</ele>
        <time>2021-07-22T09:03:04Z</time>
      </trkpt>
      <trkpt lat="43.5448220" lon="-6.5296540">
        <ele>-3.6</ele>
        <time>2021-07-22T09:03:05Z</time>
      </trkpt>
      <trkpt lat="43.5448700" lon="-6.5296350">
        <ele>-4.0</ele>
        <time>2021-07-22T09:03:06Z</time>
      </trkpt>
      <trkpt lat="43.5450920" lon="-6.5295540">
        <ele>-4.0</ele>
        <time>2021-07-22T09:03:11Z</time>
      </trkpt>
      <trkpt lat="43.5451260" lon="-6.5295440">
        <ele>-4.0</ele>
        <time>2021-07-22T09:03:12Z</time>
      </trkpt>
      <trkpt lat="43.5451710" lon="-6.5295320">
        <ele>-4.4</ele>
        <time>2021-07-22T09:03:14Z</time>
      </trkpt>
      <trkpt lat="43.5451860" lon="-6.5295290">
        <ele>-5.0</ele>
        <time>2021-07-22T09:03:15Z</time>
      </trkpt>
      <trkpt lat="43.5451950" lon="-6.5295260">
        <ele>-5.4</ele>
        <time>2021-07-22T09:03:16Z</time>
      </trkpt>
      <trkpt lat="43.5451950" lon="-6.5295210">
        <ele>-5.8</ele>
        <time>2021-07-22T09:03:17Z</time>
      </trkpt>
      <trkpt lat="43.5452060" lon="-6.5295160">
        <ele>-6.2</ele>
        <time>2021-07-22T09:03:18Z</time>
      </trkpt>
      <trkpt lat="43.5452450" lon="-6.5295070">
        <ele>-6.2</ele>
        <time>2021-07-22T09:03:20Z</time>
      </trkpt>
      <trkpt lat="43.5453330" lon="-6.5295610">
        <ele>-6.2</ele>
        <time>2021-07-22T09:03:23Z</time>
      </trkpt>
      <trkpt lat="43.5453680" lon="-6.5295920">
        <ele>-6.2</ele>
        <time>2021-07-22T09:03:24Z</time>
      </trkpt>
      <trkpt lat="43.5455790" lon="-6.5297140">
        <ele>-6.2</ele>
        <time>2021-07-22T09:03:30Z</time>
      </trkpt>
      <trkpt lat="43.5457060" lon="-6.5297060">
        <ele>-6.6</ele>
        <time>2021-07-22T09:03:33Z</time>
      </trkpt>
      <trkpt lat="43.5457510" lon="-6.5297000">
        <ele>-7.0</ele>
        <time>2021-07-22T09:03:34Z</time>
      </trkpt>
      <trkpt lat="43.5457980" lon="-6.5296950">
        <ele>-7.4</ele>
        <time>2021-07-22T09:03:35Z</time>
      </trkpt>
      <trkpt lat="43.5458410" lon="-6.5296920">
        <ele>-7.8</ele>
        <time>2021-07-22T09:03:36Z</time>
      </trkpt>
      <trkpt lat="43.5458800" lon="-6.5296880">
        <ele>-8.2</ele>
        <time>2021-07-22T09:03:37Z</time>
      </trkpt>
      <trkpt lat="43.5459490" lon="-6.5296860">
        <ele>-8.2</ele>
        <time>2021-07-22T09:03:39Z</time>
      </trkpt>
      <trkpt lat="43.5460180" lon="-6.5296980">
        <ele>-8.2</ele>
        <time>2021-07-22T09:03:41Z</time>
      </trkpt>
      <trkpt lat="43.5461020" lon="-6.5297280">
        <ele>-8.2</ele>
        <time>2021-07-22T09:03:43Z</time>
      </trkpt>
      <trkpt lat="43.5461410" lon="-6.5297480">
        <ele>-8.6</ele>
        <time>2021-07-22T09:03:44Z</time>
      </trkpt>
      <trkpt lat="43.5461790" lon="-6.5297670">
        <ele>-9.0</ele>
        <time>2021-07-22T09:03:45Z</time>
      </trkpt>
      <trkpt lat="43.5462180" lon="-6.5297850">
        <ele>-9.4</ele>
        <time>2021-07-22T09:03:46Z</time>
      </trkpt>
      <trkpt lat="43.5462570" lon="-6.5298020">
        <ele>-9.8</ele>
        <time>2021-07-22T09:03:47Z</time>
      </trkpt>
      <trkpt lat="43.5462940" lon="-6.5298150">
        <ele>-10.2</ele>
        <time>2021-07-22T09:03:48Z</time>
      </trkpt>
      <trkpt lat="43.5463520" lon="-6.5298450">
        <ele>-10.6</ele>
        <time>2021-07-22T09:03:50Z</time>
      </trkpt>
      <trkpt lat="43.5463750" lon="-6.5298550">
        <ele>-11.2</ele>
        <time>2021-07-22T09:03:51Z</time>
      </trkpt>
      <trkpt lat="43.5464020" lon="-6.5298620">
        <ele>-11.6</ele>
        <time>2021-07-22T09:03:52Z</time>
      </trkpt>
      <trkpt lat="43.5464260" lon="-6.5298710">
        <ele>-12.0</ele>
        <time>2021-07-22T09:03:53Z</time>
      </trkpt>
      <trkpt lat="43.5464400" lon="-6.5298770">
        <ele>-12.4</ele>
        <time>2021-07-22T09:03:54Z</time>
      </trkpt>
      <trkpt lat="43.5464430" lon="-6.5298780">
        <ele>-12.4</ele>
        <time>2021-07-22T09:03:55Z</time>
      </trkpt>
      <trkpt lat="43.5464360" lon="-6.5299180">
        <ele>-12.4</ele>
        <time>2021-07-22T09:04:07Z</time>
      </trkpt>
      <trkpt lat="43.5464120" lon="-6.5300200">
        <ele>-12.8</ele>
        <time>2021-07-22T09:04:11Z</time>
      </trkpt>
      <trkpt lat="43.5464050" lon="-6.5300390">
        <ele>-13.2</ele>
        <time>2021-07-22T09:04:12Z</time>
      </trkpt>
      <trkpt lat="43.5463970" lon="-6.5300540">
        <ele>-13.6</ele>
        <time>2021-07-22T09:04:13Z</time>
      </trkpt>
      <trkpt lat="43.5463890" lon="-6.5300670">
        <ele>-14.4</ele>
        <time>2021-07-22T09:04:14Z</time>
      </trkpt>
      <trkpt lat="43.5463800" lon="-6.5300830">
        <ele>-14.4</ele>
        <time>2021-07-22T09:04:17Z</time>
      </trkpt>
      <trkpt lat="43.5463670" lon="-6.5300900">
        <ele>-14.4</ele>
        <time>2021-07-22T09:05:12Z</time>
      </trkpt>
      <trkpt lat="43.5463520" lon="-6.5301110">
        <ele>-14.4</ele>
        <time>2021-07-22T09:05:13Z</time>
      </trkpt>
      <trkpt lat="43.5463030" lon="-6.5301740">
        <ele>-15.0</ele>
        <time>2021-07-22T09:05:15Z</time>
      </trkpt>
      <trkpt lat="43.5462770" lon="-6.5302130">
        <ele>-15.4</ele>
        <time>2021-07-22T09:05:16Z</time>
      </trkpt>
      <trkpt lat="43.5462470" lon="-6.5302590">
        <ele>-15.8</ele>
        <time>2021-07-22T09:05:17Z</time>
      </trkpt>
      <trkpt lat="43.5462170" lon="-6.5303070">
        <ele>-16.2</ele>
        <time>2021-07-22T09:05:18Z</time>
      </trkpt>
      <trkpt lat="43.5461870" lon="-6.5303550">
        <ele>-16.6</ele>
        <time>2021-07-22T09:05:19Z</time>
      </trkpt>
      <trkpt lat="43.5461570" lon="-6.5304020">
        <ele>-17.2</ele>
        <time>2021-07-22T09:05:20Z</time>
      </trkpt>
      <trkpt lat="43.5461240" lon="-6.5304470">
        <ele>-17.6</ele>
        <time>2021-07-22T09:05:21Z</time>
      </trkpt>
      <trkpt lat="43.5460950" lon="-6.5304860">
        <ele>-18.0</ele>
        <time>2021-07-22T09:05:22Z</time>
      </trkpt>
      <trkpt lat="43.5460700" lon="-6.5305180">
        <ele>-18.4</ele>
        <time>2021-07-22T09:05:23Z</time>
      </trkpt>
      <trkpt lat="43.5460450" lon="-6.5305410">
        <ele>-19.0</ele>
        <time>2021-07-22T09:05:24Z</time>
      </trkpt>
      <trkpt lat="43.5460190" lon="-6.5305670">
        <ele>-19.6</ele>
        <time>2021-07-22T09:05:25Z</time>
      </trkpt>
      <trkpt lat="43.5459940" lon="-6.5305910">
        <ele>-20.2</ele>
        <time>2021-07-22T09:05:26Z</time>
      </trkpt>
      <trkpt lat="43.5459690" lon="-6.5306160">
        <ele>-20.6</ele>
        <time>2021-07-22T09:05:27Z</time>
      </trkpt>
      <trkpt lat="43.5459480" lon="-6.5306380">
        <ele>-21.2</ele>
        <time>2021-07-22T09:05:28Z</time>
      </trkpt>
      <trkpt lat="43.5459340" lon="-6.5306570">
        <ele>-21.2</ele>
        <time>2021-07-22T09:05:29Z</time>
      </trkpt>
      <trkpt lat="43.5459200" lon="-6.5306760">
        <ele>-21.6</ele>
        <time>2021-07-22T09:05:30Z</time>
      </trkpt>
      <trkpt lat="43.5459040" lon="-6.5306970">
        <ele>-22.0</ele>
        <time>2021-07-22T09:05:31Z</time>
      </trkpt>
      <trkpt lat="43.5458800" lon="-6.5307200">
        <ele>-22.6</ele>
        <time>2021-07-22T09:05:32Z</time>
      </trkpt>
      <trkpt lat="43.5458510" lon="-6.5307450">
        <ele>-23.0</ele>
        <time>2021-07-22T09:05:33Z</time>
      </trkpt>
      <trkpt lat="43.5458260" lon="-6.5307730">
        <ele>-23.4</ele>
        <time>2021-07-22T09:05:34Z</time>
      </trkpt>
      <trkpt lat="43.5457140" lon="-6.5308550">
        <ele>-23.4</ele>
        <time>2021-07-22T09:05:38Z</time>
      </trkpt>
      <trkpt lat="43.5456820" lon="-6.5308790">
        <ele>-23.8</ele>
        <time>2021-07-22T09:05:39Z</time>
      </trkpt>
      <trkpt lat="43.5456520" lon="-6.5309020">
        <ele>-24.2</ele>
        <time>2021-07-22T09:05:40Z</time>
      </trkpt>
      <trkpt lat="43.5456270" lon="-6.5309250">
        <ele>-24.6</ele>
        <time>2021-07-22T09:05:41Z</time>
      </trkpt>
      <trkpt lat="43.5456090" lon="-6.5309490">
        <ele>-25.0</ele>
        <time>2021-07-22T09:05:42Z</time>
      </trkpt>
      <trkpt lat="43.5455900" lon="-6.5309720">
        <ele>-25.6</ele>
        <time>2021-07-22T09:05:43Z</time>
      </trkpt>
      <trkpt lat="43.5455210" lon="-6.5310470">
        <ele>-25.6</ele>
        <time>2021-07-22T09:05:46Z</time>
      </trkpt>
      <trkpt lat="43.5454650" lon="-6.5311140">
        <ele>-26.0</ele>
        <time>2021-07-22T09:05:48Z</time>
      </trkpt>
      <trkpt lat="43.5454310" lon="-6.5311460">
        <ele>-26.4</ele>
        <time>2021-07-22T09:05:49Z</time>
      </trkpt>
      <trkpt lat="43.5453960" lon="-6.5311720">
        <ele>-26.8</ele>
        <time>2021-07-22T09:05:50Z</time>
      </trkpt>
      <trkpt lat="43.5453580" lon="-6.5312040">
        <ele>-27.2</ele>
        <time>2021-07-22T09:05:51Z</time>
      </trkpt>
      <trkpt lat="43.5453180" lon="-6.5312370">
        <ele>-27.6</ele>
        <time>2021-07-22T09:05:52Z</time>
      </trkpt>
      <trkpt lat="43.5452760" lon="-6.5312750">
        <ele>-27.6</ele>
        <time>2021-07-22T09:05:53Z</time>
      </trkpt>
      <trkpt lat="43.5451880" lon="-6.5313530">
        <ele>-27.6</ele>
        <time>2021-07-22T09:05:55Z</time>
      </trkpt>
      <trkpt lat="43.5450730" lon="-6.5314690">
        <ele>-28.0</ele>
        <time>2021-07-22T09:05:58Z</time>
      </trkpt>
      <trkpt lat="43.5450440" lon="-6.5315130">
        <ele>-28.4</ele>
        <time>2021-07-22T09:05:59Z</time>
      </trkpt>
      <trkpt lat="43.5450220" lon="-6.5315520">
        <ele>-29.0</ele>
        <time>2021-07-22T09:06:00Z</time>
      </trkpt>
      <trkpt lat="43.5450000" lon="-6.5315880">
        <ele>-29.4</ele>
        <time>2021-07-22T09:06:01Z</time>
      </trkpt>
      <trkpt lat="43.5449790" lon="-6.5316140">
        <ele>-29.8</ele>
        <time>2021-07-22T09:06:02Z</time>
      </trkpt>
      <trkpt lat="43.5449580" lon="-6.5316400">
        <ele>-30.4</ele>
        <time>2021-07-22T09:06:03Z</time>
      </trkpt>
      <trkpt lat="43.5449370" lon="-6.5316660">
        <ele>-31.0</ele>
        <time>2021-07-22T09:06:04Z</time>
      </trkpt>
      <trkpt lat="43.5449180" lon="-6.5316920">
        <ele>-31.6</ele>
        <time>2021-07-22T09:06:05Z</time>
      </trkpt>
      <trkpt lat="43.5449010" lon="-6.5317250">
        <ele>-32.0</ele>
        <time>2021-07-22T09:06:06Z</time>
      </trkpt>
      <trkpt lat="43.5448000" lon="-6.5319190">
        <ele>-32.6</ele>
        <time>2021-07-22T09:06:11Z</time>
      </trkpt>
      <trkpt lat="43.5447890" lon="-6.5319560">
        <ele>-33.0</ele>
        <time>2021-07-22T09:06:12Z</time>
      </trkpt>
      <trkpt lat="43.5447810" lon="-6.5319870">
        <ele>-33.4</ele>
        <time>2021-07-22T09:06:13Z</time>
      </trkpt>
      <trkpt lat="43.5447730" lon="-6.5320120">
        <ele>-34.0</ele>
        <time>2021-07-22T09:06:14Z</time>
      </trkpt>
      <trkpt lat="43.5447660" lon="-6.5320340">
        <ele>-34.4</ele>
        <time>2021-07-22T09:06:15Z</time>
      </trkpt>
      <trkpt lat="43.5447580" lon="-6.5320520">
        <ele>-34.8</ele>
        <time>2021-07-22T09:06:16Z</time>
      </trkpt>
      <trkpt lat="43.5447500" lon="-6.5320690">
        <ele>-35.8</ele>
        <time>2021-07-22T09:06:17Z</time>
      </trkpt>
      <trkpt lat="43.5447420" lon="-6.5320920">
        <ele>-36.2</ele>
        <time>2021-07-22T09:06:18Z</time>
      </trkpt>
      <trkpt lat="43.5447370" lon="-6.5321130">
        <ele>-36.6</ele>
        <time>2021-07-22T09:06:19Z</time>
      </trkpt>
      <trkpt lat="43.5447200" lon="-6.5321790">
        <ele>-36.6</ele>
        <time>2021-07-22T09:06:21Z</time>
      </trkpt>
      <trkpt lat="43.5446900" lon="-6.5322830">
        <ele>-37.2</ele>
        <time>2021-07-22T09:06:24Z</time>
      </trkpt>
      <trkpt lat="43.5446770" lon="-6.5323120">
        <ele>-37.6</ele>
        <time>2021-07-22T09:06:25Z</time>
      </trkpt>
      <trkpt lat="43.5446740" lon="-6.5323440">
        <ele>-38.0</ele>
        <time>2021-07-22T09:06:26Z</time>
      </trkpt>
      <trkpt lat="43.5446750" lon="-6.5323720">
        <ele>-38.4</ele>
        <time>2021-07-22T09:06:27Z</time>
      </trkpt>
      <trkpt lat="43.5446740" lon="-6.5323970">
        <ele>-38.8</ele>
        <time>2021-07-22T09:06:28Z</time>
      </trkpt>
      <trkpt lat="43.5446780" lon="-6.5324340">
        <ele>-39.2</ele>
        <time>2021-07-22T09:06:30Z</time>
      </trkpt>
      <trkpt lat="43.5446830" lon="-6.5324480">
        <ele>-39.6</ele>
        <time>2021-07-22T09:06:31Z</time>
      </trkpt>
      <trkpt lat="43.5446850" lon="-6.5324670">
        <ele>-40.0</ele>
        <time>2021-07-22T09:06:32Z</time>
      </trkpt>
      <trkpt lat="43.5446850" lon="-6.5324840">
        <ele>-40.4</ele>
        <time>2021-07-22T09:06:33Z</time>
      </trkpt>
      <trkpt lat="43.5446890" lon="-6.5324920">
        <ele>-40.8</ele>
        <time>2021-07-22T09:06:34Z</time>
      </trkpt>
      <trkpt lat="43.5446910" lon="-6.5324990">
        <ele>-40.8</ele>
        <time>2021-07-22T09:06:35Z</time>
      </trkpt>
      <trkpt lat="43.5446680" lon="-6.5325990">
        <ele>-40.8</ele>
        <time>2021-07-22T09:07:28Z</time>
      </trkpt>
      <trkpt lat="43.5446630" lon="-6.5326210">
        <ele>-40.8</ele>
        <time>2021-07-22T09:07:29Z</time>
      </trkpt>
      <trkpt lat="43.5446570" lon="-6.5326380">
        <ele>-40.8</ele>
        <time>2021-07-22T09:07:31Z</time>
      </trkpt>
      <trkpt lat="43.5446480" lon="-6.5326750">
        <ele>-40.8</ele>
        <time>2021-07-22T09:07:53Z</time>
      </trkpt>
      <trkpt lat="43.5446410" lon="-6.5326960">
        <ele>-40.8</ele>
        <time>2021-07-22T09:07:54Z</time>
      </trkpt>
      <trkpt lat="43.5446060" lon="-6.5327640">
        <ele>-41.2</ele>
        <time>2021-07-22T09:07:57Z</time>
      </trkpt>
      <trkpt lat="43.5445940" lon="-6.5327820">
        <ele>-41.6</ele>
        <time>2021-07-22T09:07:58Z</time>
      </trkpt>
      <trkpt lat="43.5445810" lon="-6.5327990">
        <ele>-42.0</ele>
        <time>2021-07-22T09:07:59Z</time>
      </trkpt>
      <trkpt lat="43.5445680" lon="-6.5328140">
        <ele>-42.4</ele>
        <time>2021-07-22T09:08:00Z</time>
      </trkpt>
      <trkpt lat="43.5445580" lon="-6.5328240">
        <ele>-42.8</ele>
        <time>2021-07-22T09:08:01Z</time>
      </trkpt>
      <trkpt lat="43.5445010" lon="-6.5328560">
        <ele>-42.8</ele>
        <time>2021-07-22T09:08:07Z</time>
      </trkpt>
      <trkpt lat="43.5444420" lon="-6.5329290">
        <ele>-43.2</ele>
        <time>2021-07-22T09:08:12Z</time>
      </trkpt>
      <trkpt lat="43.5444270" lon="-6.5329450">
        <ele>-43.6</ele>
        <time>2021-07-22T09:08:13Z</time>
      </trkpt>
      <trkpt lat="43.5444190" lon="-6.5329530">
        <ele>-44.0</ele>
        <time>2021-07-22T09:08:14Z</time>
      </trkpt>
      <trkpt lat="43.5444100" lon="-6.5329630">
        <ele>-44.4</ele>
        <time>2021-07-22T09:08:15Z</time>
      </trkpt>
      <trkpt lat="43.5444040" lon="-6.5329770">
        <ele>-44.8</ele>
        <time>2021-07-22T09:08:16Z</time>
      </trkpt>
      <trkpt lat="43.5443900" lon="-6.5329900">
        <ele>-44.8</ele>
        <time>2021-07-22T09:08:18Z</time>
      </trkpt>
      <trkpt lat="43.5443890" lon="-6.5330450">
        <ele>-44.8</ele>
        <time>2021-07-22T09:08:20Z</time>
      </trkpt>
      <trkpt lat="43.5443970" lon="-6.5330850">
        <ele>-45.8</ele>
        <time>2021-07-22T09:08:21Z</time>
      </trkpt>
      <trkpt lat="43.5444000" lon="-6.5331150">
        <ele>-46.2</ele>
        <time>2021-07-22T09:08:22Z</time>
      </trkpt>
      <trkpt lat="43.5444000" lon="-6.5331240">
        <ele>-46.6</ele>
        <time>2021-07-22T09:08:23Z</time>
      </trkpt>
      <trkpt lat="43.5443990" lon="-6.5331330">
        <ele>-47.0</ele>
        <time>2021-07-22T09:08:24Z</time>
      </trkpt>
      <trkpt lat="43.5443970" lon="-6.5331400">
        <ele>-47.0</ele>
        <time>2021-07-22T09:08:25Z</time>
      </trkpt>
      <trkpt lat="43.5443890" lon="-6.5332090">
        <ele>-47.0</ele>
        <time>2021-07-22T09:08:33Z</time>
      </trkpt>
      <trkpt lat="43.5443860" lon="-6.5332570">
        <ele>-47.4</ele>
        <time>2021-07-22T09:08:36Z</time>
      </trkpt>
      <trkpt lat="43.5443820" lon="-6.5332760">
        <ele>-47.8</ele>
        <time>2021-07-22T09:08:37Z</time>
      </trkpt>
      <trkpt lat="43.5443810" lon="-6.5332940">
        <ele>-48.2</ele>
        <time>2021-07-22T09:08:38Z</time>
      </trkpt>
      <trkpt lat="43.5443790" lon="-6.5333130">
        <ele>-48.6</ele>
        <time>2021-07-22T09:08:39Z</time>
      </trkpt>
      <trkpt lat="43.5443760" lon="-6.5333340">
        <ele>-49.0</ele>
        <time>2021-07-22T09:08:40Z</time>
      </trkpt>
      <trkpt lat="43.5443810" lon="-6.5334620">
        <ele>-50.0</ele>
        <time>2021-07-22T09:08:46Z</time>
      </trkpt>
      <trkpt lat="43.5443870" lon="-6.5334810">
        <ele>-50.4</ele>
        <time>2021-07-22T09:08:47Z</time>
      </trkpt>
      <trkpt lat="43.5443880" lon="-6.5335060">
        <ele>-50.8</ele>
        <time>2021-07-22T09:08:48Z</time>
      </trkpt>
      <trkpt lat="43.5443880" lon="-6.5335260">
        <ele>-51.2</ele>
        <time>2021-07-22T09:08:49Z</time>
      </trkpt>
      <trkpt lat="43.5443840" lon="-6.5336010">
        <ele>-51.2</ele>
        <time>2021-07-22T09:08:53Z</time>
      </trkpt>
      <trkpt lat="43.5443880" lon="-6.5336280">
        <ele>-51.8</ele>
        <time>2021-07-22T09:08:55Z</time>
      </trkpt>
      <trkpt lat="43.5443870" lon="-6.5336400">
        <ele>-52.2</ele>
        <time>2021-07-22T09:08:56Z</time>
      </trkpt>
      <trkpt lat="43.5443870" lon="-6.5336490">
        <ele>-52.6</ele>
        <time>2021-07-22T09:08:57Z</time>
      </trkpt>
      <trkpt lat="43.5443860" lon="-6.5336510">
        <ele>-53.0</ele>
        <time>2021-07-22T09:08:58Z</time>
      </trkpt>
      <trkpt lat="43.5443600" lon="-6.5338460">
        <ele>-55.6</ele>
        <time>2021-07-22T09:09:17Z</time>
      </trkpt>
      <trkpt lat="43.5443560" lon="-6.5338660">
        <ele>-55.6</ele>
        <time>2021-07-22T09:09:18Z</time>
      </trkpt>
      <trkpt lat="43.5443380" lon="-6.5339320">
        <ele>-56.0</ele>
        <time>2021-07-22T09:09:22Z</time>
      </trkpt>
      <trkpt lat="43.5443340" lon="-6.5339470">
        <ele>-56.4</ele>
        <time>2021-07-22T09:09:23Z</time>
      </trkpt>
      <trkpt lat="43.5443320" lon="-6.5339690">
        <ele>-56.8</ele>
        <time>2021-07-22T09:09:24Z</time>
      </trkpt>
      <trkpt lat="43.5443350" lon="-6.5339940">
        <ele>-57.2</ele>
        <time>2021-07-22T09:09:25Z</time>
      </trkpt>
      <trkpt lat="43.5443410" lon="-6.5340120">
        <ele>-57.6</ele>
        <time>2021-07-22T09:09:26Z</time>
      </trkpt>
      <trkpt lat="43.5443500" lon="-6.5340310">
        <ele>-57.6</ele>
        <time>2021-07-22T09:09:27Z</time>
      </trkpt>
      <trkpt lat="43.5443540" lon="-6.5340870">
        <ele>-57.6</ele>
        <time>2021-07-22T09:09:32Z</time>
      </trkpt>
      <trkpt lat="43.5443600" lon="-6.5341560">
        <ele>-58.0</ele>
        <time>2021-07-22T09:09:37Z</time>
      </trkpt>
      <trkpt lat="43.5443630" lon="-6.5341720">
        <ele>-58.4</ele>
        <time>2021-07-22T09:09:38Z</time>
      </trkpt>
      <trkpt lat="43.5443700" lon="-6.5341820">
        <ele>-58.8</ele>
        <time>2021-07-22T09:09:39Z</time>
      </trkpt>
      <trkpt lat="43.5443740" lon="-6.5341930">
        <ele>-59.2</ele>
        <time>2021-07-22T09:09:41Z</time>
      </trkpt>
      <trkpt lat="43.5443740" lon="-6.5342050">
        <ele>-59.8</ele>
        <time>2021-07-22T09:09:42Z</time>
      </trkpt>
      <trkpt lat="43.5444050" lon="-6.5342710">
        <ele>-59.8</ele>
        <time>2021-07-22T09:09:48Z</time>
      </trkpt>
      <trkpt lat="43.5444200" lon="-6.5342800">
        <ele>-59.8</ele>
        <time>2021-07-22T09:09:49Z</time>
      </trkpt>
      <trkpt lat="43.5444450" lon="-6.5342940">
        <ele>-60.2</ele>
        <time>2021-07-22T09:09:51Z</time>
      </trkpt>
      <trkpt lat="43.5444570" lon="-6.5342940">
        <ele>-60.6</ele>
        <time>2021-07-22T09:09:52Z</time>
      </trkpt>
      <trkpt lat="43.5444670" lon="-6.5342920">
        <ele>-61.0</ele>
        <time>2021-07-22T09:09:53Z</time>
      </trkpt>
      <trkpt lat="43.5444760" lon="-6.5342920">
        <ele>-61.4</ele>
        <time>2021-07-22T09:09:54Z</time>
      </trkpt>
      <trkpt lat="43.5444840" lon="-6.5342920">
        <ele>-61.8</ele>
        <time>2021-07-22T09:09:55Z</time>
      </trkpt>
      <trkpt lat="43.5444860" lon="-6.5342900">
        <ele>-61.8</ele>
        <time>2021-07-22T09:09:56Z</time>
      </trkpt>
      <trkpt lat="43.5444400" lon="-6.5343130">
        <ele>-61.8</ele>
        <time>2021-07-22T09:10:00Z</time>
      </trkpt>
      <trkpt lat="43.5443770" lon="-6.5342870">
        <ele>-61.8</ele>
        <time>2021-07-22T09:10:06Z</time>
      </trkpt>
      <trkpt lat="43.5443670" lon="-6.5342670">
        <ele>-61.8</ele>
        <time>2021-07-22T09:10:07Z</time>
      </trkpt>
      <trkpt lat="43.5443380" lon="-6.5342370">
        <ele>-61.8</ele>
        <time>2021-07-22T09:10:10Z</time>
      </trkpt>
      <trkpt lat="43.5443250" lon="-6.5343150">
        <ele>-61.8</ele>
        <time>2021-07-22T09:10:14Z</time>
      </trkpt>
      <trkpt lat="43.5441980" lon="-6.5345100">
        <ele>-68.2</ele>
        <time>2021-07-22T09:11:21Z</time>
      </trkpt>
      <trkpt lat="43.5441570" lon="-6.5345680">
        <ele>-68.2</ele>
        <time>2021-07-22T09:11:24Z</time>
      </trkpt>
      <trkpt lat="43.5441480" lon="-6.5345640">
        <ele>-68.2</ele>
        <time>2021-07-22T09:11:25Z</time>
      </trkpt>
      <trkpt lat="43.5440770" lon="-6.5344950">
        <ele>-68.2</ele>
        <time>2021-07-22T09:11:40Z</time>
      </trkpt>
      <trkpt lat="43.5440540" lon="-6.5344340">
        <ele>-68.2</ele>
        <time>2021-07-22T09:11:43Z</time>
      </trkpt>
      <trkpt lat="43.5440270" lon="-6.5343890">
        <ele>-68.2</ele>
        <time>2021-07-22T09:11:46Z</time>
      </trkpt>
      <trkpt lat="43.5440180" lon="-6.5343970">
        <ele>-68.2</ele>
        <time>2021-07-22T09:11:47Z</time>
      </trkpt>
      <trkpt lat="43.5440100" lon="-6.5344000">
        <ele>-68.2</ele>
        <time>2021-07-22T09:11:49Z</time>
      </trkpt>
      <trkpt lat="43.5439670" lon="-6.5344210">
        <ele>-68.2</ele>
        <time>2021-07-22T09:12:11Z</time>
      </trkpt>
      <trkpt lat="43.5438680" lon="-6.5344890">
        <ele>-68.2</ele>
        <time>2021-07-22T09:12:18Z</time>
      </trkpt>
      <trkpt lat="43.5438550" lon="-6.5344880">
        <ele>-68.2</ele>
        <time>2021-07-22T09:12:19Z</time>
      </trkpt>
      <trkpt lat="43.5438180" lon="-6.5344840">
        <ele>-68.2</ele>
        <time>2021-07-22T09:12:23Z</time>
      </trkpt>
      <trkpt lat="43.5438120" lon="-6.5344830">
        <ele>-68.2</ele>
        <time>2021-07-22T09:12:24Z</time>
      </trkpt>
      <trkpt lat="43.5437660" lon="-6.5345270">
        <ele>-69.6</ele>
        <time>2021-07-22T09:12:34Z</time>
      </trkpt>
      <trkpt lat="43.5437500" lon="-6.5345380">
        <ele>-70.0</ele>
        <time>2021-07-22T09:12:35Z</time>
      </trkpt>
      <trkpt lat="43.5437330" lon="-6.5345500">
        <ele>-70.4</ele>
        <time>2021-07-22T09:12:36Z</time>
      </trkpt>
      <trkpt lat="43.5436610" lon="-6.5346110">
        <ele>-70.4</ele>
        <time>2021-07-22T09:12:40Z</time>
      </trkpt>
      <trkpt lat="43.5436010" lon="-6.5346630">
        <ele>-70.4</ele>
        <time>2021-07-22T09:12:42Z</time>
      </trkpt>
      <trkpt lat="43.5435560" lon="-6.5347180">
        <ele>-70.4</ele>
        <time>2021-07-22T09:12:44Z</time>
      </trkpt>
      <trkpt lat="43.5434970" lon="-6.5347830">
        <ele>-70.4</ele>
        <time>2021-07-22T09:12:48Z</time>
      </trkpt>
      <trkpt lat="43.5434060" lon="-6.5348830">
        <ele>-70.4</ele>
        <time>2021-07-22T09:12:52Z</time>
      </trkpt>
      <trkpt lat="43.5433100" lon="-6.5348250">
        <ele>-70.4</ele>
        <time>2021-07-22T09:13:01Z</time>
      </trkpt>
      <trkpt lat="43.5432440" lon="-6.5348150">
        <ele>-70.4</ele>
        <time>2021-07-22T09:13:03Z</time>
      </trkpt>
      <trkpt lat="43.5431560" lon="-6.5348020">
        <ele>-70.4</ele>
        <time>2021-07-22T09:13:06Z</time>
      </trkpt>
      <trkpt lat="43.5430830" lon="-6.5348290">
        <ele>-70.0</ele>
        <time>2021-07-22T09:13:09Z</time>
      </trkpt>
      <trkpt lat="43.5430730" lon="-6.5348470">
        <ele>-69.6</ele>
        <time>2021-07-22T09:13:10Z</time>
      </trkpt>
      <trkpt lat="43.5430730" lon="-6.5348660">
        <ele>-69.2</ele>
        <time>2021-07-22T09:13:11Z</time>
      </trkpt>
      <trkpt lat="43.5430720" lon="-6.5348830">
        <ele>-68.6</ele>
        <time>2021-07-22T09:13:12Z</time>
      </trkpt>
      <trkpt lat="43.5430660" lon="-6.5349030">
        <ele>-68.2</ele>
        <time>2021-07-22T09:13:24Z</time>
      </trkpt>
      <trkpt lat="43.5430630" lon="-6.5349120">
        <ele>-68.2</ele>
        <time>2021-07-22T09:13:25Z</time>
      </trkpt>
      <trkpt lat="43.5430100" lon="-6.5349950">
        <ele>-68.2</ele>
        <time>2021-07-22T09:13:29Z</time>
      </trkpt>
      <trkpt lat="43.5429600" lon="-6.5350650">
        <ele>-68.2</ele>
        <time>2021-07-22T09:13:32Z</time>
      </trkpt>
      <trkpt lat="43.5429410" lon="-6.5351310">
        <ele>-68.2</ele>
        <time>2021-07-22T09:13:35Z</time>
      </trkpt>
      <trkpt lat="43.5429370" lon="-6.5351540">
        <ele>-68.2</ele>
        <time>2021-07-22T09:13:36Z</time>
      </trkpt>
      <trkpt lat="43.5429120" lon="-6.5351840">
        <ele>-67.8</ele>
        <time>2021-07-22T09:13:38Z</time>
      </trkpt>
      <trkpt lat="43.5429020" lon="-6.5352050">
        <ele>-67.4</ele>
        <time>2021-07-22T09:13:39Z</time>
      </trkpt>
      <trkpt lat="43.5428910" lon="-6.5352260">
        <ele>-67.0</ele>
        <time>2021-07-22T09:13:40Z</time>
      </trkpt>
      <trkpt lat="43.5428820" lon="-6.5352470">
        <ele>-66.6</ele>
        <time>2021-07-22T09:13:41Z</time>
      </trkpt>
      <trkpt lat="43.5428760" lon="-6.5352720">
        <ele>-66.2</ele>
        <time>2021-07-22T09:13:42Z</time>
      </trkpt>
      <trkpt lat="43.5428580" lon="-6.5353160">
        <ele>-66.2</ele>
        <time>2021-07-22T09:13:44Z</time>
      </trkpt>
      <trkpt lat="43.5428370" lon="-6.5353610">
        <ele>-65.8</ele>
        <time>2021-07-22T09:13:46Z</time>
      </trkpt>
      <trkpt lat="43.5428270" lon="-6.5353820">
        <ele>-65.4</ele>
        <time>2021-07-22T09:13:47Z</time>
      </trkpt>
      <trkpt lat="43.5428190" lon="-6.5354000">
        <ele>-65.0</ele>
        <time>2021-07-22T09:13:48Z</time>
      </trkpt>
      <trkpt lat="43.5428110" lon="-6.5354150">
        <ele>-64.6</ele>
        <time>2021-07-22T09:13:49Z</time>
      </trkpt>
      <trkpt lat="43.5428040" lon="-6.5354310">
        <ele>-64.2</ele>
        <time>2021-07-22T09:13:50Z</time>
      </trkpt>
      <trkpt lat="43.5427830" lon="-6.5354560">
        <ele>-64.2</ele>
        <time>2021-07-22T09:13:52Z</time>
      </trkpt>
      <trkpt lat="43.5427480" lon="-6.5355290">
        <ele>-64.2</ele>
        <time>2021-07-22T09:13:57Z</time>
      </trkpt>
      <trkpt lat="43.5427430" lon="-6.5355410">
        <ele>-63.8</ele>
        <time>2021-07-22T09:13:58Z</time>
      </trkpt>
      <trkpt lat="43.5427340" lon="-6.5355600">
        <ele>-63.4</ele>
        <time>2021-07-22T09:13:59Z</time>
      </trkpt>
      <trkpt lat="43.5427250" lon="-6.5355720">
        <ele>-62.8</ele>
        <time>2021-07-22T09:14:00Z</time>
      </trkpt>
      <trkpt lat="43.5427110" lon="-6.5355830">
        <ele>-62.4</ele>
        <time>2021-07-22T09:14:01Z</time>
      </trkpt>
      <trkpt lat="43.5426990" lon="-6.5355960">
        <ele>-62.0</ele>
        <time>2021-07-22T09:14:02Z</time>
      </trkpt>
      <trkpt lat="43.5426200" lon="-6.5356670">
        <ele>-61.6</ele>
        <time>2021-07-22T09:14:09Z</time>
      </trkpt>
      <trkpt lat="43.5426180" lon="-6.5356710">
        <ele>-61.2</ele>
        <time>2021-07-22T09:14:10Z</time>
      </trkpt>
      <trkpt lat="43.5426090" lon="-6.5356780">
        <ele>-60.8</ele>
        <time>2021-07-22T09:14:11Z</time>
      </trkpt>
      <trkpt lat="43.5426020" lon="-6.5356860">
        <ele>-60.4</ele>
        <time>2021-07-22T09:14:12Z</time>
      </trkpt>
      <trkpt lat="43.5425970" lon="-6.5356980">
        <ele>-60.0</ele>
        <time>2021-07-22T09:14:13Z</time>
      </trkpt>
      <trkpt lat="43.5425810" lon="-6.5357260">
        <ele>-60.0</ele>
        <time>2021-07-22T09:14:15Z</time>
      </trkpt>
      <trkpt lat="43.5424340" lon="-6.5358790">
        <ele>-57.8</ele>
        <time>2021-07-22T09:14:28Z</time>
      </trkpt>
      <trkpt lat="43.5423660" lon="-6.5359730">
        <ele>-57.4</ele>
        <time>2021-07-22T09:14:34Z</time>
      </trkpt>
      <trkpt lat="43.5423600" lon="-6.5359980">
        <ele>-57.0</ele>
        <time>2021-07-22T09:14:35Z</time>
      </trkpt>
      <trkpt lat="43.5423520" lon="-6.5360200">
        <ele>-56.6</ele>
        <time>2021-07-22T09:14:36Z</time>
      </trkpt>
      <trkpt lat="43.5423460" lon="-6.5360410">
        <ele>-56.2</ele>
        <time>2021-07-22T09:14:37Z</time>
      </trkpt>
      <trkpt lat="43.5423480" lon="-6.5360700">
        <ele>-55.8</ele>
        <time>2021-07-22T09:14:38Z</time>
      </trkpt>
      <trkpt lat="43.5423480" lon="-6.5361250">
        <ele>-55.8</ele>
        <time>2021-07-22T09:14:40Z</time>
      </trkpt>
      <trkpt lat="43.5423500" lon="-6.5361650">
        <ele>-55.8</ele>
        <time>2021-07-22T09:14:42Z</time>
      </trkpt>
      <trkpt lat="43.5423510" lon="-6.5362740">
        <ele>-55.4</ele>
        <time>2021-07-22T09:14:46Z</time>
      </trkpt>
      <trkpt lat="43.5423500" lon="-6.5362930">
        <ele>-55.0</ele>
        <time>2021-07-22T09:14:47Z</time>
      </trkpt>
      <trkpt lat="43.5423440" lon="-6.5363150">
        <ele>-54.6</ele>
        <time>2021-07-22T09:14:48Z</time>
      </trkpt>
      <trkpt lat="43.5423410" lon="-6.5363330">
        <ele>-54.2</ele>
        <time>2021-07-22T09:14:49Z</time>
      </trkpt>
      <trkpt lat="43.5423370" lon="-6.5363550">
        <ele>-53.8</ele>
        <time>2021-07-22T09:14:50Z</time>
      </trkpt>
      <trkpt lat="43.5423360" lon="-6.5364550">
        <ele>-53.8</ele>
        <time>2021-07-22T09:14:55Z</time>
      </trkpt>
      <trkpt lat="43.5423360" lon="-6.5365400">
        <ele>-53.4</ele>
        <time>2021-07-22T09:14:59Z</time>
      </trkpt>
      <trkpt lat="43.5423360" lon="-6.5365600">
        <ele>-53.0</ele>
        <time>2021-07-22T09:15:00Z</time>
      </trkpt>
      <trkpt lat="43.5423330" lon="-6.5365830">
        <ele>-52.6</ele>
        <time>2021-07-22T09:15:01Z</time>
      </trkpt>
      <trkpt lat="43.5423310" lon="-6.5366040">
        <ele>-52.2</ele>
        <time>2021-07-22T09:15:02Z</time>
      </trkpt>
      <trkpt lat="43.5423230" lon="-6.5366230">
        <ele>-51.8</ele>
        <time>2021-07-22T09:15:03Z</time>
      </trkpt>
      <trkpt lat="43.5423110" lon="-6.5367790">
        <ele>-51.8</ele>
        <time>2021-07-22T09:15:11Z</time>
      </trkpt>
      <trkpt lat="43.5423050" lon="-6.5367880">
        <ele>-51.4</ele>
        <time>2021-07-22T09:15:12Z</time>
      </trkpt>
      <trkpt lat="43.5423030" lon="-6.5368010">
        <ele>-50.8</ele>
        <time>2021-07-22T09:15:13Z</time>
      </trkpt>
      <trkpt lat="43.5423020" lon="-6.5368270">
        <ele>-50.4</ele>
        <time>2021-07-22T09:15:14Z</time>
      </trkpt>
      <trkpt lat="43.5423000" lon="-6.5368580">
        <ele>-50.0</ele>
        <time>2021-07-22T09:15:15Z</time>
      </trkpt>
      <trkpt lat="43.5423000" lon="-6.5368860">
        <ele>-49.6</ele>
        <time>2021-07-22T09:15:16Z</time>
      </trkpt>
      <trkpt lat="43.5422940" lon="-6.5369870">
        <ele>-49.6</ele>
        <time>2021-07-22T09:15:21Z</time>
      </trkpt>
      <trkpt lat="43.5423040" lon="-6.5370650">
        <ele>-49.2</ele>
        <time>2021-07-22T09:15:25Z</time>
      </trkpt>
      <trkpt lat="43.5423040" lon="-6.5370790">
        <ele>-48.8</ele>
        <time>2021-07-22T09:15:26Z</time>
      </trkpt>
      <trkpt lat="43.5423100" lon="-6.5370940">
        <ele>-48.4</ele>
        <time>2021-07-22T09:15:27Z</time>
      </trkpt>
      <trkpt lat="43.5423130" lon="-6.5371110">
        <ele>-48.0</ele>
        <time>2021-07-22T09:15:28Z</time>
      </trkpt>
      <trkpt lat="43.5423140" lon="-6.5371310">
        <ele>-47.6</ele>
        <time>2021-07-22T09:15:29Z</time>
      </trkpt>
      <trkpt lat="43.5423060" lon="-6.5372800">
        <ele>-47.0</ele>
        <time>2021-07-22T09:15:36Z</time>
      </trkpt>
      <trkpt lat="43.5423060" lon="-6.5373010">
        <ele>-46.6</ele>
        <time>2021-07-22T09:15:37Z</time>
      </trkpt>
      <trkpt lat="43.5423110" lon="-6.5373190">
        <ele>-46.2</ele>
        <time>2021-07-22T09:15:38Z</time>
      </trkpt>
      <trkpt lat="43.5423150" lon="-6.5373410">
        <ele>-45.8</ele>
        <time>2021-07-22T09:15:39Z</time>
      </trkpt>
      <trkpt lat="43.5423140" lon="-6.5373610">
        <ele>-45.4</ele>
        <time>2021-07-22T09:15:40Z</time>
      </trkpt>
      <trkpt lat="43.5423260" lon="-6.5373950">
        <ele>-45.4</ele>
        <time>2021-07-22T09:15:43Z</time>
      </trkpt>
      <trkpt lat="43.5423340" lon="-6.5374030">
        <ele>-45.4</ele>
        <time>2021-07-22T09:15:44Z</time>
      </trkpt>
      <trkpt lat="43.5423470" lon="-6.5373830">
        <ele>-45.4</ele>
        <time>2021-07-22T09:15:48Z</time>
      </trkpt>
      <trkpt lat="43.5423570" lon="-6.5373330">
        <ele>-45.4</ele>
        <time>2021-07-22T09:17:30Z</time>
      </trkpt>
      <trkpt lat="43.5423570" lon="-6.5373090">
        <ele>-45.4</ele>
        <time>2021-07-22T09:17:31Z</time>
      </trkpt>
      <trkpt lat="43.5423610" lon="-6.5372670">
        <ele>-45.4</ele>
        <time>2021-07-22T09:17:33Z</time>
      </trkpt>
      <trkpt lat="43.5423780" lon="-6.5371960">
        <ele>-45.4</ele>
        <time>2021-07-22T09:17:36Z</time>
      </trkpt>
      <trkpt lat="43.5423860" lon="-6.5371480">
        <ele>-45.4</ele>
        <time>2021-07-22T09:17:38Z</time>
      </trkpt>
      <trkpt lat="43.5423890" lon="-6.5371280">
        <ele>-45.0</ele>
        <time>2021-07-22T09:17:39Z</time>
      </trkpt>
      <trkpt lat="43.5423900" lon="-6.5371070">
        <ele>-44.6</ele>
        <time>2021-07-22T09:17:40Z</time>
      </trkpt>
      <trkpt lat="43.5423890" lon="-6.5370840">
        <ele>-44.2</ele>
        <time>2021-07-22T09:17:41Z</time>
      </trkpt>
      <trkpt lat="43.5423900" lon="-6.5370620">
        <ele>-43.6</ele>
        <time>2021-07-22T09:17:42Z</time>
      </trkpt>
      <trkpt lat="43.5423930" lon="-6.5370430">
        <ele>-43.2</ele>
        <time>2021-07-22T09:17:43Z</time>
      </trkpt>
      <trkpt lat="43.5424080" lon="-6.5369730">
        <ele>-43.2</ele>
        <time>2021-07-22T09:17:47Z</time>
      </trkpt>
      <trkpt lat="43.5424100" lon="-6.5369550">
        <ele>-43.2</ele>
        <time>2021-07-22T09:17:48Z</time>
      </trkpt>
      <trkpt lat="43.5424150" lon="-6.5368890">
        <ele>-42.4</ele>
        <time>2021-07-22T09:17:51Z</time>
      </trkpt>
      <trkpt lat="43.5424200" lon="-6.5368710">
        <ele>-42.0</ele>
        <time>2021-07-22T09:17:52Z</time>
      </trkpt>
      <trkpt lat="43.5424270" lon="-6.5368470">
        <ele>-41.4</ele>
        <time>2021-07-22T09:17:53Z</time>
      </trkpt>
      <trkpt lat="43.5424330" lon="-6.5368280">
        <ele>-41.0</ele>
        <time>2021-07-22T09:17:54Z</time>
      </trkpt>
      <trkpt lat="43.5424670" lon="-6.5367650">
        <ele>-41.0</ele>
        <time>2021-07-22T09:17:57Z</time>
      </trkpt>
      <trkpt lat="43.5425010" lon="-6.5367080">
        <ele>-41.0</ele>
        <time>2021-07-22T09:18:00Z</time>
      </trkpt>
      <trkpt lat="43.5425100" lon="-6.5366420">
        <ele>-40.6</ele>
        <time>2021-07-22T09:18:03Z</time>
      </trkpt>
      <trkpt lat="43.5425130" lon="-6.5366210">
        <ele>-40.2</ele>
        <time>2021-07-22T09:18:04Z</time>
      </trkpt>
      <trkpt lat="43.5425160" lon="-6.5366040">
        <ele>-39.8</ele>
        <time>2021-07-22T09:18:05Z</time>
      </trkpt>
      <trkpt lat="43.5425210" lon="-6.5365840">
        <ele>-39.4</ele>
        <time>2021-07-22T09:18:06Z</time>
      </trkpt>
      <trkpt lat="43.5425270" lon="-6.5365630">
        <ele>-39.0</ele>
        <time>2021-07-22T09:18:07Z</time>
      </trkpt>
      <trkpt lat="43.5425490" lon="-6.5364730">
        <ele>-39.0</ele>
        <time>2021-07-22T09:18:12Z</time>
      </trkpt>
      <trkpt lat="43.5425610" lon="-6.5363910">
        <ele>-38.2</ele>
        <time>2021-07-22T09:18:16Z</time>
      </trkpt>
      <trkpt lat="43.5425650" lon="-6.5363750">
        <ele>-37.8</ele>
        <time>2021-07-22T09:18:17Z</time>
      </trkpt>
      <trkpt lat="43.5425710" lon="-6.5363600">
        <ele>-37.4</ele>
        <time>2021-07-22T09:18:18Z</time>
      </trkpt>
      <trkpt lat="43.5425780" lon="-6.5363410">
        <ele>-37.0</ele>
        <time>2021-07-22T09:18:19Z</time>
      </trkpt>
      <trkpt lat="43.5425840" lon="-6.5363190">
        <ele>-37.0</ele>
        <time>2021-07-22T09:18:20Z</time>
      </trkpt>
      <trkpt lat="43.5426390" lon="-6.5361710">
        <ele>-36.6</ele>
        <time>2021-07-22T09:18:28Z</time>
      </trkpt>
      <trkpt lat="43.5426480" lon="-6.5361540">
        <ele>-36.0</ele>
        <time>2021-07-22T09:18:29Z</time>
      </trkpt>
      <trkpt lat="43.5426590" lon="-6.5361400">
        <ele>-35.6</ele>
        <time>2021-07-22T09:18:30Z</time>
      </trkpt>
      <trkpt lat="43.5426740" lon="-6.5361330">
        <ele>-35.2</ele>
        <time>2021-07-22T09:18:31Z</time>
      </trkpt>
      <trkpt lat="43.5426760" lon="-6.5361340">
        <ele>-34.8</ele>
        <time>2021-07-22T09:18:32Z</time>
      </trkpt>
      <trkpt lat="43.5427070" lon="-6.5360950">
        <ele>-34.8</ele>
        <time>2021-07-22T09:18:35Z</time>
      </trkpt>
      <trkpt lat="43.5427540" lon="-6.5360290">
        <ele>-34.4</ele>
        <time>2021-07-22T09:18:39Z</time>
      </trkpt>
      <trkpt lat="43.5427640" lon="-6.5360110">
        <ele>-34.0</ele>
        <time>2021-07-22T09:18:40Z</time>
      </trkpt>
      <trkpt lat="43.5427690" lon="-6.5359970">
        <ele>-33.2</ele>
        <time>2021-07-22T09:18:41Z</time>
      </trkpt>
      <trkpt lat="43.5427780" lon="-6.5359830">
        <ele>-32.8</ele>
        <time>2021-07-22T09:18:42Z</time>
      </trkpt>
      <trkpt lat="43.5428260" lon="-6.5359520">
        <ele>-32.8</ele>
        <time>2021-07-22T09:18:48Z</time>
      </trkpt>
      <trkpt lat="43.5429650" lon="-6.5359200">
        <ele>-30.6</ele>
        <time>2021-07-22T09:19:49Z</time>
      </trkpt>
      <trkpt lat="43.5429750" lon="-6.5359320">
        <ele>-30.6</ele>
        <time>2021-07-22T09:19:50Z</time>
      </trkpt>
      <trkpt lat="43.5430030" lon="-6.5359700">
        <ele>-30.6</ele>
        <time>2021-07-22T09:19:53Z</time>
      </trkpt>
      <trkpt lat="43.5430300" lon="-6.5359950">
        <ele>-30.6</ele>
        <time>2021-07-22T09:19:55Z</time>
      </trkpt>
      <trkpt lat="43.5430410" lon="-6.5360540">
        <ele>-30.6</ele>
        <time>2021-07-22T09:19:58Z</time>
      </trkpt>
      <trkpt lat="43.5430420" lon="-6.5360800">
        <ele>-30.2</ele>
        <time>2021-07-22T09:19:59Z</time>
      </trkpt>
      <trkpt lat="43.5430450" lon="-6.5361130">
        <ele>-29.8</ele>
        <time>2021-07-22T09:20:00Z</time>
      </trkpt>
      <trkpt lat="43.5430480" lon="-6.5361480">
        <ele>-29.0</ele>
        <time>2021-07-22T09:20:01Z</time>
      </trkpt>
      <trkpt lat="43.5430480" lon="-6.5361820">
        <ele>-28.6</ele>
        <time>2021-07-22T09:20:02Z</time>
      </trkpt>
      <trkpt lat="43.5430560" lon="-6.5362330">
        <ele>-28.6</ele>
        <time>2021-07-22T09:20:04Z</time>
      </trkpt>
      <trkpt lat="43.5430640" lon="-6.5362550">
        <ele>-28.6</ele>
        <time>2021-07-22T09:20:05Z</time>
      </trkpt>
      <trkpt lat="43.5430710" lon="-6.5362730">
        <ele>-28.2</ele>
        <time>2021-07-22T09:20:06Z</time>
      </trkpt>
      <trkpt lat="43.5430770" lon="-6.5362890">
        <ele>-27.8</ele>
        <time>2021-07-22T09:20:07Z</time>
      </trkpt>
      <trkpt lat="43.5430830" lon="-6.5363080">
        <ele>-27.4</ele>
        <time>2021-07-22T09:20:08Z</time>
      </trkpt>
      <trkpt lat="43.5430910" lon="-6.5363270">
        <ele>-27.0</ele>
        <time>2021-07-22T09:20:09Z</time>
      </trkpt>
      <trkpt lat="43.5430980" lon="-6.5363470">
        <ele>-26.6</ele>
        <time>2021-07-22T09:20:10Z</time>
      </trkpt>
      <trkpt lat="43.5431110" lon="-6.5363930">
        <ele>-26.6</ele>
        <time>2021-07-22T09:20:12Z</time>
      </trkpt>
      <trkpt lat="43.5431360" lon="-6.5364890">
        <ele>-26.6</ele>
        <time>2021-07-22T09:20:16Z</time>
      </trkpt>
      <trkpt lat="43.5431630" lon="-6.5365460">
        <ele>-26.0</ele>
        <time>2021-07-22T09:20:19Z</time>
      </trkpt>
      <trkpt lat="43.5431720" lon="-6.5365640">
        <ele>-25.6</ele>
        <time>2021-07-22T09:20:20Z</time>
      </trkpt>
      <trkpt lat="43.5431800" lon="-6.5365840">
        <ele>-25.2</ele>
        <time>2021-07-22T09:20:21Z</time>
      </trkpt>
      <trkpt lat="43.5431880" lon="-6.5366030">
        <ele>-24.8</ele>
        <time>2021-07-22T09:20:22Z</time>
      </trkpt>
      <trkpt lat="43.5431940" lon="-6.5366210">
        <ele>-24.4</ele>
        <time>2021-07-22T09:20:23Z</time>
      </trkpt>
      <trkpt lat="43.5432270" lon="-6.5366830">
        <ele>-24.4</ele>
        <time>2021-07-22T09:20:27Z</time>
      </trkpt>
      <trkpt lat="43.5432500" lon="-6.5367730">
        <ele>-24.0</ele>
        <time>2021-07-22T09:20:32Z</time>
      </trkpt>
      <trkpt lat="43.5432550" lon="-6.5367930">
        <ele>-23.6</ele>
        <time>2021-07-22T09:20:33Z</time>
      </trkpt>
      <trkpt lat="43.5432610" lon="-6.5368110">
        <ele>-23.2</ele>
        <time>2021-07-22T09:20:34Z</time>
      </trkpt>
      <trkpt lat="43.5432610" lon="-6.5368260">
        <ele>-22.6</ele>
        <time>2021-07-22T09:20:35Z</time>
      </trkpt>
      <trkpt lat="43.5432580" lon="-6.5368430">
        <ele>-22.2</ele>
        <time>2021-07-22T09:20:36Z</time>
      </trkpt>
      <trkpt lat="43.5432480" lon="-6.5368610">
        <ele>-22.2</ele>
        <time>2021-07-22T09:20:38Z</time>
      </trkpt>
      <trkpt lat="43.5432100" lon="-6.5368440">
        <ele>-22.2</ele>
        <time>2021-07-22T09:20:41Z</time>
      </trkpt>
      <trkpt lat="43.5431410" lon="-6.5367430">
        <ele>-22.2</ele>
        <time>2021-07-22T09:20:47Z</time>
      </trkpt>
      <trkpt lat="43.5431290" lon="-6.5367290">
        <ele>-22.2</ele>
        <time>2021-07-22T09:20:48Z</time>
      </trkpt>
      <trkpt lat="43.5431020" lon="-6.5367050">
        <ele>-21.8</ele>
        <time>2021-07-22T09:20:50Z</time>
      </trkpt>
      <trkpt lat="43.5430890" lon="-6.5366930">
        <ele>-21.4</ele>
        <time>2021-07-22T09:20:51Z</time>
      </trkpt>
      <trkpt lat="43.5430780" lon="-6.5366800">
        <ele>-21.0</ele>
        <time>2021-07-22T09:20:52Z</time>
      </trkpt>
      <trkpt lat="43.5430640" lon="-6.5366660">
        <ele>-20.6</ele>
        <time>2021-07-22T09:20:53Z</time>
      </trkpt>
      <trkpt lat="43.5430530" lon="-6.5366520">
        <ele>-20.2</ele>
        <time>2021-07-22T09:20:54Z</time>
      </trkpt>
      <trkpt lat="43.5429810" lon="-6.5364920">
        <ele>-19.8</ele>
        <time>2021-07-22T09:21:03Z</time>
      </trkpt>
      <trkpt lat="43.5429700" lon="-6.5364780">
        <ele>-19.4</ele>
        <time>2021-07-22T09:21:04Z</time>
      </trkpt>
      <trkpt lat="43.5429590" lon="-6.5364620">
        <ele>-19.0</ele>
        <time>2021-07-22T09:21:05Z</time>
      </trkpt>
      <trkpt lat="43.5429480" lon="-6.5364510">
        <ele>-18.6</ele>
        <time>2021-07-22T09:21:06Z</time>
      </trkpt>
      <trkpt lat="43.5429340" lon="-6.5364450">
        <ele>-18.2</ele>
        <time>2021-07-22T09:21:07Z</time>
      </trkpt>
      <trkpt lat="43.5429030" lon="-6.5364400">
        <ele>-18.2</ele>
        <time>2021-07-22T09:21:09Z</time>
      </trkpt>
      <trkpt lat="43.5428840" lon="-6.5364510">
        <ele>-18.2</ele>
        <time>2021-07-22T09:21:11Z</time>
      </trkpt>
      <trkpt lat="43.5428570" lon="-6.5364980">
        <ele>-18.2</ele>
        <time>2021-07-22T09:21:14Z</time>
      </trkpt>
      <trkpt lat="43.5428550" lon="-6.5365240">
        <ele>-17.2</ele>
        <time>2021-07-22T09:21:15Z</time>
      </trkpt>
      <trkpt lat="43.5428520" lon="-6.5365450">
        <ele>-16.8</ele>
        <time>2021-07-22T09:21:16Z</time>
      </trkpt>
      <trkpt lat="43.5428510" lon="-6.5365620">
        <ele>-16.4</ele>
        <time>2021-07-22T09:21:17Z</time>
      </trkpt>
      <trkpt lat="43.5428550" lon="-6.5365870">
        <ele>-16.0</ele>
        <time>2021-07-22T09:21:18Z</time>
      </trkpt>
      <trkpt lat="43.5428590" lon="-6.5366050">
        <ele>-16.0</ele>
        <time>2021-07-22T09:21:19Z</time>
      </trkpt>
      <trkpt lat="43.5428660" lon="-6.5367340">
        <ele>-15.6</ele>
        <time>2021-07-22T09:21:25Z</time>
      </trkpt>
      <trkpt lat="43.5428650" lon="-6.5367540">
        <ele>-15.2</ele>
        <time>2021-07-22T09:21:26Z</time>
      </trkpt>
      <trkpt lat="43.5428650" lon="-6.5367760">
        <ele>-14.8</ele>
        <time>2021-07-22T09:21:27Z</time>
      </trkpt>
      <trkpt lat="43.5428650" lon="-6.5367950">
        <ele>-14.4</ele>
        <time>2021-07-22T09:21:28Z</time>
      </trkpt>
      <trkpt lat="43.5428650" lon="-6.5368160">
        <ele>-14.0</ele>
        <time>2021-07-22T09:21:29Z</time>
      </trkpt>
      <trkpt lat="43.5428590" lon="-6.5369140">
        <ele>-14.0</ele>
        <time>2021-07-22T09:21:34Z</time>
      </trkpt>
      <trkpt lat="43.5428650" lon="-6.5370050">
        <ele>-13.6</ele>
        <time>2021-07-22T09:21:39Z</time>
      </trkpt>
      <trkpt lat="43.5428650" lon="-6.5370240">
        <ele>-12.8</ele>
        <time>2021-07-22T09:21:40Z</time>
      </trkpt>
      <trkpt lat="43.5428640" lon="-6.5370420">
        <ele>-12.4</ele>
        <time>2021-07-22T09:21:41Z</time>
      </trkpt>
      <trkpt lat="43.5428640" lon="-6.5370630">
        <ele>-12.0</ele>
        <time>2021-07-22T09:21:42Z</time>
      </trkpt>
      <trkpt lat="43.5428630" lon="-6.5372030">
        <ele>-12.0</ele>
        <time>2021-07-22T09:21:50Z</time>
      </trkpt>
      <trkpt lat="43.5428610" lon="-6.5372450">
        <ele>-11.6</ele>
        <time>2021-07-22T09:21:52Z</time>
      </trkpt>
      <trkpt lat="43.5428600" lon="-6.5372620">
        <ele>-11.2</ele>
        <time>2021-07-22T09:21:53Z</time>
      </trkpt>
      <trkpt lat="43.5428600" lon="-6.5372900">
        <ele>-10.6</ele>
        <time>2021-07-22T09:21:54Z</time>
      </trkpt>
      <trkpt lat="43.5428620" lon="-6.5373080">
        <ele>-10.2</ele>
        <time>2021-07-22T09:21:55Z</time>
      </trkpt>
      <trkpt lat="43.5428620" lon="-6.5373300">
        <ele>-9.8</ele>
        <time>2021-07-22T09:21:56Z</time>
      </trkpt>
      <trkpt lat="43.5428690" lon="-6.5373840">
        <ele>-9.8</ele>
        <time>2021-07-22T09:21:59Z</time>
      </trkpt>
      <trkpt lat="43.5428700" lon="-6.5374440">
        <ele>-9.8</ele>
        <time>2021-07-22T09:22:03Z</time>
      </trkpt>
      <trkpt lat="43.5428640" lon="-6.5374810">
        <ele>-9.4</ele>
        <time>2021-07-22T09:22:05Z</time>
      </trkpt>
      <trkpt lat="43.5428610" lon="-6.5375030">
        <ele>-9.0</ele>
        <time>2021-07-22T09:22:06Z</time>
      </trkpt>
      <trkpt lat="43.5428610" lon="-6.5375250">
        <ele>-8.6</ele>
        <time>2021-07-22T09:22:07Z</time>
      </trkpt>
      <trkpt lat="43.5428610" lon="-6.5375460">
        <ele>-8.2</ele>
        <time>2021-07-22T09:22:08Z</time>
      </trkpt>
      <trkpt lat="43.5428620" lon="-6.5375650">
        <ele>-7.8</ele>
        <time>2021-07-22T09:22:09Z</time>
      </trkpt>
      <trkpt lat="43.5428610" lon="-6.5376180">
        <ele>-7.8</ele>
        <time>2021-07-22T09:22:12Z</time>
      </trkpt>
      <trkpt lat="43.5428650" lon="-6.5377060">
        <ele>-7.8</ele>
        <time>2021-07-22T09:22:19Z</time>
      </trkpt>
      <trkpt lat="43.5429100" lon="-6.5376870">
        <ele>-7.8</ele>
        <time>2021-07-22T09:22:30Z</time>
      </trkpt>
      <trkpt lat="43.5429320" lon="-6.5376470">
        <ele>-7.8</ele>
        <time>2021-07-22T09:22:32Z</time>
      </trkpt>
      <trkpt lat="43.5429540" lon="-6.5376090">
        <ele>-7.4</ele>
        <time>2021-07-22T09:22:34Z</time>
      </trkpt>
      <trkpt lat="43.5429620" lon="-6.5375870">
        <ele>-7.0</ele>
        <time>2021-07-22T09:22:35Z</time>
      </trkpt>
      <trkpt lat="43.5429700" lon="-6.5375650">
        <ele>-6.6</ele>
        <time>2021-07-22T09:22:36Z</time>
      </trkpt>
      <trkpt lat="43.5429730" lon="-6.5375470">
        <ele>-6.2</ele>
        <time>2021-07-22T09:22:37Z</time>
      </trkpt>
      <trkpt lat="43.5429790" lon="-6.5375320">
        <ele>-5.8</ele>
        <time>2021-07-22T09:22:38Z</time>
      </trkpt>
      <trkpt lat="43.5430620" lon="-6.5374160">
        <ele>-5.8</ele>
        <time>2021-07-22T09:22:45Z</time>
      </trkpt>
      <trkpt lat="43.5431050" lon="-6.5373890">
        <ele>-5.8</ele>
        <time>2021-07-22T09:22:48Z</time>
      </trkpt>
      <trkpt lat="43.5431220" lon="-6.5373750">
        <ele>-5.8</ele>
        <time>2021-07-22T09:22:49Z</time>
      </trkpt>
      <trkpt lat="43.5431390" lon="-6.5373680">
        <ele>-5.8</ele>
        <time>2021-07-22T09:22:50Z</time>
      </trkpt>
      <trkpt lat="43.5431950" lon="-6.5373320">
        <ele>-5.8</ele>
        <time>2021-07-22T09:22:53Z</time>
      </trkpt>
      <trkpt lat="43.5432470" lon="-6.5372930">
        <ele>-5.8</ele>
        <time>2021-07-22T09:22:55Z</time>
      </trkpt>
      <trkpt lat="43.5432770" lon="-6.5372760">
        <ele>-5.8</ele>
        <time>2021-07-22T09:22:56Z</time>
      </trkpt>
      <trkpt lat="43.5433410" lon="-6.5372650">
        <ele>-5.8</ele>
        <time>2021-07-22T09:22:58Z</time>
      </trkpt>
      <trkpt lat="43.5434100" lon="-6.5372650">
        <ele>-5.8</ele>
        <time>2021-07-22T09:23:00Z</time>
      </trkpt>
      <trkpt lat="43.5434460" lon="-6.5372650">
        <ele>-5.8</ele>
        <time>2021-07-22T09:23:01Z</time>
      </trkpt>
      <trkpt lat="43.5435430" lon="-6.5372630">
        <ele>-5.8</ele>
        <time>2021-07-22T09:23:04Z</time>
      </trkpt>
      <trkpt lat="43.5436060" lon="-6.5372820">
        <ele>-5.8</ele>
        <time>2021-07-22T09:23:06Z</time>
      </trkpt>
      <trkpt lat="43.5436320" lon="-6.5372930">
        <ele>-5.8</ele>
        <time>2021-07-22T09:23:07Z</time>
      </trkpt>
      <trkpt lat="43.5436660" lon="-6.5373040">
        <ele>-6.2</ele>
        <time>2021-07-22T09:23:09Z</time>
      </trkpt>
      <trkpt lat="43.5436850" lon="-6.5373050">
        <ele>-6.6</ele>
        <time>2021-07-22T09:23:10Z</time>
      </trkpt>
      <trkpt lat="43.5437070" lon="-6.5373050">
        <ele>-7.0</ele>
        <time>2021-07-22T09:23:11Z</time>
      </trkpt>
      <trkpt lat="43.5437270" lon="-6.5373020">
        <ele>-7.4</ele>
        <time>2021-07-22T09:23:12Z</time>
      </trkpt>
      <trkpt lat="43.5437500" lon="-6.5372990">
        <ele>-7.8</ele>
        <time>2021-07-22T09:23:13Z</time>
      </trkpt>
      <trkpt lat="43.5438170" lon="-6.5372810">
        <ele>-7.8</ele>
        <time>2021-07-22T09:23:16Z</time>
      </trkpt>
      <trkpt lat="43.5438950" lon="-6.5372740">
        <ele>-7.8</ele>
        <time>2021-07-22T09:23:20Z</time>
      </trkpt>
      <trkpt lat="43.5439140" lon="-6.5372710">
        <ele>-7.8</ele>
        <time>2021-07-22T09:23:21Z</time>
      </trkpt>
      <trkpt lat="43.5439640" lon="-6.5372480">
        <ele>-7.8</ele>
        <time>2021-07-22T09:23:24Z</time>
      </trkpt>
      <trkpt lat="43.5440360" lon="-6.5372040">
        <ele>-7.8</ele>
        <time>2021-07-22T09:23:29Z</time>
      </trkpt>
      <trkpt lat="43.5441160" lon="-6.5371500">
        <ele>-7.8</ele>
        <time>2021-07-22T09:23:35Z</time>
      </trkpt>
      <trkpt lat="43.5441130" lon="-6.5371510">
        <ele>-7.8</ele>
        <time>2021-07-22T09:23:36Z</time>
      </trkpt>
      <trkpt lat="43.5440760" lon="-6.5371970">
        <ele>-7.8</ele>
        <time>2021-07-22T09:25:23Z</time>
      </trkpt>
      <trkpt lat="43.5440630" lon="-6.5372020">
        <ele>-7.8</ele>
        <time>2021-07-22T09:25:24Z</time>
      </trkpt>
      <trkpt lat="43.5440480" lon="-6.5372080">
        <ele>-7.8</ele>
        <time>2021-07-22T09:25:25Z</time>
      </trkpt>
      <trkpt lat="43.5439770" lon="-6.5372330">
        <ele>-7.8</ele>
        <time>2021-07-22T09:25:32Z</time>
      </trkpt>
      <trkpt lat="43.5439580" lon="-6.5372440">
        <ele>-7.8</ele>
        <time>2021-07-22T09:25:44Z</time>
      </trkpt>
      <trkpt lat="43.5439020" lon="-6.5372720">
        <ele>-7.8</ele>
        <time>2021-07-22T09:25:47Z</time>
      </trkpt>
      <trkpt lat="43.5438570" lon="-6.5372840">
        <ele>-7.8</ele>
        <time>2021-07-22T09:25:49Z</time>
      </trkpt>
      <trkpt lat="43.5438320" lon="-6.5372900">
        <ele>-7.8</ele>
        <time>2021-07-22T09:25:50Z</time>
      </trkpt>
      <trkpt lat="43.5436790" lon="-6.5373190">
        <ele>-7.8</ele>
        <time>2021-07-22T09:25:56Z</time>
      </trkpt>
      <trkpt lat="43.5436560" lon="-6.5373140">
        <ele>-7.8</ele>
        <time>2021-07-22T09:25:57Z</time>
      </trkpt>
      <trkpt lat="43.5435180" lon="-6.5372730">
        <ele>-7.8</ele>
        <time>2021-07-22T09:26:02Z</time>
      </trkpt>
      <trkpt lat="43.5434410" lon="-6.5372820">
        <ele>-7.8</ele>
        <time>2021-07-22T09:26:05Z</time>
      </trkpt>
      <trkpt lat="43.5433660" lon="-6.5372870">
        <ele>-7.8</ele>
        <time>2021-07-22T09:26:08Z</time>
      </trkpt>
      <trkpt lat="43.5432990" lon="-6.5372880">
        <ele>-7.8</ele>
        <time>2021-07-22T09:26:11Z</time>
      </trkpt>
      <trkpt lat="43.5432270" lon="-6.5373210">
        <ele>-7.8</ele>
        <time>2021-07-22T09:26:15Z</time>
      </trkpt>
      <trkpt lat="43.5431950" lon="-6.5373430">
        <ele>-7.4</ele>
        <time>2021-07-22T09:26:17Z</time>
      </trkpt>
      <trkpt lat="43.5431820" lon="-6.5373520">
        <ele>-7.0</ele>
        <time>2021-07-22T09:26:18Z</time>
      </trkpt>
      <trkpt lat="43.5431640" lon="-6.5373620">
        <ele>-6.6</ele>
        <time>2021-07-22T09:26:19Z</time>
      </trkpt>
      <trkpt lat="43.5431490" lon="-6.5373690">
        <ele>-6.2</ele>
        <time>2021-07-22T09:26:20Z</time>
      </trkpt>
      <trkpt lat="43.5431310" lon="-6.5373840">
        <ele>-5.6</ele>
        <time>2021-07-22T09:26:21Z</time>
      </trkpt>
      <trkpt lat="43.5430550" lon="-6.5374270">
        <ele>-5.6</ele>
        <time>2021-07-22T09:26:25Z</time>
      </trkpt>
      <trkpt lat="43.5430220" lon="-6.5374690">
        <ele>-5.6</ele>
        <time>2021-07-22T09:26:27Z</time>
      </trkpt>
      <trkpt lat="43.5429250" lon="-6.5376450">
        <ele>-5.6</ele>
        <time>2021-07-22T09:26:33Z</time>
      </trkpt>
      <trkpt lat="43.5428820" lon="-6.5377480">
        <ele>-5.6</ele>
        <time>2021-07-22T09:26:36Z</time>
      </trkpt>
      <trkpt lat="43.5428630" lon="-6.5378130">
        <ele>-5.6</ele>
        <time>2021-07-22T09:26:39Z</time>
      </trkpt>
      <trkpt lat="43.5428020" lon="-6.5379900">
        <ele>-5.6</ele>
        <time>2021-07-22T09:26:45Z</time>
      </trkpt>
      <trkpt lat="43.5426570" lon="-6.5382510">
        <ele>-5.6</ele>
        <time>2021-07-22T09:26:52Z</time>
      </trkpt>
      <trkpt lat="43.5425110" lon="-6.5385180">
        <ele>-5.6</ele>
        <time>2021-07-22T09:26:59Z</time>
      </trkpt>
      <trkpt lat="43.5424790" lon="-6.5385870">
        <ele>-5.6</ele>
        <time>2021-07-22T09:27:01Z</time>
      </trkpt>
      <trkpt lat="43.5424190" lon="-6.5386790">
        <ele>-5.6</ele>
        <time>2021-07-22T09:27:04Z</time>
      </trkpt>
      <trkpt lat="43.5423710" lon="-6.5387430">
        <ele>-5.6</ele>
        <time>2021-07-22T09:27:06Z</time>
      </trkpt>
      <trkpt lat="43.5421570" lon="-6.5390420">
        <ele>-5.6</ele>
        <time>2021-07-22T09:27:15Z</time>
      </trkpt>
      <trkpt lat="43.5419590" lon="-6.5393310">
        <ele>-5.6</ele>
        <time>2021-07-22T09:27:24Z</time>
      </trkpt>
      <trkpt lat="43.5418990" lon="-6.5394260">
        <ele>-5.6</ele>
        <time>2021-07-22T09:27:28Z</time>
      </trkpt>
      <trkpt lat="43.5418760" lon="-6.5394610">
        <ele>-5.6</ele>
        <time>2021-07-22T09:27:30Z</time>
      </trkpt>
      <trkpt lat="43.5418590" lon="-6.5394370">
        <ele>-5.6</ele>
        <time>2021-07-22T09:27:34Z</time>
      </trkpt>
      <trkpt lat="43.5419200" lon="-6.5393510">
        <ele>-5.2</ele>
        <time>2021-07-22T09:27:38Z</time>
      </trkpt>
      <trkpt lat="43.5419450" lon="-6.5393260">
        <ele>-4.8</ele>
        <time>2021-07-22T09:27:39Z</time>
      </trkpt>
      <trkpt lat="43.5419690" lon="-6.5392950">
        <ele>-4.4</ele>
        <time>2021-07-22T09:27:40Z</time>
      </trkpt>
      <trkpt lat="43.5419960" lon="-6.5392590">
        <ele>-4.0</ele>
        <time>2021-07-22T09:27:41Z</time>
      </trkpt>
      <trkpt lat="43.5420230" lon="-6.5392190">
        <ele>-3.6</ele>
        <time>2021-07-22T09:27:42Z</time>
      </trkpt>
      <trkpt lat="43.5420480" lon="-6.5391810">
        <ele>-3.6</ele>
        <time>2021-07-22T09:27:43Z</time>
      </trkpt>
      <trkpt lat="43.5422230" lon="-6.5389350">
        <ele>-3.6</ele>
        <time>2021-07-22T09:27:50Z</time>
      </trkpt>
      <trkpt lat="43.5424100" lon="-6.5386540">
        <ele>-3.6</ele>
        <time>2021-07-22T09:27:58Z</time>
      </trkpt>
      <trkpt lat="43.5424430" lon="-6.5386130">
        <ele>-3.6</ele>
        <time>2021-07-22T09:28:00Z</time>
      </trkpt>
      <trkpt lat="43.5424660" lon="-6.5385780">
        <ele>-3.6</ele>
        <time>2021-07-22T09:28:02Z</time>
      </trkpt>
      <trkpt lat="43.5424760" lon="-6.5385700">
        <ele>-3.6</ele>
        <time>2021-07-22T09:28:03Z</time>
      </trkpt>
      <trkpt lat="43.5424990" lon="-6.5385600">
        <ele>-3.6</ele>
        <time>2021-07-22T09:28:05Z</time>
      </trkpt>
      <trkpt lat="43.5425110" lon="-6.5385760">
        <ele>-3.6</ele>
        <time>2021-07-22T09:28:08Z</time>
      </trkpt>
      <trkpt lat="43.5424720" lon="-6.5386380">
        <ele>-3.6</ele>
        <time>2021-07-22T09:28:11Z</time>
      </trkpt>
      <trkpt lat="43.5424250" lon="-6.5386870">
        <ele>-3.6</ele>
        <time>2021-07-22T09:28:13Z</time>
      </trkpt>
      <trkpt lat="43.5423140" lon="-6.5388250">
        <ele>-3.6</ele>
        <time>2021-07-22T09:28:17Z</time>
      </trkpt>
      <trkpt lat="43.5422550" lon="-6.5388990">
        <ele>-3.6</ele>
        <time>2021-07-22T09:28:19Z</time>
      </trkpt>
      <trkpt lat="43.5420410" lon="-6.5392100">
        <ele>-3.6</ele>
        <time>2021-07-22T09:28:27Z</time>
      </trkpt>
      <trkpt lat="43.5418470" lon="-6.5394990">
        <ele>-3.6</ele>
        <time>2021-07-22T09:28:35Z</time>
      </trkpt>
      <trkpt lat="43.5416510" lon="-6.5397850">
        <ele>-3.6</ele>
        <time>2021-07-22T09:28:43Z</time>
      </trkpt>
      <trkpt lat="43.5414910" lon="-6.5400290">
        <ele>-3.6</ele>
        <time>2021-07-22T09:28:49Z</time>
      </trkpt>
      <trkpt lat="43.5414200" lon="-6.5401620">
        <ele>-3.6</ele>
        <time>2021-07-22T09:28:52Z</time>
      </trkpt>
      <trkpt lat="43.5412690" lon="-6.5404170">
        <ele>-3.6</ele>
        <time>2021-07-22T09:28:58Z</time>
      </trkpt>
      <trkpt lat="43.5411020" lon="-6.5407250">
        <ele>-3.6</ele>
        <time>2021-07-22T09:29:04Z</time>
      </trkpt>
      <trkpt lat="43.5409950" lon="-6.5409040">
        <ele>-3.6</ele>
        <time>2021-07-22T09:29:08Z</time>
      </trkpt>
      <trkpt lat="43.5409160" lon="-6.5410320">
        <ele>-3.6</ele>
        <time>2021-07-22T09:29:11Z</time>
      </trkpt>
      <trkpt lat="43.5407370" lon="-6.5413170">
        <ele>-3.6</ele>
        <time>2021-07-22T09:29:17Z</time>
      </trkpt>
      <trkpt lat="43.5405890" lon="-6.5415510">
        <ele>-3.6</ele>
        <time>2021-07-22T09:29:22Z</time>
      </trkpt>
      <trkpt lat="43.5405590" lon="-6.5415970">
        <ele>-3.6</ele>
        <time>2021-07-22T09:29:23Z</time>
      </trkpt>
      <trkpt lat="43.5404190" lon="-6.5418030">
        <ele>-3.6</ele>
        <time>2021-07-22T09:29:28Z</time>
      </trkpt>
      <trkpt lat="43.5403670" lon="-6.5418750">
        <ele>-2.8</ele>
        <time>2021-07-22T09:29:30Z</time>
      </trkpt>
      <trkpt lat="43.5403400" lon="-6.5419150">
        <ele>-2.4</ele>
        <time>2021-07-22T09:29:31Z</time>
      </trkpt>
      <trkpt lat="43.5403140" lon="-6.5419580">
        <ele>-1.8</ele>
        <time>2021-07-22T09:29:32Z</time>
      </trkpt>
      <trkpt lat="43.5402850" lon="-6.5419990">
        <ele>-1.4</ele>
        <time>2021-07-22T09:29:33Z</time>
      </trkpt>
      <trkpt lat="43.5401530" lon="-6.5422090">
        <ele>-1.4</ele>
        <time>2021-07-22T09:29:38Z</time>
      </trkpt>
      <trkpt lat="43.5399680" lon="-6.5424770">
        <ele>-1.4</ele>
        <time>2021-07-22T09:29:45Z</time>
      </trkpt>
      <trkpt lat="43.5397740" lon="-6.5427590">
        <ele>-1.4</ele>
        <time>2021-07-22T09:29:52Z</time>
      </trkpt>
      <trkpt lat="43.5395650" lon="-6.5431510">
        <ele>-1.0</ele>
        <time>2021-07-22T09:30:01Z</time>
      </trkpt>
      <trkpt lat="43.5395440" lon="-6.5431930">
        <ele>-0.6</ele>
        <time>2021-07-22T09:30:02Z</time>
      </trkpt>
      <trkpt lat="43.5395220" lon="-6.5432380">
        <ele>-0.2</ele>
        <time>2021-07-22T09:30:03Z</time>
      </trkpt>
      <trkpt lat="43.5395010" lon="-6.5432830">
        <ele>0.2</ele>
        <time>2021-07-22T09:30:04Z</time>
      </trkpt>
      <trkpt lat="43.5394800" lon="-6.5433250">
        <ele>0.6</ele>
        <time>2021-07-22T09:30:05Z</time>
      </trkpt>
      <trkpt lat="43.5393640" lon="-6.5436190">
        <ele>0.6</ele>
        <time>2021-07-22T09:30:11Z</time>
      </trkpt>
      <trkpt lat="43.5392620" lon="-6.5439680">
        <ele>0.6</ele>
        <time>2021-07-22T09:30:18Z</time>
      </trkpt>
      <trkpt lat="43.5391770" lon="-6.5443040">
        <ele>0.6</ele>
        <time>2021-07-22T09:30:25Z</time>
      </trkpt>
      <trkpt lat="43.5391680" lon="-6.5443480">
        <ele>0.6</ele>
        <time>2021-07-22T09:30:26Z</time>
      </trkpt>
      <trkpt lat="43.5391330" lon="-6.5445220">
        <ele>0.6</ele>
        <time>2021-07-22T09:30:30Z</time>
      </trkpt>
      <trkpt lat="43.5391340" lon="-6.5446470">
        <ele>0.6</ele>
        <time>2021-07-22T09:30:33Z</time>
      </trkpt>
      <trkpt lat="43.5391570" lon="-6.5447000">
        <ele>0.6</ele>
        <time>2021-07-22T09:30:35Z</time>
      </trkpt>
      <trkpt lat="43.5391940" lon="-6.5447660">
        <ele>0.6</ele>
        <time>2021-07-22T09:30:37Z</time>
      </trkpt>
      <trkpt lat="43.5393850" lon="-6.5449760">
        <ele>0.6</ele>
        <time>2021-07-22T09:30:43Z</time>
      </trkpt>
      <trkpt lat="43.5396400" lon="-6.5452560">
        <ele>0.6</ele>
        <time>2021-07-22T09:30:50Z</time>
      </trkpt>
      <trkpt lat="43.5398060" lon="-6.5455280">
        <ele>0.6</ele>
        <time>2021-07-22T09:30:56Z</time>
      </trkpt>
      <trkpt lat="43.5399440" lon="-6.5457770">
        <ele>0.6</ele>
        <time>2021-07-22T09:31:01Z</time>
      </trkpt>
      <trkpt lat="43.5399680" lon="-6.5458370">
        <ele>0.6</ele>
        <time>2021-07-22T09:31:02Z</time>
      </trkpt>
      <trkpt lat="43.5399900" lon="-6.5459030">
        <ele>0.6</ele>
        <time>2021-07-22T09:31:03Z</time>
      </trkpt>
      <trkpt lat="43.5400160" lon="-6.5460390">
        <ele>0.6</ele>
        <time>2021-07-22T09:31:05Z</time>
      </trkpt>
      <trkpt lat="43.5400290" lon="-6.5461070">
        <ele>0.6</ele>
        <time>2021-07-22T09:31:06Z</time>
      </trkpt>
      <trkpt lat="43.5400590" lon="-6.5463310">
        <ele>-0.2</ele>
        <time>2021-07-22T09:31:09Z</time>
      </trkpt>
      <trkpt lat="43.5400650" lon="-6.5464030">
        <ele>-0.6</ele>
        <time>2021-07-22T09:31:10Z</time>
      </trkpt>
      <trkpt lat="43.5400690" lon="-6.5464820">
        <ele>-1.0</ele>
        <time>2021-07-22T09:31:11Z</time>
      </trkpt>
      <trkpt lat="43.5400680" lon="-6.5465630">
        <ele>-1.4</ele>
        <time>2021-07-22T09:31:12Z</time>
      </trkpt>
      <trkpt lat="43.5400440" lon="-6.5468150">
        <ele>-1.4</ele>
        <time>2021-07-22T09:31:15Z</time>
      </trkpt>
      <trkpt lat="43.5400360" lon="-6.5468970">
        <ele>-2.0</ele>
        <time>2021-07-22T09:31:16Z</time>
      </trkpt>
      <trkpt lat="43.5400280" lon="-6.5469760">
        <ele>-2.4</ele>
        <time>2021-07-22T09:31:17Z</time>
      </trkpt>
      <trkpt lat="43.5400220" lon="-6.5470560">
        <ele>-2.8</ele>
        <time>2021-07-22T09:31:18Z</time>
      </trkpt>
      <trkpt lat="43.5400180" lon="-6.5471370">
        <ele>-3.4</ele>
        <time>2021-07-22T09:31:19Z</time>
      </trkpt>
      <trkpt lat="43.5400120" lon="-6.5472170">
        <ele>-4.0</ele>
        <time>2021-07-22T09:31:20Z</time>
      </trkpt>
      <trkpt lat="43.5400060" lon="-6.5472990">
        <ele>-4.4</ele>
        <time>2021-07-22T09:31:21Z</time>
      </trkpt>
      <trkpt lat="43.5400030" lon="-6.5473760">
        <ele>-5.0</ele>
        <time>2021-07-22T09:31:22Z</time>
      </trkpt>
      <trkpt lat="43.5399980" lon="-6.5474540">
        <ele>-5.6</ele>
        <time>2021-07-22T09:31:23Z</time>
      </trkpt>
      <trkpt lat="43.5399960" lon="-6.5475230">
        <ele>-6.4</ele>
        <time>2021-07-22T09:31:24Z</time>
      </trkpt>
      <trkpt lat="43.5399920" lon="-6.5475860">
        <ele>-7.0</ele>
        <time>2021-07-22T09:31:25Z</time>
      </trkpt>
      <trkpt lat="43.5399820" lon="-6.5476460">
        <ele>-7.6</ele>
        <time>2021-07-22T09:31:26Z</time>
      </trkpt>
      <trkpt lat="43.5399610" lon="-6.5477020">
        <ele>-8.2</ele>
        <time>2021-07-22T09:31:27Z</time>
      </trkpt>
      <trkpt lat="43.5399370" lon="-6.5477690">
        <ele>-8.8</ele>
        <time>2021-07-22T09:31:28Z</time>
      </trkpt>
      <trkpt lat="43.5399010" lon="-6.5478070">
        <ele>-9.2</ele>
        <time>2021-07-22T09:31:29Z</time>
      </trkpt>
      <trkpt lat="43.5398600" lon="-6.5478340">
        <ele>-9.6</ele>
        <time>2021-07-22T09:31:30Z</time>
      </trkpt>
      <trkpt lat="43.5398140" lon="-6.5478540">
        <ele>-10.2</ele>
        <time>2021-07-22T09:31:31Z</time>
      </trkpt>
      <trkpt lat="43.5397710" lon="-6.5478560">
        <ele>-10.6</ele>
        <time>2021-07-22T09:31:32Z</time>
      </trkpt>
      <trkpt lat="43.5397280" lon="-6.5478520">
        <ele>-11.0</ele>
        <time>2021-07-22T09:31:33Z</time>
      </trkpt>
      <trkpt lat="43.5396810" lon="-6.5478390">
        <ele>-12.0</ele>
        <time>2021-07-22T09:31:34Z</time>
      </trkpt>
      <trkpt lat="43.5396310" lon="-6.5478090">
        <ele>-12.4</ele>
        <time>2021-07-22T09:31:35Z</time>
      </trkpt>
      <trkpt lat="43.5395720" lon="-6.5477450">
        <ele>-12.8</ele>
        <time>2021-07-22T09:31:36Z</time>
      </trkpt>
      <trkpt lat="43.5395100" lon="-6.5476880">
        <ele>-13.2</ele>
        <time>2021-07-22T09:31:37Z</time>
      </trkpt>
      <trkpt lat="43.5394490" lon="-6.5476290">
        <ele>-13.6</ele>
        <time>2021-07-22T09:31:38Z</time>
      </trkpt>
      <trkpt lat="43.5393880" lon="-6.5475730">
        <ele>-14.0</ele>
        <time>2021-07-22T09:31:39Z</time>
      </trkpt>
      <trkpt lat="43.5393260" lon="-6.5475270">
        <ele>-14.4</ele>
        <time>2021-07-22T09:31:40Z</time>
      </trkpt>
      <trkpt lat="43.5392640" lon="-6.5474870">
        <ele>-15.0</ele>
        <time>2021-07-22T09:31:41Z</time>
      </trkpt>
      <trkpt lat="43.5392050" lon="-6.5474630">
        <ele>-15.4</ele>
        <time>2021-07-22T09:31:42Z</time>
      </trkpt>
      <trkpt lat="43.5391480" lon="-6.5474450">
        <ele>-16.0</ele>
        <time>2021-07-22T09:31:43Z</time>
      </trkpt>
      <trkpt lat="43.5390890" lon="-6.5474480">
        <ele>-16.4</ele>
        <time>2021-07-22T09:31:44Z</time>
      </trkpt>
      <trkpt lat="43.5390280" lon="-6.5474620">
        <ele>-17.0</ele>
        <time>2021-07-22T09:31:45Z</time>
      </trkpt>
      <trkpt lat="43.5389700" lon="-6.5474770">
        <ele>-17.6</ele>
        <time>2021-07-22T09:31:46Z</time>
      </trkpt>
      <trkpt lat="43.5389120" lon="-6.5475070">
        <ele>-18.4</ele>
        <time>2021-07-22T09:31:47Z</time>
      </trkpt>
      <trkpt lat="43.5388540" lon="-6.5475470">
        <ele>-19.0</ele>
        <time>2021-07-22T09:31:48Z</time>
      </trkpt>
      <trkpt lat="43.5387960" lon="-6.5476050">
        <ele>-19.6</ele>
        <time>2021-07-22T09:31:49Z</time>
      </trkpt>
      <trkpt lat="43.5387440" lon="-6.5476630">
        <ele>-20.4</ele>
        <time>2021-07-22T09:31:50Z</time>
      </trkpt>
      <trkpt lat="43.5386930" lon="-6.5477240">
        <ele>-21.0</ele>
        <time>2021-07-22T09:31:51Z</time>
      </trkpt>
      <trkpt lat="43.5386380" lon="-6.5477880">
        <ele>-21.6</ele>
        <time>2021-07-22T09:31:52Z</time>
      </trkpt>
      <trkpt lat="43.5385320" lon="-6.5478990">
        <ele>-22.0</ele>
        <time>2021-07-22T09:31:54Z</time>
      </trkpt>
      <trkpt lat="43.5384790" lon="-6.5479410">
        <ele>-22.6</ele>
        <time>2021-07-22T09:31:55Z</time>
      </trkpt>
      <trkpt lat="43.5384270" lon="-6.5479800">
        <ele>-23.0</ele>
        <time>2021-07-22T09:31:56Z</time>
      </trkpt>
      <trkpt lat="43.5383770" lon="-6.5480110">
        <ele>-23.4</ele>
        <time>2021-07-22T09:31:57Z</time>
      </trkpt>
      <trkpt lat="43.5383310" lon="-6.5480400">
        <ele>-23.8</ele>
        <time>2021-07-22T09:31:58Z</time>
      </trkpt>
      <trkpt lat="43.5382620" lon="-6.5480960">
        <ele>-23.8</ele>
        <time>2021-07-22T09:32:00Z</time>
      </trkpt>
      <trkpt lat="43.5382360" lon="-6.5481310">
        <ele>-23.8</ele>
        <time>2021-07-22T09:32:01Z</time>
      </trkpt>
      <trkpt lat="43.5381810" lon="-6.5481820">
        <ele>-23.8</ele>
        <time>2021-07-22T09:32:03Z</time>
      </trkpt>
      <trkpt lat="43.5381330" lon="-6.5482290">
        <ele>-23.8</ele>
        <time>2021-07-22T09:32:05Z</time>
      </trkpt>
      <trkpt lat="43.5380920" lon="-6.5482850">
        <ele>-23.8</ele>
        <time>2021-07-22T09:32:07Z</time>
      </trkpt>
      <trkpt lat="43.5380480" lon="-6.5483330">
        <ele>-23.8</ele>
        <time>2021-07-22T09:32:09Z</time>
      </trkpt>
      <trkpt lat="43.5379770" lon="-6.5484090">
        <ele>-23.4</ele>
        <time>2021-07-22T09:32:12Z</time>
      </trkpt>
      <trkpt lat="43.5379600" lon="-6.5484350">
        <ele>-23.0</ele>
        <time>2021-07-22T09:32:13Z</time>
      </trkpt>
      <trkpt lat="43.5379360" lon="-6.5484570">
        <ele>-22.6</ele>
        <time>2021-07-22T09:32:14Z</time>
      </trkpt>
      <trkpt lat="43.5379160" lon="-6.5484760">
        <ele>-22.2</ele>
        <time>2021-07-22T09:32:15Z</time>
      </trkpt>
      <trkpt lat="43.5378950" lon="-6.5485010">
        <ele>-21.8</ele>
        <time>2021-07-22T09:32:16Z</time>
      </trkpt>
      <trkpt lat="43.5378390" lon="-6.5485650">
        <ele>-21.8</ele>
        <time>2021-07-22T09:32:19Z</time>
      </trkpt>
      <trkpt lat="43.5378010" lon="-6.5486110">
        <ele>-21.8</ele>
        <time>2021-07-22T09:32:21Z</time>
      </trkpt>
      <trkpt lat="43.5377360" lon="-6.5486680">
        <ele>-21.8</ele>
        <time>2021-07-22T09:32:24Z</time>
      </trkpt>
      <trkpt lat="43.5376990" lon="-6.5487110">
        <ele>-21.4</ele>
        <time>2021-07-22T09:32:26Z</time>
      </trkpt>
      <trkpt lat="43.5376830" lon="-6.5487320">
        <ele>-21.0</ele>
        <time>2021-07-22T09:32:27Z</time>
      </trkpt>
      <trkpt lat="43.5376660" lon="-6.5487520">
        <ele>-20.6</ele>
        <time>2021-07-22T09:32:28Z</time>
      </trkpt>
      <trkpt lat="43.5376460" lon="-6.5487680">
        <ele>-20.2</ele>
        <time>2021-07-22T09:32:29Z</time>
      </trkpt>
      <trkpt lat="43.5376290" lon="-6.5487860">
        <ele>-19.8</ele>
        <time>2021-07-22T09:32:30Z</time>
      </trkpt>
      <trkpt lat="43.5375320" lon="-6.5489090">
        <ele>-19.8</ele>
        <time>2021-07-22T09:32:36Z</time>
      </trkpt>
      <trkpt lat="43.5374910" lon="-6.5489690">
        <ele>-19.4</ele>
        <time>2021-07-22T09:32:39Z</time>
      </trkpt>
      <trkpt lat="43.5374780" lon="-6.5489940">
        <ele>-18.8</ele>
        <time>2021-07-22T09:32:40Z</time>
      </trkpt>
      <trkpt lat="43.5374630" lon="-6.5490160">
        <ele>-18.4</ele>
        <time>2021-07-22T09:32:41Z</time>
      </trkpt>
      <trkpt lat="43.5374430" lon="-6.5490310">
        <ele>-18.0</ele>
        <time>2021-07-22T09:32:42Z</time>
      </trkpt>
      <trkpt lat="43.5374280" lon="-6.5490570">
        <ele>-17.6</ele>
        <time>2021-07-22T09:32:43Z</time>
      </trkpt>
      <trkpt lat="43.5373750" lon="-6.5491590">
        <ele>-17.6</ele>
        <time>2021-07-22T09:32:47Z</time>
      </trkpt>
      <trkpt lat="43.5373110" lon="-6.5492890">
        <ele>-17.2</ele>
        <time>2021-07-22T09:32:52Z</time>
      </trkpt>
      <trkpt lat="43.5372980" lon="-6.5493160">
        <ele>-16.8</ele>
        <time>2021-07-22T09:32:53Z</time>
      </trkpt>
      <trkpt lat="43.5372860" lon="-6.5493430">
        <ele>-16.4</ele>
        <time>2021-07-22T09:32:54Z</time>
      </trkpt>
      <trkpt lat="43.5372720" lon="-6.5493730">
        <ele>-16.0</ele>
        <time>2021-07-22T09:32:55Z</time>
      </trkpt>
      <trkpt lat="43.5372600" lon="-6.5494010">
        <ele>-15.6</ele>
        <time>2021-07-22T09:32:56Z</time>
      </trkpt>
      <trkpt lat="43.5371930" lon="-6.5495600">
        <ele>-15.6</ele>
        <time>2021-07-22T09:33:02Z</time>
      </trkpt>
      <trkpt lat="43.5371360" lon="-6.5496980">
        <ele>-15.2</ele>
        <time>2021-07-22T09:33:07Z</time>
      </trkpt>
      <trkpt lat="43.5371220" lon="-6.5497220">
        <ele>-14.6</ele>
        <time>2021-07-22T09:33:08Z</time>
      </trkpt>
      <trkpt lat="43.5371100" lon="-6.5497470">
        <ele>-14.2</ele>
        <time>2021-07-22T09:33:09Z</time>
      </trkpt>
      <trkpt lat="43.5370980" lon="-6.5497750">
        <ele>-13.8</ele>
        <time>2021-07-22T09:33:10Z</time>
      </trkpt>
      <trkpt lat="43.5370830" lon="-6.5498050">
        <ele>-13.4</ele>
        <time>2021-07-22T09:33:11Z</time>
      </trkpt>
      <trkpt lat="43.5369900" lon="-6.5500060">
        <ele>-13.4</ele>
        <time>2021-07-22T09:33:18Z</time>
      </trkpt>
      <trkpt lat="43.5368540" lon="-6.5502330">
        <ele>-13.4</ele>
        <time>2021-07-22T09:33:27Z</time>
      </trkpt>
      <trkpt lat="43.5368370" lon="-6.5502590">
        <ele>-13.0</ele>
        <time>2021-07-22T09:33:28Z</time>
      </trkpt>
      <trkpt lat="43.5368150" lon="-6.5502820">
        <ele>-12.6</ele>
        <time>2021-07-22T09:33:29Z</time>
      </trkpt>
      <trkpt lat="43.5367960" lon="-6.5503060">
        <ele>-12.2</ele>
        <time>2021-07-22T09:33:30Z</time>
      </trkpt>
      <trkpt lat="43.5367750" lon="-6.5503290">
        <ele>-11.8</ele>
        <time>2021-07-22T09:33:31Z</time>
      </trkpt>
      <trkpt lat="43.5367530" lon="-6.5503540">
        <ele>-11.4</ele>
        <time>2021-07-22T09:33:32Z</time>
      </trkpt>
      <trkpt lat="43.5366960" lon="-6.5504270">
        <ele>-11.4</ele>
        <time>2021-07-22T09:33:35Z</time>
      </trkpt>
      <trkpt lat="43.5365540" lon="-6.5505920">
        <ele>-11.4</ele>
        <time>2021-07-22T09:33:42Z</time>
      </trkpt>
      <trkpt lat="43.5364320" lon="-6.5507320">
        <ele>-11.0</ele>
        <time>2021-07-22T09:33:48Z</time>
      </trkpt>
      <trkpt lat="43.5364160" lon="-6.5507560">
        <ele>-10.6</ele>
        <time>2021-07-22T09:33:49Z</time>
      </trkpt>
      <trkpt lat="43.5363990" lon="-6.5507830">
        <ele>-10.2</ele>
        <time>2021-07-22T09:33:50Z</time>
      </trkpt>
      <trkpt lat="43.5363820" lon="-6.5508070">
        <ele>-9.8</ele>
        <time>2021-07-22T09:33:51Z</time>
      </trkpt>
      <trkpt lat="43.5363630" lon="-6.5508320">
        <ele>-9.4</ele>
        <time>2021-07-22T09:33:52Z</time>
      </trkpt>
      <trkpt lat="43.5363450" lon="-6.5508560">
        <ele>-9.4</ele>
        <time>2021-07-22T09:33:53Z</time>
      </trkpt>
      <trkpt lat="43.5362160" lon="-6.5510220">
        <ele>-9.4</ele>
        <time>2021-07-22T09:34:00Z</time>
      </trkpt>
      <trkpt lat="43.5360830" lon="-6.5512200">
        <ele>-9.4</ele>
        <time>2021-07-22T09:34:07Z</time>
      </trkpt>
      <trkpt lat="43.5360520" lon="-6.5512760">
        <ele>-9.0</ele>
        <time>2021-07-22T09:34:09Z</time>
      </trkpt>
      <trkpt lat="43.5360360" lon="-6.5513030">
        <ele>-8.6</ele>
        <time>2021-07-22T09:34:10Z</time>
      </trkpt>
      <trkpt lat="43.5360200" lon="-6.5513320">
        <ele>-8.2</ele>
        <time>2021-07-22T09:34:11Z</time>
      </trkpt>
      <trkpt lat="43.5360030" lon="-6.5513650">
        <ele>-7.8</ele>
        <time>2021-07-22T09:34:12Z</time>
      </trkpt>
      <trkpt lat="43.5359900" lon="-6.5513960">
        <ele>-7.4</ele>
        <time>2021-07-22T09:34:13Z</time>
      </trkpt>
      <trkpt lat="43.5359550" lon="-6.5514560">
        <ele>-7.4</ele>
        <time>2021-07-22T09:34:15Z</time>
      </trkpt>
      <trkpt lat="43.5358500" lon="-6.5516670">
        <ele>-7.4</ele>
        <time>2021-07-22T09:34:22Z</time>
      </trkpt>
      <trkpt lat="43.5357640" lon="-6.5518950">
        <ele>-7.4</ele>
        <time>2021-07-22T09:34:29Z</time>
      </trkpt>
      <trkpt lat="43.5357380" lon="-6.5519640">
        <ele>-7.0</ele>
        <time>2021-07-22T09:34:31Z</time>
      </trkpt>
      <trkpt lat="43.5357270" lon="-6.5520010">
        <ele>-6.6</ele>
        <time>2021-07-22T09:34:32Z</time>
      </trkpt>
      <trkpt lat="43.5357150" lon="-6.5520350">
        <ele>-6.0</ele>
        <time>2021-07-22T09:34:33Z</time>
      </trkpt>
      <trkpt lat="43.5357050" lon="-6.5520770">
        <ele>-5.6</ele>
        <time>2021-07-22T09:34:34Z</time>
      </trkpt>
      <trkpt lat="43.5356960" lon="-6.5521190">
        <ele>-5.2</ele>
        <time>2021-07-22T09:34:35Z</time>
      </trkpt>
      <trkpt lat="43.5356240" lon="-6.5524050">
        <ele>-5.2</ele>
        <time>2021-07-22T09:34:42Z</time>
      </trkpt>
      <trkpt lat="43.5355680" lon="-6.5527670">
        <ele>-5.2</ele>
        <time>2021-07-22T09:34:51Z</time>
      </trkpt>
      <trkpt lat="43.5355660" lon="-6.5528380">
        <ele>-4.8</ele>
        <time>2021-07-22T09:34:53Z</time>
      </trkpt>
      <trkpt lat="43.5355660" lon="-6.5528680">
        <ele>-4.4</ele>
        <time>2021-07-22T09:34:54Z</time>
      </trkpt>
      <trkpt lat="43.5355570" lon="-6.5529020">
        <ele>-4.0</ele>
        <time>2021-07-22T09:34:55Z</time>
      </trkpt>
      <trkpt lat="43.5355510" lon="-6.5529340">
        <ele>-3.6</ele>
        <time>2021-07-22T09:34:56Z</time>
      </trkpt>
      <trkpt lat="43.5355430" lon="-6.5529690">
        <ele>-3.2</ele>
        <time>2021-07-22T09:34:57Z</time>
      </trkpt>
      <trkpt lat="43.5355020" lon="-6.5532010">
        <ele>-2.8</ele>
        <time>2021-07-22T09:35:05Z</time>
      </trkpt>
      <trkpt lat="43.5354950" lon="-6.5532290">
        <ele>-2.2</ele>
        <time>2021-07-22T09:35:06Z</time>
      </trkpt>
      <trkpt lat="43.5354860" lon="-6.5532520">
        <ele>-1.8</ele>
        <time>2021-07-22T09:35:07Z</time>
      </trkpt>
      <trkpt lat="43.5354790" lon="-6.5532810">
        <ele>-1.4</ele>
        <time>2021-07-22T09:35:08Z</time>
      </trkpt>
      <trkpt lat="43.5354740" lon="-6.5533110">
        <ele>-1.0</ele>
        <time>2021-07-22T09:35:09Z</time>
      </trkpt>
      <trkpt lat="43.5354370" lon="-6.5534490">
        <ele>-1.0</ele>
        <time>2021-07-22T09:35:14Z</time>
      </trkpt>
      <trkpt lat="43.5354070" lon="-6.5535310">
        <ele>-0.2</ele>
        <time>2021-07-22T09:35:17Z</time>
      </trkpt>
      <trkpt lat="43.5353930" lon="-6.5535590">
        <ele>0.2</ele>
        <time>2021-07-22T09:35:18Z</time>
      </trkpt>
      <trkpt lat="43.5353820" lon="-6.5535840">
        <ele>0.8</ele>
        <time>2021-07-22T09:35:19Z</time>
      </trkpt>
      <trkpt lat="43.5353680" lon="-6.5536070">
        <ele>1.2</ele>
        <time>2021-07-22T09:35:20Z</time>
      </trkpt>
      <trkpt lat="43.5352600" lon="-6.5538300">
        <ele>1.6</ele>
        <time>2021-07-22T09:35:29Z</time>
      </trkpt>
      <trkpt lat="43.5352440" lon="-6.5538490">
        <ele>2.0</ele>
        <time>2021-07-22T09:35:30Z</time>
      </trkpt>
      <trkpt lat="43.5352310" lon="-6.5538720">
        <ele>2.4</ele>
        <time>2021-07-22T09:35:31Z</time>
      </trkpt>
      <trkpt lat="43.5352190" lon="-6.5538930">
        <ele>2.8</ele>
        <time>2021-07-22T09:35:32Z</time>
      </trkpt>
      <trkpt lat="43.5352040" lon="-6.5539130">
        <ele>3.2</ele>
        <time>2021-07-22T09:35:33Z</time>
      </trkpt>
      <trkpt lat="43.5351540" lon="-6.5539870">
        <ele>3.2</ele>
        <time>2021-07-22T09:35:36Z</time>
      </trkpt>
      <trkpt lat="43.5350560" lon="-6.5541600">
        <ele>3.2</ele>
        <time>2021-07-22T09:35:40Z</time>
      </trkpt>
      <trkpt lat="43.5350300" lon="-6.5542290">
        <ele>3.2</ele>
        <time>2021-07-22T09:35:41Z</time>
      </trkpt>
      <trkpt lat="43.5349910" lon="-6.5543690">
        <ele>3.2</ele>
        <time>2021-07-22T09:35:43Z</time>
      </trkpt>
      <trkpt lat="43.5349300" lon="-6.5547160">
        <ele>3.2</ele>
        <time>2021-07-22T09:35:47Z</time>
      </trkpt>
      <trkpt lat="43.5349190" lon="-6.5548020">
        <ele>3.2</ele>
        <time>2021-07-22T09:35:48Z</time>
      </trkpt>
      <trkpt lat="43.5349030" lon="-6.5551060">
        <ele>3.2</ele>
        <time>2021-07-22T09:35:52Z</time>
      </trkpt>
      <trkpt lat="43.5349030" lon="-6.5552710">
        <ele>3.2</ele>
        <time>2021-07-22T09:35:55Z</time>
      </trkpt>
      <trkpt lat="43.5349050" lon="-6.5553240">
        <ele>3.2</ele>
        <time>2021-07-22T09:35:56Z</time>
      </trkpt>
      <trkpt lat="43.5349060" lon="-6.5553740">
        <ele>3.2</ele>
        <time>2021-07-22T09:35:57Z</time>
      </trkpt>
      <trkpt lat="43.5349020" lon="-6.5557540">
        <ele>3.2</ele>
        <time>2021-07-22T09:36:05Z</time>
      </trkpt>
      <trkpt lat="43.5348800" lon="-6.5562110">
        <ele>3.2</ele>
        <time>2021-07-22T09:36:16Z</time>
      </trkpt>
      <trkpt lat="43.5348670" lon="-6.5564280">
        <ele>3.6</ele>
        <time>2021-07-22T09:36:21Z</time>
      </trkpt>
      <trkpt lat="43.5348640" lon="-6.5564740">
        <ele>4.2</ele>
        <time>2021-07-22T09:36:22Z</time>
      </trkpt>
      <trkpt lat="43.5348610" lon="-6.5565180">
        <ele>4.6</ele>
        <time>2021-07-22T09:36:23Z</time>
      </trkpt>
      <trkpt lat="43.5348610" lon="-6.5565620">
        <ele>5.0</ele>
        <time>2021-07-22T09:36:24Z</time>
      </trkpt>
      <trkpt lat="43.5348570" lon="-6.5566070">
        <ele>5.4</ele>
        <time>2021-07-22T09:36:25Z</time>
      </trkpt>
      <trkpt lat="43.5348270" lon="-6.5570120">
        <ele>5.4</ele>
        <time>2021-07-22T09:36:34Z</time>
      </trkpt>
      <trkpt lat="43.5348150" lon="-6.5571460">
        <ele>5.8</ele>
        <time>2021-07-22T09:36:37Z</time>
      </trkpt>
      <trkpt lat="43.5348130" lon="-6.5571890">
        <ele>6.2</ele>
        <time>2021-07-22T09:36:38Z</time>
      </trkpt>
      <trkpt lat="43.5348050" lon="-6.5572340">
        <ele>6.6</ele>
        <time>2021-07-22T09:36:39Z</time>
      </trkpt>
      <trkpt lat="43.5348010" lon="-6.5572750">
        <ele>7.0</ele>
        <time>2021-07-22T09:36:40Z</time>
      </trkpt>
      <trkpt lat="43.5347960" lon="-6.5573220">
        <ele>7.4</ele>
        <time>2021-07-22T09:36:41Z</time>
      </trkpt>
      <trkpt lat="43.5347670" lon="-6.5577260">
        <ele>7.4</ele>
        <time>2021-07-22T09:36:50Z</time>
      </trkpt>
      <trkpt lat="43.5347470" lon="-6.5580710">
        <ele>7.8</ele>
        <time>2021-07-22T09:36:58Z</time>
      </trkpt>
      <trkpt lat="43.5347430" lon="-6.5581130">
        <ele>8.2</ele>
        <time>2021-07-22T09:36:59Z</time>
      </trkpt>
      <trkpt lat="43.5347420" lon="-6.5581550">
        <ele>8.8</ele>
        <time>2021-07-22T09:37:00Z</time>
      </trkpt>
      <trkpt lat="43.5347390" lon="-6.5581980">
        <ele>9.2</ele>
        <time>2021-07-22T09:37:01Z</time>
      </trkpt>
      <trkpt lat="43.5347350" lon="-6.5582410">
        <ele>9.6</ele>
        <time>2021-07-22T09:37:02Z</time>
      </trkpt>
      <trkpt lat="43.5347090" lon="-6.5584540">
        <ele>9.6</ele>
        <time>2021-07-22T09:37:07Z</time>
      </trkpt>
      <trkpt lat="43.5346090" lon="-6.5588280">
        <ele>9.6</ele>
        <time>2021-07-22T09:37:16Z</time>
      </trkpt>
      <trkpt lat="43.5345850" lon="-6.5589110">
        <ele>10.0</ele>
        <time>2021-07-22T09:37:18Z</time>
      </trkpt>
      <trkpt lat="43.5345730" lon="-6.5589510">
        <ele>10.4</ele>
        <time>2021-07-22T09:37:19Z</time>
      </trkpt>
      <trkpt lat="43.5345630" lon="-6.5589930">
        <ele>10.8</ele>
        <time>2021-07-22T09:37:20Z</time>
      </trkpt>
      <trkpt lat="43.5345550" lon="-6.5590370">
        <ele>11.6</ele>
        <time>2021-07-22T09:37:21Z</time>
      </trkpt>
      <trkpt lat="43.5345320" lon="-6.5591670">
        <ele>11.6</ele>
        <time>2021-07-22T09:37:24Z</time>
      </trkpt>
      <trkpt lat="43.5344960" lon="-6.5595330">
        <ele>11.6</ele>
        <time>2021-07-22T09:37:32Z</time>
      </trkpt>
      <trkpt lat="43.5344530" lon="-6.5599100">
        <ele>11.6</ele>
        <time>2021-07-22T09:37:40Z</time>
      </trkpt>
      <trkpt lat="43.5344220" lon="-6.5601630">
        <ele>12.0</ele>
        <time>2021-07-22T09:37:45Z</time>
      </trkpt>
      <trkpt lat="43.5344150" lon="-6.5602120">
        <ele>13.0</ele>
        <time>2021-07-22T09:37:46Z</time>
      </trkpt>
      <trkpt lat="43.5344080" lon="-6.5602600">
        <ele>13.4</ele>
        <time>2021-07-22T09:37:47Z</time>
      </trkpt>
      <trkpt lat="43.5344010" lon="-6.5603080">
        <ele>13.8</ele>
        <time>2021-07-22T09:37:48Z</time>
      </trkpt>
      <trkpt lat="43.5343880" lon="-6.5604040">
        <ele>13.8</ele>
        <time>2021-07-22T09:37:50Z</time>
      </trkpt>
      <trkpt lat="43.5343400" lon="-6.5608430">
        <ele>13.8</ele>
        <time>2021-07-22T09:37:59Z</time>
      </trkpt>
      <trkpt lat="43.5342760" lon="-6.5611850">
        <ele>13.8</ele>
        <time>2021-07-22T09:38:06Z</time>
      </trkpt>
      <trkpt lat="43.5341990" lon="-6.5614580">
        <ele>13.8</ele>
        <time>2021-07-22T09:38:12Z</time>
      </trkpt>
      <trkpt lat="43.5341450" lon="-6.5616410">
        <ele>14.2</ele>
        <time>2021-07-22T09:38:16Z</time>
      </trkpt>
      <trkpt lat="43.5341310" lon="-6.5616880">
        <ele>14.6</ele>
        <time>2021-07-22T09:38:17Z</time>
      </trkpt>
      <trkpt lat="43.5341170" lon="-6.5617350">
        <ele>15.0</ele>
        <time>2021-07-22T09:38:18Z</time>
      </trkpt>
      <trkpt lat="43.5341030" lon="-6.5617810">
        <ele>15.4</ele>
        <time>2021-07-22T09:38:19Z</time>
      </trkpt>
      <trkpt lat="43.5340880" lon="-6.5618250">
        <ele>15.8</ele>
        <time>2021-07-22T09:38:20Z</time>
      </trkpt>
      <trkpt lat="43.5339960" lon="-6.5621630">
        <ele>15.8</ele>
        <time>2021-07-22T09:38:27Z</time>
      </trkpt>
      <trkpt lat="43.5339120" lon="-6.5624940">
        <ele>15.8</ele>
        <time>2021-07-22T09:38:34Z</time>
      </trkpt>
      <trkpt lat="43.5339010" lon="-6.5625350">
        <ele>15.8</ele>
        <time>2021-07-22T09:38:35Z</time>
      </trkpt>
      <trkpt lat="43.5338020" lon="-6.5628890">
        <ele>15.8</ele>
        <time>2021-07-22T09:38:43Z</time>
      </trkpt>
      <trkpt lat="43.5336920" lon="-6.5633170">
        <ele>15.8</ele>
        <time>2021-07-22T09:38:52Z</time>
      </trkpt>
      <trkpt lat="43.5335690" lon="-6.5636950">
        <ele>16.2</ele>
        <time>2021-07-22T09:39:00Z</time>
      </trkpt>
      <trkpt lat="43.5335560" lon="-6.5637410">
        <ele>16.6</ele>
        <time>2021-07-22T09:39:01Z</time>
      </trkpt>
      <trkpt lat="43.5335430" lon="-6.5637880">
        <ele>17.0</ele>
        <time>2021-07-22T09:39:02Z</time>
      </trkpt>
      <trkpt lat="43.5335290" lon="-6.5638370">
        <ele>17.4</ele>
        <time>2021-07-22T09:39:03Z</time>
      </trkpt>
      <trkpt lat="43.5335190" lon="-6.5638820">
        <ele>17.8</ele>
        <time>2021-07-22T09:39:04Z</time>
      </trkpt>
      <trkpt lat="43.5334690" lon="-6.5640660">
        <ele>17.8</ele>
        <time>2021-07-22T09:39:08Z</time>
      </trkpt>
      <trkpt lat="43.5333820" lon="-6.5643920">
        <ele>17.8</ele>
        <time>2021-07-22T09:39:15Z</time>
      </trkpt>
      <trkpt lat="43.5333070" lon="-6.5646880">
        <ele>17.8</ele>
        <time>2021-07-22T09:39:22Z</time>
      </trkpt>
      <trkpt lat="43.5332750" lon="-6.5647930">
        <ele>18.2</ele>
        <time>2021-07-22T09:39:25Z</time>
      </trkpt>
      <trkpt lat="43.5332650" lon="-6.5648300">
        <ele>18.6</ele>
        <time>2021-07-22T09:39:26Z</time>
      </trkpt>
      <trkpt lat="43.5332550" lon="-6.5648640">
        <ele>19.2</ele>
        <time>2021-07-22T09:39:27Z</time>
      </trkpt>
      <trkpt lat="43.5332460" lon="-6.5648970">
        <ele>19.6</ele>
        <time>2021-07-22T09:39:28Z</time>
      </trkpt>
      <trkpt lat="43.5332350" lon="-6.5649280">
        <ele>20.0</ele>
        <time>2021-07-22T09:39:29Z</time>
      </trkpt>
      <trkpt lat="43.5332270" lon="-6.5649560">
        <ele>20.0</ele>
        <time>2021-07-22T09:39:30Z</time>
      </trkpt>
      <trkpt lat="43.5331740" lon="-6.5651840">
        <ele>20.4</ele>
        <time>2021-07-22T09:39:37Z</time>
      </trkpt>
      <trkpt lat="43.5331610" lon="-6.5652170">
        <ele>20.8</ele>
        <time>2021-07-22T09:39:38Z</time>
      </trkpt>
      <trkpt lat="43.5331480" lon="-6.5652520">
        <ele>21.2</ele>
        <time>2021-07-22T09:39:39Z</time>
      </trkpt>
      <trkpt lat="43.5331380" lon="-6.5652880">
        <ele>21.8</ele>
        <time>2021-07-22T09:39:40Z</time>
      </trkpt>
      <trkpt lat="43.5331270" lon="-6.5653220">
        <ele>22.2</ele>
        <time>2021-07-22T09:39:41Z</time>
      </trkpt>
      <trkpt lat="43.5330990" lon="-6.5654040">
        <ele>22.2</ele>
        <time>2021-07-22T09:39:44Z</time>
      </trkpt>
      <trkpt lat="43.5330830" lon="-6.5654560">
        <ele>22.6</ele>
        <time>2021-07-22T09:39:46Z</time>
      </trkpt>
      <trkpt lat="43.5330760" lon="-6.5654840">
        <ele>23.0</ele>
        <time>2021-07-22T09:39:47Z</time>
      </trkpt>
      <trkpt lat="43.5330690" lon="-6.5655130">
        <ele>23.4</ele>
        <time>2021-07-22T09:39:48Z</time>
      </trkpt>
      <trkpt lat="43.5330600" lon="-6.5655380">
        <ele>24.2</ele>
        <time>2021-07-22T09:39:49Z</time>
      </trkpt>
      <trkpt lat="43.5330500" lon="-6.5655640">
        <ele>24.2</ele>
        <time>2021-07-22T09:39:50Z</time>
      </trkpt>
      <trkpt lat="43.5330020" lon="-6.5657560">
        <ele>24.2</ele>
        <time>2021-07-22T09:39:57Z</time>
      </trkpt>
      <trkpt lat="43.5329900" lon="-6.5658480">
        <ele>24.6</ele>
        <time>2021-07-22T09:40:00Z</time>
      </trkpt>
      <trkpt lat="43.5329870" lon="-6.5658770">
        <ele>25.0</ele>
        <time>2021-07-22T09:40:01Z</time>
      </trkpt>
      <trkpt lat="43.5329820" lon="-6.5659050">
        <ele>25.4</ele>
        <time>2021-07-22T09:40:02Z</time>
      </trkpt>
      <trkpt lat="43.5329760" lon="-6.5659330">
        <ele>25.8</ele>
        <time>2021-07-22T09:40:03Z</time>
      </trkpt>
      <trkpt lat="43.5329720" lon="-6.5659620">
        <ele>26.2</ele>
        <time>2021-07-22T09:40:04Z</time>
      </trkpt>
      <trkpt lat="43.5329460" lon="-6.5661180">
        <ele>26.2</ele>
        <time>2021-07-22T09:40:10Z</time>
      </trkpt>
      <trkpt lat="43.5329320" lon="-6.5662020">
        <ele>26.6</ele>
        <time>2021-07-22T09:40:13Z</time>
      </trkpt>
      <trkpt lat="43.5329290" lon="-6.5662290">
        <ele>27.4</ele>
        <time>2021-07-22T09:40:14Z</time>
      </trkpt>
      <trkpt lat="43.5329250" lon="-6.5662530">
        <ele>27.8</ele>
        <time>2021-07-22T09:40:15Z</time>
      </trkpt>
      <trkpt lat="43.5329190" lon="-6.5662760">
        <ele>28.2</ele>
        <time>2021-07-22T09:40:16Z</time>
      </trkpt>
      <trkpt lat="43.5329110" lon="-6.5662970">
        <ele>28.2</ele>
        <time>2021-07-22T09:40:17Z</time>
      </trkpt>
      <trkpt lat="43.5328730" lon="-6.5663380">
        <ele>28.2</ele>
        <time>2021-07-22T09:40:22Z</time>
      </trkpt>
      <trkpt lat="43.5328470" lon="-6.5663580">
        <ele>28.2</ele>
        <time>2021-07-22T09:41:05Z</time>
      </trkpt>
      <trkpt lat="43.5328330" lon="-6.5663740">
        <ele>28.2</ele>
        <time>2021-07-22T09:41:06Z</time>
      </trkpt>
      <trkpt lat="43.5328050" lon="-6.5664090">
        <ele>28.2</ele>
        <time>2021-07-22T09:41:08Z</time>
      </trkpt>
      <trkpt lat="43.5327790" lon="-6.5664660">
        <ele>28.2</ele>
        <time>2021-07-22T09:41:10Z</time>
      </trkpt>
      <trkpt lat="43.5327540" lon="-6.5665340">
        <ele>28.2</ele>
        <time>2021-07-22T09:41:12Z</time>
      </trkpt>
      <trkpt lat="43.5327420" lon="-6.5665690">
        <ele>28.2</ele>
        <time>2021-07-22T09:41:13Z</time>
      </trkpt>
      <trkpt lat="43.5327030" lon="-6.5667690">
        <ele>28.6</ele>
        <time>2021-07-22T09:41:18Z</time>
      </trkpt>
      <trkpt lat="43.5326970" lon="-6.5668150">
        <ele>29.0</ele>
        <time>2021-07-22T09:41:19Z</time>
      </trkpt>
      <trkpt lat="43.5326910" lon="-6.5668580">
        <ele>29.6</ele>
        <time>2021-07-22T09:41:20Z</time>
      </trkpt>
      <trkpt lat="43.5326880" lon="-6.5669000">
        <ele>30.0</ele>
        <time>2021-07-22T09:41:21Z</time>
      </trkpt>
      <trkpt lat="43.5326850" lon="-6.5669420">
        <ele>30.4</ele>
        <time>2021-07-22T09:41:22Z</time>
      </trkpt>
      <trkpt lat="43.5326630" lon="-6.5671090">
        <ele>30.4</ele>
        <time>2021-07-22T09:41:26Z</time>
      </trkpt>
      <trkpt lat="43.5326360" lon="-6.5672690">
        <ele>30.4</ele>
        <time>2021-07-22T09:41:30Z</time>
      </trkpt>
      <trkpt lat="43.5326160" lon="-6.5673460">
        <ele>30.4</ele>
        <time>2021-07-22T09:41:32Z</time>
      </trkpt>
      <trkpt lat="43.5325860" lon="-6.5674170">
        <ele>30.8</ele>
        <time>2021-07-22T09:41:34Z</time>
      </trkpt>
      <trkpt lat="43.5325710" lon="-6.5674540">
        <ele>31.2</ele>
        <time>2021-07-22T09:41:35Z</time>
      </trkpt>
      <trkpt lat="43.5325570" lon="-6.5674920">
        <ele>31.6</ele>
        <time>2021-07-22T09:41:36Z</time>
      </trkpt>
      <trkpt lat="43.5325420" lon="-6.5675250">
        <ele>32.0</ele>
        <time>2021-07-22T09:41:37Z</time>
      </trkpt>
      <trkpt lat="43.5325270" lon="-6.5675590">
        <ele>32.4</ele>
        <time>2021-07-22T09:41:38Z</time>
      </trkpt>
      <trkpt lat="43.5324250" lon="-6.5677630">
        <ele>32.4</ele>
        <time>2021-07-22T09:41:44Z</time>
      </trkpt>
      <trkpt lat="43.5324090" lon="-6.5678000">
        <ele>32.4</ele>
        <time>2021-07-22T09:41:45Z</time>
      </trkpt>
      <trkpt lat="43.5323200" lon="-6.5680510">
        <ele>32.4</ele>
        <time>2021-07-22T09:41:52Z</time>
      </trkpt>
      <trkpt lat="43.5322640" lon="-6.5682310">
        <ele>32.8</ele>
        <time>2021-07-22T09:41:57Z</time>
      </trkpt>
      <trkpt lat="43.5322530" lon="-6.5682640">
        <ele>33.4</ele>
        <time>2021-07-22T09:41:58Z</time>
      </trkpt>
      <trkpt lat="43.5322410" lon="-6.5682980">
        <ele>33.8</ele>
        <time>2021-07-22T09:41:59Z</time>
      </trkpt>
      <trkpt lat="43.5322300" lon="-6.5683320">
        <ele>34.2</ele>
        <time>2021-07-22T09:42:00Z</time>
      </trkpt>
      <trkpt lat="43.5322190" lon="-6.5683640">
        <ele>34.6</ele>
        <time>2021-07-22T09:42:01Z</time>
      </trkpt>
      <trkpt lat="43.5321450" lon="-6.5685660">
        <ele>34.6</ele>
        <time>2021-07-22T09:42:07Z</time>
      </trkpt>
      <trkpt lat="43.5320540" lon="-6.5688330">
        <ele>35.0</ele>
        <time>2021-07-22T09:42:15Z</time>
      </trkpt>
      <trkpt lat="43.5320400" lon="-6.5688670">
        <ele>35.4</ele>
        <time>2021-07-22T09:42:16Z</time>
      </trkpt>
      <trkpt lat="43.5320270" lon="-6.5688990">
        <ele>36.2</ele>
        <time>2021-07-22T09:42:17Z</time>
      </trkpt>
      <trkpt lat="43.5320150" lon="-6.5689330">
        <ele>36.6</ele>
        <time>2021-07-22T09:42:18Z</time>
      </trkpt>
      <trkpt lat="43.5319330" lon="-6.5691560">
        <ele>36.6</ele>
        <time>2021-07-22T09:42:25Z</time>
      </trkpt>
      <trkpt lat="43.5318400" lon="-6.5694050">
        <ele>37.0</ele>
        <time>2021-07-22T09:42:33Z</time>
      </trkpt>
      <trkpt lat="43.5318300" lon="-6.5694350">
        <ele>37.4</ele>
        <time>2021-07-22T09:42:34Z</time>
      </trkpt>
      <trkpt lat="43.5318190" lon="-6.5694680">
        <ele>37.8</ele>
        <time>2021-07-22T09:42:35Z</time>
      </trkpt>
      <trkpt lat="43.5318080" lon="-6.5695000">
        <ele>38.2</ele>
        <time>2021-07-22T09:42:36Z</time>
      </trkpt>
      <trkpt lat="43.5317970" lon="-6.5695310">
        <ele>38.6</ele>
        <time>2021-07-22T09:42:37Z</time>
      </trkpt>
      <trkpt lat="43.5317340" lon="-6.5697200">
        <ele>38.6</ele>
        <time>2021-07-22T09:42:43Z</time>
      </trkpt>
      <trkpt lat="43.5316730" lon="-6.5699500">
        <ele>38.6</ele>
        <time>2021-07-22T09:42:50Z</time>
      </trkpt>
      <trkpt lat="43.5316690" lon="-6.5699810">
        <ele>39.0</ele>
        <time>2021-07-22T09:42:51Z</time>
      </trkpt>
      <trkpt lat="43.5316630" lon="-6.5700120">
        <ele>39.6</ele>
        <time>2021-07-22T09:42:52Z</time>
      </trkpt>
      <trkpt lat="43.5316590" lon="-6.5700470">
        <ele>40.0</ele>
        <time>2021-07-22T09:42:53Z</time>
      </trkpt>
      <trkpt lat="43.5316570" lon="-6.5700790">
        <ele>40.4</ele>
        <time>2021-07-22T09:42:54Z</time>
      </trkpt>
      <trkpt lat="43.5316560" lon="-6.5701120">
        <ele>40.8</ele>
        <time>2021-07-22T09:42:55Z</time>
      </trkpt>
      <trkpt lat="43.5316600" lon="-6.5701740">
        <ele>40.8</ele>
        <time>2021-07-22T09:42:57Z</time>
      </trkpt>
      <trkpt lat="43.5316870" lon="-6.5704560">
        <ele>40.8</ele>
        <time>2021-07-22T09:43:05Z</time>
      </trkpt>
      <trkpt lat="43.5317140" lon="-6.5706960">
        <ele>41.2</ele>
        <time>2021-07-22T09:43:12Z</time>
      </trkpt>
      <trkpt lat="43.5317200" lon="-6.5707290">
        <ele>41.6</ele>
        <time>2021-07-22T09:43:13Z</time>
      </trkpt>
      <trkpt lat="43.5317250" lon="-6.5707630">
        <ele>42.0</ele>
        <time>2021-07-22T09:43:14Z</time>
      </trkpt>
      <trkpt lat="43.5317300" lon="-6.5707950">
        <ele>42.4</ele>
        <time>2021-07-22T09:43:15Z</time>
      </trkpt>
      <trkpt lat="43.5317350" lon="-6.5708300">
        <ele>42.8</ele>
        <time>2021-07-22T09:43:16Z</time>
      </trkpt>
      <trkpt lat="43.5317580" lon="-6.5710410">
        <ele>42.8</ele>
        <time>2021-07-22T09:43:22Z</time>
      </trkpt>
      <trkpt lat="43.5317820" lon="-6.5712910">
        <ele>42.8</ele>
        <time>2021-07-22T09:43:29Z</time>
      </trkpt>
      <trkpt lat="43.5317940" lon="-6.5713600">
        <ele>43.2</ele>
        <time>2021-07-22T09:43:31Z</time>
      </trkpt>
      <trkpt lat="43.5317960" lon="-6.5713970">
        <ele>43.6</ele>
        <time>2021-07-22T09:43:32Z</time>
      </trkpt>
      <trkpt lat="43.5317970" lon="-6.5714350">
        <ele>44.0</ele>
        <time>2021-07-22T09:43:33Z</time>
      </trkpt>
      <trkpt lat="43.5318000" lon="-6.5714710">
        <ele>44.4</ele>
        <time>2021-07-22T09:43:34Z</time>
      </trkpt>
      <trkpt lat="43.5318030" lon="-6.5715100">
        <ele>44.8</ele>
        <time>2021-07-22T09:43:35Z</time>
      </trkpt>
      <trkpt lat="43.5318190" lon="-6.5718020">
        <ele>44.8</ele>
        <time>2021-07-22T09:43:43Z</time>
      </trkpt>
      <trkpt lat="43.5318540" lon="-6.5720100">
        <ele>44.8</ele>
        <time>2021-07-22T09:43:49Z</time>
      </trkpt>
      <trkpt lat="43.5319950" lon="-6.5722390">
        <ele>44.8</ele>
        <time>2021-07-22T09:43:56Z</time>
      </trkpt>
      <trkpt lat="43.5321070" lon="-6.5724290">
        <ele>44.8</ele>
        <time>2021-07-22T09:44:01Z</time>
      </trkpt>
      <trkpt lat="43.5321810" lon="-6.5725460">
        <ele>44.8</ele>
        <time>2021-07-22T09:44:04Z</time>
      </trkpt>
      <trkpt lat="43.5322470" lon="-6.5726490">
        <ele>44.8</ele>
        <time>2021-07-22T09:44:07Z</time>
      </trkpt>
      <trkpt lat="43.5323710" lon="-6.5728400">
        <ele>44.8</ele>
        <time>2021-07-22T09:44:12Z</time>
      </trkpt>
      <trkpt lat="43.5325800" lon="-6.5731170">
        <ele>44.8</ele>
        <time>2021-07-22T09:44:19Z</time>
      </trkpt>
      <trkpt lat="43.5327440" lon="-6.5732980">
        <ele>44.8</ele>
        <time>2021-07-22T09:44:24Z</time>
      </trkpt>
      <trkpt lat="43.5328050" lon="-6.5733740">
        <ele>44.8</ele>
        <time>2021-07-22T09:44:26Z</time>
      </trkpt>
      <trkpt lat="43.5328800" lon="-6.5734850">
        <ele>44.8</ele>
        <time>2021-07-22T09:44:29Z</time>
      </trkpt>
      <trkpt lat="43.5330100" lon="-6.5737370">
        <ele>44.8</ele>
        <time>2021-07-22T09:44:35Z</time>
      </trkpt>
      <trkpt lat="43.5330300" lon="-6.5737820">
        <ele>44.8</ele>
        <time>2021-07-22T09:44:36Z</time>
      </trkpt>
      <trkpt lat="43.5330890" lon="-6.5740700">
        <ele>44.8</ele>
        <time>2021-07-22T09:44:42Z</time>
      </trkpt>
      <trkpt lat="43.5330930" lon="-6.5744140">
        <ele>44.8</ele>
        <time>2021-07-22T09:44:49Z</time>
      </trkpt>
      <trkpt lat="43.5330840" lon="-6.5745220">
        <ele>44.8</ele>
        <time>2021-07-22T09:44:51Z</time>
      </trkpt>
      <trkpt lat="43.5330520" lon="-6.5747530">
        <ele>44.8</ele>
        <time>2021-07-22T09:44:56Z</time>
      </trkpt>
      <trkpt lat="43.5330300" lon="-6.5748940">
        <ele>44.8</ele>
        <time>2021-07-22T09:44:59Z</time>
      </trkpt>
      <trkpt lat="43.5330110" lon="-6.5750390">
        <ele>44.8</ele>
        <time>2021-07-22T09:45:02Z</time>
      </trkpt>
      <trkpt lat="43.5329980" lon="-6.5751350">
        <ele>44.8</ele>
        <time>2021-07-22T09:45:04Z</time>
      </trkpt>
      <trkpt lat="43.5329710" lon="-6.5753150">
        <ele>44.8</ele>
        <time>2021-07-22T09:45:08Z</time>
      </trkpt>
      <trkpt lat="43.5329490" lon="-6.5754580">
        <ele>44.8</ele>
        <time>2021-07-22T09:45:11Z</time>
      </trkpt>
      <trkpt lat="43.5329120" lon="-6.5756470">
        <ele>44.8</ele>
        <time>2021-07-22T09:45:15Z</time>
      </trkpt>
      <trkpt lat="43.5328700" lon="-6.5758170">
        <ele>44.8</ele>
        <time>2021-07-22T09:45:19Z</time>
      </trkpt>
      <trkpt lat="43.5328150" lon="-6.5761760">
        <ele>44.8</ele>
        <time>2021-07-22T09:45:26Z</time>
      </trkpt>
      <trkpt lat="43.5327570" lon="-6.5764370">
        <ele>44.8</ele>
        <time>2021-07-22T09:45:32Z</time>
      </trkpt>
      <trkpt lat="43.5327400" lon="-6.5765190">
        <ele>44.8</ele>
        <time>2021-07-22T09:45:34Z</time>
      </trkpt>
      <trkpt lat="43.5327100" lon="-6.5767080">
        <ele>44.8</ele>
        <time>2021-07-22T09:45:38Z</time>
      </trkpt>
      <trkpt lat="43.5326140" lon="-6.5771450">
        <ele>44.8</ele>
        <time>2021-07-22T09:45:46Z</time>
      </trkpt>
      <trkpt lat="43.5325670" lon="-6.5773560">
        <ele>44.4</ele>
        <time>2021-07-22T09:45:49Z</time>
      </trkpt>
      <trkpt lat="43.5325510" lon="-6.5774300">
        <ele>44.0</ele>
        <time>2021-07-22T09:45:50Z</time>
      </trkpt>
      <trkpt lat="43.5325350" lon="-6.5775030">
        <ele>43.6</ele>
        <time>2021-07-22T09:45:51Z</time>
      </trkpt>
      <trkpt lat="43.5325190" lon="-6.5775740">
        <ele>43.2</ele>
        <time>2021-07-22T09:45:52Z</time>
      </trkpt>
      <trkpt lat="43.5325050" lon="-6.5776390">
        <ele>42.8</ele>
        <time>2021-07-22T09:45:53Z</time>
      </trkpt>
      <trkpt lat="43.5324610" lon="-6.5777880">
        <ele>42.8</ele>
        <time>2021-07-22T09:45:56Z</time>
      </trkpt>
      <trkpt lat="43.5324280" lon="-6.5778640">
        <ele>42.8</ele>
        <time>2021-07-22T09:45:58Z</time>
      </trkpt>
      <trkpt lat="43.5324090" lon="-6.5780430">
        <ele>42.8</ele>
        <time>2021-07-22T09:46:02Z</time>
      </trkpt>
      <trkpt lat="43.5324040" lon="-6.5781020">
        <ele>42.8</ele>
        <time>2021-07-22T09:46:03Z</time>
      </trkpt>
      <trkpt lat="43.5323780" lon="-6.5782210">
        <ele>42.8</ele>
        <time>2021-07-22T09:46:05Z</time>
      </trkpt>
      <trkpt lat="43.5323650" lon="-6.5782800">
        <ele>42.8</ele>
        <time>2021-07-22T09:46:06Z</time>
      </trkpt>
      <trkpt lat="43.5323490" lon="-6.5783360">
        <ele>42.8</ele>
        <time>2021-07-22T09:46:07Z</time>
      </trkpt>
      <trkpt lat="43.5323020" lon="-6.5784960">
        <ele>42.8</ele>
        <time>2021-07-22T09:46:10Z</time>
      </trkpt>
      <trkpt lat="43.5322920" lon="-6.5785530">
        <ele>42.4</ele>
        <time>2021-07-22T09:46:11Z</time>
      </trkpt>
      <trkpt lat="43.5322810" lon="-6.5786100">
        <ele>42.0</ele>
        <time>2021-07-22T09:46:12Z</time>
      </trkpt>
      <trkpt lat="43.5322720" lon="-6.5786610">
        <ele>41.6</ele>
        <time>2021-07-22T09:46:13Z</time>
      </trkpt>
      <trkpt lat="43.5322640" lon="-6.5787130">
        <ele>41.2</ele>
        <time>2021-07-22T09:46:14Z</time>
      </trkpt>
      <trkpt lat="43.5322580" lon="-6.5787660">
        <ele>40.6</ele>
        <time>2021-07-22T09:46:15Z</time>
      </trkpt>
      <trkpt lat="43.5322490" lon="-6.5789370">
        <ele>40.6</ele>
        <time>2021-07-22T09:46:18Z</time>
      </trkpt>
      <trkpt lat="43.5322490" lon="-6.5790500">
        <ele>40.6</ele>
        <time>2021-07-22T09:46:20Z</time>
      </trkpt>
      <trkpt lat="43.5322690" lon="-6.5794310">
        <ele>40.6</ele>
        <time>2021-07-22T09:46:27Z</time>
      </trkpt>
      <trkpt lat="43.5322760" lon="-6.5794840">
        <ele>40.6</ele>
        <time>2021-07-22T09:46:28Z</time>
      </trkpt>
      <trkpt lat="43.5323360" lon="-6.5798480">
        <ele>40.6</ele>
        <time>2021-07-22T09:46:35Z</time>
      </trkpt>
      <trkpt lat="43.5323450" lon="-6.5800380">
        <ele>40.6</ele>
        <time>2021-07-22T09:46:39Z</time>
      </trkpt>
      <trkpt lat="43.5323570" lon="-6.5801310">
        <ele>40.6</ele>
        <time>2021-07-22T09:46:41Z</time>
      </trkpt>
      <trkpt lat="43.5323870" lon="-6.5803240">
        <ele>40.6</ele>
        <time>2021-07-22T09:46:45Z</time>
      </trkpt>
      <trkpt lat="43.5324160" lon="-6.5804970">
        <ele>40.6</ele>
        <time>2021-07-22T09:46:49Z</time>
      </trkpt>
      <trkpt lat="43.5324440" lon="-6.5807380">
        <ele>40.6</ele>
        <time>2021-07-22T09:46:55Z</time>
      </trkpt>
      <trkpt lat="43.5324480" lon="-6.5808120">
        <ele>40.6</ele>
        <time>2021-07-22T09:46:57Z</time>
      </trkpt>
      <trkpt lat="43.5324470" lon="-6.5808530">
        <ele>41.0</ele>
        <time>2021-07-22T09:46:58Z</time>
      </trkpt>
      <trkpt lat="43.5324480" lon="-6.5808890">
        <ele>41.4</ele>
        <time>2021-07-22T09:46:59Z</time>
      </trkpt>
      <trkpt lat="43.5324540" lon="-6.5809230">
        <ele>41.8</ele>
        <time>2021-07-22T09:47:00Z</time>
      </trkpt>
      <trkpt lat="43.5324630" lon="-6.5809570">
        <ele>42.2</ele>
        <time>2021-07-22T09:47:01Z</time>
      </trkpt>
      <trkpt lat="43.5324680" lon="-6.5809920">
        <ele>42.6</ele>
        <time>2021-07-22T09:47:02Z</time>
      </trkpt>
      <trkpt lat="43.5324920" lon="-6.5811030">
        <ele>42.6</ele>
        <time>2021-07-22T09:47:05Z</time>
      </trkpt>
      <trkpt lat="43.5325240" lon="-6.5813240">
        <ele>42.6</ele>
        <time>2021-07-22T09:47:11Z</time>
      </trkpt>
      <trkpt lat="43.5325490" lon="-6.5814280">
        <ele>42.6</ele>
        <time>2021-07-22T09:47:14Z</time>
      </trkpt>
      <trkpt lat="43.5325780" lon="-6.5815230">
        <ele>43.2</ele>
        <time>2021-07-22T09:47:17Z</time>
      </trkpt>
      <trkpt lat="43.5325830" lon="-6.5815550">
        <ele>43.6</ele>
        <time>2021-07-22T09:47:18Z</time>
      </trkpt>
      <trkpt lat="43.5325890" lon="-6.5815880">
        <ele>44.0</ele>
        <time>2021-07-22T09:47:19Z</time>
      </trkpt>
      <trkpt lat="43.5325940" lon="-6.5816220">
        <ele>44.4</ele>
        <time>2021-07-22T09:47:20Z</time>
      </trkpt>
      <trkpt lat="43.5326000" lon="-6.5816600">
        <ele>44.8</ele>
        <time>2021-07-22T09:47:21Z</time>
      </trkpt>
      <trkpt lat="43.5326210" lon="-6.5818120">
        <ele>44.8</ele>
        <time>2021-07-22T09:47:25Z</time>
      </trkpt>
      <trkpt lat="43.5326200" lon="-6.5820640">
        <ele>44.8</ele>
        <time>2021-07-22T09:47:31Z</time>
      </trkpt>
      <trkpt lat="43.5326720" lon="-6.5824300">
        <ele>44.8</ele>
        <time>2021-07-22T09:47:40Z</time>
      </trkpt>
      <trkpt lat="43.5327650" lon="-6.5827000">
        <ele>44.8</ele>
        <time>2021-07-22T09:47:47Z</time>
      </trkpt>
      <trkpt lat="43.5328060" lon="-6.5828060">
        <ele>44.8</ele>
        <time>2021-07-22T09:47:50Z</time>
      </trkpt>
      <trkpt lat="43.5328880" lon="-6.5829790">
        <ele>44.8</ele>
        <time>2021-07-22T09:47:55Z</time>
      </trkpt>
      <trkpt lat="43.5329910" lon="-6.5831940">
        <ele>44.8</ele>
        <time>2021-07-22T09:48:00Z</time>
      </trkpt>
      <trkpt lat="43.5330180" lon="-6.5832320">
        <ele>44.8</ele>
        <time>2021-07-22T09:48:01Z</time>
      </trkpt>
      <trkpt lat="43.5331510" lon="-6.5833670">
        <ele>44.8</ele>
        <time>2021-07-22T09:48:05Z</time>
      </trkpt>
      <trkpt lat="43.5331870" lon="-6.5833960">
        <ele>44.8</ele>
        <time>2021-07-22T09:48:06Z</time>
      </trkpt>
      <trkpt lat="43.5332270" lon="-6.5834180">
        <ele>44.8</ele>
        <time>2021-07-22T09:48:07Z</time>
      </trkpt>
      <trkpt lat="43.5334450" lon="-6.5835500">
        <ele>44.8</ele>
        <time>2021-07-22T09:48:13Z</time>
      </trkpt>
      <trkpt lat="43.5336940" lon="-6.5836880">
        <ele>44.8</ele>
        <time>2021-07-22T09:48:20Z</time>
      </trkpt>
      <trkpt lat="43.5338110" lon="-6.5837860">
        <ele>44.8</ele>
        <time>2021-07-22T09:48:23Z</time>
      </trkpt>
      <trkpt lat="43.5338500" lon="-6.5838190">
        <ele>44.8</ele>
        <time>2021-07-22T09:48:24Z</time>
      </trkpt>
      <trkpt lat="43.5339310" lon="-6.5838880">
        <ele>44.8</ele>
        <time>2021-07-22T09:48:26Z</time>
      </trkpt>
      <trkpt lat="43.5339730" lon="-6.5839230">
        <ele>44.8</ele>
        <time>2021-07-22T09:48:27Z</time>
      </trkpt>
      <trkpt lat="43.5340610" lon="-6.5839920">
        <ele>44.8</ele>
        <time>2021-07-22T09:48:29Z</time>
      </trkpt>
      <trkpt lat="43.5341450" lon="-6.5840650">
        <ele>44.2</ele>
        <time>2021-07-22T09:48:31Z</time>
      </trkpt>
      <trkpt lat="43.5341860" lon="-6.5841020">
        <ele>43.8</ele>
        <time>2021-07-22T09:48:32Z</time>
      </trkpt>
      <trkpt lat="43.5342240" lon="-6.5841400">
        <ele>43.4</ele>
        <time>2021-07-22T09:48:33Z</time>
      </trkpt>
      <trkpt lat="43.5342600" lon="-6.5841740">
        <ele>43.0</ele>
        <time>2021-07-22T09:48:34Z</time>
      </trkpt>
      <trkpt lat="43.5342970" lon="-6.5842050">
        <ele>42.6</ele>
        <time>2021-07-22T09:48:35Z</time>
      </trkpt>
      <trkpt lat="43.5346320" lon="-6.5845530">
        <ele>42.6</ele>
        <time>2021-07-22T09:48:44Z</time>
      </trkpt>
      <trkpt lat="43.5347320" lon="-6.5846740">
        <ele>42.2</ele>
        <time>2021-07-22T09:48:47Z</time>
      </trkpt>
      <trkpt lat="43.5347660" lon="-6.5847180">
        <ele>41.8</ele>
        <time>2021-07-22T09:48:48Z</time>
      </trkpt>
      <trkpt lat="43.5347980" lon="-6.5847630">
        <ele>41.4</ele>
        <time>2021-07-22T09:48:49Z</time>
      </trkpt>
      <trkpt lat="43.5348270" lon="-6.5848090">
        <ele>40.8</ele>
        <time>2021-07-22T09:48:50Z</time>
      </trkpt>
      <trkpt lat="43.5348550" lon="-6.5848550">
        <ele>40.4</ele>
        <time>2021-07-22T09:48:51Z</time>
      </trkpt>
      <trkpt lat="43.5349090" lon="-6.5849420">
        <ele>40.4</ele>
        <time>2021-07-22T09:48:53Z</time>
      </trkpt>
      <trkpt lat="43.5349620" lon="-6.5850320">
        <ele>40.4</ele>
        <time>2021-07-22T09:48:55Z</time>
      </trkpt>
      <trkpt lat="43.5350200" lon="-6.5851240">
        <ele>40.4</ele>
        <time>2021-07-22T09:48:57Z</time>
      </trkpt>
      <trkpt lat="43.5350830" lon="-6.5852200">
        <ele>40.4</ele>
        <time>2021-07-22T09:48:59Z</time>
      </trkpt>
      <trkpt lat="43.5351360" lon="-6.5853100">
        <ele>40.4</ele>
        <time>2021-07-22T09:49:01Z</time>
      </trkpt>
      <trkpt lat="43.5352420" lon="-6.5854870">
        <ele>40.4</ele>
        <time>2021-07-22T09:49:05Z</time>
      </trkpt>
      <trkpt lat="43.5353580" lon="-6.5856620">
        <ele>40.4</ele>
        <time>2021-07-22T09:49:09Z</time>
      </trkpt>
      <trkpt lat="43.5354170" lon="-6.5857450">
        <ele>40.4</ele>
        <time>2021-07-22T09:49:11Z</time>
      </trkpt>
      <trkpt lat="43.5355100" lon="-6.5858700">
        <ele>40.4</ele>
        <time>2021-07-22T09:49:14Z</time>
      </trkpt>
      <trkpt lat="43.5355690" lon="-6.5859510">
        <ele>40.4</ele>
        <time>2021-07-22T09:49:16Z</time>
      </trkpt>
      <trkpt lat="43.5356300" lon="-6.5860240">
        <ele>40.4</ele>
        <time>2021-07-22T09:49:18Z</time>
      </trkpt>
      <trkpt lat="43.5358110" lon="-6.5862690">
        <ele>40.4</ele>
        <time>2021-07-22T09:49:25Z</time>
      </trkpt>
      <trkpt lat="43.5359400" lon="-6.5864410">
        <ele>40.4</ele>
        <time>2021-07-22T09:49:30Z</time>
      </trkpt>
      <trkpt lat="43.5360160" lon="-6.5865360">
        <ele>40.4</ele>
        <time>2021-07-22T09:49:33Z</time>
      </trkpt>
      <trkpt lat="43.5361630" lon="-6.5867590">
        <ele>40.4</ele>
        <time>2021-07-22T09:49:40Z</time>
      </trkpt>
      <trkpt lat="43.5361900" lon="-6.5868340">
        <ele>40.4</ele>
        <time>2021-07-22T09:49:45Z</time>
      </trkpt>
      <trkpt lat="43.5361520" lon="-6.5869900">
        <ele>40.4</ele>
        <time>2021-07-22T09:55:15Z</time>
      </trkpt>
      <trkpt lat="43.5361450" lon="-6.5870130">
        <ele>40.4</ele>
        <time>2021-07-22T09:55:16Z</time>
      </trkpt>
      <trkpt lat="43.5361290" lon="-6.5870650">
        <ele>40.4</ele>
        <time>2021-07-22T09:55:18Z</time>
      </trkpt>
      <trkpt lat="43.5361140" lon="-6.5871290">
        <ele>40.4</ele>
        <time>2021-07-22T09:55:20Z</time>
      </trkpt>
      <trkpt lat="43.5360800" lon="-6.5872770">
        <ele>40.4</ele>
        <time>2021-07-22T09:55:24Z</time>
      </trkpt>
      <trkpt lat="43.5360670" lon="-6.5873610">
        <ele>40.4</ele>
        <time>2021-07-22T09:55:26Z</time>
      </trkpt>
      <trkpt lat="43.5360390" lon="-6.5877540">
        <ele>40.4</ele>
        <time>2021-07-22T09:55:34Z</time>
      </trkpt>
      <trkpt lat="43.5360880" lon="-6.5882130">
        <ele>40.4</ele>
        <time>2021-07-22T09:55:41Z</time>
      </trkpt>
      <trkpt lat="43.5361700" lon="-6.5885060">
        <ele>40.4</ele>
        <time>2021-07-22T09:55:46Z</time>
      </trkpt>
      <trkpt lat="43.5361880" lon="-6.5885570">
        <ele>40.4</ele>
        <time>2021-07-22T09:55:47Z</time>
      </trkpt>
      <trkpt lat="43.5363140" lon="-6.5889820">
        <ele>40.4</ele>
        <time>2021-07-22T09:55:55Z</time>
      </trkpt>
      <trkpt lat="43.5363730" lon="-6.5891930">
        <ele>40.4</ele>
        <time>2021-07-22T09:55:59Z</time>
      </trkpt>
      <trkpt lat="43.5364480" lon="-6.5894560">
        <ele>40.4</ele>
        <time>2021-07-22T09:56:04Z</time>
      </trkpt>
      <trkpt lat="43.5365240" lon="-6.5897150">
        <ele>40.4</ele>
        <time>2021-07-22T09:56:09Z</time>
      </trkpt>
      <trkpt lat="43.5365820" lon="-6.5899160">
        <ele>40.4</ele>
        <time>2021-07-22T09:56:13Z</time>
      </trkpt>
      <trkpt lat="43.5366900" lon="-6.5902750">
        <ele>40.4</ele>
        <time>2021-07-22T09:56:20Z</time>
      </trkpt>
      <trkpt lat="43.5367770" lon="-6.5906400">
        <ele>40.4</ele>
        <time>2021-07-22T09:56:27Z</time>
      </trkpt>
      <trkpt lat="43.5368700" lon="-6.5912260">
        <ele>40.4</ele>
        <time>2021-07-22T09:56:37Z</time>
      </trkpt>
      <trkpt lat="43.5368810" lon="-6.5913540">
        <ele>40.4</ele>
        <time>2021-07-22T09:56:39Z</time>
      </trkpt>
      <trkpt lat="43.5368910" lon="-6.5914190">
        <ele>40.4</ele>
        <time>2021-07-22T09:56:40Z</time>
      </trkpt>
      <trkpt lat="43.5369120" lon="-6.5915520">
        <ele>40.4</ele>
        <time>2021-07-22T09:56:42Z</time>
      </trkpt>
      <trkpt lat="43.5369200" lon="-6.5916220">
        <ele>40.4</ele>
        <time>2021-07-22T09:56:43Z</time>
      </trkpt>
      <trkpt lat="43.5369290" lon="-6.5916960">
        <ele>40.4</ele>
        <time>2021-07-22T09:56:44Z</time>
      </trkpt>
      <trkpt lat="43.5369390" lon="-6.5917640">
        <ele>40.4</ele>
        <time>2021-07-22T09:56:45Z</time>
      </trkpt>
      <trkpt lat="43.5369680" lon="-6.5919570">
        <ele>40.0</ele>
        <time>2021-07-22T09:56:48Z</time>
      </trkpt>
      <trkpt lat="43.5369770" lon="-6.5920200">
        <ele>39.6</ele>
        <time>2021-07-22T09:56:49Z</time>
      </trkpt>
      <trkpt lat="43.5369860" lon="-6.5920840">
        <ele>39.2</ele>
        <time>2021-07-22T09:56:50Z</time>
      </trkpt>
      <trkpt lat="43.5369960" lon="-6.5921480">
        <ele>38.6</ele>
        <time>2021-07-22T09:56:51Z</time>
      </trkpt>
      <trkpt lat="43.5370050" lon="-6.5922120">
        <ele>38.2</ele>
        <time>2021-07-22T09:56:52Z</time>
      </trkpt>
      <trkpt lat="43.5370190" lon="-6.5923190">
        <ele>38.2</ele>
        <time>2021-07-22T09:56:54Z</time>
      </trkpt>
      <trkpt lat="43.5370300" lon="-6.5923870">
        <ele>37.8</ele>
        <time>2021-07-22T09:56:56Z</time>
      </trkpt>
      <trkpt lat="43.5370360" lon="-6.5924100">
        <ele>37.4</ele>
        <time>2021-07-22T09:56:57Z</time>
      </trkpt>
      <trkpt lat="43.5370410" lon="-6.5924340">
        <ele>36.8</ele>
        <time>2021-07-22T09:56:58Z</time>
      </trkpt>
      <trkpt lat="43.5370430" lon="-6.5924540">
        <ele>36.4</ele>
        <time>2021-07-22T09:56:59Z</time>
      </trkpt>
      <trkpt lat="43.5370460" lon="-6.5924570">
        <ele>35.8</ele>
        <time>2021-07-22T09:57:00Z</time>
      </trkpt>
      <trkpt lat="43.5370460" lon="-6.5924550">
        <ele>35.8</ele>
        <time>2021-07-22T09:57:01Z</time>
      </trkpt>
      <trkpt lat="43.5370450" lon="-6.5924950">
        <ele>35.8</ele>
        <time>2021-07-22T09:57:04Z</time>
      </trkpt>
      <trkpt lat="43.5370370" lon="-6.5925330">
        <ele>35.8</ele>
        <time>2021-07-22T09:57:05Z</time>
      </trkpt>
      <trkpt lat="43.5370120" lon="-6.5926300">
        <ele>35.8</ele>
        <time>2021-07-22T09:57:07Z</time>
      </trkpt>
      <trkpt lat="43.5369970" lon="-6.5926850">
        <ele>35.8</ele>
        <time>2021-07-22T09:57:08Z</time>
      </trkpt>
      <trkpt lat="43.5369640" lon="-6.5928050">
        <ele>35.4</ele>
        <time>2021-07-22T09:57:10Z</time>
      </trkpt>
      <trkpt lat="43.5369500" lon="-6.5928680">
        <ele>35.0</ele>
        <time>2021-07-22T09:57:11Z</time>
      </trkpt>
      <trkpt lat="43.5369370" lon="-6.5929350">
        <ele>34.6</ele>
        <time>2021-07-22T09:57:12Z</time>
      </trkpt>
      <trkpt lat="43.5369340" lon="-6.5930030">
        <ele>34.2</ele>
        <time>2021-07-22T09:57:13Z</time>
      </trkpt>
      <trkpt lat="43.5369380" lon="-6.5930680">
        <ele>33.8</ele>
        <time>2021-07-22T09:57:14Z</time>
      </trkpt>
      <trkpt lat="43.5369760" lon="-6.5933320">
        <ele>33.8</ele>
        <time>2021-07-22T09:57:19Z</time>
      </trkpt>
      <trkpt lat="43.5369900" lon="-6.5934680">
        <ele>33.8</ele>
        <time>2021-07-22T09:57:22Z</time>
      </trkpt>
      <trkpt lat="43.5370050" lon="-6.5936010">
        <ele>33.8</ele>
        <time>2021-07-22T09:57:25Z</time>
      </trkpt>
      <trkpt lat="43.5370220" lon="-6.5937780">
        <ele>33.8</ele>
        <time>2021-07-22T09:57:29Z</time>
      </trkpt>
      <trkpt lat="43.5370310" lon="-6.5939080">
        <ele>33.8</ele>
        <time>2021-07-22T09:57:32Z</time>
      </trkpt>
      <trkpt lat="43.5370380" lon="-6.5939940">
        <ele>33.8</ele>
        <time>2021-07-22T09:57:34Z</time>
      </trkpt>
      <trkpt lat="43.5370420" lon="-6.5940810">
        <ele>33.8</ele>
        <time>2021-07-22T09:57:36Z</time>
      </trkpt>
      <trkpt lat="43.5370430" lon="-6.5941260">
        <ele>33.8</ele>
        <time>2021-07-22T09:57:37Z</time>
      </trkpt>
      <trkpt lat="43.5370470" lon="-6.5943000">
        <ele>33.8</ele>
        <time>2021-07-22T09:57:41Z</time>
      </trkpt>
      <trkpt lat="43.5370430" lon="-6.5943420">
        <ele>34.2</ele>
        <time>2021-07-22T09:57:42Z</time>
      </trkpt>
      <trkpt lat="43.5370380" lon="-6.5943840">
        <ele>34.6</ele>
        <time>2021-07-22T09:57:43Z</time>
      </trkpt>
      <trkpt lat="43.5370350" lon="-6.5944240">
        <ele>35.2</ele>
        <time>2021-07-22T09:57:44Z</time>
      </trkpt>
      <trkpt lat="43.5370290" lon="-6.5944660">
        <ele>35.6</ele>
        <time>2021-07-22T09:57:45Z</time>
      </trkpt>
      <trkpt lat="43.5370230" lon="-6.5945060">
        <ele>36.0</ele>
        <time>2021-07-22T09:57:46Z</time>
      </trkpt>
      <trkpt lat="43.5370150" lon="-6.5946330">
        <ele>36.0</ele>
        <time>2021-07-22T09:57:49Z</time>
      </trkpt>
      <trkpt lat="43.5370010" lon="-6.5947570">
        <ele>36.0</ele>
        <time>2021-07-22T09:57:52Z</time>
      </trkpt>
      <trkpt lat="43.5369730" lon="-6.5948750">
        <ele>36.4</ele>
        <time>2021-07-22T09:57:55Z</time>
      </trkpt>
      <trkpt lat="43.5369660" lon="-6.5949110">
        <ele>36.8</ele>
        <time>2021-07-22T09:57:56Z</time>
      </trkpt>
      <trkpt lat="43.5369580" lon="-6.5949450">
        <ele>37.2</ele>
        <time>2021-07-22T09:57:57Z</time>
      </trkpt>
      <trkpt lat="43.5369490" lon="-6.5949820">
        <ele>37.6</ele>
        <time>2021-07-22T09:57:58Z</time>
      </trkpt>
      <trkpt lat="43.5369380" lon="-6.5950190">
        <ele>38.0</ele>
        <time>2021-07-22T09:57:59Z</time>
      </trkpt>
      <trkpt lat="43.5368170" lon="-6.5952580">
        <ele>38.0</ele>
        <time>2021-07-22T09:58:06Z</time>
      </trkpt>
      <trkpt lat="43.5366570" lon="-6.5955580">
        <ele>38.0</ele>
        <time>2021-07-22T09:58:15Z</time>
      </trkpt>
      <trkpt lat="43.5365800" lon="-6.5957160">
        <ele>38.4</ele>
        <time>2021-07-22T09:58:19Z</time>
      </trkpt>
      <trkpt lat="43.5365650" lon="-6.5957550">
        <ele>38.8</ele>
        <time>2021-07-22T09:58:20Z</time>
      </trkpt>
      <trkpt lat="43.5365490" lon="-6.5957940">
        <ele>39.2</ele>
        <time>2021-07-22T09:58:21Z</time>
      </trkpt>
      <trkpt lat="43.5365330" lon="-6.5958370">
        <ele>39.8</ele>
        <time>2021-07-22T09:58:22Z</time>
      </trkpt>
      <trkpt lat="43.5365150" lon="-6.5958810">
        <ele>40.2</ele>
        <time>2021-07-22T09:58:23Z</time>
      </trkpt>
      <trkpt lat="43.5364740" lon="-6.5961360">
        <ele>40.2</ele>
        <time>2021-07-22T09:58:28Z</time>
      </trkpt>
      <trkpt lat="43.5364760" lon="-6.5963870">
        <ele>40.2</ele>
        <time>2021-07-22T09:58:32Z</time>
      </trkpt>
      <trkpt lat="43.5364780" lon="-6.5965300">
        <ele>40.2</ele>
        <time>2021-07-22T09:58:34Z</time>
      </trkpt>
      <trkpt lat="43.5364820" lon="-6.5967660">
        <ele>40.2</ele>
        <time>2021-07-22T09:58:37Z</time>
      </trkpt>
      <trkpt lat="43.5364840" lon="-6.5970170">
        <ele>40.2</ele>
        <time>2021-07-22T09:58:40Z</time>
      </trkpt>
      <trkpt lat="43.5364850" lon="-6.5971050">
        <ele>39.6</ele>
        <time>2021-07-22T09:58:41Z</time>
      </trkpt>
      <trkpt lat="43.5364840" lon="-6.5971890">
        <ele>39.2</ele>
        <time>2021-07-22T09:58:42Z</time>
      </trkpt>
      <trkpt lat="43.5364840" lon="-6.5972690">
        <ele>38.8</ele>
        <time>2021-07-22T09:58:43Z</time>
      </trkpt>
      <trkpt lat="43.5364950" lon="-6.5973480">
        <ele>38.0</ele>
        <time>2021-07-22T09:58:44Z</time>
      </trkpt>
      <trkpt lat="43.5365450" lon="-6.5974950">
        <ele>38.0</ele>
        <time>2021-07-22T09:58:46Z</time>
      </trkpt>
      <trkpt lat="43.5366050" lon="-6.5975960">
        <ele>38.0</ele>
        <time>2021-07-22T09:58:48Z</time>
      </trkpt>
      <trkpt lat="43.5366350" lon="-6.5976390">
        <ele>38.0</ele>
        <time>2021-07-22T09:58:49Z</time>
      </trkpt>
      <trkpt lat="43.5366630" lon="-6.5976760">
        <ele>38.0</ele>
        <time>2021-07-22T09:58:50Z</time>
      </trkpt>
      <trkpt lat="43.5367460" lon="-6.5977730">
        <ele>38.0</ele>
        <time>2021-07-22T09:58:53Z</time>
      </trkpt>
      <trkpt lat="43.5368540" lon="-6.5979140">
        <ele>38.0</ele>
        <time>2021-07-22T09:58:57Z</time>
      </trkpt>
      <trkpt lat="43.5369310" lon="-6.5980220">
        <ele>38.0</ele>
        <time>2021-07-22T09:59:00Z</time>
      </trkpt>
      <trkpt lat="43.5369790" lon="-6.5980930">
        <ele>38.0</ele>
        <time>2021-07-22T09:59:02Z</time>
      </trkpt>
      <trkpt lat="43.5370410" lon="-6.5981910">
        <ele>38.0</ele>
        <time>2021-07-22T09:59:05Z</time>
      </trkpt>
      <trkpt lat="43.5371390" lon="-6.5984780">
        <ele>38.0</ele>
        <time>2021-07-22T09:59:12Z</time>
      </trkpt>
      <trkpt lat="43.5372390" lon="-6.5987740">
        <ele>38.0</ele>
        <time>2021-07-22T09:59:18Z</time>
      </trkpt>
      <trkpt lat="43.5372720" lon="-6.5988800">
        <ele>37.6</ele>
        <time>2021-07-22T09:59:20Z</time>
      </trkpt>
      <trkpt lat="43.5372910" lon="-6.5989330">
        <ele>37.2</ele>
        <time>2021-07-22T09:59:21Z</time>
      </trkpt>
      <trkpt lat="43.5373060" lon="-6.5989860">
        <ele>36.8</ele>
        <time>2021-07-22T09:59:22Z</time>
      </trkpt>
      <trkpt lat="43.5373200" lon="-6.5990370">
        <ele>36.4</ele>
        <time>2021-07-22T09:59:23Z</time>
      </trkpt>
      <trkpt lat="43.5373360" lon="-6.5990890">
        <ele>36.0</ele>
        <time>2021-07-22T09:59:24Z</time>
      </trkpt>
      <trkpt lat="43.5373520" lon="-6.5991380">
        <ele>36.0</ele>
        <time>2021-07-22T09:59:25Z</time>
      </trkpt>
      <trkpt lat="43.5374300" lon="-6.5993600">
        <ele>36.0</ele>
        <time>2021-07-22T09:59:30Z</time>
      </trkpt>
      <trkpt lat="43.5374610" lon="-6.5994440">
        <ele>36.0</ele>
        <time>2021-07-22T09:59:32Z</time>
      </trkpt>
      <trkpt lat="43.5375050" lon="-6.5995820">
        <ele>36.0</ele>
        <time>2021-07-22T09:59:35Z</time>
      </trkpt>
      <trkpt lat="43.5375270" lon="-6.5996830">
        <ele>36.0</ele>
        <time>2021-07-22T09:59:37Z</time>
      </trkpt>
      <trkpt lat="43.5375380" lon="-6.5997850">
        <ele>36.0</ele>
        <time>2021-07-22T09:59:39Z</time>
      </trkpt>
      <trkpt lat="43.5375500" lon="-6.5998840">
        <ele>36.0</ele>
        <time>2021-07-22T09:59:41Z</time>
      </trkpt>
      <trkpt lat="43.5375590" lon="-6.6000380">
        <ele>36.0</ele>
        <time>2021-07-22T09:59:44Z</time>
      </trkpt>
      <trkpt lat="43.5375770" lon="-6.6001920">
        <ele>36.0</ele>
        <time>2021-07-22T09:59:47Z</time>
      </trkpt>
      <trkpt lat="43.5376730" lon="-6.6004160">
        <ele>36.0</ele>
        <time>2021-07-22T09:59:52Z</time>
      </trkpt>
      <trkpt lat="43.5378730" lon="-6.6006880">
        <ele>36.0</ele>
        <time>2021-07-22T09:59:59Z</time>
      </trkpt>
      <trkpt lat="43.5379630" lon="-6.6009180">
        <ele>36.0</ele>
        <time>2021-07-22T10:00:04Z</time>
      </trkpt>
      <trkpt lat="43.5380080" lon="-6.6011100">
        <ele>36.0</ele>
        <time>2021-07-22T10:00:08Z</time>
      </trkpt>
      <trkpt lat="43.5380320" lon="-6.6012010">
        <ele>36.0</ele>
        <time>2021-07-22T10:00:10Z</time>
      </trkpt>
      <trkpt lat="43.5380730" lon="-6.6013810">
        <ele>36.0</ele>
        <time>2021-07-22T10:00:14Z</time>
      </trkpt>
      <trkpt lat="43.5381090" lon="-6.6015210">
        <ele>36.0</ele>
        <time>2021-07-22T10:00:17Z</time>
      </trkpt>
      <trkpt lat="43.5381650" lon="-6.6017500">
        <ele>36.0</ele>
        <time>2021-07-22T10:00:22Z</time>
      </trkpt>
      <trkpt lat="43.5382280" lon="-6.6019760">
        <ele>36.0</ele>
        <time>2021-07-22T10:00:27Z</time>
      </trkpt>
      <trkpt lat="43.5383270" lon="-6.6023150">
        <ele>36.4</ele>
        <time>2021-07-22T10:00:35Z</time>
      </trkpt>
      <trkpt lat="43.5383400" lon="-6.6023570">
        <ele>36.8</ele>
        <time>2021-07-22T10:00:36Z</time>
      </trkpt>
      <trkpt lat="43.5383570" lon="-6.6023970">
        <ele>37.2</ele>
        <time>2021-07-22T10:00:37Z</time>
      </trkpt>
      <trkpt lat="43.5383720" lon="-6.6024340">
        <ele>37.6</ele>
        <time>2021-07-22T10:00:38Z</time>
      </trkpt>
      <trkpt lat="43.5383890" lon="-6.6024740">
        <ele>38.2</ele>
        <time>2021-07-22T10:00:39Z</time>
      </trkpt>
      <trkpt lat="43.5384880" lon="-6.6026570">
        <ele>38.2</ele>
        <time>2021-07-22T10:00:44Z</time>
      </trkpt>
      <trkpt lat="43.5386860" lon="-6.6029300">
        <ele>38.2</ele>
        <time>2021-07-22T10:00:50Z</time>
      </trkpt>
      <trkpt lat="43.5388830" lon="-6.6031340">
        <ele>38.2</ele>
        <time>2021-07-22T10:00:54Z</time>
      </trkpt>
      <trkpt lat="43.5389360" lon="-6.6031860">
        <ele>37.8</ele>
        <time>2021-07-22T10:00:55Z</time>
      </trkpt>
      <trkpt lat="43.5389830" lon="-6.6032360">
        <ele>37.4</ele>
        <time>2021-07-22T10:00:56Z</time>
      </trkpt>
      <trkpt lat="43.5390270" lon="-6.6032860">
        <ele>37.0</ele>
        <time>2021-07-22T10:00:57Z</time>
      </trkpt>
      <trkpt lat="43.5390730" lon="-6.6033330">
        <ele>36.6</ele>
        <time>2021-07-22T10:00:58Z</time>
      </trkpt>
      <trkpt lat="43.5391160" lon="-6.6033810">
        <ele>36.0</ele>
        <time>2021-07-22T10:00:59Z</time>
      </trkpt>
      <trkpt lat="43.5391890" lon="-6.6034700">
        <ele>36.0</ele>
        <time>2021-07-22T10:01:01Z</time>
      </trkpt>
      <trkpt lat="43.5393110" lon="-6.6036550">
        <ele>36.0</ele>
        <time>2021-07-22T10:01:06Z</time>
      </trkpt>
      <trkpt lat="43.5393570" lon="-6.6038290">
        <ele>36.0</ele>
        <time>2021-07-22T10:01:11Z</time>
      </trkpt>
      <trkpt lat="43.5393740" lon="-6.6039730">
        <ele>36.0</ele>
        <time>2021-07-22T10:01:16Z</time>
      </trkpt>
      <trkpt lat="43.5393830" lon="-6.6040700">
        <ele>36.0</ele>
        <time>2021-07-22T10:01:19Z</time>
      </trkpt>
      <trkpt lat="43.5393880" lon="-6.6041680">
        <ele>36.6</ele>
        <time>2021-07-22T10:01:22Z</time>
      </trkpt>
      <trkpt lat="43.5393870" lon="-6.6041990">
        <ele>37.0</ele>
        <time>2021-07-22T10:01:23Z</time>
      </trkpt>
      <trkpt lat="43.5393890" lon="-6.6042300">
        <ele>37.4</ele>
        <time>2021-07-22T10:01:24Z</time>
      </trkpt>
      <trkpt lat="43.5393920" lon="-6.6042630">
        <ele>37.8</ele>
        <time>2021-07-22T10:01:25Z</time>
      </trkpt>
      <trkpt lat="43.5393960" lon="-6.6042950">
        <ele>38.2</ele>
        <time>2021-07-22T10:01:26Z</time>
      </trkpt>
      <trkpt lat="43.5394090" lon="-6.6044200">
        <ele>38.2</ele>
        <time>2021-07-22T10:01:30Z</time>
      </trkpt>
      <trkpt lat="43.5394310" lon="-6.6045810">
        <ele>38.2</ele>
        <time>2021-07-22T10:01:35Z</time>
      </trkpt>
      <trkpt lat="43.5394320" lon="-6.6046050">
        <ele>39.2</ele>
        <time>2021-07-22T10:01:36Z</time>
      </trkpt>
      <trkpt lat="43.5394350" lon="-6.6046280">
        <ele>39.6</ele>
        <time>2021-07-22T10:01:37Z</time>
      </trkpt>
      <trkpt lat="43.5394360" lon="-6.6046540">
        <ele>40.0</ele>
        <time>2021-07-22T10:01:38Z</time>
      </trkpt>
      <trkpt lat="43.5394360" lon="-6.6046780">
        <ele>40.4</ele>
        <time>2021-07-22T10:01:39Z</time>
      </trkpt>
      <trkpt lat="43.5394280" lon="-6.6047890">
        <ele>40.4</ele>
        <time>2021-07-22T10:01:43Z</time>
      </trkpt>
      <trkpt lat="43.5394010" lon="-6.6049850">
        <ele>40.8</ele>
        <time>2021-07-22T10:01:50Z</time>
      </trkpt>
      <trkpt lat="43.5393990" lon="-6.6050160">
        <ele>41.2</ele>
        <time>2021-07-22T10:01:51Z</time>
      </trkpt>
      <trkpt lat="43.5393970" lon="-6.6050500">
        <ele>41.6</ele>
        <time>2021-07-22T10:01:52Z</time>
      </trkpt>
      <trkpt lat="43.5393930" lon="-6.6050790">
        <ele>42.0</ele>
        <time>2021-07-22T10:01:53Z</time>
      </trkpt>
      <trkpt lat="43.5393900" lon="-6.6051100">
        <ele>42.4</ele>
        <time>2021-07-22T10:01:54Z</time>
      </trkpt>
      <trkpt lat="43.5393780" lon="-6.6052300">
        <ele>42.4</ele>
        <time>2021-07-22T10:01:58Z</time>
      </trkpt>
      <trkpt lat="43.5393580" lon="-6.6054020">
        <ele>42.4</ele>
        <time>2021-07-22T10:02:05Z</time>
      </trkpt>
      <trkpt lat="43.5393590" lon="-6.6054200">
        <ele>42.4</ele>
        <time>2021-07-22T10:02:08Z</time>
      </trkpt>
      <trkpt lat="43.5393470" lon="-6.6055020">
        <ele>43.2</ele>
        <time>2021-07-22T10:03:01Z</time>
      </trkpt>
      <trkpt lat="43.5393450" lon="-6.6055310">
        <ele>43.8</ele>
        <time>2021-07-22T10:03:02Z</time>
      </trkpt>
      <trkpt lat="43.5393430" lon="-6.6055610">
        <ele>44.2</ele>
        <time>2021-07-22T10:03:03Z</time>
      </trkpt>
      <trkpt lat="43.5393400" lon="-6.6055880">
        <ele>44.6</ele>
        <time>2021-07-22T10:03:04Z</time>
      </trkpt>
      <trkpt lat="43.5393310" lon="-6.6056760">
        <ele>44.6</ele>
        <time>2021-07-22T10:03:07Z</time>
      </trkpt>
      <trkpt lat="43.5393130" lon="-6.6058040">
        <ele>44.6</ele>
        <time>2021-07-22T10:03:12Z</time>
      </trkpt>
      <trkpt lat="43.5392930" lon="-6.6059040">
        <ele>44.6</ele>
        <time>2021-07-22T10:03:16Z</time>
      </trkpt>
      <trkpt lat="43.5392780" lon="-6.6059630">
        <ele>45.0</ele>
        <time>2021-07-22T10:03:18Z</time>
      </trkpt>
      <trkpt lat="43.5392740" lon="-6.6059890">
        <ele>45.4</ele>
        <time>2021-07-22T10:03:19Z</time>
      </trkpt>
      <trkpt lat="43.5392670" lon="-6.6060170">
        <ele>45.8</ele>
        <time>2021-07-22T10:03:20Z</time>
      </trkpt>
      <trkpt lat="43.5392580" lon="-6.6060440">
        <ele>46.2</ele>
        <time>2021-07-22T10:03:21Z</time>
      </trkpt>
      <trkpt lat="43.5392520" lon="-6.6060700">
        <ele>46.6</ele>
        <time>2021-07-22T10:03:22Z</time>
      </trkpt>
      <trkpt lat="43.5392310" lon="-6.6061840">
        <ele>46.6</ele>
        <time>2021-07-22T10:03:26Z</time>
      </trkpt>
      <trkpt lat="43.5391750" lon="-6.6063990">
        <ele>46.6</ele>
        <time>2021-07-22T10:03:34Z</time>
      </trkpt>
      <trkpt lat="43.5391700" lon="-6.6064810">
        <ele>47.0</ele>
        <time>2021-07-22T10:03:37Z</time>
      </trkpt>
      <trkpt lat="43.5391650" lon="-6.6065100">
        <ele>47.4</ele>
        <time>2021-07-22T10:03:38Z</time>
      </trkpt>
      <trkpt lat="43.5391600" lon="-6.6065360">
        <ele>47.8</ele>
        <time>2021-07-22T10:03:39Z</time>
      </trkpt>
      <trkpt lat="43.5391580" lon="-6.6065650">
        <ele>48.6</ele>
        <time>2021-07-22T10:03:40Z</time>
      </trkpt>
      <trkpt lat="43.5391670" lon="-6.6067950">
        <ele>48.6</ele>
        <time>2021-07-22T10:03:48Z</time>
      </trkpt>
      <trkpt lat="43.5392010" lon="-6.6070130">
        <ele>48.6</ele>
        <time>2021-07-22T10:03:56Z</time>
      </trkpt>
      <trkpt lat="43.5392120" lon="-6.6070590">
        <ele>49.0</ele>
        <time>2021-07-22T10:03:58Z</time>
      </trkpt>
      <trkpt lat="43.5392180" lon="-6.6070860">
        <ele>49.4</ele>
        <time>2021-07-22T10:03:59Z</time>
      </trkpt>
      <trkpt lat="43.5392210" lon="-6.6071150">
        <ele>49.8</ele>
        <time>2021-07-22T10:04:00Z</time>
      </trkpt>
      <trkpt lat="43.5392280" lon="-6.6071400">
        <ele>50.2</ele>
        <time>2021-07-22T10:04:01Z</time>
      </trkpt>
      <trkpt lat="43.5392350" lon="-6.6071610">
        <ele>50.6</ele>
        <time>2021-07-22T10:04:02Z</time>
      </trkpt>
      <trkpt lat="43.5392460" lon="-6.6071850">
        <ele>50.6</ele>
        <time>2021-07-22T10:04:03Z</time>
      </trkpt>
      <trkpt lat="43.5392960" lon="-6.6073270">
        <ele>50.6</ele>
        <time>2021-07-22T10:04:10Z</time>
      </trkpt>
      <trkpt lat="43.5393280" lon="-6.6074140">
        <ele>51.0</ele>
        <time>2021-07-22T10:04:14Z</time>
      </trkpt>
      <trkpt lat="43.5393360" lon="-6.6074360">
        <ele>51.4</ele>
        <time>2021-07-22T10:04:15Z</time>
      </trkpt>
      <trkpt lat="43.5393450" lon="-6.6074550">
        <ele>52.0</ele>
        <time>2021-07-22T10:04:16Z</time>
      </trkpt>
      <trkpt lat="43.5393530" lon="-6.6074760">
        <ele>52.4</ele>
        <time>2021-07-22T10:04:17Z</time>
      </trkpt>
      <trkpt lat="43.5393570" lon="-6.6074970">
        <ele>52.8</ele>
        <time>2021-07-22T10:04:18Z</time>
      </trkpt>
      <trkpt lat="43.5394230" lon="-6.6076250">
        <ele>52.8</ele>
        <time>2021-07-22T10:04:25Z</time>
      </trkpt>
      <trkpt lat="43.5394450" lon="-6.6076570">
        <ele>53.2</ele>
        <time>2021-07-22T10:04:27Z</time>
      </trkpt>
      <trkpt lat="43.5394550" lon="-6.6076720">
        <ele>53.6</ele>
        <time>2021-07-22T10:04:28Z</time>
      </trkpt>
      <trkpt lat="43.5394640" lon="-6.6076840">
        <ele>54.4</ele>
        <time>2021-07-22T10:04:29Z</time>
      </trkpt>
      <trkpt lat="43.5394760" lon="-6.6076930">
        <ele>54.8</ele>
        <time>2021-07-22T10:04:30Z</time>
      </trkpt>
      <trkpt lat="43.5395260" lon="-6.6077320">
        <ele>54.8</ele>
        <time>2021-07-22T10:04:34Z</time>
      </trkpt>
      <trkpt lat="43.5395860" lon="-6.6077770">
        <ele>55.2</ele>
        <time>2021-07-22T10:04:39Z</time>
      </trkpt>
      <trkpt lat="43.5395990" lon="-6.6077860">
        <ele>55.6</ele>
        <time>2021-07-22T10:04:40Z</time>
      </trkpt>
      <trkpt lat="43.5396110" lon="-6.6077930">
        <ele>56.0</ele>
        <time>2021-07-22T10:04:41Z</time>
      </trkpt>
      <trkpt lat="43.5396230" lon="-6.6077990">
        <ele>56.4</ele>
        <time>2021-07-22T10:04:42Z</time>
      </trkpt>
      <trkpt lat="43.5396360" lon="-6.6078070">
        <ele>56.8</ele>
        <time>2021-07-22T10:04:43Z</time>
      </trkpt>
      <trkpt lat="43.5396860" lon="-6.6078740">
        <ele>56.8</ele>
        <time>2021-07-22T10:04:48Z</time>
      </trkpt>
      <trkpt lat="43.5397330" lon="-6.6079270">
        <ele>57.2</ele>
        <time>2021-07-22T10:04:52Z</time>
      </trkpt>
      <trkpt lat="43.5397400" lon="-6.6079370">
        <ele>57.8</ele>
        <time>2021-07-22T10:04:53Z</time>
      </trkpt>
      <trkpt lat="43.5397530" lon="-6.6079460">
        <ele>58.6</ele>
        <time>2021-07-22T10:04:54Z</time>
      </trkpt>
      <trkpt lat="43.5397650" lon="-6.6079530">
        <ele>59.0</ele>
        <time>2021-07-22T10:04:55Z</time>
      </trkpt>
      <trkpt lat="43.5398730" lon="-6.6080030">
        <ele>59.4</ele>
        <time>2021-07-22T10:05:03Z</time>
      </trkpt>
      <trkpt lat="43.5398860" lon="-6.6080060">
        <ele>59.8</ele>
        <time>2021-07-22T10:05:04Z</time>
      </trkpt>
      <trkpt lat="43.5398990" lon="-6.6080130">
        <ele>60.2</ele>
        <time>2021-07-22T10:05:05Z</time>
      </trkpt>
      <trkpt lat="43.5399150" lon="-6.6080170">
        <ele>60.6</ele>
        <time>2021-07-22T10:05:06Z</time>
      </trkpt>
      <trkpt lat="43.5399280" lon="-6.6080240">
        <ele>61.0</ele>
        <time>2021-07-22T10:05:07Z</time>
      </trkpt>
      <trkpt lat="43.5399620" lon="-6.6080350">
        <ele>61.0</ele>
        <time>2021-07-22T10:05:11Z</time>
      </trkpt>
      <trkpt lat="43.5403420" lon="-6.6089480">
        <ele>73.2</ele>
        <time>2021-07-22T10:06:33Z</time>
      </trkpt>
      <trkpt lat="43.5403470" lon="-6.6089610">
        <ele>73.8</ele>
        <time>2021-07-22T10:06:34Z</time>
      </trkpt>
      <trkpt lat="43.5403480" lon="-6.6089910">
        <ele>73.8</ele>
        <time>2021-07-22T10:06:36Z</time>
      </trkpt>
      <trkpt lat="43.5403480" lon="-6.6091410">
        <ele>73.8</ele>
        <time>2021-07-22T10:06:45Z</time>
      </trkpt>
      <trkpt lat="43.5403490" lon="-6.6091580">
        <ele>73.8</ele>
        <time>2021-07-22T10:06:46Z</time>
      </trkpt>
      <trkpt lat="43.5403680" lon="-6.6092710">
        <ele>73.8</ele>
        <time>2021-07-22T10:06:53Z</time>
      </trkpt>
      <trkpt lat="43.5403710" lon="-6.6092790">
        <ele>73.8</ele>
        <time>2021-07-22T10:06:54Z</time>
      </trkpt>
      <trkpt lat="43.5403730" lon="-6.6092970">
        <ele>73.8</ele>
        <time>2021-07-22T10:06:57Z</time>
      </trkpt>
      <trkpt lat="43.5403800" lon="-6.6093450">
        <ele>73.8</ele>
        <time>2021-07-22T10:07:17Z</time>
      </trkpt>
      <trkpt lat="43.5403800" lon="-6.6093740">
        <ele>74.2</ele>
        <time>2021-07-22T10:07:18Z</time>
      </trkpt>
      <trkpt lat="43.5403770" lon="-6.6094060">
        <ele>74.6</ele>
        <time>2021-07-22T10:07:19Z</time>
      </trkpt>
      <trkpt lat="43.5403790" lon="-6.6094340">
        <ele>75.0</ele>
        <time>2021-07-22T10:07:20Z</time>
      </trkpt>
      <trkpt lat="43.5403830" lon="-6.6094630">
        <ele>75.4</ele>
        <time>2021-07-22T10:07:21Z</time>
      </trkpt>
      <trkpt lat="43.5403820" lon="-6.6094880">
        <ele>75.8</ele>
        <time>2021-07-22T10:07:22Z</time>
      </trkpt>
      <trkpt lat="43.5403770" lon="-6.6095700">
        <ele>75.8</ele>
        <time>2021-07-22T10:07:25Z</time>
      </trkpt>
      <trkpt lat="43.5403540" lon="-6.6097840">
        <ele>75.8</ele>
        <time>2021-07-22T10:07:32Z</time>
      </trkpt>
      <trkpt lat="43.5403250" lon="-6.6099560">
        <ele>75.8</ele>
        <time>2021-07-22T10:07:37Z</time>
      </trkpt>
      <trkpt lat="43.5402900" lon="-6.6101740">
        <ele>75.8</ele>
        <time>2021-07-22T10:07:44Z</time>
      </trkpt>
      <trkpt lat="43.5402870" lon="-6.6102340">
        <ele>76.2</ele>
        <time>2021-07-22T10:07:46Z</time>
      </trkpt>
      <trkpt lat="43.5402920" lon="-6.6102610">
        <ele>77.0</ele>
        <time>2021-07-22T10:07:47Z</time>
      </trkpt>
      <trkpt lat="43.5402960" lon="-6.6102800">
        <ele>77.4</ele>
        <time>2021-07-22T10:07:48Z</time>
      </trkpt>
      <trkpt lat="43.5402970" lon="-6.6102860">
        <ele>77.8</ele>
        <time>2021-07-22T10:07:49Z</time>
      </trkpt>
      <trkpt lat="43.5402960" lon="-6.6102860">
        <ele>77.8</ele>
        <time>2021-07-22T10:07:50Z</time>
      </trkpt>
      <trkpt lat="43.5402980" lon="-6.6103360">
        <ele>77.8</ele>
        <time>2021-07-22T10:08:05Z</time>
      </trkpt>
      <trkpt lat="43.5402970" lon="-6.6103620">
        <ele>77.8</ele>
        <time>2021-07-22T10:08:06Z</time>
      </trkpt>
      <trkpt lat="43.5402930" lon="-6.6104110">
        <ele>77.8</ele>
        <time>2021-07-22T10:08:08Z</time>
      </trkpt>
      <trkpt lat="43.5402900" lon="-6.6105310">
        <ele>77.8</ele>
        <time>2021-07-22T10:08:12Z</time>
      </trkpt>
      <trkpt lat="43.5402890" lon="-6.6105960">
        <ele>77.8</ele>
        <time>2021-07-22T10:08:14Z</time>
      </trkpt>
      <trkpt lat="43.5402720" lon="-6.6106780">
        <ele>78.2</ele>
        <time>2021-07-22T10:08:17Z</time>
      </trkpt>
      <trkpt lat="43.5402610" lon="-6.6107010">
        <ele>78.6</ele>
        <time>2021-07-22T10:08:18Z</time>
      </trkpt>
      <trkpt lat="43.5402510" lon="-6.6107230">
        <ele>79.0</ele>
        <time>2021-07-22T10:08:19Z</time>
      </trkpt>
      <trkpt lat="43.5402450" lon="-6.6107480">
        <ele>79.4</ele>
        <time>2021-07-22T10:08:20Z</time>
      </trkpt>
      <trkpt lat="43.5402360" lon="-6.6107650">
        <ele>79.8</ele>
        <time>2021-07-22T10:08:21Z</time>
      </trkpt>
      <trkpt lat="43.5401810" lon="-6.6109470">
        <ele>79.8</ele>
        <time>2021-07-22T10:08:27Z</time>
      </trkpt>
      <trkpt lat="43.5401790" lon="-6.6111240">
        <ele>79.8</ele>
        <time>2021-07-22T10:08:32Z</time>
      </trkpt>
      <trkpt lat="43.5401680" lon="-6.6112240">
        <ele>79.8</ele>
        <time>2021-07-22T10:08:36Z</time>
      </trkpt>
      <trkpt lat="43.5401710" lon="-6.6112440">
        <ele>79.8</ele>
        <time>2021-07-22T10:08:37Z</time>
      </trkpt>
      <trkpt lat="43.5401790" lon="-6.6112590">
        <ele>79.8</ele>
        <time>2021-07-22T10:08:38Z</time>
      </trkpt>
      <trkpt lat="43.5401810" lon="-6.6112660">
        <ele>79.8</ele>
        <time>2021-07-22T10:08:40Z</time>
      </trkpt>
      <trkpt lat="43.5401970" lon="-6.6113390">
        <ele>78.6</ele>
        <time>2021-07-22T10:08:47Z</time>
      </trkpt>
      <trkpt lat="43.5402050" lon="-6.6113530">
        <ele>78.2</ele>
        <time>2021-07-22T10:08:48Z</time>
      </trkpt>
      <trkpt lat="43.5402100" lon="-6.6113660">
        <ele>77.8</ele>
        <time>2021-07-22T10:08:49Z</time>
      </trkpt>
      <trkpt lat="43.5402350" lon="-6.6114200">
        <ele>77.4</ele>
        <time>2021-07-22T10:08:53Z</time>
      </trkpt>
      <trkpt lat="43.5402430" lon="-6.6114320">
        <ele>77.0</ele>
        <time>2021-07-22T10:08:54Z</time>
      </trkpt>
      <trkpt lat="43.5402550" lon="-6.6114410">
        <ele>76.6</ele>
        <time>2021-07-22T10:08:55Z</time>
      </trkpt>
      <trkpt lat="43.5402640" lon="-6.6114510">
        <ele>76.2</ele>
        <time>2021-07-22T10:08:56Z</time>
      </trkpt>
      <trkpt lat="43.5402700" lon="-6.6114650">
        <ele>75.8</ele>
        <time>2021-07-22T10:08:57Z</time>
      </trkpt>
      <trkpt lat="43.5402920" lon="-6.6115070">
        <ele>75.8</ele>
        <time>2021-07-22T10:09:00Z</time>
      </trkpt>
      <trkpt lat="43.5403010" lon="-6.6115210">
        <ele>75.2</ele>
        <time>2021-07-22T10:09:01Z</time>
      </trkpt>
      <trkpt lat="43.5403060" lon="-6.6115320">
        <ele>74.8</ele>
        <time>2021-07-22T10:09:02Z</time>
      </trkpt>
      <trkpt lat="43.5403080" lon="-6.6115490">
        <ele>74.4</ele>
        <time>2021-07-22T10:09:03Z</time>
      </trkpt>
      <trkpt lat="43.5403090" lon="-6.6115650">
        <ele>74.0</ele>
        <time>2021-07-22T10:09:04Z</time>
      </trkpt>
      <trkpt lat="43.5403100" lon="-6.6115870">
        <ele>73.4</ele>
        <time>2021-07-22T10:09:05Z</time>
      </trkpt>
      <trkpt lat="43.5403020" lon="-6.6116220">
        <ele>73.4</ele>
        <time>2021-07-22T10:09:07Z</time>
      </trkpt>
      <trkpt lat="43.5402890" lon="-6.6116550">
        <ele>73.0</ele>
        <time>2021-07-22T10:09:09Z</time>
      </trkpt>
      <trkpt lat="43.5402850" lon="-6.6116700">
        <ele>72.6</ele>
        <time>2021-07-22T10:09:10Z</time>
      </trkpt>
      <trkpt lat="43.5402790" lon="-6.6116860">
        <ele>72.2</ele>
        <time>2021-07-22T10:09:11Z</time>
      </trkpt>
      <trkpt lat="43.5402730" lon="-6.6117050">
        <ele>71.8</ele>
        <time>2021-07-22T10:09:12Z</time>
      </trkpt>
      <trkpt lat="43.5402690" lon="-6.6117230">
        <ele>71.2</ele>
        <time>2021-07-22T10:09:13Z</time>
      </trkpt>
      <trkpt lat="43.5402500" lon="-6.6117660">
        <ele>71.2</ele>
        <time>2021-07-22T10:09:16Z</time>
      </trkpt>
      <trkpt lat="43.5402400" lon="-6.6117890">
        <ele>70.8</ele>
        <time>2021-07-22T10:09:17Z</time>
      </trkpt>
      <trkpt lat="43.5402290" lon="-6.6118030">
        <ele>70.4</ele>
        <time>2021-07-22T10:09:18Z</time>
      </trkpt>
      <trkpt lat="43.5402230" lon="-6.6118150">
        <ele>70.0</ele>
        <time>2021-07-22T10:09:19Z</time>
      </trkpt>
      <trkpt lat="43.5402220" lon="-6.6118300">
        <ele>69.6</ele>
        <time>2021-07-22T10:09:20Z</time>
      </trkpt>
      <trkpt lat="43.5402210" lon="-6.6118350">
        <ele>69.2</ele>
        <time>2021-07-22T10:09:21Z</time>
      </trkpt>
      <trkpt lat="43.5402210" lon="-6.6118300">
        <ele>69.2</ele>
        <time>2021-07-22T10:09:22Z</time>
      </trkpt>
      <trkpt lat="43.5402160" lon="-6.6118810">
        <ele>69.2</ele>
        <time>2021-07-22T10:09:26Z</time>
      </trkpt>
      <trkpt lat="43.5402100" lon="-6.6119300">
        <ele>69.2</ele>
        <time>2021-07-22T10:09:27Z</time>
      </trkpt>
      <trkpt lat="43.5401900" lon="-6.6121990">
        <ele>68.8</ele>
        <time>2021-07-22T10:09:31Z</time>
      </trkpt>
      <trkpt lat="43.5401900" lon="-6.6122550">
        <ele>68.4</ele>
        <time>2021-07-22T10:09:32Z</time>
      </trkpt>
      <trkpt lat="43.5401920" lon="-6.6122900">
        <ele>68.0</ele>
        <time>2021-07-22T10:09:33Z</time>
      </trkpt>
      <trkpt lat="43.5401860" lon="-6.6123150">
        <ele>67.6</ele>
        <time>2021-07-22T10:09:34Z</time>
      </trkpt>
      <trkpt lat="43.5401870" lon="-6.6123460">
        <ele>67.2</ele>
        <time>2021-07-22T10:09:35Z</time>
      </trkpt>
      <trkpt lat="43.5401930" lon="-6.6124010">
        <ele>67.2</ele>
        <time>2021-07-22T10:09:37Z</time>
      </trkpt>
      <trkpt lat="43.5401970" lon="-6.6124560">
        <ele>67.2</ele>
        <time>2021-07-22T10:09:39Z</time>
      </trkpt>
      <trkpt lat="43.5402120" lon="-6.6125030">
        <ele>67.2</ele>
        <time>2021-07-22T10:09:41Z</time>
      </trkpt>
      <trkpt lat="43.5402170" lon="-6.6125210">
        <ele>67.6</ele>
        <time>2021-07-22T10:09:42Z</time>
      </trkpt>
      <trkpt lat="43.5402190" lon="-6.6125390">
        <ele>68.0</ele>
        <time>2021-07-22T10:09:43Z</time>
      </trkpt>
      <trkpt lat="43.5402270" lon="-6.6125590">
        <ele>68.4</ele>
        <time>2021-07-22T10:09:44Z</time>
      </trkpt>
      <trkpt lat="43.5402320" lon="-6.6125800">
        <ele>68.8</ele>
        <time>2021-07-22T10:09:45Z</time>
      </trkpt>
      <trkpt lat="43.5402390" lon="-6.6125950">
        <ele>69.4</ele>
        <time>2021-07-22T10:09:46Z</time>
      </trkpt>
      <trkpt lat="43.5402510" lon="-6.6126340">
        <ele>69.4</ele>
        <time>2021-07-22T10:09:48Z</time>
      </trkpt>
      <trkpt lat="43.5402570" lon="-6.6126390">
        <ele>69.4</ele>
        <time>2021-07-22T10:09:50Z</time>
      </trkpt>
      <trkpt lat="43.5405410" lon="-6.6129710">
        <ele>76.8</ele>
        <time>2021-07-22T10:10:39Z</time>
      </trkpt>
      <trkpt lat="43.5405530" lon="-6.6129790">
        <ele>77.6</ele>
        <time>2021-07-22T10:10:40Z</time>
      </trkpt>
      <trkpt lat="43.5405710" lon="-6.6129830">
        <ele>77.6</ele>
        <time>2021-07-22T10:10:42Z</time>
      </trkpt>
      <trkpt lat="43.5406280" lon="-6.6130130">
        <ele>77.6</ele>
        <time>2021-07-22T10:10:49Z</time>
      </trkpt>
      <trkpt lat="43.5406280" lon="-6.6130100">
        <ele>78.0</ele>
        <time>2021-07-22T10:10:50Z</time>
      </trkpt>
      <trkpt lat="43.5406360" lon="-6.6130210">
        <ele>79.8</ele>
        <time>2021-07-22T10:10:56Z</time>
      </trkpt>
      <trkpt lat="43.5406600" lon="-6.6130430">
        <ele>79.8</ele>
        <time>2021-07-22T10:10:58Z</time>
      </trkpt>
      <trkpt lat="43.5406920" lon="-6.6130780">
        <ele>79.8</ele>
        <time>2021-07-22T10:11:03Z</time>
      </trkpt>
      <trkpt lat="43.5407010" lon="-6.6130760">
        <ele>79.8</ele>
        <time>2021-07-22T10:11:06Z</time>
      </trkpt>
      <trkpt lat="43.5407430" lon="-6.6130840">
        <ele>79.8</ele>
        <time>2021-07-22T10:11:09Z</time>
      </trkpt>
      <trkpt lat="43.5407990" lon="-6.6130960">
        <ele>79.8</ele>
        <time>2021-07-22T10:11:14Z</time>
      </trkpt>
      <trkpt lat="43.5408100" lon="-6.6131060">
        <ele>79.8</ele>
        <time>2021-07-22T10:11:15Z</time>
      </trkpt>
      <trkpt lat="43.5408200" lon="-6.6131100">
        <ele>79.8</ele>
        <time>2021-07-22T10:11:16Z</time>
      </trkpt>
      <trkpt lat="43.5408700" lon="-6.6131010">
        <ele>79.8</ele>
        <time>2021-07-22T10:11:20Z</time>
      </trkpt>
      <trkpt lat="43.5409110" lon="-6.6131020">
        <ele>80.2</ele>
        <time>2021-07-22T10:11:23Z</time>
      </trkpt>
      <trkpt lat="43.5409240" lon="-6.6131060">
        <ele>80.6</ele>
        <time>2021-07-22T10:11:24Z</time>
      </trkpt>
      <trkpt lat="43.5409340" lon="-6.6131100">
        <ele>81.0</ele>
        <time>2021-07-22T10:11:25Z</time>
      </trkpt>
      <trkpt lat="43.5409450" lon="-6.6131160">
        <ele>81.4</ele>
        <time>2021-07-22T10:11:26Z</time>
      </trkpt>
      <trkpt lat="43.5409570" lon="-6.6131240">
        <ele>81.8</ele>
        <time>2021-07-22T10:11:27Z</time>
      </trkpt>
      <trkpt lat="43.5410370" lon="-6.6131470">
        <ele>81.8</ele>
        <time>2021-07-22T10:11:34Z</time>
      </trkpt>
      <trkpt lat="43.5411150" lon="-6.6131620">
        <ele>81.8</ele>
        <time>2021-07-22T10:11:40Z</time>
      </trkpt>
      <trkpt lat="43.5411850" lon="-6.6131700">
        <ele>82.2</ele>
        <time>2021-07-22T10:11:45Z</time>
      </trkpt>
      <trkpt lat="43.5411960" lon="-6.6131690">
        <ele>82.6</ele>
        <time>2021-07-22T10:11:46Z</time>
      </trkpt>
      <trkpt lat="43.5412060" lon="-6.6131680">
        <ele>83.0</ele>
        <time>2021-07-22T10:11:47Z</time>
      </trkpt>
      <trkpt lat="43.5412140" lon="-6.6131680">
        <ele>83.4</ele>
        <time>2021-07-22T10:11:48Z</time>
      </trkpt>
      <trkpt lat="43.5412200" lon="-6.6131720">
        <ele>83.8</ele>
        <time>2021-07-22T10:11:49Z</time>
      </trkpt>
      <trkpt lat="43.5412700" lon="-6.6132210">
        <ele>83.8</ele>
        <time>2021-07-22T10:12:02Z</time>
      </trkpt>
      <trkpt lat="43.5413160" lon="-6.6132580">
        <ele>83.8</ele>
        <time>2021-07-22T10:12:05Z</time>
      </trkpt>
      <trkpt lat="43.5413840" lon="-6.6133280">
        <ele>84.2</ele>
        <time>2021-07-22T10:12:10Z</time>
      </trkpt>
      <trkpt lat="43.5413950" lon="-6.6133460">
        <ele>84.8</ele>
        <time>2021-07-22T10:12:11Z</time>
      </trkpt>
      <trkpt lat="43.5414070" lon="-6.6133600">
        <ele>85.2</ele>
        <time>2021-07-22T10:12:12Z</time>
      </trkpt>
      <trkpt lat="43.5414210" lon="-6.6133720">
        <ele>85.6</ele>
        <time>2021-07-22T10:12:13Z</time>
      </trkpt>
      <trkpt lat="43.5414360" lon="-6.6133830">
        <ele>86.0</ele>
        <time>2021-07-22T10:12:14Z</time>
      </trkpt>
      <trkpt lat="43.5415300" lon="-6.6134870">
        <ele>86.0</ele>
        <time>2021-07-22T10:12:21Z</time>
      </trkpt>
      <trkpt lat="43.5416420" lon="-6.6136100">
        <ele>86.4</ele>
        <time>2021-07-22T10:12:29Z</time>
      </trkpt>
      <trkpt lat="43.5416580" lon="-6.6136270">
        <ele>86.8</ele>
        <time>2021-07-22T10:12:30Z</time>
      </trkpt>
      <trkpt lat="43.5416730" lon="-6.6136470">
        <ele>87.2</ele>
        <time>2021-07-22T10:12:31Z</time>
      </trkpt>
      <trkpt lat="43.5416860" lon="-6.6136640">
        <ele>87.6</ele>
        <time>2021-07-22T10:12:32Z</time>
      </trkpt>
      <trkpt lat="43.5417010" lon="-6.6136800">
        <ele>88.0</ele>
        <time>2021-07-22T10:12:33Z</time>
      </trkpt>
      <trkpt lat="43.5417560" lon="-6.6137310">
        <ele>88.0</ele>
        <time>2021-07-22T10:12:36Z</time>
      </trkpt>
      <trkpt lat="43.5419240" lon="-6.6138790">
        <ele>88.0</ele>
        <time>2021-07-22T10:12:44Z</time>
      </trkpt>
      <trkpt lat="43.5420260" lon="-6.6140000">
        <ele>88.0</ele>
        <time>2021-07-22T10:12:51Z</time>
      </trkpt>
      <trkpt lat="43.5420330" lon="-6.6140130">
        <ele>88.0</ele>
        <time>2021-07-22T10:13:37Z</time>
      </trkpt>
      <trkpt lat="43.5420420" lon="-6.6140310">
        <ele>88.0</ele>
        <time>2021-07-22T10:13:38Z</time>
      </trkpt>
      <trkpt lat="43.5420510" lon="-6.6140510">
        <ele>88.0</ele>
        <time>2021-07-22T10:13:39Z</time>
      </trkpt>
      <trkpt lat="43.5420640" lon="-6.6140750">
        <ele>88.4</ele>
        <time>2021-07-22T10:13:40Z</time>
      </trkpt>
      <trkpt lat="43.5420770" lon="-6.6141020">
        <ele>89.0</ele>
        <time>2021-07-22T10:13:41Z</time>
      </trkpt>
      <trkpt lat="43.5420920" lon="-6.6141290">
        <ele>89.4</ele>
        <time>2021-07-22T10:13:42Z</time>
      </trkpt>
      <trkpt lat="43.5421100" lon="-6.6141580">
        <ele>89.8</ele>
        <time>2021-07-22T10:13:43Z</time>
      </trkpt>
      <trkpt lat="43.5421290" lon="-6.6141870">
        <ele>90.2</ele>
        <time>2021-07-22T10:13:44Z</time>
      </trkpt>
      <trkpt lat="43.5421440" lon="-6.6142170">
        <ele>90.2</ele>
        <time>2021-07-22T10:13:45Z</time>
      </trkpt>
      <trkpt lat="43.5421930" lon="-6.6143120">
        <ele>90.2</ele>
        <time>2021-07-22T10:13:48Z</time>
      </trkpt>
      <trkpt lat="43.5422340" lon="-6.6144120">
        <ele>90.2</ele>
        <time>2021-07-22T10:13:51Z</time>
      </trkpt>
      <trkpt lat="43.5422610" lon="-6.6144740">
        <ele>90.2</ele>
        <time>2021-07-22T10:13:53Z</time>
      </trkpt>
      <trkpt lat="43.5423060" lon="-6.6145700">
        <ele>90.2</ele>
        <time>2021-07-22T10:13:56Z</time>
      </trkpt>
      <trkpt lat="43.5423520" lon="-6.6147110">
        <ele>90.2</ele>
        <time>2021-07-22T10:14:00Z</time>
      </trkpt>
      <trkpt lat="43.5423720" lon="-6.6147850">
        <ele>90.2</ele>
        <time>2021-07-22T10:14:02Z</time>
      </trkpt>
      <trkpt lat="43.5423840" lon="-6.6148170">
        <ele>90.6</ele>
        <time>2021-07-22T10:14:03Z</time>
      </trkpt>
      <trkpt lat="43.5423950" lon="-6.6148490">
        <ele>91.0</ele>
        <time>2021-07-22T10:14:04Z</time>
      </trkpt>
      <trkpt lat="43.5424040" lon="-6.6148820">
        <ele>91.4</ele>
        <time>2021-07-22T10:14:05Z</time>
      </trkpt>
      <trkpt lat="43.5424110" lon="-6.6149160">
        <ele>91.8</ele>
        <time>2021-07-22T10:14:06Z</time>
      </trkpt>
      <trkpt lat="43.5424170" lon="-6.6149510">
        <ele>92.2</ele>
        <time>2021-07-22T10:14:07Z</time>
      </trkpt>
      <trkpt lat="43.5424210" lon="-6.6150190">
        <ele>92.2</ele>
        <time>2021-07-22T10:14:09Z</time>
      </trkpt>
      <trkpt lat="43.5424320" lon="-6.6151910">
        <ele>92.2</ele>
        <time>2021-07-22T10:14:14Z</time>
      </trkpt>
      <trkpt lat="43.5424450" lon="-6.6154920">
        <ele>92.2</ele>
        <time>2021-07-22T10:14:22Z</time>
      </trkpt>
      <trkpt lat="43.5424510" lon="-6.6157080">
        <ele>92.6</ele>
        <time>2021-07-22T10:14:28Z</time>
      </trkpt>
      <trkpt lat="43.5424500" lon="-6.6157420">
        <ele>93.0</ele>
        <time>2021-07-22T10:14:29Z</time>
      </trkpt>
      <trkpt lat="43.5424510" lon="-6.6157750">
        <ele>93.4</ele>
        <time>2021-07-22T10:14:30Z</time>
      </trkpt>
      <trkpt lat="43.5424520" lon="-6.6158070">
        <ele>94.0</ele>
        <time>2021-07-22T10:14:31Z</time>
      </trkpt>
      <trkpt lat="43.5424510" lon="-6.6158390">
        <ele>94.4</ele>
        <time>2021-07-22T10:14:32Z</time>
      </trkpt>
      <trkpt lat="43.5424420" lon="-6.6160710">
        <ele>94.4</ele>
        <time>2021-07-22T10:14:38Z</time>
      </trkpt>
      <trkpt lat="43.5424420" lon="-6.6162750">
        <ele>94.4</ele>
        <time>2021-07-22T10:14:44Z</time>
      </trkpt>
      <trkpt lat="43.5424340" lon="-6.6164690">
        <ele>94.4</ele>
        <time>2021-07-22T10:14:50Z</time>
      </trkpt>
      <trkpt lat="43.5424310" lon="-6.6165000">
        <ele>94.4</ele>
        <time>2021-07-22T10:14:51Z</time>
      </trkpt>
      <trkpt lat="43.5424290" lon="-6.6165550">
        <ele>94.4</ele>
        <time>2021-07-22T10:14:53Z</time>
      </trkpt>
      <trkpt lat="43.5424170" lon="-6.6166430">
        <ele>94.4</ele>
        <time>2021-07-22T10:14:56Z</time>
      </trkpt>
      <trkpt lat="43.5423820" lon="-6.6168470">
        <ele>94.4</ele>
        <time>2021-07-22T10:15:02Z</time>
      </trkpt>
      <trkpt lat="43.5423700" lon="-6.6170240">
        <ele>94.4</ele>
        <time>2021-07-22T10:15:08Z</time>
      </trkpt>
      <trkpt lat="43.5423770" lon="-6.6170620">
        <ele>94.4</ele>
        <time>2021-07-22T10:15:09Z</time>
      </trkpt>
      <trkpt lat="43.5423940" lon="-6.6171000">
        <ele>94.4</ele>
        <time>2021-07-22T10:15:10Z</time>
      </trkpt>
      <trkpt lat="43.5424500" lon="-6.6171960">
        <ele>94.4</ele>
        <time>2021-07-22T10:15:13Z</time>
      </trkpt>
      <trkpt lat="43.5425430" lon="-6.6173830">
        <ele>94.4</ele>
        <time>2021-07-22T10:15:19Z</time>
      </trkpt>
      <trkpt lat="43.5425490" lon="-6.6176290">
        <ele>94.4</ele>
        <time>2021-07-22T10:15:25Z</time>
      </trkpt>
      <trkpt lat="43.5425090" lon="-6.6179600">
        <ele>94.4</ele>
        <time>2021-07-22T10:15:33Z</time>
      </trkpt>
      <trkpt lat="43.5425030" lon="-6.6180000">
        <ele>94.8</ele>
        <time>2021-07-22T10:15:34Z</time>
      </trkpt>
      <trkpt lat="43.5424970" lon="-6.6180420">
        <ele>95.2</ele>
        <time>2021-07-22T10:15:35Z</time>
      </trkpt>
      <trkpt lat="43.5424910" lon="-6.6180860">
        <ele>96.0</ele>
        <time>2021-07-22T10:15:36Z</time>
      </trkpt>
      <trkpt lat="43.5424850" lon="-6.6181300">
        <ele>96.4</ele>
        <time>2021-07-22T10:15:37Z</time>
      </trkpt>
      <trkpt lat="43.5424600" lon="-6.6182790">
        <ele>96.4</ele>
        <time>2021-07-22T10:15:41Z</time>
      </trkpt>
      <trkpt lat="43.5424530" lon="-6.6183140">
        <ele>96.4</ele>
        <time>2021-07-22T10:15:42Z</time>
      </trkpt>
      <trkpt lat="43.5424180" lon="-6.6185320">
        <ele>96.4</ele>
        <time>2021-07-22T10:15:48Z</time>
      </trkpt>
      <trkpt lat="43.5424010" lon="-6.6186770">
        <ele>96.8</ele>
        <time>2021-07-22T10:15:52Z</time>
      </trkpt>
      <trkpt lat="43.5423920" lon="-6.6187090">
        <ele>97.2</ele>
        <time>2021-07-22T10:15:53Z</time>
      </trkpt>
      <trkpt lat="43.5423830" lon="-6.6187400">
        <ele>97.6</ele>
        <time>2021-07-22T10:15:54Z</time>
      </trkpt>
      <trkpt lat="43.5423760" lon="-6.6187770">
        <ele>98.0</ele>
        <time>2021-07-22T10:15:55Z</time>
      </trkpt>
      <trkpt lat="43.5423680" lon="-6.6188140">
        <ele>98.4</ele>
        <time>2021-07-22T10:15:56Z</time>
      </trkpt>
      <trkpt lat="43.5423290" lon="-6.6190990">
        <ele>98.4</ele>
        <time>2021-07-22T10:16:04Z</time>
      </trkpt>
      <trkpt lat="43.5423060" lon="-6.6193060">
        <ele>98.8</ele>
        <time>2021-07-22T10:16:10Z</time>
      </trkpt>
      <trkpt lat="43.5423030" lon="-6.6193390">
        <ele>99.4</ele>
        <time>2021-07-22T10:16:11Z</time>
      </trkpt>
      <trkpt lat="43.5422980" lon="-6.6193690">
        <ele>99.8</ele>
        <time>2021-07-22T10:16:12Z</time>
      </trkpt>
      <trkpt lat="43.5422920" lon="-6.6194000">
        <ele>100.2</ele>
        <time>2021-07-22T10:16:13Z</time>
      </trkpt>
      <trkpt lat="43.5422860" lon="-6.6194330">
        <ele>100.6</ele>
        <time>2021-07-22T10:16:14Z</time>
      </trkpt>
      <trkpt lat="43.5422740" lon="-6.6195610">
        <ele>100.6</ele>
        <time>2021-07-22T10:16:18Z</time>
      </trkpt>
      <trkpt lat="43.5422440" lon="-6.6197410">
        <ele>101.0</ele>
        <time>2021-07-22T10:16:24Z</time>
      </trkpt>
      <trkpt lat="43.5422380" lon="-6.6197700">
        <ele>101.4</ele>
        <time>2021-07-22T10:16:25Z</time>
      </trkpt>
      <trkpt lat="43.5422350" lon="-6.6197980">
        <ele>102.2</ele>
        <time>2021-07-22T10:16:26Z</time>
      </trkpt>
      <trkpt lat="43.5422330" lon="-6.6198260">
        <ele>102.6</ele>
        <time>2021-07-22T10:16:27Z</time>
      </trkpt>
      <trkpt lat="43.5422280" lon="-6.6199350">
        <ele>102.6</ele>
        <time>2021-07-22T10:16:31Z</time>
      </trkpt>
      <trkpt lat="43.5422180" lon="-6.6200790">
        <ele>103.0</ele>
        <time>2021-07-22T10:16:36Z</time>
      </trkpt>
      <trkpt lat="43.5422170" lon="-6.6201100">
        <ele>103.6</ele>
        <time>2021-07-22T10:16:37Z</time>
      </trkpt>
      <trkpt lat="43.5422170" lon="-6.6201420">
        <ele>104.0</ele>
        <time>2021-07-22T10:16:38Z</time>
      </trkpt>
      <trkpt lat="43.5422170" lon="-6.6201740">
        <ele>104.4</ele>
        <time>2021-07-22T10:16:39Z</time>
      </trkpt>
      <trkpt lat="43.5422180" lon="-6.6202050">
        <ele>104.8</ele>
        <time>2021-07-22T10:16:40Z</time>
      </trkpt>
      <trkpt lat="43.5422250" lon="-6.6204320">
        <ele>104.8</ele>
        <time>2021-07-22T10:16:47Z</time>
      </trkpt>
      <trkpt lat="43.5422450" lon="-6.6206060">
        <ele>105.2</ele>
        <time>2021-07-22T10:16:52Z</time>
      </trkpt>
      <trkpt lat="43.5422490" lon="-6.6206430">
        <ele>105.6</ele>
        <time>2021-07-22T10:16:53Z</time>
      </trkpt>
      <trkpt lat="43.5422540" lon="-6.6206800">
        <ele>106.0</ele>
        <time>2021-07-22T10:16:54Z</time>
      </trkpt>
      <trkpt lat="43.5422600" lon="-6.6207130">
        <ele>106.4</ele>
        <time>2021-07-22T10:16:55Z</time>
      </trkpt>
      <trkpt lat="43.5422640" lon="-6.6207480">
        <ele>106.8</ele>
        <time>2021-07-22T10:16:56Z</time>
      </trkpt>
      <trkpt lat="43.5422920" lon="-6.6208900">
        <ele>106.8</ele>
        <time>2021-07-22T10:17:00Z</time>
      </trkpt>
      <trkpt lat="43.5423470" lon="-6.6211550">
        <ele>106.8</ele>
        <time>2021-07-22T10:17:07Z</time>
      </trkpt>
      <trkpt lat="43.5423840" lon="-6.6213040">
        <ele>106.8</ele>
        <time>2021-07-22T10:17:10Z</time>
      </trkpt>
      <trkpt lat="43.5424210" lon="-6.6214210">
        <ele>106.8</ele>
        <time>2021-07-22T10:17:12Z</time>
      </trkpt>
      <trkpt lat="43.5424450" lon="-6.6214810">
        <ele>106.8</ele>
        <time>2021-07-22T10:17:13Z</time>
      </trkpt>
      <trkpt lat="43.5425000" lon="-6.6216060">
        <ele>106.8</ele>
        <time>2021-07-22T10:17:15Z</time>
      </trkpt>
      <trkpt lat="43.5425320" lon="-6.6216680">
        <ele>106.8</ele>
        <time>2021-07-22T10:17:16Z</time>
      </trkpt>
      <trkpt lat="43.5426020" lon="-6.6217970">
        <ele>106.8</ele>
        <time>2021-07-22T10:17:18Z</time>
      </trkpt>
      <trkpt lat="43.5426390" lon="-6.6218620">
        <ele>106.8</ele>
        <time>2021-07-22T10:17:19Z</time>
      </trkpt>
      <trkpt lat="43.5427160" lon="-6.6219860">
        <ele>106.8</ele>
        <time>2021-07-22T10:17:21Z</time>
      </trkpt>
      <trkpt lat="43.5427500" lon="-6.6220400">
        <ele>106.4</ele>
        <time>2021-07-22T10:17:22Z</time>
      </trkpt>
      <trkpt lat="43.5427820" lon="-6.6220890">
        <ele>105.8</ele>
        <time>2021-07-22T10:17:23Z</time>
      </trkpt>
      <trkpt lat="43.5428130" lon="-6.6221380">
        <ele>105.4</ele>
        <time>2021-07-22T10:17:24Z</time>
      </trkpt>
      <trkpt lat="43.5428490" lon="-6.6221880">
        <ele>105.0</ele>
        <time>2021-07-22T10:17:25Z</time>
      </trkpt>
      <trkpt lat="43.5428890" lon="-6.6222400">
        <ele>104.4</ele>
        <time>2021-07-22T10:17:26Z</time>
      </trkpt>
      <trkpt lat="43.5429370" lon="-6.6222920">
        <ele>104.4</ele>
        <time>2021-07-22T10:17:27Z</time>
      </trkpt>
      <trkpt lat="43.5429920" lon="-6.6223430">
        <ele>104.0</ele>
        <time>2021-07-22T10:17:28Z</time>
      </trkpt>
      <trkpt lat="43.5430510" lon="-6.6223890">
        <ele>103.6</ele>
        <time>2021-07-22T10:17:29Z</time>
      </trkpt>
      <trkpt lat="43.5431170" lon="-6.6224330">
        <ele>103.2</ele>
        <time>2021-07-22T10:17:30Z</time>
      </trkpt>
      <trkpt lat="43.5431800" lon="-6.6224720">
        <ele>102.8</ele>
        <time>2021-07-22T10:17:31Z</time>
      </trkpt>
      <trkpt lat="43.5432470" lon="-6.6225070">
        <ele>102.2</ele>
        <time>2021-07-22T10:17:32Z</time>
      </trkpt>
      <trkpt lat="43.5433170" lon="-6.6225320">
        <ele>101.6</ele>
        <time>2021-07-22T10:17:33Z</time>
      </trkpt>
      <trkpt lat="43.5433860" lon="-6.6225490">
        <ele>101.2</ele>
        <time>2021-07-22T10:17:34Z</time>
      </trkpt>
      <trkpt lat="43.5434550" lon="-6.6225590">
        <ele>100.4</ele>
        <time>2021-07-22T10:17:35Z</time>
      </trkpt>
      <trkpt lat="43.5435260" lon="-6.6225630">
        <ele>99.8</ele>
        <time>2021-07-22T10:17:36Z</time>
      </trkpt>
      <trkpt lat="43.5435980" lon="-6.6225590">
        <ele>99.2</ele>
        <time>2021-07-22T10:17:37Z</time>
      </trkpt>
      <trkpt lat="43.5436770" lon="-6.6225450">
        <ele>98.6</ele>
        <time>2021-07-22T10:17:38Z</time>
      </trkpt>
      <trkpt lat="43.5437540" lon="-6.6225250">
        <ele>98.0</ele>
        <time>2021-07-22T10:17:39Z</time>
      </trkpt>
      <trkpt lat="43.5438310" lon="-6.6225020">
        <ele>97.4</ele>
        <time>2021-07-22T10:17:40Z</time>
      </trkpt>
      <trkpt lat="43.5439090" lon="-6.6224800">
        <ele>97.0</ele>
        <time>2021-07-22T10:17:41Z</time>
      </trkpt>
      <trkpt lat="43.5439870" lon="-6.6224560">
        <ele>96.4</ele>
        <time>2021-07-22T10:17:42Z</time>
      </trkpt>
      <trkpt lat="43.5440630" lon="-6.6224350">
        <ele>96.0</ele>
        <time>2021-07-22T10:17:43Z</time>
      </trkpt>
      <trkpt lat="43.5441390" lon="-6.6224150">
        <ele>95.4</ele>
        <time>2021-07-22T10:17:44Z</time>
      </trkpt>
      <trkpt lat="43.5442200" lon="-6.6223930">
        <ele>94.8</ele>
        <time>2021-07-22T10:17:45Z</time>
      </trkpt>
      <trkpt lat="43.5442970" lon="-6.6223720">
        <ele>94.4</ele>
        <time>2021-07-22T10:17:46Z</time>
      </trkpt>
      <trkpt lat="43.5443770" lon="-6.6223480">
        <ele>93.8</ele>
        <time>2021-07-22T10:17:47Z</time>
      </trkpt>
      <trkpt lat="43.5444620" lon="-6.6223190">
        <ele>93.2</ele>
        <time>2021-07-22T10:17:48Z</time>
      </trkpt>
      <trkpt lat="43.5445480" lon="-6.6222890">
        <ele>92.6</ele>
        <time>2021-07-22T10:17:49Z</time>
      </trkpt>
      <trkpt lat="43.5446360" lon="-6.6222590">
        <ele>92.0</ele>
        <time>2021-07-22T10:17:50Z</time>
      </trkpt>
      <trkpt lat="43.5447280" lon="-6.6222230">
        <ele>91.4</ele>
        <time>2021-07-22T10:17:51Z</time>
      </trkpt>
      <trkpt lat="43.5448130" lon="-6.6221820">
        <ele>90.8</ele>
        <time>2021-07-22T10:17:52Z</time>
      </trkpt>
      <trkpt lat="43.5448950" lon="-6.6221430">
        <ele>90.4</ele>
        <time>2021-07-22T10:17:53Z</time>
      </trkpt>
      <trkpt lat="43.5449740" lon="-6.6221040">
        <ele>90.0</ele>
        <time>2021-07-22T10:17:54Z</time>
      </trkpt>
      <trkpt lat="43.5450520" lon="-6.6220610">
        <ele>89.6</ele>
        <time>2021-07-22T10:17:55Z</time>
      </trkpt>
      <trkpt lat="43.5451280" lon="-6.6220160">
        <ele>89.0</ele>
        <time>2021-07-22T10:17:56Z</time>
      </trkpt>
      <trkpt lat="43.5452010" lon="-6.6219690">
        <ele>88.4</ele>
        <time>2021-07-22T10:17:57Z</time>
      </trkpt>
      <trkpt lat="43.5452660" lon="-6.6219240">
        <ele>87.8</ele>
        <time>2021-07-22T10:17:58Z</time>
      </trkpt>
      <trkpt lat="43.5453190" lon="-6.6218820">
        <ele>87.2</ele>
        <time>2021-07-22T10:17:59Z</time>
      </trkpt>
      <trkpt lat="43.5453670" lon="-6.6218440">
        <ele>86.4</ele>
        <time>2021-07-22T10:18:00Z</time>
      </trkpt>
      <trkpt lat="43.5454190" lon="-6.6218060">
        <ele>85.8</ele>
        <time>2021-07-22T10:18:01Z</time>
      </trkpt>
      <trkpt lat="43.5454740" lon="-6.6217670">
        <ele>85.2</ele>
        <time>2021-07-22T10:18:02Z</time>
      </trkpt>
      <trkpt lat="43.5455340" lon="-6.6217200">
        <ele>84.6</ele>
        <time>2021-07-22T10:18:03Z</time>
      </trkpt>
      <trkpt lat="43.5455960" lon="-6.6216660">
        <ele>83.2</ele>
        <time>2021-07-22T10:18:04Z</time>
      </trkpt>
      <trkpt lat="43.5456580" lon="-6.6216120">
        <ele>82.4</ele>
        <time>2021-07-22T10:18:05Z</time>
      </trkpt>
      <trkpt lat="43.5457270" lon="-6.6215480">
        <ele>81.8</ele>
        <time>2021-07-22T10:18:06Z</time>
      </trkpt>
      <trkpt lat="43.5457880" lon="-6.6214810">
        <ele>81.0</ele>
        <time>2021-07-22T10:18:07Z</time>
      </trkpt>
      <trkpt lat="43.5458440" lon="-6.6214170">
        <ele>80.4</ele>
        <time>2021-07-22T10:18:08Z</time>
      </trkpt>
      <trkpt lat="43.5458990" lon="-6.6213550">
        <ele>79.6</ele>
        <time>2021-07-22T10:18:09Z</time>
      </trkpt>
      <trkpt lat="43.5459490" lon="-6.6212970">
        <ele>78.8</ele>
        <time>2021-07-22T10:18:10Z</time>
      </trkpt>
      <trkpt lat="43.5459970" lon="-6.6212440">
        <ele>78.0</ele>
        <time>2021-07-22T10:18:11Z</time>
      </trkpt>
      <trkpt lat="43.5460430" lon="-6.6211890">
        <ele>77.4</ele>
        <time>2021-07-22T10:18:12Z</time>
      </trkpt>
      <trkpt lat="43.5460850" lon="-6.6211330">
        <ele>76.6</ele>
        <time>2021-07-22T10:18:13Z</time>
      </trkpt>
      <trkpt lat="43.5461280" lon="-6.6210760">
        <ele>75.8</ele>
        <time>2021-07-22T10:18:14Z</time>
      </trkpt>
      <trkpt lat="43.5461730" lon="-6.6210200">
        <ele>75.0</ele>
        <time>2021-07-22T10:18:15Z</time>
      </trkpt>
      <trkpt lat="43.5462180" lon="-6.6209620">
        <ele>74.2</ele>
        <time>2021-07-22T10:18:16Z</time>
      </trkpt>
      <trkpt lat="43.5462630" lon="-6.6209080">
        <ele>73.4</ele>
        <time>2021-07-22T10:18:17Z</time>
      </trkpt>
      <trkpt lat="43.5463030" lon="-6.6208570">
        <ele>72.6</ele>
        <time>2021-07-22T10:18:18Z</time>
      </trkpt>
      <trkpt lat="43.5463380" lon="-6.6208100">
        <ele>71.8</ele>
        <time>2021-07-22T10:18:19Z</time>
      </trkpt>
      <trkpt lat="43.5463690" lon="-6.6207670">
        <ele>71.0</ele>
        <time>2021-07-22T10:18:20Z</time>
      </trkpt>
      <trkpt lat="43.5463950" lon="-6.6207250">
        <ele>70.0</ele>
        <time>2021-07-22T10:18:21Z</time>
      </trkpt>
      <trkpt lat="43.5464190" lon="-6.6206830">
        <ele>69.2</ele>
        <time>2021-07-22T10:18:22Z</time>
      </trkpt>
      <trkpt lat="43.5464470" lon="-6.6206480">
        <ele>68.4</ele>
        <time>2021-07-22T10:18:23Z</time>
      </trkpt>
      <trkpt lat="43.5464750" lon="-6.6206300">
        <ele>67.6</ele>
        <time>2021-07-22T10:18:24Z</time>
      </trkpt>
      <trkpt lat="43.5465010" lon="-6.6206300">
        <ele>66.8</ele>
        <time>2021-07-22T10:18:25Z</time>
      </trkpt>
      <trkpt lat="43.5465200" lon="-6.6206360">
        <ele>66.0</ele>
        <time>2021-07-22T10:18:26Z</time>
      </trkpt>
      <trkpt lat="43.5465350" lon="-6.6206440">
        <ele>65.2</ele>
        <time>2021-07-22T10:18:27Z</time>
      </trkpt>
      <trkpt lat="43.5465410" lon="-6.6206470">
        <ele>64.4</ele>
        <time>2021-07-22T10:18:28Z</time>
      </trkpt>
      <trkpt lat="43.5465440" lon="-6.6206480">
        <ele>63.6</ele>
        <time>2021-07-22T10:18:29Z</time>
      </trkpt>
      <trkpt lat="43.5465420" lon="-6.6206710">
        <ele>62.2</ele>
        <time>2021-07-22T10:19:05Z</time>
      </trkpt>
      <trkpt lat="43.5465360" lon="-6.6207170">
        <ele>62.2</ele>
        <time>2021-07-22T10:19:08Z</time>
      </trkpt>
      <trkpt lat="43.5465310" lon="-6.6207350">
        <ele>62.2</ele>
        <time>2021-07-22T10:19:10Z</time>
      </trkpt>
      <trkpt lat="43.5465300" lon="-6.6207420">
        <ele>62.2</ele>
        <time>2021-07-22T10:20:00Z</time>
      </trkpt>
      <trkpt lat="43.5465210" lon="-6.6208060">
        <ele>62.2</ele>
        <time>2021-07-22T10:20:02Z</time>
      </trkpt>
      <trkpt lat="43.5465040" lon="-6.6209110">
        <ele>61.8</ele>
        <time>2021-07-22T10:20:04Z</time>
      </trkpt>
      <trkpt lat="43.5464970" lon="-6.6209750">
        <ele>61.4</ele>
        <time>2021-07-22T10:20:05Z</time>
      </trkpt>
      <trkpt lat="43.5464860" lon="-6.6210390">
        <ele>61.0</ele>
        <time>2021-07-22T10:20:06Z</time>
      </trkpt>
      <trkpt lat="43.5464740" lon="-6.6211040">
        <ele>60.6</ele>
        <time>2021-07-22T10:20:07Z</time>
      </trkpt>
      <trkpt lat="43.5464620" lon="-6.6211690">
        <ele>60.2</ele>
        <time>2021-07-22T10:20:08Z</time>
      </trkpt>
      <trkpt lat="43.5464310" lon="-6.6213030">
        <ele>60.2</ele>
        <time>2021-07-22T10:20:10Z</time>
      </trkpt>
      <trkpt lat="43.5463910" lon="-6.6214340">
        <ele>60.2</ele>
        <time>2021-07-22T10:20:12Z</time>
      </trkpt>
      <trkpt lat="43.5463630" lon="-6.6214900">
        <ele>60.2</ele>
        <time>2021-07-22T10:20:13Z</time>
      </trkpt>
      <trkpt lat="43.5463020" lon="-6.6215770">
        <ele>60.2</ele>
        <time>2021-07-22T10:20:15Z</time>
      </trkpt>
      <trkpt lat="43.5462690" lon="-6.6216150">
        <ele>60.2</ele>
        <time>2021-07-22T10:20:16Z</time>
      </trkpt>
      <trkpt lat="43.5462130" lon="-6.6216830">
        <ele>60.2</ele>
        <time>2021-07-22T10:20:18Z</time>
      </trkpt>
      <trkpt lat="43.5460890" lon="-6.6218530">
        <ele>59.8</ele>
        <time>2021-07-22T10:20:23Z</time>
      </trkpt>
      <trkpt lat="43.5460670" lon="-6.6218970">
        <ele>59.4</ele>
        <time>2021-07-22T10:20:24Z</time>
      </trkpt>
      <trkpt lat="43.5460440" lon="-6.6219440">
        <ele>59.0</ele>
        <time>2021-07-22T10:20:25Z</time>
      </trkpt>
      <trkpt lat="43.5460220" lon="-6.6219930">
        <ele>58.6</ele>
        <time>2021-07-22T10:20:26Z</time>
      </trkpt>
      <trkpt lat="43.5459990" lon="-6.6220460">
        <ele>58.2</ele>
        <time>2021-07-22T10:20:27Z</time>
      </trkpt>
      <trkpt lat="43.5459330" lon="-6.6222140">
        <ele>58.2</ele>
        <time>2021-07-22T10:20:30Z</time>
      </trkpt>
      <trkpt lat="43.5459120" lon="-6.6222700">
        <ele>58.2</ele>
        <time>2021-07-22T10:20:31Z</time>
      </trkpt>
      <trkpt lat="43.5458760" lon="-6.6223710">
        <ele>57.6</ele>
        <time>2021-07-22T10:20:33Z</time>
      </trkpt>
      <trkpt lat="43.5458570" lon="-6.6224240">
        <ele>57.2</ele>
        <time>2021-07-22T10:20:34Z</time>
      </trkpt>
      <trkpt lat="43.5458320" lon="-6.6224800">
        <ele>56.8</ele>
        <time>2021-07-22T10:20:35Z</time>
      </trkpt>
      <trkpt lat="43.5458030" lon="-6.6225330">
        <ele>56.4</ele>
        <time>2021-07-22T10:20:36Z</time>
      </trkpt>
      <trkpt lat="43.5457710" lon="-6.6225840">
        <ele>56.0</ele>
        <time>2021-07-22T10:20:37Z</time>
      </trkpt>
      <trkpt lat="43.5457020" lon="-6.6226920">
        <ele>55.4</ele>
        <time>2021-07-22T10:20:39Z</time>
      </trkpt>
      <trkpt lat="43.5456660" lon="-6.6227470">
        <ele>55.0</ele>
        <time>2021-07-22T10:20:40Z</time>
      </trkpt>
      <trkpt lat="43.5456280" lon="-6.6228000">
        <ele>54.6</ele>
        <time>2021-07-22T10:20:41Z</time>
      </trkpt>
      <trkpt lat="43.5455880" lon="-6.6228470">
        <ele>54.0</ele>
        <time>2021-07-22T10:20:42Z</time>
      </trkpt>
      <trkpt lat="43.5455460" lon="-6.6228960">
        <ele>53.6</ele>
        <time>2021-07-22T10:20:43Z</time>
      </trkpt>
      <trkpt lat="43.5455030" lon="-6.6229430">
        <ele>53.0</ele>
        <time>2021-07-22T10:20:44Z</time>
      </trkpt>
      <trkpt lat="43.5454590" lon="-6.6229860">
        <ele>52.6</ele>
        <time>2021-07-22T10:20:45Z</time>
      </trkpt>
      <trkpt lat="43.5454070" lon="-6.6230330">
        <ele>52.0</ele>
        <time>2021-07-22T10:20:46Z</time>
      </trkpt>
      <trkpt lat="43.5453540" lon="-6.6230750">
        <ele>51.4</ele>
        <time>2021-07-22T10:20:47Z</time>
      </trkpt>
      <trkpt lat="43.5452980" lon="-6.6231130">
        <ele>50.8</ele>
        <time>2021-07-22T10:20:48Z</time>
      </trkpt>
      <trkpt lat="43.5452400" lon="-6.6231490">
        <ele>50.2</ele>
        <time>2021-07-22T10:20:49Z</time>
      </trkpt>
      <trkpt lat="43.5451840" lon="-6.6231800">
        <ele>49.8</ele>
        <time>2021-07-22T10:20:50Z</time>
      </trkpt>
      <trkpt lat="43.5451300" lon="-6.6232110">
        <ele>49.2</ele>
        <time>2021-07-22T10:20:51Z</time>
      </trkpt>
      <trkpt lat="43.5448660" lon="-6.6233910">
        <ele>49.2</ele>
        <time>2021-07-22T10:20:56Z</time>
      </trkpt>
      <trkpt lat="43.5448170" lon="-6.6234300">
        <ele>48.8</ele>
        <time>2021-07-22T10:20:57Z</time>
      </trkpt>
      <trkpt lat="43.5447680" lon="-6.6234690">
        <ele>47.8</ele>
        <time>2021-07-22T10:20:58Z</time>
      </trkpt>
      <trkpt lat="43.5447210" lon="-6.6235120">
        <ele>47.4</ele>
        <time>2021-07-22T10:20:59Z</time>
      </trkpt>
      <trkpt lat="43.5446780" lon="-6.6235510">
        <ele>47.0</ele>
        <time>2021-07-22T10:21:00Z</time>
      </trkpt>
      <trkpt lat="43.5446380" lon="-6.6235950">
        <ele>46.4</ele>
        <time>2021-07-22T10:21:01Z</time>
      </trkpt>
      <trkpt lat="43.5446060" lon="-6.6236350">
        <ele>46.0</ele>
        <time>2021-07-22T10:21:02Z</time>
      </trkpt>
      <trkpt lat="43.5445790" lon="-6.6236710">
        <ele>45.2</ele>
        <time>2021-07-22T10:21:03Z</time>
      </trkpt>
      <trkpt lat="43.5445570" lon="-6.6237030">
        <ele>44.6</ele>
        <time>2021-07-22T10:21:04Z</time>
      </trkpt>
      <trkpt lat="43.5445360" lon="-6.6237340">
        <ele>44.0</ele>
        <time>2021-07-22T10:21:05Z</time>
      </trkpt>
      <trkpt lat="43.5445140" lon="-6.6237550">
        <ele>43.4</ele>
        <time>2021-07-22T10:21:06Z</time>
      </trkpt>
      <trkpt lat="43.5444830" lon="-6.6237830">
        <ele>42.6</ele>
        <time>2021-07-22T10:21:07Z</time>
      </trkpt>
      <trkpt lat="43.5444510" lon="-6.6238310">
        <ele>42.0</ele>
        <time>2021-07-22T10:21:08Z</time>
      </trkpt>
      <trkpt lat="43.5444270" lon="-6.6238970">
        <ele>41.4</ele>
        <time>2021-07-22T10:21:09Z</time>
      </trkpt>
      <trkpt lat="43.5444000" lon="-6.6239720">
        <ele>40.6</ele>
        <time>2021-07-22T10:21:10Z</time>
      </trkpt>
      <trkpt lat="43.5443470" lon="-6.6241360">
        <ele>40.2</ele>
        <time>2021-07-22T10:21:12Z</time>
      </trkpt>
      <trkpt lat="43.5443160" lon="-6.6242200">
        <ele>39.8</ele>
        <time>2021-07-22T10:21:13Z</time>
      </trkpt>
      <trkpt lat="43.5442830" lon="-6.6243040">
        <ele>39.4</ele>
        <time>2021-07-22T10:21:14Z</time>
      </trkpt>
      <trkpt lat="43.5442480" lon="-6.6243910">
        <ele>38.8</ele>
        <time>2021-07-22T10:21:15Z</time>
      </trkpt>
      <trkpt lat="43.5442120" lon="-6.6244810">
        <ele>38.4</ele>
        <time>2021-07-22T10:21:16Z</time>
      </trkpt>
      <trkpt lat="43.5441810" lon="-6.6245590">
        <ele>37.8</ele>
        <time>2021-07-22T10:21:17Z</time>
      </trkpt>
      <trkpt lat="43.5441560" lon="-6.6246280">
        <ele>37.2</ele>
        <time>2021-07-22T10:21:18Z</time>
      </trkpt>
      <trkpt lat="43.5441290" lon="-6.6247010">
        <ele>36.6</ele>
        <time>2021-07-22T10:21:19Z</time>
      </trkpt>
      <trkpt lat="43.5440980" lon="-6.6247740">
        <ele>36.0</ele>
        <time>2021-07-22T10:21:20Z</time>
      </trkpt>
      <trkpt lat="43.5440670" lon="-6.6248440">
        <ele>35.4</ele>
        <time>2021-07-22T10:21:21Z</time>
      </trkpt>
      <trkpt lat="43.5440380" lon="-6.6249060">
        <ele>34.8</ele>
        <time>2021-07-22T10:21:22Z</time>
      </trkpt>
      <trkpt lat="43.5440070" lon="-6.6249640">
        <ele>33.6</ele>
        <time>2021-07-22T10:21:23Z</time>
      </trkpt>
      <trkpt lat="43.5439720" lon="-6.6250160">
        <ele>32.8</ele>
        <time>2021-07-22T10:21:24Z</time>
      </trkpt>
      <trkpt lat="43.5439300" lon="-6.6250530">
        <ele>32.2</ele>
        <time>2021-07-22T10:21:25Z</time>
      </trkpt>
      <trkpt lat="43.5438900" lon="-6.6250680">
        <ele>31.6</ele>
        <time>2021-07-22T10:21:26Z</time>
      </trkpt>
      <trkpt lat="43.5438140" lon="-6.6250590">
        <ele>31.2</ele>
        <time>2021-07-22T10:21:28Z</time>
      </trkpt>
      <trkpt lat="43.5437850" lon="-6.6250470">
        <ele>30.8</ele>
        <time>2021-07-22T10:21:29Z</time>
      </trkpt>
      <trkpt lat="43.5437610" lon="-6.6250400">
        <ele>30.4</ele>
        <time>2021-07-22T10:21:30Z</time>
      </trkpt>
      <trkpt lat="43.5437360" lon="-6.6250320">
        <ele>30.0</ele>
        <time>2021-07-22T10:21:31Z</time>
      </trkpt>
      <trkpt lat="43.5437110" lon="-6.6250240">
        <ele>29.6</ele>
        <time>2021-07-22T10:21:32Z</time>
      </trkpt>
      <trkpt lat="43.5436630" lon="-6.6250100">
        <ele>29.6</ele>
        <time>2021-07-22T10:21:34Z</time>
      </trkpt>
      <trkpt lat="43.5436110" lon="-6.6250040">
        <ele>29.6</ele>
        <time>2021-07-22T10:21:36Z</time>
      </trkpt>
      <trkpt lat="43.5435670" lon="-6.6249960">
        <ele>29.6</ele>
        <time>2021-07-22T10:21:38Z</time>
      </trkpt>
      <trkpt lat="43.5435450" lon="-6.6249860">
        <ele>29.6</ele>
        <time>2021-07-22T10:21:39Z</time>
      </trkpt>
      <trkpt lat="43.5434630" lon="-6.6249540">
        <ele>29.6</ele>
        <time>2021-07-22T10:21:43Z</time>
      </trkpt>
      <trkpt lat="43.5434150" lon="-6.6249260">
        <ele>29.6</ele>
        <time>2021-07-22T10:21:46Z</time>
      </trkpt>
      <trkpt lat="43.5433640" lon="-6.6249010">
        <ele>29.6</ele>
        <time>2021-07-22T10:21:49Z</time>
      </trkpt>
      <trkpt lat="43.5433450" lon="-6.6248940">
        <ele>30.0</ele>
        <time>2021-07-22T10:21:50Z</time>
      </trkpt>
      <trkpt lat="43.5433270" lon="-6.6248880">
        <ele>30.4</ele>
        <time>2021-07-22T10:21:51Z</time>
      </trkpt>
      <trkpt lat="43.5433090" lon="-6.6248880">
        <ele>30.8</ele>
        <time>2021-07-22T10:21:52Z</time>
      </trkpt>
      <trkpt lat="43.5432900" lon="-6.6248880">
        <ele>31.2</ele>
        <time>2021-07-22T10:21:53Z</time>
      </trkpt>
      <trkpt lat="43.5432770" lon="-6.6248920">
        <ele>31.6</ele>
        <time>2021-07-22T10:21:54Z</time>
      </trkpt>
      <trkpt lat="43.5432330" lon="-6.6249410">
        <ele>31.6</ele>
        <time>2021-07-22T10:21:58Z</time>
      </trkpt>
      <trkpt lat="43.5431330" lon="-6.6250810">
        <ele>31.6</ele>
        <time>2021-07-22T10:22:04Z</time>
      </trkpt>
      <trkpt lat="43.5429700" lon="-6.6251880">
        <ele>31.6</ele>
        <time>2021-07-22T10:22:10Z</time>
      </trkpt>
      <trkpt lat="43.5429210" lon="-6.6252230">
        <ele>31.2</ele>
        <time>2021-07-22T10:22:12Z</time>
      </trkpt>
      <trkpt lat="43.5428930" lon="-6.6252430">
        <ele>30.4</ele>
        <time>2021-07-22T10:22:13Z</time>
      </trkpt>
      <trkpt lat="43.5428600" lon="-6.6252690">
        <ele>30.0</ele>
        <time>2021-07-22T10:22:14Z</time>
      </trkpt>
      <trkpt lat="43.5428300" lon="-6.6252970">
        <ele>29.6</ele>
        <time>2021-07-22T10:22:15Z</time>
      </trkpt>
      <trkpt lat="43.5427820" lon="-6.6253560">
        <ele>29.6</ele>
        <time>2021-07-22T10:22:17Z</time>
      </trkpt>
      <trkpt lat="43.5427730" lon="-6.6253890">
        <ele>29.6</ele>
        <time>2021-07-22T10:22:18Z</time>
      </trkpt>
      <trkpt lat="43.5427730" lon="-6.6254210">
        <ele>29.6</ele>
        <time>2021-07-22T10:22:19Z</time>
      </trkpt>
      <trkpt lat="43.5427980" lon="-6.6254650">
        <ele>29.6</ele>
        <time>2021-07-22T10:22:21Z</time>
      </trkpt>
      <trkpt lat="43.5428170" lon="-6.6254860">
        <ele>29.6</ele>
        <time>2021-07-22T10:22:22Z</time>
      </trkpt>
      <trkpt lat="43.5428410" lon="-6.6255120">
        <ele>29.6</ele>
        <time>2021-07-22T10:22:23Z</time>
      </trkpt>
      <trkpt lat="43.5428920" lon="-6.6255610">
        <ele>29.2</ele>
        <time>2021-07-22T10:22:25Z</time>
      </trkpt>
      <trkpt lat="43.5429140" lon="-6.6255790">
        <ele>28.8</ele>
        <time>2021-07-22T10:22:26Z</time>
      </trkpt>
      <trkpt lat="43.5429330" lon="-6.6255960">
        <ele>28.2</ele>
        <time>2021-07-22T10:22:27Z</time>
      </trkpt>
      <trkpt lat="43.5429520" lon="-6.6256090">
        <ele>27.8</ele>
        <time>2021-07-22T10:22:28Z</time>
      </trkpt>
      <trkpt lat="43.5429720" lon="-6.6256250">
        <ele>27.4</ele>
        <time>2021-07-22T10:22:29Z</time>
      </trkpt>
      <trkpt lat="43.5429960" lon="-6.6256430">
        <ele>27.4</ele>
        <time>2021-07-22T10:22:30Z</time>
      </trkpt>
      <trkpt lat="43.5430200" lon="-6.6256620">
        <ele>27.0</ele>
        <time>2021-07-22T10:22:31Z</time>
      </trkpt>
      <trkpt lat="43.5430430" lon="-6.6256770">
        <ele>26.6</ele>
        <time>2021-07-22T10:22:32Z</time>
      </trkpt>
      <trkpt lat="43.5430610" lon="-6.6256920">
        <ele>26.0</ele>
        <time>2021-07-22T10:22:33Z</time>
      </trkpt>
      <trkpt lat="43.5430750" lon="-6.6257020">
        <ele>25.6</ele>
        <time>2021-07-22T10:22:34Z</time>
      </trkpt>
      <trkpt lat="43.5430910" lon="-6.6257100">
        <ele>25.2</ele>
        <time>2021-07-22T10:22:35Z</time>
      </trkpt>
      <trkpt lat="43.5431030" lon="-6.6257150">
        <ele>25.2</ele>
        <time>2021-07-22T10:22:36Z</time>
      </trkpt>
      <trkpt lat="43.5431310" lon="-6.6257200">
        <ele>24.8</ele>
        <time>2021-07-22T10:22:38Z</time>
      </trkpt>
      <trkpt lat="43.5431450" lon="-6.6257120">
        <ele>24.4</ele>
        <time>2021-07-22T10:22:39Z</time>
      </trkpt>
      <trkpt lat="43.5431620" lon="-6.6257020">
        <ele>24.0</ele>
        <time>2021-07-22T10:22:40Z</time>
      </trkpt>
      <trkpt lat="43.5431820" lon="-6.6256930">
        <ele>23.6</ele>
        <time>2021-07-22T10:22:41Z</time>
      </trkpt>
      <trkpt lat="43.5431990" lon="-6.6256890">
        <ele>23.2</ele>
        <time>2021-07-22T10:22:42Z</time>
      </trkpt>
      <trkpt lat="43.5432720" lon="-6.6256820">
        <ele>23.2</ele>
        <time>2021-07-22T10:22:47Z</time>
      </trkpt>
      <trkpt lat="43.5432890" lon="-6.6256800">
        <ele>22.6</ele>
        <time>2021-07-22T10:22:48Z</time>
      </trkpt>
      <trkpt lat="43.5432990" lon="-6.6256770">
        <ele>22.2</ele>
        <time>2021-07-22T10:22:49Z</time>
      </trkpt>
      <trkpt lat="43.5433140" lon="-6.6256770">
        <ele>21.8</ele>
        <time>2021-07-22T10:22:50Z</time>
      </trkpt>
      <trkpt lat="43.5433290" lon="-6.6256740">
        <ele>21.4</ele>
        <time>2021-07-22T10:22:51Z</time>
      </trkpt>
      <trkpt lat="43.5433440" lon="-6.6256710">
        <ele>21.0</ele>
        <time>2021-07-22T10:22:52Z</time>
      </trkpt>
      <trkpt lat="43.5433610" lon="-6.6256680">
        <ele>21.0</ele>
        <time>2021-07-22T10:22:53Z</time>
      </trkpt>
      <trkpt lat="43.5434360" lon="-6.6256770">
        <ele>21.0</ele>
        <time>2021-07-22T10:22:58Z</time>
      </trkpt>
      <trkpt lat="43.5434420" lon="-6.6256810">
        <ele>20.6</ele>
        <time>2021-07-22T10:22:59Z</time>
      </trkpt>
      <trkpt lat="43.5434500" lon="-6.6256840">
        <ele>20.2</ele>
        <time>2021-07-22T10:23:00Z</time>
      </trkpt>
      <trkpt lat="43.5434560" lon="-6.6256830">
        <ele>19.6</ele>
        <time>2021-07-22T10:23:01Z</time>
      </trkpt>
      <trkpt lat="43.5435020" lon="-6.6257050">
        <ele>18.8</ele>
        <time>2021-07-22T10:23:08Z</time>
      </trkpt>
      <trkpt lat="43.5435210" lon="-6.6257210">
        <ele>18.8</ele>
        <time>2021-07-22T10:23:10Z</time>
      </trkpt>
      <trkpt lat="43.5435350" lon="-6.6257410">
        <ele>18.8</ele>
        <time>2021-07-22T10:23:13Z</time>
      </trkpt>
      <trkpt lat="43.5435690" lon="-6.6257810">
        <ele>18.4</ele>
        <time>2021-07-22T10:23:25Z</time>
      </trkpt>
      <trkpt lat="43.5435770" lon="-6.6257910">
        <ele>18.0</ele>
        <time>2021-07-22T10:23:26Z</time>
      </trkpt>
      <trkpt lat="43.5435840" lon="-6.6258050">
        <ele>17.2</ele>
        <time>2021-07-22T10:23:27Z</time>
      </trkpt>
      <trkpt lat="43.5435920" lon="-6.6258200">
        <ele>16.8</ele>
        <time>2021-07-22T10:23:28Z</time>
      </trkpt>
      <trkpt lat="43.5436240" lon="-6.6259110">
        <ele>16.4</ele>
        <time>2021-07-22T10:23:33Z</time>
      </trkpt>
      <trkpt lat="43.5436290" lon="-6.6259290">
        <ele>16.0</ele>
        <time>2021-07-22T10:23:34Z</time>
      </trkpt>
      <trkpt lat="43.5436330" lon="-6.6259390">
        <ele>15.6</ele>
        <time>2021-07-22T10:23:35Z</time>
      </trkpt>
      <trkpt lat="43.5436350" lon="-6.6259530">
        <ele>15.0</ele>
        <time>2021-07-22T10:23:36Z</time>
      </trkpt>
      <trkpt lat="43.5436350" lon="-6.6259670">
        <ele>14.6</ele>
        <time>2021-07-22T10:23:37Z</time>
      </trkpt>
      <trkpt lat="43.5436390" lon="-6.6260050">
        <ele>14.6</ele>
        <time>2021-07-22T10:23:40Z</time>
      </trkpt>
      <trkpt lat="43.5436470" lon="-6.6260430">
        <ele>14.2</ele>
        <time>2021-07-22T10:23:42Z</time>
      </trkpt>
      <trkpt lat="43.5436470" lon="-6.6260590">
        <ele>13.8</ele>
        <time>2021-07-22T10:23:43Z</time>
      </trkpt>
      <trkpt lat="43.5436500" lon="-6.6260680">
        <ele>13.4</ele>
        <time>2021-07-22T10:23:44Z</time>
      </trkpt>
      <trkpt lat="43.5436530" lon="-6.6260880">
        <ele>13.0</ele>
        <time>2021-07-22T10:23:45Z</time>
      </trkpt>
      <trkpt lat="43.5436560" lon="-6.6261050">
        <ele>12.6</ele>
        <time>2021-07-22T10:23:46Z</time>
      </trkpt>
      <trkpt lat="43.5436580" lon="-6.6261210">
        <ele>12.6</ele>
        <time>2021-07-22T10:23:47Z</time>
      </trkpt>
      <trkpt lat="43.5436730" lon="-6.6261730">
        <ele>11.6</ele>
        <time>2021-07-22T10:23:51Z</time>
      </trkpt>
      <trkpt lat="43.5436770" lon="-6.6261820">
        <ele>11.2</ele>
        <time>2021-07-22T10:23:52Z</time>
      </trkpt>
      <trkpt lat="43.5436790" lon="-6.6261900">
        <ele>10.8</ele>
        <time>2021-07-22T10:23:53Z</time>
      </trkpt>
      <trkpt lat="43.5436840" lon="-6.6262090">
        <ele>10.2</ele>
        <time>2021-07-22T10:23:54Z</time>
      </trkpt>
      <trkpt lat="43.5436970" lon="-6.6262780">
        <ele>10.2</ele>
        <time>2021-07-22T10:24:00Z</time>
      </trkpt>
      <trkpt lat="43.5437990" lon="-6.6266270">
        <ele>2.0</ele>
        <time>2021-07-22T10:26:44Z</time>
      </trkpt>
      <trkpt lat="43.5437830" lon="-6.6266840">
        <ele>2.0</ele>
        <time>2021-07-22T10:26:46Z</time>
      </trkpt>
      <trkpt lat="43.5437160" lon="-6.6267660">
        <ele>2.0</ele>
        <time>2021-07-22T10:26:49Z</time>
      </trkpt>
      <trkpt lat="43.5436850" lon="-6.6267980">
        <ele>2.0</ele>
        <time>2021-07-22T10:26:50Z</time>
      </trkpt>
      <trkpt lat="43.5436200" lon="-6.6268720">
        <ele>2.0</ele>
        <time>2021-07-22T10:26:52Z</time>
      </trkpt>
      <trkpt lat="43.5434760" lon="-6.6269980">
        <ele>2.0</ele>
        <time>2021-07-22T10:26:56Z</time>
      </trkpt>
      <trkpt lat="43.5431620" lon="-6.6271810">
        <ele>2.0</ele>
        <time>2021-07-22T10:27:04Z</time>
      </trkpt>
      <trkpt lat="43.5429490" lon="-6.6272860">
        <ele>1.6</ele>
        <time>2021-07-22T10:27:08Z</time>
      </trkpt>
      <trkpt lat="43.5428930" lon="-6.6273170">
        <ele>1.2</ele>
        <time>2021-07-22T10:27:09Z</time>
      </trkpt>
      <trkpt lat="43.5428370" lon="-6.6273510">
        <ele>0.8</ele>
        <time>2021-07-22T10:27:10Z</time>
      </trkpt>
      <trkpt lat="43.5427790" lon="-6.6273840">
        <ele>-0.2</ele>
        <time>2021-07-22T10:27:11Z</time>
      </trkpt>
      <trkpt lat="43.5426620" lon="-6.6274740">
        <ele>-0.2</ele>
        <time>2021-07-22T10:27:13Z</time>
      </trkpt>
      <trkpt lat="43.5425510" lon="-6.6275900">
        <ele>-0.2</ele>
        <time>2021-07-22T10:27:15Z</time>
      </trkpt>
      <trkpt lat="43.5425040" lon="-6.6276570">
        <ele>-0.2</ele>
        <time>2021-07-22T10:27:16Z</time>
      </trkpt>
      <trkpt lat="43.5423780" lon="-6.6278960">
        <ele>-0.2</ele>
        <time>2021-07-22T10:27:19Z</time>
      </trkpt>
      <trkpt lat="43.5423430" lon="-6.6279760">
        <ele>-0.6</ele>
        <time>2021-07-22T10:27:20Z</time>
      </trkpt>
      <trkpt lat="43.5423060" lon="-6.6280580">
        <ele>-1.0</ele>
        <time>2021-07-22T10:27:21Z</time>
      </trkpt>
      <trkpt lat="43.5422710" lon="-6.6281360">
        <ele>-1.4</ele>
        <time>2021-07-22T10:27:22Z</time>
      </trkpt>
      <trkpt lat="43.5422330" lon="-6.6282230">
        <ele>-1.8</ele>
        <time>2021-07-22T10:27:23Z</time>
      </trkpt>
      <trkpt lat="43.5421960" lon="-6.6283020">
        <ele>-2.2</ele>
        <time>2021-07-22T10:27:24Z</time>
      </trkpt>
      <trkpt lat="43.5421590" lon="-6.6283880">
        <ele>-2.2</ele>
        <time>2021-07-22T10:27:25Z</time>
      </trkpt>
      <trkpt lat="43.5420190" lon="-6.6286250">
        <ele>-2.2</ele>
        <time>2021-07-22T10:27:28Z</time>
      </trkpt>
      <trkpt lat="43.5418990" lon="-6.6287630">
        <ele>-2.6</ele>
        <time>2021-07-22T10:27:30Z</time>
      </trkpt>
      <trkpt lat="43.5418380" lon="-6.6288250">
        <ele>-3.0</ele>
        <time>2021-07-22T10:27:31Z</time>
      </trkpt>
      <trkpt lat="43.5417700" lon="-6.6288800">
        <ele>-3.6</ele>
        <time>2021-07-22T10:27:32Z</time>
      </trkpt>
      <trkpt lat="43.5417000" lon="-6.6289300">
        <ele>-4.0</ele>
        <time>2021-07-22T10:27:33Z</time>
      </trkpt>
      <trkpt lat="43.5416300" lon="-6.6289720">
        <ele>-4.4</ele>
        <time>2021-07-22T10:27:34Z</time>
      </trkpt>
      <trkpt lat="43.5415600" lon="-6.6290130">
        <ele>-4.4</ele>
        <time>2021-07-22T10:27:35Z</time>
      </trkpt>
      <trkpt lat="43.5414220" lon="-6.6290880">
        <ele>-4.8</ele>
        <time>2021-07-22T10:27:37Z</time>
      </trkpt>
      <trkpt lat="43.5413550" lon="-6.6291270">
        <ele>-5.2</ele>
        <time>2021-07-22T10:27:38Z</time>
      </trkpt>
      <trkpt lat="43.5412950" lon="-6.6291660">
        <ele>-5.8</ele>
        <time>2021-07-22T10:27:39Z</time>
      </trkpt>
      <trkpt lat="43.5412340" lon="-6.6292020">
        <ele>-6.2</ele>
        <time>2021-07-22T10:27:40Z</time>
      </trkpt>
      <trkpt lat="43.5411760" lon="-6.6292410">
        <ele>-6.8</ele>
        <time>2021-07-22T10:27:41Z</time>
      </trkpt>
      <trkpt lat="43.5411210" lon="-6.6292850">
        <ele>-7.2</ele>
        <time>2021-07-22T10:27:42Z</time>
      </trkpt>
      <trkpt lat="43.5410720" lon="-6.6293330">
        <ele>-7.6</ele>
        <time>2021-07-22T10:27:43Z</time>
      </trkpt>
      <trkpt lat="43.5410280" lon="-6.6293850">
        <ele>-8.0</ele>
        <time>2021-07-22T10:27:44Z</time>
      </trkpt>
      <trkpt lat="43.5409880" lon="-6.6294410">
        <ele>-8.4</ele>
        <time>2021-07-22T10:27:45Z</time>
      </trkpt>
      <trkpt lat="43.5409560" lon="-6.6294970">
        <ele>-8.8</ele>
        <time>2021-07-22T10:27:46Z</time>
      </trkpt>
      <trkpt lat="43.5408760" lon="-6.6296960">
        <ele>-9.2</ele>
        <time>2021-07-22T10:27:49Z</time>
      </trkpt>
      <trkpt lat="43.5408540" lon="-6.6297730">
        <ele>-9.6</ele>
        <time>2021-07-22T10:27:50Z</time>
      </trkpt>
      <trkpt lat="43.5408370" lon="-6.6298520">
        <ele>-10.0</ele>
        <time>2021-07-22T10:27:51Z</time>
      </trkpt>
      <trkpt lat="43.5408230" lon="-6.6299350">
        <ele>-10.6</ele>
        <time>2021-07-22T10:27:52Z</time>
      </trkpt>
      <trkpt lat="43.5408110" lon="-6.6300210">
        <ele>-11.0</ele>
        <time>2021-07-22T10:27:53Z</time>
      </trkpt>
      <trkpt lat="43.5408050" lon="-6.6301820">
        <ele>-11.0</ele>
        <time>2021-07-22T10:27:55Z</time>
      </trkpt>
      <trkpt lat="43.5408060" lon="-6.6302540">
        <ele>-11.0</ele>
        <time>2021-07-22T10:27:56Z</time>
      </trkpt>
      <trkpt lat="43.5408360" lon="-6.6304670">
        <ele>-11.0</ele>
        <time>2021-07-22T10:28:00Z</time>
      </trkpt>
      <trkpt lat="43.5408500" lon="-6.6304890">
        <ele>-11.0</ele>
        <time>2021-07-22T10:28:01Z</time>
      </trkpt>
      <trkpt lat="43.5408520" lon="-6.6304990">
        <ele>-11.0</ele>
        <time>2021-07-22T10:28:03Z</time>
      </trkpt>
      <trkpt lat="43.5408570" lon="-6.6305640">
        <ele>-11.0</ele>
        <time>2021-07-22T10:28:14Z</time>
      </trkpt>
      <trkpt lat="43.5408600" lon="-6.6305920">
        <ele>-11.0</ele>
        <time>2021-07-22T10:28:15Z</time>
      </trkpt>
      <trkpt lat="43.5408760" lon="-6.6306650">
        <ele>-11.0</ele>
        <time>2021-07-22T10:28:17Z</time>
      </trkpt>
      <trkpt lat="43.5408870" lon="-6.6307040">
        <ele>-11.0</ele>
        <time>2021-07-22T10:28:18Z</time>
      </trkpt>
      <trkpt lat="43.5408970" lon="-6.6307480">
        <ele>-11.0</ele>
        <time>2021-07-22T10:28:19Z</time>
      </trkpt>
      <trkpt lat="43.5409230" lon="-6.6308360">
        <ele>-11.0</ele>
        <time>2021-07-22T10:28:21Z</time>
      </trkpt>
      <trkpt lat="43.5409530" lon="-6.6309220">
        <ele>-11.0</ele>
        <time>2021-07-22T10:28:23Z</time>
      </trkpt>
      <trkpt lat="43.5409860" lon="-6.6309990">
        <ele>-11.0</ele>
        <time>2021-07-22T10:28:25Z</time>
      </trkpt>
      <trkpt lat="43.5410230" lon="-6.6310690">
        <ele>-11.0</ele>
        <time>2021-07-22T10:28:27Z</time>
      </trkpt>
      <trkpt lat="43.5410810" lon="-6.6311720">
        <ele>-11.0</ele>
        <time>2021-07-22T10:28:30Z</time>
      </trkpt>
      <trkpt lat="43.5411230" lon="-6.6312390">
        <ele>-10.6</ele>
        <time>2021-07-22T10:28:32Z</time>
      </trkpt>
      <trkpt lat="43.5411460" lon="-6.6312700">
        <ele>-10.0</ele>
        <time>2021-07-22T10:28:33Z</time>
      </trkpt>
      <trkpt lat="43.5411710" lon="-6.6312970">
        <ele>-9.6</ele>
        <time>2021-07-22T10:28:34Z</time>
      </trkpt>
      <trkpt lat="43.5411970" lon="-6.6313210">
        <ele>-9.2</ele>
        <time>2021-07-22T10:28:35Z</time>
      </trkpt>
      <trkpt lat="43.5412220" lon="-6.6313380">
        <ele>-8.8</ele>
        <time>2021-07-22T10:28:36Z</time>
      </trkpt>
      <trkpt lat="43.5412970" lon="-6.6313920">
        <ele>-8.8</ele>
        <time>2021-07-22T10:28:39Z</time>
      </trkpt>
      <trkpt lat="43.5413480" lon="-6.6314310">
        <ele>-8.8</ele>
        <time>2021-07-22T10:28:41Z</time>
      </trkpt>
      <trkpt lat="43.5414280" lon="-6.6314680">
        <ele>-8.8</ele>
        <time>2021-07-22T10:28:44Z</time>
      </trkpt>
      <trkpt lat="43.5415080" lon="-6.6314930">
        <ele>-8.4</ele>
        <time>2021-07-22T10:28:47Z</time>
      </trkpt>
      <trkpt lat="43.5415320" lon="-6.6314990">
        <ele>-8.0</ele>
        <time>2021-07-22T10:28:48Z</time>
      </trkpt>
      <trkpt lat="43.5415560" lon="-6.6315080">
        <ele>-7.6</ele>
        <time>2021-07-22T10:28:49Z</time>
      </trkpt>
      <trkpt lat="43.5415840" lon="-6.6315130">
        <ele>-6.8</ele>
        <time>2021-07-22T10:28:50Z</time>
      </trkpt>
      <trkpt lat="43.5417000" lon="-6.6315080">
        <ele>-6.8</ele>
        <time>2021-07-22T10:28:54Z</time>
      </trkpt>
      <trkpt lat="43.5418990" lon="-6.6314610">
        <ele>-6.8</ele>
        <time>2021-07-22T10:29:01Z</time>
      </trkpt>
      <trkpt lat="43.5420250" lon="-6.6314210">
        <ele>-6.4</ele>
        <time>2021-07-22T10:29:06Z</time>
      </trkpt>
      <trkpt lat="43.5420530" lon="-6.6314100">
        <ele>-6.0</ele>
        <time>2021-07-22T10:29:07Z</time>
      </trkpt>
      <trkpt lat="43.5420780" lon="-6.6313950">
        <ele>-5.6</ele>
        <time>2021-07-22T10:29:08Z</time>
      </trkpt>
      <trkpt lat="43.5421020" lon="-6.6313820">
        <ele>-5.0</ele>
        <time>2021-07-22T10:29:09Z</time>
      </trkpt>
      <trkpt lat="43.5421250" lon="-6.6313640">
        <ele>-4.6</ele>
        <time>2021-07-22T10:29:10Z</time>
      </trkpt>
      <trkpt lat="43.5422250" lon="-6.6312620">
        <ele>-4.6</ele>
        <time>2021-07-22T10:29:15Z</time>
      </trkpt>
      <trkpt lat="43.5422970" lon="-6.6311810">
        <ele>-4.2</ele>
        <time>2021-07-22T10:29:20Z</time>
      </trkpt>
      <trkpt lat="43.5422840" lon="-6.6312120">
        <ele>-2.6</ele>
        <time>2021-07-22T10:29:46Z</time>
      </trkpt>
      <trkpt lat="43.5422500" lon="-6.6312530">
        <ele>-2.6</ele>
        <time>2021-07-22T10:29:48Z</time>
      </trkpt>
      <trkpt lat="43.5422020" lon="-6.6313070">
        <ele>-2.6</ele>
        <time>2021-07-22T10:29:50Z</time>
      </trkpt>
      <trkpt lat="43.5421060" lon="-6.6313990">
        <ele>-2.6</ele>
        <time>2021-07-22T10:29:53Z</time>
      </trkpt>
      <trkpt lat="43.5419710" lon="-6.6315630">
        <ele>-2.6</ele>
        <time>2021-07-22T10:29:58Z</time>
      </trkpt>
      <trkpt lat="43.5418180" lon="-6.6316550">
        <ele>-2.6</ele>
        <time>2021-07-22T10:30:04Z</time>
      </trkpt>
      <trkpt lat="43.5416860" lon="-6.6316750">
        <ele>-2.6</ele>
        <time>2021-07-22T10:30:09Z</time>
      </trkpt>
      <trkpt lat="43.5416320" lon="-6.6316760">
        <ele>-2.6</ele>
        <time>2021-07-22T10:30:11Z</time>
      </trkpt>
      <trkpt lat="43.5415850" lon="-6.6316840">
        <ele>-2.2</ele>
        <time>2021-07-22T10:30:13Z</time>
      </trkpt>
      <trkpt lat="43.5415610" lon="-6.6316900">
        <ele>-1.8</ele>
        <time>2021-07-22T10:30:14Z</time>
      </trkpt>
      <trkpt lat="43.5415410" lon="-6.6316970">
        <ele>-1.4</ele>
        <time>2021-07-22T10:30:15Z</time>
      </trkpt>
      <trkpt lat="43.5415190" lon="-6.6317000">
        <ele>-1.0</ele>
        <time>2021-07-22T10:30:16Z</time>
      </trkpt>
      <trkpt lat="43.5414970" lon="-6.6317060">
        <ele>-0.6</ele>
        <time>2021-07-22T10:30:17Z</time>
      </trkpt>
      <trkpt lat="43.5413930" lon="-6.6317160">
        <ele>-0.2</ele>
        <time>2021-07-22T10:30:23Z</time>
      </trkpt>
      <trkpt lat="43.5413780" lon="-6.6317220">
        <ele>0.2</ele>
        <time>2021-07-22T10:30:24Z</time>
      </trkpt>
      <trkpt lat="43.5413600" lon="-6.6317230">
        <ele>0.6</ele>
        <time>2021-07-22T10:30:25Z</time>
      </trkpt>
      <trkpt lat="43.5413440" lon="-6.6317290">
        <ele>1.0</ele>
        <time>2021-07-22T10:30:26Z</time>
      </trkpt>
      <trkpt lat="43.5413280" lon="-6.6317370">
        <ele>1.4</ele>
        <time>2021-07-22T10:30:27Z</time>
      </trkpt>
      <trkpt lat="43.5412430" lon="-6.6317540">
        <ele>1.4</ele>
        <time>2021-07-22T10:30:32Z</time>
      </trkpt>
      <trkpt lat="43.5411860" lon="-6.6317760">
        <ele>1.8</ele>
        <time>2021-07-22T10:30:36Z</time>
      </trkpt>
      <trkpt lat="43.5411710" lon="-6.6317790">
        <ele>2.4</ele>
        <time>2021-07-22T10:30:37Z</time>
      </trkpt>
      <trkpt lat="43.5411560" lon="-6.6317800">
        <ele>2.8</ele>
        <time>2021-07-22T10:30:38Z</time>
      </trkpt>
      <trkpt lat="43.5411430" lon="-6.6317850">
        <ele>3.2</ele>
        <time>2021-07-22T10:30:39Z</time>
      </trkpt>
      <trkpt lat="43.5411300" lon="-6.6317950">
        <ele>3.6</ele>
        <time>2021-07-22T10:30:40Z</time>
      </trkpt>
      <trkpt lat="43.5410560" lon="-6.6318080">
        <ele>3.6</ele>
        <time>2021-07-22T10:30:45Z</time>
      </trkpt>
      <trkpt lat="43.5410260" lon="-6.6318190">
        <ele>4.0</ele>
        <time>2021-07-22T10:30:47Z</time>
      </trkpt>
      <trkpt lat="43.5410110" lon="-6.6318250">
        <ele>4.4</ele>
        <time>2021-07-22T10:30:48Z</time>
      </trkpt>
      <trkpt lat="43.5409940" lon="-6.6318300">
        <ele>4.8</ele>
        <time>2021-07-22T10:30:49Z</time>
      </trkpt>
      <trkpt lat="43.5409780" lon="-6.6318310">
        <ele>5.2</ele>
        <time>2021-07-22T10:30:50Z</time>
      </trkpt>
      <trkpt lat="43.5409620" lon="-6.6318310">
        <ele>5.6</ele>
        <time>2021-07-22T10:30:51Z</time>
      </trkpt>
      <trkpt lat="43.5409450" lon="-6.6318330">
        <ele>5.6</ele>
        <time>2021-07-22T10:30:52Z</time>
      </trkpt>
      <trkpt lat="43.5407840" lon="-6.6318530">
        <ele>5.6</ele>
        <time>2021-07-22T10:31:00Z</time>
      </trkpt>
      <trkpt lat="43.5406720" lon="-6.6317980">
        <ele>5.6</ele>
        <time>2021-07-22T10:31:05Z</time>
      </trkpt>
      <trkpt lat="43.5406370" lon="-6.6317760">
        <ele>6.0</ele>
        <time>2021-07-22T10:31:07Z</time>
      </trkpt>
      <trkpt lat="43.5406230" lon="-6.6317650">
        <ele>6.4</ele>
        <time>2021-07-22T10:31:08Z</time>
      </trkpt>
      <trkpt lat="43.5406070" lon="-6.6317550">
        <ele>6.8</ele>
        <time>2021-07-22T10:31:09Z</time>
      </trkpt>
      <trkpt lat="43.5405870" lon="-6.6317430">
        <ele>7.2</ele>
        <time>2021-07-22T10:31:10Z</time>
      </trkpt>
      <trkpt lat="43.5405670" lon="-6.6317280">
        <ele>7.6</ele>
        <time>2021-07-22T10:31:11Z</time>
      </trkpt>
      <trkpt lat="43.5405430" lon="-6.6317250">
        <ele>7.6</ele>
        <time>2021-07-22T10:31:12Z</time>
      </trkpt>
      <trkpt lat="43.5405250" lon="-6.6317330">
        <ele>7.6</ele>
        <time>2021-07-22T10:31:13Z</time>
      </trkpt>
      <trkpt lat="43.5405050" lon="-6.6317930">
        <ele>7.6</ele>
        <time>2021-07-22T10:31:16Z</time>
      </trkpt>
      <trkpt lat="43.5405610" lon="-6.6318720">
        <ele>7.6</ele>
        <time>2021-07-22T10:31:21Z</time>
      </trkpt>
      <trkpt lat="43.5405730" lon="-6.6318840">
        <ele>8.0</ele>
        <time>2021-07-22T10:31:22Z</time>
      </trkpt>
      <trkpt lat="43.5405820" lon="-6.6318960">
        <ele>8.4</ele>
        <time>2021-07-22T10:31:23Z</time>
      </trkpt>
      <trkpt lat="43.5405940" lon="-6.6319070">
        <ele>9.0</ele>
        <time>2021-07-22T10:31:24Z</time>
      </trkpt>
      <trkpt lat="43.5406030" lon="-6.6319200">
        <ele>9.4</ele>
        <time>2021-07-22T10:31:25Z</time>
      </trkpt>
      <trkpt lat="43.5406130" lon="-6.6319340">
        <ele>9.8</ele>
        <time>2021-07-22T10:31:26Z</time>
      </trkpt>
      <trkpt lat="43.5406370" lon="-6.6319710">
        <ele>9.8</ele>
        <time>2021-07-22T10:31:28Z</time>
      </trkpt>
      <trkpt lat="43.5407050" lon="-6.6320090">
        <ele>10.2</ele>
        <time>2021-07-22T10:31:33Z</time>
      </trkpt>
      <trkpt lat="43.5407180" lon="-6.6320130">
        <ele>10.6</ele>
        <time>2021-07-22T10:31:34Z</time>
      </trkpt>
      <trkpt lat="43.5407300" lon="-6.6320150">
        <ele>11.0</ele>
        <time>2021-07-22T10:31:35Z</time>
      </trkpt>
      <trkpt lat="43.5407400" lon="-6.6320140">
        <ele>11.4</ele>
        <time>2021-07-22T10:31:36Z</time>
      </trkpt>
      <trkpt lat="43.5407410" lon="-6.6320140">
        <ele>12.0</ele>
        <time>2021-07-22T10:31:37Z</time>
      </trkpt>
      <trkpt lat="43.5408940" lon="-6.6320980">
        <ele>14.0</ele>
        <time>2021-07-22T10:32:43Z</time>
      </trkpt>
      <trkpt lat="43.5409060" lon="-6.6321010">
        <ele>14.0</ele>
        <time>2021-07-22T10:32:44Z</time>
      </trkpt>
      <trkpt lat="43.5409440" lon="-6.6321110">
        <ele>14.0</ele>
        <time>2021-07-22T10:32:47Z</time>
      </trkpt>
      <trkpt lat="43.5409740" lon="-6.6321220">
        <ele>14.4</ele>
        <time>2021-07-22T10:32:49Z</time>
      </trkpt>
      <trkpt lat="43.5409880" lon="-6.6321230">
        <ele>14.8</ele>
        <time>2021-07-22T10:32:50Z</time>
      </trkpt>
      <trkpt lat="43.5409990" lon="-6.6321280">
        <ele>15.2</ele>
        <time>2021-07-22T10:32:51Z</time>
      </trkpt>
      <trkpt lat="43.5410110" lon="-6.6321320">
        <ele>15.6</ele>
        <time>2021-07-22T10:32:52Z</time>
      </trkpt>
      <trkpt lat="43.5410220" lon="-6.6321370">
        <ele>16.0</ele>
        <time>2021-07-22T10:32:53Z</time>
      </trkpt>
      <trkpt lat="43.5411280" lon="-6.6321590">
        <ele>16.0</ele>
        <time>2021-07-22T10:33:01Z</time>
      </trkpt>
      <trkpt lat="43.5411400" lon="-6.6321600">
        <ele>16.4</ele>
        <time>2021-07-22T10:33:02Z</time>
      </trkpt>
      <trkpt lat="43.5411530" lon="-6.6321620">
        <ele>16.8</ele>
        <time>2021-07-22T10:33:03Z</time>
      </trkpt>
      <trkpt lat="43.5411660" lon="-6.6321670">
        <ele>17.2</ele>
        <time>2021-07-22T10:33:04Z</time>
      </trkpt>
      <trkpt lat="43.5411810" lon="-6.6321730">
        <ele>17.8</ele>
        <time>2021-07-22T10:33:05Z</time>
      </trkpt>
      <trkpt lat="43.5411940" lon="-6.6321760">
        <ele>18.2</ele>
        <time>2021-07-22T10:33:06Z</time>
      </trkpt>
      <trkpt lat="43.5412230" lon="-6.6321790">
        <ele>18.2</ele>
        <time>2021-07-22T10:33:08Z</time>
      </trkpt>
      <trkpt lat="43.5413280" lon="-6.6322020">
        <ele>18.2</ele>
        <time>2021-07-22T10:33:16Z</time>
      </trkpt>
      <trkpt lat="43.5413740" lon="-6.6322410">
        <ele>18.6</ele>
        <time>2021-07-22T10:33:20Z</time>
      </trkpt>
      <trkpt lat="43.5413870" lon="-6.6322490">
        <ele>19.0</ele>
        <time>2021-07-22T10:33:21Z</time>
      </trkpt>
      <trkpt lat="43.5413990" lon="-6.6322550">
        <ele>19.4</ele>
        <time>2021-07-22T10:33:22Z</time>
      </trkpt>
      <trkpt lat="43.5414110" lon="-6.6322670">
        <ele>20.2</ele>
        <time>2021-07-22T10:33:23Z</time>
      </trkpt>
      <trkpt lat="43.5414540" lon="-6.6323400">
        <ele>20.2</ele>
        <time>2021-07-22T10:33:29Z</time>
      </trkpt>
      <trkpt lat="43.5414760" lon="-6.6323640">
        <ele>20.2</ele>
        <time>2021-07-22T10:33:34Z</time>
      </trkpt>
      <trkpt lat="43.5414900" lon="-6.6323750">
        <ele>20.2</ele>
        <time>2021-07-22T10:33:37Z</time>
      </trkpt>
      <trkpt lat="43.5415090" lon="-6.6323970">
        <ele>20.2</ele>
        <time>2021-07-22T10:33:42Z</time>
      </trkpt>
      <trkpt lat="43.5415310" lon="-6.6324340">
        <ele>20.2</ele>
        <time>2021-07-22T10:33:44Z</time>
      </trkpt>
      <trkpt lat="43.5416410" lon="-6.6325600">
        <ele>20.6</ele>
        <time>2021-07-22T10:33:50Z</time>
      </trkpt>
      <trkpt lat="43.5416660" lon="-6.6325820">
        <ele>21.0</ele>
        <time>2021-07-22T10:33:51Z</time>
      </trkpt>
      <trkpt lat="43.5416910" lon="-6.6326100">
        <ele>21.4</ele>
        <time>2021-07-22T10:33:52Z</time>
      </trkpt>
      <trkpt lat="43.5417190" lon="-6.6326380">
        <ele>21.8</ele>
        <time>2021-07-22T10:33:53Z</time>
      </trkpt>
      <trkpt lat="43.5417430" lon="-6.6326640">
        <ele>22.2</ele>
        <time>2021-07-22T10:33:54Z</time>
      </trkpt>
      <trkpt lat="43.5418780" lon="-6.6328050">
        <ele>22.2</ele>
        <time>2021-07-22T10:33:59Z</time>
      </trkpt>
      <trkpt lat="43.5420240" lon="-6.6329750">
        <ele>22.2</ele>
        <time>2021-07-22T10:34:05Z</time>
      </trkpt>
      <trkpt lat="43.5422180" lon="-6.6331910">
        <ele>22.2</ele>
        <time>2021-07-22T10:34:13Z</time>
      </trkpt>
      <trkpt lat="43.5423800" lon="-6.6333890">
        <ele>22.2</ele>
        <time>2021-07-22T10:34:19Z</time>
      </trkpt>
      <trkpt lat="43.5425010" lon="-6.6335530">
        <ele>22.2</ele>
        <time>2021-07-22T10:34:23Z</time>
      </trkpt>
      <trkpt lat="43.5425620" lon="-6.6336400">
        <ele>22.2</ele>
        <time>2021-07-22T10:34:25Z</time>
      </trkpt>
      <trkpt lat="43.5426560" lon="-6.6337810">
        <ele>22.2</ele>
        <time>2021-07-22T10:34:28Z</time>
      </trkpt>
      <trkpt lat="43.5427720" lon="-6.6339730">
        <ele>22.2</ele>
        <time>2021-07-22T10:34:32Z</time>
      </trkpt>
      <trkpt lat="43.5428570" lon="-6.6341160">
        <ele>22.2</ele>
        <time>2021-07-22T10:34:35Z</time>
      </trkpt>
      <trkpt lat="43.5429820" lon="-6.6343760">
        <ele>22.2</ele>
        <time>2021-07-22T10:34:40Z</time>
      </trkpt>
      <trkpt lat="43.5430080" lon="-6.6344990">
        <ele>22.2</ele>
        <time>2021-07-22T10:34:42Z</time>
      </trkpt>
      <trkpt lat="43.5430150" lon="-6.6345610">
        <ele>22.2</ele>
        <time>2021-07-22T10:34:43Z</time>
      </trkpt>
      <trkpt lat="43.5430230" lon="-6.6346290">
        <ele>21.8</ele>
        <time>2021-07-22T10:34:44Z</time>
      </trkpt>
      <trkpt lat="43.5430310" lon="-6.6346910">
        <ele>21.4</ele>
        <time>2021-07-22T10:34:45Z</time>
      </trkpt>
      <trkpt lat="43.5430400" lon="-6.6347500">
        <ele>21.0</ele>
        <time>2021-07-22T10:34:46Z</time>
      </trkpt>
      <trkpt lat="43.5430510" lon="-6.6348070">
        <ele>20.6</ele>
        <time>2021-07-22T10:34:47Z</time>
      </trkpt>
      <trkpt lat="43.5430630" lon="-6.6348640">
        <ele>20.2</ele>
        <time>2021-07-22T10:34:48Z</time>
      </trkpt>
      <trkpt lat="43.5430750" lon="-6.6349180">
        <ele>20.2</ele>
        <time>2021-07-22T10:34:49Z</time>
      </trkpt>
      <trkpt lat="43.5431820" lon="-6.6352330">
        <ele>20.2</ele>
        <time>2021-07-22T10:34:55Z</time>
      </trkpt>
      <trkpt lat="43.5432090" lon="-6.6352840">
        <ele>20.2</ele>
        <time>2021-07-22T10:34:56Z</time>
      </trkpt>
      <trkpt lat="43.5432580" lon="-6.6353840">
        <ele>20.2</ele>
        <time>2021-07-22T10:34:58Z</time>
      </trkpt>
      <trkpt lat="43.5432980" lon="-6.6354850">
        <ele>20.2</ele>
        <time>2021-07-22T10:35:00Z</time>
      </trkpt>
      <trkpt lat="43.5434420" lon="-6.6358360">
        <ele>20.2</ele>
        <time>2021-07-22T10:35:07Z</time>
      </trkpt>
      <trkpt lat="43.5434870" lon="-6.6359850">
        <ele>20.2</ele>
        <time>2021-07-22T10:35:10Z</time>
      </trkpt>
      <trkpt lat="43.5435160" lon="-6.6360840">
        <ele>19.8</ele>
        <time>2021-07-22T10:35:12Z</time>
      </trkpt>
      <trkpt lat="43.5435280" lon="-6.6361270">
        <ele>19.2</ele>
        <time>2021-07-22T10:35:13Z</time>
      </trkpt>
      <trkpt lat="43.5435390" lon="-6.6361650">
        <ele>18.8</ele>
        <time>2021-07-22T10:35:14Z</time>
      </trkpt>
      <trkpt lat="43.5435510" lon="-6.6362040">
        <ele>18.4</ele>
        <time>2021-07-22T10:35:15Z</time>
      </trkpt>
      <trkpt lat="43.5435640" lon="-6.6362490">
        <ele>17.8</ele>
        <time>2021-07-22T10:35:16Z</time>
      </trkpt>
      <trkpt lat="43.5435760" lon="-6.6362870">
        <ele>17.4</ele>
        <time>2021-07-22T10:35:17Z</time>
      </trkpt>
      <trkpt lat="43.5435840" lon="-6.6363120">
        <ele>17.0</ele>
        <time>2021-07-22T10:35:18Z</time>
      </trkpt>
      <trkpt lat="43.5435890" lon="-6.6363290">
        <ele>16.4</ele>
        <time>2021-07-22T10:35:19Z</time>
      </trkpt>
      <trkpt lat="43.5435930" lon="-6.6363470">
        <ele>16.0</ele>
        <time>2021-07-22T10:35:20Z</time>
      </trkpt>
      <trkpt lat="43.5436000" lon="-6.6363650">
        <ele>15.6</ele>
        <time>2021-07-22T10:35:21Z</time>
      </trkpt>
      <trkpt lat="43.5436100" lon="-6.6363940">
        <ele>15.2</ele>
        <time>2021-07-22T10:35:22Z</time>
      </trkpt>
      <trkpt lat="43.5436220" lon="-6.6364320">
        <ele>14.8</ele>
        <time>2021-07-22T10:35:23Z</time>
      </trkpt>
      <trkpt lat="43.5436370" lon="-6.6364870">
        <ele>14.4</ele>
        <time>2021-07-22T10:35:24Z</time>
      </trkpt>
      <trkpt lat="43.5436530" lon="-6.6365490">
        <ele>13.8</ele>
        <time>2021-07-22T10:35:25Z</time>
      </trkpt>
      <trkpt lat="43.5436740" lon="-6.6366160">
        <ele>13.4</ele>
        <time>2021-07-22T10:35:26Z</time>
      </trkpt>
      <trkpt lat="43.5437590" lon="-6.6368220">
        <ele>13.4</ele>
        <time>2021-07-22T10:35:29Z</time>
      </trkpt>
      <trkpt lat="43.5437910" lon="-6.6368910">
        <ele>13.0</ele>
        <time>2021-07-22T10:35:30Z</time>
      </trkpt>
      <trkpt lat="43.5438280" lon="-6.6369620">
        <ele>12.6</ele>
        <time>2021-07-22T10:35:31Z</time>
      </trkpt>
      <trkpt lat="43.5438660" lon="-6.6370350">
        <ele>12.0</ele>
        <time>2021-07-22T10:35:32Z</time>
      </trkpt>
      <trkpt lat="43.5439060" lon="-6.6371090">
        <ele>11.6</ele>
        <time>2021-07-22T10:35:33Z</time>
      </trkpt>
      <trkpt lat="43.5439450" lon="-6.6371830">
        <ele>11.2</ele>
        <time>2021-07-22T10:35:34Z</time>
      </trkpt>
      <trkpt lat="43.5439840" lon="-6.6372570">
        <ele>10.8</ele>
        <time>2021-07-22T10:35:35Z</time>
      </trkpt>
      <trkpt lat="43.5440240" lon="-6.6373280">
        <ele>10.2</ele>
        <time>2021-07-22T10:35:36Z</time>
      </trkpt>
      <trkpt lat="43.5440570" lon="-6.6373890">
        <ele>9.8</ele>
        <time>2021-07-22T10:35:37Z</time>
      </trkpt>
      <trkpt lat="43.5440880" lon="-6.6374480">
        <ele>9.2</ele>
        <time>2021-07-22T10:35:38Z</time>
      </trkpt>
      <trkpt lat="43.5441040" lon="-6.6375160">
        <ele>8.6</ele>
        <time>2021-07-22T10:35:39Z</time>
      </trkpt>
      <trkpt lat="43.5441090" lon="-6.6375850">
        <ele>8.0</ele>
        <time>2021-07-22T10:35:40Z</time>
      </trkpt>
      <trkpt lat="43.5441070" lon="-6.6376540">
        <ele>7.2</ele>
        <time>2021-07-22T10:35:41Z</time>
      </trkpt>
      <trkpt lat="43.5440910" lon="-6.6377180">
        <ele>6.6</ele>
        <time>2021-07-22T10:35:42Z</time>
      </trkpt>
      <trkpt lat="43.5440690" lon="-6.6377790">
        <ele>5.8</ele>
        <time>2021-07-22T10:35:43Z</time>
      </trkpt>
      <trkpt lat="43.5440470" lon="-6.6378450">
        <ele>5.0</ele>
        <time>2021-07-22T10:35:44Z</time>
      </trkpt>
      <trkpt lat="43.5440280" lon="-6.6379080">
        <ele>4.4</ele>
        <time>2021-07-22T10:35:45Z</time>
      </trkpt>
      <trkpt lat="43.5440180" lon="-6.6379720">
        <ele>4.4</ele>
        <time>2021-07-22T10:35:46Z</time>
      </trkpt>
      <trkpt lat="43.5440200" lon="-6.6381720">
        <ele>4.4</ele>
        <time>2021-07-22T10:35:49Z</time>
      </trkpt>
      <trkpt lat="43.5440980" lon="-6.6383420">
        <ele>4.4</ele>
        <time>2021-07-22T10:35:52Z</time>
      </trkpt>
      <trkpt lat="43.5441250" lon="-6.6383860">
        <ele>4.4</ele>
        <time>2021-07-22T10:35:53Z</time>
      </trkpt>
      <trkpt lat="43.5441560" lon="-6.6384240">
        <ele>4.4</ele>
        <time>2021-07-22T10:35:54Z</time>
      </trkpt>
      <trkpt lat="43.5442890" lon="-6.6385550">
        <ele>4.4</ele>
        <time>2021-07-22T10:35:58Z</time>
      </trkpt>
      <trkpt lat="43.5443890" lon="-6.6386660">
        <ele>4.4</ele>
        <time>2021-07-22T10:36:01Z</time>
      </trkpt>
      <trkpt lat="43.5444990" lon="-6.6387880">
        <ele>4.4</ele>
        <time>2021-07-22T10:36:05Z</time>
      </trkpt>
      <trkpt lat="43.5445880" lon="-6.6389830">
        <ele>4.4</ele>
        <time>2021-07-22T10:36:10Z</time>
      </trkpt>
      <trkpt lat="43.5445860" lon="-6.6390280">
        <ele>4.4</ele>
        <time>2021-07-22T10:36:11Z</time>
      </trkpt>
      <trkpt lat="43.5445340" lon="-6.6391510">
        <ele>4.4</ele>
        <time>2021-07-22T10:36:14Z</time>
      </trkpt>
      <trkpt lat="43.5445090" lon="-6.6391920">
        <ele>4.4</ele>
        <time>2021-07-22T10:36:15Z</time>
      </trkpt>
      <trkpt lat="43.5444310" lon="-6.6392990">
        <ele>4.4</ele>
        <time>2021-07-22T10:36:18Z</time>
      </trkpt>
      <trkpt lat="43.5443500" lon="-6.6394000">
        <ele>4.4</ele>
        <time>2021-07-22T10:36:21Z</time>
      </trkpt>
      <trkpt lat="43.5443010" lon="-6.6394670">
        <ele>4.4</ele>
        <time>2021-07-22T10:36:23Z</time>
      </trkpt>
      <trkpt lat="43.5442200" lon="-6.6395530">
        <ele>4.4</ele>
        <time>2021-07-22T10:36:26Z</time>
      </trkpt>
      <trkpt lat="43.5440940" lon="-6.6396980">
        <ele>4.4</ele>
        <time>2021-07-22T10:36:31Z</time>
      </trkpt>
      <trkpt lat="43.5439640" lon="-6.6398260">
        <ele>4.8</ele>
        <time>2021-07-22T10:36:36Z</time>
      </trkpt>
      <trkpt lat="43.5439400" lon="-6.6398510">
        <ele>5.2</ele>
        <time>2021-07-22T10:36:37Z</time>
      </trkpt>
      <trkpt lat="43.5439150" lon="-6.6398790">
        <ele>5.6</ele>
        <time>2021-07-22T10:36:38Z</time>
      </trkpt>
      <trkpt lat="43.5438910" lon="-6.6399060">
        <ele>6.0</ele>
        <time>2021-07-22T10:36:39Z</time>
      </trkpt>
      <trkpt lat="43.5438690" lon="-6.6399340">
        <ele>6.4</ele>
        <time>2021-07-22T10:36:40Z</time>
      </trkpt>
      <trkpt lat="43.5437130" lon="-6.6401250">
        <ele>6.4</ele>
        <time>2021-07-22T10:36:47Z</time>
      </trkpt>
      <trkpt lat="43.5436590" lon="-6.6402220">
        <ele>6.8</ele>
        <time>2021-07-22T10:36:50Z</time>
      </trkpt>
      <trkpt lat="43.5436410" lon="-6.6402520">
        <ele>7.2</ele>
        <time>2021-07-22T10:36:51Z</time>
      </trkpt>
      <trkpt lat="43.5436190" lon="-6.6402800">
        <ele>7.6</ele>
        <time>2021-07-22T10:36:52Z</time>
      </trkpt>
      <trkpt lat="43.5435990" lon="-6.6403140">
        <ele>8.0</ele>
        <time>2021-07-22T10:36:53Z</time>
      </trkpt>
      <trkpt lat="43.5435850" lon="-6.6403470">
        <ele>8.4</ele>
        <time>2021-07-22T10:36:54Z</time>
      </trkpt>
      <trkpt lat="43.5435730" lon="-6.6403840">
        <ele>8.4</ele>
        <time>2021-07-22T10:36:55Z</time>
      </trkpt>
      <trkpt lat="43.5435600" lon="-6.6405840">
        <ele>8.4</ele>
        <time>2021-07-22T10:37:00Z</time>
      </trkpt>
      <trkpt lat="43.5436090" lon="-6.6407910">
        <ele>8.4</ele>
        <time>2021-07-22T10:37:05Z</time>
      </trkpt>
      <trkpt lat="43.5436240" lon="-6.6408770">
        <ele>8.8</ele>
        <time>2021-07-22T10:37:07Z</time>
      </trkpt>
      <trkpt lat="43.5436340" lon="-6.6409220">
        <ele>9.2</ele>
        <time>2021-07-22T10:37:08Z</time>
      </trkpt>
      <trkpt lat="43.5436400" lon="-6.6409610">
        <ele>9.6</ele>
        <time>2021-07-22T10:37:09Z</time>
      </trkpt>
      <trkpt lat="43.5436480" lon="-6.6409990">
        <ele>10.0</ele>
        <time>2021-07-22T10:37:10Z</time>
      </trkpt>
      <trkpt lat="43.5436610" lon="-6.6410350">
        <ele>10.4</ele>
        <time>2021-07-22T10:37:11Z</time>
      </trkpt>
      <trkpt lat="43.5436720" lon="-6.6410700">
        <ele>10.4</ele>
        <time>2021-07-22T10:37:12Z</time>
      </trkpt>
      <trkpt lat="43.5437830" lon="-6.6413050">
        <ele>10.4</ele>
        <time>2021-07-22T10:37:19Z</time>
      </trkpt>
      <trkpt lat="43.5438280" lon="-6.6415700">
        <ele>10.4</ele>
        <time>2021-07-22T10:37:25Z</time>
      </trkpt>
      <trkpt lat="43.5438230" lon="-6.6417810">
        <ele>10.4</ele>
        <time>2021-07-22T10:37:29Z</time>
      </trkpt>
      <trkpt lat="43.5438260" lon="-6.6418240">
        <ele>10.4</ele>
        <time>2021-07-22T10:37:30Z</time>
      </trkpt>
      <trkpt lat="43.5438770" lon="-6.6421060">
        <ele>10.4</ele>
        <time>2021-07-22T10:37:36Z</time>
      </trkpt>
      <trkpt lat="43.5438870" lon="-6.6421600">
        <ele>10.4</ele>
        <time>2021-07-22T10:37:37Z</time>
      </trkpt>
      <trkpt lat="43.5439130" lon="-6.6422790">
        <ele>10.4</ele>
        <time>2021-07-22T10:37:39Z</time>
      </trkpt>
      <trkpt lat="43.5439390" lon="-6.6424700">
        <ele>10.4</ele>
        <time>2021-07-22T10:37:42Z</time>
      </trkpt>
      <trkpt lat="43.5439440" lon="-6.6425380">
        <ele>10.4</ele>
        <time>2021-07-22T10:37:43Z</time>
      </trkpt>
      <trkpt lat="43.5439420" lon="-6.6426730">
        <ele>10.4</ele>
        <time>2021-07-22T10:37:45Z</time>
      </trkpt>
      <trkpt lat="43.5439120" lon="-6.6430200">
        <ele>10.4</ele>
        <time>2021-07-22T10:37:50Z</time>
      </trkpt>
      <trkpt lat="43.5438920" lon="-6.6433920">
        <ele>10.4</ele>
        <time>2021-07-22T10:37:56Z</time>
      </trkpt>
      <trkpt lat="43.5439060" lon="-6.6437070">
        <ele>10.4</ele>
        <time>2021-07-22T10:38:02Z</time>
      </trkpt>
      <trkpt lat="43.5439030" lon="-6.6437650">
        <ele>10.4</ele>
        <time>2021-07-22T10:38:03Z</time>
      </trkpt>
      <trkpt lat="43.5439090" lon="-6.6439820">
        <ele>10.4</ele>
        <time>2021-07-22T10:38:07Z</time>
      </trkpt>
      <trkpt lat="43.5439100" lon="-6.6441000">
        <ele>10.4</ele>
        <time>2021-07-22T10:38:09Z</time>
      </trkpt>
      <trkpt lat="43.5439160" lon="-6.6442150">
        <ele>10.4</ele>
        <time>2021-07-22T10:38:11Z</time>
      </trkpt>
      <trkpt lat="43.5439130" lon="-6.6444880">
        <ele>10.4</ele>
        <time>2021-07-22T10:38:16Z</time>
      </trkpt>
      <trkpt lat="43.5439070" lon="-6.6445470">
        <ele>10.4</ele>
        <time>2021-07-22T10:38:17Z</time>
      </trkpt>
      <trkpt lat="43.5438890" lon="-6.6447280">
        <ele>10.4</ele>
        <time>2021-07-22T10:38:20Z</time>
      </trkpt>
      <trkpt lat="43.5438910" lon="-6.6447920">
        <ele>10.4</ele>
        <time>2021-07-22T10:38:21Z</time>
      </trkpt>
      <trkpt lat="43.5438950" lon="-6.6448560">
        <ele>10.4</ele>
        <time>2021-07-22T10:38:22Z</time>
      </trkpt>
      <trkpt lat="43.5439290" lon="-6.6450440">
        <ele>10.4</ele>
        <time>2021-07-22T10:38:25Z</time>
      </trkpt>
      <trkpt lat="43.5439570" lon="-6.6451610">
        <ele>10.4</ele>
        <time>2021-07-22T10:38:27Z</time>
      </trkpt>
      <trkpt lat="43.5439910" lon="-6.6452660">
        <ele>10.4</ele>
        <time>2021-07-22T10:38:29Z</time>
      </trkpt>
      <trkpt lat="43.5440730" lon="-6.6454260">
        <ele>10.4</ele>
        <time>2021-07-22T10:38:33Z</time>
      </trkpt>
      <trkpt lat="43.5441740" lon="-6.6456100">
        <ele>10.4</ele>
        <time>2021-07-22T10:38:39Z</time>
      </trkpt>
      <trkpt lat="43.5442370" lon="-6.6457090">
        <ele>11.0</ele>
        <time>2021-07-22T10:38:42Z</time>
      </trkpt>
      <trkpt lat="43.5442600" lon="-6.6457460">
        <ele>11.4</ele>
        <time>2021-07-22T10:38:43Z</time>
      </trkpt>
      <trkpt lat="43.5442780" lon="-6.6457770">
        <ele>11.8</ele>
        <time>2021-07-22T10:38:44Z</time>
      </trkpt>
      <trkpt lat="43.5442940" lon="-6.6458130">
        <ele>12.6</ele>
        <time>2021-07-22T10:38:45Z</time>
      </trkpt>
      <trkpt lat="43.5443710" lon="-6.6459490">
        <ele>12.6</ele>
        <time>2021-07-22T10:38:49Z</time>
      </trkpt>
      <trkpt lat="43.5444690" lon="-6.6461090">
        <ele>12.6</ele>
        <time>2021-07-22T10:38:53Z</time>
      </trkpt>
      <trkpt lat="43.5446490" lon="-6.6463880">
        <ele>12.6</ele>
        <time>2021-07-22T10:38:58Z</time>
      </trkpt>
      <trkpt lat="43.5448870" lon="-6.6468470">
        <ele>12.6</ele>
        <time>2021-07-22T10:39:04Z</time>
      </trkpt>
      <trkpt lat="43.5449510" lon="-6.6470000">
        <ele>12.6</ele>
        <time>2021-07-22T10:39:06Z</time>
      </trkpt>
      <trkpt lat="43.5450090" lon="-6.6471610">
        <ele>12.6</ele>
        <time>2021-07-22T10:39:08Z</time>
      </trkpt>
      <trkpt lat="43.5450360" lon="-6.6472360">
        <ele>12.0</ele>
        <time>2021-07-22T10:39:09Z</time>
      </trkpt>
      <trkpt lat="43.5450570" lon="-6.6473130">
        <ele>11.2</ele>
        <time>2021-07-22T10:39:10Z</time>
      </trkpt>
      <trkpt lat="43.5450760" lon="-6.6473860">
        <ele>10.8</ele>
        <time>2021-07-22T10:39:11Z</time>
      </trkpt>
      <trkpt lat="43.5450920" lon="-6.6474570">
        <ele>10.2</ele>
        <time>2021-07-22T10:39:12Z</time>
      </trkpt>
      <trkpt lat="43.5451030" lon="-6.6475290">
        <ele>10.2</ele>
        <time>2021-07-22T10:39:13Z</time>
      </trkpt>
      <trkpt lat="43.5451090" lon="-6.6476020">
        <ele>10.2</ele>
        <time>2021-07-22T10:39:14Z</time>
      </trkpt>
      <trkpt lat="43.5451080" lon="-6.6477540">
        <ele>10.2</ele>
        <time>2021-07-22T10:39:16Z</time>
      </trkpt>
      <trkpt lat="43.5450950" lon="-6.6479200">
        <ele>9.8</ele>
        <time>2021-07-22T10:39:18Z</time>
      </trkpt>
      <trkpt lat="43.5450780" lon="-6.6480020">
        <ele>9.4</ele>
        <time>2021-07-22T10:39:19Z</time>
      </trkpt>
      <trkpt lat="43.5450570" lon="-6.6480900">
        <ele>8.8</ele>
        <time>2021-07-22T10:39:20Z</time>
      </trkpt>
      <trkpt lat="43.5450400" lon="-6.6481860">
        <ele>8.4</ele>
        <time>2021-07-22T10:39:21Z</time>
      </trkpt>
      <trkpt lat="43.5450310" lon="-6.6482830">
        <ele>7.8</ele>
        <time>2021-07-22T10:39:22Z</time>
      </trkpt>
      <trkpt lat="43.5450270" lon="-6.6483820">
        <ele>7.2</ele>
        <time>2021-07-22T10:39:23Z</time>
      </trkpt>
      <trkpt lat="43.5450280" lon="-6.6484780">
        <ele>6.6</ele>
        <time>2021-07-22T10:39:24Z</time>
      </trkpt>
      <trkpt lat="43.5450360" lon="-6.6485790">
        <ele>6.2</ele>
        <time>2021-07-22T10:39:25Z</time>
      </trkpt>
      <trkpt lat="43.5450480" lon="-6.6486850">
        <ele>5.6</ele>
        <time>2021-07-22T10:39:26Z</time>
      </trkpt>
      <trkpt lat="43.5450640" lon="-6.6487900">
        <ele>5.0</ele>
        <time>2021-07-22T10:39:27Z</time>
      </trkpt>
      <trkpt lat="43.5450860" lon="-6.6488890">
        <ele>4.4</ele>
        <time>2021-07-22T10:39:28Z</time>
      </trkpt>
      <trkpt lat="43.5451080" lon="-6.6489880">
        <ele>3.8</ele>
        <time>2021-07-22T10:39:29Z</time>
      </trkpt>
      <trkpt lat="43.5451300" lon="-6.6490820">
        <ele>3.2</ele>
        <time>2021-07-22T10:39:30Z</time>
      </trkpt>
      <trkpt lat="43.5451730" lon="-6.6493500">
        <ele>2.8</ele>
        <time>2021-07-22T10:39:33Z</time>
      </trkpt>
      <trkpt lat="43.5451880" lon="-6.6494350">
        <ele>2.0</ele>
        <time>2021-07-22T10:39:34Z</time>
      </trkpt>
      <trkpt lat="43.5452020" lon="-6.6495140">
        <ele>1.6</ele>
        <time>2021-07-22T10:39:35Z</time>
      </trkpt>
      <trkpt lat="43.5452130" lon="-6.6495870">
        <ele>1.2</ele>
        <time>2021-07-22T10:39:36Z</time>
      </trkpt>
      <trkpt lat="43.5452230" lon="-6.6496530">
        <ele>0.8</ele>
        <time>2021-07-22T10:39:37Z</time>
      </trkpt>
      <trkpt lat="43.5452330" lon="-6.6497060">
        <ele>0.4</ele>
        <time>2021-07-22T10:39:38Z</time>
      </trkpt>
      <trkpt lat="43.5452440" lon="-6.6497480">
        <ele>-0.2</ele>
        <time>2021-07-22T10:39:39Z</time>
      </trkpt>
      <trkpt lat="43.5452550" lon="-6.6497780">
        <ele>-0.6</ele>
        <time>2021-07-22T10:39:40Z</time>
      </trkpt>
      <trkpt lat="43.5452650" lon="-6.6498030">
        <ele>-1.0</ele>
        <time>2021-07-22T10:39:41Z</time>
      </trkpt>
      <trkpt lat="43.5452750" lon="-6.6498300">
        <ele>-1.4</ele>
        <time>2021-07-22T10:39:42Z</time>
      </trkpt>
      <trkpt lat="43.5452830" lon="-6.6498560">
        <ele>-2.0</ele>
        <time>2021-07-22T10:39:43Z</time>
      </trkpt>
      <trkpt lat="43.5452900" lon="-6.6498750">
        <ele>-2.4</ele>
        <time>2021-07-22T10:39:44Z</time>
      </trkpt>
      <trkpt lat="43.5452920" lon="-6.6498840">
        <ele>-2.8</ele>
        <time>2021-07-22T10:39:45Z</time>
      </trkpt>
      <trkpt lat="43.5452920" lon="-6.6498820">
        <ele>-3.2</ele>
        <time>2021-07-22T10:39:46Z</time>
      </trkpt>
      <trkpt lat="43.5453010" lon="-6.6499200">
        <ele>-3.2</ele>
        <time>2021-07-22T10:40:11Z</time>
      </trkpt>
      <trkpt lat="43.5453160" lon="-6.6499740">
        <ele>-3.2</ele>
        <time>2021-07-22T10:40:13Z</time>
      </trkpt>
      <trkpt lat="43.5453240" lon="-6.6500540">
        <ele>-3.2</ele>
        <time>2021-07-22T10:40:15Z</time>
      </trkpt>
      <trkpt lat="43.5453120" lon="-6.6501470">
        <ele>-3.2</ele>
        <time>2021-07-22T10:40:17Z</time>
      </trkpt>
      <trkpt lat="43.5452970" lon="-6.6502450">
        <ele>-3.2</ele>
        <time>2021-07-22T10:40:19Z</time>
      </trkpt>
      <trkpt lat="43.5452660" lon="-6.6504810">
        <ele>-3.2</ele>
        <time>2021-07-22T10:40:24Z</time>
      </trkpt>
      <trkpt lat="43.5452540" lon="-6.6505730">
        <ele>-3.2</ele>
        <time>2021-07-22T10:40:26Z</time>
      </trkpt>
      <trkpt lat="43.5451900" lon="-6.6509600">
        <ele>-3.2</ele>
        <time>2021-07-22T10:40:34Z</time>
      </trkpt>
      <trkpt lat="43.5451840" lon="-6.6510830">
        <ele>-3.2</ele>
        <time>2021-07-22T10:40:37Z</time>
      </trkpt>
      <trkpt lat="43.5452030" lon="-6.6511150">
        <ele>-3.2</ele>
        <time>2021-07-22T10:40:38Z</time>
      </trkpt>
      <trkpt lat="43.5452560" lon="-6.6511910">
        <ele>-3.2</ele>
        <time>2021-07-22T10:40:40Z</time>
      </trkpt>
      <trkpt lat="43.5452860" lon="-6.6512400">
        <ele>-3.6</ele>
        <time>2021-07-22T10:40:41Z</time>
      </trkpt>
      <trkpt lat="43.5453120" lon="-6.6512930">
        <ele>-4.0</ele>
        <time>2021-07-22T10:40:42Z</time>
      </trkpt>
      <trkpt lat="43.5453340" lon="-6.6513470">
        <ele>-4.4</ele>
        <time>2021-07-22T10:40:43Z</time>
      </trkpt>
      <trkpt lat="43.5453590" lon="-6.6513940">
        <ele>-5.0</ele>
        <time>2021-07-22T10:40:44Z</time>
      </trkpt>
      <trkpt lat="43.5453870" lon="-6.6514440">
        <ele>-5.4</ele>
        <time>2021-07-22T10:40:45Z</time>
      </trkpt>
      <trkpt lat="43.5454490" lon="-6.6515310">
        <ele>-5.4</ele>
        <time>2021-07-22T10:40:47Z</time>
      </trkpt>
      <trkpt lat="43.5454820" lon="-6.6515700">
        <ele>-5.4</ele>
        <time>2021-07-22T10:40:48Z</time>
      </trkpt>
      <trkpt lat="43.5455190" lon="-6.6516000">
        <ele>-5.4</ele>
        <time>2021-07-22T10:40:49Z</time>
      </trkpt>
      <trkpt lat="43.5456520" lon="-6.6517040">
        <ele>-5.4</ele>
        <time>2021-07-22T10:40:53Z</time>
      </trkpt>
      <trkpt lat="43.5457110" lon="-6.6518390">
        <ele>-5.4</ele>
        <time>2021-07-22T10:40:57Z</time>
      </trkpt>
      <trkpt lat="43.5457110" lon="-6.6519160">
        <ele>-5.4</ele>
        <time>2021-07-22T10:40:59Z</time>
      </trkpt>
      <trkpt lat="43.5457450" lon="-6.6520580">
        <ele>-5.4</ele>
        <time>2021-07-22T10:41:02Z</time>
      </trkpt>
      <trkpt lat="43.5458050" lon="-6.6521710">
        <ele>-5.8</ele>
        <time>2021-07-22T10:41:05Z</time>
      </trkpt>
      <trkpt lat="43.5458210" lon="-6.6521940">
        <ele>-6.2</ele>
        <time>2021-07-22T10:41:06Z</time>
      </trkpt>
      <trkpt lat="43.5458370" lon="-6.6522120">
        <ele>-6.6</ele>
        <time>2021-07-22T10:41:07Z</time>
      </trkpt>
      <trkpt lat="43.5458520" lon="-6.6522190">
        <ele>-7.0</ele>
        <time>2021-07-22T10:41:08Z</time>
      </trkpt>
      <trkpt lat="43.5458620" lon="-6.6522160">
        <ele>-7.4</ele>
        <time>2021-07-22T10:41:09Z</time>
      </trkpt>
      <trkpt lat="43.5458580" lon="-6.6522150">
        <ele>-7.4</ele>
        <time>2021-07-22T10:41:10Z</time>
      </trkpt>
      <trkpt lat="43.5458880" lon="-6.6522230">
        <ele>-7.4</ele>
        <time>2021-07-22T10:41:57Z</time>
      </trkpt>
      <trkpt lat="43.5459620" lon="-6.6522490">
        <ele>-7.4</ele>
        <time>2021-07-22T10:42:00Z</time>
      </trkpt>
      <trkpt lat="43.5460340" lon="-6.6522670">
        <ele>-7.4</ele>
        <time>2021-07-22T10:42:02Z</time>
      </trkpt>
      <trkpt lat="43.5461630" lon="-6.6522880">
        <ele>-7.4</ele>
        <time>2021-07-22T10:42:05Z</time>
      </trkpt>
      <trkpt lat="43.5462480" lon="-6.6522960">
        <ele>-7.4</ele>
        <time>2021-07-22T10:42:07Z</time>
      </trkpt>
      <trkpt lat="43.5462870" lon="-6.6523020">
        <ele>-7.4</ele>
        <time>2021-07-22T10:42:08Z</time>
      </trkpt>
      <trkpt lat="43.5464120" lon="-6.6521910">
        <ele>-7.4</ele>
        <time>2021-07-22T10:42:12Z</time>
      </trkpt>
      <trkpt lat="43.5465240" lon="-6.6519270">
        <ele>-7.4</ele>
        <time>2021-07-22T10:42:18Z</time>
      </trkpt>
      <trkpt lat="43.5465430" lon="-6.6518880">
        <ele>-7.4</ele>
        <time>2021-07-22T10:42:19Z</time>
      </trkpt>
      <trkpt lat="43.5466360" lon="-6.6516910">
        <ele>-7.4</ele>
        <time>2021-07-22T10:42:25Z</time>
      </trkpt>
      <trkpt lat="43.5467900" lon="-6.6516810">
        <ele>-7.4</ele>
        <time>2021-07-22T10:42:30Z</time>
      </trkpt>
      <trkpt lat="43.5470140" lon="-6.6518170">
        <ele>-7.4</ele>
        <time>2021-07-22T10:42:36Z</time>
      </trkpt>
      <trkpt lat="43.5471700" lon="-6.6519530">
        <ele>-7.4</ele>
        <time>2021-07-22T10:42:40Z</time>
      </trkpt>
      <trkpt lat="43.5472540" lon="-6.6519780">
        <ele>-7.4</ele>
        <time>2021-07-22T10:42:42Z</time>
      </trkpt>
      <trkpt lat="43.5474350" lon="-6.6520320">
        <ele>-7.4</ele>
        <time>2021-07-22T10:42:46Z</time>
      </trkpt>
      <trkpt lat="43.5475090" lon="-6.6520910">
        <ele>-7.4</ele>
        <time>2021-07-22T10:42:48Z</time>
      </trkpt>
      <trkpt lat="43.5476090" lon="-6.6522050">
        <ele>-7.4</ele>
        <time>2021-07-22T10:42:51Z</time>
      </trkpt>
      <trkpt lat="43.5476990" lon="-6.6523220">
        <ele>-7.4</ele>
        <time>2021-07-22T10:42:54Z</time>
      </trkpt>
      <trkpt lat="43.5478410" lon="-6.6525260">
        <ele>-7.4</ele>
        <time>2021-07-22T10:42:59Z</time>
      </trkpt>
      <trkpt lat="43.5479220" lon="-6.6526350">
        <ele>-7.4</ele>
        <time>2021-07-22T10:43:02Z</time>
      </trkpt>
      <trkpt lat="43.5480580" lon="-6.6528860">
        <ele>-7.4</ele>
        <time>2021-07-22T10:43:08Z</time>
      </trkpt>
      <trkpt lat="43.5480760" lon="-6.6529260">
        <ele>-7.4</ele>
        <time>2021-07-22T10:43:09Z</time>
      </trkpt>
      <trkpt lat="43.5481190" lon="-6.6530980">
        <ele>-7.4</ele>
        <time>2021-07-22T10:43:13Z</time>
      </trkpt>
      <trkpt lat="43.5481320" lon="-6.6531880">
        <ele>-7.4</ele>
        <time>2021-07-22T10:43:15Z</time>
      </trkpt>
      <trkpt lat="43.5481820" lon="-6.6534440">
        <ele>-7.4</ele>
        <time>2021-07-22T10:43:21Z</time>
      </trkpt>
      <trkpt lat="43.5482080" lon="-6.6536180">
        <ele>-7.4</ele>
        <time>2021-07-22T10:43:27Z</time>
      </trkpt>
      <trkpt lat="43.5481820" lon="-6.6538340">
        <ele>-7.4</ele>
        <time>2021-07-22T10:43:32Z</time>
      </trkpt>
      <trkpt lat="43.5481840" lon="-6.6538700">
        <ele>-6.8</ele>
        <time>2021-07-22T10:43:33Z</time>
      </trkpt>
      <trkpt lat="43.5481840" lon="-6.6539130">
        <ele>-6.4</ele>
        <time>2021-07-22T10:43:34Z</time>
      </trkpt>
      <trkpt lat="43.5481810" lon="-6.6539600">
        <ele>-6.0</ele>
        <time>2021-07-22T10:43:35Z</time>
      </trkpt>
      <trkpt lat="43.5481780" lon="-6.6540060">
        <ele>-5.6</ele>
        <time>2021-07-22T10:43:36Z</time>
      </trkpt>
      <trkpt lat="43.5481760" lon="-6.6540510">
        <ele>-5.2</ele>
        <time>2021-07-22T10:43:37Z</time>
      </trkpt>
      <trkpt lat="43.5481890" lon="-6.6542360">
        <ele>-5.2</ele>
        <time>2021-07-22T10:43:41Z</time>
      </trkpt>
      <trkpt lat="43.5482020" lon="-6.6543740">
        <ele>-5.2</ele>
        <time>2021-07-22T10:43:44Z</time>
      </trkpt>
      <trkpt lat="43.5482460" lon="-6.6547590">
        <ele>-5.2</ele>
        <time>2021-07-22T10:43:51Z</time>
      </trkpt>
      <trkpt lat="43.5483100" lon="-6.6550450">
        <ele>-5.2</ele>
        <time>2021-07-22T10:43:56Z</time>
      </trkpt>
      <trkpt lat="43.5483320" lon="-6.6551560">
        <ele>-5.2</ele>
        <time>2021-07-22T10:43:58Z</time>
      </trkpt>
      <trkpt lat="43.5484550" lon="-6.6555440">
        <ele>-5.2</ele>
        <time>2021-07-22T10:44:06Z</time>
      </trkpt>
      <trkpt lat="43.5485000" lon="-6.6557280">
        <ele>-5.2</ele>
        <time>2021-07-22T10:44:10Z</time>
      </trkpt>
      <trkpt lat="43.5485290" lon="-6.6558610">
        <ele>-5.2</ele>
        <time>2021-07-22T10:44:13Z</time>
      </trkpt>
      <trkpt lat="43.5485450" lon="-6.6561570">
        <ele>-4.8</ele>
        <time>2021-07-22T10:44:20Z</time>
      </trkpt>
      <trkpt lat="43.5485420" lon="-6.6561980">
        <ele>-4.4</ele>
        <time>2021-07-22T10:44:21Z</time>
      </trkpt>
      <trkpt lat="43.5485370" lon="-6.6562400">
        <ele>-4.0</ele>
        <time>2021-07-22T10:44:22Z</time>
      </trkpt>
      <trkpt lat="43.5485330" lon="-6.6562820">
        <ele>-3.6</ele>
        <time>2021-07-22T10:44:23Z</time>
      </trkpt>
      <trkpt lat="43.5485250" lon="-6.6563220">
        <ele>-3.2</ele>
        <time>2021-07-22T10:44:24Z</time>
      </trkpt>
      <trkpt lat="43.5484950" lon="-6.6564470">
        <ele>-3.2</ele>
        <time>2021-07-22T10:44:27Z</time>
      </trkpt>
      <trkpt lat="43.5483860" lon="-6.6566990">
        <ele>-3.2</ele>
        <time>2021-07-22T10:44:34Z</time>
      </trkpt>
      <trkpt lat="43.5482230" lon="-6.6569630">
        <ele>-3.2</ele>
        <time>2021-07-22T10:44:42Z</time>
      </trkpt>
      <trkpt lat="43.5480660" lon="-6.6573110">
        <ele>-3.2</ele>
        <time>2021-07-22T10:44:50Z</time>
      </trkpt>
      <trkpt lat="43.5480230" lon="-6.6574150">
        <ele>-3.2</ele>
        <time>2021-07-22T10:44:52Z</time>
      </trkpt>
      <trkpt lat="43.5479780" lon="-6.6575100">
        <ele>-3.2</ele>
        <time>2021-07-22T10:44:54Z</time>
      </trkpt>
      <trkpt lat="43.5479600" lon="-6.6575610">
        <ele>-3.2</ele>
        <time>2021-07-22T10:44:55Z</time>
      </trkpt>
      <trkpt lat="43.5479250" lon="-6.6576670">
        <ele>-3.2</ele>
        <time>2021-07-22T10:44:57Z</time>
      </trkpt>
      <trkpt lat="43.5479020" lon="-6.6577240">
        <ele>-3.2</ele>
        <time>2021-07-22T10:44:58Z</time>
      </trkpt>
      <trkpt lat="43.5478610" lon="-6.6578230">
        <ele>-3.2</ele>
        <time>2021-07-22T10:45:00Z</time>
      </trkpt>
      <trkpt lat="43.5478230" lon="-6.6579240">
        <ele>-3.2</ele>
        <time>2021-07-22T10:45:02Z</time>
      </trkpt>
      <trkpt lat="43.5477860" lon="-6.6580200">
        <ele>-3.2</ele>
        <time>2021-07-22T10:45:04Z</time>
      </trkpt>
      <trkpt lat="43.5477390" lon="-6.6581060">
        <ele>-3.2</ele>
        <time>2021-07-22T10:45:06Z</time>
      </trkpt>
      <trkpt lat="43.5476120" lon="-6.6583790">
        <ele>-3.2</ele>
        <time>2021-07-22T10:45:12Z</time>
      </trkpt>
      <trkpt lat="43.5475970" lon="-6.6584330">
        <ele>-3.2</ele>
        <time>2021-07-22T10:45:13Z</time>
      </trkpt>
      <trkpt lat="43.5475790" lon="-6.6584840">
        <ele>-3.2</ele>
        <time>2021-07-22T10:45:14Z</time>
      </trkpt>
      <trkpt lat="43.5475580" lon="-6.6585340">
        <ele>-3.2</ele>
        <time>2021-07-22T10:45:15Z</time>
      </trkpt>
      <trkpt lat="43.5474960" lon="-6.6586850">
        <ele>-3.2</ele>
        <time>2021-07-22T10:45:18Z</time>
      </trkpt>
      <trkpt lat="43.5474160" lon="-6.6588950">
        <ele>-3.6</ele>
        <time>2021-07-22T10:45:22Z</time>
      </trkpt>
      <trkpt lat="43.5473910" lon="-6.6589480">
        <ele>-4.0</ele>
        <time>2021-07-22T10:45:23Z</time>
      </trkpt>
      <trkpt lat="43.5473670" lon="-6.6590080">
        <ele>-4.4</ele>
        <time>2021-07-22T10:45:24Z</time>
      </trkpt>
      <trkpt lat="43.5473460" lon="-6.6590640">
        <ele>-4.8</ele>
        <time>2021-07-22T10:45:25Z</time>
      </trkpt>
      <trkpt lat="43.5473220" lon="-6.6591190">
        <ele>-5.2</ele>
        <time>2021-07-22T10:45:26Z</time>
      </trkpt>
      <trkpt lat="43.5471530" lon="-6.6594860">
        <ele>-5.2</ele>
        <time>2021-07-22T10:45:33Z</time>
      </trkpt>
      <trkpt lat="43.5471090" lon="-6.6595900">
        <ele>-5.6</ele>
        <time>2021-07-22T10:45:35Z</time>
      </trkpt>
      <trkpt lat="43.5470780" lon="-6.6596370">
        <ele>-6.0</ele>
        <time>2021-07-22T10:45:36Z</time>
      </trkpt>
      <trkpt lat="43.5470510" lon="-6.6596830">
        <ele>-6.4</ele>
        <time>2021-07-22T10:45:37Z</time>
      </trkpt>
      <trkpt lat="43.5470250" lon="-6.6597320">
        <ele>-7.0</ele>
        <time>2021-07-22T10:45:38Z</time>
      </trkpt>
      <trkpt lat="43.5470000" lon="-6.6597840">
        <ele>-7.4</ele>
        <time>2021-07-22T10:45:39Z</time>
      </trkpt>
      <trkpt lat="43.5469770" lon="-6.6598370">
        <ele>-7.4</ele>
        <time>2021-07-22T10:45:40Z</time>
      </trkpt>
      <trkpt lat="43.5468770" lon="-6.6600540">
        <ele>-7.4</ele>
        <time>2021-07-22T10:45:44Z</time>
      </trkpt>
      <trkpt lat="43.5467600" lon="-6.6603230">
        <ele>-7.8</ele>
        <time>2021-07-22T10:45:49Z</time>
      </trkpt>
      <trkpt lat="43.5467370" lon="-6.6603720">
        <ele>-8.2</ele>
        <time>2021-07-22T10:45:50Z</time>
      </trkpt>
      <trkpt lat="43.5467140" lon="-6.6604230">
        <ele>-8.6</ele>
        <time>2021-07-22T10:45:51Z</time>
      </trkpt>
      <trkpt lat="43.5466920" lon="-6.6604730">
        <ele>-9.0</ele>
        <time>2021-07-22T10:45:52Z</time>
      </trkpt>
      <trkpt lat="43.5466690" lon="-6.6605230">
        <ele>-9.6</ele>
        <time>2021-07-22T10:45:53Z</time>
      </trkpt>
      <trkpt lat="43.5465380" lon="-6.6608130">
        <ele>-9.6</ele>
        <time>2021-07-22T10:45:59Z</time>
      </trkpt>
      <trkpt lat="43.5463830" lon="-6.6611680">
        <ele>-9.6</ele>
        <time>2021-07-22T10:46:06Z</time>
      </trkpt>
      <trkpt lat="43.5463610" lon="-6.6612170">
        <ele>-9.6</ele>
        <time>2021-07-22T10:46:07Z</time>
      </trkpt>
      <trkpt lat="43.5463390" lon="-6.6612630">
        <ele>-10.0</ele>
        <time>2021-07-22T10:46:08Z</time>
      </trkpt>
      <trkpt lat="43.5463220" lon="-6.6613100">
        <ele>-10.4</ele>
        <time>2021-07-22T10:46:09Z</time>
      </trkpt>
      <trkpt lat="43.5463090" lon="-6.6613530">
        <ele>-10.8</ele>
        <time>2021-07-22T10:46:10Z</time>
      </trkpt>
      <trkpt lat="43.5462970" lon="-6.6613900">
        <ele>-11.6</ele>
        <time>2021-07-22T10:46:11Z</time>
      </trkpt>
      <trkpt lat="43.5462830" lon="-6.6614220">
        <ele>-11.6</ele>
        <time>2021-07-22T10:46:12Z</time>
      </trkpt>
      <trkpt lat="43.5462420" lon="-6.6615050">
        <ele>-12.0</ele>
        <time>2021-07-22T10:46:15Z</time>
      </trkpt>
      <trkpt lat="43.5462310" lon="-6.6615310">
        <ele>-12.4</ele>
        <time>2021-07-22T10:46:16Z</time>
      </trkpt>
      <trkpt lat="43.5462200" lon="-6.6615590">
        <ele>-13.0</ele>
        <time>2021-07-22T10:46:17Z</time>
      </trkpt>
      <trkpt lat="43.5462060" lon="-6.6615900">
        <ele>-13.4</ele>
        <time>2021-07-22T10:46:18Z</time>
      </trkpt>
      <trkpt lat="43.5461920" lon="-6.6616200">
        <ele>-13.8</ele>
        <time>2021-07-22T10:46:19Z</time>
      </trkpt>
      <trkpt lat="43.5461320" lon="-6.6617470">
        <ele>-14.4</ele>
        <time>2021-07-22T10:46:23Z</time>
      </trkpt>
      <trkpt lat="43.5461180" lon="-6.6617790">
        <ele>-14.8</ele>
        <time>2021-07-22T10:46:24Z</time>
      </trkpt>
      <trkpt lat="43.5461030" lon="-6.6618070">
        <ele>-15.2</ele>
        <time>2021-07-22T10:46:25Z</time>
      </trkpt>
      <trkpt lat="43.5460890" lon="-6.6618320">
        <ele>-15.8</ele>
        <time>2021-07-22T10:46:26Z</time>
      </trkpt>
      <trkpt lat="43.5460740" lon="-6.6618600">
        <ele>-16.2</ele>
        <time>2021-07-22T10:46:27Z</time>
      </trkpt>
      <trkpt lat="43.5460400" lon="-6.6619230">
        <ele>-16.6</ele>
        <time>2021-07-22T10:46:29Z</time>
      </trkpt>
      <trkpt lat="43.5460220" lon="-6.6619550">
        <ele>-17.0</ele>
        <time>2021-07-22T10:46:30Z</time>
      </trkpt>
      <trkpt lat="43.5460020" lon="-6.6619860">
        <ele>-17.6</ele>
        <time>2021-07-22T10:46:31Z</time>
      </trkpt>
      <trkpt lat="43.5459840" lon="-6.6620150">
        <ele>-18.0</ele>
        <time>2021-07-22T10:46:32Z</time>
      </trkpt>
      <trkpt lat="43.5459680" lon="-6.6620430">
        <ele>-18.4</ele>
        <time>2021-07-22T10:46:33Z</time>
      </trkpt>
      <trkpt lat="43.5459520" lon="-6.6620700">
        <ele>-18.8</ele>
        <time>2021-07-22T10:46:34Z</time>
      </trkpt>
      <trkpt lat="43.5459330" lon="-6.6620980">
        <ele>-19.2</ele>
        <time>2021-07-22T10:46:35Z</time>
      </trkpt>
      <trkpt lat="43.5459150" lon="-6.6621300">
        <ele>-20.0</ele>
        <time>2021-07-22T10:46:36Z</time>
      </trkpt>
      <trkpt lat="43.5458970" lon="-6.6621610">
        <ele>-20.4</ele>
        <time>2021-07-22T10:46:37Z</time>
      </trkpt>
      <trkpt lat="43.5458550" lon="-6.6622230">
        <ele>-20.8</ele>
        <time>2021-07-22T10:46:39Z</time>
      </trkpt>
      <trkpt lat="43.5458340" lon="-6.6622540">
        <ele>-21.2</ele>
        <time>2021-07-22T10:46:40Z</time>
      </trkpt>
      <trkpt lat="43.5458080" lon="-6.6622870">
        <ele>-21.6</ele>
        <time>2021-07-22T10:46:41Z</time>
      </trkpt>
      <trkpt lat="43.5457820" lon="-6.6623170">
        <ele>-22.0</ele>
        <time>2021-07-22T10:46:42Z</time>
      </trkpt>
      <trkpt lat="43.5457510" lon="-6.6623450">
        <ele>-22.4</ele>
        <time>2021-07-22T10:46:43Z</time>
      </trkpt>
      <trkpt lat="43.5456810" lon="-6.6623900">
        <ele>-23.0</ele>
        <time>2021-07-22T10:46:45Z</time>
      </trkpt>
      <trkpt lat="43.5456460" lon="-6.6624060">
        <ele>-23.4</ele>
        <time>2021-07-22T10:46:46Z</time>
      </trkpt>
      <trkpt lat="43.5456090" lon="-6.6624240">
        <ele>-24.0</ele>
        <time>2021-07-22T10:46:47Z</time>
      </trkpt>
      <trkpt lat="43.5455690" lon="-6.6624420">
        <ele>-24.4</ele>
        <time>2021-07-22T10:46:48Z</time>
      </trkpt>
      <trkpt lat="43.5455290" lon="-6.6624620">
        <ele>-25.0</ele>
        <time>2021-07-22T10:46:49Z</time>
      </trkpt>
      <trkpt lat="43.5453580" lon="-6.6625520">
        <ele>-25.4</ele>
        <time>2021-07-22T10:46:53Z</time>
      </trkpt>
      <trkpt lat="43.5453130" lon="-6.6625740">
        <ele>-25.8</ele>
        <time>2021-07-22T10:46:54Z</time>
      </trkpt>
      <trkpt lat="43.5452680" lon="-6.6626000">
        <ele>-26.2</ele>
        <time>2021-07-22T10:46:55Z</time>
      </trkpt>
      <trkpt lat="43.5452240" lon="-6.6626270">
        <ele>-26.6</ele>
        <time>2021-07-22T10:46:56Z</time>
      </trkpt>
      <trkpt lat="43.5451830" lon="-6.6626520">
        <ele>-27.0</ele>
        <time>2021-07-22T10:46:57Z</time>
      </trkpt>
      <trkpt lat="43.5450710" lon="-6.6627420">
        <ele>-27.0</ele>
        <time>2021-07-22T10:47:00Z</time>
      </trkpt>
      <trkpt lat="43.5450100" lon="-6.6628260">
        <ele>-27.0</ele>
        <time>2021-07-22T10:47:02Z</time>
      </trkpt>
      <trkpt lat="43.5449210" lon="-6.6630120">
        <ele>-27.6</ele>
        <time>2021-07-22T10:47:06Z</time>
      </trkpt>
      <trkpt lat="43.5449130" lon="-6.6630650">
        <ele>-28.0</ele>
        <time>2021-07-22T10:47:07Z</time>
      </trkpt>
      <trkpt lat="43.5449120" lon="-6.6631170">
        <ele>-28.4</ele>
        <time>2021-07-22T10:47:08Z</time>
      </trkpt>
      <trkpt lat="43.5449150" lon="-6.6631670">
        <ele>-28.8</ele>
        <time>2021-07-22T10:47:09Z</time>
      </trkpt>
      <trkpt lat="43.5449240" lon="-6.6632110">
        <ele>-29.2</ele>
        <time>2021-07-22T10:47:10Z</time>
      </trkpt>
      <trkpt lat="43.5449300" lon="-6.6632500">
        <ele>-29.2</ele>
        <time>2021-07-22T10:47:11Z</time>
      </trkpt>
      <trkpt lat="43.5450080" lon="-6.6634250">
        <ele>-29.2</ele>
        <time>2021-07-22T10:47:16Z</time>
      </trkpt>
      <trkpt lat="43.5450730" lon="-6.6635380">
        <ele>-29.2</ele>
        <time>2021-07-22T10:47:19Z</time>
      </trkpt>
      <trkpt lat="43.5451890" lon="-6.6636800">
        <ele>-29.6</ele>
        <time>2021-07-22T10:47:23Z</time>
      </trkpt>
      <trkpt lat="43.5452180" lon="-6.6637220">
        <ele>-30.0</ele>
        <time>2021-07-22T10:47:24Z</time>
      </trkpt>
      <trkpt lat="43.5452460" lon="-6.6637610">
        <ele>-31.0</ele>
        <time>2021-07-22T10:47:25Z</time>
      </trkpt>
      <trkpt lat="43.5452730" lon="-6.6637940">
        <ele>-31.4</ele>
        <time>2021-07-22T10:47:26Z</time>
      </trkpt>
      <trkpt lat="43.5453220" lon="-6.6639190">
        <ele>-32.0</ele>
        <time>2021-07-22T10:47:29Z</time>
      </trkpt>
      <trkpt lat="43.5453310" lon="-6.6639570">
        <ele>-32.4</ele>
        <time>2021-07-22T10:47:30Z</time>
      </trkpt>
      <trkpt lat="43.5453340" lon="-6.6639890">
        <ele>-32.8</ele>
        <time>2021-07-22T10:47:31Z</time>
      </trkpt>
      <trkpt lat="43.5453270" lon="-6.6640120">
        <ele>-33.2</ele>
        <time>2021-07-22T10:47:32Z</time>
      </trkpt>
      <trkpt lat="43.5453150" lon="-6.6640340">
        <ele>-33.6</ele>
        <time>2021-07-22T10:47:33Z</time>
      </trkpt>
      <trkpt lat="43.5452690" lon="-6.6640950">
        <ele>-33.6</ele>
        <time>2021-07-22T10:47:36Z</time>
      </trkpt>
      <trkpt lat="43.5452670" lon="-6.6641000">
        <ele>-33.6</ele>
        <time>2021-07-22T10:47:37Z</time>
      </trkpt>
      <trkpt lat="43.5452850" lon="-6.6644680">
        <ele>-37.8</ele>
        <time>2021-07-22T10:49:13Z</time>
      </trkpt>
      <trkpt lat="43.5452710" lon="-6.6644650">
        <ele>-37.8</ele>
        <time>2021-07-22T10:49:16Z</time>
      </trkpt>
      <trkpt lat="43.5454870" lon="-6.6647120">
        <ele>-37.8</ele>
        <time>2021-07-22T10:50:13Z</time>
      </trkpt>
      <trkpt lat="43.5455010" lon="-6.6647200">
        <ele>-37.8</ele>
        <time>2021-07-22T10:50:14Z</time>
      </trkpt>
      <trkpt lat="43.5455860" lon="-6.6647460">
        <ele>-37.4</ele>
        <time>2021-07-22T10:50:21Z</time>
      </trkpt>
      <trkpt lat="43.5455980" lon="-6.6647500">
        <ele>-36.8</ele>
        <time>2021-07-22T10:50:22Z</time>
      </trkpt>
      <trkpt lat="43.5456090" lon="-6.6647510">
        <ele>-36.4</ele>
        <time>2021-07-22T10:50:23Z</time>
      </trkpt>
      <trkpt lat="43.5456200" lon="-6.6647530">
        <ele>-36.0</ele>
        <time>2021-07-22T10:50:24Z</time>
      </trkpt>
      <trkpt lat="43.5456340" lon="-6.6647540">
        <ele>-35.6</ele>
        <time>2021-07-22T10:50:25Z</time>
      </trkpt>
      <trkpt lat="43.5456600" lon="-6.6647540">
        <ele>-35.6</ele>
        <time>2021-07-22T10:50:28Z</time>
      </trkpt>
      <trkpt lat="43.5456790" lon="-6.6647490">
        <ele>-35.6</ele>
        <time>2021-07-22T10:50:30Z</time>
      </trkpt>
      <trkpt lat="43.5456950" lon="-6.6647510">
        <ele>-35.6</ele>
        <time>2021-07-22T10:50:32Z</time>
      </trkpt>
      <trkpt lat="43.5456070" lon="-6.6649240">
        <ele>-29.4</ele>
        <time>2021-07-22T10:51:12Z</time>
      </trkpt>
      <trkpt lat="43.5455960" lon="-6.6649360">
        <ele>-29.4</ele>
        <time>2021-07-22T10:51:13Z</time>
      </trkpt>
      <trkpt lat="43.5455870" lon="-6.6649500">
        <ele>-29.4</ele>
        <time>2021-07-22T10:51:14Z</time>
      </trkpt>
      <trkpt lat="43.5455590" lon="-6.6650500">
        <ele>-29.0</ele>
        <time>2021-07-22T10:51:19Z</time>
      </trkpt>
      <trkpt lat="43.5455560" lon="-6.6650550">
        <ele>-28.6</ele>
        <time>2021-07-22T10:51:20Z</time>
      </trkpt>
      <trkpt lat="43.5455520" lon="-6.6650590">
        <ele>-28.2</ele>
        <time>2021-07-22T10:51:21Z</time>
      </trkpt>
      <trkpt lat="43.5455500" lon="-6.6650650">
        <ele>-27.6</ele>
        <time>2021-07-22T10:51:22Z</time>
      </trkpt>
      <trkpt lat="43.5456270" lon="-6.6656490">
        <ele>-18.6</ele>
        <time>2021-07-22T10:52:25Z</time>
      </trkpt>
      <trkpt lat="43.5456290" lon="-6.6656670">
        <ele>-18.2</ele>
        <time>2021-07-22T10:52:26Z</time>
      </trkpt>
      <trkpt lat="43.5456300" lon="-6.6656830">
        <ele>-17.8</ele>
        <time>2021-07-22T10:52:27Z</time>
      </trkpt>
      <trkpt lat="43.5456310" lon="-6.6657000">
        <ele>-17.4</ele>
        <time>2021-07-22T10:52:28Z</time>
      </trkpt>
      <trkpt lat="43.5456320" lon="-6.6657180">
        <ele>-17.0</ele>
        <time>2021-07-22T10:52:29Z</time>
      </trkpt>
      <trkpt lat="43.5456580" lon="-6.6658480">
        <ele>-17.0</ele>
        <time>2021-07-22T10:52:36Z</time>
      </trkpt>
      <trkpt lat="43.5456700" lon="-6.6659770">
        <ele>-16.6</ele>
        <time>2021-07-22T10:52:43Z</time>
      </trkpt>
      <trkpt lat="43.5456720" lon="-6.6659960">
        <ele>-16.2</ele>
        <time>2021-07-22T10:52:44Z</time>
      </trkpt>
      <trkpt lat="43.5456720" lon="-6.6660160">
        <ele>-15.8</ele>
        <time>2021-07-22T10:52:45Z</time>
      </trkpt>
      <trkpt lat="43.5456690" lon="-6.6660370">
        <ele>-15.0</ele>
        <time>2021-07-22T10:52:46Z</time>
      </trkpt>
      <trkpt lat="43.5456410" lon="-6.6661100">
        <ele>-15.0</ele>
        <time>2021-07-22T10:52:52Z</time>
      </trkpt>
      <trkpt lat="43.5456260" lon="-6.6661310">
        <ele>-15.0</ele>
        <time>2021-07-22T10:52:55Z</time>
      </trkpt>
      <trkpt lat="43.5456120" lon="-6.6661220">
        <ele>-15.0</ele>
        <time>2021-07-22T10:55:14Z</time>
      </trkpt>
      <trkpt lat="43.5455960" lon="-6.6661110">
        <ele>-15.0</ele>
        <time>2021-07-22T10:55:15Z</time>
      </trkpt>
      <trkpt lat="43.5455610" lon="-6.6660860">
        <ele>-15.0</ele>
        <time>2021-07-22T10:55:17Z</time>
      </trkpt>
      <trkpt lat="43.5454760" lon="-6.6660340">
        <ele>-15.0</ele>
        <time>2021-07-22T10:55:20Z</time>
      </trkpt>
      <trkpt lat="43.5454100" lon="-6.6659970">
        <ele>-15.0</ele>
        <time>2021-07-22T10:55:22Z</time>
      </trkpt>
      <trkpt lat="43.5452310" lon="-6.6659150">
        <ele>-15.0</ele>
        <time>2021-07-22T10:55:27Z</time>
      </trkpt>
      <trkpt lat="43.5450000" lon="-6.6658070">
        <ele>-15.0</ele>
        <time>2021-07-22T10:55:34Z</time>
      </trkpt>
      <trkpt lat="43.5449680" lon="-6.6657910">
        <ele>-15.0</ele>
        <time>2021-07-22T10:55:36Z</time>
      </trkpt>
      <trkpt lat="43.5449640" lon="-6.6657900">
        <ele>-15.0</ele>
        <time>2021-07-22T10:55:37Z</time>
      </trkpt>
      <trkpt lat="43.5449920" lon="-6.6658050">
        <ele>-15.0</ele>
        <time>2021-07-22T11:08:16Z</time>
      </trkpt>
      <trkpt lat="43.5449840" lon="-6.6658210">
        <ele>-15.0</ele>
        <time>2021-07-22T11:08:17Z</time>
      </trkpt>
      <trkpt lat="43.5449870" lon="-6.6658190">
        <ele>-15.0</ele>
        <time>2021-07-22T11:08:18Z</time>
      </trkpt>
      <trkpt lat="43.5450120" lon="-6.6658190">
        <ele>-15.0</ele>
        <time>2021-07-22T11:08:25Z</time>
      </trkpt>
      <trkpt lat="43.5450720" lon="-6.6658380">
        <ele>-15.0</ele>
        <time>2021-07-22T11:08:28Z</time>
      </trkpt>
      <trkpt lat="43.5451300" lon="-6.6658870">
        <ele>-15.0</ele>
        <time>2021-07-22T11:08:31Z</time>
      </trkpt>
      <trkpt lat="43.5451730" lon="-6.6659130">
        <ele>-15.0</ele>
        <time>2021-07-22T11:08:33Z</time>
      </trkpt>
      <trkpt lat="43.5452460" lon="-6.6659470">
        <ele>-15.0</ele>
        <time>2021-07-22T11:08:36Z</time>
      </trkpt>
      <trkpt lat="43.5452700" lon="-6.6659610">
        <ele>-15.0</ele>
        <time>2021-07-22T11:08:37Z</time>
      </trkpt>
      <trkpt lat="43.5453160" lon="-6.6659840">
        <ele>-15.0</ele>
        <time>2021-07-22T11:08:39Z</time>
      </trkpt>
      <trkpt lat="43.5454310" lon="-6.6660030">
        <ele>-15.0</ele>
        <time>2021-07-22T11:08:44Z</time>
      </trkpt>
      <trkpt lat="43.5454990" lon="-6.6661090">
        <ele>-15.0</ele>
        <time>2021-07-22T11:08:49Z</time>
      </trkpt>
      <trkpt lat="43.5454800" lon="-6.6663300">
        <ele>-15.0</ele>
        <time>2021-07-22T11:08:54Z</time>
      </trkpt>
      <trkpt lat="43.5454390" lon="-6.6664020">
        <ele>-14.4</ele>
        <time>2021-07-22T11:08:57Z</time>
      </trkpt>
      <trkpt lat="43.5454230" lon="-6.6664220">
        <ele>-14.0</ele>
        <time>2021-07-22T11:08:58Z</time>
      </trkpt>
      <trkpt lat="43.5454070" lon="-6.6664430">
        <ele>-13.6</ele>
        <time>2021-07-22T11:08:59Z</time>
      </trkpt>
      <trkpt lat="43.5453970" lon="-6.6664640">
        <ele>-13.0</ele>
        <time>2021-07-22T11:09:00Z</time>
      </trkpt>
      <trkpt lat="43.5453800" lon="-6.6664840">
        <ele>-12.6</ele>
        <time>2021-07-22T11:09:01Z</time>
      </trkpt>
      <trkpt lat="43.5453280" lon="-6.6665500">
        <ele>-12.6</ele>
        <time>2021-07-22T11:09:05Z</time>
      </trkpt>
      <trkpt lat="43.5453170" lon="-6.6665700">
        <ele>-12.2</ele>
        <time>2021-07-22T11:09:06Z</time>
      </trkpt>
      <trkpt lat="43.5453040" lon="-6.6665880">
        <ele>-11.8</ele>
        <time>2021-07-22T11:09:07Z</time>
      </trkpt>
      <trkpt lat="43.5452940" lon="-6.6666120">
        <ele>-11.2</ele>
        <time>2021-07-22T11:09:08Z</time>
      </trkpt>
      <trkpt lat="43.5452810" lon="-6.6666340">
        <ele>-10.8</ele>
        <time>2021-07-22T11:09:09Z</time>
      </trkpt>
      <trkpt lat="43.5452720" lon="-6.6666570">
        <ele>-10.4</ele>
        <time>2021-07-22T11:09:10Z</time>
      </trkpt>
      <trkpt lat="43.5452580" lon="-6.6666750">
        <ele>-10.4</ele>
        <time>2021-07-22T11:09:11Z</time>
      </trkpt>
      <trkpt lat="43.5452210" lon="-6.6667270">
        <ele>-10.4</ele>
        <time>2021-07-22T11:09:14Z</time>
      </trkpt>
      <trkpt lat="43.5451980" lon="-6.6667600">
        <ele>-10.0</ele>
        <time>2021-07-22T11:09:16Z</time>
      </trkpt>
      <trkpt lat="43.5451860" lon="-6.6667750">
        <ele>-9.6</ele>
        <time>2021-07-22T11:09:17Z</time>
      </trkpt>
      <trkpt lat="43.5451750" lon="-6.6667940">
        <ele>-9.2</ele>
        <time>2021-07-22T11:09:18Z</time>
      </trkpt>
      <trkpt lat="43.5451650" lon="-6.6668130">
        <ele>-8.6</ele>
        <time>2021-07-22T11:09:19Z</time>
      </trkpt>
      <trkpt lat="43.5451550" lon="-6.6668290">
        <ele>-8.2</ele>
        <time>2021-07-22T11:09:20Z</time>
      </trkpt>
      <trkpt lat="43.5451460" lon="-6.6668450">
        <ele>-8.2</ele>
        <time>2021-07-22T11:09:21Z</time>
      </trkpt>
      <trkpt lat="43.5451280" lon="-6.6668820">
        <ele>-8.2</ele>
        <time>2021-07-22T11:09:23Z</time>
      </trkpt>
      <trkpt lat="43.5450820" lon="-6.6669440">
        <ele>-7.8</ele>
        <time>2021-07-22T11:09:27Z</time>
      </trkpt>
      <trkpt lat="43.5450760" lon="-6.6669630">
        <ele>-7.4</ele>
        <time>2021-07-22T11:09:28Z</time>
      </trkpt>
      <trkpt lat="43.5450680" lon="-6.6669850">
        <ele>-7.0</ele>
        <time>2021-07-22T11:09:29Z</time>
      </trkpt>
      <trkpt lat="43.5450630" lon="-6.6670100">
        <ele>-6.6</ele>
        <time>2021-07-22T11:09:30Z</time>
      </trkpt>
      <trkpt lat="43.5450580" lon="-6.6670370">
        <ele>-6.2</ele>
        <time>2021-07-22T11:09:31Z</time>
      </trkpt>
      <trkpt lat="43.5450350" lon="-6.6671000">
        <ele>-6.2</ele>
        <time>2021-07-22T11:09:34Z</time>
      </trkpt>
      <trkpt lat="43.5450130" lon="-6.6672360">
        <ele>-5.8</ele>
        <time>2021-07-22T11:09:40Z</time>
      </trkpt>
      <trkpt lat="43.5450030" lon="-6.6672540">
        <ele>-5.0</ele>
        <time>2021-07-22T11:09:41Z</time>
      </trkpt>
      <trkpt lat="43.5449930" lon="-6.6672770">
        <ele>-4.6</ele>
        <time>2021-07-22T11:09:42Z</time>
      </trkpt>
      <trkpt lat="43.5449880" lon="-6.6672990">
        <ele>-4.2</ele>
        <time>2021-07-22T11:09:43Z</time>
      </trkpt>
      <trkpt lat="43.5449400" lon="-6.6674050">
        <ele>-4.2</ele>
        <time>2021-07-22T11:09:48Z</time>
      </trkpt>
      <trkpt lat="43.5449300" lon="-6.6674980">
        <ele>-3.8</ele>
        <time>2021-07-22T11:09:52Z</time>
      </trkpt>
      <trkpt lat="43.5449320" lon="-6.6675220">
        <ele>-3.4</ele>
        <time>2021-07-22T11:09:53Z</time>
      </trkpt>
      <trkpt lat="43.5449370" lon="-6.6675430">
        <ele>-3.0</ele>
        <time>2021-07-22T11:09:54Z</time>
      </trkpt>
      <trkpt lat="43.5449460" lon="-6.6675650">
        <ele>-2.6</ele>
        <time>2021-07-22T11:09:55Z</time>
      </trkpt>
      <trkpt lat="43.5449550" lon="-6.6675840">
        <ele>-2.2</ele>
        <time>2021-07-22T11:09:56Z</time>
      </trkpt>
      <trkpt lat="43.5450250" lon="-6.6677610">
        <ele>-2.2</ele>
        <time>2021-07-22T11:10:03Z</time>
      </trkpt>
      <trkpt lat="43.5451050" lon="-6.6679850">
        <ele>-2.2</ele>
        <time>2021-07-22T11:10:11Z</time>
      </trkpt>
      <trkpt lat="43.5451160" lon="-6.6681070">
        <ele>-1.8</ele>
        <time>2021-07-22T11:10:15Z</time>
      </trkpt>
      <trkpt lat="43.5451030" lon="-6.6681390">
        <ele>-1.4</ele>
        <time>2021-07-22T11:10:16Z</time>
      </trkpt>
      <trkpt lat="43.5450850" lon="-6.6681650">
        <ele>-0.8</ele>
        <time>2021-07-22T11:10:17Z</time>
      </trkpt>
      <trkpt lat="43.5450690" lon="-6.6681910">
        <ele>-0.4</ele>
        <time>2021-07-22T11:10:18Z</time>
      </trkpt>
      <trkpt lat="43.5450530" lon="-6.6682210">
        <ele>0.0</ele>
        <time>2021-07-22T11:10:19Z</time>
      </trkpt>
      <trkpt lat="43.5449550" lon="-6.6683840">
        <ele>0.0</ele>
        <time>2021-07-22T11:10:25Z</time>
      </trkpt>
      <trkpt lat="43.5448250" lon="-6.6686130">
        <ele>0.0</ele>
        <time>2021-07-22T11:10:33Z</time>
      </trkpt>
      <trkpt lat="43.5448100" lon="-6.6686450">
        <ele>0.0</ele>
        <time>2021-07-22T11:10:34Z</time>
      </trkpt>
      <trkpt lat="43.5447370" lon="-6.6687280">
        <ele>0.4</ele>
        <time>2021-07-22T11:10:38Z</time>
      </trkpt>
      <trkpt lat="43.5447170" lon="-6.6687430">
        <ele>0.8</ele>
        <time>2021-07-22T11:10:39Z</time>
      </trkpt>
      <trkpt lat="43.5447000" lon="-6.6687600">
        <ele>1.2</ele>
        <time>2021-07-22T11:10:40Z</time>
      </trkpt>
      <trkpt lat="43.5446800" lon="-6.6687740">
        <ele>1.6</ele>
        <time>2021-07-22T11:10:41Z</time>
      </trkpt>
      <trkpt lat="43.5446600" lon="-6.6687920">
        <ele>2.0</ele>
        <time>2021-07-22T11:10:42Z</time>
      </trkpt>
      <trkpt lat="43.5445510" lon="-6.6689300">
        <ele>2.0</ele>
        <time>2021-07-22T11:10:47Z</time>
      </trkpt>
      <trkpt lat="43.5444200" lon="-6.6691770">
        <ele>2.0</ele>
        <time>2021-07-22T11:10:54Z</time>
      </trkpt>
      <trkpt lat="43.5442810" lon="-6.6694610">
        <ele>2.0</ele>
        <time>2021-07-22T11:11:02Z</time>
      </trkpt>
      <trkpt lat="43.5442470" lon="-6.6695270">
        <ele>2.0</ele>
        <time>2021-07-22T11:11:04Z</time>
      </trkpt>
      <trkpt lat="43.5441930" lon="-6.6696290">
        <ele>2.4</ele>
        <time>2021-07-22T11:11:07Z</time>
      </trkpt>
      <trkpt lat="43.5441750" lon="-6.6696630">
        <ele>2.8</ele>
        <time>2021-07-22T11:11:08Z</time>
      </trkpt>
      <trkpt lat="43.5441620" lon="-6.6697000">
        <ele>3.2</ele>
        <time>2021-07-22T11:11:09Z</time>
      </trkpt>
      <trkpt lat="43.5441480" lon="-6.6697340">
        <ele>3.6</ele>
        <time>2021-07-22T11:11:10Z</time>
      </trkpt>
      <trkpt lat="43.5441360" lon="-6.6697670">
        <ele>4.0</ele>
        <time>2021-07-22T11:11:11Z</time>
      </trkpt>
      <trkpt lat="43.5441230" lon="-6.6698000">
        <ele>4.0</ele>
        <time>2021-07-22T11:11:12Z</time>
      </trkpt>
      <trkpt lat="43.5439940" lon="-6.6701180">
        <ele>4.0</ele>
        <time>2021-07-22T11:11:21Z</time>
      </trkpt>
      <trkpt lat="43.5438510" lon="-6.6704150">
        <ele>4.0</ele>
        <time>2021-07-22T11:11:30Z</time>
      </trkpt>
      <trkpt lat="43.5437640" lon="-6.6705770">
        <ele>4.6</ele>
        <time>2021-07-22T11:11:35Z</time>
      </trkpt>
      <trkpt lat="43.5437480" lon="-6.6706060">
        <ele>5.0</ele>
        <time>2021-07-22T11:11:36Z</time>
      </trkpt>
      <trkpt lat="43.5437290" lon="-6.6706340">
        <ele>5.4</ele>
        <time>2021-07-22T11:11:37Z</time>
      </trkpt>
      <trkpt lat="43.5437100" lon="-6.6706650">
        <ele>5.8</ele>
        <time>2021-07-22T11:11:38Z</time>
      </trkpt>
      <trkpt lat="43.5436910" lon="-6.6706970">
        <ele>6.2</ele>
        <time>2021-07-22T11:11:39Z</time>
      </trkpt>
      <trkpt lat="43.5435280" lon="-6.6710540">
        <ele>6.2</ele>
        <time>2021-07-22T11:11:49Z</time>
      </trkpt>
      <trkpt lat="43.5433860" lon="-6.6714050">
        <ele>6.2</ele>
        <time>2021-07-22T11:11:59Z</time>
      </trkpt>
      <trkpt lat="43.5433290" lon="-6.6716250">
        <ele>6.2</ele>
        <time>2021-07-22T11:12:06Z</time>
      </trkpt>
      <trkpt lat="43.5433500" lon="-6.6716750">
        <ele>6.2</ele>
        <time>2021-07-22T11:12:08Z</time>
      </trkpt>
      <trkpt lat="43.5434020" lon="-6.6717700">
        <ele>6.2</ele>
        <time>2021-07-22T11:12:11Z</time>
      </trkpt>
      <trkpt lat="43.5435270" lon="-6.6718780">
        <ele>6.2</ele>
        <time>2021-07-22T11:12:15Z</time>
      </trkpt>
      <trkpt lat="43.5435740" lon="-6.6718900">
        <ele>6.2</ele>
        <time>2021-07-22T11:12:16Z</time>
      </trkpt>
      <trkpt lat="43.5437380" lon="-6.6719260">
        <ele>6.2</ele>
        <time>2021-07-22T11:12:19Z</time>
      </trkpt>
      <trkpt lat="43.5438860" lon="-6.6719620">
        <ele>6.2</ele>
        <time>2021-07-22T11:12:22Z</time>
      </trkpt>
      <trkpt lat="43.5440270" lon="-6.6719980">
        <ele>6.2</ele>
        <time>2021-07-22T11:12:25Z</time>
      </trkpt>
      <trkpt lat="43.5442090" lon="-6.6720460">
        <ele>5.8</ele>
        <time>2021-07-22T11:12:29Z</time>
      </trkpt>
      <trkpt lat="43.5442520" lon="-6.6720610">
        <ele>5.4</ele>
        <time>2021-07-22T11:12:30Z</time>
      </trkpt>
      <trkpt lat="43.5442950" lon="-6.6720810">
        <ele>5.0</ele>
        <time>2021-07-22T11:12:31Z</time>
      </trkpt>
      <trkpt lat="43.5443370" lon="-6.6721000">
        <ele>4.6</ele>
        <time>2021-07-22T11:12:32Z</time>
      </trkpt>
      <trkpt lat="43.5443760" lon="-6.6721260">
        <ele>4.2</ele>
        <time>2021-07-22T11:12:33Z</time>
      </trkpt>
      <trkpt lat="43.5445070" lon="-6.6722340">
        <ele>4.2</ele>
        <time>2021-07-22T11:12:37Z</time>
      </trkpt>
      <trkpt lat="43.5446090" lon="-6.6723120">
        <ele>4.2</ele>
        <time>2021-07-22T11:12:41Z</time>
      </trkpt>
      <trkpt lat="43.5446840" lon="-6.6723350">
        <ele>4.2</ele>
        <time>2021-07-22T11:12:43Z</time>
      </trkpt>
      <trkpt lat="43.5447560" lon="-6.6723220">
        <ele>3.6</ele>
        <time>2021-07-22T11:12:45Z</time>
      </trkpt>
      <trkpt lat="43.5447840" lon="-6.6723160">
        <ele>3.2</ele>
        <time>2021-07-22T11:12:46Z</time>
      </trkpt>
      <trkpt lat="43.5448040" lon="-6.6723090">
        <ele>2.8</ele>
        <time>2021-07-22T11:12:47Z</time>
      </trkpt>
      <trkpt lat="43.5448190" lon="-6.6723010">
        <ele>2.0</ele>
        <time>2021-07-22T11:12:48Z</time>
      </trkpt>
      <trkpt lat="43.5448290" lon="-6.6723010">
        <ele>1.4</ele>
        <time>2021-07-22T11:12:49Z</time>
      </trkpt>
      <trkpt lat="43.5448400" lon="-6.6723060">
        <ele>0.8</ele>
        <time>2021-07-22T11:12:50Z</time>
      </trkpt>
      <trkpt lat="43.5448470" lon="-6.6723130">
        <ele>0.0</ele>
        <time>2021-07-22T11:12:51Z</time>
      </trkpt>
      <trkpt lat="43.5448450" lon="-6.6723230">
        <ele>-0.6</ele>
        <time>2021-07-22T11:12:52Z</time>
      </trkpt>
      <trkpt lat="43.5448450" lon="-6.6723210">
        <ele>-0.6</ele>
        <time>2021-07-22T11:12:53Z</time>
      </trkpt>
      <trkpt lat="43.5448280" lon="-6.6723520">
        <ele>-0.6</ele>
        <time>2021-07-22T11:12:56Z</time>
      </trkpt>
      <trkpt lat="43.5448090" lon="-6.6723960">
        <ele>-0.6</ele>
        <time>2021-07-22T11:12:58Z</time>
      </trkpt>
      <trkpt lat="43.5447860" lon="-6.6724290">
        <ele>-1.6</ele>
        <time>2021-07-22T11:12:59Z</time>
      </trkpt>
      <trkpt lat="43.5447610" lon="-6.6724610">
        <ele>-2.0</ele>
        <time>2021-07-22T11:13:00Z</time>
      </trkpt>
      <trkpt lat="43.5447290" lon="-6.6724880">
        <ele>-2.4</ele>
        <time>2021-07-22T11:13:01Z</time>
      </trkpt>
      <trkpt lat="43.5446880" lon="-6.6725120">
        <ele>-2.8</ele>
        <time>2021-07-22T11:13:02Z</time>
      </trkpt>
      <trkpt lat="43.5446640" lon="-6.6725410">
        <ele>-3.2</ele>
        <time>2021-07-22T11:13:03Z</time>
      </trkpt>
      <trkpt lat="43.5446430" lon="-6.6725670">
        <ele>-3.6</ele>
        <time>2021-07-22T11:13:04Z</time>
      </trkpt>
      <trkpt lat="43.5446200" lon="-6.6725790">
        <ele>-4.0</ele>
        <time>2021-07-22T11:13:05Z</time>
      </trkpt>
      <trkpt lat="43.5446000" lon="-6.6725900">
        <ele>-4.6</ele>
        <time>2021-07-22T11:13:06Z</time>
      </trkpt>
      <trkpt lat="43.5445820" lon="-6.6726010">
        <ele>-5.0</ele>
        <time>2021-07-22T11:13:07Z</time>
      </trkpt>
      <trkpt lat="43.5445480" lon="-6.6726340">
        <ele>-5.0</ele>
        <time>2021-07-22T11:13:09Z</time>
      </trkpt>
      <trkpt lat="43.5445000" lon="-6.6727080">
        <ele>-5.0</ele>
        <time>2021-07-22T11:13:12Z</time>
      </trkpt>
      <trkpt lat="43.5444110" lon="-6.6728500">
        <ele>-5.0</ele>
        <time>2021-07-22T11:13:19Z</time>
      </trkpt>
      <trkpt lat="43.5443350" lon="-6.6730100">
        <ele>-5.0</ele>
        <time>2021-07-22T11:13:25Z</time>
      </trkpt>
      <trkpt lat="43.5443430" lon="-6.6730840">
        <ele>-5.0</ele>
        <time>2021-07-22T11:13:27Z</time>
      </trkpt>
      <trkpt lat="43.5443580" lon="-6.6731490">
        <ele>-5.0</ele>
        <time>2021-07-22T11:13:29Z</time>
      </trkpt>
      <trkpt lat="43.5444000" lon="-6.6732100">
        <ele>-5.0</ele>
        <time>2021-07-22T11:13:34Z</time>
      </trkpt>
      <trkpt lat="43.5444100" lon="-6.6732160">
        <ele>-7.0</ele>
        <time>2021-07-22T11:14:04Z</time>
      </trkpt>
      <trkpt lat="43.5444290" lon="-6.6732240">
        <ele>-7.0</ele>
        <time>2021-07-22T11:14:05Z</time>
      </trkpt>
      <trkpt lat="43.5444430" lon="-6.6732270">
        <ele>-7.0</ele>
        <time>2021-07-22T11:14:07Z</time>
      </trkpt>
      <trkpt lat="43.5444840" lon="-6.6732520">
        <ele>-7.0</ele>
        <time>2021-07-22T11:14:15Z</time>
      </trkpt>
      <trkpt lat="43.5445340" lon="-6.6733400">
        <ele>-7.0</ele>
        <time>2021-07-22T11:14:18Z</time>
      </trkpt>
      <trkpt lat="43.5445750" lon="-6.6734240">
        <ele>-7.0</ele>
        <time>2021-07-22T11:14:20Z</time>
      </trkpt>
      <trkpt lat="43.5446360" lon="-6.6735470">
        <ele>-7.4</ele>
        <time>2021-07-22T11:14:23Z</time>
      </trkpt>
      <trkpt lat="43.5446560" lon="-6.6735870">
        <ele>-7.8</ele>
        <time>2021-07-22T11:14:24Z</time>
      </trkpt>
      <trkpt lat="43.5446740" lon="-6.6736240">
        <ele>-8.4</ele>
        <time>2021-07-22T11:14:25Z</time>
      </trkpt>
      <trkpt lat="43.5446940" lon="-6.6736530">
        <ele>-8.8</ele>
        <time>2021-07-22T11:14:26Z</time>
      </trkpt>
      <trkpt lat="43.5447110" lon="-6.6736810">
        <ele>-9.2</ele>
        <time>2021-07-22T11:14:27Z</time>
      </trkpt>
      <trkpt lat="43.5447230" lon="-6.6737050">
        <ele>-9.8</ele>
        <time>2021-07-22T11:14:28Z</time>
      </trkpt>
      <trkpt lat="43.5447360" lon="-6.6737200">
        <ele>-10.2</ele>
        <time>2021-07-22T11:14:29Z</time>
      </trkpt>
      <trkpt lat="43.5447450" lon="-6.6737320">
        <ele>-10.6</ele>
        <time>2021-07-22T11:14:30Z</time>
      </trkpt>
      <trkpt lat="43.5447500" lon="-6.6737390">
        <ele>-11.2</ele>
        <time>2021-07-22T11:14:31Z</time>
      </trkpt>
      <trkpt lat="43.5447470" lon="-6.6737380">
        <ele>-11.6</ele>
        <time>2021-07-22T11:14:32Z</time>
      </trkpt>
      <trkpt lat="43.5447480" lon="-6.6737410">
        <ele>-11.6</ele>
        <time>2021-07-22T11:14:33Z</time>
      </trkpt>
      <trkpt lat="43.5447650" lon="-6.6738410">
        <ele>-13.6</ele>
        <time>2021-07-22T11:17:25Z</time>
      </trkpt>
      <trkpt lat="43.5447670" lon="-6.6738710">
        <ele>-13.6</ele>
        <time>2021-07-22T11:17:26Z</time>
      </trkpt>
      <trkpt lat="43.5447680" lon="-6.6739440">
        <ele>-13.6</ele>
        <time>2021-07-22T11:17:28Z</time>
      </trkpt>
      <trkpt lat="43.5447400" lon="-6.6740180">
        <ele>-13.6</ele>
        <time>2021-07-22T11:17:30Z</time>
      </trkpt>
      <trkpt lat="43.5446690" lon="-6.6741140">
        <ele>-13.6</ele>
        <time>2021-07-22T11:17:33Z</time>
      </trkpt>
      <trkpt lat="43.5446150" lon="-6.6742040">
        <ele>-13.6</ele>
        <time>2021-07-22T11:17:35Z</time>
      </trkpt>
      <trkpt lat="43.5444890" lon="-6.6744070">
        <ele>-13.6</ele>
        <time>2021-07-22T11:17:40Z</time>
      </trkpt>
      <trkpt lat="43.5444380" lon="-6.6744790">
        <ele>-13.6</ele>
        <time>2021-07-22T11:17:42Z</time>
      </trkpt>
      <trkpt lat="43.5443940" lon="-6.6745440">
        <ele>-13.6</ele>
        <time>2021-07-22T11:17:44Z</time>
      </trkpt>
      <trkpt lat="43.5442770" lon="-6.6747080">
        <ele>-13.6</ele>
        <time>2021-07-22T11:17:49Z</time>
      </trkpt>
      <trkpt lat="43.5442180" lon="-6.6747840">
        <ele>-13.6</ele>
        <time>2021-07-22T11:17:51Z</time>
      </trkpt>
      <trkpt lat="43.5441600" lon="-6.6748700">
        <ele>-13.6</ele>
        <time>2021-07-22T11:17:53Z</time>
      </trkpt>
      <trkpt lat="43.5441240" lon="-6.6749030">
        <ele>-13.6</ele>
        <time>2021-07-22T11:17:54Z</time>
      </trkpt>
      <trkpt lat="43.5440940" lon="-6.6749450">
        <ele>-13.6</ele>
        <time>2021-07-22T11:17:55Z</time>
      </trkpt>
      <trkpt lat="43.5438540" lon="-6.6751750">
        <ele>-13.6</ele>
        <time>2021-07-22T11:18:02Z</time>
      </trkpt>
      <trkpt lat="43.5438110" lon="-6.6752020">
        <ele>-13.6</ele>
        <time>2021-07-22T11:18:03Z</time>
      </trkpt>
      <trkpt lat="43.5436630" lon="-6.6753010">
        <ele>-13.6</ele>
        <time>2021-07-22T11:18:06Z</time>
      </trkpt>
      <trkpt lat="43.5435600" lon="-6.6753560">
        <ele>-13.6</ele>
        <time>2021-07-22T11:18:08Z</time>
      </trkpt>
      <trkpt lat="43.5431460" lon="-6.6754990">
        <ele>-13.6</ele>
        <time>2021-07-22T11:18:16Z</time>
      </trkpt>
      <trkpt lat="43.5429410" lon="-6.6755580">
        <ele>-13.6</ele>
        <time>2021-07-22T11:18:20Z</time>
      </trkpt>
      <trkpt lat="43.5428390" lon="-6.6755820">
        <ele>-13.6</ele>
        <time>2021-07-22T11:18:22Z</time>
      </trkpt>
      <trkpt lat="43.5427370" lon="-6.6756060">
        <ele>-13.6</ele>
        <time>2021-07-22T11:18:24Z</time>
      </trkpt>
      <trkpt lat="43.5426890" lon="-6.6756140">
        <ele>-13.6</ele>
        <time>2021-07-22T11:18:25Z</time>
      </trkpt>
      <trkpt lat="43.5425880" lon="-6.6756420">
        <ele>-13.6</ele>
        <time>2021-07-22T11:18:27Z</time>
      </trkpt>
      <trkpt lat="43.5425400" lon="-6.6756550">
        <ele>-13.6</ele>
        <time>2021-07-22T11:18:28Z</time>
      </trkpt>
      <trkpt lat="43.5422960" lon="-6.6757520">
        <ele>-13.6</ele>
        <time>2021-07-22T11:18:33Z</time>
      </trkpt>
      <trkpt lat="43.5422040" lon="-6.6758010">
        <ele>-14.0</ele>
        <time>2021-07-22T11:18:35Z</time>
      </trkpt>
      <trkpt lat="43.5421590" lon="-6.6758300">
        <ele>-14.4</ele>
        <time>2021-07-22T11:18:36Z</time>
      </trkpt>
      <trkpt lat="43.5421130" lon="-6.6758590">
        <ele>-14.8</ele>
        <time>2021-07-22T11:18:37Z</time>
      </trkpt>
      <trkpt lat="43.5420670" lon="-6.6758900">
        <ele>-15.2</ele>
        <time>2021-07-22T11:18:38Z</time>
      </trkpt>
      <trkpt lat="43.5420220" lon="-6.6759260">
        <ele>-15.6</ele>
        <time>2021-07-22T11:18:39Z</time>
      </trkpt>
      <trkpt lat="43.5419280" lon="-6.6760000">
        <ele>-15.6</ele>
        <time>2021-07-22T11:18:41Z</time>
      </trkpt>
      <trkpt lat="43.5416980" lon="-6.6761980">
        <ele>-15.6</ele>
        <time>2021-07-22T11:18:46Z</time>
      </trkpt>
      <trkpt lat="43.5416010" lon="-6.6762900">
        <ele>-15.6</ele>
        <time>2021-07-22T11:18:48Z</time>
      </trkpt>
      <trkpt lat="43.5415030" lon="-6.6763830">
        <ele>-15.6</ele>
        <time>2021-07-22T11:18:50Z</time>
      </trkpt>
      <trkpt lat="43.5413150" lon="-6.6765700">
        <ele>-15.6</ele>
        <time>2021-07-22T11:18:54Z</time>
      </trkpt>
      <trkpt lat="43.5412830" lon="-6.6765970">
        <ele>-16.2</ele>
        <time>2021-07-22T11:18:55Z</time>
      </trkpt>
      <trkpt lat="43.5412600" lon="-6.6766140">
        <ele>-16.6</ele>
        <time>2021-07-22T11:18:56Z</time>
      </trkpt>
      <trkpt lat="43.5412490" lon="-6.6766210">
        <ele>-17.2</ele>
        <time>2021-07-22T11:18:57Z</time>
      </trkpt>
      <trkpt lat="43.5412460" lon="-6.6766220">
        <ele>-17.8</ele>
        <time>2021-07-22T11:18:58Z</time>
      </trkpt>
      <trkpt lat="43.5412740" lon="-6.6765790">
        <ele>-18.2</ele>
        <time>2021-07-22T11:19:03Z</time>
      </trkpt>
      <trkpt lat="43.5413010" lon="-6.6765730">
        <ele>-18.2</ele>
        <time>2021-07-22T11:19:05Z</time>
      </trkpt>
      <trkpt lat="43.5413290" lon="-6.6765520">
        <ele>-18.2</ele>
        <time>2021-07-22T11:19:07Z</time>
      </trkpt>
      <trkpt lat="43.5413420" lon="-6.6765380">
        <ele>-18.2</ele>
        <time>2021-07-22T11:19:08Z</time>
      </trkpt>
      <trkpt lat="43.5413860" lon="-6.6764970">
        <ele>-18.2</ele>
        <time>2021-07-22T11:19:10Z</time>
      </trkpt>
      <trkpt lat="43.5414560" lon="-6.6764300">
        <ele>-18.2</ele>
        <time>2021-07-22T11:19:13Z</time>
      </trkpt>
      <trkpt lat="43.5415640" lon="-6.6763370">
        <ele>-18.2</ele>
        <time>2021-07-22T11:19:19Z</time>
      </trkpt>
      <trkpt lat="43.5415780" lon="-6.6763340">
        <ele>-18.2</ele>
        <time>2021-07-22T11:19:21Z</time>
      </trkpt>
      <trkpt lat="43.5415830" lon="-6.6763630">
        <ele>-18.2</ele>
        <time>2021-07-22T11:19:34Z</time>
      </trkpt>
      <trkpt lat="43.5415850" lon="-6.6763890">
        <ele>-18.2</ele>
        <time>2021-07-22T11:19:35Z</time>
      </trkpt>
      <trkpt lat="43.5415740" lon="-6.6764580">
        <ele>-18.2</ele>
        <time>2021-07-22T11:19:39Z</time>
      </trkpt>
      <trkpt lat="43.5415720" lon="-6.6764740">
        <ele>-18.2</ele>
        <time>2021-07-22T11:19:40Z</time>
      </trkpt>
      <trkpt lat="43.5415690" lon="-6.6765150">
        <ele>-18.2</ele>
        <time>2021-07-22T11:19:42Z</time>
      </trkpt>
      <trkpt lat="43.5415990" lon="-6.6765480">
        <ele>-18.2</ele>
        <time>2021-07-22T11:19:44Z</time>
      </trkpt>
      <trkpt lat="43.5416260" lon="-6.6765550">
        <ele>-18.8</ele>
        <time>2021-07-22T11:19:45Z</time>
      </trkpt>
      <trkpt lat="43.5416540" lon="-6.6765540">
        <ele>-19.2</ele>
        <time>2021-07-22T11:19:46Z</time>
      </trkpt>
      <trkpt lat="43.5416820" lon="-6.6765470">
        <ele>-19.6</ele>
        <time>2021-07-22T11:19:47Z</time>
      </trkpt>
      <trkpt lat="43.5417120" lon="-6.6765350">
        <ele>-20.2</ele>
        <time>2021-07-22T11:19:48Z</time>
      </trkpt>
      <trkpt lat="43.5417440" lon="-6.6765240">
        <ele>-20.6</ele>
        <time>2021-07-22T11:19:49Z</time>
      </trkpt>
      <trkpt lat="43.5417750" lon="-6.6765180">
        <ele>-21.2</ele>
        <time>2021-07-22T11:19:50Z</time>
      </trkpt>
      <trkpt lat="43.5418030" lon="-6.6765120">
        <ele>-21.6</ele>
        <time>2021-07-22T11:19:51Z</time>
      </trkpt>
      <trkpt lat="43.5418270" lon="-6.6765070">
        <ele>-22.2</ele>
        <time>2021-07-22T11:19:52Z</time>
      </trkpt>
      <trkpt lat="43.5418550" lon="-6.6765150">
        <ele>-22.6</ele>
        <time>2021-07-22T11:19:53Z</time>
      </trkpt>
      <trkpt lat="43.5418800" lon="-6.6765300">
        <ele>-23.2</ele>
        <time>2021-07-22T11:19:54Z</time>
      </trkpt>
      <trkpt lat="43.5418980" lon="-6.6765490">
        <ele>-23.6</ele>
        <time>2021-07-22T11:19:55Z</time>
      </trkpt>
      <trkpt lat="43.5419140" lon="-6.6765720">
        <ele>-24.2</ele>
        <time>2021-07-22T11:19:56Z</time>
      </trkpt>
      <trkpt lat="43.5419260" lon="-6.6765950">
        <ele>-24.8</ele>
        <time>2021-07-22T11:19:57Z</time>
      </trkpt>
      <trkpt lat="43.5419330" lon="-6.6766200">
        <ele>-25.2</ele>
        <time>2021-07-22T11:19:58Z</time>
      </trkpt>
      <trkpt lat="43.5419340" lon="-6.6766500">
        <ele>-26.2</ele>
        <time>2021-07-22T11:19:59Z</time>
      </trkpt>
      <trkpt lat="43.5419330" lon="-6.6766820">
        <ele>-26.6</ele>
        <time>2021-07-22T11:20:00Z</time>
      </trkpt>
      <trkpt lat="43.5419330" lon="-6.6767230">
        <ele>-27.0</ele>
        <time>2021-07-22T11:20:01Z</time>
      </trkpt>
      <trkpt lat="43.5419320" lon="-6.6767630">
        <ele>-27.4</ele>
        <time>2021-07-22T11:20:02Z</time>
      </trkpt>
      <trkpt lat="43.5419300" lon="-6.6767940">
        <ele>-27.4</ele>
        <time>2021-07-22T11:20:03Z</time>
      </trkpt>
      <trkpt lat="43.5419260" lon="-6.6768250">
        <ele>-27.4</ele>
        <time>2021-07-22T11:20:04Z</time>
      </trkpt>
      <trkpt lat="43.5418860" lon="-6.6769390">
        <ele>-27.4</ele>
        <time>2021-07-22T11:20:08Z</time>
      </trkpt>
      <trkpt lat="43.5418790" lon="-6.6769580">
        <ele>-27.4</ele>
        <time>2021-07-22T11:20:09Z</time>
      </trkpt>
      <trkpt lat="43.5418510" lon="-6.6770020">
        <ele>-27.4</ele>
        <time>2021-07-22T11:20:12Z</time>
      </trkpt>
      <trkpt lat="43.5418250" lon="-6.6770430">
        <ele>-27.4</ele>
        <time>2021-07-22T11:20:15Z</time>
      </trkpt>
      <trkpt lat="43.5417950" lon="-6.6770860">
        <ele>-27.4</ele>
        <time>2021-07-22T11:20:17Z</time>
      </trkpt>
      <trkpt lat="43.5417780" lon="-6.6771480">
        <ele>-27.4</ele>
        <time>2021-07-22T11:20:19Z</time>
      </trkpt>
      <trkpt lat="43.5417740" lon="-6.6771780">
        <ele>-27.4</ele>
        <time>2021-07-22T11:20:20Z</time>
      </trkpt>
      <trkpt lat="43.5417580" lon="-6.6772300">
        <ele>-27.4</ele>
        <time>2021-07-22T11:20:22Z</time>
      </trkpt>
      <trkpt lat="43.5417560" lon="-6.6772430">
        <ele>-27.4</ele>
        <time>2021-07-22T11:20:23Z</time>
      </trkpt>
      <trkpt lat="43.5414980" lon="-6.6777060">
        <ele>-21.0</ele>
        <time>2021-07-22T11:21:13Z</time>
      </trkpt>
      <trkpt lat="43.5414950" lon="-6.6777240">
        <ele>-21.0</ele>
        <time>2021-07-22T11:21:14Z</time>
      </trkpt>
      <trkpt lat="43.5414460" lon="-6.6778430">
        <ele>-20.6</ele>
        <time>2021-07-22T11:21:21Z</time>
      </trkpt>
      <trkpt lat="43.5414370" lon="-6.6778610">
        <ele>-20.2</ele>
        <time>2021-07-22T11:21:22Z</time>
      </trkpt>
      <trkpt lat="43.5414340" lon="-6.6778790">
        <ele>-19.8</ele>
        <time>2021-07-22T11:21:23Z</time>
      </trkpt>
      <trkpt lat="43.5414330" lon="-6.6778970">
        <ele>-19.4</ele>
        <time>2021-07-22T11:21:24Z</time>
      </trkpt>
      <trkpt lat="43.5414300" lon="-6.6779120">
        <ele>-19.0</ele>
        <time>2021-07-22T11:21:25Z</time>
      </trkpt>
      <trkpt lat="43.5414110" lon="-6.6779690">
        <ele>-19.0</ele>
        <time>2021-07-22T11:21:29Z</time>
      </trkpt>
      <trkpt lat="43.5413720" lon="-6.6781240">
        <ele>-19.0</ele>
        <time>2021-07-22T11:21:38Z</time>
      </trkpt>
      <trkpt lat="43.5413360" lon="-6.6782920">
        <ele>-19.0</ele>
        <time>2021-07-22T11:21:47Z</time>
      </trkpt>
      <trkpt lat="43.5413330" lon="-6.6783120">
        <ele>-18.6</ele>
        <time>2021-07-22T11:21:48Z</time>
      </trkpt>
      <trkpt lat="43.5413300" lon="-6.6783300">
        <ele>-18.2</ele>
        <time>2021-07-22T11:21:49Z</time>
      </trkpt>
      <trkpt lat="43.5413280" lon="-6.6783470">
        <ele>-17.8</ele>
        <time>2021-07-22T11:21:50Z</time>
      </trkpt>
      <trkpt lat="43.5413270" lon="-6.6783610">
        <ele>-17.4</ele>
        <time>2021-07-22T11:21:51Z</time>
      </trkpt>
      <trkpt lat="43.5413250" lon="-6.6783750">
        <ele>-17.0</ele>
        <time>2021-07-22T11:21:52Z</time>
      </trkpt>
      <trkpt lat="43.5413270" lon="-6.6784420">
        <ele>-17.0</ele>
        <time>2021-07-22T11:21:56Z</time>
      </trkpt>
      <trkpt lat="43.5413270" lon="-6.6784840">
        <ele>-17.0</ele>
        <time>2021-07-22T11:22:00Z</time>
      </trkpt>
      <trkpt lat="43.5413270" lon="-6.6785030">
        <ele>-17.0</ele>
        <time>2021-07-22T11:22:02Z</time>
      </trkpt>
      <trkpt lat="43.5413260" lon="-6.6785040">
        <ele>-17.0</ele>
        <time>2021-07-22T11:22:03Z</time>
      </trkpt>
      <trkpt lat="43.5413240" lon="-6.6785550">
        <ele>-17.0</ele>
        <time>2021-07-22T11:22:08Z</time>
      </trkpt>
      <trkpt lat="43.5413230" lon="-6.6785950">
        <ele>-17.0</ele>
        <time>2021-07-22T11:22:10Z</time>
      </trkpt>
      <trkpt lat="43.5412920" lon="-6.6787400">
        <ele>-17.0</ele>
        <time>2021-07-22T11:22:16Z</time>
      </trkpt>
      <trkpt lat="43.5412850" lon="-6.6787630">
        <ele>-16.6</ele>
        <time>2021-07-22T11:22:17Z</time>
      </trkpt>
      <trkpt lat="43.5412750" lon="-6.6787840">
        <ele>-16.2</ele>
        <time>2021-07-22T11:22:18Z</time>
      </trkpt>
      <trkpt lat="43.5412640" lon="-6.6788030">
        <ele>-15.6</ele>
        <time>2021-07-22T11:22:19Z</time>
      </trkpt>
      <trkpt lat="43.5412510" lon="-6.6788210">
        <ele>-15.2</ele>
        <time>2021-07-22T11:22:20Z</time>
      </trkpt>
      <trkpt lat="43.5412400" lon="-6.6788390">
        <ele>-14.8</ele>
        <time>2021-07-22T11:22:21Z</time>
      </trkpt>
      <trkpt lat="43.5412100" lon="-6.6788680">
        <ele>-14.8</ele>
        <time>2021-07-22T11:22:23Z</time>
      </trkpt>
      <trkpt lat="43.5411100" lon="-6.6789610">
        <ele>-14.8</ele>
        <time>2021-07-22T11:22:28Z</time>
      </trkpt>
      <trkpt lat="43.5409600" lon="-6.6791190">
        <ele>-14.8</ele>
        <time>2021-07-22T11:22:35Z</time>
      </trkpt>
      <trkpt lat="43.5407940" lon="-6.6792360">
        <ele>-14.8</ele>
        <time>2021-07-22T11:22:41Z</time>
      </trkpt>
      <trkpt lat="43.5407630" lon="-6.6792500">
        <ele>-14.4</ele>
        <time>2021-07-22T11:22:42Z</time>
      </trkpt>
      <trkpt lat="43.5407300" lon="-6.6792610">
        <ele>-14.0</ele>
        <time>2021-07-22T11:22:43Z</time>
      </trkpt>
      <trkpt lat="43.5406950" lon="-6.6792720">
        <ele>-13.6</ele>
        <time>2021-07-22T11:22:44Z</time>
      </trkpt>
      <trkpt lat="43.5406620" lon="-6.6792790">
        <ele>-13.2</ele>
        <time>2021-07-22T11:22:45Z</time>
      </trkpt>
      <trkpt lat="43.5406310" lon="-6.6792870">
        <ele>-12.8</ele>
        <time>2021-07-22T11:22:46Z</time>
      </trkpt>
      <trkpt lat="43.5405710" lon="-6.6793010">
        <ele>-12.8</ele>
        <time>2021-07-22T11:22:48Z</time>
      </trkpt>
      <trkpt lat="43.5403290" lon="-6.6793500">
        <ele>-12.8</ele>
        <time>2021-07-22T11:22:56Z</time>
      </trkpt>
      <trkpt lat="43.5401660" lon="-6.6793890">
        <ele>-12.8</ele>
        <time>2021-07-22T11:23:02Z</time>
      </trkpt>
      <trkpt lat="43.5401390" lon="-6.6793940">
        <ele>-12.4</ele>
        <time>2021-07-22T11:23:03Z</time>
      </trkpt>
      <trkpt lat="43.5401130" lon="-6.6794000">
        <ele>-12.0</ele>
        <time>2021-07-22T11:23:04Z</time>
      </trkpt>
      <trkpt lat="43.5400860" lon="-6.6794050">
        <ele>-11.6</ele>
        <time>2021-07-22T11:23:05Z</time>
      </trkpt>
      <trkpt lat="43.5400590" lon="-6.6794130">
        <ele>-11.2</ele>
        <time>2021-07-22T11:23:06Z</time>
      </trkpt>
      <trkpt lat="43.5400350" lon="-6.6794200">
        <ele>-10.8</ele>
        <time>2021-07-22T11:23:07Z</time>
      </trkpt>
      <trkpt lat="43.5400130" lon="-6.6794260">
        <ele>-10.8</ele>
        <time>2021-07-22T11:23:08Z</time>
      </trkpt>
      <trkpt lat="43.5398720" lon="-6.6794780">
        <ele>-10.8</ele>
        <time>2021-07-22T11:23:14Z</time>
      </trkpt>
      <trkpt lat="43.5397390" lon="-6.6795230">
        <ele>-10.8</ele>
        <time>2021-07-22T11:23:20Z</time>
      </trkpt>
      <trkpt lat="43.5397160" lon="-6.6795280">
        <ele>-10.4</ele>
        <time>2021-07-22T11:23:21Z</time>
      </trkpt>
      <trkpt lat="43.5396930" lon="-6.6795420">
        <ele>-10.0</ele>
        <time>2021-07-22T11:23:22Z</time>
      </trkpt>
      <trkpt lat="43.5396710" lon="-6.6795570">
        <ele>-9.6</ele>
        <time>2021-07-22T11:23:23Z</time>
      </trkpt>
      <trkpt lat="43.5396490" lon="-6.6795690">
        <ele>-9.2</ele>
        <time>2021-07-22T11:23:24Z</time>
      </trkpt>
      <trkpt lat="43.5396250" lon="-6.6795820">
        <ele>-8.6</ele>
        <time>2021-07-22T11:23:25Z</time>
      </trkpt>
      <trkpt lat="43.5394520" lon="-6.6796980">
        <ele>-8.6</ele>
        <time>2021-07-22T11:23:32Z</time>
      </trkpt>
      <trkpt lat="43.5393200" lon="-6.6798330">
        <ele>-8.6</ele>
        <time>2021-07-22T11:23:38Z</time>
      </trkpt>
      <trkpt lat="43.5392140" lon="-6.6799510">
        <ele>-8.2</ele>
        <time>2021-07-22T11:23:43Z</time>
      </trkpt>
      <trkpt lat="43.5391920" lon="-6.6799720">
        <ele>-7.8</ele>
        <time>2021-07-22T11:23:44Z</time>
      </trkpt>
      <trkpt lat="43.5391690" lon="-6.6799930">
        <ele>-7.4</ele>
        <time>2021-07-22T11:23:45Z</time>
      </trkpt>
      <trkpt lat="43.5391470" lon="-6.6800120">
        <ele>-7.0</ele>
        <time>2021-07-22T11:23:46Z</time>
      </trkpt>
      <trkpt lat="43.5391230" lon="-6.6800330">
        <ele>-6.6</ele>
        <time>2021-07-22T11:23:47Z</time>
      </trkpt>
      <trkpt lat="43.5390290" lon="-6.6801180">
        <ele>-6.6</ele>
        <time>2021-07-22T11:23:51Z</time>
      </trkpt>
      <trkpt lat="43.5388750" lon="-6.6802860">
        <ele>-6.2</ele>
        <time>2021-07-22T11:23:59Z</time>
      </trkpt>
      <trkpt lat="43.5388570" lon="-6.6803080">
        <ele>-5.8</ele>
        <time>2021-07-22T11:24:00Z</time>
      </trkpt>
      <trkpt lat="43.5388400" lon="-6.6803280">
        <ele>-5.4</ele>
        <time>2021-07-22T11:24:01Z</time>
      </trkpt>
      <trkpt lat="43.5388250" lon="-6.6803500">
        <ele>-4.8</ele>
        <time>2021-07-22T11:24:02Z</time>
      </trkpt>
      <trkpt lat="43.5388110" lon="-6.6803760">
        <ele>-4.4</ele>
        <time>2021-07-22T11:24:03Z</time>
      </trkpt>
      <trkpt lat="43.5387910" lon="-6.6804800">
        <ele>-4.4</ele>
        <time>2021-07-22T11:24:06Z</time>
      </trkpt>
      <trkpt lat="43.5387990" lon="-6.6805190">
        <ele>-4.4</ele>
        <time>2021-07-22T11:24:07Z</time>
      </trkpt>
      <trkpt lat="43.5388390" lon="-6.6805710">
        <ele>-4.4</ele>
        <time>2021-07-22T11:24:09Z</time>
      </trkpt>
      <trkpt lat="43.5390180" lon="-6.6807410">
        <ele>-4.4</ele>
        <time>2021-07-22T11:24:16Z</time>
      </trkpt>
      <trkpt lat="43.5390430" lon="-6.6807660">
        <ele>-4.0</ele>
        <time>2021-07-22T11:24:17Z</time>
      </trkpt>
      <trkpt lat="43.5390690" lon="-6.6807920">
        <ele>-3.6</ele>
        <time>2021-07-22T11:24:18Z</time>
      </trkpt>
      <trkpt lat="43.5390940" lon="-6.6808200">
        <ele>-3.0</ele>
        <time>2021-07-22T11:24:19Z</time>
      </trkpt>
      <trkpt lat="43.5391190" lon="-6.6808470">
        <ele>-2.6</ele>
        <time>2021-07-22T11:24:20Z</time>
      </trkpt>
      <trkpt lat="43.5391430" lon="-6.6808750">
        <ele>-2.2</ele>
        <time>2021-07-22T11:24:21Z</time>
      </trkpt>
      <trkpt lat="43.5392650" lon="-6.6810240">
        <ele>-2.2</ele>
        <time>2021-07-22T11:24:26Z</time>
      </trkpt>
      <trkpt lat="43.5394200" lon="-6.6813200">
        <ele>-2.2</ele>
        <time>2021-07-22T11:24:35Z</time>
      </trkpt>
      <trkpt lat="43.5395340" lon="-6.6815540">
        <ele>-2.2</ele>
        <time>2021-07-22T11:24:42Z</time>
      </trkpt>
      <trkpt lat="43.5395970" lon="-6.6816470">
        <ele>-1.8</ele>
        <time>2021-07-22T11:24:45Z</time>
      </trkpt>
      <trkpt lat="43.5396190" lon="-6.6816810">
        <ele>-1.4</ele>
        <time>2021-07-22T11:24:46Z</time>
      </trkpt>
      <trkpt lat="43.5396420" lon="-6.6817170">
        <ele>-1.0</ele>
        <time>2021-07-22T11:24:47Z</time>
      </trkpt>
      <trkpt lat="43.5396650" lon="-6.6817530">
        <ele>-0.6</ele>
        <time>2021-07-22T11:24:48Z</time>
      </trkpt>
      <trkpt lat="43.5396890" lon="-6.6817890">
        <ele>-0.2</ele>
        <time>2021-07-22T11:24:49Z</time>
      </trkpt>
      <trkpt lat="43.5398820" lon="-6.6821130">
        <ele>-0.2</ele>
        <time>2021-07-22T11:24:57Z</time>
      </trkpt>
      <trkpt lat="43.5400410" lon="-6.6824330">
        <ele>-0.2</ele>
        <time>2021-07-22T11:25:05Z</time>
      </trkpt>
      <trkpt lat="43.5400980" lon="-6.6826750">
        <ele>-0.2</ele>
        <time>2021-07-22T11:25:11Z</time>
      </trkpt>
      <trkpt lat="43.5400910" lon="-6.6827810">
        <ele>0.4</ele>
        <time>2021-07-22T11:25:14Z</time>
      </trkpt>
      <trkpt lat="43.5400840" lon="-6.6828110">
        <ele>0.8</ele>
        <time>2021-07-22T11:25:15Z</time>
      </trkpt>
      <trkpt lat="43.5400750" lon="-6.6828450">
        <ele>1.2</ele>
        <time>2021-07-22T11:25:16Z</time>
      </trkpt>
      <trkpt lat="43.5400680" lon="-6.6828800">
        <ele>1.6</ele>
        <time>2021-07-22T11:25:17Z</time>
      </trkpt>
      <trkpt lat="43.5400600" lon="-6.6829130">
        <ele>2.0</ele>
        <time>2021-07-22T11:25:18Z</time>
      </trkpt>
      <trkpt lat="43.5400060" lon="-6.6831720">
        <ele>2.0</ele>
        <time>2021-07-22T11:25:26Z</time>
      </trkpt>
      <trkpt lat="43.5400030" lon="-6.6832020">
        <ele>2.4</ele>
        <time>2021-07-22T11:25:27Z</time>
      </trkpt>
      <trkpt lat="43.5400000" lon="-6.6832310">
        <ele>2.8</ele>
        <time>2021-07-22T11:25:28Z</time>
      </trkpt>
      <trkpt lat="43.5399970" lon="-6.6832620">
        <ele>3.4</ele>
        <time>2021-07-22T11:25:29Z</time>
      </trkpt>
      <trkpt lat="43.5399970" lon="-6.6832940">
        <ele>3.8</ele>
        <time>2021-07-22T11:25:30Z</time>
      </trkpt>
      <trkpt lat="43.5399970" lon="-6.6833250">
        <ele>4.2</ele>
        <time>2021-07-22T11:25:31Z</time>
      </trkpt>
      <trkpt lat="43.5399970" lon="-6.6834160">
        <ele>4.2</ele>
        <time>2021-07-22T11:25:34Z</time>
      </trkpt>
      <trkpt lat="43.5399940" lon="-6.6834740">
        <ele>4.6</ele>
        <time>2021-07-22T11:25:36Z</time>
      </trkpt>
      <trkpt lat="43.5399910" lon="-6.6835070">
        <ele>5.0</ele>
        <time>2021-07-22T11:25:37Z</time>
      </trkpt>
      <trkpt lat="43.5399850" lon="-6.6835390">
        <ele>5.4</ele>
        <time>2021-07-22T11:25:38Z</time>
      </trkpt>
      <trkpt lat="43.5399770" lon="-6.6835710">
        <ele>5.8</ele>
        <time>2021-07-22T11:25:39Z</time>
      </trkpt>
      <trkpt lat="43.5399680" lon="-6.6836000">
        <ele>6.4</ele>
        <time>2021-07-22T11:25:40Z</time>
      </trkpt>
      <trkpt lat="43.5399440" lon="-6.6836570">
        <ele>6.4</ele>
        <time>2021-07-22T11:25:42Z</time>
      </trkpt>
      <trkpt lat="43.5398730" lon="-6.6837930">
        <ele>6.4</ele>
        <time>2021-07-22T11:25:47Z</time>
      </trkpt>
      <trkpt lat="43.5398600" lon="-6.6838200">
        <ele>6.8</ele>
        <time>2021-07-22T11:25:48Z</time>
      </trkpt>
      <trkpt lat="43.5398460" lon="-6.6838470">
        <ele>7.2</ele>
        <time>2021-07-22T11:25:49Z</time>
      </trkpt>
      <trkpt lat="43.5398330" lon="-6.6838750">
        <ele>7.6</ele>
        <time>2021-07-22T11:25:50Z</time>
      </trkpt>
      <trkpt lat="43.5398190" lon="-6.6839020">
        <ele>8.0</ele>
        <time>2021-07-22T11:25:51Z</time>
      </trkpt>
      <trkpt lat="43.5398040" lon="-6.6839300">
        <ele>8.4</ele>
        <time>2021-07-22T11:25:52Z</time>
      </trkpt>
      <trkpt lat="43.5397040" lon="-6.6841210">
        <ele>8.4</ele>
        <time>2021-07-22T11:25:59Z</time>
      </trkpt>
      <trkpt lat="43.5395900" lon="-6.6842610">
        <ele>8.8</ele>
        <time>2021-07-22T11:26:05Z</time>
      </trkpt>
      <trkpt lat="43.5395680" lon="-6.6842860">
        <ele>9.2</ele>
        <time>2021-07-22T11:26:06Z</time>
      </trkpt>
      <trkpt lat="43.5395430" lon="-6.6843100">
        <ele>9.6</ele>
        <time>2021-07-22T11:26:07Z</time>
      </trkpt>
      <trkpt lat="43.5395200" lon="-6.6843340">
        <ele>10.0</ele>
        <time>2021-07-22T11:26:08Z</time>
      </trkpt>
      <trkpt lat="43.5394960" lon="-6.6843600">
        <ele>10.4</ele>
        <time>2021-07-22T11:26:09Z</time>
      </trkpt>
      <trkpt lat="43.5394050" lon="-6.6845010">
        <ele>10.4</ele>
        <time>2021-07-22T11:26:14Z</time>
      </trkpt>
      <trkpt lat="43.5393460" lon="-6.6846270">
        <ele>10.4</ele>
        <time>2021-07-22T11:26:18Z</time>
      </trkpt>
      <trkpt lat="43.5393090" lon="-6.6846930">
        <ele>10.4</ele>
        <time>2021-07-22T11:26:20Z</time>
      </trkpt>
      <trkpt lat="43.5392780" lon="-6.6847710">
        <ele>10.4</ele>
        <time>2021-07-22T11:26:22Z</time>
      </trkpt>
      <trkpt lat="43.5392360" lon="-6.6848680">
        <ele>10.4</ele>
        <time>2021-07-22T11:26:25Z</time>
      </trkpt>
      <trkpt lat="43.5392090" lon="-6.6849160">
        <ele>10.4</ele>
        <time>2021-07-22T11:26:27Z</time>
      </trkpt>
      <trkpt lat="43.5391990" lon="-6.6849370">
        <ele>10.4</ele>
        <time>2021-07-22T11:26:28Z</time>
      </trkpt>
      <trkpt lat="43.5391780" lon="-6.6850020">
        <ele>10.4</ele>
        <time>2021-07-22T11:26:30Z</time>
      </trkpt>
      <trkpt lat="43.5391700" lon="-6.6850950">
        <ele>10.4</ele>
        <time>2021-07-22T11:26:32Z</time>
      </trkpt>
      <trkpt lat="43.5391900" lon="-6.6854050">
        <ele>10.4</ele>
        <time>2021-07-22T11:26:38Z</time>
      </trkpt>
      <trkpt lat="43.5392140" lon="-6.6858070">
        <ele>10.4</ele>
        <time>2021-07-22T11:26:45Z</time>
      </trkpt>
      <trkpt lat="43.5392270" lon="-6.6859970">
        <ele>10.0</ele>
        <time>2021-07-22T11:26:48Z</time>
      </trkpt>
      <trkpt lat="43.5392340" lon="-6.6860610">
        <ele>9.6</ele>
        <time>2021-07-22T11:26:49Z</time>
      </trkpt>
      <trkpt lat="43.5392390" lon="-6.6861270">
        <ele>9.0</ele>
        <time>2021-07-22T11:26:50Z</time>
      </trkpt>
      <trkpt lat="43.5392400" lon="-6.6861910">
        <ele>8.6</ele>
        <time>2021-07-22T11:26:51Z</time>
      </trkpt>
      <trkpt lat="43.5392380" lon="-6.6862590">
        <ele>8.2</ele>
        <time>2021-07-22T11:26:52Z</time>
      </trkpt>
      <trkpt lat="43.5392240" lon="-6.6863880">
        <ele>8.2</ele>
        <time>2021-07-22T11:26:54Z</time>
      </trkpt>
      <trkpt lat="43.5391790" lon="-6.6865720">
        <ele>8.2</ele>
        <time>2021-07-22T11:26:57Z</time>
      </trkpt>
      <trkpt lat="43.5391610" lon="-6.6866320">
        <ele>8.2</ele>
        <time>2021-07-22T11:26:58Z</time>
      </trkpt>
      <trkpt lat="43.5389720" lon="-6.6871960">
        <ele>8.2</ele>
        <time>2021-07-22T11:27:08Z</time>
      </trkpt>
      <trkpt lat="43.5388830" lon="-6.6874690">
        <ele>8.2</ele>
        <time>2021-07-22T11:27:14Z</time>
      </trkpt>
      <trkpt lat="43.5388360" lon="-6.6875880">
        <ele>8.2</ele>
        <time>2021-07-22T11:27:17Z</time>
      </trkpt>
      <trkpt lat="43.5387840" lon="-6.6877190">
        <ele>7.8</ele>
        <time>2021-07-22T11:27:20Z</time>
      </trkpt>
      <trkpt lat="43.5387650" lon="-6.6877710">
        <ele>7.4</ele>
        <time>2021-07-22T11:27:21Z</time>
      </trkpt>
      <trkpt lat="43.5387440" lon="-6.6878350">
        <ele>7.0</ele>
        <time>2021-07-22T11:27:22Z</time>
      </trkpt>
      <trkpt lat="43.5387190" lon="-6.6879020">
        <ele>6.2</ele>
        <time>2021-07-22T11:27:23Z</time>
      </trkpt>
      <trkpt lat="43.5386210" lon="-6.6881260">
        <ele>6.2</ele>
        <time>2021-07-22T11:27:26Z</time>
      </trkpt>
      <trkpt lat="43.5385770" lon="-6.6881990">
        <ele>5.8</ele>
        <time>2021-07-22T11:27:27Z</time>
      </trkpt>
      <trkpt lat="43.5385310" lon="-6.6882700">
        <ele>5.4</ele>
        <time>2021-07-22T11:27:28Z</time>
      </trkpt>
      <trkpt lat="43.5384840" lon="-6.6883390">
        <ele>5.0</ele>
        <time>2021-07-22T11:27:29Z</time>
      </trkpt>
      <trkpt lat="43.5384340" lon="-6.6884110">
        <ele>4.6</ele>
        <time>2021-07-22T11:27:30Z</time>
      </trkpt>
      <trkpt lat="43.5383870" lon="-6.6884780">
        <ele>4.2</ele>
        <time>2021-07-22T11:27:31Z</time>
      </trkpt>
      <trkpt lat="43.5382950" lon="-6.6886060">
        <ele>4.2</ele>
        <time>2021-07-22T11:27:33Z</time>
      </trkpt>
      <trkpt lat="43.5382090" lon="-6.6887260">
        <ele>4.2</ele>
        <time>2021-07-22T11:27:35Z</time>
      </trkpt>
      <trkpt lat="43.5380320" lon="-6.6890340">
        <ele>4.2</ele>
        <time>2021-07-22T11:27:40Z</time>
      </trkpt>
      <trkpt lat="43.5380040" lon="-6.6890890">
        <ele>4.2</ele>
        <time>2021-07-22T11:27:41Z</time>
      </trkpt>
      <trkpt lat="43.5379770" lon="-6.6891440">
        <ele>3.8</ele>
        <time>2021-07-22T11:27:42Z</time>
      </trkpt>
      <trkpt lat="43.5379520" lon="-6.6892000">
        <ele>3.4</ele>
        <time>2021-07-22T11:27:43Z</time>
      </trkpt>
      <trkpt lat="43.5379260" lon="-6.6892560">
        <ele>3.0</ele>
        <time>2021-07-22T11:27:44Z</time>
      </trkpt>
      <trkpt lat="43.5379050" lon="-6.6893150">
        <ele>2.6</ele>
        <time>2021-07-22T11:27:45Z</time>
      </trkpt>
      <trkpt lat="43.5378840" lon="-6.6893750">
        <ele>2.2</ele>
        <time>2021-07-22T11:27:46Z</time>
      </trkpt>
      <trkpt lat="43.5378670" lon="-6.6894410">
        <ele>2.2</ele>
        <time>2021-07-22T11:27:47Z</time>
      </trkpt>
      <trkpt lat="43.5378530" lon="-6.6895070">
        <ele>2.2</ele>
        <time>2021-07-22T11:27:48Z</time>
      </trkpt>
      <trkpt lat="43.5378410" lon="-6.6896440">
        <ele>2.2</ele>
        <time>2021-07-22T11:27:50Z</time>
      </trkpt>
      <trkpt lat="43.5378390" lon="-6.6897790">
        <ele>2.2</ele>
        <time>2021-07-22T11:27:52Z</time>
      </trkpt>
      <trkpt lat="43.5378360" lon="-6.6899190">
        <ele>2.2</ele>
        <time>2021-07-22T11:27:54Z</time>
      </trkpt>
      <trkpt lat="43.5378350" lon="-6.6899870">
        <ele>2.2</ele>
        <time>2021-07-22T11:27:55Z</time>
      </trkpt>
      <trkpt lat="43.5378340" lon="-6.6901210">
        <ele>2.2</ele>
        <time>2021-07-22T11:27:57Z</time>
      </trkpt>
      <trkpt lat="43.5378310" lon="-6.6902500">
        <ele>2.2</ele>
        <time>2021-07-22T11:27:59Z</time>
      </trkpt>
      <trkpt lat="43.5378230" lon="-6.6904420">
        <ele>2.2</ele>
        <time>2021-07-22T11:28:02Z</time>
      </trkpt>
      <trkpt lat="43.5378090" lon="-6.6906240">
        <ele>2.2</ele>
        <time>2021-07-22T11:28:05Z</time>
      </trkpt>
      <trkpt lat="43.5377880" lon="-6.6909540">
        <ele>2.2</ele>
        <time>2021-07-22T11:28:10Z</time>
      </trkpt>
      <trkpt lat="43.5377840" lon="-6.6910210">
        <ele>2.2</ele>
        <time>2021-07-22T11:28:11Z</time>
      </trkpt>
      <trkpt lat="43.5377470" lon="-6.6915940">
        <ele>2.2</ele>
        <time>2021-07-22T11:28:19Z</time>
      </trkpt>
      <trkpt lat="43.5376990" lon="-6.6922290">
        <ele>2.2</ele>
        <time>2021-07-22T11:28:28Z</time>
      </trkpt>
      <trkpt lat="43.5377050" lon="-6.6927880">
        <ele>2.2</ele>
        <time>2021-07-22T11:28:36Z</time>
      </trkpt>
      <trkpt lat="43.5377400" lon="-6.6933270">
        <ele>2.6</ele>
        <time>2021-07-22T11:28:44Z</time>
      </trkpt>
      <trkpt lat="43.5377480" lon="-6.6933920">
        <ele>3.0</ele>
        <time>2021-07-22T11:28:45Z</time>
      </trkpt>
      <trkpt lat="43.5377560" lon="-6.6934600">
        <ele>3.4</ele>
        <time>2021-07-22T11:28:46Z</time>
      </trkpt>
      <trkpt lat="43.5377640" lon="-6.6935210">
        <ele>3.8</ele>
        <time>2021-07-22T11:28:47Z</time>
      </trkpt>
      <trkpt lat="43.5377750" lon="-6.6935820">
        <ele>4.2</ele>
        <time>2021-07-22T11:28:48Z</time>
      </trkpt>
      <trkpt lat="43.5378340" lon="-6.6938560">
        <ele>4.2</ele>
        <time>2021-07-22T11:28:53Z</time>
      </trkpt>
      <trkpt lat="43.5379650" lon="-6.6942750">
        <ele>4.2</ele>
        <time>2021-07-22T11:29:02Z</time>
      </trkpt>
      <trkpt lat="43.5381050" lon="-6.6946200">
        <ele>4.2</ele>
        <time>2021-07-22T11:29:10Z</time>
      </trkpt>
      <trkpt lat="43.5381130" lon="-6.6946700">
        <ele>4.6</ele>
        <time>2021-07-22T11:29:11Z</time>
      </trkpt>
      <trkpt lat="43.5381180" lon="-6.6947230">
        <ele>5.0</ele>
        <time>2021-07-22T11:29:12Z</time>
      </trkpt>
      <trkpt lat="43.5381200" lon="-6.6947750">
        <ele>5.4</ele>
        <time>2021-07-22T11:29:13Z</time>
      </trkpt>
      <trkpt lat="43.5381190" lon="-6.6948260">
        <ele>6.0</ele>
        <time>2021-07-22T11:29:14Z</time>
      </trkpt>
      <trkpt lat="43.5381140" lon="-6.6948770">
        <ele>6.4</ele>
        <time>2021-07-22T11:29:15Z</time>
      </trkpt>
      <trkpt lat="43.5380500" lon="-6.6951850">
        <ele>6.4</ele>
        <time>2021-07-22T11:29:21Z</time>
      </trkpt>
      <trkpt lat="43.5380390" lon="-6.6952420">
        <ele>6.4</ele>
        <time>2021-07-22T11:29:22Z</time>
      </trkpt>
      <trkpt lat="43.5378980" lon="-6.6958160">
        <ele>6.4</ele>
        <time>2021-07-22T11:29:32Z</time>
      </trkpt>
      <trkpt lat="43.5378130" lon="-6.6961600">
        <ele>6.4</ele>
        <time>2021-07-22T11:29:38Z</time>
      </trkpt>
      <trkpt lat="43.5377770" lon="-6.6963230">
        <ele>6.4</ele>
        <time>2021-07-22T11:29:41Z</time>
      </trkpt>
      <trkpt lat="43.5377270" lon="-6.6965570">
        <ele>6.4</ele>
        <time>2021-07-22T11:29:46Z</time>
      </trkpt>
      <trkpt lat="43.5377170" lon="-6.6966170">
        <ele>6.4</ele>
        <time>2021-07-22T11:29:48Z</time>
      </trkpt>
      <trkpt lat="43.5377010" lon="-6.6967330">
        <ele>6.4</ele>
        <time>2021-07-22T11:29:51Z</time>
      </trkpt>
      <trkpt lat="43.5376890" lon="-6.6968330">
        <ele>6.4</ele>
        <time>2021-07-22T11:29:53Z</time>
      </trkpt>
      <trkpt lat="43.5376670" lon="-6.6969430">
        <ele>6.4</ele>
        <time>2021-07-22T11:29:55Z</time>
      </trkpt>
      <trkpt lat="43.5376070" lon="-6.6970870">
        <ele>6.4</ele>
        <time>2021-07-22T11:29:58Z</time>
      </trkpt>
      <trkpt lat="43.5375710" lon="-6.6971860">
        <ele>6.8</ele>
        <time>2021-07-22T11:30:00Z</time>
      </trkpt>
      <trkpt lat="43.5375520" lon="-6.6972340">
        <ele>7.2</ele>
        <time>2021-07-22T11:30:01Z</time>
      </trkpt>
      <trkpt lat="43.5375330" lon="-6.6972840">
        <ele>7.6</ele>
        <time>2021-07-22T11:30:02Z</time>
      </trkpt>
      <trkpt lat="43.5375140" lon="-6.6973360">
        <ele>8.0</ele>
        <time>2021-07-22T11:30:03Z</time>
      </trkpt>
      <trkpt lat="43.5374970" lon="-6.6973860">
        <ele>8.4</ele>
        <time>2021-07-22T11:30:04Z</time>
      </trkpt>
      <trkpt lat="43.5374650" lon="-6.6974880">
        <ele>8.4</ele>
        <time>2021-07-22T11:30:06Z</time>
      </trkpt>
      <trkpt lat="43.5373770" lon="-6.6978050">
        <ele>8.4</ele>
        <time>2021-07-22T11:30:12Z</time>
      </trkpt>
      <trkpt lat="43.5373600" lon="-6.6979150">
        <ele>8.4</ele>
        <time>2021-07-22T11:30:14Z</time>
      </trkpt>
      <trkpt lat="43.5373250" lon="-6.6981320">
        <ele>8.8</ele>
        <time>2021-07-22T11:30:18Z</time>
      </trkpt>
      <trkpt lat="43.5373140" lon="-6.6981870">
        <ele>9.4</ele>
        <time>2021-07-22T11:30:19Z</time>
      </trkpt>
      <trkpt lat="43.5373040" lon="-6.6982410">
        <ele>9.8</ele>
        <time>2021-07-22T11:30:20Z</time>
      </trkpt>
      <trkpt lat="43.5372930" lon="-6.6982940">
        <ele>10.2</ele>
        <time>2021-07-22T11:30:21Z</time>
      </trkpt>
      <trkpt lat="43.5372850" lon="-6.6983480">
        <ele>10.6</ele>
        <time>2021-07-22T11:30:22Z</time>
      </trkpt>
      <trkpt lat="43.5372780" lon="-6.6984030">
        <ele>10.6</ele>
        <time>2021-07-22T11:30:23Z</time>
      </trkpt>
      <trkpt lat="43.5372390" lon="-6.6986660">
        <ele>10.6</ele>
        <time>2021-07-22T11:30:28Z</time>
      </trkpt>
      <trkpt lat="43.5372290" lon="-6.6987170">
        <ele>10.6</ele>
        <time>2021-07-22T11:30:29Z</time>
      </trkpt>
      <trkpt lat="43.5371720" lon="-6.6990630">
        <ele>10.6</ele>
        <time>2021-07-22T11:30:36Z</time>
      </trkpt>
      <trkpt lat="43.5371380" lon="-6.6992480">
        <ele>11.0</ele>
        <time>2021-07-22T11:30:40Z</time>
      </trkpt>
      <trkpt lat="43.5371300" lon="-6.6992930">
        <ele>11.8</ele>
        <time>2021-07-22T11:30:41Z</time>
      </trkpt>
      <trkpt lat="43.5371210" lon="-6.6993410">
        <ele>12.2</ele>
        <time>2021-07-22T11:30:42Z</time>
      </trkpt>
      <trkpt lat="43.5371130" lon="-6.6993850">
        <ele>12.6</ele>
        <time>2021-07-22T11:30:43Z</time>
      </trkpt>
      <trkpt lat="43.5371010" lon="-6.6994750">
        <ele>12.6</ele>
        <time>2021-07-22T11:30:45Z</time>
      </trkpt>
      <trkpt lat="43.5370470" lon="-6.6999460">
        <ele>12.6</ele>
        <time>2021-07-22T11:30:55Z</time>
      </trkpt>
      <trkpt lat="43.5370180" lon="-6.7002270">
        <ele>13.0</ele>
        <time>2021-07-22T11:31:01Z</time>
      </trkpt>
      <trkpt lat="43.5370110" lon="-6.7002740">
        <ele>13.6</ele>
        <time>2021-07-22T11:31:02Z</time>
      </trkpt>
      <trkpt lat="43.5370050" lon="-6.7003250">
        <ele>14.0</ele>
        <time>2021-07-22T11:31:03Z</time>
      </trkpt>
      <trkpt lat="43.5370020" lon="-6.7003710">
        <ele>14.4</ele>
        <time>2021-07-22T11:31:04Z</time>
      </trkpt>
      <trkpt lat="43.5369980" lon="-6.7004190">
        <ele>14.8</ele>
        <time>2021-07-22T11:31:05Z</time>
      </trkpt>
      <trkpt lat="43.5369790" lon="-6.7006510">
        <ele>14.8</ele>
        <time>2021-07-22T11:31:10Z</time>
      </trkpt>
      <trkpt lat="43.5369540" lon="-6.7009760">
        <ele>14.8</ele>
        <time>2021-07-22T11:31:17Z</time>
      </trkpt>
      <trkpt lat="43.5369390" lon="-6.7012190">
        <ele>15.2</ele>
        <time>2021-07-22T11:31:22Z</time>
      </trkpt>
      <trkpt lat="43.5369350" lon="-6.7012660">
        <ele>15.6</ele>
        <time>2021-07-22T11:31:23Z</time>
      </trkpt>
      <trkpt lat="43.5369310" lon="-6.7013160">
        <ele>16.0</ele>
        <time>2021-07-22T11:31:24Z</time>
      </trkpt>
      <trkpt lat="43.5369280" lon="-6.7013670">
        <ele>16.4</ele>
        <time>2021-07-22T11:31:25Z</time>
      </trkpt>
      <trkpt lat="43.5369240" lon="-6.7014220">
        <ele>16.8</ele>
        <time>2021-07-22T11:31:26Z</time>
      </trkpt>
      <trkpt lat="43.5368830" lon="-6.7017650">
        <ele>16.8</ele>
        <time>2021-07-22T11:31:33Z</time>
      </trkpt>
      <trkpt lat="43.5368080" lon="-6.7020960">
        <ele>16.8</ele>
        <time>2021-07-22T11:31:39Z</time>
      </trkpt>
      <trkpt lat="43.5367940" lon="-6.7021550">
        <ele>16.8</ele>
        <time>2021-07-22T11:31:40Z</time>
      </trkpt>
      <trkpt lat="43.5367500" lon="-6.7023280">
        <ele>16.8</ele>
        <time>2021-07-22T11:31:43Z</time>
      </trkpt>
      <trkpt lat="43.5367140" lon="-6.7024950">
        <ele>16.8</ele>
        <time>2021-07-22T11:31:46Z</time>
      </trkpt>
      <trkpt lat="43.5366730" lon="-6.7026590">
        <ele>16.8</ele>
        <time>2021-07-22T11:31:49Z</time>
      </trkpt>
      <trkpt lat="43.5366250" lon="-6.7028740">
        <ele>16.8</ele>
        <time>2021-07-22T11:31:53Z</time>
      </trkpt>
      <trkpt lat="43.5365990" lon="-6.7029750">
        <ele>16.8</ele>
        <time>2021-07-22T11:31:55Z</time>
      </trkpt>
      <trkpt lat="43.5365440" lon="-6.7031990">
        <ele>16.8</ele>
        <time>2021-07-22T11:31:59Z</time>
      </trkpt>
      <trkpt lat="43.5364180" lon="-6.7037660">
        <ele>16.8</ele>
        <time>2021-07-22T11:32:09Z</time>
      </trkpt>
      <trkpt lat="43.5363530" lon="-6.7041020">
        <ele>16.8</ele>
        <time>2021-07-22T11:32:15Z</time>
      </trkpt>
      <trkpt lat="43.5363340" lon="-6.7042140">
        <ele>16.8</ele>
        <time>2021-07-22T11:32:17Z</time>
      </trkpt>
      <trkpt lat="43.5363260" lon="-6.7042710">
        <ele>16.8</ele>
        <time>2021-07-22T11:32:18Z</time>
      </trkpt>
      <trkpt lat="43.5363180" lon="-6.7043290">
        <ele>16.8</ele>
        <time>2021-07-22T11:32:19Z</time>
      </trkpt>
      <trkpt lat="43.5363000" lon="-6.7044420">
        <ele>16.4</ele>
        <time>2021-07-22T11:32:21Z</time>
      </trkpt>
      <trkpt lat="43.5362900" lon="-6.7045020">
        <ele>16.0</ele>
        <time>2021-07-22T11:32:22Z</time>
      </trkpt>
      <trkpt lat="43.5362880" lon="-6.7045630">
        <ele>15.6</ele>
        <time>2021-07-22T11:32:23Z</time>
      </trkpt>
      <trkpt lat="43.5362890" lon="-6.7046200">
        <ele>15.2</ele>
        <time>2021-07-22T11:32:24Z</time>
      </trkpt>
      <trkpt lat="43.5362940" lon="-6.7046810">
        <ele>14.6</ele>
        <time>2021-07-22T11:32:25Z</time>
      </trkpt>
      <trkpt lat="43.5363020" lon="-6.7047380">
        <ele>14.6</ele>
        <time>2021-07-22T11:32:26Z</time>
      </trkpt>
      <trkpt lat="43.5363100" lon="-6.7047930">
        <ele>14.6</ele>
        <time>2021-07-22T11:32:27Z</time>
      </trkpt>
      <trkpt lat="43.5363600" lon="-6.7050860">
        <ele>14.6</ele>
        <time>2021-07-22T11:32:33Z</time>
      </trkpt>
      <trkpt lat="43.5363690" lon="-6.7051340">
        <ele>14.6</ele>
        <time>2021-07-22T11:32:34Z</time>
      </trkpt>
      <trkpt lat="43.5364000" lon="-6.7052900">
        <ele>14.6</ele>
        <time>2021-07-22T11:32:37Z</time>
      </trkpt>
      <trkpt lat="43.5364160" lon="-6.7054030">
        <ele>14.6</ele>
        <time>2021-07-22T11:32:39Z</time>
      </trkpt>
      <trkpt lat="43.5364350" lon="-6.7055230">
        <ele>14.6</ele>
        <time>2021-07-22T11:32:41Z</time>
      </trkpt>
      <trkpt lat="43.5364780" lon="-6.7058510">
        <ele>14.6</ele>
        <time>2021-07-22T11:32:46Z</time>
      </trkpt>
      <trkpt lat="43.5365010" lon="-6.7060640">
        <ele>14.6</ele>
        <time>2021-07-22T11:32:49Z</time>
      </trkpt>
      <trkpt lat="43.5365200" lon="-6.7062040">
        <ele>14.6</ele>
        <time>2021-07-22T11:32:51Z</time>
      </trkpt>
      <trkpt lat="43.5365610" lon="-6.7065420">
        <ele>14.2</ele>
        <time>2021-07-22T11:32:56Z</time>
      </trkpt>
      <trkpt lat="43.5365700" lon="-6.7066070">
        <ele>13.8</ele>
        <time>2021-07-22T11:32:57Z</time>
      </trkpt>
      <trkpt lat="43.5365830" lon="-6.7066670">
        <ele>13.4</ele>
        <time>2021-07-22T11:32:58Z</time>
      </trkpt>
      <trkpt lat="43.5365930" lon="-6.7067260">
        <ele>13.0</ele>
        <time>2021-07-22T11:32:59Z</time>
      </trkpt>
      <trkpt lat="43.5366020" lon="-6.7067810">
        <ele>12.6</ele>
        <time>2021-07-22T11:33:00Z</time>
      </trkpt>
      <trkpt lat="43.5366180" lon="-6.7068880">
        <ele>12.6</ele>
        <time>2021-07-22T11:33:02Z</time>
      </trkpt>
      <trkpt lat="43.5366480" lon="-6.7069880">
        <ele>12.6</ele>
        <time>2021-07-22T11:33:04Z</time>
      </trkpt>
      <trkpt lat="43.5366760" lon="-6.7071010">
        <ele>12.6</ele>
        <time>2021-07-22T11:33:06Z</time>
      </trkpt>
      <trkpt lat="43.5367060" lon="-6.7072130">
        <ele>12.6</ele>
        <time>2021-07-22T11:33:08Z</time>
      </trkpt>
      <trkpt lat="43.5367350" lon="-6.7073250">
        <ele>12.6</ele>
        <time>2021-07-22T11:33:10Z</time>
      </trkpt>
      <trkpt lat="43.5367860" lon="-6.7075000">
        <ele>12.6</ele>
        <time>2021-07-22T11:33:13Z</time>
      </trkpt>
      <trkpt lat="43.5369160" lon="-6.7079150">
        <ele>12.6</ele>
        <time>2021-07-22T11:33:21Z</time>
      </trkpt>
      <trkpt lat="43.5369480" lon="-6.7080250">
        <ele>12.6</ele>
        <time>2021-07-22T11:33:23Z</time>
      </trkpt>
      <trkpt lat="43.5369810" lon="-6.7081320">
        <ele>12.6</ele>
        <time>2021-07-22T11:33:25Z</time>
      </trkpt>
      <trkpt lat="43.5369940" lon="-6.7081830">
        <ele>12.6</ele>
        <time>2021-07-22T11:33:26Z</time>
      </trkpt>
      <trkpt lat="43.5370410" lon="-6.7083360">
        <ele>12.6</ele>
        <time>2021-07-22T11:33:29Z</time>
      </trkpt>
      <trkpt lat="43.5371050" lon="-6.7085380">
        <ele>12.6</ele>
        <time>2021-07-22T11:33:33Z</time>
      </trkpt>
      <trkpt lat="43.5371400" lon="-6.7087110">
        <ele>12.6</ele>
        <time>2021-07-22T11:33:37Z</time>
      </trkpt>
      <trkpt lat="43.5371220" lon="-6.7088000">
        <ele>12.6</ele>
        <time>2021-07-22T11:33:39Z</time>
      </trkpt>
      <trkpt lat="43.5370300" lon="-6.7089010">
        <ele>12.6</ele>
        <time>2021-07-22T11:33:43Z</time>
      </trkpt>
      <trkpt lat="43.5369650" lon="-6.7089220">
        <ele>12.6</ele>
        <time>2021-07-22T11:33:45Z</time>
      </trkpt>
      <trkpt lat="43.5368940" lon="-6.7089400">
        <ele>12.6</ele>
        <time>2021-07-22T11:33:47Z</time>
      </trkpt>
      <trkpt lat="43.5368620" lon="-6.7089470">
        <ele>12.6</ele>
        <time>2021-07-22T11:33:48Z</time>
      </trkpt>
      <trkpt lat="43.5367730" lon="-6.7089710">
        <ele>12.6</ele>
        <time>2021-07-22T11:33:51Z</time>
      </trkpt>
      <trkpt lat="43.5366520" lon="-6.7090070">
        <ele>12.6</ele>
        <time>2021-07-22T11:33:55Z</time>
      </trkpt>
      <trkpt lat="43.5363900" lon="-6.7090590">
        <ele>12.6</ele>
        <time>2021-07-22T11:34:02Z</time>
      </trkpt>
      <trkpt lat="43.5361430" lon="-6.7091070">
        <ele>12.6</ele>
        <time>2021-07-22T11:34:09Z</time>
      </trkpt>
      <trkpt lat="43.5361070" lon="-6.7091100">
        <ele>12.6</ele>
        <time>2021-07-22T11:34:10Z</time>
      </trkpt>
      <trkpt lat="43.5359480" lon="-6.7091320">
        <ele>12.6</ele>
        <time>2021-07-22T11:34:15Z</time>
      </trkpt>
      <trkpt lat="43.5358660" lon="-6.7091460">
        <ele>12.6</ele>
        <time>2021-07-22T11:34:18Z</time>
      </trkpt>
      <trkpt lat="43.5356150" lon="-6.7091880">
        <ele>12.6</ele>
        <time>2021-07-22T11:34:25Z</time>
      </trkpt>
      <trkpt lat="43.5355030" lon="-6.7092110">
        <ele>12.6</ele>
        <time>2021-07-22T11:34:28Z</time>
      </trkpt>
      <trkpt lat="43.5354740" lon="-6.7092190">
        <ele>12.6</ele>
        <time>2021-07-22T11:34:30Z</time>
      </trkpt>
      <trkpt lat="43.5354740" lon="-6.7092360">
        <ele>12.6</ele>
        <time>2021-07-22T11:34:31Z</time>
      </trkpt>
      <trkpt lat="43.5355110" lon="-6.7093720">
        <ele>12.6</ele>
        <time>2021-07-22T11:34:35Z</time>
      </trkpt>
      <trkpt lat="43.5355330" lon="-6.7094810">
        <ele>12.6</ele>
        <time>2021-07-22T11:34:37Z</time>
      </trkpt>
      <trkpt lat="43.5355920" lon="-6.7096750">
        <ele>12.6</ele>
        <time>2021-07-22T11:34:41Z</time>
      </trkpt>
      <trkpt lat="43.5356740" lon="-6.7100120">
        <ele>12.6</ele>
        <time>2021-07-22T11:34:48Z</time>
      </trkpt>
      <trkpt lat="43.5357530" lon="-6.7103220">
        <ele>12.6</ele>
        <time>2021-07-22T11:34:54Z</time>
      </trkpt>
      <trkpt lat="43.5358190" lon="-6.7105770">
        <ele>12.6</ele>
        <time>2021-07-22T11:34:59Z</time>
      </trkpt>
      <trkpt lat="43.5358650" lon="-6.7107520">
        <ele>12.6</ele>
        <time>2021-07-22T11:35:03Z</time>
      </trkpt>
      <trkpt lat="43.5359130" lon="-6.7109380">
        <ele>12.6</ele>
        <time>2021-07-22T11:35:07Z</time>
      </trkpt>
      <trkpt lat="43.5359410" lon="-6.7110270">
        <ele>12.6</ele>
        <time>2021-07-22T11:35:09Z</time>
      </trkpt>
      <trkpt lat="43.5360710" lon="-6.7114440">
        <ele>12.6</ele>
        <time>2021-07-22T11:35:19Z</time>
      </trkpt>
      <trkpt lat="43.5361410" lon="-6.7116890">
        <ele>12.6</ele>
        <time>2021-07-22T11:35:24Z</time>
      </trkpt>
      <trkpt lat="43.5361530" lon="-6.7117410">
        <ele>12.6</ele>
        <time>2021-07-22T11:35:25Z</time>
      </trkpt>
      <trkpt lat="43.5362010" lon="-6.7119230">
        <ele>12.6</ele>
        <time>2021-07-22T11:35:28Z</time>
      </trkpt>
      <trkpt lat="43.5362420" lon="-6.7120710">
        <ele>12.6</ele>
        <time>2021-07-22T11:35:30Z</time>
      </trkpt>
      <trkpt lat="43.5362950" lon="-6.7121970">
        <ele>12.6</ele>
        <time>2021-07-22T11:35:32Z</time>
      </trkpt>
      <trkpt lat="43.5363290" lon="-6.7122550">
        <ele>12.2</ele>
        <time>2021-07-22T11:35:33Z</time>
      </trkpt>
      <trkpt lat="43.5363650" lon="-6.7123120">
        <ele>11.8</ele>
        <time>2021-07-22T11:35:34Z</time>
      </trkpt>
      <trkpt lat="43.5364010" lon="-6.7123690">
        <ele>11.4</ele>
        <time>2021-07-22T11:35:35Z</time>
      </trkpt>
      <trkpt lat="43.5364350" lon="-6.7124300">
        <ele>11.0</ele>
        <time>2021-07-22T11:35:36Z</time>
      </trkpt>
      <trkpt lat="43.5364660" lon="-6.7124870">
        <ele>10.6</ele>
        <time>2021-07-22T11:35:37Z</time>
      </trkpt>
      <trkpt lat="43.5365510" lon="-6.7126590">
        <ele>10.6</ele>
        <time>2021-07-22T11:35:40Z</time>
      </trkpt>
      <trkpt lat="43.5366040" lon="-6.7127720">
        <ele>10.6</ele>
        <time>2021-07-22T11:35:42Z</time>
      </trkpt>
      <trkpt lat="43.5367490" lon="-6.7130590">
        <ele>10.6</ele>
        <time>2021-07-22T11:35:47Z</time>
      </trkpt>
      <trkpt lat="43.5368100" lon="-6.7131790">
        <ele>10.2</ele>
        <time>2021-07-22T11:35:49Z</time>
      </trkpt>
      <trkpt lat="43.5368400" lon="-6.7132380">
        <ele>9.8</ele>
        <time>2021-07-22T11:35:50Z</time>
      </trkpt>
      <trkpt lat="43.5368710" lon="-6.7132960">
        <ele>9.4</ele>
        <time>2021-07-22T11:35:51Z</time>
      </trkpt>
      <trkpt lat="43.5368990" lon="-6.7133530">
        <ele>9.0</ele>
        <time>2021-07-22T11:35:52Z</time>
      </trkpt>
      <trkpt lat="43.5369270" lon="-6.7134090">
        <ele>8.4</ele>
        <time>2021-07-22T11:35:53Z</time>
      </trkpt>
      <trkpt lat="43.5371120" lon="-6.7138700">
        <ele>8.0</ele>
        <time>2021-07-22T11:36:01Z</time>
      </trkpt>
      <trkpt lat="43.5371360" lon="-6.7139220">
        <ele>7.2</ele>
        <time>2021-07-22T11:36:02Z</time>
      </trkpt>
      <trkpt lat="43.5371590" lon="-6.7139690">
        <ele>6.8</ele>
        <time>2021-07-22T11:36:03Z</time>
      </trkpt>
      <trkpt lat="43.5371840" lon="-6.7140140">
        <ele>6.4</ele>
        <time>2021-07-22T11:36:04Z</time>
      </trkpt>
      <trkpt lat="43.5372350" lon="-6.7141010">
        <ele>6.4</ele>
        <time>2021-07-22T11:36:06Z</time>
      </trkpt>
      <trkpt lat="43.5373000" lon="-6.7141820">
        <ele>6.4</ele>
        <time>2021-07-22T11:36:08Z</time>
      </trkpt>
      <trkpt lat="43.5374140" lon="-6.7142800">
        <ele>6.4</ele>
        <time>2021-07-22T11:36:11Z</time>
      </trkpt>
      <trkpt lat="43.5375860" lon="-6.7143740">
        <ele>6.4</ele>
        <time>2021-07-22T11:36:15Z</time>
      </trkpt>
      <trkpt lat="43.5376270" lon="-6.7143960">
        <ele>6.4</ele>
        <time>2021-07-22T11:36:16Z</time>
      </trkpt>
      <trkpt lat="43.5378150" lon="-6.7144790">
        <ele>6.4</ele>
        <time>2021-07-22T11:36:21Z</time>
      </trkpt>
      <trkpt lat="43.5381400" lon="-6.7146140">
        <ele>6.4</ele>
        <time>2021-07-22T11:36:29Z</time>
      </trkpt>
      <trkpt lat="43.5382790" lon="-6.7147070">
        <ele>6.4</ele>
        <time>2021-07-22T11:36:32Z</time>
      </trkpt>
      <trkpt lat="43.5383670" lon="-6.7147880">
        <ele>6.4</ele>
        <time>2021-07-22T11:36:34Z</time>
      </trkpt>
      <trkpt lat="43.5384070" lon="-6.7148300">
        <ele>5.8</ele>
        <time>2021-07-22T11:36:35Z</time>
      </trkpt>
      <trkpt lat="43.5384480" lon="-6.7148780">
        <ele>5.4</ele>
        <time>2021-07-22T11:36:36Z</time>
      </trkpt>
      <trkpt lat="43.5384860" lon="-6.7149280">
        <ele>5.0</ele>
        <time>2021-07-22T11:36:37Z</time>
      </trkpt>
      <trkpt lat="43.5385270" lon="-6.7149810">
        <ele>4.4</ele>
        <time>2021-07-22T11:36:38Z</time>
      </trkpt>
      <trkpt lat="43.5385630" lon="-6.7150300">
        <ele>3.8</ele>
        <time>2021-07-22T11:36:39Z</time>
      </trkpt>
      <trkpt lat="43.5385970" lon="-6.7150760">
        <ele>3.2</ele>
        <time>2021-07-22T11:36:40Z</time>
      </trkpt>
      <trkpt lat="43.5386320" lon="-6.7151200">
        <ele>2.8</ele>
        <time>2021-07-22T11:36:41Z</time>
      </trkpt>
      <trkpt lat="43.5386670" lon="-6.7151640">
        <ele>2.2</ele>
        <time>2021-07-22T11:36:42Z</time>
      </trkpt>
      <trkpt lat="43.5386990" lon="-6.7152040">
        <ele>1.6</ele>
        <time>2021-07-22T11:36:43Z</time>
      </trkpt>
      <trkpt lat="43.5387350" lon="-6.7152450">
        <ele>1.0</ele>
        <time>2021-07-22T11:36:44Z</time>
      </trkpt>
      <trkpt lat="43.5387800" lon="-6.7152850">
        <ele>0.4</ele>
        <time>2021-07-22T11:36:45Z</time>
      </trkpt>
      <trkpt lat="43.5388270" lon="-6.7153210">
        <ele>-0.2</ele>
        <time>2021-07-22T11:36:46Z</time>
      </trkpt>
      <trkpt lat="43.5388790" lon="-6.7153580">
        <ele>-0.8</ele>
        <time>2021-07-22T11:36:47Z</time>
      </trkpt>
      <trkpt lat="43.5389330" lon="-6.7153830">
        <ele>-1.4</ele>
        <time>2021-07-22T11:36:48Z</time>
      </trkpt>
      <trkpt lat="43.5389930" lon="-6.7154040">
        <ele>-2.0</ele>
        <time>2021-07-22T11:36:49Z</time>
      </trkpt>
      <trkpt lat="43.5390470" lon="-6.7154290">
        <ele>-2.6</ele>
        <time>2021-07-22T11:36:50Z</time>
      </trkpt>
      <trkpt lat="43.5391020" lon="-6.7154690">
        <ele>-3.4</ele>
        <time>2021-07-22T11:36:51Z</time>
      </trkpt>
      <trkpt lat="43.5391650" lon="-6.7155150">
        <ele>-4.8</ele>
        <time>2021-07-22T11:36:52Z</time>
      </trkpt>
      <trkpt lat="43.5392280" lon="-6.7155620">
        <ele>-5.6</ele>
        <time>2021-07-22T11:36:53Z</time>
      </trkpt>
      <trkpt lat="43.5392840" lon="-6.7156110">
        <ele>-6.4</ele>
        <time>2021-07-22T11:36:54Z</time>
      </trkpt>
      <trkpt lat="43.5393410" lon="-6.7156520">
        <ele>-7.2</ele>
        <time>2021-07-22T11:36:55Z</time>
      </trkpt>
      <trkpt lat="43.5393950" lon="-6.7156940">
        <ele>-8.0</ele>
        <time>2021-07-22T11:36:56Z</time>
      </trkpt>
      <trkpt lat="43.5394510" lon="-6.7157400">
        <ele>-8.8</ele>
        <time>2021-07-22T11:36:57Z</time>
      </trkpt>
      <trkpt lat="43.5395060" lon="-6.7157880">
        <ele>-9.4</ele>
        <time>2021-07-22T11:36:58Z</time>
      </trkpt>
      <trkpt lat="43.5395660" lon="-6.7158460">
        <ele>-10.2</ele>
        <time>2021-07-22T11:36:59Z</time>
      </trkpt>
      <trkpt lat="43.5396230" lon="-6.7159180">
        <ele>-10.8</ele>
        <time>2021-07-22T11:37:00Z</time>
      </trkpt>
      <trkpt lat="43.5396760" lon="-6.7160020">
        <ele>-11.6</ele>
        <time>2021-07-22T11:37:01Z</time>
      </trkpt>
      <trkpt lat="43.5397230" lon="-6.7160870">
        <ele>-12.2</ele>
        <time>2021-07-22T11:37:02Z</time>
      </trkpt>
      <trkpt lat="43.5397630" lon="-6.7161750">
        <ele>-13.0</ele>
        <time>2021-07-22T11:37:03Z</time>
      </trkpt>
      <trkpt lat="43.5398040" lon="-6.7162650">
        <ele>-13.6</ele>
        <time>2021-07-22T11:37:04Z</time>
      </trkpt>
      <trkpt lat="43.5398370" lon="-6.7163550">
        <ele>-14.2</ele>
        <time>2021-07-22T11:37:05Z</time>
      </trkpt>
      <trkpt lat="43.5398650" lon="-6.7164380">
        <ele>-15.0</ele>
        <time>2021-07-22T11:37:06Z</time>
      </trkpt>
      <trkpt lat="43.5398920" lon="-6.7165190">
        <ele>-15.6</ele>
        <time>2021-07-22T11:37:07Z</time>
      </trkpt>
      <trkpt lat="43.5399170" lon="-6.7165960">
        <ele>-16.4</ele>
        <time>2021-07-22T11:37:08Z</time>
      </trkpt>
      <trkpt lat="43.5399400" lon="-6.7166740">
        <ele>-17.0</ele>
        <time>2021-07-22T11:37:09Z</time>
      </trkpt>
      <trkpt lat="43.5399620" lon="-6.7167500">
        <ele>-17.8</ele>
        <time>2021-07-22T11:37:10Z</time>
      </trkpt>
      <trkpt lat="43.5399850" lon="-6.7168240">
        <ele>-18.4</ele>
        <time>2021-07-22T11:37:11Z</time>
      </trkpt>
      <trkpt lat="43.5400080" lon="-6.7168970">
        <ele>-19.2</ele>
        <time>2021-07-22T11:37:12Z</time>
      </trkpt>
      <trkpt lat="43.5400290" lon="-6.7169630">
        <ele>-19.8</ele>
        <time>2021-07-22T11:37:13Z</time>
      </trkpt>
      <trkpt lat="43.5400480" lon="-6.7170220">
        <ele>-20.4</ele>
        <time>2021-07-22T11:37:14Z</time>
      </trkpt>
      <trkpt lat="43.5400670" lon="-6.7170730">
        <ele>-21.2</ele>
        <time>2021-07-22T11:37:15Z</time>
      </trkpt>
      <trkpt lat="43.5400850" lon="-6.7171290">
        <ele>-22.6</ele>
        <time>2021-07-22T11:37:16Z</time>
      </trkpt>
      <trkpt lat="43.5401130" lon="-6.7171800">
        <ele>-23.4</ele>
        <time>2021-07-22T11:37:17Z</time>
      </trkpt>
      <trkpt lat="43.5401420" lon="-6.7172390">
        <ele>-24.0</ele>
        <time>2021-07-22T11:37:18Z</time>
      </trkpt>
      <trkpt lat="43.5401720" lon="-6.7173000">
        <ele>-24.6</ele>
        <time>2021-07-22T11:37:19Z</time>
      </trkpt>
      <trkpt lat="43.5402070" lon="-6.7173640">
        <ele>-25.2</ele>
        <time>2021-07-22T11:37:20Z</time>
      </trkpt>
      <trkpt lat="43.5402410" lon="-6.7174250">
        <ele>-25.8</ele>
        <time>2021-07-22T11:37:21Z</time>
      </trkpt>
      <trkpt lat="43.5402790" lon="-6.7174900">
        <ele>-26.4</ele>
        <time>2021-07-22T11:37:22Z</time>
      </trkpt>
      <trkpt lat="43.5403120" lon="-6.7175530">
        <ele>-27.0</ele>
        <time>2021-07-22T11:37:23Z</time>
      </trkpt>
      <trkpt lat="43.5403410" lon="-6.7176130">
        <ele>-27.8</ele>
        <time>2021-07-22T11:37:24Z</time>
      </trkpt>
      <trkpt lat="43.5403650" lon="-6.7176760">
        <ele>-28.6</ele>
        <time>2021-07-22T11:37:25Z</time>
      </trkpt>
      <trkpt lat="43.5403840" lon="-6.7177370">
        <ele>-29.6</ele>
        <time>2021-07-22T11:37:26Z</time>
      </trkpt>
      <trkpt lat="43.5404020" lon="-6.7178020">
        <ele>-30.4</ele>
        <time>2021-07-22T11:37:27Z</time>
      </trkpt>
      <trkpt lat="43.5404120" lon="-6.7178700">
        <ele>-31.0</ele>
        <time>2021-07-22T11:37:28Z</time>
      </trkpt>
      <trkpt lat="43.5404160" lon="-6.7179380">
        <ele>-31.6</ele>
        <time>2021-07-22T11:37:29Z</time>
      </trkpt>
      <trkpt lat="43.5404120" lon="-6.7180120">
        <ele>-32.2</ele>
        <time>2021-07-22T11:37:30Z</time>
      </trkpt>
      <trkpt lat="43.5404090" lon="-6.7181030">
        <ele>-33.0</ele>
        <time>2021-07-22T11:37:31Z</time>
      </trkpt>
      <trkpt lat="43.5404080" lon="-6.7181650">
        <ele>-33.6</ele>
        <time>2021-07-22T11:37:32Z</time>
      </trkpt>
      <trkpt lat="43.5404020" lon="-6.7182180">
        <ele>-34.4</ele>
        <time>2021-07-22T11:37:33Z</time>
      </trkpt>
      <trkpt lat="43.5403880" lon="-6.7182620">
        <ele>-35.2</ele>
        <time>2021-07-22T11:37:34Z</time>
      </trkpt>
      <trkpt lat="43.5403860" lon="-6.7183090">
        <ele>-36.8</ele>
        <time>2021-07-22T11:37:35Z</time>
      </trkpt>
      <trkpt lat="43.5403820" lon="-6.7183620">
        <ele>-37.6</ele>
        <time>2021-07-22T11:37:36Z</time>
      </trkpt>
      <trkpt lat="43.5403790" lon="-6.7184130">
        <ele>-38.4</ele>
        <time>2021-07-22T11:37:37Z</time>
      </trkpt>
      <trkpt lat="43.5403750" lon="-6.7184640">
        <ele>-39.2</ele>
        <time>2021-07-22T11:37:38Z</time>
      </trkpt>
      <trkpt lat="43.5403660" lon="-6.7185230">
        <ele>-40.0</ele>
        <time>2021-07-22T11:37:39Z</time>
      </trkpt>
      <trkpt lat="43.5403540" lon="-6.7185760">
        <ele>-40.6</ele>
        <time>2021-07-22T11:37:40Z</time>
      </trkpt>
      <trkpt lat="43.5403380" lon="-6.7186220">
        <ele>-41.2</ele>
        <time>2021-07-22T11:37:41Z</time>
      </trkpt>
      <trkpt lat="43.5403170" lon="-6.7186600">
        <ele>-41.8</ele>
        <time>2021-07-22T11:37:42Z</time>
      </trkpt>
      <trkpt lat="43.5402990" lon="-6.7186910">
        <ele>-42.4</ele>
        <time>2021-07-22T11:37:43Z</time>
      </trkpt>
      <trkpt lat="43.5402840" lon="-6.7187150">
        <ele>-42.8</ele>
        <time>2021-07-22T11:37:44Z</time>
      </trkpt>
      <trkpt lat="43.5402610" lon="-6.7187550">
        <ele>-43.4</ele>
        <time>2021-07-22T11:37:45Z</time>
      </trkpt>
      <trkpt lat="43.5402390" lon="-6.7188040">
        <ele>-43.8</ele>
        <time>2021-07-22T11:37:46Z</time>
      </trkpt>
      <trkpt lat="43.5402240" lon="-6.7188440">
        <ele>-44.4</ele>
        <time>2021-07-22T11:37:47Z</time>
      </trkpt>
      <trkpt lat="43.5402100" lon="-6.7188770">
        <ele>-44.8</ele>
        <time>2021-07-22T11:37:48Z</time>
      </trkpt>
      <trkpt lat="43.5401950" lon="-6.7189110">
        <ele>-45.4</ele>
        <time>2021-07-22T11:37:49Z</time>
      </trkpt>
      <trkpt lat="43.5401820" lon="-6.7189360">
        <ele>-45.8</ele>
        <time>2021-07-22T11:37:50Z</time>
      </trkpt>
      <trkpt lat="43.5401760" lon="-6.7189570">
        <ele>-46.2</ele>
        <time>2021-07-22T11:37:51Z</time>
      </trkpt>
      <trkpt lat="43.5401750" lon="-6.7189670">
        <ele>-46.6</ele>
        <time>2021-07-22T11:37:52Z</time>
      </trkpt>
      <trkpt lat="43.5401750" lon="-6.7189640">
        <ele>-47.0</ele>
        <time>2021-07-22T11:37:53Z</time>
      </trkpt>
      <trkpt lat="43.5401730" lon="-6.7189800">
        <ele>-47.4</ele>
        <time>2021-07-22T11:38:00Z</time>
      </trkpt>
      <trkpt lat="43.5401420" lon="-6.7190790">
        <ele>-47.4</ele>
        <time>2021-07-22T11:38:03Z</time>
      </trkpt>
      <trkpt lat="43.5401210" lon="-6.7191160">
        <ele>-47.4</ele>
        <time>2021-07-22T11:38:04Z</time>
      </trkpt>
      <trkpt lat="43.5399610" lon="-6.7193480">
        <ele>-47.4</ele>
        <time>2021-07-22T11:38:10Z</time>
      </trkpt>
      <trkpt lat="43.5399360" lon="-6.7193880">
        <ele>-47.8</ele>
        <time>2021-07-22T11:38:11Z</time>
      </trkpt>
      <trkpt lat="43.5399100" lon="-6.7194240">
        <ele>-48.2</ele>
        <time>2021-07-22T11:38:12Z</time>
      </trkpt>
      <trkpt lat="43.5398870" lon="-6.7194630">
        <ele>-48.6</ele>
        <time>2021-07-22T11:38:13Z</time>
      </trkpt>
      <trkpt lat="43.5398620" lon="-6.7195020">
        <ele>-49.0</ele>
        <time>2021-07-22T11:38:14Z</time>
      </trkpt>
      <trkpt lat="43.5398450" lon="-6.7195390">
        <ele>-49.4</ele>
        <time>2021-07-22T11:38:15Z</time>
      </trkpt>
      <trkpt lat="43.5397960" lon="-6.7196500">
        <ele>-49.4</ele>
        <time>2021-07-22T11:38:18Z</time>
      </trkpt>
      <trkpt lat="43.5397340" lon="-6.7198210">
        <ele>-49.4</ele>
        <time>2021-07-22T11:38:22Z</time>
      </trkpt>
      <trkpt lat="43.5396890" lon="-6.7199980">
        <ele>-49.4</ele>
        <time>2021-07-22T11:38:25Z</time>
      </trkpt>
      <trkpt lat="43.5396400" lon="-6.7202590">
        <ele>-49.4</ele>
        <time>2021-07-22T11:38:29Z</time>
      </trkpt>
      <trkpt lat="43.5396180" lon="-6.7203840">
        <ele>-49.8</ele>
        <time>2021-07-22T11:38:31Z</time>
      </trkpt>
      <trkpt lat="43.5396060" lon="-6.7204420">
        <ele>-50.2</ele>
        <time>2021-07-22T11:38:32Z</time>
      </trkpt>
      <trkpt lat="43.5395940" lon="-6.7204940">
        <ele>-50.6</ele>
        <time>2021-07-22T11:38:33Z</time>
      </trkpt>
      <trkpt lat="43.5395880" lon="-6.7205380">
        <ele>-51.2</ele>
        <time>2021-07-22T11:38:34Z</time>
      </trkpt>
      <trkpt lat="43.5395840" lon="-6.7205830">
        <ele>-51.6</ele>
        <time>2021-07-22T11:38:35Z</time>
      </trkpt>
      <trkpt lat="43.5395850" lon="-6.7206270">
        <ele>-52.0</ele>
        <time>2021-07-22T11:38:36Z</time>
      </trkpt>
      <trkpt lat="43.5395830" lon="-6.7206680">
        <ele>-52.4</ele>
        <time>2021-07-22T11:38:37Z</time>
      </trkpt>
      <trkpt lat="43.5395780" lon="-6.7207070">
        <ele>-52.8</ele>
        <time>2021-07-22T11:38:38Z</time>
      </trkpt>
      <trkpt lat="43.5395740" lon="-6.7207400">
        <ele>-53.2</ele>
        <time>2021-07-22T11:38:39Z</time>
      </trkpt>
      <trkpt lat="43.5395710" lon="-6.7207760">
        <ele>-53.6</ele>
        <time>2021-07-22T11:38:40Z</time>
      </trkpt>
      <trkpt lat="43.5395820" lon="-6.7208250">
        <ele>-53.6</ele>
        <time>2021-07-22T11:38:42Z</time>
      </trkpt>
      <trkpt lat="43.5395840" lon="-6.7208290">
        <ele>-53.6</ele>
        <time>2021-07-22T11:38:44Z</time>
      </trkpt>
      <trkpt lat="43.5395770" lon="-6.7208470">
        <ele>-53.6</ele>
        <time>2021-07-22T11:38:49Z</time>
      </trkpt>
      <trkpt lat="43.5395760" lon="-6.7208820">
        <ele>-53.6</ele>
        <time>2021-07-22T11:38:50Z</time>
      </trkpt>
      <trkpt lat="43.5395780" lon="-6.7209340">
        <ele>-54.2</ele>
        <time>2021-07-22T11:38:52Z</time>
      </trkpt>
      <trkpt lat="43.5395810" lon="-6.7209400">
        <ele>-54.6</ele>
        <time>2021-07-22T11:38:53Z</time>
      </trkpt>
      <trkpt lat="43.5395800" lon="-6.7209510">
        <ele>-55.0</ele>
        <time>2021-07-22T11:38:54Z</time>
      </trkpt>
      <trkpt lat="43.5395810" lon="-6.7209870">
        <ele>-55.4</ele>
        <time>2021-07-22T11:38:55Z</time>
      </trkpt>
      <trkpt lat="43.5395790" lon="-6.7210250">
        <ele>-55.8</ele>
        <time>2021-07-22T11:38:56Z</time>
      </trkpt>
      <trkpt lat="43.5395630" lon="-6.7211610">
        <ele>-55.8</ele>
        <time>2021-07-22T11:38:59Z</time>
      </trkpt>
      <trkpt lat="43.5395830" lon="-6.7214380">
        <ele>-55.8</ele>
        <time>2021-07-22T11:39:05Z</time>
      </trkpt>
      <trkpt lat="43.5395650" lon="-6.7217820">
        <ele>-55.8</ele>
        <time>2021-07-22T11:39:12Z</time>
      </trkpt>
      <trkpt lat="43.5395420" lon="-6.7221490">
        <ele>-55.8</ele>
        <time>2021-07-22T11:39:20Z</time>
      </trkpt>
      <trkpt lat="43.5395460" lon="-6.7222430">
        <ele>-55.8</ele>
        <time>2021-07-22T11:39:22Z</time>
      </trkpt>
      <trkpt lat="43.5395590" lon="-6.7224220">
        <ele>-55.8</ele>
        <time>2021-07-22T11:39:26Z</time>
      </trkpt>
      <trkpt lat="43.5395690" lon="-6.7224570">
        <ele>-55.8</ele>
        <time>2021-07-22T11:39:27Z</time>
      </trkpt>
      <trkpt lat="43.5395700" lon="-6.7224950">
        <ele>-56.2</ele>
        <time>2021-07-22T11:39:28Z</time>
      </trkpt>
      <trkpt lat="43.5395660" lon="-6.7225300">
        <ele>-56.6</ele>
        <time>2021-07-22T11:39:29Z</time>
      </trkpt>
      <trkpt lat="43.5395630" lon="-6.7225690">
        <ele>-57.0</ele>
        <time>2021-07-22T11:39:30Z</time>
      </trkpt>
      <trkpt lat="43.5395610" lon="-6.7226090">
        <ele>-57.4</ele>
        <time>2021-07-22T11:39:31Z</time>
      </trkpt>
      <trkpt lat="43.5395560" lon="-6.7226440">
        <ele>-57.8</ele>
        <time>2021-07-22T11:39:32Z</time>
      </trkpt>
      <trkpt lat="43.5395390" lon="-6.7227480">
        <ele>-57.8</ele>
        <time>2021-07-22T11:39:35Z</time>
      </trkpt>
      <trkpt lat="43.5395460" lon="-6.7228910">
        <ele>-57.8</ele>
        <time>2021-07-22T11:39:39Z</time>
      </trkpt>
      <trkpt lat="43.5396040" lon="-6.7229330">
        <ele>-58.2</ele>
        <time>2021-07-22T11:39:43Z</time>
      </trkpt>
      <trkpt lat="43.5396110" lon="-6.7229430">
        <ele>-58.8</ele>
        <time>2021-07-22T11:39:44Z</time>
      </trkpt>
      <trkpt lat="43.5396240" lon="-6.7229620">
        <ele>-59.2</ele>
        <time>2021-07-22T11:39:45Z</time>
      </trkpt>
      <trkpt lat="43.5396430" lon="-6.7229980">
        <ele>-59.6</ele>
        <time>2021-07-22T11:39:46Z</time>
      </trkpt>
      <trkpt lat="43.5396520" lon="-6.7230390">
        <ele>-60.0</ele>
        <time>2021-07-22T11:39:47Z</time>
      </trkpt>
      <trkpt lat="43.5396540" lon="-6.7230870">
        <ele>-60.0</ele>
        <time>2021-07-22T11:39:48Z</time>
      </trkpt>
      <trkpt lat="43.5396270" lon="-6.7232570">
        <ele>-60.0</ele>
        <time>2021-07-22T11:39:52Z</time>
      </trkpt>
      <trkpt lat="43.5396160" lon="-6.7232980">
        <ele>-60.0</ele>
        <time>2021-07-22T11:39:53Z</time>
      </trkpt>
      <trkpt lat="43.5396030" lon="-6.7233280">
        <ele>-60.4</ele>
        <time>2021-07-22T11:39:54Z</time>
      </trkpt>
      <trkpt lat="43.5395890" lon="-6.7233600">
        <ele>-60.8</ele>
        <time>2021-07-22T11:39:55Z</time>
      </trkpt>
      <trkpt lat="43.5395760" lon="-6.7234040">
        <ele>-61.2</ele>
        <time>2021-07-22T11:39:56Z</time>
      </trkpt>
      <trkpt lat="43.5395620" lon="-6.7234320">
        <ele>-61.6</ele>
        <time>2021-07-22T11:39:57Z</time>
      </trkpt>
      <trkpt lat="43.5395480" lon="-6.7234610">
        <ele>-62.0</ele>
        <time>2021-07-22T11:39:58Z</time>
      </trkpt>
      <trkpt lat="43.5394950" lon="-6.7235610">
        <ele>-62.0</ele>
        <time>2021-07-22T11:40:00Z</time>
      </trkpt>
      <trkpt lat="43.5393630" lon="-6.7237400">
        <ele>-62.4</ele>
        <time>2021-07-22T11:40:04Z</time>
      </trkpt>
      <trkpt lat="43.5393310" lon="-6.7237830">
        <ele>-62.8</ele>
        <time>2021-07-22T11:40:05Z</time>
      </trkpt>
      <trkpt lat="43.5392980" lon="-6.7238120">
        <ele>-63.2</ele>
        <time>2021-07-22T11:40:06Z</time>
      </trkpt>
      <trkpt lat="43.5392760" lon="-6.7238460">
        <ele>-63.6</ele>
        <time>2021-07-22T11:40:07Z</time>
      </trkpt>
      <trkpt lat="43.5392580" lon="-6.7238770">
        <ele>-64.2</ele>
        <time>2021-07-22T11:40:08Z</time>
      </trkpt>
      <trkpt lat="43.5392300" lon="-6.7239530">
        <ele>-64.2</ele>
        <time>2021-07-22T11:40:11Z</time>
      </trkpt>
      <trkpt lat="43.5392340" lon="-6.7239740">
        <ele>-64.2</ele>
        <time>2021-07-22T11:40:12Z</time>
      </trkpt>
      <trkpt lat="43.5392360" lon="-6.7239910">
        <ele>-64.2</ele>
        <time>2021-07-22T11:40:14Z</time>
      </trkpt>
      <trkpt lat="43.5391950" lon="-6.7240310">
        <ele>-66.2</ele>
        <time>2021-07-22T11:40:34Z</time>
      </trkpt>
      <trkpt lat="43.5391360" lon="-6.7240580">
        <ele>-66.2</ele>
        <time>2021-07-22T11:40:37Z</time>
      </trkpt>
      <trkpt lat="43.5390770" lon="-6.7241010">
        <ele>-66.2</ele>
        <time>2021-07-22T11:40:40Z</time>
      </trkpt>
      <trkpt lat="43.5389360" lon="-6.7241650">
        <ele>-66.2</ele>
        <time>2021-07-22T11:40:46Z</time>
      </trkpt>
      <trkpt lat="43.5388660" lon="-6.7241390">
        <ele>-66.2</ele>
        <time>2021-07-22T11:40:50Z</time>
      </trkpt>
      <trkpt lat="43.5388670" lon="-6.7241460">
        <ele>-66.2</ele>
        <time>2021-07-22T11:40:51Z</time>
      </trkpt>
      <trkpt lat="43.5388440" lon="-6.7241530">
        <ele>-66.2</ele>
        <time>2021-07-22T11:40:52Z</time>
      </trkpt>
      <trkpt lat="43.5388360" lon="-6.7242090">
        <ele>-66.2</ele>
        <time>2021-07-22T11:40:54Z</time>
      </trkpt>
      <trkpt lat="43.5388000" lon="-6.7244230">
        <ele>-66.2</ele>
        <time>2021-07-22T11:40:58Z</time>
      </trkpt>
      <trkpt lat="43.5387670" lon="-6.7245670">
        <ele>-66.6</ele>
        <time>2021-07-22T11:41:01Z</time>
      </trkpt>
      <trkpt lat="43.5387570" lon="-6.7246040">
        <ele>-67.0</ele>
        <time>2021-07-22T11:41:02Z</time>
      </trkpt>
      <trkpt lat="43.5387480" lon="-6.7246360">
        <ele>-67.6</ele>
        <time>2021-07-22T11:41:03Z</time>
      </trkpt>
      <trkpt lat="43.5387390" lon="-6.7246680">
        <ele>-68.0</ele>
        <time>2021-07-22T11:41:04Z</time>
      </trkpt>
      <trkpt lat="43.5387340" lon="-6.7246970">
        <ele>-68.4</ele>
        <time>2021-07-22T11:41:05Z</time>
      </trkpt>
      <trkpt lat="43.5387000" lon="-6.7247970">
        <ele>-68.4</ele>
        <time>2021-07-22T11:41:10Z</time>
      </trkpt>
      <trkpt lat="43.5387010" lon="-6.7248410">
        <ele>-68.4</ele>
        <time>2021-07-22T11:41:14Z</time>
      </trkpt>
      <trkpt lat="43.5387290" lon="-6.7248400">
        <ele>-68.4</ele>
        <time>2021-07-22T11:41:34Z</time>
      </trkpt>
      <trkpt lat="43.5387650" lon="-6.7248400">
        <ele>-68.4</ele>
        <time>2021-07-22T11:41:36Z</time>
      </trkpt>
      <trkpt lat="43.5388130" lon="-6.7248390">
        <ele>-68.4</ele>
        <time>2021-07-22T11:41:38Z</time>
      </trkpt>
      <trkpt lat="43.5388680" lon="-6.7248350">
        <ele>-68.4</ele>
        <time>2021-07-22T11:41:40Z</time>
      </trkpt>
      <trkpt lat="43.5391190" lon="-6.7247840">
        <ele>-68.4</ele>
        <time>2021-07-22T11:41:48Z</time>
      </trkpt>
      <trkpt lat="43.5392820" lon="-6.7247540">
        <ele>-68.4</ele>
        <time>2021-07-22T11:41:54Z</time>
      </trkpt>
      <trkpt lat="43.5394540" lon="-6.7247000">
        <ele>-68.4</ele>
        <time>2021-07-22T11:42:02Z</time>
      </trkpt>
      <trkpt lat="43.5394590" lon="-6.7247080">
        <ele>-68.4</ele>
        <time>2021-07-22T11:42:04Z</time>
      </trkpt>
      <trkpt lat="43.5394810" lon="-6.7247180">
        <ele>-68.4</ele>
        <time>2021-07-22T11:42:11Z</time>
      </trkpt>
      <trkpt lat="43.5395120" lon="-6.7247060">
        <ele>-68.4</ele>
        <time>2021-07-22T11:42:12Z</time>
      </trkpt>
      <trkpt lat="43.5396330" lon="-6.7245960">
        <ele>-68.4</ele>
        <time>2021-07-22T11:42:18Z</time>
      </trkpt>
      <trkpt lat="43.5396950" lon="-6.7244420">
        <ele>-68.4</ele>
        <time>2021-07-22T11:42:23Z</time>
      </trkpt>
      <trkpt lat="43.5397570" lon="-6.7244330">
        <ele>-68.4</ele>
        <time>2021-07-22T11:42:26Z</time>
      </trkpt>
      <trkpt lat="43.5397860" lon="-6.7244510">
        <ele>-68.4</ele>
        <time>2021-07-22T11:42:27Z</time>
      </trkpt>
      <trkpt lat="43.5398820" lon="-6.7244650">
        <ele>-68.4</ele>
        <time>2021-07-22T11:42:31Z</time>
      </trkpt>
      <trkpt lat="43.5399010" lon="-6.7244680">
        <ele>-68.4</ele>
        <time>2021-07-22T11:42:33Z</time>
      </trkpt>
      <trkpt lat="43.5398970" lon="-6.7244700">
        <ele>-68.4</ele>
        <time>2021-07-22T11:42:34Z</time>
      </trkpt>
      <trkpt lat="43.5399260" lon="-6.7244740">
        <ele>-68.4</ele>
        <time>2021-07-22T11:43:01Z</time>
      </trkpt>
      <trkpt lat="43.5399480" lon="-6.7244730">
        <ele>-68.4</ele>
        <time>2021-07-22T11:43:02Z</time>
      </trkpt>
      <trkpt lat="43.5399810" lon="-6.7244660">
        <ele>-68.4</ele>
        <time>2021-07-22T11:43:04Z</time>
      </trkpt>
      <trkpt lat="43.5400840" lon="-6.7244630">
        <ele>-68.4</ele>
        <time>2021-07-22T11:43:08Z</time>
      </trkpt>
      <trkpt lat="43.5402220" lon="-6.7244870">
        <ele>-68.4</ele>
        <time>2021-07-22T11:43:13Z</time>
      </trkpt>
      <trkpt lat="43.5402610" lon="-6.7245030">
        <ele>-68.4</ele>
        <time>2021-07-22T11:43:17Z</time>
      </trkpt>
      <trkpt lat="43.5402610" lon="-6.7245110">
        <ele>-68.4</ele>
        <time>2021-07-22T11:43:18Z</time>
      </trkpt>
      <trkpt lat="43.5402890" lon="-6.7245310">
        <ele>-68.4</ele>
        <time>2021-07-22T11:43:25Z</time>
      </trkpt>
      <trkpt lat="43.5403460" lon="-6.7245060">
        <ele>-68.4</ele>
        <time>2021-07-22T11:43:27Z</time>
      </trkpt>
      <trkpt lat="43.5404440" lon="-6.7244790">
        <ele>-68.4</ele>
        <time>2021-07-22T11:43:30Z</time>
      </trkpt>
      <trkpt lat="43.5405400" lon="-6.7244560">
        <ele>-68.4</ele>
        <time>2021-07-22T11:43:33Z</time>
      </trkpt>
      <trkpt lat="43.5406490" lon="-6.7244400">
        <ele>-68.4</ele>
        <time>2021-07-22T11:43:36Z</time>
      </trkpt>
      <trkpt lat="43.5407470" lon="-6.7244270">
        <ele>-68.4</ele>
        <time>2021-07-22T11:43:39Z</time>
      </trkpt>
      <trkpt lat="43.5408130" lon="-6.7244090">
        <ele>-68.4</ele>
        <time>2021-07-22T11:43:41Z</time>
      </trkpt>
      <trkpt lat="43.5409270" lon="-6.7243980">
        <ele>-68.4</ele>
        <time>2021-07-22T11:43:44Z</time>
      </trkpt>
      <trkpt lat="43.5409580" lon="-6.7243990">
        <ele>-67.4</ele>
        <time>2021-07-22T11:43:45Z</time>
      </trkpt>
      <trkpt lat="43.5409900" lon="-6.7244060">
        <ele>-67.0</ele>
        <time>2021-07-22T11:43:46Z</time>
      </trkpt>
      <trkpt lat="43.5410200" lon="-6.7244040">
        <ele>-66.6</ele>
        <time>2021-07-22T11:43:47Z</time>
      </trkpt>
      <trkpt lat="43.5410490" lon="-6.7244120">
        <ele>-66.2</ele>
        <time>2021-07-22T11:43:48Z</time>
      </trkpt>
      <trkpt lat="43.5411920" lon="-6.7245170">
        <ele>-66.2</ele>
        <time>2021-07-22T11:43:53Z</time>
      </trkpt>
      <trkpt lat="43.5412150" lon="-6.7245470">
        <ele>-66.2</ele>
        <time>2021-07-22T11:43:54Z</time>
      </trkpt>
      <trkpt lat="43.5413160" lon="-6.7247340">
        <ele>-66.2</ele>
        <time>2021-07-22T11:44:00Z</time>
      </trkpt>
      <trkpt lat="43.5413300" lon="-6.7247690">
        <ele>-66.2</ele>
        <time>2021-07-22T11:44:04Z</time>
      </trkpt>
      <trkpt lat="43.5413620" lon="-6.7248630">
        <ele>-66.2</ele>
        <time>2021-07-22T11:44:45Z</time>
      </trkpt>
      <trkpt lat="43.5413700" lon="-6.7248850">
        <ele>-66.2</ele>
        <time>2021-07-22T11:44:46Z</time>
      </trkpt>
      <trkpt lat="43.5414070" lon="-6.7249920">
        <ele>-66.2</ele>
        <time>2021-07-22T11:44:49Z</time>
      </trkpt>
      <trkpt lat="43.5414290" lon="-6.7250670">
        <ele>-66.2</ele>
        <time>2021-07-22T11:44:51Z</time>
      </trkpt>
      <trkpt lat="43.5414560" lon="-6.7251500">
        <ele>-66.2</ele>
        <time>2021-07-22T11:44:53Z</time>
      </trkpt>
      <trkpt lat="43.5414970" lon="-6.7252740">
        <ele>-65.8</ele>
        <time>2021-07-22T11:44:56Z</time>
      </trkpt>
      <trkpt lat="43.5415110" lon="-6.7253200">
        <ele>-65.4</ele>
        <time>2021-07-22T11:44:57Z</time>
      </trkpt>
      <trkpt lat="43.5415270" lon="-6.7253660">
        <ele>-65.0</ele>
        <time>2021-07-22T11:44:58Z</time>
      </trkpt>
      <trkpt lat="43.5415400" lon="-6.7254180">
        <ele>-64.2</ele>
        <time>2021-07-22T11:44:59Z</time>
      </trkpt>
      <trkpt lat="43.5415740" lon="-6.7255280">
        <ele>-64.2</ele>
        <time>2021-07-22T11:45:01Z</time>
      </trkpt>
      <trkpt lat="43.5416860" lon="-6.7258350">
        <ele>-64.2</ele>
        <time>2021-07-22T11:45:07Z</time>
      </trkpt>
      <trkpt lat="43.5417050" lon="-6.7258880">
        <ele>-64.2</ele>
        <time>2021-07-22T11:45:08Z</time>
      </trkpt>
      <trkpt lat="43.5417790" lon="-6.7261110">
        <ele>-64.2</ele>
        <time>2021-07-22T11:45:12Z</time>
      </trkpt>
      <trkpt lat="43.5418890" lon="-6.7264440">
        <ele>-64.2</ele>
        <time>2021-07-22T11:45:18Z</time>
      </trkpt>
      <trkpt lat="43.5419480" lon="-6.7266050">
        <ele>-64.2</ele>
        <time>2021-07-22T11:45:22Z</time>
      </trkpt>
      <trkpt lat="43.5419570" lon="-6.7266200">
        <ele>-64.2</ele>
        <time>2021-07-22T11:45:23Z</time>
      </trkpt>
      <trkpt lat="43.5419660" lon="-6.7266340">
        <ele>-64.2</ele>
        <time>2021-07-22T11:45:25Z</time>
      </trkpt>
      <trkpt lat="43.5419720" lon="-6.7266430">
        <ele>-64.2</ele>
        <time>2021-07-22T11:45:35Z</time>
      </trkpt>
      <trkpt lat="43.5419780" lon="-6.7266640">
        <ele>-64.2</ele>
        <time>2021-07-22T11:45:36Z</time>
      </trkpt>
      <trkpt lat="43.5420010" lon="-6.7267350">
        <ele>-64.2</ele>
        <time>2021-07-22T11:45:39Z</time>
      </trkpt>
      <trkpt lat="43.5420370" lon="-6.7268290">
        <ele>-64.2</ele>
        <time>2021-07-22T11:45:42Z</time>
      </trkpt>
      <trkpt lat="43.5421070" lon="-6.7270140">
        <ele>-64.2</ele>
        <time>2021-07-22T11:45:47Z</time>
      </trkpt>
      <trkpt lat="43.5421360" lon="-6.7270790">
        <ele>-64.2</ele>
        <time>2021-07-22T11:45:49Z</time>
      </trkpt>
      <trkpt lat="43.5421500" lon="-6.7271140">
        <ele>-64.2</ele>
        <time>2021-07-22T11:45:51Z</time>
      </trkpt>
      <trkpt lat="43.5421570" lon="-6.7271190">
        <ele>-64.2</ele>
        <time>2021-07-22T11:46:14Z</time>
      </trkpt>
      <trkpt lat="43.5421080" lon="-6.7272150">
        <ele>-64.2</ele>
        <time>2021-07-22T11:46:18Z</time>
      </trkpt>
      <trkpt lat="43.5420570" lon="-6.7272840">
        <ele>-64.2</ele>
        <time>2021-07-22T11:46:20Z</time>
      </trkpt>
      <trkpt lat="43.5420010" lon="-6.7273680">
        <ele>-64.2</ele>
        <time>2021-07-22T11:46:22Z</time>
      </trkpt>
      <trkpt lat="43.5419690" lon="-6.7274140">
        <ele>-64.2</ele>
        <time>2021-07-22T11:46:23Z</time>
      </trkpt>
      <trkpt lat="43.5417670" lon="-6.7276630">
        <ele>-64.2</ele>
        <time>2021-07-22T11:46:30Z</time>
      </trkpt>
      <trkpt lat="43.5417390" lon="-6.7276900">
        <ele>-64.2</ele>
        <time>2021-07-22T11:46:31Z</time>
      </trkpt>
      <trkpt lat="43.5416900" lon="-6.7277370">
        <ele>-64.2</ele>
        <time>2021-07-22T11:46:33Z</time>
      </trkpt>
      <trkpt lat="43.5416160" lon="-6.7277920">
        <ele>-64.2</ele>
        <time>2021-07-22T11:46:36Z</time>
      </trkpt>
      <trkpt lat="43.5415680" lon="-6.7278270">
        <ele>-64.2</ele>
        <time>2021-07-22T11:46:38Z</time>
      </trkpt>
      <trkpt lat="43.5415150" lon="-6.7279060">
        <ele>-64.2</ele>
        <time>2021-07-22T11:46:41Z</time>
      </trkpt>
      <trkpt lat="43.5414980" lon="-6.7279330">
        <ele>-63.6</ele>
        <time>2021-07-22T11:46:42Z</time>
      </trkpt>
      <trkpt lat="43.5414820" lon="-6.7279650">
        <ele>-63.2</ele>
        <time>2021-07-22T11:46:43Z</time>
      </trkpt>
      <trkpt lat="43.5414660" lon="-6.7279940">
        <ele>-62.8</ele>
        <time>2021-07-22T11:46:44Z</time>
      </trkpt>
      <trkpt lat="43.5414510" lon="-6.7280210">
        <ele>-62.2</ele>
        <time>2021-07-22T11:46:45Z</time>
      </trkpt>
      <trkpt lat="43.5414350" lon="-6.7280450">
        <ele>-61.8</ele>
        <time>2021-07-22T11:46:46Z</time>
      </trkpt>
      <trkpt lat="43.5413760" lon="-6.7281210">
        <ele>-61.8</ele>
        <time>2021-07-22T11:46:50Z</time>
      </trkpt>
      <trkpt lat="43.5413160" lon="-6.7282030">
        <ele>-61.4</ele>
        <time>2021-07-22T11:46:54Z</time>
      </trkpt>
      <trkpt lat="43.5412990" lon="-6.7282210">
        <ele>-61.0</ele>
        <time>2021-07-22T11:46:55Z</time>
      </trkpt>
      <trkpt lat="43.5412820" lon="-6.7282420">
        <ele>-60.6</ele>
        <time>2021-07-22T11:46:56Z</time>
      </trkpt>
      <trkpt lat="43.5412650" lon="-6.7282610">
        <ele>-60.2</ele>
        <time>2021-07-22T11:46:57Z</time>
      </trkpt>
      <trkpt lat="43.5412480" lon="-6.7282740">
        <ele>-59.6</ele>
        <time>2021-07-22T11:46:58Z</time>
      </trkpt>
      <trkpt lat="43.5412040" lon="-6.7283080">
        <ele>-59.6</ele>
        <time>2021-07-22T11:47:01Z</time>
      </trkpt>
      <trkpt lat="43.5411420" lon="-6.7283830">
        <ele>-59.2</ele>
        <time>2021-07-22T11:47:05Z</time>
      </trkpt>
      <trkpt lat="43.5411260" lon="-6.7284020">
        <ele>-58.8</ele>
        <time>2021-07-22T11:47:06Z</time>
      </trkpt>
      <trkpt lat="43.5411110" lon="-6.7284190">
        <ele>-58.4</ele>
        <time>2021-07-22T11:47:07Z</time>
      </trkpt>
      <trkpt lat="43.5410960" lon="-6.7284350">
        <ele>-58.0</ele>
        <time>2021-07-22T11:47:08Z</time>
      </trkpt>
      <trkpt lat="43.5410820" lon="-6.7284530">
        <ele>-57.6</ele>
        <time>2021-07-22T11:47:09Z</time>
      </trkpt>
      <trkpt lat="43.5410270" lon="-6.7286300">
        <ele>-57.6</ele>
        <time>2021-07-22T11:47:17Z</time>
      </trkpt>
      <trkpt lat="43.5410190" lon="-6.7286520">
        <ele>-57.2</ele>
        <time>2021-07-22T11:47:18Z</time>
      </trkpt>
      <trkpt lat="43.5410090" lon="-6.7286740">
        <ele>-56.8</ele>
        <time>2021-07-22T11:47:19Z</time>
      </trkpt>
      <trkpt lat="43.5410020" lon="-6.7286950">
        <ele>-56.4</ele>
        <time>2021-07-22T11:47:20Z</time>
      </trkpt>
      <trkpt lat="43.5409990" lon="-6.7287180">
        <ele>-56.0</ele>
        <time>2021-07-22T11:47:21Z</time>
      </trkpt>
      <trkpt lat="43.5409960" lon="-6.7287400">
        <ele>-55.6</ele>
        <time>2021-07-22T11:47:22Z</time>
      </trkpt>
      <trkpt lat="43.5409830" lon="-6.7287830">
        <ele>-55.6</ele>
        <time>2021-07-22T11:47:24Z</time>
      </trkpt>
      <trkpt lat="43.5409100" lon="-6.7289120">
        <ele>-55.2</ele>
        <time>2021-07-22T11:47:31Z</time>
      </trkpt>
      <trkpt lat="43.5408990" lon="-6.7289300">
        <ele>-54.8</ele>
        <time>2021-07-22T11:47:32Z</time>
      </trkpt>
      <trkpt lat="43.5408900" lon="-6.7289460">
        <ele>-54.4</ele>
        <time>2021-07-22T11:47:33Z</time>
      </trkpt>
      <trkpt lat="43.5408800" lon="-6.7289620">
        <ele>-54.0</ele>
        <time>2021-07-22T11:47:34Z</time>
      </trkpt>
      <trkpt lat="43.5408680" lon="-6.7289750">
        <ele>-53.6</ele>
        <time>2021-07-22T11:47:35Z</time>
      </trkpt>
      <trkpt lat="43.5408100" lon="-6.7290520">
        <ele>-53.6</ele>
        <time>2021-07-22T11:47:40Z</time>
      </trkpt>
      <trkpt lat="43.5407470" lon="-6.7291450">
        <ele>-53.2</ele>
        <time>2021-07-22T11:47:46Z</time>
      </trkpt>
      <trkpt lat="43.5407340" lon="-6.7291600">
        <ele>-52.8</ele>
        <time>2021-07-22T11:47:47Z</time>
      </trkpt>
      <trkpt lat="43.5407230" lon="-6.7291750">
        <ele>-52.4</ele>
        <time>2021-07-22T11:47:48Z</time>
      </trkpt>
      <trkpt lat="43.5407140" lon="-6.7291930">
        <ele>-52.0</ele>
        <time>2021-07-22T11:47:49Z</time>
      </trkpt>
      <trkpt lat="43.5407050" lon="-6.7292110">
        <ele>-51.6</ele>
        <time>2021-07-22T11:47:50Z</time>
      </trkpt>
      <trkpt lat="43.5406500" lon="-6.7293090">
        <ele>-51.6</ele>
        <time>2021-07-22T11:47:56Z</time>
      </trkpt>
      <trkpt lat="43.5406030" lon="-6.7293630">
        <ele>-51.2</ele>
        <time>2021-07-22T11:48:00Z</time>
      </trkpt>
      <trkpt lat="43.5405930" lon="-6.7293810">
        <ele>-50.6</ele>
        <time>2021-07-22T11:48:01Z</time>
      </trkpt>
      <trkpt lat="43.5405830" lon="-6.7294000">
        <ele>-50.2</ele>
        <time>2021-07-22T11:48:02Z</time>
      </trkpt>
      <trkpt lat="43.5405740" lon="-6.7294150">
        <ele>-49.8</ele>
        <time>2021-07-22T11:48:03Z</time>
      </trkpt>
      <trkpt lat="43.5405630" lon="-6.7294330">
        <ele>-49.4</ele>
        <time>2021-07-22T11:48:04Z</time>
      </trkpt>
      <trkpt lat="43.5405270" lon="-6.7295070">
        <ele>-49.4</ele>
        <time>2021-07-22T11:48:08Z</time>
      </trkpt>
      <trkpt lat="43.5404740" lon="-6.7295820">
        <ele>-49.4</ele>
        <time>2021-07-22T11:48:13Z</time>
      </trkpt>
      <trkpt lat="43.5404550" lon="-6.7296260">
        <ele>-49.0</ele>
        <time>2021-07-22T11:48:15Z</time>
      </trkpt>
      <trkpt lat="43.5404430" lon="-6.7296420">
        <ele>-48.6</ele>
        <time>2021-07-22T11:48:16Z</time>
      </trkpt>
      <trkpt lat="43.5404300" lon="-6.7296610">
        <ele>-47.8</ele>
        <time>2021-07-22T11:48:17Z</time>
      </trkpt>
      <trkpt lat="43.5404180" lon="-6.7296810">
        <ele>-47.4</ele>
        <time>2021-07-22T11:48:18Z</time>
      </trkpt>
      <trkpt lat="43.5403540" lon="-6.7297620">
        <ele>-47.4</ele>
        <time>2021-07-22T11:48:23Z</time>
      </trkpt>
      <trkpt lat="43.5402850" lon="-6.7298190">
        <ele>-47.0</ele>
        <time>2021-07-22T11:48:28Z</time>
      </trkpt>
      <trkpt lat="43.5402710" lon="-6.7298330">
        <ele>-46.6</ele>
        <time>2021-07-22T11:48:29Z</time>
      </trkpt>
      <trkpt lat="43.5402570" lon="-6.7298460">
        <ele>-46.2</ele>
        <time>2021-07-22T11:48:30Z</time>
      </trkpt>
      <trkpt lat="43.5402430" lon="-6.7298590">
        <ele>-45.8</ele>
        <time>2021-07-22T11:48:31Z</time>
      </trkpt>
      <trkpt lat="43.5402300" lon="-6.7298710">
        <ele>-45.4</ele>
        <time>2021-07-22T11:48:32Z</time>
      </trkpt>
      <trkpt lat="43.5401320" lon="-6.7299650">
        <ele>-45.4</ele>
        <time>2021-07-22T11:48:39Z</time>
      </trkpt>
      <trkpt lat="43.5400350" lon="-6.7300470">
        <ele>-44.8</ele>
        <time>2021-07-22T11:48:46Z</time>
      </trkpt>
      <trkpt lat="43.5400210" lon="-6.7300610">
        <ele>-44.4</ele>
        <time>2021-07-22T11:48:47Z</time>
      </trkpt>
      <trkpt lat="43.5400080" lon="-6.7300780">
        <ele>-44.0</ele>
        <time>2021-07-22T11:48:48Z</time>
      </trkpt>
      <trkpt lat="43.5399940" lon="-6.7300940">
        <ele>-43.6</ele>
        <time>2021-07-22T11:48:49Z</time>
      </trkpt>
      <trkpt lat="43.5399800" lon="-6.7301100">
        <ele>-43.2</ele>
        <time>2021-07-22T11:48:50Z</time>
      </trkpt>
      <trkpt lat="43.5399180" lon="-6.7301590">
        <ele>-43.2</ele>
        <time>2021-07-22T11:48:54Z</time>
      </trkpt>
      <trkpt lat="43.5397970" lon="-6.7302640">
        <ele>-43.2</ele>
        <time>2021-07-22T11:49:02Z</time>
      </trkpt>
      <trkpt lat="43.5397350" lon="-6.7302800">
        <ele>-42.8</ele>
        <time>2021-07-22T11:49:06Z</time>
      </trkpt>
      <trkpt lat="43.5397210" lon="-6.7302880">
        <ele>-42.0</ele>
        <time>2021-07-22T11:49:07Z</time>
      </trkpt>
      <trkpt lat="43.5397120" lon="-6.7302940">
        <ele>-41.6</ele>
        <time>2021-07-22T11:49:08Z</time>
      </trkpt>
      <trkpt lat="43.5397100" lon="-6.7302950">
        <ele>-41.2</ele>
        <time>2021-07-22T11:49:09Z</time>
      </trkpt>
      <trkpt lat="43.5396820" lon="-6.7303380">
        <ele>-41.2</ele>
        <time>2021-07-22T11:51:13Z</time>
      </trkpt>
      <trkpt lat="43.5396720" lon="-6.7303540">
        <ele>-41.2</ele>
        <time>2021-07-22T11:51:14Z</time>
      </trkpt>
      <trkpt lat="43.5396500" lon="-6.7303970">
        <ele>-41.2</ele>
        <time>2021-07-22T11:51:16Z</time>
      </trkpt>
      <trkpt lat="43.5396120" lon="-6.7304800">
        <ele>-41.2</ele>
        <time>2021-07-22T11:51:19Z</time>
      </trkpt>
      <trkpt lat="43.5395420" lon="-6.7306050">
        <ele>-41.2</ele>
        <time>2021-07-22T11:51:24Z</time>
      </trkpt>
      <trkpt lat="43.5395120" lon="-6.7306490">
        <ele>-41.2</ele>
        <time>2021-07-22T11:51:26Z</time>
      </trkpt>
      <trkpt lat="43.5394740" lon="-6.7307140">
        <ele>-41.2</ele>
        <time>2021-07-22T11:51:29Z</time>
      </trkpt>
      <trkpt lat="43.5394680" lon="-6.7307420">
        <ele>-40.8</ele>
        <time>2021-07-22T11:51:30Z</time>
      </trkpt>
      <trkpt lat="43.5394690" lon="-6.7307700">
        <ele>-40.4</ele>
        <time>2021-07-22T11:51:31Z</time>
      </trkpt>
      <trkpt lat="43.5394710" lon="-6.7307970">
        <ele>-40.0</ele>
        <time>2021-07-22T11:51:32Z</time>
      </trkpt>
      <trkpt lat="43.5394740" lon="-6.7308240">
        <ele>-39.4</ele>
        <time>2021-07-22T11:51:33Z</time>
      </trkpt>
      <trkpt lat="43.5394760" lon="-6.7308510">
        <ele>-39.0</ele>
        <time>2021-07-22T11:51:34Z</time>
      </trkpt>
      <trkpt lat="43.5394900" lon="-6.7309540">
        <ele>-39.0</ele>
        <time>2021-07-22T11:51:38Z</time>
      </trkpt>
      <trkpt lat="43.5395010" lon="-6.7310590">
        <ele>-39.0</ele>
        <time>2021-07-22T11:51:42Z</time>
      </trkpt>
      <trkpt lat="43.5395240" lon="-6.7311570">
        <ele>-39.0</ele>
        <time>2021-07-22T11:51:46Z</time>
      </trkpt>
      <trkpt lat="43.5395430" lon="-6.7312640">
        <ele>-38.6</ele>
        <time>2021-07-22T11:51:50Z</time>
      </trkpt>
      <trkpt lat="43.5395460" lon="-6.7312880">
        <ele>-38.2</ele>
        <time>2021-07-22T11:51:51Z</time>
      </trkpt>
      <trkpt lat="43.5395480" lon="-6.7313100">
        <ele>-37.8</ele>
        <time>2021-07-22T11:51:52Z</time>
      </trkpt>
      <trkpt lat="43.5395490" lon="-6.7313330">
        <ele>-37.4</ele>
        <time>2021-07-22T11:51:53Z</time>
      </trkpt>
      <trkpt lat="43.5395530" lon="-6.7313550">
        <ele>-37.0</ele>
        <time>2021-07-22T11:51:54Z</time>
      </trkpt>
      <trkpt lat="43.5395670" lon="-6.7314550">
        <ele>-37.0</ele>
        <time>2021-07-22T11:51:59Z</time>
      </trkpt>
      <trkpt lat="43.5395730" lon="-6.7314990">
        <ele>-36.6</ele>
        <time>2021-07-22T11:52:01Z</time>
      </trkpt>
      <trkpt lat="43.5395770" lon="-6.7315220">
        <ele>-36.2</ele>
        <time>2021-07-22T11:52:02Z</time>
      </trkpt>
      <trkpt lat="43.5395810" lon="-6.7315420">
        <ele>-35.6</ele>
        <time>2021-07-22T11:52:03Z</time>
      </trkpt>
      <trkpt lat="43.5395880" lon="-6.7315580">
        <ele>-35.2</ele>
        <time>2021-07-22T11:52:04Z</time>
      </trkpt>
      <trkpt lat="43.5395940" lon="-6.7315720">
        <ele>-34.8</ele>
        <time>2021-07-22T11:52:05Z</time>
      </trkpt>
      <trkpt lat="43.5396130" lon="-6.7316190">
        <ele>-34.8</ele>
        <time>2021-07-22T11:52:08Z</time>
      </trkpt>
      <trkpt lat="43.5396520" lon="-6.7316840">
        <ele>-34.4</ele>
        <time>2021-07-22T11:52:12Z</time>
      </trkpt>
      <trkpt lat="43.5396610" lon="-6.7316980">
        <ele>-34.0</ele>
        <time>2021-07-22T11:52:13Z</time>
      </trkpt>
      <trkpt lat="43.5396720" lon="-6.7317140">
        <ele>-33.6</ele>
        <time>2021-07-22T11:52:14Z</time>
      </trkpt>
      <trkpt lat="43.5396830" lon="-6.7317310">
        <ele>-33.2</ele>
        <time>2021-07-22T11:52:15Z</time>
      </trkpt>
      <trkpt lat="43.5396930" lon="-6.7317480">
        <ele>-32.8</ele>
        <time>2021-07-22T11:52:16Z</time>
      </trkpt>
      <trkpt lat="43.5397470" lon="-6.7318500">
        <ele>-32.8</ele>
        <time>2021-07-22T11:52:22Z</time>
      </trkpt>
      <trkpt lat="43.5397620" lon="-6.7318850">
        <ele>-32.4</ele>
        <time>2021-07-22T11:52:24Z</time>
      </trkpt>
      <trkpt lat="43.5397690" lon="-6.7319040">
        <ele>-31.4</ele>
        <time>2021-07-22T11:52:25Z</time>
      </trkpt>
      <trkpt lat="43.5397750" lon="-6.7319220">
        <ele>-31.0</ele>
        <time>2021-07-22T11:52:26Z</time>
      </trkpt>
      <trkpt lat="43.5397800" lon="-6.7319390">
        <ele>-30.6</ele>
        <time>2021-07-22T11:52:27Z</time>
      </trkpt>
      <trkpt lat="43.5397890" lon="-6.7319730">
        <ele>-30.6</ele>
        <time>2021-07-22T11:52:29Z</time>
      </trkpt>
      <trkpt lat="43.5398100" lon="-6.7320400">
        <ele>-30.2</ele>
        <time>2021-07-22T11:52:33Z</time>
      </trkpt>
      <trkpt lat="43.5398150" lon="-6.7320580">
        <ele>-29.8</ele>
        <time>2021-07-22T11:52:34Z</time>
      </trkpt>
      <trkpt lat="43.5398180" lon="-6.7320780">
        <ele>-29.4</ele>
        <time>2021-07-22T11:52:35Z</time>
      </trkpt>
      <trkpt lat="43.5398210" lon="-6.7320960">
        <ele>-29.0</ele>
        <time>2021-07-22T11:52:36Z</time>
      </trkpt>
      <trkpt lat="43.5398250" lon="-6.7321120">
        <ele>-28.6</ele>
        <time>2021-07-22T11:52:37Z</time>
      </trkpt>
      <trkpt lat="43.5398320" lon="-6.7321300">
        <ele>-28.6</ele>
        <time>2021-07-22T11:52:38Z</time>
      </trkpt>
      <trkpt lat="43.5398620" lon="-6.7322400">
        <ele>-28.2</ele>
        <time>2021-07-22T11:52:44Z</time>
      </trkpt>
      <trkpt lat="43.5398650" lon="-6.7322580">
        <ele>-27.8</ele>
        <time>2021-07-22T11:52:45Z</time>
      </trkpt>
      <trkpt lat="43.5398690" lon="-6.7322760">
        <ele>-27.2</ele>
        <time>2021-07-22T11:52:46Z</time>
      </trkpt>
      <trkpt lat="43.5398730" lon="-6.7322940">
        <ele>-26.8</ele>
        <time>2021-07-22T11:52:47Z</time>
      </trkpt>
      <trkpt lat="43.5398770" lon="-6.7323140">
        <ele>-26.4</ele>
        <time>2021-07-22T11:52:48Z</time>
      </trkpt>
      <trkpt lat="43.5398800" lon="-6.7323640">
        <ele>-26.4</ele>
        <time>2021-07-22T11:52:51Z</time>
      </trkpt>
      <trkpt lat="43.5398800" lon="-6.7323810">
        <ele>-26.4</ele>
        <time>2021-07-22T11:52:52Z</time>
      </trkpt>
      <trkpt lat="43.5398840" lon="-6.7324260">
        <ele>-26.0</ele>
        <time>2021-07-22T11:52:55Z</time>
      </trkpt>
      <trkpt lat="43.5398870" lon="-6.7324430">
        <ele>-25.6</ele>
        <time>2021-07-22T11:52:56Z</time>
      </trkpt>
      <trkpt lat="43.5398900" lon="-6.7324600">
        <ele>-25.0</ele>
        <time>2021-07-22T11:52:57Z</time>
      </trkpt>
      <trkpt lat="43.5398940" lon="-6.7324760">
        <ele>-24.6</ele>
        <time>2021-07-22T11:52:58Z</time>
      </trkpt>
      <trkpt lat="43.5398980" lon="-6.7324920">
        <ele>-24.2</ele>
        <time>2021-07-22T11:52:59Z</time>
      </trkpt>
      <trkpt lat="43.5399150" lon="-6.7325990">
        <ele>-23.8</ele>
        <time>2021-07-22T11:53:06Z</time>
      </trkpt>
      <trkpt lat="43.5399200" lon="-6.7326140">
        <ele>-23.4</ele>
        <time>2021-07-22T11:53:07Z</time>
      </trkpt>
      <trkpt lat="43.5399280" lon="-6.7326310">
        <ele>-22.8</ele>
        <time>2021-07-22T11:53:08Z</time>
      </trkpt>
      <trkpt lat="43.5399360" lon="-6.7326480">
        <ele>-22.4</ele>
        <time>2021-07-22T11:53:09Z</time>
      </trkpt>
      <trkpt lat="43.5399420" lon="-6.7326670">
        <ele>-22.0</ele>
        <time>2021-07-22T11:53:10Z</time>
      </trkpt>
      <trkpt lat="43.5399470" lon="-6.7326800">
        <ele>-22.0</ele>
        <time>2021-07-22T11:53:11Z</time>
      </trkpt>
      <trkpt lat="43.5399560" lon="-6.7327090">
        <ele>-22.0</ele>
        <time>2021-07-22T11:53:13Z</time>
      </trkpt>
      <trkpt lat="43.5399610" lon="-6.7327360">
        <ele>-21.6</ele>
        <time>2021-07-22T11:53:15Z</time>
      </trkpt>
      <trkpt lat="43.5399660" lon="-6.7327490">
        <ele>-21.2</ele>
        <time>2021-07-22T11:53:16Z</time>
      </trkpt>
      <trkpt lat="43.5399710" lon="-6.7327630">
        <ele>-20.8</ele>
        <time>2021-07-22T11:53:17Z</time>
      </trkpt>
      <trkpt lat="43.5399760" lon="-6.7327790">
        <ele>-20.4</ele>
        <time>2021-07-22T11:53:18Z</time>
      </trkpt>
      <trkpt lat="43.5399820" lon="-6.7327960">
        <ele>-20.0</ele>
        <time>2021-07-22T11:53:19Z</time>
      </trkpt>
      <trkpt lat="43.5399990" lon="-6.7328330">
        <ele>-20.0</ele>
        <time>2021-07-22T11:53:21Z</time>
      </trkpt>
      <trkpt lat="43.5400010" lon="-6.7328690">
        <ele>-20.0</ele>
        <time>2021-07-22T11:53:23Z</time>
      </trkpt>
      <trkpt lat="43.5400090" lon="-6.7329350">
        <ele>-19.6</ele>
        <time>2021-07-22T11:53:27Z</time>
      </trkpt>
      <trkpt lat="43.5400120" lon="-6.7329500">
        <ele>-19.2</ele>
        <time>2021-07-22T11:53:28Z</time>
      </trkpt>
      <trkpt lat="43.5400170" lon="-6.7329670">
        <ele>-18.6</ele>
        <time>2021-07-22T11:53:29Z</time>
      </trkpt>
      <trkpt lat="43.5400230" lon="-6.7329830">
        <ele>-18.2</ele>
        <time>2021-07-22T11:53:30Z</time>
      </trkpt>
      <trkpt lat="43.5400270" lon="-6.7329990">
        <ele>-17.8</ele>
        <time>2021-07-22T11:53:31Z</time>
      </trkpt>
      <trkpt lat="43.5400390" lon="-6.7330550">
        <ele>-17.8</ele>
        <time>2021-07-22T11:53:35Z</time>
      </trkpt>
      <trkpt lat="43.5400520" lon="-6.7331150">
        <ele>-17.0</ele>
        <time>2021-07-22T11:53:39Z</time>
      </trkpt>
      <trkpt lat="43.5400540" lon="-6.7331320">
        <ele>-16.6</ele>
        <time>2021-07-22T11:53:40Z</time>
      </trkpt>
      <trkpt lat="43.5400570" lon="-6.7331460">
        <ele>-16.2</ele>
        <time>2021-07-22T11:53:41Z</time>
      </trkpt>
      <trkpt lat="43.5400600" lon="-6.7331590">
        <ele>-15.8</ele>
        <time>2021-07-22T11:53:42Z</time>
      </trkpt>
      <trkpt lat="43.5400720" lon="-6.7332380">
        <ele>-15.8</ele>
        <time>2021-07-22T11:53:47Z</time>
      </trkpt>
      <trkpt lat="43.5400780" lon="-6.7332700">
        <ele>-15.4</ele>
        <time>2021-07-22T11:53:49Z</time>
      </trkpt>
      <trkpt lat="43.5400800" lon="-6.7332870">
        <ele>-15.0</ele>
        <time>2021-07-22T11:53:50Z</time>
      </trkpt>
      <trkpt lat="43.5400810" lon="-6.7333030">
        <ele>-14.6</ele>
        <time>2021-07-22T11:53:51Z</time>
      </trkpt>
      <trkpt lat="43.5400830" lon="-6.7333210">
        <ele>-14.2</ele>
        <time>2021-07-22T11:53:52Z</time>
      </trkpt>
      <trkpt lat="43.5400860" lon="-6.7333380">
        <ele>-13.8</ele>
        <time>2021-07-22T11:53:53Z</time>
      </trkpt>
      <trkpt lat="43.5400980" lon="-6.7333940">
        <ele>-13.8</ele>
        <time>2021-07-22T11:53:56Z</time>
      </trkpt>
      <trkpt lat="43.5401220" lon="-6.7335330">
        <ele>-13.4</ele>
        <time>2021-07-22T11:54:04Z</time>
      </trkpt>
      <trkpt lat="43.5401220" lon="-6.7335500">
        <ele>-13.0</ele>
        <time>2021-07-22T11:54:05Z</time>
      </trkpt>
      <trkpt lat="43.5401200" lon="-6.7335660">
        <ele>-12.6</ele>
        <time>2021-07-22T11:54:06Z</time>
      </trkpt>
      <trkpt lat="43.5401220" lon="-6.7335840">
        <ele>-12.0</ele>
        <time>2021-07-22T11:54:07Z</time>
      </trkpt>
      <trkpt lat="43.5401260" lon="-6.7336020">
        <ele>-11.6</ele>
        <time>2021-07-22T11:54:08Z</time>
      </trkpt>
      <trkpt lat="43.5401310" lon="-6.7336500">
        <ele>-11.6</ele>
        <time>2021-07-22T11:54:11Z</time>
      </trkpt>
      <trkpt lat="43.5401360" lon="-6.7337540">
        <ele>-11.2</ele>
        <time>2021-07-22T11:54:17Z</time>
      </trkpt>
      <trkpt lat="43.5401380" lon="-6.7337710">
        <ele>-10.8</ele>
        <time>2021-07-22T11:54:18Z</time>
      </trkpt>
      <trkpt lat="43.5401410" lon="-6.7337870">
        <ele>-10.4</ele>
        <time>2021-07-22T11:54:19Z</time>
      </trkpt>
      <trkpt lat="43.5401450" lon="-6.7338000">
        <ele>-10.0</ele>
        <time>2021-07-22T11:54:20Z</time>
      </trkpt>
      <trkpt lat="43.5401480" lon="-6.7338160">
        <ele>-9.6</ele>
        <time>2021-07-22T11:54:21Z</time>
      </trkpt>
      <trkpt lat="43.5401590" lon="-6.7338830">
        <ele>-9.6</ele>
        <time>2021-07-22T11:54:25Z</time>
      </trkpt>
      <trkpt lat="43.5401580" lon="-6.7339140">
        <ele>-9.6</ele>
        <time>2021-07-22T11:54:27Z</time>
      </trkpt>
      <trkpt lat="43.5401640" lon="-6.7339820">
        <ele>-9.2</ele>
        <time>2021-07-22T11:54:31Z</time>
      </trkpt>
      <trkpt lat="43.5401640" lon="-6.7339990">
        <ele>-8.6</ele>
        <time>2021-07-22T11:54:32Z</time>
      </trkpt>
      <trkpt lat="43.5401610" lon="-6.7340150">
        <ele>-8.2</ele>
        <time>2021-07-22T11:54:33Z</time>
      </trkpt>
      <trkpt lat="43.5401630" lon="-6.7340320">
        <ele>-7.8</ele>
        <time>2021-07-22T11:54:34Z</time>
      </trkpt>
      <trkpt lat="43.5401630" lon="-6.7340390">
        <ele>-7.4</ele>
        <time>2021-07-22T11:54:35Z</time>
      </trkpt>
      <trkpt lat="43.5401940" lon="-6.7346800">
        <ele>1.0</ele>
        <time>2021-07-22T11:55:32Z</time>
      </trkpt>
      <trkpt lat="43.5401950" lon="-6.7347280">
        <ele>1.0</ele>
        <time>2021-07-22T11:55:35Z</time>
      </trkpt>
      <trkpt lat="43.5401940" lon="-6.7347460">
        <ele>1.4</ele>
        <time>2021-07-22T11:55:36Z</time>
      </trkpt>
      <trkpt lat="43.5401920" lon="-6.7347640">
        <ele>1.8</ele>
        <time>2021-07-22T11:55:37Z</time>
      </trkpt>
      <trkpt lat="43.5401890" lon="-6.7347800">
        <ele>2.2</ele>
        <time>2021-07-22T11:55:38Z</time>
      </trkpt>
      <trkpt lat="43.5401850" lon="-6.7347990">
        <ele>2.6</ele>
        <time>2021-07-22T11:55:39Z</time>
      </trkpt>
      <trkpt lat="43.5401840" lon="-6.7348120">
        <ele>3.0</ele>
        <time>2021-07-22T11:55:40Z</time>
      </trkpt>
      <trkpt lat="43.5401910" lon="-6.7348830">
        <ele>3.0</ele>
        <time>2021-07-22T11:55:44Z</time>
      </trkpt>
      <trkpt lat="43.5401940" lon="-6.7349020">
        <ele>3.0</ele>
        <time>2021-07-22T11:55:46Z</time>
      </trkpt>
      <trkpt lat="43.5401920" lon="-6.7349060">
        <ele>3.0</ele>
        <time>2021-07-22T11:55:53Z</time>
      </trkpt>
      <trkpt lat="43.5401870" lon="-6.7349230">
        <ele>3.0</ele>
        <time>2021-07-22T11:55:54Z</time>
      </trkpt>
      <trkpt lat="43.5401840" lon="-6.7349440">
        <ele>3.0</ele>
        <time>2021-07-22T11:55:55Z</time>
      </trkpt>
      <trkpt lat="43.5401530" lon="-6.7351250">
        <ele>3.0</ele>
        <time>2021-07-22T11:56:02Z</time>
      </trkpt>
      <trkpt lat="43.5401400" lon="-6.7352950">
        <ele>3.0</ele>
        <time>2021-07-22T11:56:07Z</time>
      </trkpt>
      <trkpt lat="43.5401260" lon="-6.7353580">
        <ele>3.0</ele>
        <time>2021-07-22T11:56:09Z</time>
      </trkpt>
      <trkpt lat="43.5401090" lon="-6.7354180">
        <ele>3.0</ele>
        <time>2021-07-22T11:56:11Z</time>
      </trkpt>
      <trkpt lat="43.5400890" lon="-6.7354690">
        <ele>3.0</ele>
        <time>2021-07-22T11:56:13Z</time>
      </trkpt>
      <trkpt lat="43.5400780" lon="-6.7354920">
        <ele>3.0</ele>
        <time>2021-07-22T11:56:14Z</time>
      </trkpt>
      <trkpt lat="43.5400720" lon="-6.7355260">
        <ele>3.0</ele>
        <time>2021-07-22T11:56:15Z</time>
      </trkpt>
      <trkpt lat="43.5400630" lon="-6.7355660">
        <ele>3.0</ele>
        <time>2021-07-22T11:56:16Z</time>
      </trkpt>
      <trkpt lat="43.5400390" lon="-6.7356600">
        <ele>3.0</ele>
        <time>2021-07-22T11:56:18Z</time>
      </trkpt>
      <trkpt lat="43.5400290" lon="-6.7357090">
        <ele>3.0</ele>
        <time>2021-07-22T11:56:19Z</time>
      </trkpt>
      <trkpt lat="43.5400170" lon="-6.7357630">
        <ele>3.0</ele>
        <time>2021-07-22T11:56:20Z</time>
      </trkpt>
      <trkpt lat="43.5399140" lon="-6.7361340">
        <ele>3.0</ele>
        <time>2021-07-22T11:56:27Z</time>
      </trkpt>
      <trkpt lat="43.5398960" lon="-6.7362260">
        <ele>3.0</ele>
        <time>2021-07-22T11:56:29Z</time>
      </trkpt>
      <trkpt lat="43.5398800" lon="-6.7362940">
        <ele>2.6</ele>
        <time>2021-07-22T11:56:31Z</time>
      </trkpt>
      <trkpt lat="43.5398730" lon="-6.7363320">
        <ele>1.8</ele>
        <time>2021-07-22T11:56:32Z</time>
      </trkpt>
      <trkpt lat="43.5398670" lon="-6.7363760">
        <ele>1.4</ele>
        <time>2021-07-22T11:56:33Z</time>
      </trkpt>
      <trkpt lat="43.5398580" lon="-6.7364280">
        <ele>1.0</ele>
        <time>2021-07-22T11:56:34Z</time>
      </trkpt>
      <trkpt lat="43.5398520" lon="-6.7364860">
        <ele>1.0</ele>
        <time>2021-07-22T11:56:35Z</time>
      </trkpt>
      <trkpt lat="43.5398470" lon="-6.7365440">
        <ele>1.0</ele>
        <time>2021-07-22T11:56:36Z</time>
      </trkpt>
      <trkpt lat="43.5398330" lon="-6.7369220">
        <ele>0.6</ele>
        <time>2021-07-22T11:56:42Z</time>
      </trkpt>
      <trkpt lat="43.5398350" lon="-6.7369820">
        <ele>0.0</ele>
        <time>2021-07-22T11:56:43Z</time>
      </trkpt>
      <trkpt lat="43.5398370" lon="-6.7370410">
        <ele>-0.4</ele>
        <time>2021-07-22T11:56:44Z</time>
      </trkpt>
      <trkpt lat="43.5398360" lon="-6.7370970">
        <ele>-0.8</ele>
        <time>2021-07-22T11:56:45Z</time>
      </trkpt>
      <trkpt lat="43.5398300" lon="-6.7371500">
        <ele>-1.4</ele>
        <time>2021-07-22T11:56:46Z</time>
      </trkpt>
      <trkpt lat="43.5398210" lon="-6.7371990">
        <ele>-1.8</ele>
        <time>2021-07-22T11:56:47Z</time>
      </trkpt>
      <trkpt lat="43.5398090" lon="-6.7372480">
        <ele>-2.2</ele>
        <time>2021-07-22T11:56:48Z</time>
      </trkpt>
      <trkpt lat="43.5397980" lon="-6.7372960">
        <ele>-2.6</ele>
        <time>2021-07-22T11:56:49Z</time>
      </trkpt>
      <trkpt lat="43.5397910" lon="-6.7373420">
        <ele>-3.0</ele>
        <time>2021-07-22T11:56:50Z</time>
      </trkpt>
      <trkpt lat="43.5397860" lon="-6.7373830">
        <ele>-3.4</ele>
        <time>2021-07-22T11:56:51Z</time>
      </trkpt>
      <trkpt lat="43.5397770" lon="-6.7375070">
        <ele>-3.4</ele>
        <time>2021-07-22T11:56:54Z</time>
      </trkpt>
      <trkpt lat="43.5397770" lon="-6.7375500">
        <ele>-3.8</ele>
        <time>2021-07-22T11:56:55Z</time>
      </trkpt>
      <trkpt lat="43.5397770" lon="-6.7375960">
        <ele>-4.2</ele>
        <time>2021-07-22T11:56:56Z</time>
      </trkpt>
      <trkpt lat="43.5397780" lon="-6.7376440">
        <ele>-5.0</ele>
        <time>2021-07-22T11:56:57Z</time>
      </trkpt>
      <trkpt lat="43.5397790" lon="-6.7376940">
        <ele>-5.4</ele>
        <time>2021-07-22T11:56:58Z</time>
      </trkpt>
      <trkpt lat="43.5397900" lon="-6.7378510">
        <ele>-5.4</ele>
        <time>2021-07-22T11:57:01Z</time>
      </trkpt>
      <trkpt lat="43.5398080" lon="-6.7380100">
        <ele>-5.4</ele>
        <time>2021-07-22T11:57:04Z</time>
      </trkpt>
      <trkpt lat="43.5398230" lon="-6.7381850">
        <ele>-6.0</ele>
        <time>2021-07-22T11:57:07Z</time>
      </trkpt>
      <trkpt lat="43.5398230" lon="-6.7382490">
        <ele>-6.4</ele>
        <time>2021-07-22T11:57:08Z</time>
      </trkpt>
      <trkpt lat="43.5398250" lon="-6.7383110">
        <ele>-6.8</ele>
        <time>2021-07-22T11:57:09Z</time>
      </trkpt>
      <trkpt lat="43.5398290" lon="-6.7383710">
        <ele>-7.2</ele>
        <time>2021-07-22T11:57:10Z</time>
      </trkpt>
      <trkpt lat="43.5398330" lon="-6.7384310">
        <ele>-7.8</ele>
        <time>2021-07-22T11:57:11Z</time>
      </trkpt>
      <trkpt lat="43.5398430" lon="-6.7385630">
        <ele>-7.8</ele>
        <time>2021-07-22T11:57:13Z</time>
      </trkpt>
      <trkpt lat="43.5398680" lon="-6.7388300">
        <ele>-8.2</ele>
        <time>2021-07-22T11:57:17Z</time>
      </trkpt>
      <trkpt lat="43.5398730" lon="-6.7388980">
        <ele>-8.6</ele>
        <time>2021-07-22T11:57:18Z</time>
      </trkpt>
      <trkpt lat="43.5398790" lon="-6.7389620">
        <ele>-9.0</ele>
        <time>2021-07-22T11:57:19Z</time>
      </trkpt>
      <trkpt lat="43.5398830" lon="-6.7390230">
        <ele>-9.4</ele>
        <time>2021-07-22T11:57:20Z</time>
      </trkpt>
      <trkpt lat="43.5398890" lon="-6.7390790">
        <ele>-9.8</ele>
        <time>2021-07-22T11:57:21Z</time>
      </trkpt>
      <trkpt lat="43.5399270" lon="-6.7394100">
        <ele>-9.8</ele>
        <time>2021-07-22T11:57:28Z</time>
      </trkpt>
      <trkpt lat="43.5399390" lon="-6.7395760">
        <ele>-10.2</ele>
        <time>2021-07-22T11:57:32Z</time>
      </trkpt>
      <trkpt lat="43.5399420" lon="-6.7396170">
        <ele>-10.6</ele>
        <time>2021-07-22T11:57:33Z</time>
      </trkpt>
      <trkpt lat="43.5399460" lon="-6.7396540">
        <ele>-11.0</ele>
        <time>2021-07-22T11:57:34Z</time>
      </trkpt>
      <trkpt lat="43.5399490" lon="-6.7396840">
        <ele>-11.4</ele>
        <time>2021-07-22T11:57:35Z</time>
      </trkpt>
      <trkpt lat="43.5399510" lon="-6.7397180">
        <ele>-12.0</ele>
        <time>2021-07-22T11:57:36Z</time>
      </trkpt>
      <trkpt lat="43.5399560" lon="-6.7397900">
        <ele>-12.0</ele>
        <time>2021-07-22T11:57:38Z</time>
      </trkpt>
      <trkpt lat="43.5399610" lon="-6.7398630">
        <ele>-12.0</ele>
        <time>2021-07-22T11:57:40Z</time>
      </trkpt>
      <trkpt lat="43.5399720" lon="-6.7400050">
        <ele>-12.0</ele>
        <time>2021-07-22T11:57:44Z</time>
      </trkpt>
      <trkpt lat="43.5399910" lon="-6.7402350">
        <ele>-12.0</ele>
        <time>2021-07-22T11:57:50Z</time>
      </trkpt>
      <trkpt lat="43.5400200" lon="-6.7404730">
        <ele>-12.0</ele>
        <time>2021-07-22T11:57:56Z</time>
      </trkpt>
      <trkpt lat="43.5400690" lon="-6.7406570">
        <ele>-12.0</ele>
        <time>2021-07-22T11:58:01Z</time>
      </trkpt>
      <trkpt lat="43.5400880" lon="-6.7407810">
        <ele>-12.0</ele>
        <time>2021-07-22T11:58:04Z</time>
      </trkpt>
      <trkpt lat="43.5401060" lon="-6.7409210">
        <ele>-12.0</ele>
        <time>2021-07-22T11:58:07Z</time>
      </trkpt>
      <trkpt lat="43.5401410" lon="-6.7411490">
        <ele>-12.0</ele>
        <time>2021-07-22T11:58:12Z</time>
      </trkpt>
      <trkpt lat="43.5401790" lon="-6.7413710">
        <ele>-12.4</ele>
        <time>2021-07-22T11:58:18Z</time>
      </trkpt>
      <trkpt lat="43.5401890" lon="-6.7413980">
        <ele>-12.8</ele>
        <time>2021-07-22T11:58:19Z</time>
      </trkpt>
      <trkpt lat="43.5401940" lon="-6.7414210">
        <ele>-13.2</ele>
        <time>2021-07-22T11:58:20Z</time>
      </trkpt>
      <trkpt lat="43.5401990" lon="-6.7414430">
        <ele>-13.6</ele>
        <time>2021-07-22T11:58:21Z</time>
      </trkpt>
      <trkpt lat="43.5402000" lon="-6.7414470">
        <ele>-14.2</ele>
        <time>2021-07-22T11:58:22Z</time>
      </trkpt>
      <trkpt lat="43.5401620" lon="-6.7414920">
        <ele>-14.2</ele>
        <time>2021-07-22T12:12:52Z</time>
      </trkpt>
      <trkpt lat="43.5401430" lon="-6.7415180">
        <ele>-14.2</ele>
        <time>2021-07-22T12:12:53Z</time>
      </trkpt>
      <trkpt lat="43.5400810" lon="-6.7416190">
        <ele>-14.2</ele>
        <time>2021-07-22T12:12:57Z</time>
      </trkpt>
      <trkpt lat="43.5400600" lon="-6.7416660">
        <ele>-14.2</ele>
        <time>2021-07-22T12:12:59Z</time>
      </trkpt>
      <trkpt lat="43.5400460" lon="-6.7417210">
        <ele>-14.2</ele>
        <time>2021-07-22T12:13:03Z</time>
      </trkpt>
      <trkpt lat="43.5400400" lon="-6.7417590">
        <ele>-14.2</ele>
        <time>2021-07-22T12:13:24Z</time>
      </trkpt>
      <trkpt lat="43.5400350" lon="-6.7418210">
        <ele>-14.2</ele>
        <time>2021-07-22T12:13:26Z</time>
      </trkpt>
      <trkpt lat="43.5400310" lon="-6.7418510">
        <ele>-14.6</ele>
        <time>2021-07-22T12:13:27Z</time>
      </trkpt>
      <trkpt lat="43.5400300" lon="-6.7418820">
        <ele>-15.0</ele>
        <time>2021-07-22T12:13:28Z</time>
      </trkpt>
      <trkpt lat="43.5400290" lon="-6.7419200">
        <ele>-15.4</ele>
        <time>2021-07-22T12:13:29Z</time>
      </trkpt>
      <trkpt lat="43.5400310" lon="-6.7419600">
        <ele>-15.8</ele>
        <time>2021-07-22T12:13:30Z</time>
      </trkpt>
      <trkpt lat="43.5400330" lon="-6.7420020">
        <ele>-16.2</ele>
        <time>2021-07-22T12:13:31Z</time>
      </trkpt>
      <trkpt lat="43.5400430" lon="-6.7421670">
        <ele>-16.2</ele>
        <time>2021-07-22T12:13:35Z</time>
      </trkpt>
      <trkpt lat="43.5400740" lon="-6.7424170">
        <ele>-16.2</ele>
        <time>2021-07-22T12:13:42Z</time>
      </trkpt>
      <trkpt lat="43.5401020" lon="-6.7425220">
        <ele>-16.2</ele>
        <time>2021-07-22T12:13:47Z</time>
      </trkpt>
      <trkpt lat="43.5401090" lon="-6.7425420">
        <ele>-16.2</ele>
        <time>2021-07-22T12:13:48Z</time>
      </trkpt>
      <trkpt lat="43.5401180" lon="-6.7425610">
        <ele>-16.2</ele>
        <time>2021-07-22T12:13:51Z</time>
      </trkpt>
      <trkpt lat="43.5400710" lon="-6.7426680">
        <ele>-16.2</ele>
        <time>2021-07-22T12:14:40Z</time>
      </trkpt>
      <trkpt lat="43.5400820" lon="-6.7426800">
        <ele>-16.2</ele>
        <time>2021-07-22T12:14:41Z</time>
      </trkpt>
      <trkpt lat="43.5401390" lon="-6.7428170">
        <ele>-16.2</ele>
        <time>2021-07-22T12:14:46Z</time>
      </trkpt>
      <trkpt lat="43.5401740" lon="-6.7430300">
        <ele>-16.2</ele>
        <time>2021-07-22T12:14:53Z</time>
      </trkpt>
      <trkpt lat="43.5401580" lon="-6.7431990">
        <ele>-16.2</ele>
        <time>2021-07-22T12:14:58Z</time>
      </trkpt>
      <trkpt lat="43.5400860" lon="-6.7432930">
        <ele>-16.2</ele>
        <time>2021-07-22T12:15:02Z</time>
      </trkpt>
      <trkpt lat="43.5399510" lon="-6.7434250">
        <ele>-16.2</ele>
        <time>2021-07-22T12:15:08Z</time>
      </trkpt>
      <trkpt lat="43.5398980" lon="-6.7434890">
        <ele>-16.2</ele>
        <time>2021-07-22T12:15:11Z</time>
      </trkpt>
      <trkpt lat="43.5398570" lon="-6.7435440">
        <ele>-16.2</ele>
        <time>2021-07-22T12:15:14Z</time>
      </trkpt>
      <trkpt lat="43.5397500" lon="-6.7436800">
        <ele>-16.2</ele>
        <time>2021-07-22T12:15:19Z</time>
      </trkpt>
      <trkpt lat="43.5396840" lon="-6.7438340">
        <ele>-16.2</ele>
        <time>2021-07-22T12:15:23Z</time>
      </trkpt>
      <trkpt lat="43.5396550" lon="-6.7439020">
        <ele>-16.2</ele>
        <time>2021-07-22T12:15:25Z</time>
      </trkpt>
      <trkpt lat="43.5395020" lon="-6.7442020">
        <ele>-16.2</ele>
        <time>2021-07-22T12:15:33Z</time>
      </trkpt>
      <trkpt lat="43.5394080" lon="-6.7444640">
        <ele>-16.2</ele>
        <time>2021-07-22T12:15:40Z</time>
      </trkpt>
      <trkpt lat="43.5393360" lon="-6.7447360">
        <ele>-16.2</ele>
        <time>2021-07-22T12:15:47Z</time>
      </trkpt>
      <trkpt lat="43.5392090" lon="-6.7450270">
        <ele>-16.2</ele>
        <time>2021-07-22T12:15:55Z</time>
      </trkpt>
      <trkpt lat="43.5391150" lon="-6.7451630">
        <ele>-16.2</ele>
        <time>2021-07-22T12:15:59Z</time>
      </trkpt>
      <trkpt lat="43.5390760" lon="-6.7452280">
        <ele>-16.2</ele>
        <time>2021-07-22T12:16:01Z</time>
      </trkpt>
      <trkpt lat="43.5389910" lon="-6.7453890">
        <ele>-15.8</ele>
        <time>2021-07-22T12:16:06Z</time>
      </trkpt>
      <trkpt lat="43.5389890" lon="-6.7454270">
        <ele>-15.2</ele>
        <time>2021-07-22T12:16:07Z</time>
      </trkpt>
      <trkpt lat="43.5389910" lon="-6.7454630">
        <ele>-14.8</ele>
        <time>2021-07-22T12:16:08Z</time>
      </trkpt>
      <trkpt lat="43.5389910" lon="-6.7454920">
        <ele>-14.4</ele>
        <time>2021-07-22T12:16:09Z</time>
      </trkpt>
      <trkpt lat="43.5389910" lon="-6.7455270">
        <ele>-14.0</ele>
        <time>2021-07-22T12:16:10Z</time>
      </trkpt>
      <trkpt lat="43.5389950" lon="-6.7456800">
        <ele>-14.0</ele>
        <time>2021-07-22T12:16:14Z</time>
      </trkpt>
      <trkpt lat="43.5389410" lon="-6.7459350">
        <ele>-14.0</ele>
        <time>2021-07-22T12:16:21Z</time>
      </trkpt>
      <trkpt lat="43.5389090" lon="-6.7460790">
        <ele>-13.6</ele>
        <time>2021-07-22T12:16:25Z</time>
      </trkpt>
      <trkpt lat="43.5389010" lon="-6.7461220">
        <ele>-13.2</ele>
        <time>2021-07-22T12:16:26Z</time>
      </trkpt>
      <trkpt lat="43.5388970" lon="-6.7461640">
        <ele>-12.8</ele>
        <time>2021-07-22T12:16:27Z</time>
      </trkpt>
      <trkpt lat="43.5388880" lon="-6.7462030">
        <ele>-12.4</ele>
        <time>2021-07-22T12:16:28Z</time>
      </trkpt>
      <trkpt lat="43.5388770" lon="-6.7462390">
        <ele>-12.0</ele>
        <time>2021-07-22T12:16:29Z</time>
      </trkpt>
      <trkpt lat="43.5388140" lon="-6.7464040">
        <ele>-12.0</ele>
        <time>2021-07-22T12:16:35Z</time>
      </trkpt>
      <trkpt lat="43.5387880" lon="-6.7465420">
        <ele>-11.6</ele>
        <time>2021-07-22T12:16:41Z</time>
      </trkpt>
      <trkpt lat="43.5387890" lon="-6.7465650">
        <ele>-11.0</ele>
        <time>2021-07-22T12:16:42Z</time>
      </trkpt>
      <trkpt lat="43.5387890" lon="-6.7465820">
        <ele>-10.6</ele>
        <time>2021-07-22T12:16:43Z</time>
      </trkpt>
      <trkpt lat="43.5387870" lon="-6.7466060">
        <ele>-10.2</ele>
        <time>2021-07-22T12:16:44Z</time>
      </trkpt>
      <trkpt lat="43.5387720" lon="-6.7466340">
        <ele>-9.8</ele>
        <time>2021-07-22T12:16:45Z</time>
      </trkpt>
      <trkpt lat="43.5387630" lon="-6.7466590">
        <ele>-9.8</ele>
        <time>2021-07-22T12:16:46Z</time>
      </trkpt>
      <trkpt lat="43.5387330" lon="-6.7467250">
        <ele>-9.8</ele>
        <time>2021-07-22T12:16:49Z</time>
      </trkpt>
      <trkpt lat="43.5387120" lon="-6.7467800">
        <ele>-9.8</ele>
        <time>2021-07-22T12:16:52Z</time>
      </trkpt>
      <trkpt lat="43.5386790" lon="-6.7468570">
        <ele>-9.4</ele>
        <time>2021-07-22T12:16:56Z</time>
      </trkpt>
      <trkpt lat="43.5386690" lon="-6.7468760">
        <ele>-9.0</ele>
        <time>2021-07-22T12:16:57Z</time>
      </trkpt>
      <trkpt lat="43.5386620" lon="-6.7468980">
        <ele>-8.6</ele>
        <time>2021-07-22T12:16:58Z</time>
      </trkpt>
      <trkpt lat="43.5386540" lon="-6.7469150">
        <ele>-8.2</ele>
        <time>2021-07-22T12:16:59Z</time>
      </trkpt>
      <trkpt lat="43.5386470" lon="-6.7469340">
        <ele>-7.8</ele>
        <time>2021-07-22T12:17:00Z</time>
      </trkpt>
      <trkpt lat="43.5386320" lon="-6.7470190">
        <ele>-7.8</ele>
        <time>2021-07-22T12:17:07Z</time>
      </trkpt>
      <trkpt lat="43.5385780" lon="-6.7475360">
        <ele>-0.2</ele>
        <time>2021-07-22T12:18:01Z</time>
      </trkpt>
      <trkpt lat="43.5385870" lon="-6.7475560">
        <ele>0.2</ele>
        <time>2021-07-22T12:18:02Z</time>
      </trkpt>
      <trkpt lat="43.5385960" lon="-6.7475730">
        <ele>0.6</ele>
        <time>2021-07-22T12:18:03Z</time>
      </trkpt>
      <trkpt lat="43.5385960" lon="-6.7475970">
        <ele>0.6</ele>
        <time>2021-07-22T12:18:04Z</time>
      </trkpt>
      <trkpt lat="43.5386200" lon="-6.7477120">
        <ele>0.6</ele>
        <time>2021-07-22T12:18:10Z</time>
      </trkpt>
      <trkpt lat="43.5386210" lon="-6.7477290">
        <ele>0.6</ele>
        <time>2021-07-22T12:18:11Z</time>
      </trkpt>
      <trkpt lat="43.5386350" lon="-6.7477700">
        <ele>1.0</ele>
        <time>2021-07-22T12:18:13Z</time>
      </trkpt>
      <trkpt lat="43.5386480" lon="-6.7477900">
        <ele>1.4</ele>
        <time>2021-07-22T12:18:14Z</time>
      </trkpt>
      <trkpt lat="43.5386610" lon="-6.7478080">
        <ele>1.8</ele>
        <time>2021-07-22T12:18:15Z</time>
      </trkpt>
      <trkpt lat="43.5386710" lon="-6.7478330">
        <ele>2.2</ele>
        <time>2021-07-22T12:18:16Z</time>
      </trkpt>
      <trkpt lat="43.5386800" lon="-6.7478520">
        <ele>2.6</ele>
        <time>2021-07-22T12:18:17Z</time>
      </trkpt>
      <trkpt lat="43.5387030" lon="-6.7479120">
        <ele>3.0</ele>
        <time>2021-07-22T12:18:20Z</time>
      </trkpt>
      <trkpt lat="43.5387130" lon="-6.7479310">
        <ele>3.4</ele>
        <time>2021-07-22T12:18:21Z</time>
      </trkpt>
      <trkpt lat="43.5387210" lon="-6.7479510">
        <ele>4.0</ele>
        <time>2021-07-22T12:18:22Z</time>
      </trkpt>
      <trkpt lat="43.5387250" lon="-6.7479730">
        <ele>4.4</ele>
        <time>2021-07-22T12:18:23Z</time>
      </trkpt>
      <trkpt lat="43.5387290" lon="-6.7479910">
        <ele>4.8</ele>
        <time>2021-07-22T12:18:24Z</time>
      </trkpt>
      <trkpt lat="43.5387320" lon="-6.7479940">
        <ele>4.8</ele>
        <time>2021-07-22T12:18:25Z</time>
      </trkpt>
      <trkpt lat="43.5387320" lon="-6.7479940">
        <ele>4.8</ele>
        <time>2021-07-22T12:18:26Z</time>
      </trkpt>
      <trkpt lat="43.5387070" lon="-6.7480290">
        <ele>4.8</ele>
        <time>2021-07-22T12:18:29Z</time>
      </trkpt>
      <trkpt lat="43.5386810" lon="-6.7480580">
        <ele>4.8</ele>
        <time>2021-07-22T12:18:31Z</time>
      </trkpt>
      <trkpt lat="43.5386340" lon="-6.7481920">
        <ele>5.2</ele>
        <time>2021-07-22T12:18:38Z</time>
      </trkpt>
      <trkpt lat="43.5386280" lon="-6.7482110">
        <ele>5.6</ele>
        <time>2021-07-22T12:18:39Z</time>
      </trkpt>
      <trkpt lat="43.5386250" lon="-6.7482280">
        <ele>6.0</ele>
        <time>2021-07-22T12:18:40Z</time>
      </trkpt>
      <trkpt lat="43.5386240" lon="-6.7482460">
        <ele>6.4</ele>
        <time>2021-07-22T12:18:41Z</time>
      </trkpt>
      <trkpt lat="43.5386240" lon="-6.7482660">
        <ele>6.8</ele>
        <time>2021-07-22T12:18:42Z</time>
      </trkpt>
      <trkpt lat="43.5386070" lon="-6.7483360">
        <ele>6.8</ele>
        <time>2021-07-22T12:18:46Z</time>
      </trkpt>
      <trkpt lat="43.5385900" lon="-6.7483890">
        <ele>7.2</ele>
        <time>2021-07-22T12:18:49Z</time>
      </trkpt>
      <trkpt lat="43.5385850" lon="-6.7484060">
        <ele>7.8</ele>
        <time>2021-07-22T12:18:50Z</time>
      </trkpt>
      <trkpt lat="43.5385890" lon="-6.7484180">
        <ele>8.2</ele>
        <time>2021-07-22T12:18:51Z</time>
      </trkpt>
      <trkpt lat="43.5385970" lon="-6.7484270">
        <ele>8.6</ele>
        <time>2021-07-22T12:18:52Z</time>
      </trkpt>
      <trkpt lat="43.5385920" lon="-6.7484460">
        <ele>9.0</ele>
        <time>2021-07-22T12:18:53Z</time>
      </trkpt>
      <trkpt lat="43.5385790" lon="-6.7485240">
        <ele>9.0</ele>
        <time>2021-07-22T12:18:57Z</time>
      </trkpt>
      <trkpt lat="43.5385640" lon="-6.7485890">
        <ele>9.0</ele>
        <time>2021-07-22T12:19:00Z</time>
      </trkpt>
      <trkpt lat="43.5385630" lon="-6.7486100">
        <ele>9.4</ele>
        <time>2021-07-22T12:19:01Z</time>
      </trkpt>
      <trkpt lat="43.5385620" lon="-6.7486320">
        <ele>9.8</ele>
        <time>2021-07-22T12:19:02Z</time>
      </trkpt>
      <trkpt lat="43.5385640" lon="-6.7486540">
        <ele>10.2</ele>
        <time>2021-07-22T12:19:03Z</time>
      </trkpt>
      <trkpt lat="43.5385660" lon="-6.7486750">
        <ele>10.6</ele>
        <time>2021-07-22T12:19:04Z</time>
      </trkpt>
      <trkpt lat="43.5385650" lon="-6.7486960">
        <ele>11.0</ele>
        <time>2021-07-22T12:19:05Z</time>
      </trkpt>
      <trkpt lat="43.5385720" lon="-6.7487340">
        <ele>11.0</ele>
        <time>2021-07-22T12:19:07Z</time>
      </trkpt>
      <trkpt lat="43.5385720" lon="-6.7488720">
        <ele>11.4</ele>
        <time>2021-07-22T12:19:14Z</time>
      </trkpt>
      <trkpt lat="43.5385720" lon="-6.7488950">
        <ele>11.8</ele>
        <time>2021-07-22T12:19:15Z</time>
      </trkpt>
      <trkpt lat="43.5385720" lon="-6.7489210">
        <ele>12.2</ele>
        <time>2021-07-22T12:19:16Z</time>
      </trkpt>
      <trkpt lat="43.5385720" lon="-6.7489490">
        <ele>12.6</ele>
        <time>2021-07-22T12:19:17Z</time>
      </trkpt>
      <trkpt lat="43.5385710" lon="-6.7489720">
        <ele>13.0</ele>
        <time>2021-07-22T12:19:18Z</time>
      </trkpt>
      <trkpt lat="43.5385750" lon="-6.7490310">
        <ele>13.0</ele>
        <time>2021-07-22T12:19:21Z</time>
      </trkpt>
      <trkpt lat="43.5385750" lon="-6.7492410">
        <ele>13.4</ele>
        <time>2021-07-22T12:19:30Z</time>
      </trkpt>
      <trkpt lat="43.5385770" lon="-6.7492620">
        <ele>13.8</ele>
        <time>2021-07-22T12:19:31Z</time>
      </trkpt>
      <trkpt lat="43.5385800" lon="-6.7492840">
        <ele>14.4</ele>
        <time>2021-07-22T12:19:32Z</time>
      </trkpt>
      <trkpt lat="43.5385800" lon="-6.7493100">
        <ele>14.8</ele>
        <time>2021-07-22T12:19:33Z</time>
      </trkpt>
      <trkpt lat="43.5385830" lon="-6.7493340">
        <ele>15.2</ele>
        <time>2021-07-22T12:19:34Z</time>
      </trkpt>
      <trkpt lat="43.5385780" lon="-6.7494330">
        <ele>15.2</ele>
        <time>2021-07-22T12:19:38Z</time>
      </trkpt>
      <trkpt lat="43.5385760" lon="-6.7495880">
        <ele>15.6</ele>
        <time>2021-07-22T12:19:45Z</time>
      </trkpt>
      <trkpt lat="43.5385750" lon="-6.7496080">
        <ele>16.0</ele>
        <time>2021-07-22T12:19:46Z</time>
      </trkpt>
      <trkpt lat="43.5385770" lon="-6.7496320">
        <ele>16.4</ele>
        <time>2021-07-22T12:19:47Z</time>
      </trkpt>
      <trkpt lat="43.5385750" lon="-6.7496520">
        <ele>16.8</ele>
        <time>2021-07-22T12:19:48Z</time>
      </trkpt>
      <trkpt lat="43.5385730" lon="-6.7496750">
        <ele>17.2</ele>
        <time>2021-07-22T12:19:49Z</time>
      </trkpt>
      <trkpt lat="43.5385740" lon="-6.7497810">
        <ele>17.2</ele>
        <time>2021-07-22T12:19:53Z</time>
      </trkpt>
      <trkpt lat="43.5385850" lon="-6.7499170">
        <ele>17.2</ele>
        <time>2021-07-22T12:19:59Z</time>
      </trkpt>
      <trkpt lat="43.5385870" lon="-6.7499930">
        <ele>18.0</ele>
        <time>2021-07-22T12:20:02Z</time>
      </trkpt>
      <trkpt lat="43.5385820" lon="-6.7500200">
        <ele>18.4</ele>
        <time>2021-07-22T12:20:03Z</time>
      </trkpt>
      <trkpt lat="43.5385760" lon="-6.7500490">
        <ele>18.8</ele>
        <time>2021-07-22T12:20:04Z</time>
      </trkpt>
      <trkpt lat="43.5385720" lon="-6.7500770">
        <ele>19.2</ele>
        <time>2021-07-22T12:20:05Z</time>
      </trkpt>
      <trkpt lat="43.5385700" lon="-6.7501070">
        <ele>19.2</ele>
        <time>2021-07-22T12:20:06Z</time>
      </trkpt>
      <trkpt lat="43.5385820" lon="-6.7503540">
        <ele>19.2</ele>
        <time>2021-07-22T12:20:14Z</time>
      </trkpt>
      <trkpt lat="43.5385810" lon="-6.7505220">
        <ele>19.2</ele>
        <time>2021-07-22T12:20:21Z</time>
      </trkpt>
      <trkpt lat="43.5385780" lon="-6.7505620">
        <ele>19.6</ele>
        <time>2021-07-22T12:20:23Z</time>
      </trkpt>
      <trkpt lat="43.5385770" lon="-6.7505840">
        <ele>20.0</ele>
        <time>2021-07-22T12:20:24Z</time>
      </trkpt>
      <trkpt lat="43.5385750" lon="-6.7506090">
        <ele>20.4</ele>
        <time>2021-07-22T12:20:25Z</time>
      </trkpt>
      <trkpt lat="43.5385740" lon="-6.7506330">
        <ele>20.8</ele>
        <time>2021-07-22T12:20:26Z</time>
      </trkpt>
      <trkpt lat="43.5385750" lon="-6.7506560">
        <ele>21.2</ele>
        <time>2021-07-22T12:20:27Z</time>
      </trkpt>
      <trkpt lat="43.5385750" lon="-6.7507040">
        <ele>21.2</ele>
        <time>2021-07-22T12:20:29Z</time>
      </trkpt>
      <trkpt lat="43.5385660" lon="-6.7508350">
        <ele>21.2</ele>
        <time>2021-07-22T12:20:35Z</time>
      </trkpt>
      <trkpt lat="43.5385590" lon="-6.7509700">
        <ele>21.6</ele>
        <time>2021-07-22T12:20:41Z</time>
      </trkpt>
      <trkpt lat="43.5385590" lon="-6.7509900">
        <ele>22.0</ele>
        <time>2021-07-22T12:20:42Z</time>
      </trkpt>
      <trkpt lat="43.5385580" lon="-6.7510100">
        <ele>22.4</ele>
        <time>2021-07-22T12:20:43Z</time>
      </trkpt>
      <trkpt lat="43.5385540" lon="-6.7510330">
        <ele>22.8</ele>
        <time>2021-07-22T12:20:44Z</time>
      </trkpt>
      <trkpt lat="43.5385460" lon="-6.7510590">
        <ele>23.2</ele>
        <time>2021-07-22T12:20:45Z</time>
      </trkpt>
      <trkpt lat="43.5385260" lon="-6.7511590">
        <ele>23.2</ele>
        <time>2021-07-22T12:20:49Z</time>
      </trkpt>
      <trkpt lat="43.5384900" lon="-6.7513050">
        <ele>23.2</ele>
        <time>2021-07-22T12:20:56Z</time>
      </trkpt>
      <trkpt lat="43.5384790" lon="-6.7513790">
        <ele>23.8</ele>
        <time>2021-07-22T12:20:59Z</time>
      </trkpt>
      <trkpt lat="43.5384750" lon="-6.7514020">
        <ele>24.2</ele>
        <time>2021-07-22T12:21:00Z</time>
      </trkpt>
      <trkpt lat="43.5384720" lon="-6.7514250">
        <ele>24.6</ele>
        <time>2021-07-22T12:21:01Z</time>
      </trkpt>
      <trkpt lat="43.5384690" lon="-6.7514480">
        <ele>25.0</ele>
        <time>2021-07-22T12:21:02Z</time>
      </trkpt>
      <trkpt lat="43.5384660" lon="-6.7514730">
        <ele>25.4</ele>
        <time>2021-07-22T12:21:03Z</time>
      </trkpt>
      <trkpt lat="43.5384610" lon="-6.7514970">
        <ele>25.4</ele>
        <time>2021-07-22T12:21:04Z</time>
      </trkpt>
      <trkpt lat="43.5384410" lon="-6.7516250">
        <ele>25.4</ele>
        <time>2021-07-22T12:21:10Z</time>
      </trkpt>
      <trkpt lat="43.5384130" lon="-6.7517890">
        <ele>25.4</ele>
        <time>2021-07-22T12:21:17Z</time>
      </trkpt>
      <trkpt lat="43.5383980" lon="-6.7519440">
        <ele>25.8</ele>
        <time>2021-07-22T12:21:22Z</time>
      </trkpt>
      <trkpt lat="43.5383920" lon="-6.7519770">
        <ele>26.2</ele>
        <time>2021-07-22T12:21:23Z</time>
      </trkpt>
      <trkpt lat="43.5383860" lon="-6.7520080">
        <ele>26.6</ele>
        <time>2021-07-22T12:21:24Z</time>
      </trkpt>
      <trkpt lat="43.5383810" lon="-6.7520380">
        <ele>27.0</ele>
        <time>2021-07-22T12:21:25Z</time>
      </trkpt>
      <trkpt lat="43.5383740" lon="-6.7520680">
        <ele>27.4</ele>
        <time>2021-07-22T12:21:26Z</time>
      </trkpt>
      <trkpt lat="43.5383510" lon="-6.7521840">
        <ele>27.4</ele>
        <time>2021-07-22T12:21:30Z</time>
      </trkpt>
      <trkpt lat="43.5383040" lon="-6.7523970">
        <ele>27.4</ele>
        <time>2021-07-22T12:21:37Z</time>
      </trkpt>
      <trkpt lat="43.5382730" lon="-6.7526100">
        <ele>27.4</ele>
        <time>2021-07-22T12:21:44Z</time>
      </trkpt>
      <trkpt lat="43.5382030" lon="-6.7528440">
        <ele>27.4</ele>
        <time>2021-07-22T12:21:52Z</time>
      </trkpt>
      <trkpt lat="43.5381620" lon="-6.7529010">
        <ele>27.8</ele>
        <time>2021-07-22T12:21:55Z</time>
      </trkpt>
      <trkpt lat="43.5381450" lon="-6.7529140">
        <ele>28.2</ele>
        <time>2021-07-22T12:21:56Z</time>
      </trkpt>
      <trkpt lat="43.5381300" lon="-6.7529290">
        <ele>28.6</ele>
        <time>2021-07-22T12:21:57Z</time>
      </trkpt>
      <trkpt lat="43.5381170" lon="-6.7529450">
        <ele>29.0</ele>
        <time>2021-07-22T12:21:58Z</time>
      </trkpt>
      <trkpt lat="43.5381010" lon="-6.7529630">
        <ele>29.4</ele>
        <time>2021-07-22T12:21:59Z</time>
      </trkpt>
      <trkpt lat="43.5380670" lon="-6.7530410">
        <ele>29.8</ele>
        <time>2021-07-22T12:22:02Z</time>
      </trkpt>
      <trkpt lat="43.5380620" lon="-6.7530740">
        <ele>30.4</ele>
        <time>2021-07-22T12:22:03Z</time>
      </trkpt>
      <trkpt lat="43.5380570" lon="-6.7531080">
        <ele>30.8</ele>
        <time>2021-07-22T12:22:04Z</time>
      </trkpt>
      <trkpt lat="43.5380500" lon="-6.7531440">
        <ele>31.2</ele>
        <time>2021-07-22T12:22:05Z</time>
      </trkpt>
      <trkpt lat="43.5380450" lon="-6.7531770">
        <ele>31.6</ele>
        <time>2021-07-22T12:22:06Z</time>
      </trkpt>
      <trkpt lat="43.5380080" lon="-6.7533440">
        <ele>31.6</ele>
        <time>2021-07-22T12:22:11Z</time>
      </trkpt>
      <trkpt lat="43.5380050" lon="-6.7534350">
        <ele>31.6</ele>
        <time>2021-07-22T12:22:14Z</time>
      </trkpt>
      <trkpt lat="43.5380200" lon="-6.7534730">
        <ele>31.6</ele>
        <time>2021-07-22T12:22:16Z</time>
      </trkpt>
      <trkpt lat="43.5380180" lon="-6.7534940">
        <ele>31.6</ele>
        <time>2021-07-22T12:22:18Z</time>
      </trkpt>
      <trkpt lat="43.5379850" lon="-6.7535540">
        <ele>31.6</ele>
        <time>2021-07-22T12:25:43Z</time>
      </trkpt>
      <trkpt lat="43.5379840" lon="-6.7535710">
        <ele>31.6</ele>
        <time>2021-07-22T12:25:44Z</time>
      </trkpt>
      <trkpt lat="43.5379560" lon="-6.7537020">
        <ele>31.6</ele>
        <time>2021-07-22T12:25:49Z</time>
      </trkpt>
      <trkpt lat="43.5379240" lon="-6.7539270">
        <ele>31.6</ele>
        <time>2021-07-22T12:25:55Z</time>
      </trkpt>
      <trkpt lat="43.5379020" lon="-6.7540730">
        <ele>31.6</ele>
        <time>2021-07-22T12:25:59Z</time>
      </trkpt>
      <trkpt lat="43.5378800" lon="-6.7541960">
        <ele>31.6</ele>
        <time>2021-07-22T12:26:02Z</time>
      </trkpt>
      <trkpt lat="43.5378730" lon="-6.7542370">
        <ele>31.6</ele>
        <time>2021-07-22T12:26:03Z</time>
      </trkpt>
      <trkpt lat="43.5378610" lon="-6.7543760">
        <ele>32.0</ele>
        <time>2021-07-22T12:26:06Z</time>
      </trkpt>
      <trkpt lat="43.5378590" lon="-6.7544300">
        <ele>32.4</ele>
        <time>2021-07-22T12:26:07Z</time>
      </trkpt>
      <trkpt lat="43.5378550" lon="-6.7544810">
        <ele>32.8</ele>
        <time>2021-07-22T12:26:08Z</time>
      </trkpt>
      <trkpt lat="43.5378480" lon="-6.7545320">
        <ele>33.2</ele>
        <time>2021-07-22T12:26:09Z</time>
      </trkpt>
      <trkpt lat="43.5378420" lon="-6.7545800">
        <ele>33.6</ele>
        <time>2021-07-22T12:26:10Z</time>
      </trkpt>
      <trkpt lat="43.5377930" lon="-6.7549080">
        <ele>33.6</ele>
        <time>2021-07-22T12:26:17Z</time>
      </trkpt>
      <trkpt lat="43.5377640" lon="-6.7552450">
        <ele>33.6</ele>
        <time>2021-07-22T12:26:24Z</time>
      </trkpt>
      <trkpt lat="43.5377410" lon="-6.7556830">
        <ele>33.6</ele>
        <time>2021-07-22T12:26:33Z</time>
      </trkpt>
      <trkpt lat="43.5377260" lon="-6.7559710">
        <ele>33.6</ele>
        <time>2021-07-22T12:26:39Z</time>
      </trkpt>
      <trkpt lat="43.5377100" lon="-6.7563160">
        <ele>33.6</ele>
        <time>2021-07-22T12:26:46Z</time>
      </trkpt>
      <trkpt lat="43.5376800" lon="-6.7567280">
        <ele>33.6</ele>
        <time>2021-07-22T12:26:53Z</time>
      </trkpt>
      <trkpt lat="43.5376620" lon="-6.7570150">
        <ele>33.6</ele>
        <time>2021-07-22T12:26:58Z</time>
      </trkpt>
      <trkpt lat="43.5376650" lon="-6.7571240">
        <ele>33.6</ele>
        <time>2021-07-22T12:27:00Z</time>
      </trkpt>
      <trkpt lat="43.5376830" lon="-6.7572370">
        <ele>33.6</ele>
        <time>2021-07-22T12:27:02Z</time>
      </trkpt>
      <trkpt lat="43.5377340" lon="-6.7574690">
        <ele>33.6</ele>
        <time>2021-07-22T12:27:06Z</time>
      </trkpt>
      <trkpt lat="43.5378180" lon="-6.7578740">
        <ele>33.6</ele>
        <time>2021-07-22T12:27:13Z</time>
      </trkpt>
      <trkpt lat="43.5378860" lon="-6.7583350">
        <ele>33.6</ele>
        <time>2021-07-22T12:27:21Z</time>
      </trkpt>
      <trkpt lat="43.5379070" lon="-6.7584960">
        <ele>33.6</ele>
        <time>2021-07-22T12:27:24Z</time>
      </trkpt>
      <trkpt lat="43.5379280" lon="-6.7587740">
        <ele>33.6</ele>
        <time>2021-07-22T12:27:29Z</time>
      </trkpt>
      <trkpt lat="43.5379560" lon="-6.7592080">
        <ele>33.6</ele>
        <time>2021-07-22T12:27:36Z</time>
      </trkpt>
      <trkpt lat="43.5380150" lon="-6.7597910">
        <ele>33.6</ele>
        <time>2021-07-22T12:27:45Z</time>
      </trkpt>
      <trkpt lat="43.5380420" lon="-6.7600680">
        <ele>33.6</ele>
        <time>2021-07-22T12:27:49Z</time>
      </trkpt>
      <trkpt lat="43.5380570" lon="-6.7602610">
        <ele>33.6</ele>
        <time>2021-07-22T12:27:52Z</time>
      </trkpt>
      <trkpt lat="43.5380680" lon="-6.7604490">
        <ele>33.6</ele>
        <time>2021-07-22T12:27:55Z</time>
      </trkpt>
      <trkpt lat="43.5380980" lon="-6.7607440">
        <ele>33.6</ele>
        <time>2021-07-22T12:28:00Z</time>
      </trkpt>
      <trkpt lat="43.5381080" lon="-6.7608000">
        <ele>33.6</ele>
        <time>2021-07-22T12:28:01Z</time>
      </trkpt>
      <trkpt lat="43.5381250" lon="-6.7608560">
        <ele>33.6</ele>
        <time>2021-07-22T12:28:02Z</time>
      </trkpt>
      <trkpt lat="43.5382130" lon="-6.7611080">
        <ele>33.6</ele>
        <time>2021-07-22T12:28:06Z</time>
      </trkpt>
      <trkpt lat="43.5382710" lon="-6.7613430">
        <ele>33.2</ele>
        <time>2021-07-22T12:28:09Z</time>
      </trkpt>
      <trkpt lat="43.5382930" lon="-6.7614250">
        <ele>32.8</ele>
        <time>2021-07-22T12:28:10Z</time>
      </trkpt>
      <trkpt lat="43.5383180" lon="-6.7615130">
        <ele>32.2</ele>
        <time>2021-07-22T12:28:11Z</time>
      </trkpt>
      <trkpt lat="43.5383460" lon="-6.7615960">
        <ele>31.8</ele>
        <time>2021-07-22T12:28:12Z</time>
      </trkpt>
      <trkpt lat="43.5383770" lon="-6.7616790">
        <ele>31.4</ele>
        <time>2021-07-22T12:28:13Z</time>
      </trkpt>
      <trkpt lat="43.5385500" lon="-6.7621020">
        <ele>31.0</ele>
        <time>2021-07-22T12:28:18Z</time>
      </trkpt>
      <trkpt lat="43.5385840" lon="-6.7621940">
        <ele>30.6</ele>
        <time>2021-07-22T12:28:19Z</time>
      </trkpt>
      <trkpt lat="43.5386180" lon="-6.7622810">
        <ele>30.0</ele>
        <time>2021-07-22T12:28:20Z</time>
      </trkpt>
      <trkpt lat="43.5386500" lon="-6.7623670">
        <ele>29.6</ele>
        <time>2021-07-22T12:28:21Z</time>
      </trkpt>
      <trkpt lat="43.5386820" lon="-6.7624540">
        <ele>29.2</ele>
        <time>2021-07-22T12:28:22Z</time>
      </trkpt>
      <trkpt lat="43.5387820" lon="-6.7628010">
        <ele>28.8</ele>
        <time>2021-07-22T12:28:26Z</time>
      </trkpt>
      <trkpt lat="43.5387980" lon="-6.7628810">
        <ele>28.4</ele>
        <time>2021-07-22T12:28:27Z</time>
      </trkpt>
      <trkpt lat="43.5388140" lon="-6.7629640">
        <ele>28.0</ele>
        <time>2021-07-22T12:28:28Z</time>
      </trkpt>
      <trkpt lat="43.5388270" lon="-6.7630430">
        <ele>27.6</ele>
        <time>2021-07-22T12:28:29Z</time>
      </trkpt>
      <trkpt lat="43.5388370" lon="-6.7631230">
        <ele>27.2</ele>
        <time>2021-07-22T12:28:30Z</time>
      </trkpt>
      <trkpt lat="43.5388500" lon="-6.7633570">
        <ele>27.2</ele>
        <time>2021-07-22T12:28:33Z</time>
      </trkpt>
      <trkpt lat="43.5388370" lon="-6.7635950">
        <ele>27.2</ele>
        <time>2021-07-22T12:28:36Z</time>
      </trkpt>
      <trkpt lat="43.5388110" lon="-6.7637530">
        <ele>26.6</ele>
        <time>2021-07-22T12:28:38Z</time>
      </trkpt>
      <trkpt lat="43.5387910" lon="-6.7638320">
        <ele>26.2</ele>
        <time>2021-07-22T12:28:39Z</time>
      </trkpt>
      <trkpt lat="43.5387650" lon="-6.7639100">
        <ele>25.8</ele>
        <time>2021-07-22T12:28:40Z</time>
      </trkpt>
      <trkpt lat="43.5387330" lon="-6.7639890">
        <ele>25.4</ele>
        <time>2021-07-22T12:28:41Z</time>
      </trkpt>
      <trkpt lat="43.5387030" lon="-6.7640750">
        <ele>25.0</ele>
        <time>2021-07-22T12:28:42Z</time>
      </trkpt>
      <trkpt lat="43.5386800" lon="-6.7641650">
        <ele>25.0</ele>
        <time>2021-07-22T12:28:43Z</time>
      </trkpt>
      <trkpt lat="43.5386650" lon="-6.7643610">
        <ele>25.0</ele>
        <time>2021-07-22T12:28:45Z</time>
      </trkpt>
      <trkpt lat="43.5386690" lon="-6.7644620">
        <ele>25.0</ele>
        <time>2021-07-22T12:28:46Z</time>
      </trkpt>
      <trkpt lat="43.5386780" lon="-6.7645630">
        <ele>24.6</ele>
        <time>2021-07-22T12:28:47Z</time>
      </trkpt>
      <trkpt lat="43.5386870" lon="-6.7646650">
        <ele>24.2</ele>
        <time>2021-07-22T12:28:48Z</time>
      </trkpt>
      <trkpt lat="43.5386970" lon="-6.7647740">
        <ele>23.6</ele>
        <time>2021-07-22T12:28:49Z</time>
      </trkpt>
      <trkpt lat="43.5387050" lon="-6.7648770">
        <ele>23.2</ele>
        <time>2021-07-22T12:28:50Z</time>
      </trkpt>
      <trkpt lat="43.5387110" lon="-6.7649760">
        <ele>22.8</ele>
        <time>2021-07-22T12:28:51Z</time>
      </trkpt>
      <trkpt lat="43.5387180" lon="-6.7650720">
        <ele>22.8</ele>
        <time>2021-07-22T12:28:52Z</time>
      </trkpt>
      <trkpt lat="43.5387470" lon="-6.7652530">
        <ele>22.8</ele>
        <time>2021-07-22T12:28:54Z</time>
      </trkpt>
      <trkpt lat="43.5387720" lon="-6.7653390">
        <ele>22.4</ele>
        <time>2021-07-22T12:28:55Z</time>
      </trkpt>
      <trkpt lat="43.5388030" lon="-6.7654200">
        <ele>22.0</ele>
        <time>2021-07-22T12:28:56Z</time>
      </trkpt>
      <trkpt lat="43.5388370" lon="-6.7655010">
        <ele>21.6</ele>
        <time>2021-07-22T12:28:57Z</time>
      </trkpt>
      <trkpt lat="43.5388710" lon="-6.7655790">
        <ele>21.2</ele>
        <time>2021-07-22T12:28:58Z</time>
      </trkpt>
      <trkpt lat="43.5389070" lon="-6.7656540">
        <ele>20.8</ele>
        <time>2021-07-22T12:28:59Z</time>
      </trkpt>
      <trkpt lat="43.5390130" lon="-6.7658680">
        <ele>20.8</ele>
        <time>2021-07-22T12:29:02Z</time>
      </trkpt>
      <trkpt lat="43.5390840" lon="-6.7660160">
        <ele>20.8</ele>
        <time>2021-07-22T12:29:04Z</time>
      </trkpt>
      <trkpt lat="43.5392200" lon="-6.7662980">
        <ele>20.4</ele>
        <time>2021-07-22T12:29:08Z</time>
      </trkpt>
      <trkpt lat="43.5392540" lon="-6.7663640">
        <ele>19.8</ele>
        <time>2021-07-22T12:29:09Z</time>
      </trkpt>
      <trkpt lat="43.5392860" lon="-6.7664290">
        <ele>19.4</ele>
        <time>2021-07-22T12:29:10Z</time>
      </trkpt>
      <trkpt lat="43.5393120" lon="-6.7664920">
        <ele>19.0</ele>
        <time>2021-07-22T12:29:11Z</time>
      </trkpt>
      <trkpt lat="43.5393380" lon="-6.7665570">
        <ele>18.4</ele>
        <time>2021-07-22T12:29:12Z</time>
      </trkpt>
      <trkpt lat="43.5394350" lon="-6.7667600">
        <ele>18.4</ele>
        <time>2021-07-22T12:29:16Z</time>
      </trkpt>
      <trkpt lat="43.5394600" lon="-6.7668070">
        <ele>18.4</ele>
        <time>2021-07-22T12:29:17Z</time>
      </trkpt>
      <trkpt lat="43.5395120" lon="-6.7668990">
        <ele>18.4</ele>
        <time>2021-07-22T12:29:19Z</time>
      </trkpt>
      <trkpt lat="43.5395580" lon="-6.7669920">
        <ele>18.4</ele>
        <time>2021-07-22T12:29:21Z</time>
      </trkpt>
      <trkpt lat="43.5396010" lon="-6.7670780">
        <ele>18.4</ele>
        <time>2021-07-22T12:29:23Z</time>
      </trkpt>
      <trkpt lat="43.5396210" lon="-6.7671190">
        <ele>18.4</ele>
        <time>2021-07-22T12:29:24Z</time>
      </trkpt>
      <trkpt lat="43.5396630" lon="-6.7671930">
        <ele>18.4</ele>
        <time>2021-07-22T12:29:26Z</time>
      </trkpt>
      <trkpt lat="43.5397240" lon="-6.7673090">
        <ele>18.4</ele>
        <time>2021-07-22T12:29:29Z</time>
      </trkpt>
      <trkpt lat="43.5397790" lon="-6.7674240">
        <ele>18.4</ele>
        <time>2021-07-22T12:29:32Z</time>
      </trkpt>
      <trkpt lat="43.5398250" lon="-6.7675430">
        <ele>18.4</ele>
        <time>2021-07-22T12:29:35Z</time>
      </trkpt>
      <trkpt lat="43.5398770" lon="-6.7676440">
        <ele>18.4</ele>
        <time>2021-07-22T12:29:38Z</time>
      </trkpt>
      <trkpt lat="43.5399150" lon="-6.7677030">
        <ele>18.4</ele>
        <time>2021-07-22T12:29:40Z</time>
      </trkpt>
      <trkpt lat="43.5399350" lon="-6.7677340">
        <ele>19.0</ele>
        <time>2021-07-22T12:29:41Z</time>
      </trkpt>
      <trkpt lat="43.5399560" lon="-6.7677640">
        <ele>19.4</ele>
        <time>2021-07-22T12:29:42Z</time>
      </trkpt>
      <trkpt lat="43.5399800" lon="-6.7677970">
        <ele>19.8</ele>
        <time>2021-07-22T12:29:43Z</time>
      </trkpt>
      <trkpt lat="43.5400030" lon="-6.7678250">
        <ele>20.2</ele>
        <time>2021-07-22T12:29:44Z</time>
      </trkpt>
      <trkpt lat="43.5400250" lon="-6.7678550">
        <ele>20.6</ele>
        <time>2021-07-22T12:29:45Z</time>
      </trkpt>
      <trkpt lat="43.5400620" lon="-6.7679230">
        <ele>20.6</ele>
        <time>2021-07-22T12:29:47Z</time>
      </trkpt>
      <trkpt lat="43.5401200" lon="-6.7680810">
        <ele>20.6</ele>
        <time>2021-07-22T12:29:51Z</time>
      </trkpt>
      <trkpt lat="43.5401420" lon="-6.7681600">
        <ele>20.6</ele>
        <time>2021-07-22T12:29:53Z</time>
      </trkpt>
      <trkpt lat="43.5402020" lon="-6.7684380">
        <ele>20.6</ele>
        <time>2021-07-22T12:30:00Z</time>
      </trkpt>
      <trkpt lat="43.5402050" lon="-6.7685120">
        <ele>21.0</ele>
        <time>2021-07-22T12:30:02Z</time>
      </trkpt>
      <trkpt lat="43.5402060" lon="-6.7685480">
        <ele>21.4</ele>
        <time>2021-07-22T12:30:03Z</time>
      </trkpt>
      <trkpt lat="43.5402060" lon="-6.7685850">
        <ele>21.8</ele>
        <time>2021-07-22T12:30:04Z</time>
      </trkpt>
      <trkpt lat="43.5402050" lon="-6.7686210">
        <ele>22.2</ele>
        <time>2021-07-22T12:30:05Z</time>
      </trkpt>
      <trkpt lat="43.5402050" lon="-6.7686560">
        <ele>22.6</ele>
        <time>2021-07-22T12:30:06Z</time>
      </trkpt>
      <trkpt lat="43.5401900" lon="-6.7688540">
        <ele>22.6</ele>
        <time>2021-07-22T12:30:12Z</time>
      </trkpt>
      <trkpt lat="43.5401650" lon="-6.7690280">
        <ele>23.0</ele>
        <time>2021-07-22T12:30:17Z</time>
      </trkpt>
      <trkpt lat="43.5401610" lon="-6.7690620">
        <ele>23.4</ele>
        <time>2021-07-22T12:30:18Z</time>
      </trkpt>
      <trkpt lat="43.5401550" lon="-6.7690970">
        <ele>23.8</ele>
        <time>2021-07-22T12:30:19Z</time>
      </trkpt>
      <trkpt lat="43.5401500" lon="-6.7691310">
        <ele>24.2</ele>
        <time>2021-07-22T12:30:20Z</time>
      </trkpt>
      <trkpt lat="43.5401470" lon="-6.7691650">
        <ele>24.6</ele>
        <time>2021-07-22T12:30:21Z</time>
      </trkpt>
      <trkpt lat="43.5401100" lon="-6.7694830">
        <ele>25.0</ele>
        <time>2021-07-22T12:30:31Z</time>
      </trkpt>
      <trkpt lat="43.5401100" lon="-6.7695120">
        <ele>25.4</ele>
        <time>2021-07-22T12:30:32Z</time>
      </trkpt>
      <trkpt lat="43.5401070" lon="-6.7695430">
        <ele>25.8</ele>
        <time>2021-07-22T12:30:33Z</time>
      </trkpt>
      <trkpt lat="43.5401060" lon="-6.7695760">
        <ele>26.2</ele>
        <time>2021-07-22T12:30:34Z</time>
      </trkpt>
      <trkpt lat="43.5401050" lon="-6.7696080">
        <ele>26.8</ele>
        <time>2021-07-22T12:30:35Z</time>
      </trkpt>
      <trkpt lat="43.5400830" lon="-6.7697300">
        <ele>26.8</ele>
        <time>2021-07-22T12:30:39Z</time>
      </trkpt>
      <trkpt lat="43.5400450" lon="-6.7699700">
        <ele>27.6</ele>
        <time>2021-07-22T12:30:47Z</time>
      </trkpt>
      <trkpt lat="43.5400420" lon="-6.7699950">
        <ele>28.0</ele>
        <time>2021-07-22T12:30:48Z</time>
      </trkpt>
      <trkpt lat="43.5400370" lon="-6.7700220">
        <ele>28.4</ele>
        <time>2021-07-22T12:30:49Z</time>
      </trkpt>
      <trkpt lat="43.5400310" lon="-6.7700500">
        <ele>28.8</ele>
        <time>2021-07-22T12:30:50Z</time>
      </trkpt>
      <trkpt lat="43.5399990" lon="-6.7701850">
        <ele>28.8</ele>
        <time>2021-07-22T12:30:55Z</time>
      </trkpt>
      <trkpt lat="43.5399720" lon="-6.7702950">
        <ele>29.2</ele>
        <time>2021-07-22T12:30:59Z</time>
      </trkpt>
      <trkpt lat="43.5399640" lon="-6.7703210">
        <ele>29.6</ele>
        <time>2021-07-22T12:31:00Z</time>
      </trkpt>
      <trkpt lat="43.5399560" lon="-6.7703490">
        <ele>30.0</ele>
        <time>2021-07-22T12:31:01Z</time>
      </trkpt>
      <trkpt lat="43.5399500" lon="-6.7703760">
        <ele>30.4</ele>
        <time>2021-07-22T12:31:02Z</time>
      </trkpt>
      <trkpt lat="43.5399440" lon="-6.7704050">
        <ele>30.8</ele>
        <time>2021-07-22T12:31:03Z</time>
      </trkpt>
      <trkpt lat="43.5399370" lon="-6.7704310">
        <ele>30.8</ele>
        <time>2021-07-22T12:31:04Z</time>
      </trkpt>
      <trkpt lat="43.5398760" lon="-6.7706600">
        <ele>31.2</ele>
        <time>2021-07-22T12:31:13Z</time>
      </trkpt>
      <trkpt lat="43.5398700" lon="-6.7706850">
        <ele>31.6</ele>
        <time>2021-07-22T12:31:14Z</time>
      </trkpt>
      <trkpt lat="43.5398640" lon="-6.7707100">
        <ele>32.0</ele>
        <time>2021-07-22T12:31:15Z</time>
      </trkpt>
      <trkpt lat="43.5398580" lon="-6.7707390">
        <ele>32.6</ele>
        <time>2021-07-22T12:31:16Z</time>
      </trkpt>
      <trkpt lat="43.5398520" lon="-6.7707660">
        <ele>33.0</ele>
        <time>2021-07-22T12:31:17Z</time>
      </trkpt>
      <trkpt lat="43.5398230" lon="-6.7708650">
        <ele>33.0</ele>
        <time>2021-07-22T12:31:21Z</time>
      </trkpt>
      <trkpt lat="43.5397960" lon="-6.7709920">
        <ele>33.4</ele>
        <time>2021-07-22T12:31:26Z</time>
      </trkpt>
      <trkpt lat="43.5397870" lon="-6.7710210">
        <ele>33.8</ele>
        <time>2021-07-22T12:31:27Z</time>
      </trkpt>
      <trkpt lat="43.5397820" lon="-6.7710500">
        <ele>34.2</ele>
        <time>2021-07-22T12:31:28Z</time>
      </trkpt>
      <trkpt lat="43.5397730" lon="-6.7710780">
        <ele>34.6</ele>
        <time>2021-07-22T12:31:29Z</time>
      </trkpt>
      <trkpt lat="43.5397650" lon="-6.7711070">
        <ele>35.0</ele>
        <time>2021-07-22T12:31:30Z</time>
      </trkpt>
      <trkpt lat="43.5397070" lon="-6.7713500">
        <ele>35.0</ele>
        <time>2021-07-22T12:31:39Z</time>
      </trkpt>
      <trkpt lat="43.5396990" lon="-6.7713780">
        <ele>35.4</ele>
        <time>2021-07-22T12:31:40Z</time>
      </trkpt>
      <trkpt lat="43.5396920" lon="-6.7714040">
        <ele>35.8</ele>
        <time>2021-07-22T12:31:41Z</time>
      </trkpt>
      <trkpt lat="43.5396850" lon="-6.7714290">
        <ele>36.2</ele>
        <time>2021-07-22T12:31:42Z</time>
      </trkpt>
      <trkpt lat="43.5396780" lon="-6.7714530">
        <ele>36.6</ele>
        <time>2021-07-22T12:31:43Z</time>
      </trkpt>
      <trkpt lat="43.5396720" lon="-6.7714780">
        <ele>37.0</ele>
        <time>2021-07-22T12:31:44Z</time>
      </trkpt>
      <trkpt lat="43.5396550" lon="-6.7715490">
        <ele>37.0</ele>
        <time>2021-07-22T12:31:47Z</time>
      </trkpt>
      <trkpt lat="43.5395980" lon="-6.7717470">
        <ele>37.0</ele>
        <time>2021-07-22T12:31:55Z</time>
      </trkpt>
      <trkpt lat="43.5395840" lon="-6.7718290">
        <ele>37.4</ele>
        <time>2021-07-22T12:31:58Z</time>
      </trkpt>
      <trkpt lat="43.5395770" lon="-6.7718560">
        <ele>37.8</ele>
        <time>2021-07-22T12:31:59Z</time>
      </trkpt>
      <trkpt lat="43.5395660" lon="-6.7718810">
        <ele>38.2</ele>
        <time>2021-07-22T12:32:00Z</time>
      </trkpt>
      <trkpt lat="43.5395580" lon="-6.7719060">
        <ele>39.0</ele>
        <time>2021-07-22T12:32:01Z</time>
      </trkpt>
      <trkpt lat="43.5395090" lon="-6.7721380">
        <ele>39.0</ele>
        <time>2021-07-22T12:32:10Z</time>
      </trkpt>
      <trkpt lat="43.5395020" lon="-6.7721630">
        <ele>39.4</ele>
        <time>2021-07-22T12:32:11Z</time>
      </trkpt>
      <trkpt lat="43.5394940" lon="-6.7721900">
        <ele>39.8</ele>
        <time>2021-07-22T12:32:12Z</time>
      </trkpt>
      <trkpt lat="43.5394830" lon="-6.7722130">
        <ele>40.2</ele>
        <time>2021-07-22T12:32:13Z</time>
      </trkpt>
      <trkpt lat="43.5394740" lon="-6.7722350">
        <ele>40.8</ele>
        <time>2021-07-22T12:32:14Z</time>
      </trkpt>
      <trkpt lat="43.5394650" lon="-6.7722600">
        <ele>41.2</ele>
        <time>2021-07-22T12:32:15Z</time>
      </trkpt>
      <trkpt lat="43.5394480" lon="-6.7723380">
        <ele>41.2</ele>
        <time>2021-07-22T12:32:18Z</time>
      </trkpt>
      <trkpt lat="43.5393890" lon="-6.7725620">
        <ele>41.2</ele>
        <time>2021-07-22T12:32:27Z</time>
      </trkpt>
      <trkpt lat="43.5393750" lon="-6.7726100">
        <ele>41.6</ele>
        <time>2021-07-22T12:32:29Z</time>
      </trkpt>
      <trkpt lat="43.5393660" lon="-6.7726350">
        <ele>42.0</ele>
        <time>2021-07-22T12:32:30Z</time>
      </trkpt>
      <trkpt lat="43.5393600" lon="-6.7726620">
        <ele>42.4</ele>
        <time>2021-07-22T12:32:31Z</time>
      </trkpt>
      <trkpt lat="43.5393540" lon="-6.7726890">
        <ele>42.8</ele>
        <time>2021-07-22T12:32:32Z</time>
      </trkpt>
      <trkpt lat="43.5393480" lon="-6.7727160">
        <ele>43.2</ele>
        <time>2021-07-22T12:32:33Z</time>
      </trkpt>
      <trkpt lat="43.5393420" lon="-6.7727430">
        <ele>43.2</ele>
        <time>2021-07-22T12:32:34Z</time>
      </trkpt>
      <trkpt lat="43.5392870" lon="-6.7729650">
        <ele>43.2</ele>
        <time>2021-07-22T12:32:43Z</time>
      </trkpt>
      <trkpt lat="43.5392730" lon="-6.7730140">
        <ele>43.6</ele>
        <time>2021-07-22T12:32:45Z</time>
      </trkpt>
      <trkpt lat="43.5392660" lon="-6.7730380">
        <ele>44.0</ele>
        <time>2021-07-22T12:32:46Z</time>
      </trkpt>
      <trkpt lat="43.5392600" lon="-6.7730620">
        <ele>44.4</ele>
        <time>2021-07-22T12:32:47Z</time>
      </trkpt>
      <trkpt lat="43.5392550" lon="-6.7730850">
        <ele>44.8</ele>
        <time>2021-07-22T12:32:48Z</time>
      </trkpt>
      <trkpt lat="43.5392470" lon="-6.7731110">
        <ele>45.2</ele>
        <time>2021-07-22T12:32:49Z</time>
      </trkpt>
      <trkpt lat="43.5392170" lon="-6.7732010">
        <ele>45.2</ele>
        <time>2021-07-22T12:32:53Z</time>
      </trkpt>
      <trkpt lat="43.5391950" lon="-6.7733040">
        <ele>45.6</ele>
        <time>2021-07-22T12:32:58Z</time>
      </trkpt>
      <trkpt lat="43.5391960" lon="-6.7733250">
        <ele>46.0</ele>
        <time>2021-07-22T12:32:59Z</time>
      </trkpt>
      <trkpt lat="43.5392000" lon="-6.7733470">
        <ele>46.4</ele>
        <time>2021-07-22T12:33:00Z</time>
      </trkpt>
      <trkpt lat="43.5392090" lon="-6.7733640">
        <ele>46.8</ele>
        <time>2021-07-22T12:33:01Z</time>
      </trkpt>
      <trkpt lat="43.5392200" lon="-6.7733750">
        <ele>47.2</ele>
        <time>2021-07-22T12:33:02Z</time>
      </trkpt>
      <trkpt lat="43.5392540" lon="-6.7733940">
        <ele>47.2</ele>
        <time>2021-07-22T12:33:04Z</time>
      </trkpt>
      <trkpt lat="43.5392730" lon="-6.7734020">
        <ele>47.2</ele>
        <time>2021-07-22T12:33:05Z</time>
      </trkpt>
      <trkpt lat="43.5394240" lon="-6.7734540">
        <ele>47.2</ele>
        <time>2021-07-22T12:33:12Z</time>
      </trkpt>
      <trkpt lat="43.5395080" lon="-6.7734910">
        <ele>47.6</ele>
        <time>2021-07-22T12:33:15Z</time>
      </trkpt>
      <trkpt lat="43.5395390" lon="-6.7735040">
        <ele>48.0</ele>
        <time>2021-07-22T12:33:16Z</time>
      </trkpt>
      <trkpt lat="43.5395700" lon="-6.7735180">
        <ele>48.6</ele>
        <time>2021-07-22T12:33:17Z</time>
      </trkpt>
      <trkpt lat="43.5396030" lon="-6.7735310">
        <ele>49.0</ele>
        <time>2021-07-22T12:33:18Z</time>
      </trkpt>
      <trkpt lat="43.5396390" lon="-6.7735450">
        <ele>49.4</ele>
        <time>2021-07-22T12:33:19Z</time>
      </trkpt>
      <trkpt lat="43.5398620" lon="-6.7736040">
        <ele>49.4</ele>
        <time>2021-07-22T12:33:25Z</time>
      </trkpt>
      <trkpt lat="43.5400300" lon="-6.7736160">
        <ele>49.4</ele>
        <time>2021-07-22T12:33:29Z</time>
      </trkpt>
      <trkpt lat="43.5401180" lon="-6.7735950">
        <ele>49.4</ele>
        <time>2021-07-22T12:33:31Z</time>
      </trkpt>
      <trkpt lat="43.5401620" lon="-6.7735920">
        <ele>49.4</ele>
        <time>2021-07-22T12:33:32Z</time>
      </trkpt>
      <trkpt lat="43.5402440" lon="-6.7736240">
        <ele>49.4</ele>
        <time>2021-07-22T12:33:34Z</time>
      </trkpt>
      <trkpt lat="43.5402800" lon="-6.7736570">
        <ele>49.4</ele>
        <time>2021-07-22T12:33:35Z</time>
      </trkpt>
      <trkpt lat="43.5403550" lon="-6.7737150">
        <ele>49.4</ele>
        <time>2021-07-22T12:33:37Z</time>
      </trkpt>
      <trkpt lat="43.5403970" lon="-6.7737460">
        <ele>49.0</ele>
        <time>2021-07-22T12:33:38Z</time>
      </trkpt>
      <trkpt lat="43.5404410" lon="-6.7737780">
        <ele>48.0</ele>
        <time>2021-07-22T12:33:39Z</time>
      </trkpt>
      <trkpt lat="43.5404850" lon="-6.7738130">
        <ele>47.6</ele>
        <time>2021-07-22T12:33:40Z</time>
      </trkpt>
      <trkpt lat="43.5405310" lon="-6.7738510">
        <ele>47.2</ele>
        <time>2021-07-22T12:33:41Z</time>
      </trkpt>
      <trkpt lat="43.5407300" lon="-6.7740220">
        <ele>47.2</ele>
        <time>2021-07-22T12:33:45Z</time>
      </trkpt>
      <trkpt lat="43.5408330" lon="-6.7741150">
        <ele>47.2</ele>
        <time>2021-07-22T12:33:47Z</time>
      </trkpt>
      <trkpt lat="43.5408830" lon="-6.7741600">
        <ele>47.2</ele>
        <time>2021-07-22T12:33:48Z</time>
      </trkpt>
      <trkpt lat="43.5409350" lon="-6.7742060">
        <ele>46.8</ele>
        <time>2021-07-22T12:33:49Z</time>
      </trkpt>
      <trkpt lat="43.5409840" lon="-6.7742430">
        <ele>46.2</ele>
        <time>2021-07-22T12:33:50Z</time>
      </trkpt>
      <trkpt lat="43.5410290" lon="-6.7742790">
        <ele>45.6</ele>
        <time>2021-07-22T12:33:51Z</time>
      </trkpt>
      <trkpt lat="43.5410720" lon="-6.7743120">
        <ele>45.0</ele>
        <time>2021-07-22T12:33:52Z</time>
      </trkpt>
      <trkpt lat="43.5411130" lon="-6.7743390">
        <ele>44.6</ele>
        <time>2021-07-22T12:33:53Z</time>
      </trkpt>
      <trkpt lat="43.5411590" lon="-6.7743610">
        <ele>44.0</ele>
        <time>2021-07-22T12:33:54Z</time>
      </trkpt>
      <trkpt lat="43.5412080" lon="-6.7743780">
        <ele>43.4</ele>
        <time>2021-07-22T12:33:55Z</time>
      </trkpt>
      <trkpt lat="43.5412520" lon="-6.7743980">
        <ele>42.8</ele>
        <time>2021-07-22T12:33:56Z</time>
      </trkpt>
      <trkpt lat="43.5412950" lon="-6.7744180">
        <ele>42.4</ele>
        <time>2021-07-22T12:33:57Z</time>
      </trkpt>
      <trkpt lat="43.5413340" lon="-6.7744420">
        <ele>41.8</ele>
        <time>2021-07-22T12:33:58Z</time>
      </trkpt>
      <trkpt lat="43.5413670" lon="-6.7744610">
        <ele>41.4</ele>
        <time>2021-07-22T12:33:59Z</time>
      </trkpt>
      <trkpt lat="43.5413930" lon="-6.7744750">
        <ele>40.8</ele>
        <time>2021-07-22T12:34:00Z</time>
      </trkpt>
      <trkpt lat="43.5414150" lon="-6.7744830">
        <ele>40.2</ele>
        <time>2021-07-22T12:34:01Z</time>
      </trkpt>
      <trkpt lat="43.5414350" lon="-6.7744890">
        <ele>39.6</ele>
        <time>2021-07-22T12:34:02Z</time>
      </trkpt>
      <trkpt lat="43.5414540" lon="-6.7744930">
        <ele>39.0</ele>
        <time>2021-07-22T12:34:03Z</time>
      </trkpt>
      <trkpt lat="43.5414740" lon="-6.7744900">
        <ele>37.8</ele>
        <time>2021-07-22T12:34:04Z</time>
      </trkpt>
      <trkpt lat="43.5415250" lon="-6.7744760">
        <ele>37.2</ele>
        <time>2021-07-22T12:34:07Z</time>
      </trkpt>
      <trkpt lat="43.5415400" lon="-6.7744690">
        <ele>36.8</ele>
        <time>2021-07-22T12:34:08Z</time>
      </trkpt>
      <trkpt lat="43.5415500" lon="-6.7744680">
        <ele>36.4</ele>
        <time>2021-07-22T12:34:09Z</time>
      </trkpt>
      <trkpt lat="43.5415510" lon="-6.7744690">
        <ele>36.0</ele>
        <time>2021-07-22T12:34:10Z</time>
      </trkpt>
      <trkpt lat="43.5415540" lon="-6.7744620">
        <ele>35.6</ele>
        <time>2021-07-22T12:34:21Z</time>
      </trkpt>
      <trkpt lat="43.5416100" lon="-6.7743990">
        <ele>35.6</ele>
        <time>2021-07-22T12:34:23Z</time>
      </trkpt>
      <trkpt lat="43.5416460" lon="-6.7743690">
        <ele>35.6</ele>
        <time>2021-07-22T12:34:24Z</time>
      </trkpt>
      <trkpt lat="43.5417940" lon="-6.7743260">
        <ele>35.6</ele>
        <time>2021-07-22T12:34:27Z</time>
      </trkpt>
      <trkpt lat="43.5419660" lon="-6.7744070">
        <ele>35.6</ele>
        <time>2021-07-22T12:34:30Z</time>
      </trkpt>
      <trkpt lat="43.5420670" lon="-6.7744910">
        <ele>35.2</ele>
        <time>2021-07-22T12:34:32Z</time>
      </trkpt>
      <trkpt lat="43.5421160" lon="-6.7745290">
        <ele>34.6</ele>
        <time>2021-07-22T12:34:33Z</time>
      </trkpt>
      <trkpt lat="43.5421640" lon="-6.7745590">
        <ele>34.2</ele>
        <time>2021-07-22T12:34:34Z</time>
      </trkpt>
      <trkpt lat="43.5422110" lon="-6.7745830">
        <ele>33.6</ele>
        <time>2021-07-22T12:34:35Z</time>
      </trkpt>
      <trkpt lat="43.5422520" lon="-6.7745940">
        <ele>33.2</ele>
        <time>2021-07-22T12:34:36Z</time>
      </trkpt>
      <trkpt lat="43.5422950" lon="-6.7745920">
        <ele>32.6</ele>
        <time>2021-07-22T12:34:37Z</time>
      </trkpt>
      <trkpt lat="43.5423380" lon="-6.7745820">
        <ele>32.0</ele>
        <time>2021-07-22T12:34:38Z</time>
      </trkpt>
      <trkpt lat="43.5423810" lon="-6.7745590">
        <ele>31.4</ele>
        <time>2021-07-22T12:34:39Z</time>
      </trkpt>
      <trkpt lat="43.5424240" lon="-6.7745270">
        <ele>30.8</ele>
        <time>2021-07-22T12:34:40Z</time>
      </trkpt>
      <trkpt lat="43.5424630" lon="-6.7744860">
        <ele>30.2</ele>
        <time>2021-07-22T12:34:41Z</time>
      </trkpt>
      <trkpt lat="43.5425020" lon="-6.7744410">
        <ele>29.6</ele>
        <time>2021-07-22T12:34:42Z</time>
      </trkpt>
      <trkpt lat="43.5425430" lon="-6.7743920">
        <ele>29.0</ele>
        <time>2021-07-22T12:34:43Z</time>
      </trkpt>
      <trkpt lat="43.5425800" lon="-6.7743450">
        <ele>29.0</ele>
        <time>2021-07-22T12:34:44Z</time>
      </trkpt>
      <trkpt lat="43.5426480" lon="-6.7742650">
        <ele>28.6</ele>
        <time>2021-07-22T12:34:46Z</time>
      </trkpt>
      <trkpt lat="43.5426780" lon="-6.7742290">
        <ele>28.0</ele>
        <time>2021-07-22T12:34:47Z</time>
      </trkpt>
      <trkpt lat="43.5427040" lon="-6.7741950">
        <ele>27.6</ele>
        <time>2021-07-22T12:34:48Z</time>
      </trkpt>
      <trkpt lat="43.5427300" lon="-6.7741630">
        <ele>27.2</ele>
        <time>2021-07-22T12:34:49Z</time>
      </trkpt>
      <trkpt lat="43.5427550" lon="-6.7741350">
        <ele>26.6</ele>
        <time>2021-07-22T12:34:50Z</time>
      </trkpt>
      <trkpt lat="43.5427760" lon="-6.7741130">
        <ele>26.2</ele>
        <time>2021-07-22T12:34:51Z</time>
      </trkpt>
      <trkpt lat="43.5427910" lon="-6.7740980">
        <ele>25.6</ele>
        <time>2021-07-22T12:34:52Z</time>
      </trkpt>
      <trkpt lat="43.5427940" lon="-6.7741000">
        <ele>24.6</ele>
        <time>2021-07-22T12:34:53Z</time>
      </trkpt>
      <trkpt lat="43.5427960" lon="-6.7741030">
        <ele>24.6</ele>
        <time>2021-07-22T12:34:54Z</time>
      </trkpt>
      <trkpt lat="43.5428170" lon="-6.7740940">
        <ele>24.6</ele>
        <time>2021-07-22T12:35:55Z</time>
      </trkpt>
      <trkpt lat="43.5428310" lon="-6.7740990">
        <ele>24.6</ele>
        <time>2021-07-22T12:35:56Z</time>
      </trkpt>
      <trkpt lat="43.5428730" lon="-6.7741210">
        <ele>24.6</ele>
        <time>2021-07-22T12:35:58Z</time>
      </trkpt>
      <trkpt lat="43.5429150" lon="-6.7741820">
        <ele>24.6</ele>
        <time>2021-07-22T12:36:00Z</time>
      </trkpt>
      <trkpt lat="43.5429270" lon="-6.7742320">
        <ele>24.6</ele>
        <time>2021-07-22T12:36:01Z</time>
      </trkpt>
      <trkpt lat="43.5429380" lon="-6.7742860">
        <ele>24.6</ele>
        <time>2021-07-22T12:36:02Z</time>
      </trkpt>
      <trkpt lat="43.5429580" lon="-6.7743970">
        <ele>24.2</ele>
        <time>2021-07-22T12:36:04Z</time>
      </trkpt>
      <trkpt lat="43.5429660" lon="-6.7744590">
        <ele>23.8</ele>
        <time>2021-07-22T12:36:05Z</time>
      </trkpt>
      <trkpt lat="43.5429740" lon="-6.7745190">
        <ele>23.4</ele>
        <time>2021-07-22T12:36:06Z</time>
      </trkpt>
      <trkpt lat="43.5429840" lon="-6.7745860">
        <ele>23.0</ele>
        <time>2021-07-22T12:36:07Z</time>
      </trkpt>
      <trkpt lat="43.5429950" lon="-6.7746510">
        <ele>22.6</ele>
        <time>2021-07-22T12:36:08Z</time>
      </trkpt>
      <trkpt lat="43.5430210" lon="-6.7748450">
        <ele>22.6</ele>
        <time>2021-07-22T12:36:11Z</time>
      </trkpt>
      <trkpt lat="43.5430420" lon="-6.7749760">
        <ele>22.6</ele>
        <time>2021-07-22T12:36:13Z</time>
      </trkpt>
      <trkpt lat="43.5430790" lon="-6.7752330">
        <ele>22.6</ele>
        <time>2021-07-22T12:36:17Z</time>
      </trkpt>
      <trkpt lat="43.5431180" lon="-6.7755160">
        <ele>22.6</ele>
        <time>2021-07-22T12:36:21Z</time>
      </trkpt>
      <trkpt lat="43.5431370" lon="-6.7756700">
        <ele>22.6</ele>
        <time>2021-07-22T12:36:23Z</time>
      </trkpt>
      <trkpt lat="43.5431480" lon="-6.7757420">
        <ele>22.6</ele>
        <time>2021-07-22T12:36:24Z</time>
      </trkpt>
      <trkpt lat="43.5431810" lon="-6.7759480">
        <ele>22.6</ele>
        <time>2021-07-22T12:36:27Z</time>
      </trkpt>
      <trkpt lat="43.5432330" lon="-6.7762860">
        <ele>22.6</ele>
        <time>2021-07-22T12:36:32Z</time>
      </trkpt>
      <trkpt lat="43.5432850" lon="-6.7766590">
        <ele>22.6</ele>
        <time>2021-07-22T12:36:38Z</time>
      </trkpt>
      <trkpt lat="43.5433150" lon="-6.7768280">
        <ele>22.6</ele>
        <time>2021-07-22T12:36:41Z</time>
      </trkpt>
      <trkpt lat="43.5433730" lon="-6.7770430">
        <ele>22.6</ele>
        <time>2021-07-22T12:36:45Z</time>
      </trkpt>
      <trkpt lat="43.5433890" lon="-6.7771640">
        <ele>22.6</ele>
        <time>2021-07-22T12:36:47Z</time>
      </trkpt>
      <trkpt lat="43.5434700" lon="-6.7774450">
        <ele>22.6</ele>
        <time>2021-07-22T12:36:53Z</time>
      </trkpt>
      <trkpt lat="43.5435760" lon="-6.7775880">
        <ele>22.6</ele>
        <time>2021-07-22T12:36:56Z</time>
      </trkpt>
      <trkpt lat="43.5436430" lon="-6.7777210">
        <ele>22.6</ele>
        <time>2021-07-22T12:36:58Z</time>
      </trkpt>
      <trkpt lat="43.5437640" lon="-6.7779880">
        <ele>22.6</ele>
        <time>2021-07-22T12:37:03Z</time>
      </trkpt>
      <trkpt lat="43.5438660" lon="-6.7782240">
        <ele>22.6</ele>
        <time>2021-07-22T12:37:09Z</time>
      </trkpt>
      <trkpt lat="43.5439800" lon="-6.7784590">
        <ele>22.6</ele>
        <time>2021-07-22T12:37:16Z</time>
      </trkpt>
      <trkpt lat="43.5440430" lon="-6.7785600">
        <ele>23.0</ele>
        <time>2021-07-22T12:37:19Z</time>
      </trkpt>
      <trkpt lat="43.5440620" lon="-6.7785840">
        <ele>23.4</ele>
        <time>2021-07-22T12:37:20Z</time>
      </trkpt>
      <trkpt lat="43.5440770" lon="-6.7786130">
        <ele>24.0</ele>
        <time>2021-07-22T12:37:21Z</time>
      </trkpt>
      <trkpt lat="43.5440890" lon="-6.7786430">
        <ele>24.4</ele>
        <time>2021-07-22T12:37:22Z</time>
      </trkpt>
      <trkpt lat="43.5440980" lon="-6.7786780">
        <ele>24.8</ele>
        <time>2021-07-22T12:37:23Z</time>
      </trkpt>
      <trkpt lat="43.5441410" lon="-6.7788560">
        <ele>24.8</ele>
        <time>2021-07-22T12:37:28Z</time>
      </trkpt>
      <trkpt lat="43.5441860" lon="-6.7791120">
        <ele>24.8</ele>
        <time>2021-07-22T12:37:35Z</time>
      </trkpt>
      <trkpt lat="43.5441890" lon="-6.7792630">
        <ele>25.2</ele>
        <time>2021-07-22T12:37:39Z</time>
      </trkpt>
      <trkpt lat="43.5441890" lon="-6.7792970">
        <ele>25.6</ele>
        <time>2021-07-22T12:37:40Z</time>
      </trkpt>
      <trkpt lat="43.5441920" lon="-6.7793300">
        <ele>26.0</ele>
        <time>2021-07-22T12:37:41Z</time>
      </trkpt>
      <trkpt lat="43.5441930" lon="-6.7793610">
        <ele>26.4</ele>
        <time>2021-07-22T12:37:42Z</time>
      </trkpt>
      <trkpt lat="43.5441970" lon="-6.7793970">
        <ele>26.8</ele>
        <time>2021-07-22T12:37:43Z</time>
      </trkpt>
      <trkpt lat="43.5442210" lon="-6.7796030">
        <ele>26.8</ele>
        <time>2021-07-22T12:37:49Z</time>
      </trkpt>
      <trkpt lat="43.5442490" lon="-6.7798280">
        <ele>26.8</ele>
        <time>2021-07-22T12:37:55Z</time>
      </trkpt>
      <trkpt lat="43.5442770" lon="-6.7800490">
        <ele>26.8</ele>
        <time>2021-07-22T12:38:01Z</time>
      </trkpt>
      <trkpt lat="43.5443050" lon="-6.7802880">
        <ele>27.2</ele>
        <time>2021-07-22T12:38:07Z</time>
      </trkpt>
      <trkpt lat="43.5443070" lon="-6.7803220">
        <ele>27.6</ele>
        <time>2021-07-22T12:38:08Z</time>
      </trkpt>
      <trkpt lat="43.5443100" lon="-6.7803550">
        <ele>28.0</ele>
        <time>2021-07-22T12:38:09Z</time>
      </trkpt>
      <trkpt lat="43.5443150" lon="-6.7803880">
        <ele>28.4</ele>
        <time>2021-07-22T12:38:10Z</time>
      </trkpt>
      <trkpt lat="43.5443170" lon="-6.7804240">
        <ele>28.8</ele>
        <time>2021-07-22T12:38:11Z</time>
      </trkpt>
      <trkpt lat="43.5443310" lon="-6.7805180">
        <ele>28.8</ele>
        <time>2021-07-22T12:38:14Z</time>
      </trkpt>
      <trkpt lat="43.5443410" lon="-6.7806800">
        <ele>28.8</ele>
        <time>2021-07-22T12:38:19Z</time>
      </trkpt>
      <trkpt lat="43.5443550" lon="-6.7808020">
        <ele>28.8</ele>
        <time>2021-07-22T12:38:25Z</time>
      </trkpt>
      <trkpt lat="43.5443680" lon="-6.7809210">
        <ele>29.2</ele>
        <time>2021-07-22T12:38:30Z</time>
      </trkpt>
      <trkpt lat="43.5443680" lon="-6.7809430">
        <ele>29.6</ele>
        <time>2021-07-22T12:38:31Z</time>
      </trkpt>
      <trkpt lat="43.5443720" lon="-6.7809570">
        <ele>30.2</ele>
        <time>2021-07-22T12:38:32Z</time>
      </trkpt>
      <trkpt lat="43.5443720" lon="-6.7809560">
        <ele>30.6</ele>
        <time>2021-07-22T12:38:33Z</time>
      </trkpt>
      <trkpt lat="43.5443730" lon="-6.7809870">
        <ele>31.0</ele>
        <time>2021-07-22T12:38:38Z</time>
      </trkpt>
      <trkpt lat="43.5443740" lon="-6.7810090">
        <ele>31.0</ele>
        <time>2021-07-22T12:38:39Z</time>
      </trkpt>
      <trkpt lat="43.5443930" lon="-6.7811700">
        <ele>31.0</ele>
        <time>2021-07-22T12:38:44Z</time>
      </trkpt>
      <trkpt lat="43.5444260" lon="-6.7815080">
        <ele>31.0</ele>
        <time>2021-07-22T12:38:53Z</time>
      </trkpt>
      <trkpt lat="43.5444330" lon="-6.7815900">
        <ele>31.4</ele>
        <time>2021-07-22T12:38:55Z</time>
      </trkpt>
      <trkpt lat="43.5444380" lon="-6.7816300">
        <ele>31.8</ele>
        <time>2021-07-22T12:38:56Z</time>
      </trkpt>
      <trkpt lat="43.5444410" lon="-6.7816720">
        <ele>32.2</ele>
        <time>2021-07-22T12:38:57Z</time>
      </trkpt>
      <trkpt lat="43.5444470" lon="-6.7817150">
        <ele>32.6</ele>
        <time>2021-07-22T12:38:58Z</time>
      </trkpt>
      <trkpt lat="43.5444530" lon="-6.7817610">
        <ele>33.0</ele>
        <time>2021-07-22T12:38:59Z</time>
      </trkpt>
      <trkpt lat="43.5444600" lon="-6.7818430">
        <ele>33.0</ele>
        <time>2021-07-22T12:39:01Z</time>
      </trkpt>
      <trkpt lat="43.5445020" lon="-6.7821730">
        <ele>33.0</ele>
        <time>2021-07-22T12:39:08Z</time>
      </trkpt>
      <trkpt lat="43.5445440" lon="-6.7824920">
        <ele>33.0</ele>
        <time>2021-07-22T12:39:15Z</time>
      </trkpt>
      <trkpt lat="43.5445530" lon="-6.7826010">
        <ele>33.0</ele>
        <time>2021-07-22T12:39:18Z</time>
      </trkpt>
      <trkpt lat="43.5445730" lon="-6.7827260">
        <ele>33.0</ele>
        <time>2021-07-22T12:39:21Z</time>
      </trkpt>
      <trkpt lat="43.5445780" lon="-6.7828750">
        <ele>33.0</ele>
        <time>2021-07-22T12:39:24Z</time>
      </trkpt>
      <trkpt lat="43.5445940" lon="-6.7830320">
        <ele>33.0</ele>
        <time>2021-07-22T12:39:27Z</time>
      </trkpt>
      <trkpt lat="43.5446170" lon="-6.7831870">
        <ele>33.0</ele>
        <time>2021-07-22T12:39:30Z</time>
      </trkpt>
      <trkpt lat="43.5446300" lon="-6.7832880">
        <ele>33.0</ele>
        <time>2021-07-22T12:39:32Z</time>
      </trkpt>
      <trkpt lat="43.5446480" lon="-6.7833950">
        <ele>33.0</ele>
        <time>2021-07-22T12:39:34Z</time>
      </trkpt>
      <trkpt lat="43.5446670" lon="-6.7834950">
        <ele>33.0</ele>
        <time>2021-07-22T12:39:36Z</time>
      </trkpt>
      <trkpt lat="43.5446720" lon="-6.7835500">
        <ele>33.0</ele>
        <time>2021-07-22T12:39:37Z</time>
      </trkpt>
      <trkpt lat="43.5446740" lon="-6.7836650">
        <ele>33.0</ele>
        <time>2021-07-22T12:39:39Z</time>
      </trkpt>
      <trkpt lat="43.5446640" lon="-6.7837780">
        <ele>33.0</ele>
        <time>2021-07-22T12:39:41Z</time>
      </trkpt>
      <trkpt lat="43.5446380" lon="-6.7839210">
        <ele>33.0</ele>
        <time>2021-07-22T12:39:44Z</time>
      </trkpt>
      <trkpt lat="43.5445820" lon="-6.7840220">
        <ele>33.0</ele>
        <time>2021-07-22T12:39:47Z</time>
      </trkpt>
      <trkpt lat="43.5444820" lon="-6.7840260">
        <ele>33.0</ele>
        <time>2021-07-22T12:39:50Z</time>
      </trkpt>
      <trkpt lat="43.5444510" lon="-6.7840190">
        <ele>33.0</ele>
        <time>2021-07-22T12:39:51Z</time>
      </trkpt>
      <trkpt lat="43.5443860" lon="-6.7840290">
        <ele>33.0</ele>
        <time>2021-07-22T12:39:54Z</time>
      </trkpt>
      <trkpt lat="43.5443740" lon="-6.7840480">
        <ele>33.0</ele>
        <time>2021-07-22T12:39:55Z</time>
      </trkpt>
      <trkpt lat="43.5443670" lon="-6.7840970">
        <ele>33.0</ele>
        <time>2021-07-22T12:39:57Z</time>
      </trkpt>
      <trkpt lat="43.5443790" lon="-6.7841810">
        <ele>33.0</ele>
        <time>2021-07-22T12:39:59Z</time>
      </trkpt>
      <trkpt lat="43.5443870" lon="-6.7842270">
        <ele>33.0</ele>
        <time>2021-07-22T12:40:00Z</time>
      </trkpt>
      <trkpt lat="43.5443990" lon="-6.7843300">
        <ele>33.0</ele>
        <time>2021-07-22T12:40:02Z</time>
      </trkpt>
      <trkpt lat="43.5444310" lon="-6.7845020">
        <ele>33.0</ele>
        <time>2021-07-22T12:40:05Z</time>
      </trkpt>
      <trkpt lat="43.5444990" lon="-6.7849300">
        <ele>33.0</ele>
        <time>2021-07-22T12:40:12Z</time>
      </trkpt>
      <trkpt lat="43.5445260" lon="-6.7851050">
        <ele>33.0</ele>
        <time>2021-07-22T12:40:15Z</time>
      </trkpt>
      <trkpt lat="43.5445350" lon="-6.7851630">
        <ele>33.0</ele>
        <time>2021-07-22T12:40:16Z</time>
      </trkpt>
      <trkpt lat="43.5445570" lon="-6.7852760">
        <ele>33.0</ele>
        <time>2021-07-22T12:40:18Z</time>
      </trkpt>
      <trkpt lat="43.5445820" lon="-6.7854510">
        <ele>33.0</ele>
        <time>2021-07-22T12:40:21Z</time>
      </trkpt>
      <trkpt lat="43.5445920" lon="-6.7855080">
        <ele>33.0</ele>
        <time>2021-07-22T12:40:22Z</time>
      </trkpt>
      <trkpt lat="43.5446360" lon="-6.7858550">
        <ele>33.0</ele>
        <time>2021-07-22T12:40:28Z</time>
      </trkpt>
      <trkpt lat="43.5446470" lon="-6.7859160">
        <ele>33.0</ele>
        <time>2021-07-22T12:40:29Z</time>
      </trkpt>
      <trkpt lat="43.5447040" lon="-6.7862640">
        <ele>33.0</ele>
        <time>2021-07-22T12:40:34Z</time>
      </trkpt>
      <trkpt lat="43.5447080" lon="-6.7863410">
        <ele>33.0</ele>
        <time>2021-07-22T12:40:35Z</time>
      </trkpt>
      <trkpt lat="43.5447220" lon="-6.7866390">
        <ele>33.0</ele>
        <time>2021-07-22T12:40:39Z</time>
      </trkpt>
      <trkpt lat="43.5447320" lon="-6.7867110">
        <ele>32.6</ele>
        <time>2021-07-22T12:40:40Z</time>
      </trkpt>
      <trkpt lat="43.5447420" lon="-6.7867780">
        <ele>32.2</ele>
        <time>2021-07-22T12:40:41Z</time>
      </trkpt>
      <trkpt lat="43.5447420" lon="-6.7868410">
        <ele>31.6</ele>
        <time>2021-07-22T12:40:42Z</time>
      </trkpt>
      <trkpt lat="43.5447340" lon="-6.7868970">
        <ele>31.2</ele>
        <time>2021-07-22T12:40:43Z</time>
      </trkpt>
      <trkpt lat="43.5447170" lon="-6.7869520">
        <ele>30.8</ele>
        <time>2021-07-22T12:40:44Z</time>
      </trkpt>
      <trkpt lat="43.5446910" lon="-6.7869990">
        <ele>30.8</ele>
        <time>2021-07-22T12:40:45Z</time>
      </trkpt>
      <trkpt lat="43.5445730" lon="-6.7870620">
        <ele>30.8</ele>
        <time>2021-07-22T12:40:48Z</time>
      </trkpt>
      <trkpt lat="43.5445130" lon="-6.7870610">
        <ele>30.8</ele>
        <time>2021-07-22T12:40:50Z</time>
      </trkpt>
      <trkpt lat="43.5444830" lon="-6.7870650">
        <ele>30.8</ele>
        <time>2021-07-22T12:40:51Z</time>
      </trkpt>
      <trkpt lat="43.5444510" lon="-6.7870700">
        <ele>30.8</ele>
        <time>2021-07-22T12:40:52Z</time>
      </trkpt>
      <trkpt lat="43.5444190" lon="-6.7870790">
        <ele>30.8</ele>
        <time>2021-07-22T12:40:53Z</time>
      </trkpt>
      <trkpt lat="43.5443890" lon="-6.7870930">
        <ele>30.8</ele>
        <time>2021-07-22T12:40:54Z</time>
      </trkpt>
      <trkpt lat="43.5443580" lon="-6.7871090">
        <ele>30.8</ele>
        <time>2021-07-22T12:40:55Z</time>
      </trkpt>
      <trkpt lat="43.5443270" lon="-6.7871280">
        <ele>30.8</ele>
        <time>2021-07-22T12:40:56Z</time>
      </trkpt>
      <trkpt lat="43.5442620" lon="-6.7871590">
        <ele>30.8</ele>
        <time>2021-07-22T12:40:58Z</time>
      </trkpt>
      <trkpt lat="43.5442320" lon="-6.7871790">
        <ele>30.8</ele>
        <time>2021-07-22T12:40:59Z</time>
      </trkpt>
      <trkpt lat="43.5441790" lon="-6.7872220">
        <ele>31.2</ele>
        <time>2021-07-22T12:41:01Z</time>
      </trkpt>
      <trkpt lat="43.5441580" lon="-6.7872450">
        <ele>31.6</ele>
        <time>2021-07-22T12:41:02Z</time>
      </trkpt>
      <trkpt lat="43.5441420" lon="-6.7872720">
        <ele>32.0</ele>
        <time>2021-07-22T12:41:03Z</time>
      </trkpt>
      <trkpt lat="43.5441400" lon="-6.7873100">
        <ele>32.4</ele>
        <time>2021-07-22T12:41:04Z</time>
      </trkpt>
      <trkpt lat="43.5441450" lon="-6.7873520">
        <ele>32.8</ele>
        <time>2021-07-22T12:41:05Z</time>
      </trkpt>
      <trkpt lat="43.5441910" lon="-6.7874780">
        <ele>32.8</ele>
        <time>2021-07-22T12:41:08Z</time>
      </trkpt>
      <trkpt lat="43.5443290" lon="-6.7877630">
        <ele>32.8</ele>
        <time>2021-07-22T12:41:13Z</time>
      </trkpt>
      <trkpt lat="43.5443670" lon="-6.7878150">
        <ele>32.8</ele>
        <time>2021-07-22T12:41:14Z</time>
      </trkpt>
      <trkpt lat="43.5444830" lon="-6.7879140">
        <ele>32.8</ele>
        <time>2021-07-22T12:41:17Z</time>
      </trkpt>
      <trkpt lat="43.5445170" lon="-6.7879400">
        <ele>32.4</ele>
        <time>2021-07-22T12:41:18Z</time>
      </trkpt>
      <trkpt lat="43.5445530" lon="-6.7879630">
        <ele>32.0</ele>
        <time>2021-07-22T12:41:19Z</time>
      </trkpt>
      <trkpt lat="43.5445830" lon="-6.7879880">
        <ele>31.6</ele>
        <time>2021-07-22T12:41:20Z</time>
      </trkpt>
      <trkpt lat="43.5446100" lon="-6.7880110">
        <ele>31.2</ele>
        <time>2021-07-22T12:41:21Z</time>
      </trkpt>
      <trkpt lat="43.5446320" lon="-6.7880400">
        <ele>30.8</ele>
        <time>2021-07-22T12:41:22Z</time>
      </trkpt>
      <trkpt lat="43.5446620" lon="-6.7880710">
        <ele>30.8</ele>
        <time>2021-07-22T12:41:23Z</time>
      </trkpt>
      <trkpt lat="43.5446820" lon="-6.7881570">
        <ele>30.2</ele>
        <time>2021-07-22T12:41:25Z</time>
      </trkpt>
      <trkpt lat="43.5446780" lon="-6.7882040">
        <ele>29.8</ele>
        <time>2021-07-22T12:41:26Z</time>
      </trkpt>
      <trkpt lat="43.5446740" lon="-6.7882500">
        <ele>29.4</ele>
        <time>2021-07-22T12:41:27Z</time>
      </trkpt>
      <trkpt lat="43.5446710" lon="-6.7882970">
        <ele>29.0</ele>
        <time>2021-07-22T12:41:28Z</time>
      </trkpt>
      <trkpt lat="43.5446650" lon="-6.7883380">
        <ele>28.6</ele>
        <time>2021-07-22T12:41:29Z</time>
      </trkpt>
      <trkpt lat="43.5446460" lon="-6.7884060">
        <ele>28.6</ele>
        <time>2021-07-22T12:41:31Z</time>
      </trkpt>
      <trkpt lat="43.5446300" lon="-6.7884310">
        <ele>28.6</ele>
        <time>2021-07-22T12:41:32Z</time>
      </trkpt>
      <trkpt lat="43.5446070" lon="-6.7884420">
        <ele>28.2</ele>
        <time>2021-07-22T12:41:33Z</time>
      </trkpt>
      <trkpt lat="43.5445910" lon="-6.7884470">
        <ele>27.8</ele>
        <time>2021-07-22T12:41:34Z</time>
      </trkpt>
      <trkpt lat="43.5445730" lon="-6.7884590">
        <ele>27.4</ele>
        <time>2021-07-22T12:41:35Z</time>
      </trkpt>
      <trkpt lat="43.5445570" lon="-6.7884850">
        <ele>27.0</ele>
        <time>2021-07-22T12:41:36Z</time>
      </trkpt>
      <trkpt lat="43.5445510" lon="-6.7885170">
        <ele>26.6</ele>
        <time>2021-07-22T12:41:37Z</time>
      </trkpt>
      <trkpt lat="43.5445450" lon="-6.7885510">
        <ele>26.6</ele>
        <time>2021-07-22T12:41:38Z</time>
      </trkpt>
      <trkpt lat="43.5445200" lon="-6.7886390">
        <ele>26.6</ele>
        <time>2021-07-22T12:41:41Z</time>
      </trkpt>
      <trkpt lat="43.5445270" lon="-6.7886620">
        <ele>26.6</ele>
        <time>2021-07-22T12:41:42Z</time>
      </trkpt>
      <trkpt lat="43.5445890" lon="-6.7886960">
        <ele>26.6</ele>
        <time>2021-07-22T12:41:45Z</time>
      </trkpt>
      <trkpt lat="43.5446470" lon="-6.7888040">
        <ele>26.6</ele>
        <time>2021-07-22T12:41:48Z</time>
      </trkpt>
      <trkpt lat="43.5446300" lon="-6.7890250">
        <ele>26.6</ele>
        <time>2021-07-22T12:41:52Z</time>
      </trkpt>
      <trkpt lat="43.5446230" lon="-6.7891430">
        <ele>26.6</ele>
        <time>2021-07-22T12:41:54Z</time>
      </trkpt>
      <trkpt lat="43.5446150" lon="-6.7892730">
        <ele>26.2</ele>
        <time>2021-07-22T12:41:56Z</time>
      </trkpt>
      <trkpt lat="43.5446150" lon="-6.7893410">
        <ele>25.8</ele>
        <time>2021-07-22T12:41:57Z</time>
      </trkpt>
      <trkpt lat="43.5446160" lon="-6.7894140">
        <ele>25.4</ele>
        <time>2021-07-22T12:41:58Z</time>
      </trkpt>
      <trkpt lat="43.5446190" lon="-6.7894850">
        <ele>24.8</ele>
        <time>2021-07-22T12:41:59Z</time>
      </trkpt>
      <trkpt lat="43.5446170" lon="-6.7895560">
        <ele>24.4</ele>
        <time>2021-07-22T12:42:00Z</time>
      </trkpt>
      <trkpt lat="43.5446090" lon="-6.7898410">
        <ele>24.4</ele>
        <time>2021-07-22T12:42:04Z</time>
      </trkpt>
      <trkpt lat="43.5446180" lon="-6.7899840">
        <ele>24.0</ele>
        <time>2021-07-22T12:42:06Z</time>
      </trkpt>
      <trkpt lat="43.5446210" lon="-6.7900520">
        <ele>23.6</ele>
        <time>2021-07-22T12:42:07Z</time>
      </trkpt>
      <trkpt lat="43.5446270" lon="-6.7901210">
        <ele>23.2</ele>
        <time>2021-07-22T12:42:08Z</time>
      </trkpt>
      <trkpt lat="43.5446320" lon="-6.7901880">
        <ele>22.8</ele>
        <time>2021-07-22T12:42:09Z</time>
      </trkpt>
      <trkpt lat="43.5446400" lon="-6.7902530">
        <ele>22.4</ele>
        <time>2021-07-22T12:42:10Z</time>
      </trkpt>
      <trkpt lat="43.5446450" lon="-6.7903200">
        <ele>22.4</ele>
        <time>2021-07-22T12:42:11Z</time>
      </trkpt>
      <trkpt lat="43.5446600" lon="-6.7904600">
        <ele>22.0</ele>
        <time>2021-07-22T12:42:13Z</time>
      </trkpt>
      <trkpt lat="43.5446650" lon="-6.7905370">
        <ele>21.4</ele>
        <time>2021-07-22T12:42:14Z</time>
      </trkpt>
      <trkpt lat="43.5446710" lon="-6.7906110">
        <ele>21.0</ele>
        <time>2021-07-22T12:42:15Z</time>
      </trkpt>
      <trkpt lat="43.5446740" lon="-6.7906850">
        <ele>20.6</ele>
        <time>2021-07-22T12:42:16Z</time>
      </trkpt>
      <trkpt lat="43.5446730" lon="-6.7907610">
        <ele>20.2</ele>
        <time>2021-07-22T12:42:17Z</time>
      </trkpt>
      <trkpt lat="43.5446700" lon="-6.7908390">
        <ele>20.2</ele>
        <time>2021-07-22T12:42:18Z</time>
      </trkpt>
      <trkpt lat="43.5446660" lon="-6.7909180">
        <ele>19.4</ele>
        <time>2021-07-22T12:42:19Z</time>
      </trkpt>
      <trkpt lat="43.5446600" lon="-6.7909930">
        <ele>18.8</ele>
        <time>2021-07-22T12:42:20Z</time>
      </trkpt>
      <trkpt lat="43.5446570" lon="-6.7910740">
        <ele>18.4</ele>
        <time>2021-07-22T12:42:21Z</time>
      </trkpt>
      <trkpt lat="43.5446520" lon="-6.7911540">
        <ele>17.8</ele>
        <time>2021-07-22T12:42:22Z</time>
      </trkpt>
      <trkpt lat="43.5446480" lon="-6.7912340">
        <ele>17.4</ele>
        <time>2021-07-22T12:42:23Z</time>
      </trkpt>
      <trkpt lat="43.5446440" lon="-6.7913140">
        <ele>17.0</ele>
        <time>2021-07-22T12:42:24Z</time>
      </trkpt>
      <trkpt lat="43.5446400" lon="-6.7913960">
        <ele>16.6</ele>
        <time>2021-07-22T12:42:25Z</time>
      </trkpt>
      <trkpt lat="43.5446370" lon="-6.7914790">
        <ele>16.2</ele>
        <time>2021-07-22T12:42:26Z</time>
      </trkpt>
      <trkpt lat="43.5446350" lon="-6.7915620">
        <ele>15.8</ele>
        <time>2021-07-22T12:42:27Z</time>
      </trkpt>
      <trkpt lat="43.5446360" lon="-6.7916510">
        <ele>15.4</ele>
        <time>2021-07-22T12:42:28Z</time>
      </trkpt>
      <trkpt lat="43.5446340" lon="-6.7917360">
        <ele>14.8</ele>
        <time>2021-07-22T12:42:29Z</time>
      </trkpt>
      <trkpt lat="43.5446300" lon="-6.7918170">
        <ele>14.4</ele>
        <time>2021-07-22T12:42:30Z</time>
      </trkpt>
      <trkpt lat="43.5446270" lon="-6.7918990">
        <ele>14.0</ele>
        <time>2021-07-22T12:42:31Z</time>
      </trkpt>
      <trkpt lat="43.5446200" lon="-6.7919880">
        <ele>13.6</ele>
        <time>2021-07-22T12:42:32Z</time>
      </trkpt>
      <trkpt lat="43.5446070" lon="-6.7920800">
        <ele>13.6</ele>
        <time>2021-07-22T12:42:33Z</time>
      </trkpt>
      <trkpt lat="43.5445870" lon="-6.7921730">
        <ele>13.2</ele>
        <time>2021-07-22T12:42:34Z</time>
      </trkpt>
      <trkpt lat="43.5445650" lon="-6.7922630">
        <ele>12.6</ele>
        <time>2021-07-22T12:42:35Z</time>
      </trkpt>
      <trkpt lat="43.5445440" lon="-6.7923510">
        <ele>12.2</ele>
        <time>2021-07-22T12:42:36Z</time>
      </trkpt>
      <trkpt lat="43.5445200" lon="-6.7924400">
        <ele>11.6</ele>
        <time>2021-07-22T12:42:37Z</time>
      </trkpt>
      <trkpt lat="43.5444990" lon="-6.7925040">
        <ele>11.2</ele>
        <time>2021-07-22T12:42:38Z</time>
      </trkpt>
      <trkpt lat="43.5444830" lon="-6.7925610">
        <ele>10.6</ele>
        <time>2021-07-22T12:42:39Z</time>
      </trkpt>
      <trkpt lat="43.5444680" lon="-6.7926030">
        <ele>10.0</ele>
        <time>2021-07-22T12:42:40Z</time>
      </trkpt>
      <trkpt lat="43.5444540" lon="-6.7926400">
        <ele>9.4</ele>
        <time>2021-07-22T12:42:41Z</time>
      </trkpt>
      <trkpt lat="43.5444360" lon="-6.7926820">
        <ele>8.6</ele>
        <time>2021-07-22T12:42:42Z</time>
      </trkpt>
      <trkpt lat="43.5444200" lon="-6.7927290">
        <ele>8.0</ele>
        <time>2021-07-22T12:42:43Z</time>
      </trkpt>
      <trkpt lat="43.5444040" lon="-6.7927950">
        <ele>6.6</ele>
        <time>2021-07-22T12:42:44Z</time>
      </trkpt>
      <trkpt lat="43.5443720" lon="-6.7929460">
        <ele>6.2</ele>
        <time>2021-07-22T12:42:46Z</time>
      </trkpt>
      <trkpt lat="43.5443660" lon="-6.7930340">
        <ele>5.8</ele>
        <time>2021-07-22T12:42:47Z</time>
      </trkpt>
      <trkpt lat="43.5443620" lon="-6.7931200">
        <ele>5.4</ele>
        <time>2021-07-22T12:42:48Z</time>
      </trkpt>
      <trkpt lat="43.5443550" lon="-6.7931950">
        <ele>5.0</ele>
        <time>2021-07-22T12:42:49Z</time>
      </trkpt>
      <trkpt lat="43.5443460" lon="-6.7932490">
        <ele>4.6</ele>
        <time>2021-07-22T12:42:50Z</time>
      </trkpt>
      <trkpt lat="43.5443280" lon="-6.7933270">
        <ele>4.2</ele>
        <time>2021-07-22T12:42:52Z</time>
      </trkpt>
      <trkpt lat="43.5443220" lon="-6.7933590">
        <ele>3.6</ele>
        <time>2021-07-22T12:42:53Z</time>
      </trkpt>
      <trkpt lat="43.5443180" lon="-6.7933850">
        <ele>3.2</ele>
        <time>2021-07-22T12:42:54Z</time>
      </trkpt>
      <trkpt lat="43.5443150" lon="-6.7933940">
        <ele>2.8</ele>
        <time>2021-07-22T12:42:55Z</time>
      </trkpt>
      <trkpt lat="43.5443140" lon="-6.7933930">
        <ele>2.4</ele>
        <time>2021-07-22T12:42:56Z</time>
      </trkpt>
      <trkpt lat="43.5443260" lon="-6.7934110">
        <ele>2.4</ele>
        <time>2021-07-22T12:43:36Z</time>
      </trkpt>
      <trkpt lat="43.5443440" lon="-6.7934240">
        <ele>2.4</ele>
        <time>2021-07-22T12:43:37Z</time>
      </trkpt>
      <trkpt lat="43.5444130" lon="-6.7934830">
        <ele>2.4</ele>
        <time>2021-07-22T12:43:40Z</time>
      </trkpt>
      <trkpt lat="43.5444580" lon="-6.7935410">
        <ele>2.4</ele>
        <time>2021-07-22T12:43:42Z</time>
      </trkpt>
      <trkpt lat="43.5445060" lon="-6.7936940">
        <ele>2.4</ele>
        <time>2021-07-22T12:43:45Z</time>
      </trkpt>
      <trkpt lat="43.5445190" lon="-6.7937530">
        <ele>2.4</ele>
        <time>2021-07-22T12:43:46Z</time>
      </trkpt>
      <trkpt lat="43.5445310" lon="-6.7938140">
        <ele>2.0</ele>
        <time>2021-07-22T12:43:47Z</time>
      </trkpt>
      <trkpt lat="43.5445370" lon="-6.7938760">
        <ele>1.6</ele>
        <time>2021-07-22T12:43:48Z</time>
      </trkpt>
      <trkpt lat="43.5445480" lon="-6.7939410">
        <ele>1.2</ele>
        <time>2021-07-22T12:43:49Z</time>
      </trkpt>
      <trkpt lat="43.5445570" lon="-6.7940100">
        <ele>0.8</ele>
        <time>2021-07-22T12:43:50Z</time>
      </trkpt>
      <trkpt lat="43.5445650" lon="-6.7940840">
        <ele>0.4</ele>
        <time>2021-07-22T12:43:51Z</time>
      </trkpt>
      <trkpt lat="43.5445790" lon="-6.7941660">
        <ele>0.4</ele>
        <time>2021-07-22T12:43:52Z</time>
      </trkpt>
      <trkpt lat="43.5446300" lon="-6.7944140">
        <ele>0.4</ele>
        <time>2021-07-22T12:43:55Z</time>
      </trkpt>
      <trkpt lat="43.5446980" lon="-6.7946650">
        <ele>0.4</ele>
        <time>2021-07-22T12:43:58Z</time>
      </trkpt>
      <trkpt lat="43.5447270" lon="-6.7947540">
        <ele>0.0</ele>
        <time>2021-07-22T12:43:59Z</time>
      </trkpt>
      <trkpt lat="43.5447550" lon="-6.7948390">
        <ele>-0.4</ele>
        <time>2021-07-22T12:44:00Z</time>
      </trkpt>
      <trkpt lat="43.5447860" lon="-6.7949230">
        <ele>-0.8</ele>
        <time>2021-07-22T12:44:01Z</time>
      </trkpt>
      <trkpt lat="43.5448190" lon="-6.7950080">
        <ele>-1.2</ele>
        <time>2021-07-22T12:44:02Z</time>
      </trkpt>
      <trkpt lat="43.5448570" lon="-6.7950880">
        <ele>-1.6</ele>
        <time>2021-07-22T12:44:03Z</time>
      </trkpt>
      <trkpt lat="43.5449340" lon="-6.7952420">
        <ele>-1.6</ele>
        <time>2021-07-22T12:44:05Z</time>
      </trkpt>
      <trkpt lat="43.5449750" lon="-6.7953240">
        <ele>-2.0</ele>
        <time>2021-07-22T12:44:06Z</time>
      </trkpt>
      <trkpt lat="43.5450140" lon="-6.7954010">
        <ele>-2.4</ele>
        <time>2021-07-22T12:44:07Z</time>
      </trkpt>
      <trkpt lat="43.5450510" lon="-6.7954740">
        <ele>-2.8</ele>
        <time>2021-07-22T12:44:08Z</time>
      </trkpt>
      <trkpt lat="43.5450850" lon="-6.7955430">
        <ele>-3.4</ele>
        <time>2021-07-22T12:44:09Z</time>
      </trkpt>
      <trkpt lat="43.5451120" lon="-6.7956080">
        <ele>-3.8</ele>
        <time>2021-07-22T12:44:10Z</time>
      </trkpt>
      <trkpt lat="43.5451290" lon="-6.7956680">
        <ele>-3.8</ele>
        <time>2021-07-22T12:44:11Z</time>
      </trkpt>
      <trkpt lat="43.5451360" lon="-6.7958230">
        <ele>-3.8</ele>
        <time>2021-07-22T12:44:14Z</time>
      </trkpt>
      <trkpt lat="43.5451300" lon="-6.7958600">
        <ele>-3.8</ele>
        <time>2021-07-22T12:44:15Z</time>
      </trkpt>
      <trkpt lat="43.5451190" lon="-6.7958940">
        <ele>-3.8</ele>
        <time>2021-07-22T12:44:16Z</time>
      </trkpt>
      <trkpt lat="43.5451080" lon="-6.7959200">
        <ele>-3.8</ele>
        <time>2021-07-22T12:44:17Z</time>
      </trkpt>
      <trkpt lat="43.5450950" lon="-6.7959410">
        <ele>-3.8</ele>
        <time>2021-07-22T12:44:18Z</time>
      </trkpt>
      <trkpt lat="43.5450820" lon="-6.7959620">
        <ele>-3.8</ele>
        <time>2021-07-22T12:44:19Z</time>
      </trkpt>
      <trkpt lat="43.5450700" lon="-6.7959800">
        <ele>-3.2</ele>
        <time>2021-07-22T12:44:20Z</time>
      </trkpt>
      <trkpt lat="43.5450580" lon="-6.7960000">
        <ele>-2.4</ele>
        <time>2021-07-22T12:44:21Z</time>
      </trkpt>
      <trkpt lat="43.5450450" lon="-6.7960150">
        <ele>-2.0</ele>
        <time>2021-07-22T12:44:22Z</time>
      </trkpt>
      <trkpt lat="43.5450320" lon="-6.7960290">
        <ele>-1.6</ele>
        <time>2021-07-22T12:44:23Z</time>
      </trkpt>
      <trkpt lat="43.5450000" lon="-6.7960570">
        <ele>-1.6</ele>
        <time>2021-07-22T12:44:25Z</time>
      </trkpt>
      <trkpt lat="43.5449700" lon="-6.7960850">
        <ele>-1.2</ele>
        <time>2021-07-22T12:44:27Z</time>
      </trkpt>
      <trkpt lat="43.5449560" lon="-6.7960960">
        <ele>-0.8</ele>
        <time>2021-07-22T12:44:28Z</time>
      </trkpt>
      <trkpt lat="43.5449440" lon="-6.7961100">
        <ele>-0.4</ele>
        <time>2021-07-22T12:44:29Z</time>
      </trkpt>
      <trkpt lat="43.5449320" lon="-6.7961260">
        <ele>0.0</ele>
        <time>2021-07-22T12:44:30Z</time>
      </trkpt>
      <trkpt lat="43.5449190" lon="-6.7961390">
        <ele>0.4</ele>
        <time>2021-07-22T12:44:31Z</time>
      </trkpt>
      <trkpt lat="43.5448670" lon="-6.7961870">
        <ele>0.8</ele>
        <time>2021-07-22T12:44:35Z</time>
      </trkpt>
      <trkpt lat="43.5448550" lon="-6.7962000">
        <ele>1.2</ele>
        <time>2021-07-22T12:44:36Z</time>
      </trkpt>
      <trkpt lat="43.5448450" lon="-6.7962190">
        <ele>1.6</ele>
        <time>2021-07-22T12:44:37Z</time>
      </trkpt>
      <trkpt lat="43.5448340" lon="-6.7962350">
        <ele>2.0</ele>
        <time>2021-07-22T12:44:38Z</time>
      </trkpt>
      <trkpt lat="43.5448220" lon="-6.7962500">
        <ele>2.4</ele>
        <time>2021-07-22T12:44:39Z</time>
      </trkpt>
      <trkpt lat="43.5448020" lon="-6.7963120">
        <ele>2.4</ele>
        <time>2021-07-22T12:44:42Z</time>
      </trkpt>
      <trkpt lat="43.5447950" lon="-6.7963280">
        <ele>2.8</ele>
        <time>2021-07-22T12:44:43Z</time>
      </trkpt>
      <trkpt lat="43.5447900" lon="-6.7963460">
        <ele>3.4</ele>
        <time>2021-07-22T12:44:44Z</time>
      </trkpt>
      <trkpt lat="43.5447930" lon="-6.7963670">
        <ele>3.8</ele>
        <time>2021-07-22T12:44:45Z</time>
      </trkpt>
      <trkpt lat="43.5448060" lon="-6.7963860">
        <ele>4.2</ele>
        <time>2021-07-22T12:44:46Z</time>
      </trkpt>
      <trkpt lat="43.5448190" lon="-6.7963950">
        <ele>4.6</ele>
        <time>2021-07-22T12:44:47Z</time>
      </trkpt>
      <trkpt lat="43.5448360" lon="-6.7963980">
        <ele>4.6</ele>
        <time>2021-07-22T12:44:48Z</time>
      </trkpt>
      <trkpt lat="43.5448530" lon="-6.7964040">
        <ele>4.6</ele>
        <time>2021-07-22T12:44:49Z</time>
      </trkpt>
      <trkpt lat="43.5449630" lon="-6.7964790">
        <ele>4.6</ele>
        <time>2021-07-22T12:44:54Z</time>
      </trkpt>
      <trkpt lat="43.5450560" lon="-6.7965510">
        <ele>4.6</ele>
        <time>2021-07-22T12:45:00Z</time>
      </trkpt>
      <trkpt lat="43.5450550" lon="-6.7965510">
        <ele>4.6</ele>
        <time>2021-07-22T12:45:01Z</time>
      </trkpt>
      <trkpt lat="43.5450640" lon="-6.7965520">
        <ele>4.6</ele>
        <time>2021-07-22T12:45:12Z</time>
      </trkpt>
      <trkpt lat="43.5450870" lon="-6.7965630">
        <ele>4.6</ele>
        <time>2021-07-22T12:45:13Z</time>
      </trkpt>
      <trkpt lat="43.5451650" lon="-6.7966740">
        <ele>4.6</ele>
        <time>2021-07-22T12:45:17Z</time>
      </trkpt>
      <trkpt lat="43.5451700" lon="-6.7968430">
        <ele>4.6</ele>
        <time>2021-07-22T12:45:22Z</time>
      </trkpt>
      <trkpt lat="43.5451710" lon="-6.7970610">
        <ele>5.0</ele>
        <time>2021-07-22T12:45:28Z</time>
      </trkpt>
      <trkpt lat="43.5451730" lon="-6.7971010">
        <ele>5.4</ele>
        <time>2021-07-22T12:45:29Z</time>
      </trkpt>
      <trkpt lat="43.5451790" lon="-6.7971400">
        <ele>5.8</ele>
        <time>2021-07-22T12:45:30Z</time>
      </trkpt>
      <trkpt lat="43.5451880" lon="-6.7971820">
        <ele>6.2</ele>
        <time>2021-07-22T12:45:31Z</time>
      </trkpt>
      <trkpt lat="43.5451990" lon="-6.7972210">
        <ele>6.6</ele>
        <time>2021-07-22T12:45:32Z</time>
      </trkpt>
      <trkpt lat="43.5452870" lon="-6.7974000">
        <ele>6.6</ele>
        <time>2021-07-22T12:45:37Z</time>
      </trkpt>
      <trkpt lat="43.5453870" lon="-6.7975880">
        <ele>6.6</ele>
        <time>2021-07-22T12:45:42Z</time>
      </trkpt>
      <trkpt lat="43.5453980" lon="-6.7976350">
        <ele>6.6</ele>
        <time>2021-07-22T12:45:43Z</time>
      </trkpt>
      <trkpt lat="43.5454890" lon="-6.7979390">
        <ele>6.6</ele>
        <time>2021-07-22T12:45:48Z</time>
      </trkpt>
      <trkpt lat="43.5455080" lon="-6.7980070">
        <ele>6.6</ele>
        <time>2021-07-22T12:45:49Z</time>
      </trkpt>
      <trkpt lat="43.5455390" lon="-6.7981180">
        <ele>6.6</ele>
        <time>2021-07-22T12:45:51Z</time>
      </trkpt>
      <trkpt lat="43.5455700" lon="-6.7982100">
        <ele>6.2</ele>
        <time>2021-07-22T12:45:53Z</time>
      </trkpt>
      <trkpt lat="43.5455850" lon="-6.7982390">
        <ele>5.8</ele>
        <time>2021-07-22T12:45:54Z</time>
      </trkpt>
      <trkpt lat="43.5456010" lon="-6.7982580">
        <ele>5.2</ele>
        <time>2021-07-22T12:45:55Z</time>
      </trkpt>
      <trkpt lat="43.5456110" lon="-6.7982820">
        <ele>4.8</ele>
        <time>2021-07-22T12:45:56Z</time>
      </trkpt>
      <trkpt lat="43.5456210" lon="-6.7982920">
        <ele>4.2</ele>
        <time>2021-07-22T12:45:57Z</time>
      </trkpt>
      <trkpt lat="43.5456280" lon="-6.7982990">
        <ele>3.8</ele>
        <time>2021-07-22T12:45:58Z</time>
      </trkpt>
      <trkpt lat="43.5456280" lon="-6.7982980">
        <ele>3.2</ele>
        <time>2021-07-22T12:45:59Z</time>
      </trkpt>
      <trkpt lat="43.5456240" lon="-6.7983290">
        <ele>2.0</ele>
        <time>2021-07-22T12:46:03Z</time>
      </trkpt>
      <trkpt lat="43.5456030" lon="-6.7983930">
        <ele>2.0</ele>
        <time>2021-07-22T12:46:05Z</time>
      </trkpt>
      <trkpt lat="43.5455850" lon="-6.7984570">
        <ele>2.0</ele>
        <time>2021-07-22T12:46:07Z</time>
      </trkpt>
      <trkpt lat="43.5455690" lon="-6.7985630">
        <ele>1.6</ele>
        <time>2021-07-22T12:46:10Z</time>
      </trkpt>
      <trkpt lat="43.5455640" lon="-6.7986010">
        <ele>1.2</ele>
        <time>2021-07-22T12:46:11Z</time>
      </trkpt>
      <trkpt lat="43.5455530" lon="-6.7986380">
        <ele>0.6</ele>
        <time>2021-07-22T12:46:12Z</time>
      </trkpt>
      <trkpt lat="43.5455450" lon="-6.7986800">
        <ele>0.2</ele>
        <time>2021-07-22T12:46:13Z</time>
      </trkpt>
      <trkpt lat="43.5455380" lon="-6.7987240">
        <ele>-0.4</ele>
        <time>2021-07-22T12:46:14Z</time>
      </trkpt>
      <trkpt lat="43.5455380" lon="-6.7987710">
        <ele>-0.8</ele>
        <time>2021-07-22T12:46:15Z</time>
      </trkpt>
      <trkpt lat="43.5455260" lon="-6.7988060">
        <ele>-1.2</ele>
        <time>2021-07-22T12:46:16Z</time>
      </trkpt>
      <trkpt lat="43.5455170" lon="-6.7988420">
        <ele>-1.6</ele>
        <time>2021-07-22T12:46:17Z</time>
      </trkpt>
      <trkpt lat="43.5455040" lon="-6.7988900">
        <ele>-2.0</ele>
        <time>2021-07-22T12:46:18Z</time>
      </trkpt>
      <trkpt lat="43.5454910" lon="-6.7989370">
        <ele>-2.4</ele>
        <time>2021-07-22T12:46:19Z</time>
      </trkpt>
      <trkpt lat="43.5454790" lon="-6.7989860">
        <ele>-3.0</ele>
        <time>2021-07-22T12:46:20Z</time>
      </trkpt>
      <trkpt lat="43.5454680" lon="-6.7990310">
        <ele>-3.4</ele>
        <time>2021-07-22T12:46:21Z</time>
      </trkpt>
      <trkpt lat="43.5454540" lon="-6.7990780">
        <ele>-3.8</ele>
        <time>2021-07-22T12:46:22Z</time>
      </trkpt>
      <trkpt lat="43.5454450" lon="-6.7991210">
        <ele>-4.4</ele>
        <time>2021-07-22T12:46:23Z</time>
      </trkpt>
      <trkpt lat="43.5454340" lon="-6.7991680">
        <ele>-5.0</ele>
        <time>2021-07-22T12:46:24Z</time>
      </trkpt>
      <trkpt lat="43.5454200" lon="-6.7992150">
        <ele>-5.4</ele>
        <time>2021-07-22T12:46:25Z</time>
      </trkpt>
      <trkpt lat="43.5454140" lon="-6.7992670">
        <ele>-6.4</ele>
        <time>2021-07-22T12:46:26Z</time>
      </trkpt>
      <trkpt lat="43.5454080" lon="-6.7993180">
        <ele>-7.0</ele>
        <time>2021-07-22T12:46:27Z</time>
      </trkpt>
      <trkpt lat="43.5454080" lon="-6.7993640">
        <ele>-7.4</ele>
        <time>2021-07-22T12:46:28Z</time>
      </trkpt>
      <trkpt lat="43.5454170" lon="-6.7994160">
        <ele>-7.8</ele>
        <time>2021-07-22T12:46:29Z</time>
      </trkpt>
      <trkpt lat="43.5454320" lon="-6.7994710">
        <ele>-8.2</ele>
        <time>2021-07-22T12:46:30Z</time>
      </trkpt>
      <trkpt lat="43.5454490" lon="-6.7995370">
        <ele>-8.8</ele>
        <time>2021-07-22T12:46:31Z</time>
      </trkpt>
      <trkpt lat="43.5454640" lon="-6.7996950">
        <ele>-9.2</ele>
        <time>2021-07-22T12:46:33Z</time>
      </trkpt>
      <trkpt lat="43.5454680" lon="-6.7997700">
        <ele>-9.6</ele>
        <time>2021-07-22T12:46:34Z</time>
      </trkpt>
      <trkpt lat="43.5454680" lon="-6.7998430">
        <ele>-10.0</ele>
        <time>2021-07-22T12:46:35Z</time>
      </trkpt>
      <trkpt lat="43.5454570" lon="-6.7999220">
        <ele>-10.4</ele>
        <time>2021-07-22T12:46:36Z</time>
      </trkpt>
      <trkpt lat="43.5454460" lon="-6.7999940">
        <ele>-10.8</ele>
        <time>2021-07-22T12:46:37Z</time>
      </trkpt>
      <trkpt lat="43.5454310" lon="-6.8000640">
        <ele>-11.4</ele>
        <time>2021-07-22T12:46:38Z</time>
      </trkpt>
      <trkpt lat="43.5454130" lon="-6.8001270">
        <ele>-11.8</ele>
        <time>2021-07-22T12:46:39Z</time>
      </trkpt>
      <trkpt lat="43.5453840" lon="-6.8001910">
        <ele>-12.4</ele>
        <time>2021-07-22T12:46:40Z</time>
      </trkpt>
      <trkpt lat="43.5453620" lon="-6.8002550">
        <ele>-12.8</ele>
        <time>2021-07-22T12:46:41Z</time>
      </trkpt>
      <trkpt lat="43.5453320" lon="-6.8003640">
        <ele>-13.2</ele>
        <time>2021-07-22T12:46:43Z</time>
      </trkpt>
      <trkpt lat="43.5453220" lon="-6.8004040">
        <ele>-13.6</ele>
        <time>2021-07-22T12:46:44Z</time>
      </trkpt>
      <trkpt lat="43.5453120" lon="-6.8004430">
        <ele>-14.2</ele>
        <time>2021-07-22T12:46:45Z</time>
      </trkpt>
      <trkpt lat="43.5453020" lon="-6.8004870">
        <ele>-14.6</ele>
        <time>2021-07-22T12:46:46Z</time>
      </trkpt>
      <trkpt lat="43.5452930" lon="-6.8005360">
        <ele>-15.0</ele>
        <time>2021-07-22T12:46:47Z</time>
      </trkpt>
      <trkpt lat="43.5452930" lon="-6.8006230">
        <ele>-15.0</ele>
        <time>2021-07-22T12:46:49Z</time>
      </trkpt>
      <trkpt lat="43.5452960" lon="-6.8006570">
        <ele>-15.0</ele>
        <time>2021-07-22T12:46:50Z</time>
      </trkpt>
      <trkpt lat="43.5453060" lon="-6.8007240">
        <ele>-15.0</ele>
        <time>2021-07-22T12:46:52Z</time>
      </trkpt>
      <trkpt lat="43.5453120" lon="-6.8008080">
        <ele>-15.0</ele>
        <time>2021-07-22T12:46:54Z</time>
      </trkpt>
      <trkpt lat="43.5453090" lon="-6.8008700">
        <ele>-15.0</ele>
        <time>2021-07-22T12:46:56Z</time>
      </trkpt>
      <trkpt lat="43.5453120" lon="-6.8008940">
        <ele>-15.0</ele>
        <time>2021-07-22T12:46:57Z</time>
      </trkpt>
      <trkpt lat="43.5453210" lon="-6.8009500">
        <ele>-15.0</ele>
        <time>2021-07-22T12:46:59Z</time>
      </trkpt>
      <trkpt lat="43.5453270" lon="-6.8009960">
        <ele>-15.0</ele>
        <time>2021-07-22T12:47:01Z</time>
      </trkpt>
      <trkpt lat="43.5453360" lon="-6.8010650">
        <ele>-14.6</ele>
        <time>2021-07-22T12:47:04Z</time>
      </trkpt>
      <trkpt lat="43.5453390" lon="-6.8010850">
        <ele>-14.2</ele>
        <time>2021-07-22T12:47:05Z</time>
      </trkpt>
      <trkpt lat="43.5453420" lon="-6.8011060">
        <ele>-13.8</ele>
        <time>2021-07-22T12:47:06Z</time>
      </trkpt>
      <trkpt lat="43.5453460" lon="-6.8011240">
        <ele>-13.4</ele>
        <time>2021-07-22T12:47:07Z</time>
      </trkpt>
      <trkpt lat="43.5453460" lon="-6.8011430">
        <ele>-13.0</ele>
        <time>2021-07-22T12:47:08Z</time>
      </trkpt>
      <trkpt lat="43.5453630" lon="-6.8011860">
        <ele>-13.0</ele>
        <time>2021-07-22T12:47:10Z</time>
      </trkpt>
      <trkpt lat="43.5453680" lon="-6.8012060">
        <ele>-13.0</ele>
        <time>2021-07-22T12:47:11Z</time>
      </trkpt>
      <trkpt lat="43.5453720" lon="-6.8012660">
        <ele>-12.6</ele>
        <time>2021-07-22T12:47:14Z</time>
      </trkpt>
      <trkpt lat="43.5453750" lon="-6.8012850">
        <ele>-12.0</ele>
        <time>2021-07-22T12:47:15Z</time>
      </trkpt>
      <trkpt lat="43.5453770" lon="-6.8013070">
        <ele>-11.2</ele>
        <time>2021-07-22T12:47:16Z</time>
      </trkpt>
      <trkpt lat="43.5453850" lon="-6.8013310">
        <ele>-10.8</ele>
        <time>2021-07-22T12:47:17Z</time>
      </trkpt>
      <trkpt lat="43.5454150" lon="-6.8014040">
        <ele>-10.8</ele>
        <time>2021-07-22T12:47:20Z</time>
      </trkpt>
      <trkpt lat="43.5454410" lon="-6.8014560">
        <ele>-10.4</ele>
        <time>2021-07-22T12:47:23Z</time>
      </trkpt>
      <trkpt lat="43.5454510" lon="-6.8014750">
        <ele>-10.0</ele>
        <time>2021-07-22T12:47:24Z</time>
      </trkpt>
      <trkpt lat="43.5454590" lon="-6.8014950">
        <ele>-9.6</ele>
        <time>2021-07-22T12:47:25Z</time>
      </trkpt>
      <trkpt lat="43.5454700" lon="-6.8015140">
        <ele>-9.0</ele>
        <time>2021-07-22T12:47:26Z</time>
      </trkpt>
      <trkpt lat="43.5454820" lon="-6.8015320">
        <ele>-8.6</ele>
        <time>2021-07-22T12:47:27Z</time>
      </trkpt>
      <trkpt lat="43.5455410" lon="-6.8015940">
        <ele>-8.6</ele>
        <time>2021-07-22T12:47:31Z</time>
      </trkpt>
      <trkpt lat="43.5456050" lon="-6.8016770">
        <ele>-8.2</ele>
        <time>2021-07-22T12:47:36Z</time>
      </trkpt>
      <trkpt lat="43.5456200" lon="-6.8016930">
        <ele>-7.8</ele>
        <time>2021-07-22T12:47:37Z</time>
      </trkpt>
      <trkpt lat="43.5456370" lon="-6.8017110">
        <ele>-7.4</ele>
        <time>2021-07-22T12:47:38Z</time>
      </trkpt>
      <trkpt lat="43.5456530" lon="-6.8017280">
        <ele>-7.0</ele>
        <time>2021-07-22T12:47:39Z</time>
      </trkpt>
      <trkpt lat="43.5456700" lon="-6.8017380">
        <ele>-6.6</ele>
        <time>2021-07-22T12:47:40Z</time>
      </trkpt>
      <trkpt lat="43.5457390" lon="-6.8017700">
        <ele>-6.6</ele>
        <time>2021-07-22T12:47:44Z</time>
      </trkpt>
      <trkpt lat="43.5458360" lon="-6.8018680">
        <ele>-6.6</ele>
        <time>2021-07-22T12:47:49Z</time>
      </trkpt>
      <trkpt lat="43.5459790" lon="-6.8020290">
        <ele>-6.6</ele>
        <time>2021-07-22T12:47:56Z</time>
      </trkpt>
      <trkpt lat="43.5460740" lon="-6.8021520">
        <ele>-6.6</ele>
        <time>2021-07-22T12:48:01Z</time>
      </trkpt>
      <trkpt lat="43.5461040" lon="-6.8022310">
        <ele>-6.6</ele>
        <time>2021-07-22T12:48:03Z</time>
      </trkpt>
      <trkpt lat="43.5461460" lon="-6.8023170">
        <ele>-6.6</ele>
        <time>2021-07-22T12:48:06Z</time>
      </trkpt>
      <trkpt lat="43.5461780" lon="-6.8024020">
        <ele>-6.6</ele>
        <time>2021-07-22T12:48:09Z</time>
      </trkpt>
      <trkpt lat="43.5462300" lon="-6.8025820">
        <ele>-6.6</ele>
        <time>2021-07-22T12:48:14Z</time>
      </trkpt>
      <trkpt lat="43.5462600" lon="-6.8026920">
        <ele>-6.6</ele>
        <time>2021-07-22T12:48:17Z</time>
      </trkpt>
      <trkpt lat="43.5462910" lon="-6.8028000">
        <ele>-6.6</ele>
        <time>2021-07-22T12:48:20Z</time>
      </trkpt>
      <trkpt lat="43.5463410" lon="-6.8029960">
        <ele>-6.6</ele>
        <time>2021-07-22T12:48:26Z</time>
      </trkpt>
      <trkpt lat="43.5463720" lon="-6.8031300">
        <ele>-6.2</ele>
        <time>2021-07-22T12:48:30Z</time>
      </trkpt>
      <trkpt lat="43.5463810" lon="-6.8031630">
        <ele>-5.8</ele>
        <time>2021-07-22T12:48:31Z</time>
      </trkpt>
      <trkpt lat="43.5463890" lon="-6.8031910">
        <ele>-5.4</ele>
        <time>2021-07-22T12:48:32Z</time>
      </trkpt>
      <trkpt lat="43.5463960" lon="-6.8032240">
        <ele>-5.0</ele>
        <time>2021-07-22T12:48:33Z</time>
      </trkpt>
      <trkpt lat="43.5464010" lon="-6.8032550">
        <ele>-4.6</ele>
        <time>2021-07-22T12:48:34Z</time>
      </trkpt>
      <trkpt lat="43.5464380" lon="-6.8034490">
        <ele>-4.6</ele>
        <time>2021-07-22T12:48:40Z</time>
      </trkpt>
      <trkpt lat="43.5464980" lon="-6.8037200">
        <ele>-4.2</ele>
        <time>2021-07-22T12:48:48Z</time>
      </trkpt>
      <trkpt lat="43.5465030" lon="-6.8037560">
        <ele>-3.8</ele>
        <time>2021-07-22T12:48:49Z</time>
      </trkpt>
      <trkpt lat="43.5465090" lon="-6.8037960">
        <ele>-3.4</ele>
        <time>2021-07-22T12:48:50Z</time>
      </trkpt>
      <trkpt lat="43.5465160" lon="-6.8038320">
        <ele>-3.0</ele>
        <time>2021-07-22T12:48:51Z</time>
      </trkpt>
      <trkpt lat="43.5465200" lon="-6.8038680">
        <ele>-2.6</ele>
        <time>2021-07-22T12:48:52Z</time>
      </trkpt>
      <trkpt lat="43.5465410" lon="-6.8039710">
        <ele>-2.6</ele>
        <time>2021-07-22T12:48:55Z</time>
      </trkpt>
      <trkpt lat="43.5465740" lon="-6.8042010">
        <ele>-2.6</ele>
        <time>2021-07-22T12:49:02Z</time>
      </trkpt>
      <trkpt lat="43.5465920" lon="-6.8043060">
        <ele>-2.2</ele>
        <time>2021-07-22T12:49:05Z</time>
      </trkpt>
      <trkpt lat="43.5465980" lon="-6.8043370">
        <ele>-1.8</ele>
        <time>2021-07-22T12:49:06Z</time>
      </trkpt>
      <trkpt lat="43.5466050" lon="-6.8043740">
        <ele>-1.4</ele>
        <time>2021-07-22T12:49:07Z</time>
      </trkpt>
      <trkpt lat="43.5466100" lon="-6.8044070">
        <ele>-1.0</ele>
        <time>2021-07-22T12:49:08Z</time>
      </trkpt>
      <trkpt lat="43.5466060" lon="-6.8044430">
        <ele>-0.6</ele>
        <time>2021-07-22T12:49:09Z</time>
      </trkpt>
      <trkpt lat="43.5466040" lon="-6.8044740">
        <ele>-0.6</ele>
        <time>2021-07-22T12:49:10Z</time>
      </trkpt>
      <trkpt lat="43.5466380" lon="-6.8046720">
        <ele>-0.6</ele>
        <time>2021-07-22T12:49:16Z</time>
      </trkpt>
      <trkpt lat="43.5466760" lon="-6.8048880">
        <ele>-0.6</ele>
        <time>2021-07-22T12:49:21Z</time>
      </trkpt>
      <trkpt lat="43.5467080" lon="-6.8051120">
        <ele>-0.6</ele>
        <time>2021-07-22T12:49:26Z</time>
      </trkpt>
      <trkpt lat="43.5467250" lon="-6.8052360">
        <ele>-0.6</ele>
        <time>2021-07-22T12:49:29Z</time>
      </trkpt>
      <trkpt lat="43.5467510" lon="-6.8053600">
        <ele>-0.2</ele>
        <time>2021-07-22T12:49:32Z</time>
      </trkpt>
      <trkpt lat="43.5467610" lon="-6.8054050">
        <ele>0.2</ele>
        <time>2021-07-22T12:49:33Z</time>
      </trkpt>
      <trkpt lat="43.5467700" lon="-6.8054510">
        <ele>0.6</ele>
        <time>2021-07-22T12:49:34Z</time>
      </trkpt>
      <trkpt lat="43.5467800" lon="-6.8054960">
        <ele>1.0</ele>
        <time>2021-07-22T12:49:35Z</time>
      </trkpt>
      <trkpt lat="43.5467850" lon="-6.8055420">
        <ele>1.4</ele>
        <time>2021-07-22T12:49:36Z</time>
      </trkpt>
      <trkpt lat="43.5468260" lon="-6.8057820">
        <ele>1.4</ele>
        <time>2021-07-22T12:49:41Z</time>
      </trkpt>
      <trkpt lat="43.5468910" lon="-6.8061960">
        <ele>1.4</ele>
        <time>2021-07-22T12:49:49Z</time>
      </trkpt>
      <trkpt lat="43.5469300" lon="-6.8064170">
        <ele>1.4</ele>
        <time>2021-07-22T12:49:54Z</time>
      </trkpt>
      <trkpt lat="43.5469390" lon="-6.8065020">
        <ele>1.4</ele>
        <time>2021-07-22T12:49:56Z</time>
      </trkpt>
      <trkpt lat="43.5469700" lon="-6.8066590">
        <ele>1.4</ele>
        <time>2021-07-22T12:50:00Z</time>
      </trkpt>
      <trkpt lat="43.5469960" lon="-6.8067460">
        <ele>1.4</ele>
        <time>2021-07-22T12:50:03Z</time>
      </trkpt>
      <trkpt lat="43.5470350" lon="-6.8067760">
        <ele>1.4</ele>
        <time>2021-07-22T12:50:05Z</time>
      </trkpt>
      <trkpt lat="43.5470910" lon="-6.8067940">
        <ele>1.4</ele>
        <time>2021-07-22T12:50:07Z</time>
      </trkpt>
      <trkpt lat="43.5472030" lon="-6.8068200">
        <ele>1.4</ele>
        <time>2021-07-22T12:50:10Z</time>
      </trkpt>
      <trkpt lat="43.5473280" lon="-6.8068500">
        <ele>1.4</ele>
        <time>2021-07-22T12:50:13Z</time>
      </trkpt>
      <trkpt lat="43.5474740" lon="-6.8068340">
        <ele>1.0</ele>
        <time>2021-07-22T12:50:17Z</time>
      </trkpt>
      <trkpt lat="43.5474940" lon="-6.8068220">
        <ele>0.6</ele>
        <time>2021-07-22T12:50:18Z</time>
      </trkpt>
      <trkpt lat="43.5475020" lon="-6.8068180">
        <ele>0.2</ele>
        <time>2021-07-22T12:50:19Z</time>
      </trkpt>
      <trkpt lat="43.5474950" lon="-6.8068210">
        <ele>-0.2</ele>
        <time>2021-07-22T12:50:20Z</time>
      </trkpt>
      <trkpt lat="43.5475300" lon="-6.8068330">
        <ele>-0.6</ele>
        <time>2021-07-22T12:50:25Z</time>
      </trkpt>
      <trkpt lat="43.5476140" lon="-6.8069740">
        <ele>-0.6</ele>
        <time>2021-07-22T12:50:30Z</time>
      </trkpt>
      <trkpt lat="43.5476430" lon="-6.8072600">
        <ele>-0.6</ele>
        <time>2021-07-22T12:50:35Z</time>
      </trkpt>
      <trkpt lat="43.5476700" lon="-6.8074620">
        <ele>-0.6</ele>
        <time>2021-07-22T12:50:38Z</time>
      </trkpt>
      <trkpt lat="43.5476950" lon="-6.8076080">
        <ele>-1.0</ele>
        <time>2021-07-22T12:50:40Z</time>
      </trkpt>
      <trkpt lat="43.5477090" lon="-6.8076910">
        <ele>-1.6</ele>
        <time>2021-07-22T12:50:41Z</time>
      </trkpt>
      <trkpt lat="43.5477230" lon="-6.8077730">
        <ele>-2.0</ele>
        <time>2021-07-22T12:50:42Z</time>
      </trkpt>
      <trkpt lat="43.5477330" lon="-6.8078580">
        <ele>-2.4</ele>
        <time>2021-07-22T12:50:43Z</time>
      </trkpt>
      <trkpt lat="43.5477460" lon="-6.8079440">
        <ele>-2.8</ele>
        <time>2021-07-22T12:50:44Z</time>
      </trkpt>
      <trkpt lat="43.5478090" lon="-6.8084150">
        <ele>-3.2</ele>
        <time>2021-07-22T12:50:49Z</time>
      </trkpt>
      <trkpt lat="43.5478230" lon="-6.8085180">
        <ele>-3.6</ele>
        <time>2021-07-22T12:50:50Z</time>
      </trkpt>
      <trkpt lat="43.5478370" lon="-6.8086190">
        <ele>-4.0</ele>
        <time>2021-07-22T12:50:51Z</time>
      </trkpt>
      <trkpt lat="43.5478530" lon="-6.8087240">
        <ele>-4.4</ele>
        <time>2021-07-22T12:50:52Z</time>
      </trkpt>
      <trkpt lat="43.5478670" lon="-6.8088300">
        <ele>-5.0</ele>
        <time>2021-07-22T12:50:53Z</time>
      </trkpt>
      <trkpt lat="43.5478970" lon="-6.8090480">
        <ele>-5.0</ele>
        <time>2021-07-22T12:50:55Z</time>
      </trkpt>
      <trkpt lat="43.5479140" lon="-6.8091610">
        <ele>-5.8</ele>
        <time>2021-07-22T12:50:56Z</time>
      </trkpt>
      <trkpt lat="43.5479280" lon="-6.8092720">
        <ele>-6.2</ele>
        <time>2021-07-22T12:50:57Z</time>
      </trkpt>
      <trkpt lat="43.5479470" lon="-6.8093810">
        <ele>-6.6</ele>
        <time>2021-07-22T12:50:58Z</time>
      </trkpt>
      <trkpt lat="43.5479620" lon="-6.8094880">
        <ele>-7.0</ele>
        <time>2021-07-22T12:50:59Z</time>
      </trkpt>
      <trkpt lat="43.5479780" lon="-6.8096380">
        <ele>-7.4</ele>
        <time>2021-07-22T12:51:01Z</time>
      </trkpt>
      <trkpt lat="43.5479890" lon="-6.8096850">
        <ele>-7.8</ele>
        <time>2021-07-22T12:51:02Z</time>
      </trkpt>
      <trkpt lat="43.5479960" lon="-6.8097210">
        <ele>-8.4</ele>
        <time>2021-07-22T12:51:03Z</time>
      </trkpt>
      <trkpt lat="43.5480010" lon="-6.8097460">
        <ele>-8.8</ele>
        <time>2021-07-22T12:51:04Z</time>
      </trkpt>
      <trkpt lat="43.5480020" lon="-6.8097550">
        <ele>-9.2</ele>
        <time>2021-07-22T12:51:05Z</time>
      </trkpt>
      <trkpt lat="43.5480020" lon="-6.8097540">
        <ele>-9.2</ele>
        <time>2021-07-22T12:51:06Z</time>
      </trkpt>
      <trkpt lat="43.5480060" lon="-6.8097720">
        <ele>-9.2</ele>
        <time>2021-07-22T12:51:11Z</time>
      </trkpt>
      <trkpt lat="43.5480120" lon="-6.8098290">
        <ele>-9.2</ele>
        <time>2021-07-22T12:51:13Z</time>
      </trkpt>
      <trkpt lat="43.5480140" lon="-6.8098720">
        <ele>-9.2</ele>
        <time>2021-07-22T12:51:14Z</time>
      </trkpt>
      <trkpt lat="43.5480290" lon="-6.8099770">
        <ele>-9.2</ele>
        <time>2021-07-22T12:51:16Z</time>
      </trkpt>
      <trkpt lat="43.5480470" lon="-6.8100960">
        <ele>-9.2</ele>
        <time>2021-07-22T12:51:18Z</time>
      </trkpt>
      <trkpt lat="43.5480560" lon="-6.8101580">
        <ele>-9.2</ele>
        <time>2021-07-22T12:51:19Z</time>
      </trkpt>
      <trkpt lat="43.5480960" lon="-6.8104300">
        <ele>-9.2</ele>
        <time>2021-07-22T12:51:25Z</time>
      </trkpt>
      <trkpt lat="43.5481000" lon="-6.8104400">
        <ele>-9.2</ele>
        <time>2021-07-22T12:51:27Z</time>
      </trkpt>
      <trkpt lat="43.5480990" lon="-6.8104970">
        <ele>-9.2</ele>
        <time>2021-07-22T12:52:48Z</time>
      </trkpt>
      <trkpt lat="43.5480990" lon="-6.8105160">
        <ele>-9.2</ele>
        <time>2021-07-22T12:52:49Z</time>
      </trkpt>
      <trkpt lat="43.5481270" lon="-6.8107000">
        <ele>-9.2</ele>
        <time>2021-07-22T12:52:54Z</time>
      </trkpt>
      <trkpt lat="43.5481580" lon="-6.8108620">
        <ele>-9.2</ele>
        <time>2021-07-22T12:52:57Z</time>
      </trkpt>
      <trkpt lat="43.5481720" lon="-6.8109770">
        <ele>-9.2</ele>
        <time>2021-07-22T12:52:59Z</time>
      </trkpt>
      <trkpt lat="43.5481770" lon="-6.8110360">
        <ele>-9.2</ele>
        <time>2021-07-22T12:53:00Z</time>
      </trkpt>
      <trkpt lat="43.5482030" lon="-6.8111940">
        <ele>-9.2</ele>
        <time>2021-07-22T12:53:03Z</time>
      </trkpt>
      <trkpt lat="43.5482270" lon="-6.8113560">
        <ele>-9.2</ele>
        <time>2021-07-22T12:53:06Z</time>
      </trkpt>
      <trkpt lat="43.5482430" lon="-6.8115050">
        <ele>-9.2</ele>
        <time>2021-07-22T12:53:09Z</time>
      </trkpt>
      <trkpt lat="43.5482510" lon="-6.8115550">
        <ele>-8.8</ele>
        <time>2021-07-22T12:53:10Z</time>
      </trkpt>
      <trkpt lat="43.5482620" lon="-6.8116060">
        <ele>-8.4</ele>
        <time>2021-07-22T12:53:11Z</time>
      </trkpt>
      <trkpt lat="43.5482680" lon="-6.8116570">
        <ele>-8.0</ele>
        <time>2021-07-22T12:53:12Z</time>
      </trkpt>
      <trkpt lat="43.5482740" lon="-6.8117090">
        <ele>-7.6</ele>
        <time>2021-07-22T12:53:13Z</time>
      </trkpt>
      <trkpt lat="43.5482830" lon="-6.8117590">
        <ele>-7.0</ele>
        <time>2021-07-22T12:53:14Z</time>
      </trkpt>
      <trkpt lat="43.5483060" lon="-6.8119110">
        <ele>-7.0</ele>
        <time>2021-07-22T12:53:17Z</time>
      </trkpt>
      <trkpt lat="43.5483240" lon="-6.8120640">
        <ele>-7.0</ele>
        <time>2021-07-22T12:53:20Z</time>
      </trkpt>
      <trkpt lat="43.5483530" lon="-6.8122690">
        <ele>-6.6</ele>
        <time>2021-07-22T12:53:24Z</time>
      </trkpt>
      <trkpt lat="43.5483600" lon="-6.8123220">
        <ele>-6.2</ele>
        <time>2021-07-22T12:53:25Z</time>
      </trkpt>
      <trkpt lat="43.5483670" lon="-6.8123760">
        <ele>-5.8</ele>
        <time>2021-07-22T12:53:26Z</time>
      </trkpt>
      <trkpt lat="43.5483750" lon="-6.8124250">
        <ele>-5.4</ele>
        <time>2021-07-22T12:53:27Z</time>
      </trkpt>
      <trkpt lat="43.5483810" lon="-6.8124730">
        <ele>-5.0</ele>
        <time>2021-07-22T12:53:28Z</time>
      </trkpt>
      <trkpt lat="43.5484330" lon="-6.8128420">
        <ele>-5.0</ele>
        <time>2021-07-22T12:53:35Z</time>
      </trkpt>
      <trkpt lat="43.5484690" lon="-6.8131100">
        <ele>-5.0</ele>
        <time>2021-07-22T12:53:40Z</time>
      </trkpt>
      <trkpt lat="43.5484900" lon="-6.8132750">
        <ele>-5.0</ele>
        <time>2021-07-22T12:53:43Z</time>
      </trkpt>
      <trkpt lat="43.5485500" lon="-6.8137370">
        <ele>-5.0</ele>
        <time>2021-07-22T12:53:51Z</time>
      </trkpt>
      <trkpt lat="43.5485590" lon="-6.8137940">
        <ele>-5.0</ele>
        <time>2021-07-22T12:53:52Z</time>
      </trkpt>
      <trkpt lat="43.5485910" lon="-6.8140330">
        <ele>-5.0</ele>
        <time>2021-07-22T12:53:56Z</time>
      </trkpt>
      <trkpt lat="43.5486180" lon="-6.8142020">
        <ele>-5.0</ele>
        <time>2021-07-22T12:53:59Z</time>
      </trkpt>
      <trkpt lat="43.5486370" lon="-6.8143100">
        <ele>-5.0</ele>
        <time>2021-07-22T12:54:01Z</time>
      </trkpt>
      <trkpt lat="43.5486420" lon="-6.8143600">
        <ele>-5.0</ele>
        <time>2021-07-22T12:54:02Z</time>
      </trkpt>
      <trkpt lat="43.5486470" lon="-6.8144010">
        <ele>-5.0</ele>
        <time>2021-07-22T12:54:03Z</time>
      </trkpt>
      <trkpt lat="43.5486400" lon="-6.8144920">
        <ele>-5.0</ele>
        <time>2021-07-22T12:54:05Z</time>
      </trkpt>
      <trkpt lat="43.5486160" lon="-6.8145240">
        <ele>-5.0</ele>
        <time>2021-07-22T12:54:06Z</time>
      </trkpt>
      <trkpt lat="43.5485920" lon="-6.8145470">
        <ele>-5.0</ele>
        <time>2021-07-22T12:54:07Z</time>
      </trkpt>
      <trkpt lat="43.5485670" lon="-6.8145790">
        <ele>-5.0</ele>
        <time>2021-07-22T12:54:08Z</time>
      </trkpt>
      <trkpt lat="43.5485480" lon="-6.8146140">
        <ele>-5.0</ele>
        <time>2021-07-22T12:54:09Z</time>
      </trkpt>
      <trkpt lat="43.5485430" lon="-6.8146580">
        <ele>-5.0</ele>
        <time>2021-07-22T12:54:10Z</time>
      </trkpt>
      <trkpt lat="43.5485440" lon="-6.8147050">
        <ele>-5.0</ele>
        <time>2021-07-22T12:54:11Z</time>
      </trkpt>
      <trkpt lat="43.5485540" lon="-6.8148700">
        <ele>-5.0</ele>
        <time>2021-07-22T12:54:14Z</time>
      </trkpt>
      <trkpt lat="43.5485510" lon="-6.8151200">
        <ele>-5.0</ele>
        <time>2021-07-22T12:54:18Z</time>
      </trkpt>
      <trkpt lat="43.5485540" lon="-6.8152390">
        <ele>-5.4</ele>
        <time>2021-07-22T12:54:20Z</time>
      </trkpt>
      <trkpt lat="43.5485490" lon="-6.8152990">
        <ele>-5.8</ele>
        <time>2021-07-22T12:54:21Z</time>
      </trkpt>
      <trkpt lat="43.5485440" lon="-6.8153620">
        <ele>-6.2</ele>
        <time>2021-07-22T12:54:22Z</time>
      </trkpt>
      <trkpt lat="43.5485420" lon="-6.8154200">
        <ele>-6.6</ele>
        <time>2021-07-22T12:54:23Z</time>
      </trkpt>
      <trkpt lat="43.5485390" lon="-6.8154810">
        <ele>-7.0</ele>
        <time>2021-07-22T12:54:24Z</time>
      </trkpt>
      <trkpt lat="43.5485270" lon="-6.8155980">
        <ele>-7.0</ele>
        <time>2021-07-22T12:54:26Z</time>
      </trkpt>
      <trkpt lat="43.5485040" lon="-6.8160880">
        <ele>-7.0</ele>
        <time>2021-07-22T12:54:34Z</time>
      </trkpt>
      <trkpt lat="43.5485020" lon="-6.8162730">
        <ele>-7.0</ele>
        <time>2021-07-22T12:54:37Z</time>
      </trkpt>
      <trkpt lat="43.5485010" lon="-6.8163770">
        <ele>-7.4</ele>
        <time>2021-07-22T12:54:39Z</time>
      </trkpt>
      <trkpt lat="43.5484970" lon="-6.8164280">
        <ele>-7.8</ele>
        <time>2021-07-22T12:54:40Z</time>
      </trkpt>
      <trkpt lat="43.5484900" lon="-6.8164780">
        <ele>-8.2</ele>
        <time>2021-07-22T12:54:41Z</time>
      </trkpt>
      <trkpt lat="43.5484820" lon="-6.8165270">
        <ele>-8.8</ele>
        <time>2021-07-22T12:54:42Z</time>
      </trkpt>
      <trkpt lat="43.5484650" lon="-6.8165870">
        <ele>-9.2</ele>
        <time>2021-07-22T12:54:43Z</time>
      </trkpt>
      <trkpt lat="43.5484500" lon="-6.8166420">
        <ele>-9.2</ele>
        <time>2021-07-22T12:54:44Z</time>
      </trkpt>
      <trkpt lat="43.5484260" lon="-6.8167560">
        <ele>-9.2</ele>
        <time>2021-07-22T12:54:46Z</time>
      </trkpt>
      <trkpt lat="43.5484150" lon="-6.8168790">
        <ele>-9.2</ele>
        <time>2021-07-22T12:54:48Z</time>
      </trkpt>
      <trkpt lat="43.5484220" lon="-6.8169980">
        <ele>-9.2</ele>
        <time>2021-07-22T12:54:50Z</time>
      </trkpt>
      <trkpt lat="43.5484390" lon="-6.8172300">
        <ele>-9.2</ele>
        <time>2021-07-22T12:54:54Z</time>
      </trkpt>
      <trkpt lat="43.5484430" lon="-6.8173540">
        <ele>-9.2</ele>
        <time>2021-07-22T12:54:56Z</time>
      </trkpt>
      <trkpt lat="43.5484430" lon="-6.8174680">
        <ele>-9.2</ele>
        <time>2021-07-22T12:54:58Z</time>
      </trkpt>
      <trkpt lat="43.5484420" lon="-6.8175230">
        <ele>-9.2</ele>
        <time>2021-07-22T12:54:59Z</time>
      </trkpt>
      <trkpt lat="43.5484390" lon="-6.8175760">
        <ele>-9.2</ele>
        <time>2021-07-22T12:55:00Z</time>
      </trkpt>
      <trkpt lat="43.5484350" lon="-6.8176870">
        <ele>-9.2</ele>
        <time>2021-07-22T12:55:02Z</time>
      </trkpt>
      <trkpt lat="43.5484400" lon="-6.8177790">
        <ele>-9.2</ele>
        <time>2021-07-22T12:55:04Z</time>
      </trkpt>
      <trkpt lat="43.5484420" lon="-6.8178220">
        <ele>-9.2</ele>
        <time>2021-07-22T12:55:05Z</time>
      </trkpt>
      <trkpt lat="43.5484310" lon="-6.8181610">
        <ele>-9.2</ele>
        <time>2021-07-22T12:55:13Z</time>
      </trkpt>
      <trkpt lat="43.5484250" lon="-6.8182080">
        <ele>-9.2</ele>
        <time>2021-07-22T12:55:14Z</time>
      </trkpt>
      <trkpt lat="43.5484030" lon="-6.8184000">
        <ele>-9.2</ele>
        <time>2021-07-22T12:55:18Z</time>
      </trkpt>
      <trkpt lat="43.5483880" lon="-6.8184980">
        <ele>-9.2</ele>
        <time>2021-07-22T12:55:20Z</time>
      </trkpt>
      <trkpt lat="43.5482990" lon="-6.8189700">
        <ele>-9.2</ele>
        <time>2021-07-22T12:55:29Z</time>
      </trkpt>
      <trkpt lat="43.5481980" lon="-6.8193420">
        <ele>-9.2</ele>
        <time>2021-07-22T12:55:35Z</time>
      </trkpt>
      <trkpt lat="43.5481790" lon="-6.8194020">
        <ele>-9.2</ele>
        <time>2021-07-22T12:55:36Z</time>
      </trkpt>
      <trkpt lat="43.5481340" lon="-6.8195120">
        <ele>-9.2</ele>
        <time>2021-07-22T12:55:38Z</time>
      </trkpt>
      <trkpt lat="43.5480900" lon="-6.8196140">
        <ele>-9.2</ele>
        <time>2021-07-22T12:55:40Z</time>
      </trkpt>
      <trkpt lat="43.5480500" lon="-6.8197140">
        <ele>-9.2</ele>
        <time>2021-07-22T12:55:42Z</time>
      </trkpt>
      <trkpt lat="43.5479860" lon="-6.8198590">
        <ele>-9.2</ele>
        <time>2021-07-22T12:55:45Z</time>
      </trkpt>
      <trkpt lat="43.5479440" lon="-6.8199570">
        <ele>-9.2</ele>
        <time>2021-07-22T12:55:47Z</time>
      </trkpt>
      <trkpt lat="43.5479010" lon="-6.8200600">
        <ele>-9.2</ele>
        <time>2021-07-22T12:55:49Z</time>
      </trkpt>
      <trkpt lat="43.5478080" lon="-6.8203040">
        <ele>-9.2</ele>
        <time>2021-07-22T12:55:54Z</time>
      </trkpt>
      <trkpt lat="43.5477930" lon="-6.8203540">
        <ele>-9.2</ele>
        <time>2021-07-22T12:55:55Z</time>
      </trkpt>
      <trkpt lat="43.5477580" lon="-6.8204940">
        <ele>-9.2</ele>
        <time>2021-07-22T12:55:58Z</time>
      </trkpt>
      <trkpt lat="43.5477100" lon="-6.8206290">
        <ele>-9.2</ele>
        <time>2021-07-22T12:56:01Z</time>
      </trkpt>
      <trkpt lat="43.5476690" lon="-6.8207700">
        <ele>-8.8</ele>
        <time>2021-07-22T12:56:04Z</time>
      </trkpt>
      <trkpt lat="43.5476600" lon="-6.8208150">
        <ele>-8.4</ele>
        <time>2021-07-22T12:56:05Z</time>
      </trkpt>
      <trkpt lat="43.5476500" lon="-6.8208620">
        <ele>-7.8</ele>
        <time>2021-07-22T12:56:06Z</time>
      </trkpt>
      <trkpt lat="43.5476400" lon="-6.8209080">
        <ele>-7.4</ele>
        <time>2021-07-22T12:56:07Z</time>
      </trkpt>
      <trkpt lat="43.5476310" lon="-6.8209560">
        <ele>-7.0</ele>
        <time>2021-07-22T12:56:08Z</time>
      </trkpt>
      <trkpt lat="43.5476110" lon="-6.8212650">
        <ele>-7.0</ele>
        <time>2021-07-22T12:56:14Z</time>
      </trkpt>
      <trkpt lat="43.5476320" lon="-6.8215490">
        <ele>-7.0</ele>
        <time>2021-07-22T12:56:20Z</time>
      </trkpt>
      <trkpt lat="43.5477230" lon="-6.8218240">
        <ele>-7.0</ele>
        <time>2021-07-22T12:56:26Z</time>
      </trkpt>
      <trkpt lat="43.5477450" lon="-6.8220490">
        <ele>-7.0</ele>
        <time>2021-07-22T12:56:31Z</time>
      </trkpt>
      <trkpt lat="43.5477160" lon="-6.8221820">
        <ele>-7.0</ele>
        <time>2021-07-22T12:56:35Z</time>
      </trkpt>
      <trkpt lat="43.5477170" lon="-6.8222100">
        <ele>-7.0</ele>
        <time>2021-07-22T12:56:36Z</time>
      </trkpt>
      <trkpt lat="43.5477230" lon="-6.8222360">
        <ele>-7.0</ele>
        <time>2021-07-22T12:56:37Z</time>
      </trkpt>
      <trkpt lat="43.5477960" lon="-6.8222860">
        <ele>-6.6</ele>
        <time>2021-07-22T12:56:40Z</time>
      </trkpt>
      <trkpt lat="43.5478270" lon="-6.8223060">
        <ele>-5.8</ele>
        <time>2021-07-22T12:56:41Z</time>
      </trkpt>
      <trkpt lat="43.5478590" lon="-6.8223260">
        <ele>-5.4</ele>
        <time>2021-07-22T12:56:42Z</time>
      </trkpt>
      <trkpt lat="43.5478940" lon="-6.8223460">
        <ele>-4.8</ele>
        <time>2021-07-22T12:56:43Z</time>
      </trkpt>
      <trkpt lat="43.5480060" lon="-6.8224160">
        <ele>-4.8</ele>
        <time>2021-07-22T12:56:46Z</time>
      </trkpt>
      <trkpt lat="43.5481180" lon="-6.8224800">
        <ele>-4.8</ele>
        <time>2021-07-22T12:56:49Z</time>
      </trkpt>
      <trkpt lat="43.5482360" lon="-6.8225030">
        <ele>-4.8</ele>
        <time>2021-07-22T12:56:52Z</time>
      </trkpt>
      <trkpt lat="43.5485100" lon="-6.8225020">
        <ele>-4.8</ele>
        <time>2021-07-22T12:56:59Z</time>
      </trkpt>
      <trkpt lat="43.5485490" lon="-6.8225090">
        <ele>-4.8</ele>
        <time>2021-07-22T12:57:00Z</time>
      </trkpt>
      <trkpt lat="43.5486280" lon="-6.8225270">
        <ele>-4.8</ele>
        <time>2021-07-22T12:57:02Z</time>
      </trkpt>
      <trkpt lat="43.5487460" lon="-6.8225570">
        <ele>-4.8</ele>
        <time>2021-07-22T12:57:05Z</time>
      </trkpt>
      <trkpt lat="43.5489440" lon="-6.8226120">
        <ele>-4.8</ele>
        <time>2021-07-22T12:57:10Z</time>
      </trkpt>
      <trkpt lat="43.5489820" lon="-6.8226230">
        <ele>-4.8</ele>
        <time>2021-07-22T12:57:11Z</time>
      </trkpt>
      <trkpt lat="43.5490430" lon="-6.8226350">
        <ele>-5.4</ele>
        <time>2021-07-22T12:57:13Z</time>
      </trkpt>
      <trkpt lat="43.5490710" lon="-6.8226390">
        <ele>-5.8</ele>
        <time>2021-07-22T12:57:14Z</time>
      </trkpt>
      <trkpt lat="43.5490950" lon="-6.8226440">
        <ele>-6.2</ele>
        <time>2021-07-22T12:57:15Z</time>
      </trkpt>
      <trkpt lat="43.5491140" lon="-6.8226520">
        <ele>-6.8</ele>
        <time>2021-07-22T12:57:16Z</time>
      </trkpt>
      <trkpt lat="43.5491300" lon="-6.8226570">
        <ele>-7.2</ele>
        <time>2021-07-22T12:57:17Z</time>
      </trkpt>
      <trkpt lat="43.5491400" lon="-6.8226620">
        <ele>-7.2</ele>
        <time>2021-07-22T12:57:19Z</time>
      </trkpt>
      <trkpt lat="43.5491410" lon="-6.8226630">
        <ele>-7.6</ele>
        <time>2021-07-22T12:57:25Z</time>
      </trkpt>
      <trkpt lat="43.5491540" lon="-6.8226760">
        <ele>-8.0</ele>
        <time>2021-07-22T12:57:26Z</time>
      </trkpt>
      <trkpt lat="43.5491690" lon="-6.8226930">
        <ele>-8.4</ele>
        <time>2021-07-22T12:57:27Z</time>
      </trkpt>
      <trkpt lat="43.5491790" lon="-6.8227160">
        <ele>-8.8</ele>
        <time>2021-07-22T12:57:28Z</time>
      </trkpt>
      <trkpt lat="43.5491860" lon="-6.8227490">
        <ele>-9.2</ele>
        <time>2021-07-22T12:57:29Z</time>
      </trkpt>
      <trkpt lat="43.5491860" lon="-6.8228320">
        <ele>-9.2</ele>
        <time>2021-07-22T12:57:31Z</time>
      </trkpt>
      <trkpt lat="43.5491800" lon="-6.8228760">
        <ele>-9.2</ele>
        <time>2021-07-22T12:57:32Z</time>
      </trkpt>
      <trkpt lat="43.5491610" lon="-6.8229660">
        <ele>-9.2</ele>
        <time>2021-07-22T12:57:34Z</time>
      </trkpt>
      <trkpt lat="43.5491200" lon="-6.8231590">
        <ele>-9.2</ele>
        <time>2021-07-22T12:57:38Z</time>
      </trkpt>
      <trkpt lat="43.5490760" lon="-6.8233370">
        <ele>-9.2</ele>
        <time>2021-07-22T12:57:42Z</time>
      </trkpt>
      <trkpt lat="43.5490540" lon="-6.8234140">
        <ele>-9.2</ele>
        <time>2021-07-22T12:57:44Z</time>
      </trkpt>
      <trkpt lat="43.5490340" lon="-6.8234800">
        <ele>-9.2</ele>
        <time>2021-07-22T12:57:46Z</time>
      </trkpt>
      <trkpt lat="43.5490050" lon="-6.8235940">
        <ele>-9.2</ele>
        <time>2021-07-22T12:57:51Z</time>
      </trkpt>
      <trkpt lat="43.5490300" lon="-6.8236630">
        <ele>-9.2</ele>
        <time>2021-07-22T12:59:27Z</time>
      </trkpt>
      <trkpt lat="43.5490260" lon="-6.8237290">
        <ele>-9.2</ele>
        <time>2021-07-22T12:59:30Z</time>
      </trkpt>
      <trkpt lat="43.5490290" lon="-6.8237540">
        <ele>-9.2</ele>
        <time>2021-07-22T12:59:31Z</time>
      </trkpt>
      <trkpt lat="43.5490650" lon="-6.8238770">
        <ele>-9.2</ele>
        <time>2021-07-22T12:59:35Z</time>
      </trkpt>
      <trkpt lat="43.5490770" lon="-6.8239110">
        <ele>-9.2</ele>
        <time>2021-07-22T12:59:36Z</time>
      </trkpt>
      <trkpt lat="43.5490940" lon="-6.8239440">
        <ele>-9.6</ele>
        <time>2021-07-22T12:59:37Z</time>
      </trkpt>
      <trkpt lat="43.5491100" lon="-6.8239700">
        <ele>-10.0</ele>
        <time>2021-07-22T12:59:38Z</time>
      </trkpt>
      <trkpt lat="43.5491260" lon="-6.8239860">
        <ele>-10.4</ele>
        <time>2021-07-22T12:59:39Z</time>
      </trkpt>
      <trkpt lat="43.5491390" lon="-6.8240000">
        <ele>-10.8</ele>
        <time>2021-07-22T12:59:40Z</time>
      </trkpt>
      <trkpt lat="43.5491530" lon="-6.8240160">
        <ele>-11.2</ele>
        <time>2021-07-22T12:59:41Z</time>
      </trkpt>
      <trkpt lat="43.5492220" lon="-6.8241150">
        <ele>-11.2</ele>
        <time>2021-07-22T12:59:45Z</time>
      </trkpt>
      <trkpt lat="43.5492360" lon="-6.8241510">
        <ele>-11.2</ele>
        <time>2021-07-22T12:59:46Z</time>
      </trkpt>
      <trkpt lat="43.5492710" lon="-6.8242640">
        <ele>-11.8</ele>
        <time>2021-07-22T12:59:49Z</time>
      </trkpt>
      <trkpt lat="43.5492840" lon="-6.8243030">
        <ele>-12.2</ele>
        <time>2021-07-22T12:59:50Z</time>
      </trkpt>
      <trkpt lat="43.5492960" lon="-6.8243410">
        <ele>-12.6</ele>
        <time>2021-07-22T12:59:51Z</time>
      </trkpt>
      <trkpt lat="43.5493050" lon="-6.8243760">
        <ele>-13.0</ele>
        <time>2021-07-22T12:59:52Z</time>
      </trkpt>
      <trkpt lat="43.5493120" lon="-6.8244070">
        <ele>-13.4</ele>
        <time>2021-07-22T12:59:53Z</time>
      </trkpt>
      <trkpt lat="43.5493280" lon="-6.8244610">
        <ele>-13.4</ele>
        <time>2021-07-22T12:59:55Z</time>
      </trkpt>
      <trkpt lat="43.5493770" lon="-6.8245990">
        <ele>-13.4</ele>
        <time>2021-07-22T12:59:59Z</time>
      </trkpt>
      <trkpt lat="43.5493930" lon="-6.8246570">
        <ele>-13.8</ele>
        <time>2021-07-22T13:00:01Z</time>
      </trkpt>
      <trkpt lat="43.5493960" lon="-6.8246840">
        <ele>-14.2</ele>
        <time>2021-07-22T13:00:02Z</time>
      </trkpt>
      <trkpt lat="43.5493950" lon="-6.8247190">
        <ele>-14.6</ele>
        <time>2021-07-22T13:00:03Z</time>
      </trkpt>
      <trkpt lat="43.5493910" lon="-6.8247650">
        <ele>-15.0</ele>
        <time>2021-07-22T13:00:04Z</time>
      </trkpt>
      <trkpt lat="43.5493840" lon="-6.8248170">
        <ele>-15.4</ele>
        <time>2021-07-22T13:00:05Z</time>
      </trkpt>
      <trkpt lat="43.5493840" lon="-6.8251580">
        <ele>-15.8</ele>
        <time>2021-07-22T13:00:11Z</time>
      </trkpt>
      <trkpt lat="43.5493860" lon="-6.8251950">
        <ele>-16.2</ele>
        <time>2021-07-22T13:00:12Z</time>
      </trkpt>
      <trkpt lat="43.5493900" lon="-6.8252250">
        <ele>-16.8</ele>
        <time>2021-07-22T13:00:13Z</time>
      </trkpt>
      <trkpt lat="43.5493890" lon="-6.8252430">
        <ele>-17.2</ele>
        <time>2021-07-22T13:00:14Z</time>
      </trkpt>
      <trkpt lat="43.5493870" lon="-6.8252480">
        <ele>-17.6</ele>
        <time>2021-07-22T13:00:15Z</time>
      </trkpt>
      <trkpt lat="43.5493880" lon="-6.8252630">
        <ele>-17.6</ele>
        <time>2021-07-22T13:00:22Z</time>
      </trkpt>
      <trkpt lat="43.5493910" lon="-6.8252870">
        <ele>-17.6</ele>
        <time>2021-07-22T13:00:23Z</time>
      </trkpt>
      <trkpt lat="43.5493960" lon="-6.8253150">
        <ele>-17.6</ele>
        <time>2021-07-22T13:00:24Z</time>
      </trkpt>
      <trkpt lat="43.5494150" lon="-6.8253800">
        <ele>-17.6</ele>
        <time>2021-07-22T13:00:26Z</time>
      </trkpt>
      <trkpt lat="43.5494680" lon="-6.8255120">
        <ele>-18.0</ele>
        <time>2021-07-22T13:00:29Z</time>
      </trkpt>
      <trkpt lat="43.5494890" lon="-6.8255550">
        <ele>-18.4</ele>
        <time>2021-07-22T13:00:30Z</time>
      </trkpt>
      <trkpt lat="43.5495100" lon="-6.8255980">
        <ele>-19.0</ele>
        <time>2021-07-22T13:00:31Z</time>
      </trkpt>
      <trkpt lat="43.5495330" lon="-6.8256350">
        <ele>-19.4</ele>
        <time>2021-07-22T13:00:32Z</time>
      </trkpt>
      <trkpt lat="43.5495560" lon="-6.8256670">
        <ele>-19.8</ele>
        <time>2021-07-22T13:00:33Z</time>
      </trkpt>
      <trkpt lat="43.5495930" lon="-6.8257300">
        <ele>-20.2</ele>
        <time>2021-07-22T13:00:35Z</time>
      </trkpt>
      <trkpt lat="43.5496080" lon="-6.8257580">
        <ele>-20.8</ele>
        <time>2021-07-22T13:00:36Z</time>
      </trkpt>
      <trkpt lat="43.5496220" lon="-6.8257890">
        <ele>-21.2</ele>
        <time>2021-07-22T13:00:37Z</time>
      </trkpt>
      <trkpt lat="43.5496330" lon="-6.8258250">
        <ele>-21.6</ele>
        <time>2021-07-22T13:00:38Z</time>
      </trkpt>
      <trkpt lat="43.5496460" lon="-6.8258570">
        <ele>-22.0</ele>
        <time>2021-07-22T13:00:39Z</time>
      </trkpt>
      <trkpt lat="43.5496880" lon="-6.8258980">
        <ele>-22.0</ele>
        <time>2021-07-22T13:00:41Z</time>
      </trkpt>
      <trkpt lat="43.5497520" lon="-6.8259030">
        <ele>-22.0</ele>
        <time>2021-07-22T13:00:44Z</time>
      </trkpt>
      <trkpt lat="43.5497710" lon="-6.8259010">
        <ele>-22.0</ele>
        <time>2021-07-22T13:00:45Z</time>
      </trkpt>
      <trkpt lat="43.5497860" lon="-6.8259020">
        <ele>-22.0</ele>
        <time>2021-07-22T13:00:46Z</time>
      </trkpt>
      <trkpt lat="43.5498140" lon="-6.8259100">
        <ele>-22.0</ele>
        <time>2021-07-22T13:00:48Z</time>
      </trkpt>
      <trkpt lat="43.5498290" lon="-6.8259230">
        <ele>-22.0</ele>
        <time>2021-07-22T13:00:49Z</time>
      </trkpt>
      <trkpt lat="43.5498450" lon="-6.8259380">
        <ele>-22.0</ele>
        <time>2021-07-22T13:00:50Z</time>
      </trkpt>
      <trkpt lat="43.5498790" lon="-6.8259520">
        <ele>-22.0</ele>
        <time>2021-07-22T13:00:52Z</time>
      </trkpt>
      <trkpt lat="43.5499340" lon="-6.8259610">
        <ele>-21.6</ele>
        <time>2021-07-22T13:00:55Z</time>
      </trkpt>
      <trkpt lat="43.5499530" lon="-6.8259620">
        <ele>-21.2</ele>
        <time>2021-07-22T13:00:56Z</time>
      </trkpt>
      <trkpt lat="43.5499740" lon="-6.8259660">
        <ele>-20.8</ele>
        <time>2021-07-22T13:00:57Z</time>
      </trkpt>
      <trkpt lat="43.5499920" lon="-6.8259660">
        <ele>-20.4</ele>
        <time>2021-07-22T13:00:58Z</time>
      </trkpt>
      <trkpt lat="43.5500080" lon="-6.8259630">
        <ele>-20.0</ele>
        <time>2021-07-22T13:00:59Z</time>
      </trkpt>
      <trkpt lat="43.5500590" lon="-6.8259580">
        <ele>-19.6</ele>
        <time>2021-07-22T13:01:02Z</time>
      </trkpt>
      <trkpt lat="43.5500740" lon="-6.8259630">
        <ele>-19.2</ele>
        <time>2021-07-22T13:01:03Z</time>
      </trkpt>
      <trkpt lat="43.5500900" lon="-6.8259730">
        <ele>-18.8</ele>
        <time>2021-07-22T13:01:04Z</time>
      </trkpt>
      <trkpt lat="43.5501070" lon="-6.8259820">
        <ele>-18.4</ele>
        <time>2021-07-22T13:01:05Z</time>
      </trkpt>
      <trkpt lat="43.5501220" lon="-6.8259930">
        <ele>-18.0</ele>
        <time>2021-07-22T13:01:06Z</time>
      </trkpt>
      <trkpt lat="43.5501670" lon="-6.8260290">
        <ele>-18.0</ele>
        <time>2021-07-22T13:01:09Z</time>
      </trkpt>
      <trkpt lat="43.5501960" lon="-6.8260550">
        <ele>-18.0</ele>
        <time>2021-07-22T13:01:11Z</time>
      </trkpt>
      <trkpt lat="43.5502160" lon="-6.8260930">
        <ele>-17.6</ele>
        <time>2021-07-22T13:01:13Z</time>
      </trkpt>
      <trkpt lat="43.5502280" lon="-6.8261090">
        <ele>-17.2</ele>
        <time>2021-07-22T13:01:14Z</time>
      </trkpt>
      <trkpt lat="43.5502400" lon="-6.8261250">
        <ele>-16.8</ele>
        <time>2021-07-22T13:01:15Z</time>
      </trkpt>
      <trkpt lat="43.5502510" lon="-6.8261410">
        <ele>-16.4</ele>
        <time>2021-07-22T13:01:16Z</time>
      </trkpt>
      <trkpt lat="43.5502630" lon="-6.8261560">
        <ele>-16.0</ele>
        <time>2021-07-22T13:01:17Z</time>
      </trkpt>
      <trkpt lat="43.5502820" lon="-6.8261870">
        <ele>-16.0</ele>
        <time>2021-07-22T13:01:19Z</time>
      </trkpt>
      <trkpt lat="43.5502990" lon="-6.8262240">
        <ele>-16.0</ele>
        <time>2021-07-22T13:01:21Z</time>
      </trkpt>
      <trkpt lat="43.5503840" lon="-6.8263010">
        <ele>-16.0</ele>
        <time>2021-07-22T13:01:26Z</time>
      </trkpt>
      <trkpt lat="43.5504230" lon="-6.8263530">
        <ele>-16.0</ele>
        <time>2021-07-22T13:01:29Z</time>
      </trkpt>
      <trkpt lat="43.5504430" lon="-6.8263970">
        <ele>-16.0</ele>
        <time>2021-07-22T13:01:31Z</time>
      </trkpt>
      <trkpt lat="43.5505010" lon="-6.8265610">
        <ele>-16.0</ele>
        <time>2021-07-22T13:01:38Z</time>
      </trkpt>
      <trkpt lat="43.5505710" lon="-6.8267310">
        <ele>-16.0</ele>
        <time>2021-07-22T13:01:45Z</time>
      </trkpt>
      <trkpt lat="43.5506050" lon="-6.8268250">
        <ele>-15.6</ele>
        <time>2021-07-22T13:01:49Z</time>
      </trkpt>
      <trkpt lat="43.5506140" lon="-6.8268440">
        <ele>-15.0</ele>
        <time>2021-07-22T13:01:50Z</time>
      </trkpt>
      <trkpt lat="43.5506260" lon="-6.8268660">
        <ele>-14.6</ele>
        <time>2021-07-22T13:01:51Z</time>
      </trkpt>
      <trkpt lat="43.5506350" lon="-6.8268880">
        <ele>-14.2</ele>
        <time>2021-07-22T13:01:52Z</time>
      </trkpt>
      <trkpt lat="43.5506440" lon="-6.8269120">
        <ele>-13.8</ele>
        <time>2021-07-22T13:01:53Z</time>
      </trkpt>
      <trkpt lat="43.5506960" lon="-6.8270460">
        <ele>-13.8</ele>
        <time>2021-07-22T13:01:59Z</time>
      </trkpt>
      <trkpt lat="43.5507620" lon="-6.8272160">
        <ele>-13.8</ele>
        <time>2021-07-22T13:02:06Z</time>
      </trkpt>
      <trkpt lat="43.5507710" lon="-6.8272430">
        <ele>-13.4</ele>
        <time>2021-07-22T13:02:07Z</time>
      </trkpt>
      <trkpt lat="43.5507800" lon="-6.8272720">
        <ele>-13.0</ele>
        <time>2021-07-22T13:02:08Z</time>
      </trkpt>
      <trkpt lat="43.5507930" lon="-6.8272990">
        <ele>-12.6</ele>
        <time>2021-07-22T13:02:09Z</time>
      </trkpt>
      <trkpt lat="43.5508060" lon="-6.8273270">
        <ele>-12.2</ele>
        <time>2021-07-22T13:02:10Z</time>
      </trkpt>
      <trkpt lat="43.5508180" lon="-6.8273540">
        <ele>-11.8</ele>
        <time>2021-07-22T13:02:11Z</time>
      </trkpt>
      <trkpt lat="43.5508300" lon="-6.8273820">
        <ele>-11.8</ele>
        <time>2021-07-22T13:02:12Z</time>
      </trkpt>
      <trkpt lat="43.5509310" lon="-6.8276880">
        <ele>-11.8</ele>
        <time>2021-07-22T13:02:21Z</time>
      </trkpt>
      <trkpt lat="43.5509870" lon="-6.8279180">
        <ele>-11.8</ele>
        <time>2021-07-22T13:02:27Z</time>
      </trkpt>
      <trkpt lat="43.5509940" lon="-6.8279590">
        <ele>-11.8</ele>
        <time>2021-07-22T13:02:28Z</time>
      </trkpt>
      <trkpt lat="43.5510250" lon="-6.8281170">
        <ele>-11.8</ele>
        <time>2021-07-22T13:02:32Z</time>
      </trkpt>
      <trkpt lat="43.5510560" lon="-6.8282780">
        <ele>-11.8</ele>
        <time>2021-07-22T13:02:36Z</time>
      </trkpt>
      <trkpt lat="43.5510650" lon="-6.8283220">
        <ele>-11.8</ele>
        <time>2021-07-22T13:02:37Z</time>
      </trkpt>
      <trkpt lat="43.5510840" lon="-6.8284070">
        <ele>-11.8</ele>
        <time>2021-07-22T13:02:39Z</time>
      </trkpt>
      <trkpt lat="43.5511060" lon="-6.8284850">
        <ele>-11.8</ele>
        <time>2021-07-22T13:02:41Z</time>
      </trkpt>
      <trkpt lat="43.5511250" lon="-6.8285670">
        <ele>-11.8</ele>
        <time>2021-07-22T13:02:43Z</time>
      </trkpt>
      <trkpt lat="43.5511390" lon="-6.8286440">
        <ele>-11.8</ele>
        <time>2021-07-22T13:02:45Z</time>
      </trkpt>
      <trkpt lat="43.5511570" lon="-6.8287460">
        <ele>-11.8</ele>
        <time>2021-07-22T13:02:48Z</time>
      </trkpt>
      <trkpt lat="43.5511900" lon="-6.8288980">
        <ele>-11.8</ele>
        <time>2021-07-22T13:02:52Z</time>
      </trkpt>
      <trkpt lat="43.5511980" lon="-6.8289340">
        <ele>-11.8</ele>
        <time>2021-07-22T13:02:53Z</time>
      </trkpt>
      <trkpt lat="43.5512210" lon="-6.8290540">
        <ele>-12.2</ele>
        <time>2021-07-22T13:02:57Z</time>
      </trkpt>
      <trkpt lat="43.5512250" lon="-6.8290790">
        <ele>-12.6</ele>
        <time>2021-07-22T13:02:58Z</time>
      </trkpt>
      <trkpt lat="43.5512300" lon="-6.8291040">
        <ele>-13.0</ele>
        <time>2021-07-22T13:02:59Z</time>
      </trkpt>
      <trkpt lat="43.5512380" lon="-6.8291250">
        <ele>-13.4</ele>
        <time>2021-07-22T13:03:00Z</time>
      </trkpt>
      <trkpt lat="43.5512460" lon="-6.8291460">
        <ele>-14.0</ele>
        <time>2021-07-22T13:03:01Z</time>
      </trkpt>
      <trkpt lat="43.5512630" lon="-6.8291830">
        <ele>-14.0</ele>
        <time>2021-07-22T13:03:04Z</time>
      </trkpt>
      <trkpt lat="43.5512710" lon="-6.8292500">
        <ele>-14.0</ele>
        <time>2021-07-22T13:03:58Z</time>
      </trkpt>
      <trkpt lat="43.5512630" lon="-6.8292710">
        <ele>-14.0</ele>
        <time>2021-07-22T13:03:59Z</time>
      </trkpt>
      <trkpt lat="43.5512440" lon="-6.8293390">
        <ele>-14.0</ele>
        <time>2021-07-22T13:04:02Z</time>
      </trkpt>
      <trkpt lat="43.5512520" lon="-6.8294510">
        <ele>-14.0</ele>
        <time>2021-07-22T13:04:05Z</time>
      </trkpt>
      <trkpt lat="43.5512580" lon="-6.8295030">
        <ele>-14.4</ele>
        <time>2021-07-22T13:04:06Z</time>
      </trkpt>
      <trkpt lat="43.5512670" lon="-6.8295630">
        <ele>-14.8</ele>
        <time>2021-07-22T13:04:07Z</time>
      </trkpt>
      <trkpt lat="43.5512750" lon="-6.8296250">
        <ele>-15.2</ele>
        <time>2021-07-22T13:04:08Z</time>
      </trkpt>
      <trkpt lat="43.5512840" lon="-6.8296910">
        <ele>-15.6</ele>
        <time>2021-07-22T13:04:09Z</time>
      </trkpt>
      <trkpt lat="43.5512930" lon="-6.8297610">
        <ele>-16.0</ele>
        <time>2021-07-22T13:04:10Z</time>
      </trkpt>
      <trkpt lat="43.5513160" lon="-6.8299100">
        <ele>-16.0</ele>
        <time>2021-07-22T13:04:12Z</time>
      </trkpt>
      <trkpt lat="43.5513290" lon="-6.8299860">
        <ele>-16.0</ele>
        <time>2021-07-22T13:04:13Z</time>
      </trkpt>
      <trkpt lat="43.5513540" lon="-6.8301400">
        <ele>-16.4</ele>
        <time>2021-07-22T13:04:15Z</time>
      </trkpt>
      <trkpt lat="43.5513680" lon="-6.8302130">
        <ele>-16.8</ele>
        <time>2021-07-22T13:04:16Z</time>
      </trkpt>
      <trkpt lat="43.5513810" lon="-6.8302870">
        <ele>-17.2</ele>
        <time>2021-07-22T13:04:17Z</time>
      </trkpt>
      <trkpt lat="43.5513940" lon="-6.8303610">
        <ele>-17.6</ele>
        <time>2021-07-22T13:04:18Z</time>
      </trkpt>
      <trkpt lat="43.5514090" lon="-6.8304350">
        <ele>-18.0</ele>
        <time>2021-07-22T13:04:19Z</time>
      </trkpt>
      <trkpt lat="43.5514650" lon="-6.8306430">
        <ele>-18.0</ele>
        <time>2021-07-22T13:04:22Z</time>
      </trkpt>
      <trkpt lat="43.5515130" lon="-6.8307560">
        <ele>-18.0</ele>
        <time>2021-07-22T13:04:24Z</time>
      </trkpt>
      <trkpt lat="43.5516080" lon="-6.8309280">
        <ele>-18.0</ele>
        <time>2021-07-22T13:04:28Z</time>
      </trkpt>
      <trkpt lat="43.5516350" lon="-6.8309670">
        <ele>-18.0</ele>
        <time>2021-07-22T13:04:29Z</time>
      </trkpt>
      <trkpt lat="43.5516910" lon="-6.8310430">
        <ele>-18.0</ele>
        <time>2021-07-22T13:04:31Z</time>
      </trkpt>
      <trkpt lat="43.5517470" lon="-6.8311130">
        <ele>-18.0</ele>
        <time>2021-07-22T13:04:33Z</time>
      </trkpt>
      <trkpt lat="43.5518030" lon="-6.8311830">
        <ele>-18.0</ele>
        <time>2021-07-22T13:04:35Z</time>
      </trkpt>
      <trkpt lat="43.5518830" lon="-6.8312860">
        <ele>-18.0</ele>
        <time>2021-07-22T13:04:38Z</time>
      </trkpt>
      <trkpt lat="43.5519890" lon="-6.8314100">
        <ele>-18.0</ele>
        <time>2021-07-22T13:04:43Z</time>
      </trkpt>
      <trkpt lat="43.5520110" lon="-6.8314310">
        <ele>-18.0</ele>
        <time>2021-07-22T13:04:44Z</time>
      </trkpt>
      <trkpt lat="43.5521510" lon="-6.8315600">
        <ele>-18.0</ele>
        <time>2021-07-22T13:04:51Z</time>
      </trkpt>
      <trkpt lat="43.5522760" lon="-6.8315870">
        <ele>-18.0</ele>
        <time>2021-07-22T13:04:58Z</time>
      </trkpt>
      <trkpt lat="43.5522840" lon="-6.8315060">
        <ele>-18.0</ele>
        <time>2021-07-22T13:05:02Z</time>
      </trkpt>
      <trkpt lat="43.5523370" lon="-6.8314730">
        <ele>-18.0</ele>
        <time>2021-07-22T13:05:06Z</time>
      </trkpt>
      <trkpt lat="43.5523860" lon="-6.8314700">
        <ele>-18.0</ele>
        <time>2021-07-22T13:05:10Z</time>
      </trkpt>
      <trkpt lat="43.5522880" lon="-6.8314780">
        <ele>-18.0</ele>
        <time>2021-07-22T13:08:45Z</time>
      </trkpt>
      <trkpt lat="43.5522820" lon="-6.8314970">
        <ele>-18.0</ele>
        <time>2021-07-22T13:08:46Z</time>
      </trkpt>
      <trkpt lat="43.5522790" lon="-6.8315270">
        <ele>-18.0</ele>
        <time>2021-07-22T13:08:48Z</time>
      </trkpt>
      <trkpt lat="43.5522790" lon="-6.8315270">
        <ele>-18.0</ele>
        <time>2021-07-22T13:08:49Z</time>
      </trkpt>
      <trkpt lat="43.5522730" lon="-6.8315510">
        <ele>-18.0</ele>
        <time>2021-07-22T13:08:54Z</time>
      </trkpt>
      <trkpt lat="43.5522650" lon="-6.8315680">
        <ele>-18.0</ele>
        <time>2021-07-22T13:08:55Z</time>
      </trkpt>
      <trkpt lat="43.5522140" lon="-6.8316330">
        <ele>-18.0</ele>
        <time>2021-07-22T13:08:59Z</time>
      </trkpt>
      <trkpt lat="43.5522140" lon="-6.8316610">
        <ele>-18.0</ele>
        <time>2021-07-22T13:09:00Z</time>
      </trkpt>
      <trkpt lat="43.5522860" lon="-6.8317790">
        <ele>-17.6</ele>
        <time>2021-07-22T13:09:04Z</time>
      </trkpt>
      <trkpt lat="43.5523100" lon="-6.8318090">
        <ele>-17.2</ele>
        <time>2021-07-22T13:09:05Z</time>
      </trkpt>
      <trkpt lat="43.5523330" lon="-6.8318390">
        <ele>-16.8</ele>
        <time>2021-07-22T13:09:06Z</time>
      </trkpt>
      <trkpt lat="43.5523580" lon="-6.8318670">
        <ele>-16.4</ele>
        <time>2021-07-22T13:09:07Z</time>
      </trkpt>
      <trkpt lat="43.5523850" lon="-6.8318970">
        <ele>-15.8</ele>
        <time>2021-07-22T13:09:08Z</time>
      </trkpt>
      <trkpt lat="43.5524810" lon="-6.8320190">
        <ele>-15.8</ele>
        <time>2021-07-22T13:09:12Z</time>
      </trkpt>
      <trkpt lat="43.5526230" lon="-6.8321960">
        <ele>-15.8</ele>
        <time>2021-07-22T13:09:18Z</time>
      </trkpt>
      <trkpt lat="43.5526650" lon="-6.8322590">
        <ele>-15.8</ele>
        <time>2021-07-22T13:09:20Z</time>
      </trkpt>
      <trkpt lat="43.5527150" lon="-6.8323210">
        <ele>-15.8</ele>
        <time>2021-07-22T13:09:22Z</time>
      </trkpt>
      <trkpt lat="43.5527760" lon="-6.8323980">
        <ele>-15.8</ele>
        <time>2021-07-22T13:09:24Z</time>
      </trkpt>
      <trkpt lat="43.5528400" lon="-6.8324770">
        <ele>-15.8</ele>
        <time>2021-07-22T13:09:26Z</time>
      </trkpt>
      <trkpt lat="43.5531120" lon="-6.8328310">
        <ele>-15.8</ele>
        <time>2021-07-22T13:09:35Z</time>
      </trkpt>
      <trkpt lat="43.5531600" lon="-6.8329170">
        <ele>-15.8</ele>
        <time>2021-07-22T13:09:37Z</time>
      </trkpt>
      <trkpt lat="43.5532170" lon="-6.8330600">
        <ele>-15.8</ele>
        <time>2021-07-22T13:09:40Z</time>
      </trkpt>
      <trkpt lat="43.5532300" lon="-6.8331090">
        <ele>-15.8</ele>
        <time>2021-07-22T13:09:41Z</time>
      </trkpt>
      <trkpt lat="43.5532520" lon="-6.8332100">
        <ele>-16.4</ele>
        <time>2021-07-22T13:09:43Z</time>
      </trkpt>
      <trkpt lat="43.5532570" lon="-6.8332630">
        <ele>-16.8</ele>
        <time>2021-07-22T13:09:44Z</time>
      </trkpt>
      <trkpt lat="43.5532590" lon="-6.8333160">
        <ele>-17.2</ele>
        <time>2021-07-22T13:09:45Z</time>
      </trkpt>
      <trkpt lat="43.5532590" lon="-6.8333700">
        <ele>-17.6</ele>
        <time>2021-07-22T13:09:46Z</time>
      </trkpt>
      <trkpt lat="43.5532540" lon="-6.8334170">
        <ele>-18.0</ele>
        <time>2021-07-22T13:09:47Z</time>
      </trkpt>
      <trkpt lat="43.5531670" lon="-6.8338020">
        <ele>-18.0</ele>
        <time>2021-07-22T13:09:54Z</time>
      </trkpt>
      <trkpt lat="43.5531360" lon="-6.8339890">
        <ele>-18.0</ele>
        <time>2021-07-22T13:09:58Z</time>
      </trkpt>
      <trkpt lat="43.5531640" lon="-6.8341230">
        <ele>-18.4</ele>
        <time>2021-07-22T13:10:01Z</time>
      </trkpt>
      <trkpt lat="43.5531700" lon="-6.8341690">
        <ele>-18.8</ele>
        <time>2021-07-22T13:10:02Z</time>
      </trkpt>
      <trkpt lat="43.5531720" lon="-6.8342220">
        <ele>-19.4</ele>
        <time>2021-07-22T13:10:03Z</time>
      </trkpt>
      <trkpt lat="43.5531730" lon="-6.8342730">
        <ele>-19.8</ele>
        <time>2021-07-22T13:10:04Z</time>
      </trkpt>
      <trkpt lat="43.5531740" lon="-6.8343240">
        <ele>-20.2</ele>
        <time>2021-07-22T13:10:05Z</time>
      </trkpt>
      <trkpt lat="43.5531760" lon="-6.8343760">
        <ele>-20.6</ele>
        <time>2021-07-22T13:10:06Z</time>
      </trkpt>
      <trkpt lat="43.5531800" lon="-6.8344270">
        <ele>-21.0</ele>
        <time>2021-07-22T13:10:07Z</time>
      </trkpt>
      <trkpt lat="43.5531850" lon="-6.8344840">
        <ele>-21.4</ele>
        <time>2021-07-22T13:10:08Z</time>
      </trkpt>
      <trkpt lat="43.5531940" lon="-6.8345440">
        <ele>-21.8</ele>
        <time>2021-07-22T13:10:09Z</time>
      </trkpt>
      <trkpt lat="43.5532050" lon="-6.8345950">
        <ele>-22.4</ele>
        <time>2021-07-22T13:10:10Z</time>
      </trkpt>
      <trkpt lat="43.5532200" lon="-6.8346440">
        <ele>-22.8</ele>
        <time>2021-07-22T13:10:11Z</time>
      </trkpt>
      <trkpt lat="43.5532390" lon="-6.8346870">
        <ele>-23.4</ele>
        <time>2021-07-22T13:10:12Z</time>
      </trkpt>
      <trkpt lat="43.5532660" lon="-6.8347200">
        <ele>-24.0</ele>
        <time>2021-07-22T13:10:13Z</time>
      </trkpt>
      <trkpt lat="43.5532940" lon="-6.8347500">
        <ele>-24.6</ele>
        <time>2021-07-22T13:10:14Z</time>
      </trkpt>
      <trkpt lat="43.5533280" lon="-6.8347830">
        <ele>-25.6</ele>
        <time>2021-07-22T13:10:15Z</time>
      </trkpt>
      <trkpt lat="43.5533600" lon="-6.8348100">
        <ele>-26.2</ele>
        <time>2021-07-22T13:10:16Z</time>
      </trkpt>
      <trkpt lat="43.5533870" lon="-6.8348380">
        <ele>-26.8</ele>
        <time>2021-07-22T13:10:17Z</time>
      </trkpt>
      <trkpt lat="43.5534090" lon="-6.8348610">
        <ele>-27.2</ele>
        <time>2021-07-22T13:10:18Z</time>
      </trkpt>
      <trkpt lat="43.5534220" lon="-6.8348860">
        <ele>-27.8</ele>
        <time>2021-07-22T13:10:19Z</time>
      </trkpt>
      <trkpt lat="43.5534300" lon="-6.8349040">
        <ele>-28.2</ele>
        <time>2021-07-22T13:10:20Z</time>
      </trkpt>
      <trkpt lat="43.5534340" lon="-6.8349260">
        <ele>-28.6</ele>
        <time>2021-07-22T13:10:21Z</time>
      </trkpt>
      <trkpt lat="43.5534310" lon="-6.8349500">
        <ele>-29.0</ele>
        <time>2021-07-22T13:10:22Z</time>
      </trkpt>
      <trkpt lat="43.5534200" lon="-6.8349700">
        <ele>-29.4</ele>
        <time>2021-07-22T13:10:23Z</time>
      </trkpt>
      <trkpt lat="43.5533830" lon="-6.8350060">
        <ele>-29.8</ele>
        <time>2021-07-22T13:10:25Z</time>
      </trkpt>
      <trkpt lat="43.5533610" lon="-6.8350240">
        <ele>-30.2</ele>
        <time>2021-07-22T13:10:26Z</time>
      </trkpt>
      <trkpt lat="43.5533390" lon="-6.8350440">
        <ele>-30.6</ele>
        <time>2021-07-22T13:10:27Z</time>
      </trkpt>
      <trkpt lat="43.5533220" lon="-6.8350670">
        <ele>-31.0</ele>
        <time>2021-07-22T13:10:28Z</time>
      </trkpt>
      <trkpt lat="43.5533050" lon="-6.8350990">
        <ele>-31.4</ele>
        <time>2021-07-22T13:10:29Z</time>
      </trkpt>
      <trkpt lat="43.5532810" lon="-6.8351610">
        <ele>-32.0</ele>
        <time>2021-07-22T13:10:31Z</time>
      </trkpt>
      <trkpt lat="43.5532710" lon="-6.8351920">
        <ele>-32.4</ele>
        <time>2021-07-22T13:10:32Z</time>
      </trkpt>
      <trkpt lat="43.5532590" lon="-6.8352230">
        <ele>-32.8</ele>
        <time>2021-07-22T13:10:33Z</time>
      </trkpt>
      <trkpt lat="43.5532430" lon="-6.8352570">
        <ele>-33.2</ele>
        <time>2021-07-22T13:10:34Z</time>
      </trkpt>
      <trkpt lat="43.5532240" lon="-6.8353000">
        <ele>-33.8</ele>
        <time>2021-07-22T13:10:35Z</time>
      </trkpt>
      <trkpt lat="43.5532070" lon="-6.8353390">
        <ele>-34.2</ele>
        <time>2021-07-22T13:10:36Z</time>
      </trkpt>
      <trkpt lat="43.5531870" lon="-6.8353750">
        <ele>-34.6</ele>
        <time>2021-07-22T13:10:37Z</time>
      </trkpt>
      <trkpt lat="43.5531690" lon="-6.8354070">
        <ele>-35.2</ele>
        <time>2021-07-22T13:10:38Z</time>
      </trkpt>
      <trkpt lat="43.5531540" lon="-6.8354340">
        <ele>-35.6</ele>
        <time>2021-07-22T13:10:39Z</time>
      </trkpt>
      <trkpt lat="43.5531390" lon="-6.8354610">
        <ele>-36.6</ele>
        <time>2021-07-22T13:10:40Z</time>
      </trkpt>
      <trkpt lat="43.5531250" lon="-6.8354840">
        <ele>-37.2</ele>
        <time>2021-07-22T13:10:41Z</time>
      </trkpt>
      <trkpt lat="43.5531090" lon="-6.8355050">
        <ele>-37.8</ele>
        <time>2021-07-22T13:10:42Z</time>
      </trkpt>
      <trkpt lat="43.5530960" lon="-6.8355240">
        <ele>-38.4</ele>
        <time>2021-07-22T13:10:43Z</time>
      </trkpt>
      <trkpt lat="43.5530830" lon="-6.8355410">
        <ele>-38.8</ele>
        <time>2021-07-22T13:10:44Z</time>
      </trkpt>
      <trkpt lat="43.5530720" lon="-6.8355600">
        <ele>-39.4</ele>
        <time>2021-07-22T13:10:45Z</time>
      </trkpt>
      <trkpt lat="43.5530630" lon="-6.8355810">
        <ele>-39.8</ele>
        <time>2021-07-22T13:10:46Z</time>
      </trkpt>
      <trkpt lat="43.5530530" lon="-6.8356020">
        <ele>-40.4</ele>
        <time>2021-07-22T13:10:47Z</time>
      </trkpt>
      <trkpt lat="43.5530450" lon="-6.8356120">
        <ele>-40.4</ele>
        <time>2021-07-22T13:10:48Z</time>
      </trkpt>
      <trkpt lat="43.5530430" lon="-6.8356160">
        <ele>-40.8</ele>
        <time>2021-07-22T13:10:49Z</time>
      </trkpt>
      <trkpt lat="43.5530380" lon="-6.8356200">
        <ele>-41.2</ele>
        <time>2021-07-22T13:10:50Z</time>
      </trkpt>
      <trkpt lat="43.5530330" lon="-6.8356230">
        <ele>-41.6</ele>
        <time>2021-07-22T13:10:51Z</time>
      </trkpt>
      <trkpt lat="43.5530290" lon="-6.8356260">
        <ele>-42.0</ele>
        <time>2021-07-22T13:10:52Z</time>
      </trkpt>
      <trkpt lat="43.5530200" lon="-6.8356370">
        <ele>-42.6</ele>
        <time>2021-07-22T13:10:53Z</time>
      </trkpt>
      <trkpt lat="43.5530100" lon="-6.8356520">
        <ele>-42.6</ele>
        <time>2021-07-22T13:10:54Z</time>
      </trkpt>
      <trkpt lat="43.5529980" lon="-6.8357180">
        <ele>-42.6</ele>
        <time>2021-07-22T13:10:58Z</time>
      </trkpt>
      <trkpt lat="43.5530020" lon="-6.8357340">
        <ele>-43.0</ele>
        <time>2021-07-22T13:10:59Z</time>
      </trkpt>
      <trkpt lat="43.5530060" lon="-6.8357460">
        <ele>-43.4</ele>
        <time>2021-07-22T13:11:00Z</time>
      </trkpt>
      <trkpt lat="43.5530100" lon="-6.8357580">
        <ele>-43.8</ele>
        <time>2021-07-22T13:11:01Z</time>
      </trkpt>
      <trkpt lat="43.5530130" lon="-6.8357670">
        <ele>-44.2</ele>
        <time>2021-07-22T13:11:02Z</time>
      </trkpt>
      <trkpt lat="43.5531200" lon="-6.8360910">
        <ele>-44.6</ele>
        <time>2021-07-22T13:11:46Z</time>
      </trkpt>
      <trkpt lat="43.5531280" lon="-6.8361150">
        <ele>-44.6</ele>
        <time>2021-07-22T13:11:47Z</time>
      </trkpt>
      <trkpt lat="43.5531610" lon="-6.8362350">
        <ele>-44.6</ele>
        <time>2021-07-22T13:11:51Z</time>
      </trkpt>
      <trkpt lat="43.5531640" lon="-6.8363100">
        <ele>-44.6</ele>
        <time>2021-07-22T13:11:53Z</time>
      </trkpt>
      <trkpt lat="43.5531670" lon="-6.8364230">
        <ele>-44.6</ele>
        <time>2021-07-22T13:11:56Z</time>
      </trkpt>
      <trkpt lat="43.5531760" lon="-6.8365730">
        <ele>-44.6</ele>
        <time>2021-07-22T13:11:59Z</time>
      </trkpt>
      <trkpt lat="43.5531550" lon="-6.8367400">
        <ele>-44.6</ele>
        <time>2021-07-22T13:12:03Z</time>
      </trkpt>
      <trkpt lat="43.5531530" lon="-6.8368040">
        <ele>-44.6</ele>
        <time>2021-07-22T13:12:05Z</time>
      </trkpt>
      <trkpt lat="43.5531620" lon="-6.8368840">
        <ele>-44.6</ele>
        <time>2021-07-22T13:12:09Z</time>
      </trkpt>
      <trkpt lat="43.5531670" lon="-6.8369000">
        <ele>-44.6</ele>
        <time>2021-07-22T13:12:11Z</time>
      </trkpt>
      <trkpt lat="43.5531250" lon="-6.8372030">
        <ele>-37.4</ele>
        <time>2021-07-22T13:13:05Z</time>
      </trkpt>
      <trkpt lat="43.5531390" lon="-6.8372030">
        <ele>-37.0</ele>
        <time>2021-07-22T13:13:06Z</time>
      </trkpt>
      <trkpt lat="43.5531520" lon="-6.8372030">
        <ele>-36.6</ele>
        <time>2021-07-22T13:13:07Z</time>
      </trkpt>
      <trkpt lat="43.5531660" lon="-6.8372070">
        <ele>-36.2</ele>
        <time>2021-07-22T13:13:08Z</time>
      </trkpt>
      <trkpt lat="43.5531820" lon="-6.8372100">
        <ele>-36.2</ele>
        <time>2021-07-22T13:13:09Z</time>
      </trkpt>
      <trkpt lat="43.5532240" lon="-6.8372010">
        <ele>-36.2</ele>
        <time>2021-07-22T13:13:14Z</time>
      </trkpt>
      <trkpt lat="43.5532670" lon="-6.8372060">
        <ele>-36.2</ele>
        <time>2021-07-22T13:13:20Z</time>
      </trkpt>
      <trkpt lat="43.5533880" lon="-6.8372180">
        <ele>-36.2</ele>
        <time>2021-07-22T13:13:27Z</time>
      </trkpt>
      <trkpt lat="43.5534880" lon="-6.8372230">
        <ele>-36.2</ele>
        <time>2021-07-22T13:13:33Z</time>
      </trkpt>
      <trkpt lat="43.5535400" lon="-6.8372260">
        <ele>-35.8</ele>
        <time>2021-07-22T13:13:36Z</time>
      </trkpt>
      <trkpt lat="43.5535560" lon="-6.8372230">
        <ele>-35.4</ele>
        <time>2021-07-22T13:13:37Z</time>
      </trkpt>
      <trkpt lat="43.5535740" lon="-6.8372180">
        <ele>-35.0</ele>
        <time>2021-07-22T13:13:38Z</time>
      </trkpt>
      <trkpt lat="43.5535930" lon="-6.8372130">
        <ele>-34.6</ele>
        <time>2021-07-22T13:13:39Z</time>
      </trkpt>
      <trkpt lat="43.5536090" lon="-6.8372100">
        <ele>-34.2</ele>
        <time>2021-07-22T13:13:40Z</time>
      </trkpt>
      <trkpt lat="43.5536970" lon="-6.8372040">
        <ele>-34.2</ele>
        <time>2021-07-22T13:13:45Z</time>
      </trkpt>
      <trkpt lat="43.5538150" lon="-6.8371860">
        <ele>-33.8</ele>
        <time>2021-07-22T13:13:52Z</time>
      </trkpt>
      <trkpt lat="43.5538310" lon="-6.8371880">
        <ele>-33.4</ele>
        <time>2021-07-22T13:13:53Z</time>
      </trkpt>
      <trkpt lat="43.5538450" lon="-6.8371820">
        <ele>-33.0</ele>
        <time>2021-07-22T13:13:54Z</time>
      </trkpt>
      <trkpt lat="43.5538610" lon="-6.8371800">
        <ele>-32.4</ele>
        <time>2021-07-22T13:13:55Z</time>
      </trkpt>
      <trkpt lat="43.5538760" lon="-6.8371810">
        <ele>-32.0</ele>
        <time>2021-07-22T13:13:56Z</time>
      </trkpt>
      <trkpt lat="43.5539570" lon="-6.8371820">
        <ele>-32.0</ele>
        <time>2021-07-22T13:14:01Z</time>
      </trkpt>
      <trkpt lat="43.5539930" lon="-6.8371970">
        <ele>-31.6</ele>
        <time>2021-07-22T13:14:04Z</time>
      </trkpt>
      <trkpt lat="43.5540040" lon="-6.8372040">
        <ele>-31.2</ele>
        <time>2021-07-22T13:14:05Z</time>
      </trkpt>
      <trkpt lat="43.5540160" lon="-6.8372150">
        <ele>-30.8</ele>
        <time>2021-07-22T13:14:06Z</time>
      </trkpt>
      <trkpt lat="43.5540310" lon="-6.8372290">
        <ele>-30.4</ele>
        <time>2021-07-22T13:14:07Z</time>
      </trkpt>
      <trkpt lat="43.5540460" lon="-6.8372430">
        <ele>-30.0</ele>
        <time>2021-07-22T13:14:08Z</time>
      </trkpt>
      <trkpt lat="43.5540580" lon="-6.8372600">
        <ele>-30.0</ele>
        <time>2021-07-22T13:14:09Z</time>
      </trkpt>
      <trkpt lat="43.5541150" lon="-6.8374000">
        <ele>-30.0</ele>
        <time>2021-07-22T13:14:16Z</time>
      </trkpt>
      <trkpt lat="43.5541210" lon="-6.8374890">
        <ele>-30.0</ele>
        <time>2021-07-22T13:14:21Z</time>
      </trkpt>
      <trkpt lat="43.5541280" lon="-6.8375570">
        <ele>-29.6</ele>
        <time>2021-07-22T13:14:24Z</time>
      </trkpt>
      <trkpt lat="43.5541290" lon="-6.8375850">
        <ele>-29.2</ele>
        <time>2021-07-22T13:14:25Z</time>
      </trkpt>
      <trkpt lat="43.5541290" lon="-6.8376120">
        <ele>-28.8</ele>
        <time>2021-07-22T13:14:26Z</time>
      </trkpt>
      <trkpt lat="43.5541300" lon="-6.8376370">
        <ele>-28.4</ele>
        <time>2021-07-22T13:14:27Z</time>
      </trkpt>
      <trkpt lat="43.5541320" lon="-6.8376580">
        <ele>-28.0</ele>
        <time>2021-07-22T13:14:28Z</time>
      </trkpt>
      <trkpt lat="43.5541180" lon="-6.8378250">
        <ele>-28.0</ele>
        <time>2021-07-22T13:14:36Z</time>
      </trkpt>
      <trkpt lat="43.5541090" lon="-6.8379090">
        <ele>-27.6</ele>
        <time>2021-07-22T13:14:40Z</time>
      </trkpt>
      <trkpt lat="43.5541030" lon="-6.8379280">
        <ele>-27.0</ele>
        <time>2021-07-22T13:14:41Z</time>
      </trkpt>
      <trkpt lat="43.5540980" lon="-6.8379510">
        <ele>-26.6</ele>
        <time>2021-07-22T13:14:42Z</time>
      </trkpt>
      <trkpt lat="43.5540930" lon="-6.8379740">
        <ele>-26.2</ele>
        <time>2021-07-22T13:14:43Z</time>
      </trkpt>
      <trkpt lat="43.5540870" lon="-6.8379930">
        <ele>-25.8</ele>
        <time>2021-07-22T13:14:44Z</time>
      </trkpt>
      <trkpt lat="43.5540690" lon="-6.8380920">
        <ele>-25.8</ele>
        <time>2021-07-22T13:14:48Z</time>
      </trkpt>
      <trkpt lat="43.5540450" lon="-6.8382380">
        <ele>-25.8</ele>
        <time>2021-07-22T13:14:54Z</time>
      </trkpt>
      <trkpt lat="43.5540020" lon="-6.8384540">
        <ele>-25.8</ele>
        <time>2021-07-22T13:15:01Z</time>
      </trkpt>
      <trkpt lat="43.5539970" lon="-6.8384880">
        <ele>-25.4</ele>
        <time>2021-07-22T13:15:02Z</time>
      </trkpt>
      <trkpt lat="43.5539910" lon="-6.8385110">
        <ele>-25.0</ele>
        <time>2021-07-22T13:15:03Z</time>
      </trkpt>
      <trkpt lat="43.5539840" lon="-6.8385360">
        <ele>-24.6</ele>
        <time>2021-07-22T13:15:04Z</time>
      </trkpt>
      <trkpt lat="43.5539780" lon="-6.8385580">
        <ele>-24.2</ele>
        <time>2021-07-22T13:15:05Z</time>
      </trkpt>
      <trkpt lat="43.5539750" lon="-6.8385810">
        <ele>-23.8</ele>
        <time>2021-07-22T13:15:06Z</time>
      </trkpt>
      <trkpt lat="43.5539720" lon="-6.8386060">
        <ele>-23.8</ele>
        <time>2021-07-22T13:15:07Z</time>
      </trkpt>
      <trkpt lat="43.5539530" lon="-6.8386840">
        <ele>-23.8</ele>
        <time>2021-07-22T13:15:10Z</time>
      </trkpt>
      <trkpt lat="43.5539070" lon="-6.8387760">
        <ele>-23.8</ele>
        <time>2021-07-22T13:15:14Z</time>
      </trkpt>
      <trkpt lat="43.5538520" lon="-6.8388320">
        <ele>-23.8</ele>
        <time>2021-07-22T13:15:18Z</time>
      </trkpt>
      <trkpt lat="43.5538010" lon="-6.8388670">
        <ele>-23.2</ele>
        <time>2021-07-22T13:15:21Z</time>
      </trkpt>
      <trkpt lat="43.5537870" lon="-6.8388780">
        <ele>-22.8</ele>
        <time>2021-07-22T13:15:22Z</time>
      </trkpt>
      <trkpt lat="43.5537710" lon="-6.8388890">
        <ele>-22.4</ele>
        <time>2021-07-22T13:15:23Z</time>
      </trkpt>
      <trkpt lat="43.5537580" lon="-6.8388980">
        <ele>-22.0</ele>
        <time>2021-07-22T13:15:24Z</time>
      </trkpt>
      <trkpt lat="43.5537450" lon="-6.8389080">
        <ele>-21.6</ele>
        <time>2021-07-22T13:15:25Z</time>
      </trkpt>
      <trkpt lat="43.5537230" lon="-6.8389480">
        <ele>-21.6</ele>
        <time>2021-07-22T13:15:28Z</time>
      </trkpt>
      <trkpt lat="43.5537210" lon="-6.8389560">
        <ele>-21.6</ele>
        <time>2021-07-22T13:15:29Z</time>
      </trkpt>
      <trkpt lat="43.5537210" lon="-6.8389600">
        <ele>-21.6</ele>
        <time>2021-07-22T13:15:30Z</time>
      </trkpt>
      <trkpt lat="43.5537210" lon="-6.8390170">
        <ele>-21.6</ele>
        <time>2021-07-22T13:15:35Z</time>
      </trkpt>
      <trkpt lat="43.5537320" lon="-6.8390640">
        <ele>-21.6</ele>
        <time>2021-07-22T13:15:37Z</time>
      </trkpt>
      <trkpt lat="43.5537660" lon="-6.8392030">
        <ele>-21.0</ele>
        <time>2021-07-22T13:15:41Z</time>
      </trkpt>
      <trkpt lat="43.5537740" lon="-6.8392410">
        <ele>-20.6</ele>
        <time>2021-07-22T13:15:42Z</time>
      </trkpt>
      <trkpt lat="43.5537820" lon="-6.8392840">
        <ele>-20.2</ele>
        <time>2021-07-22T13:15:43Z</time>
      </trkpt>
      <trkpt lat="43.5537880" lon="-6.8393280">
        <ele>-19.8</ele>
        <time>2021-07-22T13:15:44Z</time>
      </trkpt>
      <trkpt lat="43.5537960" lon="-6.8393690">
        <ele>-19.4</ele>
        <time>2021-07-22T13:15:45Z</time>
      </trkpt>
      <trkpt lat="43.5538480" lon="-6.8396300">
        <ele>-19.4</ele>
        <time>2021-07-22T13:15:51Z</time>
      </trkpt>
      <trkpt lat="43.5539070" lon="-6.8399080">
        <ele>-19.4</ele>
        <time>2021-07-22T13:15:57Z</time>
      </trkpt>
      <trkpt lat="43.5539190" lon="-6.8399540">
        <ele>-19.4</ele>
        <time>2021-07-22T13:15:58Z</time>
      </trkpt>
      <trkpt lat="43.5539910" lon="-6.8403030">
        <ele>-19.4</ele>
        <time>2021-07-22T13:16:05Z</time>
      </trkpt>
      <trkpt lat="43.5540200" lon="-6.8404430">
        <ele>-19.4</ele>
        <time>2021-07-22T13:16:08Z</time>
      </trkpt>
      <trkpt lat="43.5540410" lon="-6.8405330">
        <ele>-19.4</ele>
        <time>2021-07-22T13:16:10Z</time>
      </trkpt>
      <trkpt lat="43.5540610" lon="-6.8406300">
        <ele>-19.4</ele>
        <time>2021-07-22T13:16:12Z</time>
      </trkpt>
      <trkpt lat="43.5540880" lon="-6.8407720">
        <ele>-19.4</ele>
        <time>2021-07-22T13:16:15Z</time>
      </trkpt>
      <trkpt lat="43.5541600" lon="-6.8410950">
        <ele>-19.4</ele>
        <time>2021-07-22T13:16:22Z</time>
      </trkpt>
      <trkpt lat="43.5541870" lon="-6.8412290">
        <ele>-19.4</ele>
        <time>2021-07-22T13:16:25Z</time>
      </trkpt>
      <trkpt lat="43.5542290" lon="-6.8414040">
        <ele>-19.4</ele>
        <time>2021-07-22T13:16:29Z</time>
      </trkpt>
      <trkpt lat="43.5543090" lon="-6.8417630">
        <ele>-19.4</ele>
        <time>2021-07-22T13:16:36Z</time>
      </trkpt>
      <trkpt lat="43.5543480" lon="-6.8421010">
        <ele>-19.4</ele>
        <time>2021-07-22T13:16:43Z</time>
      </trkpt>
      <trkpt lat="43.5542910" lon="-6.8423890">
        <ele>-19.4</ele>
        <time>2021-07-22T13:16:49Z</time>
      </trkpt>
      <trkpt lat="43.5542900" lon="-6.8424700">
        <ele>-19.4</ele>
        <time>2021-07-22T13:16:51Z</time>
      </trkpt>
      <trkpt lat="43.5543350" lon="-6.8426030">
        <ele>-19.4</ele>
        <time>2021-07-22T13:16:54Z</time>
      </trkpt>
      <trkpt lat="43.5543800" lon="-6.8426990">
        <ele>-19.4</ele>
        <time>2021-07-22T13:16:56Z</time>
      </trkpt>
      <trkpt lat="43.5544210" lon="-6.8428070">
        <ele>-19.4</ele>
        <time>2021-07-22T13:16:58Z</time>
      </trkpt>
      <trkpt lat="43.5544870" lon="-6.8429520">
        <ele>-19.4</ele>
        <time>2021-07-22T13:17:01Z</time>
      </trkpt>
      <trkpt lat="43.5545280" lon="-6.8430510">
        <ele>-19.4</ele>
        <time>2021-07-22T13:17:03Z</time>
      </trkpt>
      <trkpt lat="43.5545980" lon="-6.8432320">
        <ele>-19.4</ele>
        <time>2021-07-22T13:17:07Z</time>
      </trkpt>
      <trkpt lat="43.5546460" lon="-6.8433760">
        <ele>-19.4</ele>
        <time>2021-07-22T13:17:10Z</time>
      </trkpt>
      <trkpt lat="43.5546630" lon="-6.8434220">
        <ele>-19.4</ele>
        <time>2021-07-22T13:17:11Z</time>
      </trkpt>
      <trkpt lat="43.5547140" lon="-6.8435640">
        <ele>-19.4</ele>
        <time>2021-07-22T13:17:14Z</time>
      </trkpt>
      <trkpt lat="43.5547910" lon="-6.8438550">
        <ele>-19.4</ele>
        <time>2021-07-22T13:17:20Z</time>
      </trkpt>
      <trkpt lat="43.5548040" lon="-6.8439050">
        <ele>-19.4</ele>
        <time>2021-07-22T13:17:21Z</time>
      </trkpt>
      <trkpt lat="43.5548410" lon="-6.8440560">
        <ele>-19.4</ele>
        <time>2021-07-22T13:17:24Z</time>
      </trkpt>
      <trkpt lat="43.5549080" lon="-6.8443600">
        <ele>-19.8</ele>
        <time>2021-07-22T13:17:30Z</time>
      </trkpt>
      <trkpt lat="43.5549190" lon="-6.8444140">
        <ele>-20.2</ele>
        <time>2021-07-22T13:17:31Z</time>
      </trkpt>
      <trkpt lat="43.5549290" lon="-6.8444720">
        <ele>-20.6</ele>
        <time>2021-07-22T13:17:32Z</time>
      </trkpt>
      <trkpt lat="43.5549400" lon="-6.8445280">
        <ele>-21.0</ele>
        <time>2021-07-22T13:17:33Z</time>
      </trkpt>
      <trkpt lat="43.5549510" lon="-6.8445870">
        <ele>-21.6</ele>
        <time>2021-07-22T13:17:34Z</time>
      </trkpt>
      <trkpt lat="43.5550180" lon="-6.8448690">
        <ele>-21.6</ele>
        <time>2021-07-22T13:17:39Z</time>
      </trkpt>
      <trkpt lat="43.5550380" lon="-6.8449230">
        <ele>-21.6</ele>
        <time>2021-07-22T13:17:40Z</time>
      </trkpt>
      <trkpt lat="43.5551660" lon="-6.8451130">
        <ele>-21.6</ele>
        <time>2021-07-22T13:17:44Z</time>
      </trkpt>
      <trkpt lat="43.5551990" lon="-6.8451590">
        <ele>-21.6</ele>
        <time>2021-07-22T13:17:45Z</time>
      </trkpt>
      <trkpt lat="43.5552300" lon="-6.8452050">
        <ele>-22.0</ele>
        <time>2021-07-22T13:17:46Z</time>
      </trkpt>
      <trkpt lat="43.5552620" lon="-6.8452510">
        <ele>-22.4</ele>
        <time>2021-07-22T13:17:47Z</time>
      </trkpt>
      <trkpt lat="43.5552870" lon="-6.8453000">
        <ele>-23.0</ele>
        <time>2021-07-22T13:17:48Z</time>
      </trkpt>
      <trkpt lat="43.5553150" lon="-6.8453410">
        <ele>-23.4</ele>
        <time>2021-07-22T13:17:49Z</time>
      </trkpt>
      <trkpt lat="43.5553380" lon="-6.8453850">
        <ele>-23.8</ele>
        <time>2021-07-22T13:17:50Z</time>
      </trkpt>
      <trkpt lat="43.5553600" lon="-6.8454290">
        <ele>-23.8</ele>
        <time>2021-07-22T13:17:51Z</time>
      </trkpt>
      <trkpt lat="43.5554790" lon="-6.8456620">
        <ele>-23.8</ele>
        <time>2021-07-22T13:17:57Z</time>
      </trkpt>
      <trkpt lat="43.5555090" lon="-6.8457180">
        <ele>-23.8</ele>
        <time>2021-07-22T13:18:01Z</time>
      </trkpt>
      <trkpt lat="43.5555100" lon="-6.8457180">
        <ele>-23.8</ele>
        <time>2021-07-22T13:18:02Z</time>
      </trkpt>
      <trkpt lat="43.5554770" lon="-6.8457030">
        <ele>-23.8</ele>
        <time>2021-07-22T13:23:21Z</time>
      </trkpt>
      <trkpt lat="43.5554440" lon="-6.8456740">
        <ele>-23.8</ele>
        <time>2021-07-22T13:23:23Z</time>
      </trkpt>
      <trkpt lat="43.5553970" lon="-6.8456320">
        <ele>-23.8</ele>
        <time>2021-07-22T13:23:25Z</time>
      </trkpt>
      <trkpt lat="43.5553490" lon="-6.8456030">
        <ele>-23.8</ele>
        <time>2021-07-22T13:23:27Z</time>
      </trkpt>
      <trkpt lat="43.5553250" lon="-6.8456100">
        <ele>-23.8</ele>
        <time>2021-07-22T13:23:28Z</time>
      </trkpt>
      <trkpt lat="43.5552970" lon="-6.8457040">
        <ele>-23.8</ele>
        <time>2021-07-22T13:23:31Z</time>
      </trkpt>
      <trkpt lat="43.5552920" lon="-6.8457410">
        <ele>-23.8</ele>
        <time>2021-07-22T13:23:32Z</time>
      </trkpt>
      <trkpt lat="43.5552440" lon="-6.8458090">
        <ele>-23.8</ele>
        <time>2021-07-22T13:23:36Z</time>
      </trkpt>
      <trkpt lat="43.5552480" lon="-6.8458040">
        <ele>-23.8</ele>
        <time>2021-07-22T13:23:38Z</time>
      </trkpt>
      <trkpt lat="43.5552250" lon="-6.8457970">
        <ele>-23.8</ele>
        <time>2021-07-22T13:24:11Z</time>
      </trkpt>
      <trkpt lat="43.5552170" lon="-6.8457940">
        <ele>-23.8</ele>
        <time>2021-07-22T13:24:12Z</time>
      </trkpt>
      <trkpt lat="43.5552190" lon="-6.8457940">
        <ele>-23.8</ele>
        <time>2021-07-22T13:24:13Z</time>
      </trkpt>
      <trkpt lat="43.5551980" lon="-6.8457800">
        <ele>-23.8</ele>
        <time>2021-07-22T13:24:16Z</time>
      </trkpt>
      <trkpt lat="43.5551620" lon="-6.8457460">
        <ele>-23.8</ele>
        <time>2021-07-22T13:24:18Z</time>
      </trkpt>
      <trkpt lat="43.5551020" lon="-6.8456360">
        <ele>-23.8</ele>
        <time>2021-07-22T13:24:21Z</time>
      </trkpt>
      <trkpt lat="43.5550850" lon="-6.8455890">
        <ele>-23.8</ele>
        <time>2021-07-22T13:24:22Z</time>
      </trkpt>
      <trkpt lat="43.5550070" lon="-6.8452750">
        <ele>-23.8</ele>
        <time>2021-07-22T13:24:28Z</time>
      </trkpt>
      <trkpt lat="43.5549140" lon="-6.8448660">
        <ele>-23.8</ele>
        <time>2021-07-22T13:24:36Z</time>
      </trkpt>
      <trkpt lat="43.5549020" lon="-6.8448170">
        <ele>-23.8</ele>
        <time>2021-07-22T13:24:37Z</time>
      </trkpt>
      <trkpt lat="43.5548580" lon="-6.8446090">
        <ele>-23.8</ele>
        <time>2021-07-22T13:24:41Z</time>
      </trkpt>
      <trkpt lat="43.5548170" lon="-6.8444080">
        <ele>-23.8</ele>
        <time>2021-07-22T13:24:45Z</time>
      </trkpt>
      <trkpt lat="43.5547710" lon="-6.8442050">
        <ele>-23.8</ele>
        <time>2021-07-22T13:24:49Z</time>
      </trkpt>
      <trkpt lat="43.5547080" lon="-6.8439470">
        <ele>-23.4</ele>
        <time>2021-07-22T13:24:54Z</time>
      </trkpt>
      <trkpt lat="43.5546980" lon="-6.8438970">
        <ele>-23.0</ele>
        <time>2021-07-22T13:24:55Z</time>
      </trkpt>
      <trkpt lat="43.5546870" lon="-6.8438480">
        <ele>-22.6</ele>
        <time>2021-07-22T13:24:56Z</time>
      </trkpt>
      <trkpt lat="43.5546730" lon="-6.8438000">
        <ele>-22.2</ele>
        <time>2021-07-22T13:24:57Z</time>
      </trkpt>
      <trkpt lat="43.5546600" lon="-6.8437530">
        <ele>-21.8</ele>
        <time>2021-07-22T13:24:58Z</time>
      </trkpt>
      <trkpt lat="43.5545660" lon="-6.8434690">
        <ele>-21.8</ele>
        <time>2021-07-22T13:25:04Z</time>
      </trkpt>
      <trkpt lat="43.5543920" lon="-6.8430000">
        <ele>-21.8</ele>
        <time>2021-07-22T13:25:14Z</time>
      </trkpt>
      <trkpt lat="43.5542700" lon="-6.8426990">
        <ele>-21.8</ele>
        <time>2021-07-22T13:25:21Z</time>
      </trkpt>
      <trkpt lat="43.5542160" lon="-6.8424510">
        <ele>-21.8</ele>
        <time>2021-07-22T13:25:26Z</time>
      </trkpt>
      <trkpt lat="43.5541780" lon="-6.8423570">
        <ele>-21.4</ele>
        <time>2021-07-22T13:25:28Z</time>
      </trkpt>
      <trkpt lat="43.5541640" lon="-6.8423120">
        <ele>-21.0</ele>
        <time>2021-07-22T13:25:29Z</time>
      </trkpt>
      <trkpt lat="43.5541620" lon="-6.8422660">
        <ele>-20.4</ele>
        <time>2021-07-22T13:25:30Z</time>
      </trkpt>
      <trkpt lat="43.5541680" lon="-6.8422210">
        <ele>-19.6</ele>
        <time>2021-07-22T13:25:31Z</time>
      </trkpt>
      <trkpt lat="43.5542610" lon="-6.8420060">
        <ele>-19.6</ele>
        <time>2021-07-22T13:25:36Z</time>
      </trkpt>
      <trkpt lat="43.5542820" lon="-6.8419530">
        <ele>-19.6</ele>
        <time>2021-07-22T13:25:37Z</time>
      </trkpt>
      <trkpt lat="43.5542780" lon="-6.8417200">
        <ele>-19.6</ele>
        <time>2021-07-22T13:25:41Z</time>
      </trkpt>
      <trkpt lat="43.5542540" lon="-6.8416180">
        <ele>-19.6</ele>
        <time>2021-07-22T13:25:43Z</time>
      </trkpt>
      <trkpt lat="43.5542290" lon="-6.8415230">
        <ele>-19.6</ele>
        <time>2021-07-22T13:25:45Z</time>
      </trkpt>
      <trkpt lat="43.5542010" lon="-6.8414440">
        <ele>-19.6</ele>
        <time>2021-07-22T13:25:47Z</time>
      </trkpt>
      <trkpt lat="43.5541760" lon="-6.8414190">
        <ele>-19.6</ele>
        <time>2021-07-22T13:25:48Z</time>
      </trkpt>
      <trkpt lat="43.5541480" lon="-6.8414110">
        <ele>-19.6</ele>
        <time>2021-07-22T13:25:49Z</time>
      </trkpt>
      <trkpt lat="43.5541160" lon="-6.8414300">
        <ele>-19.6</ele>
        <time>2021-07-22T13:25:50Z</time>
      </trkpt>
      <trkpt lat="43.5540260" lon="-6.8415110">
        <ele>-19.6</ele>
        <time>2021-07-22T13:25:53Z</time>
      </trkpt>
      <trkpt lat="43.5539740" lon="-6.8415640">
        <ele>-19.6</ele>
        <time>2021-07-22T13:25:55Z</time>
      </trkpt>
      <trkpt lat="43.5539090" lon="-6.8416370">
        <ele>-19.6</ele>
        <time>2021-07-22T13:25:58Z</time>
      </trkpt>
      <trkpt lat="43.5538240" lon="-6.8417350">
        <ele>-19.6</ele>
        <time>2021-07-22T13:26:03Z</time>
      </trkpt>
      <trkpt lat="43.5538190" lon="-6.8417430">
        <ele>-19.6</ele>
        <time>2021-07-22T13:26:06Z</time>
      </trkpt>
      <trkpt lat="43.5537870" lon="-6.8417800">
        <ele>-19.6</ele>
        <time>2021-07-22T13:28:01Z</time>
      </trkpt>
      <trkpt lat="43.5537680" lon="-6.8417920">
        <ele>-19.6</ele>
        <time>2021-07-22T13:28:02Z</time>
      </trkpt>
      <trkpt lat="43.5537240" lon="-6.8418410">
        <ele>-19.6</ele>
        <time>2021-07-22T13:28:04Z</time>
      </trkpt>
      <trkpt lat="43.5536510" lon="-6.8419090">
        <ele>-19.6</ele>
        <time>2021-07-22T13:28:06Z</time>
      </trkpt>
      <trkpt lat="43.5536190" lon="-6.8419380">
        <ele>-19.6</ele>
        <time>2021-07-22T13:28:07Z</time>
      </trkpt>
      <trkpt lat="43.5535640" lon="-6.8419920">
        <ele>-19.6</ele>
        <time>2021-07-22T13:28:09Z</time>
      </trkpt>
      <trkpt lat="43.5535110" lon="-6.8420490">
        <ele>-19.6</ele>
        <time>2021-07-22T13:28:11Z</time>
      </trkpt>
      <trkpt lat="43.5534840" lon="-6.8420840">
        <ele>-19.6</ele>
        <time>2021-07-22T13:28:12Z</time>
      </trkpt>
      <trkpt lat="43.5534030" lon="-6.8421850">
        <ele>-19.6</ele>
        <time>2021-07-22T13:28:15Z</time>
      </trkpt>
      <trkpt lat="43.5533080" lon="-6.8423370">
        <ele>-19.6</ele>
        <time>2021-07-22T13:28:19Z</time>
      </trkpt>
      <trkpt lat="43.5532110" lon="-6.8425760">
        <ele>-19.6</ele>
        <time>2021-07-22T13:28:25Z</time>
      </trkpt>
      <trkpt lat="43.5531960" lon="-6.8426180">
        <ele>-19.2</ele>
        <time>2021-07-22T13:28:26Z</time>
      </trkpt>
      <trkpt lat="43.5531790" lon="-6.8426670">
        <ele>-18.8</ele>
        <time>2021-07-22T13:28:27Z</time>
      </trkpt>
      <trkpt lat="43.5531600" lon="-6.8427200">
        <ele>-18.4</ele>
        <time>2021-07-22T13:28:28Z</time>
      </trkpt>
      <trkpt lat="43.5531430" lon="-6.8427670">
        <ele>-18.0</ele>
        <time>2021-07-22T13:28:29Z</time>
      </trkpt>
      <trkpt lat="43.5531260" lon="-6.8428160">
        <ele>-17.6</ele>
        <time>2021-07-22T13:28:30Z</time>
      </trkpt>
      <trkpt lat="43.5530860" lon="-6.8429150">
        <ele>-17.6</ele>
        <time>2021-07-22T13:28:32Z</time>
      </trkpt>
      <trkpt lat="43.5529490" lon="-6.8433350">
        <ele>-17.6</ele>
        <time>2021-07-22T13:28:40Z</time>
      </trkpt>
      <trkpt lat="43.5528640" lon="-6.8438260">
        <ele>-17.6</ele>
        <time>2021-07-22T13:28:48Z</time>
      </trkpt>
      <trkpt lat="43.5528240" lon="-6.8440610">
        <ele>-17.6</ele>
        <time>2021-07-22T13:28:52Z</time>
      </trkpt>
      <trkpt lat="43.5528040" lon="-6.8441720">
        <ele>-17.6</ele>
        <time>2021-07-22T13:28:54Z</time>
      </trkpt>
      <trkpt lat="43.5527950" lon="-6.8442260">
        <ele>-17.6</ele>
        <time>2021-07-22T13:28:55Z</time>
      </trkpt>
      <trkpt lat="43.5527870" lon="-6.8442800">
        <ele>-17.6</ele>
        <time>2021-07-22T13:28:56Z</time>
      </trkpt>
      <trkpt lat="43.5527780" lon="-6.8443330">
        <ele>-17.6</ele>
        <time>2021-07-22T13:28:57Z</time>
      </trkpt>
      <trkpt lat="43.5527610" lon="-6.8444400">
        <ele>-17.6</ele>
        <time>2021-07-22T13:28:59Z</time>
      </trkpt>
      <trkpt lat="43.5527470" lon="-6.8445440">
        <ele>-17.6</ele>
        <time>2021-07-22T13:29:01Z</time>
      </trkpt>
      <trkpt lat="43.5527260" lon="-6.8446530">
        <ele>-17.6</ele>
        <time>2021-07-22T13:29:03Z</time>
      </trkpt>
      <trkpt lat="43.5526960" lon="-6.8448400">
        <ele>-17.6</ele>
        <time>2021-07-22T13:29:06Z</time>
      </trkpt>
      <trkpt lat="43.5526910" lon="-6.8449030">
        <ele>-17.6</ele>
        <time>2021-07-22T13:29:07Z</time>
      </trkpt>
      <trkpt lat="43.5526760" lon="-6.8453010">
        <ele>-18.4</ele>
        <time>2021-07-22T13:29:13Z</time>
      </trkpt>
      <trkpt lat="43.5526760" lon="-6.8453660">
        <ele>-18.8</ele>
        <time>2021-07-22T13:29:14Z</time>
      </trkpt>
      <trkpt lat="43.5526750" lon="-6.8454300">
        <ele>-19.2</ele>
        <time>2021-07-22T13:29:15Z</time>
      </trkpt>
      <trkpt lat="43.5526730" lon="-6.8455070">
        <ele>-19.6</ele>
        <time>2021-07-22T13:29:16Z</time>
      </trkpt>
      <trkpt lat="43.5526620" lon="-6.8455780">
        <ele>-19.6</ele>
        <time>2021-07-22T13:29:17Z</time>
      </trkpt>
      <trkpt lat="43.5526110" lon="-6.8457210">
        <ele>-19.6</ele>
        <time>2021-07-22T13:29:19Z</time>
      </trkpt>
      <trkpt lat="43.5525680" lon="-6.8457900">
        <ele>-20.0</ele>
        <time>2021-07-22T13:29:20Z</time>
      </trkpt>
      <trkpt lat="43.5525230" lon="-6.8458550">
        <ele>-20.4</ele>
        <time>2021-07-22T13:29:21Z</time>
      </trkpt>
      <trkpt lat="43.5524730" lon="-6.8459170">
        <ele>-20.8</ele>
        <time>2021-07-22T13:29:22Z</time>
      </trkpt>
      <trkpt lat="43.5524170" lon="-6.8459770">
        <ele>-21.2</ele>
        <time>2021-07-22T13:29:23Z</time>
      </trkpt>
      <trkpt lat="43.5523630" lon="-6.8460370">
        <ele>-21.6</ele>
        <time>2021-07-22T13:29:24Z</time>
      </trkpt>
      <trkpt lat="43.5520860" lon="-6.8463220">
        <ele>-22.2</ele>
        <time>2021-07-22T13:29:29Z</time>
      </trkpt>
      <trkpt lat="43.5520400" lon="-6.8463800">
        <ele>-22.6</ele>
        <time>2021-07-22T13:29:30Z</time>
      </trkpt>
      <trkpt lat="43.5519990" lon="-6.8464360">
        <ele>-23.0</ele>
        <time>2021-07-22T13:29:31Z</time>
      </trkpt>
      <trkpt lat="43.5519600" lon="-6.8464930">
        <ele>-23.4</ele>
        <time>2021-07-22T13:29:32Z</time>
      </trkpt>
      <trkpt lat="43.5519290" lon="-6.8465560">
        <ele>-23.8</ele>
        <time>2021-07-22T13:29:33Z</time>
      </trkpt>
      <trkpt lat="43.5519100" lon="-6.8466250">
        <ele>-24.2</ele>
        <time>2021-07-22T13:29:34Z</time>
      </trkpt>
      <trkpt lat="43.5519060" lon="-6.8466950">
        <ele>-24.6</ele>
        <time>2021-07-22T13:29:35Z</time>
      </trkpt>
      <trkpt lat="43.5519160" lon="-6.8467720">
        <ele>-25.2</ele>
        <time>2021-07-22T13:29:36Z</time>
      </trkpt>
      <trkpt lat="43.5519310" lon="-6.8468440">
        <ele>-25.6</ele>
        <time>2021-07-22T13:29:37Z</time>
      </trkpt>
      <trkpt lat="43.5519490" lon="-6.8469180">
        <ele>-26.0</ele>
        <time>2021-07-22T13:29:38Z</time>
      </trkpt>
      <trkpt lat="43.5520750" lon="-6.8474440">
        <ele>-26.0</ele>
        <time>2021-07-22T13:29:45Z</time>
      </trkpt>
      <trkpt lat="43.5522050" lon="-6.8477900">
        <ele>-26.0</ele>
        <time>2021-07-22T13:29:50Z</time>
      </trkpt>
      <trkpt lat="43.5522390" lon="-6.8478490">
        <ele>-26.0</ele>
        <time>2021-07-22T13:29:51Z</time>
      </trkpt>
      <trkpt lat="43.5522690" lon="-6.8479040">
        <ele>-26.0</ele>
        <time>2021-07-22T13:29:52Z</time>
      </trkpt>
      <trkpt lat="43.5522980" lon="-6.8479570">
        <ele>-26.0</ele>
        <time>2021-07-22T13:29:53Z</time>
      </trkpt>
      <trkpt lat="43.5523260" lon="-6.8480100">
        <ele>-26.0</ele>
        <time>2021-07-22T13:29:54Z</time>
      </trkpt>
      <trkpt lat="43.5523520" lon="-6.8480620">
        <ele>-26.0</ele>
        <time>2021-07-22T13:29:55Z</time>
      </trkpt>
      <trkpt lat="43.5523770" lon="-6.8481100">
        <ele>-26.0</ele>
        <time>2021-07-22T13:29:56Z</time>
      </trkpt>
      <trkpt lat="43.5524010" lon="-6.8481570">
        <ele>-25.4</ele>
        <time>2021-07-22T13:29:57Z</time>
      </trkpt>
      <trkpt lat="43.5524220" lon="-6.8482020">
        <ele>-25.0</ele>
        <time>2021-07-22T13:29:58Z</time>
      </trkpt>
      <trkpt lat="43.5524440" lon="-6.8482500">
        <ele>-24.6</ele>
        <time>2021-07-22T13:29:59Z</time>
      </trkpt>
      <trkpt lat="43.5524650" lon="-6.8482950">
        <ele>-24.2</ele>
        <time>2021-07-22T13:30:00Z</time>
      </trkpt>
      <trkpt lat="43.5524860" lon="-6.8483420">
        <ele>-23.8</ele>
        <time>2021-07-22T13:30:01Z</time>
      </trkpt>
      <trkpt lat="43.5525470" lon="-6.8485700">
        <ele>-23.8</ele>
        <time>2021-07-22T13:30:05Z</time>
      </trkpt>
      <trkpt lat="43.5525880" lon="-6.8489190">
        <ele>-23.8</ele>
        <time>2021-07-22T13:30:10Z</time>
      </trkpt>
      <trkpt lat="43.5526030" lon="-6.8490140">
        <ele>-24.2</ele>
        <time>2021-07-22T13:30:12Z</time>
      </trkpt>
      <trkpt lat="43.5526130" lon="-6.8490530">
        <ele>-24.8</ele>
        <time>2021-07-22T13:30:13Z</time>
      </trkpt>
      <trkpt lat="43.5526370" lon="-6.8490910">
        <ele>-25.2</ele>
        <time>2021-07-22T13:30:14Z</time>
      </trkpt>
      <trkpt lat="43.5526630" lon="-6.8491300">
        <ele>-25.6</ele>
        <time>2021-07-22T13:30:15Z</time>
      </trkpt>
      <trkpt lat="43.5526920" lon="-6.8491680">
        <ele>-26.2</ele>
        <time>2021-07-22T13:30:16Z</time>
      </trkpt>
      <trkpt lat="43.5527230" lon="-6.8492040">
        <ele>-26.2</ele>
        <time>2021-07-22T13:30:17Z</time>
      </trkpt>
      <trkpt lat="43.5528230" lon="-6.8492890">
        <ele>-26.2</ele>
        <time>2021-07-22T13:30:20Z</time>
      </trkpt>
      <trkpt lat="43.5529380" lon="-6.8493780">
        <ele>-26.2</ele>
        <time>2021-07-22T13:30:24Z</time>
      </trkpt>
      <trkpt lat="43.5530220" lon="-6.8494380">
        <ele>-25.8</ele>
        <time>2021-07-22T13:30:27Z</time>
      </trkpt>
      <trkpt lat="43.5530480" lon="-6.8494540">
        <ele>-25.4</ele>
        <time>2021-07-22T13:30:28Z</time>
      </trkpt>
      <trkpt lat="43.5530740" lon="-6.8494700">
        <ele>-25.0</ele>
        <time>2021-07-22T13:30:29Z</time>
      </trkpt>
      <trkpt lat="43.5530980" lon="-6.8494860">
        <ele>-24.6</ele>
        <time>2021-07-22T13:30:30Z</time>
      </trkpt>
      <trkpt lat="43.5531260" lon="-6.8495040">
        <ele>-24.2</ele>
        <time>2021-07-22T13:30:31Z</time>
      </trkpt>
      <trkpt lat="43.5532140" lon="-6.8495530">
        <ele>-24.2</ele>
        <time>2021-07-22T13:30:34Z</time>
      </trkpt>
      <trkpt lat="43.5533760" lon="-6.8496320">
        <ele>-24.2</ele>
        <time>2021-07-22T13:30:39Z</time>
      </trkpt>
      <trkpt lat="43.5534080" lon="-6.8496500">
        <ele>-23.6</ele>
        <time>2021-07-22T13:30:40Z</time>
      </trkpt>
      <trkpt lat="43.5534410" lon="-6.8496690">
        <ele>-23.2</ele>
        <time>2021-07-22T13:30:41Z</time>
      </trkpt>
      <trkpt lat="43.5534730" lon="-6.8496870">
        <ele>-22.8</ele>
        <time>2021-07-22T13:30:42Z</time>
      </trkpt>
      <trkpt lat="43.5535050" lon="-6.8497060">
        <ele>-22.4</ele>
        <time>2021-07-22T13:30:43Z</time>
      </trkpt>
      <trkpt lat="43.5535370" lon="-6.8497220">
        <ele>-22.0</ele>
        <time>2021-07-22T13:30:44Z</time>
      </trkpt>
      <trkpt lat="43.5537990" lon="-6.8498880">
        <ele>-22.0</ele>
        <time>2021-07-22T13:30:52Z</time>
      </trkpt>
      <trkpt lat="43.5540450" lon="-6.8500420">
        <ele>-22.0</ele>
        <time>2021-07-22T13:30:59Z</time>
      </trkpt>
      <trkpt lat="43.5542270" lon="-6.8501360">
        <ele>-22.0</ele>
        <time>2021-07-22T13:31:03Z</time>
      </trkpt>
      <trkpt lat="43.5543160" lon="-6.8502080">
        <ele>-22.0</ele>
        <time>2021-07-22T13:31:05Z</time>
      </trkpt>
      <trkpt lat="43.5544600" lon="-6.8503460">
        <ele>-22.0</ele>
        <time>2021-07-22T13:31:08Z</time>
      </trkpt>
      <trkpt lat="43.5545560" lon="-6.8504800">
        <ele>-22.0</ele>
        <time>2021-07-22T13:31:10Z</time>
      </trkpt>
      <trkpt lat="43.5547670" lon="-6.8508210">
        <ele>-22.0</ele>
        <time>2021-07-22T13:31:14Z</time>
      </trkpt>
      <trkpt lat="43.5548770" lon="-6.8510090">
        <ele>-22.6</ele>
        <time>2021-07-22T13:31:16Z</time>
      </trkpt>
      <trkpt lat="43.5549320" lon="-6.8511030">
        <ele>-23.2</ele>
        <time>2021-07-22T13:31:17Z</time>
      </trkpt>
      <trkpt lat="43.5549850" lon="-6.8511960">
        <ele>-23.8</ele>
        <time>2021-07-22T13:31:18Z</time>
      </trkpt>
      <trkpt lat="43.5550380" lon="-6.8512850">
        <ele>-24.6</ele>
        <time>2021-07-22T13:31:19Z</time>
      </trkpt>
      <trkpt lat="43.5550880" lon="-6.8513690">
        <ele>-25.4</ele>
        <time>2021-07-22T13:31:20Z</time>
      </trkpt>
      <trkpt lat="43.5551400" lon="-6.8514500">
        <ele>-26.2</ele>
        <time>2021-07-22T13:31:21Z</time>
      </trkpt>
      <trkpt lat="43.5551910" lon="-6.8515240">
        <ele>-26.8</ele>
        <time>2021-07-22T13:31:22Z</time>
      </trkpt>
      <trkpt lat="43.5552820" lon="-6.8516690">
        <ele>-26.8</ele>
        <time>2021-07-22T13:31:24Z</time>
      </trkpt>
      <trkpt lat="43.5553210" lon="-6.8517340">
        <ele>-26.8</ele>
        <time>2021-07-22T13:31:25Z</time>
      </trkpt>
      <trkpt lat="43.5554170" lon="-6.8518880">
        <ele>-26.8</ele>
        <time>2021-07-22T13:31:28Z</time>
      </trkpt>
      <trkpt lat="43.5554640" lon="-6.8519680">
        <ele>-26.8</ele>
        <time>2021-07-22T13:31:30Z</time>
      </trkpt>
      <trkpt lat="43.5556210" lon="-6.8522260">
        <ele>-26.8</ele>
        <time>2021-07-22T13:31:37Z</time>
      </trkpt>
      <trkpt lat="43.5557860" lon="-6.8525060">
        <ele>-26.8</ele>
        <time>2021-07-22T13:31:45Z</time>
      </trkpt>
      <trkpt lat="43.5558530" lon="-6.8526000">
        <ele>-26.8</ele>
        <time>2021-07-22T13:31:48Z</time>
      </trkpt>
      <trkpt lat="43.5559100" lon="-6.8527050">
        <ele>-26.8</ele>
        <time>2021-07-22T13:31:51Z</time>
      </trkpt>
      <trkpt lat="43.5559720" lon="-6.8528110">
        <ele>-26.4</ele>
        <time>2021-07-22T13:31:54Z</time>
      </trkpt>
      <trkpt lat="43.5559910" lon="-6.8528450">
        <ele>-26.0</ele>
        <time>2021-07-22T13:31:55Z</time>
      </trkpt>
      <trkpt lat="43.5560110" lon="-6.8528770">
        <ele>-25.6</ele>
        <time>2021-07-22T13:31:56Z</time>
      </trkpt>
      <trkpt lat="43.5560310" lon="-6.8529060">
        <ele>-25.2</ele>
        <time>2021-07-22T13:31:57Z</time>
      </trkpt>
      <trkpt lat="43.5560500" lon="-6.8529350">
        <ele>-24.8</ele>
        <time>2021-07-22T13:31:58Z</time>
      </trkpt>
      <trkpt lat="43.5560650" lon="-6.8529660">
        <ele>-24.8</ele>
        <time>2021-07-22T13:31:59Z</time>
      </trkpt>
      <trkpt lat="43.5561820" lon="-6.8532310">
        <ele>-24.8</ele>
        <time>2021-07-22T13:32:06Z</time>
      </trkpt>
      <trkpt lat="43.5562350" lon="-6.8533450">
        <ele>-24.8</ele>
        <time>2021-07-22T13:32:09Z</time>
      </trkpt>
      <trkpt lat="43.5562850" lon="-6.8534690">
        <ele>-24.8</ele>
        <time>2021-07-22T13:32:12Z</time>
      </trkpt>
      <trkpt lat="43.5563000" lon="-6.8535150">
        <ele>-24.8</ele>
        <time>2021-07-22T13:32:13Z</time>
      </trkpt>
      <trkpt lat="43.5564140" lon="-6.8538810">
        <ele>-24.8</ele>
        <time>2021-07-22T13:32:20Z</time>
      </trkpt>
      <trkpt lat="43.5564940" lon="-6.8541050">
        <ele>-24.8</ele>
        <time>2021-07-22T13:32:24Z</time>
      </trkpt>
      <trkpt lat="43.5565340" lon="-6.8542660">
        <ele>-24.8</ele>
        <time>2021-07-22T13:32:27Z</time>
      </trkpt>
      <trkpt lat="43.5566350" lon="-6.8546500">
        <ele>-24.8</ele>
        <time>2021-07-22T13:32:34Z</time>
      </trkpt>
      <trkpt lat="43.5566650" lon="-6.8547580">
        <ele>-24.8</ele>
        <time>2021-07-22T13:32:36Z</time>
      </trkpt>
      <trkpt lat="43.5567110" lon="-6.8549260">
        <ele>-24.8</ele>
        <time>2021-07-22T13:32:39Z</time>
      </trkpt>
      <trkpt lat="43.5567420" lon="-6.8550450">
        <ele>-25.2</ele>
        <time>2021-07-22T13:32:41Z</time>
      </trkpt>
      <trkpt lat="43.5567600" lon="-6.8551040">
        <ele>-25.6</ele>
        <time>2021-07-22T13:32:42Z</time>
      </trkpt>
      <trkpt lat="43.5567790" lon="-6.8551620">
        <ele>-26.0</ele>
        <time>2021-07-22T13:32:43Z</time>
      </trkpt>
      <trkpt lat="43.5567970" lon="-6.8552230">
        <ele>-26.4</ele>
        <time>2021-07-22T13:32:44Z</time>
      </trkpt>
      <trkpt lat="43.5568130" lon="-6.8552860">
        <ele>-26.8</ele>
        <time>2021-07-22T13:32:45Z</time>
      </trkpt>
      <trkpt lat="43.5568310" lon="-6.8553520">
        <ele>-26.8</ele>
        <time>2021-07-22T13:32:46Z</time>
      </trkpt>
      <trkpt lat="43.5568860" lon="-6.8555430">
        <ele>-26.8</ele>
        <time>2021-07-22T13:32:49Z</time>
      </trkpt>
      <trkpt lat="43.5569620" lon="-6.8558480">
        <ele>-27.2</ele>
        <time>2021-07-22T13:32:53Z</time>
      </trkpt>
      <trkpt lat="43.5569830" lon="-6.8559380">
        <ele>-27.6</ele>
        <time>2021-07-22T13:32:54Z</time>
      </trkpt>
      <trkpt lat="43.5570020" lon="-6.8560340">
        <ele>-28.4</ele>
        <time>2021-07-22T13:32:55Z</time>
      </trkpt>
      <trkpt lat="43.5570200" lon="-6.8561310">
        <ele>-28.8</ele>
        <time>2021-07-22T13:32:56Z</time>
      </trkpt>
      <trkpt lat="43.5570610" lon="-6.8563200">
        <ele>-29.2</ele>
        <time>2021-07-22T13:32:58Z</time>
      </trkpt>
      <trkpt lat="43.5570820" lon="-6.8564120">
        <ele>-29.8</ele>
        <time>2021-07-22T13:32:59Z</time>
      </trkpt>
      <trkpt lat="43.5571040" lon="-6.8565000">
        <ele>-30.2</ele>
        <time>2021-07-22T13:33:00Z</time>
      </trkpt>
      <trkpt lat="43.5571300" lon="-6.8565890">
        <ele>-30.6</ele>
        <time>2021-07-22T13:33:01Z</time>
      </trkpt>
      <trkpt lat="43.5571530" lon="-6.8566740">
        <ele>-31.0</ele>
        <time>2021-07-22T13:33:02Z</time>
      </trkpt>
      <trkpt lat="43.5571880" lon="-6.8568320">
        <ele>-31.0</ele>
        <time>2021-07-22T13:33:04Z</time>
      </trkpt>
      <trkpt lat="43.5572280" lon="-6.8571810">
        <ele>-31.0</ele>
        <time>2021-07-22T13:33:09Z</time>
      </trkpt>
      <trkpt lat="43.5572400" lon="-6.8574200">
        <ele>-31.0</ele>
        <time>2021-07-22T13:33:14Z</time>
      </trkpt>
      <trkpt lat="43.5572710" lon="-6.8575860">
        <ele>-31.0</ele>
        <time>2021-07-22T13:33:18Z</time>
      </trkpt>
      <trkpt lat="43.5572780" lon="-6.8576370">
        <ele>-31.0</ele>
        <time>2021-07-22T13:33:19Z</time>
      </trkpt>
      <trkpt lat="43.5572810" lon="-6.8576930">
        <ele>-31.0</ele>
        <time>2021-07-22T13:33:20Z</time>
      </trkpt>
      <trkpt lat="43.5572790" lon="-6.8577440">
        <ele>-31.0</ele>
        <time>2021-07-22T13:33:21Z</time>
      </trkpt>
      <trkpt lat="43.5572710" lon="-6.8578340">
        <ele>-31.0</ele>
        <time>2021-07-22T13:33:23Z</time>
      </trkpt>
      <trkpt lat="43.5572570" lon="-6.8580480">
        <ele>-31.0</ele>
        <time>2021-07-22T13:33:29Z</time>
      </trkpt>
      <trkpt lat="43.5572660" lon="-6.8583060">
        <ele>-31.0</ele>
        <time>2021-07-22T13:33:35Z</time>
      </trkpt>
      <trkpt lat="43.5572880" lon="-6.8586230">
        <ele>-31.0</ele>
        <time>2021-07-22T13:33:41Z</time>
      </trkpt>
      <trkpt lat="43.5573100" lon="-6.8587840">
        <ele>-31.0</ele>
        <time>2021-07-22T13:33:44Z</time>
      </trkpt>
      <trkpt lat="43.5574060" lon="-6.8591000">
        <ele>-31.0</ele>
        <time>2021-07-22T13:33:51Z</time>
      </trkpt>
      <trkpt lat="43.5574640" lon="-6.8592800">
        <ele>-31.0</ele>
        <time>2021-07-22T13:33:55Z</time>
      </trkpt>
      <trkpt lat="43.5575030" lon="-6.8593750">
        <ele>-31.0</ele>
        <time>2021-07-22T13:33:57Z</time>
      </trkpt>
      <trkpt lat="43.5575210" lon="-6.8594250">
        <ele>-31.0</ele>
        <time>2021-07-22T13:33:58Z</time>
      </trkpt>
      <trkpt lat="43.5575640" lon="-6.8595170">
        <ele>-31.0</ele>
        <time>2021-07-22T13:34:00Z</time>
      </trkpt>
      <trkpt lat="43.5576570" lon="-6.8596330">
        <ele>-31.0</ele>
        <time>2021-07-22T13:34:03Z</time>
      </trkpt>
      <trkpt lat="43.5577210" lon="-6.8596890">
        <ele>-31.0</ele>
        <time>2021-07-22T13:34:05Z</time>
      </trkpt>
      <trkpt lat="43.5578310" lon="-6.8597460">
        <ele>-31.0</ele>
        <time>2021-07-22T13:34:08Z</time>
      </trkpt>
      <trkpt lat="43.5580000" lon="-6.8598780">
        <ele>-31.0</ele>
        <time>2021-07-22T13:34:13Z</time>
      </trkpt>
      <trkpt lat="43.5580640" lon="-6.8598950">
        <ele>-31.0</ele>
        <time>2021-07-22T13:34:15Z</time>
      </trkpt>
      <trkpt lat="43.5581260" lon="-6.8599120">
        <ele>-31.0</ele>
        <time>2021-07-22T13:34:19Z</time>
      </trkpt>
      <trkpt lat="43.5581420" lon="-6.8599240">
        <ele>-31.0</ele>
        <time>2021-07-22T13:34:24Z</time>
      </trkpt>
      <trkpt lat="43.5581780" lon="-6.8599550">
        <ele>-31.0</ele>
        <time>2021-07-22T13:34:26Z</time>
      </trkpt>
      <trkpt lat="43.5582220" lon="-6.8600060">
        <ele>-31.0</ele>
        <time>2021-07-22T13:34:28Z</time>
      </trkpt>
      <trkpt lat="43.5582450" lon="-6.8600440">
        <ele>-31.0</ele>
        <time>2021-07-22T13:34:29Z</time>
      </trkpt>
      <trkpt lat="43.5582650" lon="-6.8600920">
        <ele>-31.0</ele>
        <time>2021-07-22T13:34:30Z</time>
      </trkpt>
      <trkpt lat="43.5582930" lon="-6.8602070">
        <ele>-31.0</ele>
        <time>2021-07-22T13:34:32Z</time>
      </trkpt>
      <trkpt lat="43.5583060" lon="-6.8602710">
        <ele>-31.0</ele>
        <time>2021-07-22T13:34:33Z</time>
      </trkpt>
      <trkpt lat="43.5584030" lon="-6.8608150">
        <ele>-31.0</ele>
        <time>2021-07-22T13:34:41Z</time>
      </trkpt>
      <trkpt lat="43.5584180" lon="-6.8608820">
        <ele>-31.4</ele>
        <time>2021-07-22T13:34:42Z</time>
      </trkpt>
      <trkpt lat="43.5584330" lon="-6.8609520">
        <ele>-32.0</ele>
        <time>2021-07-22T13:34:43Z</time>
      </trkpt>
      <trkpt lat="43.5584460" lon="-6.8610210">
        <ele>-32.4</ele>
        <time>2021-07-22T13:34:44Z</time>
      </trkpt>
      <trkpt lat="43.5584590" lon="-6.8610910">
        <ele>-32.8</ele>
        <time>2021-07-22T13:34:45Z</time>
      </trkpt>
      <trkpt lat="43.5584740" lon="-6.8611610">
        <ele>-33.2</ele>
        <time>2021-07-22T13:34:46Z</time>
      </trkpt>
      <trkpt lat="43.5585310" lon="-6.8614400">
        <ele>-33.2</ele>
        <time>2021-07-22T13:34:50Z</time>
      </trkpt>
      <trkpt lat="43.5585780" lon="-6.8616430">
        <ele>-33.2</ele>
        <time>2021-07-22T13:34:53Z</time>
      </trkpt>
      <trkpt lat="43.5586250" lon="-6.8618440">
        <ele>-33.2</ele>
        <time>2021-07-22T13:34:56Z</time>
      </trkpt>
      <trkpt lat="43.5586910" lon="-6.8621160">
        <ele>-33.2</ele>
        <time>2021-07-22T13:35:00Z</time>
      </trkpt>
      <trkpt lat="43.5587360" lon="-6.8623480">
        <ele>-33.2</ele>
        <time>2021-07-22T13:35:03Z</time>
      </trkpt>
      <trkpt lat="43.5587530" lon="-6.8624260">
        <ele>-33.2</ele>
        <time>2021-07-22T13:35:04Z</time>
      </trkpt>
      <trkpt lat="43.5587870" lon="-6.8625830">
        <ele>-33.2</ele>
        <time>2021-07-22T13:35:06Z</time>
      </trkpt>
      <trkpt lat="43.5588030" lon="-6.8626590">
        <ele>-33.2</ele>
        <time>2021-07-22T13:35:07Z</time>
      </trkpt>
      <trkpt lat="43.5589070" lon="-6.8630790">
        <ele>-33.2</ele>
        <time>2021-07-22T13:35:13Z</time>
      </trkpt>
      <trkpt lat="43.5589510" lon="-6.8632890">
        <ele>-33.2</ele>
        <time>2021-07-22T13:35:16Z</time>
      </trkpt>
      <trkpt lat="43.5589800" lon="-6.8634320">
        <ele>-33.2</ele>
        <time>2021-07-22T13:35:18Z</time>
      </trkpt>
      <trkpt lat="43.5590250" lon="-6.8636340">
        <ele>-33.2</ele>
        <time>2021-07-22T13:35:21Z</time>
      </trkpt>
      <trkpt lat="43.5590370" lon="-6.8637010">
        <ele>-33.2</ele>
        <time>2021-07-22T13:35:22Z</time>
      </trkpt>
      <trkpt lat="43.5590660" lon="-6.8638360">
        <ele>-33.2</ele>
        <time>2021-07-22T13:35:24Z</time>
      </trkpt>
      <trkpt lat="43.5591130" lon="-6.8640340">
        <ele>-33.2</ele>
        <time>2021-07-22T13:35:27Z</time>
      </trkpt>
      <trkpt lat="43.5591520" lon="-6.8642240">
        <ele>-33.2</ele>
        <time>2021-07-22T13:35:30Z</time>
      </trkpt>
      <trkpt lat="43.5591910" lon="-6.8644110">
        <ele>-33.2</ele>
        <time>2021-07-22T13:35:33Z</time>
      </trkpt>
      <trkpt lat="43.5592300" lon="-6.8645960">
        <ele>-33.2</ele>
        <time>2021-07-22T13:35:36Z</time>
      </trkpt>
      <trkpt lat="43.5592570" lon="-6.8647180">
        <ele>-33.2</ele>
        <time>2021-07-22T13:35:38Z</time>
      </trkpt>
      <trkpt lat="43.5592860" lon="-6.8648360">
        <ele>-32.8</ele>
        <time>2021-07-22T13:35:40Z</time>
      </trkpt>
      <trkpt lat="43.5593000" lon="-6.8648980">
        <ele>-32.4</ele>
        <time>2021-07-22T13:35:41Z</time>
      </trkpt>
      <trkpt lat="43.5593110" lon="-6.8649580">
        <ele>-32.0</ele>
        <time>2021-07-22T13:35:42Z</time>
      </trkpt>
      <trkpt lat="43.5593210" lon="-6.8650190">
        <ele>-31.6</ele>
        <time>2021-07-22T13:35:43Z</time>
      </trkpt>
      <trkpt lat="43.5593320" lon="-6.8650800">
        <ele>-31.2</ele>
        <time>2021-07-22T13:35:44Z</time>
      </trkpt>
      <trkpt lat="43.5593690" lon="-6.8652630">
        <ele>-31.2</ele>
        <time>2021-07-22T13:35:47Z</time>
      </trkpt>
      <trkpt lat="43.5594750" lon="-6.8657800">
        <ele>-31.2</ele>
        <time>2021-07-22T13:35:56Z</time>
      </trkpt>
      <trkpt lat="43.5595610" lon="-6.8661580">
        <ele>-30.8</ele>
        <time>2021-07-22T13:36:03Z</time>
      </trkpt>
      <trkpt lat="43.5595740" lon="-6.8662110">
        <ele>-30.4</ele>
        <time>2021-07-22T13:36:04Z</time>
      </trkpt>
      <trkpt lat="43.5595850" lon="-6.8662650">
        <ele>-30.0</ele>
        <time>2021-07-22T13:36:05Z</time>
      </trkpt>
      <trkpt lat="43.5595970" lon="-6.8663190">
        <ele>-29.4</ele>
        <time>2021-07-22T13:36:06Z</time>
      </trkpt>
      <trkpt lat="43.5596090" lon="-6.8663720">
        <ele>-29.0</ele>
        <time>2021-07-22T13:36:07Z</time>
      </trkpt>
      <trkpt lat="43.5596830" lon="-6.8667010">
        <ele>-29.0</ele>
        <time>2021-07-22T13:36:13Z</time>
      </trkpt>
      <trkpt lat="43.5597650" lon="-6.8670910">
        <ele>-29.0</ele>
        <time>2021-07-22T13:36:20Z</time>
      </trkpt>
      <trkpt lat="43.5598670" lon="-6.8675440">
        <ele>-29.0</ele>
        <time>2021-07-22T13:36:28Z</time>
      </trkpt>
      <trkpt lat="43.5599820" lon="-6.8680650">
        <ele>-29.0</ele>
        <time>2021-07-22T13:36:37Z</time>
      </trkpt>
      <trkpt lat="43.5600540" lon="-6.8684260">
        <ele>-29.0</ele>
        <time>2021-07-22T13:36:43Z</time>
      </trkpt>
      <trkpt lat="43.5601020" lon="-6.8686630">
        <ele>-29.0</ele>
        <time>2021-07-22T13:36:47Z</time>
      </trkpt>
      <trkpt lat="43.5601830" lon="-6.8690210">
        <ele>-29.0</ele>
        <time>2021-07-22T13:36:53Z</time>
      </trkpt>
      <trkpt lat="43.5602220" lon="-6.8691840">
        <ele>-29.0</ele>
        <time>2021-07-22T13:36:56Z</time>
      </trkpt>
      <trkpt lat="43.5602450" lon="-6.8693000">
        <ele>-29.0</ele>
        <time>2021-07-22T13:36:58Z</time>
      </trkpt>
      <trkpt lat="43.5603150" lon="-6.8696590">
        <ele>-29.0</ele>
        <time>2021-07-22T13:37:04Z</time>
      </trkpt>
      <trkpt lat="43.5603870" lon="-6.8700110">
        <ele>-29.0</ele>
        <time>2021-07-22T13:37:10Z</time>
      </trkpt>
      <trkpt lat="43.5603980" lon="-6.8700700">
        <ele>-29.0</ele>
        <time>2021-07-22T13:37:11Z</time>
      </trkpt>
      <trkpt lat="43.5604750" lon="-6.8705550">
        <ele>-29.0</ele>
        <time>2021-07-22T13:37:20Z</time>
      </trkpt>
      <trkpt lat="43.5604880" lon="-6.8706450">
        <ele>-29.0</ele>
        <time>2021-07-22T13:37:22Z</time>
      </trkpt>
      <trkpt lat="43.5605080" lon="-6.8707270">
        <ele>-29.0</ele>
        <time>2021-07-22T13:37:24Z</time>
      </trkpt>
      <trkpt lat="43.5605430" lon="-6.8708510">
        <ele>-29.0</ele>
        <time>2021-07-22T13:37:27Z</time>
      </trkpt>
      <trkpt lat="43.5605630" lon="-6.8709290">
        <ele>-29.0</ele>
        <time>2021-07-22T13:37:29Z</time>
      </trkpt>
      <trkpt lat="43.5605800" lon="-6.8710060">
        <ele>-29.0</ele>
        <time>2021-07-22T13:37:31Z</time>
      </trkpt>
      <trkpt lat="43.5606200" lon="-6.8711790">
        <ele>-29.0</ele>
        <time>2021-07-22T13:37:35Z</time>
      </trkpt>
      <trkpt lat="43.5606460" lon="-6.8712680">
        <ele>-29.0</ele>
        <time>2021-07-22T13:37:37Z</time>
      </trkpt>
      <trkpt lat="43.5606890" lon="-6.8714120">
        <ele>-29.0</ele>
        <time>2021-07-22T13:37:42Z</time>
      </trkpt>
      <trkpt lat="43.5606910" lon="-6.8714140">
        <ele>-29.0</ele>
        <time>2021-07-22T13:37:43Z</time>
      </trkpt>
      <trkpt lat="43.5606910" lon="-6.8714130">
        <ele>-29.0</ele>
        <time>2021-07-22T13:39:16Z</time>
      </trkpt>
      <trkpt lat="43.5606910" lon="-6.8714570">
        <ele>-29.0</ele>
        <time>2021-07-22T13:39:18Z</time>
      </trkpt>
      <trkpt lat="43.5606700" lon="-6.8715560">
        <ele>-29.0</ele>
        <time>2021-07-22T13:39:21Z</time>
      </trkpt>
      <trkpt lat="43.5606230" lon="-6.8716240">
        <ele>-29.0</ele>
        <time>2021-07-22T13:39:23Z</time>
      </trkpt>
      <trkpt lat="43.5605170" lon="-6.8717080">
        <ele>-29.0</ele>
        <time>2021-07-22T13:39:27Z</time>
      </trkpt>
      <trkpt lat="43.5604530" lon="-6.8718660">
        <ele>-29.0</ele>
        <time>2021-07-22T13:39:32Z</time>
      </trkpt>
      <trkpt lat="43.5604340" lon="-6.8720380">
        <ele>-29.0</ele>
        <time>2021-07-22T13:39:35Z</time>
      </trkpt>
      <trkpt lat="43.5604000" lon="-6.8722340">
        <ele>-29.0</ele>
        <time>2021-07-22T13:39:38Z</time>
      </trkpt>
      <trkpt lat="43.5603470" lon="-6.8725140">
        <ele>-29.0</ele>
        <time>2021-07-22T13:39:42Z</time>
      </trkpt>
      <trkpt lat="43.5602950" lon="-6.8727310">
        <ele>-29.0</ele>
        <time>2021-07-22T13:39:45Z</time>
      </trkpt>
      <trkpt lat="43.5601510" lon="-6.8732050">
        <ele>-29.0</ele>
        <time>2021-07-22T13:39:52Z</time>
      </trkpt>
      <trkpt lat="43.5601280" lon="-6.8732680">
        <ele>-29.0</ele>
        <time>2021-07-22T13:39:53Z</time>
      </trkpt>
      <trkpt lat="43.5600260" lon="-6.8735220">
        <ele>-29.0</ele>
        <time>2021-07-22T13:39:57Z</time>
      </trkpt>
      <trkpt lat="43.5599360" lon="-6.8737080">
        <ele>-29.0</ele>
        <time>2021-07-22T13:40:00Z</time>
      </trkpt>
      <trkpt lat="43.5596090" lon="-6.8742300">
        <ele>-29.0</ele>
        <time>2021-07-22T13:40:09Z</time>
      </trkpt>
      <trkpt lat="43.5594840" lon="-6.8744050">
        <ele>-29.0</ele>
        <time>2021-07-22T13:40:12Z</time>
      </trkpt>
      <trkpt lat="43.5594390" lon="-6.8744620">
        <ele>-29.4</ele>
        <time>2021-07-22T13:40:13Z</time>
      </trkpt>
      <trkpt lat="43.5593950" lon="-6.8745170">
        <ele>-29.8</ele>
        <time>2021-07-22T13:40:14Z</time>
      </trkpt>
      <trkpt lat="43.5593450" lon="-6.8745750">
        <ele>-30.2</ele>
        <time>2021-07-22T13:40:15Z</time>
      </trkpt>
      <trkpt lat="43.5592980" lon="-6.8746320">
        <ele>-30.8</ele>
        <time>2021-07-22T13:40:16Z</time>
      </trkpt>
      <trkpt lat="43.5592490" lon="-6.8746880">
        <ele>-31.2</ele>
        <time>2021-07-22T13:40:17Z</time>
      </trkpt>
      <trkpt lat="43.5591970" lon="-6.8747430">
        <ele>-31.2</ele>
        <time>2021-07-22T13:40:18Z</time>
      </trkpt>
      <trkpt lat="43.5590250" lon="-6.8749010">
        <ele>-31.2</ele>
        <time>2021-07-22T13:40:21Z</time>
      </trkpt>
      <trkpt lat="43.5589600" lon="-6.8749560">
        <ele>-31.6</ele>
        <time>2021-07-22T13:40:22Z</time>
      </trkpt>
      <trkpt lat="43.5588960" lon="-6.8750110">
        <ele>-32.0</ele>
        <time>2021-07-22T13:40:23Z</time>
      </trkpt>
      <trkpt lat="43.5588330" lon="-6.8750660">
        <ele>-32.4</ele>
        <time>2021-07-22T13:40:24Z</time>
      </trkpt>
      <trkpt lat="43.5587670" lon="-6.8751190">
        <ele>-32.8</ele>
        <time>2021-07-22T13:40:25Z</time>
      </trkpt>
      <trkpt lat="43.5587000" lon="-6.8751710">
        <ele>-33.2</ele>
        <time>2021-07-22T13:40:26Z</time>
      </trkpt>
      <trkpt lat="43.5584840" lon="-6.8753180">
        <ele>-33.2</ele>
        <time>2021-07-22T13:40:29Z</time>
      </trkpt>
      <trkpt lat="43.5584070" lon="-6.8753710">
        <ele>-33.6</ele>
        <time>2021-07-22T13:40:30Z</time>
      </trkpt>
      <trkpt lat="43.5583330" lon="-6.8754220">
        <ele>-34.0</ele>
        <time>2021-07-22T13:40:31Z</time>
      </trkpt>
      <trkpt lat="43.5582590" lon="-6.8754760">
        <ele>-34.6</ele>
        <time>2021-07-22T13:40:32Z</time>
      </trkpt>
      <trkpt lat="43.5581850" lon="-6.8755290">
        <ele>-35.0</ele>
        <time>2021-07-22T13:40:33Z</time>
      </trkpt>
      <trkpt lat="43.5581100" lon="-6.8755840">
        <ele>-35.4</ele>
        <time>2021-07-22T13:40:34Z</time>
      </trkpt>
      <trkpt lat="43.5580360" lon="-6.8756410">
        <ele>-35.4</ele>
        <time>2021-07-22T13:40:35Z</time>
      </trkpt>
      <trkpt lat="43.5578830" lon="-6.8757690">
        <ele>-35.8</ele>
        <time>2021-07-22T13:40:37Z</time>
      </trkpt>
      <trkpt lat="43.5578090" lon="-6.8758360">
        <ele>-36.4</ele>
        <time>2021-07-22T13:40:38Z</time>
      </trkpt>
      <trkpt lat="43.5577370" lon="-6.8759050">
        <ele>-36.8</ele>
        <time>2021-07-22T13:40:39Z</time>
      </trkpt>
      <trkpt lat="43.5576630" lon="-6.8759760">
        <ele>-37.2</ele>
        <time>2021-07-22T13:40:40Z</time>
      </trkpt>
      <trkpt lat="43.5575900" lon="-6.8760500">
        <ele>-37.6</ele>
        <time>2021-07-22T13:40:41Z</time>
      </trkpt>
      <trkpt lat="43.5575190" lon="-6.8761260">
        <ele>-38.2</ele>
        <time>2021-07-22T13:40:42Z</time>
      </trkpt>
      <trkpt lat="43.5574540" lon="-6.8762130">
        <ele>-38.6</ele>
        <time>2021-07-22T13:40:43Z</time>
      </trkpt>
      <trkpt lat="43.5573890" lon="-6.8763130">
        <ele>-39.2</ele>
        <time>2021-07-22T13:40:44Z</time>
      </trkpt>
      <trkpt lat="43.5573290" lon="-6.8764100">
        <ele>-39.6</ele>
        <time>2021-07-22T13:40:45Z</time>
      </trkpt>
      <trkpt lat="43.5572130" lon="-6.8766060">
        <ele>-40.2</ele>
        <time>2021-07-22T13:40:47Z</time>
      </trkpt>
      <trkpt lat="43.5571550" lon="-6.8767030">
        <ele>-40.6</ele>
        <time>2021-07-22T13:40:48Z</time>
      </trkpt>
      <trkpt lat="43.5571010" lon="-6.8768010">
        <ele>-41.0</ele>
        <time>2021-07-22T13:40:49Z</time>
      </trkpt>
      <trkpt lat="43.5570440" lon="-6.8768990">
        <ele>-41.6</ele>
        <time>2021-07-22T13:40:50Z</time>
      </trkpt>
      <trkpt lat="43.5569890" lon="-6.8769930">
        <ele>-42.2</ele>
        <time>2021-07-22T13:40:51Z</time>
      </trkpt>
      <trkpt lat="43.5569290" lon="-6.8770970">
        <ele>-42.6</ele>
        <time>2021-07-22T13:40:52Z</time>
      </trkpt>
      <trkpt lat="43.5568740" lon="-6.8771930">
        <ele>-43.2</ele>
        <time>2021-07-22T13:40:53Z</time>
      </trkpt>
      <trkpt lat="43.5568160" lon="-6.8772910">
        <ele>-43.8</ele>
        <time>2021-07-22T13:40:54Z</time>
      </trkpt>
      <trkpt lat="43.5567590" lon="-6.8773870">
        <ele>-44.4</ele>
        <time>2021-07-22T13:40:55Z</time>
      </trkpt>
      <trkpt lat="43.5566480" lon="-6.8775750">
        <ele>-44.8</ele>
        <time>2021-07-22T13:40:57Z</time>
      </trkpt>
      <trkpt lat="43.5565980" lon="-6.8776630">
        <ele>-45.2</ele>
        <time>2021-07-22T13:40:58Z</time>
      </trkpt>
      <trkpt lat="43.5565530" lon="-6.8777480">
        <ele>-45.6</ele>
        <time>2021-07-22T13:40:59Z</time>
      </trkpt>
      <trkpt lat="43.5565110" lon="-6.8778210">
        <ele>-46.2</ele>
        <time>2021-07-22T13:41:00Z</time>
      </trkpt>
      <trkpt lat="43.5564690" lon="-6.8778920">
        <ele>-46.8</ele>
        <time>2021-07-22T13:41:01Z</time>
      </trkpt>
      <trkpt lat="43.5564250" lon="-6.8779630">
        <ele>-47.4</ele>
        <time>2021-07-22T13:41:02Z</time>
      </trkpt>
      <trkpt lat="43.5563810" lon="-6.8780360">
        <ele>-48.0</ele>
        <time>2021-07-22T13:41:03Z</time>
      </trkpt>
      <trkpt lat="43.5563400" lon="-6.8781110">
        <ele>-48.6</ele>
        <time>2021-07-22T13:41:04Z</time>
      </trkpt>
      <trkpt lat="43.5563030" lon="-6.8781760">
        <ele>-48.6</ele>
        <time>2021-07-22T13:41:05Z</time>
      </trkpt>
      <trkpt lat="43.5562710" lon="-6.8782350">
        <ele>-49.0</ele>
        <time>2021-07-22T13:41:06Z</time>
      </trkpt>
      <trkpt lat="43.5562350" lon="-6.8782980">
        <ele>-49.6</ele>
        <time>2021-07-22T13:41:07Z</time>
      </trkpt>
      <trkpt lat="43.5561980" lon="-6.8783620">
        <ele>-50.0</ele>
        <time>2021-07-22T13:41:08Z</time>
      </trkpt>
      <trkpt lat="43.5561600" lon="-6.8784290">
        <ele>-50.8</ele>
        <time>2021-07-22T13:41:09Z</time>
      </trkpt>
      <trkpt lat="43.5561210" lon="-6.8784960">
        <ele>-51.2</ele>
        <time>2021-07-22T13:41:10Z</time>
      </trkpt>
      <trkpt lat="43.5560820" lon="-6.8785640">
        <ele>-51.8</ele>
        <time>2021-07-22T13:41:11Z</time>
      </trkpt>
      <trkpt lat="43.5560420" lon="-6.8786350">
        <ele>-52.2</ele>
        <time>2021-07-22T13:41:12Z</time>
      </trkpt>
      <trkpt lat="43.5560000" lon="-6.8787070">
        <ele>-52.6</ele>
        <time>2021-07-22T13:41:13Z</time>
      </trkpt>
      <trkpt lat="43.5559550" lon="-6.8787850">
        <ele>-53.0</ele>
        <time>2021-07-22T13:41:14Z</time>
      </trkpt>
      <trkpt lat="43.5558200" lon="-6.8790120">
        <ele>-53.0</ele>
        <time>2021-07-22T13:41:17Z</time>
      </trkpt>
      <trkpt lat="43.5557750" lon="-6.8790910">
        <ele>-53.6</ele>
        <time>2021-07-22T13:41:18Z</time>
      </trkpt>
      <trkpt lat="43.5557290" lon="-6.8791700">
        <ele>-54.0</ele>
        <time>2021-07-22T13:41:19Z</time>
      </trkpt>
      <trkpt lat="43.5556820" lon="-6.8792500">
        <ele>-54.4</ele>
        <time>2021-07-22T13:41:20Z</time>
      </trkpt>
      <trkpt lat="43.5556360" lon="-6.8793300">
        <ele>-54.8</ele>
        <time>2021-07-22T13:41:21Z</time>
      </trkpt>
      <trkpt lat="43.5555870" lon="-6.8794140">
        <ele>-55.2</ele>
        <time>2021-07-22T13:41:22Z</time>
      </trkpt>
      <trkpt lat="43.5552650" lon="-6.8799770">
        <ele>-55.2</ele>
        <time>2021-07-22T13:41:29Z</time>
      </trkpt>
      <trkpt lat="43.5552210" lon="-6.8800540">
        <ele>-55.6</ele>
        <time>2021-07-22T13:41:30Z</time>
      </trkpt>
      <trkpt lat="43.5551780" lon="-6.8801310">
        <ele>-56.0</ele>
        <time>2021-07-22T13:41:31Z</time>
      </trkpt>
      <trkpt lat="43.5551350" lon="-6.8802090">
        <ele>-56.4</ele>
        <time>2021-07-22T13:41:32Z</time>
      </trkpt>
      <trkpt lat="43.5550920" lon="-6.8802850">
        <ele>-56.8</ele>
        <time>2021-07-22T13:41:33Z</time>
      </trkpt>
      <trkpt lat="43.5550510" lon="-6.8803590">
        <ele>-57.2</ele>
        <time>2021-07-22T13:41:34Z</time>
      </trkpt>
      <trkpt lat="43.5548970" lon="-6.8806600">
        <ele>-57.2</ele>
        <time>2021-07-22T13:41:38Z</time>
      </trkpt>
      <trkpt lat="43.5547610" lon="-6.8809670">
        <ele>-57.2</ele>
        <time>2021-07-22T13:41:42Z</time>
      </trkpt>
      <trkpt lat="43.5547300" lon="-6.8810490">
        <ele>-57.2</ele>
        <time>2021-07-22T13:41:43Z</time>
      </trkpt>
      <trkpt lat="43.5546720" lon="-6.8812160">
        <ele>-57.2</ele>
        <time>2021-07-22T13:41:45Z</time>
      </trkpt>
      <trkpt lat="43.5546440" lon="-6.8812950">
        <ele>-57.2</ele>
        <time>2021-07-22T13:41:46Z</time>
      </trkpt>
      <trkpt lat="43.5546200" lon="-6.8813760">
        <ele>-57.2</ele>
        <time>2021-07-22T13:41:47Z</time>
      </trkpt>
      <trkpt lat="43.5545980" lon="-6.8814570">
        <ele>-57.2</ele>
        <time>2021-07-22T13:41:48Z</time>
      </trkpt>
      <trkpt lat="43.5545590" lon="-6.8816200">
        <ele>-57.2</ele>
        <time>2021-07-22T13:41:50Z</time>
      </trkpt>
      <trkpt lat="43.5545210" lon="-6.8817820">
        <ele>-57.2</ele>
        <time>2021-07-22T13:41:52Z</time>
      </trkpt>
      <trkpt lat="43.5544960" lon="-6.8819400">
        <ele>-57.2</ele>
        <time>2021-07-22T13:41:54Z</time>
      </trkpt>
      <trkpt lat="43.5544650" lon="-6.8821600">
        <ele>-57.2</ele>
        <time>2021-07-22T13:41:57Z</time>
      </trkpt>
      <trkpt lat="43.5544580" lon="-6.8822290">
        <ele>-57.2</ele>
        <time>2021-07-22T13:41:58Z</time>
      </trkpt>
      <trkpt lat="43.5544500" lon="-6.8823690">
        <ele>-57.2</ele>
        <time>2021-07-22T13:42:00Z</time>
      </trkpt>
      <trkpt lat="43.5544420" lon="-6.8825650">
        <ele>-57.2</ele>
        <time>2021-07-22T13:42:03Z</time>
      </trkpt>
      <trkpt lat="43.5544430" lon="-6.8826890">
        <ele>-57.2</ele>
        <time>2021-07-22T13:42:05Z</time>
      </trkpt>
      <trkpt lat="43.5544500" lon="-6.8829250">
        <ele>-57.2</ele>
        <time>2021-07-22T13:42:09Z</time>
      </trkpt>
      <trkpt lat="43.5544770" lon="-6.8831420">
        <ele>-57.2</ele>
        <time>2021-07-22T13:42:13Z</time>
      </trkpt>
      <trkpt lat="43.5544910" lon="-6.8832460">
        <ele>-56.8</ele>
        <time>2021-07-22T13:42:15Z</time>
      </trkpt>
      <trkpt lat="43.5544960" lon="-6.8832930">
        <ele>-56.4</ele>
        <time>2021-07-22T13:42:16Z</time>
      </trkpt>
      <trkpt lat="43.5545030" lon="-6.8833420">
        <ele>-56.0</ele>
        <time>2021-07-22T13:42:17Z</time>
      </trkpt>
      <trkpt lat="43.5545090" lon="-6.8833920">
        <ele>-55.6</ele>
        <time>2021-07-22T13:42:18Z</time>
      </trkpt>
      <trkpt lat="43.5545170" lon="-6.8834390">
        <ele>-55.2</ele>
        <time>2021-07-22T13:42:19Z</time>
      </trkpt>
      <trkpt lat="43.5545270" lon="-6.8834820">
        <ele>-55.2</ele>
        <time>2021-07-22T13:42:20Z</time>
      </trkpt>
      <trkpt lat="43.5545800" lon="-6.8837300">
        <ele>-54.6</ele>
        <time>2021-07-22T13:42:26Z</time>
      </trkpt>
      <trkpt lat="43.5545910" lon="-6.8837690">
        <ele>-54.2</ele>
        <time>2021-07-22T13:42:27Z</time>
      </trkpt>
      <trkpt lat="43.5546050" lon="-6.8838090">
        <ele>-53.8</ele>
        <time>2021-07-22T13:42:28Z</time>
      </trkpt>
      <trkpt lat="43.5546150" lon="-6.8838520">
        <ele>-53.4</ele>
        <time>2021-07-22T13:42:29Z</time>
      </trkpt>
      <trkpt lat="43.5546270" lon="-6.8838900">
        <ele>-53.0</ele>
        <time>2021-07-22T13:42:30Z</time>
      </trkpt>
      <trkpt lat="43.5547270" lon="-6.8841920">
        <ele>-53.0</ele>
        <time>2021-07-22T13:42:38Z</time>
      </trkpt>
      <trkpt lat="43.5547740" lon="-6.8843430">
        <ele>-52.6</ele>
        <time>2021-07-22T13:42:42Z</time>
      </trkpt>
      <trkpt lat="43.5547890" lon="-6.8843800">
        <ele>-52.2</ele>
        <time>2021-07-22T13:42:43Z</time>
      </trkpt>
      <trkpt lat="43.5548010" lon="-6.8844170">
        <ele>-51.8</ele>
        <time>2021-07-22T13:42:44Z</time>
      </trkpt>
      <trkpt lat="43.5548170" lon="-6.8844570">
        <ele>-51.4</ele>
        <time>2021-07-22T13:42:45Z</time>
      </trkpt>
      <trkpt lat="43.5548320" lon="-6.8844940">
        <ele>-50.8</ele>
        <time>2021-07-22T13:42:46Z</time>
      </trkpt>
      <trkpt lat="43.5549810" lon="-6.8848150">
        <ele>-50.4</ele>
        <time>2021-07-22T13:42:55Z</time>
      </trkpt>
      <trkpt lat="43.5550010" lon="-6.8848480">
        <ele>-50.0</ele>
        <time>2021-07-22T13:42:56Z</time>
      </trkpt>
      <trkpt lat="43.5550210" lon="-6.8848800">
        <ele>-49.6</ele>
        <time>2021-07-22T13:42:57Z</time>
      </trkpt>
      <trkpt lat="43.5550400" lon="-6.8849130">
        <ele>-49.2</ele>
        <time>2021-07-22T13:42:58Z</time>
      </trkpt>
      <trkpt lat="43.5550620" lon="-6.8849470">
        <ele>-48.8</ele>
        <time>2021-07-22T13:42:59Z</time>
      </trkpt>
      <trkpt lat="43.5551400" lon="-6.8850760">
        <ele>-48.8</ele>
        <time>2021-07-22T13:43:03Z</time>
      </trkpt>
      <trkpt lat="43.5552200" lon="-6.8852050">
        <ele>-48.4</ele>
        <time>2021-07-22T13:43:07Z</time>
      </trkpt>
      <trkpt lat="43.5552420" lon="-6.8852360">
        <ele>-48.0</ele>
        <time>2021-07-22T13:43:08Z</time>
      </trkpt>
      <trkpt lat="43.5552640" lon="-6.8852700">
        <ele>-47.6</ele>
        <time>2021-07-22T13:43:09Z</time>
      </trkpt>
      <trkpt lat="43.5552880" lon="-6.8853000">
        <ele>-47.2</ele>
        <time>2021-07-22T13:43:10Z</time>
      </trkpt>
      <trkpt lat="43.5553100" lon="-6.8853280">
        <ele>-46.8</ele>
        <time>2021-07-22T13:43:11Z</time>
      </trkpt>
      <trkpt lat="43.5555290" lon="-6.8855640">
        <ele>-46.8</ele>
        <time>2021-07-22T13:43:20Z</time>
      </trkpt>
      <trkpt lat="43.5555770" lon="-6.8856140">
        <ele>-46.4</ele>
        <time>2021-07-22T13:43:22Z</time>
      </trkpt>
      <trkpt lat="43.5556010" lon="-6.8856360">
        <ele>-46.0</ele>
        <time>2021-07-22T13:43:23Z</time>
      </trkpt>
      <trkpt lat="43.5556250" lon="-6.8856580">
        <ele>-45.6</ele>
        <time>2021-07-22T13:43:24Z</time>
      </trkpt>
      <trkpt lat="43.5556480" lon="-6.8856770">
        <ele>-45.0</ele>
        <time>2021-07-22T13:43:25Z</time>
      </trkpt>
      <trkpt lat="43.5556710" lon="-6.8856970">
        <ele>-44.6</ele>
        <time>2021-07-22T13:43:26Z</time>
      </trkpt>
      <trkpt lat="43.5557200" lon="-6.8857350">
        <ele>-44.6</ele>
        <time>2021-07-22T13:43:28Z</time>
      </trkpt>
      <trkpt lat="43.5558680" lon="-6.8858410">
        <ele>-44.6</ele>
        <time>2021-07-22T13:43:34Z</time>
      </trkpt>
      <trkpt lat="43.5559190" lon="-6.8858720">
        <ele>-44.2</ele>
        <time>2021-07-22T13:43:36Z</time>
      </trkpt>
      <trkpt lat="43.5559470" lon="-6.8858870">
        <ele>-43.8</ele>
        <time>2021-07-22T13:43:37Z</time>
      </trkpt>
      <trkpt lat="43.5559710" lon="-6.8859050">
        <ele>-42.8</ele>
        <time>2021-07-22T13:43:38Z</time>
      </trkpt>
      <trkpt lat="43.5559910" lon="-6.8859280">
        <ele>-42.2</ele>
        <time>2021-07-22T13:43:39Z</time>
      </trkpt>
      <trkpt lat="43.5560110" lon="-6.8859470">
        <ele>-42.2</ele>
        <time>2021-07-22T13:43:40Z</time>
      </trkpt>
      <trkpt lat="43.5561860" lon="-6.8860680">
        <ele>-42.2</ele>
        <time>2021-07-22T13:43:48Z</time>
      </trkpt>
      <trkpt lat="43.5562800" lon="-6.8861140">
        <ele>-41.8</ele>
        <time>2021-07-22T13:43:52Z</time>
      </trkpt>
      <trkpt lat="43.5563030" lon="-6.8861280">
        <ele>-41.4</ele>
        <time>2021-07-22T13:43:53Z</time>
      </trkpt>
      <trkpt lat="43.5563240" lon="-6.8861440">
        <ele>-41.0</ele>
        <time>2021-07-22T13:43:54Z</time>
      </trkpt>
      <trkpt lat="43.5563430" lon="-6.8861620">
        <ele>-40.6</ele>
        <time>2021-07-22T13:43:55Z</time>
      </trkpt>
      <trkpt lat="43.5563630" lon="-6.8861760">
        <ele>-40.2</ele>
        <time>2021-07-22T13:43:56Z</time>
      </trkpt>
      <trkpt lat="43.5564830" lon="-6.8862650">
        <ele>-40.2</ele>
        <time>2021-07-22T13:44:01Z</time>
      </trkpt>
      <trkpt lat="43.5566550" lon="-6.8863790">
        <ele>-39.8</ele>
        <time>2021-07-22T13:44:08Z</time>
      </trkpt>
      <trkpt lat="43.5566770" lon="-6.8863980">
        <ele>-39.4</ele>
        <time>2021-07-22T13:44:09Z</time>
      </trkpt>
      <trkpt lat="43.5567010" lon="-6.8864140">
        <ele>-38.8</ele>
        <time>2021-07-22T13:44:10Z</time>
      </trkpt>
      <trkpt lat="43.5567240" lon="-6.8864260">
        <ele>-38.4</ele>
        <time>2021-07-22T13:44:11Z</time>
      </trkpt>
      <trkpt lat="43.5567460" lon="-6.8864430">
        <ele>-38.0</ele>
        <time>2021-07-22T13:44:12Z</time>
      </trkpt>
      <trkpt lat="43.5568360" lon="-6.8865280">
        <ele>-38.0</ele>
        <time>2021-07-22T13:44:16Z</time>
      </trkpt>
      <trkpt lat="43.5569890" lon="-6.8866720">
        <ele>-37.6</ele>
        <time>2021-07-22T13:44:23Z</time>
      </trkpt>
      <trkpt lat="43.5570110" lon="-6.8866920">
        <ele>-37.2</ele>
        <time>2021-07-22T13:44:24Z</time>
      </trkpt>
      <trkpt lat="43.5570310" lon="-6.8867140">
        <ele>-36.8</ele>
        <time>2021-07-22T13:44:25Z</time>
      </trkpt>
      <trkpt lat="43.5570520" lon="-6.8867390">
        <ele>-36.4</ele>
        <time>2021-07-22T13:44:26Z</time>
      </trkpt>
      <trkpt lat="43.5570730" lon="-6.8867620">
        <ele>-36.0</ele>
        <time>2021-07-22T13:44:27Z</time>
      </trkpt>
      <trkpt lat="43.5571970" lon="-6.8869140">
        <ele>-36.0</ele>
        <time>2021-07-22T13:44:33Z</time>
      </trkpt>
      <trkpt lat="43.5573280" lon="-6.8870970">
        <ele>-35.6</ele>
        <time>2021-07-22T13:44:40Z</time>
      </trkpt>
      <trkpt lat="43.5573460" lon="-6.8871240">
        <ele>-35.2</ele>
        <time>2021-07-22T13:44:41Z</time>
      </trkpt>
      <trkpt lat="43.5573640" lon="-6.8871490">
        <ele>-34.8</ele>
        <time>2021-07-22T13:44:42Z</time>
      </trkpt>
      <trkpt lat="43.5573780" lon="-6.8871810">
        <ele>-34.2</ele>
        <time>2021-07-22T13:44:43Z</time>
      </trkpt>
      <trkpt lat="43.5573940" lon="-6.8872130">
        <ele>-33.8</ele>
        <time>2021-07-22T13:44:44Z</time>
      </trkpt>
      <trkpt lat="43.5574420" lon="-6.8873430">
        <ele>-33.8</ele>
        <time>2021-07-22T13:44:48Z</time>
      </trkpt>
      <trkpt lat="43.5575330" lon="-6.8875830">
        <ele>-33.4</ele>
        <time>2021-07-22T13:44:55Z</time>
      </trkpt>
      <trkpt lat="43.5575480" lon="-6.8876160">
        <ele>-33.0</ele>
        <time>2021-07-22T13:44:56Z</time>
      </trkpt>
      <trkpt lat="43.5575610" lon="-6.8876490">
        <ele>-32.6</ele>
        <time>2021-07-22T13:44:57Z</time>
      </trkpt>
      <trkpt lat="43.5575710" lon="-6.8876830">
        <ele>-32.2</ele>
        <time>2021-07-22T13:44:58Z</time>
      </trkpt>
      <trkpt lat="43.5575840" lon="-6.8877120">
        <ele>-31.8</ele>
        <time>2021-07-22T13:44:59Z</time>
      </trkpt>
      <trkpt lat="43.5576110" lon="-6.8878160">
        <ele>-31.8</ele>
        <time>2021-07-22T13:45:02Z</time>
      </trkpt>
      <trkpt lat="43.5576840" lon="-6.8881270">
        <ele>-31.4</ele>
        <time>2021-07-22T13:45:11Z</time>
      </trkpt>
      <trkpt lat="43.5576890" lon="-6.8881640">
        <ele>-31.0</ele>
        <time>2021-07-22T13:45:12Z</time>
      </trkpt>
      <trkpt lat="43.5576980" lon="-6.8881990">
        <ele>-30.6</ele>
        <time>2021-07-22T13:45:13Z</time>
      </trkpt>
      <trkpt lat="43.5577050" lon="-6.8882350">
        <ele>-30.2</ele>
        <time>2021-07-22T13:45:14Z</time>
      </trkpt>
      <trkpt lat="43.5577140" lon="-6.8882730">
        <ele>-29.8</ele>
        <time>2021-07-22T13:45:15Z</time>
      </trkpt>
      <trkpt lat="43.5577410" lon="-6.8883750">
        <ele>-29.8</ele>
        <time>2021-07-22T13:45:18Z</time>
      </trkpt>
      <trkpt lat="43.5578000" lon="-6.8886490">
        <ele>-29.8</ele>
        <time>2021-07-22T13:45:26Z</time>
      </trkpt>
      <trkpt lat="43.5578070" lon="-6.8886860">
        <ele>-29.4</ele>
        <time>2021-07-22T13:45:27Z</time>
      </trkpt>
      <trkpt lat="43.5578170" lon="-6.8887210">
        <ele>-29.0</ele>
        <time>2021-07-22T13:45:28Z</time>
      </trkpt>
      <trkpt lat="43.5578210" lon="-6.8887570">
        <ele>-28.6</ele>
        <time>2021-07-22T13:45:29Z</time>
      </trkpt>
      <trkpt lat="43.5578280" lon="-6.8887940">
        <ele>-28.0</ele>
        <time>2021-07-22T13:45:30Z</time>
      </trkpt>
      <trkpt lat="43.5578350" lon="-6.8888280">
        <ele>-27.6</ele>
        <time>2021-07-22T13:45:31Z</time>
      </trkpt>
      <trkpt lat="43.5578460" lon="-6.8889030">
        <ele>-27.6</ele>
        <time>2021-07-22T13:45:33Z</time>
      </trkpt>
      <trkpt lat="43.5578860" lon="-6.8890840">
        <ele>-27.6</ele>
        <time>2021-07-22T13:45:39Z</time>
      </trkpt>
      <trkpt lat="43.5578940" lon="-6.8891020">
        <ele>-27.6</ele>
        <time>2021-07-22T13:45:40Z</time>
      </trkpt>
      <trkpt lat="43.5579020" lon="-6.8891090">
        <ele>-27.6</ele>
        <time>2021-07-22T13:45:41Z</time>
      </trkpt>
      <trkpt lat="43.5579050" lon="-6.8891080">
        <ele>-27.6</ele>
        <time>2021-07-22T13:45:42Z</time>
      </trkpt>
      <trkpt lat="43.5579350" lon="-6.8891060">
        <ele>-27.6</ele>
        <time>2021-07-22T13:45:47Z</time>
      </trkpt>
      <trkpt lat="43.5579510" lon="-6.8891030">
        <ele>-27.6</ele>
        <time>2021-07-22T13:45:48Z</time>
      </trkpt>
      <trkpt lat="43.5579900" lon="-6.8890990">
        <ele>-27.6</ele>
        <time>2021-07-22T13:45:52Z</time>
      </trkpt>
      <trkpt lat="43.5579950" lon="-6.8890610">
        <ele>-27.6</ele>
        <time>2021-07-22T13:46:10Z</time>
      </trkpt>
      <trkpt lat="43.5580060" lon="-6.8890510">
        <ele>-27.6</ele>
        <time>2021-07-22T13:46:11Z</time>
      </trkpt>
      <trkpt lat="43.5580150" lon="-6.8890440">
        <ele>-27.6</ele>
        <time>2021-07-22T13:46:13Z</time>
      </trkpt>
      <trkpt lat="43.5580490" lon="-6.8890870">
        <ele>-27.6</ele>
        <time>2021-07-22T13:50:05Z</time>
      </trkpt>
      <trkpt lat="43.5580810" lon="-6.8891550">
        <ele>-27.6</ele>
        <time>2021-07-22T13:50:08Z</time>
      </trkpt>
      <trkpt lat="43.5581160" lon="-6.8892530">
        <ele>-27.6</ele>
        <time>2021-07-22T13:50:11Z</time>
      </trkpt>
      <trkpt lat="43.5581480" lon="-6.8893570">
        <ele>-27.6</ele>
        <time>2021-07-22T13:50:15Z</time>
      </trkpt>
      <trkpt lat="43.5581480" lon="-6.8893770">
        <ele>-27.6</ele>
        <time>2021-07-22T13:50:17Z</time>
      </trkpt>
      <trkpt lat="43.5581490" lon="-6.8893830">
        <ele>-27.6</ele>
        <time>2021-07-22T13:50:18Z</time>
      </trkpt>
      <trkpt lat="43.5581550" lon="-6.8894660">
        <ele>-27.6</ele>
        <time>2021-07-22T13:51:14Z</time>
      </trkpt>
      <trkpt lat="43.5581590" lon="-6.8894870">
        <ele>-27.6</ele>
        <time>2021-07-22T13:51:15Z</time>
      </trkpt>
      <trkpt lat="43.5581670" lon="-6.8895160">
        <ele>-27.6</ele>
        <time>2021-07-22T13:51:16Z</time>
      </trkpt>
      <trkpt lat="43.5582370" lon="-6.8897210">
        <ele>-27.2</ele>
        <time>2021-07-22T13:51:22Z</time>
      </trkpt>
      <trkpt lat="43.5582490" lon="-6.8897550">
        <ele>-26.8</ele>
        <time>2021-07-22T13:51:23Z</time>
      </trkpt>
      <trkpt lat="43.5582620" lon="-6.8897870">
        <ele>-26.4</ele>
        <time>2021-07-22T13:51:24Z</time>
      </trkpt>
      <trkpt lat="43.5582750" lon="-6.8898200">
        <ele>-25.8</ele>
        <time>2021-07-22T13:51:25Z</time>
      </trkpt>
      <trkpt lat="43.5582880" lon="-6.8898560">
        <ele>-25.4</ele>
        <time>2021-07-22T13:51:26Z</time>
      </trkpt>
      <trkpt lat="43.5583120" lon="-6.8899210">
        <ele>-25.4</ele>
        <time>2021-07-22T13:51:28Z</time>
      </trkpt>
      <trkpt lat="43.5583570" lon="-6.8900150">
        <ele>-25.4</ele>
        <time>2021-07-22T13:51:31Z</time>
      </trkpt>
      <trkpt lat="43.5583740" lon="-6.8900470">
        <ele>-25.4</ele>
        <time>2021-07-22T13:51:32Z</time>
      </trkpt>
      <trkpt lat="43.5584380" lon="-6.8901820">
        <ele>-25.4</ele>
        <time>2021-07-22T13:51:36Z</time>
      </trkpt>
      <trkpt lat="43.5584830" lon="-6.8902810">
        <ele>-25.4</ele>
        <time>2021-07-22T13:51:39Z</time>
      </trkpt>
      <trkpt lat="43.5585010" lon="-6.8903120">
        <ele>-25.0</ele>
        <time>2021-07-22T13:51:40Z</time>
      </trkpt>
      <trkpt lat="43.5585170" lon="-6.8903440">
        <ele>-24.6</ele>
        <time>2021-07-22T13:51:41Z</time>
      </trkpt>
      <trkpt lat="43.5585330" lon="-6.8903740">
        <ele>-24.2</ele>
        <time>2021-07-22T13:51:42Z</time>
      </trkpt>
      <trkpt lat="43.5585500" lon="-6.8904030">
        <ele>-23.8</ele>
        <time>2021-07-22T13:51:43Z</time>
      </trkpt>
      <trkpt lat="43.5585660" lon="-6.8904320">
        <ele>-23.4</ele>
        <time>2021-07-22T13:51:44Z</time>
      </trkpt>
      <trkpt lat="43.5587160" lon="-6.8906710">
        <ele>-23.4</ele>
        <time>2021-07-22T13:51:52Z</time>
      </trkpt>
      <trkpt lat="43.5588280" lon="-6.8908920">
        <ele>-23.4</ele>
        <time>2021-07-22T13:51:57Z</time>
      </trkpt>
      <trkpt lat="43.5588870" lon="-6.8910650">
        <ele>-23.4</ele>
        <time>2021-07-22T13:52:00Z</time>
      </trkpt>
      <trkpt lat="43.5589110" lon="-6.8912460">
        <ele>-23.4</ele>
        <time>2021-07-22T13:52:03Z</time>
      </trkpt>
      <trkpt lat="43.5589200" lon="-6.8913110">
        <ele>-23.4</ele>
        <time>2021-07-22T13:52:04Z</time>
      </trkpt>
      <trkpt lat="43.5589470" lon="-6.8914490">
        <ele>-23.4</ele>
        <time>2021-07-22T13:52:06Z</time>
      </trkpt>
      <trkpt lat="43.5589620" lon="-6.8915120">
        <ele>-23.8</ele>
        <time>2021-07-22T13:52:07Z</time>
      </trkpt>
      <trkpt lat="43.5589790" lon="-6.8915790">
        <ele>-24.4</ele>
        <time>2021-07-22T13:52:08Z</time>
      </trkpt>
      <trkpt lat="43.5589960" lon="-6.8916470">
        <ele>-24.8</ele>
        <time>2021-07-22T13:52:09Z</time>
      </trkpt>
      <trkpt lat="43.5590170" lon="-6.8917200">
        <ele>-25.2</ele>
        <time>2021-07-22T13:52:10Z</time>
      </trkpt>
      <trkpt lat="43.5590390" lon="-6.8917860">
        <ele>-25.8</ele>
        <time>2021-07-22T13:52:11Z</time>
      </trkpt>
      <trkpt lat="43.5590580" lon="-6.8918440">
        <ele>-26.2</ele>
        <time>2021-07-22T13:52:12Z</time>
      </trkpt>
      <trkpt lat="43.5590790" lon="-6.8918970">
        <ele>-26.6</ele>
        <time>2021-07-22T13:52:13Z</time>
      </trkpt>
      <trkpt lat="43.5590890" lon="-6.8919370">
        <ele>-27.0</ele>
        <time>2021-07-22T13:52:14Z</time>
      </trkpt>
      <trkpt lat="43.5591010" lon="-6.8919790">
        <ele>-27.4</ele>
        <time>2021-07-22T13:52:15Z</time>
      </trkpt>
      <trkpt lat="43.5591080" lon="-6.8920220">
        <ele>-28.0</ele>
        <time>2021-07-22T13:52:16Z</time>
      </trkpt>
      <trkpt lat="43.5591340" lon="-6.8922650">
        <ele>-28.0</ele>
        <time>2021-07-22T13:52:21Z</time>
      </trkpt>
      <trkpt lat="43.5591180" lon="-6.8924390">
        <ele>-28.0</ele>
        <time>2021-07-22T13:52:25Z</time>
      </trkpt>
      <trkpt lat="43.5590950" lon="-6.8926520">
        <ele>-28.0</ele>
        <time>2021-07-22T13:52:30Z</time>
      </trkpt>
      <trkpt lat="43.5590870" lon="-6.8927350">
        <ele>-28.0</ele>
        <time>2021-07-22T13:52:32Z</time>
      </trkpt>
      <trkpt lat="43.5590860" lon="-6.8927770">
        <ele>-28.0</ele>
        <time>2021-07-22T13:52:33Z</time>
      </trkpt>
      <trkpt lat="43.5590830" lon="-6.8928540">
        <ele>-28.0</ele>
        <time>2021-07-22T13:52:35Z</time>
      </trkpt>
      <trkpt lat="43.5590730" lon="-6.8930060">
        <ele>-28.0</ele>
        <time>2021-07-22T13:52:39Z</time>
      </trkpt>
      <trkpt lat="43.5590620" lon="-6.8931240">
        <ele>-28.0</ele>
        <time>2021-07-22T13:52:42Z</time>
      </trkpt>
      <trkpt lat="43.5590390" lon="-6.8932390">
        <ele>-28.0</ele>
        <time>2021-07-22T13:52:45Z</time>
      </trkpt>
      <trkpt lat="43.5590230" lon="-6.8933110">
        <ele>-27.6</ele>
        <time>2021-07-22T13:52:47Z</time>
      </trkpt>
      <trkpt lat="43.5590150" lon="-6.8933490">
        <ele>-27.0</ele>
        <time>2021-07-22T13:52:48Z</time>
      </trkpt>
      <trkpt lat="43.5590110" lon="-6.8933840">
        <ele>-26.6</ele>
        <time>2021-07-22T13:52:49Z</time>
      </trkpt>
      <trkpt lat="43.5590010" lon="-6.8934200">
        <ele>-26.2</ele>
        <time>2021-07-22T13:52:50Z</time>
      </trkpt>
      <trkpt lat="43.5589900" lon="-6.8934570">
        <ele>-25.8</ele>
        <time>2021-07-22T13:52:51Z</time>
      </trkpt>
      <trkpt lat="43.5589540" lon="-6.8936490">
        <ele>-25.8</ele>
        <time>2021-07-22T13:52:56Z</time>
      </trkpt>
      <trkpt lat="43.5589430" lon="-6.8937220">
        <ele>-25.8</ele>
        <time>2021-07-22T13:52:58Z</time>
      </trkpt>
      <trkpt lat="43.5588960" lon="-6.8939710">
        <ele>-25.4</ele>
        <time>2021-07-22T13:53:05Z</time>
      </trkpt>
      <trkpt lat="43.5588880" lon="-6.8940060">
        <ele>-24.6</ele>
        <time>2021-07-22T13:53:06Z</time>
      </trkpt>
      <trkpt lat="43.5588840" lon="-6.8940410">
        <ele>-24.2</ele>
        <time>2021-07-22T13:53:07Z</time>
      </trkpt>
      <trkpt lat="43.5588780" lon="-6.8940790">
        <ele>-23.8</ele>
        <time>2021-07-22T13:53:08Z</time>
      </trkpt>
      <trkpt lat="43.5588450" lon="-6.8943290">
        <ele>-23.8</ele>
        <time>2021-07-22T13:53:15Z</time>
      </trkpt>
      <trkpt lat="43.5588300" lon="-6.8945000">
        <ele>-23.4</ele>
        <time>2021-07-22T13:53:20Z</time>
      </trkpt>
      <trkpt lat="43.5588280" lon="-6.8945370">
        <ele>-23.0</ele>
        <time>2021-07-22T13:53:21Z</time>
      </trkpt>
      <trkpt lat="43.5588300" lon="-6.8945760">
        <ele>-22.6</ele>
        <time>2021-07-22T13:53:22Z</time>
      </trkpt>
      <trkpt lat="43.5588280" lon="-6.8946160">
        <ele>-22.2</ele>
        <time>2021-07-22T13:53:23Z</time>
      </trkpt>
      <trkpt lat="43.5588270" lon="-6.8946590">
        <ele>-21.8</ele>
        <time>2021-07-22T13:53:24Z</time>
      </trkpt>
      <trkpt lat="43.5588150" lon="-6.8948330">
        <ele>-21.8</ele>
        <time>2021-07-22T13:53:28Z</time>
      </trkpt>
      <trkpt lat="43.5587950" lon="-6.8949280">
        <ele>-21.8</ele>
        <time>2021-07-22T13:53:30Z</time>
      </trkpt>
      <trkpt lat="43.5587760" lon="-6.8950800">
        <ele>-21.8</ele>
        <time>2021-07-22T13:53:33Z</time>
      </trkpt>
      <trkpt lat="43.5587690" lon="-6.8952430">
        <ele>-21.8</ele>
        <time>2021-07-22T13:53:36Z</time>
      </trkpt>
      <trkpt lat="43.5587710" lon="-6.8952930">
        <ele>-21.8</ele>
        <time>2021-07-22T13:53:37Z</time>
      </trkpt>
      <trkpt lat="43.5587750" lon="-6.8953460">
        <ele>-21.8</ele>
        <time>2021-07-22T13:53:38Z</time>
      </trkpt>
      <trkpt lat="43.5588210" lon="-6.8955940">
        <ele>-21.8</ele>
        <time>2021-07-22T13:53:43Z</time>
      </trkpt>
      <trkpt lat="43.5588360" lon="-6.8956790">
        <ele>-21.8</ele>
        <time>2021-07-22T13:53:45Z</time>
      </trkpt>
      <trkpt lat="43.5588890" lon="-6.8959130">
        <ele>-21.8</ele>
        <time>2021-07-22T13:53:50Z</time>
      </trkpt>
      <trkpt lat="43.5589390" lon="-6.8961740">
        <ele>-21.8</ele>
        <time>2021-07-22T13:53:57Z</time>
      </trkpt>
      <trkpt lat="43.5589590" lon="-6.8963200">
        <ele>-21.8</ele>
        <time>2021-07-22T13:54:04Z</time>
      </trkpt>
      <trkpt lat="43.5590060" lon="-6.8964670">
        <ele>-21.8</ele>
        <time>2021-07-22T13:54:09Z</time>
      </trkpt>
      <trkpt lat="43.5590730" lon="-6.8968040">
        <ele>-21.8</ele>
        <time>2021-07-22T13:54:16Z</time>
      </trkpt>
      <trkpt lat="43.5591060" lon="-6.8970590">
        <ele>-21.8</ele>
        <time>2021-07-22T13:54:21Z</time>
      </trkpt>
      <trkpt lat="43.5591260" lon="-6.8972420">
        <ele>-21.8</ele>
        <time>2021-07-22T13:54:25Z</time>
      </trkpt>
      <trkpt lat="43.5591410" lon="-6.8974650">
        <ele>-21.8</ele>
        <time>2021-07-22T13:54:30Z</time>
      </trkpt>
      <trkpt lat="43.5591570" lon="-6.8976260">
        <ele>-21.8</ele>
        <time>2021-07-22T13:54:34Z</time>
      </trkpt>
      <trkpt lat="43.5591730" lon="-6.8979400">
        <ele>-21.8</ele>
        <time>2021-07-22T13:54:42Z</time>
      </trkpt>
      <trkpt lat="43.5591640" lon="-6.8981140">
        <ele>-21.8</ele>
        <time>2021-07-22T13:54:46Z</time>
      </trkpt>
      <trkpt lat="43.5591880" lon="-6.8982710">
        <ele>-21.8</ele>
        <time>2021-07-22T13:54:50Z</time>
      </trkpt>
      <trkpt lat="43.5591910" lon="-6.8983990">
        <ele>-21.8</ele>
        <time>2021-07-22T13:54:54Z</time>
      </trkpt>
      <trkpt lat="43.5591730" lon="-6.8984210">
        <ele>-21.8</ele>
        <time>2021-07-22T13:54:55Z</time>
      </trkpt>
      <trkpt lat="43.5591440" lon="-6.8984370">
        <ele>-21.8</ele>
        <time>2021-07-22T13:54:57Z</time>
      </trkpt>
      <trkpt lat="43.5591470" lon="-6.8984330">
        <ele>-21.8</ele>
        <time>2021-07-22T13:54:58Z</time>
      </trkpt>
      <trkpt lat="43.5591630" lon="-6.8983510">
        <ele>-21.8</ele>
        <time>2021-07-22T13:55:51Z</time>
      </trkpt>
      <trkpt lat="43.5592540" lon="-6.8983410">
        <ele>-21.8</ele>
        <time>2021-07-22T13:55:55Z</time>
      </trkpt>
      <trkpt lat="43.5593410" lon="-6.8984740">
        <ele>-21.8</ele>
        <time>2021-07-22T13:55:59Z</time>
      </trkpt>
      <trkpt lat="43.5593620" lon="-6.8985180">
        <ele>-21.8</ele>
        <time>2021-07-22T13:56:00Z</time>
      </trkpt>
      <trkpt lat="43.5594250" lon="-6.8986840">
        <ele>-21.8</ele>
        <time>2021-07-22T13:56:03Z</time>
      </trkpt>
      <trkpt lat="43.5594600" lon="-6.8988020">
        <ele>-21.8</ele>
        <time>2021-07-22T13:56:05Z</time>
      </trkpt>
      <trkpt lat="43.5595120" lon="-6.8989870">
        <ele>-21.8</ele>
        <time>2021-07-22T13:56:08Z</time>
      </trkpt>
      <trkpt lat="43.5595700" lon="-6.8992190">
        <ele>-21.8</ele>
        <time>2021-07-22T13:56:12Z</time>
      </trkpt>
      <trkpt lat="43.5596280" lon="-6.8995820">
        <ele>-21.8</ele>
        <time>2021-07-22T13:56:19Z</time>
      </trkpt>
      <trkpt lat="43.5597000" lon="-6.8999460">
        <ele>-21.8</ele>
        <time>2021-07-22T13:56:26Z</time>
      </trkpt>
      <trkpt lat="43.5597180" lon="-6.9001130">
        <ele>-21.8</ele>
        <time>2021-07-22T13:56:29Z</time>
      </trkpt>
      <trkpt lat="43.5597350" lon="-6.9002180">
        <ele>-21.8</ele>
        <time>2021-07-22T13:56:31Z</time>
      </trkpt>
      <trkpt lat="43.5597570" lon="-6.9004410">
        <ele>-21.8</ele>
        <time>2021-07-22T13:56:35Z</time>
      </trkpt>
      <trkpt lat="43.5597880" lon="-6.9006600">
        <ele>-21.8</ele>
        <time>2021-07-22T13:56:39Z</time>
      </trkpt>
      <trkpt lat="43.5598060" lon="-6.9008240">
        <ele>-21.8</ele>
        <time>2021-07-22T13:56:42Z</time>
      </trkpt>
      <trkpt lat="43.5598140" lon="-6.9008780">
        <ele>-21.8</ele>
        <time>2021-07-22T13:56:43Z</time>
      </trkpt>
      <trkpt lat="43.5598260" lon="-6.9010430">
        <ele>-21.8</ele>
        <time>2021-07-22T13:56:46Z</time>
      </trkpt>
      <trkpt lat="43.5598410" lon="-6.9012730">
        <ele>-21.8</ele>
        <time>2021-07-22T13:56:50Z</time>
      </trkpt>
      <trkpt lat="43.5598430" lon="-6.9013920">
        <ele>-21.8</ele>
        <time>2021-07-22T13:56:52Z</time>
      </trkpt>
      <trkpt lat="43.5598130" lon="-6.9016670">
        <ele>-21.8</ele>
        <time>2021-07-22T13:56:57Z</time>
      </trkpt>
      <trkpt lat="43.5597410" lon="-6.9019880">
        <ele>-21.8</ele>
        <time>2021-07-22T13:57:03Z</time>
      </trkpt>
      <trkpt lat="43.5597220" lon="-6.9020860">
        <ele>-21.8</ele>
        <time>2021-07-22T13:57:05Z</time>
      </trkpt>
      <trkpt lat="43.5596440" lon="-6.9024620">
        <ele>-21.8</ele>
        <time>2021-07-22T13:57:13Z</time>
      </trkpt>
      <trkpt lat="43.5596380" lon="-6.9025040">
        <ele>-21.8</ele>
        <time>2021-07-22T13:57:14Z</time>
      </trkpt>
      <trkpt lat="43.5596350" lon="-6.9025400">
        <ele>-21.8</ele>
        <time>2021-07-22T13:57:15Z</time>
      </trkpt>
      <trkpt lat="43.5596230" lon="-6.9026450">
        <ele>-21.8</ele>
        <time>2021-07-22T13:57:18Z</time>
      </trkpt>
      <trkpt lat="43.5596110" lon="-6.9027040">
        <ele>-21.8</ele>
        <time>2021-07-22T13:57:20Z</time>
      </trkpt>
      <trkpt lat="43.5596000" lon="-6.9027340">
        <ele>-21.8</ele>
        <time>2021-07-22T13:57:21Z</time>
      </trkpt>
      <trkpt lat="43.5594860" lon="-6.9028880">
        <ele>-21.8</ele>
        <time>2021-07-22T13:57:27Z</time>
      </trkpt>
      <trkpt lat="43.5594380" lon="-6.9031050">
        <ele>-21.8</ele>
        <time>2021-07-22T13:57:32Z</time>
      </trkpt>
      <trkpt lat="43.5595420" lon="-6.9032580">
        <ele>-21.8</ele>
        <time>2021-07-22T13:57:36Z</time>
      </trkpt>
      <trkpt lat="43.5597120" lon="-6.9034980">
        <ele>-21.8</ele>
        <time>2021-07-22T13:57:43Z</time>
      </trkpt>
      <trkpt lat="43.5597880" lon="-6.9036230">
        <ele>-21.8</ele>
        <time>2021-07-22T13:57:46Z</time>
      </trkpt>
      <trkpt lat="43.5598410" lon="-6.9037000">
        <ele>-21.8</ele>
        <time>2021-07-22T13:57:48Z</time>
      </trkpt>
      <trkpt lat="43.5598670" lon="-6.9037380">
        <ele>-21.8</ele>
        <time>2021-07-22T13:57:49Z</time>
      </trkpt>
      <trkpt lat="43.5599690" lon="-6.9038790">
        <ele>-21.8</ele>
        <time>2021-07-22T13:57:53Z</time>
      </trkpt>
      <trkpt lat="43.5600230" lon="-6.9039400">
        <ele>-21.8</ele>
        <time>2021-07-22T13:57:55Z</time>
      </trkpt>
      <trkpt lat="43.5600480" lon="-6.9039730">
        <ele>-21.8</ele>
        <time>2021-07-22T13:57:56Z</time>
      </trkpt>
      <trkpt lat="43.5602320" lon="-6.9041660">
        <ele>-21.8</ele>
        <time>2021-07-22T13:58:03Z</time>
      </trkpt>
      <trkpt lat="43.5602630" lon="-6.9041950">
        <ele>-21.8</ele>
        <time>2021-07-22T13:58:04Z</time>
      </trkpt>
      <trkpt lat="43.5604180" lon="-6.9043020">
        <ele>-21.8</ele>
        <time>2021-07-22T13:58:08Z</time>
      </trkpt>
      <trkpt lat="43.5605170" lon="-6.9043930">
        <ele>-21.8</ele>
        <time>2021-07-22T13:58:11Z</time>
      </trkpt>
      <trkpt lat="43.5605720" lon="-6.9044740">
        <ele>-21.8</ele>
        <time>2021-07-22T13:58:13Z</time>
      </trkpt>
      <trkpt lat="43.5606440" lon="-6.9046330">
        <ele>-21.8</ele>
        <time>2021-07-22T13:58:16Z</time>
      </trkpt>
      <trkpt lat="43.5606630" lon="-6.9046920">
        <ele>-22.2</ele>
        <time>2021-07-22T13:58:17Z</time>
      </trkpt>
      <trkpt lat="43.5606800" lon="-6.9047550">
        <ele>-22.6</ele>
        <time>2021-07-22T13:58:18Z</time>
      </trkpt>
      <trkpt lat="43.5606940" lon="-6.9048210">
        <ele>-23.0</ele>
        <time>2021-07-22T13:58:19Z</time>
      </trkpt>
      <trkpt lat="43.5607060" lon="-6.9048920">
        <ele>-23.4</ele>
        <time>2021-07-22T13:58:20Z</time>
      </trkpt>
      <trkpt lat="43.5607130" lon="-6.9049700">
        <ele>-23.8</ele>
        <time>2021-07-22T13:58:21Z</time>
      </trkpt>
      <trkpt lat="43.5607140" lon="-6.9050460">
        <ele>-23.8</ele>
        <time>2021-07-22T13:58:22Z</time>
      </trkpt>
      <trkpt lat="43.5607000" lon="-6.9053420">
        <ele>-24.2</ele>
        <time>2021-07-22T13:58:26Z</time>
      </trkpt>
      <trkpt lat="43.5607040" lon="-6.9054130">
        <ele>-25.0</ele>
        <time>2021-07-22T13:58:27Z</time>
      </trkpt>
      <trkpt lat="43.5607090" lon="-6.9054850">
        <ele>-25.4</ele>
        <time>2021-07-22T13:58:28Z</time>
      </trkpt>
      <trkpt lat="43.5607160" lon="-6.9055630">
        <ele>-25.8</ele>
        <time>2021-07-22T13:58:29Z</time>
      </trkpt>
      <trkpt lat="43.5607720" lon="-6.9059610">
        <ele>-25.8</ele>
        <time>2021-07-22T13:58:34Z</time>
      </trkpt>
      <trkpt lat="43.5607830" lon="-6.9060490">
        <ele>-25.8</ele>
        <time>2021-07-22T13:58:35Z</time>
      </trkpt>
      <trkpt lat="43.5608450" lon="-6.9064250">
        <ele>-26.2</ele>
        <time>2021-07-22T13:58:39Z</time>
      </trkpt>
      <trkpt lat="43.5608600" lon="-6.9065200">
        <ele>-26.8</ele>
        <time>2021-07-22T13:58:40Z</time>
      </trkpt>
      <trkpt lat="43.5608740" lon="-6.9066180">
        <ele>-27.2</ele>
        <time>2021-07-22T13:58:41Z</time>
      </trkpt>
      <trkpt lat="43.5608880" lon="-6.9067130">
        <ele>-27.8</ele>
        <time>2021-07-22T13:58:42Z</time>
      </trkpt>
      <trkpt lat="43.5609010" lon="-6.9068080">
        <ele>-28.2</ele>
        <time>2021-07-22T13:58:43Z</time>
      </trkpt>
      <trkpt lat="43.5609290" lon="-6.9069950">
        <ele>-28.6</ele>
        <time>2021-07-22T13:58:45Z</time>
      </trkpt>
      <trkpt lat="43.5609440" lon="-6.9070820">
        <ele>-29.0</ele>
        <time>2021-07-22T13:58:46Z</time>
      </trkpt>
      <trkpt lat="43.5609580" lon="-6.9071640">
        <ele>-29.6</ele>
        <time>2021-07-22T13:58:47Z</time>
      </trkpt>
      <trkpt lat="43.5609700" lon="-6.9072440">
        <ele>-30.0</ele>
        <time>2021-07-22T13:58:48Z</time>
      </trkpt>
      <trkpt lat="43.5609830" lon="-6.9073200">
        <ele>-30.4</ele>
        <time>2021-07-22T13:58:49Z</time>
      </trkpt>
      <trkpt lat="43.5610200" lon="-6.9075440">
        <ele>-30.4</ele>
        <time>2021-07-22T13:58:52Z</time>
      </trkpt>
      <trkpt lat="43.5610460" lon="-6.9077060">
        <ele>-30.4</ele>
        <time>2021-07-22T13:58:54Z</time>
      </trkpt>
      <trkpt lat="43.5610580" lon="-6.9077880">
        <ele>-30.4</ele>
        <time>2021-07-22T13:58:55Z</time>
      </trkpt>
      <trkpt lat="43.5610810" lon="-6.9079550">
        <ele>-30.4</ele>
        <time>2021-07-22T13:58:57Z</time>
      </trkpt>
      <trkpt lat="43.5611060" lon="-6.9081180">
        <ele>-30.4</ele>
        <time>2021-07-22T13:58:59Z</time>
      </trkpt>
      <trkpt lat="43.5611230" lon="-6.9081980">
        <ele>-30.4</ele>
        <time>2021-07-22T13:59:00Z</time>
      </trkpt>
      <trkpt lat="43.5611340" lon="-6.9082740">
        <ele>-30.4</ele>
        <time>2021-07-22T13:59:01Z</time>
      </trkpt>
      <trkpt lat="43.5611540" lon="-6.9084250">
        <ele>-30.4</ele>
        <time>2021-07-22T13:59:03Z</time>
      </trkpt>
      <trkpt lat="43.5611890" lon="-6.9086460">
        <ele>-30.4</ele>
        <time>2021-07-22T13:59:06Z</time>
      </trkpt>
      <trkpt lat="43.5612130" lon="-6.9087930">
        <ele>-30.4</ele>
        <time>2021-07-22T13:59:08Z</time>
      </trkpt>
      <trkpt lat="43.5612430" lon="-6.9089920">
        <ele>-30.4</ele>
        <time>2021-07-22T13:59:11Z</time>
      </trkpt>
      <trkpt lat="43.5612510" lon="-6.9090490">
        <ele>-30.4</ele>
        <time>2021-07-22T13:59:12Z</time>
      </trkpt>
      <trkpt lat="43.5612960" lon="-6.9093420">
        <ele>-30.4</ele>
        <time>2021-07-22T13:59:17Z</time>
      </trkpt>
      <trkpt lat="43.5613310" lon="-6.9095750">
        <ele>-30.0</ele>
        <time>2021-07-22T13:59:21Z</time>
      </trkpt>
      <trkpt lat="43.5613390" lon="-6.9096340">
        <ele>-29.6</ele>
        <time>2021-07-22T13:59:22Z</time>
      </trkpt>
      <trkpt lat="43.5613470" lon="-6.9096890">
        <ele>-29.2</ele>
        <time>2021-07-22T13:59:23Z</time>
      </trkpt>
      <trkpt lat="43.5613530" lon="-6.9097450">
        <ele>-28.8</ele>
        <time>2021-07-22T13:59:24Z</time>
      </trkpt>
      <trkpt lat="43.5613600" lon="-6.9097990">
        <ele>-28.4</ele>
        <time>2021-07-22T13:59:25Z</time>
      </trkpt>
      <trkpt lat="43.5613970" lon="-6.9100210">
        <ele>-28.4</ele>
        <time>2021-07-22T13:59:29Z</time>
      </trkpt>
      <trkpt lat="43.5614090" lon="-6.9101380">
        <ele>-28.4</ele>
        <time>2021-07-22T13:59:31Z</time>
      </trkpt>
      <trkpt lat="43.5614550" lon="-6.9104170">
        <ele>-28.4</ele>
        <time>2021-07-22T13:59:36Z</time>
      </trkpt>
      <trkpt lat="43.5614910" lon="-6.9106550">
        <ele>-28.4</ele>
        <time>2021-07-22T13:59:40Z</time>
      </trkpt>
      <trkpt lat="43.5615430" lon="-6.9110800">
        <ele>-28.4</ele>
        <time>2021-07-22T13:59:47Z</time>
      </trkpt>
      <trkpt lat="43.5616040" lon="-6.9115140">
        <ele>-28.4</ele>
        <time>2021-07-22T13:59:54Z</time>
      </trkpt>
      <trkpt lat="43.5616140" lon="-6.9115780">
        <ele>-28.4</ele>
        <time>2021-07-22T13:59:55Z</time>
      </trkpt>
      <trkpt lat="43.5616350" lon="-6.9117070">
        <ele>-28.4</ele>
        <time>2021-07-22T13:59:57Z</time>
      </trkpt>
      <trkpt lat="43.5616560" lon="-6.9118410">
        <ele>-28.4</ele>
        <time>2021-07-22T13:59:59Z</time>
      </trkpt>
      <trkpt lat="43.5616760" lon="-6.9119770">
        <ele>-28.4</ele>
        <time>2021-07-22T14:00:01Z</time>
      </trkpt>
      <trkpt lat="43.5617140" lon="-6.9122350">
        <ele>-28.4</ele>
        <time>2021-07-22T14:00:05Z</time>
      </trkpt>
      <trkpt lat="43.5617350" lon="-6.9124410">
        <ele>-28.4</ele>
        <time>2021-07-22T14:00:08Z</time>
      </trkpt>
      <trkpt lat="43.5617680" lon="-6.9127510">
        <ele>-28.4</ele>
        <time>2021-07-22T14:00:13Z</time>
      </trkpt>
      <trkpt lat="43.5617940" lon="-6.9133130">
        <ele>-28.4</ele>
        <time>2021-07-22T14:00:22Z</time>
      </trkpt>
      <trkpt lat="43.5617920" lon="-6.9137220">
        <ele>-28.4</ele>
        <time>2021-07-22T14:00:29Z</time>
      </trkpt>
      <trkpt lat="43.5617300" lon="-6.9141570">
        <ele>-28.4</ele>
        <time>2021-07-22T14:00:36Z</time>
      </trkpt>
      <trkpt lat="43.5616640" lon="-6.9144080">
        <ele>-28.4</ele>
        <time>2021-07-22T14:00:41Z</time>
      </trkpt>
      <trkpt lat="43.5616510" lon="-6.9144600">
        <ele>-28.4</ele>
        <time>2021-07-22T14:00:42Z</time>
      </trkpt>
      <trkpt lat="43.5615810" lon="-6.9147450">
        <ele>-28.4</ele>
        <time>2021-07-22T14:00:48Z</time>
      </trkpt>
      <trkpt lat="43.5615560" lon="-6.9148420">
        <ele>-28.4</ele>
        <time>2021-07-22T14:00:50Z</time>
      </trkpt>
      <trkpt lat="43.5615130" lon="-6.9150070">
        <ele>-28.4</ele>
        <time>2021-07-22T14:00:53Z</time>
      </trkpt>
      <trkpt lat="43.5614560" lon="-6.9152250">
        <ele>-28.4</ele>
        <time>2021-07-22T14:00:57Z</time>
      </trkpt>
      <trkpt lat="43.5614200" lon="-6.9153800">
        <ele>-28.4</ele>
        <time>2021-07-22T14:01:00Z</time>
      </trkpt>
      <trkpt lat="43.5613990" lon="-6.9154740">
        <ele>-28.4</ele>
        <time>2021-07-22T14:01:02Z</time>
      </trkpt>
      <trkpt lat="43.5613700" lon="-6.9156630">
        <ele>-28.4</ele>
        <time>2021-07-22T14:01:06Z</time>
      </trkpt>
      <trkpt lat="43.5613460" lon="-6.9158240">
        <ele>-28.4</ele>
        <time>2021-07-22T14:01:09Z</time>
      </trkpt>
      <trkpt lat="43.5613710" lon="-6.9160050">
        <ele>-28.4</ele>
        <time>2021-07-22T14:01:12Z</time>
      </trkpt>
      <trkpt lat="43.5614050" lon="-6.9161260">
        <ele>-28.4</ele>
        <time>2021-07-22T14:01:14Z</time>
      </trkpt>
      <trkpt lat="43.5614770" lon="-6.9164130">
        <ele>-28.4</ele>
        <time>2021-07-22T14:01:19Z</time>
      </trkpt>
      <trkpt lat="43.5615360" lon="-6.9165750">
        <ele>-28.4</ele>
        <time>2021-07-22T14:01:22Z</time>
      </trkpt>
      <trkpt lat="43.5616130" lon="-6.9167120">
        <ele>-28.4</ele>
        <time>2021-07-22T14:01:25Z</time>
      </trkpt>
      <trkpt lat="43.5616420" lon="-6.9167560">
        <ele>-28.4</ele>
        <time>2021-07-22T14:01:26Z</time>
      </trkpt>
      <trkpt lat="43.5617050" lon="-6.9168410">
        <ele>-28.4</ele>
        <time>2021-07-22T14:01:28Z</time>
      </trkpt>
      <trkpt lat="43.5617920" lon="-6.9169740">
        <ele>-28.8</ele>
        <time>2021-07-22T14:01:31Z</time>
      </trkpt>
      <trkpt lat="43.5618160" lon="-6.9170210">
        <ele>-29.2</ele>
        <time>2021-07-22T14:01:32Z</time>
      </trkpt>
      <trkpt lat="43.5618400" lon="-6.9170700">
        <ele>-29.6</ele>
        <time>2021-07-22T14:01:33Z</time>
      </trkpt>
      <trkpt lat="43.5618620" lon="-6.9171210">
        <ele>-30.0</ele>
        <time>2021-07-22T14:01:34Z</time>
      </trkpt>
      <trkpt lat="43.5618840" lon="-6.9171750">
        <ele>-30.4</ele>
        <time>2021-07-22T14:01:35Z</time>
      </trkpt>
      <trkpt lat="43.5619540" lon="-6.9173240">
        <ele>-30.4</ele>
        <time>2021-07-22T14:01:38Z</time>
      </trkpt>
      <trkpt lat="43.5620790" lon="-6.9175590">
        <ele>-30.4</ele>
        <time>2021-07-22T14:01:43Z</time>
      </trkpt>
      <trkpt lat="43.5621350" lon="-6.9176460">
        <ele>-30.4</ele>
        <time>2021-07-22T14:01:45Z</time>
      </trkpt>
      <trkpt lat="43.5622520" lon="-6.9178560">
        <ele>-30.4</ele>
        <time>2021-07-22T14:01:50Z</time>
      </trkpt>
      <trkpt lat="43.5624450" lon="-6.9182180">
        <ele>-30.4</ele>
        <time>2021-07-22T14:01:57Z</time>
      </trkpt>
      <trkpt lat="43.5624930" lon="-6.9183070">
        <ele>-30.8</ele>
        <time>2021-07-22T14:01:59Z</time>
      </trkpt>
      <trkpt lat="43.5625170" lon="-6.9183480">
        <ele>-31.2</ele>
        <time>2021-07-22T14:02:00Z</time>
      </trkpt>
      <trkpt lat="43.5625420" lon="-6.9183830">
        <ele>-31.8</ele>
        <time>2021-07-22T14:02:01Z</time>
      </trkpt>
      <trkpt lat="43.5625670" lon="-6.9184250">
        <ele>-32.2</ele>
        <time>2021-07-22T14:02:02Z</time>
      </trkpt>
      <trkpt lat="43.5625930" lon="-6.9184660">
        <ele>-32.6</ele>
        <time>2021-07-22T14:02:03Z</time>
      </trkpt>
      <trkpt lat="43.5626370" lon="-6.9185550">
        <ele>-32.6</ele>
        <time>2021-07-22T14:02:05Z</time>
      </trkpt>
      <trkpt lat="43.5626930" lon="-6.9187210">
        <ele>-32.6</ele>
        <time>2021-07-22T14:02:08Z</time>
      </trkpt>
      <trkpt lat="43.5627150" lon="-6.9187740">
        <ele>-32.6</ele>
        <time>2021-07-22T14:02:09Z</time>
      </trkpt>
      <trkpt lat="43.5627600" lon="-6.9188860">
        <ele>-32.6</ele>
        <time>2021-07-22T14:02:11Z</time>
      </trkpt>
      <trkpt lat="43.5628380" lon="-6.9190830">
        <ele>-33.0</ele>
        <time>2021-07-22T14:02:14Z</time>
      </trkpt>
      <trkpt lat="43.5628670" lon="-6.9191550">
        <ele>-33.4</ele>
        <time>2021-07-22T14:02:15Z</time>
      </trkpt>
      <trkpt lat="43.5628980" lon="-6.9192310">
        <ele>-34.0</ele>
        <time>2021-07-22T14:02:16Z</time>
      </trkpt>
      <trkpt lat="43.5629270" lon="-6.9193120">
        <ele>-34.4</ele>
        <time>2021-07-22T14:02:17Z</time>
      </trkpt>
      <trkpt lat="43.5629570" lon="-6.9193930">
        <ele>-34.8</ele>
        <time>2021-07-22T14:02:18Z</time>
      </trkpt>
      <trkpt lat="43.5630530" lon="-6.9196410">
        <ele>-35.6</ele>
        <time>2021-07-22T14:02:21Z</time>
      </trkpt>
      <trkpt lat="43.5630860" lon="-6.9197200">
        <ele>-36.2</ele>
        <time>2021-07-22T14:02:22Z</time>
      </trkpt>
      <trkpt lat="43.5631170" lon="-6.9198010">
        <ele>-36.6</ele>
        <time>2021-07-22T14:02:23Z</time>
      </trkpt>
      <trkpt lat="43.5631440" lon="-6.9198820">
        <ele>-37.0</ele>
        <time>2021-07-22T14:02:24Z</time>
      </trkpt>
      <trkpt lat="43.5632430" lon="-6.9202640">
        <ele>-37.0</ele>
        <time>2021-07-22T14:02:29Z</time>
      </trkpt>
      <trkpt lat="43.5633080" lon="-6.9205370">
        <ele>-37.0</ele>
        <time>2021-07-22T14:02:33Z</time>
      </trkpt>
      <trkpt lat="43.5633530" lon="-6.9207320">
        <ele>-37.0</ele>
        <time>2021-07-22T14:02:36Z</time>
      </trkpt>
      <trkpt lat="43.5633660" lon="-6.9207920">
        <ele>-37.4</ele>
        <time>2021-07-22T14:02:37Z</time>
      </trkpt>
      <trkpt lat="43.5633790" lon="-6.9208550">
        <ele>-37.8</ele>
        <time>2021-07-22T14:02:38Z</time>
      </trkpt>
      <trkpt lat="43.5633930" lon="-6.9209200">
        <ele>-38.4</ele>
        <time>2021-07-22T14:02:39Z</time>
      </trkpt>
      <trkpt lat="43.5634090" lon="-6.9209830">
        <ele>-38.8</ele>
        <time>2021-07-22T14:02:40Z</time>
      </trkpt>
      <trkpt lat="43.5634250" lon="-6.9210450">
        <ele>-39.2</ele>
        <time>2021-07-22T14:02:41Z</time>
      </trkpt>
      <trkpt lat="43.5634640" lon="-6.9211700">
        <ele>-39.2</ele>
        <time>2021-07-22T14:02:43Z</time>
      </trkpt>
      <trkpt lat="43.5634840" lon="-6.9212390">
        <ele>-39.2</ele>
        <time>2021-07-22T14:02:44Z</time>
      </trkpt>
      <trkpt lat="43.5635220" lon="-6.9213700">
        <ele>-39.2</ele>
        <time>2021-07-22T14:02:46Z</time>
      </trkpt>
      <trkpt lat="43.5635780" lon="-6.9215490">
        <ele>-39.2</ele>
        <time>2021-07-22T14:02:49Z</time>
      </trkpt>
      <trkpt lat="43.5636330" lon="-6.9217140">
        <ele>-39.2</ele>
        <time>2021-07-22T14:02:52Z</time>
      </trkpt>
      <trkpt lat="43.5637020" lon="-6.9219550">
        <ele>-39.2</ele>
        <time>2021-07-22T14:02:56Z</time>
      </trkpt>
      <trkpt lat="43.5637550" lon="-6.9221270">
        <ele>-39.2</ele>
        <time>2021-07-22T14:02:59Z</time>
      </trkpt>
      <trkpt lat="43.5638420" lon="-6.9223960">
        <ele>-39.2</ele>
        <time>2021-07-22T14:03:04Z</time>
      </trkpt>
      <trkpt lat="43.5639040" lon="-6.9226100">
        <ele>-39.2</ele>
        <time>2021-07-22T14:03:08Z</time>
      </trkpt>
      <trkpt lat="43.5640170" lon="-6.9230610">
        <ele>-39.2</ele>
        <time>2021-07-22T14:03:16Z</time>
      </trkpt>
      <trkpt lat="43.5640370" lon="-6.9231800">
        <ele>-39.2</ele>
        <time>2021-07-22T14:03:18Z</time>
      </trkpt>
      <trkpt lat="43.5640520" lon="-6.9234170">
        <ele>-39.2</ele>
        <time>2021-07-22T14:03:22Z</time>
      </trkpt>
      <trkpt lat="43.5640590" lon="-6.9235280">
        <ele>-39.2</ele>
        <time>2021-07-22T14:03:24Z</time>
      </trkpt>
      <trkpt lat="43.5640910" lon="-6.9238370">
        <ele>-39.2</ele>
        <time>2021-07-22T14:03:29Z</time>
      </trkpt>
      <trkpt lat="43.5641250" lon="-6.9242000">
        <ele>-39.6</ele>
        <time>2021-07-22T14:03:35Z</time>
      </trkpt>
      <trkpt lat="43.5641320" lon="-6.9242560">
        <ele>-40.0</ele>
        <time>2021-07-22T14:03:36Z</time>
      </trkpt>
      <trkpt lat="43.5641390" lon="-6.9243150">
        <ele>-40.4</ele>
        <time>2021-07-22T14:03:38Z</time>
      </trkpt>
      <trkpt lat="43.5641460" lon="-6.9243720">
        <ele>-40.8</ele>
        <time>2021-07-22T14:03:39Z</time>
      </trkpt>
      <trkpt lat="43.5641560" lon="-6.9244300">
        <ele>-41.2</ele>
        <time>2021-07-22T14:03:40Z</time>
      </trkpt>
      <trkpt lat="43.5641740" lon="-6.9246180">
        <ele>-41.2</ele>
        <time>2021-07-22T14:03:43Z</time>
      </trkpt>
      <trkpt lat="43.5641870" lon="-6.9247420">
        <ele>-41.2</ele>
        <time>2021-07-22T14:03:45Z</time>
      </trkpt>
      <trkpt lat="43.5642080" lon="-6.9249150">
        <ele>-41.2</ele>
        <time>2021-07-22T14:03:48Z</time>
      </trkpt>
      <trkpt lat="43.5642400" lon="-6.9251540">
        <ele>-41.2</ele>
        <time>2021-07-22T14:03:52Z</time>
      </trkpt>
      <trkpt lat="43.5642740" lon="-6.9255220">
        <ele>-41.2</ele>
        <time>2021-07-22T14:03:59Z</time>
      </trkpt>
      <trkpt lat="43.5642800" lon="-6.9255830">
        <ele>-41.2</ele>
        <time>2021-07-22T14:04:00Z</time>
      </trkpt>
      <trkpt lat="43.5643010" lon="-6.9257590">
        <ele>-41.2</ele>
        <time>2021-07-22T14:04:03Z</time>
      </trkpt>
      <trkpt lat="43.5643360" lon="-6.9260340">
        <ele>-41.2</ele>
        <time>2021-07-22T14:04:08Z</time>
      </trkpt>
      <trkpt lat="43.5643520" lon="-6.9261880">
        <ele>-41.2</ele>
        <time>2021-07-22T14:04:11Z</time>
      </trkpt>
      <trkpt lat="43.5643660" lon="-6.9263460">
        <ele>-41.6</ele>
        <time>2021-07-22T14:04:14Z</time>
      </trkpt>
      <trkpt lat="43.5643710" lon="-6.9263940">
        <ele>-42.2</ele>
        <time>2021-07-22T14:04:15Z</time>
      </trkpt>
      <trkpt lat="43.5643770" lon="-6.9264440">
        <ele>-42.6</ele>
        <time>2021-07-22T14:04:16Z</time>
      </trkpt>
      <trkpt lat="43.5643830" lon="-6.9264960">
        <ele>-43.0</ele>
        <time>2021-07-22T14:04:17Z</time>
      </trkpt>
      <trkpt lat="43.5643890" lon="-6.9265490">
        <ele>-43.6</ele>
        <time>2021-07-22T14:04:18Z</time>
      </trkpt>
      <trkpt lat="43.5644050" lon="-6.9267090">
        <ele>-43.6</ele>
        <time>2021-07-22T14:04:21Z</time>
      </trkpt>
      <trkpt lat="43.5644210" lon="-6.9268530">
        <ele>-43.6</ele>
        <time>2021-07-22T14:04:24Z</time>
      </trkpt>
      <trkpt lat="43.5644760" lon="-6.9271870">
        <ele>-43.6</ele>
        <time>2021-07-22T14:04:31Z</time>
      </trkpt>
      <trkpt lat="43.5645770" lon="-6.9274860">
        <ele>-43.6</ele>
        <time>2021-07-22T14:04:37Z</time>
      </trkpt>
      <trkpt lat="43.5646150" lon="-6.9275620">
        <ele>-43.6</ele>
        <time>2021-07-22T14:04:39Z</time>
      </trkpt>
      <trkpt lat="43.5646450" lon="-6.9276220">
        <ele>-43.6</ele>
        <time>2021-07-22T14:04:41Z</time>
      </trkpt>
      <trkpt lat="43.5646750" lon="-6.9277180">
        <ele>-43.6</ele>
        <time>2021-07-22T14:04:44Z</time>
      </trkpt>
      <trkpt lat="43.5646680" lon="-6.9277500">
        <ele>-43.6</ele>
        <time>2021-07-22T14:04:45Z</time>
      </trkpt>
      <trkpt lat="43.5646310" lon="-6.9278300">
        <ele>-43.6</ele>
        <time>2021-07-22T14:04:47Z</time>
      </trkpt>
      <trkpt lat="43.5646030" lon="-6.9278700">
        <ele>-43.6</ele>
        <time>2021-07-22T14:04:48Z</time>
      </trkpt>
      <trkpt lat="43.5645710" lon="-6.9279050">
        <ele>-43.6</ele>
        <time>2021-07-22T14:04:49Z</time>
      </trkpt>
      <trkpt lat="43.5645360" lon="-6.9279430">
        <ele>-43.6</ele>
        <time>2021-07-22T14:04:50Z</time>
      </trkpt>
      <trkpt lat="43.5644270" lon="-6.9280700">
        <ele>-43.6</ele>
        <time>2021-07-22T14:04:53Z</time>
      </trkpt>
      <trkpt lat="43.5643610" lon="-6.9281460">
        <ele>-44.0</ele>
        <time>2021-07-22T14:04:55Z</time>
      </trkpt>
      <trkpt lat="43.5643350" lon="-6.9281830">
        <ele>-44.4</ele>
        <time>2021-07-22T14:04:56Z</time>
      </trkpt>
      <trkpt lat="43.5643150" lon="-6.9282220">
        <ele>-44.8</ele>
        <time>2021-07-22T14:04:57Z</time>
      </trkpt>
      <trkpt lat="43.5643030" lon="-6.9282660">
        <ele>-45.2</ele>
        <time>2021-07-22T14:04:58Z</time>
      </trkpt>
      <trkpt lat="43.5642930" lon="-6.9282940">
        <ele>-45.6</ele>
        <time>2021-07-22T14:04:59Z</time>
      </trkpt>
      <trkpt lat="43.5643080" lon="-6.9283490">
        <ele>-45.6</ele>
        <time>2021-07-22T14:05:01Z</time>
      </trkpt>
      <trkpt lat="43.5644270" lon="-6.9285270">
        <ele>-45.6</ele>
        <time>2021-07-22T14:05:06Z</time>
      </trkpt>
      <trkpt lat="43.5644750" lon="-6.9286110">
        <ele>-45.6</ele>
        <time>2021-07-22T14:05:08Z</time>
      </trkpt>
      <trkpt lat="43.5645680" lon="-6.9287290">
        <ele>-45.6</ele>
        <time>2021-07-22T14:05:11Z</time>
      </trkpt>
      <trkpt lat="43.5646810" lon="-6.9288930">
        <ele>-45.6</ele>
        <time>2021-07-22T14:05:15Z</time>
      </trkpt>
      <trkpt lat="43.5647550" lon="-6.9290830">
        <ele>-45.6</ele>
        <time>2021-07-22T14:05:19Z</time>
      </trkpt>
      <trkpt lat="43.5647820" lon="-6.9291720">
        <ele>-45.6</ele>
        <time>2021-07-22T14:05:21Z</time>
      </trkpt>
      <trkpt lat="43.5648700" lon="-6.9294200">
        <ele>-45.6</ele>
        <time>2021-07-22T14:05:26Z</time>
      </trkpt>
      <trkpt lat="43.5649580" lon="-6.9296240">
        <ele>-45.6</ele>
        <time>2021-07-22T14:05:30Z</time>
      </trkpt>
      <trkpt lat="43.5650050" lon="-6.9297330">
        <ele>-46.0</ele>
        <time>2021-07-22T14:05:32Z</time>
      </trkpt>
      <trkpt lat="43.5650230" lon="-6.9297940">
        <ele>-46.4</ele>
        <time>2021-07-22T14:05:33Z</time>
      </trkpt>
      <trkpt lat="43.5650310" lon="-6.9298630">
        <ele>-46.8</ele>
        <time>2021-07-22T14:05:34Z</time>
      </trkpt>
      <trkpt lat="43.5650300" lon="-6.9299340">
        <ele>-47.2</ele>
        <time>2021-07-22T14:05:35Z</time>
      </trkpt>
      <trkpt lat="43.5650140" lon="-6.9300020">
        <ele>-47.6</ele>
        <time>2021-07-22T14:05:36Z</time>
      </trkpt>
      <trkpt lat="43.5649210" lon="-6.9301710">
        <ele>-47.6</ele>
        <time>2021-07-22T14:05:39Z</time>
      </trkpt>
      <trkpt lat="43.5648880" lon="-6.9302170">
        <ele>-47.6</ele>
        <time>2021-07-22T14:05:40Z</time>
      </trkpt>
      <trkpt lat="43.5648320" lon="-6.9303110">
        <ele>-47.6</ele>
        <time>2021-07-22T14:05:42Z</time>
      </trkpt>
      <trkpt lat="43.5647840" lon="-6.9304450">
        <ele>-47.6</ele>
        <time>2021-07-22T14:05:45Z</time>
      </trkpt>
      <trkpt lat="43.5648030" lon="-6.9305330">
        <ele>-47.6</ele>
        <time>2021-07-22T14:05:47Z</time>
      </trkpt>
      <trkpt lat="43.5648260" lon="-6.9305730">
        <ele>-47.6</ele>
        <time>2021-07-22T14:05:48Z</time>
      </trkpt>
      <trkpt lat="43.5648780" lon="-6.9306590">
        <ele>-47.6</ele>
        <time>2021-07-22T14:05:50Z</time>
      </trkpt>
      <trkpt lat="43.5649330" lon="-6.9307560">
        <ele>-47.6</ele>
        <time>2021-07-22T14:05:52Z</time>
      </trkpt>
      <trkpt lat="43.5649950" lon="-6.9308630">
        <ele>-47.6</ele>
        <time>2021-07-22T14:05:54Z</time>
      </trkpt>
      <trkpt lat="43.5650540" lon="-6.9309640">
        <ele>-47.6</ele>
        <time>2021-07-22T14:05:56Z</time>
      </trkpt>
      <trkpt lat="43.5651710" lon="-6.9311580">
        <ele>-47.6</ele>
        <time>2021-07-22T14:06:00Z</time>
      </trkpt>
      <trkpt lat="43.5652640" lon="-6.9313090">
        <ele>-47.6</ele>
        <time>2021-07-22T14:06:03Z</time>
      </trkpt>
      <trkpt lat="43.5653560" lon="-6.9314550">
        <ele>-47.6</ele>
        <time>2021-07-22T14:06:06Z</time>
      </trkpt>
      <trkpt lat="43.5654830" lon="-6.9316610">
        <ele>-47.6</ele>
        <time>2021-07-22T14:06:10Z</time>
      </trkpt>
      <trkpt lat="43.5655670" lon="-6.9318090">
        <ele>-47.6</ele>
        <time>2021-07-22T14:06:13Z</time>
      </trkpt>
      <trkpt lat="43.5657060" lon="-6.9320910">
        <ele>-47.6</ele>
        <time>2021-07-22T14:06:18Z</time>
      </trkpt>
      <trkpt lat="43.5657510" lon="-6.9322060">
        <ele>-47.6</ele>
        <time>2021-07-22T14:06:20Z</time>
      </trkpt>
      <trkpt lat="43.5659090" lon="-6.9326480">
        <ele>-47.6</ele>
        <time>2021-07-22T14:06:28Z</time>
      </trkpt>
      <trkpt lat="43.5661100" lon="-6.9331970">
        <ele>-47.6</ele>
        <time>2021-07-22T14:06:37Z</time>
      </trkpt>
      <trkpt lat="43.5662870" lon="-6.9336850">
        <ele>-47.6</ele>
        <time>2021-07-22T14:06:46Z</time>
      </trkpt>
      <trkpt lat="43.5663490" lon="-6.9338510">
        <ele>-47.6</ele>
        <time>2021-07-22T14:06:49Z</time>
      </trkpt>
      <trkpt lat="43.5664320" lon="-6.9340810">
        <ele>-47.6</ele>
        <time>2021-07-22T14:06:53Z</time>
      </trkpt>
      <trkpt lat="43.5664520" lon="-6.9341370">
        <ele>-47.6</ele>
        <time>2021-07-22T14:06:54Z</time>
      </trkpt>
      <trkpt lat="43.5664920" lon="-6.9342500">
        <ele>-47.6</ele>
        <time>2021-07-22T14:06:56Z</time>
      </trkpt>
      <trkpt lat="43.5665110" lon="-6.9343040">
        <ele>-47.6</ele>
        <time>2021-07-22T14:06:57Z</time>
      </trkpt>
      <trkpt lat="43.5665680" lon="-6.9344630">
        <ele>-47.6</ele>
        <time>2021-07-22T14:07:00Z</time>
      </trkpt>
      <trkpt lat="43.5666010" lon="-6.9345680">
        <ele>-47.6</ele>
        <time>2021-07-22T14:07:02Z</time>
      </trkpt>
      <trkpt lat="43.5666370" lon="-6.9346670">
        <ele>-47.6</ele>
        <time>2021-07-22T14:07:04Z</time>
      </trkpt>
      <trkpt lat="43.5666900" lon="-6.9348230">
        <ele>-47.6</ele>
        <time>2021-07-22T14:07:07Z</time>
      </trkpt>
      <trkpt lat="43.5667340" lon="-6.9349450">
        <ele>-47.6</ele>
        <time>2021-07-22T14:07:09Z</time>
      </trkpt>
      <trkpt lat="43.5667790" lon="-6.9350790">
        <ele>-47.6</ele>
        <time>2021-07-22T14:07:11Z</time>
      </trkpt>
      <trkpt lat="43.5668220" lon="-6.9352140">
        <ele>-47.6</ele>
        <time>2021-07-22T14:07:13Z</time>
      </trkpt>
      <trkpt lat="43.5669570" lon="-6.9356110">
        <ele>-47.6</ele>
        <time>2021-07-22T14:07:19Z</time>
      </trkpt>
      <trkpt lat="43.5670100" lon="-6.9357910">
        <ele>-48.0</ele>
        <time>2021-07-22T14:07:22Z</time>
      </trkpt>
      <trkpt lat="43.5670280" lon="-6.9358520">
        <ele>-48.4</ele>
        <time>2021-07-22T14:07:23Z</time>
      </trkpt>
      <trkpt lat="43.5670500" lon="-6.9359160">
        <ele>-49.0</ele>
        <time>2021-07-22T14:07:24Z</time>
      </trkpt>
      <trkpt lat="43.5670700" lon="-6.9359790">
        <ele>-49.4</ele>
        <time>2021-07-22T14:07:25Z</time>
      </trkpt>
      <trkpt lat="43.5670920" lon="-6.9360430">
        <ele>-49.8</ele>
        <time>2021-07-22T14:07:26Z</time>
      </trkpt>
      <trkpt lat="43.5671170" lon="-6.9361070">
        <ele>-49.8</ele>
        <time>2021-07-22T14:07:27Z</time>
      </trkpt>
      <trkpt lat="43.5672090" lon="-6.9363720">
        <ele>-49.8</ele>
        <time>2021-07-22T14:07:31Z</time>
      </trkpt>
      <trkpt lat="43.5672980" lon="-6.9366480">
        <ele>-49.8</ele>
        <time>2021-07-22T14:07:35Z</time>
      </trkpt>
      <trkpt lat="43.5674230" lon="-6.9370070">
        <ele>-49.8</ele>
        <time>2021-07-22T14:07:41Z</time>
      </trkpt>
      <trkpt lat="43.5674590" lon="-6.9371250">
        <ele>-49.8</ele>
        <time>2021-07-22T14:07:43Z</time>
      </trkpt>
      <trkpt lat="43.5675790" lon="-6.9374830">
        <ele>-49.8</ele>
        <time>2021-07-22T14:07:49Z</time>
      </trkpt>
      <trkpt lat="43.5676360" lon="-6.9376680">
        <ele>-49.8</ele>
        <time>2021-07-22T14:07:52Z</time>
      </trkpt>
      <trkpt lat="43.5677140" lon="-6.9379290">
        <ele>-49.8</ele>
        <time>2021-07-22T14:07:56Z</time>
      </trkpt>
      <trkpt lat="43.5677760" lon="-6.9381180">
        <ele>-49.8</ele>
        <time>2021-07-22T14:07:59Z</time>
      </trkpt>
      <trkpt lat="43.5678290" lon="-6.9382930">
        <ele>-49.8</ele>
        <time>2021-07-22T14:08:02Z</time>
      </trkpt>
      <trkpt lat="43.5679280" lon="-6.9385920">
        <ele>-49.8</ele>
        <time>2021-07-22T14:08:07Z</time>
      </trkpt>
      <trkpt lat="43.5680460" lon="-6.9389360">
        <ele>-49.8</ele>
        <time>2021-07-22T14:08:13Z</time>
      </trkpt>
      <trkpt lat="43.5680780" lon="-6.9390350">
        <ele>-49.8</ele>
        <time>2021-07-22T14:08:15Z</time>
      </trkpt>
      <trkpt lat="43.5681940" lon="-6.9393870">
        <ele>-49.8</ele>
        <time>2021-07-22T14:08:22Z</time>
      </trkpt>
      <trkpt lat="43.5682140" lon="-6.9394410">
        <ele>-49.8</ele>
        <time>2021-07-22T14:08:23Z</time>
      </trkpt>
      <trkpt lat="43.5683610" lon="-6.9398830">
        <ele>-49.8</ele>
        <time>2021-07-22T14:08:31Z</time>
      </trkpt>
      <trkpt lat="43.5683980" lon="-6.9399910">
        <ele>-49.8</ele>
        <time>2021-07-22T14:08:33Z</time>
      </trkpt>
      <trkpt lat="43.5685130" lon="-6.9403650">
        <ele>-49.8</ele>
        <time>2021-07-22T14:08:40Z</time>
      </trkpt>
      <trkpt lat="43.5685540" lon="-6.9404870">
        <ele>-49.8</ele>
        <time>2021-07-22T14:08:42Z</time>
      </trkpt>
      <trkpt lat="43.5686650" lon="-6.9408350">
        <ele>-49.8</ele>
        <time>2021-07-22T14:08:48Z</time>
      </trkpt>
      <trkpt lat="43.5686830" lon="-6.9408960">
        <ele>-50.2</ele>
        <time>2021-07-22T14:08:49Z</time>
      </trkpt>
      <trkpt lat="43.5686990" lon="-6.9409530">
        <ele>-50.6</ele>
        <time>2021-07-22T14:08:50Z</time>
      </trkpt>
      <trkpt lat="43.5687150" lon="-6.9410130">
        <ele>-51.0</ele>
        <time>2021-07-22T14:08:51Z</time>
      </trkpt>
      <trkpt lat="43.5687300" lon="-6.9410670">
        <ele>-51.4</ele>
        <time>2021-07-22T14:08:52Z</time>
      </trkpt>
      <trkpt lat="43.5687490" lon="-6.9411230">
        <ele>-51.8</ele>
        <time>2021-07-22T14:08:53Z</time>
      </trkpt>
      <trkpt lat="43.5687900" lon="-6.9412360">
        <ele>-51.8</ele>
        <time>2021-07-22T14:08:55Z</time>
      </trkpt>
      <trkpt lat="43.5689140" lon="-6.9415800">
        <ele>-51.8</ele>
        <time>2021-07-22T14:09:01Z</time>
      </trkpt>
      <trkpt lat="43.5689510" lon="-6.9416890">
        <ele>-51.8</ele>
        <time>2021-07-22T14:09:03Z</time>
      </trkpt>
      <trkpt lat="43.5689870" lon="-6.9417850">
        <ele>-51.8</ele>
        <time>2021-07-22T14:09:05Z</time>
      </trkpt>
      <trkpt lat="43.5690870" lon="-6.9420380">
        <ele>-51.8</ele>
        <time>2021-07-22T14:09:10Z</time>
      </trkpt>
      <trkpt lat="43.5691670" lon="-6.9422200">
        <ele>-51.8</ele>
        <time>2021-07-22T14:09:14Z</time>
      </trkpt>
      <trkpt lat="43.5692130" lon="-6.9424400">
        <ele>-51.8</ele>
        <time>2021-07-22T14:09:18Z</time>
      </trkpt>
      <trkpt lat="43.5692280" lon="-6.9425480">
        <ele>-51.8</ele>
        <time>2021-07-22T14:09:20Z</time>
      </trkpt>
      <trkpt lat="43.5692090" lon="-6.9429200">
        <ele>-51.8</ele>
        <time>2021-07-22T14:09:27Z</time>
      </trkpt>
      <trkpt lat="43.5691320" lon="-6.9432470">
        <ele>-51.8</ele>
        <time>2021-07-22T14:09:34Z</time>
      </trkpt>
      <trkpt lat="43.5690540" lon="-6.9434230">
        <ele>-51.8</ele>
        <time>2021-07-22T14:09:38Z</time>
      </trkpt>
      <trkpt lat="43.5690100" lon="-6.9435200">
        <ele>-51.8</ele>
        <time>2021-07-22T14:09:40Z</time>
      </trkpt>
      <trkpt lat="43.5688530" lon="-6.9438120">
        <ele>-51.8</ele>
        <time>2021-07-22T14:09:47Z</time>
      </trkpt>
      <trkpt lat="43.5688320" lon="-6.9438510">
        <ele>-51.8</ele>
        <time>2021-07-22T14:09:48Z</time>
      </trkpt>
      <trkpt lat="43.5687220" lon="-6.9440380">
        <ele>-52.2</ele>
        <time>2021-07-22T14:09:53Z</time>
      </trkpt>
      <trkpt lat="43.5687060" lon="-6.9440770">
        <ele>-52.6</ele>
        <time>2021-07-22T14:09:54Z</time>
      </trkpt>
      <trkpt lat="43.5686910" lon="-6.9441140">
        <ele>-53.0</ele>
        <time>2021-07-22T14:09:55Z</time>
      </trkpt>
      <trkpt lat="43.5686750" lon="-6.9441500">
        <ele>-53.4</ele>
        <time>2021-07-22T14:09:56Z</time>
      </trkpt>
      <trkpt lat="43.5686620" lon="-6.9441840">
        <ele>-53.8</ele>
        <time>2021-07-22T14:09:57Z</time>
      </trkpt>
      <trkpt lat="43.5685810" lon="-6.9443510">
        <ele>-53.8</ele>
        <time>2021-07-22T14:10:03Z</time>
      </trkpt>
      <trkpt lat="43.5685680" lon="-6.9443860">
        <ele>-53.8</ele>
        <time>2021-07-22T14:10:07Z</time>
      </trkpt>
      <trkpt lat="43.5685390" lon="-6.9444730">
        <ele>-53.8</ele>
        <time>2021-07-22T14:10:21Z</time>
      </trkpt>
      <trkpt lat="43.5685310" lon="-6.9445020">
        <ele>-53.8</ele>
        <time>2021-07-22T14:10:22Z</time>
      </trkpt>
      <trkpt lat="43.5685000" lon="-6.9446240">
        <ele>-53.8</ele>
        <time>2021-07-22T14:10:27Z</time>
      </trkpt>
      <trkpt lat="43.5685050" lon="-6.9446630">
        <ele>-53.8</ele>
        <time>2021-07-22T14:10:31Z</time>
      </trkpt>
      <trkpt lat="43.5684750" lon="-6.9443310">
        <ele>56.4</ele>
        <time>2021-07-23T06:49:17Z</time>
      </trkpt>
      <trkpt lat="43.5684750" lon="-6.9443310">
        <ele>56.4</ele>
        <time>2021-07-23T06:49:18Z</time>
      </trkpt>
      <trkpt lat="43.5685060" lon="-6.9443040">
        <ele>56.4</ele>
        <time>2021-07-23T06:49:28Z</time>
      </trkpt>
      <trkpt lat="43.5685520" lon="-6.9442700">
        <ele>56.4</ele>
        <time>2021-07-23T06:49:30Z</time>
      </trkpt>
      <trkpt lat="43.5685850" lon="-6.9442520">
        <ele>56.4</ele>
        <time>2021-07-23T06:49:32Z</time>
      </trkpt>
      <trkpt lat="43.5685920" lon="-6.9442630">
        <ele>56.4</ele>
        <time>2021-07-23T06:49:34Z</time>
      </trkpt>
      <trkpt lat="43.5685280" lon="-6.9443510">
        <ele>56.4</ele>
        <time>2021-07-23T06:49:39Z</time>
      </trkpt>
      <trkpt lat="43.5685080" lon="-6.9443770">
        <ele>56.4</ele>
        <time>2021-07-23T06:49:40Z</time>
      </trkpt>
      <trkpt lat="43.5684290" lon="-6.9445360">
        <ele>56.4</ele>
        <time>2021-07-23T06:49:45Z</time>
      </trkpt>
      <trkpt lat="43.5683090" lon="-6.9447460">
        <ele>56.4</ele>
        <time>2021-07-23T06:49:51Z</time>
      </trkpt>
      <trkpt lat="43.5681550" lon="-6.9450350">
        <ele>56.4</ele>
        <time>2021-07-23T06:49:58Z</time>
      </trkpt>
      <trkpt lat="43.5680880" lon="-6.9451590">
        <ele>56.4</ele>
        <time>2021-07-23T06:50:01Z</time>
      </trkpt>
      <trkpt lat="43.5679450" lon="-6.9454110">
        <ele>56.4</ele>
        <time>2021-07-23T06:50:07Z</time>
      </trkpt>
      <trkpt lat="43.5678510" lon="-6.9456520">
        <ele>56.4</ele>
        <time>2021-07-23T06:50:13Z</time>
      </trkpt>
      <trkpt lat="43.5677120" lon="-6.9459140">
        <ele>56.4</ele>
        <time>2021-07-23T06:50:20Z</time>
      </trkpt>
      <trkpt lat="43.5675500" lon="-6.9462310">
        <ele>56.4</ele>
        <time>2021-07-23T06:50:28Z</time>
      </trkpt>
      <trkpt lat="43.5674040" lon="-6.9464910">
        <ele>56.4</ele>
        <time>2021-07-23T06:50:35Z</time>
      </trkpt>
      <trkpt lat="43.5673040" lon="-6.9466680">
        <ele>56.4</ele>
        <time>2021-07-23T06:50:40Z</time>
      </trkpt>
      <trkpt lat="43.5672610" lon="-6.9467270">
        <ele>56.4</ele>
        <time>2021-07-23T06:50:42Z</time>
      </trkpt>
      <trkpt lat="43.5670800" lon="-6.9469290">
        <ele>56.4</ele>
        <time>2021-07-23T06:50:49Z</time>
      </trkpt>
      <trkpt lat="43.5669500" lon="-6.9470170">
        <ele>56.4</ele>
        <time>2021-07-23T06:50:53Z</time>
      </trkpt>
      <trkpt lat="43.5668480" lon="-6.9470800">
        <ele>56.4</ele>
        <time>2021-07-23T06:50:56Z</time>
      </trkpt>
      <trkpt lat="43.5667760" lon="-6.9471240">
        <ele>56.4</ele>
        <time>2021-07-23T06:50:58Z</time>
      </trkpt>
      <trkpt lat="43.5664630" lon="-6.9473040">
        <ele>56.4</ele>
        <time>2021-07-23T06:51:06Z</time>
      </trkpt>
      <trkpt lat="43.5664210" lon="-6.9473260">
        <ele>56.0</ele>
        <time>2021-07-23T06:51:07Z</time>
      </trkpt>
      <trkpt lat="43.5663800" lon="-6.9473470">
        <ele>55.6</ele>
        <time>2021-07-23T06:51:08Z</time>
      </trkpt>
      <trkpt lat="43.5663360" lon="-6.9473660">
        <ele>55.2</ele>
        <time>2021-07-23T06:51:09Z</time>
      </trkpt>
      <trkpt lat="43.5662950" lon="-6.9473800">
        <ele>54.4</ele>
        <time>2021-07-23T06:51:10Z</time>
      </trkpt>
      <trkpt lat="43.5661680" lon="-6.9474100">
        <ele>54.4</ele>
        <time>2021-07-23T06:51:13Z</time>
      </trkpt>
      <trkpt lat="43.5660830" lon="-6.9474120">
        <ele>54.4</ele>
        <time>2021-07-23T06:51:15Z</time>
      </trkpt>
      <trkpt lat="43.5659220" lon="-6.9473760">
        <ele>54.4</ele>
        <time>2021-07-23T06:51:19Z</time>
      </trkpt>
      <trkpt lat="43.5658480" lon="-6.9473420">
        <ele>54.4</ele>
        <time>2021-07-23T06:51:21Z</time>
      </trkpt>
      <trkpt lat="43.5656850" lon="-6.9472360">
        <ele>54.0</ele>
        <time>2021-07-23T06:51:25Z</time>
      </trkpt>
      <trkpt lat="43.5656410" lon="-6.9472060">
        <ele>53.6</ele>
        <time>2021-07-23T06:51:26Z</time>
      </trkpt>
      <trkpt lat="43.5655940" lon="-6.9471730">
        <ele>53.0</ele>
        <time>2021-07-23T06:51:27Z</time>
      </trkpt>
      <trkpt lat="43.5655460" lon="-6.9471390">
        <ele>52.6</ele>
        <time>2021-07-23T06:51:28Z</time>
      </trkpt>
      <trkpt lat="43.5654970" lon="-6.9471060">
        <ele>52.2</ele>
        <time>2021-07-23T06:51:29Z</time>
      </trkpt>
      <trkpt lat="43.5652530" lon="-6.9469670">
        <ele>51.8</ele>
        <time>2021-07-23T06:51:34Z</time>
      </trkpt>
      <trkpt lat="43.5652050" lon="-6.9469520">
        <ele>51.4</ele>
        <time>2021-07-23T06:51:35Z</time>
      </trkpt>
      <trkpt lat="43.5651560" lon="-6.9469410">
        <ele>51.0</ele>
        <time>2021-07-23T06:51:36Z</time>
      </trkpt>
      <trkpt lat="43.5651080" lon="-6.9469320">
        <ele>50.4</ele>
        <time>2021-07-23T06:51:37Z</time>
      </trkpt>
      <trkpt lat="43.5650620" lon="-6.9469240">
        <ele>50.0</ele>
        <time>2021-07-23T06:51:38Z</time>
      </trkpt>
      <trkpt lat="43.5650160" lon="-6.9469220">
        <ele>50.0</ele>
        <time>2021-07-23T06:51:39Z</time>
      </trkpt>
      <trkpt lat="43.5649290" lon="-6.9469280">
        <ele>50.0</ele>
        <time>2021-07-23T06:51:41Z</time>
      </trkpt>
      <trkpt lat="43.5648010" lon="-6.9469600">
        <ele>49.6</ele>
        <time>2021-07-23T06:51:44Z</time>
      </trkpt>
      <trkpt lat="43.5647560" lon="-6.9469720">
        <ele>49.2</ele>
        <time>2021-07-23T06:51:45Z</time>
      </trkpt>
      <trkpt lat="43.5647130" lon="-6.9469830">
        <ele>48.8</ele>
        <time>2021-07-23T06:51:46Z</time>
      </trkpt>
      <trkpt lat="43.5646730" lon="-6.9469950">
        <ele>48.4</ele>
        <time>2021-07-23T06:51:47Z</time>
      </trkpt>
      <trkpt lat="43.5646370" lon="-6.9470040">
        <ele>48.0</ele>
        <time>2021-07-23T06:51:48Z</time>
      </trkpt>
      <trkpt lat="43.5645680" lon="-6.9470090">
        <ele>48.0</ele>
        <time>2021-07-23T06:51:51Z</time>
      </trkpt>
      <trkpt lat="43.5645610" lon="-6.9470050">
        <ele>47.6</ele>
        <time>2021-07-23T06:51:52Z</time>
      </trkpt>
      <trkpt lat="43.5645610" lon="-6.9470050">
        <ele>47.2</ele>
        <time>2021-07-23T06:51:53Z</time>
      </trkpt>
      <trkpt lat="43.5645590" lon="-6.9470050">
        <ele>46.0</ele>
        <time>2021-07-23T06:52:02Z</time>
      </trkpt>
      <trkpt lat="43.5645390" lon="-6.9470080">
        <ele>46.0</ele>
        <time>2021-07-23T06:52:03Z</time>
      </trkpt>
      <trkpt lat="43.5643710" lon="-6.9470480">
        <ele>46.0</ele>
        <time>2021-07-23T06:52:08Z</time>
      </trkpt>
      <trkpt lat="43.5641240" lon="-6.9470880">
        <ele>46.0</ele>
        <time>2021-07-23T06:52:13Z</time>
      </trkpt>
      <trkpt lat="43.5639500" lon="-6.9470420">
        <ele>45.6</ele>
        <time>2021-07-23T06:52:16Z</time>
      </trkpt>
      <trkpt lat="43.5638900" lon="-6.9470030">
        <ele>45.2</ele>
        <time>2021-07-23T06:52:17Z</time>
      </trkpt>
      <trkpt lat="43.5638310" lon="-6.9469560">
        <ele>44.8</ele>
        <time>2021-07-23T06:52:18Z</time>
      </trkpt>
      <trkpt lat="43.5637800" lon="-6.9469100">
        <ele>44.2</ele>
        <time>2021-07-23T06:52:19Z</time>
      </trkpt>
      <trkpt lat="43.5637310" lon="-6.9468690">
        <ele>43.8</ele>
        <time>2021-07-23T06:52:20Z</time>
      </trkpt>
      <trkpt lat="43.5636830" lon="-6.9468280">
        <ele>43.4</ele>
        <time>2021-07-23T06:52:21Z</time>
      </trkpt>
      <trkpt lat="43.5636330" lon="-6.9467860">
        <ele>43.0</ele>
        <time>2021-07-23T06:52:22Z</time>
      </trkpt>
      <trkpt lat="43.5635820" lon="-6.9467400">
        <ele>42.6</ele>
        <time>2021-07-23T06:52:23Z</time>
      </trkpt>
      <trkpt lat="43.5635290" lon="-6.9466900">
        <ele>41.8</ele>
        <time>2021-07-23T06:52:24Z</time>
      </trkpt>
      <trkpt lat="43.5633550" lon="-6.9465340">
        <ele>41.8</ele>
        <time>2021-07-23T06:52:27Z</time>
      </trkpt>
      <trkpt lat="43.5632960" lon="-6.9464860">
        <ele>41.4</ele>
        <time>2021-07-23T06:52:28Z</time>
      </trkpt>
      <trkpt lat="43.5632400" lon="-6.9464360">
        <ele>41.0</ele>
        <time>2021-07-23T06:52:29Z</time>
      </trkpt>
      <trkpt lat="43.5631870" lon="-6.9463870">
        <ele>40.6</ele>
        <time>2021-07-23T06:52:30Z</time>
      </trkpt>
      <trkpt lat="43.5631360" lon="-6.9463390">
        <ele>40.2</ele>
        <time>2021-07-23T06:52:31Z</time>
      </trkpt>
      <trkpt lat="43.5630830" lon="-6.9462890">
        <ele>39.8</ele>
        <time>2021-07-23T06:52:32Z</time>
      </trkpt>
      <trkpt lat="43.5629800" lon="-6.9461960">
        <ele>39.8</ele>
        <time>2021-07-23T06:52:34Z</time>
      </trkpt>
      <trkpt lat="43.5627130" lon="-6.9459560">
        <ele>39.8</ele>
        <time>2021-07-23T06:52:40Z</time>
      </trkpt>
      <trkpt lat="43.5626670" lon="-6.9459220">
        <ele>39.8</ele>
        <time>2021-07-23T06:52:41Z</time>
      </trkpt>
      <trkpt lat="43.5625370" lon="-6.9458140">
        <ele>39.8</ele>
        <time>2021-07-23T06:52:44Z</time>
      </trkpt>
      <trkpt lat="43.5624170" lon="-6.9456960">
        <ele>39.8</ele>
        <time>2021-07-23T06:52:47Z</time>
      </trkpt>
      <trkpt lat="43.5623320" lon="-6.9456480">
        <ele>39.8</ele>
        <time>2021-07-23T06:52:49Z</time>
      </trkpt>
      <trkpt lat="43.5622490" lon="-6.9456690">
        <ele>39.8</ele>
        <time>2021-07-23T06:52:51Z</time>
      </trkpt>
      <trkpt lat="43.5622140" lon="-6.9457050">
        <ele>39.4</ele>
        <time>2021-07-23T06:52:52Z</time>
      </trkpt>
      <trkpt lat="43.5621840" lon="-6.9457540">
        <ele>39.0</ele>
        <time>2021-07-23T06:52:53Z</time>
      </trkpt>
      <trkpt lat="43.5621550" lon="-6.9458040">
        <ele>38.6</ele>
        <time>2021-07-23T06:52:54Z</time>
      </trkpt>
      <trkpt lat="43.5621240" lon="-6.9458560">
        <ele>38.2</ele>
        <time>2021-07-23T06:52:55Z</time>
      </trkpt>
      <trkpt lat="43.5620910" lon="-6.9459060">
        <ele>37.8</ele>
        <time>2021-07-23T06:52:56Z</time>
      </trkpt>
      <trkpt lat="43.5619070" lon="-6.9462020">
        <ele>37.8</ele>
        <time>2021-07-23T06:53:01Z</time>
      </trkpt>
      <trkpt lat="43.5617570" lon="-6.9464650">
        <ele>37.4</ele>
        <time>2021-07-23T06:53:05Z</time>
      </trkpt>
      <trkpt lat="43.5617260" lon="-6.9465330">
        <ele>37.0</ele>
        <time>2021-07-23T06:53:06Z</time>
      </trkpt>
      <trkpt lat="43.5616980" lon="-6.9466030">
        <ele>36.6</ele>
        <time>2021-07-23T06:53:07Z</time>
      </trkpt>
      <trkpt lat="43.5616700" lon="-6.9466730">
        <ele>36.2</ele>
        <time>2021-07-23T06:53:08Z</time>
      </trkpt>
      <trkpt lat="43.5616440" lon="-6.9467420">
        <ele>35.8</ele>
        <time>2021-07-23T06:53:09Z</time>
      </trkpt>
      <trkpt lat="43.5615360" lon="-6.9470560">
        <ele>35.8</ele>
        <time>2021-07-23T06:53:14Z</time>
      </trkpt>
      <trkpt lat="43.5614510" lon="-6.9473590">
        <ele>35.8</ele>
        <time>2021-07-23T06:53:19Z</time>
      </trkpt>
      <trkpt lat="43.5614200" lon="-6.9474860">
        <ele>35.8</ele>
        <time>2021-07-23T06:53:21Z</time>
      </trkpt>
      <trkpt lat="43.5613230" lon="-6.9479350">
        <ele>35.8</ele>
        <time>2021-07-23T06:53:28Z</time>
      </trkpt>
      <trkpt lat="43.5612970" lon="-6.9483780">
        <ele>35.8</ele>
        <time>2021-07-23T06:53:35Z</time>
      </trkpt>
      <trkpt lat="43.5613030" lon="-6.9484330">
        <ele>35.4</ele>
        <time>2021-07-23T06:53:36Z</time>
      </trkpt>
      <trkpt lat="43.5613120" lon="-6.9484790">
        <ele>35.0</ele>
        <time>2021-07-23T06:53:37Z</time>
      </trkpt>
      <trkpt lat="43.5613200" lon="-6.9485200">
        <ele>34.6</ele>
        <time>2021-07-23T06:53:38Z</time>
      </trkpt>
      <trkpt lat="43.5613270" lon="-6.9485610">
        <ele>33.8</ele>
        <time>2021-07-23T06:53:39Z</time>
      </trkpt>
      <trkpt lat="43.5613340" lon="-6.9486000">
        <ele>33.8</ele>
        <time>2021-07-23T06:53:40Z</time>
      </trkpt>
      <trkpt lat="43.5613970" lon="-6.9487570">
        <ele>33.8</ele>
        <time>2021-07-23T06:53:46Z</time>
      </trkpt>
      <trkpt lat="43.5613990" lon="-6.9487580">
        <ele>33.8</ele>
        <time>2021-07-23T06:53:47Z</time>
      </trkpt>
      <trkpt lat="43.5614110" lon="-6.9487790">
        <ele>33.8</ele>
        <time>2021-07-23T06:54:16Z</time>
      </trkpt>
      <trkpt lat="43.5614230" lon="-6.9488010">
        <ele>33.8</ele>
        <time>2021-07-23T06:54:17Z</time>
      </trkpt>
      <trkpt lat="43.5614360" lon="-6.9488270">
        <ele>33.8</ele>
        <time>2021-07-23T06:54:18Z</time>
      </trkpt>
      <trkpt lat="43.5614900" lon="-6.9489130">
        <ele>33.8</ele>
        <time>2021-07-23T06:54:21Z</time>
      </trkpt>
      <trkpt lat="43.5615130" lon="-6.9489440">
        <ele>33.8</ele>
        <time>2021-07-23T06:54:22Z</time>
      </trkpt>
      <trkpt lat="43.5615810" lon="-6.9490500">
        <ele>33.8</ele>
        <time>2021-07-23T06:54:25Z</time>
      </trkpt>
      <trkpt lat="43.5616740" lon="-6.9491890">
        <ele>33.8</ele>
        <time>2021-07-23T06:54:29Z</time>
      </trkpt>
      <trkpt lat="43.5616990" lon="-6.9492160">
        <ele>33.8</ele>
        <time>2021-07-23T06:54:30Z</time>
      </trkpt>
      <trkpt lat="43.5618180" lon="-6.9493060">
        <ele>33.8</ele>
        <time>2021-07-23T06:54:34Z</time>
      </trkpt>
      <trkpt lat="43.5618840" lon="-6.9493460">
        <ele>33.8</ele>
        <time>2021-07-23T06:54:36Z</time>
      </trkpt>
      <trkpt lat="43.5620900" lon="-6.9495250">
        <ele>33.8</ele>
        <time>2021-07-23T06:54:42Z</time>
      </trkpt>
      <trkpt lat="43.5623540" lon="-6.9497960">
        <ele>33.8</ele>
        <time>2021-07-23T06:54:50Z</time>
      </trkpt>
      <trkpt lat="43.5623890" lon="-6.9498220">
        <ele>33.8</ele>
        <time>2021-07-23T06:54:51Z</time>
      </trkpt>
      <trkpt lat="43.5625790" lon="-6.9499310">
        <ele>33.8</ele>
        <time>2021-07-23T06:54:56Z</time>
      </trkpt>
      <trkpt lat="43.5626640" lon="-6.9499430">
        <ele>33.8</ele>
        <time>2021-07-23T06:54:58Z</time>
      </trkpt>
      <trkpt lat="43.5629580" lon="-6.9498790">
        <ele>33.8</ele>
        <time>2021-07-23T06:55:05Z</time>
      </trkpt>
      <trkpt lat="43.5630340" lon="-6.9498320">
        <ele>33.8</ele>
        <time>2021-07-23T06:55:07Z</time>
      </trkpt>
      <trkpt lat="43.5631740" lon="-6.9496970">
        <ele>33.8</ele>
        <time>2021-07-23T06:55:11Z</time>
      </trkpt>
      <trkpt lat="43.5632750" lon="-6.9495750">
        <ele>33.8</ele>
        <time>2021-07-23T06:55:14Z</time>
      </trkpt>
      <trkpt lat="43.5634340" lon="-6.9494030">
        <ele>33.8</ele>
        <time>2021-07-23T06:55:19Z</time>
      </trkpt>
      <trkpt lat="43.5636240" lon="-6.9492610">
        <ele>33.8</ele>
        <time>2021-07-23T06:55:26Z</time>
      </trkpt>
      <trkpt lat="43.5636910" lon="-6.9492150">
        <ele>33.8</ele>
        <time>2021-07-23T06:55:30Z</time>
      </trkpt>
      <trkpt lat="43.5637210" lon="-6.9491920">
        <ele>33.8</ele>
        <time>2021-07-23T06:55:32Z</time>
      </trkpt>
      <trkpt lat="43.5638110" lon="-6.9491310">
        <ele>33.8</ele>
        <time>2021-07-23T06:55:39Z</time>
      </trkpt>
      <trkpt lat="43.5638810" lon="-6.9490920">
        <ele>34.2</ele>
        <time>2021-07-23T06:55:44Z</time>
      </trkpt>
      <trkpt lat="43.5638960" lon="-6.9490840">
        <ele>34.6</ele>
        <time>2021-07-23T06:55:45Z</time>
      </trkpt>
      <trkpt lat="43.5639100" lon="-6.9490730">
        <ele>35.0</ele>
        <time>2021-07-23T06:55:46Z</time>
      </trkpt>
      <trkpt lat="43.5639230" lon="-6.9490640">
        <ele>35.4</ele>
        <time>2021-07-23T06:55:47Z</time>
      </trkpt>
      <trkpt lat="43.5639350" lon="-6.9490540">
        <ele>35.8</ele>
        <time>2021-07-23T06:55:48Z</time>
      </trkpt>
      <trkpt lat="43.5640130" lon="-6.9489900">
        <ele>35.8</ele>
        <time>2021-07-23T06:55:54Z</time>
      </trkpt>
      <trkpt lat="43.5640390" lon="-6.9489710">
        <ele>36.2</ele>
        <time>2021-07-23T06:55:56Z</time>
      </trkpt>
      <trkpt lat="43.5640520" lon="-6.9489600">
        <ele>36.6</ele>
        <time>2021-07-23T06:55:57Z</time>
      </trkpt>
      <trkpt lat="43.5640630" lon="-6.9489520">
        <ele>37.0</ele>
        <time>2021-07-23T06:55:58Z</time>
      </trkpt>
      <trkpt lat="43.5640750" lon="-6.9489440">
        <ele>37.4</ele>
        <time>2021-07-23T06:55:59Z</time>
      </trkpt>
      <trkpt lat="43.5640880" lon="-6.9489340">
        <ele>37.8</ele>
        <time>2021-07-23T06:56:00Z</time>
      </trkpt>
      <trkpt lat="43.5641300" lon="-6.9489110">
        <ele>37.8</ele>
        <time>2021-07-23T06:56:03Z</time>
      </trkpt>
      <trkpt lat="43.5641750" lon="-6.9488970">
        <ele>38.2</ele>
        <time>2021-07-23T06:56:06Z</time>
      </trkpt>
      <trkpt lat="43.5641920" lon="-6.9488930">
        <ele>39.0</ele>
        <time>2021-07-23T06:56:07Z</time>
      </trkpt>
      <trkpt lat="43.5642100" lon="-6.9488940">
        <ele>39.6</ele>
        <time>2021-07-23T06:56:08Z</time>
      </trkpt>
      <trkpt lat="43.5642240" lon="-6.9488990">
        <ele>40.0</ele>
        <time>2021-07-23T06:56:09Z</time>
      </trkpt>
      <trkpt lat="43.5642590" lon="-6.9489760">
        <ele>40.0</ele>
        <time>2021-07-23T06:56:14Z</time>
      </trkpt>
      <trkpt lat="43.5642580" lon="-6.9490260">
        <ele>40.4</ele>
        <time>2021-07-23T06:56:16Z</time>
      </trkpt>
      <trkpt lat="43.5642550" lon="-6.9490480">
        <ele>40.8</ele>
        <time>2021-07-23T06:56:17Z</time>
      </trkpt>
      <trkpt lat="43.5642540" lon="-6.9490690">
        <ele>41.2</ele>
        <time>2021-07-23T06:56:18Z</time>
      </trkpt>
      <trkpt lat="43.5642530" lon="-6.9490900">
        <ele>41.6</ele>
        <time>2021-07-23T06:56:19Z</time>
      </trkpt>
      <trkpt lat="43.5642500" lon="-6.9491120">
        <ele>42.0</ele>
        <time>2021-07-23T06:56:20Z</time>
      </trkpt>
      <trkpt lat="43.5642460" lon="-6.9491330">
        <ele>42.0</ele>
        <time>2021-07-23T06:56:21Z</time>
      </trkpt>
      <trkpt lat="43.5642120" lon="-6.9492750">
        <ele>42.0</ele>
        <time>2021-07-23T06:56:28Z</time>
      </trkpt>
      <trkpt lat="43.5642080" lon="-6.9492990">
        <ele>42.4</ele>
        <time>2021-07-23T06:56:29Z</time>
      </trkpt>
      <trkpt lat="43.5642050" lon="-6.9493210">
        <ele>42.8</ele>
        <time>2021-07-23T06:56:30Z</time>
      </trkpt>
      <trkpt lat="43.5642010" lon="-6.9493430">
        <ele>43.2</ele>
        <time>2021-07-23T06:56:31Z</time>
      </trkpt>
      <trkpt lat="43.5641980" lon="-6.9493650">
        <ele>44.0</ele>
        <time>2021-07-23T06:56:32Z</time>
      </trkpt>
      <trkpt lat="43.5641850" lon="-6.9494710">
        <ele>44.0</ele>
        <time>2021-07-23T06:56:37Z</time>
      </trkpt>
      <trkpt lat="43.5641820" lon="-6.9495540">
        <ele>44.4</ele>
        <time>2021-07-23T06:56:41Z</time>
      </trkpt>
      <trkpt lat="43.5641810" lon="-6.9495760">
        <ele>44.8</ele>
        <time>2021-07-23T06:56:42Z</time>
      </trkpt>
      <trkpt lat="43.5641780" lon="-6.9495970">
        <ele>45.4</ele>
        <time>2021-07-23T06:56:43Z</time>
      </trkpt>
      <trkpt lat="43.5641740" lon="-6.9496180">
        <ele>45.8</ele>
        <time>2021-07-23T06:56:44Z</time>
      </trkpt>
      <trkpt lat="43.5641740" lon="-6.9496370">
        <ele>46.2</ele>
        <time>2021-07-23T06:56:45Z</time>
      </trkpt>
      <trkpt lat="43.5641750" lon="-6.9496550">
        <ele>46.2</ele>
        <time>2021-07-23T06:56:46Z</time>
      </trkpt>
      <trkpt lat="43.5641670" lon="-6.9497150">
        <ele>46.2</ele>
        <time>2021-07-23T06:56:49Z</time>
      </trkpt>
      <trkpt lat="43.5641530" lon="-6.9498290">
        <ele>46.2</ele>
        <time>2021-07-23T06:56:56Z</time>
      </trkpt>
      <trkpt lat="43.5641500" lon="-6.9498350">
        <ele>47.0</ele>
        <time>2021-07-23T06:56:57Z</time>
      </trkpt>
      <trkpt lat="43.5641480" lon="-6.9498410">
        <ele>47.4</ele>
        <time>2021-07-23T06:56:58Z</time>
      </trkpt>
      <trkpt lat="43.5641480" lon="-6.9498510">
        <ele>47.8</ele>
        <time>2021-07-23T06:56:59Z</time>
      </trkpt>
      <trkpt lat="43.5641470" lon="-6.9498600">
        <ele>48.2</ele>
        <time>2021-07-23T06:57:00Z</time>
      </trkpt>
      <trkpt lat="43.5641370" lon="-6.9498950">
        <ele>48.2</ele>
        <time>2021-07-23T06:57:04Z</time>
      </trkpt>
      <trkpt lat="43.5641160" lon="-6.9498800">
        <ele>48.2</ele>
        <time>2021-07-23T06:57:08Z</time>
      </trkpt>
      <trkpt lat="43.5641210" lon="-6.9498570">
        <ele>48.2</ele>
        <time>2021-07-23T06:57:09Z</time>
      </trkpt>
      <trkpt lat="43.5641880" lon="-6.9497770">
        <ele>48.2</ele>
        <time>2021-07-23T06:57:14Z</time>
      </trkpt>
      <trkpt lat="43.5641920" lon="-6.9497780">
        <ele>48.2</ele>
        <time>2021-07-23T06:57:15Z</time>
      </trkpt>
      <trkpt lat="43.5641920" lon="-6.9497350">
        <ele>48.2</ele>
        <time>2021-07-23T06:58:51Z</time>
      </trkpt>
      <trkpt lat="43.5641830" lon="-6.9497020">
        <ele>48.2</ele>
        <time>2021-07-23T06:58:52Z</time>
      </trkpt>
      <trkpt lat="43.5641700" lon="-6.9495410">
        <ele>47.8</ele>
        <time>2021-07-23T06:58:55Z</time>
      </trkpt>
      <trkpt lat="43.5641780" lon="-6.9494730">
        <ele>47.4</ele>
        <time>2021-07-23T06:58:56Z</time>
      </trkpt>
      <trkpt lat="43.5641890" lon="-6.9494030">
        <ele>46.8</ele>
        <time>2021-07-23T06:58:57Z</time>
      </trkpt>
      <trkpt lat="43.5641990" lon="-6.9493370">
        <ele>46.4</ele>
        <time>2021-07-23T06:58:58Z</time>
      </trkpt>
      <trkpt lat="43.5642140" lon="-6.9492660">
        <ele>45.6</ele>
        <time>2021-07-23T06:58:59Z</time>
      </trkpt>
      <trkpt lat="43.5642310" lon="-6.9491970">
        <ele>45.2</ele>
        <time>2021-07-23T06:59:00Z</time>
      </trkpt>
      <trkpt lat="43.5642430" lon="-6.9491320">
        <ele>44.8</ele>
        <time>2021-07-23T06:59:01Z</time>
      </trkpt>
      <trkpt lat="43.5642480" lon="-6.9490720">
        <ele>44.4</ele>
        <time>2021-07-23T06:59:02Z</time>
      </trkpt>
      <trkpt lat="43.5642480" lon="-6.9490190">
        <ele>43.8</ele>
        <time>2021-07-23T06:59:03Z</time>
      </trkpt>
      <trkpt lat="43.5642350" lon="-6.9489740">
        <ele>43.4</ele>
        <time>2021-07-23T06:59:04Z</time>
      </trkpt>
      <trkpt lat="43.5642150" lon="-6.9489390">
        <ele>42.8</ele>
        <time>2021-07-23T06:59:05Z</time>
      </trkpt>
      <trkpt lat="43.5641850" lon="-6.9489260">
        <ele>42.2</ele>
        <time>2021-07-23T06:59:06Z</time>
      </trkpt>
      <trkpt lat="43.5641500" lon="-6.9489270">
        <ele>41.6</ele>
        <time>2021-07-23T06:59:07Z</time>
      </trkpt>
      <trkpt lat="43.5641110" lon="-6.9489410">
        <ele>41.2</ele>
        <time>2021-07-23T06:59:08Z</time>
      </trkpt>
      <trkpt lat="43.5640650" lon="-6.9489730">
        <ele>40.6</ele>
        <time>2021-07-23T06:59:09Z</time>
      </trkpt>
      <trkpt lat="43.5640160" lon="-6.9490150">
        <ele>40.0</ele>
        <time>2021-07-23T06:59:10Z</time>
      </trkpt>
      <trkpt lat="43.5639610" lon="-6.9490570">
        <ele>39.4</ele>
        <time>2021-07-23T06:59:11Z</time>
      </trkpt>
      <trkpt lat="43.5639010" lon="-6.9490990">
        <ele>39.0</ele>
        <time>2021-07-23T06:59:12Z</time>
      </trkpt>
      <trkpt lat="43.5638360" lon="-6.9491420">
        <ele>38.6</ele>
        <time>2021-07-23T06:59:13Z</time>
      </trkpt>
      <trkpt lat="43.5637640" lon="-6.9491910">
        <ele>38.0</ele>
        <time>2021-07-23T06:59:14Z</time>
      </trkpt>
      <trkpt lat="43.5636940" lon="-6.9492430">
        <ele>37.6</ele>
        <time>2021-07-23T06:59:15Z</time>
      </trkpt>
      <trkpt lat="43.5636210" lon="-6.9492960">
        <ele>37.0</ele>
        <time>2021-07-23T06:59:16Z</time>
      </trkpt>
      <trkpt lat="43.5635490" lon="-6.9493510">
        <ele>36.4</ele>
        <time>2021-07-23T06:59:17Z</time>
      </trkpt>
      <trkpt lat="43.5634820" lon="-6.9494040">
        <ele>35.8</ele>
        <time>2021-07-23T06:59:18Z</time>
      </trkpt>
      <trkpt lat="43.5634220" lon="-6.9494580">
        <ele>35.2</ele>
        <time>2021-07-23T06:59:19Z</time>
      </trkpt>
      <trkpt lat="43.5633670" lon="-6.9495130">
        <ele>34.6</ele>
        <time>2021-07-23T06:59:20Z</time>
      </trkpt>
      <trkpt lat="43.5633140" lon="-6.9495700">
        <ele>34.0</ele>
        <time>2021-07-23T06:59:21Z</time>
      </trkpt>
      <trkpt lat="43.5632620" lon="-6.9496330">
        <ele>33.4</ele>
        <time>2021-07-23T06:59:22Z</time>
      </trkpt>
      <trkpt lat="43.5632150" lon="-6.9496890">
        <ele>32.8</ele>
        <time>2021-07-23T06:59:23Z</time>
      </trkpt>
      <trkpt lat="43.5631700" lon="-6.9497390">
        <ele>32.2</ele>
        <time>2021-07-23T06:59:24Z</time>
      </trkpt>
      <trkpt lat="43.5631280" lon="-6.9497810">
        <ele>32.2</ele>
        <time>2021-07-23T06:59:25Z</time>
      </trkpt>
      <trkpt lat="43.5630860" lon="-6.9498150">
        <ele>32.2</ele>
        <time>2021-07-23T06:59:26Z</time>
      </trkpt>
      <trkpt lat="43.5630480" lon="-6.9498440">
        <ele>31.8</ele>
        <time>2021-07-23T06:59:27Z</time>
      </trkpt>
      <trkpt lat="43.5630170" lon="-6.9498700">
        <ele>31.4</ele>
        <time>2021-07-23T06:59:28Z</time>
      </trkpt>
      <trkpt lat="43.5629900" lon="-6.9498900">
        <ele>31.0</ele>
        <time>2021-07-23T06:59:29Z</time>
      </trkpt>
      <trkpt lat="43.5629690" lon="-6.9499020">
        <ele>30.4</ele>
        <time>2021-07-23T06:59:30Z</time>
      </trkpt>
      <trkpt lat="43.5629520" lon="-6.9499130">
        <ele>30.0</ele>
        <time>2021-07-23T06:59:31Z</time>
      </trkpt>
      <trkpt lat="43.5629280" lon="-6.9499280">
        <ele>30.0</ele>
        <time>2021-07-23T06:59:34Z</time>
      </trkpt>
      <trkpt lat="43.5629440" lon="-6.9498800">
        <ele>30.0</ele>
        <time>2021-07-23T07:00:07Z</time>
      </trkpt>
      <trkpt lat="43.5630400" lon="-6.9498150">
        <ele>30.0</ele>
        <time>2021-07-23T07:00:12Z</time>
      </trkpt>
      <trkpt lat="43.5630610" lon="-6.9497960">
        <ele>30.0</ele>
        <time>2021-07-23T07:00:13Z</time>
      </trkpt>
      <trkpt lat="43.5631240" lon="-6.9497320">
        <ele>30.0</ele>
        <time>2021-07-23T07:00:16Z</time>
      </trkpt>
      <trkpt lat="43.5632010" lon="-6.9496410">
        <ele>30.0</ele>
        <time>2021-07-23T07:00:19Z</time>
      </trkpt>
      <trkpt lat="43.5633950" lon="-6.9494370">
        <ele>30.0</ele>
        <time>2021-07-23T07:00:26Z</time>
      </trkpt>
      <trkpt lat="43.5635140" lon="-6.9493450">
        <ele>30.0</ele>
        <time>2021-07-23T07:00:30Z</time>
      </trkpt>
      <trkpt lat="43.5635900" lon="-6.9492890">
        <ele>30.0</ele>
        <time>2021-07-23T07:00:33Z</time>
      </trkpt>
      <trkpt lat="43.5636120" lon="-6.9492750">
        <ele>30.0</ele>
        <time>2021-07-23T07:00:34Z</time>
      </trkpt>
      <trkpt lat="43.5636800" lon="-6.9492210">
        <ele>30.0</ele>
        <time>2021-07-23T07:00:38Z</time>
      </trkpt>
      <trkpt lat="43.5637150" lon="-6.9491880">
        <ele>30.0</ele>
        <time>2021-07-23T07:00:40Z</time>
      </trkpt>
      <trkpt lat="43.5637790" lon="-6.9491390">
        <ele>30.0</ele>
        <time>2021-07-23T07:00:44Z</time>
      </trkpt>
      <trkpt lat="43.5638290" lon="-6.9491170">
        <ele>30.0</ele>
        <time>2021-07-23T07:00:47Z</time>
      </trkpt>
      <trkpt lat="43.5638450" lon="-6.9491090">
        <ele>30.4</ele>
        <time>2021-07-23T07:00:48Z</time>
      </trkpt>
      <trkpt lat="43.5638620" lon="-6.9491000">
        <ele>30.8</ele>
        <time>2021-07-23T07:00:49Z</time>
      </trkpt>
      <trkpt lat="43.5638790" lon="-6.9490910">
        <ele>31.4</ele>
        <time>2021-07-23T07:00:50Z</time>
      </trkpt>
      <trkpt lat="43.5638950" lon="-6.9490820">
        <ele>31.8</ele>
        <time>2021-07-23T07:00:51Z</time>
      </trkpt>
      <trkpt lat="43.5639090" lon="-6.9490710">
        <ele>32.2</ele>
        <time>2021-07-23T07:00:52Z</time>
      </trkpt>
      <trkpt lat="43.5639700" lon="-6.9490270">
        <ele>32.2</ele>
        <time>2021-07-23T07:00:56Z</time>
      </trkpt>
      <trkpt lat="43.5640130" lon="-6.9489920">
        <ele>32.6</ele>
        <time>2021-07-23T07:01:00Z</time>
      </trkpt>
      <trkpt lat="43.5640240" lon="-6.9489830">
        <ele>33.0</ele>
        <time>2021-07-23T07:01:01Z</time>
      </trkpt>
      <trkpt lat="43.5640370" lon="-6.9489750">
        <ele>33.4</ele>
        <time>2021-07-23T07:01:02Z</time>
      </trkpt>
      <trkpt lat="43.5640490" lon="-6.9489660">
        <ele>34.4</ele>
        <time>2021-07-23T07:01:03Z</time>
      </trkpt>
      <trkpt lat="43.5640630" lon="-6.9489590">
        <ele>34.4</ele>
        <time>2021-07-23T07:01:04Z</time>
      </trkpt>
      <trkpt lat="43.5641210" lon="-6.9489190">
        <ele>34.8</ele>
        <time>2021-07-23T07:01:09Z</time>
      </trkpt>
      <trkpt lat="43.5641330" lon="-6.9489150">
        <ele>35.2</ele>
        <time>2021-07-23T07:01:10Z</time>
      </trkpt>
      <trkpt lat="43.5641470" lon="-6.9489110">
        <ele>35.6</ele>
        <time>2021-07-23T07:01:11Z</time>
      </trkpt>
      <trkpt lat="43.5641620" lon="-6.9489070">
        <ele>36.0</ele>
        <time>2021-07-23T07:01:12Z</time>
      </trkpt>
      <trkpt lat="43.5641770" lon="-6.9489020">
        <ele>36.4</ele>
        <time>2021-07-23T07:01:13Z</time>
      </trkpt>
      <trkpt lat="43.5642510" lon="-6.9489540">
        <ele>36.4</ele>
        <time>2021-07-23T07:01:19Z</time>
      </trkpt>
      <trkpt lat="43.5642540" lon="-6.9489740">
        <ele>36.8</ele>
        <time>2021-07-23T07:01:20Z</time>
      </trkpt>
      <trkpt lat="43.5642570" lon="-6.9489910">
        <ele>37.2</ele>
        <time>2021-07-23T07:01:21Z</time>
      </trkpt>
      <trkpt lat="43.5642570" lon="-6.9490130">
        <ele>37.6</ele>
        <time>2021-07-23T07:01:22Z</time>
      </trkpt>
      <trkpt lat="43.5642600" lon="-6.9490340">
        <ele>38.2</ele>
        <time>2021-07-23T07:01:23Z</time>
      </trkpt>
      <trkpt lat="43.5642590" lon="-6.9490530">
        <ele>38.6</ele>
        <time>2021-07-23T07:01:24Z</time>
      </trkpt>
      <trkpt lat="43.5642570" lon="-6.9490760">
        <ele>38.6</ele>
        <time>2021-07-23T07:01:25Z</time>
      </trkpt>
      <trkpt lat="43.5642250" lon="-6.9492490">
        <ele>38.6</ele>
        <time>2021-07-23T07:01:33Z</time>
      </trkpt>
      <trkpt lat="43.5642230" lon="-6.9492670">
        <ele>39.0</ele>
        <time>2021-07-23T07:01:34Z</time>
      </trkpt>
      <trkpt lat="43.5642230" lon="-6.9492820">
        <ele>39.4</ele>
        <time>2021-07-23T07:01:35Z</time>
      </trkpt>
      <trkpt lat="43.5642210" lon="-6.9493010">
        <ele>39.8</ele>
        <time>2021-07-23T07:01:36Z</time>
      </trkpt>
      <trkpt lat="43.5642170" lon="-6.9493200">
        <ele>40.2</ele>
        <time>2021-07-23T07:01:37Z</time>
      </trkpt>
      <trkpt lat="43.5642120" lon="-6.9493390">
        <ele>40.6</ele>
        <time>2021-07-23T07:01:38Z</time>
      </trkpt>
      <trkpt lat="43.5641950" lon="-6.9493950">
        <ele>40.6</ele>
        <time>2021-07-23T07:01:41Z</time>
      </trkpt>
      <trkpt lat="43.5641830" lon="-6.9495050">
        <ele>41.0</ele>
        <time>2021-07-23T07:01:47Z</time>
      </trkpt>
      <trkpt lat="43.5641840" lon="-6.9495240">
        <ele>41.4</ele>
        <time>2021-07-23T07:01:48Z</time>
      </trkpt>
      <trkpt lat="43.5641840" lon="-6.9495370">
        <ele>41.8</ele>
        <time>2021-07-23T07:01:49Z</time>
      </trkpt>
      <trkpt lat="43.5641840" lon="-6.9495500">
        <ele>42.2</ele>
        <time>2021-07-23T07:01:50Z</time>
      </trkpt>
      <trkpt lat="43.5641830" lon="-6.9495690">
        <ele>42.6</ele>
        <time>2021-07-23T07:01:51Z</time>
      </trkpt>
      <trkpt lat="43.5641910" lon="-6.9496420">
        <ele>42.6</ele>
        <time>2021-07-23T07:01:55Z</time>
      </trkpt>
      <trkpt lat="43.5641730" lon="-6.9497560">
        <ele>43.2</ele>
        <time>2021-07-23T07:02:01Z</time>
      </trkpt>
      <trkpt lat="43.5641690" lon="-6.9497770">
        <ele>43.6</ele>
        <time>2021-07-23T07:02:02Z</time>
      </trkpt>
      <trkpt lat="43.5641580" lon="-6.9498020">
        <ele>44.0</ele>
        <time>2021-07-23T07:02:03Z</time>
      </trkpt>
      <trkpt lat="43.5641460" lon="-6.9498210">
        <ele>44.4</ele>
        <time>2021-07-23T07:02:04Z</time>
      </trkpt>
      <trkpt lat="43.5641380" lon="-6.9498350">
        <ele>44.8</ele>
        <time>2021-07-23T07:02:05Z</time>
      </trkpt>
      <trkpt lat="43.5641340" lon="-6.9498530">
        <ele>44.8</ele>
        <time>2021-07-23T07:02:06Z</time>
      </trkpt>
      <trkpt lat="43.5641350" lon="-6.9498870">
        <ele>44.8</ele>
        <time>2021-07-23T07:02:08Z</time>
      </trkpt>
      <trkpt lat="43.5641280" lon="-6.9499030">
        <ele>44.8</ele>
        <time>2021-07-23T07:02:09Z</time>
      </trkpt>
      <trkpt lat="43.5641090" lon="-6.9499860">
        <ele>44.8</ele>
        <time>2021-07-23T07:02:13Z</time>
      </trkpt>
      <trkpt lat="43.5641060" lon="-6.9500110">
        <ele>44.8</ele>
        <time>2021-07-23T07:02:14Z</time>
      </trkpt>
      <trkpt lat="43.5640590" lon="-6.9501900">
        <ele>44.8</ele>
        <time>2021-07-23T07:02:21Z</time>
      </trkpt>
      <trkpt lat="43.5640440" lon="-6.9502500">
        <ele>45.2</ele>
        <time>2021-07-23T07:02:23Z</time>
      </trkpt>
      <trkpt lat="43.5640360" lon="-6.9502760">
        <ele>45.6</ele>
        <time>2021-07-23T07:02:24Z</time>
      </trkpt>
      <trkpt lat="43.5640270" lon="-6.9503080">
        <ele>46.0</ele>
        <time>2021-07-23T07:02:25Z</time>
      </trkpt>
      <trkpt lat="43.5640190" lon="-6.9503380">
        <ele>46.4</ele>
        <time>2021-07-23T07:02:26Z</time>
      </trkpt>
      <trkpt lat="43.5640110" lon="-6.9503700">
        <ele>46.8</ele>
        <time>2021-07-23T07:02:27Z</time>
      </trkpt>
      <trkpt lat="43.5640080" lon="-6.9504030">
        <ele>46.8</ele>
        <time>2021-07-23T07:02:28Z</time>
      </trkpt>
      <trkpt lat="43.5640440" lon="-6.9506080">
        <ele>46.8</ele>
        <time>2021-07-23T07:02:34Z</time>
      </trkpt>
      <trkpt lat="43.5641240" lon="-6.9508680">
        <ele>46.8</ele>
        <time>2021-07-23T07:02:42Z</time>
      </trkpt>
      <trkpt lat="43.5641650" lon="-6.9511000">
        <ele>46.8</ele>
        <time>2021-07-23T07:02:48Z</time>
      </trkpt>
      <trkpt lat="43.5641720" lon="-6.9511430">
        <ele>46.8</ele>
        <time>2021-07-23T07:02:49Z</time>
      </trkpt>
      <trkpt lat="43.5641930" lon="-6.9512710">
        <ele>46.8</ele>
        <time>2021-07-23T07:02:52Z</time>
      </trkpt>
      <trkpt lat="43.5642080" lon="-6.9514210">
        <ele>46.8</ele>
        <time>2021-07-23T07:02:56Z</time>
      </trkpt>
      <trkpt lat="43.5642050" lon="-6.9514620">
        <ele>46.8</ele>
        <time>2021-07-23T07:02:57Z</time>
      </trkpt>
      <trkpt lat="43.5641400" lon="-6.9516760">
        <ele>46.8</ele>
        <time>2021-07-23T07:03:03Z</time>
      </trkpt>
      <trkpt lat="43.5641000" lon="-6.9517400">
        <ele>47.2</ele>
        <time>2021-07-23T07:03:05Z</time>
      </trkpt>
      <trkpt lat="43.5640780" lon="-6.9517680">
        <ele>47.6</ele>
        <time>2021-07-23T07:03:06Z</time>
      </trkpt>
      <trkpt lat="43.5640530" lon="-6.9517970">
        <ele>48.4</ele>
        <time>2021-07-23T07:03:07Z</time>
      </trkpt>
      <trkpt lat="43.5640310" lon="-6.9518260">
        <ele>48.8</ele>
        <time>2021-07-23T07:03:08Z</time>
      </trkpt>
      <trkpt lat="43.5640120" lon="-6.9518590">
        <ele>48.8</ele>
        <time>2021-07-23T07:03:09Z</time>
      </trkpt>
      <trkpt lat="43.5639570" lon="-6.9520000">
        <ele>48.8</ele>
        <time>2021-07-23T07:03:13Z</time>
      </trkpt>
      <trkpt lat="43.5639170" lon="-6.9521080">
        <ele>48.8</ele>
        <time>2021-07-23T07:03:16Z</time>
      </trkpt>
      <trkpt lat="43.5638190" lon="-6.9522180">
        <ele>48.8</ele>
        <time>2021-07-23T07:03:20Z</time>
      </trkpt>
      <trkpt lat="43.5637870" lon="-6.9522380">
        <ele>48.8</ele>
        <time>2021-07-23T07:03:21Z</time>
      </trkpt>
      <trkpt lat="43.5637180" lon="-6.9522760">
        <ele>48.8</ele>
        <time>2021-07-23T07:03:23Z</time>
      </trkpt>
      <trkpt lat="43.5636470" lon="-6.9523150">
        <ele>48.8</ele>
        <time>2021-07-23T07:03:25Z</time>
      </trkpt>
      <trkpt lat="43.5635040" lon="-6.9523910">
        <ele>48.8</ele>
        <time>2021-07-23T07:03:29Z</time>
      </trkpt>
      <trkpt lat="43.5634690" lon="-6.9524030">
        <ele>48.8</ele>
        <time>2021-07-23T07:03:30Z</time>
      </trkpt>
      <trkpt lat="43.5633050" lon="-6.9524780">
        <ele>48.8</ele>
        <time>2021-07-23T07:03:35Z</time>
      </trkpt>
      <trkpt lat="43.5632450" lon="-6.9525050">
        <ele>48.8</ele>
        <time>2021-07-23T07:03:37Z</time>
      </trkpt>
      <trkpt lat="43.5631870" lon="-6.9525340">
        <ele>48.4</ele>
        <time>2021-07-23T07:03:39Z</time>
      </trkpt>
      <trkpt lat="43.5631540" lon="-6.9525450">
        <ele>48.0</ele>
        <time>2021-07-23T07:03:40Z</time>
      </trkpt>
      <trkpt lat="43.5631190" lon="-6.9525580">
        <ele>47.6</ele>
        <time>2021-07-23T07:03:41Z</time>
      </trkpt>
      <trkpt lat="43.5630830" lon="-6.9525680">
        <ele>47.2</ele>
        <time>2021-07-23T07:03:42Z</time>
      </trkpt>
      <trkpt lat="43.5630440" lon="-6.9525800">
        <ele>46.8</ele>
        <time>2021-07-23T07:03:43Z</time>
      </trkpt>
      <trkpt lat="43.5630040" lon="-6.9525900">
        <ele>46.8</ele>
        <time>2021-07-23T07:03:44Z</time>
      </trkpt>
      <trkpt lat="43.5629660" lon="-6.9525960">
        <ele>46.8</ele>
        <time>2021-07-23T07:03:45Z</time>
      </trkpt>
      <trkpt lat="43.5629260" lon="-6.9526020">
        <ele>46.8</ele>
        <time>2021-07-23T07:03:46Z</time>
      </trkpt>
      <trkpt lat="43.5627360" lon="-6.9526040">
        <ele>46.8</ele>
        <time>2021-07-23T07:03:51Z</time>
      </trkpt>
      <trkpt lat="43.5624950" lon="-6.9526240">
        <ele>46.8</ele>
        <time>2021-07-23T07:03:58Z</time>
      </trkpt>
      <trkpt lat="43.5622910" lon="-6.9527120">
        <ele>46.8</ele>
        <time>2021-07-23T07:04:05Z</time>
      </trkpt>
      <trkpt lat="43.5620550" lon="-6.9528290">
        <ele>46.8</ele>
        <time>2021-07-23T07:04:13Z</time>
      </trkpt>
      <trkpt lat="43.5619240" lon="-6.9528780">
        <ele>46.8</ele>
        <time>2021-07-23T07:04:17Z</time>
      </trkpt>
      <trkpt lat="43.5618570" lon="-6.9529000">
        <ele>46.8</ele>
        <time>2021-07-23T07:04:19Z</time>
      </trkpt>
      <trkpt lat="43.5617220" lon="-6.9529360">
        <ele>46.8</ele>
        <time>2021-07-23T07:04:23Z</time>
      </trkpt>
      <trkpt lat="43.5616230" lon="-6.9529530">
        <ele>46.8</ele>
        <time>2021-07-23T07:04:26Z</time>
      </trkpt>
      <trkpt lat="43.5615230" lon="-6.9529810">
        <ele>46.8</ele>
        <time>2021-07-23T07:04:29Z</time>
      </trkpt>
      <trkpt lat="43.5613900" lon="-6.9530110">
        <ele>47.2</ele>
        <time>2021-07-23T07:04:33Z</time>
      </trkpt>
      <trkpt lat="43.5613590" lon="-6.9530190">
        <ele>47.6</ele>
        <time>2021-07-23T07:04:34Z</time>
      </trkpt>
      <trkpt lat="43.5613280" lon="-6.9530320">
        <ele>48.0</ele>
        <time>2021-07-23T07:04:35Z</time>
      </trkpt>
      <trkpt lat="43.5612950" lon="-6.9530450">
        <ele>48.4</ele>
        <time>2021-07-23T07:04:36Z</time>
      </trkpt>
      <trkpt lat="43.5612640" lon="-6.9530520">
        <ele>48.8</ele>
        <time>2021-07-23T07:04:37Z</time>
      </trkpt>
      <trkpt lat="43.5611050" lon="-6.9530870">
        <ele>48.8</ele>
        <time>2021-07-23T07:04:42Z</time>
      </trkpt>
      <trkpt lat="43.5608270" lon="-6.9531580">
        <ele>49.2</ele>
        <time>2021-07-23T07:04:51Z</time>
      </trkpt>
      <trkpt lat="43.5607960" lon="-6.9531710">
        <ele>49.6</ele>
        <time>2021-07-23T07:04:52Z</time>
      </trkpt>
      <trkpt lat="43.5607660" lon="-6.9531780">
        <ele>50.0</ele>
        <time>2021-07-23T07:04:53Z</time>
      </trkpt>
      <trkpt lat="43.5607370" lon="-6.9531860">
        <ele>50.4</ele>
        <time>2021-07-23T07:04:54Z</time>
      </trkpt>
      <trkpt lat="43.5607080" lon="-6.9531940">
        <ele>50.8</ele>
        <time>2021-07-23T07:04:55Z</time>
      </trkpt>
      <trkpt lat="43.5606160" lon="-6.9532130">
        <ele>50.8</ele>
        <time>2021-07-23T07:04:58Z</time>
      </trkpt>
      <trkpt lat="43.5603430" lon="-6.9532810">
        <ele>50.8</ele>
        <time>2021-07-23T07:05:07Z</time>
      </trkpt>
      <trkpt lat="43.5602510" lon="-6.9533040">
        <ele>51.2</ele>
        <time>2021-07-23T07:05:10Z</time>
      </trkpt>
      <trkpt lat="43.5602200" lon="-6.9533120">
        <ele>51.8</ele>
        <time>2021-07-23T07:05:11Z</time>
      </trkpt>
      <trkpt lat="43.5601910" lon="-6.9533200">
        <ele>52.2</ele>
        <time>2021-07-23T07:05:12Z</time>
      </trkpt>
      <trkpt lat="43.5601610" lon="-6.9533280">
        <ele>52.6</ele>
        <time>2021-07-23T07:05:13Z</time>
      </trkpt>
      <trkpt lat="43.5601300" lon="-6.9533350">
        <ele>53.0</ele>
        <time>2021-07-23T07:05:14Z</time>
      </trkpt>
      <trkpt lat="43.5600360" lon="-6.9533650">
        <ele>53.0</ele>
        <time>2021-07-23T07:05:17Z</time>
      </trkpt>
      <trkpt lat="43.5597180" lon="-6.9534530">
        <ele>53.0</ele>
        <time>2021-07-23T07:05:28Z</time>
      </trkpt>
      <trkpt lat="43.5594270" lon="-6.9535210">
        <ele>53.0</ele>
        <time>2021-07-23T07:05:37Z</time>
      </trkpt>
      <trkpt lat="43.5592980" lon="-6.9535470">
        <ele>53.0</ele>
        <time>2021-07-23T07:05:41Z</time>
      </trkpt>
      <trkpt lat="43.5592320" lon="-6.9535590">
        <ele>53.0</ele>
        <time>2021-07-23T07:05:43Z</time>
      </trkpt>
      <trkpt lat="43.5589860" lon="-6.9536040">
        <ele>53.0</ele>
        <time>2021-07-23T07:05:50Z</time>
      </trkpt>
      <trkpt lat="43.5589500" lon="-6.9536120">
        <ele>53.0</ele>
        <time>2021-07-23T07:05:51Z</time>
      </trkpt>
      <trkpt lat="43.5588750" lon="-6.9536310">
        <ele>53.0</ele>
        <time>2021-07-23T07:05:53Z</time>
      </trkpt>
      <trkpt lat="43.5587980" lon="-6.9536500">
        <ele>53.0</ele>
        <time>2021-07-23T07:05:55Z</time>
      </trkpt>
      <trkpt lat="43.5585990" lon="-6.9537080">
        <ele>53.0</ele>
        <time>2021-07-23T07:06:00Z</time>
      </trkpt>
      <trkpt lat="43.5585550" lon="-6.9537160">
        <ele>53.0</ele>
        <time>2021-07-23T07:06:01Z</time>
      </trkpt>
      <trkpt lat="43.5582250" lon="-6.9538110">
        <ele>53.0</ele>
        <time>2021-07-23T07:06:08Z</time>
      </trkpt>
      <trkpt lat="43.5580230" lon="-6.9538600">
        <ele>53.0</ele>
        <time>2021-07-23T07:06:12Z</time>
      </trkpt>
      <trkpt lat="43.5579390" lon="-6.9538780">
        <ele>52.6</ele>
        <time>2021-07-23T07:06:14Z</time>
      </trkpt>
      <trkpt lat="43.5579040" lon="-6.9538840">
        <ele>52.2</ele>
        <time>2021-07-23T07:06:15Z</time>
      </trkpt>
      <trkpt lat="43.5578670" lon="-6.9538940">
        <ele>51.6</ele>
        <time>2021-07-23T07:06:16Z</time>
      </trkpt>
      <trkpt lat="43.5578350" lon="-6.9539150">
        <ele>51.2</ele>
        <time>2021-07-23T07:06:17Z</time>
      </trkpt>
      <trkpt lat="43.5578030" lon="-6.9539430">
        <ele>50.8</ele>
        <time>2021-07-23T07:06:18Z</time>
      </trkpt>
      <trkpt lat="43.5577470" lon="-6.9540150">
        <ele>50.8</ele>
        <time>2021-07-23T07:06:20Z</time>
      </trkpt>
      <trkpt lat="43.5577010" lon="-6.9541050">
        <ele>50.8</ele>
        <time>2021-07-23T07:06:22Z</time>
      </trkpt>
      <trkpt lat="43.5576230" lon="-6.9542660">
        <ele>50.8</ele>
        <time>2021-07-23T07:06:25Z</time>
      </trkpt>
      <trkpt lat="43.5575980" lon="-6.9543300">
        <ele>50.8</ele>
        <time>2021-07-23T07:06:26Z</time>
      </trkpt>
      <trkpt lat="43.5575570" lon="-6.9544620">
        <ele>50.4</ele>
        <time>2021-07-23T07:06:28Z</time>
      </trkpt>
      <trkpt lat="43.5575380" lon="-6.9545310">
        <ele>50.0</ele>
        <time>2021-07-23T07:06:29Z</time>
      </trkpt>
      <trkpt lat="43.5575190" lon="-6.9546040">
        <ele>49.6</ele>
        <time>2021-07-23T07:06:30Z</time>
      </trkpt>
      <trkpt lat="43.5574970" lon="-6.9546740">
        <ele>49.2</ele>
        <time>2021-07-23T07:06:31Z</time>
      </trkpt>
      <trkpt lat="43.5574720" lon="-6.9547430">
        <ele>48.8</ele>
        <time>2021-07-23T07:06:32Z</time>
      </trkpt>
      <trkpt lat="43.5572840" lon="-6.9552550">
        <ele>48.8</ele>
        <time>2021-07-23T07:06:39Z</time>
      </trkpt>
      <trkpt lat="43.5571770" lon="-6.9555500">
        <ele>48.4</ele>
        <time>2021-07-23T07:06:43Z</time>
      </trkpt>
      <trkpt lat="43.5571510" lon="-6.9556190">
        <ele>48.0</ele>
        <time>2021-07-23T07:06:44Z</time>
      </trkpt>
      <trkpt lat="43.5571260" lon="-6.9556880">
        <ele>47.4</ele>
        <time>2021-07-23T07:06:45Z</time>
      </trkpt>
      <trkpt lat="43.5571020" lon="-6.9557590">
        <ele>47.0</ele>
        <time>2021-07-23T07:06:46Z</time>
      </trkpt>
      <trkpt lat="43.5570790" lon="-6.9558220">
        <ele>46.6</ele>
        <time>2021-07-23T07:06:47Z</time>
      </trkpt>
      <trkpt lat="43.5569690" lon="-6.9561180">
        <ele>46.6</ele>
        <time>2021-07-23T07:06:52Z</time>
      </trkpt>
      <trkpt lat="43.5569270" lon="-6.9562330">
        <ele>46.6</ele>
        <time>2021-07-23T07:06:54Z</time>
      </trkpt>
      <trkpt lat="43.5568500" lon="-6.9564460">
        <ele>46.6</ele>
        <time>2021-07-23T07:06:58Z</time>
      </trkpt>
      <trkpt lat="43.5567930" lon="-6.9565910">
        <ele>46.6</ele>
        <time>2021-07-23T07:07:01Z</time>
      </trkpt>
      <trkpt lat="43.5567690" lon="-6.9566380">
        <ele>46.6</ele>
        <time>2021-07-23T07:07:02Z</time>
      </trkpt>
      <trkpt lat="43.5567380" lon="-6.9566790">
        <ele>46.6</ele>
        <time>2021-07-23T07:07:03Z</time>
      </trkpt>
      <trkpt lat="43.5566690" lon="-6.9567600">
        <ele>46.6</ele>
        <time>2021-07-23T07:07:05Z</time>
      </trkpt>
      <trkpt lat="43.5565860" lon="-6.9568320">
        <ele>46.6</ele>
        <time>2021-07-23T07:07:07Z</time>
      </trkpt>
      <trkpt lat="43.5564850" lon="-6.9569040">
        <ele>46.2</ele>
        <time>2021-07-23T07:07:09Z</time>
      </trkpt>
      <trkpt lat="43.5564310" lon="-6.9569440">
        <ele>45.8</ele>
        <time>2021-07-23T07:07:10Z</time>
      </trkpt>
      <trkpt lat="43.5563770" lon="-6.9569860">
        <ele>45.4</ele>
        <time>2021-07-23T07:07:11Z</time>
      </trkpt>
      <trkpt lat="43.5563220" lon="-6.9570240">
        <ele>45.0</ele>
        <time>2021-07-23T07:07:12Z</time>
      </trkpt>
      <trkpt lat="43.5562690" lon="-6.9570620">
        <ele>44.6</ele>
        <time>2021-07-23T07:07:13Z</time>
      </trkpt>
      <trkpt lat="43.5562190" lon="-6.9570970">
        <ele>43.8</ele>
        <time>2021-07-23T07:07:14Z</time>
      </trkpt>
      <trkpt lat="43.5561700" lon="-6.9571310">
        <ele>43.4</ele>
        <time>2021-07-23T07:07:15Z</time>
      </trkpt>
      <trkpt lat="43.5561260" lon="-6.9571630">
        <ele>43.0</ele>
        <time>2021-07-23T07:07:16Z</time>
      </trkpt>
      <trkpt lat="43.5560830" lon="-6.9571980">
        <ele>42.6</ele>
        <time>2021-07-23T07:07:17Z</time>
      </trkpt>
      <trkpt lat="43.5560480" lon="-6.9572420">
        <ele>42.6</ele>
        <time>2021-07-23T07:07:18Z</time>
      </trkpt>
      <trkpt lat="43.5560190" lon="-6.9572960">
        <ele>42.6</ele>
        <time>2021-07-23T07:07:19Z</time>
      </trkpt>
      <trkpt lat="43.5559930" lon="-6.9573600">
        <ele>42.2</ele>
        <time>2021-07-23T07:07:20Z</time>
      </trkpt>
      <trkpt lat="43.5559730" lon="-6.9574280">
        <ele>41.8</ele>
        <time>2021-07-23T07:07:21Z</time>
      </trkpt>
      <trkpt lat="43.5559500" lon="-6.9574920">
        <ele>41.4</ele>
        <time>2021-07-23T07:07:22Z</time>
      </trkpt>
      <trkpt lat="43.5559180" lon="-6.9575460">
        <ele>41.0</ele>
        <time>2021-07-23T07:07:23Z</time>
      </trkpt>
      <trkpt lat="43.5558830" lon="-6.9575890">
        <ele>40.6</ele>
        <time>2021-07-23T07:07:24Z</time>
      </trkpt>
      <trkpt lat="43.5557780" lon="-6.9576570">
        <ele>40.6</ele>
        <time>2021-07-23T07:07:27Z</time>
      </trkpt>
      <trkpt lat="43.5557490" lon="-6.9576660">
        <ele>40.6</ele>
        <time>2021-07-23T07:07:28Z</time>
      </trkpt>
      <trkpt lat="43.5557000" lon="-6.9576960">
        <ele>40.6</ele>
        <time>2021-07-23T07:07:30Z</time>
      </trkpt>
      <trkpt lat="43.5556800" lon="-6.9577090">
        <ele>40.6</ele>
        <time>2021-07-23T07:07:31Z</time>
      </trkpt>
      <trkpt lat="43.5556620" lon="-6.9577180">
        <ele>40.6</ele>
        <time>2021-07-23T07:07:32Z</time>
      </trkpt>
      <trkpt lat="43.5556020" lon="-6.9577540">
        <ele>40.6</ele>
        <time>2021-07-23T07:07:35Z</time>
      </trkpt>
      <trkpt lat="43.5555620" lon="-6.9577910">
        <ele>40.6</ele>
        <time>2021-07-23T07:07:37Z</time>
      </trkpt>
      <trkpt lat="43.5555210" lon="-6.9578250">
        <ele>41.0</ele>
        <time>2021-07-23T07:07:39Z</time>
      </trkpt>
      <trkpt lat="43.5555000" lon="-6.9578420">
        <ele>41.4</ele>
        <time>2021-07-23T07:07:40Z</time>
      </trkpt>
      <trkpt lat="43.5554810" lon="-6.9578580">
        <ele>41.8</ele>
        <time>2021-07-23T07:07:41Z</time>
      </trkpt>
      <trkpt lat="43.5554640" lon="-6.9578780">
        <ele>42.2</ele>
        <time>2021-07-23T07:07:42Z</time>
      </trkpt>
      <trkpt lat="43.5554430" lon="-6.9579010">
        <ele>42.6</ele>
        <time>2021-07-23T07:07:43Z</time>
      </trkpt>
      <trkpt lat="43.5554020" lon="-6.9579350">
        <ele>42.6</ele>
        <time>2021-07-23T07:07:45Z</time>
      </trkpt>
      <trkpt lat="43.5553600" lon="-6.9579680">
        <ele>43.0</ele>
        <time>2021-07-23T07:07:47Z</time>
      </trkpt>
      <trkpt lat="43.5553420" lon="-6.9579870">
        <ele>43.6</ele>
        <time>2021-07-23T07:07:48Z</time>
      </trkpt>
      <trkpt lat="43.5553250" lon="-6.9580070">
        <ele>44.0</ele>
        <time>2021-07-23T07:07:49Z</time>
      </trkpt>
      <trkpt lat="43.5553060" lon="-6.9580270">
        <ele>44.4</ele>
        <time>2021-07-23T07:07:50Z</time>
      </trkpt>
      <trkpt lat="43.5552870" lon="-6.9580460">
        <ele>44.8</ele>
        <time>2021-07-23T07:07:51Z</time>
      </trkpt>
      <trkpt lat="43.5552700" lon="-6.9580660">
        <ele>44.8</ele>
        <time>2021-07-23T07:07:52Z</time>
      </trkpt>
      <trkpt lat="43.5552130" lon="-6.9581580">
        <ele>44.8</ele>
        <time>2021-07-23T07:07:56Z</time>
      </trkpt>
      <trkpt lat="43.5551910" lon="-6.9582460">
        <ele>44.8</ele>
        <time>2021-07-23T07:07:59Z</time>
      </trkpt>
      <trkpt lat="43.5551860" lon="-6.9582790">
        <ele>45.2</ele>
        <time>2021-07-23T07:08:00Z</time>
      </trkpt>
      <trkpt lat="43.5551830" lon="-6.9583150">
        <ele>45.6</ele>
        <time>2021-07-23T07:08:01Z</time>
      </trkpt>
      <trkpt lat="43.5551820" lon="-6.9583520">
        <ele>46.0</ele>
        <time>2021-07-23T07:08:02Z</time>
      </trkpt>
      <trkpt lat="43.5551820" lon="-6.9583910">
        <ele>46.4</ele>
        <time>2021-07-23T07:08:03Z</time>
      </trkpt>
      <trkpt lat="43.5551840" lon="-6.9584330">
        <ele>46.8</ele>
        <time>2021-07-23T07:08:04Z</time>
      </trkpt>
      <trkpt lat="43.5551860" lon="-6.9584730">
        <ele>46.8</ele>
        <time>2021-07-23T07:08:05Z</time>
      </trkpt>
      <trkpt lat="43.5551980" lon="-6.9587300">
        <ele>46.8</ele>
        <time>2021-07-23T07:08:11Z</time>
      </trkpt>
      <trkpt lat="43.5552280" lon="-6.9591810">
        <ele>46.8</ele>
        <time>2021-07-23T07:08:21Z</time>
      </trkpt>
      <trkpt lat="43.5552440" lon="-6.9595140">
        <ele>46.8</ele>
        <time>2021-07-23T07:08:28Z</time>
      </trkpt>
      <trkpt lat="43.5552670" lon="-6.9599010">
        <ele>46.8</ele>
        <time>2021-07-23T07:08:36Z</time>
      </trkpt>
      <trkpt lat="43.5552860" lon="-6.9602370">
        <ele>47.2</ele>
        <time>2021-07-23T07:08:43Z</time>
      </trkpt>
      <trkpt lat="43.5552880" lon="-6.9602870">
        <ele>47.6</ele>
        <time>2021-07-23T07:08:44Z</time>
      </trkpt>
      <trkpt lat="43.5552910" lon="-6.9603350">
        <ele>48.0</ele>
        <time>2021-07-23T07:08:45Z</time>
      </trkpt>
      <trkpt lat="43.5552950" lon="-6.9603840">
        <ele>48.4</ele>
        <time>2021-07-23T07:08:46Z</time>
      </trkpt>
      <trkpt lat="43.5552970" lon="-6.9604370">
        <ele>48.8</ele>
        <time>2021-07-23T07:08:47Z</time>
      </trkpt>
      <trkpt lat="43.5553070" lon="-6.9606450">
        <ele>48.8</ele>
        <time>2021-07-23T07:08:51Z</time>
      </trkpt>
      <trkpt lat="43.5553330" lon="-6.9610200">
        <ele>48.8</ele>
        <time>2021-07-23T07:08:58Z</time>
      </trkpt>
      <trkpt lat="43.5553400" lon="-6.9611320">
        <ele>48.8</ele>
        <time>2021-07-23T07:09:00Z</time>
      </trkpt>
      <trkpt lat="43.5553590" lon="-6.9614760">
        <ele>48.8</ele>
        <time>2021-07-23T07:09:06Z</time>
      </trkpt>
      <trkpt lat="43.5553630" lon="-6.9615830">
        <ele>48.8</ele>
        <time>2021-07-23T07:09:08Z</time>
      </trkpt>
      <trkpt lat="43.5553730" lon="-6.9619970">
        <ele>48.8</ele>
        <time>2021-07-23T07:09:16Z</time>
      </trkpt>
      <trkpt lat="43.5553410" lon="-6.9623160">
        <ele>48.8</ele>
        <time>2021-07-23T07:09:22Z</time>
      </trkpt>
      <trkpt lat="43.5553350" lon="-6.9623730">
        <ele>48.8</ele>
        <time>2021-07-23T07:09:23Z</time>
      </trkpt>
      <trkpt lat="43.5552950" lon="-6.9628190">
        <ele>48.8</ele>
        <time>2021-07-23T07:09:31Z</time>
      </trkpt>
      <trkpt lat="43.5552430" lon="-6.9633630">
        <ele>48.8</ele>
        <time>2021-07-23T07:09:40Z</time>
      </trkpt>
      <trkpt lat="43.5552130" lon="-6.9636790">
        <ele>48.8</ele>
        <time>2021-07-23T07:09:45Z</time>
      </trkpt>
      <trkpt lat="43.5551820" lon="-6.9640120">
        <ele>48.8</ele>
        <time>2021-07-23T07:09:50Z</time>
      </trkpt>
      <trkpt lat="43.5551300" lon="-6.9645580">
        <ele>48.4</ele>
        <time>2021-07-23T07:09:58Z</time>
      </trkpt>
      <trkpt lat="43.5551210" lon="-6.9646280">
        <ele>48.0</ele>
        <time>2021-07-23T07:09:59Z</time>
      </trkpt>
      <trkpt lat="43.5551130" lon="-6.9646970">
        <ele>47.6</ele>
        <time>2021-07-23T07:10:00Z</time>
      </trkpt>
      <trkpt lat="43.5551070" lon="-6.9647640">
        <ele>47.0</ele>
        <time>2021-07-23T07:10:01Z</time>
      </trkpt>
      <trkpt lat="43.5551000" lon="-6.9648280">
        <ele>46.6</ele>
        <time>2021-07-23T07:10:02Z</time>
      </trkpt>
      <trkpt lat="43.5550810" lon="-6.9650210">
        <ele>46.6</ele>
        <time>2021-07-23T07:10:05Z</time>
      </trkpt>
      <trkpt lat="43.5550620" lon="-6.9651950">
        <ele>46.6</ele>
        <time>2021-07-23T07:10:08Z</time>
      </trkpt>
      <trkpt lat="43.5549670" lon="-6.9656240">
        <ele>46.6</ele>
        <time>2021-07-23T07:10:15Z</time>
      </trkpt>
      <trkpt lat="43.5548460" lon="-6.9660330">
        <ele>46.6</ele>
        <time>2021-07-23T07:10:22Z</time>
      </trkpt>
      <trkpt lat="43.5548280" lon="-6.9660880">
        <ele>46.6</ele>
        <time>2021-07-23T07:10:23Z</time>
      </trkpt>
      <trkpt lat="43.5546810" lon="-6.9665950">
        <ele>46.6</ele>
        <time>2021-07-23T07:10:32Z</time>
      </trkpt>
      <trkpt lat="43.5545630" lon="-6.9669840">
        <ele>46.6</ele>
        <time>2021-07-23T07:10:39Z</time>
      </trkpt>
      <trkpt lat="43.5543950" lon="-6.9675360">
        <ele>46.6</ele>
        <time>2021-07-23T07:10:49Z</time>
      </trkpt>
      <trkpt lat="43.5542400" lon="-6.9680390">
        <ele>46.6</ele>
        <time>2021-07-23T07:10:58Z</time>
      </trkpt>
      <trkpt lat="43.5541490" lon="-6.9683890">
        <ele>46.6</ele>
        <time>2021-07-23T07:11:05Z</time>
      </trkpt>
      <trkpt lat="43.5540150" lon="-6.9688280">
        <ele>46.6</ele>
        <time>2021-07-23T07:11:13Z</time>
      </trkpt>
      <trkpt lat="43.5539990" lon="-6.9688830">
        <ele>46.6</ele>
        <time>2021-07-23T07:11:14Z</time>
      </trkpt>
      <trkpt lat="43.5539800" lon="-6.9689360">
        <ele>46.2</ele>
        <time>2021-07-23T07:11:15Z</time>
      </trkpt>
      <trkpt lat="43.5539600" lon="-6.9689930">
        <ele>45.8</ele>
        <time>2021-07-23T07:11:16Z</time>
      </trkpt>
      <trkpt lat="43.5539410" lon="-6.9690530">
        <ele>45.4</ele>
        <time>2021-07-23T07:11:17Z</time>
      </trkpt>
      <trkpt lat="43.5539250" lon="-6.9691150">
        <ele>45.0</ele>
        <time>2021-07-23T07:11:18Z</time>
      </trkpt>
      <trkpt lat="43.5539060" lon="-6.9691810">
        <ele>44.6</ele>
        <time>2021-07-23T07:11:19Z</time>
      </trkpt>
      <trkpt lat="43.5538690" lon="-6.9693100">
        <ele>44.6</ele>
        <time>2021-07-23T07:11:21Z</time>
      </trkpt>
      <trkpt lat="43.5537780" lon="-6.9695680">
        <ele>44.2</ele>
        <time>2021-07-23T07:11:25Z</time>
      </trkpt>
      <trkpt lat="43.5537560" lon="-6.9696320">
        <ele>43.8</ele>
        <time>2021-07-23T07:11:26Z</time>
      </trkpt>
      <trkpt lat="43.5537390" lon="-6.9696910">
        <ele>43.4</ele>
        <time>2021-07-23T07:11:27Z</time>
      </trkpt>
      <trkpt lat="43.5537230" lon="-6.9697560">
        <ele>43.0</ele>
        <time>2021-07-23T07:11:28Z</time>
      </trkpt>
      <trkpt lat="43.5537100" lon="-6.9698270">
        <ele>42.4</ele>
        <time>2021-07-23T07:11:29Z</time>
      </trkpt>
      <trkpt lat="43.5536930" lon="-6.9698970">
        <ele>42.0</ele>
        <time>2021-07-23T07:11:30Z</time>
      </trkpt>
      <trkpt lat="43.5536770" lon="-6.9699690">
        <ele>41.6</ele>
        <time>2021-07-23T07:11:31Z</time>
      </trkpt>
      <trkpt lat="43.5536600" lon="-6.9700410">
        <ele>41.2</ele>
        <time>2021-07-23T07:11:32Z</time>
      </trkpt>
      <trkpt lat="43.5536410" lon="-6.9701110">
        <ele>40.8</ele>
        <time>2021-07-23T07:11:33Z</time>
      </trkpt>
      <trkpt lat="43.5536180" lon="-6.9701830">
        <ele>40.4</ele>
        <time>2021-07-23T07:11:34Z</time>
      </trkpt>
      <trkpt lat="43.5535950" lon="-6.9702520">
        <ele>39.8</ele>
        <time>2021-07-23T07:11:35Z</time>
      </trkpt>
      <trkpt lat="43.5535680" lon="-6.9703290">
        <ele>39.2</ele>
        <time>2021-07-23T07:11:36Z</time>
      </trkpt>
      <trkpt lat="43.5535350" lon="-6.9704100">
        <ele>38.6</ele>
        <time>2021-07-23T07:11:37Z</time>
      </trkpt>
      <trkpt lat="43.5534930" lon="-6.9704960">
        <ele>38.0</ele>
        <time>2021-07-23T07:11:38Z</time>
      </trkpt>
      <trkpt lat="43.5534480" lon="-6.9705830">
        <ele>37.4</ele>
        <time>2021-07-23T07:11:39Z</time>
      </trkpt>
      <trkpt lat="43.5533970" lon="-6.9706730">
        <ele>36.8</ele>
        <time>2021-07-23T07:11:40Z</time>
      </trkpt>
      <trkpt lat="43.5533420" lon="-6.9707560">
        <ele>36.2</ele>
        <time>2021-07-23T07:11:41Z</time>
      </trkpt>
      <trkpt lat="43.5532810" lon="-6.9708340">
        <ele>35.4</ele>
        <time>2021-07-23T07:11:42Z</time>
      </trkpt>
      <trkpt lat="43.5532170" lon="-6.9709040">
        <ele>34.8</ele>
        <time>2021-07-23T07:11:43Z</time>
      </trkpt>
      <trkpt lat="43.5531510" lon="-6.9709680">
        <ele>34.0</ele>
        <time>2021-07-23T07:11:44Z</time>
      </trkpt>
      <trkpt lat="43.5530840" lon="-6.9710200">
        <ele>33.2</ele>
        <time>2021-07-23T07:11:45Z</time>
      </trkpt>
      <trkpt lat="43.5530150" lon="-6.9710620">
        <ele>31.6</ele>
        <time>2021-07-23T07:11:46Z</time>
      </trkpt>
      <trkpt lat="43.5529430" lon="-6.9710920">
        <ele>30.8</ele>
        <time>2021-07-23T07:11:47Z</time>
      </trkpt>
      <trkpt lat="43.5528610" lon="-6.9711180">
        <ele>30.0</ele>
        <time>2021-07-23T07:11:48Z</time>
      </trkpt>
      <trkpt lat="43.5527760" lon="-6.9711280">
        <ele>29.2</ele>
        <time>2021-07-23T07:11:49Z</time>
      </trkpt>
      <trkpt lat="43.5526850" lon="-6.9711490">
        <ele>28.6</ele>
        <time>2021-07-23T07:11:50Z</time>
      </trkpt>
      <trkpt lat="43.5526080" lon="-6.9711810">
        <ele>28.6</ele>
        <time>2021-07-23T07:11:51Z</time>
      </trkpt>
      <trkpt lat="43.5524280" lon="-6.9713120">
        <ele>28.6</ele>
        <time>2021-07-23T07:11:54Z</time>
      </trkpt>
      <trkpt lat="43.5523390" lon="-6.9714080">
        <ele>28.6</ele>
        <time>2021-07-23T07:11:56Z</time>
      </trkpt>
      <trkpt lat="43.5522320" lon="-6.9715530">
        <ele>28.6</ele>
        <time>2021-07-23T07:11:59Z</time>
      </trkpt>
      <trkpt lat="43.5522000" lon="-6.9716020">
        <ele>28.6</ele>
        <time>2021-07-23T07:12:00Z</time>
      </trkpt>
      <trkpt lat="43.5521080" lon="-6.9717740">
        <ele>28.6</ele>
        <time>2021-07-23T07:12:03Z</time>
      </trkpt>
      <trkpt lat="43.5520800" lon="-6.9718390">
        <ele>28.6</ele>
        <time>2021-07-23T07:12:04Z</time>
      </trkpt>
      <trkpt lat="43.5520550" lon="-6.9719080">
        <ele>28.2</ele>
        <time>2021-07-23T07:12:05Z</time>
      </trkpt>
      <trkpt lat="43.5520340" lon="-6.9719760">
        <ele>27.6</ele>
        <time>2021-07-23T07:12:06Z</time>
      </trkpt>
      <trkpt lat="43.5520150" lon="-6.9720460">
        <ele>27.2</ele>
        <time>2021-07-23T07:12:07Z</time>
      </trkpt>
      <trkpt lat="43.5519970" lon="-6.9721160">
        <ele>26.8</ele>
        <time>2021-07-23T07:12:08Z</time>
      </trkpt>
      <trkpt lat="43.5519810" lon="-6.9721850">
        <ele>26.4</ele>
        <time>2021-07-23T07:12:09Z</time>
      </trkpt>
      <trkpt lat="43.5519630" lon="-6.9722520">
        <ele>26.4</ele>
        <time>2021-07-23T07:12:10Z</time>
      </trkpt>
      <trkpt lat="43.5517960" lon="-6.9726950">
        <ele>26.4</ele>
        <time>2021-07-23T07:12:17Z</time>
      </trkpt>
      <trkpt lat="43.5517150" lon="-6.9728460">
        <ele>26.4</ele>
        <time>2021-07-23T07:12:20Z</time>
      </trkpt>
      <trkpt lat="43.5516240" lon="-6.9730240">
        <ele>26.4</ele>
        <time>2021-07-23T07:12:24Z</time>
      </trkpt>
      <trkpt lat="43.5515360" lon="-6.9731840">
        <ele>26.4</ele>
        <time>2021-07-23T07:12:28Z</time>
      </trkpt>
      <trkpt lat="43.5514730" lon="-6.9732990">
        <ele>26.4</ele>
        <time>2021-07-23T07:12:31Z</time>
      </trkpt>
      <trkpt lat="43.5514500" lon="-6.9733380">
        <ele>26.4</ele>
        <time>2021-07-23T07:12:32Z</time>
      </trkpt>
      <trkpt lat="43.5513890" lon="-6.9734570">
        <ele>26.4</ele>
        <time>2021-07-23T07:12:35Z</time>
      </trkpt>
      <trkpt lat="43.5513270" lon="-6.9735690">
        <ele>26.4</ele>
        <time>2021-07-23T07:12:38Z</time>
      </trkpt>
      <trkpt lat="43.5512790" lon="-6.9736420">
        <ele>26.4</ele>
        <time>2021-07-23T07:12:40Z</time>
      </trkpt>
      <trkpt lat="43.5511550" lon="-6.9738380">
        <ele>26.4</ele>
        <time>2021-07-23T07:12:45Z</time>
      </trkpt>
      <trkpt lat="43.5510750" lon="-6.9739500">
        <ele>26.4</ele>
        <time>2021-07-23T07:12:48Z</time>
      </trkpt>
      <trkpt lat="43.5508330" lon="-6.9742910">
        <ele>26.4</ele>
        <time>2021-07-23T07:12:56Z</time>
      </trkpt>
      <trkpt lat="43.5505810" lon="-6.9746540">
        <ele>26.4</ele>
        <time>2021-07-23T07:13:04Z</time>
      </trkpt>
      <trkpt lat="43.5505470" lon="-6.9746980">
        <ele>26.4</ele>
        <time>2021-07-23T07:13:05Z</time>
      </trkpt>
      <trkpt lat="43.5503230" lon="-6.9749730">
        <ele>26.4</ele>
        <time>2021-07-23T07:13:12Z</time>
      </trkpt>
      <trkpt lat="43.5502380" lon="-6.9750740">
        <ele>26.8</ele>
        <time>2021-07-23T07:13:15Z</time>
      </trkpt>
      <trkpt lat="43.5502070" lon="-6.9751060">
        <ele>27.2</ele>
        <time>2021-07-23T07:13:16Z</time>
      </trkpt>
      <trkpt lat="43.5501740" lon="-6.9751350">
        <ele>27.6</ele>
        <time>2021-07-23T07:13:17Z</time>
      </trkpt>
      <trkpt lat="43.5501410" lon="-6.9751670">
        <ele>28.0</ele>
        <time>2021-07-23T07:13:18Z</time>
      </trkpt>
      <trkpt lat="43.5501090" lon="-6.9751950">
        <ele>28.4</ele>
        <time>2021-07-23T07:13:19Z</time>
      </trkpt>
      <trkpt lat="43.5498660" lon="-6.9753670">
        <ele>28.4</ele>
        <time>2021-07-23T07:13:26Z</time>
      </trkpt>
      <trkpt lat="43.5495850" lon="-6.9755310">
        <ele>28.4</ele>
        <time>2021-07-23T07:13:34Z</time>
      </trkpt>
      <trkpt lat="43.5494490" lon="-6.9756570">
        <ele>28.4</ele>
        <time>2021-07-23T07:13:38Z</time>
      </trkpt>
      <trkpt lat="43.5494220" lon="-6.9757000">
        <ele>28.4</ele>
        <time>2021-07-23T07:13:39Z</time>
      </trkpt>
      <trkpt lat="43.5492020" lon="-6.9760360">
        <ele>28.4</ele>
        <time>2021-07-23T07:13:47Z</time>
      </trkpt>
      <trkpt lat="43.5491430" lon="-6.9761230">
        <ele>28.4</ele>
        <time>2021-07-23T07:13:49Z</time>
      </trkpt>
      <trkpt lat="43.5490300" lon="-6.9762810">
        <ele>28.4</ele>
        <time>2021-07-23T07:13:53Z</time>
      </trkpt>
      <trkpt lat="43.5489420" lon="-6.9763850">
        <ele>28.8</ele>
        <time>2021-07-23T07:13:56Z</time>
      </trkpt>
      <trkpt lat="43.5489140" lon="-6.9764230">
        <ele>29.2</ele>
        <time>2021-07-23T07:13:57Z</time>
      </trkpt>
      <trkpt lat="43.5488840" lon="-6.9764720">
        <ele>29.8</ele>
        <time>2021-07-23T07:13:58Z</time>
      </trkpt>
      <trkpt lat="43.5488600" lon="-6.9765240">
        <ele>30.2</ele>
        <time>2021-07-23T07:13:59Z</time>
      </trkpt>
      <trkpt lat="43.5488370" lon="-6.9765810">
        <ele>30.6</ele>
        <time>2021-07-23T07:14:00Z</time>
      </trkpt>
      <trkpt lat="43.5488080" lon="-6.9766300">
        <ele>30.6</ele>
        <time>2021-07-23T07:14:01Z</time>
      </trkpt>
      <trkpt lat="43.5486750" lon="-6.9768930">
        <ele>30.6</ele>
        <time>2021-07-23T07:14:06Z</time>
      </trkpt>
      <trkpt lat="43.5485120" lon="-6.9772120">
        <ele>30.6</ele>
        <time>2021-07-23T07:14:12Z</time>
      </trkpt>
      <trkpt lat="43.5484920" lon="-6.9772780">
        <ele>30.6</ele>
        <time>2021-07-23T07:14:13Z</time>
      </trkpt>
      <trkpt lat="43.5484700" lon="-6.9773940">
        <ele>30.6</ele>
        <time>2021-07-23T07:14:15Z</time>
      </trkpt>
      <trkpt lat="43.5484630" lon="-6.9775630">
        <ele>30.6</ele>
        <time>2021-07-23T07:14:18Z</time>
      </trkpt>
      <trkpt lat="43.5484960" lon="-6.9777870">
        <ele>30.6</ele>
        <time>2021-07-23T07:14:23Z</time>
      </trkpt>
      <trkpt lat="43.5485980" lon="-6.9779470">
        <ele>30.6</ele>
        <time>2021-07-23T07:14:27Z</time>
      </trkpt>
      <trkpt lat="43.5487860" lon="-6.9780490">
        <ele>30.6</ele>
        <time>2021-07-23T07:14:31Z</time>
      </trkpt>
      <trkpt lat="43.5488380" lon="-6.9780640">
        <ele>30.6</ele>
        <time>2021-07-23T07:14:32Z</time>
      </trkpt>
      <trkpt lat="43.5488920" lon="-6.9780710">
        <ele>30.6</ele>
        <time>2021-07-23T07:14:33Z</time>
      </trkpt>
      <trkpt lat="43.5490510" lon="-6.9780650">
        <ele>30.6</ele>
        <time>2021-07-23T07:14:36Z</time>
      </trkpt>
      <trkpt lat="43.5491000" lon="-6.9780520">
        <ele>30.6</ele>
        <time>2021-07-23T07:14:37Z</time>
      </trkpt>
      <trkpt lat="43.5491480" lon="-6.9780390">
        <ele>30.6</ele>
        <time>2021-07-23T07:14:38Z</time>
      </trkpt>
      <trkpt lat="43.5491940" lon="-6.9780210">
        <ele>30.6</ele>
        <time>2021-07-23T07:14:39Z</time>
      </trkpt>
      <trkpt lat="43.5492380" lon="-6.9780070">
        <ele>30.6</ele>
        <time>2021-07-23T07:14:40Z</time>
      </trkpt>
      <trkpt lat="43.5493640" lon="-6.9779590">
        <ele>30.6</ele>
        <time>2021-07-23T07:14:43Z</time>
      </trkpt>
      <trkpt lat="43.5494980" lon="-6.9779180">
        <ele>30.6</ele>
        <time>2021-07-23T07:14:46Z</time>
      </trkpt>
      <trkpt lat="43.5496640" lon="-6.9778810">
        <ele>30.6</ele>
        <time>2021-07-23T07:14:50Z</time>
      </trkpt>
      <trkpt lat="43.5497090" lon="-6.9778800">
        <ele>30.6</ele>
        <time>2021-07-23T07:14:51Z</time>
      </trkpt>
      <trkpt lat="43.5498790" lon="-6.9779040">
        <ele>30.6</ele>
        <time>2021-07-23T07:14:55Z</time>
      </trkpt>
      <trkpt lat="43.5500340" lon="-6.9779610">
        <ele>30.6</ele>
        <time>2021-07-23T07:15:00Z</time>
      </trkpt>
      <trkpt lat="43.5500600" lon="-6.9779750">
        <ele>30.6</ele>
        <time>2021-07-23T07:15:01Z</time>
      </trkpt>
      <trkpt lat="43.5501690" lon="-6.9780230">
        <ele>30.6</ele>
        <time>2021-07-23T07:15:06Z</time>
      </trkpt>
      <trkpt lat="43.5502320" lon="-6.9780530">
        <ele>30.6</ele>
        <time>2021-07-23T07:15:09Z</time>
      </trkpt>
      <trkpt lat="43.5502900" lon="-6.9780940">
        <ele>31.0</ele>
        <time>2021-07-23T07:15:12Z</time>
      </trkpt>
      <trkpt lat="43.5503110" lon="-6.9781130">
        <ele>31.4</ele>
        <time>2021-07-23T07:15:13Z</time>
      </trkpt>
      <trkpt lat="43.5503300" lon="-6.9781290">
        <ele>31.8</ele>
        <time>2021-07-23T07:15:14Z</time>
      </trkpt>
      <trkpt lat="43.5503510" lon="-6.9781470">
        <ele>32.2</ele>
        <time>2021-07-23T07:15:15Z</time>
      </trkpt>
      <trkpt lat="43.5503710" lon="-6.9781640">
        <ele>32.6</ele>
        <time>2021-07-23T07:15:16Z</time>
      </trkpt>
      <trkpt lat="43.5504110" lon="-6.9782050">
        <ele>32.6</ele>
        <time>2021-07-23T07:15:18Z</time>
      </trkpt>
      <trkpt lat="43.5505620" lon="-6.9783450">
        <ele>33.0</ele>
        <time>2021-07-23T07:15:26Z</time>
      </trkpt>
      <trkpt lat="43.5505790" lon="-6.9783590">
        <ele>33.8</ele>
        <time>2021-07-23T07:15:27Z</time>
      </trkpt>
      <trkpt lat="43.5505980" lon="-6.9783720">
        <ele>34.2</ele>
        <time>2021-07-23T07:15:28Z</time>
      </trkpt>
      <trkpt lat="43.5506140" lon="-6.9783870">
        <ele>34.6</ele>
        <time>2021-07-23T07:15:29Z</time>
      </trkpt>
      <trkpt lat="43.5506910" lon="-6.9784740">
        <ele>34.6</ele>
        <time>2021-07-23T07:15:34Z</time>
      </trkpt>
      <trkpt lat="43.5508080" lon="-6.9786130">
        <ele>35.0</ele>
        <time>2021-07-23T07:15:42Z</time>
      </trkpt>
      <trkpt lat="43.5508190" lon="-6.9786350">
        <ele>35.4</ele>
        <time>2021-07-23T07:15:43Z</time>
      </trkpt>
      <trkpt lat="43.5508320" lon="-6.9786540">
        <ele>35.8</ele>
        <time>2021-07-23T07:15:44Z</time>
      </trkpt>
      <trkpt lat="43.5508440" lon="-6.9786730">
        <ele>36.2</ele>
        <time>2021-07-23T07:15:45Z</time>
      </trkpt>
      <trkpt lat="43.5508570" lon="-6.9786920">
        <ele>36.8</ele>
        <time>2021-07-23T07:15:46Z</time>
      </trkpt>
      <trkpt lat="43.5509240" lon="-6.9788520">
        <ele>36.8</ele>
        <time>2021-07-23T07:15:53Z</time>
      </trkpt>
      <trkpt lat="43.5509330" lon="-6.9789060">
        <ele>37.2</ele>
        <time>2021-07-23T07:15:55Z</time>
      </trkpt>
      <trkpt lat="43.5509380" lon="-6.9789310">
        <ele>37.6</ele>
        <time>2021-07-23T07:15:56Z</time>
      </trkpt>
      <trkpt lat="43.5509430" lon="-6.9789550">
        <ele>38.0</ele>
        <time>2021-07-23T07:15:57Z</time>
      </trkpt>
      <trkpt lat="43.5509490" lon="-6.9789850">
        <ele>38.4</ele>
        <time>2021-07-23T07:15:58Z</time>
      </trkpt>
      <trkpt lat="43.5509530" lon="-6.9790090">
        <ele>38.8</ele>
        <time>2021-07-23T07:15:59Z</time>
      </trkpt>
      <trkpt lat="43.5509600" lon="-6.9790350">
        <ele>38.8</ele>
        <time>2021-07-23T07:16:00Z</time>
      </trkpt>
      <trkpt lat="43.5509770" lon="-6.9792150">
        <ele>39.2</ele>
        <time>2021-07-23T07:16:07Z</time>
      </trkpt>
      <trkpt lat="43.5509840" lon="-6.9792410">
        <ele>39.6</ele>
        <time>2021-07-23T07:16:08Z</time>
      </trkpt>
      <trkpt lat="43.5509910" lon="-6.9792670">
        <ele>40.0</ele>
        <time>2021-07-23T07:16:09Z</time>
      </trkpt>
      <trkpt lat="43.5509990" lon="-6.9792930">
        <ele>40.4</ele>
        <time>2021-07-23T07:16:10Z</time>
      </trkpt>
      <trkpt lat="43.5510040" lon="-6.9793180">
        <ele>40.8</ele>
        <time>2021-07-23T07:16:11Z</time>
      </trkpt>
      <trkpt lat="43.5510170" lon="-6.9794980">
        <ele>40.8</ele>
        <time>2021-07-23T07:16:18Z</time>
      </trkpt>
      <trkpt lat="43.5510280" lon="-6.9795770">
        <ele>41.4</ele>
        <time>2021-07-23T07:16:21Z</time>
      </trkpt>
      <trkpt lat="43.5510310" lon="-6.9796040">
        <ele>41.8</ele>
        <time>2021-07-23T07:16:22Z</time>
      </trkpt>
      <trkpt lat="43.5510340" lon="-6.9796310">
        <ele>42.2</ele>
        <time>2021-07-23T07:16:23Z</time>
      </trkpt>
      <trkpt lat="43.5510380" lon="-6.9796570">
        <ele>42.6</ele>
        <time>2021-07-23T07:16:24Z</time>
      </trkpt>
      <trkpt lat="43.5510400" lon="-6.9796850">
        <ele>43.0</ele>
        <time>2021-07-23T07:16:25Z</time>
      </trkpt>
      <trkpt lat="43.5510450" lon="-6.9797680">
        <ele>43.0</ele>
        <time>2021-07-23T07:16:28Z</time>
      </trkpt>
      <trkpt lat="43.5510700" lon="-6.9799850">
        <ele>43.4</ele>
        <time>2021-07-23T07:16:36Z</time>
      </trkpt>
      <trkpt lat="43.5510690" lon="-6.9800130">
        <ele>43.8</ele>
        <time>2021-07-23T07:16:37Z</time>
      </trkpt>
      <trkpt lat="43.5510700" lon="-6.9800410">
        <ele>44.2</ele>
        <time>2021-07-23T07:16:38Z</time>
      </trkpt>
      <trkpt lat="43.5510730" lon="-6.9800690">
        <ele>44.6</ele>
        <time>2021-07-23T07:16:39Z</time>
      </trkpt>
      <trkpt lat="43.5510750" lon="-6.9800990">
        <ele>45.2</ele>
        <time>2021-07-23T07:16:40Z</time>
      </trkpt>
      <trkpt lat="43.5510900" lon="-6.9802850">
        <ele>45.2</ele>
        <time>2021-07-23T07:16:46Z</time>
      </trkpt>
      <trkpt lat="43.5511050" lon="-6.9805010">
        <ele>45.6</ele>
        <time>2021-07-23T07:16:53Z</time>
      </trkpt>
      <trkpt lat="43.5511070" lon="-6.9805340">
        <ele>46.0</ele>
        <time>2021-07-23T07:16:54Z</time>
      </trkpt>
      <trkpt lat="43.5511100" lon="-6.9805650">
        <ele>46.4</ele>
        <time>2021-07-23T07:16:55Z</time>
      </trkpt>
      <trkpt lat="43.5511140" lon="-6.9805940">
        <ele>46.8</ele>
        <time>2021-07-23T07:16:56Z</time>
      </trkpt>
      <trkpt lat="43.5511170" lon="-6.9806230">
        <ele>47.2</ele>
        <time>2021-07-23T07:16:57Z</time>
      </trkpt>
      <trkpt lat="43.5511350" lon="-6.9807740">
        <ele>47.2</ele>
        <time>2021-07-23T07:17:02Z</time>
      </trkpt>
      <trkpt lat="43.5511720" lon="-6.9810150">
        <ele>47.2</ele>
        <time>2021-07-23T07:17:10Z</time>
      </trkpt>
      <trkpt lat="43.5512040" lon="-6.9811990">
        <ele>47.6</ele>
        <time>2021-07-23T07:17:16Z</time>
      </trkpt>
      <trkpt lat="43.5512070" lon="-6.9812290">
        <ele>48.0</ele>
        <time>2021-07-23T07:17:17Z</time>
      </trkpt>
      <trkpt lat="43.5512080" lon="-6.9812630">
        <ele>48.4</ele>
        <time>2021-07-23T07:17:18Z</time>
      </trkpt>
      <trkpt lat="43.5512150" lon="-6.9812950">
        <ele>48.8</ele>
        <time>2021-07-23T07:17:19Z</time>
      </trkpt>
      <trkpt lat="43.5512190" lon="-6.9813310">
        <ele>49.2</ele>
        <time>2021-07-23T07:17:20Z</time>
      </trkpt>
      <trkpt lat="43.5512670" lon="-6.9814960">
        <ele>49.2</ele>
        <time>2021-07-23T07:17:25Z</time>
      </trkpt>
      <trkpt lat="43.5513340" lon="-6.9817100">
        <ele>49.2</ele>
        <time>2021-07-23T07:17:31Z</time>
      </trkpt>
      <trkpt lat="43.5514060" lon="-6.9819510">
        <ele>49.2</ele>
        <time>2021-07-23T07:17:37Z</time>
      </trkpt>
      <trkpt lat="43.5514240" lon="-6.9820350">
        <ele>49.2</ele>
        <time>2021-07-23T07:17:39Z</time>
      </trkpt>
      <trkpt lat="43.5514630" lon="-6.9822640">
        <ele>49.2</ele>
        <time>2021-07-23T07:17:44Z</time>
      </trkpt>
      <trkpt lat="43.5514860" lon="-6.9824130">
        <ele>49.2</ele>
        <time>2021-07-23T07:17:47Z</time>
      </trkpt>
      <trkpt lat="43.5515220" lon="-6.9826510">
        <ele>49.2</ele>
        <time>2021-07-23T07:17:52Z</time>
      </trkpt>
      <trkpt lat="43.5515310" lon="-6.9827530">
        <ele>49.2</ele>
        <time>2021-07-23T07:17:54Z</time>
      </trkpt>
      <trkpt lat="43.5515400" lon="-6.9828030">
        <ele>49.2</ele>
        <time>2021-07-23T07:17:55Z</time>
      </trkpt>
      <trkpt lat="43.5515610" lon="-6.9829600">
        <ele>49.2</ele>
        <time>2021-07-23T07:17:58Z</time>
      </trkpt>
      <trkpt lat="43.5515770" lon="-6.9831120">
        <ele>49.2</ele>
        <time>2021-07-23T07:18:01Z</time>
      </trkpt>
      <trkpt lat="43.5515990" lon="-6.9832660">
        <ele>49.2</ele>
        <time>2021-07-23T07:18:04Z</time>
      </trkpt>
      <trkpt lat="43.5516300" lon="-6.9834660">
        <ele>49.2</ele>
        <time>2021-07-23T07:18:08Z</time>
      </trkpt>
      <trkpt lat="43.5516570" lon="-6.9836130">
        <ele>49.2</ele>
        <time>2021-07-23T07:18:11Z</time>
      </trkpt>
      <trkpt lat="43.5517190" lon="-6.9839670">
        <ele>49.2</ele>
        <time>2021-07-23T07:18:18Z</time>
      </trkpt>
      <trkpt lat="43.5517370" lon="-6.9840780">
        <ele>49.2</ele>
        <time>2021-07-23T07:18:20Z</time>
      </trkpt>
      <trkpt lat="43.5517550" lon="-6.9841970">
        <ele>49.2</ele>
        <time>2021-07-23T07:18:22Z</time>
      </trkpt>
      <trkpt lat="43.5517870" lon="-6.9843830">
        <ele>49.2</ele>
        <time>2021-07-23T07:18:25Z</time>
      </trkpt>
      <trkpt lat="43.5518020" lon="-6.9845080">
        <ele>48.8</ele>
        <time>2021-07-23T07:18:27Z</time>
      </trkpt>
      <trkpt lat="43.5518110" lon="-6.9845740">
        <ele>48.4</ele>
        <time>2021-07-23T07:18:28Z</time>
      </trkpt>
      <trkpt lat="43.5518190" lon="-6.9846360">
        <ele>48.0</ele>
        <time>2021-07-23T07:18:29Z</time>
      </trkpt>
      <trkpt lat="43.5518300" lon="-6.9846960">
        <ele>47.6</ele>
        <time>2021-07-23T07:18:30Z</time>
      </trkpt>
      <trkpt lat="43.5518380" lon="-6.9847550">
        <ele>47.2</ele>
        <time>2021-07-23T07:18:31Z</time>
      </trkpt>
      <trkpt lat="43.5518560" lon="-6.9848650">
        <ele>47.2</ele>
        <time>2021-07-23T07:18:33Z</time>
      </trkpt>
      <trkpt lat="43.5518740" lon="-6.9850250">
        <ele>47.2</ele>
        <time>2021-07-23T07:18:36Z</time>
      </trkpt>
      <trkpt lat="43.5519020" lon="-6.9852600">
        <ele>47.2</ele>
        <time>2021-07-23T07:18:40Z</time>
      </trkpt>
      <trkpt lat="43.5519360" lon="-6.9857050">
        <ele>47.2</ele>
        <time>2021-07-23T07:18:47Z</time>
      </trkpt>
      <trkpt lat="43.5519720" lon="-6.9861470">
        <ele>47.2</ele>
        <time>2021-07-23T07:18:54Z</time>
      </trkpt>
      <trkpt lat="43.5519890" lon="-6.9863380">
        <ele>47.2</ele>
        <time>2021-07-23T07:18:57Z</time>
      </trkpt>
      <trkpt lat="43.5520240" lon="-6.9867850">
        <ele>47.2</ele>
        <time>2021-07-23T07:19:04Z</time>
      </trkpt>
      <trkpt lat="43.5520340" lon="-6.9869160">
        <ele>47.2</ele>
        <time>2021-07-23T07:19:06Z</time>
      </trkpt>
      <trkpt lat="43.5521130" lon="-6.9875930">
        <ele>47.2</ele>
        <time>2021-07-23T07:19:17Z</time>
      </trkpt>
      <trkpt lat="43.5522170" lon="-6.9880560">
        <ele>47.2</ele>
        <time>2021-07-23T07:19:25Z</time>
      </trkpt>
      <trkpt lat="43.5522510" lon="-6.9881760">
        <ele>47.2</ele>
        <time>2021-07-23T07:19:27Z</time>
      </trkpt>
      <trkpt lat="43.5523630" lon="-6.9883580">
        <ele>47.2</ele>
        <time>2021-07-23T07:19:31Z</time>
      </trkpt>
      <trkpt lat="43.5525200" lon="-6.9884490">
        <ele>47.2</ele>
        <time>2021-07-23T07:19:35Z</time>
      </trkpt>
      <trkpt lat="43.5526840" lon="-6.9884230">
        <ele>47.2</ele>
        <time>2021-07-23T07:19:39Z</time>
      </trkpt>
      <trkpt lat="43.5527250" lon="-6.9884030">
        <ele>47.2</ele>
        <time>2021-07-23T07:19:40Z</time>
      </trkpt>
      <trkpt lat="43.5528010" lon="-6.9883630">
        <ele>47.2</ele>
        <time>2021-07-23T07:19:42Z</time>
      </trkpt>
      <trkpt lat="43.5529140" lon="-6.9883030">
        <ele>47.2</ele>
        <time>2021-07-23T07:19:45Z</time>
      </trkpt>
      <trkpt lat="43.5531520" lon="-6.9882440">
        <ele>47.2</ele>
        <time>2021-07-23T07:19:52Z</time>
      </trkpt>
      <trkpt lat="43.5532490" lon="-6.9882750">
        <ele>47.2</ele>
        <time>2021-07-23T07:19:55Z</time>
      </trkpt>
      <trkpt lat="43.5533290" lon="-6.9883200">
        <ele>47.2</ele>
        <time>2021-07-23T07:19:57Z</time>
      </trkpt>
      <trkpt lat="43.5533720" lon="-6.9883550">
        <ele>46.8</ele>
        <time>2021-07-23T07:19:58Z</time>
      </trkpt>
      <trkpt lat="43.5534230" lon="-6.9883960">
        <ele>46.4</ele>
        <time>2021-07-23T07:19:59Z</time>
      </trkpt>
      <trkpt lat="43.5534790" lon="-6.9884470">
        <ele>45.8</ele>
        <time>2021-07-23T07:20:00Z</time>
      </trkpt>
      <trkpt lat="43.5535310" lon="-6.9884920">
        <ele>45.4</ele>
        <time>2021-07-23T07:20:01Z</time>
      </trkpt>
      <trkpt lat="43.5535830" lon="-6.9885330">
        <ele>45.0</ele>
        <time>2021-07-23T07:20:02Z</time>
      </trkpt>
      <trkpt lat="43.5536390" lon="-6.9885690">
        <ele>45.0</ele>
        <time>2021-07-23T07:20:03Z</time>
      </trkpt>
      <trkpt lat="43.5536970" lon="-6.9886000">
        <ele>44.6</ele>
        <time>2021-07-23T07:20:04Z</time>
      </trkpt>
      <trkpt lat="43.5537640" lon="-6.9886300">
        <ele>44.2</ele>
        <time>2021-07-23T07:20:05Z</time>
      </trkpt>
      <trkpt lat="43.5538280" lon="-6.9886540">
        <ele>43.8</ele>
        <time>2021-07-23T07:20:06Z</time>
      </trkpt>
      <trkpt lat="43.5538930" lon="-6.9886680">
        <ele>43.4</ele>
        <time>2021-07-23T07:20:07Z</time>
      </trkpt>
      <trkpt lat="43.5539560" lon="-6.9886800">
        <ele>43.0</ele>
        <time>2021-07-23T07:20:08Z</time>
      </trkpt>
      <trkpt lat="43.5540770" lon="-6.9887110">
        <ele>42.6</ele>
        <time>2021-07-23T07:20:10Z</time>
      </trkpt>
      <trkpt lat="43.5541260" lon="-6.9887280">
        <ele>42.0</ele>
        <time>2021-07-23T07:20:11Z</time>
      </trkpt>
      <trkpt lat="43.5541780" lon="-6.9887500">
        <ele>41.6</ele>
        <time>2021-07-23T07:20:12Z</time>
      </trkpt>
      <trkpt lat="43.5542200" lon="-6.9887740">
        <ele>41.0</ele>
        <time>2021-07-23T07:20:13Z</time>
      </trkpt>
      <trkpt lat="43.5542610" lon="-6.9888040">
        <ele>40.4</ele>
        <time>2021-07-23T07:20:14Z</time>
      </trkpt>
      <trkpt lat="43.5542940" lon="-6.9888350">
        <ele>39.8</ele>
        <time>2021-07-23T07:20:15Z</time>
      </trkpt>
      <trkpt lat="43.5543190" lon="-6.9888750">
        <ele>39.2</ele>
        <time>2021-07-23T07:20:16Z</time>
      </trkpt>
      <trkpt lat="43.5543360" lon="-6.9889220">
        <ele>38.6</ele>
        <time>2021-07-23T07:20:17Z</time>
      </trkpt>
      <trkpt lat="43.5543050" lon="-6.9890670">
        <ele>38.6</ele>
        <time>2021-07-23T07:20:20Z</time>
      </trkpt>
      <trkpt lat="43.5542610" lon="-6.9891500">
        <ele>38.6</ele>
        <time>2021-07-23T07:20:22Z</time>
      </trkpt>
      <trkpt lat="43.5542420" lon="-6.9891920">
        <ele>38.6</ele>
        <time>2021-07-23T07:20:23Z</time>
      </trkpt>
      <trkpt lat="43.5542220" lon="-6.9892350">
        <ele>38.6</ele>
        <time>2021-07-23T07:20:24Z</time>
      </trkpt>
      <trkpt lat="43.5541780" lon="-6.9893240">
        <ele>38.6</ele>
        <time>2021-07-23T07:20:26Z</time>
      </trkpt>
      <trkpt lat="43.5541370" lon="-6.9894130">
        <ele>38.6</ele>
        <time>2021-07-23T07:20:28Z</time>
      </trkpt>
      <trkpt lat="43.5540640" lon="-6.9895930">
        <ele>38.6</ele>
        <time>2021-07-23T07:20:32Z</time>
      </trkpt>
      <trkpt lat="43.5540410" lon="-6.9896300">
        <ele>38.6</ele>
        <time>2021-07-23T07:20:33Z</time>
      </trkpt>
      <trkpt lat="43.5539920" lon="-6.9897590">
        <ele>38.6</ele>
        <time>2021-07-23T07:20:36Z</time>
      </trkpt>
      <trkpt lat="43.5539640" lon="-6.9898460">
        <ele>38.6</ele>
        <time>2021-07-23T07:20:38Z</time>
      </trkpt>
      <trkpt lat="43.5539320" lon="-6.9899260">
        <ele>38.6</ele>
        <time>2021-07-23T07:20:40Z</time>
      </trkpt>
      <trkpt lat="43.5538850" lon="-6.9900970">
        <ele>38.6</ele>
        <time>2021-07-23T07:20:44Z</time>
      </trkpt>
      <trkpt lat="43.5538210" lon="-6.9902920">
        <ele>38.6</ele>
        <time>2021-07-23T07:20:49Z</time>
      </trkpt>
      <trkpt lat="43.5537840" lon="-6.9904060">
        <ele>38.6</ele>
        <time>2021-07-23T07:20:52Z</time>
      </trkpt>
      <trkpt lat="43.5537530" lon="-6.9905210">
        <ele>38.6</ele>
        <time>2021-07-23T07:20:55Z</time>
      </trkpt>
      <trkpt lat="43.5537050" lon="-6.9906540">
        <ele>38.6</ele>
        <time>2021-07-23T07:20:59Z</time>
      </trkpt>
      <trkpt lat="43.5536340" lon="-6.9909290">
        <ele>38.6</ele>
        <time>2021-07-23T07:21:07Z</time>
      </trkpt>
      <trkpt lat="43.5536040" lon="-6.9910280">
        <ele>39.0</ele>
        <time>2021-07-23T07:21:10Z</time>
      </trkpt>
      <trkpt lat="43.5535950" lon="-6.9910600">
        <ele>39.4</ele>
        <time>2021-07-23T07:21:11Z</time>
      </trkpt>
      <trkpt lat="43.5535850" lon="-6.9910930">
        <ele>39.8</ele>
        <time>2021-07-23T07:21:12Z</time>
      </trkpt>
      <trkpt lat="43.5535750" lon="-6.9911290">
        <ele>40.6</ele>
        <time>2021-07-23T07:21:13Z</time>
      </trkpt>
      <trkpt lat="43.5535360" lon="-6.9912590">
        <ele>40.6</ele>
        <time>2021-07-23T07:21:17Z</time>
      </trkpt>
      <trkpt lat="43.5534270" lon="-6.9915230">
        <ele>40.6</ele>
        <time>2021-07-23T07:21:26Z</time>
      </trkpt>
      <trkpt lat="43.5533930" lon="-6.9916110">
        <ele>41.0</ele>
        <time>2021-07-23T07:21:29Z</time>
      </trkpt>
      <trkpt lat="43.5533800" lon="-6.9916340">
        <ele>41.4</ele>
        <time>2021-07-23T07:21:30Z</time>
      </trkpt>
      <trkpt lat="43.5533640" lon="-6.9916580">
        <ele>41.8</ele>
        <time>2021-07-23T07:21:31Z</time>
      </trkpt>
      <trkpt lat="43.5533510" lon="-6.9916820">
        <ele>42.4</ele>
        <time>2021-07-23T07:21:32Z</time>
      </trkpt>
      <trkpt lat="43.5533370" lon="-6.9917050">
        <ele>42.8</ele>
        <time>2021-07-23T07:21:33Z</time>
      </trkpt>
      <trkpt lat="43.5533260" lon="-6.9917320">
        <ele>42.8</ele>
        <time>2021-07-23T07:21:34Z</time>
      </trkpt>
      <trkpt lat="43.5533190" lon="-6.9918720">
        <ele>42.8</ele>
        <time>2021-07-23T07:21:39Z</time>
      </trkpt>
      <trkpt lat="43.5533260" lon="-6.9918840">
        <ele>42.8</ele>
        <time>2021-07-23T07:21:40Z</time>
      </trkpt>
      <trkpt lat="43.5533370" lon="-6.9919290">
        <ele>42.8</ele>
        <time>2021-07-23T07:21:44Z</time>
      </trkpt>
      <trkpt lat="43.5533370" lon="-6.9919260">
        <ele>42.8</ele>
        <time>2021-07-23T07:21:45Z</time>
      </trkpt>
      <trkpt lat="43.5533370" lon="-6.9919610">
        <ele>42.8</ele>
        <time>2021-07-23T07:21:50Z</time>
      </trkpt>
      <trkpt lat="43.5533360" lon="-6.9920110">
        <ele>42.8</ele>
        <time>2021-07-23T07:21:52Z</time>
      </trkpt>
      <trkpt lat="43.5533960" lon="-6.9921500">
        <ele>43.2</ele>
        <time>2021-07-23T07:21:57Z</time>
      </trkpt>
      <trkpt lat="43.5534110" lon="-6.9921750">
        <ele>43.6</ele>
        <time>2021-07-23T07:21:58Z</time>
      </trkpt>
      <trkpt lat="43.5534300" lon="-6.9922020">
        <ele>44.0</ele>
        <time>2021-07-23T07:21:59Z</time>
      </trkpt>
      <trkpt lat="43.5534460" lon="-6.9922270">
        <ele>44.4</ele>
        <time>2021-07-23T07:22:00Z</time>
      </trkpt>
      <trkpt lat="43.5534630" lon="-6.9922490">
        <ele>44.8</ele>
        <time>2021-07-23T07:22:01Z</time>
      </trkpt>
      <trkpt lat="43.5535060" lon="-6.9923600">
        <ele>44.8</ele>
        <time>2021-07-23T07:22:05Z</time>
      </trkpt>
      <trkpt lat="43.5535380" lon="-6.9924560">
        <ele>44.8</ele>
        <time>2021-07-23T07:22:09Z</time>
      </trkpt>
      <trkpt lat="43.5535430" lon="-6.9924750">
        <ele>44.8</ele>
        <time>2021-07-23T07:22:12Z</time>
      </trkpt>
      <trkpt lat="43.5535330" lon="-6.9924870">
        <ele>44.8</ele>
        <time>2021-07-23T07:23:00Z</time>
      </trkpt>
      <trkpt lat="43.5535190" lon="-6.9924990">
        <ele>44.8</ele>
        <time>2021-07-23T07:23:01Z</time>
      </trkpt>
      <trkpt lat="43.5534940" lon="-6.9925300">
        <ele>44.8</ele>
        <time>2021-07-23T07:23:03Z</time>
      </trkpt>
      <trkpt lat="43.5533760" lon="-6.9925990">
        <ele>44.8</ele>
        <time>2021-07-23T07:23:09Z</time>
      </trkpt>
      <trkpt lat="43.5533590" lon="-6.9926190">
        <ele>44.8</ele>
        <time>2021-07-23T07:23:10Z</time>
      </trkpt>
      <trkpt lat="43.5532940" lon="-6.9926620">
        <ele>44.8</ele>
        <time>2021-07-23T07:23:13Z</time>
      </trkpt>
      <trkpt lat="43.5532750" lon="-6.9926780">
        <ele>44.8</ele>
        <time>2021-07-23T07:23:14Z</time>
      </trkpt>
      <trkpt lat="43.5532020" lon="-6.9927090">
        <ele>44.8</ele>
        <time>2021-07-23T07:23:18Z</time>
      </trkpt>
      <trkpt lat="43.5531950" lon="-6.9927090">
        <ele>44.8</ele>
        <time>2021-07-23T07:23:20Z</time>
      </trkpt>
      <trkpt lat="43.5531840" lon="-6.9927010">
        <ele>44.8</ele>
        <time>2021-07-23T07:23:46Z</time>
      </trkpt>
      <trkpt lat="43.5531610" lon="-6.9926610">
        <ele>44.8</ele>
        <time>2021-07-23T07:23:48Z</time>
      </trkpt>
      <trkpt lat="43.5531490" lon="-6.9925970">
        <ele>44.8</ele>
        <time>2021-07-23T07:23:50Z</time>
      </trkpt>
      <trkpt lat="43.5531480" lon="-6.9925310">
        <ele>44.8</ele>
        <time>2021-07-23T07:23:52Z</time>
      </trkpt>
      <trkpt lat="43.5531720" lon="-6.9924140">
        <ele>44.8</ele>
        <time>2021-07-23T07:23:56Z</time>
      </trkpt>
      <trkpt lat="43.5531810" lon="-6.9923840">
        <ele>44.8</ele>
        <time>2021-07-23T07:23:57Z</time>
      </trkpt>
      <trkpt lat="43.5532410" lon="-6.9922480">
        <ele>44.8</ele>
        <time>2021-07-23T07:24:02Z</time>
      </trkpt>
      <trkpt lat="43.5532770" lon="-6.9921590">
        <ele>44.8</ele>
        <time>2021-07-23T07:24:05Z</time>
      </trkpt>
      <trkpt lat="43.5533100" lon="-6.9920690">
        <ele>44.8</ele>
        <time>2021-07-23T07:24:08Z</time>
      </trkpt>
      <trkpt lat="43.5533310" lon="-6.9920050">
        <ele>44.8</ele>
        <time>2021-07-23T07:24:10Z</time>
      </trkpt>
      <trkpt lat="43.5533390" lon="-6.9918150">
        <ele>44.8</ele>
        <time>2021-07-23T07:24:16Z</time>
      </trkpt>
      <trkpt lat="43.5533210" lon="-6.9917750">
        <ele>44.8</ele>
        <time>2021-07-23T07:24:18Z</time>
      </trkpt>
      <trkpt lat="43.5533110" lon="-6.9917600">
        <ele>44.4</ele>
        <time>2021-07-23T07:24:19Z</time>
      </trkpt>
      <trkpt lat="43.5532960" lon="-6.9917600">
        <ele>44.0</ele>
        <time>2021-07-23T07:24:20Z</time>
      </trkpt>
      <trkpt lat="43.5532830" lon="-6.9917720">
        <ele>43.6</ele>
        <time>2021-07-23T07:24:21Z</time>
      </trkpt>
      <trkpt lat="43.5532790" lon="-6.9917790">
        <ele>43.2</ele>
        <time>2021-07-23T07:24:22Z</time>
      </trkpt>
      <trkpt lat="43.5532780" lon="-6.9917790">
        <ele>42.8</ele>
        <time>2021-07-23T07:24:30Z</time>
      </trkpt>
      <trkpt lat="43.5532530" lon="-6.9918090">
        <ele>42.8</ele>
        <time>2021-07-23T07:24:32Z</time>
      </trkpt>
      <trkpt lat="43.5531440" lon="-6.9919580">
        <ele>42.8</ele>
        <time>2021-07-23T07:24:38Z</time>
      </trkpt>
      <trkpt lat="43.5530540" lon="-6.9920810">
        <ele>42.8</ele>
        <time>2021-07-23T07:24:41Z</time>
      </trkpt>
      <trkpt lat="43.5529840" lon="-6.9921720">
        <ele>42.8</ele>
        <time>2021-07-23T07:24:43Z</time>
      </trkpt>
      <trkpt lat="43.5529030" lon="-6.9922760">
        <ele>42.8</ele>
        <time>2021-07-23T07:24:45Z</time>
      </trkpt>
      <trkpt lat="43.5528600" lon="-6.9923330">
        <ele>42.4</ele>
        <time>2021-07-23T07:24:46Z</time>
      </trkpt>
      <trkpt lat="43.5528160" lon="-6.9923940">
        <ele>41.8</ele>
        <time>2021-07-23T07:24:47Z</time>
      </trkpt>
      <trkpt lat="43.5527690" lon="-6.9924570">
        <ele>41.4</ele>
        <time>2021-07-23T07:24:48Z</time>
      </trkpt>
      <trkpt lat="43.5527220" lon="-6.9925190">
        <ele>41.0</ele>
        <time>2021-07-23T07:24:49Z</time>
      </trkpt>
      <trkpt lat="43.5526760" lon="-6.9925830">
        <ele>40.4</ele>
        <time>2021-07-23T07:24:50Z</time>
      </trkpt>
      <trkpt lat="43.5526300" lon="-6.9926470">
        <ele>39.8</ele>
        <time>2021-07-23T07:24:51Z</time>
      </trkpt>
      <trkpt lat="43.5525830" lon="-6.9927140">
        <ele>39.2</ele>
        <time>2021-07-23T07:24:52Z</time>
      </trkpt>
      <trkpt lat="43.5525390" lon="-6.9927760">
        <ele>38.6</ele>
        <time>2021-07-23T07:24:53Z</time>
      </trkpt>
      <trkpt lat="43.5524970" lon="-6.9928370">
        <ele>37.8</ele>
        <time>2021-07-23T07:24:54Z</time>
      </trkpt>
      <trkpt lat="43.5524560" lon="-6.9928950">
        <ele>36.0</ele>
        <time>2021-07-23T07:24:55Z</time>
      </trkpt>
      <trkpt lat="43.5524150" lon="-6.9929550">
        <ele>35.2</ele>
        <time>2021-07-23T07:24:56Z</time>
      </trkpt>
      <trkpt lat="43.5523730" lon="-6.9930140">
        <ele>34.2</ele>
        <time>2021-07-23T07:24:57Z</time>
      </trkpt>
      <trkpt lat="43.5523280" lon="-6.9930740">
        <ele>33.2</ele>
        <time>2021-07-23T07:24:58Z</time>
      </trkpt>
      <trkpt lat="43.5522830" lon="-6.9931350">
        <ele>32.2</ele>
        <time>2021-07-23T07:24:59Z</time>
      </trkpt>
      <trkpt lat="43.5522410" lon="-6.9931920">
        <ele>31.2</ele>
        <time>2021-07-23T07:25:00Z</time>
      </trkpt>
      <trkpt lat="43.5521960" lon="-6.9932500">
        <ele>30.2</ele>
        <time>2021-07-23T07:25:01Z</time>
      </trkpt>
      <trkpt lat="43.5521460" lon="-6.9933110">
        <ele>29.4</ele>
        <time>2021-07-23T07:25:02Z</time>
      </trkpt>
      <trkpt lat="43.5520930" lon="-6.9933750">
        <ele>28.4</ele>
        <time>2021-07-23T07:25:03Z</time>
      </trkpt>
      <trkpt lat="43.5520410" lon="-6.9934400">
        <ele>27.6</ele>
        <time>2021-07-23T07:25:04Z</time>
      </trkpt>
      <trkpt lat="43.5519910" lon="-6.9935030">
        <ele>26.8</ele>
        <time>2021-07-23T07:25:05Z</time>
      </trkpt>
      <trkpt lat="43.5519470" lon="-6.9935600">
        <ele>25.8</ele>
        <time>2021-07-23T07:25:06Z</time>
      </trkpt>
      <trkpt lat="43.5519100" lon="-6.9936110">
        <ele>25.4</ele>
        <time>2021-07-23T07:25:07Z</time>
      </trkpt>
      <trkpt lat="43.5518800" lon="-6.9936510">
        <ele>25.0</ele>
        <time>2021-07-23T07:25:08Z</time>
      </trkpt>
      <trkpt lat="43.5518580" lon="-6.9936810">
        <ele>24.4</ele>
        <time>2021-07-23T07:25:09Z</time>
      </trkpt>
      <trkpt lat="43.5518450" lon="-6.9937000">
        <ele>24.0</ele>
        <time>2021-07-23T07:25:10Z</time>
      </trkpt>
      <trkpt lat="43.5518420" lon="-6.9937070">
        <ele>23.6</ele>
        <time>2021-07-23T07:25:11Z</time>
      </trkpt>
      <trkpt lat="43.5518320" lon="-6.9937180">
        <ele>21.6</ele>
        <time>2021-07-23T07:26:49Z</time>
      </trkpt>
      <trkpt lat="43.5518050" lon="-6.9937500">
        <ele>21.6</ele>
        <time>2021-07-23T07:26:51Z</time>
      </trkpt>
      <trkpt lat="43.5517880" lon="-6.9937680">
        <ele>21.6</ele>
        <time>2021-07-23T07:26:52Z</time>
      </trkpt>
      <trkpt lat="43.5517480" lon="-6.9938200">
        <ele>21.6</ele>
        <time>2021-07-23T07:26:54Z</time>
      </trkpt>
      <trkpt lat="43.5516730" lon="-6.9939180">
        <ele>21.6</ele>
        <time>2021-07-23T07:26:57Z</time>
      </trkpt>
      <trkpt lat="43.5515100" lon="-6.9941280">
        <ele>21.6</ele>
        <time>2021-07-23T07:27:03Z</time>
      </trkpt>
      <trkpt lat="43.5514300" lon="-6.9942330">
        <ele>21.6</ele>
        <time>2021-07-23T07:27:06Z</time>
      </trkpt>
      <trkpt lat="43.5514020" lon="-6.9942670">
        <ele>21.6</ele>
        <time>2021-07-23T07:27:07Z</time>
      </trkpt>
      <trkpt lat="43.5511810" lon="-6.9945180">
        <ele>21.6</ele>
        <time>2021-07-23T07:27:15Z</time>
      </trkpt>
      <trkpt lat="43.5510380" lon="-6.9946650">
        <ele>21.6</ele>
        <time>2021-07-23T07:27:20Z</time>
      </trkpt>
      <trkpt lat="43.5509480" lon="-6.9947370">
        <ele>21.6</ele>
        <time>2021-07-23T07:27:23Z</time>
      </trkpt>
      <trkpt lat="43.5508250" lon="-6.9947810">
        <ele>21.0</ele>
        <time>2021-07-23T07:27:28Z</time>
      </trkpt>
      <trkpt lat="43.5508130" lon="-6.9947840">
        <ele>20.6</ele>
        <time>2021-07-23T07:27:29Z</time>
      </trkpt>
      <trkpt lat="43.5508000" lon="-6.9947870">
        <ele>20.2</ele>
        <time>2021-07-23T07:27:30Z</time>
      </trkpt>
      <trkpt lat="43.5507870" lon="-6.9947900">
        <ele>19.8</ele>
        <time>2021-07-23T07:27:31Z</time>
      </trkpt>
      <trkpt lat="43.5507790" lon="-6.9947960">
        <ele>19.4</ele>
        <time>2021-07-23T07:27:32Z</time>
      </trkpt>
      <trkpt lat="43.5507770" lon="-6.9948100">
        <ele>19.4</ele>
        <time>2021-07-23T07:27:33Z</time>
      </trkpt>
      <trkpt lat="43.5507790" lon="-6.9948300">
        <ele>19.4</ele>
        <time>2021-07-23T07:27:34Z</time>
      </trkpt>
      <trkpt lat="43.5508210" lon="-6.9949850">
        <ele>19.4</ele>
        <time>2021-07-23T07:27:38Z</time>
      </trkpt>
      <trkpt lat="43.5508570" lon="-6.9950730">
        <ele>19.4</ele>
        <time>2021-07-23T07:27:40Z</time>
      </trkpt>
      <trkpt lat="43.5509290" lon="-6.9951950">
        <ele>19.4</ele>
        <time>2021-07-23T07:27:43Z</time>
      </trkpt>
      <trkpt lat="43.5510360" lon="-6.9953980">
        <ele>19.4</ele>
        <time>2021-07-23T07:27:48Z</time>
      </trkpt>
      <trkpt lat="43.5510460" lon="-6.9954450">
        <ele>19.4</ele>
        <time>2021-07-23T07:27:49Z</time>
      </trkpt>
      <trkpt lat="43.5511020" lon="-6.9956890">
        <ele>19.4</ele>
        <time>2021-07-23T07:27:54Z</time>
      </trkpt>
      <trkpt lat="43.5511800" lon="-6.9957740">
        <ele>19.4</ele>
        <time>2021-07-23T07:27:57Z</time>
      </trkpt>
      <trkpt lat="43.5512120" lon="-6.9957730">
        <ele>19.4</ele>
        <time>2021-07-23T07:27:58Z</time>
      </trkpt>
      <trkpt lat="43.5513820" lon="-6.9957070">
        <ele>19.4</ele>
        <time>2021-07-23T07:28:03Z</time>
      </trkpt>
      <trkpt lat="43.5515240" lon="-6.9957550">
        <ele>19.4</ele>
        <time>2021-07-23T07:28:07Z</time>
      </trkpt>
      <trkpt lat="43.5517020" lon="-6.9959370">
        <ele>19.4</ele>
        <time>2021-07-23T07:28:14Z</time>
      </trkpt>
      <trkpt lat="43.5516980" lon="-6.9961300">
        <ele>19.4</ele>
        <time>2021-07-23T07:28:19Z</time>
      </trkpt>
      <trkpt lat="43.5516770" lon="-6.9963390">
        <ele>19.4</ele>
        <time>2021-07-23T07:28:24Z</time>
      </trkpt>
      <trkpt lat="43.5516680" lon="-6.9964280">
        <ele>19.4</ele>
        <time>2021-07-23T07:28:26Z</time>
      </trkpt>
      <trkpt lat="43.5516630" lon="-6.9964740">
        <ele>19.4</ele>
        <time>2021-07-23T07:28:27Z</time>
      </trkpt>
      <trkpt lat="43.5516500" lon="-6.9967480">
        <ele>19.4</ele>
        <time>2021-07-23T07:28:33Z</time>
      </trkpt>
      <trkpt lat="43.5516550" lon="-6.9967920">
        <ele>19.4</ele>
        <time>2021-07-23T07:28:34Z</time>
      </trkpt>
      <trkpt lat="43.5516840" lon="-6.9971010">
        <ele>19.4</ele>
        <time>2021-07-23T07:28:41Z</time>
      </trkpt>
      <trkpt lat="43.5516880" lon="-6.9971440">
        <ele>19.4</ele>
        <time>2021-07-23T07:28:42Z</time>
      </trkpt>
      <trkpt lat="43.5517290" lon="-6.9974790">
        <ele>19.4</ele>
        <time>2021-07-23T07:28:50Z</time>
      </trkpt>
      <trkpt lat="43.5517130" lon="-6.9976490">
        <ele>19.4</ele>
        <time>2021-07-23T07:28:55Z</time>
      </trkpt>
      <trkpt lat="43.5516920" lon="-6.9977000">
        <ele>19.8</ele>
        <time>2021-07-23T07:28:57Z</time>
      </trkpt>
      <trkpt lat="43.5516800" lon="-6.9977230">
        <ele>20.2</ele>
        <time>2021-07-23T07:28:58Z</time>
      </trkpt>
      <trkpt lat="43.5516650" lon="-6.9977470">
        <ele>20.6</ele>
        <time>2021-07-23T07:28:59Z</time>
      </trkpt>
      <trkpt lat="43.5516490" lon="-6.9977670">
        <ele>21.0</ele>
        <time>2021-07-23T07:29:00Z</time>
      </trkpt>
      <trkpt lat="43.5516340" lon="-6.9977910">
        <ele>21.4</ele>
        <time>2021-07-23T07:29:01Z</time>
      </trkpt>
      <trkpt lat="43.5516260" lon="-6.9978160">
        <ele>21.4</ele>
        <time>2021-07-23T07:29:02Z</time>
      </trkpt>
      <trkpt lat="43.5516360" lon="-6.9978680">
        <ele>21.4</ele>
        <time>2021-07-23T07:29:04Z</time>
      </trkpt>
      <trkpt lat="43.5516450" lon="-6.9978880">
        <ele>21.8</ele>
        <time>2021-07-23T07:29:05Z</time>
      </trkpt>
      <trkpt lat="43.5516580" lon="-6.9979010">
        <ele>22.2</ele>
        <time>2021-07-23T07:29:06Z</time>
      </trkpt>
      <trkpt lat="43.5516750" lon="-6.9979150">
        <ele>22.6</ele>
        <time>2021-07-23T07:29:07Z</time>
      </trkpt>
      <trkpt lat="43.5516930" lon="-6.9979270">
        <ele>23.0</ele>
        <time>2021-07-23T07:29:08Z</time>
      </trkpt>
      <trkpt lat="43.5517100" lon="-6.9979400">
        <ele>23.4</ele>
        <time>2021-07-23T07:29:09Z</time>
      </trkpt>
      <trkpt lat="43.5517610" lon="-6.9979720">
        <ele>23.4</ele>
        <time>2021-07-23T07:29:13Z</time>
      </trkpt>
      <trkpt lat="43.5517730" lon="-6.9980390">
        <ele>23.4</ele>
        <time>2021-07-23T07:29:17Z</time>
      </trkpt>
      <trkpt lat="43.5517830" lon="-6.9980560">
        <ele>23.4</ele>
        <time>2021-07-23T07:29:18Z</time>
      </trkpt>
      <trkpt lat="43.5518750" lon="-6.9981270">
        <ele>23.4</ele>
        <time>2021-07-23T07:29:24Z</time>
      </trkpt>
      <trkpt lat="43.5519160" lon="-6.9981690">
        <ele>23.4</ele>
        <time>2021-07-23T07:29:27Z</time>
      </trkpt>
      <trkpt lat="43.5519700" lon="-6.9982070">
        <ele>23.8</ele>
        <time>2021-07-23T07:29:31Z</time>
      </trkpt>
      <trkpt lat="43.5519810" lon="-6.9982120">
        <ele>24.2</ele>
        <time>2021-07-23T07:29:32Z</time>
      </trkpt>
      <trkpt lat="43.5519930" lon="-6.9982210">
        <ele>24.6</ele>
        <time>2021-07-23T07:29:33Z</time>
      </trkpt>
      <trkpt lat="43.5520060" lon="-6.9982340">
        <ele>25.0</ele>
        <time>2021-07-23T07:29:34Z</time>
      </trkpt>
      <trkpt lat="43.5520180" lon="-6.9982450">
        <ele>25.4</ele>
        <time>2021-07-23T07:29:35Z</time>
      </trkpt>
      <trkpt lat="43.5520740" lon="-6.9982770">
        <ele>25.4</ele>
        <time>2021-07-23T07:29:39Z</time>
      </trkpt>
      <trkpt lat="43.5521200" lon="-6.9982940">
        <ele>25.8</ele>
        <time>2021-07-23T07:29:42Z</time>
      </trkpt>
      <trkpt lat="43.5521360" lon="-6.9982980">
        <ele>26.2</ele>
        <time>2021-07-23T07:29:43Z</time>
      </trkpt>
      <trkpt lat="43.5521520" lon="-6.9983030">
        <ele>26.6</ele>
        <time>2021-07-23T07:29:44Z</time>
      </trkpt>
      <trkpt lat="43.5521700" lon="-6.9983090">
        <ele>27.0</ele>
        <time>2021-07-23T07:29:45Z</time>
      </trkpt>
      <trkpt lat="43.5521860" lon="-6.9983100">
        <ele>27.4</ele>
        <time>2021-07-23T07:29:46Z</time>
      </trkpt>
      <trkpt lat="43.5522030" lon="-6.9983100">
        <ele>27.4</ele>
        <time>2021-07-23T07:29:47Z</time>
      </trkpt>
      <trkpt lat="43.5523140" lon="-6.9982840">
        <ele>27.4</ele>
        <time>2021-07-23T07:29:54Z</time>
      </trkpt>
      <trkpt lat="43.5523590" lon="-6.9982730">
        <ele>27.8</ele>
        <time>2021-07-23T07:29:57Z</time>
      </trkpt>
      <trkpt lat="43.5523720" lon="-6.9982710">
        <ele>28.2</ele>
        <time>2021-07-23T07:29:58Z</time>
      </trkpt>
      <trkpt lat="43.5523860" lon="-6.9982680">
        <ele>28.6</ele>
        <time>2021-07-23T07:29:59Z</time>
      </trkpt>
      <trkpt lat="43.5524030" lon="-6.9982650">
        <ele>29.0</ele>
        <time>2021-07-23T07:30:00Z</time>
      </trkpt>
      <trkpt lat="43.5524170" lon="-6.9982610">
        <ele>29.4</ele>
        <time>2021-07-23T07:30:01Z</time>
      </trkpt>
      <trkpt lat="43.5524460" lon="-6.9982540">
        <ele>29.4</ele>
        <time>2021-07-23T07:30:03Z</time>
      </trkpt>
      <trkpt lat="43.5525130" lon="-6.9982840">
        <ele>29.8</ele>
        <time>2021-07-23T07:30:08Z</time>
      </trkpt>
      <trkpt lat="43.5525280" lon="-6.9982900">
        <ele>30.2</ele>
        <time>2021-07-23T07:30:09Z</time>
      </trkpt>
      <trkpt lat="43.5525430" lon="-6.9982980">
        <ele>30.6</ele>
        <time>2021-07-23T07:30:10Z</time>
      </trkpt>
      <trkpt lat="43.5525560" lon="-6.9983110">
        <ele>31.0</ele>
        <time>2021-07-23T07:30:11Z</time>
      </trkpt>
      <trkpt lat="43.5525680" lon="-6.9983250">
        <ele>31.4</ele>
        <time>2021-07-23T07:30:12Z</time>
      </trkpt>
      <trkpt lat="43.5526060" lon="-6.9984000">
        <ele>31.4</ele>
        <time>2021-07-23T07:30:16Z</time>
      </trkpt>
      <trkpt lat="43.5526560" lon="-6.9985220">
        <ele>32.0</ele>
        <time>2021-07-23T07:30:22Z</time>
      </trkpt>
      <trkpt lat="43.5526650" lon="-6.9985440">
        <ele>32.4</ele>
        <time>2021-07-23T07:30:23Z</time>
      </trkpt>
      <trkpt lat="43.5526770" lon="-6.9985640">
        <ele>32.8</ele>
        <time>2021-07-23T07:30:24Z</time>
      </trkpt>
      <trkpt lat="43.5526840" lon="-6.9985830">
        <ele>33.2</ele>
        <time>2021-07-23T07:30:25Z</time>
      </trkpt>
      <trkpt lat="43.5526910" lon="-6.9986030">
        <ele>33.6</ele>
        <time>2021-07-23T07:30:26Z</time>
      </trkpt>
      <trkpt lat="43.5527340" lon="-6.9987050">
        <ele>33.6</ele>
        <time>2021-07-23T07:30:31Z</time>
      </trkpt>
      <trkpt lat="43.5527790" lon="-6.9988080">
        <ele>34.0</ele>
        <time>2021-07-23T07:30:36Z</time>
      </trkpt>
      <trkpt lat="43.5527890" lon="-6.9988300">
        <ele>34.4</ele>
        <time>2021-07-23T07:30:37Z</time>
      </trkpt>
      <trkpt lat="43.5528000" lon="-6.9988500">
        <ele>34.8</ele>
        <time>2021-07-23T07:30:38Z</time>
      </trkpt>
      <trkpt lat="43.5528100" lon="-6.9988670">
        <ele>35.2</ele>
        <time>2021-07-23T07:30:39Z</time>
      </trkpt>
      <trkpt lat="43.5528220" lon="-6.9988840">
        <ele>35.6</ele>
        <time>2021-07-23T07:30:40Z</time>
      </trkpt>
      <trkpt lat="43.5529260" lon="-6.9990080">
        <ele>35.6</ele>
        <time>2021-07-23T07:30:47Z</time>
      </trkpt>
      <trkpt lat="43.5530110" lon="-6.9990940">
        <ele>35.6</ele>
        <time>2021-07-23T07:30:51Z</time>
      </trkpt>
      <trkpt lat="43.5530430" lon="-6.9991590">
        <ele>35.6</ele>
        <time>2021-07-23T07:30:53Z</time>
      </trkpt>
      <trkpt lat="43.5531260" lon="-6.9993690">
        <ele>35.6</ele>
        <time>2021-07-23T07:30:58Z</time>
      </trkpt>
      <trkpt lat="43.5531820" lon="-6.9994470">
        <ele>35.6</ele>
        <time>2021-07-23T07:31:00Z</time>
      </trkpt>
      <trkpt lat="43.5532410" lon="-6.9995170">
        <ele>35.6</ele>
        <time>2021-07-23T07:31:02Z</time>
      </trkpt>
      <trkpt lat="43.5533020" lon="-6.9995860">
        <ele>35.6</ele>
        <time>2021-07-23T07:31:04Z</time>
      </trkpt>
      <trkpt lat="43.5533230" lon="-6.9996190">
        <ele>35.6</ele>
        <time>2021-07-23T07:31:05Z</time>
      </trkpt>
      <trkpt lat="43.5533440" lon="-6.9996560">
        <ele>35.6</ele>
        <time>2021-07-23T07:31:08Z</time>
      </trkpt>
      <trkpt lat="43.5533410" lon="-6.9996780">
        <ele>35.6</ele>
        <time>2021-07-23T07:31:11Z</time>
      </trkpt>
      <trkpt lat="43.5533270" lon="-6.9997210">
        <ele>35.6</ele>
        <time>2021-07-23T07:31:13Z</time>
      </trkpt>
      <trkpt lat="43.5532720" lon="-6.9998380">
        <ele>35.6</ele>
        <time>2021-07-23T07:31:17Z</time>
      </trkpt>
      <trkpt lat="43.5532280" lon="-6.9999280">
        <ele>35.6</ele>
        <time>2021-07-23T07:31:20Z</time>
      </trkpt>
      <trkpt lat="43.5531040" lon="-7.0001580">
        <ele>35.6</ele>
        <time>2021-07-23T07:31:28Z</time>
      </trkpt>
      <trkpt lat="43.5530180" lon="-7.0002940">
        <ele>35.6</ele>
        <time>2021-07-23T07:31:33Z</time>
      </trkpt>
      <trkpt lat="43.5529800" lon="-7.0003490">
        <ele>36.0</ele>
        <time>2021-07-23T07:31:35Z</time>
      </trkpt>
      <trkpt lat="43.5529610" lon="-7.0003780">
        <ele>36.4</ele>
        <time>2021-07-23T07:31:36Z</time>
      </trkpt>
      <trkpt lat="43.5529410" lon="-7.0004080">
        <ele>37.0</ele>
        <time>2021-07-23T07:31:37Z</time>
      </trkpt>
      <trkpt lat="43.5529220" lon="-7.0004370">
        <ele>37.4</ele>
        <time>2021-07-23T07:31:38Z</time>
      </trkpt>
      <trkpt lat="43.5529020" lon="-7.0004660">
        <ele>37.8</ele>
        <time>2021-07-23T07:31:39Z</time>
      </trkpt>
      <trkpt lat="43.5528820" lon="-7.0004950">
        <ele>37.8</ele>
        <time>2021-07-23T07:31:40Z</time>
      </trkpt>
      <trkpt lat="43.5527170" lon="-7.0007370">
        <ele>37.8</ele>
        <time>2021-07-23T07:31:48Z</time>
      </trkpt>
      <trkpt lat="43.5525290" lon="-7.0009530">
        <ele>37.8</ele>
        <time>2021-07-23T07:31:56Z</time>
      </trkpt>
      <trkpt lat="43.5523120" lon="-7.0010130">
        <ele>37.8</ele>
        <time>2021-07-23T07:32:03Z</time>
      </trkpt>
      <trkpt lat="43.5521520" lon="-7.0010270">
        <ele>37.8</ele>
        <time>2021-07-23T07:32:08Z</time>
      </trkpt>
      <trkpt lat="43.5519280" lon="-7.0011260">
        <ele>37.8</ele>
        <time>2021-07-23T07:32:15Z</time>
      </trkpt>
      <trkpt lat="43.5516780" lon="-7.0012830">
        <ele>37.8</ele>
        <time>2021-07-23T07:32:23Z</time>
      </trkpt>
      <trkpt lat="43.5515860" lon="-7.0013520">
        <ele>38.2</ele>
        <time>2021-07-23T07:32:26Z</time>
      </trkpt>
      <trkpt lat="43.5515550" lon="-7.0013730">
        <ele>38.6</ele>
        <time>2021-07-23T07:32:27Z</time>
      </trkpt>
      <trkpt lat="43.5515240" lon="-7.0013960">
        <ele>39.0</ele>
        <time>2021-07-23T07:32:28Z</time>
      </trkpt>
      <trkpt lat="43.5514930" lon="-7.0014160">
        <ele>39.4</ele>
        <time>2021-07-23T07:32:29Z</time>
      </trkpt>
      <trkpt lat="43.5514610" lon="-7.0014370">
        <ele>39.8</ele>
        <time>2021-07-23T07:32:30Z</time>
      </trkpt>
      <trkpt lat="43.5512840" lon="-7.0015740">
        <ele>39.8</ele>
        <time>2021-07-23T07:32:36Z</time>
      </trkpt>
      <trkpt lat="43.5510590" lon="-7.0018010">
        <ele>39.8</ele>
        <time>2021-07-23T07:32:44Z</time>
      </trkpt>
      <trkpt lat="43.5509750" lon="-7.0019980">
        <ele>39.8</ele>
        <time>2021-07-23T07:32:49Z</time>
      </trkpt>
      <trkpt lat="43.5509230" lon="-7.0023120">
        <ele>39.8</ele>
        <time>2021-07-23T07:32:56Z</time>
      </trkpt>
      <trkpt lat="43.5508860" lon="-7.0025130">
        <ele>39.8</ele>
        <time>2021-07-23T07:33:01Z</time>
      </trkpt>
      <trkpt lat="43.5508620" lon="-7.0025890">
        <ele>39.8</ele>
        <time>2021-07-23T07:33:03Z</time>
      </trkpt>
      <trkpt lat="43.5507360" lon="-7.0028060">
        <ele>39.8</ele>
        <time>2021-07-23T07:33:09Z</time>
      </trkpt>
      <trkpt lat="43.5505070" lon="-7.0031160">
        <ele>39.8</ele>
        <time>2021-07-23T07:33:18Z</time>
      </trkpt>
      <trkpt lat="43.5503000" lon="-7.0034020">
        <ele>39.8</ele>
        <time>2021-07-23T07:33:26Z</time>
      </trkpt>
      <trkpt lat="43.5501330" lon="-7.0036220">
        <ele>40.6</ele>
        <time>2021-07-23T07:33:32Z</time>
      </trkpt>
      <trkpt lat="43.5501070" lon="-7.0036590">
        <ele>41.0</ele>
        <time>2021-07-23T07:33:33Z</time>
      </trkpt>
      <trkpt lat="43.5500800" lon="-7.0036930">
        <ele>41.4</ele>
        <time>2021-07-23T07:33:34Z</time>
      </trkpt>
      <trkpt lat="43.5500540" lon="-7.0037300">
        <ele>41.8</ele>
        <time>2021-07-23T07:33:35Z</time>
      </trkpt>
      <trkpt lat="43.5498670" lon="-7.0039720">
        <ele>41.8</ele>
        <time>2021-07-23T07:33:42Z</time>
      </trkpt>
      <trkpt lat="43.5495980" lon="-7.0043150">
        <ele>41.8</ele>
        <time>2021-07-23T07:33:52Z</time>
      </trkpt>
      <trkpt lat="43.5493990" lon="-7.0046430">
        <ele>41.8</ele>
        <time>2021-07-23T07:34:01Z</time>
      </trkpt>
      <trkpt lat="43.5493100" lon="-7.0048740">
        <ele>41.8</ele>
        <time>2021-07-23T07:34:07Z</time>
      </trkpt>
      <trkpt lat="43.5492680" lon="-7.0049540">
        <ele>41.8</ele>
        <time>2021-07-23T07:34:09Z</time>
      </trkpt>
      <trkpt lat="43.5490440" lon="-7.0053520">
        <ele>41.8</ele>
        <time>2021-07-23T07:34:19Z</time>
      </trkpt>
      <trkpt lat="43.5487950" lon="-7.0058010">
        <ele>41.8</ele>
        <time>2021-07-23T07:34:30Z</time>
      </trkpt>
      <trkpt lat="43.5487180" lon="-7.0058950">
        <ele>42.2</ele>
        <time>2021-07-23T07:34:33Z</time>
      </trkpt>
      <trkpt lat="43.5486890" lon="-7.0059220">
        <ele>42.8</ele>
        <time>2021-07-23T07:34:34Z</time>
      </trkpt>
      <trkpt lat="43.5486590" lon="-7.0059480">
        <ele>43.2</ele>
        <time>2021-07-23T07:34:35Z</time>
      </trkpt>
      <trkpt lat="43.5486280" lon="-7.0059710">
        <ele>43.6</ele>
        <time>2021-07-23T07:34:36Z</time>
      </trkpt>
      <trkpt lat="43.5485930" lon="-7.0059910">
        <ele>44.0</ele>
        <time>2021-07-23T07:34:37Z</time>
      </trkpt>
      <trkpt lat="43.5484380" lon="-7.0060660">
        <ele>44.0</ele>
        <time>2021-07-23T07:34:41Z</time>
      </trkpt>
      <trkpt lat="43.5483940" lon="-7.0060710">
        <ele>44.0</ele>
        <time>2021-07-23T07:34:42Z</time>
      </trkpt>
      <trkpt lat="43.5482170" lon="-7.0061010">
        <ele>44.0</ele>
        <time>2021-07-23T07:34:46Z</time>
      </trkpt>
      <trkpt lat="43.5481390" lon="-7.0060980">
        <ele>44.0</ele>
        <time>2021-07-23T07:34:48Z</time>
      </trkpt>
      <trkpt lat="43.5480080" lon="-7.0060060">
        <ele>44.0</ele>
        <time>2021-07-23T07:34:52Z</time>
      </trkpt>
      <trkpt lat="43.5479410" lon="-7.0059540">
        <ele>44.0</ele>
        <time>2021-07-23T07:34:54Z</time>
      </trkpt>
      <trkpt lat="43.5479120" lon="-7.0059280">
        <ele>43.6</ele>
        <time>2021-07-23T07:34:55Z</time>
      </trkpt>
      <trkpt lat="43.5478820" lon="-7.0058990">
        <ele>43.0</ele>
        <time>2021-07-23T07:34:56Z</time>
      </trkpt>
      <trkpt lat="43.5478490" lon="-7.0058700">
        <ele>42.4</ele>
        <time>2021-07-23T07:34:57Z</time>
      </trkpt>
      <trkpt lat="43.5478170" lon="-7.0058390">
        <ele>42.0</ele>
        <time>2021-07-23T07:34:58Z</time>
      </trkpt>
      <trkpt lat="43.5477810" lon="-7.0058070">
        <ele>41.4</ele>
        <time>2021-07-23T07:34:59Z</time>
      </trkpt>
      <trkpt lat="43.5477410" lon="-7.0057700">
        <ele>41.4</ele>
        <time>2021-07-23T07:35:00Z</time>
      </trkpt>
      <trkpt lat="43.5474670" lon="-7.0055820">
        <ele>41.0</ele>
        <time>2021-07-23T07:35:06Z</time>
      </trkpt>
      <trkpt lat="43.5474190" lon="-7.0055510">
        <ele>40.6</ele>
        <time>2021-07-23T07:35:07Z</time>
      </trkpt>
      <trkpt lat="43.5473780" lon="-7.0055220">
        <ele>40.0</ele>
        <time>2021-07-23T07:35:08Z</time>
      </trkpt>
      <trkpt lat="43.5473400" lon="-7.0054920">
        <ele>39.6</ele>
        <time>2021-07-23T07:35:09Z</time>
      </trkpt>
      <trkpt lat="43.5473040" lon="-7.0054650">
        <ele>39.2</ele>
        <time>2021-07-23T07:35:10Z</time>
      </trkpt>
      <trkpt lat="43.5472720" lon="-7.0054380">
        <ele>38.8</ele>
        <time>2021-07-23T07:35:11Z</time>
      </trkpt>
      <trkpt lat="43.5472420" lon="-7.0054110">
        <ele>38.2</ele>
        <time>2021-07-23T07:35:12Z</time>
      </trkpt>
      <trkpt lat="43.5472130" lon="-7.0053880">
        <ele>37.8</ele>
        <time>2021-07-23T07:35:13Z</time>
      </trkpt>
      <trkpt lat="43.5471870" lon="-7.0053670">
        <ele>37.4</ele>
        <time>2021-07-23T07:35:14Z</time>
      </trkpt>
      <trkpt lat="43.5471610" lon="-7.0053620">
        <ele>36.8</ele>
        <time>2021-07-23T07:35:15Z</time>
      </trkpt>
      <trkpt lat="43.5471110" lon="-7.0053910">
        <ele>36.8</ele>
        <time>2021-07-23T07:35:17Z</time>
      </trkpt>
      <trkpt lat="43.5470600" lon="-7.0055100">
        <ele>36.8</ele>
        <time>2021-07-23T07:35:20Z</time>
      </trkpt>
      <trkpt lat="43.5470450" lon="-7.0055560">
        <ele>36.8</ele>
        <time>2021-07-23T07:35:21Z</time>
      </trkpt>
      <trkpt lat="43.5470280" lon="-7.0056000">
        <ele>36.8</ele>
        <time>2021-07-23T07:35:22Z</time>
      </trkpt>
      <trkpt lat="43.5469910" lon="-7.0056840">
        <ele>36.8</ele>
        <time>2021-07-23T07:35:24Z</time>
      </trkpt>
      <trkpt lat="43.5469560" lon="-7.0057680">
        <ele>36.8</ele>
        <time>2021-07-23T07:35:26Z</time>
      </trkpt>
      <trkpt lat="43.5469390" lon="-7.0058120">
        <ele>36.8</ele>
        <time>2021-07-23T07:35:27Z</time>
      </trkpt>
      <trkpt lat="43.5468680" lon="-7.0059960">
        <ele>36.8</ele>
        <time>2021-07-23T07:35:31Z</time>
      </trkpt>
      <trkpt lat="43.5467650" lon="-7.0062260">
        <ele>36.8</ele>
        <time>2021-07-23T07:35:36Z</time>
      </trkpt>
      <trkpt lat="43.5466730" lon="-7.0064730">
        <ele>36.8</ele>
        <time>2021-07-23T07:35:41Z</time>
      </trkpt>
      <trkpt lat="43.5466100" lon="-7.0066170">
        <ele>36.8</ele>
        <time>2021-07-23T07:35:44Z</time>
      </trkpt>
      <trkpt lat="43.5464270" lon="-7.0070590">
        <ele>36.8</ele>
        <time>2021-07-23T07:35:53Z</time>
      </trkpt>
      <trkpt lat="43.5462570" lon="-7.0074610">
        <ele>36.8</ele>
        <time>2021-07-23T07:36:01Z</time>
      </trkpt>
      <trkpt lat="43.5461230" lon="-7.0077880">
        <ele>36.8</ele>
        <time>2021-07-23T07:36:08Z</time>
      </trkpt>
      <trkpt lat="43.5460000" lon="-7.0080370">
        <ele>36.8</ele>
        <time>2021-07-23T07:36:14Z</time>
      </trkpt>
      <trkpt lat="43.5459720" lon="-7.0080730">
        <ele>36.8</ele>
        <time>2021-07-23T07:36:15Z</time>
      </trkpt>
      <trkpt lat="43.5457730" lon="-7.0082310">
        <ele>36.8</ele>
        <time>2021-07-23T07:36:21Z</time>
      </trkpt>
      <trkpt lat="43.5456020" lon="-7.0082670">
        <ele>36.8</ele>
        <time>2021-07-23T07:36:25Z</time>
      </trkpt>
      <trkpt lat="43.5454630" lon="-7.0082760">
        <ele>36.8</ele>
        <time>2021-07-23T07:36:28Z</time>
      </trkpt>
      <trkpt lat="43.5453680" lon="-7.0082950">
        <ele>36.8</ele>
        <time>2021-07-23T07:36:30Z</time>
      </trkpt>
      <trkpt lat="43.5452720" lon="-7.0083120">
        <ele>36.8</ele>
        <time>2021-07-23T07:36:32Z</time>
      </trkpt>
      <trkpt lat="43.5452210" lon="-7.0083170">
        <ele>36.8</ele>
        <time>2021-07-23T07:36:33Z</time>
      </trkpt>
      <trkpt lat="43.5450720" lon="-7.0083320">
        <ele>36.8</ele>
        <time>2021-07-23T07:36:36Z</time>
      </trkpt>
      <trkpt lat="43.5449190" lon="-7.0083480">
        <ele>36.8</ele>
        <time>2021-07-23T07:36:39Z</time>
      </trkpt>
      <trkpt lat="43.5447190" lon="-7.0083800">
        <ele>36.8</ele>
        <time>2021-07-23T07:36:43Z</time>
      </trkpt>
      <trkpt lat="43.5446160" lon="-7.0084610">
        <ele>36.8</ele>
        <time>2021-07-23T07:36:46Z</time>
      </trkpt>
      <trkpt lat="43.5445640" lon="-7.0085260">
        <ele>36.8</ele>
        <time>2021-07-23T07:36:48Z</time>
      </trkpt>
      <trkpt lat="43.5444130" lon="-7.0087820">
        <ele>36.8</ele>
        <time>2021-07-23T07:36:55Z</time>
      </trkpt>
      <trkpt lat="43.5443210" lon="-7.0089330">
        <ele>36.8</ele>
        <time>2021-07-23T07:36:59Z</time>
      </trkpt>
      <trkpt lat="43.5442150" lon="-7.0091140">
        <ele>36.8</ele>
        <time>2021-07-23T07:37:04Z</time>
      </trkpt>
      <trkpt lat="43.5441040" lon="-7.0092980">
        <ele>36.8</ele>
        <time>2021-07-23T07:37:09Z</time>
      </trkpt>
      <trkpt lat="43.5440380" lon="-7.0094070">
        <ele>36.8</ele>
        <time>2021-07-23T07:37:12Z</time>
      </trkpt>
      <trkpt lat="43.5439350" lon="-7.0095770">
        <ele>36.8</ele>
        <time>2021-07-23T07:37:17Z</time>
      </trkpt>
      <trkpt lat="43.5438290" lon="-7.0097520">
        <ele>36.8</ele>
        <time>2021-07-23T07:37:22Z</time>
      </trkpt>
      <trkpt lat="43.5437060" lon="-7.0099660">
        <ele>36.8</ele>
        <time>2021-07-23T07:37:28Z</time>
      </trkpt>
      <trkpt lat="43.5436870" lon="-7.0100030">
        <ele>37.2</ele>
        <time>2021-07-23T07:37:29Z</time>
      </trkpt>
      <trkpt lat="43.5436660" lon="-7.0100370">
        <ele>37.6</ele>
        <time>2021-07-23T07:37:30Z</time>
      </trkpt>
      <trkpt lat="43.5436470" lon="-7.0100680">
        <ele>38.2</ele>
        <time>2021-07-23T07:37:31Z</time>
      </trkpt>
      <trkpt lat="43.5436260" lon="-7.0101000">
        <ele>38.6</ele>
        <time>2021-07-23T07:37:32Z</time>
      </trkpt>
      <trkpt lat="43.5436060" lon="-7.0101340">
        <ele>39.0</ele>
        <time>2021-07-23T07:37:33Z</time>
      </trkpt>
      <trkpt lat="43.5435430" lon="-7.0102300">
        <ele>39.0</ele>
        <time>2021-07-23T07:37:36Z</time>
      </trkpt>
      <trkpt lat="43.5433680" lon="-7.0105300">
        <ele>39.0</ele>
        <time>2021-07-23T07:37:45Z</time>
      </trkpt>
      <trkpt lat="43.5432170" lon="-7.0107900">
        <ele>39.0</ele>
        <time>2021-07-23T07:37:53Z</time>
      </trkpt>
      <trkpt lat="43.5430410" lon="-7.0110740">
        <ele>39.0</ele>
        <time>2021-07-23T07:38:02Z</time>
      </trkpt>
      <trkpt lat="43.5430260" lon="-7.0111090">
        <ele>39.4</ele>
        <time>2021-07-23T07:38:03Z</time>
      </trkpt>
      <trkpt lat="43.5430080" lon="-7.0111400">
        <ele>39.8</ele>
        <time>2021-07-23T07:38:04Z</time>
      </trkpt>
      <trkpt lat="43.5429880" lon="-7.0111720">
        <ele>40.2</ele>
        <time>2021-07-23T07:38:05Z</time>
      </trkpt>
      <trkpt lat="43.5429690" lon="-7.0112020">
        <ele>40.6</ele>
        <time>2021-07-23T07:38:06Z</time>
      </trkpt>
      <trkpt lat="43.5429480" lon="-7.0112330">
        <ele>41.0</ele>
        <time>2021-07-23T07:38:07Z</time>
      </trkpt>
      <trkpt lat="43.5429300" lon="-7.0112640">
        <ele>41.0</ele>
        <time>2021-07-23T07:38:08Z</time>
      </trkpt>
      <trkpt lat="43.5427880" lon="-7.0115080">
        <ele>41.0</ele>
        <time>2021-07-23T07:38:16Z</time>
      </trkpt>
      <trkpt lat="43.5426800" lon="-7.0116860">
        <ele>41.4</ele>
        <time>2021-07-23T07:38:22Z</time>
      </trkpt>
      <trkpt lat="43.5426620" lon="-7.0117140">
        <ele>41.8</ele>
        <time>2021-07-23T07:38:23Z</time>
      </trkpt>
      <trkpt lat="43.5426450" lon="-7.0117440">
        <ele>42.2</ele>
        <time>2021-07-23T07:38:24Z</time>
      </trkpt>
      <trkpt lat="43.5426280" lon="-7.0117710">
        <ele>42.6</ele>
        <time>2021-07-23T07:38:25Z</time>
      </trkpt>
      <trkpt lat="43.5426100" lon="-7.0117970">
        <ele>43.0</ele>
        <time>2021-07-23T07:38:26Z</time>
      </trkpt>
      <trkpt lat="43.5424670" lon="-7.0120210">
        <ele>43.0</ele>
        <time>2021-07-23T07:38:34Z</time>
      </trkpt>
      <trkpt lat="43.5423250" lon="-7.0122610">
        <ele>43.0</ele>
        <time>2021-07-23T07:38:42Z</time>
      </trkpt>
      <trkpt lat="43.5423080" lon="-7.0122890">
        <ele>43.4</ele>
        <time>2021-07-23T07:38:43Z</time>
      </trkpt>
      <trkpt lat="43.5422910" lon="-7.0123190">
        <ele>44.0</ele>
        <time>2021-07-23T07:38:44Z</time>
      </trkpt>
      <trkpt lat="43.5422730" lon="-7.0123520">
        <ele>44.4</ele>
        <time>2021-07-23T07:38:45Z</time>
      </trkpt>
      <trkpt lat="43.5422560" lon="-7.0123820">
        <ele>44.8</ele>
        <time>2021-07-23T07:38:46Z</time>
      </trkpt>
      <trkpt lat="43.5422380" lon="-7.0124120">
        <ele>45.2</ele>
        <time>2021-07-23T07:38:47Z</time>
      </trkpt>
      <trkpt lat="43.5421870" lon="-7.0125030">
        <ele>45.2</ele>
        <time>2021-07-23T07:38:50Z</time>
      </trkpt>
      <trkpt lat="43.5420200" lon="-7.0127800">
        <ele>45.2</ele>
        <time>2021-07-23T07:38:59Z</time>
      </trkpt>
      <trkpt lat="43.5419040" lon="-7.0129730">
        <ele>45.6</ele>
        <time>2021-07-23T07:39:05Z</time>
      </trkpt>
      <trkpt lat="43.5418830" lon="-7.0130030">
        <ele>46.0</ele>
        <time>2021-07-23T07:39:06Z</time>
      </trkpt>
      <trkpt lat="43.5418610" lon="-7.0130390">
        <ele>46.4</ele>
        <time>2021-07-23T07:39:07Z</time>
      </trkpt>
      <trkpt lat="43.5418420" lon="-7.0130690">
        <ele>47.0</ele>
        <time>2021-07-23T07:39:08Z</time>
      </trkpt>
      <trkpt lat="43.5418240" lon="-7.0130960">
        <ele>47.4</ele>
        <time>2021-07-23T07:39:09Z</time>
      </trkpt>
      <trkpt lat="43.5417320" lon="-7.0132540">
        <ele>47.4</ele>
        <time>2021-07-23T07:39:15Z</time>
      </trkpt>
      <trkpt lat="43.5416540" lon="-7.0133880">
        <ele>47.4</ele>
        <time>2021-07-23T07:39:19Z</time>
      </trkpt>
      <trkpt lat="43.5415930" lon="-7.0134850">
        <ele>47.4</ele>
        <time>2021-07-23T07:39:22Z</time>
      </trkpt>
      <trkpt lat="43.5415140" lon="-7.0136090">
        <ele>47.4</ele>
        <time>2021-07-23T07:39:26Z</time>
      </trkpt>
      <trkpt lat="43.5414600" lon="-7.0137030">
        <ele>47.4</ele>
        <time>2021-07-23T07:39:29Z</time>
      </trkpt>
      <trkpt lat="43.5413920" lon="-7.0138060">
        <ele>47.4</ele>
        <time>2021-07-23T07:39:33Z</time>
      </trkpt>
      <trkpt lat="43.5413630" lon="-7.0138430">
        <ele>47.4</ele>
        <time>2021-07-23T07:39:35Z</time>
      </trkpt>
      <trkpt lat="43.5413510" lon="-7.0138610">
        <ele>47.4</ele>
        <time>2021-07-23T07:39:36Z</time>
      </trkpt>
      <trkpt lat="43.5413100" lon="-7.0139670">
        <ele>47.4</ele>
        <time>2021-07-23T07:39:41Z</time>
      </trkpt>
      <trkpt lat="43.5413020" lon="-7.0139890">
        <ele>47.4</ele>
        <time>2021-07-23T07:39:42Z</time>
      </trkpt>
      <trkpt lat="43.5412920" lon="-7.0140080">
        <ele>47.4</ele>
        <time>2021-07-23T07:39:43Z</time>
      </trkpt>
      <trkpt lat="43.5411880" lon="-7.0141940">
        <ele>47.4</ele>
        <time>2021-07-23T07:39:50Z</time>
      </trkpt>
      <trkpt lat="43.5410400" lon="-7.0143780">
        <ele>47.4</ele>
        <time>2021-07-23T07:39:56Z</time>
      </trkpt>
      <trkpt lat="43.5408540" lon="-7.0144740">
        <ele>47.4</ele>
        <time>2021-07-23T07:40:02Z</time>
      </trkpt>
      <trkpt lat="43.5406580" lon="-7.0145400">
        <ele>47.4</ele>
        <time>2021-07-23T07:40:08Z</time>
      </trkpt>
      <trkpt lat="43.5405820" lon="-7.0145760">
        <ele>47.4</ele>
        <time>2021-07-23T07:40:10Z</time>
      </trkpt>
      <trkpt lat="43.5403630" lon="-7.0146880">
        <ele>47.4</ele>
        <time>2021-07-23T07:40:16Z</time>
      </trkpt>
      <trkpt lat="43.5401340" lon="-7.0148390">
        <ele>47.4</ele>
        <time>2021-07-23T07:40:23Z</time>
      </trkpt>
      <trkpt lat="43.5398690" lon="-7.0150530">
        <ele>47.4</ele>
        <time>2021-07-23T07:40:31Z</time>
      </trkpt>
      <trkpt lat="43.5397840" lon="-7.0151540">
        <ele>47.4</ele>
        <time>2021-07-23T07:40:34Z</time>
      </trkpt>
      <trkpt lat="43.5396780" lon="-7.0152100">
        <ele>47.4</ele>
        <time>2021-07-23T07:40:37Z</time>
      </trkpt>
      <trkpt lat="43.5395620" lon="-7.0152330">
        <ele>47.4</ele>
        <time>2021-07-23T07:40:40Z</time>
      </trkpt>
      <trkpt lat="43.5394850" lon="-7.0152280">
        <ele>47.4</ele>
        <time>2021-07-23T07:40:42Z</time>
      </trkpt>
      <trkpt lat="43.5394480" lon="-7.0152250">
        <ele>47.4</ele>
        <time>2021-07-23T07:40:43Z</time>
      </trkpt>
      <trkpt lat="43.5393800" lon="-7.0152240">
        <ele>47.4</ele>
        <time>2021-07-23T07:40:45Z</time>
      </trkpt>
      <trkpt lat="43.5393490" lon="-7.0152260">
        <ele>47.4</ele>
        <time>2021-07-23T07:40:46Z</time>
      </trkpt>
      <trkpt lat="43.5392610" lon="-7.0152280">
        <ele>47.4</ele>
        <time>2021-07-23T07:40:49Z</time>
      </trkpt>
      <trkpt lat="43.5392200" lon="-7.0152700">
        <ele>47.4</ele>
        <time>2021-07-23T07:40:52Z</time>
      </trkpt>
      <trkpt lat="43.5392180" lon="-7.0152810">
        <ele>47.4</ele>
        <time>2021-07-23T07:40:53Z</time>
      </trkpt>
      <trkpt lat="43.5392230" lon="-7.0153150">
        <ele>47.4</ele>
        <time>2021-07-23T07:40:57Z</time>
      </trkpt>
      <trkpt lat="43.5392190" lon="-7.0153440">
        <ele>47.4</ele>
        <time>2021-07-23T07:41:02Z</time>
      </trkpt>
      <trkpt lat="43.5392130" lon="-7.0154210">
        <ele>47.4</ele>
        <time>2021-07-23T07:41:05Z</time>
      </trkpt>
      <trkpt lat="43.5392110" lon="-7.0155440">
        <ele>47.4</ele>
        <time>2021-07-23T07:41:08Z</time>
      </trkpt>
      <trkpt lat="43.5392080" lon="-7.0156880">
        <ele>47.4</ele>
        <time>2021-07-23T07:41:11Z</time>
      </trkpt>
      <trkpt lat="43.5392020" lon="-7.0159090">
        <ele>47.4</ele>
        <time>2021-07-23T07:41:15Z</time>
      </trkpt>
      <trkpt lat="43.5391970" lon="-7.0161940">
        <ele>47.4</ele>
        <time>2021-07-23T07:41:20Z</time>
      </trkpt>
      <trkpt lat="43.5391910" lon="-7.0163070">
        <ele>47.4</ele>
        <time>2021-07-23T07:41:22Z</time>
      </trkpt>
      <trkpt lat="43.5391710" lon="-7.0166620">
        <ele>47.4</ele>
        <time>2021-07-23T07:41:29Z</time>
      </trkpt>
      <trkpt lat="43.5391260" lon="-7.0170350">
        <ele>47.4</ele>
        <time>2021-07-23T07:41:37Z</time>
      </trkpt>
      <trkpt lat="43.5391220" lon="-7.0170960">
        <ele>47.4</ele>
        <time>2021-07-23T07:41:38Z</time>
      </trkpt>
      <trkpt lat="43.5391210" lon="-7.0172330">
        <ele>47.4</ele>
        <time>2021-07-23T07:41:40Z</time>
      </trkpt>
      <trkpt lat="43.5391220" lon="-7.0173150">
        <ele>47.4</ele>
        <time>2021-07-23T07:41:41Z</time>
      </trkpt>
      <trkpt lat="43.5391220" lon="-7.0174000">
        <ele>47.0</ele>
        <time>2021-07-23T07:41:42Z</time>
      </trkpt>
      <trkpt lat="43.5391260" lon="-7.0174810">
        <ele>46.4</ele>
        <time>2021-07-23T07:41:43Z</time>
      </trkpt>
      <trkpt lat="43.5391290" lon="-7.0175640">
        <ele>46.0</ele>
        <time>2021-07-23T07:41:44Z</time>
      </trkpt>
      <trkpt lat="43.5391320" lon="-7.0176450">
        <ele>45.6</ele>
        <time>2021-07-23T07:41:45Z</time>
      </trkpt>
      <trkpt lat="43.5391340" lon="-7.0177220">
        <ele>45.2</ele>
        <time>2021-07-23T07:41:46Z</time>
      </trkpt>
      <trkpt lat="43.5391400" lon="-7.0177950">
        <ele>45.2</ele>
        <time>2021-07-23T07:41:47Z</time>
      </trkpt>
      <trkpt lat="43.5391870" lon="-7.0180690">
        <ele>45.2</ele>
        <time>2021-07-23T07:41:51Z</time>
      </trkpt>
      <trkpt lat="43.5392180" lon="-7.0181910">
        <ele>45.2</ele>
        <time>2021-07-23T07:41:53Z</time>
      </trkpt>
      <trkpt lat="43.5392340" lon="-7.0182500">
        <ele>44.8</ele>
        <time>2021-07-23T07:41:54Z</time>
      </trkpt>
      <trkpt lat="43.5392520" lon="-7.0183090">
        <ele>44.4</ele>
        <time>2021-07-23T07:41:55Z</time>
      </trkpt>
      <trkpt lat="43.5392740" lon="-7.0183690">
        <ele>44.0</ele>
        <time>2021-07-23T07:41:56Z</time>
      </trkpt>
      <trkpt lat="43.5392950" lon="-7.0184240">
        <ele>43.4</ele>
        <time>2021-07-23T07:41:57Z</time>
      </trkpt>
      <trkpt lat="43.5393180" lon="-7.0184760">
        <ele>43.0</ele>
        <time>2021-07-23T07:41:58Z</time>
      </trkpt>
      <trkpt lat="43.5393860" lon="-7.0186290">
        <ele>43.0</ele>
        <time>2021-07-23T07:42:01Z</time>
      </trkpt>
      <trkpt lat="43.5394540" lon="-7.0187890">
        <ele>43.0</ele>
        <time>2021-07-23T07:42:04Z</time>
      </trkpt>
      <trkpt lat="43.5394940" lon="-7.0189000">
        <ele>43.0</ele>
        <time>2021-07-23T07:42:06Z</time>
      </trkpt>
      <trkpt lat="43.5395240" lon="-7.0190120">
        <ele>43.0</ele>
        <time>2021-07-23T07:42:08Z</time>
      </trkpt>
      <trkpt lat="43.5396540" lon="-7.0193210">
        <ele>43.0</ele>
        <time>2021-07-23T07:42:14Z</time>
      </trkpt>
      <trkpt lat="43.5398340" lon="-7.0195310">
        <ele>43.0</ele>
        <time>2021-07-23T07:42:20Z</time>
      </trkpt>
      <trkpt lat="43.5400530" lon="-7.0198270">
        <ele>43.0</ele>
        <time>2021-07-23T07:42:28Z</time>
      </trkpt>
      <trkpt lat="43.5401270" lon="-7.0199060">
        <ele>43.0</ele>
        <time>2021-07-23T07:42:31Z</time>
      </trkpt>
      <trkpt lat="43.5401670" lon="-7.0199290">
        <ele>43.0</ele>
        <time>2021-07-23T07:42:33Z</time>
      </trkpt>
      <trkpt lat="43.5403210" lon="-7.0199160">
        <ele>43.0</ele>
        <time>2021-07-23T07:42:38Z</time>
      </trkpt>
      <trkpt lat="43.5404030" lon="-7.0198910">
        <ele>43.0</ele>
        <time>2021-07-23T07:42:40Z</time>
      </trkpt>
      <trkpt lat="43.5404870" lon="-7.0198650">
        <ele>43.0</ele>
        <time>2021-07-23T07:42:42Z</time>
      </trkpt>
      <trkpt lat="43.5406040" lon="-7.0198270">
        <ele>43.0</ele>
        <time>2021-07-23T07:42:45Z</time>
      </trkpt>
      <trkpt lat="43.5409310" lon="-7.0197470">
        <ele>43.0</ele>
        <time>2021-07-23T07:42:53Z</time>
      </trkpt>
      <trkpt lat="43.5410170" lon="-7.0197330">
        <ele>43.0</ele>
        <time>2021-07-23T07:42:55Z</time>
      </trkpt>
      <trkpt lat="43.5412240" lon="-7.0197300">
        <ele>43.0</ele>
        <time>2021-07-23T07:43:00Z</time>
      </trkpt>
      <trkpt lat="43.5413070" lon="-7.0197410">
        <ele>43.0</ele>
        <time>2021-07-23T07:43:02Z</time>
      </trkpt>
      <trkpt lat="43.5414270" lon="-7.0198040">
        <ele>43.0</ele>
        <time>2021-07-23T07:43:05Z</time>
      </trkpt>
      <trkpt lat="43.5415400" lon="-7.0198970">
        <ele>43.0</ele>
        <time>2021-07-23T07:43:08Z</time>
      </trkpt>
      <trkpt lat="43.5418920" lon="-7.0202080">
        <ele>43.0</ele>
        <time>2021-07-23T07:43:18Z</time>
      </trkpt>
      <trkpt lat="43.5421480" lon="-7.0204550">
        <ele>43.0</ele>
        <time>2021-07-23T07:43:26Z</time>
      </trkpt>
      <trkpt lat="43.5423640" lon="-7.0206570">
        <ele>43.4</ele>
        <time>2021-07-23T07:43:33Z</time>
      </trkpt>
      <trkpt lat="43.5423930" lon="-7.0206870">
        <ele>43.8</ele>
        <time>2021-07-23T07:43:34Z</time>
      </trkpt>
      <trkpt lat="43.5424230" lon="-7.0207150">
        <ele>44.2</ele>
        <time>2021-07-23T07:43:35Z</time>
      </trkpt>
      <trkpt lat="43.5424550" lon="-7.0207440">
        <ele>44.6</ele>
        <time>2021-07-23T07:43:36Z</time>
      </trkpt>
      <trkpt lat="43.5424860" lon="-7.0207750">
        <ele>45.0</ele>
        <time>2021-07-23T07:43:37Z</time>
      </trkpt>
      <trkpt lat="43.5426080" lon="-7.0209240">
        <ele>45.0</ele>
        <time>2021-07-23T07:43:41Z</time>
      </trkpt>
      <trkpt lat="43.5427540" lon="-7.0210460">
        <ele>45.0</ele>
        <time>2021-07-23T07:43:45Z</time>
      </trkpt>
      <trkpt lat="43.5428450" lon="-7.0210770">
        <ele>45.0</ele>
        <time>2021-07-23T07:43:47Z</time>
      </trkpt>
      <trkpt lat="43.5428950" lon="-7.0210810">
        <ele>45.0</ele>
        <time>2021-07-23T07:43:48Z</time>
      </trkpt>
      <trkpt lat="43.5429460" lon="-7.0210860">
        <ele>45.0</ele>
        <time>2021-07-23T07:43:49Z</time>
      </trkpt>
      <trkpt lat="43.5430430" lon="-7.0211240">
        <ele>45.0</ele>
        <time>2021-07-23T07:43:51Z</time>
      </trkpt>
      <trkpt lat="43.5430830" lon="-7.0211710">
        <ele>45.0</ele>
        <time>2021-07-23T07:43:52Z</time>
      </trkpt>
      <trkpt lat="43.5431330" lon="-7.0213620">
        <ele>45.0</ele>
        <time>2021-07-23T07:43:55Z</time>
      </trkpt>
      <trkpt lat="43.5430470" lon="-7.0215430">
        <ele>45.0</ele>
        <time>2021-07-23T07:43:58Z</time>
      </trkpt>
      <trkpt lat="43.5429280" lon="-7.0215970">
        <ele>44.6</ele>
        <time>2021-07-23T07:44:01Z</time>
      </trkpt>
      <trkpt lat="43.5428890" lon="-7.0215960">
        <ele>44.2</ele>
        <time>2021-07-23T07:44:02Z</time>
      </trkpt>
      <trkpt lat="43.5428500" lon="-7.0215960">
        <ele>43.8</ele>
        <time>2021-07-23T07:44:03Z</time>
      </trkpt>
      <trkpt lat="43.5428110" lon="-7.0215990">
        <ele>43.4</ele>
        <time>2021-07-23T07:44:04Z</time>
      </trkpt>
      <trkpt lat="43.5427740" lon="-7.0216020">
        <ele>43.0</ele>
        <time>2021-07-23T07:44:05Z</time>
      </trkpt>
      <trkpt lat="43.5427040" lon="-7.0216470">
        <ele>43.0</ele>
        <time>2021-07-23T07:44:07Z</time>
      </trkpt>
      <trkpt lat="43.5426720" lon="-7.0216850">
        <ele>43.0</ele>
        <time>2021-07-23T07:44:08Z</time>
      </trkpt>
      <trkpt lat="43.5426110" lon="-7.0218460">
        <ele>43.0</ele>
        <time>2021-07-23T07:44:11Z</time>
      </trkpt>
      <trkpt lat="43.5426030" lon="-7.0220220">
        <ele>43.0</ele>
        <time>2021-07-23T07:44:14Z</time>
      </trkpt>
      <trkpt lat="43.5426060" lon="-7.0220750">
        <ele>43.0</ele>
        <time>2021-07-23T07:44:15Z</time>
      </trkpt>
      <trkpt lat="43.5426350" lon="-7.0222710">
        <ele>43.0</ele>
        <time>2021-07-23T07:44:19Z</time>
      </trkpt>
      <trkpt lat="43.5426650" lon="-7.0224000">
        <ele>43.0</ele>
        <time>2021-07-23T07:44:22Z</time>
      </trkpt>
      <trkpt lat="43.5426740" lon="-7.0224410">
        <ele>43.4</ele>
        <time>2021-07-23T07:44:23Z</time>
      </trkpt>
      <trkpt lat="43.5426860" lon="-7.0224830">
        <ele>43.8</ele>
        <time>2021-07-23T07:44:24Z</time>
      </trkpt>
      <trkpt lat="43.5426980" lon="-7.0225240">
        <ele>44.2</ele>
        <time>2021-07-23T07:44:25Z</time>
      </trkpt>
      <trkpt lat="43.5427090" lon="-7.0225670">
        <ele>44.6</ele>
        <time>2021-07-23T07:44:26Z</time>
      </trkpt>
      <trkpt lat="43.5427220" lon="-7.0226110">
        <ele>45.2</ele>
        <time>2021-07-23T07:44:27Z</time>
      </trkpt>
      <trkpt lat="43.5427580" lon="-7.0227290">
        <ele>45.2</ele>
        <time>2021-07-23T07:44:30Z</time>
      </trkpt>
      <trkpt lat="43.5427870" lon="-7.0228510">
        <ele>45.2</ele>
        <time>2021-07-23T07:44:33Z</time>
      </trkpt>
      <trkpt lat="43.5428130" lon="-7.0229750">
        <ele>45.2</ele>
        <time>2021-07-23T07:44:36Z</time>
      </trkpt>
      <trkpt lat="43.5428270" lon="-7.0230550">
        <ele>45.6</ele>
        <time>2021-07-23T07:44:38Z</time>
      </trkpt>
      <trkpt lat="43.5428350" lon="-7.0230950">
        <ele>46.0</ele>
        <time>2021-07-23T07:44:39Z</time>
      </trkpt>
      <trkpt lat="43.5428410" lon="-7.0231390">
        <ele>46.8</ele>
        <time>2021-07-23T07:44:40Z</time>
      </trkpt>
      <trkpt lat="43.5428490" lon="-7.0231850">
        <ele>47.2</ele>
        <time>2021-07-23T07:44:41Z</time>
      </trkpt>
      <trkpt lat="43.5428670" lon="-7.0233190">
        <ele>47.2</ele>
        <time>2021-07-23T07:44:44Z</time>
      </trkpt>
      <trkpt lat="43.5428710" lon="-7.0233640">
        <ele>47.2</ele>
        <time>2021-07-23T07:44:45Z</time>
      </trkpt>
      <trkpt lat="43.5428940" lon="-7.0238550">
        <ele>47.2</ele>
        <time>2021-07-23T07:44:55Z</time>
      </trkpt>
      <trkpt lat="43.5428880" lon="-7.0241580">
        <ele>47.2</ele>
        <time>2021-07-23T07:45:01Z</time>
      </trkpt>
      <trkpt lat="43.5428810" lon="-7.0243780">
        <ele>47.6</ele>
        <time>2021-07-23T07:45:05Z</time>
      </trkpt>
      <trkpt lat="43.5428800" lon="-7.0244330">
        <ele>48.0</ele>
        <time>2021-07-23T07:45:06Z</time>
      </trkpt>
      <trkpt lat="43.5428770" lon="-7.0244840">
        <ele>48.4</ele>
        <time>2021-07-23T07:45:07Z</time>
      </trkpt>
      <trkpt lat="43.5428760" lon="-7.0245340">
        <ele>48.8</ele>
        <time>2021-07-23T07:45:08Z</time>
      </trkpt>
      <trkpt lat="43.5428750" lon="-7.0245840">
        <ele>49.2</ele>
        <time>2021-07-23T07:45:09Z</time>
      </trkpt>
      <trkpt lat="43.5428690" lon="-7.0247460">
        <ele>49.2</ele>
        <time>2021-07-23T07:45:12Z</time>
      </trkpt>
      <trkpt lat="43.5428550" lon="-7.0249700">
        <ele>49.2</ele>
        <time>2021-07-23T07:45:16Z</time>
      </trkpt>
      <trkpt lat="43.5428300" lon="-7.0255330">
        <ele>49.2</ele>
        <time>2021-07-23T07:45:26Z</time>
      </trkpt>
      <trkpt lat="43.5428010" lon="-7.0261140">
        <ele>49.2</ele>
        <time>2021-07-23T07:45:36Z</time>
      </trkpt>
      <trkpt lat="43.5427740" lon="-7.0266340">
        <ele>49.2</ele>
        <time>2021-07-23T07:45:45Z</time>
      </trkpt>
      <trkpt lat="43.5427560" lon="-7.0271090">
        <ele>49.2</ele>
        <time>2021-07-23T07:45:53Z</time>
      </trkpt>
      <trkpt lat="43.5427340" lon="-7.0275350">
        <ele>49.2</ele>
        <time>2021-07-23T07:46:01Z</time>
      </trkpt>
      <trkpt lat="43.5427120" lon="-7.0279220">
        <ele>49.2</ele>
        <time>2021-07-23T07:46:08Z</time>
      </trkpt>
      <trkpt lat="43.5426860" lon="-7.0281130">
        <ele>49.2</ele>
        <time>2021-07-23T07:46:12Z</time>
      </trkpt>
      <trkpt lat="43.5426790" lon="-7.0282010">
        <ele>49.2</ele>
        <time>2021-07-23T07:46:14Z</time>
      </trkpt>
      <trkpt lat="43.5426970" lon="-7.0284740">
        <ele>49.2</ele>
        <time>2021-07-23T07:46:20Z</time>
      </trkpt>
      <trkpt lat="43.5427350" lon="-7.0288640">
        <ele>49.2</ele>
        <time>2021-07-23T07:46:28Z</time>
      </trkpt>
      <trkpt lat="43.5427560" lon="-7.0291860">
        <ele>49.2</ele>
        <time>2021-07-23T07:46:35Z</time>
      </trkpt>
      <trkpt lat="43.5427530" lon="-7.0293150">
        <ele>49.2</ele>
        <time>2021-07-23T07:46:38Z</time>
      </trkpt>
      <trkpt lat="43.5427210" lon="-7.0295270">
        <ele>49.2</ele>
        <time>2021-07-23T07:46:43Z</time>
      </trkpt>
      <trkpt lat="43.5427120" lon="-7.0296780">
        <ele>49.2</ele>
        <time>2021-07-23T07:46:47Z</time>
      </trkpt>
      <trkpt lat="43.5427120" lon="-7.0297340">
        <ele>49.2</ele>
        <time>2021-07-23T07:46:49Z</time>
      </trkpt>
      <trkpt lat="43.5427440" lon="-7.0298320">
        <ele>49.2</ele>
        <time>2021-07-23T07:46:52Z</time>
      </trkpt>
      <trkpt lat="43.5427820" lon="-7.0298870">
        <ele>49.2</ele>
        <time>2021-07-23T07:46:54Z</time>
      </trkpt>
      <trkpt lat="43.5428660" lon="-7.0299580">
        <ele>49.2</ele>
        <time>2021-07-23T07:46:59Z</time>
      </trkpt>
      <trkpt lat="43.5428670" lon="-7.0299690">
        <ele>49.2</ele>
        <time>2021-07-23T07:47:00Z</time>
      </trkpt>
      <trkpt lat="43.5428660" lon="-7.0299800">
        <ele>49.2</ele>
        <time>2021-07-23T07:47:02Z</time>
      </trkpt>
      <trkpt lat="43.5428640" lon="-7.0300370">
        <ele>49.2</ele>
        <time>2021-07-23T07:48:01Z</time>
      </trkpt>
      <trkpt lat="43.5428610" lon="-7.0300770">
        <ele>49.2</ele>
        <time>2021-07-23T07:48:03Z</time>
      </trkpt>
      <trkpt lat="43.5428570" lon="-7.0301490">
        <ele>49.2</ele>
        <time>2021-07-23T07:48:07Z</time>
      </trkpt>
      <trkpt lat="43.5428530" lon="-7.0302060">
        <ele>49.2</ele>
        <time>2021-07-23T07:48:10Z</time>
      </trkpt>
      <trkpt lat="43.5428530" lon="-7.0302430">
        <ele>49.2</ele>
        <time>2021-07-23T07:48:12Z</time>
      </trkpt>
      <trkpt lat="43.5428540" lon="-7.0302420">
        <ele>49.2</ele>
        <time>2021-07-23T07:48:13Z</time>
      </trkpt>
      <trkpt lat="43.5428520" lon="-7.0303310">
        <ele>49.2</ele>
        <time>2021-07-23T07:48:24Z</time>
      </trkpt>
      <trkpt lat="43.5428500" lon="-7.0303500">
        <ele>49.2</ele>
        <time>2021-07-23T07:48:25Z</time>
      </trkpt>
      <trkpt lat="43.5428490" lon="-7.0303710">
        <ele>49.2</ele>
        <time>2021-07-23T07:48:26Z</time>
      </trkpt>
      <trkpt lat="43.5428430" lon="-7.0305040">
        <ele>49.2</ele>
        <time>2021-07-23T07:48:33Z</time>
      </trkpt>
      <trkpt lat="43.5428500" lon="-7.0305870">
        <ele>49.2</ele>
        <time>2021-07-23T07:48:37Z</time>
      </trkpt>
      <trkpt lat="43.5428620" lon="-7.0307600">
        <ele>49.2</ele>
        <time>2021-07-23T07:48:46Z</time>
      </trkpt>
      <trkpt lat="43.5428640" lon="-7.0309160">
        <ele>49.2</ele>
        <time>2021-07-23T07:48:55Z</time>
      </trkpt>
      <trkpt lat="43.5428560" lon="-7.0310730">
        <ele>49.2</ele>
        <time>2021-07-23T07:49:03Z</time>
      </trkpt>
      <trkpt lat="43.5428520" lon="-7.0312330">
        <ele>49.2</ele>
        <time>2021-07-23T07:49:12Z</time>
      </trkpt>
      <trkpt lat="43.5428560" lon="-7.0314000">
        <ele>49.2</ele>
        <time>2021-07-23T07:49:21Z</time>
      </trkpt>
      <trkpt lat="43.5428590" lon="-7.0314710">
        <ele>49.2</ele>
        <time>2021-07-23T07:49:27Z</time>
      </trkpt>
      <trkpt lat="43.5428640" lon="-7.0315180">
        <ele>49.2</ele>
        <time>2021-07-23T07:49:51Z</time>
      </trkpt>
      <trkpt lat="43.5428640" lon="-7.0315600">
        <ele>49.2</ele>
        <time>2021-07-23T07:49:53Z</time>
      </trkpt>
      <trkpt lat="43.5428660" lon="-7.0315790">
        <ele>49.2</ele>
        <time>2021-07-23T07:49:54Z</time>
      </trkpt>
      <trkpt lat="43.5428820" lon="-7.0316820">
        <ele>49.2</ele>
        <time>2021-07-23T07:50:00Z</time>
      </trkpt>
      <trkpt lat="43.5428830" lon="-7.0317220">
        <ele>49.2</ele>
        <time>2021-07-23T07:50:02Z</time>
      </trkpt>
      <trkpt lat="43.5428870" lon="-7.0318020">
        <ele>49.2</ele>
        <time>2021-07-23T07:50:06Z</time>
      </trkpt>
      <trkpt lat="43.5428990" lon="-7.0319940">
        <ele>49.2</ele>
        <time>2021-07-23T07:50:16Z</time>
      </trkpt>
      <trkpt lat="43.5428910" lon="-7.0320870">
        <ele>49.2</ele>
        <time>2021-07-23T07:50:23Z</time>
      </trkpt>
      <trkpt lat="43.5428670" lon="-7.0322730">
        <ele>49.2</ele>
        <time>2021-07-23T07:50:37Z</time>
      </trkpt>
      <trkpt lat="43.5428490" lon="-7.0324110">
        <ele>49.2</ele>
        <time>2021-07-23T07:50:46Z</time>
      </trkpt>
      <trkpt lat="43.5428750" lon="-7.0325290">
        <ele>49.2</ele>
        <time>2021-07-23T07:50:57Z</time>
      </trkpt>
      <trkpt lat="43.5428870" lon="-7.0326450">
        <ele>49.2</ele>
        <time>2021-07-23T07:51:02Z</time>
      </trkpt>
      <trkpt lat="43.5428820" lon="-7.0326550">
        <ele>49.2</ele>
        <time>2021-07-23T07:51:04Z</time>
      </trkpt>
      <trkpt lat="43.5428870" lon="-7.0326900">
        <ele>49.2</ele>
        <time>2021-07-23T07:51:10Z</time>
      </trkpt>
      <trkpt lat="43.5428960" lon="-7.0327570">
        <ele>49.2</ele>
        <time>2021-07-23T07:51:13Z</time>
      </trkpt>
      <trkpt lat="43.5429020" lon="-7.0328670">
        <ele>49.2</ele>
        <time>2021-07-23T07:51:20Z</time>
      </trkpt>
      <trkpt lat="43.5429000" lon="-7.0328810">
        <ele>49.2</ele>
        <time>2021-07-23T07:51:57Z</time>
      </trkpt>
      <trkpt lat="43.5429070" lon="-7.0329290">
        <ele>49.2</ele>
        <time>2021-07-23T07:51:59Z</time>
      </trkpt>
      <trkpt lat="43.5429080" lon="-7.0329680">
        <ele>49.2</ele>
        <time>2021-07-23T07:52:01Z</time>
      </trkpt>
      <trkpt lat="43.5429080" lon="-7.0330030">
        <ele>49.2</ele>
        <time>2021-07-23T07:52:03Z</time>
      </trkpt>
      <trkpt lat="43.5429140" lon="-7.0330400">
        <ele>49.2</ele>
        <time>2021-07-23T07:52:06Z</time>
      </trkpt>
      <trkpt lat="43.5429120" lon="-7.0331020">
        <ele>49.2</ele>
        <time>2021-07-23T07:52:09Z</time>
      </trkpt>
      <trkpt lat="43.5429000" lon="-7.0332670">
        <ele>49.2</ele>
        <time>2021-07-23T07:52:17Z</time>
      </trkpt>
      <trkpt lat="43.5429060" lon="-7.0333670">
        <ele>49.2</ele>
        <time>2021-07-23T07:52:22Z</time>
      </trkpt>
      <trkpt lat="43.5429010" lon="-7.0335340">
        <ele>49.2</ele>
        <time>2021-07-23T07:52:30Z</time>
      </trkpt>
      <trkpt lat="43.5429060" lon="-7.0337070">
        <ele>49.2</ele>
        <time>2021-07-23T07:52:38Z</time>
      </trkpt>
      <trkpt lat="43.5429130" lon="-7.0338790">
        <ele>49.2</ele>
        <time>2021-07-23T07:52:47Z</time>
      </trkpt>
      <trkpt lat="43.5429150" lon="-7.0340080">
        <ele>49.2</ele>
        <time>2021-07-23T07:52:54Z</time>
      </trkpt>
      <trkpt lat="43.5429090" lon="-7.0340640">
        <ele>49.2</ele>
        <time>2021-07-23T07:52:57Z</time>
      </trkpt>
      <trkpt lat="43.5429030" lon="-7.0342140">
        <ele>49.2</ele>
        <time>2021-07-23T07:53:05Z</time>
      </trkpt>
      <trkpt lat="43.5428950" lon="-7.0343770">
        <ele>49.2</ele>
        <time>2021-07-23T07:53:14Z</time>
      </trkpt>
      <trkpt lat="43.5429110" lon="-7.0345580">
        <ele>49.2</ele>
        <time>2021-07-23T07:53:24Z</time>
      </trkpt>
      <trkpt lat="43.5429140" lon="-7.0347210">
        <ele>49.2</ele>
        <time>2021-07-23T07:53:33Z</time>
      </trkpt>
      <trkpt lat="43.5429080" lon="-7.0347920">
        <ele>49.2</ele>
        <time>2021-07-23T07:53:37Z</time>
      </trkpt>
      <trkpt lat="43.5429020" lon="-7.0348790">
        <ele>49.2</ele>
        <time>2021-07-23T07:53:43Z</time>
      </trkpt>
      <trkpt lat="43.5429020" lon="-7.0349130">
        <ele>49.2</ele>
        <time>2021-07-23T07:53:47Z</time>
      </trkpt>
      <trkpt lat="43.5428990" lon="-7.0351010">
        <ele>49.2</ele>
        <time>2021-07-23T07:53:57Z</time>
      </trkpt>
      <trkpt lat="43.5428940" lon="-7.0353560">
        <ele>49.2</ele>
        <time>2021-07-23T07:54:11Z</time>
      </trkpt>
      <trkpt lat="43.5428920" lon="-7.0355250">
        <ele>49.2</ele>
        <time>2021-07-23T07:54:20Z</time>
      </trkpt>
      <trkpt lat="43.5428980" lon="-7.0357130">
        <ele>49.2</ele>
        <time>2021-07-23T07:54:30Z</time>
      </trkpt>
      <trkpt lat="43.5428910" lon="-7.0359110">
        <ele>49.2</ele>
        <time>2021-07-23T07:54:41Z</time>
      </trkpt>
      <trkpt lat="43.5428980" lon="-7.0360810">
        <ele>49.2</ele>
        <time>2021-07-23T07:54:51Z</time>
      </trkpt>
      <trkpt lat="43.5429020" lon="-7.0362550">
        <ele>49.2</ele>
        <time>2021-07-23T07:55:01Z</time>
      </trkpt>
      <trkpt lat="43.5428900" lon="-7.0364510">
        <ele>49.2</ele>
        <time>2021-07-23T07:55:12Z</time>
      </trkpt>
      <trkpt lat="43.5428680" lon="-7.0366270">
        <ele>49.2</ele>
        <time>2021-07-23T07:55:22Z</time>
      </trkpt>
      <trkpt lat="43.5428620" lon="-7.0368300">
        <ele>49.2</ele>
        <time>2021-07-23T07:55:32Z</time>
      </trkpt>
      <trkpt lat="43.5428470" lon="-7.0369960">
        <ele>49.2</ele>
        <time>2021-07-23T07:55:41Z</time>
      </trkpt>
      <trkpt lat="43.5428460" lon="-7.0370140">
        <ele>49.2</ele>
        <time>2021-07-23T07:55:42Z</time>
      </trkpt>
      <trkpt lat="43.5428450" lon="-7.0370300">
        <ele>49.2</ele>
        <time>2021-07-23T07:55:43Z</time>
      </trkpt>
      <trkpt lat="43.5428460" lon="-7.0372300">
        <ele>49.2</ele>
        <time>2021-07-23T07:55:53Z</time>
      </trkpt>
      <trkpt lat="43.5428440" lon="-7.0374270">
        <ele>49.2</ele>
        <time>2021-07-23T07:56:03Z</time>
      </trkpt>
      <trkpt lat="43.5428370" lon="-7.0376190">
        <ele>49.2</ele>
        <time>2021-07-23T07:56:13Z</time>
      </trkpt>
      <trkpt lat="43.5428250" lon="-7.0377890">
        <ele>49.2</ele>
        <time>2021-07-23T07:56:22Z</time>
      </trkpt>
      <trkpt lat="43.5428150" lon="-7.0378730">
        <ele>48.8</ele>
        <time>2021-07-23T07:56:28Z</time>
      </trkpt>
      <trkpt lat="43.5428170" lon="-7.0378870">
        <ele>48.4</ele>
        <time>2021-07-23T07:56:29Z</time>
      </trkpt>
      <trkpt lat="43.5428180" lon="-7.0379020">
        <ele>48.0</ele>
        <time>2021-07-23T07:56:30Z</time>
      </trkpt>
      <trkpt lat="43.5428190" lon="-7.0379180">
        <ele>47.6</ele>
        <time>2021-07-23T07:56:31Z</time>
      </trkpt>
      <trkpt lat="43.5428200" lon="-7.0379330">
        <ele>47.2</ele>
        <time>2021-07-23T07:56:32Z</time>
      </trkpt>
      <trkpt lat="43.5428100" lon="-7.0380230">
        <ele>47.2</ele>
        <time>2021-07-23T07:56:38Z</time>
      </trkpt>
      <trkpt lat="43.5428050" lon="-7.0380680">
        <ele>47.2</ele>
        <time>2021-07-23T07:56:44Z</time>
      </trkpt>
      <trkpt lat="43.5427950" lon="-7.0382800">
        <ele>47.2</ele>
        <time>2021-07-23T07:56:55Z</time>
      </trkpt>
      <trkpt lat="43.5427940" lon="-7.0384580">
        <ele>47.2</ele>
        <time>2021-07-23T07:57:05Z</time>
      </trkpt>
      <trkpt lat="43.5427910" lon="-7.0384990">
        <ele>47.2</ele>
        <time>2021-07-23T07:57:08Z</time>
      </trkpt>
      <trkpt lat="43.5427880" lon="-7.0385190">
        <ele>47.2</ele>
        <time>2021-07-23T07:57:35Z</time>
      </trkpt>
      <trkpt lat="43.5427860" lon="-7.0385400">
        <ele>47.2</ele>
        <time>2021-07-23T07:57:36Z</time>
      </trkpt>
      <trkpt lat="43.5427820" lon="-7.0387450">
        <ele>47.2</ele>
        <time>2021-07-23T07:57:43Z</time>
      </trkpt>
      <trkpt lat="43.5427880" lon="-7.0390430">
        <ele>47.2</ele>
        <time>2021-07-23T07:57:51Z</time>
      </trkpt>
      <trkpt lat="43.5427810" lon="-7.0391210">
        <ele>47.2</ele>
        <time>2021-07-23T07:57:54Z</time>
      </trkpt>
      <trkpt lat="43.5427700" lon="-7.0391810">
        <ele>47.2</ele>
        <time>2021-07-23T07:57:56Z</time>
      </trkpt>
      <trkpt lat="43.5427610" lon="-7.0394360">
        <ele>47.2</ele>
        <time>2021-07-23T07:58:03Z</time>
      </trkpt>
      <trkpt lat="43.5427340" lon="-7.0396410">
        <ele>47.2</ele>
        <time>2021-07-23T07:58:09Z</time>
      </trkpt>
      <trkpt lat="43.5427070" lon="-7.0397110">
        <ele>47.2</ele>
        <time>2021-07-23T07:58:11Z</time>
      </trkpt>
      <trkpt lat="43.5426090" lon="-7.0398270">
        <ele>47.2</ele>
        <time>2021-07-23T07:58:15Z</time>
      </trkpt>
      <trkpt lat="43.5425700" lon="-7.0398470">
        <ele>47.2</ele>
        <time>2021-07-23T07:58:16Z</time>
      </trkpt>
      <trkpt lat="43.5424320" lon="-7.0398660">
        <ele>47.2</ele>
        <time>2021-07-23T07:58:19Z</time>
      </trkpt>
      <trkpt lat="43.5423220" lon="-7.0398600">
        <ele>46.8</ele>
        <time>2021-07-23T07:58:21Z</time>
      </trkpt>
      <trkpt lat="43.5422700" lon="-7.0398570">
        <ele>46.4</ele>
        <time>2021-07-23T07:58:22Z</time>
      </trkpt>
      <trkpt lat="43.5422210" lon="-7.0398540">
        <ele>46.0</ele>
        <time>2021-07-23T07:58:23Z</time>
      </trkpt>
      <trkpt lat="43.5421800" lon="-7.0398500">
        <ele>45.4</ele>
        <time>2021-07-23T07:58:24Z</time>
      </trkpt>
      <trkpt lat="43.5421470" lon="-7.0398500">
        <ele>45.0</ele>
        <time>2021-07-23T07:58:25Z</time>
      </trkpt>
      <trkpt lat="43.5420770" lon="-7.0399130">
        <ele>45.0</ele>
        <time>2021-07-23T07:58:29Z</time>
      </trkpt>
      <trkpt lat="43.5420450" lon="-7.0399820">
        <ele>45.0</ele>
        <time>2021-07-23T07:58:33Z</time>
      </trkpt>
      <trkpt lat="43.5420870" lon="-7.0399830">
        <ele>43.0</ele>
        <time>2021-07-23T08:00:58Z</time>
      </trkpt>
      <trkpt lat="43.5422010" lon="-7.0400490">
        <ele>43.0</ele>
        <time>2021-07-23T08:01:04Z</time>
      </trkpt>
      <trkpt lat="43.5423740" lon="-7.0401310">
        <ele>43.0</ele>
        <time>2021-07-23T08:01:10Z</time>
      </trkpt>
      <trkpt lat="43.5425400" lon="-7.0402120">
        <ele>43.0</ele>
        <time>2021-07-23T08:01:16Z</time>
      </trkpt>
      <trkpt lat="43.5425920" lon="-7.0402140">
        <ele>42.6</ele>
        <time>2021-07-23T08:01:18Z</time>
      </trkpt>
      <trkpt lat="43.5426220" lon="-7.0402020">
        <ele>42.2</ele>
        <time>2021-07-23T08:01:19Z</time>
      </trkpt>
      <trkpt lat="43.5426550" lon="-7.0401870">
        <ele>41.8</ele>
        <time>2021-07-23T08:01:20Z</time>
      </trkpt>
      <trkpt lat="43.5426910" lon="-7.0401770">
        <ele>41.2</ele>
        <time>2021-07-23T08:01:21Z</time>
      </trkpt>
      <trkpt lat="43.5427310" lon="-7.0401650">
        <ele>40.8</ele>
        <time>2021-07-23T08:01:22Z</time>
      </trkpt>
      <trkpt lat="43.5428180" lon="-7.0401400">
        <ele>40.8</ele>
        <time>2021-07-23T08:01:24Z</time>
      </trkpt>
      <trkpt lat="43.5430870" lon="-7.0401120">
        <ele>40.8</ele>
        <time>2021-07-23T08:01:31Z</time>
      </trkpt>
      <trkpt lat="43.5431440" lon="-7.0401300">
        <ele>40.8</ele>
        <time>2021-07-23T08:01:35Z</time>
      </trkpt>
      <trkpt lat="43.5431440" lon="-7.0401320">
        <ele>40.8</ele>
        <time>2021-07-23T08:02:04Z</time>
      </trkpt>
      <trkpt lat="43.5431360" lon="-7.0402590">
        <ele>40.8</ele>
        <time>2021-07-23T08:02:08Z</time>
      </trkpt>
      <trkpt lat="43.5431360" lon="-7.0403000">
        <ele>40.8</ele>
        <time>2021-07-23T08:02:09Z</time>
      </trkpt>
      <trkpt lat="43.5431400" lon="-7.0403900">
        <ele>40.8</ele>
        <time>2021-07-23T08:02:11Z</time>
      </trkpt>
      <trkpt lat="43.5431440" lon="-7.0404870">
        <ele>40.8</ele>
        <time>2021-07-23T08:02:13Z</time>
      </trkpt>
      <trkpt lat="43.5431440" lon="-7.0406810">
        <ele>40.8</ele>
        <time>2021-07-23T08:02:17Z</time>
      </trkpt>
      <trkpt lat="43.5431030" lon="-7.0409160">
        <ele>40.8</ele>
        <time>2021-07-23T08:02:23Z</time>
      </trkpt>
      <trkpt lat="43.5429710" lon="-7.0409910">
        <ele>40.8</ele>
        <time>2021-07-23T08:02:28Z</time>
      </trkpt>
      <trkpt lat="43.5427350" lon="-7.0410080">
        <ele>40.8</ele>
        <time>2021-07-23T08:02:36Z</time>
      </trkpt>
      <trkpt lat="43.5426430" lon="-7.0410080">
        <ele>40.8</ele>
        <time>2021-07-23T08:02:41Z</time>
      </trkpt>
      <trkpt lat="43.5425220" lon="-7.0409650">
        <ele>40.8</ele>
        <time>2021-07-23T08:02:46Z</time>
      </trkpt>
      <trkpt lat="43.5423960" lon="-7.0409040">
        <ele>40.8</ele>
        <time>2021-07-23T08:02:51Z</time>
      </trkpt>
      <trkpt lat="43.5423180" lon="-7.0408620">
        <ele>40.8</ele>
        <time>2021-07-23T08:02:54Z</time>
      </trkpt>
      <trkpt lat="43.5422390" lon="-7.0408220">
        <ele>40.8</ele>
        <time>2021-07-23T08:02:57Z</time>
      </trkpt>
      <trkpt lat="43.5421390" lon="-7.0407770">
        <ele>40.8</ele>
        <time>2021-07-23T08:03:01Z</time>
      </trkpt>
      <trkpt lat="43.5419720" lon="-7.0407080">
        <ele>40.8</ele>
        <time>2021-07-23T08:03:07Z</time>
      </trkpt>
      <trkpt lat="43.5419420" lon="-7.0406930">
        <ele>41.4</ele>
        <time>2021-07-23T08:03:08Z</time>
      </trkpt>
      <trkpt lat="43.5419120" lon="-7.0406790">
        <ele>41.8</ele>
        <time>2021-07-23T08:03:09Z</time>
      </trkpt>
      <trkpt lat="43.5418830" lon="-7.0406700">
        <ele>42.2</ele>
        <time>2021-07-23T08:03:10Z</time>
      </trkpt>
      <trkpt lat="43.5418540" lon="-7.0406590">
        <ele>42.6</ele>
        <time>2021-07-23T08:03:11Z</time>
      </trkpt>
      <trkpt lat="43.5418250" lon="-7.0406450">
        <ele>43.2</ele>
        <time>2021-07-23T08:03:12Z</time>
      </trkpt>
      <trkpt lat="43.5417480" lon="-7.0406050">
        <ele>43.2</ele>
        <time>2021-07-23T08:03:15Z</time>
      </trkpt>
      <trkpt lat="43.5416680" lon="-7.0405670">
        <ele>43.2</ele>
        <time>2021-07-23T08:03:18Z</time>
      </trkpt>
      <trkpt lat="43.5414910" lon="-7.0404810">
        <ele>43.2</ele>
        <time>2021-07-23T08:03:25Z</time>
      </trkpt>
      <trkpt lat="43.5414690" lon="-7.0404670">
        <ele>43.6</ele>
        <time>2021-07-23T08:03:26Z</time>
      </trkpt>
      <trkpt lat="43.5414480" lon="-7.0404530">
        <ele>44.0</ele>
        <time>2021-07-23T08:03:27Z</time>
      </trkpt>
      <trkpt lat="43.5414270" lon="-7.0404370">
        <ele>44.4</ele>
        <time>2021-07-23T08:03:28Z</time>
      </trkpt>
      <trkpt lat="43.5414070" lon="-7.0404190">
        <ele>44.8</ele>
        <time>2021-07-23T08:03:29Z</time>
      </trkpt>
      <trkpt lat="43.5413870" lon="-7.0403960">
        <ele>45.2</ele>
        <time>2021-07-23T08:03:30Z</time>
      </trkpt>
      <trkpt lat="43.5413460" lon="-7.0403450">
        <ele>45.2</ele>
        <time>2021-07-23T08:03:32Z</time>
      </trkpt>
      <trkpt lat="43.5412120" lon="-7.0401270">
        <ele>45.2</ele>
        <time>2021-07-23T08:03:39Z</time>
      </trkpt>
      <trkpt lat="43.5411160" lon="-7.0399780">
        <ele>45.2</ele>
        <time>2021-07-23T08:03:44Z</time>
      </trkpt>
      <trkpt lat="43.5410420" lon="-7.0399200">
        <ele>45.2</ele>
        <time>2021-07-23T08:03:47Z</time>
      </trkpt>
      <trkpt lat="43.5409850" lon="-7.0399200">
        <ele>45.2</ele>
        <time>2021-07-23T08:03:49Z</time>
      </trkpt>
      <trkpt lat="43.5409330" lon="-7.0399530">
        <ele>45.2</ele>
        <time>2021-07-23T08:03:51Z</time>
      </trkpt>
      <trkpt lat="43.5407190" lon="-7.0401500">
        <ele>45.2</ele>
        <time>2021-07-23T08:03:59Z</time>
      </trkpt>
      <trkpt lat="43.5405980" lon="-7.0402540">
        <ele>45.2</ele>
        <time>2021-07-23T08:04:03Z</time>
      </trkpt>
      <trkpt lat="43.5405170" lon="-7.0403210">
        <ele>45.2</ele>
        <time>2021-07-23T08:04:06Z</time>
      </trkpt>
      <trkpt lat="43.5404900" lon="-7.0403430">
        <ele>45.2</ele>
        <time>2021-07-23T08:04:07Z</time>
      </trkpt>
      <trkpt lat="43.5403210" lon="-7.0405110">
        <ele>45.2</ele>
        <time>2021-07-23T08:04:13Z</time>
      </trkpt>
      <trkpt lat="43.5402370" lon="-7.0405870">
        <ele>45.2</ele>
        <time>2021-07-23T08:04:16Z</time>
      </trkpt>
      <trkpt lat="43.5401420" lon="-7.0406890">
        <ele>45.2</ele>
        <time>2021-07-23T08:04:20Z</time>
      </trkpt>
      <trkpt lat="43.5400650" lon="-7.0408470">
        <ele>45.2</ele>
        <time>2021-07-23T08:04:25Z</time>
      </trkpt>
      <trkpt lat="43.5400470" lon="-7.0408760">
        <ele>45.2</ele>
        <time>2021-07-23T08:04:26Z</time>
      </trkpt>
      <trkpt lat="43.5399490" lon="-7.0409740">
        <ele>45.2</ele>
        <time>2021-07-23T08:04:31Z</time>
      </trkpt>
      <trkpt lat="43.5398860" lon="-7.0410010">
        <ele>45.2</ele>
        <time>2021-07-23T08:04:34Z</time>
      </trkpt>
      <trkpt lat="43.5398710" lon="-7.0410000">
        <ele>45.2</ele>
        <time>2021-07-23T08:04:35Z</time>
      </trkpt>
      <trkpt lat="43.5398690" lon="-7.0409960">
        <ele>45.2</ele>
        <time>2021-07-23T08:04:37Z</time>
      </trkpt>
      <trkpt lat="43.5398540" lon="-7.0410090">
        <ele>45.2</ele>
        <time>2021-07-23T08:05:49Z</time>
      </trkpt>
      <trkpt lat="43.5398390" lon="-7.0410210">
        <ele>45.2</ele>
        <time>2021-07-23T08:05:50Z</time>
      </trkpt>
      <trkpt lat="43.5397860" lon="-7.0410600">
        <ele>45.2</ele>
        <time>2021-07-23T08:05:53Z</time>
      </trkpt>
      <trkpt lat="43.5397490" lon="-7.0410800">
        <ele>45.2</ele>
        <time>2021-07-23T08:05:55Z</time>
      </trkpt>
      <trkpt lat="43.5396960" lon="-7.0411160">
        <ele>45.2</ele>
        <time>2021-07-23T08:05:58Z</time>
      </trkpt>
      <trkpt lat="43.5396280" lon="-7.0411550">
        <ele>45.2</ele>
        <time>2021-07-23T08:06:01Z</time>
      </trkpt>
      <trkpt lat="43.5394610" lon="-7.0412500">
        <ele>45.2</ele>
        <time>2021-07-23T08:06:08Z</time>
      </trkpt>
      <trkpt lat="43.5393120" lon="-7.0413400">
        <ele>45.2</ele>
        <time>2021-07-23T08:06:14Z</time>
      </trkpt>
      <trkpt lat="43.5391730" lon="-7.0413910">
        <ele>45.2</ele>
        <time>2021-07-23T08:06:20Z</time>
      </trkpt>
      <trkpt lat="43.5391040" lon="-7.0414510">
        <ele>45.2</ele>
        <time>2021-07-23T08:06:25Z</time>
      </trkpt>
      <trkpt lat="43.5390360" lon="-7.0415200">
        <ele>45.2</ele>
        <time>2021-07-23T08:06:29Z</time>
      </trkpt>
      <trkpt lat="43.5390190" lon="-7.0415440">
        <ele>45.2</ele>
        <time>2021-07-23T08:06:31Z</time>
      </trkpt>
      <trkpt lat="43.5390170" lon="-7.0415460">
        <ele>45.2</ele>
        <time>2021-07-23T08:06:32Z</time>
      </trkpt>
      <trkpt lat="43.5390000" lon="-7.0415540">
        <ele>45.2</ele>
        <time>2021-07-23T08:06:59Z</time>
      </trkpt>
      <trkpt lat="43.5389900" lon="-7.0415580">
        <ele>45.2</ele>
        <time>2021-07-23T08:07:00Z</time>
      </trkpt>
      <trkpt lat="43.5389890" lon="-7.0415570">
        <ele>45.2</ele>
        <time>2021-07-23T08:07:01Z</time>
      </trkpt>
      <trkpt lat="43.5389760" lon="-7.0415780">
        <ele>45.2</ele>
        <time>2021-07-23T08:07:09Z</time>
      </trkpt>
      <trkpt lat="43.5389610" lon="-7.0415940">
        <ele>45.2</ele>
        <time>2021-07-23T08:07:10Z</time>
      </trkpt>
      <trkpt lat="43.5388960" lon="-7.0416620">
        <ele>45.2</ele>
        <time>2021-07-23T08:07:13Z</time>
      </trkpt>
      <trkpt lat="43.5388710" lon="-7.0416860">
        <ele>45.2</ele>
        <time>2021-07-23T08:07:14Z</time>
      </trkpt>
      <trkpt lat="43.5388230" lon="-7.0417280">
        <ele>45.2</ele>
        <time>2021-07-23T08:07:16Z</time>
      </trkpt>
      <trkpt lat="43.5387510" lon="-7.0417900">
        <ele>45.2</ele>
        <time>2021-07-23T08:07:19Z</time>
      </trkpt>
      <trkpt lat="43.5386710" lon="-7.0419220">
        <ele>45.6</ele>
        <time>2021-07-23T08:07:23Z</time>
      </trkpt>
      <trkpt lat="43.5386460" lon="-7.0419460">
        <ele>46.0</ele>
        <time>2021-07-23T08:07:24Z</time>
      </trkpt>
      <trkpt lat="43.5386210" lon="-7.0419690">
        <ele>46.4</ele>
        <time>2021-07-23T08:07:25Z</time>
      </trkpt>
      <trkpt lat="43.5386000" lon="-7.0419930">
        <ele>46.8</ele>
        <time>2021-07-23T08:07:26Z</time>
      </trkpt>
      <trkpt lat="43.5385810" lon="-7.0420110">
        <ele>47.2</ele>
        <time>2021-07-23T08:07:27Z</time>
      </trkpt>
      <trkpt lat="43.5385700" lon="-7.0420320">
        <ele>47.2</ele>
        <time>2021-07-23T08:07:28Z</time>
      </trkpt>
      <trkpt lat="43.5385450" lon="-7.0420900">
        <ele>47.2</ele>
        <time>2021-07-23T08:07:32Z</time>
      </trkpt>
      <trkpt lat="43.5385230" lon="-7.0421050">
        <ele>47.2</ele>
        <time>2021-07-23T08:07:34Z</time>
      </trkpt>
      <trkpt lat="43.5384830" lon="-7.0421300">
        <ele>47.2</ele>
        <time>2021-07-23T08:07:37Z</time>
      </trkpt>
      <trkpt lat="43.5384410" lon="-7.0421500">
        <ele>47.2</ele>
        <time>2021-07-23T08:07:39Z</time>
      </trkpt>
      <trkpt lat="43.5383220" lon="-7.0422050">
        <ele>47.2</ele>
        <time>2021-07-23T08:07:45Z</time>
      </trkpt>
      <trkpt lat="43.5382970" lon="-7.0422710">
        <ele>47.2</ele>
        <time>2021-07-23T08:07:49Z</time>
      </trkpt>
      <trkpt lat="43.5382830" lon="-7.0423580">
        <ele>47.2</ele>
        <time>2021-07-23T08:07:52Z</time>
      </trkpt>
      <trkpt lat="43.5381540" lon="-7.0424170">
        <ele>47.2</ele>
        <time>2021-07-23T08:07:57Z</time>
      </trkpt>
      <trkpt lat="43.5380550" lon="-7.0425210">
        <ele>47.2</ele>
        <time>2021-07-23T08:08:01Z</time>
      </trkpt>
      <trkpt lat="43.5379710" lon="-7.0426110">
        <ele>47.2</ele>
        <time>2021-07-23T08:08:04Z</time>
      </trkpt>
      <trkpt lat="43.5378870" lon="-7.0426930">
        <ele>47.6</ele>
        <time>2021-07-23T08:08:07Z</time>
      </trkpt>
      <trkpt lat="43.5378580" lon="-7.0427240">
        <ele>48.0</ele>
        <time>2021-07-23T08:08:08Z</time>
      </trkpt>
      <trkpt lat="43.5378280" lon="-7.0427510">
        <ele>48.4</ele>
        <time>2021-07-23T08:08:09Z</time>
      </trkpt>
      <trkpt lat="43.5377980" lon="-7.0427730">
        <ele>48.8</ele>
        <time>2021-07-23T08:08:10Z</time>
      </trkpt>
      <trkpt lat="43.5377660" lon="-7.0428030">
        <ele>49.4</ele>
        <time>2021-07-23T08:08:11Z</time>
      </trkpt>
      <trkpt lat="43.5375810" lon="-7.0428840">
        <ele>49.4</ele>
        <time>2021-07-23T08:08:17Z</time>
      </trkpt>
      <trkpt lat="43.5374330" lon="-7.0429410">
        <ele>49.4</ele>
        <time>2021-07-23T08:08:23Z</time>
      </trkpt>
      <trkpt lat="43.5374130" lon="-7.0429530">
        <ele>49.4</ele>
        <time>2021-07-23T08:08:24Z</time>
      </trkpt>
      <trkpt lat="43.5374060" lon="-7.0431380">
        <ele>49.4</ele>
        <time>2021-07-23T08:08:28Z</time>
      </trkpt>
      <trkpt lat="43.5374550" lon="-7.0434880">
        <ele>49.4</ele>
        <time>2021-07-23T08:08:35Z</time>
      </trkpt>
      <trkpt lat="43.5374860" lon="-7.0436910">
        <ele>49.4</ele>
        <time>2021-07-23T08:08:40Z</time>
      </trkpt>
      <trkpt lat="43.5374930" lon="-7.0437320">
        <ele>49.4</ele>
        <time>2021-07-23T08:08:41Z</time>
      </trkpt>
      <trkpt lat="43.5375000" lon="-7.0438590">
        <ele>49.4</ele>
        <time>2021-07-23T08:08:44Z</time>
      </trkpt>
      <trkpt lat="43.5375040" lon="-7.0439930">
        <ele>49.4</ele>
        <time>2021-07-23T08:08:47Z</time>
      </trkpt>
      <trkpt lat="43.5375110" lon="-7.0440380">
        <ele>49.4</ele>
        <time>2021-07-23T08:08:48Z</time>
      </trkpt>
      <trkpt lat="43.5375690" lon="-7.0445080">
        <ele>49.4</ele>
        <time>2021-07-23T08:08:58Z</time>
      </trkpt>
      <trkpt lat="43.5375920" lon="-7.0447110">
        <ele>49.4</ele>
        <time>2021-07-23T08:09:02Z</time>
      </trkpt>
      <trkpt lat="43.5376140" lon="-7.0449260">
        <ele>49.4</ele>
        <time>2021-07-23T08:09:06Z</time>
      </trkpt>
      <trkpt lat="43.5376710" lon="-7.0452590">
        <ele>49.4</ele>
        <time>2021-07-23T08:09:12Z</time>
      </trkpt>
      <trkpt lat="43.5376900" lon="-7.0453690">
        <ele>49.4</ele>
        <time>2021-07-23T08:09:14Z</time>
      </trkpt>
      <trkpt lat="43.5377230" lon="-7.0456480">
        <ele>49.4</ele>
        <time>2021-07-23T08:09:19Z</time>
      </trkpt>
      <trkpt lat="43.5377320" lon="-7.0457020">
        <ele>48.8</ele>
        <time>2021-07-23T08:09:20Z</time>
      </trkpt>
      <trkpt lat="43.5377420" lon="-7.0457550">
        <ele>48.0</ele>
        <time>2021-07-23T08:09:21Z</time>
      </trkpt>
      <trkpt lat="43.5377510" lon="-7.0458060">
        <ele>47.6</ele>
        <time>2021-07-23T08:09:22Z</time>
      </trkpt>
      <trkpt lat="43.5377580" lon="-7.0458570">
        <ele>47.2</ele>
        <time>2021-07-23T08:09:23Z</time>
      </trkpt>
      <trkpt lat="43.5377860" lon="-7.0461170">
        <ele>47.2</ele>
        <time>2021-07-23T08:09:28Z</time>
      </trkpt>
      <trkpt lat="43.5378180" lon="-7.0463290">
        <ele>47.2</ele>
        <time>2021-07-23T08:09:32Z</time>
      </trkpt>
      <trkpt lat="43.5378250" lon="-7.0463800">
        <ele>47.2</ele>
        <time>2021-07-23T08:09:33Z</time>
      </trkpt>
      <trkpt lat="43.5378420" lon="-7.0465720">
        <ele>47.2</ele>
        <time>2021-07-23T08:09:37Z</time>
      </trkpt>
      <trkpt lat="43.5378380" lon="-7.0467120">
        <ele>47.2</ele>
        <time>2021-07-23T08:09:40Z</time>
      </trkpt>
      <trkpt lat="43.5378350" lon="-7.0467580">
        <ele>47.2</ele>
        <time>2021-07-23T08:09:41Z</time>
      </trkpt>
      <trkpt lat="43.5378380" lon="-7.0470120">
        <ele>47.2</ele>
        <time>2021-07-23T08:09:47Z</time>
      </trkpt>
      <trkpt lat="43.5378370" lon="-7.0470560">
        <ele>47.2</ele>
        <time>2021-07-23T08:09:48Z</time>
      </trkpt>
      <trkpt lat="43.5378350" lon="-7.0471970">
        <ele>47.2</ele>
        <time>2021-07-23T08:09:51Z</time>
      </trkpt>
      <trkpt lat="43.5378220" lon="-7.0473440">
        <ele>47.2</ele>
        <time>2021-07-23T08:09:54Z</time>
      </trkpt>
      <trkpt lat="43.5378100" lon="-7.0475400">
        <ele>47.2</ele>
        <time>2021-07-23T08:09:58Z</time>
      </trkpt>
      <trkpt lat="43.5378040" lon="-7.0477280">
        <ele>47.2</ele>
        <time>2021-07-23T08:10:02Z</time>
      </trkpt>
      <trkpt lat="43.5377830" lon="-7.0480610">
        <ele>47.2</ele>
        <time>2021-07-23T08:10:09Z</time>
      </trkpt>
      <trkpt lat="43.5377850" lon="-7.0484670">
        <ele>47.2</ele>
        <time>2021-07-23T08:10:18Z</time>
      </trkpt>
      <trkpt lat="43.5377790" lon="-7.0488300">
        <ele>47.2</ele>
        <time>2021-07-23T08:10:26Z</time>
      </trkpt>
      <trkpt lat="43.5377000" lon="-7.0491870">
        <ele>47.2</ele>
        <time>2021-07-23T08:10:34Z</time>
      </trkpt>
      <trkpt lat="43.5376890" lon="-7.0493420">
        <ele>47.2</ele>
        <time>2021-07-23T08:10:38Z</time>
      </trkpt>
      <trkpt lat="43.5376990" lon="-7.0493830">
        <ele>47.2</ele>
        <time>2021-07-23T08:10:39Z</time>
      </trkpt>
      <trkpt lat="43.5376930" lon="-7.0496410">
        <ele>47.2</ele>
        <time>2021-07-23T08:10:45Z</time>
      </trkpt>
      <trkpt lat="43.5376490" lon="-7.0499120">
        <ele>47.2</ele>
        <time>2021-07-23T08:10:51Z</time>
      </trkpt>
      <trkpt lat="43.5376810" lon="-7.0501810">
        <ele>47.2</ele>
        <time>2021-07-23T08:10:57Z</time>
      </trkpt>
      <trkpt lat="43.5377020" lon="-7.0503040">
        <ele>47.2</ele>
        <time>2021-07-23T08:11:00Z</time>
      </trkpt>
      <trkpt lat="43.5377350" lon="-7.0505180">
        <ele>47.2</ele>
        <time>2021-07-23T08:11:05Z</time>
      </trkpt>
      <trkpt lat="43.5377570" lon="-7.0506250">
        <ele>47.2</ele>
        <time>2021-07-23T08:11:08Z</time>
      </trkpt>
      <trkpt lat="43.5377670" lon="-7.0506920">
        <ele>47.2</ele>
        <time>2021-07-23T08:11:10Z</time>
      </trkpt>
      <trkpt lat="43.5377620" lon="-7.0507530">
        <ele>47.2</ele>
        <time>2021-07-23T08:11:14Z</time>
      </trkpt>
      <trkpt lat="43.5377630" lon="-7.0507540">
        <ele>47.2</ele>
        <time>2021-07-23T08:11:15Z</time>
      </trkpt>
      <trkpt lat="43.5377770" lon="-7.0507830">
        <ele>47.2</ele>
        <time>2021-07-23T08:14:43Z</time>
      </trkpt>
      <trkpt lat="43.5377820" lon="-7.0508340">
        <ele>47.2</ele>
        <time>2021-07-23T08:14:45Z</time>
      </trkpt>
      <trkpt lat="43.5378020" lon="-7.0510050">
        <ele>47.2</ele>
        <time>2021-07-23T08:14:50Z</time>
      </trkpt>
      <trkpt lat="43.5378040" lon="-7.0510450">
        <ele>47.2</ele>
        <time>2021-07-23T08:14:51Z</time>
      </trkpt>
      <trkpt lat="43.5378260" lon="-7.0511770">
        <ele>47.2</ele>
        <time>2021-07-23T08:14:54Z</time>
      </trkpt>
      <trkpt lat="43.5378500" lon="-7.0513280">
        <ele>47.2</ele>
        <time>2021-07-23T08:14:57Z</time>
      </trkpt>
      <trkpt lat="43.5378920" lon="-7.0516350">
        <ele>47.2</ele>
        <time>2021-07-23T08:15:03Z</time>
      </trkpt>
      <trkpt lat="43.5378990" lon="-7.0517430">
        <ele>47.2</ele>
        <time>2021-07-23T08:15:05Z</time>
      </trkpt>
      <trkpt lat="43.5379430" lon="-7.0521390">
        <ele>47.2</ele>
        <time>2021-07-23T08:15:13Z</time>
      </trkpt>
      <trkpt lat="43.5379930" lon="-7.0524740">
        <ele>47.2</ele>
        <time>2021-07-23T08:15:20Z</time>
      </trkpt>
      <trkpt lat="43.5380590" lon="-7.0529130">
        <ele>47.2</ele>
        <time>2021-07-23T08:15:29Z</time>
      </trkpt>
      <trkpt lat="43.5381010" lon="-7.0532700">
        <ele>47.2</ele>
        <time>2021-07-23T08:15:36Z</time>
      </trkpt>
      <trkpt lat="43.5381890" lon="-7.0536590">
        <ele>47.2</ele>
        <time>2021-07-23T08:15:44Z</time>
      </trkpt>
      <trkpt lat="43.5382150" lon="-7.0537470">
        <ele>47.2</ele>
        <time>2021-07-23T08:15:46Z</time>
      </trkpt>
      <trkpt lat="43.5382850" lon="-7.0539000">
        <ele>47.2</ele>
        <time>2021-07-23T08:15:50Z</time>
      </trkpt>
      <trkpt lat="43.5383230" lon="-7.0539670">
        <ele>47.2</ele>
        <time>2021-07-23T08:15:52Z</time>
      </trkpt>
      <trkpt lat="43.5383670" lon="-7.0540240">
        <ele>47.2</ele>
        <time>2021-07-23T08:15:54Z</time>
      </trkpt>
      <trkpt lat="43.5384360" lon="-7.0541080">
        <ele>47.2</ele>
        <time>2021-07-23T08:15:57Z</time>
      </trkpt>
      <trkpt lat="43.5385450" lon="-7.0542080">
        <ele>47.2</ele>
        <time>2021-07-23T08:16:01Z</time>
      </trkpt>
      <trkpt lat="43.5385980" lon="-7.0542630">
        <ele>47.2</ele>
        <time>2021-07-23T08:16:03Z</time>
      </trkpt>
      <trkpt lat="43.5387390" lon="-7.0544010">
        <ele>47.2</ele>
        <time>2021-07-23T08:16:09Z</time>
      </trkpt>
      <trkpt lat="43.5388430" lon="-7.0545300">
        <ele>47.2</ele>
        <time>2021-07-23T08:16:14Z</time>
      </trkpt>
      <trkpt lat="43.5388660" lon="-7.0545520">
        <ele>47.2</ele>
        <time>2021-07-23T08:16:15Z</time>
      </trkpt>
      <trkpt lat="43.5389220" lon="-7.0546280">
        <ele>47.2</ele>
        <time>2021-07-23T08:16:18Z</time>
      </trkpt>
      <trkpt lat="43.5389820" lon="-7.0546960">
        <ele>47.2</ele>
        <time>2021-07-23T08:16:21Z</time>
      </trkpt>
      <trkpt lat="43.5391490" lon="-7.0548680">
        <ele>47.2</ele>
        <time>2021-07-23T08:16:28Z</time>
      </trkpt>
      <trkpt lat="43.5393160" lon="-7.0549610">
        <ele>47.2</ele>
        <time>2021-07-23T08:16:33Z</time>
      </trkpt>
      <trkpt lat="43.5393600" lon="-7.0549520">
        <ele>46.8</ele>
        <time>2021-07-23T08:16:34Z</time>
      </trkpt>
      <trkpt lat="43.5394110" lon="-7.0549400">
        <ele>46.4</ele>
        <time>2021-07-23T08:16:35Z</time>
      </trkpt>
      <trkpt lat="43.5394610" lon="-7.0549370">
        <ele>46.0</ele>
        <time>2021-07-23T08:16:36Z</time>
      </trkpt>
      <trkpt lat="43.5395110" lon="-7.0549460">
        <ele>45.6</ele>
        <time>2021-07-23T08:16:37Z</time>
      </trkpt>
      <trkpt lat="43.5395610" lon="-7.0549740">
        <ele>45.2</ele>
        <time>2021-07-23T08:16:38Z</time>
      </trkpt>
      <trkpt lat="43.5396570" lon="-7.0551110">
        <ele>45.2</ele>
        <time>2021-07-23T08:16:41Z</time>
      </trkpt>
      <trkpt lat="43.5396800" lon="-7.0553180">
        <ele>45.2</ele>
        <time>2021-07-23T08:16:45Z</time>
      </trkpt>
      <trkpt lat="43.5396740" lon="-7.0554020">
        <ele>45.2</ele>
        <time>2021-07-23T08:16:47Z</time>
      </trkpt>
      <trkpt lat="43.5396740" lon="-7.0555360">
        <ele>45.2</ele>
        <time>2021-07-23T08:16:51Z</time>
      </trkpt>
      <trkpt lat="43.5396560" lon="-7.0556580">
        <ele>45.2</ele>
        <time>2021-07-23T08:16:55Z</time>
      </trkpt>
      <trkpt lat="43.5396410" lon="-7.0557230">
        <ele>45.2</ele>
        <time>2021-07-23T08:16:57Z</time>
      </trkpt>
      <trkpt lat="43.5396390" lon="-7.0557580">
        <ele>45.2</ele>
        <time>2021-07-23T08:16:58Z</time>
      </trkpt>
      <trkpt lat="43.5396300" lon="-7.0558180">
        <ele>45.2</ele>
        <time>2021-07-23T08:17:00Z</time>
      </trkpt>
      <trkpt lat="43.5396130" lon="-7.0558650">
        <ele>45.2</ele>
        <time>2021-07-23T08:17:02Z</time>
      </trkpt>
      <trkpt lat="43.5396040" lon="-7.0558840">
        <ele>45.2</ele>
        <time>2021-07-23T08:17:04Z</time>
      </trkpt>
      <trkpt lat="43.5395980" lon="-7.0559130">
        <ele>45.2</ele>
        <time>2021-07-23T08:17:43Z</time>
      </trkpt>
      <trkpt lat="43.5395910" lon="-7.0559410">
        <ele>45.2</ele>
        <time>2021-07-23T08:17:44Z</time>
      </trkpt>
      <trkpt lat="43.5395830" lon="-7.0559660">
        <ele>45.2</ele>
        <time>2021-07-23T08:17:45Z</time>
      </trkpt>
      <trkpt lat="43.5395610" lon="-7.0560260">
        <ele>45.2</ele>
        <time>2021-07-23T08:17:47Z</time>
      </trkpt>
      <trkpt lat="43.5395410" lon="-7.0560920">
        <ele>45.2</ele>
        <time>2021-07-23T08:17:49Z</time>
      </trkpt>
      <trkpt lat="43.5395160" lon="-7.0561640">
        <ele>45.2</ele>
        <time>2021-07-23T08:17:51Z</time>
      </trkpt>
      <trkpt lat="43.5394370" lon="-7.0564490">
        <ele>45.2</ele>
        <time>2021-07-23T08:17:58Z</time>
      </trkpt>
      <trkpt lat="43.5393760" lon="-7.0567660">
        <ele>45.2</ele>
        <time>2021-07-23T08:18:06Z</time>
      </trkpt>
      <trkpt lat="43.5393480" lon="-7.0570290">
        <ele>45.2</ele>
        <time>2021-07-23T08:18:12Z</time>
      </trkpt>
      <trkpt lat="43.5393190" lon="-7.0572000">
        <ele>45.2</ele>
        <time>2021-07-23T08:18:16Z</time>
      </trkpt>
      <trkpt lat="43.5393140" lon="-7.0573200">
        <ele>45.2</ele>
        <time>2021-07-23T08:18:19Z</time>
      </trkpt>
      <trkpt lat="43.5392830" lon="-7.0574990">
        <ele>45.2</ele>
        <time>2021-07-23T08:18:23Z</time>
      </trkpt>
      <trkpt lat="43.5392610" lon="-7.0576150">
        <ele>45.6</ele>
        <time>2021-07-23T08:18:26Z</time>
      </trkpt>
      <trkpt lat="43.5392550" lon="-7.0576540">
        <ele>46.0</ele>
        <time>2021-07-23T08:18:27Z</time>
      </trkpt>
      <trkpt lat="43.5392500" lon="-7.0576940">
        <ele>46.4</ele>
        <time>2021-07-23T08:18:28Z</time>
      </trkpt>
      <trkpt lat="43.5392420" lon="-7.0577350">
        <ele>46.8</ele>
        <time>2021-07-23T08:18:29Z</time>
      </trkpt>
      <trkpt lat="43.5392370" lon="-7.0577710">
        <ele>47.2</ele>
        <time>2021-07-23T08:18:30Z</time>
      </trkpt>
      <trkpt lat="43.5392100" lon="-7.0579190">
        <ele>47.2</ele>
        <time>2021-07-23T08:18:34Z</time>
      </trkpt>
      <trkpt lat="43.5391940" lon="-7.0580660">
        <ele>47.2</ele>
        <time>2021-07-23T08:18:38Z</time>
      </trkpt>
      <trkpt lat="43.5391710" lon="-7.0582160">
        <ele>47.2</ele>
        <time>2021-07-23T08:18:42Z</time>
      </trkpt>
      <trkpt lat="43.5391560" lon="-7.0583220">
        <ele>47.6</ele>
        <time>2021-07-23T08:18:45Z</time>
      </trkpt>
      <trkpt lat="43.5391530" lon="-7.0583570">
        <ele>48.2</ele>
        <time>2021-07-23T08:18:46Z</time>
      </trkpt>
      <trkpt lat="43.5391500" lon="-7.0583910">
        <ele>48.6</ele>
        <time>2021-07-23T08:18:47Z</time>
      </trkpt>
      <trkpt lat="43.5391490" lon="-7.0584250">
        <ele>49.0</ele>
        <time>2021-07-23T08:18:48Z</time>
      </trkpt>
      <trkpt lat="43.5391470" lon="-7.0584630">
        <ele>49.6</ele>
        <time>2021-07-23T08:18:49Z</time>
      </trkpt>
      <trkpt lat="43.5391730" lon="-7.0587950">
        <ele>49.6</ele>
        <time>2021-07-23T08:18:58Z</time>
      </trkpt>
      <trkpt lat="43.5392390" lon="-7.0589790">
        <ele>49.6</ele>
        <time>2021-07-23T08:19:04Z</time>
      </trkpt>
      <trkpt lat="43.5392290" lon="-7.0590160">
        <ele>49.6</ele>
        <time>2021-07-23T08:19:05Z</time>
      </trkpt>
      <trkpt lat="43.5392140" lon="-7.0590510">
        <ele>50.0</ele>
        <time>2021-07-23T08:19:06Z</time>
      </trkpt>
      <trkpt lat="43.5391960" lon="-7.0590800">
        <ele>50.4</ele>
        <time>2021-07-23T08:19:07Z</time>
      </trkpt>
      <trkpt lat="43.5391750" lon="-7.0591040">
        <ele>50.8</ele>
        <time>2021-07-23T08:19:08Z</time>
      </trkpt>
      <trkpt lat="43.5391500" lon="-7.0591200">
        <ele>51.2</ele>
        <time>2021-07-23T08:19:09Z</time>
      </trkpt>
      <trkpt lat="43.5391230" lon="-7.0591290">
        <ele>51.6</ele>
        <time>2021-07-23T08:19:10Z</time>
      </trkpt>
      <trkpt lat="43.5390610" lon="-7.0591200">
        <ele>51.6</ele>
        <time>2021-07-23T08:19:12Z</time>
      </trkpt>
      <trkpt lat="43.5389630" lon="-7.0590880">
        <ele>51.6</ele>
        <time>2021-07-23T08:19:15Z</time>
      </trkpt>
      <trkpt lat="43.5389170" lon="-7.0590430">
        <ele>51.6</ele>
        <time>2021-07-23T08:19:17Z</time>
      </trkpt>
      <trkpt lat="43.5388730" lon="-7.0589120">
        <ele>51.6</ele>
        <time>2021-07-23T08:19:22Z</time>
      </trkpt>
      <trkpt lat="43.5388720" lon="-7.0589130">
        <ele>51.6</ele>
        <time>2021-07-23T08:19:23Z</time>
      </trkpt>
      <trkpt lat="43.5388630" lon="-7.0588800">
        <ele>51.6</ele>
        <time>2021-07-23T08:20:04Z</time>
      </trkpt>
      <trkpt lat="43.5388520" lon="-7.0588520">
        <ele>51.6</ele>
        <time>2021-07-23T08:20:05Z</time>
      </trkpt>
      <trkpt lat="43.5388350" lon="-7.0587960">
        <ele>51.6</ele>
        <time>2021-07-23T08:20:07Z</time>
      </trkpt>
      <trkpt lat="43.5387840" lon="-7.0586060">
        <ele>51.6</ele>
        <time>2021-07-23T08:20:12Z</time>
      </trkpt>
      <trkpt lat="43.5387720" lon="-7.0585390">
        <ele>51.6</ele>
        <time>2021-07-23T08:20:14Z</time>
      </trkpt>
      <trkpt lat="43.5387490" lon="-7.0584200">
        <ele>51.6</ele>
        <time>2021-07-23T08:20:17Z</time>
      </trkpt>
      <trkpt lat="43.5387430" lon="-7.0583540">
        <ele>51.6</ele>
        <time>2021-07-23T08:20:19Z</time>
      </trkpt>
      <trkpt lat="43.5387380" lon="-7.0582960">
        <ele>51.6</ele>
        <time>2021-07-23T08:20:21Z</time>
      </trkpt>
      <trkpt lat="43.5387320" lon="-7.0582590">
        <ele>51.6</ele>
        <time>2021-07-23T08:20:22Z</time>
      </trkpt>
      <trkpt lat="43.5386920" lon="-7.0579920">
        <ele>51.6</ele>
        <time>2021-07-23T08:20:28Z</time>
      </trkpt>
      <trkpt lat="43.5386840" lon="-7.0578910">
        <ele>51.2</ele>
        <time>2021-07-23T08:20:30Z</time>
      </trkpt>
      <trkpt lat="43.5386760" lon="-7.0578410">
        <ele>50.8</ele>
        <time>2021-07-23T08:20:31Z</time>
      </trkpt>
      <trkpt lat="43.5386700" lon="-7.0577900">
        <ele>50.4</ele>
        <time>2021-07-23T08:20:32Z</time>
      </trkpt>
      <trkpt lat="43.5386670" lon="-7.0577410">
        <ele>50.0</ele>
        <time>2021-07-23T08:20:33Z</time>
      </trkpt>
      <trkpt lat="43.5386640" lon="-7.0576920">
        <ele>49.6</ele>
        <time>2021-07-23T08:20:34Z</time>
      </trkpt>
      <trkpt lat="43.5386490" lon="-7.0575890">
        <ele>49.6</ele>
        <time>2021-07-23T08:20:36Z</time>
      </trkpt>
      <trkpt lat="43.5386230" lon="-7.0574000">
        <ele>49.6</ele>
        <time>2021-07-23T08:20:40Z</time>
      </trkpt>
      <trkpt lat="43.5385980" lon="-7.0572260">
        <ele>49.6</ele>
        <time>2021-07-23T08:20:44Z</time>
      </trkpt>
      <trkpt lat="43.5385090" lon="-7.0570910">
        <ele>49.6</ele>
        <time>2021-07-23T08:20:48Z</time>
      </trkpt>
      <trkpt lat="43.5384210" lon="-7.0570780">
        <ele>49.6</ele>
        <time>2021-07-23T08:20:52Z</time>
      </trkpt>
      <trkpt lat="43.5384230" lon="-7.0570800">
        <ele>49.6</ele>
        <time>2021-07-23T08:20:53Z</time>
      </trkpt>
      <trkpt lat="43.5384100" lon="-7.0570900">
        <ele>49.6</ele>
        <time>2021-07-23T08:22:44Z</time>
      </trkpt>
      <trkpt lat="43.5383670" lon="-7.0570780">
        <ele>49.6</ele>
        <time>2021-07-23T08:22:46Z</time>
      </trkpt>
      <trkpt lat="43.5382890" lon="-7.0570640">
        <ele>49.6</ele>
        <time>2021-07-23T08:22:49Z</time>
      </trkpt>
      <trkpt lat="43.5381980" lon="-7.0570410">
        <ele>49.6</ele>
        <time>2021-07-23T08:22:52Z</time>
      </trkpt>
      <trkpt lat="43.5380440" lon="-7.0569880">
        <ele>49.6</ele>
        <time>2021-07-23T08:22:58Z</time>
      </trkpt>
      <trkpt lat="43.5380230" lon="-7.0569780">
        <ele>49.6</ele>
        <time>2021-07-23T08:22:59Z</time>
      </trkpt>
      <trkpt lat="43.5378450" lon="-7.0569360">
        <ele>49.6</ele>
        <time>2021-07-23T08:23:05Z</time>
      </trkpt>
      <trkpt lat="43.5377250" lon="-7.0569180">
        <ele>49.6</ele>
        <time>2021-07-23T08:23:09Z</time>
      </trkpt>
      <trkpt lat="43.5376240" lon="-7.0569040">
        <ele>49.6</ele>
        <time>2021-07-23T08:23:12Z</time>
      </trkpt>
      <trkpt lat="43.5374480" lon="-7.0568550">
        <ele>49.6</ele>
        <time>2021-07-23T08:23:17Z</time>
      </trkpt>
      <trkpt lat="43.5374130" lon="-7.0568420">
        <ele>49.6</ele>
        <time>2021-07-23T08:23:18Z</time>
      </trkpt>
      <trkpt lat="43.5371960" lon="-7.0567980">
        <ele>49.6</ele>
        <time>2021-07-23T08:23:24Z</time>
      </trkpt>
      <trkpt lat="43.5370910" lon="-7.0567630">
        <ele>49.6</ele>
        <time>2021-07-23T08:23:27Z</time>
      </trkpt>
      <trkpt lat="43.5369070" lon="-7.0567110">
        <ele>49.6</ele>
        <time>2021-07-23T08:23:32Z</time>
      </trkpt>
      <trkpt lat="43.5367830" lon="-7.0566730">
        <ele>49.6</ele>
        <time>2021-07-23T08:23:36Z</time>
      </trkpt>
      <trkpt lat="43.5367170" lon="-7.0566560">
        <ele>49.6</ele>
        <time>2021-07-23T08:23:38Z</time>
      </trkpt>
      <trkpt lat="43.5364940" lon="-7.0566000">
        <ele>49.6</ele>
        <time>2021-07-23T08:23:45Z</time>
      </trkpt>
      <trkpt lat="43.5364640" lon="-7.0566030">
        <ele>49.6</ele>
        <time>2021-07-23T08:23:46Z</time>
      </trkpt>
      <trkpt lat="43.5364100" lon="-7.0566000">
        <ele>49.6</ele>
        <time>2021-07-23T08:23:48Z</time>
      </trkpt>
      <trkpt lat="43.5363350" lon="-7.0565800">
        <ele>49.6</ele>
        <time>2021-07-23T08:23:51Z</time>
      </trkpt>
      <trkpt lat="43.5362640" lon="-7.0565530">
        <ele>49.6</ele>
        <time>2021-07-23T08:23:54Z</time>
      </trkpt>
      <trkpt lat="43.5361500" lon="-7.0564960">
        <ele>49.6</ele>
        <time>2021-07-23T08:23:59Z</time>
      </trkpt>
      <trkpt lat="43.5360490" lon="-7.0564610">
        <ele>49.6</ele>
        <time>2021-07-23T08:24:02Z</time>
      </trkpt>
      <trkpt lat="43.5359400" lon="-7.0564220">
        <ele>49.6</ele>
        <time>2021-07-23T08:24:05Z</time>
      </trkpt>
      <trkpt lat="43.5356880" lon="-7.0563360">
        <ele>49.6</ele>
        <time>2021-07-23T08:24:12Z</time>
      </trkpt>
      <trkpt lat="43.5354640" lon="-7.0562530">
        <ele>49.6</ele>
        <time>2021-07-23T08:24:19Z</time>
      </trkpt>
      <trkpt lat="43.5354010" lon="-7.0562350">
        <ele>50.0</ele>
        <time>2021-07-23T08:24:21Z</time>
      </trkpt>
      <trkpt lat="43.5353720" lon="-7.0562260">
        <ele>50.4</ele>
        <time>2021-07-23T08:24:22Z</time>
      </trkpt>
      <trkpt lat="43.5353440" lon="-7.0562180">
        <ele>50.8</ele>
        <time>2021-07-23T08:24:23Z</time>
      </trkpt>
      <trkpt lat="43.5353190" lon="-7.0562090">
        <ele>51.2</ele>
        <time>2021-07-23T08:24:24Z</time>
      </trkpt>
      <trkpt lat="43.5352960" lon="-7.0562060">
        <ele>51.6</ele>
        <time>2021-07-23T08:24:25Z</time>
      </trkpt>
      <trkpt lat="43.5352700" lon="-7.0562000">
        <ele>51.6</ele>
        <time>2021-07-23T08:24:26Z</time>
      </trkpt>
      <trkpt lat="43.5351720" lon="-7.0561810">
        <ele>51.6</ele>
        <time>2021-07-23T08:24:30Z</time>
      </trkpt>
      <trkpt lat="43.5351070" lon="-7.0561640">
        <ele>51.6</ele>
        <time>2021-07-23T08:24:33Z</time>
      </trkpt>
      <trkpt lat="43.5350620" lon="-7.0561560">
        <ele>51.6</ele>
        <time>2021-07-23T08:24:35Z</time>
      </trkpt>
      <trkpt lat="43.5350230" lon="-7.0561460">
        <ele>52.4</ele>
        <time>2021-07-23T08:24:37Z</time>
      </trkpt>
      <trkpt lat="43.5350050" lon="-7.0561480">
        <ele>52.8</ele>
        <time>2021-07-23T08:24:38Z</time>
      </trkpt>
      <trkpt lat="43.5349860" lon="-7.0561440">
        <ele>53.2</ele>
        <time>2021-07-23T08:24:39Z</time>
      </trkpt>
      <trkpt lat="43.5349700" lon="-7.0561440">
        <ele>53.6</ele>
        <time>2021-07-23T08:24:40Z</time>
      </trkpt>
      <trkpt lat="43.5349370" lon="-7.0561340">
        <ele>53.6</ele>
        <time>2021-07-23T08:24:42Z</time>
      </trkpt>
      <trkpt lat="43.5348040" lon="-7.0561390">
        <ele>53.6</ele>
        <time>2021-07-23T08:24:49Z</time>
      </trkpt>
      <trkpt lat="43.5347650" lon="-7.0561400">
        <ele>53.6</ele>
        <time>2021-07-23T08:24:51Z</time>
      </trkpt>
      <trkpt lat="43.5346380" lon="-7.0561480">
        <ele>54.0</ele>
        <time>2021-07-23T08:24:58Z</time>
      </trkpt>
      <trkpt lat="43.5346240" lon="-7.0561490">
        <ele>54.4</ele>
        <time>2021-07-23T08:24:59Z</time>
      </trkpt>
      <trkpt lat="43.5346080" lon="-7.0561500">
        <ele>54.8</ele>
        <time>2021-07-23T08:25:00Z</time>
      </trkpt>
      <trkpt lat="43.5345950" lon="-7.0561590">
        <ele>55.2</ele>
        <time>2021-07-23T08:25:01Z</time>
      </trkpt>
      <trkpt lat="43.5345800" lon="-7.0561620">
        <ele>55.6</ele>
        <time>2021-07-23T08:25:02Z</time>
      </trkpt>
      <trkpt lat="43.5345430" lon="-7.0561850">
        <ele>55.6</ele>
        <time>2021-07-23T08:25:06Z</time>
      </trkpt>
      <trkpt lat="43.5345440" lon="-7.0561910">
        <ele>55.6</ele>
        <time>2021-07-23T08:25:08Z</time>
      </trkpt>
      <trkpt lat="43.5345180" lon="-7.0561900">
        <ele>55.6</ele>
        <time>2021-07-23T08:26:20Z</time>
      </trkpt>
      <trkpt lat="43.5345010" lon="-7.0561900">
        <ele>55.6</ele>
        <time>2021-07-23T08:26:21Z</time>
      </trkpt>
      <trkpt lat="43.5344690" lon="-7.0561930">
        <ele>55.6</ele>
        <time>2021-07-23T08:26:23Z</time>
      </trkpt>
      <trkpt lat="43.5344500" lon="-7.0561950">
        <ele>55.6</ele>
        <time>2021-07-23T08:26:26Z</time>
      </trkpt>
      <trkpt lat="43.5344360" lon="-7.0561970">
        <ele>55.6</ele>
        <time>2021-07-23T08:26:29Z</time>
      </trkpt>
      <trkpt lat="43.5344200" lon="-7.0562030">
        <ele>55.6</ele>
        <time>2021-07-23T08:26:30Z</time>
      </trkpt>
      <trkpt lat="43.5343550" lon="-7.0562020">
        <ele>55.6</ele>
        <time>2021-07-23T08:26:33Z</time>
      </trkpt>
      <trkpt lat="43.5342870" lon="-7.0562140">
        <ele>55.6</ele>
        <time>2021-07-23T08:26:36Z</time>
      </trkpt>
      <trkpt lat="43.5341880" lon="-7.0561870">
        <ele>55.6</ele>
        <time>2021-07-23T08:26:41Z</time>
      </trkpt>
      <trkpt lat="43.5341450" lon="-7.0561760">
        <ele>55.6</ele>
        <time>2021-07-23T08:26:43Z</time>
      </trkpt>
      <trkpt lat="43.5340240" lon="-7.0560990">
        <ele>55.6</ele>
        <time>2021-07-23T08:26:47Z</time>
      </trkpt>
      <trkpt lat="43.5339910" lon="-7.0560720">
        <ele>55.6</ele>
        <time>2021-07-23T08:26:48Z</time>
      </trkpt>
      <trkpt lat="43.5337010" lon="-7.0558740">
        <ele>55.6</ele>
        <time>2021-07-23T08:26:56Z</time>
      </trkpt>
      <trkpt lat="43.5334750" lon="-7.0558410">
        <ele>55.6</ele>
        <time>2021-07-23T08:27:01Z</time>
      </trkpt>
      <trkpt lat="43.5331400" lon="-7.0557750">
        <ele>55.6</ele>
        <time>2021-07-23T08:27:09Z</time>
      </trkpt>
      <trkpt lat="43.5331050" lon="-7.0557630">
        <ele>55.6</ele>
        <time>2021-07-23T08:27:10Z</time>
      </trkpt>
      <trkpt lat="43.5328020" lon="-7.0556820">
        <ele>55.6</ele>
        <time>2021-07-23T08:27:17Z</time>
      </trkpt>
      <trkpt lat="43.5324130" lon="-7.0555910">
        <ele>55.6</ele>
        <time>2021-07-23T08:27:26Z</time>
      </trkpt>
      <trkpt lat="43.5320590" lon="-7.0555190">
        <ele>55.6</ele>
        <time>2021-07-23T08:27:34Z</time>
      </trkpt>
      <trkpt lat="43.5317580" lon="-7.0554480">
        <ele>55.6</ele>
        <time>2021-07-23T08:27:41Z</time>
      </trkpt>
      <trkpt lat="43.5315430" lon="-7.0553910">
        <ele>55.2</ele>
        <time>2021-07-23T08:27:46Z</time>
      </trkpt>
      <trkpt lat="43.5315020" lon="-7.0553800">
        <ele>54.8</ele>
        <time>2021-07-23T08:27:47Z</time>
      </trkpt>
      <trkpt lat="43.5314590" lon="-7.0553710">
        <ele>54.4</ele>
        <time>2021-07-23T08:27:48Z</time>
      </trkpt>
      <trkpt lat="43.5314150" lon="-7.0553630">
        <ele>54.0</ele>
        <time>2021-07-23T08:27:49Z</time>
      </trkpt>
      <trkpt lat="43.5313730" lon="-7.0553510">
        <ele>53.6</ele>
        <time>2021-07-23T08:27:50Z</time>
      </trkpt>
      <trkpt lat="43.5311030" lon="-7.0552930">
        <ele>53.6</ele>
        <time>2021-07-23T08:27:56Z</time>
      </trkpt>
      <trkpt lat="43.5309240" lon="-7.0552510">
        <ele>53.6</ele>
        <time>2021-07-23T08:28:00Z</time>
      </trkpt>
      <trkpt lat="43.5308430" lon="-7.0552350">
        <ele>53.6</ele>
        <time>2021-07-23T08:28:02Z</time>
      </trkpt>
      <trkpt lat="43.5308060" lon="-7.0552280">
        <ele>53.6</ele>
        <time>2021-07-23T08:28:03Z</time>
      </trkpt>
      <trkpt lat="43.5307380" lon="-7.0552100">
        <ele>53.6</ele>
        <time>2021-07-23T08:28:05Z</time>
      </trkpt>
      <trkpt lat="43.5306590" lon="-7.0551910">
        <ele>53.6</ele>
        <time>2021-07-23T08:28:08Z</time>
      </trkpt>
      <trkpt lat="43.5306110" lon="-7.0551780">
        <ele>53.6</ele>
        <time>2021-07-23T08:28:10Z</time>
      </trkpt>
      <trkpt lat="43.5305540" lon="-7.0551690">
        <ele>53.6</ele>
        <time>2021-07-23T08:28:12Z</time>
      </trkpt>
      <trkpt lat="43.5304920" lon="-7.0551610">
        <ele>54.0</ele>
        <time>2021-07-23T08:28:14Z</time>
      </trkpt>
      <trkpt lat="43.5304660" lon="-7.0551490">
        <ele>54.4</ele>
        <time>2021-07-23T08:28:15Z</time>
      </trkpt>
      <trkpt lat="43.5304370" lon="-7.0551480">
        <ele>54.8</ele>
        <time>2021-07-23T08:28:16Z</time>
      </trkpt>
      <trkpt lat="43.5304080" lon="-7.0551350">
        <ele>55.2</ele>
        <time>2021-07-23T08:28:17Z</time>
      </trkpt>
      <trkpt lat="43.5303790" lon="-7.0551340">
        <ele>55.6</ele>
        <time>2021-07-23T08:28:18Z</time>
      </trkpt>
      <trkpt lat="43.5303500" lon="-7.0551270">
        <ele>55.6</ele>
        <time>2021-07-23T08:28:19Z</time>
      </trkpt>
      <trkpt lat="43.5303220" lon="-7.0551210">
        <ele>55.6</ele>
        <time>2021-07-23T08:28:20Z</time>
      </trkpt>
      <trkpt lat="43.5302970" lon="-7.0551150">
        <ele>56.6</ele>
        <time>2021-07-23T08:28:21Z</time>
      </trkpt>
      <trkpt lat="43.5302680" lon="-7.0551170">
        <ele>57.0</ele>
        <time>2021-07-23T08:28:22Z</time>
      </trkpt>
      <trkpt lat="43.5302410" lon="-7.0551160">
        <ele>57.4</ele>
        <time>2021-07-23T08:28:23Z</time>
      </trkpt>
      <trkpt lat="43.5302160" lon="-7.0551150">
        <ele>57.8</ele>
        <time>2021-07-23T08:28:24Z</time>
      </trkpt>
      <trkpt lat="43.5301420" lon="-7.0551010">
        <ele>57.8</ele>
        <time>2021-07-23T08:28:27Z</time>
      </trkpt>
      <trkpt lat="43.5301180" lon="-7.0550950">
        <ele>57.8</ele>
        <time>2021-07-23T08:28:28Z</time>
      </trkpt>
      <trkpt lat="43.5300710" lon="-7.0550850">
        <ele>58.2</ele>
        <time>2021-07-23T08:28:30Z</time>
      </trkpt>
      <trkpt lat="43.5300450" lon="-7.0550860">
        <ele>58.6</ele>
        <time>2021-07-23T08:28:31Z</time>
      </trkpt>
      <trkpt lat="43.5300200" lon="-7.0550880">
        <ele>59.2</ele>
        <time>2021-07-23T08:28:32Z</time>
      </trkpt>
      <trkpt lat="43.5299940" lon="-7.0550860">
        <ele>59.6</ele>
        <time>2021-07-23T08:28:33Z</time>
      </trkpt>
      <trkpt lat="43.5299680" lon="-7.0550840">
        <ele>60.0</ele>
        <time>2021-07-23T08:28:34Z</time>
      </trkpt>
      <trkpt lat="43.5298880" lon="-7.0550710">
        <ele>60.0</ele>
        <time>2021-07-23T08:28:37Z</time>
      </trkpt>
      <trkpt lat="43.5298160" lon="-7.0550590">
        <ele>60.4</ele>
        <time>2021-07-23T08:28:40Z</time>
      </trkpt>
      <trkpt lat="43.5297920" lon="-7.0550580">
        <ele>60.8</ele>
        <time>2021-07-23T08:28:41Z</time>
      </trkpt>
      <trkpt lat="43.5297710" lon="-7.0550520">
        <ele>61.2</ele>
        <time>2021-07-23T08:28:42Z</time>
      </trkpt>
      <trkpt lat="43.5297490" lon="-7.0550540">
        <ele>61.6</ele>
        <time>2021-07-23T08:28:43Z</time>
      </trkpt>
      <trkpt lat="43.5297300" lon="-7.0550560">
        <ele>62.0</ele>
        <time>2021-07-23T08:28:44Z</time>
      </trkpt>
      <trkpt lat="43.5297130" lon="-7.0550650">
        <ele>62.0</ele>
        <time>2021-07-23T08:28:45Z</time>
      </trkpt>
      <trkpt lat="43.5296980" lon="-7.0550870">
        <ele>62.0</ele>
        <time>2021-07-23T08:28:49Z</time>
      </trkpt>
      <trkpt lat="43.5296690" lon="-7.0551260">
        <ele>62.0</ele>
        <time>2021-07-23T08:30:35Z</time>
      </trkpt>
      <trkpt lat="43.5296700" lon="-7.0551460">
        <ele>62.0</ele>
        <time>2021-07-23T08:30:36Z</time>
      </trkpt>
      <trkpt lat="43.5296760" lon="-7.0552220">
        <ele>62.0</ele>
        <time>2021-07-23T08:30:39Z</time>
      </trkpt>
      <trkpt lat="43.5296770" lon="-7.0552870">
        <ele>62.0</ele>
        <time>2021-07-23T08:30:41Z</time>
      </trkpt>
      <trkpt lat="43.5296750" lon="-7.0553270">
        <ele>62.0</ele>
        <time>2021-07-23T08:30:42Z</time>
      </trkpt>
      <trkpt lat="43.5296710" lon="-7.0553990">
        <ele>62.0</ele>
        <time>2021-07-23T08:30:44Z</time>
      </trkpt>
      <trkpt lat="43.5296660" lon="-7.0554660">
        <ele>62.0</ele>
        <time>2021-07-23T08:30:46Z</time>
      </trkpt>
      <trkpt lat="43.5296630" lon="-7.0554980">
        <ele>62.4</ele>
        <time>2021-07-23T08:30:47Z</time>
      </trkpt>
      <trkpt lat="43.5296620" lon="-7.0555340">
        <ele>63.2</ele>
        <time>2021-07-23T08:30:48Z</time>
      </trkpt>
      <trkpt lat="43.5296580" lon="-7.0555660">
        <ele>63.6</ele>
        <time>2021-07-23T08:30:49Z</time>
      </trkpt>
      <trkpt lat="43.5296540" lon="-7.0555990">
        <ele>64.0</ele>
        <time>2021-07-23T08:30:50Z</time>
      </trkpt>
      <trkpt lat="43.5296380" lon="-7.0557600">
        <ele>64.0</ele>
        <time>2021-07-23T08:30:55Z</time>
      </trkpt>
      <trkpt lat="43.5296440" lon="-7.0558900">
        <ele>64.0</ele>
        <time>2021-07-23T08:30:59Z</time>
      </trkpt>
      <trkpt lat="43.5296630" lon="-7.0561030">
        <ele>64.0</ele>
        <time>2021-07-23T08:31:05Z</time>
      </trkpt>
      <trkpt lat="43.5296630" lon="-7.0561340">
        <ele>64.0</ele>
        <time>2021-07-23T08:31:06Z</time>
      </trkpt>
      <trkpt lat="43.5296500" lon="-7.0561840">
        <ele>64.4</ele>
        <time>2021-07-23T08:31:08Z</time>
      </trkpt>
      <trkpt lat="43.5296350" lon="-7.0562040">
        <ele>64.8</ele>
        <time>2021-07-23T08:31:09Z</time>
      </trkpt>
      <trkpt lat="43.5296180" lon="-7.0562250">
        <ele>65.2</ele>
        <time>2021-07-23T08:31:10Z</time>
      </trkpt>
      <trkpt lat="43.5296030" lon="-7.0562450">
        <ele>65.6</ele>
        <time>2021-07-23T08:31:11Z</time>
      </trkpt>
      <trkpt lat="43.5295900" lon="-7.0562640">
        <ele>66.2</ele>
        <time>2021-07-23T08:31:12Z</time>
      </trkpt>
      <trkpt lat="43.5294850" lon="-7.0563690">
        <ele>66.2</ele>
        <time>2021-07-23T08:31:18Z</time>
      </trkpt>
      <trkpt lat="43.5293750" lon="-7.0564940">
        <ele>66.2</ele>
        <time>2021-07-23T08:31:25Z</time>
      </trkpt>
      <trkpt lat="43.5293610" lon="-7.0565100">
        <ele>66.6</ele>
        <time>2021-07-23T08:31:26Z</time>
      </trkpt>
      <trkpt lat="43.5293460" lon="-7.0565260">
        <ele>67.0</ele>
        <time>2021-07-23T08:31:27Z</time>
      </trkpt>
      <trkpt lat="43.5293310" lon="-7.0565420">
        <ele>67.4</ele>
        <time>2021-07-23T08:31:28Z</time>
      </trkpt>
      <trkpt lat="43.5293170" lon="-7.0565580">
        <ele>67.8</ele>
        <time>2021-07-23T08:31:29Z</time>
      </trkpt>
      <trkpt lat="43.5293030" lon="-7.0565730">
        <ele>68.2</ele>
        <time>2021-07-23T08:31:30Z</time>
      </trkpt>
      <trkpt lat="43.5292480" lon="-7.0566430">
        <ele>68.2</ele>
        <time>2021-07-23T08:31:34Z</time>
      </trkpt>
      <trkpt lat="43.5291360" lon="-7.0567720">
        <ele>68.2</ele>
        <time>2021-07-23T08:31:42Z</time>
      </trkpt>
      <trkpt lat="43.5290990" lon="-7.0568230">
        <ele>68.6</ele>
        <time>2021-07-23T08:31:45Z</time>
      </trkpt>
      <trkpt lat="43.5290860" lon="-7.0568390">
        <ele>69.0</ele>
        <time>2021-07-23T08:31:46Z</time>
      </trkpt>
      <trkpt lat="43.5290720" lon="-7.0568550">
        <ele>69.4</ele>
        <time>2021-07-23T08:31:47Z</time>
      </trkpt>
      <trkpt lat="43.5290590" lon="-7.0568700">
        <ele>70.0</ele>
        <time>2021-07-23T08:31:48Z</time>
      </trkpt>
      <trkpt lat="43.5290450" lon="-7.0568840">
        <ele>70.4</ele>
        <time>2021-07-23T08:31:49Z</time>
      </trkpt>
      <trkpt lat="43.5290330" lon="-7.0569000">
        <ele>70.4</ele>
        <time>2021-07-23T08:31:50Z</time>
      </trkpt>
      <trkpt lat="43.5289530" lon="-7.0570010">
        <ele>70.4</ele>
        <time>2021-07-23T08:31:56Z</time>
      </trkpt>
      <trkpt lat="43.5288790" lon="-7.0570720">
        <ele>70.8</ele>
        <time>2021-07-23T08:32:01Z</time>
      </trkpt>
      <trkpt lat="43.5288680" lon="-7.0570890">
        <ele>71.2</ele>
        <time>2021-07-23T08:32:02Z</time>
      </trkpt>
      <trkpt lat="43.5288570" lon="-7.0571060">
        <ele>72.0</ele>
        <time>2021-07-23T08:32:03Z</time>
      </trkpt>
      <trkpt lat="43.5288430" lon="-7.0571230">
        <ele>72.4</ele>
        <time>2021-07-23T08:32:04Z</time>
      </trkpt>
      <trkpt lat="43.5287520" lon="-7.0572260">
        <ele>72.4</ele>
        <time>2021-07-23T08:32:11Z</time>
      </trkpt>
      <trkpt lat="43.5286730" lon="-7.0573160">
        <ele>72.8</ele>
        <time>2021-07-23T08:32:17Z</time>
      </trkpt>
      <trkpt lat="43.5286600" lon="-7.0573310">
        <ele>73.2</ele>
        <time>2021-07-23T08:32:18Z</time>
      </trkpt>
      <trkpt lat="43.5286460" lon="-7.0573440">
        <ele>73.6</ele>
        <time>2021-07-23T08:32:19Z</time>
      </trkpt>
      <trkpt lat="43.5286340" lon="-7.0573570">
        <ele>74.0</ele>
        <time>2021-07-23T08:32:20Z</time>
      </trkpt>
      <trkpt lat="43.5286220" lon="-7.0573710">
        <ele>74.4</ele>
        <time>2021-07-23T08:32:21Z</time>
      </trkpt>
      <trkpt lat="43.5285620" lon="-7.0574420">
        <ele>74.4</ele>
        <time>2021-07-23T08:32:26Z</time>
      </trkpt>
      <trkpt lat="43.5285380" lon="-7.0574760">
        <ele>74.4</ele>
        <time>2021-07-23T08:32:28Z</time>
      </trkpt>
      <trkpt lat="43.5285110" lon="-7.0575020">
        <ele>74.4</ele>
        <time>2021-07-23T08:32:30Z</time>
      </trkpt>
      <trkpt lat="43.5284730" lon="-7.0575460">
        <ele>74.8</ele>
        <time>2021-07-23T08:32:33Z</time>
      </trkpt>
      <trkpt lat="43.5284620" lon="-7.0575590">
        <ele>75.2</ele>
        <time>2021-07-23T08:32:34Z</time>
      </trkpt>
      <trkpt lat="43.5284490" lon="-7.0575710">
        <ele>75.6</ele>
        <time>2021-07-23T08:32:35Z</time>
      </trkpt>
      <trkpt lat="43.5284330" lon="-7.0575840">
        <ele>76.0</ele>
        <time>2021-07-23T08:32:36Z</time>
      </trkpt>
      <trkpt lat="43.5284200" lon="-7.0575970">
        <ele>76.4</ele>
        <time>2021-07-23T08:32:37Z</time>
      </trkpt>
      <trkpt lat="43.5283550" lon="-7.0576750">
        <ele>76.4</ele>
        <time>2021-07-23T08:32:42Z</time>
      </trkpt>
      <trkpt lat="43.5283170" lon="-7.0577150">
        <ele>76.4</ele>
        <time>2021-07-23T08:32:45Z</time>
      </trkpt>
      <trkpt lat="43.5282370" lon="-7.0577990">
        <ele>77.0</ele>
        <time>2021-07-23T08:32:51Z</time>
      </trkpt>
      <trkpt lat="43.5282240" lon="-7.0578110">
        <ele>77.4</ele>
        <time>2021-07-23T08:32:52Z</time>
      </trkpt>
      <trkpt lat="43.5282120" lon="-7.0578250">
        <ele>78.2</ele>
        <time>2021-07-23T08:32:53Z</time>
      </trkpt>
      <trkpt lat="43.5282010" lon="-7.0578390">
        <ele>78.6</ele>
        <time>2021-07-23T08:32:54Z</time>
      </trkpt>
      <trkpt lat="43.5280920" lon="-7.0579590">
        <ele>78.6</ele>
        <time>2021-07-23T08:33:03Z</time>
      </trkpt>
      <trkpt lat="43.5280560" lon="-7.0580000">
        <ele>79.0</ele>
        <time>2021-07-23T08:33:06Z</time>
      </trkpt>
      <trkpt lat="43.5280470" lon="-7.0580140">
        <ele>79.6</ele>
        <time>2021-07-23T08:33:07Z</time>
      </trkpt>
      <trkpt lat="43.5280380" lon="-7.0580260">
        <ele>80.0</ele>
        <time>2021-07-23T08:33:08Z</time>
      </trkpt>
      <trkpt lat="43.5280300" lon="-7.0580360">
        <ele>80.4</ele>
        <time>2021-07-23T08:33:09Z</time>
      </trkpt>
      <trkpt lat="43.5280210" lon="-7.0580470">
        <ele>80.8</ele>
        <time>2021-07-23T08:33:10Z</time>
      </trkpt>
      <trkpt lat="43.5280100" lon="-7.0580570">
        <ele>80.8</ele>
        <time>2021-07-23T08:33:11Z</time>
      </trkpt>
      <trkpt lat="43.5279330" lon="-7.0581370">
        <ele>80.8</ele>
        <time>2021-07-23T08:33:19Z</time>
      </trkpt>
      <trkpt lat="43.5279110" lon="-7.0581600">
        <ele>81.2</ele>
        <time>2021-07-23T08:33:21Z</time>
      </trkpt>
      <trkpt lat="43.5279000" lon="-7.0581720">
        <ele>81.6</ele>
        <time>2021-07-23T08:33:22Z</time>
      </trkpt>
      <trkpt lat="43.5278890" lon="-7.0581820">
        <ele>82.0</ele>
        <time>2021-07-23T08:33:23Z</time>
      </trkpt>
      <trkpt lat="43.5278780" lon="-7.0581920">
        <ele>82.4</ele>
        <time>2021-07-23T08:33:24Z</time>
      </trkpt>
      <trkpt lat="43.5278670" lon="-7.0582020">
        <ele>82.8</ele>
        <time>2021-07-23T08:33:25Z</time>
      </trkpt>
      <trkpt lat="43.5278390" lon="-7.0582380">
        <ele>82.8</ele>
        <time>2021-07-23T08:33:28Z</time>
      </trkpt>
      <trkpt lat="43.5277710" lon="-7.0582960">
        <ele>83.2</ele>
        <time>2021-07-23T08:33:34Z</time>
      </trkpt>
      <trkpt lat="43.5277600" lon="-7.0583070">
        <ele>83.6</ele>
        <time>2021-07-23T08:33:35Z</time>
      </trkpt>
      <trkpt lat="43.5277490" lon="-7.0583150">
        <ele>84.2</ele>
        <time>2021-07-23T08:33:36Z</time>
      </trkpt>
      <trkpt lat="43.5277370" lon="-7.0583180">
        <ele>84.6</ele>
        <time>2021-07-23T08:33:37Z</time>
      </trkpt>
      <trkpt lat="43.5277270" lon="-7.0583220">
        <ele>85.0</ele>
        <time>2021-07-23T08:33:38Z</time>
      </trkpt>
      <trkpt lat="43.5277050" lon="-7.0583370">
        <ele>85.0</ele>
        <time>2021-07-23T08:33:41Z</time>
      </trkpt>
      <trkpt lat="43.5275730" lon="-7.0584900">
        <ele>87.2</ele>
        <time>2021-07-23T08:35:30Z</time>
      </trkpt>
      <trkpt lat="43.5275630" lon="-7.0585010">
        <ele>87.2</ele>
        <time>2021-07-23T08:35:31Z</time>
      </trkpt>
      <trkpt lat="43.5275150" lon="-7.0585420">
        <ele>87.6</ele>
        <time>2021-07-23T08:35:36Z</time>
      </trkpt>
      <trkpt lat="43.5275040" lon="-7.0585500">
        <ele>88.0</ele>
        <time>2021-07-23T08:35:37Z</time>
      </trkpt>
      <trkpt lat="43.5274940" lon="-7.0585580">
        <ele>88.4</ele>
        <time>2021-07-23T08:35:38Z</time>
      </trkpt>
      <trkpt lat="43.5274850" lon="-7.0585670">
        <ele>88.8</ele>
        <time>2021-07-23T08:35:39Z</time>
      </trkpt>
      <trkpt lat="43.5274760" lon="-7.0585760">
        <ele>89.2</ele>
        <time>2021-07-23T08:35:40Z</time>
      </trkpt>
      <trkpt lat="43.5274270" lon="-7.0586200">
        <ele>89.2</ele>
        <time>2021-07-23T08:35:45Z</time>
      </trkpt>
      <trkpt lat="43.5274000" lon="-7.0586480">
        <ele>89.6</ele>
        <time>2021-07-23T08:35:48Z</time>
      </trkpt>
      <trkpt lat="43.5273910" lon="-7.0586580">
        <ele>90.0</ele>
        <time>2021-07-23T08:35:49Z</time>
      </trkpt>
      <trkpt lat="43.5273800" lon="-7.0586680">
        <ele>90.4</ele>
        <time>2021-07-23T08:35:50Z</time>
      </trkpt>
      <trkpt lat="43.5273710" lon="-7.0586770">
        <ele>91.0</ele>
        <time>2021-07-23T08:35:51Z</time>
      </trkpt>
      <trkpt lat="43.5273620" lon="-7.0586850">
        <ele>91.4</ele>
        <time>2021-07-23T08:35:52Z</time>
      </trkpt>
      <trkpt lat="43.5273290" lon="-7.0587150">
        <ele>91.4</ele>
        <time>2021-07-23T08:35:56Z</time>
      </trkpt>
      <trkpt lat="43.5273100" lon="-7.0587330">
        <ele>91.4</ele>
        <time>2021-07-23T08:35:58Z</time>
      </trkpt>
      <trkpt lat="43.5272610" lon="-7.0587770">
        <ele>91.8</ele>
        <time>2021-07-23T08:36:03Z</time>
      </trkpt>
      <trkpt lat="43.5272520" lon="-7.0587840">
        <ele>92.2</ele>
        <time>2021-07-23T08:36:04Z</time>
      </trkpt>
      <trkpt lat="43.5272420" lon="-7.0587920">
        <ele>92.6</ele>
        <time>2021-07-23T08:36:05Z</time>
      </trkpt>
      <trkpt lat="43.5272350" lon="-7.0588000">
        <ele>93.0</ele>
        <time>2021-07-23T08:36:06Z</time>
      </trkpt>
      <trkpt lat="43.5272260" lon="-7.0588070">
        <ele>93.4</ele>
        <time>2021-07-23T08:36:07Z</time>
      </trkpt>
      <trkpt lat="43.5271520" lon="-7.0588440">
        <ele>93.4</ele>
        <time>2021-07-23T08:36:15Z</time>
      </trkpt>
      <trkpt lat="43.5271320" lon="-7.0588530">
        <ele>93.8</ele>
        <time>2021-07-23T08:36:18Z</time>
      </trkpt>
      <trkpt lat="43.5271230" lon="-7.0588550">
        <ele>94.2</ele>
        <time>2021-07-23T08:36:19Z</time>
      </trkpt>
      <trkpt lat="43.5271160" lon="-7.0588580">
        <ele>94.6</ele>
        <time>2021-07-23T08:36:20Z</time>
      </trkpt>
      <trkpt lat="43.5271130" lon="-7.0588600">
        <ele>95.2</ele>
        <time>2021-07-23T08:36:21Z</time>
      </trkpt>
      <trkpt lat="43.5270980" lon="-7.0589100">
        <ele>95.6</ele>
        <time>2021-07-23T08:37:19Z</time>
      </trkpt>
      <trkpt lat="43.5270910" lon="-7.0589260">
        <ele>95.6</ele>
        <time>2021-07-23T08:37:20Z</time>
      </trkpt>
      <trkpt lat="43.5270630" lon="-7.0589550">
        <ele>95.6</ele>
        <time>2021-07-23T08:37:23Z</time>
      </trkpt>
      <trkpt lat="43.5270240" lon="-7.0589970">
        <ele>95.6</ele>
        <time>2021-07-23T08:37:27Z</time>
      </trkpt>
      <trkpt lat="43.5270140" lon="-7.0590100">
        <ele>96.0</ele>
        <time>2021-07-23T08:37:28Z</time>
      </trkpt>
      <trkpt lat="43.5270040" lon="-7.0590220">
        <ele>96.4</ele>
        <time>2021-07-23T08:37:29Z</time>
      </trkpt>
      <trkpt lat="43.5269940" lon="-7.0590330">
        <ele>96.8</ele>
        <time>2021-07-23T08:37:30Z</time>
      </trkpt>
      <trkpt lat="43.5269830" lon="-7.0590420">
        <ele>97.2</ele>
        <time>2021-07-23T08:37:31Z</time>
      </trkpt>
      <trkpt lat="43.5269720" lon="-7.0590490">
        <ele>97.6</ele>
        <time>2021-07-23T08:37:32Z</time>
      </trkpt>
      <trkpt lat="43.5269320" lon="-7.0590850">
        <ele>97.6</ele>
        <time>2021-07-23T08:37:36Z</time>
      </trkpt>
      <trkpt lat="43.5269000" lon="-7.0591130">
        <ele>98.0</ele>
        <time>2021-07-23T08:37:39Z</time>
      </trkpt>
      <trkpt lat="43.5268890" lon="-7.0591210">
        <ele>98.4</ele>
        <time>2021-07-23T08:37:40Z</time>
      </trkpt>
      <trkpt lat="43.5268780" lon="-7.0591300">
        <ele>98.8</ele>
        <time>2021-07-23T08:37:41Z</time>
      </trkpt>
      <trkpt lat="43.5268670" lon="-7.0591370">
        <ele>99.2</ele>
        <time>2021-07-23T08:37:42Z</time>
      </trkpt>
      <trkpt lat="43.5268570" lon="-7.0591440">
        <ele>99.6</ele>
        <time>2021-07-23T08:37:43Z</time>
      </trkpt>
      <trkpt lat="43.5268230" lon="-7.0591710">
        <ele>99.6</ele>
        <time>2021-07-23T08:37:46Z</time>
      </trkpt>
      <trkpt lat="43.5267580" lon="-7.0592370">
        <ele>100.0</ele>
        <time>2021-07-23T08:37:53Z</time>
      </trkpt>
      <trkpt lat="43.5267480" lon="-7.0592440">
        <ele>100.4</ele>
        <time>2021-07-23T08:37:54Z</time>
      </trkpt>
      <trkpt lat="43.5267360" lon="-7.0592530">
        <ele>100.8</ele>
        <time>2021-07-23T08:37:55Z</time>
      </trkpt>
      <trkpt lat="43.5267260" lon="-7.0592590">
        <ele>101.4</ele>
        <time>2021-07-23T08:37:56Z</time>
      </trkpt>
      <trkpt lat="43.5267170" lon="-7.0592640">
        <ele>101.8</ele>
        <time>2021-07-23T08:37:57Z</time>
      </trkpt>
      <trkpt lat="43.5266930" lon="-7.0592850">
        <ele>101.8</ele>
        <time>2021-07-23T08:38:00Z</time>
      </trkpt>
      <trkpt lat="43.5266110" lon="-7.0593580">
        <ele>101.8</ele>
        <time>2021-07-23T08:38:08Z</time>
      </trkpt>
      <trkpt lat="43.5266000" lon="-7.0593680">
        <ele>102.2</ele>
        <time>2021-07-23T08:38:09Z</time>
      </trkpt>
      <trkpt lat="43.5265890" lon="-7.0593780">
        <ele>102.6</ele>
        <time>2021-07-23T08:38:10Z</time>
      </trkpt>
      <trkpt lat="43.5265770" lon="-7.0593860">
        <ele>103.0</ele>
        <time>2021-07-23T08:38:11Z</time>
      </trkpt>
      <trkpt lat="43.5265650" lon="-7.0593950">
        <ele>103.4</ele>
        <time>2021-07-23T08:38:12Z</time>
      </trkpt>
      <trkpt lat="43.5265540" lon="-7.0594030">
        <ele>103.8</ele>
        <time>2021-07-23T08:38:13Z</time>
      </trkpt>
      <trkpt lat="43.5265100" lon="-7.0594430">
        <ele>103.8</ele>
        <time>2021-07-23T08:38:17Z</time>
      </trkpt>
      <trkpt lat="43.5264570" lon="-7.0594860">
        <ele>103.8</ele>
        <time>2021-07-23T08:38:22Z</time>
      </trkpt>
      <trkpt lat="43.5264270" lon="-7.0595130">
        <ele>103.8</ele>
        <time>2021-07-23T08:38:25Z</time>
      </trkpt>
      <trkpt lat="43.5264010" lon="-7.0595520">
        <ele>104.2</ele>
        <time>2021-07-23T08:38:28Z</time>
      </trkpt>
      <trkpt lat="43.5263900" lon="-7.0595690">
        <ele>104.6</ele>
        <time>2021-07-23T08:38:29Z</time>
      </trkpt>
      <trkpt lat="43.5263810" lon="-7.0595830">
        <ele>105.0</ele>
        <time>2021-07-23T08:38:30Z</time>
      </trkpt>
      <trkpt lat="43.5263730" lon="-7.0595960">
        <ele>105.4</ele>
        <time>2021-07-23T08:38:31Z</time>
      </trkpt>
      <trkpt lat="43.5263640" lon="-7.0596080">
        <ele>105.8</ele>
        <time>2021-07-23T08:38:32Z</time>
      </trkpt>
      <trkpt lat="43.5263370" lon="-7.0596410">
        <ele>105.8</ele>
        <time>2021-07-23T08:38:35Z</time>
      </trkpt>
      <trkpt lat="43.5263010" lon="-7.0596940">
        <ele>105.8</ele>
        <time>2021-07-23T08:38:40Z</time>
      </trkpt>
      <trkpt lat="43.5262560" lon="-7.0597650">
        <ele>108.0</ele>
        <time>2021-07-23T08:38:50Z</time>
      </trkpt>
      <trkpt lat="43.5262430" lon="-7.0597800">
        <ele>108.0</ele>
        <time>2021-07-23T08:38:51Z</time>
      </trkpt>
      <trkpt lat="43.5261980" lon="-7.0598300">
        <ele>108.0</ele>
        <time>2021-07-23T08:38:55Z</time>
      </trkpt>
      <trkpt lat="43.5261600" lon="-7.0598790">
        <ele>108.0</ele>
        <time>2021-07-23T08:38:58Z</time>
      </trkpt>
      <trkpt lat="43.5261080" lon="-7.0599370">
        <ele>108.4</ele>
        <time>2021-07-23T08:39:02Z</time>
      </trkpt>
      <trkpt lat="43.5260970" lon="-7.0599520">
        <ele>108.8</ele>
        <time>2021-07-23T08:39:03Z</time>
      </trkpt>
      <trkpt lat="43.5260840" lon="-7.0599660">
        <ele>109.2</ele>
        <time>2021-07-23T08:39:04Z</time>
      </trkpt>
      <trkpt lat="43.5260710" lon="-7.0599800">
        <ele>109.6</ele>
        <time>2021-07-23T08:39:05Z</time>
      </trkpt>
      <trkpt lat="43.5260580" lon="-7.0599950">
        <ele>110.0</ele>
        <time>2021-07-23T08:39:06Z</time>
      </trkpt>
      <trkpt lat="43.5259450" lon="-7.0601260">
        <ele>110.0</ele>
        <time>2021-07-23T08:39:15Z</time>
      </trkpt>
      <trkpt lat="43.5259120" lon="-7.0601580">
        <ele>110.4</ele>
        <time>2021-07-23T08:39:18Z</time>
      </trkpt>
      <trkpt lat="43.5259010" lon="-7.0601690">
        <ele>110.8</ele>
        <time>2021-07-23T08:39:19Z</time>
      </trkpt>
      <trkpt lat="43.5258900" lon="-7.0601810">
        <ele>111.2</ele>
        <time>2021-07-23T08:39:20Z</time>
      </trkpt>
      <trkpt lat="43.5258780" lon="-7.0601920">
        <ele>111.8</ele>
        <time>2021-07-23T08:39:21Z</time>
      </trkpt>
      <trkpt lat="43.5258650" lon="-7.0602000">
        <ele>112.2</ele>
        <time>2021-07-23T08:39:22Z</time>
      </trkpt>
      <trkpt lat="43.5258520" lon="-7.0602080">
        <ele>112.2</ele>
        <time>2021-07-23T08:39:23Z</time>
      </trkpt>
      <trkpt lat="43.5257800" lon="-7.0602880">
        <ele>112.6</ele>
        <time>2021-07-23T08:39:30Z</time>
      </trkpt>
      <trkpt lat="43.5257680" lon="-7.0602990">
        <ele>113.0</ele>
        <time>2021-07-23T08:39:31Z</time>
      </trkpt>
      <trkpt lat="43.5257550" lon="-7.0603140">
        <ele>113.4</ele>
        <time>2021-07-23T08:39:32Z</time>
      </trkpt>
      <trkpt lat="43.5257430" lon="-7.0603250">
        <ele>113.8</ele>
        <time>2021-07-23T08:39:33Z</time>
      </trkpt>
      <trkpt lat="43.5257310" lon="-7.0603360">
        <ele>114.2</ele>
        <time>2021-07-23T08:39:34Z</time>
      </trkpt>
      <trkpt lat="43.5256860" lon="-7.0603750">
        <ele>114.2</ele>
        <time>2021-07-23T08:39:38Z</time>
      </trkpt>
      <trkpt lat="43.5256260" lon="-7.0604320">
        <ele>114.6</ele>
        <time>2021-07-23T08:39:44Z</time>
      </trkpt>
      <trkpt lat="43.5256180" lon="-7.0604440">
        <ele>115.0</ele>
        <time>2021-07-23T08:39:45Z</time>
      </trkpt>
      <trkpt lat="43.5256090" lon="-7.0604550">
        <ele>115.4</ele>
        <time>2021-07-23T08:39:46Z</time>
      </trkpt>
      <trkpt lat="43.5256000" lon="-7.0604660">
        <ele>115.8</ele>
        <time>2021-07-23T08:39:47Z</time>
      </trkpt>
      <trkpt lat="43.5255910" lon="-7.0604780">
        <ele>116.4</ele>
        <time>2021-07-23T08:39:48Z</time>
      </trkpt>
      <trkpt lat="43.5255070" lon="-7.0605530">
        <ele>116.4</ele>
        <time>2021-07-23T08:39:55Z</time>
      </trkpt>
      <trkpt lat="43.5254530" lon="-7.0605960">
        <ele>116.8</ele>
        <time>2021-07-23T08:39:59Z</time>
      </trkpt>
      <trkpt lat="43.5254390" lon="-7.0606100">
        <ele>117.2</ele>
        <time>2021-07-23T08:40:00Z</time>
      </trkpt>
      <trkpt lat="43.5254240" lon="-7.0606240">
        <ele>117.6</ele>
        <time>2021-07-23T08:40:01Z</time>
      </trkpt>
      <trkpt lat="43.5254100" lon="-7.0606370">
        <ele>118.0</ele>
        <time>2021-07-23T08:40:02Z</time>
      </trkpt>
      <trkpt lat="43.5253990" lon="-7.0606510">
        <ele>118.4</ele>
        <time>2021-07-23T08:40:03Z</time>
      </trkpt>
      <trkpt lat="43.5253270" lon="-7.0607460">
        <ele>118.4</ele>
        <time>2021-07-23T08:40:10Z</time>
      </trkpt>
      <trkpt lat="43.5253040" lon="-7.0607680">
        <ele>118.8</ele>
        <time>2021-07-23T08:40:12Z</time>
      </trkpt>
      <trkpt lat="43.5252940" lon="-7.0607800">
        <ele>119.2</ele>
        <time>2021-07-23T08:40:13Z</time>
      </trkpt>
      <trkpt lat="43.5252810" lon="-7.0607960">
        <ele>119.6</ele>
        <time>2021-07-23T08:40:14Z</time>
      </trkpt>
      <trkpt lat="43.5252690" lon="-7.0608090">
        <ele>120.0</ele>
        <time>2021-07-23T08:40:15Z</time>
      </trkpt>
      <trkpt lat="43.5252560" lon="-7.0608250">
        <ele>120.4</ele>
        <time>2021-07-23T08:40:16Z</time>
      </trkpt>
      <trkpt lat="43.5251690" lon="-7.0609520">
        <ele>120.4</ele>
        <time>2021-07-23T08:40:24Z</time>
      </trkpt>
      <trkpt lat="43.5250960" lon="-7.0610600">
        <ele>120.4</ele>
        <time>2021-07-23T08:40:29Z</time>
      </trkpt>
      <trkpt lat="43.5250690" lon="-7.0611080">
        <ele>120.8</ele>
        <time>2021-07-23T08:40:31Z</time>
      </trkpt>
      <trkpt lat="43.5250580" lon="-7.0611340">
        <ele>121.2</ele>
        <time>2021-07-23T08:40:32Z</time>
      </trkpt>
      <trkpt lat="43.5250470" lon="-7.0611560">
        <ele>121.6</ele>
        <time>2021-07-23T08:40:33Z</time>
      </trkpt>
      <trkpt lat="43.5250350" lon="-7.0611760">
        <ele>122.0</ele>
        <time>2021-07-23T08:40:34Z</time>
      </trkpt>
      <trkpt lat="43.5250210" lon="-7.0611980">
        <ele>122.4</ele>
        <time>2021-07-23T08:40:35Z</time>
      </trkpt>
      <trkpt lat="43.5249770" lon="-7.0612660">
        <ele>122.4</ele>
        <time>2021-07-23T08:40:38Z</time>
      </trkpt>
      <trkpt lat="43.5249260" lon="-7.0613910">
        <ele>122.4</ele>
        <time>2021-07-23T08:40:43Z</time>
      </trkpt>
      <trkpt lat="43.5248290" lon="-7.0616920">
        <ele>122.4</ele>
        <time>2021-07-23T08:40:51Z</time>
      </trkpt>
      <trkpt lat="43.5247610" lon="-7.0619120">
        <ele>122.4</ele>
        <time>2021-07-23T08:40:57Z</time>
      </trkpt>
      <trkpt lat="43.5247470" lon="-7.0619450">
        <ele>122.8</ele>
        <time>2021-07-23T08:40:58Z</time>
      </trkpt>
      <trkpt lat="43.5247360" lon="-7.0619780">
        <ele>123.2</ele>
        <time>2021-07-23T08:40:59Z</time>
      </trkpt>
      <trkpt lat="43.5247280" lon="-7.0620090">
        <ele>123.6</ele>
        <time>2021-07-23T08:41:00Z</time>
      </trkpt>
      <trkpt lat="43.5247190" lon="-7.0620430">
        <ele>124.0</ele>
        <time>2021-07-23T08:41:01Z</time>
      </trkpt>
      <trkpt lat="43.5247120" lon="-7.0620740">
        <ele>124.4</ele>
        <time>2021-07-23T08:41:02Z</time>
      </trkpt>
      <trkpt lat="43.5247070" lon="-7.0621070">
        <ele>124.4</ele>
        <time>2021-07-23T08:41:03Z</time>
      </trkpt>
      <trkpt lat="43.5246520" lon="-7.0622980">
        <ele>124.4</ele>
        <time>2021-07-23T08:41:09Z</time>
      </trkpt>
      <trkpt lat="43.5245700" lon="-7.0625760">
        <ele>124.4</ele>
        <time>2021-07-23T08:41:16Z</time>
      </trkpt>
      <trkpt lat="43.5245400" lon="-7.0626550">
        <ele>124.8</ele>
        <time>2021-07-23T08:41:18Z</time>
      </trkpt>
      <trkpt lat="43.5245190" lon="-7.0626970">
        <ele>125.2</ele>
        <time>2021-07-23T08:41:19Z</time>
      </trkpt>
      <trkpt lat="43.5245010" lon="-7.0627380">
        <ele>125.6</ele>
        <time>2021-07-23T08:41:20Z</time>
      </trkpt>
      <trkpt lat="43.5244870" lon="-7.0627800">
        <ele>126.0</ele>
        <time>2021-07-23T08:41:21Z</time>
      </trkpt>
      <trkpt lat="43.5244730" lon="-7.0628170">
        <ele>126.4</ele>
        <time>2021-07-23T08:41:22Z</time>
      </trkpt>
      <trkpt lat="43.5243540" lon="-7.0630410">
        <ele>126.4</ele>
        <time>2021-07-23T08:41:29Z</time>
      </trkpt>
      <trkpt lat="43.5241940" lon="-7.0632280">
        <ele>126.4</ele>
        <time>2021-07-23T08:41:36Z</time>
      </trkpt>
      <trkpt lat="43.5241120" lon="-7.0633370">
        <ele>126.8</ele>
        <time>2021-07-23T08:41:41Z</time>
      </trkpt>
      <trkpt lat="43.5240980" lon="-7.0633550">
        <ele>127.2</ele>
        <time>2021-07-23T08:41:42Z</time>
      </trkpt>
      <trkpt lat="43.5240840" lon="-7.0633750">
        <ele>127.6</ele>
        <time>2021-07-23T08:41:43Z</time>
      </trkpt>
      <trkpt lat="43.5240710" lon="-7.0633920">
        <ele>128.0</ele>
        <time>2021-07-23T08:41:44Z</time>
      </trkpt>
      <trkpt lat="43.5240550" lon="-7.0634110">
        <ele>128.4</ele>
        <time>2021-07-23T08:41:45Z</time>
      </trkpt>
      <trkpt lat="43.5240050" lon="-7.0634770">
        <ele>129.0</ele>
        <time>2021-07-23T08:41:48Z</time>
      </trkpt>
      <trkpt lat="43.5239910" lon="-7.0635000">
        <ele>129.4</ele>
        <time>2021-07-23T08:41:49Z</time>
      </trkpt>
      <trkpt lat="43.5239730" lon="-7.0635230">
        <ele>129.8</ele>
        <time>2021-07-23T08:41:50Z</time>
      </trkpt>
      <trkpt lat="43.5239520" lon="-7.0635480">
        <ele>130.2</ele>
        <time>2021-07-23T08:41:51Z</time>
      </trkpt>
      <trkpt lat="43.5239350" lon="-7.0635690">
        <ele>130.8</ele>
        <time>2021-07-23T08:41:52Z</time>
      </trkpt>
      <trkpt lat="43.5238570" lon="-7.0636710">
        <ele>130.8</ele>
        <time>2021-07-23T08:41:57Z</time>
      </trkpt>
      <trkpt lat="43.5238440" lon="-7.0636930">
        <ele>130.8</ele>
        <time>2021-07-23T08:41:58Z</time>
      </trkpt>
      <trkpt lat="43.5237850" lon="-7.0637840">
        <ele>131.2</ele>
        <time>2021-07-23T08:42:02Z</time>
      </trkpt>
      <trkpt lat="43.5237720" lon="-7.0638060">
        <ele>131.6</ele>
        <time>2021-07-23T08:42:03Z</time>
      </trkpt>
      <trkpt lat="43.5237570" lon="-7.0638280">
        <ele>132.0</ele>
        <time>2021-07-23T08:42:04Z</time>
      </trkpt>
      <trkpt lat="43.5237420" lon="-7.0638520">
        <ele>132.4</ele>
        <time>2021-07-23T08:42:05Z</time>
      </trkpt>
      <trkpt lat="43.5237270" lon="-7.0638770">
        <ele>132.8</ele>
        <time>2021-07-23T08:42:06Z</time>
      </trkpt>
      <trkpt lat="43.5236100" lon="-7.0640410">
        <ele>132.8</ele>
        <time>2021-07-23T08:42:13Z</time>
      </trkpt>
      <trkpt lat="43.5235270" lon="-7.0641830">
        <ele>132.8</ele>
        <time>2021-07-23T08:42:19Z</time>
      </trkpt>
      <trkpt lat="43.5234490" lon="-7.0643080">
        <ele>133.2</ele>
        <time>2021-07-23T08:42:24Z</time>
      </trkpt>
      <trkpt lat="43.5234310" lon="-7.0643320">
        <ele>133.6</ele>
        <time>2021-07-23T08:42:25Z</time>
      </trkpt>
      <trkpt lat="43.5234170" lon="-7.0643530">
        <ele>134.0</ele>
        <time>2021-07-23T08:42:26Z</time>
      </trkpt>
      <trkpt lat="43.5234030" lon="-7.0643770">
        <ele>134.6</ele>
        <time>2021-07-23T08:42:27Z</time>
      </trkpt>
      <trkpt lat="43.5233890" lon="-7.0644000">
        <ele>135.0</ele>
        <time>2021-07-23T08:42:28Z</time>
      </trkpt>
      <trkpt lat="43.5232940" lon="-7.0645480">
        <ele>135.0</ele>
        <time>2021-07-23T08:42:34Z</time>
      </trkpt>
      <trkpt lat="43.5231880" lon="-7.0647180">
        <ele>135.0</ele>
        <time>2021-07-23T08:42:40Z</time>
      </trkpt>
      <trkpt lat="43.5230620" lon="-7.0649240">
        <ele>135.0</ele>
        <time>2021-07-23T08:42:47Z</time>
      </trkpt>
      <trkpt lat="43.5230440" lon="-7.0649490">
        <ele>135.4</ele>
        <time>2021-07-23T08:42:48Z</time>
      </trkpt>
      <trkpt lat="43.5230290" lon="-7.0649780">
        <ele>135.8</ele>
        <time>2021-07-23T08:42:49Z</time>
      </trkpt>
      <trkpt lat="43.5230160" lon="-7.0650040">
        <ele>136.2</ele>
        <time>2021-07-23T08:42:50Z</time>
      </trkpt>
      <trkpt lat="43.5230000" lon="-7.0650290">
        <ele>136.6</ele>
        <time>2021-07-23T08:42:51Z</time>
      </trkpt>
      <trkpt lat="43.5229880" lon="-7.0650530">
        <ele>137.0</ele>
        <time>2021-07-23T08:42:52Z</time>
      </trkpt>
      <trkpt lat="43.5229380" lon="-7.0651330">
        <ele>137.0</ele>
        <time>2021-07-23T08:42:56Z</time>
      </trkpt>
      <trkpt lat="43.5228780" lon="-7.0652170">
        <ele>137.6</ele>
        <time>2021-07-23T08:43:00Z</time>
      </trkpt>
      <trkpt lat="43.5228670" lon="-7.0652370">
        <ele>138.0</ele>
        <time>2021-07-23T08:43:01Z</time>
      </trkpt>
      <trkpt lat="43.5228550" lon="-7.0652540">
        <ele>138.4</ele>
        <time>2021-07-23T08:43:02Z</time>
      </trkpt>
      <trkpt lat="43.5228450" lon="-7.0652690">
        <ele>139.0</ele>
        <time>2021-07-23T08:43:03Z</time>
      </trkpt>
      <trkpt lat="43.5228340" lon="-7.0652840">
        <ele>139.4</ele>
        <time>2021-07-23T08:43:04Z</time>
      </trkpt>
      <trkpt lat="43.5227920" lon="-7.0653490">
        <ele>139.4</ele>
        <time>2021-07-23T08:43:08Z</time>
      </trkpt>
      <trkpt lat="43.5227670" lon="-7.0653950">
        <ele>139.4</ele>
        <time>2021-07-23T08:43:11Z</time>
      </trkpt>
      <trkpt lat="43.5226900" lon="-7.0654960">
        <ele>139.8</ele>
        <time>2021-07-23T08:43:17Z</time>
      </trkpt>
      <trkpt lat="43.5226750" lon="-7.0655190">
        <ele>140.4</ele>
        <time>2021-07-23T08:43:18Z</time>
      </trkpt>
      <trkpt lat="43.5226580" lon="-7.0655400">
        <ele>140.8</ele>
        <time>2021-07-23T08:43:19Z</time>
      </trkpt>
      <trkpt lat="43.5226400" lon="-7.0655560">
        <ele>141.2</ele>
        <time>2021-07-23T08:43:20Z</time>
      </trkpt>
      <trkpt lat="43.5226260" lon="-7.0655730">
        <ele>141.6</ele>
        <time>2021-07-23T08:43:21Z</time>
      </trkpt>
      <trkpt lat="43.5225840" lon="-7.0656620">
        <ele>141.6</ele>
        <time>2021-07-23T08:43:25Z</time>
      </trkpt>
      <trkpt lat="43.5224960" lon="-7.0658170">
        <ele>142.0</ele>
        <time>2021-07-23T08:43:32Z</time>
      </trkpt>
      <trkpt lat="43.5224780" lon="-7.0658450">
        <ele>142.4</ele>
        <time>2021-07-23T08:43:33Z</time>
      </trkpt>
      <trkpt lat="43.5224630" lon="-7.0658680">
        <ele>143.2</ele>
        <time>2021-07-23T08:43:34Z</time>
      </trkpt>
      <trkpt lat="43.5224500" lon="-7.0658950">
        <ele>143.6</ele>
        <time>2021-07-23T08:43:35Z</time>
      </trkpt>
      <trkpt lat="43.5223980" lon="-7.0660150">
        <ele>143.6</ele>
        <time>2021-07-23T08:43:39Z</time>
      </trkpt>
      <trkpt lat="43.5223300" lon="-7.0661850">
        <ele>143.6</ele>
        <time>2021-07-23T08:43:44Z</time>
      </trkpt>
      <trkpt lat="43.5222950" lon="-7.0662480">
        <ele>143.6</ele>
        <time>2021-07-23T08:43:46Z</time>
      </trkpt>
      <trkpt lat="43.5222050" lon="-7.0664520">
        <ele>143.6</ele>
        <time>2021-07-23T08:43:51Z</time>
      </trkpt>
      <trkpt lat="43.5221890" lon="-7.0664950">
        <ele>143.6</ele>
        <time>2021-07-23T08:43:52Z</time>
      </trkpt>
      <trkpt lat="43.5221450" lon="-7.0666250">
        <ele>143.6</ele>
        <time>2021-07-23T08:43:55Z</time>
      </trkpt>
      <trkpt lat="43.5220990" lon="-7.0667230">
        <ele>143.6</ele>
        <time>2021-07-23T08:43:57Z</time>
      </trkpt>
      <trkpt lat="43.5220960" lon="-7.0667740">
        <ele>143.6</ele>
        <time>2021-07-23T08:43:58Z</time>
      </trkpt>
      <trkpt lat="43.5221160" lon="-7.0670620">
        <ele>143.6</ele>
        <time>2021-07-23T08:44:03Z</time>
      </trkpt>
      <trkpt lat="43.5221340" lon="-7.0671940">
        <ele>143.6</ele>
        <time>2021-07-23T08:44:05Z</time>
      </trkpt>
      <trkpt lat="43.5221450" lon="-7.0672720">
        <ele>143.6</ele>
        <time>2021-07-23T08:44:06Z</time>
      </trkpt>
      <trkpt lat="43.5221520" lon="-7.0673730">
        <ele>143.2</ele>
        <time>2021-07-23T08:44:07Z</time>
      </trkpt>
      <trkpt lat="43.5221570" lon="-7.0674560">
        <ele>142.8</ele>
        <time>2021-07-23T08:44:08Z</time>
      </trkpt>
      <trkpt lat="43.5221660" lon="-7.0675210">
        <ele>142.4</ele>
        <time>2021-07-23T08:44:09Z</time>
      </trkpt>
      <trkpt lat="43.5221730" lon="-7.0675710">
        <ele>142.0</ele>
        <time>2021-07-23T08:44:10Z</time>
      </trkpt>
      <trkpt lat="43.5221850" lon="-7.0676060">
        <ele>141.6</ele>
        <time>2021-07-23T08:44:11Z</time>
      </trkpt>
      <trkpt lat="43.5221930" lon="-7.0676540">
        <ele>141.6</ele>
        <time>2021-07-23T08:44:13Z</time>
      </trkpt>
      <trkpt lat="43.5221890" lon="-7.0676610">
        <ele>141.6</ele>
        <time>2021-07-23T08:44:14Z</time>
      </trkpt>
      <trkpt lat="43.5221780" lon="-7.0677100">
        <ele>141.6</ele>
        <time>2021-07-23T08:44:23Z</time>
      </trkpt>
      <trkpt lat="43.5221690" lon="-7.0677560">
        <ele>141.6</ele>
        <time>2021-07-23T08:44:24Z</time>
      </trkpt>
      <trkpt lat="43.5221280" lon="-7.0678530">
        <ele>141.6</ele>
        <time>2021-07-23T08:44:27Z</time>
      </trkpt>
      <trkpt lat="43.5220860" lon="-7.0678940">
        <ele>141.6</ele>
        <time>2021-07-23T08:44:29Z</time>
      </trkpt>
      <trkpt lat="43.5220250" lon="-7.0679130">
        <ele>141.6</ele>
        <time>2021-07-23T08:44:32Z</time>
      </trkpt>
      <trkpt lat="43.5220070" lon="-7.0679130">
        <ele>141.6</ele>
        <time>2021-07-23T08:44:33Z</time>
      </trkpt>
      <trkpt lat="43.5219800" lon="-7.0679110">
        <ele>141.6</ele>
        <time>2021-07-23T08:44:35Z</time>
      </trkpt>
      <trkpt lat="43.5219710" lon="-7.0679120">
        <ele>141.6</ele>
        <time>2021-07-23T08:44:36Z</time>
      </trkpt>
      <trkpt lat="43.5219380" lon="-7.0678970">
        <ele>141.6</ele>
        <time>2021-07-23T09:07:57Z</time>
      </trkpt>
      <trkpt lat="43.5219230" lon="-7.0678990">
        <ele>141.6</ele>
        <time>2021-07-23T09:07:58Z</time>
      </trkpt>
      <trkpt lat="43.5218160" lon="-7.0678790">
        <ele>141.6</ele>
        <time>2021-07-23T09:08:03Z</time>
      </trkpt>
      <trkpt lat="43.5217170" lon="-7.0678530">
        <ele>142.0</ele>
        <time>2021-07-23T09:08:08Z</time>
      </trkpt>
      <trkpt lat="43.5217020" lon="-7.0678510">
        <ele>142.4</ele>
        <time>2021-07-23T09:08:09Z</time>
      </trkpt>
      <trkpt lat="43.5216830" lon="-7.0678490">
        <ele>142.8</ele>
        <time>2021-07-23T09:08:10Z</time>
      </trkpt>
      <trkpt lat="43.5216600" lon="-7.0678490">
        <ele>143.2</ele>
        <time>2021-07-23T09:08:11Z</time>
      </trkpt>
      <trkpt lat="43.5216270" lon="-7.0678500">
        <ele>143.8</ele>
        <time>2021-07-23T09:08:12Z</time>
      </trkpt>
      <trkpt lat="43.5215480" lon="-7.0678470">
        <ele>143.8</ele>
        <time>2021-07-23T09:08:15Z</time>
      </trkpt>
      <trkpt lat="43.5215240" lon="-7.0678520">
        <ele>143.8</ele>
        <time>2021-07-23T09:08:16Z</time>
      </trkpt>
      <trkpt lat="43.5214770" lon="-7.0678690">
        <ele>143.8</ele>
        <time>2021-07-23T09:08:18Z</time>
      </trkpt>
      <trkpt lat="43.5214550" lon="-7.0678780">
        <ele>144.2</ele>
        <time>2021-07-23T09:08:19Z</time>
      </trkpt>
      <trkpt lat="43.5214330" lon="-7.0678890">
        <ele>144.6</ele>
        <time>2021-07-23T09:08:20Z</time>
      </trkpt>
      <trkpt lat="43.5214150" lon="-7.0679040">
        <ele>145.0</ele>
        <time>2021-07-23T09:08:21Z</time>
      </trkpt>
      <trkpt lat="43.5213940" lon="-7.0679220">
        <ele>145.8</ele>
        <time>2021-07-23T09:08:22Z</time>
      </trkpt>
      <trkpt lat="43.5213580" lon="-7.0679550">
        <ele>145.8</ele>
        <time>2021-07-23T09:08:24Z</time>
      </trkpt>
      <trkpt lat="43.5212980" lon="-7.0680370">
        <ele>145.8</ele>
        <time>2021-07-23T09:08:28Z</time>
      </trkpt>
      <trkpt lat="43.5212800" lon="-7.0680630">
        <ele>146.2</ele>
        <time>2021-07-23T09:08:29Z</time>
      </trkpt>
      <trkpt lat="43.5212640" lon="-7.0680880">
        <ele>146.6</ele>
        <time>2021-07-23T09:08:30Z</time>
      </trkpt>
      <trkpt lat="43.5212480" lon="-7.0681120">
        <ele>147.2</ele>
        <time>2021-07-23T09:08:31Z</time>
      </trkpt>
      <trkpt lat="43.5212360" lon="-7.0681370">
        <ele>147.6</ele>
        <time>2021-07-23T09:08:32Z</time>
      </trkpt>
      <trkpt lat="43.5212250" lon="-7.0681650">
        <ele>148.0</ele>
        <time>2021-07-23T09:08:33Z</time>
      </trkpt>
      <trkpt lat="43.5211480" lon="-7.0682890">
        <ele>148.0</ele>
        <time>2021-07-23T09:08:38Z</time>
      </trkpt>
      <trkpt lat="43.5211090" lon="-7.0683770">
        <ele>148.4</ele>
        <time>2021-07-23T09:08:41Z</time>
      </trkpt>
      <trkpt lat="43.5210950" lon="-7.0684010">
        <ele>148.8</ele>
        <time>2021-07-23T09:08:42Z</time>
      </trkpt>
      <trkpt lat="43.5210790" lon="-7.0684270">
        <ele>149.2</ele>
        <time>2021-07-23T09:08:43Z</time>
      </trkpt>
      <trkpt lat="43.5210700" lon="-7.0684530">
        <ele>149.6</ele>
        <time>2021-07-23T09:08:44Z</time>
      </trkpt>
      <trkpt lat="43.5210580" lon="-7.0684810">
        <ele>150.0</ele>
        <time>2021-07-23T09:08:45Z</time>
      </trkpt>
      <trkpt lat="43.5210470" lon="-7.0685070">
        <ele>150.0</ele>
        <time>2021-07-23T09:08:46Z</time>
      </trkpt>
      <trkpt lat="43.5209470" lon="-7.0686900">
        <ele>150.0</ele>
        <time>2021-07-23T09:08:53Z</time>
      </trkpt>
      <trkpt lat="43.5209050" lon="-7.0687720">
        <ele>150.4</ele>
        <time>2021-07-23T09:08:56Z</time>
      </trkpt>
      <trkpt lat="43.5208900" lon="-7.0688000">
        <ele>150.8</ele>
        <time>2021-07-23T09:08:57Z</time>
      </trkpt>
      <trkpt lat="43.5208740" lon="-7.0688290">
        <ele>151.2</ele>
        <time>2021-07-23T09:08:58Z</time>
      </trkpt>
      <trkpt lat="43.5208560" lon="-7.0688590">
        <ele>151.6</ele>
        <time>2021-07-23T09:08:59Z</time>
      </trkpt>
      <trkpt lat="43.5208350" lon="-7.0688920">
        <ele>152.0</ele>
        <time>2021-07-23T09:09:00Z</time>
      </trkpt>
      <trkpt lat="43.5208170" lon="-7.0689340">
        <ele>152.0</ele>
        <time>2021-07-23T09:09:01Z</time>
      </trkpt>
      <trkpt lat="43.5206670" lon="-7.0692150">
        <ele>152.0</ele>
        <time>2021-07-23T09:09:08Z</time>
      </trkpt>
      <trkpt lat="43.5205530" lon="-7.0695210">
        <ele>152.0</ele>
        <time>2021-07-23T09:09:14Z</time>
      </trkpt>
      <trkpt lat="43.5204840" lon="-7.0697960">
        <ele>152.0</ele>
        <time>2021-07-23T09:09:19Z</time>
      </trkpt>
      <trkpt lat="43.5204600" lon="-7.0698890">
        <ele>152.0</ele>
        <time>2021-07-23T09:09:21Z</time>
      </trkpt>
      <trkpt lat="43.5204000" lon="-7.0701510">
        <ele>152.0</ele>
        <time>2021-07-23T09:09:27Z</time>
      </trkpt>
      <trkpt lat="43.5203840" lon="-7.0701970">
        <ele>152.0</ele>
        <time>2021-07-23T09:09:28Z</time>
      </trkpt>
      <trkpt lat="43.5203000" lon="-7.0703940">
        <ele>152.0</ele>
        <time>2021-07-23T09:09:33Z</time>
      </trkpt>
      <trkpt lat="43.5202580" lon="-7.0704640">
        <ele>152.0</ele>
        <time>2021-07-23T09:09:35Z</time>
      </trkpt>
      <trkpt lat="43.5201050" lon="-7.0705960">
        <ele>152.0</ele>
        <time>2021-07-23T09:09:41Z</time>
      </trkpt>
      <trkpt lat="43.5199480" lon="-7.0707020">
        <ele>152.0</ele>
        <time>2021-07-23T09:09:48Z</time>
      </trkpt>
      <trkpt lat="43.5199280" lon="-7.0707170">
        <ele>152.4</ele>
        <time>2021-07-23T09:09:49Z</time>
      </trkpt>
      <trkpt lat="43.5199020" lon="-7.0707280">
        <ele>152.8</ele>
        <time>2021-07-23T09:09:50Z</time>
      </trkpt>
      <trkpt lat="43.5198800" lon="-7.0707420">
        <ele>153.2</ele>
        <time>2021-07-23T09:09:51Z</time>
      </trkpt>
      <trkpt lat="43.5198580" lon="-7.0707550">
        <ele>153.6</ele>
        <time>2021-07-23T09:09:52Z</time>
      </trkpt>
      <trkpt lat="43.5198380" lon="-7.0707700">
        <ele>154.0</ele>
        <time>2021-07-23T09:09:53Z</time>
      </trkpt>
      <trkpt lat="43.5197950" lon="-7.0707890">
        <ele>154.0</ele>
        <time>2021-07-23T09:09:55Z</time>
      </trkpt>
      <trkpt lat="43.5196940" lon="-7.0708320">
        <ele>154.0</ele>
        <time>2021-07-23T09:10:00Z</time>
      </trkpt>
      <trkpt lat="43.5196740" lon="-7.0708420">
        <ele>154.4</ele>
        <time>2021-07-23T09:10:01Z</time>
      </trkpt>
      <trkpt lat="43.5196520" lon="-7.0708530">
        <ele>155.0</ele>
        <time>2021-07-23T09:10:02Z</time>
      </trkpt>
      <trkpt lat="43.5196310" lon="-7.0708640">
        <ele>155.4</ele>
        <time>2021-07-23T09:10:03Z</time>
      </trkpt>
      <trkpt lat="43.5196140" lon="-7.0708770">
        <ele>155.8</ele>
        <time>2021-07-23T09:10:04Z</time>
      </trkpt>
      <trkpt lat="43.5195960" lon="-7.0708930">
        <ele>156.2</ele>
        <time>2021-07-23T09:10:05Z</time>
      </trkpt>
      <trkpt lat="43.5194650" lon="-7.0709820">
        <ele>156.2</ele>
        <time>2021-07-23T09:10:12Z</time>
      </trkpt>
      <trkpt lat="43.5194020" lon="-7.0710120">
        <ele>156.6</ele>
        <time>2021-07-23T09:10:15Z</time>
      </trkpt>
      <trkpt lat="43.5193850" lon="-7.0710260">
        <ele>157.0</ele>
        <time>2021-07-23T09:10:16Z</time>
      </trkpt>
      <trkpt lat="43.5193670" lon="-7.0710390">
        <ele>157.4</ele>
        <time>2021-07-23T09:10:17Z</time>
      </trkpt>
      <trkpt lat="43.5193460" lon="-7.0710550">
        <ele>158.0</ele>
        <time>2021-07-23T09:10:18Z</time>
      </trkpt>
      <trkpt lat="43.5193280" lon="-7.0710710">
        <ele>158.4</ele>
        <time>2021-07-23T09:10:19Z</time>
      </trkpt>
      <trkpt lat="43.5191530" lon="-7.0712160">
        <ele>158.4</ele>
        <time>2021-07-23T09:10:27Z</time>
      </trkpt>
      <trkpt lat="43.5190970" lon="-7.0712820">
        <ele>158.8</ele>
        <time>2021-07-23T09:10:30Z</time>
      </trkpt>
      <trkpt lat="43.5190750" lon="-7.0713040">
        <ele>159.2</ele>
        <time>2021-07-23T09:10:31Z</time>
      </trkpt>
      <trkpt lat="43.5190590" lon="-7.0713200">
        <ele>159.6</ele>
        <time>2021-07-23T09:10:32Z</time>
      </trkpt>
      <trkpt lat="43.5190400" lon="-7.0713390">
        <ele>160.0</ele>
        <time>2021-07-23T09:10:33Z</time>
      </trkpt>
      <trkpt lat="43.5190170" lon="-7.0713620">
        <ele>160.4</ele>
        <time>2021-07-23T09:10:34Z</time>
      </trkpt>
      <trkpt lat="43.5189960" lon="-7.0713800">
        <ele>160.4</ele>
        <time>2021-07-23T09:10:35Z</time>
      </trkpt>
      <trkpt lat="43.5188740" lon="-7.0715070">
        <ele>160.4</ele>
        <time>2021-07-23T09:10:41Z</time>
      </trkpt>
      <trkpt lat="43.5186910" lon="-7.0716800">
        <ele>160.4</ele>
        <time>2021-07-23T09:10:49Z</time>
      </trkpt>
      <trkpt lat="43.5185120" lon="-7.0718500">
        <ele>160.4</ele>
        <time>2021-07-23T09:10:56Z</time>
      </trkpt>
      <trkpt lat="43.5184350" lon="-7.0719620">
        <ele>160.4</ele>
        <time>2021-07-23T09:11:00Z</time>
      </trkpt>
      <trkpt lat="43.5183900" lon="-7.0720240">
        <ele>160.8</ele>
        <time>2021-07-23T09:11:02Z</time>
      </trkpt>
      <trkpt lat="43.5183720" lon="-7.0720520">
        <ele>161.2</ele>
        <time>2021-07-23T09:11:03Z</time>
      </trkpt>
      <trkpt lat="43.5183520" lon="-7.0720850">
        <ele>161.6</ele>
        <time>2021-07-23T09:11:04Z</time>
      </trkpt>
      <trkpt lat="43.5183330" lon="-7.0721150">
        <ele>162.2</ele>
        <time>2021-07-23T09:11:05Z</time>
      </trkpt>
      <trkpt lat="43.5183140" lon="-7.0721440">
        <ele>162.6</ele>
        <time>2021-07-23T09:11:06Z</time>
      </trkpt>
      <trkpt lat="43.5182270" lon="-7.0722580">
        <ele>162.6</ele>
        <time>2021-07-23T09:11:10Z</time>
      </trkpt>
      <trkpt lat="43.5181540" lon="-7.0723380">
        <ele>162.6</ele>
        <time>2021-07-23T09:11:13Z</time>
      </trkpt>
      <trkpt lat="43.5179340" lon="-7.0726590">
        <ele>162.6</ele>
        <time>2021-07-23T09:11:22Z</time>
      </trkpt>
      <trkpt lat="43.5177420" lon="-7.0729680">
        <ele>162.6</ele>
        <time>2021-07-23T09:11:30Z</time>
      </trkpt>
      <trkpt lat="43.5175100" lon="-7.0732630">
        <ele>162.6</ele>
        <time>2021-07-23T09:11:38Z</time>
      </trkpt>
      <trkpt lat="43.5172800" lon="-7.0734950">
        <ele>162.6</ele>
        <time>2021-07-23T09:11:45Z</time>
      </trkpt>
      <trkpt lat="43.5172170" lon="-7.0735570">
        <ele>162.6</ele>
        <time>2021-07-23T09:11:47Z</time>
      </trkpt>
      <trkpt lat="43.5170930" lon="-7.0736830">
        <ele>162.6</ele>
        <time>2021-07-23T09:11:51Z</time>
      </trkpt>
      <trkpt lat="43.5169810" lon="-7.0737950">
        <ele>162.6</ele>
        <time>2021-07-23T09:11:55Z</time>
      </trkpt>
      <trkpt lat="43.5169250" lon="-7.0738450">
        <ele>162.6</ele>
        <time>2021-07-23T09:11:57Z</time>
      </trkpt>
      <trkpt lat="43.5168710" lon="-7.0739000">
        <ele>162.6</ele>
        <time>2021-07-23T09:11:59Z</time>
      </trkpt>
      <trkpt lat="43.5167390" lon="-7.0741280">
        <ele>162.6</ele>
        <time>2021-07-23T09:12:05Z</time>
      </trkpt>
      <trkpt lat="43.5165980" lon="-7.0742990">
        <ele>162.6</ele>
        <time>2021-07-23T09:12:10Z</time>
      </trkpt>
      <trkpt lat="43.5165580" lon="-7.0744960">
        <ele>162.6</ele>
        <time>2021-07-23T09:12:14Z</time>
      </trkpt>
      <trkpt lat="43.5165380" lon="-7.0746900">
        <ele>162.6</ele>
        <time>2021-07-23T09:12:18Z</time>
      </trkpt>
      <trkpt lat="43.5165160" lon="-7.0748340">
        <ele>162.6</ele>
        <time>2021-07-23T09:12:21Z</time>
      </trkpt>
      <trkpt lat="43.5165070" lon="-7.0748810">
        <ele>162.6</ele>
        <time>2021-07-23T09:12:22Z</time>
      </trkpt>
      <trkpt lat="43.5164380" lon="-7.0752880">
        <ele>162.6</ele>
        <time>2021-07-23T09:12:31Z</time>
      </trkpt>
      <trkpt lat="43.5163920" lon="-7.0755070">
        <ele>163.0</ele>
        <time>2021-07-23T09:12:36Z</time>
      </trkpt>
      <trkpt lat="43.5163820" lon="-7.0755480">
        <ele>163.4</ele>
        <time>2021-07-23T09:12:37Z</time>
      </trkpt>
      <trkpt lat="43.5163700" lon="-7.0755870">
        <ele>163.8</ele>
        <time>2021-07-23T09:12:38Z</time>
      </trkpt>
      <trkpt lat="43.5163570" lon="-7.0756260">
        <ele>164.2</ele>
        <time>2021-07-23T09:12:39Z</time>
      </trkpt>
      <trkpt lat="43.5163450" lon="-7.0756650">
        <ele>164.6</ele>
        <time>2021-07-23T09:12:40Z</time>
      </trkpt>
      <trkpt lat="43.5163020" lon="-7.0758710">
        <ele>164.6</ele>
        <time>2021-07-23T09:12:45Z</time>
      </trkpt>
      <trkpt lat="43.5162340" lon="-7.0761600">
        <ele>164.6</ele>
        <time>2021-07-23T09:12:52Z</time>
      </trkpt>
      <trkpt lat="43.5161680" lon="-7.0764110">
        <ele>164.6</ele>
        <time>2021-07-23T09:12:58Z</time>
      </trkpt>
      <trkpt lat="43.5161150" lon="-7.0766510">
        <ele>164.6</ele>
        <time>2021-07-23T09:13:03Z</time>
      </trkpt>
      <trkpt lat="43.5160980" lon="-7.0767470">
        <ele>164.6</ele>
        <time>2021-07-23T09:13:05Z</time>
      </trkpt>
      <trkpt lat="43.5160790" lon="-7.0768450">
        <ele>164.6</ele>
        <time>2021-07-23T09:13:07Z</time>
      </trkpt>
      <trkpt lat="43.5160670" lon="-7.0769400">
        <ele>164.6</ele>
        <time>2021-07-23T09:13:09Z</time>
      </trkpt>
      <trkpt lat="43.5160530" lon="-7.0770410">
        <ele>164.6</ele>
        <time>2021-07-23T09:13:11Z</time>
      </trkpt>
      <trkpt lat="43.5160410" lon="-7.0770920">
        <ele>164.6</ele>
        <time>2021-07-23T09:13:12Z</time>
      </trkpt>
      <trkpt lat="43.5160170" lon="-7.0771890">
        <ele>164.2</ele>
        <time>2021-07-23T09:13:14Z</time>
      </trkpt>
      <trkpt lat="43.5160080" lon="-7.0772380">
        <ele>163.8</ele>
        <time>2021-07-23T09:13:15Z</time>
      </trkpt>
      <trkpt lat="43.5159990" lon="-7.0772900">
        <ele>163.4</ele>
        <time>2021-07-23T09:13:16Z</time>
      </trkpt>
      <trkpt lat="43.5159880" lon="-7.0773420">
        <ele>163.0</ele>
        <time>2021-07-23T09:13:17Z</time>
      </trkpt>
      <trkpt lat="43.5159770" lon="-7.0773950">
        <ele>162.6</ele>
        <time>2021-07-23T09:13:18Z</time>
      </trkpt>
      <trkpt lat="43.5158880" lon="-7.0777940">
        <ele>162.2</ele>
        <time>2021-07-23T09:13:25Z</time>
      </trkpt>
      <trkpt lat="43.5158780" lon="-7.0778530">
        <ele>161.8</ele>
        <time>2021-07-23T09:13:26Z</time>
      </trkpt>
      <trkpt lat="43.5158670" lon="-7.0779070">
        <ele>161.4</ele>
        <time>2021-07-23T09:13:27Z</time>
      </trkpt>
      <trkpt lat="43.5158570" lon="-7.0779600">
        <ele>160.8</ele>
        <time>2021-07-23T09:13:28Z</time>
      </trkpt>
      <trkpt lat="43.5158460" lon="-7.0780140">
        <ele>160.4</ele>
        <time>2021-07-23T09:13:29Z</time>
      </trkpt>
      <trkpt lat="43.5158330" lon="-7.0780690">
        <ele>160.4</ele>
        <time>2021-07-23T09:13:30Z</time>
      </trkpt>
      <trkpt lat="43.5158110" lon="-7.0781750">
        <ele>160.4</ele>
        <time>2021-07-23T09:13:32Z</time>
      </trkpt>
      <trkpt lat="43.5157690" lon="-7.0784180">
        <ele>160.0</ele>
        <time>2021-07-23T09:13:37Z</time>
      </trkpt>
      <trkpt lat="43.5157670" lon="-7.0784540">
        <ele>159.6</ele>
        <time>2021-07-23T09:13:38Z</time>
      </trkpt>
      <trkpt lat="43.5157650" lon="-7.0784890">
        <ele>159.2</ele>
        <time>2021-07-23T09:13:39Z</time>
      </trkpt>
      <trkpt lat="43.5157630" lon="-7.0785280">
        <ele>158.8</ele>
        <time>2021-07-23T09:13:40Z</time>
      </trkpt>
      <trkpt lat="43.5157630" lon="-7.0785750">
        <ele>158.2</ele>
        <time>2021-07-23T09:13:41Z</time>
      </trkpt>
      <trkpt lat="43.5157620" lon="-7.0786780">
        <ele>157.8</ele>
        <time>2021-07-23T09:13:43Z</time>
      </trkpt>
      <trkpt lat="43.5157560" lon="-7.0787200">
        <ele>157.4</ele>
        <time>2021-07-23T09:13:44Z</time>
      </trkpt>
      <trkpt lat="43.5157470" lon="-7.0787570">
        <ele>157.0</ele>
        <time>2021-07-23T09:13:45Z</time>
      </trkpt>
      <trkpt lat="43.5157410" lon="-7.0787940">
        <ele>156.6</ele>
        <time>2021-07-23T09:13:46Z</time>
      </trkpt>
      <trkpt lat="43.5157360" lon="-7.0788490">
        <ele>156.2</ele>
        <time>2021-07-23T09:13:47Z</time>
      </trkpt>
      <trkpt lat="43.5157340" lon="-7.0789140">
        <ele>156.2</ele>
        <time>2021-07-23T09:13:48Z</time>
      </trkpt>
      <trkpt lat="43.5157380" lon="-7.0790560">
        <ele>156.2</ele>
        <time>2021-07-23T09:13:50Z</time>
      </trkpt>
      <trkpt lat="43.5157410" lon="-7.0791180">
        <ele>155.8</ele>
        <time>2021-07-23T09:13:51Z</time>
      </trkpt>
      <trkpt lat="43.5157440" lon="-7.0791820">
        <ele>155.2</ele>
        <time>2021-07-23T09:13:52Z</time>
      </trkpt>
      <trkpt lat="43.5157460" lon="-7.0792490">
        <ele>154.8</ele>
        <time>2021-07-23T09:13:53Z</time>
      </trkpt>
      <trkpt lat="43.5157520" lon="-7.0793180">
        <ele>154.4</ele>
        <time>2021-07-23T09:13:54Z</time>
      </trkpt>
      <trkpt lat="43.5157610" lon="-7.0793890">
        <ele>154.0</ele>
        <time>2021-07-23T09:13:55Z</time>
      </trkpt>
      <trkpt lat="43.5157740" lon="-7.0794630">
        <ele>153.4</ele>
        <time>2021-07-23T09:13:56Z</time>
      </trkpt>
      <trkpt lat="43.5157880" lon="-7.0795390">
        <ele>153.0</ele>
        <time>2021-07-23T09:13:57Z</time>
      </trkpt>
      <trkpt lat="43.5158020" lon="-7.0796060">
        <ele>152.4</ele>
        <time>2021-07-23T09:13:58Z</time>
      </trkpt>
      <trkpt lat="43.5158150" lon="-7.0796670">
        <ele>151.8</ele>
        <time>2021-07-23T09:13:59Z</time>
      </trkpt>
      <trkpt lat="43.5158270" lon="-7.0797220">
        <ele>151.0</ele>
        <time>2021-07-23T09:14:00Z</time>
      </trkpt>
      <trkpt lat="43.5158380" lon="-7.0797710">
        <ele>150.4</ele>
        <time>2021-07-23T09:14:01Z</time>
      </trkpt>
      <trkpt lat="43.5158500" lon="-7.0798130">
        <ele>150.0</ele>
        <time>2021-07-23T09:14:02Z</time>
      </trkpt>
      <trkpt lat="43.5158640" lon="-7.0798550">
        <ele>149.4</ele>
        <time>2021-07-23T09:14:03Z</time>
      </trkpt>
      <trkpt lat="43.5158790" lon="-7.0799010">
        <ele>148.8</ele>
        <time>2021-07-23T09:14:04Z</time>
      </trkpt>
      <trkpt lat="43.5158930" lon="-7.0799470">
        <ele>148.2</ele>
        <time>2021-07-23T09:14:05Z</time>
      </trkpt>
      <trkpt lat="43.5159040" lon="-7.0799950">
        <ele>147.8</ele>
        <time>2021-07-23T09:14:06Z</time>
      </trkpt>
      <trkpt lat="43.5159100" lon="-7.0800410">
        <ele>146.8</ele>
        <time>2021-07-23T09:14:07Z</time>
      </trkpt>
      <trkpt lat="43.5159110" lon="-7.0800810">
        <ele>146.4</ele>
        <time>2021-07-23T09:14:08Z</time>
      </trkpt>
      <trkpt lat="43.5159050" lon="-7.0801140">
        <ele>146.0</ele>
        <time>2021-07-23T09:14:09Z</time>
      </trkpt>
      <trkpt lat="43.5158930" lon="-7.0801440">
        <ele>145.6</ele>
        <time>2021-07-23T09:14:10Z</time>
      </trkpt>
      <trkpt lat="43.5158640" lon="-7.0802010">
        <ele>145.6</ele>
        <time>2021-07-23T09:14:12Z</time>
      </trkpt>
      <trkpt lat="43.5158210" lon="-7.0802400">
        <ele>145.6</ele>
        <time>2021-07-23T09:14:14Z</time>
      </trkpt>
      <trkpt lat="43.5157630" lon="-7.0802780">
        <ele>145.6</ele>
        <time>2021-07-23T09:14:16Z</time>
      </trkpt>
      <trkpt lat="43.5157040" lon="-7.0803020">
        <ele>145.6</ele>
        <time>2021-07-23T09:14:18Z</time>
      </trkpt>
      <trkpt lat="43.5156770" lon="-7.0803080">
        <ele>145.6</ele>
        <time>2021-07-23T09:14:19Z</time>
      </trkpt>
      <trkpt lat="43.5156180" lon="-7.0803070">
        <ele>145.6</ele>
        <time>2021-07-23T09:14:21Z</time>
      </trkpt>
      <trkpt lat="43.5155850" lon="-7.0803080">
        <ele>145.6</ele>
        <time>2021-07-23T09:14:22Z</time>
      </trkpt>
      <trkpt lat="43.5154870" lon="-7.0803140">
        <ele>145.6</ele>
        <time>2021-07-23T09:14:25Z</time>
      </trkpt>
      <trkpt lat="43.5153910" lon="-7.0803210">
        <ele>145.6</ele>
        <time>2021-07-23T09:14:28Z</time>
      </trkpt>
      <trkpt lat="43.5153380" lon="-7.0803340">
        <ele>146.0</ele>
        <time>2021-07-23T09:14:30Z</time>
      </trkpt>
      <trkpt lat="43.5153200" lon="-7.0803430">
        <ele>146.8</ele>
        <time>2021-07-23T09:14:31Z</time>
      </trkpt>
      <trkpt lat="43.5152990" lon="-7.0803530">
        <ele>147.2</ele>
        <time>2021-07-23T09:14:32Z</time>
      </trkpt>
      <trkpt lat="43.5152760" lon="-7.0803640">
        <ele>147.6</ele>
        <time>2021-07-23T09:14:33Z</time>
      </trkpt>
      <trkpt lat="43.5152320" lon="-7.0803840">
        <ele>147.6</ele>
        <time>2021-07-23T09:14:35Z</time>
      </trkpt>
      <trkpt lat="43.5151330" lon="-7.0804400">
        <ele>147.6</ele>
        <time>2021-07-23T09:14:39Z</time>
      </trkpt>
      <trkpt lat="43.5150770" lon="-7.0804970">
        <ele>147.6</ele>
        <time>2021-07-23T09:14:42Z</time>
      </trkpt>
      <trkpt lat="43.5150490" lon="-7.0805340">
        <ele>147.6</ele>
        <time>2021-07-23T09:14:44Z</time>
      </trkpt>
      <trkpt lat="43.5150390" lon="-7.0805460">
        <ele>147.6</ele>
        <time>2021-07-23T09:14:45Z</time>
      </trkpt>
      <trkpt lat="43.5150470" lon="-7.0805970">
        <ele>147.6</ele>
        <time>2021-07-23T09:14:49Z</time>
      </trkpt>
      <trkpt lat="43.5150600" lon="-7.0805950">
        <ele>147.6</ele>
        <time>2021-07-23T09:14:50Z</time>
      </trkpt>
      <trkpt lat="43.5150750" lon="-7.0805930">
        <ele>148.0</ele>
        <time>2021-07-23T09:14:51Z</time>
      </trkpt>
      <trkpt lat="43.5150900" lon="-7.0805900">
        <ele>148.4</ele>
        <time>2021-07-23T09:14:52Z</time>
      </trkpt>
      <trkpt lat="43.5151030" lon="-7.0805800">
        <ele>148.8</ele>
        <time>2021-07-23T09:14:53Z</time>
      </trkpt>
      <trkpt lat="43.5151160" lon="-7.0805780">
        <ele>149.2</ele>
        <time>2021-07-23T09:14:54Z</time>
      </trkpt>
      <trkpt lat="43.5151290" lon="-7.0805780">
        <ele>149.6</ele>
        <time>2021-07-23T09:14:55Z</time>
      </trkpt>
      <trkpt lat="43.5152300" lon="-7.0805720">
        <ele>149.6</ele>
        <time>2021-07-23T09:15:01Z</time>
      </trkpt>
      <trkpt lat="43.5153060" lon="-7.0805650">
        <ele>150.0</ele>
        <time>2021-07-23T09:15:04Z</time>
      </trkpt>
      <trkpt lat="43.5153310" lon="-7.0805610">
        <ele>150.4</ele>
        <time>2021-07-23T09:15:05Z</time>
      </trkpt>
      <trkpt lat="43.5153510" lon="-7.0805580">
        <ele>150.8</ele>
        <time>2021-07-23T09:15:06Z</time>
      </trkpt>
      <trkpt lat="43.5153710" lon="-7.0805520">
        <ele>151.2</ele>
        <time>2021-07-23T09:15:07Z</time>
      </trkpt>
      <trkpt lat="43.5153950" lon="-7.0805450">
        <ele>151.6</ele>
        <time>2021-07-23T09:15:08Z</time>
      </trkpt>
      <trkpt lat="43.5154570" lon="-7.0805470">
        <ele>151.6</ele>
        <time>2021-07-23T09:15:11Z</time>
      </trkpt>
      <trkpt lat="43.5155500" lon="-7.0805660">
        <ele>152.0</ele>
        <time>2021-07-23T09:15:15Z</time>
      </trkpt>
      <trkpt lat="43.5155720" lon="-7.0805730">
        <ele>152.6</ele>
        <time>2021-07-23T09:15:16Z</time>
      </trkpt>
      <trkpt lat="43.5155900" lon="-7.0805860">
        <ele>153.0</ele>
        <time>2021-07-23T09:15:17Z</time>
      </trkpt>
      <trkpt lat="43.5156120" lon="-7.0806030">
        <ele>153.4</ele>
        <time>2021-07-23T09:15:18Z</time>
      </trkpt>
      <trkpt lat="43.5156280" lon="-7.0806190">
        <ele>153.8</ele>
        <time>2021-07-23T09:15:19Z</time>
      </trkpt>
      <trkpt lat="43.5156350" lon="-7.0806340">
        <ele>153.8</ele>
        <time>2021-07-23T09:15:20Z</time>
      </trkpt>
      <trkpt lat="43.5156590" lon="-7.0807060">
        <ele>153.8</ele>
        <time>2021-07-23T09:15:24Z</time>
      </trkpt>
      <trkpt lat="43.5156480" lon="-7.0807470">
        <ele>153.8</ele>
        <time>2021-07-23T09:15:26Z</time>
      </trkpt>
      <trkpt lat="43.5155780" lon="-7.0808280">
        <ele>153.8</ele>
        <time>2021-07-23T09:15:31Z</time>
      </trkpt>
      <trkpt lat="43.5155580" lon="-7.0808460">
        <ele>153.8</ele>
        <time>2021-07-23T09:15:32Z</time>
      </trkpt>
      <trkpt lat="43.5155130" lon="-7.0808750">
        <ele>154.2</ele>
        <time>2021-07-23T09:15:35Z</time>
      </trkpt>
      <trkpt lat="43.5154960" lon="-7.0808840">
        <ele>154.6</ele>
        <time>2021-07-23T09:15:36Z</time>
      </trkpt>
      <trkpt lat="43.5154770" lon="-7.0808940">
        <ele>155.0</ele>
        <time>2021-07-23T09:15:37Z</time>
      </trkpt>
      <trkpt lat="43.5154570" lon="-7.0809030">
        <ele>155.4</ele>
        <time>2021-07-23T09:15:38Z</time>
      </trkpt>
      <trkpt lat="43.5154360" lon="-7.0809100">
        <ele>156.0</ele>
        <time>2021-07-23T09:15:39Z</time>
      </trkpt>
      <trkpt lat="43.5153380" lon="-7.0809790">
        <ele>156.0</ele>
        <time>2021-07-23T09:15:44Z</time>
      </trkpt>
      <trkpt lat="43.5152660" lon="-7.0810480">
        <ele>156.4</ele>
        <time>2021-07-23T09:15:48Z</time>
      </trkpt>
      <trkpt lat="43.5152460" lon="-7.0810660">
        <ele>156.8</ele>
        <time>2021-07-23T09:15:49Z</time>
      </trkpt>
      <trkpt lat="43.5152310" lon="-7.0810770">
        <ele>157.2</ele>
        <time>2021-07-23T09:15:50Z</time>
      </trkpt>
      <trkpt lat="43.5152190" lon="-7.0810870">
        <ele>157.6</ele>
        <time>2021-07-23T09:15:51Z</time>
      </trkpt>
      <trkpt lat="43.5152080" lon="-7.0810970">
        <ele>158.0</ele>
        <time>2021-07-23T09:15:52Z</time>
      </trkpt>
      <trkpt lat="43.5151620" lon="-7.0811380">
        <ele>158.0</ele>
        <time>2021-07-23T09:15:55Z</time>
      </trkpt>
      <trkpt lat="43.5150590" lon="-7.0812550">
        <ele>158.4</ele>
        <time>2021-07-23T09:16:02Z</time>
      </trkpt>
      <trkpt lat="43.5150460" lon="-7.0812720">
        <ele>158.8</ele>
        <time>2021-07-23T09:16:03Z</time>
      </trkpt>
      <trkpt lat="43.5150350" lon="-7.0812900">
        <ele>159.2</ele>
        <time>2021-07-23T09:16:04Z</time>
      </trkpt>
      <trkpt lat="43.5150250" lon="-7.0813100">
        <ele>159.6</ele>
        <time>2021-07-23T09:16:05Z</time>
      </trkpt>
      <trkpt lat="43.5150140" lon="-7.0813290">
        <ele>160.2</ele>
        <time>2021-07-23T09:16:06Z</time>
      </trkpt>
      <trkpt lat="43.5149440" lon="-7.0814390">
        <ele>160.2</ele>
        <time>2021-07-23T09:16:12Z</time>
      </trkpt>
      <trkpt lat="43.5148740" lon="-7.0815230">
        <ele>160.6</ele>
        <time>2021-07-23T09:16:16Z</time>
      </trkpt>
      <trkpt lat="43.5148580" lon="-7.0815420">
        <ele>161.0</ele>
        <time>2021-07-23T09:16:17Z</time>
      </trkpt>
      <trkpt lat="43.5148420" lon="-7.0815600">
        <ele>161.4</ele>
        <time>2021-07-23T09:16:18Z</time>
      </trkpt>
      <trkpt lat="43.5148280" lon="-7.0815780">
        <ele>161.8</ele>
        <time>2021-07-23T09:16:19Z</time>
      </trkpt>
      <trkpt lat="43.5148160" lon="-7.0815980">
        <ele>162.2</ele>
        <time>2021-07-23T09:16:20Z</time>
      </trkpt>
      <trkpt lat="43.5147400" lon="-7.0817450">
        <ele>162.2</ele>
        <time>2021-07-23T09:16:27Z</time>
      </trkpt>
      <trkpt lat="43.5146860" lon="-7.0818330">
        <ele>162.6</ele>
        <time>2021-07-23T09:16:31Z</time>
      </trkpt>
      <trkpt lat="43.5146700" lon="-7.0818570">
        <ele>163.0</ele>
        <time>2021-07-23T09:16:32Z</time>
      </trkpt>
      <trkpt lat="43.5146580" lon="-7.0818810">
        <ele>163.8</ele>
        <time>2021-07-23T09:16:33Z</time>
      </trkpt>
      <trkpt lat="43.5146470" lon="-7.0819060">
        <ele>164.4</ele>
        <time>2021-07-23T09:16:34Z</time>
      </trkpt>
      <trkpt lat="43.5145620" lon="-7.0821120">
        <ele>164.4</ele>
        <time>2021-07-23T09:16:42Z</time>
      </trkpt>
      <trkpt lat="43.5145070" lon="-7.0822580">
        <ele>164.8</ele>
        <time>2021-07-23T09:16:47Z</time>
      </trkpt>
      <trkpt lat="43.5145020" lon="-7.0822830">
        <ele>165.2</ele>
        <time>2021-07-23T09:16:48Z</time>
      </trkpt>
      <trkpt lat="43.5144950" lon="-7.0823120">
        <ele>165.6</ele>
        <time>2021-07-23T09:16:49Z</time>
      </trkpt>
      <trkpt lat="43.5144870" lon="-7.0823430">
        <ele>166.0</ele>
        <time>2021-07-23T09:16:50Z</time>
      </trkpt>
      <trkpt lat="43.5144800" lon="-7.0823720">
        <ele>166.4</ele>
        <time>2021-07-23T09:16:51Z</time>
      </trkpt>
      <trkpt lat="43.5144350" lon="-7.0825920">
        <ele>166.4</ele>
        <time>2021-07-23T09:16:58Z</time>
      </trkpt>
      <trkpt lat="43.5143850" lon="-7.0828220">
        <ele>166.4</ele>
        <time>2021-07-23T09:17:05Z</time>
      </trkpt>
      <trkpt lat="43.5143680" lon="-7.0830630">
        <ele>166.8</ele>
        <time>2021-07-23T09:17:12Z</time>
      </trkpt>
      <trkpt lat="43.5143600" lon="-7.0831020">
        <ele>167.2</ele>
        <time>2021-07-23T09:17:13Z</time>
      </trkpt>
      <trkpt lat="43.5143530" lon="-7.0831390">
        <ele>167.6</ele>
        <time>2021-07-23T09:17:14Z</time>
      </trkpt>
      <trkpt lat="43.5143470" lon="-7.0831750">
        <ele>168.0</ele>
        <time>2021-07-23T09:17:15Z</time>
      </trkpt>
      <trkpt lat="43.5143440" lon="-7.0832130">
        <ele>168.4</ele>
        <time>2021-07-23T09:17:16Z</time>
      </trkpt>
      <trkpt lat="43.5143390" lon="-7.0832850">
        <ele>168.4</ele>
        <time>2021-07-23T09:17:18Z</time>
      </trkpt>
      <trkpt lat="43.5143310" lon="-7.0834100">
        <ele>168.4</ele>
        <time>2021-07-23T09:17:21Z</time>
      </trkpt>
      <trkpt lat="43.5143240" lon="-7.0834890">
        <ele>168.4</ele>
        <time>2021-07-23T09:17:23Z</time>
      </trkpt>
      <trkpt lat="43.5143160" lon="-7.0835750">
        <ele>168.4</ele>
        <time>2021-07-23T09:17:25Z</time>
      </trkpt>
      <trkpt lat="43.5142980" lon="-7.0837760">
        <ele>168.4</ele>
        <time>2021-07-23T09:17:29Z</time>
      </trkpt>
      <trkpt lat="43.5142930" lon="-7.0838290">
        <ele>168.4</ele>
        <time>2021-07-23T09:17:30Z</time>
      </trkpt>
      <trkpt lat="43.5142860" lon="-7.0839240">
        <ele>168.4</ele>
        <time>2021-07-23T09:17:32Z</time>
      </trkpt>
      <trkpt lat="43.5142790" lon="-7.0840450">
        <ele>168.4</ele>
        <time>2021-07-23T09:17:34Z</time>
      </trkpt>
      <trkpt lat="43.5142680" lon="-7.0841770">
        <ele>168.4</ele>
        <time>2021-07-23T09:17:36Z</time>
      </trkpt>
      <trkpt lat="43.5142620" lon="-7.0842480">
        <ele>168.4</ele>
        <time>2021-07-23T09:17:37Z</time>
      </trkpt>
      <trkpt lat="43.5142220" lon="-7.0845820">
        <ele>168.4</ele>
        <time>2021-07-23T09:17:41Z</time>
      </trkpt>
      <trkpt lat="43.5141600" lon="-7.0848920">
        <ele>168.4</ele>
        <time>2021-07-23T09:17:45Z</time>
      </trkpt>
      <trkpt lat="43.5140850" lon="-7.0851490">
        <ele>168.4</ele>
        <time>2021-07-23T09:17:50Z</time>
      </trkpt>
      <trkpt lat="43.5140510" lon="-7.0852240">
        <ele>168.4</ele>
        <time>2021-07-23T09:17:52Z</time>
      </trkpt>
      <trkpt lat="43.5140330" lon="-7.0852610">
        <ele>168.4</ele>
        <time>2021-07-23T09:17:53Z</time>
      </trkpt>
      <trkpt lat="43.5139920" lon="-7.0853320">
        <ele>168.4</ele>
        <time>2021-07-23T09:17:55Z</time>
      </trkpt>
      <trkpt lat="43.5139730" lon="-7.0853670">
        <ele>168.4</ele>
        <time>2021-07-23T09:17:56Z</time>
      </trkpt>
      <trkpt lat="43.5139180" lon="-7.0854690">
        <ele>168.4</ele>
        <time>2021-07-23T09:17:59Z</time>
      </trkpt>
      <trkpt lat="43.5138830" lon="-7.0855270">
        <ele>168.4</ele>
        <time>2021-07-23T09:18:01Z</time>
      </trkpt>
      <trkpt lat="43.5138640" lon="-7.0855550">
        <ele>168.4</ele>
        <time>2021-07-23T09:18:02Z</time>
      </trkpt>
      <trkpt lat="43.5138260" lon="-7.0856140">
        <ele>168.8</ele>
        <time>2021-07-23T09:18:04Z</time>
      </trkpt>
      <trkpt lat="43.5138080" lon="-7.0856420">
        <ele>169.4</ele>
        <time>2021-07-23T09:18:05Z</time>
      </trkpt>
      <trkpt lat="43.5137910" lon="-7.0856720">
        <ele>169.8</ele>
        <time>2021-07-23T09:18:06Z</time>
      </trkpt>
      <trkpt lat="43.5137740" lon="-7.0857020">
        <ele>170.2</ele>
        <time>2021-07-23T09:18:07Z</time>
      </trkpt>
      <trkpt lat="43.5137580" lon="-7.0857300">
        <ele>170.6</ele>
        <time>2021-07-23T09:18:08Z</time>
      </trkpt>
      <trkpt lat="43.5137430" lon="-7.0857560">
        <ele>170.6</ele>
        <time>2021-07-23T09:18:09Z</time>
      </trkpt>
      <trkpt lat="43.5136860" lon="-7.0858670">
        <ele>170.6</ele>
        <time>2021-07-23T09:18:13Z</time>
      </trkpt>
      <trkpt lat="43.5136420" lon="-7.0859480">
        <ele>170.6</ele>
        <time>2021-07-23T09:18:16Z</time>
      </trkpt>
      <trkpt lat="43.5135840" lon="-7.0860400">
        <ele>170.6</ele>
        <time>2021-07-23T09:18:20Z</time>
      </trkpt>
      <trkpt lat="43.5135580" lon="-7.0860840">
        <ele>170.6</ele>
        <time>2021-07-23T09:18:22Z</time>
      </trkpt>
      <trkpt lat="43.5135460" lon="-7.0861100">
        <ele>171.0</ele>
        <time>2021-07-23T09:18:23Z</time>
      </trkpt>
      <trkpt lat="43.5135380" lon="-7.0861350">
        <ele>171.4</ele>
        <time>2021-07-23T09:18:24Z</time>
      </trkpt>
      <trkpt lat="43.5135260" lon="-7.0861660">
        <ele>172.0</ele>
        <time>2021-07-23T09:18:25Z</time>
      </trkpt>
      <trkpt lat="43.5135120" lon="-7.0861940">
        <ele>172.4</ele>
        <time>2021-07-23T09:18:26Z</time>
      </trkpt>
      <trkpt lat="43.5134960" lon="-7.0862230">
        <ele>172.8</ele>
        <time>2021-07-23T09:18:27Z</time>
      </trkpt>
      <trkpt lat="43.5134100" lon="-7.0864040">
        <ele>172.8</ele>
        <time>2021-07-23T09:18:33Z</time>
      </trkpt>
      <trkpt lat="43.5133360" lon="-7.0866230">
        <ele>172.8</ele>
        <time>2021-07-23T09:18:39Z</time>
      </trkpt>
      <trkpt lat="43.5132370" lon="-7.0869080">
        <ele>172.8</ele>
        <time>2021-07-23T09:18:45Z</time>
      </trkpt>
      <trkpt lat="43.5131880" lon="-7.0870540">
        <ele>172.8</ele>
        <time>2021-07-23T09:18:48Z</time>
      </trkpt>
      <trkpt lat="43.5131250" lon="-7.0872520">
        <ele>172.8</ele>
        <time>2021-07-23T09:18:52Z</time>
      </trkpt>
      <trkpt lat="43.5131110" lon="-7.0872990">
        <ele>172.8</ele>
        <time>2021-07-23T09:18:53Z</time>
      </trkpt>
      <trkpt lat="43.5130820" lon="-7.0874030">
        <ele>172.8</ele>
        <time>2021-07-23T09:18:55Z</time>
      </trkpt>
      <trkpt lat="43.5130570" lon="-7.0875040">
        <ele>172.8</ele>
        <time>2021-07-23T09:18:57Z</time>
      </trkpt>
      <trkpt lat="43.5130450" lon="-7.0875570">
        <ele>172.8</ele>
        <time>2021-07-23T09:18:58Z</time>
      </trkpt>
      <trkpt lat="43.5130310" lon="-7.0876100">
        <ele>172.8</ele>
        <time>2021-07-23T09:18:59Z</time>
      </trkpt>
      <trkpt lat="43.5130150" lon="-7.0876630">
        <ele>172.8</ele>
        <time>2021-07-23T09:19:00Z</time>
      </trkpt>
      <trkpt lat="43.5130020" lon="-7.0877190">
        <ele>172.8</ele>
        <time>2021-07-23T09:19:01Z</time>
      </trkpt>
      <trkpt lat="43.5129700" lon="-7.0878360">
        <ele>172.8</ele>
        <time>2021-07-23T09:19:03Z</time>
      </trkpt>
      <trkpt lat="43.5129070" lon="-7.0881840">
        <ele>172.8</ele>
        <time>2021-07-23T09:19:08Z</time>
      </trkpt>
      <trkpt lat="43.5128760" lon="-7.0883450">
        <ele>172.4</ele>
        <time>2021-07-23T09:19:10Z</time>
      </trkpt>
      <trkpt lat="43.5128600" lon="-7.0884280">
        <ele>172.0</ele>
        <time>2021-07-23T09:19:11Z</time>
      </trkpt>
      <trkpt lat="43.5128440" lon="-7.0885130">
        <ele>171.6</ele>
        <time>2021-07-23T09:19:12Z</time>
      </trkpt>
      <trkpt lat="43.5128260" lon="-7.0886040">
        <ele>171.2</ele>
        <time>2021-07-23T09:19:13Z</time>
      </trkpt>
      <trkpt lat="43.5128060" lon="-7.0886960">
        <ele>170.6</ele>
        <time>2021-07-23T09:19:14Z</time>
      </trkpt>
      <trkpt lat="43.5127870" lon="-7.0887920">
        <ele>170.6</ele>
        <time>2021-07-23T09:19:15Z</time>
      </trkpt>
      <trkpt lat="43.5127290" lon="-7.0890980">
        <ele>170.2</ele>
        <time>2021-07-23T09:19:18Z</time>
      </trkpt>
      <trkpt lat="43.5127090" lon="-7.0892040">
        <ele>169.8</ele>
        <time>2021-07-23T09:19:19Z</time>
      </trkpt>
      <trkpt lat="43.5126880" lon="-7.0893110">
        <ele>169.4</ele>
        <time>2021-07-23T09:19:20Z</time>
      </trkpt>
      <trkpt lat="43.5126660" lon="-7.0894220">
        <ele>168.8</ele>
        <time>2021-07-23T09:19:21Z</time>
      </trkpt>
      <trkpt lat="43.5126430" lon="-7.0895330">
        <ele>168.2</ele>
        <time>2021-07-23T09:19:22Z</time>
      </trkpt>
      <trkpt lat="43.5126190" lon="-7.0896480">
        <ele>167.6</ele>
        <time>2021-07-23T09:19:23Z</time>
      </trkpt>
      <trkpt lat="43.5125960" lon="-7.0897650">
        <ele>167.0</ele>
        <time>2021-07-23T09:19:24Z</time>
      </trkpt>
      <trkpt lat="43.5125720" lon="-7.0898890">
        <ele>166.2</ele>
        <time>2021-07-23T09:19:25Z</time>
      </trkpt>
      <trkpt lat="43.5125490" lon="-7.0900090">
        <ele>165.8</ele>
        <time>2021-07-23T09:19:26Z</time>
      </trkpt>
      <trkpt lat="43.5125240" lon="-7.0901290">
        <ele>165.2</ele>
        <time>2021-07-23T09:19:27Z</time>
      </trkpt>
      <trkpt lat="43.5125000" lon="-7.0902540">
        <ele>164.8</ele>
        <time>2021-07-23T09:19:28Z</time>
      </trkpt>
      <trkpt lat="43.5124750" lon="-7.0903840">
        <ele>164.4</ele>
        <time>2021-07-23T09:19:29Z</time>
      </trkpt>
      <trkpt lat="43.5124480" lon="-7.0905150">
        <ele>163.8</ele>
        <time>2021-07-23T09:19:30Z</time>
      </trkpt>
      <trkpt lat="43.5123450" lon="-7.0910390">
        <ele>163.2</ele>
        <time>2021-07-23T09:19:34Z</time>
      </trkpt>
      <trkpt lat="43.5123190" lon="-7.0911710">
        <ele>162.6</ele>
        <time>2021-07-23T09:19:35Z</time>
      </trkpt>
      <trkpt lat="43.5122930" lon="-7.0913020">
        <ele>161.8</ele>
        <time>2021-07-23T09:19:36Z</time>
      </trkpt>
      <trkpt lat="43.5122690" lon="-7.0914330">
        <ele>160.8</ele>
        <time>2021-07-23T09:19:37Z</time>
      </trkpt>
      <trkpt lat="43.5122450" lon="-7.0915650">
        <ele>160.0</ele>
        <time>2021-07-23T09:19:38Z</time>
      </trkpt>
      <trkpt lat="43.5122200" lon="-7.0916980">
        <ele>159.2</ele>
        <time>2021-07-23T09:19:39Z</time>
      </trkpt>
      <trkpt lat="43.5121920" lon="-7.0918400">
        <ele>158.2</ele>
        <time>2021-07-23T09:19:40Z</time>
      </trkpt>
      <trkpt lat="43.5121640" lon="-7.0919760">
        <ele>157.4</ele>
        <time>2021-07-23T09:19:41Z</time>
      </trkpt>
      <trkpt lat="43.5121330" lon="-7.0921090">
        <ele>156.4</ele>
        <time>2021-07-23T09:19:42Z</time>
      </trkpt>
      <trkpt lat="43.5120920" lon="-7.0922380">
        <ele>155.6</ele>
        <time>2021-07-23T09:19:43Z</time>
      </trkpt>
      <trkpt lat="43.5120470" lon="-7.0923600">
        <ele>155.6</ele>
        <time>2021-07-23T09:19:44Z</time>
      </trkpt>
      <trkpt lat="43.5119960" lon="-7.0924760">
        <ele>155.0</ele>
        <time>2021-07-23T09:19:45Z</time>
      </trkpt>
      <trkpt lat="43.5119470" lon="-7.0925860">
        <ele>154.6</ele>
        <time>2021-07-23T09:19:46Z</time>
      </trkpt>
      <trkpt lat="43.5119000" lon="-7.0926900">
        <ele>154.0</ele>
        <time>2021-07-23T09:19:47Z</time>
      </trkpt>
      <trkpt lat="43.5118500" lon="-7.0927910">
        <ele>153.6</ele>
        <time>2021-07-23T09:19:48Z</time>
      </trkpt>
      <trkpt lat="43.5118020" lon="-7.0928820">
        <ele>154.0</ele>
        <time>2021-07-23T09:19:49Z</time>
      </trkpt>
      <trkpt lat="43.5117560" lon="-7.0929690">
        <ele>154.2</ele>
        <time>2021-07-23T09:19:50Z</time>
      </trkpt>
      <trkpt lat="43.5117120" lon="-7.0930560">
        <ele>155.0</ele>
        <time>2021-07-23T09:19:51Z</time>
      </trkpt>
      <trkpt lat="43.5116660" lon="-7.0931440">
        <ele>155.2</ele>
        <time>2021-07-23T09:19:52Z</time>
      </trkpt>
      <trkpt lat="43.5116180" lon="-7.0932280">
        <ele>154.8</ele>
        <time>2021-07-23T09:19:53Z</time>
      </trkpt>
      <trkpt lat="43.5115710" lon="-7.0933120">
        <ele>154.4</ele>
        <time>2021-07-23T09:19:54Z</time>
      </trkpt>
      <trkpt lat="43.5115220" lon="-7.0933960">
        <ele>154.0</ele>
        <time>2021-07-23T09:19:55Z</time>
      </trkpt>
      <trkpt lat="43.5114720" lon="-7.0934820">
        <ele>153.6</ele>
        <time>2021-07-23T09:19:56Z</time>
      </trkpt>
      <trkpt lat="43.5114270" lon="-7.0935650">
        <ele>153.2</ele>
        <time>2021-07-23T09:19:57Z</time>
      </trkpt>
      <trkpt lat="43.5113820" lon="-7.0936480">
        <ele>152.8</ele>
        <time>2021-07-23T09:19:58Z</time>
      </trkpt>
      <trkpt lat="43.5113350" lon="-7.0937290">
        <ele>152.2</ele>
        <time>2021-07-23T09:19:59Z</time>
      </trkpt>
      <trkpt lat="43.5112870" lon="-7.0938090">
        <ele>151.8</ele>
        <time>2021-07-23T09:20:00Z</time>
      </trkpt>
      <trkpt lat="43.5112410" lon="-7.0938890">
        <ele>151.4</ele>
        <time>2021-07-23T09:20:01Z</time>
      </trkpt>
      <trkpt lat="43.5111930" lon="-7.0939710">
        <ele>150.8</ele>
        <time>2021-07-23T09:20:02Z</time>
      </trkpt>
      <trkpt lat="43.5111430" lon="-7.0940570">
        <ele>150.2</ele>
        <time>2021-07-23T09:20:03Z</time>
      </trkpt>
      <trkpt lat="43.5110960" lon="-7.0941410">
        <ele>149.6</ele>
        <time>2021-07-23T09:20:04Z</time>
      </trkpt>
      <trkpt lat="43.5110480" lon="-7.0942240">
        <ele>149.0</ele>
        <time>2021-07-23T09:20:05Z</time>
      </trkpt>
      <trkpt lat="43.5110010" lon="-7.0943050">
        <ele>148.4</ele>
        <time>2021-07-23T09:20:06Z</time>
      </trkpt>
      <trkpt lat="43.5109550" lon="-7.0943870">
        <ele>147.6</ele>
        <time>2021-07-23T09:20:07Z</time>
      </trkpt>
      <trkpt lat="43.5109120" lon="-7.0944710">
        <ele>147.0</ele>
        <time>2021-07-23T09:20:08Z</time>
      </trkpt>
      <trkpt lat="43.5108680" lon="-7.0945560">
        <ele>146.2</ele>
        <time>2021-07-23T09:20:09Z</time>
      </trkpt>
      <trkpt lat="43.5108210" lon="-7.0946420">
        <ele>145.6</ele>
        <time>2021-07-23T09:20:10Z</time>
      </trkpt>
      <trkpt lat="43.5107740" lon="-7.0947310">
        <ele>145.0</ele>
        <time>2021-07-23T09:20:11Z</time>
      </trkpt>
      <trkpt lat="43.5107280" lon="-7.0948230">
        <ele>144.4</ele>
        <time>2021-07-23T09:20:12Z</time>
      </trkpt>
      <trkpt lat="43.5106850" lon="-7.0949170">
        <ele>143.8</ele>
        <time>2021-07-23T09:20:13Z</time>
      </trkpt>
      <trkpt lat="43.5106440" lon="-7.0950080">
        <ele>143.2</ele>
        <time>2021-07-23T09:20:14Z</time>
      </trkpt>
      <trkpt lat="43.5105270" lon="-7.0952910">
        <ele>142.8</ele>
        <time>2021-07-23T09:20:17Z</time>
      </trkpt>
      <trkpt lat="43.5104900" lon="-7.0953870">
        <ele>142.4</ele>
        <time>2021-07-23T09:20:18Z</time>
      </trkpt>
      <trkpt lat="43.5104530" lon="-7.0954830">
        <ele>142.0</ele>
        <time>2021-07-23T09:20:19Z</time>
      </trkpt>
      <trkpt lat="43.5104180" lon="-7.0955800">
        <ele>141.4</ele>
        <time>2021-07-23T09:20:20Z</time>
      </trkpt>
      <trkpt lat="43.5103860" lon="-7.0956760">
        <ele>140.8</ele>
        <time>2021-07-23T09:20:21Z</time>
      </trkpt>
      <trkpt lat="43.5103550" lon="-7.0957680">
        <ele>140.0</ele>
        <time>2021-07-23T09:20:22Z</time>
      </trkpt>
      <trkpt lat="43.5103290" lon="-7.0958530">
        <ele>139.2</ele>
        <time>2021-07-23T09:20:23Z</time>
      </trkpt>
      <trkpt lat="43.5103040" lon="-7.0959350">
        <ele>138.2</ele>
        <time>2021-07-23T09:20:24Z</time>
      </trkpt>
      <trkpt lat="43.5102810" lon="-7.0960110">
        <ele>137.0</ele>
        <time>2021-07-23T09:20:25Z</time>
      </trkpt>
      <trkpt lat="43.5102610" lon="-7.0960860">
        <ele>136.0</ele>
        <time>2021-07-23T09:20:26Z</time>
      </trkpt>
      <trkpt lat="43.5102430" lon="-7.0961610">
        <ele>135.0</ele>
        <time>2021-07-23T09:20:27Z</time>
      </trkpt>
      <trkpt lat="43.5102310" lon="-7.0962340">
        <ele>134.0</ele>
        <time>2021-07-23T09:20:28Z</time>
      </trkpt>
      <trkpt lat="43.5102200" lon="-7.0963090">
        <ele>133.0</ele>
        <time>2021-07-23T09:20:29Z</time>
      </trkpt>
      <trkpt lat="43.5102160" lon="-7.0963940">
        <ele>132.2</ele>
        <time>2021-07-23T09:20:30Z</time>
      </trkpt>
      <trkpt lat="43.5102160" lon="-7.0964790">
        <ele>131.4</ele>
        <time>2021-07-23T09:20:31Z</time>
      </trkpt>
      <trkpt lat="43.5102160" lon="-7.0965690">
        <ele>130.4</ele>
        <time>2021-07-23T09:20:32Z</time>
      </trkpt>
      <trkpt lat="43.5102160" lon="-7.0966540">
        <ele>129.6</ele>
        <time>2021-07-23T09:20:33Z</time>
      </trkpt>
      <trkpt lat="43.5102140" lon="-7.0969080">
        <ele>129.6</ele>
        <time>2021-07-23T09:20:36Z</time>
      </trkpt>
      <trkpt lat="43.5102070" lon="-7.0969930">
        <ele>129.2</ele>
        <time>2021-07-23T09:20:37Z</time>
      </trkpt>
      <trkpt lat="43.5102030" lon="-7.0970810">
        <ele>128.8</ele>
        <time>2021-07-23T09:20:38Z</time>
      </trkpt>
      <trkpt lat="43.5101990" lon="-7.0971710">
        <ele>127.8</ele>
        <time>2021-07-23T09:20:39Z</time>
      </trkpt>
      <trkpt lat="43.5101920" lon="-7.0972600">
        <ele>127.4</ele>
        <time>2021-07-23T09:20:40Z</time>
      </trkpt>
      <trkpt lat="43.5101750" lon="-7.0974480">
        <ele>127.4</ele>
        <time>2021-07-23T09:20:42Z</time>
      </trkpt>
      <trkpt lat="43.5101610" lon="-7.0975340">
        <ele>127.0</ele>
        <time>2021-07-23T09:20:43Z</time>
      </trkpt>
      <trkpt lat="43.5101470" lon="-7.0976190">
        <ele>126.6</ele>
        <time>2021-07-23T09:20:44Z</time>
      </trkpt>
      <trkpt lat="43.5101330" lon="-7.0977060">
        <ele>126.2</ele>
        <time>2021-07-23T09:20:45Z</time>
      </trkpt>
      <trkpt lat="43.5101190" lon="-7.0977930">
        <ele>125.6</ele>
        <time>2021-07-23T09:20:46Z</time>
      </trkpt>
      <trkpt lat="43.5101040" lon="-7.0978820">
        <ele>124.8</ele>
        <time>2021-07-23T09:20:47Z</time>
      </trkpt>
      <trkpt lat="43.5100870" lon="-7.0979730">
        <ele>124.2</ele>
        <time>2021-07-23T09:20:48Z</time>
      </trkpt>
      <trkpt lat="43.5100700" lon="-7.0980660">
        <ele>123.6</ele>
        <time>2021-07-23T09:20:49Z</time>
      </trkpt>
      <trkpt lat="43.5100530" lon="-7.0981690">
        <ele>123.0</ele>
        <time>2021-07-23T09:20:50Z</time>
      </trkpt>
      <trkpt lat="43.5100370" lon="-7.0982680">
        <ele>122.6</ele>
        <time>2021-07-23T09:20:51Z</time>
      </trkpt>
      <trkpt lat="43.5100220" lon="-7.0983710">
        <ele>122.2</ele>
        <time>2021-07-23T09:20:52Z</time>
      </trkpt>
      <trkpt lat="43.5100080" lon="-7.0984770">
        <ele>121.8</ele>
        <time>2021-07-23T09:20:53Z</time>
      </trkpt>
      <trkpt lat="43.5099920" lon="-7.0985770">
        <ele>121.2</ele>
        <time>2021-07-23T09:20:54Z</time>
      </trkpt>
      <trkpt lat="43.5099760" lon="-7.0986770">
        <ele>120.6</ele>
        <time>2021-07-23T09:20:55Z</time>
      </trkpt>
      <trkpt lat="43.5099600" lon="-7.0987720">
        <ele>120.0</ele>
        <time>2021-07-23T09:20:56Z</time>
      </trkpt>
      <trkpt lat="43.5099440" lon="-7.0988670">
        <ele>119.4</ele>
        <time>2021-07-23T09:20:57Z</time>
      </trkpt>
      <trkpt lat="43.5099230" lon="-7.0989490">
        <ele>118.8</ele>
        <time>2021-07-23T09:20:58Z</time>
      </trkpt>
      <trkpt lat="43.5098960" lon="-7.0990360">
        <ele>118.0</ele>
        <time>2021-07-23T09:20:59Z</time>
      </trkpt>
      <trkpt lat="43.5098630" lon="-7.0991200">
        <ele>117.4</ele>
        <time>2021-07-23T09:21:00Z</time>
      </trkpt>
      <trkpt lat="43.5098280" lon="-7.0991990">
        <ele>116.8</ele>
        <time>2021-07-23T09:21:01Z</time>
      </trkpt>
      <trkpt lat="43.5097930" lon="-7.0992750">
        <ele>116.2</ele>
        <time>2021-07-23T09:21:02Z</time>
      </trkpt>
      <trkpt lat="43.5096920" lon="-7.0994680">
        <ele>115.8</ele>
        <time>2021-07-23T09:21:05Z</time>
      </trkpt>
      <trkpt lat="43.5096630" lon="-7.0995220">
        <ele>115.2</ele>
        <time>2021-07-23T09:21:06Z</time>
      </trkpt>
      <trkpt lat="43.5096340" lon="-7.0995730">
        <ele>114.8</ele>
        <time>2021-07-23T09:21:07Z</time>
      </trkpt>
      <trkpt lat="43.5096030" lon="-7.0996190">
        <ele>114.4</ele>
        <time>2021-07-23T09:21:08Z</time>
      </trkpt>
      <trkpt lat="43.5095690" lon="-7.0996590">
        <ele>113.8</ele>
        <time>2021-07-23T09:21:09Z</time>
      </trkpt>
      <trkpt lat="43.5095040" lon="-7.0997280">
        <ele>113.8</ele>
        <time>2021-07-23T09:21:11Z</time>
      </trkpt>
      <trkpt lat="43.5094710" lon="-7.0997530">
        <ele>113.8</ele>
        <time>2021-07-23T09:21:12Z</time>
      </trkpt>
      <trkpt lat="43.5094100" lon="-7.0997850">
        <ele>113.8</ele>
        <time>2021-07-23T09:21:14Z</time>
      </trkpt>
      <trkpt lat="43.5093800" lon="-7.0997950">
        <ele>113.8</ele>
        <time>2021-07-23T09:21:15Z</time>
      </trkpt>
      <trkpt lat="43.5093160" lon="-7.0997900">
        <ele>113.8</ele>
        <time>2021-07-23T09:21:17Z</time>
      </trkpt>
      <trkpt lat="43.5092470" lon="-7.0997580">
        <ele>113.8</ele>
        <time>2021-07-23T09:21:19Z</time>
      </trkpt>
      <trkpt lat="43.5091450" lon="-7.0996820">
        <ele>113.8</ele>
        <time>2021-07-23T09:21:22Z</time>
      </trkpt>
      <trkpt lat="43.5090710" lon="-7.0996140">
        <ele>113.8</ele>
        <time>2021-07-23T09:21:25Z</time>
      </trkpt>
      <trkpt lat="43.5090290" lon="-7.0995760">
        <ele>113.8</ele>
        <time>2021-07-23T09:21:27Z</time>
      </trkpt>
      <trkpt lat="43.5090110" lon="-7.0995550">
        <ele>113.8</ele>
        <time>2021-07-23T09:21:28Z</time>
      </trkpt>
      <trkpt lat="43.5089590" lon="-7.0995070">
        <ele>113.8</ele>
        <time>2021-07-23T09:21:31Z</time>
      </trkpt>
      <trkpt lat="43.5089090" lon="-7.0994670">
        <ele>113.8</ele>
        <time>2021-07-23T09:21:34Z</time>
      </trkpt>
      <trkpt lat="43.5088920" lon="-7.0994550">
        <ele>113.8</ele>
        <time>2021-07-23T09:21:35Z</time>
      </trkpt>
      <trkpt lat="43.5088590" lon="-7.0994320">
        <ele>113.8</ele>
        <time>2021-07-23T09:21:37Z</time>
      </trkpt>
      <trkpt lat="43.5088240" lon="-7.0994120">
        <ele>113.8</ele>
        <time>2021-07-23T09:21:39Z</time>
      </trkpt>
      <trkpt lat="43.5087910" lon="-7.0993960">
        <ele>113.8</ele>
        <time>2021-07-23T09:21:41Z</time>
      </trkpt>
      <trkpt lat="43.5087730" lon="-7.0993850">
        <ele>114.4</ele>
        <time>2021-07-23T09:21:42Z</time>
      </trkpt>
      <trkpt lat="43.5087580" lon="-7.0993730">
        <ele>114.8</ele>
        <time>2021-07-23T09:21:43Z</time>
      </trkpt>
      <trkpt lat="43.5087420" lon="-7.0993620">
        <ele>115.2</ele>
        <time>2021-07-23T09:21:44Z</time>
      </trkpt>
      <trkpt lat="43.5087300" lon="-7.0993490">
        <ele>115.6</ele>
        <time>2021-07-23T09:21:45Z</time>
      </trkpt>
      <trkpt lat="43.5087180" lon="-7.0993370">
        <ele>116.0</ele>
        <time>2021-07-23T09:21:46Z</time>
      </trkpt>
      <trkpt lat="43.5086890" lon="-7.0993120">
        <ele>116.0</ele>
        <time>2021-07-23T09:21:48Z</time>
      </trkpt>
      <trkpt lat="43.5085810" lon="-7.0992440">
        <ele>116.0</ele>
        <time>2021-07-23T09:21:55Z</time>
      </trkpt>
      <trkpt lat="43.5085070" lon="-7.0991600">
        <ele>116.6</ele>
        <time>2021-07-23T09:22:01Z</time>
      </trkpt>
      <trkpt lat="43.5084940" lon="-7.0991480">
        <ele>117.0</ele>
        <time>2021-07-23T09:22:02Z</time>
      </trkpt>
      <trkpt lat="43.5084820" lon="-7.0991340">
        <ele>117.6</ele>
        <time>2021-07-23T09:22:03Z</time>
      </trkpt>
      <trkpt lat="43.5084700" lon="-7.0991190">
        <ele>118.0</ele>
        <time>2021-07-23T09:22:04Z</time>
      </trkpt>
      <trkpt lat="43.5084580" lon="-7.0991040">
        <ele>118.6</ele>
        <time>2021-07-23T09:22:05Z</time>
      </trkpt>
      <trkpt lat="43.5083930" lon="-7.0990300">
        <ele>118.6</ele>
        <time>2021-07-23T09:22:10Z</time>
      </trkpt>
      <trkpt lat="43.5083080" lon="-7.0989250">
        <ele>119.0</ele>
        <time>2021-07-23T09:22:17Z</time>
      </trkpt>
      <trkpt lat="43.5082960" lon="-7.0989100">
        <ele>119.4</ele>
        <time>2021-07-23T09:22:18Z</time>
      </trkpt>
      <trkpt lat="43.5082830" lon="-7.0988950">
        <ele>119.8</ele>
        <time>2021-07-23T09:22:19Z</time>
      </trkpt>
      <trkpt lat="43.5082720" lon="-7.0988830">
        <ele>120.6</ele>
        <time>2021-07-23T09:22:20Z</time>
      </trkpt>
      <trkpt lat="43.5082130" lon="-7.0988310">
        <ele>120.6</ele>
        <time>2021-07-23T09:22:25Z</time>
      </trkpt>
      <trkpt lat="43.5081160" lon="-7.0987810">
        <ele>121.0</ele>
        <time>2021-07-23T09:22:32Z</time>
      </trkpt>
      <trkpt lat="43.5080980" lon="-7.0987710">
        <ele>121.4</ele>
        <time>2021-07-23T09:22:33Z</time>
      </trkpt>
      <trkpt lat="43.5080790" lon="-7.0987600">
        <ele>121.8</ele>
        <time>2021-07-23T09:22:34Z</time>
      </trkpt>
      <trkpt lat="43.5080640" lon="-7.0987460">
        <ele>122.2</ele>
        <time>2021-07-23T09:22:35Z</time>
      </trkpt>
      <trkpt lat="43.5080490" lon="-7.0987360">
        <ele>122.6</ele>
        <time>2021-07-23T09:22:36Z</time>
      </trkpt>
      <trkpt lat="43.5079840" lon="-7.0986940">
        <ele>122.6</ele>
        <time>2021-07-23T09:22:40Z</time>
      </trkpt>
      <trkpt lat="43.5079010" lon="-7.0986430">
        <ele>123.0</ele>
        <time>2021-07-23T09:22:45Z</time>
      </trkpt>
      <trkpt lat="43.5078850" lon="-7.0986350">
        <ele>123.4</ele>
        <time>2021-07-23T09:22:46Z</time>
      </trkpt>
      <trkpt lat="43.5078670" lon="-7.0986310">
        <ele>123.8</ele>
        <time>2021-07-23T09:22:47Z</time>
      </trkpt>
      <trkpt lat="43.5078530" lon="-7.0986270">
        <ele>124.2</ele>
        <time>2021-07-23T09:22:48Z</time>
      </trkpt>
      <trkpt lat="43.5078360" lon="-7.0986250">
        <ele>124.6</ele>
        <time>2021-07-23T09:22:49Z</time>
      </trkpt>
      <trkpt lat="43.5077500" lon="-7.0985970">
        <ele>124.6</ele>
        <time>2021-07-23T09:22:54Z</time>
      </trkpt>
      <trkpt lat="43.5076260" lon="-7.0985750">
        <ele>124.6</ele>
        <time>2021-07-23T09:23:01Z</time>
      </trkpt>
      <trkpt lat="43.5075020" lon="-7.0986000">
        <ele>125.0</ele>
        <time>2021-07-23T09:23:08Z</time>
      </trkpt>
      <trkpt lat="43.5074860" lon="-7.0986040">
        <ele>125.8</ele>
        <time>2021-07-23T09:23:09Z</time>
      </trkpt>
      <trkpt lat="43.5074700" lon="-7.0986080">
        <ele>126.2</ele>
        <time>2021-07-23T09:23:10Z</time>
      </trkpt>
      <trkpt lat="43.5074530" lon="-7.0986120">
        <ele>126.6</ele>
        <time>2021-07-23T09:23:11Z</time>
      </trkpt>
      <trkpt lat="43.5073790" lon="-7.0986310">
        <ele>126.6</ele>
        <time>2021-07-23T09:23:15Z</time>
      </trkpt>
      <trkpt lat="43.5073600" lon="-7.0986400">
        <ele>126.6</ele>
        <time>2021-07-23T09:23:16Z</time>
      </trkpt>
      <trkpt lat="43.5072320" lon="-7.0987040">
        <ele>126.6</ele>
        <time>2021-07-23T09:23:23Z</time>
      </trkpt>
      <trkpt lat="43.5071310" lon="-7.0987630">
        <ele>127.0</ele>
        <time>2021-07-23T09:23:29Z</time>
      </trkpt>
      <trkpt lat="43.5071120" lon="-7.0987690">
        <ele>127.6</ele>
        <time>2021-07-23T09:23:30Z</time>
      </trkpt>
      <trkpt lat="43.5070940" lon="-7.0987770">
        <ele>128.0</ele>
        <time>2021-07-23T09:23:31Z</time>
      </trkpt>
      <trkpt lat="43.5070770" lon="-7.0987870">
        <ele>128.4</ele>
        <time>2021-07-23T09:23:32Z</time>
      </trkpt>
      <trkpt lat="43.5070610" lon="-7.0988050">
        <ele>128.8</ele>
        <time>2021-07-23T09:23:33Z</time>
      </trkpt>
      <trkpt lat="43.5070230" lon="-7.0988820">
        <ele>128.8</ele>
        <time>2021-07-23T09:23:36Z</time>
      </trkpt>
      <trkpt lat="43.5070340" lon="-7.0990290">
        <ele>128.8</ele>
        <time>2021-07-23T09:23:41Z</time>
      </trkpt>
      <trkpt lat="43.5070180" lon="-7.0991960">
        <ele>129.2</ele>
        <time>2021-07-23T09:23:48Z</time>
      </trkpt>
      <trkpt lat="43.5070130" lon="-7.0992180">
        <ele>129.6</ele>
        <time>2021-07-23T09:23:49Z</time>
      </trkpt>
      <trkpt lat="43.5070060" lon="-7.0992370">
        <ele>130.0</ele>
        <time>2021-07-23T09:23:50Z</time>
      </trkpt>
      <trkpt lat="43.5069990" lon="-7.0992590">
        <ele>130.6</ele>
        <time>2021-07-23T09:23:51Z</time>
      </trkpt>
      <trkpt lat="43.5069890" lon="-7.0992780">
        <ele>131.0</ele>
        <time>2021-07-23T09:23:52Z</time>
      </trkpt>
      <trkpt lat="43.5069630" lon="-7.0993300">
        <ele>131.0</ele>
        <time>2021-07-23T09:23:55Z</time>
      </trkpt>
      <trkpt lat="43.5068950" lon="-7.0994410">
        <ele>131.0</ele>
        <time>2021-07-23T09:24:02Z</time>
      </trkpt>
      <trkpt lat="43.5068580" lon="-7.0994860">
        <ele>131.4</ele>
        <time>2021-07-23T09:24:05Z</time>
      </trkpt>
      <trkpt lat="43.5068480" lon="-7.0994980">
        <ele>131.8</ele>
        <time>2021-07-23T09:24:06Z</time>
      </trkpt>
      <trkpt lat="43.5068360" lon="-7.0995100">
        <ele>132.2</ele>
        <time>2021-07-23T09:24:07Z</time>
      </trkpt>
      <trkpt lat="43.5068220" lon="-7.0995250">
        <ele>132.6</ele>
        <time>2021-07-23T09:24:08Z</time>
      </trkpt>
      <trkpt lat="43.5068100" lon="-7.0995400">
        <ele>133.2</ele>
        <time>2021-07-23T09:24:09Z</time>
      </trkpt>
      <trkpt lat="43.5067980" lon="-7.0995560">
        <ele>133.2</ele>
        <time>2021-07-23T09:24:10Z</time>
      </trkpt>
      <trkpt lat="43.5066970" lon="-7.0996730">
        <ele>133.2</ele>
        <time>2021-07-23T09:24:18Z</time>
      </trkpt>
      <trkpt lat="43.5066640" lon="-7.0997260">
        <ele>133.6</ele>
        <time>2021-07-23T09:24:21Z</time>
      </trkpt>
      <trkpt lat="43.5066520" lon="-7.0997380">
        <ele>134.0</ele>
        <time>2021-07-23T09:24:22Z</time>
      </trkpt>
      <trkpt lat="43.5066400" lon="-7.0997510">
        <ele>135.0</ele>
        <time>2021-07-23T09:24:23Z</time>
      </trkpt>
      <trkpt lat="43.5066300" lon="-7.0997650">
        <ele>135.4</ele>
        <time>2021-07-23T09:24:24Z</time>
      </trkpt>
      <trkpt lat="43.5066180" lon="-7.0997800">
        <ele>135.4</ele>
        <time>2021-07-23T09:24:25Z</time>
      </trkpt>
      <trkpt lat="43.5065310" lon="-7.0998920">
        <ele>135.4</ele>
        <time>2021-07-23T09:24:32Z</time>
      </trkpt>
      <trkpt lat="43.5064540" lon="-7.0999930">
        <ele>135.4</ele>
        <time>2021-07-23T09:24:39Z</time>
      </trkpt>
      <trkpt lat="43.5063740" lon="-7.1001000">
        <ele>135.8</ele>
        <time>2021-07-23T09:24:46Z</time>
      </trkpt>
      <trkpt lat="43.5063630" lon="-7.1001170">
        <ele>136.2</ele>
        <time>2021-07-23T09:24:47Z</time>
      </trkpt>
      <trkpt lat="43.5063510" lon="-7.1001310">
        <ele>137.2</ele>
        <time>2021-07-23T09:24:48Z</time>
      </trkpt>
      <trkpt lat="43.5063390" lon="-7.1001480">
        <ele>137.6</ele>
        <time>2021-07-23T09:24:49Z</time>
      </trkpt>
      <trkpt lat="43.5062820" lon="-7.1002830">
        <ele>137.6</ele>
        <time>2021-07-23T09:24:56Z</time>
      </trkpt>
      <trkpt lat="43.5062270" lon="-7.1004800">
        <ele>137.6</ele>
        <time>2021-07-23T09:25:06Z</time>
      </trkpt>
      <trkpt lat="43.5062250" lon="-7.1005220">
        <ele>138.0</ele>
        <time>2021-07-23T09:25:08Z</time>
      </trkpt>
      <trkpt lat="43.5062260" lon="-7.1005450">
        <ele>138.4</ele>
        <time>2021-07-23T09:25:09Z</time>
      </trkpt>
      <trkpt lat="43.5062210" lon="-7.1005690">
        <ele>138.8</ele>
        <time>2021-07-23T09:25:10Z</time>
      </trkpt>
      <trkpt lat="43.5062200" lon="-7.1005910">
        <ele>139.2</ele>
        <time>2021-07-23T09:25:11Z</time>
      </trkpt>
      <trkpt lat="43.5062180" lon="-7.1006140">
        <ele>139.6</ele>
        <time>2021-07-23T09:25:12Z</time>
      </trkpt>
      <trkpt lat="43.5062170" lon="-7.1006350">
        <ele>139.6</ele>
        <time>2021-07-23T09:25:13Z</time>
      </trkpt>
      <trkpt lat="43.5062150" lon="-7.1007760">
        <ele>140.0</ele>
        <time>2021-07-23T09:25:20Z</time>
      </trkpt>
      <trkpt lat="43.5062150" lon="-7.1007950">
        <ele>140.4</ele>
        <time>2021-07-23T09:25:21Z</time>
      </trkpt>
      <trkpt lat="43.5062110" lon="-7.1008150">
        <ele>140.8</ele>
        <time>2021-07-23T09:25:22Z</time>
      </trkpt>
      <trkpt lat="43.5062110" lon="-7.1008380">
        <ele>141.4</ele>
        <time>2021-07-23T09:25:23Z</time>
      </trkpt>
      <trkpt lat="43.5062120" lon="-7.1008590">
        <ele>141.8</ele>
        <time>2021-07-23T09:25:24Z</time>
      </trkpt>
      <trkpt lat="43.5062090" lon="-7.1009590">
        <ele>141.8</ele>
        <time>2021-07-23T09:25:29Z</time>
      </trkpt>
      <trkpt lat="43.5062090" lon="-7.1010000">
        <ele>142.2</ele>
        <time>2021-07-23T09:25:31Z</time>
      </trkpt>
      <trkpt lat="43.5062080" lon="-7.1010190">
        <ele>142.6</ele>
        <time>2021-07-23T09:25:32Z</time>
      </trkpt>
      <trkpt lat="43.5062080" lon="-7.1010400">
        <ele>143.0</ele>
        <time>2021-07-23T09:25:33Z</time>
      </trkpt>
      <trkpt lat="43.5062100" lon="-7.1010600">
        <ele>143.4</ele>
        <time>2021-07-23T09:25:34Z</time>
      </trkpt>
      <trkpt lat="43.5062090" lon="-7.1010780">
        <ele>143.8</ele>
        <time>2021-07-23T09:25:35Z</time>
      </trkpt>
      <trkpt lat="43.5062080" lon="-7.1011130">
        <ele>143.8</ele>
        <time>2021-07-23T09:25:37Z</time>
      </trkpt>
      <trkpt lat="43.5062060" lon="-7.1011490">
        <ele>144.2</ele>
        <time>2021-07-23T09:25:39Z</time>
      </trkpt>
      <trkpt lat="43.5062070" lon="-7.1011670">
        <ele>144.6</ele>
        <time>2021-07-23T09:25:40Z</time>
      </trkpt>
      <trkpt lat="43.5062070" lon="-7.1011790">
        <ele>145.0</ele>
        <time>2021-07-23T09:25:41Z</time>
      </trkpt>
      <trkpt lat="43.5062080" lon="-7.1011950">
        <ele>145.4</ele>
        <time>2021-07-23T09:25:42Z</time>
      </trkpt>
      <trkpt lat="43.5062110" lon="-7.1012150">
        <ele>145.8</ele>
        <time>2021-07-23T09:25:43Z</time>
      </trkpt>
      <trkpt lat="43.5062150" lon="-7.1012430">
        <ele>145.8</ele>
        <time>2021-07-23T09:25:44Z</time>
      </trkpt>
      <trkpt lat="43.5062250" lon="-7.1013840">
        <ele>145.8</ele>
        <time>2021-07-23T09:25:51Z</time>
      </trkpt>
      <trkpt lat="43.5062390" lon="-7.1015500">
        <ele>146.2</ele>
        <time>2021-07-23T09:25:59Z</time>
      </trkpt>
      <trkpt lat="43.5062430" lon="-7.1015670">
        <ele>146.6</ele>
        <time>2021-07-23T09:26:00Z</time>
      </trkpt>
      <trkpt lat="43.5062470" lon="-7.1015830">
        <ele>147.0</ele>
        <time>2021-07-23T09:26:01Z</time>
      </trkpt>
      <trkpt lat="43.5062490" lon="-7.1015980">
        <ele>148.0</ele>
        <time>2021-07-23T09:26:02Z</time>
      </trkpt>
      <trkpt lat="43.5062500" lon="-7.1016810">
        <ele>148.0</ele>
        <time>2021-07-23T09:26:06Z</time>
      </trkpt>
      <trkpt lat="43.5062750" lon="-7.1018540">
        <ele>148.0</ele>
        <time>2021-07-23T09:26:14Z</time>
      </trkpt>
      <trkpt lat="43.5062920" lon="-7.1020170">
        <ele>148.0</ele>
        <time>2021-07-23T09:26:21Z</time>
      </trkpt>
      <trkpt lat="43.5063340" lon="-7.1022510">
        <ele>148.4</ele>
        <time>2021-07-23T09:26:30Z</time>
      </trkpt>
      <trkpt lat="43.5063350" lon="-7.1022850">
        <ele>148.8</ele>
        <time>2021-07-23T09:26:31Z</time>
      </trkpt>
      <trkpt lat="43.5063370" lon="-7.1023200">
        <ele>149.2</ele>
        <time>2021-07-23T09:26:32Z</time>
      </trkpt>
      <trkpt lat="43.5063400" lon="-7.1023540">
        <ele>149.6</ele>
        <time>2021-07-23T09:26:33Z</time>
      </trkpt>
      <trkpt lat="43.5063440" lon="-7.1023850">
        <ele>150.0</ele>
        <time>2021-07-23T09:26:34Z</time>
      </trkpt>
      <trkpt lat="43.5063770" lon="-7.1025820">
        <ele>150.0</ele>
        <time>2021-07-23T09:26:40Z</time>
      </trkpt>
      <trkpt lat="43.5064140" lon="-7.1028140">
        <ele>150.0</ele>
        <time>2021-07-23T09:26:47Z</time>
      </trkpt>
      <trkpt lat="43.5064390" lon="-7.1029040">
        <ele>150.0</ele>
        <time>2021-07-23T09:26:50Z</time>
      </trkpt>
      <trkpt lat="43.5064510" lon="-7.1030100">
        <ele>150.0</ele>
        <time>2021-07-23T09:26:53Z</time>
      </trkpt>
      <trkpt lat="43.5064540" lon="-7.1030430">
        <ele>150.4</ele>
        <time>2021-07-23T09:26:54Z</time>
      </trkpt>
      <trkpt lat="43.5064600" lon="-7.1030790">
        <ele>150.8</ele>
        <time>2021-07-23T09:26:55Z</time>
      </trkpt>
      <trkpt lat="43.5064650" lon="-7.1031150">
        <ele>151.2</ele>
        <time>2021-07-23T09:26:56Z</time>
      </trkpt>
      <trkpt lat="43.5064700" lon="-7.1031490">
        <ele>151.6</ele>
        <time>2021-07-23T09:26:57Z</time>
      </trkpt>
      <trkpt lat="43.5064730" lon="-7.1031840">
        <ele>152.0</ele>
        <time>2021-07-23T09:26:58Z</time>
      </trkpt>
      <trkpt lat="43.5064850" lon="-7.1032470">
        <ele>152.0</ele>
        <time>2021-07-23T09:27:00Z</time>
      </trkpt>
      <trkpt lat="43.5065140" lon="-7.1034990">
        <ele>152.0</ele>
        <time>2021-07-23T09:27:07Z</time>
      </trkpt>
      <trkpt lat="43.5065030" lon="-7.1038360">
        <ele>152.0</ele>
        <time>2021-07-23T09:27:16Z</time>
      </trkpt>
      <trkpt lat="43.5064860" lon="-7.1039310">
        <ele>152.0</ele>
        <time>2021-07-23T09:27:19Z</time>
      </trkpt>
      <trkpt lat="43.5064630" lon="-7.1040190">
        <ele>152.0</ele>
        <time>2021-07-23T09:27:22Z</time>
      </trkpt>
      <trkpt lat="43.5064490" lon="-7.1040480">
        <ele>152.0</ele>
        <time>2021-07-23T09:27:23Z</time>
      </trkpt>
      <trkpt lat="43.5063800" lon="-7.1042560">
        <ele>152.0</ele>
        <time>2021-07-23T09:27:28Z</time>
      </trkpt>
      <trkpt lat="43.5062840" lon="-7.1045090">
        <ele>152.0</ele>
        <time>2021-07-23T09:27:34Z</time>
      </trkpt>
      <trkpt lat="43.5062030" lon="-7.1047130">
        <ele>152.0</ele>
        <time>2021-07-23T09:27:40Z</time>
      </trkpt>
      <trkpt lat="43.5061860" lon="-7.1047610">
        <ele>152.0</ele>
        <time>2021-07-23T09:27:41Z</time>
      </trkpt>
      <trkpt lat="43.5060520" lon="-7.1051350">
        <ele>152.0</ele>
        <time>2021-07-23T09:27:49Z</time>
      </trkpt>
      <trkpt lat="43.5060130" lon="-7.1052440">
        <ele>152.0</ele>
        <time>2021-07-23T09:27:52Z</time>
      </trkpt>
      <trkpt lat="43.5059610" lon="-7.1053840">
        <ele>152.0</ele>
        <time>2021-07-23T09:27:55Z</time>
      </trkpt>
      <trkpt lat="43.5058200" lon="-7.1057420">
        <ele>152.0</ele>
        <time>2021-07-23T09:28:03Z</time>
      </trkpt>
      <trkpt lat="43.5057340" lon="-7.1059740">
        <ele>152.0</ele>
        <time>2021-07-23T09:28:08Z</time>
      </trkpt>
      <trkpt lat="43.5056880" lon="-7.1061170">
        <ele>152.0</ele>
        <time>2021-07-23T09:28:11Z</time>
      </trkpt>
      <trkpt lat="43.5056710" lon="-7.1061620">
        <ele>152.0</ele>
        <time>2021-07-23T09:28:12Z</time>
      </trkpt>
      <trkpt lat="43.5056060" lon="-7.1063970">
        <ele>152.0</ele>
        <time>2021-07-23T09:28:17Z</time>
      </trkpt>
      <trkpt lat="43.5055970" lon="-7.1066070">
        <ele>152.0</ele>
        <time>2021-07-23T09:28:22Z</time>
      </trkpt>
      <trkpt lat="43.5055590" lon="-7.1069360">
        <ele>152.0</ele>
        <time>2021-07-23T09:28:30Z</time>
      </trkpt>
      <trkpt lat="43.5055410" lon="-7.1071080">
        <ele>152.0</ele>
        <time>2021-07-23T09:28:34Z</time>
      </trkpt>
      <trkpt lat="43.5055330" lon="-7.1072390">
        <ele>152.4</ele>
        <time>2021-07-23T09:28:37Z</time>
      </trkpt>
      <trkpt lat="43.5055280" lon="-7.1072870">
        <ele>152.8</ele>
        <time>2021-07-23T09:28:38Z</time>
      </trkpt>
      <trkpt lat="43.5055200" lon="-7.1073340">
        <ele>153.4</ele>
        <time>2021-07-23T09:28:39Z</time>
      </trkpt>
      <trkpt lat="43.5055160" lon="-7.1073780">
        <ele>153.8</ele>
        <time>2021-07-23T09:28:40Z</time>
      </trkpt>
      <trkpt lat="43.5055120" lon="-7.1074240">
        <ele>154.2</ele>
        <time>2021-07-23T09:28:41Z</time>
      </trkpt>
      <trkpt lat="43.5055080" lon="-7.1075600">
        <ele>154.2</ele>
        <time>2021-07-23T09:28:44Z</time>
      </trkpt>
      <trkpt lat="43.5055070" lon="-7.1078430">
        <ele>154.2</ele>
        <time>2021-07-23T09:28:50Z</time>
      </trkpt>
      <trkpt lat="43.5055380" lon="-7.1080350">
        <ele>154.2</ele>
        <time>2021-07-23T09:28:55Z</time>
      </trkpt>
      <trkpt lat="43.5055540" lon="-7.1080990">
        <ele>154.2</ele>
        <time>2021-07-23T09:28:57Z</time>
      </trkpt>
      <trkpt lat="43.5056500" lon="-7.1082830">
        <ele>154.2</ele>
        <time>2021-07-23T09:29:02Z</time>
      </trkpt>
      <trkpt lat="43.5056820" lon="-7.1083340">
        <ele>154.2</ele>
        <time>2021-07-23T09:29:03Z</time>
      </trkpt>
      <trkpt lat="43.5057440" lon="-7.1084440">
        <ele>154.2</ele>
        <time>2021-07-23T09:29:05Z</time>
      </trkpt>
      <trkpt lat="43.5058080" lon="-7.1085680">
        <ele>154.2</ele>
        <time>2021-07-23T09:29:07Z</time>
      </trkpt>
      <trkpt lat="43.5058840" lon="-7.1086860">
        <ele>154.2</ele>
        <time>2021-07-23T09:29:09Z</time>
      </trkpt>
      <trkpt lat="43.5060100" lon="-7.1088510">
        <ele>153.8</ele>
        <time>2021-07-23T09:29:12Z</time>
      </trkpt>
      <trkpt lat="43.5060560" lon="-7.1089000">
        <ele>153.2</ele>
        <time>2021-07-23T09:29:13Z</time>
      </trkpt>
      <trkpt lat="43.5060990" lon="-7.1089500">
        <ele>152.8</ele>
        <time>2021-07-23T09:29:14Z</time>
      </trkpt>
      <trkpt lat="43.5061410" lon="-7.1089990">
        <ele>152.2</ele>
        <time>2021-07-23T09:29:15Z</time>
      </trkpt>
      <trkpt lat="43.5061800" lon="-7.1090490">
        <ele>151.8</ele>
        <time>2021-07-23T09:29:16Z</time>
      </trkpt>
      <trkpt lat="43.5062520" lon="-7.1091680">
        <ele>151.8</ele>
        <time>2021-07-23T09:29:18Z</time>
      </trkpt>
      <trkpt lat="43.5062780" lon="-7.1092400">
        <ele>150.8</ele>
        <time>2021-07-23T09:29:19Z</time>
      </trkpt>
      <trkpt lat="43.5063020" lon="-7.1093080">
        <ele>150.4</ele>
        <time>2021-07-23T09:29:20Z</time>
      </trkpt>
      <trkpt lat="43.5063200" lon="-7.1093820">
        <ele>150.0</ele>
        <time>2021-07-23T09:29:21Z</time>
      </trkpt>
      <trkpt lat="43.5063380" lon="-7.1094600">
        <ele>149.6</ele>
        <time>2021-07-23T09:29:22Z</time>
      </trkpt>
      <trkpt lat="43.5063430" lon="-7.1095360">
        <ele>149.6</ele>
        <time>2021-07-23T09:29:23Z</time>
      </trkpt>
      <trkpt lat="43.5063090" lon="-7.1096910">
        <ele>149.6</ele>
        <time>2021-07-23T09:29:25Z</time>
      </trkpt>
      <trkpt lat="43.5062320" lon="-7.1098270">
        <ele>149.2</ele>
        <time>2021-07-23T09:29:27Z</time>
      </trkpt>
      <trkpt lat="43.5061960" lon="-7.1098820">
        <ele>148.8</ele>
        <time>2021-07-23T09:29:28Z</time>
      </trkpt>
      <trkpt lat="43.5061610" lon="-7.1099380">
        <ele>148.2</ele>
        <time>2021-07-23T09:29:29Z</time>
      </trkpt>
      <trkpt lat="43.5061270" lon="-7.1099990">
        <ele>147.8</ele>
        <time>2021-07-23T09:29:30Z</time>
      </trkpt>
      <trkpt lat="43.5060920" lon="-7.1100630">
        <ele>147.4</ele>
        <time>2021-07-23T09:29:31Z</time>
      </trkpt>
      <trkpt lat="43.5060200" lon="-7.1101930">
        <ele>147.4</ele>
        <time>2021-07-23T09:29:33Z</time>
      </trkpt>
      <trkpt lat="43.5059550" lon="-7.1103160">
        <ele>147.4</ele>
        <time>2021-07-23T09:29:35Z</time>
      </trkpt>
      <trkpt lat="43.5058670" lon="-7.1105640">
        <ele>147.4</ele>
        <time>2021-07-23T09:29:40Z</time>
      </trkpt>
      <trkpt lat="43.5058260" lon="-7.1107650">
        <ele>147.4</ele>
        <time>2021-07-23T09:29:44Z</time>
      </trkpt>
      <trkpt lat="43.5057840" lon="-7.1109000">
        <ele>147.4</ele>
        <time>2021-07-23T09:29:47Z</time>
      </trkpt>
      <trkpt lat="43.5057530" lon="-7.1109960">
        <ele>147.0</ele>
        <time>2021-07-23T09:29:49Z</time>
      </trkpt>
      <trkpt lat="43.5057420" lon="-7.1110370">
        <ele>146.6</ele>
        <time>2021-07-23T09:29:50Z</time>
      </trkpt>
      <trkpt lat="43.5057330" lon="-7.1110800">
        <ele>146.2</ele>
        <time>2021-07-23T09:29:51Z</time>
      </trkpt>
      <trkpt lat="43.5057170" lon="-7.1111440">
        <ele>145.8</ele>
        <time>2021-07-23T09:29:52Z</time>
      </trkpt>
      <trkpt lat="43.5056960" lon="-7.1112200">
        <ele>145.4</ele>
        <time>2021-07-23T09:29:53Z</time>
      </trkpt>
      <trkpt lat="43.5055840" lon="-7.1115540">
        <ele>145.4</ele>
        <time>2021-07-23T09:29:58Z</time>
      </trkpt>
      <trkpt lat="43.5055430" lon="-7.1116800">
        <ele>145.4</ele>
        <time>2021-07-23T09:30:00Z</time>
      </trkpt>
      <trkpt lat="43.5054000" lon="-7.1121200">
        <ele>145.4</ele>
        <time>2021-07-23T09:30:07Z</time>
      </trkpt>
      <trkpt lat="43.5053570" lon="-7.1122830">
        <ele>145.0</ele>
        <time>2021-07-23T09:30:10Z</time>
      </trkpt>
      <trkpt lat="43.5053420" lon="-7.1123350">
        <ele>144.6</ele>
        <time>2021-07-23T09:30:11Z</time>
      </trkpt>
      <trkpt lat="43.5053260" lon="-7.1123900">
        <ele>144.2</ele>
        <time>2021-07-23T09:30:12Z</time>
      </trkpt>
      <trkpt lat="43.5053090" lon="-7.1124420">
        <ele>143.8</ele>
        <time>2021-07-23T09:30:13Z</time>
      </trkpt>
      <trkpt lat="43.5052930" lon="-7.1124980">
        <ele>143.4</ele>
        <time>2021-07-23T09:30:14Z</time>
      </trkpt>
      <trkpt lat="43.5052780" lon="-7.1125510">
        <ele>143.4</ele>
        <time>2021-07-23T09:30:15Z</time>
      </trkpt>
      <trkpt lat="43.5051430" lon="-7.1129730">
        <ele>143.0</ele>
        <time>2021-07-23T09:30:23Z</time>
      </trkpt>
      <trkpt lat="43.5051250" lon="-7.1130340">
        <ele>142.4</ele>
        <time>2021-07-23T09:30:24Z</time>
      </trkpt>
      <trkpt lat="43.5051090" lon="-7.1130960">
        <ele>142.0</ele>
        <time>2021-07-23T09:30:25Z</time>
      </trkpt>
      <trkpt lat="43.5050940" lon="-7.1131590">
        <ele>141.6</ele>
        <time>2021-07-23T09:30:26Z</time>
      </trkpt>
      <trkpt lat="43.5050820" lon="-7.1132200">
        <ele>141.2</ele>
        <time>2021-07-23T09:30:27Z</time>
      </trkpt>
      <trkpt lat="43.5050520" lon="-7.1133860">
        <ele>141.2</ele>
        <time>2021-07-23T09:30:30Z</time>
      </trkpt>
      <trkpt lat="43.5050080" lon="-7.1135860">
        <ele>140.8</ele>
        <time>2021-07-23T09:30:33Z</time>
      </trkpt>
      <trkpt lat="43.5049850" lon="-7.1136520">
        <ele>140.4</ele>
        <time>2021-07-23T09:30:34Z</time>
      </trkpt>
      <trkpt lat="43.5049670" lon="-7.1137200">
        <ele>140.0</ele>
        <time>2021-07-23T09:30:35Z</time>
      </trkpt>
      <trkpt lat="43.5049490" lon="-7.1137850">
        <ele>139.4</ele>
        <time>2021-07-23T09:30:36Z</time>
      </trkpt>
      <trkpt lat="43.5049320" lon="-7.1138490">
        <ele>139.0</ele>
        <time>2021-07-23T09:30:37Z</time>
      </trkpt>
      <trkpt lat="43.5048560" lon="-7.1141100">
        <ele>138.6</ele>
        <time>2021-07-23T09:30:41Z</time>
      </trkpt>
      <trkpt lat="43.5048390" lon="-7.1141620">
        <ele>138.2</ele>
        <time>2021-07-23T09:30:42Z</time>
      </trkpt>
      <trkpt lat="43.5048220" lon="-7.1142130">
        <ele>137.8</ele>
        <time>2021-07-23T09:30:43Z</time>
      </trkpt>
      <trkpt lat="43.5048020" lon="-7.1142610">
        <ele>137.0</ele>
        <time>2021-07-23T09:30:44Z</time>
      </trkpt>
      <trkpt lat="43.5047710" lon="-7.1143030">
        <ele>136.4</ele>
        <time>2021-07-23T09:30:45Z</time>
      </trkpt>
      <trkpt lat="43.5047370" lon="-7.1143440">
        <ele>135.6</ele>
        <time>2021-07-23T09:30:46Z</time>
      </trkpt>
      <trkpt lat="43.5046890" lon="-7.1143720">
        <ele>135.0</ele>
        <time>2021-07-23T09:30:47Z</time>
      </trkpt>
      <trkpt lat="43.5046280" lon="-7.1143910">
        <ele>134.2</ele>
        <time>2021-07-23T09:30:48Z</time>
      </trkpt>
      <trkpt lat="43.5045640" lon="-7.1143930">
        <ele>133.6</ele>
        <time>2021-07-23T09:30:49Z</time>
      </trkpt>
      <trkpt lat="43.5044880" lon="-7.1143850">
        <ele>132.8</ele>
        <time>2021-07-23T09:30:50Z</time>
      </trkpt>
      <trkpt lat="43.5044150" lon="-7.1143700">
        <ele>132.2</ele>
        <time>2021-07-23T09:30:51Z</time>
      </trkpt>
      <trkpt lat="43.5043440" lon="-7.1143470">
        <ele>131.6</ele>
        <time>2021-07-23T09:30:52Z</time>
      </trkpt>
      <trkpt lat="43.5042780" lon="-7.1143290">
        <ele>131.2</ele>
        <time>2021-07-23T09:30:53Z</time>
      </trkpt>
      <trkpt lat="43.5042160" lon="-7.1143200">
        <ele>130.6</ele>
        <time>2021-07-23T09:30:54Z</time>
      </trkpt>
      <trkpt lat="43.5041600" lon="-7.1143190">
        <ele>130.0</ele>
        <time>2021-07-23T09:30:55Z</time>
      </trkpt>
      <trkpt lat="43.5040120" lon="-7.1143640">
        <ele>129.2</ele>
        <time>2021-07-23T09:30:58Z</time>
      </trkpt>
      <trkpt lat="43.5039710" lon="-7.1143960">
        <ele>128.8</ele>
        <time>2021-07-23T09:30:59Z</time>
      </trkpt>
      <trkpt lat="43.5039340" lon="-7.1144370">
        <ele>128.4</ele>
        <time>2021-07-23T09:31:00Z</time>
      </trkpt>
      <trkpt lat="43.5038970" lon="-7.1144800">
        <ele>128.0</ele>
        <time>2021-07-23T09:31:01Z</time>
      </trkpt>
      <trkpt lat="43.5038190" lon="-7.1145620">
        <ele>128.0</ele>
        <time>2021-07-23T09:31:03Z</time>
      </trkpt>
      <trkpt lat="43.5037470" lon="-7.1146250">
        <ele>128.0</ele>
        <time>2021-07-23T09:31:05Z</time>
      </trkpt>
      <trkpt lat="43.5036810" lon="-7.1146830">
        <ele>128.0</ele>
        <time>2021-07-23T09:31:07Z</time>
      </trkpt>
      <trkpt lat="43.5036480" lon="-7.1147130">
        <ele>128.0</ele>
        <time>2021-07-23T09:31:08Z</time>
      </trkpt>
      <trkpt lat="43.5035470" lon="-7.1148080">
        <ele>128.0</ele>
        <time>2021-07-23T09:31:11Z</time>
      </trkpt>
      <trkpt lat="43.5034860" lon="-7.1148640">
        <ele>128.0</ele>
        <time>2021-07-23T09:31:13Z</time>
      </trkpt>
      <trkpt lat="43.5034550" lon="-7.1148970">
        <ele>128.0</ele>
        <time>2021-07-23T09:31:14Z</time>
      </trkpt>
      <trkpt lat="43.5032100" lon="-7.1151060">
        <ele>128.0</ele>
        <time>2021-07-23T09:31:20Z</time>
      </trkpt>
      <trkpt lat="43.5030630" lon="-7.1152330">
        <ele>127.6</ele>
        <time>2021-07-23T09:31:23Z</time>
      </trkpt>
      <trkpt lat="43.5030160" lon="-7.1152760">
        <ele>127.0</ele>
        <time>2021-07-23T09:31:24Z</time>
      </trkpt>
      <trkpt lat="43.5029700" lon="-7.1153170">
        <ele>126.6</ele>
        <time>2021-07-23T09:31:25Z</time>
      </trkpt>
      <trkpt lat="43.5029260" lon="-7.1153570">
        <ele>126.0</ele>
        <time>2021-07-23T09:31:26Z</time>
      </trkpt>
      <trkpt lat="43.5028830" lon="-7.1153950">
        <ele>125.6</ele>
        <time>2021-07-23T09:31:27Z</time>
      </trkpt>
      <trkpt lat="43.5028300" lon="-7.1154380">
        <ele>125.2</ele>
        <time>2021-07-23T09:31:28Z</time>
      </trkpt>
      <trkpt lat="43.5027760" lon="-7.1154820">
        <ele>124.8</ele>
        <time>2021-07-23T09:31:29Z</time>
      </trkpt>
      <trkpt lat="43.5027170" lon="-7.1155340">
        <ele>124.4</ele>
        <time>2021-07-23T09:31:30Z</time>
      </trkpt>
      <trkpt lat="43.5026530" lon="-7.1155900">
        <ele>123.8</ele>
        <time>2021-07-23T09:31:31Z</time>
      </trkpt>
      <trkpt lat="43.5025840" lon="-7.1156410">
        <ele>123.4</ele>
        <time>2021-07-23T09:31:32Z</time>
      </trkpt>
      <trkpt lat="43.5025100" lon="-7.1156920">
        <ele>122.8</ele>
        <time>2021-07-23T09:31:33Z</time>
      </trkpt>
      <trkpt lat="43.5024390" lon="-7.1157320">
        <ele>122.2</ele>
        <time>2021-07-23T09:31:34Z</time>
      </trkpt>
      <trkpt lat="43.5023610" lon="-7.1157560">
        <ele>121.6</ele>
        <time>2021-07-23T09:31:35Z</time>
      </trkpt>
      <trkpt lat="43.5022820" lon="-7.1157700">
        <ele>121.0</ele>
        <time>2021-07-23T09:31:36Z</time>
      </trkpt>
      <trkpt lat="43.5022040" lon="-7.1157710">
        <ele>121.0</ele>
        <time>2021-07-23T09:31:37Z</time>
      </trkpt>
      <trkpt lat="43.5020750" lon="-7.1157230">
        <ele>121.0</ele>
        <time>2021-07-23T09:31:39Z</time>
      </trkpt>
      <trkpt lat="43.5020310" lon="-7.1156820">
        <ele>120.6</ele>
        <time>2021-07-23T09:31:40Z</time>
      </trkpt>
      <trkpt lat="43.5019950" lon="-7.1156420">
        <ele>120.2</ele>
        <time>2021-07-23T09:31:41Z</time>
      </trkpt>
      <trkpt lat="43.5019680" lon="-7.1156050">
        <ele>119.8</ele>
        <time>2021-07-23T09:31:42Z</time>
      </trkpt>
      <trkpt lat="43.5019470" lon="-7.1155720">
        <ele>119.2</ele>
        <time>2021-07-23T09:31:43Z</time>
      </trkpt>
      <trkpt lat="43.5019280" lon="-7.1155410">
        <ele>118.8</ele>
        <time>2021-07-23T09:31:44Z</time>
      </trkpt>
      <trkpt lat="43.5018870" lon="-7.1154840">
        <ele>118.8</ele>
        <time>2021-07-23T09:31:46Z</time>
      </trkpt>
      <trkpt lat="43.5018680" lon="-7.1154570">
        <ele>118.8</ele>
        <time>2021-07-23T09:31:47Z</time>
      </trkpt>
      <trkpt lat="43.5018230" lon="-7.1154120">
        <ele>118.8</ele>
        <time>2021-07-23T09:31:49Z</time>
      </trkpt>
      <trkpt lat="43.5017770" lon="-7.1153690">
        <ele>118.8</ele>
        <time>2021-07-23T09:31:51Z</time>
      </trkpt>
      <trkpt lat="43.5017260" lon="-7.1153240">
        <ele>118.8</ele>
        <time>2021-07-23T09:31:53Z</time>
      </trkpt>
      <trkpt lat="43.5016660" lon="-7.1152770">
        <ele>119.4</ele>
        <time>2021-07-23T09:31:55Z</time>
      </trkpt>
      <trkpt lat="43.5016330" lon="-7.1152510">
        <ele>119.8</ele>
        <time>2021-07-23T09:31:56Z</time>
      </trkpt>
      <trkpt lat="43.5016020" lon="-7.1152270">
        <ele>120.2</ele>
        <time>2021-07-23T09:31:57Z</time>
      </trkpt>
      <trkpt lat="43.5015680" lon="-7.1152100">
        <ele>120.6</ele>
        <time>2021-07-23T09:31:58Z</time>
      </trkpt>
      <trkpt lat="43.5015330" lon="-7.1151950">
        <ele>121.0</ele>
        <time>2021-07-23T09:31:59Z</time>
      </trkpt>
      <trkpt lat="43.5012790" lon="-7.1151460">
        <ele>121.0</ele>
        <time>2021-07-23T09:32:06Z</time>
      </trkpt>
      <trkpt lat="43.5011180" lon="-7.1151740">
        <ele>121.0</ele>
        <time>2021-07-23T09:32:10Z</time>
      </trkpt>
      <trkpt lat="43.5009790" lon="-7.1151990">
        <ele>121.0</ele>
        <time>2021-07-23T09:32:13Z</time>
      </trkpt>
      <trkpt lat="43.5008330" lon="-7.1152350">
        <ele>121.0</ele>
        <time>2021-07-23T09:32:16Z</time>
      </trkpt>
      <trkpt lat="43.5006710" lon="-7.1152720">
        <ele>121.0</ele>
        <time>2021-07-23T09:32:19Z</time>
      </trkpt>
      <trkpt lat="43.5006150" lon="-7.1152860">
        <ele>120.6</ele>
        <time>2021-07-23T09:32:20Z</time>
      </trkpt>
      <trkpt lat="43.5005520" lon="-7.1153000">
        <ele>120.2</ele>
        <time>2021-07-23T09:32:21Z</time>
      </trkpt>
      <trkpt lat="43.5004940" lon="-7.1153140">
        <ele>119.6</ele>
        <time>2021-07-23T09:32:22Z</time>
      </trkpt>
      <trkpt lat="43.5004370" lon="-7.1153280">
        <ele>119.2</ele>
        <time>2021-07-23T09:32:23Z</time>
      </trkpt>
      <trkpt lat="43.5003810" lon="-7.1153420">
        <ele>118.8</ele>
        <time>2021-07-23T09:32:24Z</time>
      </trkpt>
      <trkpt lat="43.5002220" lon="-7.1153850">
        <ele>118.4</ele>
        <time>2021-07-23T09:32:27Z</time>
      </trkpt>
      <trkpt lat="43.5001710" lon="-7.1153940">
        <ele>118.0</ele>
        <time>2021-07-23T09:32:28Z</time>
      </trkpt>
      <trkpt lat="43.5001250" lon="-7.1154020">
        <ele>117.6</ele>
        <time>2021-07-23T09:32:29Z</time>
      </trkpt>
      <trkpt lat="43.5000800" lon="-7.1154120">
        <ele>116.8</ele>
        <time>2021-07-23T09:32:30Z</time>
      </trkpt>
      <trkpt lat="43.5000410" lon="-7.1154180">
        <ele>116.2</ele>
        <time>2021-07-23T09:32:31Z</time>
      </trkpt>
      <trkpt lat="43.5000050" lon="-7.1154250">
        <ele>115.6</ele>
        <time>2021-07-23T09:32:32Z</time>
      </trkpt>
      <trkpt lat="43.4999750" lon="-7.1154330">
        <ele>115.0</ele>
        <time>2021-07-23T09:32:33Z</time>
      </trkpt>
      <trkpt lat="43.4999500" lon="-7.1154490">
        <ele>114.4</ele>
        <time>2021-07-23T09:32:34Z</time>
      </trkpt>
      <trkpt lat="43.4999350" lon="-7.1154670">
        <ele>113.8</ele>
        <time>2021-07-23T09:32:35Z</time>
      </trkpt>
      <trkpt lat="43.4999280" lon="-7.1154800">
        <ele>113.4</ele>
        <time>2021-07-23T09:32:36Z</time>
      </trkpt>
      <trkpt lat="43.4999270" lon="-7.1154840">
        <ele>112.4</ele>
        <time>2021-07-23T09:32:37Z</time>
      </trkpt>
      <trkpt lat="43.4999290" lon="-7.1154840">
        <ele>111.8</ele>
        <time>2021-07-23T09:32:38Z</time>
      </trkpt>
      <trkpt lat="43.4998970" lon="-7.1154940">
        <ele>111.8</ele>
        <time>2021-07-23T09:33:25Z</time>
      </trkpt>
      <trkpt lat="43.4998570" lon="-7.1154940">
        <ele>111.8</ele>
        <time>2021-07-23T09:33:28Z</time>
      </trkpt>
      <trkpt lat="43.4998350" lon="-7.1155030">
        <ele>111.8</ele>
        <time>2021-07-23T09:33:30Z</time>
      </trkpt>
      <trkpt lat="43.4998350" lon="-7.1155160">
        <ele>111.8</ele>
        <time>2021-07-23T09:33:32Z</time>
      </trkpt>
      <trkpt lat="43.4998590" lon="-7.1155040">
        <ele>111.8</ele>
        <time>2021-07-23T09:34:18Z</time>
      </trkpt>
      <trkpt lat="43.4998640" lon="-7.1153990">
        <ele>111.8</ele>
        <time>2021-07-23T09:34:22Z</time>
      </trkpt>
      <trkpt lat="43.4998660" lon="-7.1153700">
        <ele>111.8</ele>
        <time>2021-07-23T09:34:23Z</time>
      </trkpt>
      <trkpt lat="43.4998690" lon="-7.1152550">
        <ele>111.4</ele>
        <time>2021-07-23T09:34:27Z</time>
      </trkpt>
      <trkpt lat="43.4998680" lon="-7.1152450">
        <ele>111.0</ele>
        <time>2021-07-23T09:34:28Z</time>
      </trkpt>
      <trkpt lat="43.4998680" lon="-7.1152480">
        <ele>110.6</ele>
        <time>2021-07-23T09:34:29Z</time>
      </trkpt>
      <trkpt lat="43.4998750" lon="-7.1153930">
        <ele>109.8</ele>
        <time>2021-07-23T09:37:22Z</time>
      </trkpt>
      <trkpt lat="43.4998710" lon="-7.1154440">
        <ele>109.8</ele>
        <time>2021-07-23T09:37:24Z</time>
      </trkpt>
      <trkpt lat="43.4999020" lon="-7.1156260">
        <ele>109.8</ele>
        <time>2021-07-23T09:37:29Z</time>
      </trkpt>
      <trkpt lat="43.4999050" lon="-7.1156710">
        <ele>109.8</ele>
        <time>2021-07-23T09:37:30Z</time>
      </trkpt>
      <trkpt lat="43.4998970" lon="-7.1157570">
        <ele>109.8</ele>
        <time>2021-07-23T09:37:32Z</time>
      </trkpt>
      <trkpt lat="43.4998890" lon="-7.1158000">
        <ele>109.8</ele>
        <time>2021-07-23T09:37:33Z</time>
      </trkpt>
      <trkpt lat="43.4998780" lon="-7.1159360">
        <ele>109.8</ele>
        <time>2021-07-23T09:37:36Z</time>
      </trkpt>
      <trkpt lat="43.4998630" lon="-7.1162880">
        <ele>109.8</ele>
        <time>2021-07-23T09:37:44Z</time>
      </trkpt>
      <trkpt lat="43.4998460" lon="-7.1164580">
        <ele>109.8</ele>
        <time>2021-07-23T09:37:48Z</time>
      </trkpt>
      <trkpt lat="43.4998350" lon="-7.1166350">
        <ele>109.8</ele>
        <time>2021-07-23T09:37:52Z</time>
      </trkpt>
      <trkpt lat="43.4998100" lon="-7.1169410">
        <ele>109.8</ele>
        <time>2021-07-23T09:37:59Z</time>
      </trkpt>
      <trkpt lat="43.4998080" lon="-7.1170300">
        <ele>109.8</ele>
        <time>2021-07-23T09:38:01Z</time>
      </trkpt>
      <trkpt lat="43.4998020" lon="-7.1171660">
        <ele>110.2</ele>
        <time>2021-07-23T09:38:04Z</time>
      </trkpt>
      <trkpt lat="43.4998000" lon="-7.1172090">
        <ele>110.6</ele>
        <time>2021-07-23T09:38:05Z</time>
      </trkpt>
      <trkpt lat="43.4997970" lon="-7.1172490">
        <ele>111.0</ele>
        <time>2021-07-23T09:38:06Z</time>
      </trkpt>
      <trkpt lat="43.4997920" lon="-7.1172920">
        <ele>111.4</ele>
        <time>2021-07-23T09:38:07Z</time>
      </trkpt>
      <trkpt lat="43.4997860" lon="-7.1173330">
        <ele>111.8</ele>
        <time>2021-07-23T09:38:08Z</time>
      </trkpt>
      <trkpt lat="43.4997840" lon="-7.1173760">
        <ele>111.8</ele>
        <time>2021-07-23T09:38:09Z</time>
      </trkpt>
      <trkpt lat="43.4997520" lon="-7.1177730">
        <ele>111.8</ele>
        <time>2021-07-23T09:38:18Z</time>
      </trkpt>
      <trkpt lat="43.4997300" lon="-7.1180820">
        <ele>112.2</ele>
        <time>2021-07-23T09:38:25Z</time>
      </trkpt>
      <trkpt lat="43.4997270" lon="-7.1181270">
        <ele>112.6</ele>
        <time>2021-07-23T09:38:26Z</time>
      </trkpt>
      <trkpt lat="43.4997250" lon="-7.1181720">
        <ele>113.0</ele>
        <time>2021-07-23T09:38:27Z</time>
      </trkpt>
      <trkpt lat="43.4997200" lon="-7.1182150">
        <ele>113.6</ele>
        <time>2021-07-23T09:38:28Z</time>
      </trkpt>
      <trkpt lat="43.4997150" lon="-7.1182610">
        <ele>114.0</ele>
        <time>2021-07-23T09:38:29Z</time>
      </trkpt>
      <trkpt lat="43.4996990" lon="-7.1185380">
        <ele>114.0</ele>
        <time>2021-07-23T09:38:35Z</time>
      </trkpt>
      <trkpt lat="43.4996730" lon="-7.1188540">
        <ele>114.0</ele>
        <time>2021-07-23T09:38:42Z</time>
      </trkpt>
      <trkpt lat="43.4996330" lon="-7.1192720">
        <ele>114.0</ele>
        <time>2021-07-23T09:38:51Z</time>
      </trkpt>
      <trkpt lat="43.4996110" lon="-7.1195820">
        <ele>114.0</ele>
        <time>2021-07-23T09:38:58Z</time>
      </trkpt>
      <trkpt lat="43.4995860" lon="-7.1199720">
        <ele>114.4</ele>
        <time>2021-07-23T09:39:07Z</time>
      </trkpt>
      <trkpt lat="43.4995830" lon="-7.1200160">
        <ele>114.8</ele>
        <time>2021-07-23T09:39:08Z</time>
      </trkpt>
      <trkpt lat="43.4995800" lon="-7.1200590">
        <ele>115.2</ele>
        <time>2021-07-23T09:39:09Z</time>
      </trkpt>
      <trkpt lat="43.4995750" lon="-7.1201030">
        <ele>115.6</ele>
        <time>2021-07-23T09:39:10Z</time>
      </trkpt>
      <trkpt lat="43.4995720" lon="-7.1201460">
        <ele>116.0</ele>
        <time>2021-07-23T09:39:11Z</time>
      </trkpt>
      <trkpt lat="43.4995420" lon="-7.1204780">
        <ele>116.0</ele>
        <time>2021-07-23T09:39:19Z</time>
      </trkpt>
      <trkpt lat="43.4995100" lon="-7.1208210">
        <ele>116.0</ele>
        <time>2021-07-23T09:39:28Z</time>
      </trkpt>
      <trkpt lat="43.4994950" lon="-7.1210140">
        <ele>116.6</ele>
        <time>2021-07-23T09:39:33Z</time>
      </trkpt>
      <trkpt lat="43.4994950" lon="-7.1210500">
        <ele>117.0</ele>
        <time>2021-07-23T09:39:34Z</time>
      </trkpt>
      <trkpt lat="43.4994950" lon="-7.1210840">
        <ele>117.4</ele>
        <time>2021-07-23T09:39:35Z</time>
      </trkpt>
      <trkpt lat="43.4994930" lon="-7.1211190">
        <ele>118.2</ele>
        <time>2021-07-23T09:39:36Z</time>
      </trkpt>
      <trkpt lat="43.4994650" lon="-7.1213660">
        <ele>118.2</ele>
        <time>2021-07-23T09:39:43Z</time>
      </trkpt>
      <trkpt lat="43.4994610" lon="-7.1215070">
        <ele>118.6</ele>
        <time>2021-07-23T09:39:47Z</time>
      </trkpt>
      <trkpt lat="43.4994600" lon="-7.1215460">
        <ele>119.0</ele>
        <time>2021-07-23T09:39:48Z</time>
      </trkpt>
      <trkpt lat="43.4994600" lon="-7.1215840">
        <ele>119.4</ele>
        <time>2021-07-23T09:39:49Z</time>
      </trkpt>
      <trkpt lat="43.4994590" lon="-7.1216200">
        <ele>119.8</ele>
        <time>2021-07-23T09:39:50Z</time>
      </trkpt>
      <trkpt lat="43.4994570" lon="-7.1216550">
        <ele>120.2</ele>
        <time>2021-07-23T09:39:51Z</time>
      </trkpt>
      <trkpt lat="43.4994530" lon="-7.1216860">
        <ele>120.2</ele>
        <time>2021-07-23T09:39:52Z</time>
      </trkpt>
      <trkpt lat="43.4994360" lon="-7.1219320">
        <ele>120.2</ele>
        <time>2021-07-23T09:39:59Z</time>
      </trkpt>
      <trkpt lat="43.4994190" lon="-7.1221940">
        <ele>120.6</ele>
        <time>2021-07-23T09:40:06Z</time>
      </trkpt>
      <trkpt lat="43.4994180" lon="-7.1222320">
        <ele>121.0</ele>
        <time>2021-07-23T09:40:07Z</time>
      </trkpt>
      <trkpt lat="43.4994180" lon="-7.1222660">
        <ele>121.4</ele>
        <time>2021-07-23T09:40:08Z</time>
      </trkpt>
      <trkpt lat="43.4994160" lon="-7.1223050">
        <ele>122.0</ele>
        <time>2021-07-23T09:40:09Z</time>
      </trkpt>
      <trkpt lat="43.4994130" lon="-7.1223450">
        <ele>122.4</ele>
        <time>2021-07-23T09:40:10Z</time>
      </trkpt>
      <trkpt lat="43.4993830" lon="-7.1227170">
        <ele>122.4</ele>
        <time>2021-07-23T09:40:20Z</time>
      </trkpt>
      <trkpt lat="43.4993680" lon="-7.1228740">
        <ele>122.8</ele>
        <time>2021-07-23T09:40:24Z</time>
      </trkpt>
      <trkpt lat="43.4993620" lon="-7.1229130">
        <ele>123.2</ele>
        <time>2021-07-23T09:40:25Z</time>
      </trkpt>
      <trkpt lat="43.4993600" lon="-7.1229510">
        <ele>124.0</ele>
        <time>2021-07-23T09:40:26Z</time>
      </trkpt>
      <trkpt lat="43.4993590" lon="-7.1229850">
        <ele>124.4</ele>
        <time>2021-07-23T09:40:27Z</time>
      </trkpt>
      <trkpt lat="43.4993380" lon="-7.1232850">
        <ele>124.4</ele>
        <time>2021-07-23T09:40:35Z</time>
      </trkpt>
      <trkpt lat="43.4993160" lon="-7.1235890">
        <ele>124.4</ele>
        <time>2021-07-23T09:40:43Z</time>
      </trkpt>
      <trkpt lat="43.4993110" lon="-7.1236270">
        <ele>124.4</ele>
        <time>2021-07-23T09:40:44Z</time>
      </trkpt>
      <trkpt lat="43.4993040" lon="-7.1237400">
        <ele>124.8</ele>
        <time>2021-07-23T09:40:47Z</time>
      </trkpt>
      <trkpt lat="43.4992980" lon="-7.1237790">
        <ele>125.2</ele>
        <time>2021-07-23T09:40:48Z</time>
      </trkpt>
      <trkpt lat="43.4992950" lon="-7.1238130">
        <ele>125.6</ele>
        <time>2021-07-23T09:40:49Z</time>
      </trkpt>
      <trkpt lat="43.4992940" lon="-7.1238500">
        <ele>126.4</ele>
        <time>2021-07-23T09:40:50Z</time>
      </trkpt>
      <trkpt lat="43.4992870" lon="-7.1239610">
        <ele>126.4</ele>
        <time>2021-07-23T09:40:53Z</time>
      </trkpt>
      <trkpt lat="43.4992620" lon="-7.1243410">
        <ele>126.4</ele>
        <time>2021-07-23T09:41:03Z</time>
      </trkpt>
      <trkpt lat="43.4992450" lon="-7.1245640">
        <ele>126.8</ele>
        <time>2021-07-23T09:41:09Z</time>
      </trkpt>
      <trkpt lat="43.4992430" lon="-7.1246010">
        <ele>127.2</ele>
        <time>2021-07-23T09:41:10Z</time>
      </trkpt>
      <trkpt lat="43.4992380" lon="-7.1246370">
        <ele>127.6</ele>
        <time>2021-07-23T09:41:11Z</time>
      </trkpt>
      <trkpt lat="43.4992360" lon="-7.1246710">
        <ele>128.0</ele>
        <time>2021-07-23T09:41:12Z</time>
      </trkpt>
      <trkpt lat="43.4992320" lon="-7.1247070">
        <ele>128.4</ele>
        <time>2021-07-23T09:41:13Z</time>
      </trkpt>
      <trkpt lat="43.4992090" lon="-7.1249650">
        <ele>128.4</ele>
        <time>2021-07-23T09:41:20Z</time>
      </trkpt>
      <trkpt lat="43.4991780" lon="-7.1253400">
        <ele>128.4</ele>
        <time>2021-07-23T09:41:30Z</time>
      </trkpt>
      <trkpt lat="43.4991710" lon="-7.1254500">
        <ele>128.8</ele>
        <time>2021-07-23T09:41:33Z</time>
      </trkpt>
      <trkpt lat="43.4991650" lon="-7.1254870">
        <ele>129.2</ele>
        <time>2021-07-23T09:41:34Z</time>
      </trkpt>
      <trkpt lat="43.4991620" lon="-7.1255190">
        <ele>129.6</ele>
        <time>2021-07-23T09:41:35Z</time>
      </trkpt>
      <trkpt lat="43.4991550" lon="-7.1255460">
        <ele>130.2</ele>
        <time>2021-07-23T09:41:36Z</time>
      </trkpt>
      <trkpt lat="43.4991450" lon="-7.1255770">
        <ele>130.6</ele>
        <time>2021-07-23T09:41:37Z</time>
      </trkpt>
      <trkpt lat="43.4991410" lon="-7.1256130">
        <ele>130.6</ele>
        <time>2021-07-23T09:41:38Z</time>
      </trkpt>
      <trkpt lat="43.4991350" lon="-7.1258700">
        <ele>130.6</ele>
        <time>2021-07-23T09:41:45Z</time>
      </trkpt>
      <trkpt lat="43.4991240" lon="-7.1260520">
        <ele>130.6</ele>
        <time>2021-07-23T09:41:50Z</time>
      </trkpt>
      <trkpt lat="43.4991230" lon="-7.1262310">
        <ele>130.6</ele>
        <time>2021-07-23T09:41:55Z</time>
      </trkpt>
      <trkpt lat="43.4991110" lon="-7.1263770">
        <ele>131.0</ele>
        <time>2021-07-23T09:41:59Z</time>
      </trkpt>
      <trkpt lat="43.4991080" lon="-7.1264120">
        <ele>131.4</ele>
        <time>2021-07-23T09:42:00Z</time>
      </trkpt>
      <trkpt lat="43.4991050" lon="-7.1264480">
        <ele>131.8</ele>
        <time>2021-07-23T09:42:01Z</time>
      </trkpt>
      <trkpt lat="43.4991040" lon="-7.1264800">
        <ele>132.2</ele>
        <time>2021-07-23T09:42:02Z</time>
      </trkpt>
      <trkpt lat="43.4991040" lon="-7.1265160">
        <ele>132.6</ele>
        <time>2021-07-23T09:42:03Z</time>
      </trkpt>
      <trkpt lat="43.4990990" lon="-7.1266250">
        <ele>132.6</ele>
        <time>2021-07-23T09:42:06Z</time>
      </trkpt>
      <trkpt lat="43.4990680" lon="-7.1269190">
        <ele>132.6</ele>
        <time>2021-07-23T09:42:14Z</time>
      </trkpt>
      <trkpt lat="43.4990460" lon="-7.1271030">
        <ele>133.0</ele>
        <time>2021-07-23T09:42:19Z</time>
      </trkpt>
      <trkpt lat="43.4990430" lon="-7.1271370">
        <ele>133.4</ele>
        <time>2021-07-23T09:42:20Z</time>
      </trkpt>
      <trkpt lat="43.4990400" lon="-7.1271710">
        <ele>133.8</ele>
        <time>2021-07-23T09:42:21Z</time>
      </trkpt>
      <trkpt lat="43.4990350" lon="-7.1272070">
        <ele>134.2</ele>
        <time>2021-07-23T09:42:22Z</time>
      </trkpt>
      <trkpt lat="43.4990320" lon="-7.1272350">
        <ele>134.6</ele>
        <time>2021-07-23T09:42:23Z</time>
      </trkpt>
      <trkpt lat="43.4990280" lon="-7.1274670">
        <ele>134.6</ele>
        <time>2021-07-23T09:42:30Z</time>
      </trkpt>
      <trkpt lat="43.4990060" lon="-7.1277490">
        <ele>134.6</ele>
        <time>2021-07-23T09:42:38Z</time>
      </trkpt>
      <trkpt lat="43.4989830" lon="-7.1279640">
        <ele>135.0</ele>
        <time>2021-07-23T09:42:44Z</time>
      </trkpt>
      <trkpt lat="43.4989820" lon="-7.1279950">
        <ele>135.4</ele>
        <time>2021-07-23T09:42:45Z</time>
      </trkpt>
      <trkpt lat="43.4989810" lon="-7.1280280">
        <ele>135.8</ele>
        <time>2021-07-23T09:42:46Z</time>
      </trkpt>
      <trkpt lat="43.4989800" lon="-7.1280630">
        <ele>136.2</ele>
        <time>2021-07-23T09:42:47Z</time>
      </trkpt>
      <trkpt lat="43.4989770" lon="-7.1281000">
        <ele>136.6</ele>
        <time>2021-07-23T09:42:48Z</time>
      </trkpt>
      <trkpt lat="43.4989620" lon="-7.1282740">
        <ele>136.6</ele>
        <time>2021-07-23T09:42:54Z</time>
      </trkpt>
      <trkpt lat="43.4989690" lon="-7.1283120">
        <ele>136.6</ele>
        <time>2021-07-23T09:42:57Z</time>
      </trkpt>
      <trkpt lat="43.4989690" lon="-7.1283080">
        <ele>136.6</ele>
        <time>2021-07-23T09:42:58Z</time>
      </trkpt>
      <trkpt lat="43.4989730" lon="-7.1282850">
        <ele>136.6</ele>
        <time>2021-07-23T09:45:52Z</time>
      </trkpt>
      <trkpt lat="43.4989680" lon="-7.1283040">
        <ele>136.6</ele>
        <time>2021-07-23T09:45:53Z</time>
      </trkpt>
      <trkpt lat="43.4989590" lon="-7.1283800">
        <ele>136.6</ele>
        <time>2021-07-23T09:45:56Z</time>
      </trkpt>
      <trkpt lat="43.4989560" lon="-7.1284120">
        <ele>137.0</ele>
        <time>2021-07-23T09:45:57Z</time>
      </trkpt>
      <trkpt lat="43.4989550" lon="-7.1284470">
        <ele>137.4</ele>
        <time>2021-07-23T09:45:58Z</time>
      </trkpt>
      <trkpt lat="43.4989530" lon="-7.1284830">
        <ele>137.8</ele>
        <time>2021-07-23T09:45:59Z</time>
      </trkpt>
      <trkpt lat="43.4989500" lon="-7.1285210">
        <ele>138.2</ele>
        <time>2021-07-23T09:46:00Z</time>
      </trkpt>
      <trkpt lat="43.4989480" lon="-7.1285570">
        <ele>138.6</ele>
        <time>2021-07-23T09:46:01Z</time>
      </trkpt>
      <trkpt lat="43.4989420" lon="-7.1286700">
        <ele>138.6</ele>
        <time>2021-07-23T09:46:04Z</time>
      </trkpt>
      <trkpt lat="43.4989370" lon="-7.1287490">
        <ele>138.6</ele>
        <time>2021-07-23T09:46:06Z</time>
      </trkpt>
      <trkpt lat="43.4989120" lon="-7.1290090">
        <ele>138.6</ele>
        <time>2021-07-23T09:46:13Z</time>
      </trkpt>
      <trkpt lat="43.4989040" lon="-7.1291930">
        <ele>138.6</ele>
        <time>2021-07-23T09:46:18Z</time>
      </trkpt>
      <trkpt lat="43.4989010" lon="-7.1292710">
        <ele>138.6</ele>
        <time>2021-07-23T09:46:20Z</time>
      </trkpt>
      <trkpt lat="43.4988980" lon="-7.1293110">
        <ele>138.6</ele>
        <time>2021-07-23T09:46:21Z</time>
      </trkpt>
      <trkpt lat="43.4988970" lon="-7.1294290">
        <ele>138.6</ele>
        <time>2021-07-23T09:46:24Z</time>
      </trkpt>
      <trkpt lat="43.4989140" lon="-7.1295810">
        <ele>138.6</ele>
        <time>2021-07-23T09:46:28Z</time>
      </trkpt>
      <trkpt lat="43.4989440" lon="-7.1298360">
        <ele>138.6</ele>
        <time>2021-07-23T09:46:35Z</time>
      </trkpt>
      <trkpt lat="43.4989880" lon="-7.1301260">
        <ele>138.6</ele>
        <time>2021-07-23T09:46:42Z</time>
      </trkpt>
      <trkpt lat="43.4990670" lon="-7.1305030">
        <ele>138.6</ele>
        <time>2021-07-23T09:46:50Z</time>
      </trkpt>
      <trkpt lat="43.4991220" lon="-7.1307980">
        <ele>138.6</ele>
        <time>2021-07-23T09:46:56Z</time>
      </trkpt>
      <trkpt lat="43.4991360" lon="-7.1308840">
        <ele>138.6</ele>
        <time>2021-07-23T09:46:58Z</time>
      </trkpt>
      <trkpt lat="43.4991770" lon="-7.1311150">
        <ele>138.6</ele>
        <time>2021-07-23T09:47:03Z</time>
      </trkpt>
      <trkpt lat="43.4991920" lon="-7.1312090">
        <ele>138.6</ele>
        <time>2021-07-23T09:47:05Z</time>
      </trkpt>
      <trkpt lat="43.4992550" lon="-7.1315530">
        <ele>138.6</ele>
        <time>2021-07-23T09:47:12Z</time>
      </trkpt>
      <trkpt lat="43.4993240" lon="-7.1319430">
        <ele>138.6</ele>
        <time>2021-07-23T09:47:20Z</time>
      </trkpt>
      <trkpt lat="43.4993280" lon="-7.1319900">
        <ele>139.2</ele>
        <time>2021-07-23T09:47:21Z</time>
      </trkpt>
      <trkpt lat="43.4993310" lon="-7.1320350">
        <ele>139.6</ele>
        <time>2021-07-23T09:47:22Z</time>
      </trkpt>
      <trkpt lat="43.4993330" lon="-7.1320820">
        <ele>140.0</ele>
        <time>2021-07-23T09:47:23Z</time>
      </trkpt>
      <trkpt lat="43.4993370" lon="-7.1321290">
        <ele>140.4</ele>
        <time>2021-07-23T09:47:24Z</time>
      </trkpt>
      <trkpt lat="43.4993440" lon="-7.1321770">
        <ele>140.8</ele>
        <time>2021-07-23T09:47:25Z</time>
      </trkpt>
      <trkpt lat="43.4993500" lon="-7.1322240">
        <ele>140.8</ele>
        <time>2021-07-23T09:47:26Z</time>
      </trkpt>
      <trkpt lat="43.4993810" lon="-7.1325950">
        <ele>140.8</ele>
        <time>2021-07-23T09:47:34Z</time>
      </trkpt>
      <trkpt lat="43.4993890" lon="-7.1328240">
        <ele>140.8</ele>
        <time>2021-07-23T09:47:39Z</time>
      </trkpt>
      <trkpt lat="43.4993870" lon="-7.1329980">
        <ele>140.8</ele>
        <time>2021-07-23T09:47:43Z</time>
      </trkpt>
      <trkpt lat="43.4993860" lon="-7.1331930">
        <ele>140.8</ele>
        <time>2021-07-23T09:47:48Z</time>
      </trkpt>
      <trkpt lat="43.4993880" lon="-7.1332490">
        <ele>140.8</ele>
        <time>2021-07-23T09:47:51Z</time>
      </trkpt>
      <trkpt lat="43.4993860" lon="-7.1332640">
        <ele>140.8</ele>
        <time>2021-07-23T09:47:53Z</time>
      </trkpt>
      <trkpt lat="43.4993790" lon="-7.1333140">
        <ele>140.8</ele>
        <time>2021-07-23T09:47:55Z</time>
      </trkpt>
      <trkpt lat="43.4993480" lon="-7.1335660">
        <ele>140.8</ele>
        <time>2021-07-23T09:48:01Z</time>
      </trkpt>
      <trkpt lat="43.4992720" lon="-7.1339850">
        <ele>140.8</ele>
        <time>2021-07-23T09:48:10Z</time>
      </trkpt>
      <trkpt lat="43.4992050" lon="-7.1344290">
        <ele>140.8</ele>
        <time>2021-07-23T09:48:19Z</time>
      </trkpt>
      <trkpt lat="43.4992010" lon="-7.1344790">
        <ele>141.2</ele>
        <time>2021-07-23T09:48:20Z</time>
      </trkpt>
      <trkpt lat="43.4991960" lon="-7.1345290">
        <ele>141.6</ele>
        <time>2021-07-23T09:48:21Z</time>
      </trkpt>
      <trkpt lat="43.4991930" lon="-7.1345830">
        <ele>142.0</ele>
        <time>2021-07-23T09:48:22Z</time>
      </trkpt>
      <trkpt lat="43.4991900" lon="-7.1346350">
        <ele>142.4</ele>
        <time>2021-07-23T09:48:23Z</time>
      </trkpt>
      <trkpt lat="43.4991860" lon="-7.1346830">
        <ele>142.8</ele>
        <time>2021-07-23T09:48:24Z</time>
      </trkpt>
      <trkpt lat="43.4991790" lon="-7.1348330">
        <ele>142.8</ele>
        <time>2021-07-23T09:48:27Z</time>
      </trkpt>
      <trkpt lat="43.4991640" lon="-7.1351810">
        <ele>142.8</ele>
        <time>2021-07-23T09:48:34Z</time>
      </trkpt>
      <trkpt lat="43.4991340" lon="-7.1357440">
        <ele>142.8</ele>
        <time>2021-07-23T09:48:45Z</time>
      </trkpt>
      <trkpt lat="43.4991300" lon="-7.1358880">
        <ele>143.2</ele>
        <time>2021-07-23T09:48:48Z</time>
      </trkpt>
      <trkpt lat="43.4991280" lon="-7.1359330">
        <ele>143.6</ele>
        <time>2021-07-23T09:48:49Z</time>
      </trkpt>
      <trkpt lat="43.4991260" lon="-7.1359830">
        <ele>144.2</ele>
        <time>2021-07-23T09:48:50Z</time>
      </trkpt>
      <trkpt lat="43.4991240" lon="-7.1360320">
        <ele>144.6</ele>
        <time>2021-07-23T09:48:51Z</time>
      </trkpt>
      <trkpt lat="43.4991210" lon="-7.1360810">
        <ele>145.0</ele>
        <time>2021-07-23T09:48:52Z</time>
      </trkpt>
      <trkpt lat="43.4991150" lon="-7.1361800">
        <ele>145.0</ele>
        <time>2021-07-23T09:48:54Z</time>
      </trkpt>
      <trkpt lat="43.4990960" lon="-7.1366050">
        <ele>145.0</ele>
        <time>2021-07-23T09:49:03Z</time>
      </trkpt>
      <trkpt lat="43.4990770" lon="-7.1370250">
        <ele>145.0</ele>
        <time>2021-07-23T09:49:12Z</time>
      </trkpt>
      <trkpt lat="43.4989960" lon="-7.1374930">
        <ele>145.0</ele>
        <time>2021-07-23T09:49:22Z</time>
      </trkpt>
      <trkpt lat="43.4989180" lon="-7.1378160">
        <ele>145.0</ele>
        <time>2021-07-23T09:49:29Z</time>
      </trkpt>
      <trkpt lat="43.4988200" lon="-7.1381510">
        <ele>145.0</ele>
        <time>2021-07-23T09:49:36Z</time>
      </trkpt>
      <trkpt lat="43.4987460" lon="-7.1383790">
        <ele>145.4</ele>
        <time>2021-07-23T09:49:41Z</time>
      </trkpt>
      <trkpt lat="43.4987330" lon="-7.1384290">
        <ele>145.8</ele>
        <time>2021-07-23T09:49:42Z</time>
      </trkpt>
      <trkpt lat="43.4987200" lon="-7.1384760">
        <ele>146.2</ele>
        <time>2021-07-23T09:49:43Z</time>
      </trkpt>
      <trkpt lat="43.4987060" lon="-7.1385230">
        <ele>146.6</ele>
        <time>2021-07-23T09:49:44Z</time>
      </trkpt>
      <trkpt lat="43.4986930" lon="-7.1385690">
        <ele>147.0</ele>
        <time>2021-07-23T09:49:45Z</time>
      </trkpt>
      <trkpt lat="43.4985960" lon="-7.1389390">
        <ele>147.0</ele>
        <time>2021-07-23T09:49:53Z</time>
      </trkpt>
      <trkpt lat="43.4985290" lon="-7.1394090">
        <ele>147.0</ele>
        <time>2021-07-23T09:50:03Z</time>
      </trkpt>
      <trkpt lat="43.4985160" lon="-7.1395200">
        <ele>147.0</ele>
        <time>2021-07-23T09:50:06Z</time>
      </trkpt>
      <trkpt lat="43.4984920" lon="-7.1395900">
        <ele>147.0</ele>
        <time>2021-07-23T09:50:08Z</time>
      </trkpt>
      <trkpt lat="43.4984750" lon="-7.1396210">
        <ele>147.0</ele>
        <time>2021-07-23T09:50:09Z</time>
      </trkpt>
      <trkpt lat="43.4984540" lon="-7.1397610">
        <ele>147.0</ele>
        <time>2021-07-23T09:50:14Z</time>
      </trkpt>
      <trkpt lat="43.4984540" lon="-7.1397740">
        <ele>147.0</ele>
        <time>2021-07-23T09:50:16Z</time>
      </trkpt>
      <trkpt lat="43.4984480" lon="-7.1397970">
        <ele>147.0</ele>
        <time>2021-07-23T09:50:40Z</time>
      </trkpt>
      <trkpt lat="43.4984420" lon="-7.1398200">
        <ele>147.0</ele>
        <time>2021-07-23T09:50:41Z</time>
      </trkpt>
      <trkpt lat="43.4983920" lon="-7.1399360">
        <ele>147.0</ele>
        <time>2021-07-23T09:50:45Z</time>
      </trkpt>
      <trkpt lat="43.4983400" lon="-7.1400210">
        <ele>146.6</ele>
        <time>2021-07-23T09:50:47Z</time>
      </trkpt>
      <trkpt lat="43.4983070" lon="-7.1400710">
        <ele>146.0</ele>
        <time>2021-07-23T09:50:48Z</time>
      </trkpt>
      <trkpt lat="43.4982670" lon="-7.1401220">
        <ele>145.6</ele>
        <time>2021-07-23T09:50:49Z</time>
      </trkpt>
      <trkpt lat="43.4982290" lon="-7.1401670">
        <ele>144.8</ele>
        <time>2021-07-23T09:50:50Z</time>
      </trkpt>
      <trkpt lat="43.4981900" lon="-7.1402110">
        <ele>144.2</ele>
        <time>2021-07-23T09:50:51Z</time>
      </trkpt>
      <trkpt lat="43.4981510" lon="-7.1402540">
        <ele>143.4</ele>
        <time>2021-07-23T09:50:52Z</time>
      </trkpt>
      <trkpt lat="43.4981120" lon="-7.1402940">
        <ele>142.6</ele>
        <time>2021-07-23T09:50:53Z</time>
      </trkpt>
      <trkpt lat="43.4980750" lon="-7.1403350">
        <ele>141.8</ele>
        <time>2021-07-23T09:50:54Z</time>
      </trkpt>
      <trkpt lat="43.4980380" lon="-7.1403770">
        <ele>141.0</ele>
        <time>2021-07-23T09:50:55Z</time>
      </trkpt>
      <trkpt lat="43.4980010" lon="-7.1404220">
        <ele>140.2</ele>
        <time>2021-07-23T09:50:56Z</time>
      </trkpt>
      <trkpt lat="43.4979640" lon="-7.1404690">
        <ele>139.4</ele>
        <time>2021-07-23T09:50:57Z</time>
      </trkpt>
      <trkpt lat="43.4979260" lon="-7.1405180">
        <ele>138.6</ele>
        <time>2021-07-23T09:50:58Z</time>
      </trkpt>
      <trkpt lat="43.4978820" lon="-7.1405700">
        <ele>137.8</ele>
        <time>2021-07-23T09:50:59Z</time>
      </trkpt>
      <trkpt lat="43.4978370" lon="-7.1406220">
        <ele>137.0</ele>
        <time>2021-07-23T09:51:00Z</time>
      </trkpt>
      <trkpt lat="43.4977880" lon="-7.1406740">
        <ele>136.4</ele>
        <time>2021-07-23T09:51:01Z</time>
      </trkpt>
      <trkpt lat="43.4977390" lon="-7.1407250">
        <ele>135.8</ele>
        <time>2021-07-23T09:51:02Z</time>
      </trkpt>
      <trkpt lat="43.4976870" lon="-7.1407720">
        <ele>135.2</ele>
        <time>2021-07-23T09:51:03Z</time>
      </trkpt>
      <trkpt lat="43.4976360" lon="-7.1408180">
        <ele>134.6</ele>
        <time>2021-07-23T09:51:04Z</time>
      </trkpt>
      <trkpt lat="43.4975850" lon="-7.1408610">
        <ele>133.8</ele>
        <time>2021-07-23T09:51:05Z</time>
      </trkpt>
      <trkpt lat="43.4975430" lon="-7.1408950">
        <ele>133.2</ele>
        <time>2021-07-23T09:51:06Z</time>
      </trkpt>
      <trkpt lat="43.4975050" lon="-7.1409290">
        <ele>132.6</ele>
        <time>2021-07-23T09:51:07Z</time>
      </trkpt>
      <trkpt lat="43.4974770" lon="-7.1409610">
        <ele>131.8</ele>
        <time>2021-07-23T09:51:08Z</time>
      </trkpt>
      <trkpt lat="43.4974570" lon="-7.1409970">
        <ele>131.2</ele>
        <time>2021-07-23T09:51:09Z</time>
      </trkpt>
      <trkpt lat="43.4974420" lon="-7.1410430">
        <ele>129.8</ele>
        <time>2021-07-23T09:51:10Z</time>
      </trkpt>
      <trkpt lat="43.4974350" lon="-7.1410970">
        <ele>129.0</ele>
        <time>2021-07-23T09:51:11Z</time>
      </trkpt>
      <trkpt lat="43.4974320" lon="-7.1412920">
        <ele>128.6</ele>
        <time>2021-07-23T09:51:14Z</time>
      </trkpt>
      <trkpt lat="43.4974320" lon="-7.1413560">
        <ele>128.2</ele>
        <time>2021-07-23T09:51:15Z</time>
      </trkpt>
      <trkpt lat="43.4974300" lon="-7.1414170">
        <ele>127.8</ele>
        <time>2021-07-23T09:51:16Z</time>
      </trkpt>
      <trkpt lat="43.4974300" lon="-7.1414740">
        <ele>127.4</ele>
        <time>2021-07-23T09:51:17Z</time>
      </trkpt>
      <trkpt lat="43.4974290" lon="-7.1415230">
        <ele>127.0</ele>
        <time>2021-07-23T09:51:18Z</time>
      </trkpt>
      <trkpt lat="43.4974150" lon="-7.1415900">
        <ele>126.6</ele>
        <time>2021-07-23T09:51:20Z</time>
      </trkpt>
      <trkpt lat="43.4974020" lon="-7.1416100">
        <ele>126.0</ele>
        <time>2021-07-23T09:51:21Z</time>
      </trkpt>
      <trkpt lat="43.4973820" lon="-7.1416240">
        <ele>125.6</ele>
        <time>2021-07-23T09:51:22Z</time>
      </trkpt>
      <trkpt lat="43.4973570" lon="-7.1416290">
        <ele>125.0</ele>
        <time>2021-07-23T09:51:23Z</time>
      </trkpt>
      <trkpt lat="43.4973250" lon="-7.1416240">
        <ele>124.6</ele>
        <time>2021-07-23T09:51:24Z</time>
      </trkpt>
      <trkpt lat="43.4972900" lon="-7.1416030">
        <ele>124.2</ele>
        <time>2021-07-23T09:51:25Z</time>
      </trkpt>
      <trkpt lat="43.4972540" lon="-7.1415730">
        <ele>123.8</ele>
        <time>2021-07-23T09:51:26Z</time>
      </trkpt>
      <trkpt lat="43.4972170" lon="-7.1415350">
        <ele>123.2</ele>
        <time>2021-07-23T09:51:27Z</time>
      </trkpt>
      <trkpt lat="43.4971810" lon="-7.1414910">
        <ele>122.8</ele>
        <time>2021-07-23T09:51:28Z</time>
      </trkpt>
      <trkpt lat="43.4971420" lon="-7.1414450">
        <ele>122.4</ele>
        <time>2021-07-23T09:51:29Z</time>
      </trkpt>
      <trkpt lat="43.4971030" lon="-7.1414000">
        <ele>122.4</ele>
        <time>2021-07-23T09:51:30Z</time>
      </trkpt>
      <trkpt lat="43.4970650" lon="-7.1413530">
        <ele>122.0</ele>
        <time>2021-07-23T09:51:31Z</time>
      </trkpt>
      <trkpt lat="43.4970300" lon="-7.1413070">
        <ele>121.6</ele>
        <time>2021-07-23T09:51:32Z</time>
      </trkpt>
      <trkpt lat="43.4969980" lon="-7.1412590">
        <ele>121.2</ele>
        <time>2021-07-23T09:51:33Z</time>
      </trkpt>
      <trkpt lat="43.4969680" lon="-7.1412100">
        <ele>120.4</ele>
        <time>2021-07-23T09:51:34Z</time>
      </trkpt>
      <trkpt lat="43.4969230" lon="-7.1411350">
        <ele>120.0</ele>
        <time>2021-07-23T09:51:36Z</time>
      </trkpt>
      <trkpt lat="43.4969010" lon="-7.1411130">
        <ele>119.6</ele>
        <time>2021-07-23T09:51:37Z</time>
      </trkpt>
      <trkpt lat="43.4968780" lon="-7.1411090">
        <ele>119.2</ele>
        <time>2021-07-23T09:51:38Z</time>
      </trkpt>
      <trkpt lat="43.4968510" lon="-7.1411240">
        <ele>118.6</ele>
        <time>2021-07-23T09:51:39Z</time>
      </trkpt>
      <trkpt lat="43.4968240" lon="-7.1411610">
        <ele>118.2</ele>
        <time>2021-07-23T09:51:40Z</time>
      </trkpt>
      <trkpt lat="43.4968000" lon="-7.1412180">
        <ele>117.8</ele>
        <time>2021-07-23T09:51:41Z</time>
      </trkpt>
      <trkpt lat="43.4967880" lon="-7.1412860">
        <ele>117.4</ele>
        <time>2021-07-23T09:51:42Z</time>
      </trkpt>
      <trkpt lat="43.4967860" lon="-7.1413600">
        <ele>117.0</ele>
        <time>2021-07-23T09:51:43Z</time>
      </trkpt>
      <trkpt lat="43.4967950" lon="-7.1414450">
        <ele>116.6</ele>
        <time>2021-07-23T09:51:44Z</time>
      </trkpt>
      <trkpt lat="43.4968080" lon="-7.1415330">
        <ele>116.2</ele>
        <time>2021-07-23T09:51:45Z</time>
      </trkpt>
      <trkpt lat="43.4968240" lon="-7.1416270">
        <ele>116.2</ele>
        <time>2021-07-23T09:51:46Z</time>
      </trkpt>
      <trkpt lat="43.4969000" lon="-7.1419950">
        <ele>115.8</ele>
        <time>2021-07-23T09:51:50Z</time>
      </trkpt>
      <trkpt lat="43.4969180" lon="-7.1420800">
        <ele>115.2</ele>
        <time>2021-07-23T09:51:51Z</time>
      </trkpt>
      <trkpt lat="43.4969330" lon="-7.1421630">
        <ele>114.8</ele>
        <time>2021-07-23T09:51:52Z</time>
      </trkpt>
      <trkpt lat="43.4969420" lon="-7.1422340">
        <ele>114.4</ele>
        <time>2021-07-23T09:51:53Z</time>
      </trkpt>
      <trkpt lat="43.4969450" lon="-7.1422970">
        <ele>113.8</ele>
        <time>2021-07-23T09:51:54Z</time>
      </trkpt>
      <trkpt lat="43.4969440" lon="-7.1423630">
        <ele>113.2</ele>
        <time>2021-07-23T09:51:55Z</time>
      </trkpt>
      <trkpt lat="43.4969360" lon="-7.1424360">
        <ele>112.4</ele>
        <time>2021-07-23T09:51:56Z</time>
      </trkpt>
      <trkpt lat="43.4969240" lon="-7.1425140">
        <ele>111.8</ele>
        <time>2021-07-23T09:51:57Z</time>
      </trkpt>
      <trkpt lat="43.4969110" lon="-7.1425970">
        <ele>111.0</ele>
        <time>2021-07-23T09:51:58Z</time>
      </trkpt>
      <trkpt lat="43.4968950" lon="-7.1426800">
        <ele>109.4</ele>
        <time>2021-07-23T09:51:59Z</time>
      </trkpt>
      <trkpt lat="43.4968780" lon="-7.1427600">
        <ele>109.0</ele>
        <time>2021-07-23T09:52:00Z</time>
      </trkpt>
      <trkpt lat="43.4968620" lon="-7.1428350">
        <ele>108.4</ele>
        <time>2021-07-23T09:52:01Z</time>
      </trkpt>
      <trkpt lat="43.4968470" lon="-7.1429060">
        <ele>107.8</ele>
        <time>2021-07-23T09:52:02Z</time>
      </trkpt>
      <trkpt lat="43.4968320" lon="-7.1429730">
        <ele>107.2</ele>
        <time>2021-07-23T09:52:03Z</time>
      </trkpt>
      <trkpt lat="43.4968180" lon="-7.1430400">
        <ele>106.8</ele>
        <time>2021-07-23T09:52:04Z</time>
      </trkpt>
      <trkpt lat="43.4968020" lon="-7.1431100">
        <ele>106.8</ele>
        <time>2021-07-23T09:52:05Z</time>
      </trkpt>
      <trkpt lat="43.4967280" lon="-7.1433860">
        <ele>106.8</ele>
        <time>2021-07-23T09:52:10Z</time>
      </trkpt>
      <trkpt lat="43.4967280" lon="-7.1434050">
        <ele>106.8</ele>
        <time>2021-07-23T09:52:11Z</time>
      </trkpt>
      <trkpt lat="43.4967320" lon="-7.1434260">
        <ele>106.8</ele>
        <time>2021-07-23T09:52:14Z</time>
      </trkpt>
      <trkpt lat="43.4967160" lon="-7.1434240">
        <ele>106.8</ele>
        <time>2021-07-23T09:52:22Z</time>
      </trkpt>
      <trkpt lat="43.4966970" lon="-7.1433810">
        <ele>106.8</ele>
        <time>2021-07-23T09:52:25Z</time>
      </trkpt>
      <trkpt lat="43.4966960" lon="-7.1432990">
        <ele>106.8</ele>
        <time>2021-07-23T09:52:30Z</time>
      </trkpt>
      <trkpt lat="43.4966950" lon="-7.1432880">
        <ele>106.8</ele>
        <time>2021-07-23T09:52:31Z</time>
      </trkpt>
      <trkpt lat="43.4966970" lon="-7.1432850">
        <ele>106.8</ele>
        <time>2021-07-23T09:52:32Z</time>
      </trkpt>
      <trkpt lat="43.4967410" lon="-7.1432900">
        <ele>106.8</ele>
        <time>2021-07-23T09:55:20Z</time>
      </trkpt>
      <trkpt lat="43.4967430" lon="-7.1433210">
        <ele>106.8</ele>
        <time>2021-07-23T09:55:22Z</time>
      </trkpt>
      <trkpt lat="43.4967150" lon="-7.1433890">
        <ele>106.8</ele>
        <time>2021-07-23T09:55:26Z</time>
      </trkpt>
      <trkpt lat="43.4966890" lon="-7.1434250">
        <ele>106.8</ele>
        <time>2021-07-23T09:55:29Z</time>
      </trkpt>
      <trkpt lat="43.4966830" lon="-7.1434360">
        <ele>106.8</ele>
        <time>2021-07-23T09:55:30Z</time>
      </trkpt>
      <trkpt lat="43.4966580" lon="-7.1434930">
        <ele>106.8</ele>
        <time>2021-07-23T09:55:37Z</time>
      </trkpt>
      <trkpt lat="43.4966550" lon="-7.1435310">
        <ele>106.8</ele>
        <time>2021-07-23T09:56:26Z</time>
      </trkpt>
      <trkpt lat="43.4966590" lon="-7.1435870">
        <ele>106.8</ele>
        <time>2021-07-23T09:56:29Z</time>
      </trkpt>
      <trkpt lat="43.4966400" lon="-7.1436550">
        <ele>107.2</ele>
        <time>2021-07-23T09:56:33Z</time>
      </trkpt>
      <trkpt lat="43.4966340" lon="-7.1436710">
        <ele>107.6</ele>
        <time>2021-07-23T09:56:34Z</time>
      </trkpt>
      <trkpt lat="43.4966290" lon="-7.1436880">
        <ele>108.0</ele>
        <time>2021-07-23T09:56:35Z</time>
      </trkpt>
      <trkpt lat="43.4966240" lon="-7.1437060">
        <ele>108.4</ele>
        <time>2021-07-23T09:56:36Z</time>
      </trkpt>
      <trkpt lat="43.4966200" lon="-7.1437240">
        <ele>108.8</ele>
        <time>2021-07-23T09:56:37Z</time>
      </trkpt>
      <trkpt lat="43.4966120" lon="-7.1437720">
        <ele>108.8</ele>
        <time>2021-07-23T09:56:41Z</time>
      </trkpt>
      <trkpt lat="43.4966030" lon="-7.1437910">
        <ele>108.8</ele>
        <time>2021-07-23T09:57:03Z</time>
      </trkpt>
      <trkpt lat="43.4965880" lon="-7.1438300">
        <ele>108.8</ele>
        <time>2021-07-23T09:57:05Z</time>
      </trkpt>
      <trkpt lat="43.4965840" lon="-7.1438470">
        <ele>109.2</ele>
        <time>2021-07-23T09:57:06Z</time>
      </trkpt>
      <trkpt lat="43.4965780" lon="-7.1438610">
        <ele>109.6</ele>
        <time>2021-07-23T09:57:07Z</time>
      </trkpt>
      <trkpt lat="43.4965730" lon="-7.1438790">
        <ele>110.0</ele>
        <time>2021-07-23T09:57:08Z</time>
      </trkpt>
      <trkpt lat="43.4965660" lon="-7.1439010">
        <ele>110.4</ele>
        <time>2021-07-23T09:57:09Z</time>
      </trkpt>
      <trkpt lat="43.4965580" lon="-7.1439210">
        <ele>110.8</ele>
        <time>2021-07-23T09:57:10Z</time>
      </trkpt>
      <trkpt lat="43.4965050" lon="-7.1440760">
        <ele>110.8</ele>
        <time>2021-07-23T09:57:17Z</time>
      </trkpt>
      <trkpt lat="43.4964770" lon="-7.1441380">
        <ele>111.2</ele>
        <time>2021-07-23T09:57:20Z</time>
      </trkpt>
      <trkpt lat="43.4964700" lon="-7.1441600">
        <ele>111.6</ele>
        <time>2021-07-23T09:57:21Z</time>
      </trkpt>
      <trkpt lat="43.4964620" lon="-7.1441830">
        <ele>112.2</ele>
        <time>2021-07-23T09:57:22Z</time>
      </trkpt>
      <trkpt lat="43.4964550" lon="-7.1442080">
        <ele>112.6</ele>
        <time>2021-07-23T09:57:23Z</time>
      </trkpt>
      <trkpt lat="43.4964450" lon="-7.1442290">
        <ele>113.0</ele>
        <time>2021-07-23T09:57:24Z</time>
      </trkpt>
      <trkpt lat="43.4963870" lon="-7.1443590">
        <ele>113.0</ele>
        <time>2021-07-23T09:57:30Z</time>
      </trkpt>
      <trkpt lat="43.4963810" lon="-7.1443760">
        <ele>113.0</ele>
        <time>2021-07-23T09:57:31Z</time>
      </trkpt>
      <trkpt lat="43.4963660" lon="-7.1444190">
        <ele>113.4</ele>
        <time>2021-07-23T09:57:33Z</time>
      </trkpt>
      <trkpt lat="43.4963600" lon="-7.1444420">
        <ele>113.8</ele>
        <time>2021-07-23T09:57:34Z</time>
      </trkpt>
      <trkpt lat="43.4963580" lon="-7.1444660">
        <ele>114.2</ele>
        <time>2021-07-23T09:57:35Z</time>
      </trkpt>
      <trkpt lat="43.4963540" lon="-7.1444840">
        <ele>114.6</ele>
        <time>2021-07-23T09:57:36Z</time>
      </trkpt>
      <trkpt lat="43.4963500" lon="-7.1445040">
        <ele>115.0</ele>
        <time>2021-07-23T09:57:37Z</time>
      </trkpt>
      <trkpt lat="43.4963540" lon="-7.1445230">
        <ele>115.0</ele>
        <time>2021-07-23T09:57:38Z</time>
      </trkpt>
      <trkpt lat="43.4963940" lon="-7.1445030">
        <ele>115.0</ele>
        <time>2021-07-23T09:57:42Z</time>
      </trkpt>
      <trkpt lat="43.4964030" lon="-7.1444810">
        <ele>115.0</ele>
        <time>2021-07-23T09:57:43Z</time>
      </trkpt>
      <trkpt lat="43.4964360" lon="-7.1444370">
        <ele>115.4</ele>
        <time>2021-07-23T09:57:46Z</time>
      </trkpt>
      <trkpt lat="43.4964470" lon="-7.1444250">
        <ele>115.8</ele>
        <time>2021-07-23T09:57:47Z</time>
      </trkpt>
      <trkpt lat="43.4964590" lon="-7.1444160">
        <ele>116.2</ele>
        <time>2021-07-23T09:57:48Z</time>
      </trkpt>
      <trkpt lat="43.4964710" lon="-7.1444050">
        <ele>116.6</ele>
        <time>2021-07-23T09:57:49Z</time>
      </trkpt>
      <trkpt lat="43.4964840" lon="-7.1443910">
        <ele>117.0</ele>
        <time>2021-07-23T09:57:50Z</time>
      </trkpt>
      <trkpt lat="43.4965190" lon="-7.1443620">
        <ele>117.0</ele>
        <time>2021-07-23T09:57:52Z</time>
      </trkpt>
      <trkpt lat="43.4965350" lon="-7.1443450">
        <ele>117.6</ele>
        <time>2021-07-23T09:57:53Z</time>
      </trkpt>
      <trkpt lat="43.4965520" lon="-7.1443300">
        <ele>118.0</ele>
        <time>2021-07-23T09:57:54Z</time>
      </trkpt>
      <trkpt lat="43.4965620" lon="-7.1443220">
        <ele>118.4</ele>
        <time>2021-07-23T09:57:55Z</time>
      </trkpt>
      <trkpt lat="43.4965710" lon="-7.1443170">
        <ele>118.8</ele>
        <time>2021-07-23T09:57:56Z</time>
      </trkpt>
      <trkpt lat="43.4965810" lon="-7.1443130">
        <ele>119.2</ele>
        <time>2021-07-23T09:57:57Z</time>
      </trkpt>
      <trkpt lat="43.4965980" lon="-7.1443240">
        <ele>119.2</ele>
        <time>2021-07-23T09:57:59Z</time>
      </trkpt>
      <trkpt lat="43.4966080" lon="-7.1443630">
        <ele>119.2</ele>
        <time>2021-07-23T09:58:01Z</time>
      </trkpt>
      <trkpt lat="43.4966100" lon="-7.1443810">
        <ele>119.6</ele>
        <time>2021-07-23T09:58:02Z</time>
      </trkpt>
      <trkpt lat="43.4966100" lon="-7.1443980">
        <ele>120.0</ele>
        <time>2021-07-23T09:58:03Z</time>
      </trkpt>
      <trkpt lat="43.4966110" lon="-7.1444110">
        <ele>120.6</ele>
        <time>2021-07-23T09:58:04Z</time>
      </trkpt>
      <trkpt lat="43.4966120" lon="-7.1444270">
        <ele>121.0</ele>
        <time>2021-07-23T09:58:05Z</time>
      </trkpt>
      <trkpt lat="43.4966120" lon="-7.1444420">
        <ele>121.4</ele>
        <time>2021-07-23T09:58:06Z</time>
      </trkpt>
      <trkpt lat="43.4966080" lon="-7.1444770">
        <ele>121.4</ele>
        <time>2021-07-23T09:58:08Z</time>
      </trkpt>
      <trkpt lat="43.4966220" lon="-7.1446150">
        <ele>121.4</ele>
        <time>2021-07-23T09:58:14Z</time>
      </trkpt>
      <trkpt lat="43.4966240" lon="-7.1446370">
        <ele>121.8</ele>
        <time>2021-07-23T09:58:15Z</time>
      </trkpt>
      <trkpt lat="43.4966240" lon="-7.1446630">
        <ele>122.2</ele>
        <time>2021-07-23T09:58:16Z</time>
      </trkpt>
      <trkpt lat="43.4966220" lon="-7.1446850">
        <ele>122.6</ele>
        <time>2021-07-23T09:58:17Z</time>
      </trkpt>
      <trkpt lat="43.4966200" lon="-7.1447060">
        <ele>123.0</ele>
        <time>2021-07-23T09:58:18Z</time>
      </trkpt>
      <trkpt lat="43.4966180" lon="-7.1447240">
        <ele>123.4</ele>
        <time>2021-07-23T09:58:19Z</time>
      </trkpt>
      <trkpt lat="43.4966210" lon="-7.1447590">
        <ele>123.4</ele>
        <time>2021-07-23T09:58:21Z</time>
      </trkpt>
      <trkpt lat="43.4966210" lon="-7.1447750">
        <ele>123.4</ele>
        <time>2021-07-23T09:58:23Z</time>
      </trkpt>
      <trkpt lat="43.4966000" lon="-7.1448940">
        <ele>125.0</ele>
        <time>2021-07-23T09:59:04Z</time>
      </trkpt>
      <trkpt lat="43.4965980" lon="-7.1449080">
        <ele>125.6</ele>
        <time>2021-07-23T09:59:05Z</time>
      </trkpt>
      <trkpt lat="43.4965770" lon="-7.1449990">
        <ele>125.6</ele>
        <time>2021-07-23T09:59:11Z</time>
      </trkpt>
      <trkpt lat="43.4965660" lon="-7.1450470">
        <ele>125.6</ele>
        <time>2021-07-23T09:59:14Z</time>
      </trkpt>
      <trkpt lat="43.4965630" lon="-7.1450630">
        <ele>126.0</ele>
        <time>2021-07-23T09:59:15Z</time>
      </trkpt>
      <trkpt lat="43.4965590" lon="-7.1450780">
        <ele>126.4</ele>
        <time>2021-07-23T09:59:16Z</time>
      </trkpt>
      <trkpt lat="43.4965550" lon="-7.1450930">
        <ele>126.8</ele>
        <time>2021-07-23T09:59:17Z</time>
      </trkpt>
      <trkpt lat="43.4965510" lon="-7.1451080">
        <ele>127.2</ele>
        <time>2021-07-23T09:59:18Z</time>
      </trkpt>
      <trkpt lat="43.4965450" lon="-7.1451240">
        <ele>127.6</ele>
        <time>2021-07-23T09:59:19Z</time>
      </trkpt>
      <trkpt lat="43.4965290" lon="-7.1451880">
        <ele>127.6</ele>
        <time>2021-07-23T09:59:23Z</time>
      </trkpt>
      <trkpt lat="43.4965210" lon="-7.1452820">
        <ele>128.0</ele>
        <time>2021-07-23T09:59:29Z</time>
      </trkpt>
      <trkpt lat="43.4965180" lon="-7.1452990">
        <ele>128.4</ele>
        <time>2021-07-23T09:59:30Z</time>
      </trkpt>
      <trkpt lat="43.4965170" lon="-7.1453120">
        <ele>128.8</ele>
        <time>2021-07-23T09:59:31Z</time>
      </trkpt>
      <trkpt lat="43.4965150" lon="-7.1453240">
        <ele>129.2</ele>
        <time>2021-07-23T09:59:32Z</time>
      </trkpt>
      <trkpt lat="43.4965140" lon="-7.1453370">
        <ele>129.6</ele>
        <time>2021-07-23T09:59:33Z</time>
      </trkpt>
      <trkpt lat="43.4965070" lon="-7.1454520">
        <ele>130.0</ele>
        <time>2021-07-23T09:59:42Z</time>
      </trkpt>
      <trkpt lat="43.4965070" lon="-7.1454650">
        <ele>130.4</ele>
        <time>2021-07-23T09:59:43Z</time>
      </trkpt>
      <trkpt lat="43.4965050" lon="-7.1454770">
        <ele>130.8</ele>
        <time>2021-07-23T09:59:44Z</time>
      </trkpt>
      <trkpt lat="43.4965040" lon="-7.1454890">
        <ele>131.2</ele>
        <time>2021-07-23T09:59:45Z</time>
      </trkpt>
      <trkpt lat="43.4965080" lon="-7.1455010">
        <ele>131.6</ele>
        <time>2021-07-23T09:59:46Z</time>
      </trkpt>
      <trkpt lat="43.4965100" lon="-7.1455760">
        <ele>131.6</ele>
        <time>2021-07-23T09:59:52Z</time>
      </trkpt>
      <trkpt lat="43.4965100" lon="-7.1455990">
        <ele>132.0</ele>
        <time>2021-07-23T09:59:54Z</time>
      </trkpt>
      <trkpt lat="43.4965090" lon="-7.1456110">
        <ele>132.4</ele>
        <time>2021-07-23T09:59:55Z</time>
      </trkpt>
      <trkpt lat="43.4965090" lon="-7.1456220">
        <ele>132.8</ele>
        <time>2021-07-23T09:59:56Z</time>
      </trkpt>
      <trkpt lat="43.4965100" lon="-7.1456360">
        <ele>133.2</ele>
        <time>2021-07-23T09:59:57Z</time>
      </trkpt>
      <trkpt lat="43.4965120" lon="-7.1456490">
        <ele>133.6</ele>
        <time>2021-07-23T09:59:58Z</time>
      </trkpt>
      <trkpt lat="43.4965110" lon="-7.1456780">
        <ele>133.6</ele>
        <time>2021-07-23T10:00:01Z</time>
      </trkpt>
      <trkpt lat="43.4965010" lon="-7.1457560">
        <ele>134.0</ele>
        <time>2021-07-23T10:00:08Z</time>
      </trkpt>
      <trkpt lat="43.4964980" lon="-7.1457680">
        <ele>134.4</ele>
        <time>2021-07-23T10:00:09Z</time>
      </trkpt>
      <trkpt lat="43.4964970" lon="-7.1457790">
        <ele>135.0</ele>
        <time>2021-07-23T10:00:10Z</time>
      </trkpt>
      <trkpt lat="43.4964970" lon="-7.1457880">
        <ele>135.4</ele>
        <time>2021-07-23T10:00:11Z</time>
      </trkpt>
      <trkpt lat="43.4964980" lon="-7.1457970">
        <ele>135.8</ele>
        <time>2021-07-23T10:00:12Z</time>
      </trkpt>
      <trkpt lat="43.4964940" lon="-7.1458830">
        <ele>135.8</ele>
        <time>2021-07-23T10:00:20Z</time>
      </trkpt>
      <trkpt lat="43.4964950" lon="-7.1459080">
        <ele>136.2</ele>
        <time>2021-07-23T10:00:22Z</time>
      </trkpt>
      <trkpt lat="43.4964940" lon="-7.1459220">
        <ele>136.6</ele>
        <time>2021-07-23T10:00:23Z</time>
      </trkpt>
      <trkpt lat="43.4964930" lon="-7.1459350">
        <ele>137.0</ele>
        <time>2021-07-23T10:00:24Z</time>
      </trkpt>
      <trkpt lat="43.4964900" lon="-7.1459470">
        <ele>137.4</ele>
        <time>2021-07-23T10:00:25Z</time>
      </trkpt>
      <trkpt lat="43.4964880" lon="-7.1459590">
        <ele>137.8</ele>
        <time>2021-07-23T10:00:26Z</time>
      </trkpt>
      <trkpt lat="43.4964870" lon="-7.1460100">
        <ele>137.8</ele>
        <time>2021-07-23T10:00:30Z</time>
      </trkpt>
      <trkpt lat="43.4964790" lon="-7.1460830">
        <ele>138.2</ele>
        <time>2021-07-23T10:00:36Z</time>
      </trkpt>
      <trkpt lat="43.4964770" lon="-7.1460990">
        <ele>139.0</ele>
        <time>2021-07-23T10:00:37Z</time>
      </trkpt>
      <trkpt lat="43.4964750" lon="-7.1461150">
        <ele>139.4</ele>
        <time>2021-07-23T10:00:38Z</time>
      </trkpt>
      <trkpt lat="43.4964750" lon="-7.1461310">
        <ele>139.8</ele>
        <time>2021-07-23T10:00:39Z</time>
      </trkpt>
      <trkpt lat="43.4964760" lon="-7.1461450">
        <ele>139.8</ele>
        <time>2021-07-23T10:00:40Z</time>
      </trkpt>
      <trkpt lat="43.4964730" lon="-7.1462610">
        <ele>139.8</ele>
        <time>2021-07-23T10:00:48Z</time>
      </trkpt>
      <trkpt lat="43.4964770" lon="-7.1463170">
        <ele>140.2</ele>
        <time>2021-07-23T10:00:52Z</time>
      </trkpt>
      <trkpt lat="43.4964750" lon="-7.1463330">
        <ele>140.6</ele>
        <time>2021-07-23T10:00:53Z</time>
      </trkpt>
      <trkpt lat="43.4964730" lon="-7.1463470">
        <ele>141.0</ele>
        <time>2021-07-23T10:00:54Z</time>
      </trkpt>
      <trkpt lat="43.4964720" lon="-7.1463620">
        <ele>141.4</ele>
        <time>2021-07-23T10:00:55Z</time>
      </trkpt>
      <trkpt lat="43.4964720" lon="-7.1463730">
        <ele>141.8</ele>
        <time>2021-07-23T10:00:56Z</time>
      </trkpt>
      <trkpt lat="43.4964750" lon="-7.1463780">
        <ele>141.8</ele>
        <time>2021-07-23T10:00:57Z</time>
      </trkpt>
      <trkpt lat="43.4964750" lon="-7.1463770">
        <ele>141.8</ele>
        <time>2021-07-23T10:00:58Z</time>
      </trkpt>
      <trkpt lat="43.4964730" lon="-7.1464510">
        <ele>141.8</ele>
        <time>2021-07-23T10:01:15Z</time>
      </trkpt>
      <trkpt lat="43.4964730" lon="-7.1464670">
        <ele>141.8</ele>
        <time>2021-07-23T10:01:16Z</time>
      </trkpt>
      <trkpt lat="43.4964710" lon="-7.1464830">
        <ele>141.8</ele>
        <time>2021-07-23T10:01:17Z</time>
      </trkpt>
      <trkpt lat="43.4964760" lon="-7.1466020">
        <ele>141.8</ele>
        <time>2021-07-23T10:01:24Z</time>
      </trkpt>
      <trkpt lat="43.4964760" lon="-7.1466320">
        <ele>141.8</ele>
        <time>2021-07-23T10:01:26Z</time>
      </trkpt>
      <trkpt lat="43.4964750" lon="-7.1466490">
        <ele>142.2</ele>
        <time>2021-07-23T10:01:27Z</time>
      </trkpt>
      <trkpt lat="43.4964750" lon="-7.1466670">
        <ele>142.6</ele>
        <time>2021-07-23T10:01:28Z</time>
      </trkpt>
      <trkpt lat="43.4964780" lon="-7.1466850">
        <ele>143.0</ele>
        <time>2021-07-23T10:01:29Z</time>
      </trkpt>
      <trkpt lat="43.4964800" lon="-7.1467010">
        <ele>143.6</ele>
        <time>2021-07-23T10:01:30Z</time>
      </trkpt>
      <trkpt lat="43.4964810" lon="-7.1467180">
        <ele>144.0</ele>
        <time>2021-07-23T10:01:31Z</time>
      </trkpt>
      <trkpt lat="43.4964830" lon="-7.1467340">
        <ele>144.0</ele>
        <time>2021-07-23T10:01:32Z</time>
      </trkpt>
      <trkpt lat="43.4965030" lon="-7.1468830">
        <ele>144.0</ele>
        <time>2021-07-23T10:01:42Z</time>
      </trkpt>
      <trkpt lat="43.4965240" lon="-7.1469710">
        <ele>144.4</ele>
        <time>2021-07-23T10:01:48Z</time>
      </trkpt>
      <trkpt lat="43.4965300" lon="-7.1469860">
        <ele>144.8</ele>
        <time>2021-07-23T10:01:49Z</time>
      </trkpt>
      <trkpt lat="43.4965330" lon="-7.1470010">
        <ele>145.2</ele>
        <time>2021-07-23T10:01:50Z</time>
      </trkpt>
      <trkpt lat="43.4965360" lon="-7.1470180">
        <ele>145.6</ele>
        <time>2021-07-23T10:01:51Z</time>
      </trkpt>
      <trkpt lat="43.4965410" lon="-7.1470300">
        <ele>146.2</ele>
        <time>2021-07-23T10:01:52Z</time>
      </trkpt>
      <trkpt lat="43.4965660" lon="-7.1471360">
        <ele>146.2</ele>
        <time>2021-07-23T10:01:59Z</time>
      </trkpt>
      <trkpt lat="43.4966020" lon="-7.1472540">
        <ele>146.2</ele>
        <time>2021-07-23T10:02:07Z</time>
      </trkpt>
      <trkpt lat="43.4966130" lon="-7.1473050">
        <ele>146.6</ele>
        <time>2021-07-23T10:02:10Z</time>
      </trkpt>
      <trkpt lat="43.4966170" lon="-7.1473180">
        <ele>147.0</ele>
        <time>2021-07-23T10:02:11Z</time>
      </trkpt>
      <trkpt lat="43.4966230" lon="-7.1473310">
        <ele>147.4</ele>
        <time>2021-07-23T10:02:12Z</time>
      </trkpt>
      <trkpt lat="43.4966270" lon="-7.1473440">
        <ele>147.8</ele>
        <time>2021-07-23T10:02:13Z</time>
      </trkpt>
      <trkpt lat="43.4966310" lon="-7.1473590">
        <ele>148.2</ele>
        <time>2021-07-23T10:02:14Z</time>
      </trkpt>
      <trkpt lat="43.4966460" lon="-7.1473840">
        <ele>148.2</ele>
        <time>2021-07-23T10:02:16Z</time>
      </trkpt>
      <trkpt lat="43.4966700" lon="-7.1474900">
        <ele>148.2</ele>
        <time>2021-07-23T10:02:23Z</time>
      </trkpt>
      <trkpt lat="43.4966980" lon="-7.1476350">
        <ele>148.2</ele>
        <time>2021-07-23T10:02:33Z</time>
      </trkpt>
      <trkpt lat="43.4967020" lon="-7.1476510">
        <ele>148.6</ele>
        <time>2021-07-23T10:02:34Z</time>
      </trkpt>
      <trkpt lat="43.4967070" lon="-7.1476650">
        <ele>149.0</ele>
        <time>2021-07-23T10:02:35Z</time>
      </trkpt>
      <trkpt lat="43.4967120" lon="-7.1476790">
        <ele>149.6</ele>
        <time>2021-07-23T10:02:36Z</time>
      </trkpt>
      <trkpt lat="43.4967160" lon="-7.1476910">
        <ele>150.0</ele>
        <time>2021-07-23T10:02:37Z</time>
      </trkpt>
      <trkpt lat="43.4967200" lon="-7.1477050">
        <ele>150.4</ele>
        <time>2021-07-23T10:02:38Z</time>
      </trkpt>
      <trkpt lat="43.4967420" lon="-7.1477910">
        <ele>150.4</ele>
        <time>2021-07-23T10:02:44Z</time>
      </trkpt>
      <trkpt lat="43.4967510" lon="-7.1478270">
        <ele>150.8</ele>
        <time>2021-07-23T10:02:47Z</time>
      </trkpt>
      <trkpt lat="43.4967530" lon="-7.1478410">
        <ele>151.2</ele>
        <time>2021-07-23T10:02:48Z</time>
      </trkpt>
      <trkpt lat="43.4967570" lon="-7.1478560">
        <ele>151.6</ele>
        <time>2021-07-23T10:02:49Z</time>
      </trkpt>
      <trkpt lat="43.4967590" lon="-7.1478690">
        <ele>152.0</ele>
        <time>2021-07-23T10:02:50Z</time>
      </trkpt>
      <trkpt lat="43.4967620" lon="-7.1478810">
        <ele>152.4</ele>
        <time>2021-07-23T10:02:51Z</time>
      </trkpt>
      <trkpt lat="43.4967740" lon="-7.1479210">
        <ele>152.4</ele>
        <time>2021-07-23T10:02:54Z</time>
      </trkpt>
      <trkpt lat="43.4967860" lon="-7.1479730">
        <ele>152.4</ele>
        <time>2021-07-23T10:03:00Z</time>
      </trkpt>
      <trkpt lat="43.4973780" lon="-7.1496730">
        <ele>173.2</ele>
        <time>2021-07-23T10:08:04Z</time>
      </trkpt>
      <trkpt lat="43.4973840" lon="-7.1496570">
        <ele>173.2</ele>
        <time>2021-07-23T10:08:05Z</time>
      </trkpt>
      <trkpt lat="43.4974160" lon="-7.1495670">
        <ele>173.2</ele>
        <time>2021-07-23T10:08:11Z</time>
      </trkpt>
      <trkpt lat="43.4974200" lon="-7.1495540">
        <ele>173.6</ele>
        <time>2021-07-23T10:08:12Z</time>
      </trkpt>
      <trkpt lat="43.4974230" lon="-7.1495410">
        <ele>174.0</ele>
        <time>2021-07-23T10:08:13Z</time>
      </trkpt>
      <trkpt lat="43.4974270" lon="-7.1495270">
        <ele>174.4</ele>
        <time>2021-07-23T10:08:14Z</time>
      </trkpt>
      <trkpt lat="43.4974290" lon="-7.1495120">
        <ele>174.8</ele>
        <time>2021-07-23T10:08:15Z</time>
      </trkpt>
      <trkpt lat="43.4974320" lon="-7.1494970">
        <ele>175.2</ele>
        <time>2021-07-23T10:08:16Z</time>
      </trkpt>
      <trkpt lat="43.4974480" lon="-7.1494590">
        <ele>175.2</ele>
        <time>2021-07-23T10:08:19Z</time>
      </trkpt>
      <trkpt lat="43.4974580" lon="-7.1494140">
        <ele>175.2</ele>
        <time>2021-07-23T10:08:22Z</time>
      </trkpt>
      <trkpt lat="43.4974710" lon="-7.1493720">
        <ele>175.2</ele>
        <time>2021-07-23T10:08:25Z</time>
      </trkpt>
      <trkpt lat="43.4974760" lon="-7.1493580">
        <ele>175.6</ele>
        <time>2021-07-23T10:08:26Z</time>
      </trkpt>
      <trkpt lat="43.4974830" lon="-7.1493430">
        <ele>176.4</ele>
        <time>2021-07-23T10:08:27Z</time>
      </trkpt>
      <trkpt lat="43.4974880" lon="-7.1493260">
        <ele>177.0</ele>
        <time>2021-07-23T10:08:28Z</time>
      </trkpt>
      <trkpt lat="43.4974910" lon="-7.1493110">
        <ele>177.4</ele>
        <time>2021-07-23T10:08:29Z</time>
      </trkpt>
      <trkpt lat="43.4975020" lon="-7.1492530">
        <ele>177.4</ele>
        <time>2021-07-23T10:08:33Z</time>
      </trkpt>
      <trkpt lat="43.4975320" lon="-7.1491540">
        <ele>177.4</ele>
        <time>2021-07-23T10:08:40Z</time>
      </trkpt>
      <trkpt lat="43.4975370" lon="-7.1490740">
        <ele>177.8</ele>
        <time>2021-07-23T10:08:45Z</time>
      </trkpt>
      <trkpt lat="43.4975380" lon="-7.1490590">
        <ele>178.2</ele>
        <time>2021-07-23T10:08:46Z</time>
      </trkpt>
      <trkpt lat="43.4975410" lon="-7.1490440">
        <ele>178.6</ele>
        <time>2021-07-23T10:08:47Z</time>
      </trkpt>
      <trkpt lat="43.4975450" lon="-7.1490280">
        <ele>179.0</ele>
        <time>2021-07-23T10:08:48Z</time>
      </trkpt>
      <trkpt lat="43.4975500" lon="-7.1490100">
        <ele>179.4</ele>
        <time>2021-07-23T10:08:49Z</time>
      </trkpt>
      <trkpt lat="43.4975800" lon="-7.1488800">
        <ele>179.4</ele>
        <time>2021-07-23T10:08:58Z</time>
      </trkpt>
      <trkpt lat="43.4976120" lon="-7.1487690">
        <ele>179.8</ele>
        <time>2021-07-23T10:09:06Z</time>
      </trkpt>
      <trkpt lat="43.4976190" lon="-7.1487570">
        <ele>180.2</ele>
        <time>2021-07-23T10:09:07Z</time>
      </trkpt>
      <trkpt lat="43.4976210" lon="-7.1487550">
        <ele>180.6</ele>
        <time>2021-07-23T10:09:08Z</time>
      </trkpt>
      <trkpt lat="43.4976240" lon="-7.1487480">
        <ele>181.0</ele>
        <time>2021-07-23T10:09:09Z</time>
      </trkpt>
      <trkpt lat="43.4976350" lon="-7.1487290">
        <ele>181.4</ele>
        <time>2021-07-23T10:09:47Z</time>
      </trkpt>
      <trkpt lat="43.4976540" lon="-7.1486970">
        <ele>181.4</ele>
        <time>2021-07-23T10:09:49Z</time>
      </trkpt>
      <trkpt lat="43.4977230" lon="-7.1485790">
        <ele>181.8</ele>
        <time>2021-07-23T10:09:56Z</time>
      </trkpt>
      <trkpt lat="43.4977380" lon="-7.1485680">
        <ele>182.2</ele>
        <time>2021-07-23T10:09:57Z</time>
      </trkpt>
      <trkpt lat="43.4977520" lon="-7.1485520">
        <ele>182.6</ele>
        <time>2021-07-23T10:09:58Z</time>
      </trkpt>
      <trkpt lat="43.4977650" lon="-7.1485420">
        <ele>183.0</ele>
        <time>2021-07-23T10:09:59Z</time>
      </trkpt>
      <trkpt lat="43.4977780" lon="-7.1485290">
        <ele>183.6</ele>
        <time>2021-07-23T10:10:00Z</time>
      </trkpt>
      <trkpt lat="43.4978300" lon="-7.1485030">
        <ele>183.6</ele>
        <time>2021-07-23T10:10:04Z</time>
      </trkpt>
      <trkpt lat="43.4978390" lon="-7.1485090">
        <ele>183.6</ele>
        <time>2021-07-23T10:10:05Z</time>
      </trkpt>
      <trkpt lat="43.4978560" lon="-7.1485410">
        <ele>184.0</ele>
        <time>2021-07-23T10:10:07Z</time>
      </trkpt>
      <trkpt lat="43.4978610" lon="-7.1485590">
        <ele>184.4</ele>
        <time>2021-07-23T10:10:08Z</time>
      </trkpt>
      <trkpt lat="43.4978610" lon="-7.1485820">
        <ele>184.8</ele>
        <time>2021-07-23T10:10:09Z</time>
      </trkpt>
      <trkpt lat="43.4978570" lon="-7.1486070">
        <ele>185.2</ele>
        <time>2021-07-23T10:10:10Z</time>
      </trkpt>
      <trkpt lat="43.4978520" lon="-7.1486320">
        <ele>185.6</ele>
        <time>2021-07-23T10:10:11Z</time>
      </trkpt>
      <trkpt lat="43.4978540" lon="-7.1486950">
        <ele>185.6</ele>
        <time>2021-07-23T10:10:14Z</time>
      </trkpt>
      <trkpt lat="43.4978610" lon="-7.1487550">
        <ele>186.0</ele>
        <time>2021-07-23T10:10:17Z</time>
      </trkpt>
      <trkpt lat="43.4978640" lon="-7.1487740">
        <ele>186.4</ele>
        <time>2021-07-23T10:10:18Z</time>
      </trkpt>
      <trkpt lat="43.4978700" lon="-7.1487930">
        <ele>187.0</ele>
        <time>2021-07-23T10:10:19Z</time>
      </trkpt>
      <trkpt lat="43.4978780" lon="-7.1488120">
        <ele>187.4</ele>
        <time>2021-07-23T10:10:20Z</time>
      </trkpt>
      <trkpt lat="43.4978860" lon="-7.1488300">
        <ele>187.8</ele>
        <time>2021-07-23T10:10:21Z</time>
      </trkpt>
      <trkpt lat="43.4979130" lon="-7.1489170">
        <ele>187.8</ele>
        <time>2021-07-23T10:10:26Z</time>
      </trkpt>
      <trkpt lat="43.4979190" lon="-7.1489330">
        <ele>188.2</ele>
        <time>2021-07-23T10:10:27Z</time>
      </trkpt>
      <trkpt lat="43.4979240" lon="-7.1489520">
        <ele>188.6</ele>
        <time>2021-07-23T10:10:28Z</time>
      </trkpt>
      <trkpt lat="43.4979290" lon="-7.1489700">
        <ele>189.4</ele>
        <time>2021-07-23T10:10:29Z</time>
      </trkpt>
      <trkpt lat="43.4979360" lon="-7.1489840">
        <ele>189.8</ele>
        <time>2021-07-23T10:10:30Z</time>
      </trkpt>
      <trkpt lat="43.4979730" lon="-7.1490340">
        <ele>189.8</ele>
        <time>2021-07-23T10:10:34Z</time>
      </trkpt>
      <trkpt lat="43.4979850" lon="-7.1490660">
        <ele>190.2</ele>
        <time>2021-07-23T10:10:36Z</time>
      </trkpt>
      <trkpt lat="43.4979900" lon="-7.1490850">
        <ele>190.6</ele>
        <time>2021-07-23T10:10:37Z</time>
      </trkpt>
      <trkpt lat="43.4979950" lon="-7.1491040">
        <ele>191.0</ele>
        <time>2021-07-23T10:10:38Z</time>
      </trkpt>
      <trkpt lat="43.4980040" lon="-7.1491220">
        <ele>191.4</ele>
        <time>2021-07-23T10:10:39Z</time>
      </trkpt>
      <trkpt lat="43.4980110" lon="-7.1491380">
        <ele>191.8</ele>
        <time>2021-07-23T10:10:40Z</time>
      </trkpt>
      <trkpt lat="43.4980170" lon="-7.1491560">
        <ele>191.8</ele>
        <time>2021-07-23T10:10:41Z</time>
      </trkpt>
      <trkpt lat="43.4980830" lon="-7.1493060">
        <ele>191.8</ele>
        <time>2021-07-23T10:10:49Z</time>
      </trkpt>
      <trkpt lat="43.4981060" lon="-7.1493600">
        <ele>192.2</ele>
        <time>2021-07-23T10:10:52Z</time>
      </trkpt>
      <trkpt lat="43.4981130" lon="-7.1493760">
        <ele>192.6</ele>
        <time>2021-07-23T10:10:53Z</time>
      </trkpt>
      <trkpt lat="43.4981210" lon="-7.1493960">
        <ele>193.6</ele>
        <time>2021-07-23T10:10:54Z</time>
      </trkpt>
      <trkpt lat="43.4981300" lon="-7.1494170">
        <ele>194.0</ele>
        <time>2021-07-23T10:10:55Z</time>
      </trkpt>
      <trkpt lat="43.4981510" lon="-7.1494530">
        <ele>194.0</ele>
        <time>2021-07-23T10:10:57Z</time>
      </trkpt>
      <trkpt lat="43.4982000" lon="-7.1496050">
        <ele>194.0</ele>
        <time>2021-07-23T10:11:04Z</time>
      </trkpt>
      <trkpt lat="43.4982090" lon="-7.1496130">
        <ele>194.0</ele>
        <time>2021-07-23T10:11:05Z</time>
      </trkpt>
      <trkpt lat="43.4982180" lon="-7.1496230">
        <ele>194.4</ele>
        <time>2021-07-23T10:11:06Z</time>
      </trkpt>
      <trkpt lat="43.4982260" lon="-7.1496360">
        <ele>194.8</ele>
        <time>2021-07-23T10:11:07Z</time>
      </trkpt>
      <trkpt lat="43.4982330" lon="-7.1496500">
        <ele>195.2</ele>
        <time>2021-07-23T10:11:08Z</time>
      </trkpt>
      <trkpt lat="43.4982400" lon="-7.1496710">
        <ele>195.6</ele>
        <time>2021-07-23T10:11:09Z</time>
      </trkpt>
      <trkpt lat="43.4982490" lon="-7.1496880">
        <ele>196.0</ele>
        <time>2021-07-23T10:11:10Z</time>
      </trkpt>
      <trkpt lat="43.4982580" lon="-7.1497050">
        <ele>196.0</ele>
        <time>2021-07-23T10:11:11Z</time>
      </trkpt>
      <trkpt lat="43.4983100" lon="-7.1498180">
        <ele>196.0</ele>
        <time>2021-07-23T10:11:17Z</time>
      </trkpt>
      <trkpt lat="43.4983620" lon="-7.1499160">
        <ele>196.4</ele>
        <time>2021-07-23T10:11:22Z</time>
      </trkpt>
      <trkpt lat="43.4983670" lon="-7.1499340">
        <ele>196.8</ele>
        <time>2021-07-23T10:11:23Z</time>
      </trkpt>
      <trkpt lat="43.4983750" lon="-7.1499530">
        <ele>197.2</ele>
        <time>2021-07-23T10:11:24Z</time>
      </trkpt>
      <trkpt lat="43.4983830" lon="-7.1499750">
        <ele>197.6</ele>
        <time>2021-07-23T10:11:25Z</time>
      </trkpt>
      <trkpt lat="43.4983910" lon="-7.1499920">
        <ele>198.2</ele>
        <time>2021-07-23T10:11:26Z</time>
      </trkpt>
      <trkpt lat="43.4983970" lon="-7.1500100">
        <ele>198.2</ele>
        <time>2021-07-23T10:11:27Z</time>
      </trkpt>
      <trkpt lat="43.4984550" lon="-7.1501540">
        <ele>198.2</ele>
        <time>2021-07-23T10:11:35Z</time>
      </trkpt>
      <trkpt lat="43.4984760" lon="-7.1501870">
        <ele>198.6</ele>
        <time>2021-07-23T10:11:37Z</time>
      </trkpt>
      <trkpt lat="43.4984820" lon="-7.1502010">
        <ele>199.0</ele>
        <time>2021-07-23T10:11:38Z</time>
      </trkpt>
      <trkpt lat="43.4984900" lon="-7.1502140">
        <ele>199.4</ele>
        <time>2021-07-23T10:11:39Z</time>
      </trkpt>
      <trkpt lat="43.4984990" lon="-7.1502310">
        <ele>199.8</ele>
        <time>2021-07-23T10:11:40Z</time>
      </trkpt>
      <trkpt lat="43.4985040" lon="-7.1502480">
        <ele>200.2</ele>
        <time>2021-07-23T10:11:41Z</time>
      </trkpt>
      <trkpt lat="43.4985110" lon="-7.1502630">
        <ele>200.2</ele>
        <time>2021-07-23T10:11:42Z</time>
      </trkpt>
      <trkpt lat="43.4985580" lon="-7.1503810">
        <ele>200.2</ele>
        <time>2021-07-23T10:11:50Z</time>
      </trkpt>
      <trkpt lat="43.4985870" lon="-7.1504930">
        <ele>200.6</ele>
        <time>2021-07-23T10:11:57Z</time>
      </trkpt>
      <trkpt lat="43.4985890" lon="-7.1505110">
        <ele>201.0</ele>
        <time>2021-07-23T10:11:58Z</time>
      </trkpt>
      <trkpt lat="43.4985940" lon="-7.1505260">
        <ele>201.4</ele>
        <time>2021-07-23T10:11:59Z</time>
      </trkpt>
      <trkpt lat="43.4986020" lon="-7.1505400">
        <ele>201.8</ele>
        <time>2021-07-23T10:12:00Z</time>
      </trkpt>
      <trkpt lat="43.4986100" lon="-7.1505550">
        <ele>202.2</ele>
        <time>2021-07-23T10:12:01Z</time>
      </trkpt>
      <trkpt lat="43.4986250" lon="-7.1506380">
        <ele>202.2</ele>
        <time>2021-07-23T10:12:06Z</time>
      </trkpt>
      <trkpt lat="43.4986490" lon="-7.1507060">
        <ele>202.8</ele>
        <time>2021-07-23T10:12:11Z</time>
      </trkpt>
      <trkpt lat="43.4986530" lon="-7.1507180">
        <ele>203.2</ele>
        <time>2021-07-23T10:12:12Z</time>
      </trkpt>
      <trkpt lat="43.4986560" lon="-7.1507340">
        <ele>203.6</ele>
        <time>2021-07-23T10:12:13Z</time>
      </trkpt>
      <trkpt lat="43.4986610" lon="-7.1507500">
        <ele>204.0</ele>
        <time>2021-07-23T10:12:14Z</time>
      </trkpt>
      <trkpt lat="43.4986630" lon="-7.1507670">
        <ele>204.4</ele>
        <time>2021-07-23T10:12:15Z</time>
      </trkpt>
      <trkpt lat="43.4986890" lon="-7.1508650">
        <ele>205.0</ele>
        <time>2021-07-23T10:12:21Z</time>
      </trkpt>
      <trkpt lat="43.4986970" lon="-7.1508790">
        <ele>205.4</ele>
        <time>2021-07-23T10:12:22Z</time>
      </trkpt>
      <trkpt lat="43.4987060" lon="-7.1508930">
        <ele>205.8</ele>
        <time>2021-07-23T10:12:23Z</time>
      </trkpt>
      <trkpt lat="43.4987130" lon="-7.1509060">
        <ele>206.2</ele>
        <time>2021-07-23T10:12:24Z</time>
      </trkpt>
      <trkpt lat="43.4987200" lon="-7.1509180">
        <ele>206.6</ele>
        <time>2021-07-23T10:12:25Z</time>
      </trkpt>
      <trkpt lat="43.4987210" lon="-7.1509330">
        <ele>206.6</ele>
        <time>2021-07-23T10:12:26Z</time>
      </trkpt>
      <trkpt lat="43.4987380" lon="-7.1509850">
        <ele>206.6</ele>
        <time>2021-07-23T10:12:30Z</time>
      </trkpt>
      <trkpt lat="43.4987740" lon="-7.1510590">
        <ele>207.0</ele>
        <time>2021-07-23T10:12:35Z</time>
      </trkpt>
      <trkpt lat="43.4987770" lon="-7.1510730">
        <ele>207.4</ele>
        <time>2021-07-23T10:12:36Z</time>
      </trkpt>
      <trkpt lat="43.4987790" lon="-7.1510860">
        <ele>207.8</ele>
        <time>2021-07-23T10:12:37Z</time>
      </trkpt>
      <trkpt lat="43.4987800" lon="-7.1511030">
        <ele>208.2</ele>
        <time>2021-07-23T10:12:38Z</time>
      </trkpt>
      <trkpt lat="43.4987820" lon="-7.1511180">
        <ele>208.6</ele>
        <time>2021-07-23T10:12:39Z</time>
      </trkpt>
      <trkpt lat="43.4988320" lon="-7.1512070">
        <ele>208.6</ele>
        <time>2021-07-23T10:12:46Z</time>
      </trkpt>
      <trkpt lat="43.4988390" lon="-7.1512150">
        <ele>209.0</ele>
        <time>2021-07-23T10:12:47Z</time>
      </trkpt>
      <trkpt lat="43.4988460" lon="-7.1512280">
        <ele>209.4</ele>
        <time>2021-07-23T10:12:48Z</time>
      </trkpt>
      <trkpt lat="43.4988490" lon="-7.1512400">
        <ele>209.8</ele>
        <time>2021-07-23T10:12:49Z</time>
      </trkpt>
      <trkpt lat="43.4988550" lon="-7.1512550">
        <ele>210.2</ele>
        <time>2021-07-23T10:12:50Z</time>
      </trkpt>
      <trkpt lat="43.4988600" lon="-7.1512670">
        <ele>210.6</ele>
        <time>2021-07-23T10:12:51Z</time>
      </trkpt>
      <trkpt lat="43.4988860" lon="-7.1513010">
        <ele>210.6</ele>
        <time>2021-07-23T10:12:54Z</time>
      </trkpt>
      <trkpt lat="43.4989050" lon="-7.1513680">
        <ele>211.0</ele>
        <time>2021-07-23T10:12:59Z</time>
      </trkpt>
      <trkpt lat="43.4989090" lon="-7.1513790">
        <ele>211.4</ele>
        <time>2021-07-23T10:13:00Z</time>
      </trkpt>
      <trkpt lat="43.4989140" lon="-7.1513930">
        <ele>211.8</ele>
        <time>2021-07-23T10:13:01Z</time>
      </trkpt>
      <trkpt lat="43.4989200" lon="-7.1514080">
        <ele>212.2</ele>
        <time>2021-07-23T10:13:02Z</time>
      </trkpt>
      <trkpt lat="43.4989280" lon="-7.1514210">
        <ele>212.6</ele>
        <time>2021-07-23T10:13:03Z</time>
      </trkpt>
      <trkpt lat="43.4989770" lon="-7.1514760">
        <ele>212.6</ele>
        <time>2021-07-23T10:13:08Z</time>
      </trkpt>
      <trkpt lat="43.4990010" lon="-7.1515100">
        <ele>213.0</ele>
        <time>2021-07-23T10:13:11Z</time>
      </trkpt>
      <trkpt lat="43.4990080" lon="-7.1515210">
        <ele>213.6</ele>
        <time>2021-07-23T10:13:12Z</time>
      </trkpt>
      <trkpt lat="43.4990150" lon="-7.1515310">
        <ele>214.0</ele>
        <time>2021-07-23T10:13:13Z</time>
      </trkpt>
      <trkpt lat="43.4990200" lon="-7.1515420">
        <ele>214.4</ele>
        <time>2021-07-23T10:13:14Z</time>
      </trkpt>
      <trkpt lat="43.4990270" lon="-7.1515550">
        <ele>214.8</ele>
        <time>2021-07-23T10:13:15Z</time>
      </trkpt>
      <trkpt lat="43.4990330" lon="-7.1515690">
        <ele>214.8</ele>
        <time>2021-07-23T10:13:16Z</time>
      </trkpt>
      <trkpt lat="43.4990800" lon="-7.1516360">
        <ele>215.2</ele>
        <time>2021-07-23T10:13:21Z</time>
      </trkpt>
      <trkpt lat="43.4990890" lon="-7.1516470">
        <ele>215.6</ele>
        <time>2021-07-23T10:13:22Z</time>
      </trkpt>
      <trkpt lat="43.4990980" lon="-7.1516580">
        <ele>216.4</ele>
        <time>2021-07-23T10:13:23Z</time>
      </trkpt>
      <trkpt lat="43.4991080" lon="-7.1516700">
        <ele>216.8</ele>
        <time>2021-07-23T10:13:24Z</time>
      </trkpt>
      <trkpt lat="43.4991970" lon="-7.1517920">
        <ele>216.8</ele>
        <time>2021-07-23T10:13:33Z</time>
      </trkpt>
      <trkpt lat="43.4992480" lon="-7.1518530">
        <ele>217.2</ele>
        <time>2021-07-23T10:13:38Z</time>
      </trkpt>
      <trkpt lat="43.4992590" lon="-7.1518620">
        <ele>217.6</ele>
        <time>2021-07-23T10:13:39Z</time>
      </trkpt>
      <trkpt lat="43.4992680" lon="-7.1518770">
        <ele>218.0</ele>
        <time>2021-07-23T10:13:40Z</time>
      </trkpt>
      <trkpt lat="43.4992770" lon="-7.1518880">
        <ele>218.4</ele>
        <time>2021-07-23T10:13:41Z</time>
      </trkpt>
      <trkpt lat="43.4992870" lon="-7.1519000">
        <ele>218.8</ele>
        <time>2021-07-23T10:13:42Z</time>
      </trkpt>
      <trkpt lat="43.4992960" lon="-7.1519150">
        <ele>218.8</ele>
        <time>2021-07-23T10:13:43Z</time>
      </trkpt>
      <trkpt lat="43.4993590" lon="-7.1520360">
        <ele>218.8</ele>
        <time>2021-07-23T10:13:51Z</time>
      </trkpt>
      <trkpt lat="43.4993690" lon="-7.1520700">
        <ele>219.2</ele>
        <time>2021-07-23T10:13:53Z</time>
      </trkpt>
      <trkpt lat="43.4993770" lon="-7.1520860">
        <ele>219.8</ele>
        <time>2021-07-23T10:13:54Z</time>
      </trkpt>
      <trkpt lat="43.4993870" lon="-7.1521040">
        <ele>220.2</ele>
        <time>2021-07-23T10:13:55Z</time>
      </trkpt>
      <trkpt lat="43.4993960" lon="-7.1521180">
        <ele>220.6</ele>
        <time>2021-07-23T10:13:56Z</time>
      </trkpt>
      <trkpt lat="43.4994050" lon="-7.1521300">
        <ele>221.0</ele>
        <time>2021-07-23T10:13:57Z</time>
      </trkpt>
      <trkpt lat="43.4994140" lon="-7.1521630">
        <ele>221.0</ele>
        <time>2021-07-23T10:13:59Z</time>
      </trkpt>
      <trkpt lat="43.4994730" lon="-7.1523050">
        <ele>221.0</ele>
        <time>2021-07-23T10:14:07Z</time>
      </trkpt>
      <trkpt lat="43.4994800" lon="-7.1523400">
        <ele>221.4</ele>
        <time>2021-07-23T10:14:09Z</time>
      </trkpt>
      <trkpt lat="43.4994800" lon="-7.1523590">
        <ele>221.8</ele>
        <time>2021-07-23T10:14:10Z</time>
      </trkpt>
      <trkpt lat="43.4994820" lon="-7.1523780">
        <ele>222.2</ele>
        <time>2021-07-23T10:14:11Z</time>
      </trkpt>
      <trkpt lat="43.4994890" lon="-7.1523940">
        <ele>223.2</ele>
        <time>2021-07-23T10:14:12Z</time>
      </trkpt>
      <trkpt lat="43.4994970" lon="-7.1524290">
        <ele>223.2</ele>
        <time>2021-07-23T10:14:14Z</time>
      </trkpt>
      <trkpt lat="43.4995440" lon="-7.1525510">
        <ele>223.2</ele>
        <time>2021-07-23T10:14:22Z</time>
      </trkpt>
      <trkpt lat="43.4995510" lon="-7.1525610">
        <ele>223.6</ele>
        <time>2021-07-23T10:14:23Z</time>
      </trkpt>
      <trkpt lat="43.4995580" lon="-7.1525730">
        <ele>224.0</ele>
        <time>2021-07-23T10:14:24Z</time>
      </trkpt>
      <trkpt lat="43.4995660" lon="-7.1525840">
        <ele>224.4</ele>
        <time>2021-07-23T10:14:25Z</time>
      </trkpt>
      <trkpt lat="43.4995720" lon="-7.1525950">
        <ele>224.8</ele>
        <time>2021-07-23T10:14:26Z</time>
      </trkpt>
      <trkpt lat="43.4995790" lon="-7.1526090">
        <ele>225.4</ele>
        <time>2021-07-23T10:14:27Z</time>
      </trkpt>
      <trkpt lat="43.4996040" lon="-7.1526640">
        <ele>225.4</ele>
        <time>2021-07-23T10:14:31Z</time>
      </trkpt>
      <trkpt lat="43.4996350" lon="-7.1527330">
        <ele>225.8</ele>
        <time>2021-07-23T10:14:36Z</time>
      </trkpt>
      <trkpt lat="43.4996410" lon="-7.1527470">
        <ele>226.2</ele>
        <time>2021-07-23T10:14:37Z</time>
      </trkpt>
      <trkpt lat="43.4996460" lon="-7.1527650">
        <ele>226.6</ele>
        <time>2021-07-23T10:14:38Z</time>
      </trkpt>
      <trkpt lat="43.4996500" lon="-7.1527830">
        <ele>227.0</ele>
        <time>2021-07-23T10:14:39Z</time>
      </trkpt>
      <trkpt lat="43.4996570" lon="-7.1527980">
        <ele>227.6</ele>
        <time>2021-07-23T10:14:40Z</time>
      </trkpt>
      <trkpt lat="43.4997020" lon="-7.1528920">
        <ele>228.0</ele>
        <time>2021-07-23T10:14:47Z</time>
      </trkpt>
      <trkpt lat="43.4997080" lon="-7.1529090">
        <ele>228.4</ele>
        <time>2021-07-23T10:14:48Z</time>
      </trkpt>
      <trkpt lat="43.4997130" lon="-7.1529240">
        <ele>228.8</ele>
        <time>2021-07-23T10:14:49Z</time>
      </trkpt>
      <trkpt lat="43.4997200" lon="-7.1529380">
        <ele>229.2</ele>
        <time>2021-07-23T10:14:50Z</time>
      </trkpt>
      <trkpt lat="43.4997270" lon="-7.1529510">
        <ele>229.6</ele>
        <time>2021-07-23T10:14:51Z</time>
      </trkpt>
      <trkpt lat="43.4997580" lon="-7.1530210">
        <ele>229.6</ele>
        <time>2021-07-23T10:14:56Z</time>
      </trkpt>
      <trkpt lat="43.4997900" lon="-7.1531000">
        <ele>230.0</ele>
        <time>2021-07-23T10:15:02Z</time>
      </trkpt>
      <trkpt lat="43.4997930" lon="-7.1531090">
        <ele>230.4</ele>
        <time>2021-07-23T10:15:03Z</time>
      </trkpt>
      <trkpt lat="43.4997890" lon="-7.1531090">
        <ele>230.8</ele>
        <time>2021-07-23T10:15:04Z</time>
      </trkpt>
      <trkpt lat="43.5008760" lon="-7.1546350">
        <ele>252.8</ele>
        <time>2021-07-23T10:20:15Z</time>
      </trkpt>
      <trkpt lat="43.5008860" lon="-7.1546790">
        <ele>252.8</ele>
        <time>2021-07-23T10:20:18Z</time>
      </trkpt>
      <trkpt lat="43.5009030" lon="-7.1547680">
        <ele>252.8</ele>
        <time>2021-07-23T10:20:22Z</time>
      </trkpt>
      <trkpt lat="43.5009090" lon="-7.1548380">
        <ele>253.2</ele>
        <time>2021-07-23T10:20:25Z</time>
      </trkpt>
      <trkpt lat="43.5009100" lon="-7.1548630">
        <ele>253.6</ele>
        <time>2021-07-23T10:20:26Z</time>
      </trkpt>
      <trkpt lat="43.5009120" lon="-7.1548850">
        <ele>254.0</ele>
        <time>2021-07-23T10:20:27Z</time>
      </trkpt>
      <trkpt lat="43.5009140" lon="-7.1549090">
        <ele>254.4</ele>
        <time>2021-07-23T10:20:28Z</time>
      </trkpt>
      <trkpt lat="43.5009150" lon="-7.1549320">
        <ele>254.8</ele>
        <time>2021-07-23T10:20:29Z</time>
      </trkpt>
      <trkpt lat="43.5009210" lon="-7.1549970">
        <ele>254.8</ele>
        <time>2021-07-23T10:20:32Z</time>
      </trkpt>
      <trkpt lat="43.5009350" lon="-7.1550810">
        <ele>254.8</ele>
        <time>2021-07-23T10:20:36Z</time>
      </trkpt>
      <trkpt lat="43.5009400" lon="-7.1551570">
        <ele>255.2</ele>
        <time>2021-07-23T10:20:40Z</time>
      </trkpt>
      <trkpt lat="43.5009400" lon="-7.1551780">
        <ele>255.8</ele>
        <time>2021-07-23T10:20:41Z</time>
      </trkpt>
      <trkpt lat="43.5009410" lon="-7.1551970">
        <ele>256.2</ele>
        <time>2021-07-23T10:20:42Z</time>
      </trkpt>
      <trkpt lat="43.5009430" lon="-7.1552160">
        <ele>256.6</ele>
        <time>2021-07-23T10:20:43Z</time>
      </trkpt>
      <trkpt lat="43.5009440" lon="-7.1552340">
        <ele>257.0</ele>
        <time>2021-07-23T10:20:44Z</time>
      </trkpt>
      <trkpt lat="43.5009480" lon="-7.1553140">
        <ele>257.0</ele>
        <time>2021-07-23T10:20:48Z</time>
      </trkpt>
      <trkpt lat="43.5009470" lon="-7.1553350">
        <ele>257.0</ele>
        <time>2021-07-23T10:20:49Z</time>
      </trkpt>
      <trkpt lat="43.5009480" lon="-7.1554130">
        <ele>257.4</ele>
        <time>2021-07-23T10:20:53Z</time>
      </trkpt>
      <trkpt lat="43.5009450" lon="-7.1554330">
        <ele>257.8</ele>
        <time>2021-07-23T10:20:54Z</time>
      </trkpt>
      <trkpt lat="43.5009440" lon="-7.1554540">
        <ele>258.2</ele>
        <time>2021-07-23T10:20:55Z</time>
      </trkpt>
      <trkpt lat="43.5009440" lon="-7.1554730">
        <ele>258.6</ele>
        <time>2021-07-23T10:20:56Z</time>
      </trkpt>
      <trkpt lat="43.5009450" lon="-7.1554900">
        <ele>259.0</ele>
        <time>2021-07-23T10:20:57Z</time>
      </trkpt>
      <trkpt lat="43.5009500" lon="-7.1556080">
        <ele>259.0</ele>
        <time>2021-07-23T10:21:03Z</time>
      </trkpt>
      <trkpt lat="43.5009500" lon="-7.1557600">
        <ele>259.4</ele>
        <time>2021-07-23T10:21:10Z</time>
      </trkpt>
      <trkpt lat="43.5009460" lon="-7.1557820">
        <ele>259.8</ele>
        <time>2021-07-23T10:21:11Z</time>
      </trkpt>
      <trkpt lat="43.5009420" lon="-7.1558020">
        <ele>260.2</ele>
        <time>2021-07-23T10:21:12Z</time>
      </trkpt>
      <trkpt lat="43.5009380" lon="-7.1558210">
        <ele>261.0</ele>
        <time>2021-07-23T10:21:13Z</time>
      </trkpt>
      <trkpt lat="43.5009280" lon="-7.1559440">
        <ele>261.0</ele>
        <time>2021-07-23T10:21:19Z</time>
      </trkpt>
      <trkpt lat="43.5009270" lon="-7.1560370">
        <ele>261.0</ele>
        <time>2021-07-23T10:21:23Z</time>
      </trkpt>
      <trkpt lat="43.5009100" lon="-7.1561030">
        <ele>261.0</ele>
        <time>2021-07-23T10:21:26Z</time>
      </trkpt>
      <trkpt lat="43.5008860" lon="-7.1562810">
        <ele>261.0</ele>
        <time>2021-07-23T10:21:34Z</time>
      </trkpt>
      <trkpt lat="43.5008830" lon="-7.1563010">
        <ele>261.4</ele>
        <time>2021-07-23T10:21:35Z</time>
      </trkpt>
      <trkpt lat="43.5008790" lon="-7.1563230">
        <ele>261.8</ele>
        <time>2021-07-23T10:21:36Z</time>
      </trkpt>
      <trkpt lat="43.5008780" lon="-7.1563410">
        <ele>262.2</ele>
        <time>2021-07-23T10:21:37Z</time>
      </trkpt>
      <trkpt lat="43.5008760" lon="-7.1563590">
        <ele>263.0</ele>
        <time>2021-07-23T10:21:38Z</time>
      </trkpt>
      <trkpt lat="43.5008710" lon="-7.1563970">
        <ele>263.0</ele>
        <time>2021-07-23T10:21:40Z</time>
      </trkpt>
      <trkpt lat="43.5008610" lon="-7.1565150">
        <ele>263.0</ele>
        <time>2021-07-23T10:21:46Z</time>
      </trkpt>
      <trkpt lat="43.5008580" lon="-7.1565330">
        <ele>263.0</ele>
        <time>2021-07-23T10:21:47Z</time>
      </trkpt>
      <trkpt lat="43.5008520" lon="-7.1565740">
        <ele>263.4</ele>
        <time>2021-07-23T10:21:49Z</time>
      </trkpt>
      <trkpt lat="43.5008490" lon="-7.1565980">
        <ele>263.8</ele>
        <time>2021-07-23T10:21:50Z</time>
      </trkpt>
      <trkpt lat="43.5008440" lon="-7.1566230">
        <ele>264.2</ele>
        <time>2021-07-23T10:21:51Z</time>
      </trkpt>
      <trkpt lat="43.5008410" lon="-7.1566470">
        <ele>264.6</ele>
        <time>2021-07-23T10:21:52Z</time>
      </trkpt>
      <trkpt lat="43.5008380" lon="-7.1566730">
        <ele>265.0</ele>
        <time>2021-07-23T10:21:53Z</time>
      </trkpt>
      <trkpt lat="43.5008340" lon="-7.1566990">
        <ele>265.0</ele>
        <time>2021-07-23T10:21:54Z</time>
      </trkpt>
      <trkpt lat="43.5008290" lon="-7.1567270">
        <ele>265.0</ele>
        <time>2021-07-23T10:21:55Z</time>
      </trkpt>
      <trkpt lat="43.5008030" lon="-7.1568810">
        <ele>265.8</ele>
        <time>2021-07-23T10:22:02Z</time>
      </trkpt>
      <trkpt lat="43.5008000" lon="-7.1569010">
        <ele>266.2</ele>
        <time>2021-07-23T10:22:03Z</time>
      </trkpt>
      <trkpt lat="43.5007970" lon="-7.1569220">
        <ele>266.8</ele>
        <time>2021-07-23T10:22:04Z</time>
      </trkpt>
      <trkpt lat="43.5007930" lon="-7.1569450">
        <ele>267.2</ele>
        <time>2021-07-23T10:22:05Z</time>
      </trkpt>
      <trkpt lat="43.5007390" lon="-7.1570970">
        <ele>267.2</ele>
        <time>2021-07-23T10:22:12Z</time>
      </trkpt>
      <trkpt lat="43.5006440" lon="-7.1572300">
        <ele>267.6</ele>
        <time>2021-07-23T10:22:17Z</time>
      </trkpt>
      <trkpt lat="43.5006230" lon="-7.1572610">
        <ele>268.0</ele>
        <time>2021-07-23T10:22:18Z</time>
      </trkpt>
      <trkpt lat="43.5006020" lon="-7.1572890">
        <ele>268.4</ele>
        <time>2021-07-23T10:22:19Z</time>
      </trkpt>
      <trkpt lat="43.5005840" lon="-7.1573130">
        <ele>268.8</ele>
        <time>2021-07-23T10:22:20Z</time>
      </trkpt>
      <trkpt lat="43.5005650" lon="-7.1573350">
        <ele>269.2</ele>
        <time>2021-07-23T10:22:21Z</time>
      </trkpt>
      <trkpt lat="43.5005370" lon="-7.1573790">
        <ele>269.2</ele>
        <time>2021-07-23T10:22:23Z</time>
      </trkpt>
      <trkpt lat="43.5004390" lon="-7.1575070">
        <ele>269.2</ele>
        <time>2021-07-23T10:22:30Z</time>
      </trkpt>
      <trkpt lat="43.5003810" lon="-7.1575840">
        <ele>269.6</ele>
        <time>2021-07-23T10:22:35Z</time>
      </trkpt>
      <trkpt lat="43.5003690" lon="-7.1576070">
        <ele>270.0</ele>
        <time>2021-07-23T10:22:36Z</time>
      </trkpt>
      <trkpt lat="43.5003560" lon="-7.1576280">
        <ele>270.4</ele>
        <time>2021-07-23T10:22:37Z</time>
      </trkpt>
      <trkpt lat="43.5003440" lon="-7.1576510">
        <ele>270.8</ele>
        <time>2021-07-23T10:22:38Z</time>
      </trkpt>
      <trkpt lat="43.5003310" lon="-7.1576690">
        <ele>271.2</ele>
        <time>2021-07-23T10:22:39Z</time>
      </trkpt>
      <trkpt lat="43.5002430" lon="-7.1577690">
        <ele>271.2</ele>
        <time>2021-07-23T10:22:45Z</time>
      </trkpt>
      <trkpt lat="43.5001920" lon="-7.1578490">
        <ele>271.6</ele>
        <time>2021-07-23T10:22:49Z</time>
      </trkpt>
      <trkpt lat="43.5001770" lon="-7.1578700">
        <ele>272.0</ele>
        <time>2021-07-23T10:22:50Z</time>
      </trkpt>
      <trkpt lat="43.5001600" lon="-7.1578960">
        <ele>272.4</ele>
        <time>2021-07-23T10:22:51Z</time>
      </trkpt>
      <trkpt lat="43.5001490" lon="-7.1579180">
        <ele>273.2</ele>
        <time>2021-07-23T10:22:52Z</time>
      </trkpt>
      <trkpt lat="43.5000670" lon="-7.1580520">
        <ele>273.2</ele>
        <time>2021-07-23T10:22:59Z</time>
      </trkpt>
      <trkpt lat="43.5000220" lon="-7.1581620">
        <ele>273.6</ele>
        <time>2021-07-23T10:23:05Z</time>
      </trkpt>
      <trkpt lat="43.5000130" lon="-7.1581800">
        <ele>274.0</ele>
        <time>2021-07-23T10:23:06Z</time>
      </trkpt>
      <trkpt lat="43.5000040" lon="-7.1581960">
        <ele>274.4</ele>
        <time>2021-07-23T10:23:07Z</time>
      </trkpt>
      <trkpt lat="43.4999930" lon="-7.1582110">
        <ele>274.8</ele>
        <time>2021-07-23T10:23:08Z</time>
      </trkpt>
      <trkpt lat="43.4999830" lon="-7.1582270">
        <ele>275.2</ele>
        <time>2021-07-23T10:23:09Z</time>
      </trkpt>
      <trkpt lat="43.4999330" lon="-7.1583190">
        <ele>275.2</ele>
        <time>2021-07-23T10:23:14Z</time>
      </trkpt>
      <trkpt lat="43.4998690" lon="-7.1584600">
        <ele>275.8</ele>
        <time>2021-07-23T10:23:21Z</time>
      </trkpt>
      <trkpt lat="43.4998580" lon="-7.1584810">
        <ele>276.2</ele>
        <time>2021-07-23T10:23:22Z</time>
      </trkpt>
      <trkpt lat="43.4998510" lon="-7.1585040">
        <ele>276.6</ele>
        <time>2021-07-23T10:23:23Z</time>
      </trkpt>
      <trkpt lat="43.4998460" lon="-7.1585270">
        <ele>277.0</ele>
        <time>2021-07-23T10:23:24Z</time>
      </trkpt>
      <trkpt lat="43.4998380" lon="-7.1585510">
        <ele>277.4</ele>
        <time>2021-07-23T10:23:25Z</time>
      </trkpt>
      <trkpt lat="43.4998300" lon="-7.1585750">
        <ele>277.4</ele>
        <time>2021-07-23T10:23:26Z</time>
      </trkpt>
      <trkpt lat="43.4998190" lon="-7.1586170">
        <ele>277.4</ele>
        <time>2021-07-23T10:23:28Z</time>
      </trkpt>
      <trkpt lat="43.4998030" lon="-7.1586570">
        <ele>277.4</ele>
        <time>2021-07-23T10:23:30Z</time>
      </trkpt>
      <trkpt lat="43.4997770" lon="-7.1587760">
        <ele>277.4</ele>
        <time>2021-07-23T10:23:35Z</time>
      </trkpt>
      <trkpt lat="43.4997500" lon="-7.1589400">
        <ele>277.4</ele>
        <time>2021-07-23T10:23:41Z</time>
      </trkpt>
      <trkpt lat="43.4997430" lon="-7.1589670">
        <ele>277.8</ele>
        <time>2021-07-23T10:23:42Z</time>
      </trkpt>
      <trkpt lat="43.4997370" lon="-7.1589960">
        <ele>278.2</ele>
        <time>2021-07-23T10:23:43Z</time>
      </trkpt>
      <trkpt lat="43.4997330" lon="-7.1590200">
        <ele>278.6</ele>
        <time>2021-07-23T10:23:44Z</time>
      </trkpt>
      <trkpt lat="43.4997310" lon="-7.1590420">
        <ele>279.0</ele>
        <time>2021-07-23T10:23:45Z</time>
      </trkpt>
      <trkpt lat="43.4997290" lon="-7.1590650">
        <ele>279.4</ele>
        <time>2021-07-23T10:23:46Z</time>
      </trkpt>
      <trkpt lat="43.4997210" lon="-7.1591450">
        <ele>279.4</ele>
        <time>2021-07-23T10:23:49Z</time>
      </trkpt>
      <trkpt lat="43.4996880" lon="-7.1593000">
        <ele>279.4</ele>
        <time>2021-07-23T10:23:55Z</time>
      </trkpt>
      <trkpt lat="43.4996590" lon="-7.1594360">
        <ele>279.4</ele>
        <time>2021-07-23T10:24:00Z</time>
      </trkpt>
      <trkpt lat="43.4996440" lon="-7.1595100">
        <ele>279.4</ele>
        <time>2021-07-23T10:24:02Z</time>
      </trkpt>
      <trkpt lat="43.4995950" lon="-7.1597600">
        <ele>279.4</ele>
        <time>2021-07-23T10:24:09Z</time>
      </trkpt>
      <trkpt lat="43.4995670" lon="-7.1598820">
        <ele>279.8</ele>
        <time>2021-07-23T10:24:13Z</time>
      </trkpt>
      <trkpt lat="43.4995600" lon="-7.1599130">
        <ele>280.2</ele>
        <time>2021-07-23T10:24:14Z</time>
      </trkpt>
      <trkpt lat="43.4995540" lon="-7.1599430">
        <ele>280.6</ele>
        <time>2021-07-23T10:24:15Z</time>
      </trkpt>
      <trkpt lat="43.4995500" lon="-7.1599750">
        <ele>281.0</ele>
        <time>2021-07-23T10:24:16Z</time>
      </trkpt>
      <trkpt lat="43.4995450" lon="-7.1600090">
        <ele>281.4</ele>
        <time>2021-07-23T10:24:17Z</time>
      </trkpt>
      <trkpt lat="43.4995400" lon="-7.1600440">
        <ele>281.4</ele>
        <time>2021-07-23T10:24:18Z</time>
      </trkpt>
      <trkpt lat="43.4994940" lon="-7.1602760">
        <ele>281.4</ele>
        <time>2021-07-23T10:24:24Z</time>
      </trkpt>
      <trkpt lat="43.4994630" lon="-7.1605710">
        <ele>281.4</ele>
        <time>2021-07-23T10:24:32Z</time>
      </trkpt>
      <trkpt lat="43.4994640" lon="-7.1607000">
        <ele>281.4</ele>
        <time>2021-07-23T10:24:36Z</time>
      </trkpt>
      <trkpt lat="43.4994600" lon="-7.1607340">
        <ele>281.4</ele>
        <time>2021-07-23T10:24:37Z</time>
      </trkpt>
      <trkpt lat="43.4994270" lon="-7.1609770">
        <ele>281.4</ele>
        <time>2021-07-23T10:24:43Z</time>
      </trkpt>
      <trkpt lat="43.4994150" lon="-7.1610540">
        <ele>281.4</ele>
        <time>2021-07-23T10:24:45Z</time>
      </trkpt>
      <trkpt lat="43.4994000" lon="-7.1611730">
        <ele>281.4</ele>
        <time>2021-07-23T10:24:48Z</time>
      </trkpt>
      <trkpt lat="43.4993870" lon="-7.1612590">
        <ele>281.4</ele>
        <time>2021-07-23T10:24:50Z</time>
      </trkpt>
      <trkpt lat="43.4993380" lon="-7.1615270">
        <ele>281.4</ele>
        <time>2021-07-23T10:24:56Z</time>
      </trkpt>
      <trkpt lat="43.4993200" lon="-7.1616210">
        <ele>281.4</ele>
        <time>2021-07-23T10:24:58Z</time>
      </trkpt>
      <trkpt lat="43.4992710" lon="-7.1617470">
        <ele>281.4</ele>
        <time>2021-07-23T10:25:01Z</time>
      </trkpt>
      <trkpt lat="43.4992460" lon="-7.1618170">
        <ele>281.4</ele>
        <time>2021-07-23T10:25:03Z</time>
      </trkpt>
      <trkpt lat="43.4992150" lon="-7.1618900">
        <ele>281.4</ele>
        <time>2021-07-23T10:25:05Z</time>
      </trkpt>
      <trkpt lat="43.4991480" lon="-7.1620540">
        <ele>281.4</ele>
        <time>2021-07-23T10:25:09Z</time>
      </trkpt>
      <trkpt lat="43.4991290" lon="-7.1621010">
        <ele>281.4</ele>
        <time>2021-07-23T10:25:10Z</time>
      </trkpt>
      <trkpt lat="43.4990040" lon="-7.1623340">
        <ele>281.4</ele>
        <time>2021-07-23T10:25:16Z</time>
      </trkpt>
      <trkpt lat="43.4988680" lon="-7.1625330">
        <ele>281.4</ele>
        <time>2021-07-23T10:25:22Z</time>
      </trkpt>
      <trkpt lat="43.4988380" lon="-7.1625700">
        <ele>281.4</ele>
        <time>2021-07-23T10:25:23Z</time>
      </trkpt>
      <trkpt lat="43.4986640" lon="-7.1628730">
        <ele>281.4</ele>
        <time>2021-07-23T10:25:29Z</time>
      </trkpt>
      <trkpt lat="43.4986410" lon="-7.1629290">
        <ele>281.4</ele>
        <time>2021-07-23T10:25:30Z</time>
      </trkpt>
      <trkpt lat="43.4985880" lon="-7.1631800">
        <ele>281.4</ele>
        <time>2021-07-23T10:25:34Z</time>
      </trkpt>
      <trkpt lat="43.4985800" lon="-7.1632420">
        <ele>281.4</ele>
        <time>2021-07-23T10:25:35Z</time>
      </trkpt>
      <trkpt lat="43.4985780" lon="-7.1636070">
        <ele>281.4</ele>
        <time>2021-07-23T10:25:41Z</time>
      </trkpt>
      <trkpt lat="43.4985860" lon="-7.1639390">
        <ele>281.4</ele>
        <time>2021-07-23T10:25:47Z</time>
      </trkpt>
      <trkpt lat="43.4985870" lon="-7.1639850">
        <ele>281.4</ele>
        <time>2021-07-23T10:25:48Z</time>
      </trkpt>
      <trkpt lat="43.4985720" lon="-7.1642920">
        <ele>281.4</ele>
        <time>2021-07-23T10:25:54Z</time>
      </trkpt>
      <trkpt lat="43.4985570" lon="-7.1645590">
        <ele>281.4</ele>
        <time>2021-07-23T10:25:59Z</time>
      </trkpt>
      <trkpt lat="43.4985610" lon="-7.1647120">
        <ele>281.4</ele>
        <time>2021-07-23T10:26:02Z</time>
      </trkpt>
      <trkpt lat="43.4985390" lon="-7.1648700">
        <ele>281.4</ele>
        <time>2021-07-23T10:26:06Z</time>
      </trkpt>
      <trkpt lat="43.4985290" lon="-7.1649570">
        <ele>281.4</ele>
        <time>2021-07-23T10:26:09Z</time>
      </trkpt>
      <trkpt lat="43.4985300" lon="-7.1650330">
        <ele>281.4</ele>
        <time>2021-07-23T10:26:12Z</time>
      </trkpt>
      <trkpt lat="43.4985390" lon="-7.1650870">
        <ele>281.4</ele>
        <time>2021-07-23T10:26:14Z</time>
      </trkpt>
      <trkpt lat="43.4985440" lon="-7.1651210">
        <ele>282.0</ele>
        <time>2021-07-23T10:26:15Z</time>
      </trkpt>
      <trkpt lat="43.4985500" lon="-7.1651500">
        <ele>282.4</ele>
        <time>2021-07-23T10:26:16Z</time>
      </trkpt>
      <trkpt lat="43.4985580" lon="-7.1651830">
        <ele>282.8</ele>
        <time>2021-07-23T10:26:17Z</time>
      </trkpt>
      <trkpt lat="43.4985670" lon="-7.1652160">
        <ele>283.4</ele>
        <time>2021-07-23T10:26:18Z</time>
      </trkpt>
      <trkpt lat="43.4985770" lon="-7.1652440">
        <ele>283.8</ele>
        <time>2021-07-23T10:26:19Z</time>
      </trkpt>
      <trkpt lat="43.4985840" lon="-7.1652760">
        <ele>283.8</ele>
        <time>2021-07-23T10:26:20Z</time>
      </trkpt>
      <trkpt lat="43.4986090" lon="-7.1653940">
        <ele>283.8</ele>
        <time>2021-07-23T10:26:24Z</time>
      </trkpt>
      <trkpt lat="43.4986270" lon="-7.1654560">
        <ele>283.8</ele>
        <time>2021-07-23T10:26:26Z</time>
      </trkpt>
      <trkpt lat="43.4986740" lon="-7.1656850">
        <ele>283.8</ele>
        <time>2021-07-23T10:26:32Z</time>
      </trkpt>
      <trkpt lat="43.4987160" lon="-7.1658980">
        <ele>284.2</ele>
        <time>2021-07-23T10:26:38Z</time>
      </trkpt>
      <trkpt lat="43.4987210" lon="-7.1659350">
        <ele>284.6</ele>
        <time>2021-07-23T10:26:39Z</time>
      </trkpt>
      <trkpt lat="43.4987290" lon="-7.1659670">
        <ele>285.0</ele>
        <time>2021-07-23T10:26:40Z</time>
      </trkpt>
      <trkpt lat="43.4987400" lon="-7.1659960">
        <ele>285.4</ele>
        <time>2021-07-23T10:26:41Z</time>
      </trkpt>
      <trkpt lat="43.4987470" lon="-7.1660250">
        <ele>285.8</ele>
        <time>2021-07-23T10:26:42Z</time>
      </trkpt>
      <trkpt lat="43.4987720" lon="-7.1661930">
        <ele>285.8</ele>
        <time>2021-07-23T10:26:48Z</time>
      </trkpt>
      <trkpt lat="43.4988060" lon="-7.1662990">
        <ele>286.2</ele>
        <time>2021-07-23T10:26:52Z</time>
      </trkpt>
      <trkpt lat="43.4988140" lon="-7.1663260">
        <ele>286.8</ele>
        <time>2021-07-23T10:26:53Z</time>
      </trkpt>
      <trkpt lat="43.4988240" lon="-7.1663550">
        <ele>287.2</ele>
        <time>2021-07-23T10:26:54Z</time>
      </trkpt>
      <trkpt lat="43.4988320" lon="-7.1663840">
        <ele>287.6</ele>
        <time>2021-07-23T10:26:55Z</time>
      </trkpt>
      <trkpt lat="43.4988400" lon="-7.1664130">
        <ele>288.0</ele>
        <time>2021-07-23T10:26:56Z</time>
      </trkpt>
      <trkpt lat="43.4988780" lon="-7.1665530">
        <ele>288.0</ele>
        <time>2021-07-23T10:27:00Z</time>
      </trkpt>
      <trkpt lat="43.4989280" lon="-7.1667650">
        <ele>288.0</ele>
        <time>2021-07-23T10:27:06Z</time>
      </trkpt>
      <trkpt lat="43.4989470" lon="-7.1669880">
        <ele>288.0</ele>
        <time>2021-07-23T10:27:12Z</time>
      </trkpt>
      <trkpt lat="43.4989660" lon="-7.1673110">
        <ele>288.4</ele>
        <time>2021-07-23T10:27:19Z</time>
      </trkpt>
      <trkpt lat="43.4989660" lon="-7.1673510">
        <ele>288.8</ele>
        <time>2021-07-23T10:27:20Z</time>
      </trkpt>
      <trkpt lat="43.4989640" lon="-7.1673830">
        <ele>289.2</ele>
        <time>2021-07-23T10:27:21Z</time>
      </trkpt>
      <trkpt lat="43.4989670" lon="-7.1674140">
        <ele>289.6</ele>
        <time>2021-07-23T10:27:22Z</time>
      </trkpt>
      <trkpt lat="43.4989680" lon="-7.1674450">
        <ele>290.0</ele>
        <time>2021-07-23T10:27:23Z</time>
      </trkpt>
      <trkpt lat="43.4989650" lon="-7.1675400">
        <ele>290.0</ele>
        <time>2021-07-23T10:27:26Z</time>
      </trkpt>
      <trkpt lat="43.4989530" lon="-7.1677470">
        <ele>290.0</ele>
        <time>2021-07-23T10:27:32Z</time>
      </trkpt>
      <trkpt lat="43.4989370" lon="-7.1678900">
        <ele>290.0</ele>
        <time>2021-07-23T10:27:37Z</time>
      </trkpt>
      <trkpt lat="43.4989360" lon="-7.1679410">
        <ele>290.4</ele>
        <time>2021-07-23T10:27:39Z</time>
      </trkpt>
      <trkpt lat="43.4989340" lon="-7.1679640">
        <ele>290.8</ele>
        <time>2021-07-23T10:27:40Z</time>
      </trkpt>
      <trkpt lat="43.4989320" lon="-7.1679840">
        <ele>291.4</ele>
        <time>2021-07-23T10:27:41Z</time>
      </trkpt>
      <trkpt lat="43.4989320" lon="-7.1680090">
        <ele>291.8</ele>
        <time>2021-07-23T10:27:42Z</time>
      </trkpt>
      <trkpt lat="43.4989310" lon="-7.1680360">
        <ele>292.2</ele>
        <time>2021-07-23T10:27:43Z</time>
      </trkpt>
      <trkpt lat="43.4989310" lon="-7.1681720">
        <ele>292.2</ele>
        <time>2021-07-23T10:27:48Z</time>
      </trkpt>
      <trkpt lat="43.4989310" lon="-7.1682020">
        <ele>292.6</ele>
        <time>2021-07-23T10:27:49Z</time>
      </trkpt>
      <trkpt lat="43.4989300" lon="-7.1682300">
        <ele>293.0</ele>
        <time>2021-07-23T10:27:50Z</time>
      </trkpt>
      <trkpt lat="43.4989280" lon="-7.1682570">
        <ele>293.4</ele>
        <time>2021-07-23T10:27:51Z</time>
      </trkpt>
      <trkpt lat="43.4989260" lon="-7.1682850">
        <ele>293.8</ele>
        <time>2021-07-23T10:27:52Z</time>
      </trkpt>
      <trkpt lat="43.4989220" lon="-7.1683080">
        <ele>294.2</ele>
        <time>2021-07-23T10:27:53Z</time>
      </trkpt>
      <trkpt lat="43.4989440" lon="-7.1684380">
        <ele>294.2</ele>
        <time>2021-07-23T10:27:58Z</time>
      </trkpt>
      <trkpt lat="43.4989490" lon="-7.1684670">
        <ele>294.6</ele>
        <time>2021-07-23T10:27:59Z</time>
      </trkpt>
      <trkpt lat="43.4989540" lon="-7.1684960">
        <ele>295.0</ele>
        <time>2021-07-23T10:28:00Z</time>
      </trkpt>
      <trkpt lat="43.4989580" lon="-7.1685210">
        <ele>295.4</ele>
        <time>2021-07-23T10:28:01Z</time>
      </trkpt>
      <trkpt lat="43.4989640" lon="-7.1685440">
        <ele>295.8</ele>
        <time>2021-07-23T10:28:02Z</time>
      </trkpt>
      <trkpt lat="43.4989700" lon="-7.1685640">
        <ele>296.2</ele>
        <time>2021-07-23T10:28:03Z</time>
      </trkpt>
      <trkpt lat="43.4989720" lon="-7.1686060">
        <ele>296.2</ele>
        <time>2021-07-23T10:28:05Z</time>
      </trkpt>
      <trkpt lat="43.4989970" lon="-7.1687620">
        <ele>296.2</ele>
        <time>2021-07-23T10:28:11Z</time>
      </trkpt>
      <trkpt lat="43.4990200" lon="-7.1688340">
        <ele>296.6</ele>
        <time>2021-07-23T10:28:14Z</time>
      </trkpt>
      <trkpt lat="43.4990230" lon="-7.1688630">
        <ele>297.0</ele>
        <time>2021-07-23T10:28:15Z</time>
      </trkpt>
      <trkpt lat="43.4990270" lon="-7.1688940">
        <ele>297.4</ele>
        <time>2021-07-23T10:28:16Z</time>
      </trkpt>
      <trkpt lat="43.4990260" lon="-7.1689200">
        <ele>297.8</ele>
        <time>2021-07-23T10:28:17Z</time>
      </trkpt>
      <trkpt lat="43.4990230" lon="-7.1689360">
        <ele>298.2</ele>
        <time>2021-07-23T10:28:18Z</time>
      </trkpt>
      <trkpt lat="43.4990210" lon="-7.1689430">
        <ele>298.2</ele>
        <time>2021-07-23T10:28:19Z</time>
      </trkpt>
      <trkpt lat="43.4990120" lon="-7.1689940">
        <ele>300.6</ele>
        <time>2021-07-23T10:34:08Z</time>
      </trkpt>
      <trkpt lat="43.4990190" lon="-7.1690200">
        <ele>300.6</ele>
        <time>2021-07-23T10:34:09Z</time>
      </trkpt>
      <trkpt lat="43.4990370" lon="-7.1692020">
        <ele>300.6</ele>
        <time>2021-07-23T10:34:15Z</time>
      </trkpt>
      <trkpt lat="43.4990560" lon="-7.1694360">
        <ele>300.6</ele>
        <time>2021-07-23T10:34:22Z</time>
      </trkpt>
      <trkpt lat="43.4990680" lon="-7.1695710">
        <ele>300.6</ele>
        <time>2021-07-23T10:34:26Z</time>
      </trkpt>
      <trkpt lat="43.4990780" lon="-7.1696650">
        <ele>300.6</ele>
        <time>2021-07-23T10:34:29Z</time>
      </trkpt>
      <trkpt lat="43.4990940" lon="-7.1698600">
        <ele>300.6</ele>
        <time>2021-07-23T10:34:35Z</time>
      </trkpt>
      <trkpt lat="43.4991260" lon="-7.1700690">
        <ele>300.6</ele>
        <time>2021-07-23T10:34:41Z</time>
      </trkpt>
      <trkpt lat="43.4991340" lon="-7.1702770">
        <ele>301.0</ele>
        <time>2021-07-23T10:34:46Z</time>
      </trkpt>
      <trkpt lat="43.4991320" lon="-7.1703180">
        <ele>301.4</ele>
        <time>2021-07-23T10:34:47Z</time>
      </trkpt>
      <trkpt lat="43.4991280" lon="-7.1703600">
        <ele>301.8</ele>
        <time>2021-07-23T10:34:48Z</time>
      </trkpt>
      <trkpt lat="43.4991220" lon="-7.1704010">
        <ele>302.6</ele>
        <time>2021-07-23T10:34:49Z</time>
      </trkpt>
      <trkpt lat="43.4990860" lon="-7.1706630">
        <ele>302.6</ele>
        <time>2021-07-23T10:34:55Z</time>
      </trkpt>
      <trkpt lat="43.4990840" lon="-7.1707010">
        <ele>302.6</ele>
        <time>2021-07-23T10:34:56Z</time>
      </trkpt>
      <trkpt lat="43.4990750" lon="-7.1709370">
        <ele>302.6</ele>
        <time>2021-07-23T10:35:02Z</time>
      </trkpt>
      <trkpt lat="43.4990820" lon="-7.1710890">
        <ele>302.6</ele>
        <time>2021-07-23T10:35:06Z</time>
      </trkpt>
      <trkpt lat="43.4990840" lon="-7.1711570">
        <ele>302.6</ele>
        <time>2021-07-23T10:35:08Z</time>
      </trkpt>
      <trkpt lat="43.4991090" lon="-7.1713840">
        <ele>302.6</ele>
        <time>2021-07-23T10:35:13Z</time>
      </trkpt>
      <trkpt lat="43.4991230" lon="-7.1715790">
        <ele>302.6</ele>
        <time>2021-07-23T10:35:17Z</time>
      </trkpt>
      <trkpt lat="43.4991290" lon="-7.1716210">
        <ele>302.6</ele>
        <time>2021-07-23T10:35:18Z</time>
      </trkpt>
      <trkpt lat="43.4991330" lon="-7.1718760">
        <ele>302.6</ele>
        <time>2021-07-23T10:35:23Z</time>
      </trkpt>
      <trkpt lat="43.4991240" lon="-7.1722210">
        <ele>302.6</ele>
        <time>2021-07-23T10:35:30Z</time>
      </trkpt>
      <trkpt lat="43.4990930" lon="-7.1724810">
        <ele>302.6</ele>
        <time>2021-07-23T10:35:34Z</time>
      </trkpt>
      <trkpt lat="43.4990720" lon="-7.1726030">
        <ele>302.6</ele>
        <time>2021-07-23T10:35:36Z</time>
      </trkpt>
      <trkpt lat="43.4990600" lon="-7.1726610">
        <ele>302.6</ele>
        <time>2021-07-23T10:35:37Z</time>
      </trkpt>
      <trkpt lat="43.4990250" lon="-7.1728320">
        <ele>302.6</ele>
        <time>2021-07-23T10:35:40Z</time>
      </trkpt>
      <trkpt lat="43.4989770" lon="-7.1730020">
        <ele>302.6</ele>
        <time>2021-07-23T10:35:43Z</time>
      </trkpt>
      <trkpt lat="43.4989630" lon="-7.1730510">
        <ele>302.6</ele>
        <time>2021-07-23T10:35:44Z</time>
      </trkpt>
      <trkpt lat="43.4988970" lon="-7.1732100">
        <ele>302.6</ele>
        <time>2021-07-23T10:35:48Z</time>
      </trkpt>
      <trkpt lat="43.4988190" lon="-7.1734360">
        <ele>303.0</ele>
        <time>2021-07-23T10:35:54Z</time>
      </trkpt>
      <trkpt lat="43.4988090" lon="-7.1734670">
        <ele>303.6</ele>
        <time>2021-07-23T10:35:55Z</time>
      </trkpt>
      <trkpt lat="43.4987950" lon="-7.1735050">
        <ele>304.0</ele>
        <time>2021-07-23T10:35:56Z</time>
      </trkpt>
      <trkpt lat="43.4987760" lon="-7.1735440">
        <ele>304.4</ele>
        <time>2021-07-23T10:35:57Z</time>
      </trkpt>
      <trkpt lat="43.4987560" lon="-7.1735780">
        <ele>304.8</ele>
        <time>2021-07-23T10:35:58Z</time>
      </trkpt>
      <trkpt lat="43.4987350" lon="-7.1736140">
        <ele>304.8</ele>
        <time>2021-07-23T10:35:59Z</time>
      </trkpt>
      <trkpt lat="43.4986770" lon="-7.1737860">
        <ele>304.8</ele>
        <time>2021-07-23T10:36:04Z</time>
      </trkpt>
      <trkpt lat="43.4986530" lon="-7.1738910">
        <ele>304.8</ele>
        <time>2021-07-23T10:36:09Z</time>
      </trkpt>
      <trkpt lat="43.4986420" lon="-7.1739730">
        <ele>305.4</ele>
        <time>2021-07-23T10:36:12Z</time>
      </trkpt>
      <trkpt lat="43.4986370" lon="-7.1740000">
        <ele>305.8</ele>
        <time>2021-07-23T10:36:13Z</time>
      </trkpt>
      <trkpt lat="43.4986340" lon="-7.1740240">
        <ele>306.2</ele>
        <time>2021-07-23T10:36:14Z</time>
      </trkpt>
      <trkpt lat="43.4986320" lon="-7.1740520">
        <ele>306.8</ele>
        <time>2021-07-23T10:36:15Z</time>
      </trkpt>
      <trkpt lat="43.4986310" lon="-7.1740790">
        <ele>307.2</ele>
        <time>2021-07-23T10:36:16Z</time>
      </trkpt>
      <trkpt lat="43.4986240" lon="-7.1741650">
        <ele>307.2</ele>
        <time>2021-07-23T10:36:19Z</time>
      </trkpt>
      <trkpt lat="43.4986070" lon="-7.1743450">
        <ele>307.2</ele>
        <time>2021-07-23T10:36:26Z</time>
      </trkpt>
      <trkpt lat="43.4985930" lon="-7.1744310">
        <ele>308.0</ele>
        <time>2021-07-23T10:36:29Z</time>
      </trkpt>
      <trkpt lat="43.4985890" lon="-7.1744570">
        <ele>308.4</ele>
        <time>2021-07-23T10:36:30Z</time>
      </trkpt>
      <trkpt lat="43.4985840" lon="-7.1744840">
        <ele>308.8</ele>
        <time>2021-07-23T10:36:31Z</time>
      </trkpt>
      <trkpt lat="43.4985800" lon="-7.1745100">
        <ele>309.2</ele>
        <time>2021-07-23T10:36:32Z</time>
      </trkpt>
      <trkpt lat="43.4985730" lon="-7.1745680">
        <ele>309.2</ele>
        <time>2021-07-23T10:36:34Z</time>
      </trkpt>
      <trkpt lat="43.4985560" lon="-7.1746500">
        <ele>309.6</ele>
        <time>2021-07-23T10:36:37Z</time>
      </trkpt>
      <trkpt lat="43.4985500" lon="-7.1746770">
        <ele>310.2</ele>
        <time>2021-07-23T10:36:38Z</time>
      </trkpt>
      <trkpt lat="43.4985460" lon="-7.1747050">
        <ele>310.6</ele>
        <time>2021-07-23T10:36:39Z</time>
      </trkpt>
      <trkpt lat="43.4985440" lon="-7.1747330">
        <ele>311.2</ele>
        <time>2021-07-23T10:36:40Z</time>
      </trkpt>
      <trkpt lat="43.4985430" lon="-7.1747600">
        <ele>311.6</ele>
        <time>2021-07-23T10:36:41Z</time>
      </trkpt>
      <trkpt lat="43.4985390" lon="-7.1748110">
        <ele>311.6</ele>
        <time>2021-07-23T10:36:43Z</time>
      </trkpt>
      <trkpt lat="43.4985070" lon="-7.1750040">
        <ele>312.0</ele>
        <time>2021-07-23T10:36:51Z</time>
      </trkpt>
      <trkpt lat="43.4985050" lon="-7.1750230">
        <ele>312.4</ele>
        <time>2021-07-23T10:36:52Z</time>
      </trkpt>
      <trkpt lat="43.4985020" lon="-7.1750450">
        <ele>313.0</ele>
        <time>2021-07-23T10:36:53Z</time>
      </trkpt>
      <trkpt lat="43.4985010" lon="-7.1750670">
        <ele>313.8</ele>
        <time>2021-07-23T10:36:54Z</time>
      </trkpt>
      <trkpt lat="43.4984830" lon="-7.1751880">
        <ele>313.8</ele>
        <time>2021-07-23T10:36:59Z</time>
      </trkpt>
      <trkpt lat="43.4984800" lon="-7.1752090">
        <ele>314.2</ele>
        <time>2021-07-23T10:37:00Z</time>
      </trkpt>
      <trkpt lat="43.4984750" lon="-7.1752290">
        <ele>314.6</ele>
        <time>2021-07-23T10:37:01Z</time>
      </trkpt>
      <trkpt lat="43.4984730" lon="-7.1752500">
        <ele>315.0</ele>
        <time>2021-07-23T10:37:02Z</time>
      </trkpt>
      <trkpt lat="43.4984690" lon="-7.1752680">
        <ele>315.4</ele>
        <time>2021-07-23T10:37:03Z</time>
      </trkpt>
      <trkpt lat="43.4984690" lon="-7.1752890">
        <ele>316.0</ele>
        <time>2021-07-23T10:37:04Z</time>
      </trkpt>
      <trkpt lat="43.4984690" lon="-7.1753300">
        <ele>316.0</ele>
        <time>2021-07-23T10:37:06Z</time>
      </trkpt>
      <trkpt lat="43.4984650" lon="-7.1753540">
        <ele>316.4</ele>
        <time>2021-07-23T10:37:07Z</time>
      </trkpt>
      <trkpt lat="43.4984630" lon="-7.1753770">
        <ele>316.8</ele>
        <time>2021-07-23T10:37:08Z</time>
      </trkpt>
      <trkpt lat="43.4984640" lon="-7.1754030">
        <ele>317.2</ele>
        <time>2021-07-23T10:37:09Z</time>
      </trkpt>
      <trkpt lat="43.4984630" lon="-7.1754270">
        <ele>317.6</ele>
        <time>2021-07-23T10:37:10Z</time>
      </trkpt>
      <trkpt lat="43.4984630" lon="-7.1754480">
        <ele>318.0</ele>
        <time>2021-07-23T10:37:11Z</time>
      </trkpt>
      <trkpt lat="43.4984640" lon="-7.1754940">
        <ele>318.0</ele>
        <time>2021-07-23T10:37:13Z</time>
      </trkpt>
      <trkpt lat="43.4984770" lon="-7.1755880">
        <ele>318.4</ele>
        <time>2021-07-23T10:37:18Z</time>
      </trkpt>
      <trkpt lat="43.4984830" lon="-7.1756050">
        <ele>318.8</ele>
        <time>2021-07-23T10:37:19Z</time>
      </trkpt>
      <trkpt lat="43.4984870" lon="-7.1756260">
        <ele>319.2</ele>
        <time>2021-07-23T10:37:20Z</time>
      </trkpt>
      <trkpt lat="43.4984940" lon="-7.1756430">
        <ele>319.6</ele>
        <time>2021-07-23T10:37:21Z</time>
      </trkpt>
      <trkpt lat="43.4985030" lon="-7.1756600">
        <ele>320.0</ele>
        <time>2021-07-23T10:37:22Z</time>
      </trkpt>
      <trkpt lat="43.4985220" lon="-7.1756930">
        <ele>320.0</ele>
        <time>2021-07-23T10:37:24Z</time>
      </trkpt>
      <trkpt lat="43.4986140" lon="-7.1758000">
        <ele>320.6</ele>
        <time>2021-07-23T10:37:31Z</time>
      </trkpt>
      <trkpt lat="43.4986320" lon="-7.1758080">
        <ele>321.0</ele>
        <time>2021-07-23T10:37:32Z</time>
      </trkpt>
      <trkpt lat="43.4986490" lon="-7.1758140">
        <ele>321.4</ele>
        <time>2021-07-23T10:37:33Z</time>
      </trkpt>
      <trkpt lat="43.4986650" lon="-7.1758150">
        <ele>321.8</ele>
        <time>2021-07-23T10:37:34Z</time>
      </trkpt>
      <trkpt lat="43.4986840" lon="-7.1758190">
        <ele>322.2</ele>
        <time>2021-07-23T10:37:35Z</time>
      </trkpt>
      <trkpt lat="43.4987340" lon="-7.1758280">
        <ele>322.2</ele>
        <time>2021-07-23T10:37:38Z</time>
      </trkpt>
      <trkpt lat="43.4988360" lon="-7.1758370">
        <ele>322.2</ele>
        <time>2021-07-23T10:37:44Z</time>
      </trkpt>
      <trkpt lat="43.4988940" lon="-7.1758330">
        <ele>322.6</ele>
        <time>2021-07-23T10:37:47Z</time>
      </trkpt>
      <trkpt lat="43.4989130" lon="-7.1758310">
        <ele>323.0</ele>
        <time>2021-07-23T10:37:48Z</time>
      </trkpt>
      <trkpt lat="43.4989330" lon="-7.1758320">
        <ele>323.4</ele>
        <time>2021-07-23T10:37:49Z</time>
      </trkpt>
      <trkpt lat="43.4989520" lon="-7.1758360">
        <ele>323.8</ele>
        <time>2021-07-23T10:37:50Z</time>
      </trkpt>
      <trkpt lat="43.4989720" lon="-7.1758440">
        <ele>324.2</ele>
        <time>2021-07-23T10:37:51Z</time>
      </trkpt>
      <trkpt lat="43.4990720" lon="-7.1758810">
        <ele>324.2</ele>
        <time>2021-07-23T10:37:56Z</time>
      </trkpt>
      <trkpt lat="43.4991200" lon="-7.1760020">
        <ele>324.2</ele>
        <time>2021-07-23T10:38:01Z</time>
      </trkpt>
      <trkpt lat="43.4991100" lon="-7.1761480">
        <ele>324.2</ele>
        <time>2021-07-23T10:38:06Z</time>
      </trkpt>
      <trkpt lat="43.4991090" lon="-7.1762620">
        <ele>324.8</ele>
        <time>2021-07-23T10:38:10Z</time>
      </trkpt>
      <trkpt lat="43.4991070" lon="-7.1762910">
        <ele>325.2</ele>
        <time>2021-07-23T10:38:11Z</time>
      </trkpt>
      <trkpt lat="43.4991090" lon="-7.1763210">
        <ele>325.6</ele>
        <time>2021-07-23T10:38:12Z</time>
      </trkpt>
      <trkpt lat="43.4991100" lon="-7.1763480">
        <ele>326.0</ele>
        <time>2021-07-23T10:38:13Z</time>
      </trkpt>
      <trkpt lat="43.4991060" lon="-7.1763780">
        <ele>326.4</ele>
        <time>2021-07-23T10:38:14Z</time>
      </trkpt>
      <trkpt lat="43.4990820" lon="-7.1765370">
        <ele>326.4</ele>
        <time>2021-07-23T10:38:20Z</time>
      </trkpt>
      <trkpt lat="43.4990610" lon="-7.1767100">
        <ele>326.8</ele>
        <time>2021-07-23T10:38:27Z</time>
      </trkpt>
      <trkpt lat="43.4990590" lon="-7.1767320">
        <ele>327.2</ele>
        <time>2021-07-23T10:38:28Z</time>
      </trkpt>
      <trkpt lat="43.4990570" lon="-7.1767520">
        <ele>327.6</ele>
        <time>2021-07-23T10:38:29Z</time>
      </trkpt>
      <trkpt lat="43.4990520" lon="-7.1767690">
        <ele>328.0</ele>
        <time>2021-07-23T10:38:30Z</time>
      </trkpt>
      <trkpt lat="43.4990510" lon="-7.1767880">
        <ele>328.4</ele>
        <time>2021-07-23T10:38:31Z</time>
      </trkpt>
      <trkpt lat="43.4990360" lon="-7.1768910">
        <ele>328.4</ele>
        <time>2021-07-23T10:38:36Z</time>
      </trkpt>
      <trkpt lat="43.4990310" lon="-7.1769100">
        <ele>328.8</ele>
        <time>2021-07-23T10:38:37Z</time>
      </trkpt>
      <trkpt lat="43.4990310" lon="-7.1769280">
        <ele>329.2</ele>
        <time>2021-07-23T10:38:38Z</time>
      </trkpt>
      <trkpt lat="43.4990250" lon="-7.1769470">
        <ele>329.6</ele>
        <time>2021-07-23T10:38:39Z</time>
      </trkpt>
      <trkpt lat="43.4990190" lon="-7.1769660">
        <ele>330.0</ele>
        <time>2021-07-23T10:38:40Z</time>
      </trkpt>
      <trkpt lat="43.4990170" lon="-7.1769860">
        <ele>330.4</ele>
        <time>2021-07-23T10:38:41Z</time>
      </trkpt>
      <trkpt lat="43.4990180" lon="-7.1770060">
        <ele>330.4</ele>
        <time>2021-07-23T10:38:42Z</time>
      </trkpt>
      <trkpt lat="43.4990030" lon="-7.1771080">
        <ele>330.4</ele>
        <time>2021-07-23T10:38:48Z</time>
      </trkpt>
      <trkpt lat="43.4989980" lon="-7.1771220">
        <ele>330.4</ele>
        <time>2021-07-23T10:38:49Z</time>
      </trkpt>
      <trkpt lat="43.4989960" lon="-7.1771420">
        <ele>330.8</ele>
        <time>2021-07-23T10:38:50Z</time>
      </trkpt>
      <trkpt lat="43.4989900" lon="-7.1771590">
        <ele>331.2</ele>
        <time>2021-07-23T10:38:51Z</time>
      </trkpt>
      <trkpt lat="43.4989870" lon="-7.1771750">
        <ele>331.8</ele>
        <time>2021-07-23T10:38:52Z</time>
      </trkpt>
      <trkpt lat="43.4989860" lon="-7.1771900">
        <ele>332.2</ele>
        <time>2021-07-23T10:38:53Z</time>
      </trkpt>
      <trkpt lat="43.4989830" lon="-7.1772060">
        <ele>332.6</ele>
        <time>2021-07-23T10:38:54Z</time>
      </trkpt>
      <trkpt lat="43.4989770" lon="-7.1772290">
        <ele>332.6</ele>
        <time>2021-07-23T10:38:55Z</time>
      </trkpt>
      <trkpt lat="43.4989580" lon="-7.1772990">
        <ele>332.6</ele>
        <time>2021-07-23T10:38:58Z</time>
      </trkpt>
      <trkpt lat="43.4989430" lon="-7.1773390">
        <ele>333.0</ele>
        <time>2021-07-23T10:39:00Z</time>
      </trkpt>
      <trkpt lat="43.4989350" lon="-7.1773620">
        <ele>333.4</ele>
        <time>2021-07-23T10:39:01Z</time>
      </trkpt>
      <trkpt lat="43.4989320" lon="-7.1773850">
        <ele>334.0</ele>
        <time>2021-07-23T10:39:02Z</time>
      </trkpt>
      <trkpt lat="43.4989260" lon="-7.1774070">
        <ele>334.4</ele>
        <time>2021-07-23T10:39:03Z</time>
      </trkpt>
      <trkpt lat="43.4989200" lon="-7.1774290">
        <ele>334.8</ele>
        <time>2021-07-23T10:39:04Z</time>
      </trkpt>
      <trkpt lat="43.4988720" lon="-7.1775270">
        <ele>334.8</ele>
        <time>2021-07-23T10:39:09Z</time>
      </trkpt>
      <trkpt lat="43.4987550" lon="-7.1777390">
        <ele>334.8</ele>
        <time>2021-07-23T10:39:16Z</time>
      </trkpt>
      <trkpt lat="43.4986080" lon="-7.1780000">
        <ele>334.8</ele>
        <time>2021-07-23T10:39:23Z</time>
      </trkpt>
      <trkpt lat="43.4985860" lon="-7.1780410">
        <ele>334.8</ele>
        <time>2021-07-23T10:39:24Z</time>
      </trkpt>
      <trkpt lat="43.4984980" lon="-7.1782320">
        <ele>334.8</ele>
        <time>2021-07-23T10:39:29Z</time>
      </trkpt>
      <trkpt lat="43.4984530" lon="-7.1783570">
        <ele>334.8</ele>
        <time>2021-07-23T10:39:32Z</time>
      </trkpt>
      <trkpt lat="43.4984210" lon="-7.1784790">
        <ele>334.8</ele>
        <time>2021-07-23T10:39:35Z</time>
      </trkpt>
      <trkpt lat="43.4983800" lon="-7.1786430">
        <ele>334.8</ele>
        <time>2021-07-23T10:39:39Z</time>
      </trkpt>
      <trkpt lat="43.4982760" lon="-7.1790030">
        <ele>334.8</ele>
        <time>2021-07-23T10:39:48Z</time>
      </trkpt>
      <trkpt lat="43.4982240" lon="-7.1791680">
        <ele>335.2</ele>
        <time>2021-07-23T10:39:52Z</time>
      </trkpt>
      <trkpt lat="43.4982110" lon="-7.1792160">
        <ele>335.6</ele>
        <time>2021-07-23T10:39:53Z</time>
      </trkpt>
      <trkpt lat="43.4981980" lon="-7.1792630">
        <ele>336.0</ele>
        <time>2021-07-23T10:39:54Z</time>
      </trkpt>
      <trkpt lat="43.4981840" lon="-7.1793060">
        <ele>336.4</ele>
        <time>2021-07-23T10:39:55Z</time>
      </trkpt>
      <trkpt lat="43.4981710" lon="-7.1793480">
        <ele>337.0</ele>
        <time>2021-07-23T10:39:56Z</time>
      </trkpt>
      <trkpt lat="43.4980820" lon="-7.1796440">
        <ele>337.0</ele>
        <time>2021-07-23T10:40:04Z</time>
      </trkpt>
      <trkpt lat="43.4980620" lon="-7.1797140">
        <ele>337.4</ele>
        <time>2021-07-23T10:40:06Z</time>
      </trkpt>
      <trkpt lat="43.4980530" lon="-7.1797460">
        <ele>337.8</ele>
        <time>2021-07-23T10:40:07Z</time>
      </trkpt>
      <trkpt lat="43.4980430" lon="-7.1797790">
        <ele>338.2</ele>
        <time>2021-07-23T10:40:08Z</time>
      </trkpt>
      <trkpt lat="43.4980320" lon="-7.1798120">
        <ele>338.6</ele>
        <time>2021-07-23T10:40:09Z</time>
      </trkpt>
      <trkpt lat="43.4980210" lon="-7.1798440">
        <ele>339.0</ele>
        <time>2021-07-23T10:40:10Z</time>
      </trkpt>
      <trkpt lat="43.4980080" lon="-7.1798770">
        <ele>339.0</ele>
        <time>2021-07-23T10:40:11Z</time>
      </trkpt>
      <trkpt lat="43.4979260" lon="-7.1801120">
        <ele>339.0</ele>
        <time>2021-07-23T10:40:19Z</time>
      </trkpt>
      <trkpt lat="43.4978650" lon="-7.1802970">
        <ele>339.0</ele>
        <time>2021-07-23T10:40:27Z</time>
      </trkpt>
      <trkpt lat="43.4978180" lon="-7.1804470">
        <ele>339.4</ele>
        <time>2021-07-23T10:40:33Z</time>
      </trkpt>
      <trkpt lat="43.4978120" lon="-7.1804720">
        <ele>339.8</ele>
        <time>2021-07-23T10:40:34Z</time>
      </trkpt>
      <trkpt lat="43.4978020" lon="-7.1804960">
        <ele>340.2</ele>
        <time>2021-07-23T10:40:35Z</time>
      </trkpt>
      <trkpt lat="43.4977960" lon="-7.1805210">
        <ele>341.2</ele>
        <time>2021-07-23T10:40:36Z</time>
      </trkpt>
      <trkpt lat="43.4977460" lon="-7.1806710">
        <ele>341.2</ele>
        <time>2021-07-23T10:40:43Z</time>
      </trkpt>
      <trkpt lat="43.4977130" lon="-7.1808100">
        <ele>341.2</ele>
        <time>2021-07-23T10:40:49Z</time>
      </trkpt>
      <trkpt lat="43.4976860" lon="-7.1809020">
        <ele>341.6</ele>
        <time>2021-07-23T10:40:53Z</time>
      </trkpt>
      <trkpt lat="43.4976790" lon="-7.1809250">
        <ele>342.0</ele>
        <time>2021-07-23T10:40:54Z</time>
      </trkpt>
      <trkpt lat="43.4976730" lon="-7.1809460">
        <ele>342.4</ele>
        <time>2021-07-23T10:40:55Z</time>
      </trkpt>
      <trkpt lat="43.4976650" lon="-7.1809680">
        <ele>342.8</ele>
        <time>2021-07-23T10:40:56Z</time>
      </trkpt>
      <trkpt lat="43.4976570" lon="-7.1809900">
        <ele>343.2</ele>
        <time>2021-07-23T10:40:57Z</time>
      </trkpt>
      <trkpt lat="43.4976130" lon="-7.1811470">
        <ele>343.2</ele>
        <time>2021-07-23T10:41:04Z</time>
      </trkpt>
      <trkpt lat="43.4975980" lon="-7.1812040">
        <ele>343.6</ele>
        <time>2021-07-23T10:41:07Z</time>
      </trkpt>
      <trkpt lat="43.4975920" lon="-7.1812230">
        <ele>344.0</ele>
        <time>2021-07-23T10:41:08Z</time>
      </trkpt>
      <trkpt lat="43.4975850" lon="-7.1812440">
        <ele>344.4</ele>
        <time>2021-07-23T10:41:09Z</time>
      </trkpt>
      <trkpt lat="43.4975770" lon="-7.1812640">
        <ele>344.8</ele>
        <time>2021-07-23T10:41:10Z</time>
      </trkpt>
      <trkpt lat="43.4975700" lon="-7.1812830">
        <ele>345.2</ele>
        <time>2021-07-23T10:41:11Z</time>
      </trkpt>
      <trkpt lat="43.4975010" lon="-7.1814370">
        <ele>345.2</ele>
        <time>2021-07-23T10:41:19Z</time>
      </trkpt>
      <trkpt lat="43.4974670" lon="-7.1814880">
        <ele>345.6</ele>
        <time>2021-07-23T10:41:22Z</time>
      </trkpt>
      <trkpt lat="43.4974590" lon="-7.1815070">
        <ele>346.0</ele>
        <time>2021-07-23T10:41:23Z</time>
      </trkpt>
      <trkpt lat="43.4974510" lon="-7.1815230">
        <ele>346.4</ele>
        <time>2021-07-23T10:41:24Z</time>
      </trkpt>
      <trkpt lat="43.4974410" lon="-7.1815400">
        <ele>346.8</ele>
        <time>2021-07-23T10:41:25Z</time>
      </trkpt>
      <trkpt lat="43.4974310" lon="-7.1815550">
        <ele>347.4</ele>
        <time>2021-07-23T10:41:26Z</time>
      </trkpt>
      <trkpt lat="43.4973440" lon="-7.1816810">
        <ele>347.8</ele>
        <time>2021-07-23T10:41:35Z</time>
      </trkpt>
      <trkpt lat="43.4973340" lon="-7.1816910">
        <ele>348.2</ele>
        <time>2021-07-23T10:41:36Z</time>
      </trkpt>
      <trkpt lat="43.4973260" lon="-7.1817000">
        <ele>348.6</ele>
        <time>2021-07-23T10:41:37Z</time>
      </trkpt>
      <trkpt lat="43.4973160" lon="-7.1817130">
        <ele>349.4</ele>
        <time>2021-07-23T10:41:38Z</time>
      </trkpt>
      <trkpt lat="43.4972780" lon="-7.1817810">
        <ele>349.4</ele>
        <time>2021-07-23T10:41:42Z</time>
      </trkpt>
      <trkpt lat="43.4972740" lon="-7.1818210">
        <ele>349.8</ele>
        <time>2021-07-23T10:41:44Z</time>
      </trkpt>
      <trkpt lat="43.4972750" lon="-7.1818430">
        <ele>350.2</ele>
        <time>2021-07-23T10:41:45Z</time>
      </trkpt>
      <trkpt lat="43.4972770" lon="-7.1818630">
        <ele>350.6</ele>
        <time>2021-07-23T10:41:46Z</time>
      </trkpt>
      <trkpt lat="43.4972820" lon="-7.1818870">
        <ele>351.0</ele>
        <time>2021-07-23T10:41:47Z</time>
      </trkpt>
      <trkpt lat="43.4972880" lon="-7.1819130">
        <ele>351.4</ele>
        <time>2021-07-23T10:41:48Z</time>
      </trkpt>
      <trkpt lat="43.4973240" lon="-7.1821190">
        <ele>351.4</ele>
        <time>2021-07-23T10:41:54Z</time>
      </trkpt>
      <trkpt lat="43.4973770" lon="-7.1823920">
        <ele>351.4</ele>
        <time>2021-07-23T10:42:01Z</time>
      </trkpt>
      <trkpt lat="43.4973970" lon="-7.1825250">
        <ele>351.4</ele>
        <time>2021-07-23T10:42:04Z</time>
      </trkpt>
      <trkpt lat="43.4974020" lon="-7.1826120">
        <ele>351.4</ele>
        <time>2021-07-23T10:42:06Z</time>
      </trkpt>
      <trkpt lat="43.4974020" lon="-7.1826930">
        <ele>351.4</ele>
        <time>2021-07-23T10:42:08Z</time>
      </trkpt>
      <trkpt lat="43.4973950" lon="-7.1827680">
        <ele>351.4</ele>
        <time>2021-07-23T10:42:10Z</time>
      </trkpt>
      <trkpt lat="43.4973930" lon="-7.1828360">
        <ele>351.4</ele>
        <time>2021-07-23T10:42:12Z</time>
      </trkpt>
      <trkpt lat="43.4973840" lon="-7.1829250">
        <ele>351.4</ele>
        <time>2021-07-23T10:42:14Z</time>
      </trkpt>
      <trkpt lat="43.4973260" lon="-7.1832230">
        <ele>351.4</ele>
        <time>2021-07-23T10:42:21Z</time>
      </trkpt>
      <trkpt lat="43.4972370" lon="-7.1834830">
        <ele>351.4</ele>
        <time>2021-07-23T10:42:27Z</time>
      </trkpt>
      <trkpt lat="43.4971430" lon="-7.1836740">
        <ele>351.4</ele>
        <time>2021-07-23T10:42:33Z</time>
      </trkpt>
      <trkpt lat="43.4970220" lon="-7.1838580">
        <ele>351.4</ele>
        <time>2021-07-23T10:42:39Z</time>
      </trkpt>
      <trkpt lat="43.4969800" lon="-7.1839180">
        <ele>351.4</ele>
        <time>2021-07-23T10:42:41Z</time>
      </trkpt>
      <trkpt lat="43.4968510" lon="-7.1841360">
        <ele>351.4</ele>
        <time>2021-07-23T10:42:47Z</time>
      </trkpt>
      <trkpt lat="43.4968290" lon="-7.1841770">
        <ele>351.8</ele>
        <time>2021-07-23T10:42:48Z</time>
      </trkpt>
      <trkpt lat="43.4968110" lon="-7.1842160">
        <ele>352.2</ele>
        <time>2021-07-23T10:42:49Z</time>
      </trkpt>
      <trkpt lat="43.4967930" lon="-7.1842530">
        <ele>352.6</ele>
        <time>2021-07-23T10:42:50Z</time>
      </trkpt>
      <trkpt lat="43.4967750" lon="-7.1842920">
        <ele>353.0</ele>
        <time>2021-07-23T10:42:51Z</time>
      </trkpt>
      <trkpt lat="43.4967570" lon="-7.1843320">
        <ele>353.4</ele>
        <time>2021-07-23T10:42:52Z</time>
      </trkpt>
      <trkpt lat="43.4967110" lon="-7.1844430">
        <ele>353.4</ele>
        <time>2021-07-23T10:42:55Z</time>
      </trkpt>
      <trkpt lat="43.4966290" lon="-7.1847530">
        <ele>353.4</ele>
        <time>2021-07-23T10:43:02Z</time>
      </trkpt>
      <trkpt lat="43.4965470" lon="-7.1850200">
        <ele>353.4</ele>
        <time>2021-07-23T10:43:08Z</time>
      </trkpt>
      <trkpt lat="43.4964810" lon="-7.1852480">
        <ele>353.4</ele>
        <time>2021-07-23T10:43:14Z</time>
      </trkpt>
      <trkpt lat="43.4964660" lon="-7.1853220">
        <ele>353.8</ele>
        <time>2021-07-23T10:43:16Z</time>
      </trkpt>
      <trkpt lat="43.4964600" lon="-7.1853590">
        <ele>354.6</ele>
        <time>2021-07-23T10:43:17Z</time>
      </trkpt>
      <trkpt lat="43.4964570" lon="-7.1853990">
        <ele>355.0</ele>
        <time>2021-07-23T10:43:18Z</time>
      </trkpt>
      <trkpt lat="43.4964550" lon="-7.1854420">
        <ele>355.4</ele>
        <time>2021-07-23T10:43:19Z</time>
      </trkpt>
      <trkpt lat="43.4964530" lon="-7.1854820">
        <ele>355.4</ele>
        <time>2021-07-23T10:43:20Z</time>
      </trkpt>
      <trkpt lat="43.4964290" lon="-7.1857080">
        <ele>355.4</ele>
        <time>2021-07-23T10:43:26Z</time>
      </trkpt>
      <trkpt lat="43.4963930" lon="-7.1859190">
        <ele>356.0</ele>
        <time>2021-07-23T10:43:33Z</time>
      </trkpt>
      <trkpt lat="43.4963860" lon="-7.1859440">
        <ele>356.4</ele>
        <time>2021-07-23T10:43:34Z</time>
      </trkpt>
      <trkpt lat="43.4963800" lon="-7.1859700">
        <ele>356.8</ele>
        <time>2021-07-23T10:43:35Z</time>
      </trkpt>
      <trkpt lat="43.4963730" lon="-7.1859930">
        <ele>357.2</ele>
        <time>2021-07-23T10:43:36Z</time>
      </trkpt>
      <trkpt lat="43.4963700" lon="-7.1860180">
        <ele>357.8</ele>
        <time>2021-07-23T10:43:37Z</time>
      </trkpt>
      <trkpt lat="43.4963390" lon="-7.1861070">
        <ele>357.8</ele>
        <time>2021-07-23T10:43:41Z</time>
      </trkpt>
      <trkpt lat="43.4963260" lon="-7.1861650">
        <ele>358.2</ele>
        <time>2021-07-23T10:43:44Z</time>
      </trkpt>
      <trkpt lat="43.4963190" lon="-7.1861840">
        <ele>358.6</ele>
        <time>2021-07-23T10:43:45Z</time>
      </trkpt>
      <trkpt lat="43.4963130" lon="-7.1862040">
        <ele>359.0</ele>
        <time>2021-07-23T10:43:46Z</time>
      </trkpt>
      <trkpt lat="43.4963090" lon="-7.1862250">
        <ele>359.4</ele>
        <time>2021-07-23T10:43:47Z</time>
      </trkpt>
      <trkpt lat="43.4963050" lon="-7.1862450">
        <ele>360.0</ele>
        <time>2021-07-23T10:43:48Z</time>
      </trkpt>
      <trkpt lat="43.4962740" lon="-7.1863710">
        <ele>360.0</ele>
        <time>2021-07-23T10:43:54Z</time>
      </trkpt>
      <trkpt lat="43.4962730" lon="-7.1863940">
        <ele>360.4</ele>
        <time>2021-07-23T10:43:55Z</time>
      </trkpt>
      <trkpt lat="43.4962690" lon="-7.1864170">
        <ele>360.8</ele>
        <time>2021-07-23T10:43:56Z</time>
      </trkpt>
      <trkpt lat="43.4962640" lon="-7.1864400">
        <ele>361.2</ele>
        <time>2021-07-23T10:43:57Z</time>
      </trkpt>
      <trkpt lat="43.4962620" lon="-7.1864630">
        <ele>361.6</ele>
        <time>2021-07-23T10:43:58Z</time>
      </trkpt>
      <trkpt lat="43.4962620" lon="-7.1864870">
        <ele>362.0</ele>
        <time>2021-07-23T10:43:59Z</time>
      </trkpt>
      <trkpt lat="43.4962620" lon="-7.1865320">
        <ele>362.0</ele>
        <time>2021-07-23T10:44:01Z</time>
      </trkpt>
      <trkpt lat="43.4962410" lon="-7.1866680">
        <ele>362.0</ele>
        <time>2021-07-23T10:44:07Z</time>
      </trkpt>
      <trkpt lat="43.4962240" lon="-7.1867350">
        <ele>362.4</ele>
        <time>2021-07-23T10:44:10Z</time>
      </trkpt>
      <trkpt lat="43.4962200" lon="-7.1867580">
        <ele>363.0</ele>
        <time>2021-07-23T10:44:11Z</time>
      </trkpt>
      <trkpt lat="43.4962150" lon="-7.1867800">
        <ele>363.4</ele>
        <time>2021-07-23T10:44:12Z</time>
      </trkpt>
      <trkpt lat="43.4962110" lon="-7.1868040">
        <ele>364.0</ele>
        <time>2021-07-23T10:44:13Z</time>
      </trkpt>
      <trkpt lat="43.4962080" lon="-7.1868290">
        <ele>364.4</ele>
        <time>2021-07-23T10:44:14Z</time>
      </trkpt>
      <trkpt lat="43.4962040" lon="-7.1868510">
        <ele>364.4</ele>
        <time>2021-07-23T10:44:15Z</time>
      </trkpt>
      <trkpt lat="43.4961690" lon="-7.1870470">
        <ele>364.4</ele>
        <time>2021-07-23T10:44:22Z</time>
      </trkpt>
      <trkpt lat="43.4961370" lon="-7.1873050">
        <ele>364.4</ele>
        <time>2021-07-23T10:44:30Z</time>
      </trkpt>
      <trkpt lat="43.4960950" lon="-7.1875440">
        <ele>364.4</ele>
        <time>2021-07-23T10:44:37Z</time>
      </trkpt>
      <trkpt lat="43.4960820" lon="-7.1876170">
        <ele>364.4</ele>
        <time>2021-07-23T10:44:39Z</time>
      </trkpt>
      <trkpt lat="43.4960640" lon="-7.1876870">
        <ele>364.4</ele>
        <time>2021-07-23T10:44:41Z</time>
      </trkpt>
      <trkpt lat="43.4960180" lon="-7.1877650">
        <ele>364.4</ele>
        <time>2021-07-23T10:44:44Z</time>
      </trkpt>
      <trkpt lat="43.4960020" lon="-7.1877880">
        <ele>364.4</ele>
        <time>2021-07-23T10:44:45Z</time>
      </trkpt>
      <trkpt lat="43.4959600" lon="-7.1879000">
        <ele>364.4</ele>
        <time>2021-07-23T10:44:49Z</time>
      </trkpt>
      <trkpt lat="43.4958170" lon="-7.1881410">
        <ele>364.4</ele>
        <time>2021-07-23T10:44:57Z</time>
      </trkpt>
      <trkpt lat="43.4957620" lon="-7.1882100">
        <ele>364.4</ele>
        <time>2021-07-23T10:45:00Z</time>
      </trkpt>
      <trkpt lat="43.4956960" lon="-7.1883200">
        <ele>364.4</ele>
        <time>2021-07-23T10:45:04Z</time>
      </trkpt>
      <trkpt lat="43.4955840" lon="-7.1884600">
        <ele>364.4</ele>
        <time>2021-07-23T10:45:09Z</time>
      </trkpt>
      <trkpt lat="43.4955300" lon="-7.1885610">
        <ele>364.4</ele>
        <time>2021-07-23T10:45:12Z</time>
      </trkpt>
      <trkpt lat="43.4955020" lon="-7.1886220">
        <ele>364.4</ele>
        <time>2021-07-23T10:45:14Z</time>
      </trkpt>
      <trkpt lat="43.4954410" lon="-7.1887610">
        <ele>364.4</ele>
        <time>2021-07-23T10:45:18Z</time>
      </trkpt>
      <trkpt lat="43.4953950" lon="-7.1888590">
        <ele>364.4</ele>
        <time>2021-07-23T10:45:21Z</time>
      </trkpt>
      <trkpt lat="43.4953380" lon="-7.1889760">
        <ele>364.4</ele>
        <time>2021-07-23T10:45:24Z</time>
      </trkpt>
      <trkpt lat="43.4952150" lon="-7.1892370">
        <ele>364.4</ele>
        <time>2021-07-23T10:45:31Z</time>
      </trkpt>
      <trkpt lat="43.4951790" lon="-7.1893180">
        <ele>364.4</ele>
        <time>2021-07-23T10:45:33Z</time>
      </trkpt>
      <trkpt lat="43.4951160" lon="-7.1895270">
        <ele>364.4</ele>
        <time>2021-07-23T10:45:37Z</time>
      </trkpt>
      <trkpt lat="43.4951050" lon="-7.1895950">
        <ele>364.4</ele>
        <time>2021-07-23T10:45:38Z</time>
      </trkpt>
      <trkpt lat="43.4950730" lon="-7.1897410">
        <ele>364.4</ele>
        <time>2021-07-23T10:45:40Z</time>
      </trkpt>
      <trkpt lat="43.4950140" lon="-7.1898890">
        <ele>364.4</ele>
        <time>2021-07-23T10:45:42Z</time>
      </trkpt>
      <trkpt lat="43.4949210" lon="-7.1900920">
        <ele>364.0</ele>
        <time>2021-07-23T10:45:45Z</time>
      </trkpt>
      <trkpt lat="43.4948940" lon="-7.1901500">
        <ele>363.4</ele>
        <time>2021-07-23T10:45:46Z</time>
      </trkpt>
      <trkpt lat="43.4948670" lon="-7.1902060">
        <ele>363.0</ele>
        <time>2021-07-23T10:45:47Z</time>
      </trkpt>
      <trkpt lat="43.4948410" lon="-7.1902690">
        <ele>362.4</ele>
        <time>2021-07-23T10:45:48Z</time>
      </trkpt>
      <trkpt lat="43.4948170" lon="-7.1903320">
        <ele>362.0</ele>
        <time>2021-07-23T10:45:49Z</time>
      </trkpt>
      <trkpt lat="43.4947940" lon="-7.1903980">
        <ele>362.0</ele>
        <time>2021-07-23T10:45:50Z</time>
      </trkpt>
      <trkpt lat="43.4947160" lon="-7.1906070">
        <ele>361.4</ele>
        <time>2021-07-23T10:45:53Z</time>
      </trkpt>
      <trkpt lat="43.4946860" lon="-7.1906770">
        <ele>360.8</ele>
        <time>2021-07-23T10:45:54Z</time>
      </trkpt>
      <trkpt lat="43.4946550" lon="-7.1907530">
        <ele>360.2</ele>
        <time>2021-07-23T10:45:55Z</time>
      </trkpt>
      <trkpt lat="43.4946290" lon="-7.1908260">
        <ele>359.8</ele>
        <time>2021-07-23T10:45:56Z</time>
      </trkpt>
      <trkpt lat="43.4946060" lon="-7.1909010">
        <ele>359.2</ele>
        <time>2021-07-23T10:45:57Z</time>
      </trkpt>
      <trkpt lat="43.4945850" lon="-7.1909760">
        <ele>358.6</ele>
        <time>2021-07-23T10:45:58Z</time>
      </trkpt>
      <trkpt lat="43.4945660" lon="-7.1910510">
        <ele>358.0</ele>
        <time>2021-07-23T10:45:59Z</time>
      </trkpt>
      <trkpt lat="43.4945440" lon="-7.1911250">
        <ele>357.4</ele>
        <time>2021-07-23T10:46:00Z</time>
      </trkpt>
      <trkpt lat="43.4945220" lon="-7.1911990">
        <ele>356.8</ele>
        <time>2021-07-23T10:46:01Z</time>
      </trkpt>
      <trkpt lat="43.4944990" lon="-7.1912780">
        <ele>356.0</ele>
        <time>2021-07-23T10:46:02Z</time>
      </trkpt>
      <trkpt lat="43.4944790" lon="-7.1913520">
        <ele>355.4</ele>
        <time>2021-07-23T10:46:03Z</time>
      </trkpt>
      <trkpt lat="43.4944610" lon="-7.1914200">
        <ele>354.8</ele>
        <time>2021-07-23T10:46:04Z</time>
      </trkpt>
      <trkpt lat="43.4944460" lon="-7.1914820">
        <ele>354.0</ele>
        <time>2021-07-23T10:46:05Z</time>
      </trkpt>
      <trkpt lat="43.4944320" lon="-7.1915440">
        <ele>353.4</ele>
        <time>2021-07-23T10:46:06Z</time>
      </trkpt>
      <trkpt lat="43.4944160" lon="-7.1916090">
        <ele>352.8</ele>
        <time>2021-07-23T10:46:07Z</time>
      </trkpt>
      <trkpt lat="43.4944020" lon="-7.1916790">
        <ele>352.0</ele>
        <time>2021-07-23T10:46:08Z</time>
      </trkpt>
      <trkpt lat="43.4943900" lon="-7.1917520">
        <ele>350.6</ele>
        <time>2021-07-23T10:46:09Z</time>
      </trkpt>
      <trkpt lat="43.4943770" lon="-7.1918220">
        <ele>349.8</ele>
        <time>2021-07-23T10:46:10Z</time>
      </trkpt>
      <trkpt lat="43.4943630" lon="-7.1918940">
        <ele>349.2</ele>
        <time>2021-07-23T10:46:11Z</time>
      </trkpt>
      <trkpt lat="43.4943530" lon="-7.1919630">
        <ele>348.2</ele>
        <time>2021-07-23T10:46:12Z</time>
      </trkpt>
      <trkpt lat="43.4943420" lon="-7.1920260">
        <ele>347.4</ele>
        <time>2021-07-23T10:46:13Z</time>
      </trkpt>
      <trkpt lat="43.4943300" lon="-7.1920840">
        <ele>346.6</ele>
        <time>2021-07-23T10:46:14Z</time>
      </trkpt>
      <trkpt lat="43.4943140" lon="-7.1921360">
        <ele>345.8</ele>
        <time>2021-07-23T10:46:15Z</time>
      </trkpt>
      <trkpt lat="43.4942970" lon="-7.1921850">
        <ele>345.0</ele>
        <time>2021-07-23T10:46:16Z</time>
      </trkpt>
      <trkpt lat="43.4942810" lon="-7.1922320">
        <ele>344.2</ele>
        <time>2021-07-23T10:46:17Z</time>
      </trkpt>
      <trkpt lat="43.4942640" lon="-7.1922690">
        <ele>343.4</ele>
        <time>2021-07-23T10:46:18Z</time>
      </trkpt>
      <trkpt lat="43.4942470" lon="-7.1923080">
        <ele>342.6</ele>
        <time>2021-07-23T10:46:19Z</time>
      </trkpt>
      <trkpt lat="43.4942280" lon="-7.1923460">
        <ele>341.8</ele>
        <time>2021-07-23T10:46:20Z</time>
      </trkpt>
      <trkpt lat="43.4942050" lon="-7.1923810">
        <ele>341.0</ele>
        <time>2021-07-23T10:46:21Z</time>
      </trkpt>
      <trkpt lat="43.4941780" lon="-7.1924120">
        <ele>340.2</ele>
        <time>2021-07-23T10:46:22Z</time>
      </trkpt>
      <trkpt lat="43.4941160" lon="-7.1924730">
        <ele>340.2</ele>
        <time>2021-07-23T10:46:24Z</time>
      </trkpt>
      <trkpt lat="43.4940090" lon="-7.1925790">
        <ele>340.2</ele>
        <time>2021-07-23T10:46:27Z</time>
      </trkpt>
      <trkpt lat="43.4938690" lon="-7.1927130">
        <ele>340.2</ele>
        <time>2021-07-23T10:46:31Z</time>
      </trkpt>
      <trkpt lat="43.4937170" lon="-7.1928570">
        <ele>339.8</ele>
        <time>2021-07-23T10:46:35Z</time>
      </trkpt>
      <trkpt lat="43.4936840" lon="-7.1928920">
        <ele>339.4</ele>
        <time>2021-07-23T10:46:36Z</time>
      </trkpt>
      <trkpt lat="43.4936560" lon="-7.1929260">
        <ele>339.0</ele>
        <time>2021-07-23T10:46:37Z</time>
      </trkpt>
      <trkpt lat="43.4936340" lon="-7.1929530">
        <ele>338.6</ele>
        <time>2021-07-23T10:46:38Z</time>
      </trkpt>
      <trkpt lat="43.4936150" lon="-7.1929740">
        <ele>338.2</ele>
        <time>2021-07-23T10:46:39Z</time>
      </trkpt>
      <trkpt lat="43.4935810" lon="-7.1930250">
        <ele>338.2</ele>
        <time>2021-07-23T10:46:42Z</time>
      </trkpt>
      <trkpt lat="43.4935690" lon="-7.1930360">
        <ele>338.2</ele>
        <time>2021-07-23T10:46:43Z</time>
      </trkpt>
      <trkpt lat="43.4934970" lon="-7.1931330">
        <ele>338.2</ele>
        <time>2021-07-23T10:46:49Z</time>
      </trkpt>
      <trkpt lat="43.4934740" lon="-7.1931540">
        <ele>338.2</ele>
        <time>2021-07-23T10:46:50Z</time>
      </trkpt>
      <trkpt lat="43.4934480" lon="-7.1931750">
        <ele>337.8</ele>
        <time>2021-07-23T10:46:51Z</time>
      </trkpt>
      <trkpt lat="43.4934210" lon="-7.1932050">
        <ele>337.4</ele>
        <time>2021-07-23T10:46:52Z</time>
      </trkpt>
      <trkpt lat="43.4933920" lon="-7.1932360">
        <ele>336.8</ele>
        <time>2021-07-23T10:46:53Z</time>
      </trkpt>
      <trkpt lat="43.4933630" lon="-7.1932670">
        <ele>336.4</ele>
        <time>2021-07-23T10:46:54Z</time>
      </trkpt>
      <trkpt lat="43.4933340" lon="-7.1933010">
        <ele>336.0</ele>
        <time>2021-07-23T10:46:55Z</time>
      </trkpt>
      <trkpt lat="43.4931970" lon="-7.1934880">
        <ele>336.0</ele>
        <time>2021-07-23T10:47:00Z</time>
      </trkpt>
      <trkpt lat="43.4931760" lon="-7.1935340">
        <ele>336.0</ele>
        <time>2021-07-23T10:47:01Z</time>
      </trkpt>
      <trkpt lat="43.4931250" lon="-7.1936450">
        <ele>336.0</ele>
        <time>2021-07-23T10:47:04Z</time>
      </trkpt>
      <trkpt lat="43.4930780" lon="-7.1937630">
        <ele>336.0</ele>
        <time>2021-07-23T10:47:07Z</time>
      </trkpt>
      <trkpt lat="43.4930610" lon="-7.1938080">
        <ele>336.0</ele>
        <time>2021-07-23T10:47:08Z</time>
      </trkpt>
      <trkpt lat="43.4930060" lon="-7.1939350">
        <ele>336.0</ele>
        <time>2021-07-23T10:47:11Z</time>
      </trkpt>
      <trkpt lat="43.4929240" lon="-7.1940910">
        <ele>336.4</ele>
        <time>2021-07-23T10:47:15Z</time>
      </trkpt>
      <trkpt lat="43.4929070" lon="-7.1941270">
        <ele>336.8</ele>
        <time>2021-07-23T10:47:16Z</time>
      </trkpt>
      <trkpt lat="43.4928860" lon="-7.1941610">
        <ele>337.2</ele>
        <time>2021-07-23T10:47:17Z</time>
      </trkpt>
      <trkpt lat="43.4928670" lon="-7.1941990">
        <ele>337.6</ele>
        <time>2021-07-23T10:47:18Z</time>
      </trkpt>
      <trkpt lat="43.4928500" lon="-7.1942400">
        <ele>338.0</ele>
        <time>2021-07-23T10:47:19Z</time>
      </trkpt>
      <trkpt lat="43.4927330" lon="-7.1944750">
        <ele>338.0</ele>
        <time>2021-07-23T10:47:24Z</time>
      </trkpt>
      <trkpt lat="43.4926020" lon="-7.1947510">
        <ele>338.0</ele>
        <time>2021-07-23T10:47:29Z</time>
      </trkpt>
      <trkpt lat="43.4925240" lon="-7.1949170">
        <ele>337.6</ele>
        <time>2021-07-23T10:47:32Z</time>
      </trkpt>
      <trkpt lat="43.4924940" lon="-7.1949730">
        <ele>337.2</ele>
        <time>2021-07-23T10:47:33Z</time>
      </trkpt>
      <trkpt lat="43.4924640" lon="-7.1950310">
        <ele>336.8</ele>
        <time>2021-07-23T10:47:34Z</time>
      </trkpt>
      <trkpt lat="43.4924340" lon="-7.1950910">
        <ele>336.4</ele>
        <time>2021-07-23T10:47:35Z</time>
      </trkpt>
      <trkpt lat="43.4924050" lon="-7.1951470">
        <ele>336.0</ele>
        <time>2021-07-23T10:47:36Z</time>
      </trkpt>
      <trkpt lat="43.4923400" lon="-7.1952630">
        <ele>336.0</ele>
        <time>2021-07-23T10:47:38Z</time>
      </trkpt>
      <trkpt lat="43.4922760" lon="-7.1953820">
        <ele>336.0</ele>
        <time>2021-07-23T10:47:40Z</time>
      </trkpt>
      <trkpt lat="43.4922430" lon="-7.1954420">
        <ele>336.0</ele>
        <time>2021-07-23T10:47:41Z</time>
      </trkpt>
      <trkpt lat="43.4920430" lon="-7.1958420">
        <ele>335.6</ele>
        <time>2021-07-23T10:47:48Z</time>
      </trkpt>
      <trkpt lat="43.4920220" lon="-7.1958910">
        <ele>334.6</ele>
        <time>2021-07-23T10:47:49Z</time>
      </trkpt>
      <trkpt lat="43.4920030" lon="-7.1959350">
        <ele>334.2</ele>
        <time>2021-07-23T10:47:50Z</time>
      </trkpt>
      <trkpt lat="43.4919860" lon="-7.1959740">
        <ele>333.8</ele>
        <time>2021-07-23T10:47:51Z</time>
      </trkpt>
      <trkpt lat="43.4919400" lon="-7.1961080">
        <ele>333.8</ele>
        <time>2021-07-23T10:47:55Z</time>
      </trkpt>
      <trkpt lat="43.4919150" lon="-7.1962060">
        <ele>333.8</ele>
        <time>2021-07-23T10:47:58Z</time>
      </trkpt>
      <trkpt lat="43.4918910" lon="-7.1963030">
        <ele>333.8</ele>
        <time>2021-07-23T10:48:02Z</time>
      </trkpt>
      <trkpt lat="43.4918720" lon="-7.1963740">
        <ele>333.8</ele>
        <time>2021-07-23T10:48:05Z</time>
      </trkpt>
      <trkpt lat="43.4918540" lon="-7.1964400">
        <ele>333.8</ele>
        <time>2021-07-23T10:48:08Z</time>
      </trkpt>
      <trkpt lat="43.4918460" lon="-7.1964850">
        <ele>334.2</ele>
        <time>2021-07-23T10:48:10Z</time>
      </trkpt>
      <trkpt lat="43.4918420" lon="-7.1965070">
        <ele>334.6</ele>
        <time>2021-07-23T10:48:11Z</time>
      </trkpt>
      <trkpt lat="43.4918340" lon="-7.1965280">
        <ele>335.0</ele>
        <time>2021-07-23T10:48:12Z</time>
      </trkpt>
      <trkpt lat="43.4918290" lon="-7.1965500">
        <ele>335.8</ele>
        <time>2021-07-23T10:48:13Z</time>
      </trkpt>
      <trkpt lat="43.4918130" lon="-7.1966240">
        <ele>335.8</ele>
        <time>2021-07-23T10:48:16Z</time>
      </trkpt>
      <trkpt lat="43.4917930" lon="-7.1966930">
        <ele>336.2</ele>
        <time>2021-07-23T10:48:19Z</time>
      </trkpt>
      <trkpt lat="43.4917880" lon="-7.1967150">
        <ele>336.6</ele>
        <time>2021-07-23T10:48:20Z</time>
      </trkpt>
      <trkpt lat="43.4917820" lon="-7.1967380">
        <ele>337.0</ele>
        <time>2021-07-23T10:48:21Z</time>
      </trkpt>
      <trkpt lat="43.4917750" lon="-7.1967580">
        <ele>337.6</ele>
        <time>2021-07-23T10:48:22Z</time>
      </trkpt>
      <trkpt lat="43.4917700" lon="-7.1967800">
        <ele>338.0</ele>
        <time>2021-07-23T10:48:23Z</time>
      </trkpt>
      <trkpt lat="43.4917430" lon="-7.1968920">
        <ele>338.0</ele>
        <time>2021-07-23T10:48:28Z</time>
      </trkpt>
      <trkpt lat="43.4917040" lon="-7.1970370">
        <ele>338.4</ele>
        <time>2021-07-23T10:48:35Z</time>
      </trkpt>
      <trkpt lat="43.4916990" lon="-7.1970600">
        <ele>338.8</ele>
        <time>2021-07-23T10:48:36Z</time>
      </trkpt>
      <trkpt lat="43.4916950" lon="-7.1970820">
        <ele>339.2</ele>
        <time>2021-07-23T10:48:37Z</time>
      </trkpt>
      <trkpt lat="43.4916890" lon="-7.1971030">
        <ele>340.0</ele>
        <time>2021-07-23T10:48:38Z</time>
      </trkpt>
      <trkpt lat="43.4916650" lon="-7.1972160">
        <ele>340.0</ele>
        <time>2021-07-23T10:48:43Z</time>
      </trkpt>
      <trkpt lat="43.4916660" lon="-7.1972690">
        <ele>340.4</ele>
        <time>2021-07-23T10:48:45Z</time>
      </trkpt>
      <trkpt lat="43.4916690" lon="-7.1973010">
        <ele>340.8</ele>
        <time>2021-07-23T10:48:46Z</time>
      </trkpt>
      <trkpt lat="43.4916780" lon="-7.1973340">
        <ele>341.4</ele>
        <time>2021-07-23T10:48:47Z</time>
      </trkpt>
      <trkpt lat="43.4916940" lon="-7.1973600">
        <ele>341.8</ele>
        <time>2021-07-23T10:48:48Z</time>
      </trkpt>
      <trkpt lat="43.4917100" lon="-7.1973870">
        <ele>342.2</ele>
        <time>2021-07-23T10:48:49Z</time>
      </trkpt>
      <trkpt lat="43.4917500" lon="-7.1974470">
        <ele>341.8</ele>
        <time>2021-07-23T10:48:52Z</time>
      </trkpt>
      <trkpt lat="43.4917600" lon="-7.1974670">
        <ele>341.4</ele>
        <time>2021-07-23T10:48:53Z</time>
      </trkpt>
      <trkpt lat="43.4917700" lon="-7.1974880">
        <ele>341.0</ele>
        <time>2021-07-23T10:48:54Z</time>
      </trkpt>
      <trkpt lat="43.4917820" lon="-7.1975170">
        <ele>340.4</ele>
        <time>2021-07-23T10:48:55Z</time>
      </trkpt>
      <trkpt lat="43.4917960" lon="-7.1975520">
        <ele>340.0</ele>
        <time>2021-07-23T10:48:56Z</time>
      </trkpt>
      <trkpt lat="43.4918360" lon="-7.1976500">
        <ele>340.0</ele>
        <time>2021-07-23T10:48:58Z</time>
      </trkpt>
      <trkpt lat="43.4918650" lon="-7.1977150">
        <ele>339.6</ele>
        <time>2021-07-23T10:48:59Z</time>
      </trkpt>
      <trkpt lat="43.4918990" lon="-7.1977780">
        <ele>339.2</ele>
        <time>2021-07-23T10:49:00Z</time>
      </trkpt>
      <trkpt lat="43.4919370" lon="-7.1978470">
        <ele>338.8</ele>
        <time>2021-07-23T10:49:01Z</time>
      </trkpt>
      <trkpt lat="43.4919740" lon="-7.1979190">
        <ele>338.2</ele>
        <time>2021-07-23T10:49:02Z</time>
      </trkpt>
      <trkpt lat="43.4920060" lon="-7.1979880">
        <ele>337.8</ele>
        <time>2021-07-23T10:49:03Z</time>
      </trkpt>
      <trkpt lat="43.4920400" lon="-7.1980590">
        <ele>337.4</ele>
        <time>2021-07-23T10:49:04Z</time>
      </trkpt>
      <trkpt lat="43.4920750" lon="-7.1981380">
        <ele>336.8</ele>
        <time>2021-07-23T10:49:05Z</time>
      </trkpt>
      <trkpt lat="43.4921160" lon="-7.1982220">
        <ele>336.4</ele>
        <time>2021-07-23T10:49:06Z</time>
      </trkpt>
      <trkpt lat="43.4921540" lon="-7.1983050">
        <ele>335.8</ele>
        <time>2021-07-23T10:49:07Z</time>
      </trkpt>
      <trkpt lat="43.4921930" lon="-7.1983870">
        <ele>335.4</ele>
        <time>2021-07-23T10:49:08Z</time>
      </trkpt>
      <trkpt lat="43.4922320" lon="-7.1984660">
        <ele>335.0</ele>
        <time>2021-07-23T10:49:09Z</time>
      </trkpt>
      <trkpt lat="43.4922720" lon="-7.1985420">
        <ele>334.4</ele>
        <time>2021-07-23T10:49:10Z</time>
      </trkpt>
      <trkpt lat="43.4923080" lon="-7.1986090">
        <ele>334.0</ele>
        <time>2021-07-23T10:49:11Z</time>
      </trkpt>
      <trkpt lat="43.4923460" lon="-7.1986760">
        <ele>333.4</ele>
        <time>2021-07-23T10:49:12Z</time>
      </trkpt>
      <trkpt lat="43.4923820" lon="-7.1987390">
        <ele>332.8</ele>
        <time>2021-07-23T10:49:13Z</time>
      </trkpt>
      <trkpt lat="43.4924140" lon="-7.1987980">
        <ele>331.8</ele>
        <time>2021-07-23T10:49:14Z</time>
      </trkpt>
      <trkpt lat="43.4924410" lon="-7.1988530">
        <ele>330.8</ele>
        <time>2021-07-23T10:49:15Z</time>
      </trkpt>
      <trkpt lat="43.4924680" lon="-7.1989080">
        <ele>330.0</ele>
        <time>2021-07-23T10:49:16Z</time>
      </trkpt>
      <trkpt lat="43.4924990" lon="-7.1989620">
        <ele>329.2</ele>
        <time>2021-07-23T10:49:17Z</time>
      </trkpt>
      <trkpt lat="43.4925360" lon="-7.1990160">
        <ele>328.4</ele>
        <time>2021-07-23T10:49:18Z</time>
      </trkpt>
      <trkpt lat="43.4925790" lon="-7.1990700">
        <ele>327.6</ele>
        <time>2021-07-23T10:49:19Z</time>
      </trkpt>
      <trkpt lat="43.4926260" lon="-7.1991250">
        <ele>326.6</ele>
        <time>2021-07-23T10:49:20Z</time>
      </trkpt>
      <trkpt lat="43.4926730" lon="-7.1991820">
        <ele>326.0</ele>
        <time>2021-07-23T10:49:21Z</time>
      </trkpt>
      <trkpt lat="43.4927190" lon="-7.1992340">
        <ele>325.4</ele>
        <time>2021-07-23T10:49:22Z</time>
      </trkpt>
      <trkpt lat="43.4927660" lon="-7.1992850">
        <ele>324.8</ele>
        <time>2021-07-23T10:49:23Z</time>
      </trkpt>
      <trkpt lat="43.4928130" lon="-7.1993360">
        <ele>324.0</ele>
        <time>2021-07-23T10:49:24Z</time>
      </trkpt>
      <trkpt lat="43.4928600" lon="-7.1993880">
        <ele>323.4</ele>
        <time>2021-07-23T10:49:25Z</time>
      </trkpt>
      <trkpt lat="43.4929050" lon="-7.1994410">
        <ele>323.0</ele>
        <time>2021-07-23T10:49:26Z</time>
      </trkpt>
      <trkpt lat="43.4929490" lon="-7.1994930">
        <ele>322.4</ele>
        <time>2021-07-23T10:49:27Z</time>
      </trkpt>
      <trkpt lat="43.4929920" lon="-7.1995480">
        <ele>321.2</ele>
        <time>2021-07-23T10:49:28Z</time>
      </trkpt>
      <trkpt lat="43.4930370" lon="-7.1996020">
        <ele>320.6</ele>
        <time>2021-07-23T10:49:29Z</time>
      </trkpt>
      <trkpt lat="43.4930810" lon="-7.1996530">
        <ele>320.0</ele>
        <time>2021-07-23T10:49:30Z</time>
      </trkpt>
      <trkpt lat="43.4931240" lon="-7.1997040">
        <ele>319.2</ele>
        <time>2021-07-23T10:49:31Z</time>
      </trkpt>
      <trkpt lat="43.4931630" lon="-7.1997530">
        <ele>318.4</ele>
        <time>2021-07-23T10:49:32Z</time>
      </trkpt>
      <trkpt lat="43.4932030" lon="-7.1998020">
        <ele>317.6</ele>
        <time>2021-07-23T10:49:33Z</time>
      </trkpt>
      <trkpt lat="43.4932380" lon="-7.1998500">
        <ele>316.8</ele>
        <time>2021-07-23T10:49:34Z</time>
      </trkpt>
      <trkpt lat="43.4932670" lon="-7.1998980">
        <ele>316.2</ele>
        <time>2021-07-23T10:49:35Z</time>
      </trkpt>
      <trkpt lat="43.4932920" lon="-7.1999490">
        <ele>315.4</ele>
        <time>2021-07-23T10:49:36Z</time>
      </trkpt>
      <trkpt lat="43.4933100" lon="-7.1999980">
        <ele>314.8</ele>
        <time>2021-07-23T10:49:37Z</time>
      </trkpt>
      <trkpt lat="43.4933230" lon="-7.2000490">
        <ele>314.0</ele>
        <time>2021-07-23T10:49:38Z</time>
      </trkpt>
      <trkpt lat="43.4933310" lon="-7.2001030">
        <ele>313.4</ele>
        <time>2021-07-23T10:49:39Z</time>
      </trkpt>
      <trkpt lat="43.4933350" lon="-7.2001600">
        <ele>312.8</ele>
        <time>2021-07-23T10:49:40Z</time>
      </trkpt>
      <trkpt lat="43.4933350" lon="-7.2002210">
        <ele>312.4</ele>
        <time>2021-07-23T10:49:41Z</time>
      </trkpt>
      <trkpt lat="43.4933360" lon="-7.2002800">
        <ele>312.0</ele>
        <time>2021-07-23T10:49:42Z</time>
      </trkpt>
      <trkpt lat="43.4933360" lon="-7.2003400">
        <ele>311.2</ele>
        <time>2021-07-23T10:49:43Z</time>
      </trkpt>
      <trkpt lat="43.4933360" lon="-7.2003990">
        <ele>310.6</ele>
        <time>2021-07-23T10:49:44Z</time>
      </trkpt>
      <trkpt lat="43.4933330" lon="-7.2004480">
        <ele>310.0</ele>
        <time>2021-07-23T10:49:45Z</time>
      </trkpt>
      <trkpt lat="43.4933320" lon="-7.2004970">
        <ele>309.4</ele>
        <time>2021-07-23T10:49:46Z</time>
      </trkpt>
      <trkpt lat="43.4933330" lon="-7.2005500">
        <ele>308.8</ele>
        <time>2021-07-23T10:49:47Z</time>
      </trkpt>
      <trkpt lat="43.4933350" lon="-7.2006010">
        <ele>308.2</ele>
        <time>2021-07-23T10:49:48Z</time>
      </trkpt>
      <trkpt lat="43.4933390" lon="-7.2006490">
        <ele>307.4</ele>
        <time>2021-07-23T10:49:49Z</time>
      </trkpt>
      <trkpt lat="43.4933400" lon="-7.2006970">
        <ele>306.4</ele>
        <time>2021-07-23T10:49:50Z</time>
      </trkpt>
      <trkpt lat="43.4933390" lon="-7.2007410">
        <ele>305.6</ele>
        <time>2021-07-23T10:49:51Z</time>
      </trkpt>
      <trkpt lat="43.4933350" lon="-7.2007850">
        <ele>304.8</ele>
        <time>2021-07-23T10:49:52Z</time>
      </trkpt>
      <trkpt lat="43.4933290" lon="-7.2008240">
        <ele>303.4</ele>
        <time>2021-07-23T10:49:53Z</time>
      </trkpt>
      <trkpt lat="43.4933160" lon="-7.2008720">
        <ele>302.6</ele>
        <time>2021-07-23T10:49:54Z</time>
      </trkpt>
      <trkpt lat="43.4932950" lon="-7.2009260">
        <ele>302.0</ele>
        <time>2021-07-23T10:49:55Z</time>
      </trkpt>
      <trkpt lat="43.4932710" lon="-7.2009820">
        <ele>301.2</ele>
        <time>2021-07-23T10:49:56Z</time>
      </trkpt>
      <trkpt lat="43.4932420" lon="-7.2010360">
        <ele>301.2</ele>
        <time>2021-07-23T10:49:57Z</time>
      </trkpt>
      <trkpt lat="43.4932110" lon="-7.2010910">
        <ele>301.2</ele>
        <time>2021-07-23T10:49:58Z</time>
      </trkpt>
      <trkpt lat="43.4931700" lon="-7.2011440">
        <ele>300.8</ele>
        <time>2021-07-23T10:49:59Z</time>
      </trkpt>
      <trkpt lat="43.4931250" lon="-7.2011940">
        <ele>300.4</ele>
        <time>2021-07-23T10:50:00Z</time>
      </trkpt>
      <trkpt lat="43.4930730" lon="-7.2012450">
        <ele>300.0</ele>
        <time>2021-07-23T10:50:01Z</time>
      </trkpt>
      <trkpt lat="43.4930180" lon="-7.2012950">
        <ele>299.6</ele>
        <time>2021-07-23T10:50:02Z</time>
      </trkpt>
      <trkpt lat="43.4929550" lon="-7.2013430">
        <ele>299.2</ele>
        <time>2021-07-23T10:50:03Z</time>
      </trkpt>
      <trkpt lat="43.4928170" lon="-7.2014430">
        <ele>298.8</ele>
        <time>2021-07-23T10:50:05Z</time>
      </trkpt>
      <trkpt lat="43.4927450" lon="-7.2014980">
        <ele>298.4</ele>
        <time>2021-07-23T10:50:06Z</time>
      </trkpt>
      <trkpt lat="43.4926670" lon="-7.2015570">
        <ele>297.8</ele>
        <time>2021-07-23T10:50:07Z</time>
      </trkpt>
      <trkpt lat="43.4925920" lon="-7.2016110">
        <ele>297.4</ele>
        <time>2021-07-23T10:50:08Z</time>
      </trkpt>
      <trkpt lat="43.4925220" lon="-7.2016600">
        <ele>297.0</ele>
        <time>2021-07-23T10:50:09Z</time>
      </trkpt>
      <trkpt lat="43.4922590" lon="-7.2018500">
        <ele>296.6</ele>
        <time>2021-07-23T10:50:13Z</time>
      </trkpt>
      <trkpt lat="43.4922000" lon="-7.2018980">
        <ele>296.0</ele>
        <time>2021-07-23T10:50:14Z</time>
      </trkpt>
      <trkpt lat="43.4921450" lon="-7.2019420">
        <ele>295.6</ele>
        <time>2021-07-23T10:50:15Z</time>
      </trkpt>
      <trkpt lat="43.4920930" lon="-7.2019780">
        <ele>295.2</ele>
        <time>2021-07-23T10:50:16Z</time>
      </trkpt>
      <trkpt lat="43.4920420" lon="-7.2020080">
        <ele>294.4</ele>
        <time>2021-07-23T10:50:17Z</time>
      </trkpt>
      <trkpt lat="43.4919940" lon="-7.2020420">
        <ele>294.0</ele>
        <time>2021-07-23T10:50:18Z</time>
      </trkpt>
      <trkpt lat="43.4919490" lon="-7.2020780">
        <ele>293.6</ele>
        <time>2021-07-23T10:50:19Z</time>
      </trkpt>
      <trkpt lat="43.4919090" lon="-7.2021140">
        <ele>293.2</ele>
        <time>2021-07-23T10:50:20Z</time>
      </trkpt>
      <trkpt lat="43.4918680" lon="-7.2021480">
        <ele>292.8</ele>
        <time>2021-07-23T10:50:21Z</time>
      </trkpt>
      <trkpt lat="43.4917370" lon="-7.2022380">
        <ele>292.8</ele>
        <time>2021-07-23T10:50:24Z</time>
      </trkpt>
      <trkpt lat="43.4916560" lon="-7.2023010">
        <ele>292.8</ele>
        <time>2021-07-23T10:50:26Z</time>
      </trkpt>
      <trkpt lat="43.4915760" lon="-7.2023590">
        <ele>292.8</ele>
        <time>2021-07-23T10:50:28Z</time>
      </trkpt>
      <trkpt lat="43.4914190" lon="-7.2024660">
        <ele>292.8</ele>
        <time>2021-07-23T10:50:32Z</time>
      </trkpt>
      <trkpt lat="43.4912670" lon="-7.2025690">
        <ele>292.8</ele>
        <time>2021-07-23T10:50:36Z</time>
      </trkpt>
      <trkpt lat="43.4910700" lon="-7.2026490">
        <ele>292.8</ele>
        <time>2021-07-23T10:50:41Z</time>
      </trkpt>
      <trkpt lat="43.4909060" lon="-7.2027040">
        <ele>292.4</ele>
        <time>2021-07-23T10:50:45Z</time>
      </trkpt>
      <trkpt lat="43.4908630" lon="-7.2027180">
        <ele>292.0</ele>
        <time>2021-07-23T10:50:46Z</time>
      </trkpt>
      <trkpt lat="43.4908190" lon="-7.2027300">
        <ele>291.6</ele>
        <time>2021-07-23T10:50:47Z</time>
      </trkpt>
      <trkpt lat="43.4907750" lon="-7.2027410">
        <ele>291.0</ele>
        <time>2021-07-23T10:50:48Z</time>
      </trkpt>
      <trkpt lat="43.4907290" lon="-7.2027520">
        <ele>290.6</ele>
        <time>2021-07-23T10:50:49Z</time>
      </trkpt>
      <trkpt lat="43.4905800" lon="-7.2027920">
        <ele>290.6</ele>
        <time>2021-07-23T10:50:52Z</time>
      </trkpt>
      <trkpt lat="43.4904760" lon="-7.2028230">
        <ele>290.6</ele>
        <time>2021-07-23T10:50:54Z</time>
      </trkpt>
      <trkpt lat="43.4904230" lon="-7.2028440">
        <ele>290.2</ele>
        <time>2021-07-23T10:50:55Z</time>
      </trkpt>
      <trkpt lat="43.4903690" lon="-7.2028730">
        <ele>289.6</ele>
        <time>2021-07-23T10:50:56Z</time>
      </trkpt>
      <trkpt lat="43.4903180" lon="-7.2029110">
        <ele>289.2</ele>
        <time>2021-07-23T10:50:57Z</time>
      </trkpt>
      <trkpt lat="43.4902740" lon="-7.2029590">
        <ele>288.6</ele>
        <time>2021-07-23T10:50:58Z</time>
      </trkpt>
      <trkpt lat="43.4902350" lon="-7.2030130">
        <ele>288.2</ele>
        <time>2021-07-23T10:50:59Z</time>
      </trkpt>
      <trkpt lat="43.4902060" lon="-7.2030710">
        <ele>288.2</ele>
        <time>2021-07-23T10:51:00Z</time>
      </trkpt>
      <trkpt lat="43.4901770" lon="-7.2031700">
        <ele>288.2</ele>
        <time>2021-07-23T10:51:02Z</time>
      </trkpt>
      <trkpt lat="43.4901660" lon="-7.2032210">
        <ele>288.2</ele>
        <time>2021-07-23T10:51:03Z</time>
      </trkpt>
      <trkpt lat="43.4901570" lon="-7.2032720">
        <ele>288.2</ele>
        <time>2021-07-23T10:51:04Z</time>
      </trkpt>
      <trkpt lat="43.4901420" lon="-7.2033760">
        <ele>288.2</ele>
        <time>2021-07-23T10:51:06Z</time>
      </trkpt>
      <trkpt lat="43.4901320" lon="-7.2034750">
        <ele>288.2</ele>
        <time>2021-07-23T10:51:08Z</time>
      </trkpt>
      <trkpt lat="43.4901280" lon="-7.2035220">
        <ele>288.6</ele>
        <time>2021-07-23T10:51:09Z</time>
      </trkpt>
      <trkpt lat="43.4901200" lon="-7.2035650">
        <ele>289.0</ele>
        <time>2021-07-23T10:51:10Z</time>
      </trkpt>
      <trkpt lat="43.4901090" lon="-7.2036050">
        <ele>289.4</ele>
        <time>2021-07-23T10:51:11Z</time>
      </trkpt>
      <trkpt lat="43.4900950" lon="-7.2036380">
        <ele>289.8</ele>
        <time>2021-07-23T10:51:12Z</time>
      </trkpt>
      <trkpt lat="43.4900790" lon="-7.2036570">
        <ele>290.2</ele>
        <time>2021-07-23T10:51:13Z</time>
      </trkpt>
      <trkpt lat="43.4900710" lon="-7.2036960">
        <ele>290.2</ele>
        <time>2021-07-23T10:51:15Z</time>
      </trkpt>
      <trkpt lat="43.4900990" lon="-7.2037330">
        <ele>290.2</ele>
        <time>2021-07-23T10:51:18Z</time>
      </trkpt>
      <trkpt lat="43.4900970" lon="-7.2037560">
        <ele>288.2</ele>
        <time>2021-07-23T10:53:14Z</time>
      </trkpt>
      <trkpt lat="43.4900890" lon="-7.2037740">
        <ele>288.2</ele>
        <time>2021-07-23T10:53:15Z</time>
      </trkpt>
      <trkpt lat="43.4900370" lon="-7.2037960">
        <ele>288.2</ele>
        <time>2021-07-23T10:53:19Z</time>
      </trkpt>
      <trkpt lat="43.4900210" lon="-7.2037310">
        <ele>288.2</ele>
        <time>2021-07-23T10:53:23Z</time>
      </trkpt>
      <trkpt lat="43.4900200" lon="-7.2037130">
        <ele>288.2</ele>
        <time>2021-07-23T10:53:24Z</time>
      </trkpt>
      <trkpt lat="43.4900180" lon="-7.2036610">
        <ele>288.2</ele>
        <time>2021-07-23T10:53:27Z</time>
      </trkpt>
      <trkpt lat="43.4900140" lon="-7.2036260">
        <ele>288.2</ele>
        <time>2021-07-23T10:53:29Z</time>
      </trkpt>
      <trkpt lat="43.4900080" lon="-7.2035740">
        <ele>288.2</ele>
        <time>2021-07-23T10:53:32Z</time>
      </trkpt>
      <trkpt lat="43.4900060" lon="-7.2035570">
        <ele>288.6</ele>
        <time>2021-07-23T10:53:33Z</time>
      </trkpt>
      <trkpt lat="43.4900030" lon="-7.2035390">
        <ele>289.0</ele>
        <time>2021-07-23T10:53:34Z</time>
      </trkpt>
      <trkpt lat="43.4900000" lon="-7.2035190">
        <ele>290.0</ele>
        <time>2021-07-23T10:53:35Z</time>
      </trkpt>
      <trkpt lat="43.4899960" lon="-7.2035000">
        <ele>290.4</ele>
        <time>2021-07-23T10:53:36Z</time>
      </trkpt>
      <trkpt lat="43.4899890" lon="-7.2034370">
        <ele>290.4</ele>
        <time>2021-07-23T10:53:39Z</time>
      </trkpt>
      <trkpt lat="43.4899760" lon="-7.2033800">
        <ele>290.4</ele>
        <time>2021-07-23T10:53:42Z</time>
      </trkpt>
      <trkpt lat="43.4899620" lon="-7.2033460">
        <ele>290.4</ele>
        <time>2021-07-23T10:53:44Z</time>
      </trkpt>
      <trkpt lat="43.4899480" lon="-7.2033120">
        <ele>290.8</ele>
        <time>2021-07-23T10:53:46Z</time>
      </trkpt>
      <trkpt lat="43.4899440" lon="-7.2032940">
        <ele>291.2</ele>
        <time>2021-07-23T10:53:47Z</time>
      </trkpt>
      <trkpt lat="43.4899380" lon="-7.2032770">
        <ele>291.6</ele>
        <time>2021-07-23T10:53:48Z</time>
      </trkpt>
      <trkpt lat="43.4899320" lon="-7.2032620">
        <ele>292.0</ele>
        <time>2021-07-23T10:53:49Z</time>
      </trkpt>
      <trkpt lat="43.4899230" lon="-7.2032480">
        <ele>292.4</ele>
        <time>2021-07-23T10:53:50Z</time>
      </trkpt>
      <trkpt lat="43.4899170" lon="-7.2032310">
        <ele>292.4</ele>
        <time>2021-07-23T10:53:51Z</time>
      </trkpt>
      <trkpt lat="43.4898640" lon="-7.2031430">
        <ele>292.4</ele>
        <time>2021-07-23T10:53:57Z</time>
      </trkpt>
      <trkpt lat="43.4898470" lon="-7.2031090">
        <ele>292.4</ele>
        <time>2021-07-23T10:53:59Z</time>
      </trkpt>
      <trkpt lat="43.4898150" lon="-7.2030750">
        <ele>292.8</ele>
        <time>2021-07-23T10:54:02Z</time>
      </trkpt>
      <trkpt lat="43.4898050" lon="-7.2030620">
        <ele>293.4</ele>
        <time>2021-07-23T10:54:03Z</time>
      </trkpt>
      <trkpt lat="43.4897950" lon="-7.2030500">
        <ele>293.8</ele>
        <time>2021-07-23T10:54:04Z</time>
      </trkpt>
      <trkpt lat="43.4897830" lon="-7.2030410">
        <ele>294.2</ele>
        <time>2021-07-23T10:54:05Z</time>
      </trkpt>
      <trkpt lat="43.4897710" lon="-7.2030340">
        <ele>294.6</ele>
        <time>2021-07-23T10:54:06Z</time>
      </trkpt>
      <trkpt lat="43.4897260" lon="-7.2029970">
        <ele>295.0</ele>
        <time>2021-07-23T10:54:10Z</time>
      </trkpt>
      <trkpt lat="43.4897150" lon="-7.2029890">
        <ele>295.6</ele>
        <time>2021-07-23T10:54:11Z</time>
      </trkpt>
      <trkpt lat="43.4897020" lon="-7.2029840">
        <ele>296.0</ele>
        <time>2021-07-23T10:54:12Z</time>
      </trkpt>
      <trkpt lat="43.4896920" lon="-7.2029750">
        <ele>296.4</ele>
        <time>2021-07-23T10:54:13Z</time>
      </trkpt>
      <trkpt lat="43.4896810" lon="-7.2029670">
        <ele>296.8</ele>
        <time>2021-07-23T10:54:14Z</time>
      </trkpt>
      <trkpt lat="43.4896120" lon="-7.2029590">
        <ele>296.8</ele>
        <time>2021-07-23T10:54:19Z</time>
      </trkpt>
      <trkpt lat="43.4895840" lon="-7.2029670">
        <ele>297.4</ele>
        <time>2021-07-23T10:54:21Z</time>
      </trkpt>
      <trkpt lat="43.4895710" lon="-7.2029680">
        <ele>297.8</ele>
        <time>2021-07-23T10:54:22Z</time>
      </trkpt>
      <trkpt lat="43.4895580" lon="-7.2029730">
        <ele>298.2</ele>
        <time>2021-07-23T10:54:23Z</time>
      </trkpt>
      <trkpt lat="43.4895430" lon="-7.2029790">
        <ele>299.0</ele>
        <time>2021-07-23T10:54:24Z</time>
      </trkpt>
      <trkpt lat="43.4894850" lon="-7.2029990">
        <ele>299.0</ele>
        <time>2021-07-23T10:54:28Z</time>
      </trkpt>
      <trkpt lat="43.4894700" lon="-7.2030010">
        <ele>299.6</ele>
        <time>2021-07-23T10:54:29Z</time>
      </trkpt>
      <trkpt lat="43.4894570" lon="-7.2030020">
        <ele>300.0</ele>
        <time>2021-07-23T10:54:30Z</time>
      </trkpt>
      <trkpt lat="43.4894450" lon="-7.2030070">
        <ele>300.4</ele>
        <time>2021-07-23T10:54:31Z</time>
      </trkpt>
      <trkpt lat="43.4894330" lon="-7.2030080">
        <ele>301.0</ele>
        <time>2021-07-23T10:54:32Z</time>
      </trkpt>
      <trkpt lat="43.4894200" lon="-7.2030150">
        <ele>301.4</ele>
        <time>2021-07-23T10:54:33Z</time>
      </trkpt>
      <trkpt lat="43.4893730" lon="-7.2030320">
        <ele>301.4</ele>
        <time>2021-07-23T10:54:36Z</time>
      </trkpt>
      <trkpt lat="43.4892460" lon="-7.2030830">
        <ele>301.4</ele>
        <time>2021-07-23T10:54:44Z</time>
      </trkpt>
      <trkpt lat="43.4892310" lon="-7.2030930">
        <ele>301.8</ele>
        <time>2021-07-23T10:54:45Z</time>
      </trkpt>
      <trkpt lat="43.4892150" lon="-7.2031090">
        <ele>302.2</ele>
        <time>2021-07-23T10:54:46Z</time>
      </trkpt>
      <trkpt lat="43.4891980" lon="-7.2031300">
        <ele>302.6</ele>
        <time>2021-07-23T10:54:47Z</time>
      </trkpt>
      <trkpt lat="43.4891780" lon="-7.2031500">
        <ele>303.0</ele>
        <time>2021-07-23T10:54:48Z</time>
      </trkpt>
      <trkpt lat="43.4891580" lon="-7.2031710">
        <ele>303.4</ele>
        <time>2021-07-23T10:54:49Z</time>
      </trkpt>
      <trkpt lat="43.4891160" lon="-7.2032140">
        <ele>303.4</ele>
        <time>2021-07-23T10:54:51Z</time>
      </trkpt>
      <trkpt lat="43.4889470" lon="-7.2033910">
        <ele>303.4</ele>
        <time>2021-07-23T10:54:58Z</time>
      </trkpt>
      <trkpt lat="43.4887960" lon="-7.2035450">
        <ele>303.4</ele>
        <time>2021-07-23T10:55:02Z</time>
      </trkpt>
      <trkpt lat="43.4887590" lon="-7.2035940">
        <ele>303.4</ele>
        <time>2021-07-23T10:55:03Z</time>
      </trkpt>
      <trkpt lat="43.4887180" lon="-7.2036390">
        <ele>303.0</ele>
        <time>2021-07-23T10:55:04Z</time>
      </trkpt>
      <trkpt lat="43.4886840" lon="-7.2036860">
        <ele>302.6</ele>
        <time>2021-07-23T10:55:05Z</time>
      </trkpt>
      <trkpt lat="43.4886540" lon="-7.2037210">
        <ele>302.2</ele>
        <time>2021-07-23T10:55:06Z</time>
      </trkpt>
      <trkpt lat="43.4886210" lon="-7.2037590">
        <ele>301.6</ele>
        <time>2021-07-23T10:55:07Z</time>
      </trkpt>
      <trkpt lat="43.4885890" lon="-7.2038020">
        <ele>301.0</ele>
        <time>2021-07-23T10:55:08Z</time>
      </trkpt>
      <trkpt lat="43.4885560" lon="-7.2038430">
        <ele>300.4</ele>
        <time>2021-07-23T10:55:09Z</time>
      </trkpt>
      <trkpt lat="43.4885210" lon="-7.2038810">
        <ele>299.8</ele>
        <time>2021-07-23T10:55:10Z</time>
      </trkpt>
      <trkpt lat="43.4884850" lon="-7.2039170">
        <ele>299.2</ele>
        <time>2021-07-23T10:55:11Z</time>
      </trkpt>
      <trkpt lat="43.4884500" lon="-7.2039570">
        <ele>298.6</ele>
        <time>2021-07-23T10:55:12Z</time>
      </trkpt>
      <trkpt lat="43.4884120" lon="-7.2040060">
        <ele>297.8</ele>
        <time>2021-07-23T10:55:13Z</time>
      </trkpt>
      <trkpt lat="43.4883790" lon="-7.2040480">
        <ele>296.6</ele>
        <time>2021-07-23T10:55:14Z</time>
      </trkpt>
      <trkpt lat="43.4883490" lon="-7.2040860">
        <ele>296.0</ele>
        <time>2021-07-23T10:55:15Z</time>
      </trkpt>
      <trkpt lat="43.4883250" lon="-7.2041210">
        <ele>295.6</ele>
        <time>2021-07-23T10:55:16Z</time>
      </trkpt>
      <trkpt lat="43.4883080" lon="-7.2041470">
        <ele>295.0</ele>
        <time>2021-07-23T10:55:17Z</time>
      </trkpt>
      <trkpt lat="43.4882940" lon="-7.2041660">
        <ele>294.4</ele>
        <time>2021-07-23T10:55:18Z</time>
      </trkpt>
      <trkpt lat="43.4882650" lon="-7.2041780">
        <ele>294.4</ele>
        <time>2021-07-23T10:55:22Z</time>
      </trkpt>
      <trkpt lat="43.4882630" lon="-7.2041740">
        <ele>294.4</ele>
        <time>2021-07-23T10:55:23Z</time>
      </trkpt>
      <trkpt lat="43.4882600" lon="-7.2042000">
        <ele>294.4</ele>
        <time>2021-07-23T10:56:17Z</time>
      </trkpt>
      <trkpt lat="43.4882540" lon="-7.2042320">
        <ele>294.4</ele>
        <time>2021-07-23T10:56:18Z</time>
      </trkpt>
      <trkpt lat="43.4882520" lon="-7.2042730">
        <ele>294.4</ele>
        <time>2021-07-23T10:56:19Z</time>
      </trkpt>
      <trkpt lat="43.4882950" lon="-7.2044140">
        <ele>294.4</ele>
        <time>2021-07-23T10:56:22Z</time>
      </trkpt>
      <trkpt lat="43.4883150" lon="-7.2044610">
        <ele>294.4</ele>
        <time>2021-07-23T10:56:23Z</time>
      </trkpt>
      <trkpt lat="43.4884230" lon="-7.2047190">
        <ele>294.4</ele>
        <time>2021-07-23T10:56:30Z</time>
      </trkpt>
      <trkpt lat="43.4884780" lon="-7.2049010">
        <ele>294.4</ele>
        <time>2021-07-23T10:56:37Z</time>
      </trkpt>
      <trkpt lat="43.4884800" lon="-7.2049530">
        <ele>294.4</ele>
        <time>2021-07-23T10:56:39Z</time>
      </trkpt>
      <trkpt lat="43.4884890" lon="-7.2050040">
        <ele>294.4</ele>
        <time>2021-07-23T10:56:41Z</time>
      </trkpt>
      <trkpt lat="43.4884990" lon="-7.2050560">
        <ele>294.4</ele>
        <time>2021-07-23T10:56:43Z</time>
      </trkpt>
      <trkpt lat="43.4885010" lon="-7.2050780">
        <ele>294.4</ele>
        <time>2021-07-23T10:56:44Z</time>
      </trkpt>
      <trkpt lat="43.4885030" lon="-7.2051030">
        <ele>295.0</ele>
        <time>2021-07-23T10:56:45Z</time>
      </trkpt>
      <trkpt lat="43.4885080" lon="-7.2051330">
        <ele>295.4</ele>
        <time>2021-07-23T10:56:46Z</time>
      </trkpt>
      <trkpt lat="43.4885060" lon="-7.2051710">
        <ele>295.8</ele>
        <time>2021-07-23T10:56:47Z</time>
      </trkpt>
      <trkpt lat="43.4885030" lon="-7.2052090">
        <ele>296.2</ele>
        <time>2021-07-23T10:56:48Z</time>
      </trkpt>
      <trkpt lat="43.4885030" lon="-7.2052580">
        <ele>296.8</ele>
        <time>2021-07-23T10:56:49Z</time>
      </trkpt>
      <trkpt lat="43.4885030" lon="-7.2056150">
        <ele>296.8</ele>
        <time>2021-07-23T10:56:55Z</time>
      </trkpt>
      <trkpt lat="43.4885110" lon="-7.2058110">
        <ele>296.8</ele>
        <time>2021-07-23T10:56:58Z</time>
      </trkpt>
      <trkpt lat="43.4885050" lon="-7.2060150">
        <ele>296.8</ele>
        <time>2021-07-23T10:57:02Z</time>
      </trkpt>
      <trkpt lat="43.4885140" lon="-7.2061130">
        <ele>296.4</ele>
        <time>2021-07-23T10:57:04Z</time>
      </trkpt>
      <trkpt lat="43.4885170" lon="-7.2061620">
        <ele>296.0</ele>
        <time>2021-07-23T10:57:05Z</time>
      </trkpt>
      <trkpt lat="43.4885140" lon="-7.2062160">
        <ele>295.4</ele>
        <time>2021-07-23T10:57:06Z</time>
      </trkpt>
      <trkpt lat="43.4885130" lon="-7.2062730">
        <ele>295.0</ele>
        <time>2021-07-23T10:57:07Z</time>
      </trkpt>
      <trkpt lat="43.4885100" lon="-7.2063310">
        <ele>294.6</ele>
        <time>2021-07-23T10:57:08Z</time>
      </trkpt>
      <trkpt lat="43.4885050" lon="-7.2064600">
        <ele>294.6</ele>
        <time>2021-07-23T10:57:10Z</time>
      </trkpt>
      <trkpt lat="43.4884940" lon="-7.2066130">
        <ele>294.6</ele>
        <time>2021-07-23T10:57:12Z</time>
      </trkpt>
      <trkpt lat="43.4884900" lon="-7.2066860">
        <ele>294.6</ele>
        <time>2021-07-23T10:57:13Z</time>
      </trkpt>
      <trkpt lat="43.4884840" lon="-7.2067610">
        <ele>294.6</ele>
        <time>2021-07-23T10:57:14Z</time>
      </trkpt>
      <trkpt lat="43.4884830" lon="-7.2068360">
        <ele>294.2</ele>
        <time>2021-07-23T10:57:15Z</time>
      </trkpt>
      <trkpt lat="43.4884760" lon="-7.2069050">
        <ele>293.8</ele>
        <time>2021-07-23T10:57:16Z</time>
      </trkpt>
      <trkpt lat="43.4884700" lon="-7.2069750">
        <ele>293.4</ele>
        <time>2021-07-23T10:57:17Z</time>
      </trkpt>
      <trkpt lat="43.4884620" lon="-7.2070380">
        <ele>292.6</ele>
        <time>2021-07-23T10:57:18Z</time>
      </trkpt>
      <trkpt lat="43.4884460" lon="-7.2071090">
        <ele>292.6</ele>
        <time>2021-07-23T10:57:19Z</time>
      </trkpt>
      <trkpt lat="43.4884320" lon="-7.2071780">
        <ele>292.2</ele>
        <time>2021-07-23T10:57:20Z</time>
      </trkpt>
      <trkpt lat="43.4884230" lon="-7.2072500">
        <ele>291.6</ele>
        <time>2021-07-23T10:57:21Z</time>
      </trkpt>
      <trkpt lat="43.4884180" lon="-7.2073180">
        <ele>291.2</ele>
        <time>2021-07-23T10:57:22Z</time>
      </trkpt>
      <trkpt lat="43.4884140" lon="-7.2073910">
        <ele>290.8</ele>
        <time>2021-07-23T10:57:23Z</time>
      </trkpt>
      <trkpt lat="43.4884100" lon="-7.2074670">
        <ele>290.2</ele>
        <time>2021-07-23T10:57:24Z</time>
      </trkpt>
      <trkpt lat="43.4884090" lon="-7.2075430">
        <ele>289.6</ele>
        <time>2021-07-23T10:57:25Z</time>
      </trkpt>
      <trkpt lat="43.4884060" lon="-7.2076150">
        <ele>289.0</ele>
        <time>2021-07-23T10:57:26Z</time>
      </trkpt>
      <trkpt lat="43.4884050" lon="-7.2076860">
        <ele>288.6</ele>
        <time>2021-07-23T10:57:27Z</time>
      </trkpt>
      <trkpt lat="43.4884030" lon="-7.2077500">
        <ele>288.0</ele>
        <time>2021-07-23T10:57:28Z</time>
      </trkpt>
      <trkpt lat="43.4884010" lon="-7.2079300">
        <ele>287.6</ele>
        <time>2021-07-23T10:57:31Z</time>
      </trkpt>
      <trkpt lat="43.4884000" lon="-7.2079820">
        <ele>287.0</ele>
        <time>2021-07-23T10:57:32Z</time>
      </trkpt>
      <trkpt lat="43.4883970" lon="-7.2080360">
        <ele>286.6</ele>
        <time>2021-07-23T10:57:33Z</time>
      </trkpt>
      <trkpt lat="43.4883960" lon="-7.2080990">
        <ele>286.2</ele>
        <time>2021-07-23T10:57:34Z</time>
      </trkpt>
      <trkpt lat="43.4883940" lon="-7.2081610">
        <ele>285.8</ele>
        <time>2021-07-23T10:57:35Z</time>
      </trkpt>
      <trkpt lat="43.4883920" lon="-7.2082800">
        <ele>285.4</ele>
        <time>2021-07-23T10:57:37Z</time>
      </trkpt>
      <trkpt lat="43.4883960" lon="-7.2083300">
        <ele>284.8</ele>
        <time>2021-07-23T10:57:38Z</time>
      </trkpt>
      <trkpt lat="43.4884040" lon="-7.2083780">
        <ele>284.4</ele>
        <time>2021-07-23T10:57:39Z</time>
      </trkpt>
      <trkpt lat="43.4884100" lon="-7.2084150">
        <ele>284.0</ele>
        <time>2021-07-23T10:57:40Z</time>
      </trkpt>
      <trkpt lat="43.4884200" lon="-7.2084430">
        <ele>283.6</ele>
        <time>2021-07-23T10:57:41Z</time>
      </trkpt>
      <trkpt lat="43.4884340" lon="-7.2084740">
        <ele>283.6</ele>
        <time>2021-07-23T10:57:42Z</time>
      </trkpt>
      <trkpt lat="43.4884490" lon="-7.2085050">
        <ele>282.8</ele>
        <time>2021-07-23T10:57:43Z</time>
      </trkpt>
      <trkpt lat="43.4884620" lon="-7.2085340">
        <ele>282.4</ele>
        <time>2021-07-23T10:57:44Z</time>
      </trkpt>
      <trkpt lat="43.4884820" lon="-7.2085690">
        <ele>282.0</ele>
        <time>2021-07-23T10:57:45Z</time>
      </trkpt>
      <trkpt lat="43.4885100" lon="-7.2086160">
        <ele>281.6</ele>
        <time>2021-07-23T10:57:46Z</time>
      </trkpt>
      <trkpt lat="43.4885430" lon="-7.2086780">
        <ele>281.6</ele>
        <time>2021-07-23T10:57:47Z</time>
      </trkpt>
      <trkpt lat="43.4887140" lon="-7.2090010">
        <ele>281.0</ele>
        <time>2021-07-23T10:57:51Z</time>
      </trkpt>
      <trkpt lat="43.4887590" lon="-7.2090880">
        <ele>280.4</ele>
        <time>2021-07-23T10:57:52Z</time>
      </trkpt>
      <trkpt lat="43.4888080" lon="-7.2091790">
        <ele>279.8</ele>
        <time>2021-07-23T10:57:53Z</time>
      </trkpt>
      <trkpt lat="43.4888640" lon="-7.2092690">
        <ele>279.0</ele>
        <time>2021-07-23T10:57:54Z</time>
      </trkpt>
      <trkpt lat="43.4889340" lon="-7.2093510">
        <ele>278.2</ele>
        <time>2021-07-23T10:57:55Z</time>
      </trkpt>
      <trkpt lat="43.4890060" lon="-7.2094290">
        <ele>277.2</ele>
        <time>2021-07-23T10:57:56Z</time>
      </trkpt>
      <trkpt lat="43.4890790" lon="-7.2094890">
        <ele>276.4</ele>
        <time>2021-07-23T10:57:57Z</time>
      </trkpt>
      <trkpt lat="43.4891560" lon="-7.2095440">
        <ele>275.4</ele>
        <time>2021-07-23T10:57:58Z</time>
      </trkpt>
      <trkpt lat="43.4892230" lon="-7.2095910">
        <ele>274.6</ele>
        <time>2021-07-23T10:57:59Z</time>
      </trkpt>
      <trkpt lat="43.4892850" lon="-7.2096260">
        <ele>274.6</ele>
        <time>2021-07-23T10:58:00Z</time>
      </trkpt>
      <trkpt lat="43.4893370" lon="-7.2096560">
        <ele>274.2</ele>
        <time>2021-07-23T10:58:01Z</time>
      </trkpt>
      <trkpt lat="43.4893790" lon="-7.2096820">
        <ele>273.8</ele>
        <time>2021-07-23T10:58:02Z</time>
      </trkpt>
      <trkpt lat="43.4894090" lon="-7.2096990">
        <ele>273.4</ele>
        <time>2021-07-23T10:58:03Z</time>
      </trkpt>
      <trkpt lat="43.4894340" lon="-7.2097100">
        <ele>273.0</ele>
        <time>2021-07-23T10:58:04Z</time>
      </trkpt>
      <trkpt lat="43.4894530" lon="-7.2097160">
        <ele>272.6</ele>
        <time>2021-07-23T10:58:05Z</time>
      </trkpt>
      <trkpt lat="43.4894850" lon="-7.2097340">
        <ele>272.6</ele>
        <time>2021-07-23T10:58:07Z</time>
      </trkpt>
      <trkpt lat="43.4895000" lon="-7.2097440">
        <ele>272.6</ele>
        <time>2021-07-23T10:58:08Z</time>
      </trkpt>
      <trkpt lat="43.4895260" lon="-7.2097580">
        <ele>272.6</ele>
        <time>2021-07-23T10:58:10Z</time>
      </trkpt>
      <trkpt lat="43.4895490" lon="-7.2097700">
        <ele>272.6</ele>
        <time>2021-07-23T10:58:12Z</time>
      </trkpt>
      <trkpt lat="43.4895760" lon="-7.2097800">
        <ele>272.6</ele>
        <time>2021-07-23T10:58:14Z</time>
      </trkpt>
      <trkpt lat="43.4895900" lon="-7.2097880">
        <ele>273.0</ele>
        <time>2021-07-23T10:58:15Z</time>
      </trkpt>
      <trkpt lat="43.4896020" lon="-7.2097970">
        <ele>273.4</ele>
        <time>2021-07-23T10:58:16Z</time>
      </trkpt>
      <trkpt lat="43.4896160" lon="-7.2098040">
        <ele>273.8</ele>
        <time>2021-07-23T10:58:17Z</time>
      </trkpt>
      <trkpt lat="43.4896290" lon="-7.2098120">
        <ele>274.2</ele>
        <time>2021-07-23T10:58:18Z</time>
      </trkpt>
      <trkpt lat="43.4896410" lon="-7.2098220">
        <ele>274.6</ele>
        <time>2021-07-23T10:58:19Z</time>
      </trkpt>
      <trkpt lat="43.4896670" lon="-7.2098410">
        <ele>274.6</ele>
        <time>2021-07-23T10:58:21Z</time>
      </trkpt>
      <trkpt lat="43.4896910" lon="-7.2098570">
        <ele>274.6</ele>
        <time>2021-07-23T10:58:23Z</time>
      </trkpt>
      <trkpt lat="43.4897280" lon="-7.2098730">
        <ele>275.0</ele>
        <time>2021-07-23T10:58:26Z</time>
      </trkpt>
      <trkpt lat="43.4897400" lon="-7.2098780">
        <ele>275.4</ele>
        <time>2021-07-23T10:58:27Z</time>
      </trkpt>
      <trkpt lat="43.4897510" lon="-7.2098850">
        <ele>275.8</ele>
        <time>2021-07-23T10:58:28Z</time>
      </trkpt>
      <trkpt lat="43.4897630" lon="-7.2098910">
        <ele>276.2</ele>
        <time>2021-07-23T10:58:29Z</time>
      </trkpt>
      <trkpt lat="43.4897740" lon="-7.2099000">
        <ele>276.6</ele>
        <time>2021-07-23T10:58:30Z</time>
      </trkpt>
      <trkpt lat="43.4897950" lon="-7.2099130">
        <ele>276.6</ele>
        <time>2021-07-23T10:58:32Z</time>
      </trkpt>
      <trkpt lat="43.4898590" lon="-7.2099590">
        <ele>277.0</ele>
        <time>2021-07-23T10:58:38Z</time>
      </trkpt>
      <trkpt lat="43.4898730" lon="-7.2099660">
        <ele>277.4</ele>
        <time>2021-07-23T10:58:39Z</time>
      </trkpt>
      <trkpt lat="43.4898860" lon="-7.2099750">
        <ele>278.0</ele>
        <time>2021-07-23T10:58:40Z</time>
      </trkpt>
      <trkpt lat="43.4898980" lon="-7.2099830">
        <ele>278.4</ele>
        <time>2021-07-23T10:58:41Z</time>
      </trkpt>
      <trkpt lat="43.4899090" lon="-7.2099890">
        <ele>278.8</ele>
        <time>2021-07-23T10:58:42Z</time>
      </trkpt>
      <trkpt lat="43.4899770" lon="-7.2100340">
        <ele>278.8</ele>
        <time>2021-07-23T10:58:48Z</time>
      </trkpt>
      <trkpt lat="43.4899870" lon="-7.2100430">
        <ele>278.8</ele>
        <time>2021-07-23T10:58:49Z</time>
      </trkpt>
      <trkpt lat="43.4900010" lon="-7.2100540">
        <ele>279.2</ele>
        <time>2021-07-23T10:58:50Z</time>
      </trkpt>
      <trkpt lat="43.4900130" lon="-7.2100620">
        <ele>279.6</ele>
        <time>2021-07-23T10:58:51Z</time>
      </trkpt>
      <trkpt lat="43.4900270" lon="-7.2100700">
        <ele>280.0</ele>
        <time>2021-07-23T10:58:52Z</time>
      </trkpt>
      <trkpt lat="43.4900400" lon="-7.2100720">
        <ele>280.4</ele>
        <time>2021-07-23T10:58:53Z</time>
      </trkpt>
      <trkpt lat="43.4900540" lon="-7.2100800">
        <ele>280.8</ele>
        <time>2021-07-23T10:58:54Z</time>
      </trkpt>
      <trkpt lat="43.4900890" lon="-7.2101060">
        <ele>280.8</ele>
        <time>2021-07-23T10:58:57Z</time>
      </trkpt>
      <trkpt lat="43.4901480" lon="-7.2101470">
        <ele>281.2</ele>
        <time>2021-07-23T10:59:02Z</time>
      </trkpt>
      <trkpt lat="43.4901590" lon="-7.2101510">
        <ele>281.6</ele>
        <time>2021-07-23T10:59:03Z</time>
      </trkpt>
      <trkpt lat="43.4901700" lon="-7.2101560">
        <ele>282.0</ele>
        <time>2021-07-23T10:59:04Z</time>
      </trkpt>
      <trkpt lat="43.4901790" lon="-7.2101670">
        <ele>282.4</ele>
        <time>2021-07-23T10:59:05Z</time>
      </trkpt>
      <trkpt lat="43.4901880" lon="-7.2101740">
        <ele>282.8</ele>
        <time>2021-07-23T10:59:06Z</time>
      </trkpt>
      <trkpt lat="43.4902280" lon="-7.2102000">
        <ele>282.8</ele>
        <time>2021-07-23T10:59:10Z</time>
      </trkpt>
      <trkpt lat="43.4902530" lon="-7.2102160">
        <ele>282.8</ele>
        <time>2021-07-23T10:59:12Z</time>
      </trkpt>
      <trkpt lat="43.4903020" lon="-7.2102510">
        <ele>282.8</ele>
        <time>2021-07-23T10:59:16Z</time>
      </trkpt>
      <trkpt lat="43.4903260" lon="-7.2102660">
        <ele>283.4</ele>
        <time>2021-07-23T10:59:18Z</time>
      </trkpt>
      <trkpt lat="43.4903390" lon="-7.2102710">
        <ele>283.8</ele>
        <time>2021-07-23T10:59:19Z</time>
      </trkpt>
      <trkpt lat="43.4903490" lon="-7.2102780">
        <ele>284.6</ele>
        <time>2021-07-23T10:59:20Z</time>
      </trkpt>
      <trkpt lat="43.4903590" lon="-7.2102870">
        <ele>285.0</ele>
        <time>2021-07-23T10:59:21Z</time>
      </trkpt>
      <trkpt lat="43.4904420" lon="-7.2103540">
        <ele>285.0</ele>
        <time>2021-07-23T10:59:28Z</time>
      </trkpt>
      <trkpt lat="43.4904650" lon="-7.2103670">
        <ele>285.4</ele>
        <time>2021-07-23T10:59:30Z</time>
      </trkpt>
      <trkpt lat="43.4904760" lon="-7.2103790">
        <ele>285.8</ele>
        <time>2021-07-23T10:59:31Z</time>
      </trkpt>
      <trkpt lat="43.4904890" lon="-7.2103860">
        <ele>286.2</ele>
        <time>2021-07-23T10:59:32Z</time>
      </trkpt>
      <trkpt lat="43.4905020" lon="-7.2103870">
        <ele>286.6</ele>
        <time>2021-07-23T10:59:33Z</time>
      </trkpt>
      <trkpt lat="43.4905130" lon="-7.2103890">
        <ele>287.0</ele>
        <time>2021-07-23T10:59:34Z</time>
      </trkpt>
      <trkpt lat="43.4905270" lon="-7.2103990">
        <ele>287.0</ele>
        <time>2021-07-23T10:59:35Z</time>
      </trkpt>
      <trkpt lat="43.4905970" lon="-7.2104460">
        <ele>287.0</ele>
        <time>2021-07-23T10:59:41Z</time>
      </trkpt>
      <trkpt lat="43.4906080" lon="-7.2104510">
        <ele>287.4</ele>
        <time>2021-07-23T10:59:42Z</time>
      </trkpt>
      <trkpt lat="43.4906190" lon="-7.2104550">
        <ele>287.8</ele>
        <time>2021-07-23T10:59:43Z</time>
      </trkpt>
      <trkpt lat="43.4906310" lon="-7.2104600">
        <ele>288.2</ele>
        <time>2021-07-23T10:59:44Z</time>
      </trkpt>
      <trkpt lat="43.4906440" lon="-7.2104660">
        <ele>289.2</ele>
        <time>2021-07-23T10:59:45Z</time>
      </trkpt>
      <trkpt lat="43.4907250" lon="-7.2105190">
        <ele>289.2</ele>
        <time>2021-07-23T10:59:52Z</time>
      </trkpt>
      <trkpt lat="43.4907770" lon="-7.2105350">
        <ele>289.6</ele>
        <time>2021-07-23T10:59:56Z</time>
      </trkpt>
      <trkpt lat="43.4907890" lon="-7.2105430">
        <ele>290.0</ele>
        <time>2021-07-23T10:59:57Z</time>
      </trkpt>
      <trkpt lat="43.4908010" lon="-7.2105460">
        <ele>290.4</ele>
        <time>2021-07-23T10:59:58Z</time>
      </trkpt>
      <trkpt lat="43.4908150" lon="-7.2105500">
        <ele>290.8</ele>
        <time>2021-07-23T10:59:59Z</time>
      </trkpt>
      <trkpt lat="43.4908250" lon="-7.2105530">
        <ele>291.2</ele>
        <time>2021-07-23T11:00:00Z</time>
      </trkpt>
      <trkpt lat="43.4908360" lon="-7.2105570">
        <ele>291.2</ele>
        <time>2021-07-23T11:00:01Z</time>
      </trkpt>
      <trkpt lat="43.4909340" lon="-7.2105520">
        <ele>291.6</ele>
        <time>2021-07-23T11:00:07Z</time>
      </trkpt>
      <trkpt lat="43.4909510" lon="-7.2105480">
        <ele>292.2</ele>
        <time>2021-07-23T11:00:08Z</time>
      </trkpt>
      <trkpt lat="43.4909660" lon="-7.2105390">
        <ele>293.0</ele>
        <time>2021-07-23T11:00:09Z</time>
      </trkpt>
      <trkpt lat="43.4909850" lon="-7.2105440">
        <ele>293.4</ele>
        <time>2021-07-23T11:00:10Z</time>
      </trkpt>
      <trkpt lat="43.4910470" lon="-7.2105520">
        <ele>293.4</ele>
        <time>2021-07-23T11:00:14Z</time>
      </trkpt>
      <trkpt lat="43.4910870" lon="-7.2105490">
        <ele>293.8</ele>
        <time>2021-07-23T11:00:17Z</time>
      </trkpt>
      <trkpt lat="43.4911020" lon="-7.2105430">
        <ele>294.2</ele>
        <time>2021-07-23T11:00:18Z</time>
      </trkpt>
      <trkpt lat="43.4911140" lon="-7.2105380">
        <ele>294.6</ele>
        <time>2021-07-23T11:00:19Z</time>
      </trkpt>
      <trkpt lat="43.4911280" lon="-7.2105300">
        <ele>295.0</ele>
        <time>2021-07-23T11:00:20Z</time>
      </trkpt>
      <trkpt lat="43.4911470" lon="-7.2105270">
        <ele>295.4</ele>
        <time>2021-07-23T11:00:21Z</time>
      </trkpt>
      <trkpt lat="43.4911600" lon="-7.2105270">
        <ele>295.4</ele>
        <time>2021-07-23T11:00:22Z</time>
      </trkpt>
      <trkpt lat="43.4912910" lon="-7.2105270">
        <ele>295.4</ele>
        <time>2021-07-23T11:00:30Z</time>
      </trkpt>
      <trkpt lat="43.4913480" lon="-7.2105290">
        <ele>296.4</ele>
        <time>2021-07-23T11:00:34Z</time>
      </trkpt>
      <trkpt lat="43.4913600" lon="-7.2105310">
        <ele>296.8</ele>
        <time>2021-07-23T11:00:35Z</time>
      </trkpt>
      <trkpt lat="43.4913730" lon="-7.2105340">
        <ele>297.2</ele>
        <time>2021-07-23T11:00:36Z</time>
      </trkpt>
      <trkpt lat="43.4913880" lon="-7.2105410">
        <ele>297.6</ele>
        <time>2021-07-23T11:00:37Z</time>
      </trkpt>
      <trkpt lat="43.4914020" lon="-7.2105470">
        <ele>297.6</ele>
        <time>2021-07-23T11:00:38Z</time>
      </trkpt>
      <trkpt lat="43.4914990" lon="-7.2105480">
        <ele>298.0</ele>
        <time>2021-07-23T11:00:45Z</time>
      </trkpt>
      <trkpt lat="43.4915130" lon="-7.2105470">
        <ele>298.6</ele>
        <time>2021-07-23T11:00:46Z</time>
      </trkpt>
      <trkpt lat="43.4915260" lon="-7.2105470">
        <ele>299.0</ele>
        <time>2021-07-23T11:00:47Z</time>
      </trkpt>
      <trkpt lat="43.4915400" lon="-7.2105450">
        <ele>299.4</ele>
        <time>2021-07-23T11:00:48Z</time>
      </trkpt>
      <trkpt lat="43.4915540" lon="-7.2105450">
        <ele>299.8</ele>
        <time>2021-07-23T11:00:49Z</time>
      </trkpt>
      <trkpt lat="43.4916340" lon="-7.2105500">
        <ele>300.2</ele>
        <time>2021-07-23T11:00:55Z</time>
      </trkpt>
      <trkpt lat="43.4916490" lon="-7.2105540">
        <ele>300.6</ele>
        <time>2021-07-23T11:00:56Z</time>
      </trkpt>
      <trkpt lat="43.4916650" lon="-7.2105570">
        <ele>301.0</ele>
        <time>2021-07-23T11:00:57Z</time>
      </trkpt>
      <trkpt lat="43.4916800" lon="-7.2105550">
        <ele>301.4</ele>
        <time>2021-07-23T11:00:58Z</time>
      </trkpt>
      <trkpt lat="43.4916950" lon="-7.2105540">
        <ele>301.8</ele>
        <time>2021-07-23T11:00:59Z</time>
      </trkpt>
      <trkpt lat="43.4917100" lon="-7.2105610">
        <ele>301.8</ele>
        <time>2021-07-23T11:01:00Z</time>
      </trkpt>
      <trkpt lat="43.4917520" lon="-7.2105720">
        <ele>301.8</ele>
        <time>2021-07-23T11:01:03Z</time>
      </trkpt>
      <trkpt lat="43.4917900" lon="-7.2105840">
        <ele>302.4</ele>
        <time>2021-07-23T11:01:06Z</time>
      </trkpt>
      <trkpt lat="43.4918000" lon="-7.2105900">
        <ele>302.8</ele>
        <time>2021-07-23T11:01:07Z</time>
      </trkpt>
      <trkpt lat="43.4918100" lon="-7.2105960">
        <ele>303.2</ele>
        <time>2021-07-23T11:01:08Z</time>
      </trkpt>
      <trkpt lat="43.4918220" lon="-7.2105990">
        <ele>303.6</ele>
        <time>2021-07-23T11:01:09Z</time>
      </trkpt>
      <trkpt lat="43.4918340" lon="-7.2106080">
        <ele>304.0</ele>
        <time>2021-07-23T11:01:10Z</time>
      </trkpt>
      <trkpt lat="43.4918810" lon="-7.2106580">
        <ele>304.6</ele>
        <time>2021-07-23T11:01:15Z</time>
      </trkpt>
      <trkpt lat="43.4918890" lon="-7.2106730">
        <ele>305.0</ele>
        <time>2021-07-23T11:01:16Z</time>
      </trkpt>
      <trkpt lat="43.4918980" lon="-7.2106830">
        <ele>305.6</ele>
        <time>2021-07-23T11:01:17Z</time>
      </trkpt>
      <trkpt lat="43.4919090" lon="-7.2106930">
        <ele>306.0</ele>
        <time>2021-07-23T11:01:18Z</time>
      </trkpt>
      <trkpt lat="43.4919210" lon="-7.2107010">
        <ele>306.6</ele>
        <time>2021-07-23T11:01:19Z</time>
      </trkpt>
      <trkpt lat="43.4919480" lon="-7.2107280">
        <ele>306.6</ele>
        <time>2021-07-23T11:01:23Z</time>
      </trkpt>
      <trkpt lat="43.4928620" lon="-7.2122030">
        <ele>324.0</ele>
        <time>2021-07-23T11:04:18Z</time>
      </trkpt>
      <trkpt lat="43.4928630" lon="-7.2122210">
        <ele>324.0</ele>
        <time>2021-07-23T11:04:19Z</time>
      </trkpt>
      <trkpt lat="43.4928830" lon="-7.2122960">
        <ele>324.4</ele>
        <time>2021-07-23T11:04:24Z</time>
      </trkpt>
      <trkpt lat="43.4928840" lon="-7.2123080">
        <ele>324.8</ele>
        <time>2021-07-23T11:04:25Z</time>
      </trkpt>
      <trkpt lat="43.4928880" lon="-7.2123200">
        <ele>325.4</ele>
        <time>2021-07-23T11:04:26Z</time>
      </trkpt>
      <trkpt lat="43.4928920" lon="-7.2123330">
        <ele>325.8</ele>
        <time>2021-07-23T11:04:27Z</time>
      </trkpt>
      <trkpt lat="43.4928950" lon="-7.2123460">
        <ele>326.2</ele>
        <time>2021-07-23T11:04:28Z</time>
      </trkpt>
      <trkpt lat="43.4929020" lon="-7.2123750">
        <ele>326.2</ele>
        <time>2021-07-23T11:04:30Z</time>
      </trkpt>
      <trkpt lat="43.4929200" lon="-7.2124320">
        <ele>326.2</ele>
        <time>2021-07-23T11:04:34Z</time>
      </trkpt>
      <trkpt lat="43.4929250" lon="-7.2124460">
        <ele>326.2</ele>
        <time>2021-07-23T11:04:35Z</time>
      </trkpt>
      <trkpt lat="43.4929490" lon="-7.2125270">
        <ele>326.2</ele>
        <time>2021-07-23T11:04:41Z</time>
      </trkpt>
      <trkpt lat="43.4929630" lon="-7.2125790">
        <ele>326.2</ele>
        <time>2021-07-23T11:04:45Z</time>
      </trkpt>
      <trkpt lat="43.4929670" lon="-7.2125920">
        <ele>326.6</ele>
        <time>2021-07-23T11:04:46Z</time>
      </trkpt>
      <trkpt lat="43.4929730" lon="-7.2126040">
        <ele>327.0</ele>
        <time>2021-07-23T11:04:47Z</time>
      </trkpt>
      <trkpt lat="43.4929780" lon="-7.2126170">
        <ele>327.4</ele>
        <time>2021-07-23T11:04:48Z</time>
      </trkpt>
      <trkpt lat="43.4929840" lon="-7.2126320">
        <ele>327.8</ele>
        <time>2021-07-23T11:04:49Z</time>
      </trkpt>
      <trkpt lat="43.4929880" lon="-7.2126460">
        <ele>328.2</ele>
        <time>2021-07-23T11:04:50Z</time>
      </trkpt>
      <trkpt lat="43.4930090" lon="-7.2127130">
        <ele>328.2</ele>
        <time>2021-07-23T11:04:55Z</time>
      </trkpt>
      <trkpt lat="43.4930550" lon="-7.2128580">
        <ele>328.6</ele>
        <time>2021-07-23T11:05:05Z</time>
      </trkpt>
      <trkpt lat="43.4930580" lon="-7.2128710">
        <ele>329.4</ele>
        <time>2021-07-23T11:05:06Z</time>
      </trkpt>
      <trkpt lat="43.4930620" lon="-7.2128830">
        <ele>330.0</ele>
        <time>2021-07-23T11:05:07Z</time>
      </trkpt>
      <trkpt lat="43.4930630" lon="-7.2128960">
        <ele>330.4</ele>
        <time>2021-07-23T11:05:08Z</time>
      </trkpt>
      <trkpt lat="43.4930760" lon="-7.2130060">
        <ele>330.4</ele>
        <time>2021-07-23T11:05:16Z</time>
      </trkpt>
      <trkpt lat="43.4930900" lon="-7.2130860">
        <ele>330.8</ele>
        <time>2021-07-23T11:05:22Z</time>
      </trkpt>
      <trkpt lat="43.4930980" lon="-7.2131000">
        <ele>331.2</ele>
        <time>2021-07-23T11:05:23Z</time>
      </trkpt>
      <trkpt lat="43.4931010" lon="-7.2131160">
        <ele>331.6</ele>
        <time>2021-07-23T11:05:24Z</time>
      </trkpt>
      <trkpt lat="43.4931040" lon="-7.2131260">
        <ele>332.0</ele>
        <time>2021-07-23T11:05:25Z</time>
      </trkpt>
      <trkpt lat="43.4931070" lon="-7.2131400">
        <ele>332.4</ele>
        <time>2021-07-23T11:05:26Z</time>
      </trkpt>
      <trkpt lat="43.4931200" lon="-7.2132810">
        <ele>332.4</ele>
        <time>2021-07-23T11:05:37Z</time>
      </trkpt>
      <trkpt lat="43.4931280" lon="-7.2133090">
        <ele>332.8</ele>
        <time>2021-07-23T11:05:39Z</time>
      </trkpt>
      <trkpt lat="43.4931290" lon="-7.2133220">
        <ele>333.2</ele>
        <time>2021-07-23T11:05:40Z</time>
      </trkpt>
      <trkpt lat="43.4931300" lon="-7.2133380">
        <ele>333.6</ele>
        <time>2021-07-23T11:05:41Z</time>
      </trkpt>
      <trkpt lat="43.4931310" lon="-7.2133560">
        <ele>334.0</ele>
        <time>2021-07-23T11:05:42Z</time>
      </trkpt>
      <trkpt lat="43.4931300" lon="-7.2133720">
        <ele>334.4</ele>
        <time>2021-07-23T11:05:43Z</time>
      </trkpt>
      <trkpt lat="43.4931300" lon="-7.2134340">
        <ele>334.4</ele>
        <time>2021-07-23T11:05:47Z</time>
      </trkpt>
      <trkpt lat="43.4931350" lon="-7.2135920">
        <ele>334.8</ele>
        <time>2021-07-23T11:05:57Z</time>
      </trkpt>
      <trkpt lat="43.4931360" lon="-7.2136070">
        <ele>335.2</ele>
        <time>2021-07-23T11:05:58Z</time>
      </trkpt>
      <trkpt lat="43.4931360" lon="-7.2136210">
        <ele>335.6</ele>
        <time>2021-07-23T11:05:59Z</time>
      </trkpt>
      <trkpt lat="43.4931380" lon="-7.2136340">
        <ele>336.0</ele>
        <time>2021-07-23T11:06:00Z</time>
      </trkpt>
      <trkpt lat="43.4931380" lon="-7.2136470">
        <ele>336.4</ele>
        <time>2021-07-23T11:06:01Z</time>
      </trkpt>
      <trkpt lat="43.4931370" lon="-7.2137310">
        <ele>336.4</ele>
        <time>2021-07-23T11:06:06Z</time>
      </trkpt>
      <trkpt lat="43.4931380" lon="-7.2137470">
        <ele>336.4</ele>
        <time>2021-07-23T11:06:07Z</time>
      </trkpt>
      <trkpt lat="43.4931400" lon="-7.2137610">
        <ele>336.8</ele>
        <time>2021-07-23T11:06:08Z</time>
      </trkpt>
      <trkpt lat="43.4931410" lon="-7.2137780">
        <ele>337.4</ele>
        <time>2021-07-23T11:06:09Z</time>
      </trkpt>
      <trkpt lat="43.4931420" lon="-7.2137950">
        <ele>337.8</ele>
        <time>2021-07-23T11:06:10Z</time>
      </trkpt>
      <trkpt lat="43.4931430" lon="-7.2138120">
        <ele>338.2</ele>
        <time>2021-07-23T11:06:11Z</time>
      </trkpt>
      <trkpt lat="43.4931440" lon="-7.2138270">
        <ele>338.6</ele>
        <time>2021-07-23T11:06:12Z</time>
      </trkpt>
      <trkpt lat="43.4931490" lon="-7.2139030">
        <ele>338.6</ele>
        <time>2021-07-23T11:06:17Z</time>
      </trkpt>
      <trkpt lat="43.4931670" lon="-7.2140460">
        <ele>338.6</ele>
        <time>2021-07-23T11:06:27Z</time>
      </trkpt>
      <trkpt lat="43.4931950" lon="-7.2142060">
        <ele>338.6</ele>
        <time>2021-07-23T11:06:37Z</time>
      </trkpt>
      <trkpt lat="43.4931990" lon="-7.2142550">
        <ele>339.0</ele>
        <time>2021-07-23T11:06:40Z</time>
      </trkpt>
      <trkpt lat="43.4931990" lon="-7.2142710">
        <ele>339.4</ele>
        <time>2021-07-23T11:06:41Z</time>
      </trkpt>
      <trkpt lat="43.4932010" lon="-7.2142880">
        <ele>339.8</ele>
        <time>2021-07-23T11:06:42Z</time>
      </trkpt>
      <trkpt lat="43.4931980" lon="-7.2143030">
        <ele>340.2</ele>
        <time>2021-07-23T11:06:43Z</time>
      </trkpt>
      <trkpt lat="43.4931910" lon="-7.2143150">
        <ele>340.6</ele>
        <time>2021-07-23T11:06:44Z</time>
      </trkpt>
      <trkpt lat="43.4931880" lon="-7.2143270">
        <ele>340.6</ele>
        <time>2021-07-23T11:06:45Z</time>
      </trkpt>
      <trkpt lat="43.4931720" lon="-7.2143540">
        <ele>340.6</ele>
        <time>2021-07-23T11:06:49Z</time>
      </trkpt>
      <trkpt lat="43.4931970" lon="-7.2145280">
        <ele>342.8</ele>
        <time>2021-07-23T11:19:29Z</time>
      </trkpt>
      <trkpt lat="43.4932050" lon="-7.2145460">
        <ele>342.8</ele>
        <time>2021-07-23T11:19:30Z</time>
      </trkpt>
      <trkpt lat="43.4932210" lon="-7.2146170">
        <ele>342.8</ele>
        <time>2021-07-23T11:19:33Z</time>
      </trkpt>
      <trkpt lat="43.4932430" lon="-7.2146790">
        <ele>342.8</ele>
        <time>2021-07-23T11:19:36Z</time>
      </trkpt>
      <trkpt lat="43.4932760" lon="-7.2147660">
        <ele>342.8</ele>
        <time>2021-07-23T11:19:40Z</time>
      </trkpt>
      <trkpt lat="43.4932870" lon="-7.2147860">
        <ele>343.2</ele>
        <time>2021-07-23T11:19:41Z</time>
      </trkpt>
      <trkpt lat="43.4932980" lon="-7.2148050">
        <ele>343.6</ele>
        <time>2021-07-23T11:19:42Z</time>
      </trkpt>
      <trkpt lat="43.4933080" lon="-7.2148240">
        <ele>344.2</ele>
        <time>2021-07-23T11:19:43Z</time>
      </trkpt>
      <trkpt lat="43.4933190" lon="-7.2148410">
        <ele>344.6</ele>
        <time>2021-07-23T11:19:44Z</time>
      </trkpt>
      <trkpt lat="43.4933290" lon="-7.2148580">
        <ele>345.0</ele>
        <time>2021-07-23T11:19:45Z</time>
      </trkpt>
      <trkpt lat="43.4933670" lon="-7.2149160">
        <ele>345.0</ele>
        <time>2021-07-23T11:19:49Z</time>
      </trkpt>
      <trkpt lat="43.4933870" lon="-7.2149340">
        <ele>345.0</ele>
        <time>2021-07-23T11:19:51Z</time>
      </trkpt>
      <trkpt lat="43.4934280" lon="-7.2149820">
        <ele>345.6</ele>
        <time>2021-07-23T11:19:55Z</time>
      </trkpt>
      <trkpt lat="43.4934340" lon="-7.2149980">
        <ele>346.0</ele>
        <time>2021-07-23T11:19:56Z</time>
      </trkpt>
      <trkpt lat="43.4934390" lon="-7.2150170">
        <ele>346.4</ele>
        <time>2021-07-23T11:19:57Z</time>
      </trkpt>
      <trkpt lat="43.4934410" lon="-7.2150380">
        <ele>347.0</ele>
        <time>2021-07-23T11:19:58Z</time>
      </trkpt>
      <trkpt lat="43.4934460" lon="-7.2150590">
        <ele>347.4</ele>
        <time>2021-07-23T11:19:59Z</time>
      </trkpt>
      <trkpt lat="43.4934640" lon="-7.2152000">
        <ele>347.4</ele>
        <time>2021-07-23T11:20:05Z</time>
      </trkpt>
      <trkpt lat="43.4935050" lon="-7.2153830">
        <ele>347.4</ele>
        <time>2021-07-23T11:20:12Z</time>
      </trkpt>
      <trkpt lat="43.4935220" lon="-7.2154970">
        <ele>347.4</ele>
        <time>2021-07-23T11:20:17Z</time>
      </trkpt>
      <trkpt lat="43.4935290" lon="-7.2155180">
        <ele>347.4</ele>
        <time>2021-07-23T11:20:18Z</time>
      </trkpt>
      <trkpt lat="43.4935370" lon="-7.2155590">
        <ele>347.4</ele>
        <time>2021-07-23T11:20:20Z</time>
      </trkpt>
      <trkpt lat="43.4935610" lon="-7.2156420">
        <ele>347.4</ele>
        <time>2021-07-23T11:20:23Z</time>
      </trkpt>
      <trkpt lat="43.4935820" lon="-7.2157300">
        <ele>347.4</ele>
        <time>2021-07-23T11:20:25Z</time>
      </trkpt>
      <trkpt lat="43.4936090" lon="-7.2158420">
        <ele>347.4</ele>
        <time>2021-07-23T11:20:27Z</time>
      </trkpt>
      <trkpt lat="43.4936280" lon="-7.2159620">
        <ele>347.4</ele>
        <time>2021-07-23T11:20:29Z</time>
      </trkpt>
      <trkpt lat="43.4936310" lon="-7.2160220">
        <ele>347.4</ele>
        <time>2021-07-23T11:20:30Z</time>
      </trkpt>
      <trkpt lat="43.4936240" lon="-7.2161510">
        <ele>347.0</ele>
        <time>2021-07-23T11:20:32Z</time>
      </trkpt>
      <trkpt lat="43.4936160" lon="-7.2162180">
        <ele>346.6</ele>
        <time>2021-07-23T11:20:33Z</time>
      </trkpt>
      <trkpt lat="43.4936050" lon="-7.2162840">
        <ele>346.0</ele>
        <time>2021-07-23T11:20:34Z</time>
      </trkpt>
      <trkpt lat="43.4935920" lon="-7.2163530">
        <ele>345.6</ele>
        <time>2021-07-23T11:20:35Z</time>
      </trkpt>
      <trkpt lat="43.4935780" lon="-7.2164200">
        <ele>345.2</ele>
        <time>2021-07-23T11:20:36Z</time>
      </trkpt>
      <trkpt lat="43.4935580" lon="-7.2164850">
        <ele>344.8</ele>
        <time>2021-07-23T11:20:37Z</time>
      </trkpt>
      <trkpt lat="43.4935300" lon="-7.2165470">
        <ele>344.4</ele>
        <time>2021-07-23T11:20:38Z</time>
      </trkpt>
      <trkpt lat="43.4934950" lon="-7.2166090">
        <ele>344.0</ele>
        <time>2021-07-23T11:20:39Z</time>
      </trkpt>
      <trkpt lat="43.4934550" lon="-7.2166610">
        <ele>343.6</ele>
        <time>2021-07-23T11:20:40Z</time>
      </trkpt>
      <trkpt lat="43.4934110" lon="-7.2167080">
        <ele>343.2</ele>
        <time>2021-07-23T11:20:41Z</time>
      </trkpt>
      <trkpt lat="43.4933660" lon="-7.2167520">
        <ele>343.2</ele>
        <time>2021-07-23T11:20:42Z</time>
      </trkpt>
      <trkpt lat="43.4932800" lon="-7.2168420">
        <ele>342.6</ele>
        <time>2021-07-23T11:20:44Z</time>
      </trkpt>
      <trkpt lat="43.4932400" lon="-7.2168880">
        <ele>342.2</ele>
        <time>2021-07-23T11:20:45Z</time>
      </trkpt>
      <trkpt lat="43.4931990" lon="-7.2169370">
        <ele>341.8</ele>
        <time>2021-07-23T11:20:46Z</time>
      </trkpt>
      <trkpt lat="43.4931600" lon="-7.2169830">
        <ele>341.4</ele>
        <time>2021-07-23T11:20:47Z</time>
      </trkpt>
      <trkpt lat="43.4931230" lon="-7.2170280">
        <ele>340.8</ele>
        <time>2021-07-23T11:20:48Z</time>
      </trkpt>
      <trkpt lat="43.4929380" lon="-7.2172880">
        <ele>340.8</ele>
        <time>2021-07-23T11:20:54Z</time>
      </trkpt>
      <trkpt lat="43.4928930" lon="-7.2173810">
        <ele>340.8</ele>
        <time>2021-07-23T11:20:56Z</time>
      </trkpt>
      <trkpt lat="43.4928580" lon="-7.2174890">
        <ele>340.8</ele>
        <time>2021-07-23T11:20:58Z</time>
      </trkpt>
      <trkpt lat="43.4928280" lon="-7.2176140">
        <ele>340.8</ele>
        <time>2021-07-23T11:21:00Z</time>
      </trkpt>
      <trkpt lat="43.4927380" lon="-7.2180210">
        <ele>340.4</ele>
        <time>2021-07-23T11:21:06Z</time>
      </trkpt>
      <trkpt lat="43.4927220" lon="-7.2180900">
        <ele>340.0</ele>
        <time>2021-07-23T11:21:07Z</time>
      </trkpt>
      <trkpt lat="43.4927040" lon="-7.2181660">
        <ele>339.2</ele>
        <time>2021-07-23T11:21:08Z</time>
      </trkpt>
      <trkpt lat="43.4926850" lon="-7.2182410">
        <ele>338.6</ele>
        <time>2021-07-23T11:21:09Z</time>
      </trkpt>
      <trkpt lat="43.4926250" lon="-7.2184730">
        <ele>338.6</ele>
        <time>2021-07-23T11:21:12Z</time>
      </trkpt>
      <trkpt lat="43.4925860" lon="-7.2186160">
        <ele>338.6</ele>
        <time>2021-07-23T11:21:14Z</time>
      </trkpt>
      <trkpt lat="43.4925420" lon="-7.2187650">
        <ele>338.2</ele>
        <time>2021-07-23T11:21:16Z</time>
      </trkpt>
      <trkpt lat="43.4925220" lon="-7.2188370">
        <ele>337.6</ele>
        <time>2021-07-23T11:21:17Z</time>
      </trkpt>
      <trkpt lat="43.4925020" lon="-7.2189120">
        <ele>337.2</ele>
        <time>2021-07-23T11:21:18Z</time>
      </trkpt>
      <trkpt lat="43.4924800" lon="-7.2189910">
        <ele>336.6</ele>
        <time>2021-07-23T11:21:19Z</time>
      </trkpt>
      <trkpt lat="43.4924560" lon="-7.2190740">
        <ele>336.2</ele>
        <time>2021-07-23T11:21:20Z</time>
      </trkpt>
      <trkpt lat="43.4924300" lon="-7.2191560">
        <ele>335.6</ele>
        <time>2021-07-23T11:21:21Z</time>
      </trkpt>
      <trkpt lat="43.4924050" lon="-7.2192300">
        <ele>334.8</ele>
        <time>2021-07-23T11:21:22Z</time>
      </trkpt>
      <trkpt lat="43.4923840" lon="-7.2192930">
        <ele>334.0</ele>
        <time>2021-07-23T11:21:23Z</time>
      </trkpt>
      <trkpt lat="43.4923670" lon="-7.2193460">
        <ele>333.2</ele>
        <time>2021-07-23T11:21:24Z</time>
      </trkpt>
      <trkpt lat="43.4923550" lon="-7.2193820">
        <ele>332.2</ele>
        <time>2021-07-23T11:21:25Z</time>
      </trkpt>
      <trkpt lat="43.4923480" lon="-7.2194090">
        <ele>331.2</ele>
        <time>2021-07-23T11:21:26Z</time>
      </trkpt>
      <trkpt lat="43.4923390" lon="-7.2194370">
        <ele>330.2</ele>
        <time>2021-07-23T11:21:27Z</time>
      </trkpt>
      <trkpt lat="43.4923250" lon="-7.2194730">
        <ele>329.4</ele>
        <time>2021-07-23T11:21:28Z</time>
      </trkpt>
      <trkpt lat="43.4923070" lon="-7.2195140">
        <ele>328.4</ele>
        <time>2021-07-23T11:21:29Z</time>
      </trkpt>
      <trkpt lat="43.4922860" lon="-7.2195660">
        <ele>328.4</ele>
        <time>2021-07-23T11:21:30Z</time>
      </trkpt>
      <trkpt lat="43.4922450" lon="-7.2196920">
        <ele>328.0</ele>
        <time>2021-07-23T11:21:32Z</time>
      </trkpt>
      <trkpt lat="43.4922320" lon="-7.2197470">
        <ele>327.0</ele>
        <time>2021-07-23T11:21:33Z</time>
      </trkpt>
      <trkpt lat="43.4922190" lon="-7.2197890">
        <ele>326.6</ele>
        <time>2021-07-23T11:21:34Z</time>
      </trkpt>
      <trkpt lat="43.4922090" lon="-7.2198240">
        <ele>326.0</ele>
        <time>2021-07-23T11:21:35Z</time>
      </trkpt>
      <trkpt lat="43.4922020" lon="-7.2198520">
        <ele>325.6</ele>
        <time>2021-07-23T11:21:36Z</time>
      </trkpt>
      <trkpt lat="43.4921940" lon="-7.2198780">
        <ele>325.0</ele>
        <time>2021-07-23T11:21:37Z</time>
      </trkpt>
      <trkpt lat="43.4921860" lon="-7.2198990">
        <ele>324.4</ele>
        <time>2021-07-23T11:21:38Z</time>
      </trkpt>
      <trkpt lat="43.4921820" lon="-7.2199110">
        <ele>323.8</ele>
        <time>2021-07-23T11:21:39Z</time>
      </trkpt>
      <trkpt lat="43.4921830" lon="-7.2199130">
        <ele>323.8</ele>
        <time>2021-07-23T11:21:40Z</time>
      </trkpt>
      <trkpt lat="43.4921740" lon="-7.2199300">
        <ele>321.8</ele>
        <time>2021-07-23T11:22:12Z</time>
      </trkpt>
      <trkpt lat="43.4921480" lon="-7.2199840">
        <ele>321.8</ele>
        <time>2021-07-23T11:22:14Z</time>
      </trkpt>
      <trkpt lat="43.4921310" lon="-7.2200300">
        <ele>321.8</ele>
        <time>2021-07-23T11:22:15Z</time>
      </trkpt>
      <trkpt lat="43.4920740" lon="-7.2202170">
        <ele>321.8</ele>
        <time>2021-07-23T11:22:18Z</time>
      </trkpt>
      <trkpt lat="43.4920230" lon="-7.2204310">
        <ele>321.2</ele>
        <time>2021-07-23T11:22:21Z</time>
      </trkpt>
      <trkpt lat="43.4920060" lon="-7.2205040">
        <ele>320.4</ele>
        <time>2021-07-23T11:22:22Z</time>
      </trkpt>
      <trkpt lat="43.4919880" lon="-7.2205760">
        <ele>320.0</ele>
        <time>2021-07-23T11:22:23Z</time>
      </trkpt>
      <trkpt lat="43.4919660" lon="-7.2206540">
        <ele>319.4</ele>
        <time>2021-07-23T11:22:24Z</time>
      </trkpt>
      <trkpt lat="43.4919480" lon="-7.2207280">
        <ele>318.6</ele>
        <time>2021-07-23T11:22:25Z</time>
      </trkpt>
      <trkpt lat="43.4919300" lon="-7.2208030">
        <ele>317.8</ele>
        <time>2021-07-23T11:22:26Z</time>
      </trkpt>
      <trkpt lat="43.4919130" lon="-7.2208770">
        <ele>317.2</ele>
        <time>2021-07-23T11:22:27Z</time>
      </trkpt>
      <trkpt lat="43.4918930" lon="-7.2209520">
        <ele>316.4</ele>
        <time>2021-07-23T11:22:28Z</time>
      </trkpt>
      <trkpt lat="43.4918740" lon="-7.2210260">
        <ele>315.6</ele>
        <time>2021-07-23T11:22:29Z</time>
      </trkpt>
      <trkpt lat="43.4918550" lon="-7.2210970">
        <ele>314.6</ele>
        <time>2021-07-23T11:22:30Z</time>
      </trkpt>
      <trkpt lat="43.4918370" lon="-7.2211740">
        <ele>313.8</ele>
        <time>2021-07-23T11:22:31Z</time>
      </trkpt>
      <trkpt lat="43.4918180" lon="-7.2212500">
        <ele>312.8</ele>
        <time>2021-07-23T11:22:32Z</time>
      </trkpt>
      <trkpt lat="43.4917990" lon="-7.2213320">
        <ele>312.0</ele>
        <time>2021-07-23T11:22:33Z</time>
      </trkpt>
      <trkpt lat="43.4917810" lon="-7.2214140">
        <ele>311.0</ele>
        <time>2021-07-23T11:22:34Z</time>
      </trkpt>
      <trkpt lat="43.4917630" lon="-7.2214980">
        <ele>310.2</ele>
        <time>2021-07-23T11:22:35Z</time>
      </trkpt>
      <trkpt lat="43.4917430" lon="-7.2215820">
        <ele>309.4</ele>
        <time>2021-07-23T11:22:36Z</time>
      </trkpt>
      <trkpt lat="43.4917240" lon="-7.2216660">
        <ele>308.6</ele>
        <time>2021-07-23T11:22:37Z</time>
      </trkpt>
      <trkpt lat="43.4917070" lon="-7.2217480">
        <ele>307.6</ele>
        <time>2021-07-23T11:22:38Z</time>
      </trkpt>
      <trkpt lat="43.4916890" lon="-7.2218350">
        <ele>306.6</ele>
        <time>2021-07-23T11:22:39Z</time>
      </trkpt>
      <trkpt lat="43.4916710" lon="-7.2219160">
        <ele>305.6</ele>
        <time>2021-07-23T11:22:40Z</time>
      </trkpt>
      <trkpt lat="43.4916520" lon="-7.2219980">
        <ele>304.6</ele>
        <time>2021-07-23T11:22:41Z</time>
      </trkpt>
      <trkpt lat="43.4916310" lon="-7.2220770">
        <ele>303.6</ele>
        <time>2021-07-23T11:22:42Z</time>
      </trkpt>
      <trkpt lat="43.4916060" lon="-7.2221510">
        <ele>302.4</ele>
        <time>2021-07-23T11:22:43Z</time>
      </trkpt>
      <trkpt lat="43.4915780" lon="-7.2222260">
        <ele>301.4</ele>
        <time>2021-07-23T11:22:44Z</time>
      </trkpt>
      <trkpt lat="43.4915450" lon="-7.2223030">
        <ele>300.4</ele>
        <time>2021-07-23T11:22:45Z</time>
      </trkpt>
      <trkpt lat="43.4915030" lon="-7.2223780">
        <ele>299.6</ele>
        <time>2021-07-23T11:22:46Z</time>
      </trkpt>
      <trkpt lat="43.4914580" lon="-7.2224590">
        <ele>297.8</ele>
        <time>2021-07-23T11:22:47Z</time>
      </trkpt>
      <trkpt lat="43.4914100" lon="-7.2225380">
        <ele>296.8</ele>
        <time>2021-07-23T11:22:48Z</time>
      </trkpt>
      <trkpt lat="43.4913110" lon="-7.2226910">
        <ele>296.4</ele>
        <time>2021-07-23T11:22:50Z</time>
      </trkpt>
      <trkpt lat="43.4912600" lon="-7.2227680">
        <ele>295.8</ele>
        <time>2021-07-23T11:22:51Z</time>
      </trkpt>
      <trkpt lat="43.4912040" lon="-7.2228430">
        <ele>295.2</ele>
        <time>2021-07-23T11:22:52Z</time>
      </trkpt>
      <trkpt lat="43.4911450" lon="-7.2229120">
        <ele>294.4</ele>
        <time>2021-07-23T11:22:53Z</time>
      </trkpt>
      <trkpt lat="43.4910760" lon="-7.2229830">
        <ele>293.6</ele>
        <time>2021-07-23T11:22:54Z</time>
      </trkpt>
      <trkpt lat="43.4910080" lon="-7.2230440">
        <ele>292.8</ele>
        <time>2021-07-23T11:22:55Z</time>
      </trkpt>
      <trkpt lat="43.4909430" lon="-7.2231030">
        <ele>292.2</ele>
        <time>2021-07-23T11:22:56Z</time>
      </trkpt>
      <trkpt lat="43.4908770" lon="-7.2231560">
        <ele>291.6</ele>
        <time>2021-07-23T11:22:57Z</time>
      </trkpt>
      <trkpt lat="43.4908190" lon="-7.2232110">
        <ele>291.2</ele>
        <time>2021-07-23T11:22:58Z</time>
      </trkpt>
      <trkpt lat="43.4907600" lon="-7.2232630">
        <ele>290.6</ele>
        <time>2021-07-23T11:22:59Z</time>
      </trkpt>
      <trkpt lat="43.4907010" lon="-7.2233160">
        <ele>290.0</ele>
        <time>2021-07-23T11:23:00Z</time>
      </trkpt>
      <trkpt lat="43.4906340" lon="-7.2233630">
        <ele>289.2</ele>
        <time>2021-07-23T11:23:01Z</time>
      </trkpt>
      <trkpt lat="43.4905660" lon="-7.2234140">
        <ele>288.6</ele>
        <time>2021-07-23T11:23:02Z</time>
      </trkpt>
      <trkpt lat="43.4905040" lon="-7.2234600">
        <ele>287.8</ele>
        <time>2021-07-23T11:23:03Z</time>
      </trkpt>
      <trkpt lat="43.4904430" lon="-7.2235080">
        <ele>287.0</ele>
        <time>2021-07-23T11:23:04Z</time>
      </trkpt>
      <trkpt lat="43.4903830" lon="-7.2235600">
        <ele>286.4</ele>
        <time>2021-07-23T11:23:05Z</time>
      </trkpt>
      <trkpt lat="43.4903240" lon="-7.2236160">
        <ele>285.6</ele>
        <time>2021-07-23T11:23:06Z</time>
      </trkpt>
      <trkpt lat="43.4902620" lon="-7.2236760">
        <ele>285.2</ele>
        <time>2021-07-23T11:23:07Z</time>
      </trkpt>
      <trkpt lat="43.4902020" lon="-7.2237330">
        <ele>284.6</ele>
        <time>2021-07-23T11:23:08Z</time>
      </trkpt>
      <trkpt lat="43.4901430" lon="-7.2237970">
        <ele>284.2</ele>
        <time>2021-07-23T11:23:09Z</time>
      </trkpt>
      <trkpt lat="43.4900760" lon="-7.2238660">
        <ele>283.6</ele>
        <time>2021-07-23T11:23:10Z</time>
      </trkpt>
      <trkpt lat="43.4900100" lon="-7.2239320">
        <ele>283.0</ele>
        <time>2021-07-23T11:23:11Z</time>
      </trkpt>
      <trkpt lat="43.4899410" lon="-7.2239990">
        <ele>281.6</ele>
        <time>2021-07-23T11:23:12Z</time>
      </trkpt>
      <trkpt lat="43.4898710" lon="-7.2240700">
        <ele>281.0</ele>
        <time>2021-07-23T11:23:13Z</time>
      </trkpt>
      <trkpt lat="43.4898040" lon="-7.2241410">
        <ele>281.0</ele>
        <time>2021-07-23T11:23:14Z</time>
      </trkpt>
      <trkpt lat="43.4897440" lon="-7.2242140">
        <ele>280.4</ele>
        <time>2021-07-23T11:23:15Z</time>
      </trkpt>
      <trkpt lat="43.4896840" lon="-7.2242840">
        <ele>279.8</ele>
        <time>2021-07-23T11:23:16Z</time>
      </trkpt>
      <trkpt lat="43.4896350" lon="-7.2243440">
        <ele>278.8</ele>
        <time>2021-07-23T11:23:17Z</time>
      </trkpt>
      <trkpt lat="43.4895950" lon="-7.2244050">
        <ele>277.6</ele>
        <time>2021-07-23T11:23:18Z</time>
      </trkpt>
      <trkpt lat="43.4895660" lon="-7.2244720">
        <ele>276.6</ele>
        <time>2021-07-23T11:23:19Z</time>
      </trkpt>
      <trkpt lat="43.4895570" lon="-7.2245470">
        <ele>275.6</ele>
        <time>2021-07-23T11:23:20Z</time>
      </trkpt>
      <trkpt lat="43.4895630" lon="-7.2246150">
        <ele>274.6</ele>
        <time>2021-07-23T11:23:21Z</time>
      </trkpt>
      <trkpt lat="43.4895880" lon="-7.2246740">
        <ele>273.6</ele>
        <time>2021-07-23T11:23:22Z</time>
      </trkpt>
      <trkpt lat="43.4896260" lon="-7.2247160">
        <ele>272.4</ele>
        <time>2021-07-23T11:23:23Z</time>
      </trkpt>
      <trkpt lat="43.4896630" lon="-7.2247420">
        <ele>272.4</ele>
        <time>2021-07-23T11:23:24Z</time>
      </trkpt>
      <trkpt lat="43.4897290" lon="-7.2247700">
        <ele>272.4</ele>
        <time>2021-07-23T11:23:26Z</time>
      </trkpt>
      <trkpt lat="43.4897700" lon="-7.2248000">
        <ele>272.4</ele>
        <time>2021-07-23T11:23:28Z</time>
      </trkpt>
      <trkpt lat="43.4898130" lon="-7.2248570">
        <ele>272.4</ele>
        <time>2021-07-23T11:23:31Z</time>
      </trkpt>
      <trkpt lat="43.4898370" lon="-7.2249050">
        <ele>272.4</ele>
        <time>2021-07-23T11:23:33Z</time>
      </trkpt>
      <trkpt lat="43.4898490" lon="-7.2249290">
        <ele>272.4</ele>
        <time>2021-07-23T11:23:34Z</time>
      </trkpt>
      <trkpt lat="43.4898620" lon="-7.2249530">
        <ele>272.4</ele>
        <time>2021-07-23T11:23:35Z</time>
      </trkpt>
      <trkpt lat="43.4898820" lon="-7.2250050">
        <ele>272.4</ele>
        <time>2021-07-23T11:23:37Z</time>
      </trkpt>
      <trkpt lat="43.4898960" lon="-7.2250540">
        <ele>272.4</ele>
        <time>2021-07-23T11:23:39Z</time>
      </trkpt>
      <trkpt lat="43.4899090" lon="-7.2251000">
        <ele>273.0</ele>
        <time>2021-07-23T11:23:41Z</time>
      </trkpt>
      <trkpt lat="43.4899130" lon="-7.2251240">
        <ele>273.4</ele>
        <time>2021-07-23T11:23:42Z</time>
      </trkpt>
      <trkpt lat="43.4899150" lon="-7.2251440">
        <ele>273.8</ele>
        <time>2021-07-23T11:23:43Z</time>
      </trkpt>
      <trkpt lat="43.4899180" lon="-7.2251630">
        <ele>274.2</ele>
        <time>2021-07-23T11:23:44Z</time>
      </trkpt>
      <trkpt lat="43.4899210" lon="-7.2251860">
        <ele>274.6</ele>
        <time>2021-07-23T11:23:45Z</time>
      </trkpt>
      <trkpt lat="43.4899370" lon="-7.2252600">
        <ele>274.6</ele>
        <time>2021-07-23T11:23:48Z</time>
      </trkpt>
      <trkpt lat="43.4899640" lon="-7.2253420">
        <ele>274.6</ele>
        <time>2021-07-23T11:23:51Z</time>
      </trkpt>
      <trkpt lat="43.4899940" lon="-7.2254370">
        <ele>274.6</ele>
        <time>2021-07-23T11:23:54Z</time>
      </trkpt>
      <trkpt lat="43.4900090" lon="-7.2254920">
        <ele>274.6</ele>
        <time>2021-07-23T11:23:56Z</time>
      </trkpt>
      <trkpt lat="43.4900150" lon="-7.2255170">
        <ele>275.0</ele>
        <time>2021-07-23T11:23:57Z</time>
      </trkpt>
      <trkpt lat="43.4900250" lon="-7.2255430">
        <ele>275.4</ele>
        <time>2021-07-23T11:23:58Z</time>
      </trkpt>
      <trkpt lat="43.4900320" lon="-7.2255700">
        <ele>275.8</ele>
        <time>2021-07-23T11:23:59Z</time>
      </trkpt>
      <trkpt lat="43.4900410" lon="-7.2255990">
        <ele>276.6</ele>
        <time>2021-07-23T11:24:00Z</time>
      </trkpt>
      <trkpt lat="43.4900610" lon="-7.2256880">
        <ele>276.6</ele>
        <time>2021-07-23T11:24:03Z</time>
      </trkpt>
      <trkpt lat="43.4901340" lon="-7.2260030">
        <ele>276.6</ele>
        <time>2021-07-23T11:24:12Z</time>
      </trkpt>
      <trkpt lat="43.4901970" lon="-7.2262570">
        <ele>276.6</ele>
        <time>2021-07-23T11:24:17Z</time>
      </trkpt>
      <trkpt lat="43.4902440" lon="-7.2265720">
        <ele>276.6</ele>
        <time>2021-07-23T11:24:22Z</time>
      </trkpt>
      <trkpt lat="43.4902530" lon="-7.2266400">
        <ele>276.2</ele>
        <time>2021-07-23T11:24:23Z</time>
      </trkpt>
      <trkpt lat="43.4902620" lon="-7.2267150">
        <ele>275.2</ele>
        <time>2021-07-23T11:24:24Z</time>
      </trkpt>
      <trkpt lat="43.4902660" lon="-7.2267840">
        <ele>274.8</ele>
        <time>2021-07-23T11:24:25Z</time>
      </trkpt>
      <trkpt lat="43.4902670" lon="-7.2268510">
        <ele>274.4</ele>
        <time>2021-07-23T11:24:26Z</time>
      </trkpt>
      <trkpt lat="43.4902580" lon="-7.2269170">
        <ele>273.8</ele>
        <time>2021-07-23T11:24:27Z</time>
      </trkpt>
      <trkpt lat="43.4902430" lon="-7.2269840">
        <ele>273.4</ele>
        <time>2021-07-23T11:24:28Z</time>
      </trkpt>
      <trkpt lat="43.4902240" lon="-7.2270480">
        <ele>273.0</ele>
        <time>2021-07-23T11:24:29Z</time>
      </trkpt>
      <trkpt lat="43.4902010" lon="-7.2271120">
        <ele>272.2</ele>
        <time>2021-07-23T11:24:30Z</time>
      </trkpt>
      <trkpt lat="43.4901770" lon="-7.2271750">
        <ele>271.6</ele>
        <time>2021-07-23T11:24:31Z</time>
      </trkpt>
      <trkpt lat="43.4901440" lon="-7.2272410">
        <ele>270.8</ele>
        <time>2021-07-23T11:24:32Z</time>
      </trkpt>
      <trkpt lat="43.4901110" lon="-7.2273130">
        <ele>270.2</ele>
        <time>2021-07-23T11:24:33Z</time>
      </trkpt>
      <trkpt lat="43.4900720" lon="-7.2273950">
        <ele>269.6</ele>
        <time>2021-07-23T11:24:34Z</time>
      </trkpt>
      <trkpt lat="43.4900260" lon="-7.2274780">
        <ele>269.0</ele>
        <time>2021-07-23T11:24:35Z</time>
      </trkpt>
      <trkpt lat="43.4899750" lon="-7.2275700">
        <ele>268.4</ele>
        <time>2021-07-23T11:24:36Z</time>
      </trkpt>
      <trkpt lat="43.4899200" lon="-7.2276630">
        <ele>267.8</ele>
        <time>2021-07-23T11:24:37Z</time>
      </trkpt>
      <trkpt lat="43.4898600" lon="-7.2277580">
        <ele>267.2</ele>
        <time>2021-07-23T11:24:38Z</time>
      </trkpt>
      <trkpt lat="43.4897980" lon="-7.2278510">
        <ele>266.8</ele>
        <time>2021-07-23T11:24:39Z</time>
      </trkpt>
      <trkpt lat="43.4897410" lon="-7.2279260">
        <ele>266.4</ele>
        <time>2021-07-23T11:24:40Z</time>
      </trkpt>
      <trkpt lat="43.4896900" lon="-7.2279930">
        <ele>265.6</ele>
        <time>2021-07-23T11:24:41Z</time>
      </trkpt>
      <trkpt lat="43.4896440" lon="-7.2280560">
        <ele>265.0</ele>
        <time>2021-07-23T11:24:42Z</time>
      </trkpt>
      <trkpt lat="43.4896070" lon="-7.2281160">
        <ele>264.4</ele>
        <time>2021-07-23T11:24:43Z</time>
      </trkpt>
      <trkpt lat="43.4895670" lon="-7.2281740">
        <ele>263.4</ele>
        <time>2021-07-23T11:24:44Z</time>
      </trkpt>
      <trkpt lat="43.4895320" lon="-7.2282310">
        <ele>262.6</ele>
        <time>2021-07-23T11:24:45Z</time>
      </trkpt>
      <trkpt lat="43.4894960" lon="-7.2282920">
        <ele>261.8</ele>
        <time>2021-07-23T11:24:46Z</time>
      </trkpt>
      <trkpt lat="43.4894620" lon="-7.2283550">
        <ele>261.0</ele>
        <time>2021-07-23T11:24:47Z</time>
      </trkpt>
      <trkpt lat="43.4894260" lon="-7.2284160">
        <ele>260.2</ele>
        <time>2021-07-23T11:24:48Z</time>
      </trkpt>
      <trkpt lat="43.4892470" lon="-7.2287010">
        <ele>260.2</ele>
        <time>2021-07-23T11:24:53Z</time>
      </trkpt>
      <trkpt lat="43.4891720" lon="-7.2288350">
        <ele>260.2</ele>
        <time>2021-07-23T11:24:56Z</time>
      </trkpt>
      <trkpt lat="43.4891430" lon="-7.2289160">
        <ele>259.8</ele>
        <time>2021-07-23T11:24:57Z</time>
      </trkpt>
      <trkpt lat="43.4891230" lon="-7.2289990">
        <ele>259.2</ele>
        <time>2021-07-23T11:24:58Z</time>
      </trkpt>
      <trkpt lat="43.4891100" lon="-7.2290860">
        <ele>258.8</ele>
        <time>2021-07-23T11:24:59Z</time>
      </trkpt>
      <trkpt lat="43.4891050" lon="-7.2291750">
        <ele>258.4</ele>
        <time>2021-07-23T11:25:00Z</time>
      </trkpt>
      <trkpt lat="43.4891060" lon="-7.2292640">
        <ele>258.0</ele>
        <time>2021-07-23T11:25:01Z</time>
      </trkpt>
      <trkpt lat="43.4891070" lon="-7.2293520">
        <ele>258.0</ele>
        <time>2021-07-23T11:25:02Z</time>
      </trkpt>
      <trkpt lat="43.4890540" lon="-7.2299030">
        <ele>258.0</ele>
        <time>2021-07-23T11:25:08Z</time>
      </trkpt>
      <trkpt lat="43.4889250" lon="-7.2304280">
        <ele>257.6</ele>
        <time>2021-07-23T11:25:14Z</time>
      </trkpt>
      <trkpt lat="43.4889010" lon="-7.2305130">
        <ele>256.8</ele>
        <time>2021-07-23T11:25:15Z</time>
      </trkpt>
      <trkpt lat="43.4888800" lon="-7.2305980">
        <ele>256.4</ele>
        <time>2021-07-23T11:25:16Z</time>
      </trkpt>
      <trkpt lat="43.4888570" lon="-7.2306870">
        <ele>256.0</ele>
        <time>2021-07-23T11:25:17Z</time>
      </trkpt>
      <trkpt lat="43.4888200" lon="-7.2310420">
        <ele>256.0</ele>
        <time>2021-07-23T11:25:21Z</time>
      </trkpt>
      <trkpt lat="43.4888220" lon="-7.2311350">
        <ele>256.0</ele>
        <time>2021-07-23T11:25:22Z</time>
      </trkpt>
      <trkpt lat="43.4888290" lon="-7.2312300">
        <ele>255.4</ele>
        <time>2021-07-23T11:25:23Z</time>
      </trkpt>
      <trkpt lat="43.4888380" lon="-7.2313250">
        <ele>254.8</ele>
        <time>2021-07-23T11:25:24Z</time>
      </trkpt>
      <trkpt lat="43.4888450" lon="-7.2314230">
        <ele>254.2</ele>
        <time>2021-07-23T11:25:25Z</time>
      </trkpt>
      <trkpt lat="43.4888510" lon="-7.2315290">
        <ele>253.4</ele>
        <time>2021-07-23T11:25:26Z</time>
      </trkpt>
      <trkpt lat="43.4888600" lon="-7.2316310">
        <ele>252.8</ele>
        <time>2021-07-23T11:25:27Z</time>
      </trkpt>
      <trkpt lat="43.4888700" lon="-7.2317350">
        <ele>252.8</ele>
        <time>2021-07-23T11:25:28Z</time>
      </trkpt>
      <trkpt lat="43.4888890" lon="-7.2319490">
        <ele>252.8</ele>
        <time>2021-07-23T11:25:30Z</time>
      </trkpt>
      <trkpt lat="43.4889130" lon="-7.2322550">
        <ele>252.8</ele>
        <time>2021-07-23T11:25:33Z</time>
      </trkpt>
      <trkpt lat="43.4889170" lon="-7.2323570">
        <ele>252.2</ele>
        <time>2021-07-23T11:25:34Z</time>
      </trkpt>
      <trkpt lat="43.4889180" lon="-7.2324480">
        <ele>251.6</ele>
        <time>2021-07-23T11:25:35Z</time>
      </trkpt>
      <trkpt lat="43.4889060" lon="-7.2325360">
        <ele>251.0</ele>
        <time>2021-07-23T11:25:36Z</time>
      </trkpt>
      <trkpt lat="43.4888850" lon="-7.2326180">
        <ele>250.4</ele>
        <time>2021-07-23T11:25:37Z</time>
      </trkpt>
      <trkpt lat="43.4888580" lon="-7.2327000">
        <ele>249.6</ele>
        <time>2021-07-23T11:25:38Z</time>
      </trkpt>
      <trkpt lat="43.4887900" lon="-7.2328530">
        <ele>248.8</ele>
        <time>2021-07-23T11:25:40Z</time>
      </trkpt>
      <trkpt lat="43.4887520" lon="-7.2329310">
        <ele>248.2</ele>
        <time>2021-07-23T11:25:41Z</time>
      </trkpt>
      <trkpt lat="43.4887160" lon="-7.2330080">
        <ele>247.8</ele>
        <time>2021-07-23T11:25:42Z</time>
      </trkpt>
      <trkpt lat="43.4886780" lon="-7.2330840">
        <ele>247.4</ele>
        <time>2021-07-23T11:25:43Z</time>
      </trkpt>
      <trkpt lat="43.4886420" lon="-7.2331590">
        <ele>246.8</ele>
        <time>2021-07-23T11:25:44Z</time>
      </trkpt>
      <trkpt lat="43.4886020" lon="-7.2332350">
        <ele>246.2</ele>
        <time>2021-07-23T11:25:45Z</time>
      </trkpt>
      <trkpt lat="43.4885650" lon="-7.2333110">
        <ele>245.8</ele>
        <time>2021-07-23T11:25:46Z</time>
      </trkpt>
      <trkpt lat="43.4885290" lon="-7.2333870">
        <ele>245.2</ele>
        <time>2021-07-23T11:25:47Z</time>
      </trkpt>
      <trkpt lat="43.4884920" lon="-7.2334650">
        <ele>244.6</ele>
        <time>2021-07-23T11:25:48Z</time>
      </trkpt>
      <trkpt lat="43.4884180" lon="-7.2336240">
        <ele>244.2</ele>
        <time>2021-07-23T11:25:50Z</time>
      </trkpt>
      <trkpt lat="43.4883830" lon="-7.2337000">
        <ele>243.8</ele>
        <time>2021-07-23T11:25:51Z</time>
      </trkpt>
      <trkpt lat="43.4883480" lon="-7.2337700">
        <ele>243.0</ele>
        <time>2021-07-23T11:25:52Z</time>
      </trkpt>
      <trkpt lat="43.4883140" lon="-7.2338330">
        <ele>242.0</ele>
        <time>2021-07-23T11:25:53Z</time>
      </trkpt>
      <trkpt lat="43.4882720" lon="-7.2338880">
        <ele>241.0</ele>
        <time>2021-07-23T11:25:54Z</time>
      </trkpt>
      <trkpt lat="43.4882210" lon="-7.2339330">
        <ele>240.0</ele>
        <time>2021-07-23T11:25:55Z</time>
      </trkpt>
      <trkpt lat="43.4881580" lon="-7.2339690">
        <ele>238.8</ele>
        <time>2021-07-23T11:25:56Z</time>
      </trkpt>
      <trkpt lat="43.4880910" lon="-7.2339830">
        <ele>237.6</ele>
        <time>2021-07-23T11:25:57Z</time>
      </trkpt>
      <trkpt lat="43.4880220" lon="-7.2339800">
        <ele>236.6</ele>
        <time>2021-07-23T11:25:58Z</time>
      </trkpt>
      <trkpt lat="43.4879530" lon="-7.2339590">
        <ele>235.6</ele>
        <time>2021-07-23T11:25:59Z</time>
      </trkpt>
      <trkpt lat="43.4878840" lon="-7.2339300">
        <ele>234.6</ele>
        <time>2021-07-23T11:26:00Z</time>
      </trkpt>
      <trkpt lat="43.4878130" lon="-7.2339040">
        <ele>233.6</ele>
        <time>2021-07-23T11:26:01Z</time>
      </trkpt>
      <trkpt lat="43.4877450" lon="-7.2338790">
        <ele>232.6</ele>
        <time>2021-07-23T11:26:02Z</time>
      </trkpt>
      <trkpt lat="43.4876750" lon="-7.2338530">
        <ele>231.6</ele>
        <time>2021-07-23T11:26:03Z</time>
      </trkpt>
      <trkpt lat="43.4875320" lon="-7.2338010">
        <ele>230.6</ele>
        <time>2021-07-23T11:26:05Z</time>
      </trkpt>
      <trkpt lat="43.4874630" lon="-7.2337780">
        <ele>230.0</ele>
        <time>2021-07-23T11:26:06Z</time>
      </trkpt>
      <trkpt lat="43.4873910" lon="-7.2337620">
        <ele>229.6</ele>
        <time>2021-07-23T11:26:07Z</time>
      </trkpt>
      <trkpt lat="43.4873160" lon="-7.2337620">
        <ele>229.0</ele>
        <time>2021-07-23T11:26:08Z</time>
      </trkpt>
      <trkpt lat="43.4872400" lon="-7.2337760">
        <ele>228.6</ele>
        <time>2021-07-23T11:26:09Z</time>
      </trkpt>
      <trkpt lat="43.4871670" lon="-7.2338020">
        <ele>228.2</ele>
        <time>2021-07-23T11:26:10Z</time>
      </trkpt>
      <trkpt lat="43.4870980" lon="-7.2338340">
        <ele>227.8</ele>
        <time>2021-07-23T11:26:11Z</time>
      </trkpt>
      <trkpt lat="43.4870370" lon="-7.2338760">
        <ele>227.4</ele>
        <time>2021-07-23T11:26:12Z</time>
      </trkpt>
      <trkpt lat="43.4869800" lon="-7.2339290">
        <ele>227.0</ele>
        <time>2021-07-23T11:26:13Z</time>
      </trkpt>
      <trkpt lat="43.4868870" lon="-7.2340440">
        <ele>226.6</ele>
        <time>2021-07-23T11:26:15Z</time>
      </trkpt>
      <trkpt lat="43.4868520" lon="-7.2341150">
        <ele>226.0</ele>
        <time>2021-07-23T11:26:16Z</time>
      </trkpt>
      <trkpt lat="43.4868280" lon="-7.2341930">
        <ele>225.6</ele>
        <time>2021-07-23T11:26:17Z</time>
      </trkpt>
      <trkpt lat="43.4868100" lon="-7.2342820">
        <ele>225.2</ele>
        <time>2021-07-23T11:26:18Z</time>
      </trkpt>
      <trkpt lat="43.4868030" lon="-7.2343740">
        <ele>224.8</ele>
        <time>2021-07-23T11:26:19Z</time>
      </trkpt>
      <trkpt lat="43.4868040" lon="-7.2344750">
        <ele>224.8</ele>
        <time>2021-07-23T11:26:20Z</time>
      </trkpt>
      <trkpt lat="43.4868480" lon="-7.2348000">
        <ele>224.2</ele>
        <time>2021-07-23T11:26:23Z</time>
      </trkpt>
      <trkpt lat="43.4868740" lon="-7.2349120">
        <ele>223.6</ele>
        <time>2021-07-23T11:26:24Z</time>
      </trkpt>
      <trkpt lat="43.4869030" lon="-7.2350270">
        <ele>222.6</ele>
        <time>2021-07-23T11:26:25Z</time>
      </trkpt>
      <trkpt lat="43.4869350" lon="-7.2351480">
        <ele>221.8</ele>
        <time>2021-07-23T11:26:26Z</time>
      </trkpt>
      <trkpt lat="43.4869650" lon="-7.2352590">
        <ele>220.8</ele>
        <time>2021-07-23T11:26:27Z</time>
      </trkpt>
      <trkpt lat="43.4869910" lon="-7.2353640">
        <ele>220.0</ele>
        <time>2021-07-23T11:26:28Z</time>
      </trkpt>
      <trkpt lat="43.4870160" lon="-7.2354640">
        <ele>218.6</ele>
        <time>2021-07-23T11:26:29Z</time>
      </trkpt>
      <trkpt lat="43.4870410" lon="-7.2355670">
        <ele>218.2</ele>
        <time>2021-07-23T11:26:30Z</time>
      </trkpt>
      <trkpt lat="43.4870650" lon="-7.2356670">
        <ele>217.6</ele>
        <time>2021-07-23T11:26:31Z</time>
      </trkpt>
      <trkpt lat="43.4870890" lon="-7.2357630">
        <ele>217.2</ele>
        <time>2021-07-23T11:26:32Z</time>
      </trkpt>
      <trkpt lat="43.4871160" lon="-7.2358580">
        <ele>216.6</ele>
        <time>2021-07-23T11:26:33Z</time>
      </trkpt>
      <trkpt lat="43.4871400" lon="-7.2359550">
        <ele>216.0</ele>
        <time>2021-07-23T11:26:34Z</time>
      </trkpt>
      <trkpt lat="43.4871640" lon="-7.2360540">
        <ele>215.4</ele>
        <time>2021-07-23T11:26:35Z</time>
      </trkpt>
      <trkpt lat="43.4871900" lon="-7.2361540">
        <ele>214.8</ele>
        <time>2021-07-23T11:26:36Z</time>
      </trkpt>
      <trkpt lat="43.4872220" lon="-7.2362550">
        <ele>214.0</ele>
        <time>2021-07-23T11:26:37Z</time>
      </trkpt>
      <trkpt lat="43.4872570" lon="-7.2363560">
        <ele>213.2</ele>
        <time>2021-07-23T11:26:38Z</time>
      </trkpt>
      <trkpt lat="43.4872950" lon="-7.2364560">
        <ele>212.4</ele>
        <time>2021-07-23T11:26:39Z</time>
      </trkpt>
      <trkpt lat="43.4873410" lon="-7.2365620">
        <ele>211.6</ele>
        <time>2021-07-23T11:26:40Z</time>
      </trkpt>
      <trkpt lat="43.4873890" lon="-7.2366630">
        <ele>211.0</ele>
        <time>2021-07-23T11:26:41Z</time>
      </trkpt>
      <trkpt lat="43.4874390" lon="-7.2367640">
        <ele>210.4</ele>
        <time>2021-07-23T11:26:42Z</time>
      </trkpt>
      <trkpt lat="43.4874890" lon="-7.2368700">
        <ele>209.8</ele>
        <time>2021-07-23T11:26:43Z</time>
      </trkpt>
      <trkpt lat="43.4875410" lon="-7.2369780">
        <ele>209.2</ele>
        <time>2021-07-23T11:26:44Z</time>
      </trkpt>
      <trkpt lat="43.4875850" lon="-7.2370880">
        <ele>208.6</ele>
        <time>2021-07-23T11:26:45Z</time>
      </trkpt>
      <trkpt lat="43.4876540" lon="-7.2373060">
        <ele>208.6</ele>
        <time>2021-07-23T11:26:47Z</time>
      </trkpt>
      <trkpt lat="43.4877000" lon="-7.2375290">
        <ele>208.2</ele>
        <time>2021-07-23T11:26:49Z</time>
      </trkpt>
      <trkpt lat="43.4877170" lon="-7.2376300">
        <ele>207.8</ele>
        <time>2021-07-23T11:26:50Z</time>
      </trkpt>
      <trkpt lat="43.4877280" lon="-7.2377290">
        <ele>207.4</ele>
        <time>2021-07-23T11:26:51Z</time>
      </trkpt>
      <trkpt lat="43.4877350" lon="-7.2378250">
        <ele>207.0</ele>
        <time>2021-07-23T11:26:52Z</time>
      </trkpt>
      <trkpt lat="43.4877360" lon="-7.2379180">
        <ele>206.6</ele>
        <time>2021-07-23T11:26:53Z</time>
      </trkpt>
      <trkpt lat="43.4877300" lon="-7.2380070">
        <ele>206.6</ele>
        <time>2021-07-23T11:26:54Z</time>
      </trkpt>
      <trkpt lat="43.4877000" lon="-7.2381800">
        <ele>206.6</ele>
        <time>2021-07-23T11:26:56Z</time>
      </trkpt>
      <trkpt lat="43.4876610" lon="-7.2383360">
        <ele>206.0</ele>
        <time>2021-07-23T11:26:58Z</time>
      </trkpt>
      <trkpt lat="43.4876360" lon="-7.2384090">
        <ele>205.6</ele>
        <time>2021-07-23T11:26:59Z</time>
      </trkpt>
      <trkpt lat="43.4876070" lon="-7.2384730">
        <ele>205.2</ele>
        <time>2021-07-23T11:27:00Z</time>
      </trkpt>
      <trkpt lat="43.4875750" lon="-7.2385270">
        <ele>204.4</ele>
        <time>2021-07-23T11:27:01Z</time>
      </trkpt>
      <trkpt lat="43.4875340" lon="-7.2385740">
        <ele>203.8</ele>
        <time>2021-07-23T11:27:02Z</time>
      </trkpt>
      <trkpt lat="43.4874850" lon="-7.2386130">
        <ele>203.0</ele>
        <time>2021-07-23T11:27:03Z</time>
      </trkpt>
      <trkpt lat="43.4874320" lon="-7.2386400">
        <ele>202.2</ele>
        <time>2021-07-23T11:27:04Z</time>
      </trkpt>
      <trkpt lat="43.4873780" lon="-7.2386630">
        <ele>201.6</ele>
        <time>2021-07-23T11:27:05Z</time>
      </trkpt>
      <trkpt lat="43.4872590" lon="-7.2386920">
        <ele>201.6</ele>
        <time>2021-07-23T11:27:07Z</time>
      </trkpt>
      <trkpt lat="43.4871930" lon="-7.2387030">
        <ele>201.0</ele>
        <time>2021-07-23T11:27:08Z</time>
      </trkpt>
      <trkpt lat="43.4871270" lon="-7.2387140">
        <ele>200.4</ele>
        <time>2021-07-23T11:27:09Z</time>
      </trkpt>
      <trkpt lat="43.4870550" lon="-7.2387270">
        <ele>199.4</ele>
        <time>2021-07-23T11:27:10Z</time>
      </trkpt>
      <trkpt lat="43.4869850" lon="-7.2387440">
        <ele>198.6</ele>
        <time>2021-07-23T11:27:11Z</time>
      </trkpt>
      <trkpt lat="43.4869110" lon="-7.2387620">
        <ele>197.8</ele>
        <time>2021-07-23T11:27:12Z</time>
      </trkpt>
      <trkpt lat="43.4868380" lon="-7.2387800">
        <ele>196.8</ele>
        <time>2021-07-23T11:27:13Z</time>
      </trkpt>
      <trkpt lat="43.4867640" lon="-7.2388000">
        <ele>196.2</ele>
        <time>2021-07-23T11:27:14Z</time>
      </trkpt>
      <trkpt lat="43.4866900" lon="-7.2388210">
        <ele>195.6</ele>
        <time>2021-07-23T11:27:15Z</time>
      </trkpt>
      <trkpt lat="43.4866170" lon="-7.2388420">
        <ele>195.0</ele>
        <time>2021-07-23T11:27:16Z</time>
      </trkpt>
      <trkpt lat="43.4865420" lon="-7.2388610">
        <ele>194.4</ele>
        <time>2021-07-23T11:27:17Z</time>
      </trkpt>
      <trkpt lat="43.4864720" lon="-7.2388760">
        <ele>193.8</ele>
        <time>2021-07-23T11:27:18Z</time>
      </trkpt>
      <trkpt lat="43.4864000" lon="-7.2388910">
        <ele>192.8</ele>
        <time>2021-07-23T11:27:19Z</time>
      </trkpt>
      <trkpt lat="43.4863350" lon="-7.2389030">
        <ele>192.2</ele>
        <time>2021-07-23T11:27:20Z</time>
      </trkpt>
      <trkpt lat="43.4862720" lon="-7.2389120">
        <ele>191.4</ele>
        <time>2021-07-23T11:27:21Z</time>
      </trkpt>
      <trkpt lat="43.4862050" lon="-7.2389280">
        <ele>190.8</ele>
        <time>2021-07-23T11:27:22Z</time>
      </trkpt>
      <trkpt lat="43.4861410" lon="-7.2389460">
        <ele>190.2</ele>
        <time>2021-07-23T11:27:23Z</time>
      </trkpt>
      <trkpt lat="43.4860770" lon="-7.2389690">
        <ele>189.4</ele>
        <time>2021-07-23T11:27:24Z</time>
      </trkpt>
      <trkpt lat="43.4860130" lon="-7.2389940">
        <ele>188.8</ele>
        <time>2021-07-23T11:27:25Z</time>
      </trkpt>
      <trkpt lat="43.4859530" lon="-7.2390300">
        <ele>188.8</ele>
        <time>2021-07-23T11:27:26Z</time>
      </trkpt>
      <trkpt lat="43.4858430" lon="-7.2391210">
        <ele>188.8</ele>
        <time>2021-07-23T11:27:28Z</time>
      </trkpt>
      <trkpt lat="43.4857060" lon="-7.2392880">
        <ele>188.8</ele>
        <time>2021-07-23T11:27:31Z</time>
      </trkpt>
      <trkpt lat="43.4856720" lon="-7.2393590">
        <ele>188.8</ele>
        <time>2021-07-23T11:27:32Z</time>
      </trkpt>
      <trkpt lat="43.4856430" lon="-7.2394390">
        <ele>188.8</ele>
        <time>2021-07-23T11:27:33Z</time>
      </trkpt>
      <trkpt lat="43.4856140" lon="-7.2396110">
        <ele>188.4</ele>
        <time>2021-07-23T11:27:35Z</time>
      </trkpt>
      <trkpt lat="43.4856100" lon="-7.2397050">
        <ele>188.0</ele>
        <time>2021-07-23T11:27:36Z</time>
      </trkpt>
      <trkpt lat="43.4856110" lon="-7.2398010">
        <ele>187.4</ele>
        <time>2021-07-23T11:27:37Z</time>
      </trkpt>
      <trkpt lat="43.4856160" lon="-7.2399030">
        <ele>186.8</ele>
        <time>2021-07-23T11:27:38Z</time>
      </trkpt>
      <trkpt lat="43.4856230" lon="-7.2400080">
        <ele>186.2</ele>
        <time>2021-07-23T11:27:39Z</time>
      </trkpt>
      <trkpt lat="43.4856320" lon="-7.2401210">
        <ele>185.6</ele>
        <time>2021-07-23T11:27:40Z</time>
      </trkpt>
      <trkpt lat="43.4856390" lon="-7.2402290">
        <ele>185.0</ele>
        <time>2021-07-23T11:27:41Z</time>
      </trkpt>
      <trkpt lat="43.4856480" lon="-7.2403320">
        <ele>184.4</ele>
        <time>2021-07-23T11:27:42Z</time>
      </trkpt>
      <trkpt lat="43.4856720" lon="-7.2406770">
        <ele>183.8</ele>
        <time>2021-07-23T11:27:46Z</time>
      </trkpt>
      <trkpt lat="43.4856740" lon="-7.2407600">
        <ele>183.2</ele>
        <time>2021-07-23T11:27:47Z</time>
      </trkpt>
      <trkpt lat="43.4856770" lon="-7.2408460">
        <ele>182.4</ele>
        <time>2021-07-23T11:27:48Z</time>
      </trkpt>
      <trkpt lat="43.4856800" lon="-7.2409380">
        <ele>181.6</ele>
        <time>2021-07-23T11:27:49Z</time>
      </trkpt>
      <trkpt lat="43.4856830" lon="-7.2410360">
        <ele>180.8</ele>
        <time>2021-07-23T11:27:50Z</time>
      </trkpt>
      <trkpt lat="43.4856860" lon="-7.2411370">
        <ele>180.0</ele>
        <time>2021-07-23T11:27:51Z</time>
      </trkpt>
      <trkpt lat="43.4856900" lon="-7.2412440">
        <ele>179.2</ele>
        <time>2021-07-23T11:27:52Z</time>
      </trkpt>
      <trkpt lat="43.4856960" lon="-7.2413550">
        <ele>178.4</ele>
        <time>2021-07-23T11:27:53Z</time>
      </trkpt>
      <trkpt lat="43.4857030" lon="-7.2414710">
        <ele>178.0</ele>
        <time>2021-07-23T11:27:54Z</time>
      </trkpt>
      <trkpt lat="43.4857110" lon="-7.2415870">
        <ele>177.6</ele>
        <time>2021-07-23T11:27:55Z</time>
      </trkpt>
      <trkpt lat="43.4857180" lon="-7.2417140">
        <ele>177.2</ele>
        <time>2021-07-23T11:27:56Z</time>
      </trkpt>
      <trkpt lat="43.4857260" lon="-7.2418400">
        <ele>176.8</ele>
        <time>2021-07-23T11:27:57Z</time>
      </trkpt>
      <trkpt lat="43.4857320" lon="-7.2419700">
        <ele>176.2</ele>
        <time>2021-07-23T11:27:58Z</time>
      </trkpt>
      <trkpt lat="43.4857520" lon="-7.2423630">
        <ele>175.8</ele>
        <time>2021-07-23T11:28:01Z</time>
      </trkpt>
      <trkpt lat="43.4857590" lon="-7.2424940">
        <ele>175.2</ele>
        <time>2021-07-23T11:28:02Z</time>
      </trkpt>
      <trkpt lat="43.4857660" lon="-7.2426220">
        <ele>174.8</ele>
        <time>2021-07-23T11:28:03Z</time>
      </trkpt>
      <trkpt lat="43.4857740" lon="-7.2427540">
        <ele>174.2</ele>
        <time>2021-07-23T11:28:04Z</time>
      </trkpt>
      <trkpt lat="43.4857820" lon="-7.2428760">
        <ele>173.6</ele>
        <time>2021-07-23T11:28:05Z</time>
      </trkpt>
      <trkpt lat="43.4857890" lon="-7.2429950">
        <ele>173.0</ele>
        <time>2021-07-23T11:28:06Z</time>
      </trkpt>
      <trkpt lat="43.4857970" lon="-7.2431080">
        <ele>172.4</ele>
        <time>2021-07-23T11:28:07Z</time>
      </trkpt>
      <trkpt lat="43.4858030" lon="-7.2432200">
        <ele>171.6</ele>
        <time>2021-07-23T11:28:08Z</time>
      </trkpt>
      <trkpt lat="43.4858090" lon="-7.2433280">
        <ele>169.8</ele>
        <time>2021-07-23T11:28:09Z</time>
      </trkpt>
      <trkpt lat="43.4858140" lon="-7.2434370">
        <ele>168.6</ele>
        <time>2021-07-23T11:28:10Z</time>
      </trkpt>
      <trkpt lat="43.4858220" lon="-7.2435510">
        <ele>167.6</ele>
        <time>2021-07-23T11:28:11Z</time>
      </trkpt>
      <trkpt lat="43.4858360" lon="-7.2436630">
        <ele>166.4</ele>
        <time>2021-07-23T11:28:12Z</time>
      </trkpt>
      <trkpt lat="43.4858600" lon="-7.2437790">
        <ele>165.4</ele>
        <time>2021-07-23T11:28:13Z</time>
      </trkpt>
      <trkpt lat="43.4858910" lon="-7.2438980">
        <ele>164.2</ele>
        <time>2021-07-23T11:28:14Z</time>
      </trkpt>
      <trkpt lat="43.4859280" lon="-7.2440150">
        <ele>163.2</ele>
        <time>2021-07-23T11:28:15Z</time>
      </trkpt>
      <trkpt lat="43.4859680" lon="-7.2441280">
        <ele>162.2</ele>
        <time>2021-07-23T11:28:16Z</time>
      </trkpt>
      <trkpt lat="43.4860060" lon="-7.2442370">
        <ele>161.8</ele>
        <time>2021-07-23T11:28:17Z</time>
      </trkpt>
      <trkpt lat="43.4860400" lon="-7.2443480">
        <ele>161.2</ele>
        <time>2021-07-23T11:28:18Z</time>
      </trkpt>
      <trkpt lat="43.4860690" lon="-7.2444650">
        <ele>160.6</ele>
        <time>2021-07-23T11:28:19Z</time>
      </trkpt>
      <trkpt lat="43.4860870" lon="-7.2445750">
        <ele>159.8</ele>
        <time>2021-07-23T11:28:20Z</time>
      </trkpt>
      <trkpt lat="43.4861010" lon="-7.2446890">
        <ele>159.2</ele>
        <time>2021-07-23T11:28:21Z</time>
      </trkpt>
      <trkpt lat="43.4861020" lon="-7.2448050">
        <ele>158.4</ele>
        <time>2021-07-23T11:28:22Z</time>
      </trkpt>
      <trkpt lat="43.4860930" lon="-7.2449200">
        <ele>157.6</ele>
        <time>2021-07-23T11:28:23Z</time>
      </trkpt>
      <trkpt lat="43.4860820" lon="-7.2450300">
        <ele>156.8</ele>
        <time>2021-07-23T11:28:24Z</time>
      </trkpt>
      <trkpt lat="43.4860690" lon="-7.2451370">
        <ele>156.0</ele>
        <time>2021-07-23T11:28:25Z</time>
      </trkpt>
      <trkpt lat="43.4860530" lon="-7.2452450">
        <ele>155.2</ele>
        <time>2021-07-23T11:28:26Z</time>
      </trkpt>
      <trkpt lat="43.4859970" lon="-7.2456250">
        <ele>155.2</ele>
        <time>2021-07-23T11:28:30Z</time>
      </trkpt>
      <trkpt lat="43.4859340" lon="-7.2459970">
        <ele>154.4</ele>
        <time>2021-07-23T11:28:34Z</time>
      </trkpt>
      <trkpt lat="43.4859080" lon="-7.2460870">
        <ele>153.8</ele>
        <time>2021-07-23T11:28:35Z</time>
      </trkpt>
      <trkpt lat="43.4858780" lon="-7.2461730">
        <ele>153.4</ele>
        <time>2021-07-23T11:28:36Z</time>
      </trkpt>
      <trkpt lat="43.4858500" lon="-7.2462510">
        <ele>152.8</ele>
        <time>2021-07-23T11:28:37Z</time>
      </trkpt>
      <trkpt lat="43.4858210" lon="-7.2463210">
        <ele>152.4</ele>
        <time>2021-07-23T11:28:38Z</time>
      </trkpt>
      <trkpt lat="43.4857890" lon="-7.2463830">
        <ele>151.8</ele>
        <time>2021-07-23T11:28:39Z</time>
      </trkpt>
      <trkpt lat="43.4857570" lon="-7.2464390">
        <ele>151.2</ele>
        <time>2021-07-23T11:28:40Z</time>
      </trkpt>
      <trkpt lat="43.4857190" lon="-7.2464890">
        <ele>150.4</ele>
        <time>2021-07-23T11:28:41Z</time>
      </trkpt>
      <trkpt lat="43.4856690" lon="-7.2465410">
        <ele>149.8</ele>
        <time>2021-07-23T11:28:42Z</time>
      </trkpt>
      <trkpt lat="43.4856140" lon="-7.2465840">
        <ele>149.0</ele>
        <time>2021-07-23T11:28:43Z</time>
      </trkpt>
      <trkpt lat="43.4855530" lon="-7.2466190">
        <ele>148.4</ele>
        <time>2021-07-23T11:28:44Z</time>
      </trkpt>
      <trkpt lat="43.4854890" lon="-7.2466460">
        <ele>147.8</ele>
        <time>2021-07-23T11:28:45Z</time>
      </trkpt>
      <trkpt lat="43.4854220" lon="-7.2466670">
        <ele>147.4</ele>
        <time>2021-07-23T11:28:46Z</time>
      </trkpt>
      <trkpt lat="43.4853520" lon="-7.2466880">
        <ele>146.6</ele>
        <time>2021-07-23T11:28:47Z</time>
      </trkpt>
      <trkpt lat="43.4852790" lon="-7.2467100">
        <ele>145.8</ele>
        <time>2021-07-23T11:28:48Z</time>
      </trkpt>
      <trkpt lat="43.4852010" lon="-7.2467340">
        <ele>145.2</ele>
        <time>2021-07-23T11:28:49Z</time>
      </trkpt>
      <trkpt lat="43.4851230" lon="-7.2467590">
        <ele>144.4</ele>
        <time>2021-07-23T11:28:50Z</time>
      </trkpt>
      <trkpt lat="43.4850420" lon="-7.2467830">
        <ele>143.8</ele>
        <time>2021-07-23T11:28:51Z</time>
      </trkpt>
      <trkpt lat="43.4848810" lon="-7.2468380">
        <ele>143.4</ele>
        <time>2021-07-23T11:28:53Z</time>
      </trkpt>
      <trkpt lat="43.4847960" lon="-7.2468660">
        <ele>143.0</ele>
        <time>2021-07-23T11:28:54Z</time>
      </trkpt>
      <trkpt lat="43.4847130" lon="-7.2468930">
        <ele>142.4</ele>
        <time>2021-07-23T11:28:55Z</time>
      </trkpt>
      <trkpt lat="43.4846290" lon="-7.2469160">
        <ele>142.0</ele>
        <time>2021-07-23T11:28:56Z</time>
      </trkpt>
      <trkpt lat="43.4845470" lon="-7.2469390">
        <ele>141.6</ele>
        <time>2021-07-23T11:28:57Z</time>
      </trkpt>
      <trkpt lat="43.4844750" lon="-7.2469610">
        <ele>140.6</ele>
        <time>2021-07-23T11:28:58Z</time>
      </trkpt>
      <trkpt lat="43.4844080" lon="-7.2469870">
        <ele>140.0</ele>
        <time>2021-07-23T11:28:59Z</time>
      </trkpt>
      <trkpt lat="43.4843440" lon="-7.2470160">
        <ele>139.4</ele>
        <time>2021-07-23T11:29:00Z</time>
      </trkpt>
      <trkpt lat="43.4842850" lon="-7.2470620">
        <ele>139.0</ele>
        <time>2021-07-23T11:29:01Z</time>
      </trkpt>
      <trkpt lat="43.4841960" lon="-7.2471980">
        <ele>138.6</ele>
        <time>2021-07-23T11:29:03Z</time>
      </trkpt>
      <trkpt lat="43.4841690" lon="-7.2472880">
        <ele>138.2</ele>
        <time>2021-07-23T11:29:04Z</time>
      </trkpt>
      <trkpt lat="43.4841590" lon="-7.2473750">
        <ele>137.8</ele>
        <time>2021-07-23T11:29:05Z</time>
      </trkpt>
      <trkpt lat="43.4841640" lon="-7.2474620">
        <ele>137.4</ele>
        <time>2021-07-23T11:29:06Z</time>
      </trkpt>
      <trkpt lat="43.4841810" lon="-7.2475480">
        <ele>137.0</ele>
        <time>2021-07-23T11:29:07Z</time>
      </trkpt>
      <trkpt lat="43.4842610" lon="-7.2478020">
        <ele>137.0</ele>
        <time>2021-07-23T11:29:10Z</time>
      </trkpt>
      <trkpt lat="43.4843290" lon="-7.2479920">
        <ele>136.4</ele>
        <time>2021-07-23T11:29:12Z</time>
      </trkpt>
      <trkpt lat="43.4843690" lon="-7.2480880">
        <ele>136.0</ele>
        <time>2021-07-23T11:29:13Z</time>
      </trkpt>
      <trkpt lat="43.4844120" lon="-7.2481870">
        <ele>135.6</ele>
        <time>2021-07-23T11:29:14Z</time>
      </trkpt>
      <trkpt lat="43.4844550" lon="-7.2482880">
        <ele>135.2</ele>
        <time>2021-07-23T11:29:15Z</time>
      </trkpt>
      <trkpt lat="43.4844980" lon="-7.2483850">
        <ele>134.6</ele>
        <time>2021-07-23T11:29:16Z</time>
      </trkpt>
      <trkpt lat="43.4845400" lon="-7.2484820">
        <ele>134.0</ele>
        <time>2021-07-23T11:29:17Z</time>
      </trkpt>
      <trkpt lat="43.4845810" lon="-7.2485750">
        <ele>133.2</ele>
        <time>2021-07-23T11:29:18Z</time>
      </trkpt>
      <trkpt lat="43.4846220" lon="-7.2486690">
        <ele>132.4</ele>
        <time>2021-07-23T11:29:19Z</time>
      </trkpt>
      <trkpt lat="43.4846600" lon="-7.2487660">
        <ele>131.4</ele>
        <time>2021-07-23T11:29:20Z</time>
      </trkpt>
      <trkpt lat="43.4846960" lon="-7.2488630">
        <ele>130.4</ele>
        <time>2021-07-23T11:29:21Z</time>
      </trkpt>
      <trkpt lat="43.4847320" lon="-7.2489620">
        <ele>129.6</ele>
        <time>2021-07-23T11:29:22Z</time>
      </trkpt>
      <trkpt lat="43.4847720" lon="-7.2490640">
        <ele>128.6</ele>
        <time>2021-07-23T11:29:23Z</time>
      </trkpt>
      <trkpt lat="43.4848100" lon="-7.2491600">
        <ele>126.8</ele>
        <time>2021-07-23T11:29:24Z</time>
      </trkpt>
      <trkpt lat="43.4848480" lon="-7.2492420">
        <ele>125.8</ele>
        <time>2021-07-23T11:29:25Z</time>
      </trkpt>
      <trkpt lat="43.4848830" lon="-7.2493180">
        <ele>124.8</ele>
        <time>2021-07-23T11:29:26Z</time>
      </trkpt>
      <trkpt lat="43.4849180" lon="-7.2494010">
        <ele>123.8</ele>
        <time>2021-07-23T11:29:27Z</time>
      </trkpt>
      <trkpt lat="43.4849530" lon="-7.2494840">
        <ele>122.8</ele>
        <time>2021-07-23T11:29:28Z</time>
      </trkpt>
      <trkpt lat="43.4849840" lon="-7.2495650">
        <ele>122.0</ele>
        <time>2021-07-23T11:29:29Z</time>
      </trkpt>
      <trkpt lat="43.4850140" lon="-7.2496400">
        <ele>121.0</ele>
        <time>2021-07-23T11:29:30Z</time>
      </trkpt>
      <trkpt lat="43.4850430" lon="-7.2497120">
        <ele>120.2</ele>
        <time>2021-07-23T11:29:31Z</time>
      </trkpt>
      <trkpt lat="43.4850670" lon="-7.2497840">
        <ele>119.4</ele>
        <time>2021-07-23T11:29:32Z</time>
      </trkpt>
      <trkpt lat="43.4850900" lon="-7.2498630">
        <ele>118.6</ele>
        <time>2021-07-23T11:29:33Z</time>
      </trkpt>
      <trkpt lat="43.4850980" lon="-7.2499540">
        <ele>117.6</ele>
        <time>2021-07-23T11:29:34Z</time>
      </trkpt>
      <trkpt lat="43.4850920" lon="-7.2500650">
        <ele>116.8</ele>
        <time>2021-07-23T11:29:35Z</time>
      </trkpt>
      <trkpt lat="43.4850840" lon="-7.2501730">
        <ele>116.0</ele>
        <time>2021-07-23T11:29:36Z</time>
      </trkpt>
      <trkpt lat="43.4850630" lon="-7.2502730">
        <ele>116.0</ele>
        <time>2021-07-23T11:29:37Z</time>
      </trkpt>
      <trkpt lat="43.4849720" lon="-7.2504420">
        <ele>116.0</ele>
        <time>2021-07-23T11:29:39Z</time>
      </trkpt>
      <trkpt lat="43.4849310" lon="-7.2505270">
        <ele>115.6</ele>
        <time>2021-07-23T11:29:40Z</time>
      </trkpt>
      <trkpt lat="43.4848970" lon="-7.2506180">
        <ele>115.0</ele>
        <time>2021-07-23T11:29:41Z</time>
      </trkpt>
      <trkpt lat="43.4848690" lon="-7.2507130">
        <ele>114.6</ele>
        <time>2021-07-23T11:29:42Z</time>
      </trkpt>
      <trkpt lat="43.4848520" lon="-7.2508150">
        <ele>114.2</ele>
        <time>2021-07-23T11:29:43Z</time>
      </trkpt>
      <trkpt lat="43.4848390" lon="-7.2509140">
        <ele>113.6</ele>
        <time>2021-07-23T11:29:44Z</time>
      </trkpt>
      <trkpt lat="43.4848160" lon="-7.2511090">
        <ele>113.6</ele>
        <time>2021-07-23T11:29:46Z</time>
      </trkpt>
      <trkpt lat="43.4848080" lon="-7.2512080">
        <ele>113.0</ele>
        <time>2021-07-23T11:29:47Z</time>
      </trkpt>
      <trkpt lat="43.4848050" lon="-7.2513040">
        <ele>112.0</ele>
        <time>2021-07-23T11:29:48Z</time>
      </trkpt>
      <trkpt lat="43.4848060" lon="-7.2513960">
        <ele>111.4</ele>
        <time>2021-07-23T11:29:49Z</time>
      </trkpt>
      <trkpt lat="43.4848180" lon="-7.2514850">
        <ele>111.0</ele>
        <time>2021-07-23T11:29:50Z</time>
      </trkpt>
      <trkpt lat="43.4848370" lon="-7.2515770">
        <ele>110.4</ele>
        <time>2021-07-23T11:29:51Z</time>
      </trkpt>
      <trkpt lat="43.4848630" lon="-7.2516650">
        <ele>110.0</ele>
        <time>2021-07-23T11:29:52Z</time>
      </trkpt>
      <trkpt lat="43.4848940" lon="-7.2517540">
        <ele>109.2</ele>
        <time>2021-07-23T11:29:53Z</time>
      </trkpt>
      <trkpt lat="43.4849400" lon="-7.2518460">
        <ele>108.6</ele>
        <time>2021-07-23T11:29:54Z</time>
      </trkpt>
      <trkpt lat="43.4849910" lon="-7.2519340">
        <ele>108.0</ele>
        <time>2021-07-23T11:29:55Z</time>
      </trkpt>
      <trkpt lat="43.4850430" lon="-7.2520230">
        <ele>107.2</ele>
        <time>2021-07-23T11:29:56Z</time>
      </trkpt>
      <trkpt lat="43.4850890" lon="-7.2521140">
        <ele>106.6</ele>
        <time>2021-07-23T11:29:57Z</time>
      </trkpt>
      <trkpt lat="43.4851310" lon="-7.2522140">
        <ele>106.0</ele>
        <time>2021-07-23T11:29:58Z</time>
      </trkpt>
      <trkpt lat="43.4851370" lon="-7.2523210">
        <ele>105.2</ele>
        <time>2021-07-23T11:29:59Z</time>
      </trkpt>
      <trkpt lat="43.4851300" lon="-7.2524340">
        <ele>104.2</ele>
        <time>2021-07-23T11:30:00Z</time>
      </trkpt>
      <trkpt lat="43.4851130" lon="-7.2525410">
        <ele>103.4</ele>
        <time>2021-07-23T11:30:01Z</time>
      </trkpt>
      <trkpt lat="43.4850880" lon="-7.2526500">
        <ele>102.6</ele>
        <time>2021-07-23T11:30:02Z</time>
      </trkpt>
      <trkpt lat="43.4850620" lon="-7.2527590">
        <ele>101.8</ele>
        <time>2021-07-23T11:30:03Z</time>
      </trkpt>
      <trkpt lat="43.4850340" lon="-7.2528670">
        <ele>101.0</ele>
        <time>2021-07-23T11:30:04Z</time>
      </trkpt>
      <trkpt lat="43.4850040" lon="-7.2529710">
        <ele>100.2</ele>
        <time>2021-07-23T11:30:05Z</time>
      </trkpt>
      <trkpt lat="43.4849730" lon="-7.2530770">
        <ele>99.4</ele>
        <time>2021-07-23T11:30:06Z</time>
      </trkpt>
      <trkpt lat="43.4848950" lon="-7.2533590">
        <ele>99.4</ele>
        <time>2021-07-23T11:30:09Z</time>
      </trkpt>
      <trkpt lat="43.4848360" lon="-7.2536380">
        <ele>99.4</ele>
        <time>2021-07-23T11:30:13Z</time>
      </trkpt>
      <trkpt lat="43.4848240" lon="-7.2537290">
        <ele>99.4</ele>
        <time>2021-07-23T11:30:15Z</time>
      </trkpt>
      <trkpt lat="43.4848240" lon="-7.2538120">
        <ele>99.4</ele>
        <time>2021-07-23T11:30:17Z</time>
      </trkpt>
      <trkpt lat="43.4848270" lon="-7.2538480">
        <ele>99.4</ele>
        <time>2021-07-23T11:30:18Z</time>
      </trkpt>
      <trkpt lat="43.4848430" lon="-7.2539180">
        <ele>99.4</ele>
        <time>2021-07-23T11:30:20Z</time>
      </trkpt>
      <trkpt lat="43.4848670" lon="-7.2539990">
        <ele>99.4</ele>
        <time>2021-07-23T11:30:22Z</time>
      </trkpt>
      <trkpt lat="43.4848950" lon="-7.2540820">
        <ele>99.4</ele>
        <time>2021-07-23T11:30:24Z</time>
      </trkpt>
      <trkpt lat="43.4849420" lon="-7.2541990">
        <ele>99.4</ele>
        <time>2021-07-23T11:30:27Z</time>
      </trkpt>
      <trkpt lat="43.4849890" lon="-7.2543060">
        <ele>99.4</ele>
        <time>2021-07-23T11:30:30Z</time>
      </trkpt>
      <trkpt lat="43.4850180" lon="-7.2543660">
        <ele>99.4</ele>
        <time>2021-07-23T11:30:32Z</time>
      </trkpt>
      <trkpt lat="43.4850550" lon="-7.2544670">
        <ele>99.4</ele>
        <time>2021-07-23T11:30:36Z</time>
      </trkpt>
      <trkpt lat="43.4850810" lon="-7.2545470">
        <ele>99.4</ele>
        <time>2021-07-23T11:30:39Z</time>
      </trkpt>
      <trkpt lat="43.4850890" lon="-7.2545710">
        <ele>99.4</ele>
        <time>2021-07-23T11:30:40Z</time>
      </trkpt>
      <trkpt lat="43.4851070" lon="-7.2546180">
        <ele>99.4</ele>
        <time>2021-07-23T11:30:42Z</time>
      </trkpt>
      <trkpt lat="43.4851380" lon="-7.2546900">
        <ele>99.4</ele>
        <time>2021-07-23T11:30:45Z</time>
      </trkpt>
      <trkpt lat="43.4851490" lon="-7.2547110">
        <ele>99.4</ele>
        <time>2021-07-23T11:30:46Z</time>
      </trkpt>
      <trkpt lat="43.4851840" lon="-7.2547750">
        <ele>99.4</ele>
        <time>2021-07-23T11:30:49Z</time>
      </trkpt>
      <trkpt lat="43.4851970" lon="-7.2547940">
        <ele>99.8</ele>
        <time>2021-07-23T11:30:50Z</time>
      </trkpt>
      <trkpt lat="43.4852140" lon="-7.2548110">
        <ele>100.2</ele>
        <time>2021-07-23T11:30:51Z</time>
      </trkpt>
      <trkpt lat="43.4852330" lon="-7.2548280">
        <ele>100.6</ele>
        <time>2021-07-23T11:30:52Z</time>
      </trkpt>
      <trkpt lat="43.4852510" lon="-7.2548440">
        <ele>101.0</ele>
        <time>2021-07-23T11:30:53Z</time>
      </trkpt>
      <trkpt lat="43.4852690" lon="-7.2548590">
        <ele>101.4</ele>
        <time>2021-07-23T11:30:54Z</time>
      </trkpt>
      <trkpt lat="43.4853420" lon="-7.2549100">
        <ele>102.0</ele>
        <time>2021-07-23T11:30:58Z</time>
      </trkpt>
      <trkpt lat="43.4853610" lon="-7.2549260">
        <ele>102.4</ele>
        <time>2021-07-23T11:30:59Z</time>
      </trkpt>
      <trkpt lat="43.4853810" lon="-7.2549370">
        <ele>102.8</ele>
        <time>2021-07-23T11:31:00Z</time>
      </trkpt>
      <trkpt lat="43.4853980" lon="-7.2549540">
        <ele>103.2</ele>
        <time>2021-07-23T11:31:01Z</time>
      </trkpt>
      <trkpt lat="43.4854140" lon="-7.2549700">
        <ele>103.8</ele>
        <time>2021-07-23T11:31:02Z</time>
      </trkpt>
      <trkpt lat="43.4855120" lon="-7.2551200">
        <ele>103.8</ele>
        <time>2021-07-23T11:31:09Z</time>
      </trkpt>
      <trkpt lat="43.4855470" lon="-7.2552000">
        <ele>104.2</ele>
        <time>2021-07-23T11:31:12Z</time>
      </trkpt>
      <trkpt lat="43.4855560" lon="-7.2552270">
        <ele>104.6</ele>
        <time>2021-07-23T11:31:13Z</time>
      </trkpt>
      <trkpt lat="43.4855640" lon="-7.2552500">
        <ele>105.0</ele>
        <time>2021-07-23T11:31:14Z</time>
      </trkpt>
      <trkpt lat="43.4855700" lon="-7.2552810">
        <ele>105.4</ele>
        <time>2021-07-23T11:31:15Z</time>
      </trkpt>
      <trkpt lat="43.4855750" lon="-7.2553130">
        <ele>105.8</ele>
        <time>2021-07-23T11:31:16Z</time>
      </trkpt>
      <trkpt lat="43.4856050" lon="-7.2555270">
        <ele>105.8</ele>
        <time>2021-07-23T11:31:23Z</time>
      </trkpt>
      <trkpt lat="43.4856110" lon="-7.2555590">
        <ele>105.8</ele>
        <time>2021-07-23T11:31:24Z</time>
      </trkpt>
      <trkpt lat="43.4856310" lon="-7.2557370">
        <ele>105.8</ele>
        <time>2021-07-23T11:31:29Z</time>
      </trkpt>
      <trkpt lat="43.4856360" lon="-7.2557810">
        <ele>105.8</ele>
        <time>2021-07-23T11:31:30Z</time>
      </trkpt>
      <trkpt lat="43.4856390" lon="-7.2559590">
        <ele>105.8</ele>
        <time>2021-07-23T11:31:34Z</time>
      </trkpt>
      <trkpt lat="43.4856460" lon="-7.2560530">
        <ele>105.8</ele>
        <time>2021-07-23T11:31:36Z</time>
      </trkpt>
      <trkpt lat="43.4856510" lon="-7.2561050">
        <ele>105.8</ele>
        <time>2021-07-23T11:31:37Z</time>
      </trkpt>
      <trkpt lat="43.4856720" lon="-7.2562550">
        <ele>105.8</ele>
        <time>2021-07-23T11:31:40Z</time>
      </trkpt>
      <trkpt lat="43.4856860" lon="-7.2563530">
        <ele>105.8</ele>
        <time>2021-07-23T11:31:42Z</time>
      </trkpt>
      <trkpt lat="43.4856910" lon="-7.2564650">
        <ele>105.8</ele>
        <time>2021-07-23T11:31:44Z</time>
      </trkpt>
      <trkpt lat="43.4856980" lon="-7.2565970">
        <ele>105.8</ele>
        <time>2021-07-23T11:31:46Z</time>
      </trkpt>
      <trkpt lat="43.4857280" lon="-7.2568640">
        <ele>105.8</ele>
        <time>2021-07-23T11:31:50Z</time>
      </trkpt>
      <trkpt lat="43.4857460" lon="-7.2570570">
        <ele>105.8</ele>
        <time>2021-07-23T11:31:53Z</time>
      </trkpt>
      <trkpt lat="43.4857540" lon="-7.2571190">
        <ele>105.8</ele>
        <time>2021-07-23T11:31:54Z</time>
      </trkpt>
      <trkpt lat="43.4857880" lon="-7.2574160">
        <ele>105.8</ele>
        <time>2021-07-23T11:31:59Z</time>
      </trkpt>
      <trkpt lat="43.4857960" lon="-7.2576400">
        <ele>105.8</ele>
        <time>2021-07-23T11:32:03Z</time>
      </trkpt>
      <trkpt lat="43.4858010" lon="-7.2580300">
        <ele>105.8</ele>
        <time>2021-07-23T11:32:11Z</time>
      </trkpt>
      <trkpt lat="43.4858000" lon="-7.2580720">
        <ele>105.8</ele>
        <time>2021-07-23T11:32:12Z</time>
      </trkpt>
      <trkpt lat="43.4858610" lon="-7.2582320">
        <ele>105.8</ele>
        <time>2021-07-23T11:32:17Z</time>
      </trkpt>
      <trkpt lat="43.4860000" lon="-7.2582770">
        <ele>105.8</ele>
        <time>2021-07-23T11:32:21Z</time>
      </trkpt>
      <trkpt lat="43.4860380" lon="-7.2582760">
        <ele>105.8</ele>
        <time>2021-07-23T11:32:22Z</time>
      </trkpt>
      <trkpt lat="43.4861640" lon="-7.2582770">
        <ele>106.2</ele>
        <time>2021-07-23T11:32:26Z</time>
      </trkpt>
      <trkpt lat="43.4861830" lon="-7.2582940">
        <ele>106.6</ele>
        <time>2021-07-23T11:32:27Z</time>
      </trkpt>
      <trkpt lat="43.4861990" lon="-7.2583210">
        <ele>107.0</ele>
        <time>2021-07-23T11:32:28Z</time>
      </trkpt>
      <trkpt lat="43.4862040" lon="-7.2583460">
        <ele>107.4</ele>
        <time>2021-07-23T11:32:29Z</time>
      </trkpt>
      <trkpt lat="43.4862110" lon="-7.2583810">
        <ele>107.8</ele>
        <time>2021-07-23T11:32:30Z</time>
      </trkpt>
      <trkpt lat="43.4862140" lon="-7.2584250">
        <ele>107.8</ele>
        <time>2021-07-23T11:32:31Z</time>
      </trkpt>
      <trkpt lat="43.4861820" lon="-7.2585890">
        <ele>107.8</ele>
        <time>2021-07-23T11:32:35Z</time>
      </trkpt>
      <trkpt lat="43.4861530" lon="-7.2587820">
        <ele>107.8</ele>
        <time>2021-07-23T11:32:40Z</time>
      </trkpt>
      <trkpt lat="43.4861030" lon="-7.2590200">
        <ele>108.4</ele>
        <time>2021-07-23T11:32:47Z</time>
      </trkpt>
      <trkpt lat="43.4860980" lon="-7.2590540">
        <ele>108.8</ele>
        <time>2021-07-23T11:32:48Z</time>
      </trkpt>
      <trkpt lat="43.4860960" lon="-7.2590910">
        <ele>109.2</ele>
        <time>2021-07-23T11:32:49Z</time>
      </trkpt>
      <trkpt lat="43.4860940" lon="-7.2591270">
        <ele>109.6</ele>
        <time>2021-07-23T11:32:50Z</time>
      </trkpt>
      <trkpt lat="43.4860980" lon="-7.2591670">
        <ele>110.0</ele>
        <time>2021-07-23T11:32:51Z</time>
      </trkpt>
      <trkpt lat="43.4861110" lon="-7.2592660">
        <ele>110.0</ele>
        <time>2021-07-23T11:32:54Z</time>
      </trkpt>
      <trkpt lat="43.4861170" lon="-7.2592980">
        <ele>110.4</ele>
        <time>2021-07-23T11:32:55Z</time>
      </trkpt>
      <trkpt lat="43.4861250" lon="-7.2593310">
        <ele>111.0</ele>
        <time>2021-07-23T11:32:56Z</time>
      </trkpt>
      <trkpt lat="43.4861330" lon="-7.2593620">
        <ele>111.4</ele>
        <time>2021-07-23T11:32:57Z</time>
      </trkpt>
      <trkpt lat="43.4861410" lon="-7.2593930">
        <ele>111.8</ele>
        <time>2021-07-23T11:32:58Z</time>
      </trkpt>
      <trkpt lat="43.4861490" lon="-7.2594280">
        <ele>112.2</ele>
        <time>2021-07-23T11:32:59Z</time>
      </trkpt>
      <trkpt lat="43.4861760" lon="-7.2595550">
        <ele>112.2</ele>
        <time>2021-07-23T11:33:03Z</time>
      </trkpt>
      <trkpt lat="43.4862250" lon="-7.2597070">
        <ele>112.6</ele>
        <time>2021-07-23T11:33:09Z</time>
      </trkpt>
      <trkpt lat="43.4862380" lon="-7.2597260">
        <ele>113.0</ele>
        <time>2021-07-23T11:33:10Z</time>
      </trkpt>
      <trkpt lat="43.4862490" lon="-7.2597460">
        <ele>113.6</ele>
        <time>2021-07-23T11:33:11Z</time>
      </trkpt>
      <trkpt lat="43.4862600" lon="-7.2597670">
        <ele>114.0</ele>
        <time>2021-07-23T11:33:12Z</time>
      </trkpt>
      <trkpt lat="43.4862710" lon="-7.2597880">
        <ele>114.4</ele>
        <time>2021-07-23T11:33:13Z</time>
      </trkpt>
      <trkpt lat="43.4863260" lon="-7.2598720">
        <ele>114.4</ele>
        <time>2021-07-23T11:33:17Z</time>
      </trkpt>
      <trkpt lat="43.4863840" lon="-7.2599780">
        <ele>114.8</ele>
        <time>2021-07-23T11:33:22Z</time>
      </trkpt>
      <trkpt lat="43.4863950" lon="-7.2600020">
        <ele>115.2</ele>
        <time>2021-07-23T11:33:23Z</time>
      </trkpt>
      <trkpt lat="43.4864050" lon="-7.2600230">
        <ele>115.6</ele>
        <time>2021-07-23T11:33:24Z</time>
      </trkpt>
      <trkpt lat="43.4864180" lon="-7.2600450">
        <ele>116.0</ele>
        <time>2021-07-23T11:33:25Z</time>
      </trkpt>
      <trkpt lat="43.4864300" lon="-7.2600670">
        <ele>116.4</ele>
        <time>2021-07-23T11:33:26Z</time>
      </trkpt>
      <trkpt lat="43.4864910" lon="-7.2602050">
        <ele>116.8</ele>
        <time>2021-07-23T11:33:32Z</time>
      </trkpt>
      <trkpt lat="43.4865010" lon="-7.2602280">
        <ele>117.2</ele>
        <time>2021-07-23T11:33:33Z</time>
      </trkpt>
      <trkpt lat="43.4865120" lon="-7.2602500">
        <ele>117.6</ele>
        <time>2021-07-23T11:33:34Z</time>
      </trkpt>
      <trkpt lat="43.4865240" lon="-7.2602720">
        <ele>118.0</ele>
        <time>2021-07-23T11:33:35Z</time>
      </trkpt>
      <trkpt lat="43.4865340" lon="-7.2602930">
        <ele>118.4</ele>
        <time>2021-07-23T11:33:36Z</time>
      </trkpt>
      <trkpt lat="43.4865710" lon="-7.2604060">
        <ele>118.8</ele>
        <time>2021-07-23T11:33:41Z</time>
      </trkpt>
      <trkpt lat="43.4865750" lon="-7.2604320">
        <ele>119.2</ele>
        <time>2021-07-23T11:33:42Z</time>
      </trkpt>
      <trkpt lat="43.4865790" lon="-7.2604570">
        <ele>119.6</ele>
        <time>2021-07-23T11:33:43Z</time>
      </trkpt>
      <trkpt lat="43.4865860" lon="-7.2604780">
        <ele>120.0</ele>
        <time>2021-07-23T11:33:44Z</time>
      </trkpt>
      <trkpt lat="43.4865920" lon="-7.2605020">
        <ele>120.4</ele>
        <time>2021-07-23T11:33:45Z</time>
      </trkpt>
      <trkpt lat="43.4866210" lon="-7.2606960">
        <ele>120.4</ele>
        <time>2021-07-23T11:33:53Z</time>
      </trkpt>
      <trkpt lat="43.4866260" lon="-7.2607480">
        <ele>121.2</ele>
        <time>2021-07-23T11:33:55Z</time>
      </trkpt>
      <trkpt lat="43.4866300" lon="-7.2607740">
        <ele>121.8</ele>
        <time>2021-07-23T11:33:56Z</time>
      </trkpt>
      <trkpt lat="43.4866340" lon="-7.2607990">
        <ele>122.2</ele>
        <time>2021-07-23T11:33:57Z</time>
      </trkpt>
      <trkpt lat="43.4866390" lon="-7.2608220">
        <ele>122.6</ele>
        <time>2021-07-23T11:33:58Z</time>
      </trkpt>
      <trkpt lat="43.4866590" lon="-7.2609210">
        <ele>122.6</ele>
        <time>2021-07-23T11:34:02Z</time>
      </trkpt>
      <trkpt lat="43.4866900" lon="-7.2610520">
        <ele>123.0</ele>
        <time>2021-07-23T11:34:07Z</time>
      </trkpt>
      <trkpt lat="43.4866950" lon="-7.2610800">
        <ele>123.4</ele>
        <time>2021-07-23T11:34:08Z</time>
      </trkpt>
      <trkpt lat="43.4867010" lon="-7.2611100">
        <ele>123.8</ele>
        <time>2021-07-23T11:34:09Z</time>
      </trkpt>
      <trkpt lat="43.4867070" lon="-7.2611350">
        <ele>124.2</ele>
        <time>2021-07-23T11:34:10Z</time>
      </trkpt>
      <trkpt lat="43.4867140" lon="-7.2611650">
        <ele>124.8</ele>
        <time>2021-07-23T11:34:11Z</time>
      </trkpt>
      <trkpt lat="43.4867740" lon="-7.2613540">
        <ele>124.8</ele>
        <time>2021-07-23T11:34:18Z</time>
      </trkpt>
      <trkpt lat="43.4868350" lon="-7.2615930">
        <ele>124.8</ele>
        <time>2021-07-23T11:34:27Z</time>
      </trkpt>
      <trkpt lat="43.4868430" lon="-7.2616740">
        <ele>125.2</ele>
        <time>2021-07-23T11:34:30Z</time>
      </trkpt>
      <trkpt lat="43.4868480" lon="-7.2617000">
        <ele>125.6</ele>
        <time>2021-07-23T11:34:31Z</time>
      </trkpt>
      <trkpt lat="43.4868550" lon="-7.2617280">
        <ele>126.0</ele>
        <time>2021-07-23T11:34:32Z</time>
      </trkpt>
      <trkpt lat="43.4868610" lon="-7.2617560">
        <ele>126.4</ele>
        <time>2021-07-23T11:34:33Z</time>
      </trkpt>
      <trkpt lat="43.4868670" lon="-7.2617820">
        <ele>126.8</ele>
        <time>2021-07-23T11:34:34Z</time>
      </trkpt>
      <trkpt lat="43.4868980" lon="-7.2619660">
        <ele>126.8</ele>
        <time>2021-07-23T11:34:41Z</time>
      </trkpt>
      <trkpt lat="43.4869150" lon="-7.2621570">
        <ele>127.2</ele>
        <time>2021-07-23T11:34:48Z</time>
      </trkpt>
      <trkpt lat="43.4869170" lon="-7.2621840">
        <ele>127.6</ele>
        <time>2021-07-23T11:34:49Z</time>
      </trkpt>
      <trkpt lat="43.4869170" lon="-7.2622080">
        <ele>128.0</ele>
        <time>2021-07-23T11:34:50Z</time>
      </trkpt>
      <trkpt lat="43.4869170" lon="-7.2622320">
        <ele>128.4</ele>
        <time>2021-07-23T11:34:51Z</time>
      </trkpt>
      <trkpt lat="43.4869170" lon="-7.2622550">
        <ele>128.8</ele>
        <time>2021-07-23T11:34:52Z</time>
      </trkpt>
      <trkpt lat="43.4869130" lon="-7.2624130">
        <ele>128.8</ele>
        <time>2021-07-23T11:34:59Z</time>
      </trkpt>
      <trkpt lat="43.4869100" lon="-7.2624770">
        <ele>129.4</ele>
        <time>2021-07-23T11:35:02Z</time>
      </trkpt>
      <trkpt lat="43.4869090" lon="-7.2624970">
        <ele>129.8</ele>
        <time>2021-07-23T11:35:03Z</time>
      </trkpt>
      <trkpt lat="43.4869110" lon="-7.2625170">
        <ele>130.2</ele>
        <time>2021-07-23T11:35:04Z</time>
      </trkpt>
      <trkpt lat="43.4869120" lon="-7.2625380">
        <ele>130.6</ele>
        <time>2021-07-23T11:35:05Z</time>
      </trkpt>
      <trkpt lat="43.4869110" lon="-7.2625600">
        <ele>131.0</ele>
        <time>2021-07-23T11:35:06Z</time>
      </trkpt>
      <trkpt lat="43.4869100" lon="-7.2626050">
        <ele>131.0</ele>
        <time>2021-07-23T11:35:08Z</time>
      </trkpt>
      <trkpt lat="43.4869130" lon="-7.2626520">
        <ele>131.4</ele>
        <time>2021-07-23T11:35:10Z</time>
      </trkpt>
      <trkpt lat="43.4869110" lon="-7.2626740">
        <ele>132.0</ele>
        <time>2021-07-23T11:35:11Z</time>
      </trkpt>
      <trkpt lat="43.4869090" lon="-7.2626960">
        <ele>132.4</ele>
        <time>2021-07-23T11:35:12Z</time>
      </trkpt>
      <trkpt lat="43.4869100" lon="-7.2627190">
        <ele>132.8</ele>
        <time>2021-07-23T11:35:13Z</time>
      </trkpt>
      <trkpt lat="43.4869080" lon="-7.2627400">
        <ele>133.2</ele>
        <time>2021-07-23T11:35:14Z</time>
      </trkpt>
      <trkpt lat="43.4869100" lon="-7.2627630">
        <ele>133.2</ele>
        <time>2021-07-23T11:35:15Z</time>
      </trkpt>
      <trkpt lat="43.4869360" lon="-7.2629510">
        <ele>133.2</ele>
        <time>2021-07-23T11:35:24Z</time>
      </trkpt>
      <trkpt lat="43.4869430" lon="-7.2629710">
        <ele>133.6</ele>
        <time>2021-07-23T11:35:25Z</time>
      </trkpt>
      <trkpt lat="43.4869510" lon="-7.2629870">
        <ele>134.0</ele>
        <time>2021-07-23T11:35:26Z</time>
      </trkpt>
      <trkpt lat="43.4869580" lon="-7.2630060">
        <ele>134.4</ele>
        <time>2021-07-23T11:35:27Z</time>
      </trkpt>
      <trkpt lat="43.4869660" lon="-7.2630220">
        <ele>134.8</ele>
        <time>2021-07-23T11:35:28Z</time>
      </trkpt>
      <trkpt lat="43.4869720" lon="-7.2630380">
        <ele>135.4</ele>
        <time>2021-07-23T11:35:29Z</time>
      </trkpt>
      <trkpt lat="43.4869850" lon="-7.2630770">
        <ele>135.4</ele>
        <time>2021-07-23T11:35:31Z</time>
      </trkpt>
      <trkpt lat="43.4870030" lon="-7.2631580">
        <ele>135.8</ele>
        <time>2021-07-23T11:35:35Z</time>
      </trkpt>
      <trkpt lat="43.4870090" lon="-7.2631750">
        <ele>136.2</ele>
        <time>2021-07-23T11:35:36Z</time>
      </trkpt>
      <trkpt lat="43.4870130" lon="-7.2631930">
        <ele>136.6</ele>
        <time>2021-07-23T11:35:37Z</time>
      </trkpt>
      <trkpt lat="43.4870180" lon="-7.2632120">
        <ele>137.0</ele>
        <time>2021-07-23T11:35:38Z</time>
      </trkpt>
      <trkpt lat="43.4870280" lon="-7.2632290">
        <ele>137.4</ele>
        <time>2021-07-23T11:35:39Z</time>
      </trkpt>
      <trkpt lat="43.4870790" lon="-7.2633880">
        <ele>137.8</ele>
        <time>2021-07-23T11:35:47Z</time>
      </trkpt>
      <trkpt lat="43.4870850" lon="-7.2634040">
        <ele>138.2</ele>
        <time>2021-07-23T11:35:48Z</time>
      </trkpt>
      <trkpt lat="43.4870890" lon="-7.2634240">
        <ele>138.6</ele>
        <time>2021-07-23T11:35:49Z</time>
      </trkpt>
      <trkpt lat="43.4870950" lon="-7.2634420">
        <ele>139.0</ele>
        <time>2021-07-23T11:35:50Z</time>
      </trkpt>
      <trkpt lat="43.4871050" lon="-7.2634550">
        <ele>139.4</ele>
        <time>2021-07-23T11:35:51Z</time>
      </trkpt>
      <trkpt lat="43.4871300" lon="-7.2635230">
        <ele>139.4</ele>
        <time>2021-07-23T11:35:55Z</time>
      </trkpt>
      <trkpt lat="43.4871560" lon="-7.2635920">
        <ele>140.0</ele>
        <time>2021-07-23T11:35:59Z</time>
      </trkpt>
      <trkpt lat="43.4871650" lon="-7.2636050">
        <ele>140.4</ele>
        <time>2021-07-23T11:36:00Z</time>
      </trkpt>
      <trkpt lat="43.4871770" lon="-7.2636170">
        <ele>140.8</ele>
        <time>2021-07-23T11:36:01Z</time>
      </trkpt>
      <trkpt lat="43.4871860" lon="-7.2636370">
        <ele>141.2</ele>
        <time>2021-07-23T11:36:02Z</time>
      </trkpt>
      <trkpt lat="43.4871950" lon="-7.2636550">
        <ele>141.6</ele>
        <time>2021-07-23T11:36:03Z</time>
      </trkpt>
      <trkpt lat="43.4872630" lon="-7.2638060">
        <ele>142.0</ele>
        <time>2021-07-23T11:36:12Z</time>
      </trkpt>
      <trkpt lat="43.4872750" lon="-7.2638200">
        <ele>142.4</ele>
        <time>2021-07-23T11:36:13Z</time>
      </trkpt>
      <trkpt lat="43.4872850" lon="-7.2638340">
        <ele>142.8</ele>
        <time>2021-07-23T11:36:14Z</time>
      </trkpt>
      <trkpt lat="43.4872930" lon="-7.2638510">
        <ele>143.4</ele>
        <time>2021-07-23T11:36:15Z</time>
      </trkpt>
      <trkpt lat="43.4873020" lon="-7.2638640">
        <ele>143.8</ele>
        <time>2021-07-23T11:36:16Z</time>
      </trkpt>
      <trkpt lat="43.4873340" lon="-7.2639380">
        <ele>143.8</ele>
        <time>2021-07-23T11:36:20Z</time>
      </trkpt>
      <trkpt lat="43.4873850" lon="-7.2640190">
        <ele>144.2</ele>
        <time>2021-07-23T11:36:25Z</time>
      </trkpt>
      <trkpt lat="43.4873950" lon="-7.2640360">
        <ele>144.6</ele>
        <time>2021-07-23T11:36:26Z</time>
      </trkpt>
      <trkpt lat="43.4874040" lon="-7.2640510">
        <ele>145.0</ele>
        <time>2021-07-23T11:36:27Z</time>
      </trkpt>
      <trkpt lat="43.4874120" lon="-7.2640700">
        <ele>145.4</ele>
        <time>2021-07-23T11:36:28Z</time>
      </trkpt>
      <trkpt lat="43.4874180" lon="-7.2640880">
        <ele>145.8</ele>
        <time>2021-07-23T11:36:29Z</time>
      </trkpt>
      <trkpt lat="43.4874810" lon="-7.2641800">
        <ele>145.8</ele>
        <time>2021-07-23T11:36:35Z</time>
      </trkpt>
      <trkpt lat="43.4875410" lon="-7.2642710">
        <ele>146.2</ele>
        <time>2021-07-23T11:36:41Z</time>
      </trkpt>
      <trkpt lat="43.4875510" lon="-7.2642880">
        <ele>146.6</ele>
        <time>2021-07-23T11:36:42Z</time>
      </trkpt>
      <trkpt lat="43.4875580" lon="-7.2643070">
        <ele>147.2</ele>
        <time>2021-07-23T11:36:43Z</time>
      </trkpt>
      <trkpt lat="43.4875680" lon="-7.2643250">
        <ele>147.6</ele>
        <time>2021-07-23T11:36:44Z</time>
      </trkpt>
      <trkpt lat="43.4875780" lon="-7.2643370">
        <ele>148.0</ele>
        <time>2021-07-23T11:36:45Z</time>
      </trkpt>
      <trkpt lat="43.4876270" lon="-7.2644170">
        <ele>148.0</ele>
        <time>2021-07-23T11:36:50Z</time>
      </trkpt>
      <trkpt lat="43.4876650" lon="-7.2644870">
        <ele>148.4</ele>
        <time>2021-07-23T11:36:54Z</time>
      </trkpt>
      <trkpt lat="43.4876730" lon="-7.2645050">
        <ele>148.8</ele>
        <time>2021-07-23T11:36:55Z</time>
      </trkpt>
      <trkpt lat="43.4876820" lon="-7.2645190">
        <ele>149.2</ele>
        <time>2021-07-23T11:36:56Z</time>
      </trkpt>
      <trkpt lat="43.4876910" lon="-7.2645350">
        <ele>149.6</ele>
        <time>2021-07-23T11:36:57Z</time>
      </trkpt>
      <trkpt lat="43.4876980" lon="-7.2645500">
        <ele>150.2</ele>
        <time>2021-07-23T11:36:58Z</time>
      </trkpt>
      <trkpt lat="43.4877050" lon="-7.2645640">
        <ele>150.2</ele>
        <time>2021-07-23T11:36:59Z</time>
      </trkpt>
      <trkpt lat="43.4877590" lon="-7.2646590">
        <ele>150.2</ele>
        <time>2021-07-23T11:37:05Z</time>
      </trkpt>
      <trkpt lat="43.4877740" lon="-7.2646940">
        <ele>150.2</ele>
        <time>2021-07-23T11:37:07Z</time>
      </trkpt>
      <trkpt lat="43.4877830" lon="-7.2647910">
        <ele>151.0</ele>
        <time>2021-07-23T11:37:12Z</time>
      </trkpt>
      <trkpt lat="43.4877850" lon="-7.2648120">
        <ele>151.4</ele>
        <time>2021-07-23T11:37:13Z</time>
      </trkpt>
      <trkpt lat="43.4877820" lon="-7.2648360">
        <ele>151.8</ele>
        <time>2021-07-23T11:37:14Z</time>
      </trkpt>
      <trkpt lat="43.4877750" lon="-7.2648530">
        <ele>152.2</ele>
        <time>2021-07-23T11:37:15Z</time>
      </trkpt>
      <trkpt lat="43.4877430" lon="-7.2649620">
        <ele>152.2</ele>
        <time>2021-07-23T11:37:20Z</time>
      </trkpt>
      <trkpt lat="43.4876960" lon="-7.2651010">
        <ele>152.6</ele>
        <time>2021-07-23T11:37:27Z</time>
      </trkpt>
      <trkpt lat="43.4876900" lon="-7.2651220">
        <ele>153.0</ele>
        <time>2021-07-23T11:37:28Z</time>
      </trkpt>
      <trkpt lat="43.4876790" lon="-7.2651460">
        <ele>153.4</ele>
        <time>2021-07-23T11:37:29Z</time>
      </trkpt>
      <trkpt lat="43.4876720" lon="-7.2651660">
        <ele>153.8</ele>
        <time>2021-07-23T11:37:30Z</time>
      </trkpt>
      <trkpt lat="43.4876640" lon="-7.2651820">
        <ele>154.4</ele>
        <time>2021-07-23T11:37:31Z</time>
      </trkpt>
      <trkpt lat="43.4876350" lon="-7.2652860">
        <ele>154.4</ele>
        <time>2021-07-23T11:37:37Z</time>
      </trkpt>
      <trkpt lat="43.4876170" lon="-7.2653850">
        <ele>154.8</ele>
        <time>2021-07-23T11:37:41Z</time>
      </trkpt>
      <trkpt lat="43.4876130" lon="-7.2654030">
        <ele>155.2</ele>
        <time>2021-07-23T11:37:42Z</time>
      </trkpt>
      <trkpt lat="43.4876070" lon="-7.2654190">
        <ele>155.6</ele>
        <time>2021-07-23T11:37:43Z</time>
      </trkpt>
      <trkpt lat="43.4876040" lon="-7.2654340">
        <ele>156.0</ele>
        <time>2021-07-23T11:37:44Z</time>
      </trkpt>
      <trkpt lat="43.4876000" lon="-7.2654510">
        <ele>156.4</ele>
        <time>2021-07-23T11:37:45Z</time>
      </trkpt>
      <trkpt lat="43.4875470" lon="-7.2656170">
        <ele>156.4</ele>
        <time>2021-07-23T11:37:54Z</time>
      </trkpt>
      <trkpt lat="43.4875340" lon="-7.2656530">
        <ele>157.0</ele>
        <time>2021-07-23T11:37:56Z</time>
      </trkpt>
      <trkpt lat="43.4875260" lon="-7.2656690">
        <ele>157.4</ele>
        <time>2021-07-23T11:37:57Z</time>
      </trkpt>
      <trkpt lat="43.4875210" lon="-7.2656890">
        <ele>157.8</ele>
        <time>2021-07-23T11:37:58Z</time>
      </trkpt>
      <trkpt lat="43.4875150" lon="-7.2657060">
        <ele>158.2</ele>
        <time>2021-07-23T11:37:59Z</time>
      </trkpt>
      <trkpt lat="43.4875070" lon="-7.2657230">
        <ele>158.6</ele>
        <time>2021-07-23T11:38:00Z</time>
      </trkpt>
      <trkpt lat="43.4874840" lon="-7.2657710">
        <ele>158.6</ele>
        <time>2021-07-23T11:38:03Z</time>
      </trkpt>
      <trkpt lat="43.4874370" lon="-7.2658870">
        <ele>159.0</ele>
        <time>2021-07-23T11:38:10Z</time>
      </trkpt>
      <trkpt lat="43.4874310" lon="-7.2658970">
        <ele>159.4</ele>
        <time>2021-07-23T11:38:11Z</time>
      </trkpt>
      <trkpt lat="43.4874200" lon="-7.2659060">
        <ele>159.8</ele>
        <time>2021-07-23T11:38:12Z</time>
      </trkpt>
      <trkpt lat="43.4874070" lon="-7.2659190">
        <ele>160.2</ele>
        <time>2021-07-23T11:38:13Z</time>
      </trkpt>
      <trkpt lat="43.4873980" lon="-7.2659370">
        <ele>160.6</ele>
        <time>2021-07-23T11:38:14Z</time>
      </trkpt>
      <trkpt lat="43.4873510" lon="-7.2660150">
        <ele>160.6</ele>
        <time>2021-07-23T11:38:19Z</time>
      </trkpt>
      <trkpt lat="43.4872750" lon="-7.2661450">
        <ele>161.6</ele>
        <time>2021-07-23T11:38:27Z</time>
      </trkpt>
      <trkpt lat="43.4872650" lon="-7.2661590">
        <ele>162.0</ele>
        <time>2021-07-23T11:38:28Z</time>
      </trkpt>
      <trkpt lat="43.4872560" lon="-7.2661750">
        <ele>162.4</ele>
        <time>2021-07-23T11:38:29Z</time>
      </trkpt>
      <trkpt lat="43.4872460" lon="-7.2661900">
        <ele>162.8</ele>
        <time>2021-07-23T11:38:30Z</time>
      </trkpt>
      <trkpt lat="43.4871760" lon="-7.2662970">
        <ele>162.8</ele>
        <time>2021-07-23T11:38:37Z</time>
      </trkpt>
      <trkpt lat="43.4870950" lon="-7.2664480">
        <ele>162.8</ele>
        <time>2021-07-23T11:38:45Z</time>
      </trkpt>
      <trkpt lat="43.4870870" lon="-7.2664670">
        <ele>163.2</ele>
        <time>2021-07-23T11:38:46Z</time>
      </trkpt>
      <trkpt lat="43.4870770" lon="-7.2664860">
        <ele>163.6</ele>
        <time>2021-07-23T11:38:47Z</time>
      </trkpt>
      <trkpt lat="43.4870680" lon="-7.2665010">
        <ele>164.0</ele>
        <time>2021-07-23T11:38:48Z</time>
      </trkpt>
      <trkpt lat="43.4870610" lon="-7.2665210">
        <ele>164.4</ele>
        <time>2021-07-23T11:38:49Z</time>
      </trkpt>
      <trkpt lat="43.4870590" lon="-7.2665430">
        <ele>164.8</ele>
        <time>2021-07-23T11:38:50Z</time>
      </trkpt>
      <trkpt lat="43.4870480" lon="-7.2666100">
        <ele>164.8</ele>
        <time>2021-07-23T11:38:53Z</time>
      </trkpt>
      <trkpt lat="43.4870170" lon="-7.2667120">
        <ele>165.4</ele>
        <time>2021-07-23T11:38:59Z</time>
      </trkpt>
      <trkpt lat="43.4870120" lon="-7.2667330">
        <ele>165.8</ele>
        <time>2021-07-23T11:39:00Z</time>
      </trkpt>
      <trkpt lat="43.4870060" lon="-7.2667530">
        <ele>166.2</ele>
        <time>2021-07-23T11:39:01Z</time>
      </trkpt>
      <trkpt lat="43.4870020" lon="-7.2667720">
        <ele>166.6</ele>
        <time>2021-07-23T11:39:02Z</time>
      </trkpt>
      <trkpt lat="43.4869930" lon="-7.2667890">
        <ele>167.0</ele>
        <time>2021-07-23T11:39:03Z</time>
      </trkpt>
      <trkpt lat="43.4869710" lon="-7.2668410">
        <ele>167.0</ele>
        <time>2021-07-23T11:39:06Z</time>
      </trkpt>
      <trkpt lat="43.4869530" lon="-7.2668780">
        <ele>167.0</ele>
        <time>2021-07-23T11:39:09Z</time>
      </trkpt>
      <trkpt lat="43.4869530" lon="-7.2668730">
        <ele>167.0</ele>
        <time>2021-07-23T11:39:10Z</time>
      </trkpt>
      <trkpt lat="43.4864040" lon="-7.2685550">
        <ele>186.0</ele>
        <time>2021-07-23T11:42:31Z</time>
      </trkpt>
      <trkpt lat="43.4863940" lon="-7.2685660">
        <ele>186.0</ele>
        <time>2021-07-23T11:42:32Z</time>
      </trkpt>
      <trkpt lat="43.4863860" lon="-7.2685780">
        <ele>186.0</ele>
        <time>2021-07-23T11:42:33Z</time>
      </trkpt>
      <trkpt lat="43.4863260" lon="-7.2686420">
        <ele>186.0</ele>
        <time>2021-07-23T11:42:39Z</time>
      </trkpt>
      <trkpt lat="43.4862860" lon="-7.2686990">
        <ele>186.0</ele>
        <time>2021-07-23T11:42:44Z</time>
      </trkpt>
      <trkpt lat="43.4862310" lon="-7.2687620">
        <ele>186.0</ele>
        <time>2021-07-23T11:42:50Z</time>
      </trkpt>
      <trkpt lat="43.4862300" lon="-7.2687710">
        <ele>186.4</ele>
        <time>2021-07-23T11:42:51Z</time>
      </trkpt>
      <trkpt lat="43.4862260" lon="-7.2687830">
        <ele>186.8</ele>
        <time>2021-07-23T11:42:52Z</time>
      </trkpt>
      <trkpt lat="43.4862290" lon="-7.2687780">
        <ele>187.2</ele>
        <time>2021-07-23T11:42:53Z</time>
      </trkpt>
      <trkpt lat="43.4854000" lon="-7.2711760">
        <ele>221.0</ele>
        <time>2021-07-23T11:52:51Z</time>
      </trkpt>
      <trkpt lat="43.4853960" lon="-7.2711900">
        <ele>221.4</ele>
        <time>2021-07-23T11:52:52Z</time>
      </trkpt>
      <trkpt lat="43.4853950" lon="-7.2712020">
        <ele>221.8</ele>
        <time>2021-07-23T11:52:53Z</time>
      </trkpt>
      <trkpt lat="43.4853930" lon="-7.2712130">
        <ele>222.4</ele>
        <time>2021-07-23T11:52:54Z</time>
      </trkpt>
      <trkpt lat="43.4853890" lon="-7.2712260">
        <ele>222.8</ele>
        <time>2021-07-23T11:52:55Z</time>
      </trkpt>
      <trkpt lat="43.4853850" lon="-7.2712400">
        <ele>223.2</ele>
        <time>2021-07-23T11:52:56Z</time>
      </trkpt>
      <trkpt lat="43.4853710" lon="-7.2712960">
        <ele>223.2</ele>
        <time>2021-07-23T11:53:00Z</time>
      </trkpt>
      <trkpt lat="43.4853580" lon="-7.2713990">
        <ele>223.6</ele>
        <time>2021-07-23T11:53:07Z</time>
      </trkpt>
      <trkpt lat="43.4853530" lon="-7.2714150">
        <ele>224.0</ele>
        <time>2021-07-23T11:53:08Z</time>
      </trkpt>
      <trkpt lat="43.4853490" lon="-7.2714310">
        <ele>224.4</ele>
        <time>2021-07-23T11:53:09Z</time>
      </trkpt>
      <trkpt lat="43.4853470" lon="-7.2714470">
        <ele>224.8</ele>
        <time>2021-07-23T11:53:10Z</time>
      </trkpt>
      <trkpt lat="43.4853450" lon="-7.2714640">
        <ele>225.2</ele>
        <time>2021-07-23T11:53:11Z</time>
      </trkpt>
      <trkpt lat="43.4853410" lon="-7.2715420">
        <ele>225.2</ele>
        <time>2021-07-23T11:53:16Z</time>
      </trkpt>
      <trkpt lat="43.4853290" lon="-7.2716370">
        <ele>225.6</ele>
        <time>2021-07-23T11:53:22Z</time>
      </trkpt>
      <trkpt lat="43.4853300" lon="-7.2716500">
        <ele>226.0</ele>
        <time>2021-07-23T11:53:23Z</time>
      </trkpt>
      <trkpt lat="43.4853300" lon="-7.2716660">
        <ele>226.4</ele>
        <time>2021-07-23T11:53:24Z</time>
      </trkpt>
      <trkpt lat="43.4853300" lon="-7.2716820">
        <ele>226.8</ele>
        <time>2021-07-23T11:53:25Z</time>
      </trkpt>
      <trkpt lat="43.4853300" lon="-7.2716980">
        <ele>227.2</ele>
        <time>2021-07-23T11:53:26Z</time>
      </trkpt>
      <trkpt lat="43.4853150" lon="-7.2717850">
        <ele>227.2</ele>
        <time>2021-07-23T11:53:32Z</time>
      </trkpt>
      <trkpt lat="43.4853120" lon="-7.2718610">
        <ele>227.8</ele>
        <time>2021-07-23T11:53:37Z</time>
      </trkpt>
      <trkpt lat="43.4853100" lon="-7.2718720">
        <ele>228.2</ele>
        <time>2021-07-23T11:53:38Z</time>
      </trkpt>
      <trkpt lat="43.4853040" lon="-7.2718840">
        <ele>228.6</ele>
        <time>2021-07-23T11:53:39Z</time>
      </trkpt>
      <trkpt lat="43.4852970" lon="-7.2718940">
        <ele>229.0</ele>
        <time>2021-07-23T11:53:40Z</time>
      </trkpt>
      <trkpt lat="43.4852900" lon="-7.2719090">
        <ele>229.4</ele>
        <time>2021-07-23T11:53:41Z</time>
      </trkpt>
      <trkpt lat="43.4852790" lon="-7.2719520">
        <ele>229.4</ele>
        <time>2021-07-23T11:53:45Z</time>
      </trkpt>
      <trkpt lat="43.4852660" lon="-7.2720290">
        <ele>229.4</ele>
        <time>2021-07-23T11:54:10Z</time>
      </trkpt>
      <trkpt lat="43.4852610" lon="-7.2720500">
        <ele>229.4</ele>
        <time>2021-07-23T11:54:11Z</time>
      </trkpt>
      <trkpt lat="43.4852500" lon="-7.2721550">
        <ele>229.8</ele>
        <time>2021-07-23T11:54:16Z</time>
      </trkpt>
      <trkpt lat="43.4852490" lon="-7.2721760">
        <ele>230.2</ele>
        <time>2021-07-23T11:54:17Z</time>
      </trkpt>
      <trkpt lat="43.4852460" lon="-7.2721990">
        <ele>230.6</ele>
        <time>2021-07-23T11:54:18Z</time>
      </trkpt>
      <trkpt lat="43.4852420" lon="-7.2722190">
        <ele>231.0</ele>
        <time>2021-07-23T11:54:19Z</time>
      </trkpt>
      <trkpt lat="43.4852350" lon="-7.2722390">
        <ele>231.6</ele>
        <time>2021-07-23T11:54:20Z</time>
      </trkpt>
      <trkpt lat="43.4852300" lon="-7.2722620">
        <ele>231.6</ele>
        <time>2021-07-23T11:54:21Z</time>
      </trkpt>
      <trkpt lat="43.4852180" lon="-7.2723430">
        <ele>231.6</ele>
        <time>2021-07-23T11:54:24Z</time>
      </trkpt>
      <trkpt lat="43.4852090" lon="-7.2724440">
        <ele>231.6</ele>
        <time>2021-07-23T11:54:28Z</time>
      </trkpt>
      <trkpt lat="43.4852090" lon="-7.2724930">
        <ele>231.6</ele>
        <time>2021-07-23T11:54:30Z</time>
      </trkpt>
      <trkpt lat="43.4852090" lon="-7.2725190">
        <ele>231.6</ele>
        <time>2021-07-23T11:54:31Z</time>
      </trkpt>
      <trkpt lat="43.4852050" lon="-7.2725660">
        <ele>232.0</ele>
        <time>2021-07-23T11:54:33Z</time>
      </trkpt>
      <trkpt lat="43.4852010" lon="-7.2725840">
        <ele>232.4</ele>
        <time>2021-07-23T11:54:34Z</time>
      </trkpt>
      <trkpt lat="43.4852010" lon="-7.2726020">
        <ele>232.8</ele>
        <time>2021-07-23T11:54:35Z</time>
      </trkpt>
      <trkpt lat="43.4852060" lon="-7.2726260">
        <ele>233.2</ele>
        <time>2021-07-23T11:54:36Z</time>
      </trkpt>
      <trkpt lat="43.4852080" lon="-7.2726520">
        <ele>233.6</ele>
        <time>2021-07-23T11:54:37Z</time>
      </trkpt>
      <trkpt lat="43.4852100" lon="-7.2726770">
        <ele>233.6</ele>
        <time>2021-07-23T11:54:38Z</time>
      </trkpt>
      <trkpt lat="43.4852310" lon="-7.2729070">
        <ele>233.6</ele>
        <time>2021-07-23T11:54:46Z</time>
      </trkpt>
      <trkpt lat="43.4852430" lon="-7.2729750">
        <ele>233.6</ele>
        <time>2021-07-23T11:54:49Z</time>
      </trkpt>
      <trkpt lat="43.4852450" lon="-7.2730620">
        <ele>233.6</ele>
        <time>2021-07-23T11:54:52Z</time>
      </trkpt>
      <trkpt lat="43.4852500" lon="-7.2732330">
        <ele>233.6</ele>
        <time>2021-07-23T11:54:58Z</time>
      </trkpt>
      <trkpt lat="43.4852510" lon="-7.2732690">
        <ele>233.6</ele>
        <time>2021-07-23T11:54:59Z</time>
      </trkpt>
      <trkpt lat="43.4852550" lon="-7.2733420">
        <ele>233.6</ele>
        <time>2021-07-23T11:55:01Z</time>
      </trkpt>
      <trkpt lat="43.4852620" lon="-7.2735860">
        <ele>233.6</ele>
        <time>2021-07-23T11:55:07Z</time>
      </trkpt>
      <trkpt lat="43.4852730" lon="-7.2738350">
        <ele>233.6</ele>
        <time>2021-07-23T11:55:13Z</time>
      </trkpt>
      <trkpt lat="43.4852760" lon="-7.2741290">
        <ele>233.6</ele>
        <time>2021-07-23T11:55:20Z</time>
      </trkpt>
      <trkpt lat="43.4852880" lon="-7.2742080">
        <ele>233.6</ele>
        <time>2021-07-23T11:55:22Z</time>
      </trkpt>
      <trkpt lat="43.4853000" lon="-7.2743730">
        <ele>233.6</ele>
        <time>2021-07-23T11:55:26Z</time>
      </trkpt>
      <trkpt lat="43.4853050" lon="-7.2744560">
        <ele>233.6</ele>
        <time>2021-07-23T11:55:28Z</time>
      </trkpt>
      <trkpt lat="43.4852800" lon="-7.2747480">
        <ele>233.6</ele>
        <time>2021-07-23T11:55:34Z</time>
      </trkpt>
      <trkpt lat="43.4852780" lon="-7.2749550">
        <ele>233.6</ele>
        <time>2021-07-23T11:55:37Z</time>
      </trkpt>
      <trkpt lat="43.4852780" lon="-7.2750230">
        <ele>233.2</ele>
        <time>2021-07-23T11:55:38Z</time>
      </trkpt>
      <trkpt lat="43.4852770" lon="-7.2750920">
        <ele>232.8</ele>
        <time>2021-07-23T11:55:39Z</time>
      </trkpt>
      <trkpt lat="43.4852830" lon="-7.2751680">
        <ele>232.4</ele>
        <time>2021-07-23T11:55:40Z</time>
      </trkpt>
      <trkpt lat="43.4852860" lon="-7.2752490">
        <ele>231.8</ele>
        <time>2021-07-23T11:55:41Z</time>
      </trkpt>
      <trkpt lat="43.4852850" lon="-7.2753280">
        <ele>231.4</ele>
        <time>2021-07-23T11:55:42Z</time>
      </trkpt>
      <trkpt lat="43.4852840" lon="-7.2754070">
        <ele>231.4</ele>
        <time>2021-07-23T11:55:43Z</time>
      </trkpt>
      <trkpt lat="43.4852870" lon="-7.2754860">
        <ele>230.6</ele>
        <time>2021-07-23T11:55:44Z</time>
      </trkpt>
      <trkpt lat="43.4852960" lon="-7.2755590">
        <ele>230.2</ele>
        <time>2021-07-23T11:55:45Z</time>
      </trkpt>
      <trkpt lat="43.4853110" lon="-7.2756280">
        <ele>229.8</ele>
        <time>2021-07-23T11:55:46Z</time>
      </trkpt>
      <trkpt lat="43.4853310" lon="-7.2756960">
        <ele>229.4</ele>
        <time>2021-07-23T11:55:47Z</time>
      </trkpt>
      <trkpt lat="43.4853550" lon="-7.2757570">
        <ele>229.4</ele>
        <time>2021-07-23T11:55:48Z</time>
      </trkpt>
      <trkpt lat="43.4853820" lon="-7.2758170">
        <ele>229.4</ele>
        <time>2021-07-23T11:55:49Z</time>
      </trkpt>
      <trkpt lat="43.4854100" lon="-7.2758680">
        <ele>229.0</ele>
        <time>2021-07-23T11:55:50Z</time>
      </trkpt>
      <trkpt lat="43.4854380" lon="-7.2759120">
        <ele>228.4</ele>
        <time>2021-07-23T11:55:51Z</time>
      </trkpt>
      <trkpt lat="43.4854650" lon="-7.2759580">
        <ele>228.0</ele>
        <time>2021-07-23T11:55:52Z</time>
      </trkpt>
      <trkpt lat="43.4854900" lon="-7.2760040">
        <ele>227.6</ele>
        <time>2021-07-23T11:55:53Z</time>
      </trkpt>
      <trkpt lat="43.4855130" lon="-7.2760500">
        <ele>227.2</ele>
        <time>2021-07-23T11:55:54Z</time>
      </trkpt>
      <trkpt lat="43.4856300" lon="-7.2763360">
        <ele>227.2</ele>
        <time>2021-07-23T11:56:00Z</time>
      </trkpt>
      <trkpt lat="43.4856790" lon="-7.2765540">
        <ele>226.8</ele>
        <time>2021-07-23T11:56:04Z</time>
      </trkpt>
      <trkpt lat="43.4856920" lon="-7.2766220">
        <ele>226.4</ele>
        <time>2021-07-23T11:56:05Z</time>
      </trkpt>
      <trkpt lat="43.4857060" lon="-7.2766930">
        <ele>226.0</ele>
        <time>2021-07-23T11:56:06Z</time>
      </trkpt>
      <trkpt lat="43.4857210" lon="-7.2767680">
        <ele>225.4</ele>
        <time>2021-07-23T11:56:07Z</time>
      </trkpt>
      <trkpt lat="43.4857350" lon="-7.2768380">
        <ele>225.0</ele>
        <time>2021-07-23T11:56:08Z</time>
      </trkpt>
      <trkpt lat="43.4857530" lon="-7.2769060">
        <ele>225.0</ele>
        <time>2021-07-23T11:56:09Z</time>
      </trkpt>
      <trkpt lat="43.4857880" lon="-7.2770310">
        <ele>224.6</ele>
        <time>2021-07-23T11:56:11Z</time>
      </trkpt>
      <trkpt lat="43.4858040" lon="-7.2770840">
        <ele>224.2</ele>
        <time>2021-07-23T11:56:12Z</time>
      </trkpt>
      <trkpt lat="43.4858200" lon="-7.2771330">
        <ele>223.8</ele>
        <time>2021-07-23T11:56:13Z</time>
      </trkpt>
      <trkpt lat="43.4858340" lon="-7.2771810">
        <ele>223.4</ele>
        <time>2021-07-23T11:56:14Z</time>
      </trkpt>
      <trkpt lat="43.4858460" lon="-7.2772260">
        <ele>223.0</ele>
        <time>2021-07-23T11:56:15Z</time>
      </trkpt>
      <trkpt lat="43.4858730" lon="-7.2773560">
        <ele>223.0</ele>
        <time>2021-07-23T11:56:18Z</time>
      </trkpt>
      <trkpt lat="43.4858520" lon="-7.2775840">
        <ele>223.0</ele>
        <time>2021-07-23T11:56:22Z</time>
      </trkpt>
      <trkpt lat="43.4858390" lon="-7.2777750">
        <ele>222.6</ele>
        <time>2021-07-23T11:56:25Z</time>
      </trkpt>
      <trkpt lat="43.4858380" lon="-7.2778250">
        <ele>222.0</ele>
        <time>2021-07-23T11:56:26Z</time>
      </trkpt>
      <trkpt lat="43.4858330" lon="-7.2778810">
        <ele>221.6</ele>
        <time>2021-07-23T11:56:27Z</time>
      </trkpt>
      <trkpt lat="43.4858250" lon="-7.2779460">
        <ele>221.2</ele>
        <time>2021-07-23T11:56:28Z</time>
      </trkpt>
      <trkpt lat="43.4858130" lon="-7.2780150">
        <ele>220.8</ele>
        <time>2021-07-23T11:56:29Z</time>
      </trkpt>
      <trkpt lat="43.4857970" lon="-7.2780930">
        <ele>220.8</ele>
        <time>2021-07-23T11:56:30Z</time>
      </trkpt>
      <trkpt lat="43.4857810" lon="-7.2781680">
        <ele>220.4</ele>
        <time>2021-07-23T11:56:31Z</time>
      </trkpt>
      <trkpt lat="43.4857640" lon="-7.2782450">
        <ele>220.0</ele>
        <time>2021-07-23T11:56:32Z</time>
      </trkpt>
      <trkpt lat="43.4857510" lon="-7.2783270">
        <ele>219.4</ele>
        <time>2021-07-23T11:56:33Z</time>
      </trkpt>
      <trkpt lat="43.4857370" lon="-7.2784050">
        <ele>218.6</ele>
        <time>2021-07-23T11:56:34Z</time>
      </trkpt>
      <trkpt lat="43.4857090" lon="-7.2785290">
        <ele>218.6</ele>
        <time>2021-07-23T11:56:36Z</time>
      </trkpt>
      <trkpt lat="43.4856740" lon="-7.2786940">
        <ele>218.2</ele>
        <time>2021-07-23T11:56:39Z</time>
      </trkpt>
      <trkpt lat="43.4856630" lon="-7.2787520">
        <ele>217.8</ele>
        <time>2021-07-23T11:56:40Z</time>
      </trkpt>
      <trkpt lat="43.4856500" lon="-7.2788170">
        <ele>217.4</ele>
        <time>2021-07-23T11:56:41Z</time>
      </trkpt>
      <trkpt lat="43.4856320" lon="-7.2788920">
        <ele>217.0</ele>
        <time>2021-07-23T11:56:42Z</time>
      </trkpt>
      <trkpt lat="43.4856130" lon="-7.2789750">
        <ele>216.6</ele>
        <time>2021-07-23T11:56:43Z</time>
      </trkpt>
      <trkpt lat="43.4855780" lon="-7.2791550">
        <ele>216.6</ele>
        <time>2021-07-23T11:56:45Z</time>
      </trkpt>
      <trkpt lat="43.4855460" lon="-7.2793080">
        <ele>216.2</ele>
        <time>2021-07-23T11:56:47Z</time>
      </trkpt>
      <trkpt lat="43.4855260" lon="-7.2793820">
        <ele>215.6</ele>
        <time>2021-07-23T11:56:48Z</time>
      </trkpt>
      <trkpt lat="43.4855080" lon="-7.2794470">
        <ele>215.2</ele>
        <time>2021-07-23T11:56:49Z</time>
      </trkpt>
      <trkpt lat="43.4854950" lon="-7.2795110">
        <ele>214.8</ele>
        <time>2021-07-23T11:56:50Z</time>
      </trkpt>
      <trkpt lat="43.4854830" lon="-7.2795700">
        <ele>214.4</ele>
        <time>2021-07-23T11:56:51Z</time>
      </trkpt>
      <trkpt lat="43.4854340" lon="-7.2796970">
        <ele>214.4</ele>
        <time>2021-07-23T11:56:54Z</time>
      </trkpt>
      <trkpt lat="43.4853830" lon="-7.2798190">
        <ele>214.0</ele>
        <time>2021-07-23T11:56:57Z</time>
      </trkpt>
      <trkpt lat="43.4853670" lon="-7.2798640">
        <ele>213.2</ele>
        <time>2021-07-23T11:56:58Z</time>
      </trkpt>
      <trkpt lat="43.4853530" lon="-7.2799090">
        <ele>212.8</ele>
        <time>2021-07-23T11:56:59Z</time>
      </trkpt>
      <trkpt lat="43.4853380" lon="-7.2799630">
        <ele>212.2</ele>
        <time>2021-07-23T11:57:00Z</time>
      </trkpt>
      <trkpt lat="43.4853210" lon="-7.2800210">
        <ele>211.8</ele>
        <time>2021-07-23T11:57:01Z</time>
      </trkpt>
      <trkpt lat="43.4853030" lon="-7.2800800">
        <ele>211.2</ele>
        <time>2021-07-23T11:57:02Z</time>
      </trkpt>
      <trkpt lat="43.4852840" lon="-7.2801440">
        <ele>210.8</ele>
        <time>2021-07-23T11:57:03Z</time>
      </trkpt>
      <trkpt lat="43.4852640" lon="-7.2802020">
        <ele>210.2</ele>
        <time>2021-07-23T11:57:04Z</time>
      </trkpt>
      <trkpt lat="43.4852430" lon="-7.2802620">
        <ele>209.6</ele>
        <time>2021-07-23T11:57:05Z</time>
      </trkpt>
      <trkpt lat="43.4852180" lon="-7.2803200">
        <ele>209.0</ele>
        <time>2021-07-23T11:57:06Z</time>
      </trkpt>
      <trkpt lat="43.4851940" lon="-7.2803910">
        <ele>208.4</ele>
        <time>2021-07-23T11:57:07Z</time>
      </trkpt>
      <trkpt lat="43.4851690" lon="-7.2804640">
        <ele>207.8</ele>
        <time>2021-07-23T11:57:08Z</time>
      </trkpt>
      <trkpt lat="43.4851450" lon="-7.2805290">
        <ele>207.4</ele>
        <time>2021-07-23T11:57:09Z</time>
      </trkpt>
      <trkpt lat="43.4851210" lon="-7.2805850">
        <ele>206.8</ele>
        <time>2021-07-23T11:57:10Z</time>
      </trkpt>
      <trkpt lat="43.4851000" lon="-7.2806350">
        <ele>206.0</ele>
        <time>2021-07-23T11:57:11Z</time>
      </trkpt>
      <trkpt lat="43.4850800" lon="-7.2806830">
        <ele>205.4</ele>
        <time>2021-07-23T11:57:12Z</time>
      </trkpt>
      <trkpt lat="43.4850620" lon="-7.2807400">
        <ele>204.6</ele>
        <time>2021-07-23T11:57:13Z</time>
      </trkpt>
      <trkpt lat="43.4850460" lon="-7.2808000">
        <ele>204.0</ele>
        <time>2021-07-23T11:57:14Z</time>
      </trkpt>
      <trkpt lat="43.4850250" lon="-7.2808690">
        <ele>203.2</ele>
        <time>2021-07-23T11:57:15Z</time>
      </trkpt>
      <trkpt lat="43.4849890" lon="-7.2810090">
        <ele>202.8</ele>
        <time>2021-07-23T11:57:17Z</time>
      </trkpt>
      <trkpt lat="43.4849770" lon="-7.2810780">
        <ele>202.4</ele>
        <time>2021-07-23T11:57:18Z</time>
      </trkpt>
      <trkpt lat="43.4849570" lon="-7.2811440">
        <ele>202.0</ele>
        <time>2021-07-23T11:57:19Z</time>
      </trkpt>
      <trkpt lat="43.4849370" lon="-7.2811880">
        <ele>201.6</ele>
        <time>2021-07-23T11:57:20Z</time>
      </trkpt>
      <trkpt lat="43.4849230" lon="-7.2812330">
        <ele>201.2</ele>
        <time>2021-07-23T11:57:21Z</time>
      </trkpt>
      <trkpt lat="43.4849090" lon="-7.2812810">
        <ele>200.8</ele>
        <time>2021-07-23T11:57:22Z</time>
      </trkpt>
      <trkpt lat="43.4848910" lon="-7.2813300">
        <ele>200.0</ele>
        <time>2021-07-23T11:57:23Z</time>
      </trkpt>
      <trkpt lat="43.4848760" lon="-7.2813790">
        <ele>199.4</ele>
        <time>2021-07-23T11:57:24Z</time>
      </trkpt>
      <trkpt lat="43.4848630" lon="-7.2814310">
        <ele>199.0</ele>
        <time>2021-07-23T11:57:25Z</time>
      </trkpt>
      <trkpt lat="43.4848480" lon="-7.2814940">
        <ele>199.0</ele>
        <time>2021-07-23T11:57:26Z</time>
      </trkpt>
      <trkpt lat="43.4847890" lon="-7.2817370">
        <ele>199.0</ele>
        <time>2021-07-23T11:57:31Z</time>
      </trkpt>
      <trkpt lat="43.4845830" lon="-7.2820720">
        <ele>199.0</ele>
        <time>2021-07-23T11:57:39Z</time>
      </trkpt>
      <trkpt lat="43.4845530" lon="-7.2821150">
        <ele>198.6</ele>
        <time>2021-07-23T11:57:40Z</time>
      </trkpt>
      <trkpt lat="43.4845270" lon="-7.2821620">
        <ele>198.2</ele>
        <time>2021-07-23T11:57:41Z</time>
      </trkpt>
      <trkpt lat="43.4845020" lon="-7.2822060">
        <ele>197.6</ele>
        <time>2021-07-23T11:57:42Z</time>
      </trkpt>
      <trkpt lat="43.4844790" lon="-7.2822460">
        <ele>197.2</ele>
        <time>2021-07-23T11:57:43Z</time>
      </trkpt>
      <trkpt lat="43.4844620" lon="-7.2822920">
        <ele>196.8</ele>
        <time>2021-07-23T11:57:44Z</time>
      </trkpt>
      <trkpt lat="43.4844450" lon="-7.2823370">
        <ele>196.4</ele>
        <time>2021-07-23T11:57:45Z</time>
      </trkpt>
      <trkpt lat="43.4844290" lon="-7.2823760">
        <ele>195.8</ele>
        <time>2021-07-23T11:57:46Z</time>
      </trkpt>
      <trkpt lat="43.4844150" lon="-7.2824060">
        <ele>194.8</ele>
        <time>2021-07-23T11:57:47Z</time>
      </trkpt>
      <trkpt lat="43.4844030" lon="-7.2824410">
        <ele>194.2</ele>
        <time>2021-07-23T11:57:48Z</time>
      </trkpt>
      <trkpt lat="43.4843890" lon="-7.2824750">
        <ele>193.6</ele>
        <time>2021-07-23T11:57:49Z</time>
      </trkpt>
      <trkpt lat="43.4843640" lon="-7.2825150">
        <ele>193.0</ele>
        <time>2021-07-23T11:57:50Z</time>
      </trkpt>
      <trkpt lat="43.4843460" lon="-7.2825520">
        <ele>192.6</ele>
        <time>2021-07-23T11:57:51Z</time>
      </trkpt>
      <trkpt lat="43.4843270" lon="-7.2825920">
        <ele>192.0</ele>
        <time>2021-07-23T11:57:52Z</time>
      </trkpt>
      <trkpt lat="43.4843090" lon="-7.2826290">
        <ele>191.4</ele>
        <time>2021-07-23T11:57:53Z</time>
      </trkpt>
      <trkpt lat="43.4842940" lon="-7.2826630">
        <ele>191.0</ele>
        <time>2021-07-23T11:57:54Z</time>
      </trkpt>
      <trkpt lat="43.4842780" lon="-7.2826960">
        <ele>190.4</ele>
        <time>2021-07-23T11:57:55Z</time>
      </trkpt>
      <trkpt lat="43.4842640" lon="-7.2827320">
        <ele>189.8</ele>
        <time>2021-07-23T11:57:56Z</time>
      </trkpt>
      <trkpt lat="43.4842530" lon="-7.2827670">
        <ele>189.4</ele>
        <time>2021-07-23T11:57:57Z</time>
      </trkpt>
      <trkpt lat="43.4842380" lon="-7.2828020">
        <ele>188.8</ele>
        <time>2021-07-23T11:57:58Z</time>
      </trkpt>
      <trkpt lat="43.4842250" lon="-7.2828370">
        <ele>188.2</ele>
        <time>2021-07-23T11:57:59Z</time>
      </trkpt>
      <trkpt lat="43.4842100" lon="-7.2828730">
        <ele>187.8</ele>
        <time>2021-07-23T11:58:00Z</time>
      </trkpt>
      <trkpt lat="43.4841950" lon="-7.2829080">
        <ele>187.2</ele>
        <time>2021-07-23T11:58:01Z</time>
      </trkpt>
      <trkpt lat="43.4841810" lon="-7.2829480">
        <ele>186.8</ele>
        <time>2021-07-23T11:58:02Z</time>
      </trkpt>
      <trkpt lat="43.4841660" lon="-7.2829900">
        <ele>186.2</ele>
        <time>2021-07-23T11:58:03Z</time>
      </trkpt>
      <trkpt lat="43.4841500" lon="-7.2830260">
        <ele>185.8</ele>
        <time>2021-07-23T11:58:04Z</time>
      </trkpt>
      <trkpt lat="43.4841370" lon="-7.2830620">
        <ele>185.2</ele>
        <time>2021-07-23T11:58:05Z</time>
      </trkpt>
      <trkpt lat="43.4841240" lon="-7.2830980">
        <ele>184.6</ele>
        <time>2021-07-23T11:58:06Z</time>
      </trkpt>
      <trkpt lat="43.4841140" lon="-7.2831430">
        <ele>184.0</ele>
        <time>2021-07-23T11:58:08Z</time>
      </trkpt>
      <trkpt lat="43.4841060" lon="-7.2831800">
        <ele>183.2</ele>
        <time>2021-07-23T11:58:09Z</time>
      </trkpt>
      <trkpt lat="43.4840980" lon="-7.2832140">
        <ele>182.6</ele>
        <time>2021-07-23T11:58:10Z</time>
      </trkpt>
      <trkpt lat="43.4840960" lon="-7.2832530">
        <ele>182.2</ele>
        <time>2021-07-23T11:58:11Z</time>
      </trkpt>
      <trkpt lat="43.4840910" lon="-7.2833000">
        <ele>181.2</ele>
        <time>2021-07-23T11:58:12Z</time>
      </trkpt>
      <trkpt lat="43.4840810" lon="-7.2833500">
        <ele>180.8</ele>
        <time>2021-07-23T11:58:13Z</time>
      </trkpt>
      <trkpt lat="43.4840710" lon="-7.2834020">
        <ele>180.2</ele>
        <time>2021-07-23T11:58:14Z</time>
      </trkpt>
      <trkpt lat="43.4840560" lon="-7.2834540">
        <ele>179.8</ele>
        <time>2021-07-23T11:58:15Z</time>
      </trkpt>
      <trkpt lat="43.4840420" lon="-7.2835030">
        <ele>179.2</ele>
        <time>2021-07-23T11:58:16Z</time>
      </trkpt>
      <trkpt lat="43.4840250" lon="-7.2835470">
        <ele>178.8</ele>
        <time>2021-07-23T11:58:17Z</time>
      </trkpt>
      <trkpt lat="43.4840140" lon="-7.2835950">
        <ele>178.2</ele>
        <time>2021-07-23T11:58:18Z</time>
      </trkpt>
      <trkpt lat="43.4840020" lon="-7.2836380">
        <ele>177.8</ele>
        <time>2021-07-23T11:58:19Z</time>
      </trkpt>
      <trkpt lat="43.4839900" lon="-7.2836970">
        <ele>177.2</ele>
        <time>2021-07-23T11:58:20Z</time>
      </trkpt>
      <trkpt lat="43.4839740" lon="-7.2837500">
        <ele>176.8</ele>
        <time>2021-07-23T11:58:21Z</time>
      </trkpt>
      <trkpt lat="43.4839560" lon="-7.2838030">
        <ele>176.4</ele>
        <time>2021-07-23T11:58:22Z</time>
      </trkpt>
      <trkpt lat="43.4839430" lon="-7.2838540">
        <ele>175.8</ele>
        <time>2021-07-23T11:58:23Z</time>
      </trkpt>
      <trkpt lat="43.4839140" lon="-7.2839580">
        <ele>175.4</ele>
        <time>2021-07-23T11:58:25Z</time>
      </trkpt>
      <trkpt lat="43.4839010" lon="-7.2840110">
        <ele>174.8</ele>
        <time>2021-07-23T11:58:26Z</time>
      </trkpt>
      <trkpt lat="43.4838800" lon="-7.2840600">
        <ele>174.4</ele>
        <time>2021-07-23T11:58:27Z</time>
      </trkpt>
      <trkpt lat="43.4838580" lon="-7.2841110">
        <ele>173.8</ele>
        <time>2021-07-23T11:58:28Z</time>
      </trkpt>
      <trkpt lat="43.4838380" lon="-7.2841680">
        <ele>173.4</ele>
        <time>2021-07-23T11:58:29Z</time>
      </trkpt>
      <trkpt lat="43.4838060" lon="-7.2842940">
        <ele>173.4</ele>
        <time>2021-07-23T11:58:31Z</time>
      </trkpt>
      <trkpt lat="43.4837930" lon="-7.2843580">
        <ele>172.8</ele>
        <time>2021-07-23T11:58:32Z</time>
      </trkpt>
      <trkpt lat="43.4837790" lon="-7.2844230">
        <ele>172.4</ele>
        <time>2021-07-23T11:58:33Z</time>
      </trkpt>
      <trkpt lat="43.4837670" lon="-7.2844820">
        <ele>172.0</ele>
        <time>2021-07-23T11:58:34Z</time>
      </trkpt>
      <trkpt lat="43.4837540" lon="-7.2845290">
        <ele>171.6</ele>
        <time>2021-07-23T11:58:35Z</time>
      </trkpt>
      <trkpt lat="43.4837380" lon="-7.2845840">
        <ele>171.2</ele>
        <time>2021-07-23T11:58:36Z</time>
      </trkpt>
      <trkpt lat="43.4837230" lon="-7.2846500">
        <ele>170.6</ele>
        <time>2021-07-23T11:58:37Z</time>
      </trkpt>
      <trkpt lat="43.4837090" lon="-7.2847090">
        <ele>170.2</ele>
        <time>2021-07-23T11:58:38Z</time>
      </trkpt>
      <trkpt lat="43.4836920" lon="-7.2847740">
        <ele>169.8</ele>
        <time>2021-07-23T11:58:39Z</time>
      </trkpt>
      <trkpt lat="43.4836780" lon="-7.2848270">
        <ele>169.4</ele>
        <time>2021-07-23T11:58:40Z</time>
      </trkpt>
      <trkpt lat="43.4836660" lon="-7.2848790">
        <ele>169.0</ele>
        <time>2021-07-23T11:58:41Z</time>
      </trkpt>
      <trkpt lat="43.4836390" lon="-7.2849880">
        <ele>169.0</ele>
        <time>2021-07-23T11:58:43Z</time>
      </trkpt>
      <trkpt lat="43.4835660" lon="-7.2851670">
        <ele>168.6</ele>
        <time>2021-07-23T11:58:47Z</time>
      </trkpt>
      <trkpt lat="43.4835490" lon="-7.2852120">
        <ele>168.2</ele>
        <time>2021-07-23T11:58:48Z</time>
      </trkpt>
      <trkpt lat="43.4835270" lon="-7.2852610">
        <ele>167.8</ele>
        <time>2021-07-23T11:58:49Z</time>
      </trkpt>
      <trkpt lat="43.4835040" lon="-7.2853050">
        <ele>167.4</ele>
        <time>2021-07-23T11:58:50Z</time>
      </trkpt>
      <trkpt lat="43.4834830" lon="-7.2853500">
        <ele>167.0</ele>
        <time>2021-07-23T11:58:51Z</time>
      </trkpt>
      <trkpt lat="43.4833740" lon="-7.2855540">
        <ele>167.0</ele>
        <time>2021-07-23T11:58:55Z</time>
      </trkpt>
      <trkpt lat="43.4832780" lon="-7.2857150">
        <ele>166.4</ele>
        <time>2021-07-23T11:58:59Z</time>
      </trkpt>
      <trkpt lat="43.4832560" lon="-7.2857530">
        <ele>166.0</ele>
        <time>2021-07-23T11:59:00Z</time>
      </trkpt>
      <trkpt lat="43.4832330" lon="-7.2857930">
        <ele>165.6</ele>
        <time>2021-07-23T11:59:01Z</time>
      </trkpt>
      <trkpt lat="43.4832090" lon="-7.2858380">
        <ele>164.6</ele>
        <time>2021-07-23T11:59:02Z</time>
      </trkpt>
      <trkpt lat="43.4831880" lon="-7.2858840">
        <ele>164.6</ele>
        <time>2021-07-23T11:59:03Z</time>
      </trkpt>
      <trkpt lat="43.4831010" lon="-7.2860730">
        <ele>164.6</ele>
        <time>2021-07-23T11:59:08Z</time>
      </trkpt>
      <trkpt lat="43.4830620" lon="-7.2861400">
        <ele>164.2</ele>
        <time>2021-07-23T11:59:10Z</time>
      </trkpt>
      <trkpt lat="43.4830370" lon="-7.2861730">
        <ele>163.6</ele>
        <time>2021-07-23T11:59:11Z</time>
      </trkpt>
      <trkpt lat="43.4830160" lon="-7.2862080">
        <ele>163.2</ele>
        <time>2021-07-23T11:59:12Z</time>
      </trkpt>
      <trkpt lat="43.4829940" lon="-7.2862420">
        <ele>162.8</ele>
        <time>2021-07-23T11:59:13Z</time>
      </trkpt>
      <trkpt lat="43.4829720" lon="-7.2862760">
        <ele>162.4</ele>
        <time>2021-07-23T11:59:14Z</time>
      </trkpt>
      <trkpt lat="43.4829430" lon="-7.2863100">
        <ele>162.4</ele>
        <time>2021-07-23T11:59:15Z</time>
      </trkpt>
      <trkpt lat="43.4828210" lon="-7.2864410">
        <ele>162.0</ele>
        <time>2021-07-23T11:59:18Z</time>
      </trkpt>
      <trkpt lat="43.4827780" lon="-7.2864910">
        <ele>161.4</ele>
        <time>2021-07-23T11:59:19Z</time>
      </trkpt>
      <trkpt lat="43.4827370" lon="-7.2865430">
        <ele>161.0</ele>
        <time>2021-07-23T11:59:20Z</time>
      </trkpt>
      <trkpt lat="43.4827000" lon="-7.2865900">
        <ele>160.6</ele>
        <time>2021-07-23T11:59:21Z</time>
      </trkpt>
      <trkpt lat="43.4826660" lon="-7.2866330">
        <ele>160.2</ele>
        <time>2021-07-23T11:59:22Z</time>
      </trkpt>
      <trkpt lat="43.4825080" lon="-7.2868420">
        <ele>159.8</ele>
        <time>2021-07-23T11:59:27Z</time>
      </trkpt>
      <trkpt lat="43.4824820" lon="-7.2868800">
        <ele>159.4</ele>
        <time>2021-07-23T11:59:28Z</time>
      </trkpt>
      <trkpt lat="43.4824570" lon="-7.2869150">
        <ele>159.0</ele>
        <time>2021-07-23T11:59:29Z</time>
      </trkpt>
      <trkpt lat="43.4824310" lon="-7.2869510">
        <ele>158.6</ele>
        <time>2021-07-23T11:59:30Z</time>
      </trkpt>
      <trkpt lat="43.4824090" lon="-7.2869880">
        <ele>158.2</ele>
        <time>2021-07-23T11:59:31Z</time>
      </trkpt>
      <trkpt lat="43.4823250" lon="-7.2871090">
        <ele>158.2</ele>
        <time>2021-07-23T11:59:34Z</time>
      </trkpt>
      <trkpt lat="43.4821080" lon="-7.2873980">
        <ele>158.2</ele>
        <time>2021-07-23T11:59:40Z</time>
      </trkpt>
      <trkpt lat="43.4820280" lon="-7.2875460">
        <ele>158.2</ele>
        <time>2021-07-23T11:59:43Z</time>
      </trkpt>
      <trkpt lat="43.4820080" lon="-7.2875920">
        <ele>157.8</ele>
        <time>2021-07-23T11:59:44Z</time>
      </trkpt>
      <trkpt lat="43.4819880" lon="-7.2876350">
        <ele>157.4</ele>
        <time>2021-07-23T11:59:45Z</time>
      </trkpt>
      <trkpt lat="43.4819670" lon="-7.2876770">
        <ele>157.0</ele>
        <time>2021-07-23T11:59:46Z</time>
      </trkpt>
      <trkpt lat="43.4819470" lon="-7.2877190">
        <ele>156.6</ele>
        <time>2021-07-23T11:59:47Z</time>
      </trkpt>
      <trkpt lat="43.4819270" lon="-7.2877560">
        <ele>156.0</ele>
        <time>2021-07-23T11:59:48Z</time>
      </trkpt>
      <trkpt lat="43.4818190" lon="-7.2879140">
        <ele>156.0</ele>
        <time>2021-07-23T11:59:53Z</time>
      </trkpt>
      <trkpt lat="43.4817150" lon="-7.2880430">
        <ele>156.0</ele>
        <time>2021-07-23T11:59:57Z</time>
      </trkpt>
      <trkpt lat="43.4816500" lon="-7.2881080">
        <ele>156.0</ele>
        <time>2021-07-23T11:59:59Z</time>
      </trkpt>
      <trkpt lat="43.4815150" lon="-7.2883000">
        <ele>156.0</ele>
        <time>2021-07-23T12:00:03Z</time>
      </trkpt>
      <trkpt lat="43.4814780" lon="-7.2883490">
        <ele>156.0</ele>
        <time>2021-07-23T12:00:04Z</time>
      </trkpt>
      <trkpt lat="43.4814470" lon="-7.2883960">
        <ele>155.6</ele>
        <time>2021-07-23T12:00:05Z</time>
      </trkpt>
      <trkpt lat="43.4814140" lon="-7.2884540">
        <ele>155.2</ele>
        <time>2021-07-23T12:00:06Z</time>
      </trkpt>
      <trkpt lat="43.4813800" lon="-7.2885060">
        <ele>154.6</ele>
        <time>2021-07-23T12:00:07Z</time>
      </trkpt>
      <trkpt lat="43.4813450" lon="-7.2885500">
        <ele>154.2</ele>
        <time>2021-07-23T12:00:08Z</time>
      </trkpt>
      <trkpt lat="43.4813110" lon="-7.2885930">
        <ele>153.8</ele>
        <time>2021-07-23T12:00:09Z</time>
      </trkpt>
      <trkpt lat="43.4812490" lon="-7.2886810">
        <ele>153.4</ele>
        <time>2021-07-23T12:00:11Z</time>
      </trkpt>
      <trkpt lat="43.4812210" lon="-7.2887300">
        <ele>153.0</ele>
        <time>2021-07-23T12:00:12Z</time>
      </trkpt>
      <trkpt lat="43.4811880" lon="-7.2887820">
        <ele>152.4</ele>
        <time>2021-07-23T12:00:13Z</time>
      </trkpt>
      <trkpt lat="43.4811530" lon="-7.2888330">
        <ele>152.0</ele>
        <time>2021-07-23T12:00:14Z</time>
      </trkpt>
      <trkpt lat="43.4811190" lon="-7.2888830">
        <ele>151.6</ele>
        <time>2021-07-23T12:00:15Z</time>
      </trkpt>
      <trkpt lat="43.4810840" lon="-7.2889330">
        <ele>150.6</ele>
        <time>2021-07-23T12:00:16Z</time>
      </trkpt>
      <trkpt lat="43.4810450" lon="-7.2889870">
        <ele>150.0</ele>
        <time>2021-07-23T12:00:17Z</time>
      </trkpt>
      <trkpt lat="43.4810110" lon="-7.2890390">
        <ele>149.6</ele>
        <time>2021-07-23T12:00:18Z</time>
      </trkpt>
      <trkpt lat="43.4809410" lon="-7.2891320">
        <ele>149.0</ele>
        <time>2021-07-23T12:00:20Z</time>
      </trkpt>
      <trkpt lat="43.4809110" lon="-7.2891750">
        <ele>148.6</ele>
        <time>2021-07-23T12:00:21Z</time>
      </trkpt>
      <trkpt lat="43.4808880" lon="-7.2892120">
        <ele>148.2</ele>
        <time>2021-07-23T12:00:22Z</time>
      </trkpt>
      <trkpt lat="43.4808670" lon="-7.2892400">
        <ele>147.8</ele>
        <time>2021-07-23T12:00:23Z</time>
      </trkpt>
      <trkpt lat="43.4808400" lon="-7.2892820">
        <ele>147.2</ele>
        <time>2021-07-23T12:00:24Z</time>
      </trkpt>
      <trkpt lat="43.4807740" lon="-7.2893820">
        <ele>147.2</ele>
        <time>2021-07-23T12:00:26Z</time>
      </trkpt>
      <trkpt lat="43.4807050" lon="-7.2894860">
        <ele>146.8</ele>
        <time>2021-07-23T12:00:28Z</time>
      </trkpt>
      <trkpt lat="43.4806670" lon="-7.2895410">
        <ele>146.4</ele>
        <time>2021-07-23T12:00:29Z</time>
      </trkpt>
      <trkpt lat="43.4806280" lon="-7.2895950">
        <ele>146.0</ele>
        <time>2021-07-23T12:00:30Z</time>
      </trkpt>
      <trkpt lat="43.4805920" lon="-7.2896500">
        <ele>145.6</ele>
        <time>2021-07-23T12:00:31Z</time>
      </trkpt>
      <trkpt lat="43.4805550" lon="-7.2897050">
        <ele>145.0</ele>
        <time>2021-07-23T12:00:32Z</time>
      </trkpt>
      <trkpt lat="43.4805230" lon="-7.2897540">
        <ele>144.6</ele>
        <time>2021-07-23T12:00:33Z</time>
      </trkpt>
      <trkpt lat="43.4804930" lon="-7.2898050">
        <ele>144.2</ele>
        <time>2021-07-23T12:00:34Z</time>
      </trkpt>
      <trkpt lat="43.4804650" lon="-7.2898520">
        <ele>143.8</ele>
        <time>2021-07-23T12:00:35Z</time>
      </trkpt>
      <trkpt lat="43.4804330" lon="-7.2899000">
        <ele>143.4</ele>
        <time>2021-07-23T12:00:36Z</time>
      </trkpt>
      <trkpt lat="43.4803970" lon="-7.2899490">
        <ele>143.0</ele>
        <time>2021-07-23T12:00:37Z</time>
      </trkpt>
      <trkpt lat="43.4803620" lon="-7.2899960">
        <ele>143.0</ele>
        <time>2021-07-23T12:00:38Z</time>
      </trkpt>
      <trkpt lat="43.4803240" lon="-7.2900450">
        <ele>142.6</ele>
        <time>2021-07-23T12:00:39Z</time>
      </trkpt>
      <trkpt lat="43.4802880" lon="-7.2900940">
        <ele>142.0</ele>
        <time>2021-07-23T12:00:40Z</time>
      </trkpt>
      <trkpt lat="43.4802540" lon="-7.2901380">
        <ele>141.2</ele>
        <time>2021-07-23T12:00:41Z</time>
      </trkpt>
      <trkpt lat="43.4802240" lon="-7.2901780">
        <ele>140.6</ele>
        <time>2021-07-23T12:00:42Z</time>
      </trkpt>
      <trkpt lat="43.4801760" lon="-7.2902350">
        <ele>140.2</ele>
        <time>2021-07-23T12:00:44Z</time>
      </trkpt>
      <trkpt lat="43.4801570" lon="-7.2902560">
        <ele>139.8</ele>
        <time>2021-07-23T12:00:45Z</time>
      </trkpt>
      <trkpt lat="43.4801370" lon="-7.2902760">
        <ele>139.2</ele>
        <time>2021-07-23T12:00:46Z</time>
      </trkpt>
      <trkpt lat="43.4801180" lon="-7.2902950">
        <ele>138.8</ele>
        <time>2021-07-23T12:00:47Z</time>
      </trkpt>
      <trkpt lat="43.4800910" lon="-7.2903090">
        <ele>138.2</ele>
        <time>2021-07-23T12:00:48Z</time>
      </trkpt>
      <trkpt lat="43.4800660" lon="-7.2903160">
        <ele>137.6</ele>
        <time>2021-07-23T12:00:49Z</time>
      </trkpt>
      <trkpt lat="43.4800360" lon="-7.2903150">
        <ele>137.0</ele>
        <time>2021-07-23T12:00:50Z</time>
      </trkpt>
      <trkpt lat="43.4800040" lon="-7.2903100">
        <ele>136.4</ele>
        <time>2021-07-23T12:00:51Z</time>
      </trkpt>
      <trkpt lat="43.4799700" lon="-7.2902960">
        <ele>135.8</ele>
        <time>2021-07-23T12:00:52Z</time>
      </trkpt>
      <trkpt lat="43.4799370" lon="-7.2902760">
        <ele>135.8</ele>
        <time>2021-07-23T12:00:53Z</time>
      </trkpt>
      <trkpt lat="43.4798410" lon="-7.2902940">
        <ele>135.8</ele>
        <time>2021-07-23T12:00:56Z</time>
      </trkpt>
      <trkpt lat="43.4798130" lon="-7.2903360">
        <ele>135.8</ele>
        <time>2021-07-23T12:00:57Z</time>
      </trkpt>
      <trkpt lat="43.4797250" lon="-7.2905460">
        <ele>135.8</ele>
        <time>2021-07-23T12:01:01Z</time>
      </trkpt>
      <trkpt lat="43.4797040" lon="-7.2906040">
        <ele>135.8</ele>
        <time>2021-07-23T12:01:02Z</time>
      </trkpt>
      <trkpt lat="43.4796200" lon="-7.2908440">
        <ele>135.4</ele>
        <time>2021-07-23T12:01:06Z</time>
      </trkpt>
      <trkpt lat="43.4795950" lon="-7.2909080">
        <ele>135.0</ele>
        <time>2021-07-23T12:01:07Z</time>
      </trkpt>
      <trkpt lat="43.4795700" lon="-7.2909770">
        <ele>134.6</ele>
        <time>2021-07-23T12:01:08Z</time>
      </trkpt>
      <trkpt lat="43.4795450" lon="-7.2910470">
        <ele>134.2</ele>
        <time>2021-07-23T12:01:09Z</time>
      </trkpt>
      <trkpt lat="43.4795170" lon="-7.2911230">
        <ele>133.8</ele>
        <time>2021-07-23T12:01:10Z</time>
      </trkpt>
      <trkpt lat="43.4793470" lon="-7.2916210">
        <ele>133.8</ele>
        <time>2021-07-23T12:01:16Z</time>
      </trkpt>
      <trkpt lat="43.4792820" lon="-7.2918130">
        <ele>133.4</ele>
        <time>2021-07-23T12:01:18Z</time>
      </trkpt>
      <trkpt lat="43.4792490" lon="-7.2919100">
        <ele>133.0</ele>
        <time>2021-07-23T12:01:19Z</time>
      </trkpt>
      <trkpt lat="43.4792130" lon="-7.2920090">
        <ele>132.6</ele>
        <time>2021-07-23T12:01:20Z</time>
      </trkpt>
      <trkpt lat="43.4791750" lon="-7.2921110">
        <ele>132.2</ele>
        <time>2021-07-23T12:01:21Z</time>
      </trkpt>
      <trkpt lat="43.4791400" lon="-7.2922170">
        <ele>131.8</ele>
        <time>2021-07-23T12:01:22Z</time>
      </trkpt>
      <trkpt lat="43.4791030" lon="-7.2923220">
        <ele>131.8</ele>
        <time>2021-07-23T12:01:23Z</time>
      </trkpt>
      <trkpt lat="43.4790630" lon="-7.2924240">
        <ele>131.2</ele>
        <time>2021-07-23T12:01:24Z</time>
      </trkpt>
      <trkpt lat="43.4790220" lon="-7.2925260">
        <ele>130.8</ele>
        <time>2021-07-23T12:01:25Z</time>
      </trkpt>
      <trkpt lat="43.4789860" lon="-7.2926220">
        <ele>130.4</ele>
        <time>2021-07-23T12:01:26Z</time>
      </trkpt>
      <trkpt lat="43.4789490" lon="-7.2927150">
        <ele>129.8</ele>
        <time>2021-07-23T12:01:27Z</time>
      </trkpt>
      <trkpt lat="43.4789130" lon="-7.2928050">
        <ele>129.4</ele>
        <time>2021-07-23T12:01:28Z</time>
      </trkpt>
      <trkpt lat="43.4788780" lon="-7.2928910">
        <ele>128.8</ele>
        <time>2021-07-23T12:01:29Z</time>
      </trkpt>
      <trkpt lat="43.4788470" lon="-7.2929740">
        <ele>128.4</ele>
        <time>2021-07-23T12:01:30Z</time>
      </trkpt>
      <trkpt lat="43.4788210" lon="-7.2930560">
        <ele>127.2</ele>
        <time>2021-07-23T12:01:31Z</time>
      </trkpt>
      <trkpt lat="43.4787970" lon="-7.2931350">
        <ele>127.2</ele>
        <time>2021-07-23T12:01:32Z</time>
      </trkpt>
      <trkpt lat="43.4787710" lon="-7.2932180">
        <ele>126.8</ele>
        <time>2021-07-23T12:01:33Z</time>
      </trkpt>
      <trkpt lat="43.4787480" lon="-7.2932940">
        <ele>126.4</ele>
        <time>2021-07-23T12:01:34Z</time>
      </trkpt>
      <trkpt lat="43.4787270" lon="-7.2933730">
        <ele>126.0</ele>
        <time>2021-07-23T12:01:35Z</time>
      </trkpt>
      <trkpt lat="43.4787030" lon="-7.2934500">
        <ele>125.6</ele>
        <time>2021-07-23T12:01:36Z</time>
      </trkpt>
      <trkpt lat="43.4786770" lon="-7.2935300">
        <ele>125.2</ele>
        <time>2021-07-23T12:01:37Z</time>
      </trkpt>
      <trkpt lat="43.4785770" lon="-7.2938100">
        <ele>125.2</ele>
        <time>2021-07-23T12:01:41Z</time>
      </trkpt>
      <trkpt lat="43.4785160" lon="-7.2939410">
        <ele>125.2</ele>
        <time>2021-07-23T12:01:43Z</time>
      </trkpt>
      <trkpt lat="43.4783780" lon="-7.2941920">
        <ele>125.2</ele>
        <time>2021-07-23T12:01:47Z</time>
      </trkpt>
      <trkpt lat="43.4781840" lon="-7.2944840">
        <ele>124.8</ele>
        <time>2021-07-23T12:01:52Z</time>
      </trkpt>
      <trkpt lat="43.4781460" lon="-7.2945400">
        <ele>124.2</ele>
        <time>2021-07-23T12:01:53Z</time>
      </trkpt>
      <trkpt lat="43.4781050" lon="-7.2945990">
        <ele>123.8</ele>
        <time>2021-07-23T12:01:54Z</time>
      </trkpt>
      <trkpt lat="43.4780640" lon="-7.2946590">
        <ele>123.4</ele>
        <time>2021-07-23T12:01:55Z</time>
      </trkpt>
      <trkpt lat="43.4780200" lon="-7.2947240">
        <ele>123.0</ele>
        <time>2021-07-23T12:01:56Z</time>
      </trkpt>
      <trkpt lat="43.4778290" lon="-7.2949680">
        <ele>122.4</ele>
        <time>2021-07-23T12:02:00Z</time>
      </trkpt>
      <trkpt lat="43.4777690" lon="-7.2950260">
        <ele>122.0</ele>
        <time>2021-07-23T12:02:01Z</time>
      </trkpt>
      <trkpt lat="43.4777020" lon="-7.2950870">
        <ele>121.2</ele>
        <time>2021-07-23T12:02:02Z</time>
      </trkpt>
      <trkpt lat="43.4776330" lon="-7.2951400">
        <ele>120.4</ele>
        <time>2021-07-23T12:02:03Z</time>
      </trkpt>
      <trkpt lat="43.4775660" lon="-7.2951890">
        <ele>119.6</ele>
        <time>2021-07-23T12:02:04Z</time>
      </trkpt>
      <trkpt lat="43.4775000" lon="-7.2952350">
        <ele>118.8</ele>
        <time>2021-07-23T12:02:05Z</time>
      </trkpt>
      <trkpt lat="43.4774360" lon="-7.2952820">
        <ele>118.0</ele>
        <time>2021-07-23T12:02:06Z</time>
      </trkpt>
      <trkpt lat="43.4773830" lon="-7.2953210">
        <ele>117.2</ele>
        <time>2021-07-23T12:02:07Z</time>
      </trkpt>
      <trkpt lat="43.4773140" lon="-7.2953740">
        <ele>116.4</ele>
        <time>2021-07-23T12:02:08Z</time>
      </trkpt>
      <trkpt lat="43.4772540" lon="-7.2954240">
        <ele>115.6</ele>
        <time>2021-07-23T12:02:09Z</time>
      </trkpt>
      <trkpt lat="43.4770950" lon="-7.2955670">
        <ele>115.2</ele>
        <time>2021-07-23T12:02:12Z</time>
      </trkpt>
      <trkpt lat="43.4770490" lon="-7.2956030">
        <ele>114.8</ele>
        <time>2021-07-23T12:02:13Z</time>
      </trkpt>
      <trkpt lat="43.4769990" lon="-7.2956410">
        <ele>114.4</ele>
        <time>2021-07-23T12:02:14Z</time>
      </trkpt>
      <trkpt lat="43.4769520" lon="-7.2956820">
        <ele>114.0</ele>
        <time>2021-07-23T12:02:15Z</time>
      </trkpt>
      <trkpt lat="43.4769060" lon="-7.2957240">
        <ele>113.4</ele>
        <time>2021-07-23T12:02:16Z</time>
      </trkpt>
      <trkpt lat="43.4768610" lon="-7.2957670">
        <ele>113.0</ele>
        <time>2021-07-23T12:02:17Z</time>
      </trkpt>
      <trkpt lat="43.4768120" lon="-7.2958080">
        <ele>112.4</ele>
        <time>2021-07-23T12:02:18Z</time>
      </trkpt>
      <trkpt lat="43.4767610" lon="-7.2958520">
        <ele>111.8</ele>
        <time>2021-07-23T12:02:19Z</time>
      </trkpt>
      <trkpt lat="43.4767090" lon="-7.2958970">
        <ele>111.4</ele>
        <time>2021-07-23T12:02:20Z</time>
      </trkpt>
      <trkpt lat="43.4766570" lon="-7.2959440">
        <ele>111.4</ele>
        <time>2021-07-23T12:02:21Z</time>
      </trkpt>
      <trkpt lat="43.4763880" lon="-7.2961530">
        <ele>111.4</ele>
        <time>2021-07-23T12:02:26Z</time>
      </trkpt>
      <trkpt lat="43.4763320" lon="-7.2961830">
        <ele>111.4</ele>
        <time>2021-07-23T12:02:27Z</time>
      </trkpt>
      <trkpt lat="43.4762200" lon="-7.2962200">
        <ele>111.0</ele>
        <time>2021-07-23T12:02:29Z</time>
      </trkpt>
      <trkpt lat="43.4761630" lon="-7.2962300">
        <ele>110.4</ele>
        <time>2021-07-23T12:02:30Z</time>
      </trkpt>
      <trkpt lat="43.4761100" lon="-7.2962340">
        <ele>110.0</ele>
        <time>2021-07-23T12:02:31Z</time>
      </trkpt>
      <trkpt lat="43.4760590" lon="-7.2962350">
        <ele>109.4</ele>
        <time>2021-07-23T12:02:32Z</time>
      </trkpt>
      <trkpt lat="43.4760060" lon="-7.2962340">
        <ele>108.8</ele>
        <time>2021-07-23T12:02:33Z</time>
      </trkpt>
      <trkpt lat="43.4759530" lon="-7.2962300">
        <ele>108.0</ele>
        <time>2021-07-23T12:02:34Z</time>
      </trkpt>
      <trkpt lat="43.4758960" lon="-7.2962250">
        <ele>107.4</ele>
        <time>2021-07-23T12:02:35Z</time>
      </trkpt>
      <trkpt lat="43.4758420" lon="-7.2962170">
        <ele>106.8</ele>
        <time>2021-07-23T12:02:36Z</time>
      </trkpt>
      <trkpt lat="43.4756290" lon="-7.2961800">
        <ele>106.4</ele>
        <time>2021-07-23T12:02:40Z</time>
      </trkpt>
      <trkpt lat="43.4755770" lon="-7.2961730">
        <ele>105.8</ele>
        <time>2021-07-23T12:02:41Z</time>
      </trkpt>
      <trkpt lat="43.4755210" lon="-7.2961670">
        <ele>105.4</ele>
        <time>2021-07-23T12:02:42Z</time>
      </trkpt>
      <trkpt lat="43.4754690" lon="-7.2961590">
        <ele>104.8</ele>
        <time>2021-07-23T12:02:43Z</time>
      </trkpt>
      <trkpt lat="43.4754120" lon="-7.2961590">
        <ele>104.4</ele>
        <time>2021-07-23T12:02:44Z</time>
      </trkpt>
      <trkpt lat="43.4753570" lon="-7.2961480">
        <ele>104.4</ele>
        <time>2021-07-23T12:02:45Z</time>
      </trkpt>
      <trkpt lat="43.4752410" lon="-7.2961310">
        <ele>104.4</ele>
        <time>2021-07-23T12:02:47Z</time>
      </trkpt>
      <trkpt lat="43.4751840" lon="-7.2961230">
        <ele>103.8</ele>
        <time>2021-07-23T12:02:48Z</time>
      </trkpt>
      <trkpt lat="43.4751270" lon="-7.2961150">
        <ele>103.4</ele>
        <time>2021-07-23T12:02:49Z</time>
      </trkpt>
      <trkpt lat="43.4750710" lon="-7.2961030">
        <ele>103.0</ele>
        <time>2021-07-23T12:02:50Z</time>
      </trkpt>
      <trkpt lat="43.4750180" lon="-7.2960930">
        <ele>102.6</ele>
        <time>2021-07-23T12:02:51Z</time>
      </trkpt>
      <trkpt lat="43.4749680" lon="-7.2960830">
        <ele>102.2</ele>
        <time>2021-07-23T12:02:52Z</time>
      </trkpt>
      <trkpt lat="43.4748720" lon="-7.2960630">
        <ele>101.6</ele>
        <time>2021-07-23T12:02:54Z</time>
      </trkpt>
      <trkpt lat="43.4748250" lon="-7.2960530">
        <ele>101.2</ele>
        <time>2021-07-23T12:02:55Z</time>
      </trkpt>
      <trkpt lat="43.4747840" lon="-7.2960420">
        <ele>100.6</ele>
        <time>2021-07-23T12:02:56Z</time>
      </trkpt>
      <trkpt lat="43.4747460" lon="-7.2960280">
        <ele>100.2</ele>
        <time>2021-07-23T12:02:57Z</time>
      </trkpt>
      <trkpt lat="43.4747160" lon="-7.2960150">
        <ele>99.8</ele>
        <time>2021-07-23T12:02:58Z</time>
      </trkpt>
      <trkpt lat="43.4746700" lon="-7.2960040">
        <ele>99.2</ele>
        <time>2021-07-23T12:03:00Z</time>
      </trkpt>
      <trkpt lat="43.4746520" lon="-7.2960170">
        <ele>98.8</ele>
        <time>2021-07-23T12:03:01Z</time>
      </trkpt>
      <trkpt lat="43.4746320" lon="-7.2960470">
        <ele>98.4</ele>
        <time>2021-07-23T12:03:02Z</time>
      </trkpt>
      <trkpt lat="43.4746180" lon="-7.2960900">
        <ele>98.0</ele>
        <time>2021-07-23T12:03:03Z</time>
      </trkpt>
      <trkpt lat="43.4746100" lon="-7.2961380">
        <ele>97.6</ele>
        <time>2021-07-23T12:03:04Z</time>
      </trkpt>
      <trkpt lat="43.4745840" lon="-7.2963440">
        <ele>97.6</ele>
        <time>2021-07-23T12:03:08Z</time>
      </trkpt>
      <trkpt lat="43.4745740" lon="-7.2963970">
        <ele>97.6</ele>
        <time>2021-07-23T12:03:09Z</time>
      </trkpt>
      <trkpt lat="43.4744970" lon="-7.2967720">
        <ele>97.6</ele>
        <time>2021-07-23T12:03:16Z</time>
      </trkpt>
      <trkpt lat="43.4744040" lon="-7.2972440">
        <ele>97.6</ele>
        <time>2021-07-23T12:03:24Z</time>
      </trkpt>
      <trkpt lat="43.4743960" lon="-7.2972970">
        <ele>97.2</ele>
        <time>2021-07-23T12:03:25Z</time>
      </trkpt>
      <trkpt lat="43.4743870" lon="-7.2973470">
        <ele>96.8</ele>
        <time>2021-07-23T12:03:26Z</time>
      </trkpt>
      <trkpt lat="43.4743760" lon="-7.2973930">
        <ele>96.2</ele>
        <time>2021-07-23T12:03:27Z</time>
      </trkpt>
      <trkpt lat="43.4743670" lon="-7.2974340">
        <ele>95.8</ele>
        <time>2021-07-23T12:03:28Z</time>
      </trkpt>
      <trkpt lat="43.4743580" lon="-7.2974750">
        <ele>95.4</ele>
        <time>2021-07-23T12:03:29Z</time>
      </trkpt>
      <trkpt lat="43.4743470" lon="-7.2975150">
        <ele>95.4</ele>
        <time>2021-07-23T12:03:30Z</time>
      </trkpt>
      <trkpt lat="43.4743310" lon="-7.2975940">
        <ele>95.0</ele>
        <time>2021-07-23T12:03:32Z</time>
      </trkpt>
      <trkpt lat="43.4743210" lon="-7.2976390">
        <ele>94.6</ele>
        <time>2021-07-23T12:03:33Z</time>
      </trkpt>
      <trkpt lat="43.4743130" lon="-7.2976870">
        <ele>94.2</ele>
        <time>2021-07-23T12:03:34Z</time>
      </trkpt>
      <trkpt lat="43.4743030" lon="-7.2977330">
        <ele>93.4</ele>
        <time>2021-07-23T12:03:35Z</time>
      </trkpt>
      <trkpt lat="43.4742910" lon="-7.2977870">
        <ele>93.4</ele>
        <time>2021-07-23T12:03:36Z</time>
      </trkpt>
      <trkpt lat="43.4742110" lon="-7.2982480">
        <ele>93.4</ele>
        <time>2021-07-23T12:03:44Z</time>
      </trkpt>
      <trkpt lat="43.4742030" lon="-7.2983050">
        <ele>93.0</ele>
        <time>2021-07-23T12:03:45Z</time>
      </trkpt>
      <trkpt lat="43.4741970" lon="-7.2983640">
        <ele>92.4</ele>
        <time>2021-07-23T12:03:46Z</time>
      </trkpt>
      <trkpt lat="43.4741930" lon="-7.2984260">
        <ele>92.0</ele>
        <time>2021-07-23T12:03:47Z</time>
      </trkpt>
      <trkpt lat="43.4741870" lon="-7.2984860">
        <ele>91.6</ele>
        <time>2021-07-23T12:03:48Z</time>
      </trkpt>
      <trkpt lat="43.4741850" lon="-7.2985430">
        <ele>91.2</ele>
        <time>2021-07-23T12:03:49Z</time>
      </trkpt>
      <trkpt lat="43.4741780" lon="-7.2986530">
        <ele>90.8</ele>
        <time>2021-07-23T12:03:51Z</time>
      </trkpt>
      <trkpt lat="43.4741780" lon="-7.2987020">
        <ele>90.2</ele>
        <time>2021-07-23T12:03:52Z</time>
      </trkpt>
      <trkpt lat="43.4741780" lon="-7.2987520">
        <ele>89.8</ele>
        <time>2021-07-23T12:03:53Z</time>
      </trkpt>
      <trkpt lat="43.4741800" lon="-7.2987990">
        <ele>89.4</ele>
        <time>2021-07-23T12:03:54Z</time>
      </trkpt>
      <trkpt lat="43.4741820" lon="-7.2988420">
        <ele>88.8</ele>
        <time>2021-07-23T12:03:55Z</time>
      </trkpt>
      <trkpt lat="43.4741820" lon="-7.2989240">
        <ele>88.4</ele>
        <time>2021-07-23T12:03:57Z</time>
      </trkpt>
      <trkpt lat="43.4741820" lon="-7.2989630">
        <ele>88.0</ele>
        <time>2021-07-23T12:03:58Z</time>
      </trkpt>
      <trkpt lat="43.4741840" lon="-7.2990040">
        <ele>87.6</ele>
        <time>2021-07-23T12:03:59Z</time>
      </trkpt>
      <trkpt lat="43.4741900" lon="-7.2990430">
        <ele>86.6</ele>
        <time>2021-07-23T12:04:00Z</time>
      </trkpt>
      <trkpt lat="43.4741970" lon="-7.2990820">
        <ele>86.2</ele>
        <time>2021-07-23T12:04:01Z</time>
      </trkpt>
      <trkpt lat="43.4742010" lon="-7.2991220">
        <ele>85.8</ele>
        <time>2021-07-23T12:04:02Z</time>
      </trkpt>
      <trkpt lat="43.4742050" lon="-7.2991610">
        <ele>85.4</ele>
        <time>2021-07-23T12:04:03Z</time>
      </trkpt>
      <trkpt lat="43.4742080" lon="-7.2992010">
        <ele>84.8</ele>
        <time>2021-07-23T12:04:04Z</time>
      </trkpt>
      <trkpt lat="43.4742100" lon="-7.2992370">
        <ele>84.2</ele>
        <time>2021-07-23T12:04:05Z</time>
      </trkpt>
      <trkpt lat="43.4742160" lon="-7.2992690">
        <ele>83.6</ele>
        <time>2021-07-23T12:04:06Z</time>
      </trkpt>
      <trkpt lat="43.4742190" lon="-7.2993050">
        <ele>83.2</ele>
        <time>2021-07-23T12:04:07Z</time>
      </trkpt>
      <trkpt lat="43.4742190" lon="-7.2993380">
        <ele>82.6</ele>
        <time>2021-07-23T12:04:08Z</time>
      </trkpt>
      <trkpt lat="43.4742160" lon="-7.2993610">
        <ele>82.0</ele>
        <time>2021-07-23T12:04:09Z</time>
      </trkpt>
      <trkpt lat="43.4742140" lon="-7.2993690">
        <ele>81.4</ele>
        <time>2021-07-23T12:04:10Z</time>
      </trkpt>
      <trkpt lat="43.4742150" lon="-7.2993670">
        <ele>80.8</ele>
        <time>2021-07-23T12:04:11Z</time>
      </trkpt>
      <trkpt lat="43.4739310" lon="-7.2996490">
        <ele>69.8</ele>
        <time>2021-07-23T12:05:15Z</time>
      </trkpt>
      <trkpt lat="43.4739160" lon="-7.2996660">
        <ele>69.8</ele>
        <time>2021-07-23T12:05:16Z</time>
      </trkpt>
      <trkpt lat="43.4738680" lon="-7.2996790">
        <ele>69.8</ele>
        <time>2021-07-23T12:05:18Z</time>
      </trkpt>
      <trkpt lat="43.4738430" lon="-7.2996820">
        <ele>69.8</ele>
        <time>2021-07-23T12:05:19Z</time>
      </trkpt>
      <trkpt lat="43.4738160" lon="-7.2996820">
        <ele>69.8</ele>
        <time>2021-07-23T12:05:20Z</time>
      </trkpt>
      <trkpt lat="43.4736420" lon="-7.2996520">
        <ele>69.8</ele>
        <time>2021-07-23T12:05:25Z</time>
      </trkpt>
      <trkpt lat="43.4735640" lon="-7.2996330">
        <ele>69.8</ele>
        <time>2021-07-23T12:05:27Z</time>
      </trkpt>
      <trkpt lat="43.4734470" lon="-7.2996030">
        <ele>69.8</ele>
        <time>2021-07-23T12:05:30Z</time>
      </trkpt>
      <trkpt lat="43.4733950" lon="-7.2995900">
        <ele>69.8</ele>
        <time>2021-07-23T12:05:32Z</time>
      </trkpt>
      <trkpt lat="43.4733770" lon="-7.2996080">
        <ele>69.2</ele>
        <time>2021-07-23T12:05:33Z</time>
      </trkpt>
      <trkpt lat="43.4733630" lon="-7.2996280">
        <ele>68.8</ele>
        <time>2021-07-23T12:05:34Z</time>
      </trkpt>
      <trkpt lat="43.4733620" lon="-7.2996600">
        <ele>68.4</ele>
        <time>2021-07-23T12:05:35Z</time>
      </trkpt>
      <trkpt lat="43.4733590" lon="-7.2997030">
        <ele>68.0</ele>
        <time>2021-07-23T12:05:36Z</time>
      </trkpt>
      <trkpt lat="43.4733580" lon="-7.2997430">
        <ele>67.4</ele>
        <time>2021-07-23T12:05:37Z</time>
      </trkpt>
      <trkpt lat="43.4733580" lon="-7.2997770">
        <ele>66.6</ele>
        <time>2021-07-23T12:05:38Z</time>
      </trkpt>
      <trkpt lat="43.4733540" lon="-7.2998100">
        <ele>66.2</ele>
        <time>2021-07-23T12:05:39Z</time>
      </trkpt>
      <trkpt lat="43.4733430" lon="-7.2998430">
        <ele>65.6</ele>
        <time>2021-07-23T12:05:40Z</time>
      </trkpt>
      <trkpt lat="43.4733190" lon="-7.2998660">
        <ele>65.2</ele>
        <time>2021-07-23T12:05:41Z</time>
      </trkpt>
      <trkpt lat="43.4732940" lon="-7.2998950">
        <ele>65.2</ele>
        <time>2021-07-23T12:05:42Z</time>
      </trkpt>
      <trkpt lat="43.4732500" lon="-7.2999100">
        <ele>65.2</ele>
        <time>2021-07-23T12:05:43Z</time>
      </trkpt>
      <trkpt lat="43.4731580" lon="-7.2999250">
        <ele>64.8</ele>
        <time>2021-07-23T12:05:45Z</time>
      </trkpt>
      <trkpt lat="43.4731060" lon="-7.2999290">
        <ele>64.4</ele>
        <time>2021-07-23T12:05:46Z</time>
      </trkpt>
      <trkpt lat="43.4730630" lon="-7.2999250">
        <ele>64.0</ele>
        <time>2021-07-23T12:05:47Z</time>
      </trkpt>
      <trkpt lat="43.4730310" lon="-7.2999190">
        <ele>63.4</ele>
        <time>2021-07-23T12:05:48Z</time>
      </trkpt>
      <trkpt lat="43.4730060" lon="-7.2999180">
        <ele>63.0</ele>
        <time>2021-07-23T12:05:49Z</time>
      </trkpt>
      <trkpt lat="43.4729820" lon="-7.2999180">
        <ele>63.0</ele>
        <time>2021-07-23T12:05:50Z</time>
      </trkpt>
      <trkpt lat="43.4728940" lon="-7.2999090">
        <ele>63.0</ele>
        <time>2021-07-23T12:05:54Z</time>
      </trkpt>
      <trkpt lat="43.4728670" lon="-7.2999080">
        <ele>63.0</ele>
        <time>2021-07-23T12:05:55Z</time>
      </trkpt>
      <trkpt lat="43.4728480" lon="-7.2999040">
        <ele>63.0</ele>
        <time>2021-07-23T12:05:56Z</time>
      </trkpt>
      <trkpt lat="43.4728120" lon="-7.2999010">
        <ele>63.0</ele>
        <time>2021-07-23T12:05:58Z</time>
      </trkpt>
      <trkpt lat="43.4728020" lon="-7.2998980">
        <ele>63.0</ele>
        <time>2021-07-23T12:05:59Z</time>
      </trkpt>
      <trkpt lat="43.4728010" lon="-7.2998960">
        <ele>63.0</ele>
        <time>2021-07-23T12:06:00Z</time>
      </trkpt>
      <trkpt lat="43.4727970" lon="-7.2998930">
        <ele>63.0</ele>
        <time>2021-07-23T12:06:01Z</time>
      </trkpt>
      <trkpt lat="43.4727700" lon="-7.2998910">
        <ele>63.0</ele>
        <time>2021-07-23T12:06:28Z</time>
      </trkpt>
      <trkpt lat="43.4726280" lon="-7.2998260">
        <ele>63.0</ele>
        <time>2021-07-23T12:06:32Z</time>
      </trkpt>
      <trkpt lat="43.4725480" lon="-7.2997600">
        <ele>63.0</ele>
        <time>2021-07-23T12:06:35Z</time>
      </trkpt>
      <trkpt lat="43.4724970" lon="-7.2997230">
        <ele>63.0</ele>
        <time>2021-07-23T12:06:37Z</time>
      </trkpt>
      <trkpt lat="43.4724240" lon="-7.2996660">
        <ele>63.0</ele>
        <time>2021-07-23T12:06:41Z</time>
      </trkpt>
      <trkpt lat="43.4724190" lon="-7.2996400">
        <ele>63.0</ele>
        <time>2021-07-23T12:06:42Z</time>
      </trkpt>
      <trkpt lat="43.4723270" lon="-7.2994880">
        <ele>63.0</ele>
        <time>2021-07-23T12:06:48Z</time>
      </trkpt>
      <trkpt lat="43.4721960" lon="-7.2993730">
        <ele>63.0</ele>
        <time>2021-07-23T12:06:54Z</time>
      </trkpt>
      <trkpt lat="43.4721740" lon="-7.2993660">
        <ele>63.0</ele>
        <time>2021-07-23T12:06:55Z</time>
      </trkpt>
      <trkpt lat="43.4721250" lon="-7.2993510">
        <ele>63.0</ele>
        <time>2021-07-23T12:06:57Z</time>
      </trkpt>
      <trkpt lat="43.4719980" lon="-7.2993440">
        <ele>63.0</ele>
        <time>2021-07-23T12:07:02Z</time>
      </trkpt>
      <trkpt lat="43.4718330" lon="-7.2993830">
        <ele>63.4</ele>
        <time>2021-07-23T12:07:08Z</time>
      </trkpt>
      <trkpt lat="43.4717970" lon="-7.2994010">
        <ele>63.8</ele>
        <time>2021-07-23T12:07:09Z</time>
      </trkpt>
      <trkpt lat="43.4717620" lon="-7.2994070">
        <ele>64.2</ele>
        <time>2021-07-23T12:07:10Z</time>
      </trkpt>
      <trkpt lat="43.4717240" lon="-7.2994100">
        <ele>64.6</ele>
        <time>2021-07-23T12:07:11Z</time>
      </trkpt>
      <trkpt lat="43.4716870" lon="-7.2994140">
        <ele>65.2</ele>
        <time>2021-07-23T12:07:12Z</time>
      </trkpt>
      <trkpt lat="43.4715200" lon="-7.2994400">
        <ele>65.2</ele>
        <time>2021-07-23T12:07:17Z</time>
      </trkpt>
      <trkpt lat="43.4713450" lon="-7.2995120">
        <ele>65.2</ele>
        <time>2021-07-23T12:07:24Z</time>
      </trkpt>
      <trkpt lat="43.4712520" lon="-7.2995150">
        <ele>65.2</ele>
        <time>2021-07-23T12:07:27Z</time>
      </trkpt>
      <trkpt lat="43.4711160" lon="-7.2994980">
        <ele>65.2</ele>
        <time>2021-07-23T12:07:31Z</time>
      </trkpt>
      <trkpt lat="43.4709110" lon="-7.2994840">
        <ele>65.2</ele>
        <time>2021-07-23T12:07:39Z</time>
      </trkpt>
      <trkpt lat="43.4708160" lon="-7.2994860">
        <ele>65.2</ele>
        <time>2021-07-23T12:07:42Z</time>
      </trkpt>
      <trkpt lat="43.4706930" lon="-7.2995050">
        <ele>65.2</ele>
        <time>2021-07-23T12:07:46Z</time>
      </trkpt>
      <trkpt lat="43.4705530" lon="-7.2995290">
        <ele>65.2</ele>
        <time>2021-07-23T12:07:52Z</time>
      </trkpt>
      <trkpt lat="43.4704940" lon="-7.2995250">
        <ele>65.6</ele>
        <time>2021-07-23T12:07:55Z</time>
      </trkpt>
      <trkpt lat="43.4704720" lon="-7.2995220">
        <ele>66.0</ele>
        <time>2021-07-23T12:07:56Z</time>
      </trkpt>
      <trkpt lat="43.4704460" lon="-7.2995200">
        <ele>66.4</ele>
        <time>2021-07-23T12:07:57Z</time>
      </trkpt>
      <trkpt lat="43.4704210" lon="-7.2995280">
        <ele>66.8</ele>
        <time>2021-07-23T12:07:58Z</time>
      </trkpt>
      <trkpt lat="43.4703950" lon="-7.2995410">
        <ele>67.2</ele>
        <time>2021-07-23T12:07:59Z</time>
      </trkpt>
      <trkpt lat="43.4702240" lon="-7.2996650">
        <ele>67.2</ele>
        <time>2021-07-23T12:08:05Z</time>
      </trkpt>
      <trkpt lat="43.4700950" lon="-7.2997170">
        <ele>67.2</ele>
        <time>2021-07-23T12:08:11Z</time>
      </trkpt>
      <trkpt lat="43.4700490" lon="-7.2997330">
        <ele>67.2</ele>
        <time>2021-07-23T12:08:15Z</time>
      </trkpt>
      <trkpt lat="43.4693600" lon="-7.3007400">
        <ele>83.8</ele>
        <time>2021-07-23T12:14:34Z</time>
      </trkpt>
      <trkpt lat="43.4693470" lon="-7.3007590">
        <ele>83.8</ele>
        <time>2021-07-23T12:14:35Z</time>
      </trkpt>
      <trkpt lat="43.4693010" lon="-7.3008050">
        <ele>84.2</ele>
        <time>2021-07-23T12:14:39Z</time>
      </trkpt>
      <trkpt lat="43.4692890" lon="-7.3008110">
        <ele>84.6</ele>
        <time>2021-07-23T12:14:40Z</time>
      </trkpt>
      <trkpt lat="43.4692770" lon="-7.3008160">
        <ele>85.0</ele>
        <time>2021-07-23T12:14:41Z</time>
      </trkpt>
      <trkpt lat="43.4692730" lon="-7.3008170">
        <ele>85.4</ele>
        <time>2021-07-23T12:14:42Z</time>
      </trkpt>
      <trkpt lat="43.4692620" lon="-7.3008240">
        <ele>85.8</ele>
        <time>2021-07-23T12:14:43Z</time>
      </trkpt>
      <trkpt lat="43.4692320" lon="-7.3008440">
        <ele>85.8</ele>
        <time>2021-07-23T12:14:46Z</time>
      </trkpt>
      <trkpt lat="43.4692090" lon="-7.3008660">
        <ele>85.8</ele>
        <time>2021-07-23T12:14:49Z</time>
      </trkpt>
      <trkpt lat="43.4686920" lon="-7.3013890">
        <ele>96.2</ele>
        <time>2021-07-23T12:16:45Z</time>
      </trkpt>
      <trkpt lat="43.4686690" lon="-7.3013960">
        <ele>96.2</ele>
        <time>2021-07-23T12:16:47Z</time>
      </trkpt>
      <trkpt lat="43.4686560" lon="-7.3014000">
        <ele>96.6</ele>
        <time>2021-07-23T12:16:48Z</time>
      </trkpt>
      <trkpt lat="43.4686440" lon="-7.3014050">
        <ele>97.0</ele>
        <time>2021-07-23T12:16:49Z</time>
      </trkpt>
      <trkpt lat="43.4686330" lon="-7.3014150">
        <ele>97.4</ele>
        <time>2021-07-23T12:16:50Z</time>
      </trkpt>
      <trkpt lat="43.4686260" lon="-7.3014240">
        <ele>97.8</ele>
        <time>2021-07-23T12:16:51Z</time>
      </trkpt>
      <trkpt lat="43.4686140" lon="-7.3014310">
        <ele>98.2</ele>
        <time>2021-07-23T12:16:52Z</time>
      </trkpt>
      <trkpt lat="43.4685930" lon="-7.3014440">
        <ele>98.2</ele>
        <time>2021-07-23T12:16:54Z</time>
      </trkpt>
      <trkpt lat="43.4684930" lon="-7.3015130">
        <ele>98.2</ele>
        <time>2021-07-23T12:17:02Z</time>
      </trkpt>
      <trkpt lat="43.4684230" lon="-7.3015660">
        <ele>98.6</ele>
        <time>2021-07-23T12:17:08Z</time>
      </trkpt>
      <trkpt lat="43.4684140" lon="-7.3015670">
        <ele>99.0</ele>
        <time>2021-07-23T12:17:09Z</time>
      </trkpt>
      <trkpt lat="43.4684040" lon="-7.3015690">
        <ele>99.4</ele>
        <time>2021-07-23T12:17:10Z</time>
      </trkpt>
      <trkpt lat="43.4683930" lon="-7.3015730">
        <ele>99.8</ele>
        <time>2021-07-23T12:17:11Z</time>
      </trkpt>
      <trkpt lat="43.4683830" lon="-7.3015800">
        <ele>100.2</ele>
        <time>2021-07-23T12:17:12Z</time>
      </trkpt>
      <trkpt lat="43.4683790" lon="-7.3015930">
        <ele>100.2</ele>
        <time>2021-07-23T12:17:14Z</time>
      </trkpt>
      <trkpt lat="43.4683700" lon="-7.3016030">
        <ele>100.2</ele>
        <time>2021-07-23T12:18:23Z</time>
      </trkpt>
      <trkpt lat="43.4683590" lon="-7.3016140">
        <ele>100.2</ele>
        <time>2021-07-23T12:18:24Z</time>
      </trkpt>
      <trkpt lat="43.4682950" lon="-7.3016810">
        <ele>100.2</ele>
        <time>2021-07-23T12:18:28Z</time>
      </trkpt>
      <trkpt lat="43.4682480" lon="-7.3017420">
        <ele>100.2</ele>
        <time>2021-07-23T12:18:32Z</time>
      </trkpt>
      <trkpt lat="43.4682310" lon="-7.3017650">
        <ele>100.2</ele>
        <time>2021-07-23T12:18:52Z</time>
      </trkpt>
      <trkpt lat="43.4682210" lon="-7.3017810">
        <ele>100.2</ele>
        <time>2021-07-23T12:18:53Z</time>
      </trkpt>
      <trkpt lat="43.4681750" lon="-7.3018310">
        <ele>100.2</ele>
        <time>2021-07-23T12:18:56Z</time>
      </trkpt>
      <trkpt lat="43.4681540" lon="-7.3018510">
        <ele>100.2</ele>
        <time>2021-07-23T12:18:57Z</time>
      </trkpt>
      <trkpt lat="43.4681110" lon="-7.3019000">
        <ele>100.2</ele>
        <time>2021-07-23T12:18:59Z</time>
      </trkpt>
      <trkpt lat="43.4680670" lon="-7.3019590">
        <ele>100.2</ele>
        <time>2021-07-23T12:19:01Z</time>
      </trkpt>
      <trkpt lat="43.4680170" lon="-7.3020560">
        <ele>100.2</ele>
        <time>2021-07-23T12:19:04Z</time>
      </trkpt>
      <trkpt lat="43.4679760" lon="-7.3022410">
        <ele>100.6</ele>
        <time>2021-07-23T12:19:09Z</time>
      </trkpt>
      <trkpt lat="43.4679760" lon="-7.3022750">
        <ele>101.0</ele>
        <time>2021-07-23T12:19:10Z</time>
      </trkpt>
      <trkpt lat="43.4679740" lon="-7.3023060">
        <ele>101.6</ele>
        <time>2021-07-23T12:19:11Z</time>
      </trkpt>
      <trkpt lat="43.4679720" lon="-7.3023370">
        <ele>102.0</ele>
        <time>2021-07-23T12:19:12Z</time>
      </trkpt>
      <trkpt lat="43.4679710" lon="-7.3023700">
        <ele>102.4</ele>
        <time>2021-07-23T12:19:13Z</time>
      </trkpt>
      <trkpt lat="43.4679660" lon="-7.3025400">
        <ele>102.4</ele>
        <time>2021-07-23T12:19:18Z</time>
      </trkpt>
      <trkpt lat="43.4679590" lon="-7.3026360">
        <ele>102.4</ele>
        <time>2021-07-23T12:19:21Z</time>
      </trkpt>
      <trkpt lat="43.4679530" lon="-7.3026930">
        <ele>102.8</ele>
        <time>2021-07-23T12:19:23Z</time>
      </trkpt>
      <trkpt lat="43.4679500" lon="-7.3027190">
        <ele>103.2</ele>
        <time>2021-07-23T12:19:24Z</time>
      </trkpt>
      <trkpt lat="43.4679470" lon="-7.3027430">
        <ele>103.6</ele>
        <time>2021-07-23T12:19:25Z</time>
      </trkpt>
      <trkpt lat="43.4679470" lon="-7.3027710">
        <ele>104.0</ele>
        <time>2021-07-23T12:19:26Z</time>
      </trkpt>
      <trkpt lat="43.4679450" lon="-7.3027990">
        <ele>104.4</ele>
        <time>2021-07-23T12:19:27Z</time>
      </trkpt>
      <trkpt lat="43.4679280" lon="-7.3029220">
        <ele>104.4</ele>
        <time>2021-07-23T12:19:32Z</time>
      </trkpt>
      <trkpt lat="43.4679100" lon="-7.3030670">
        <ele>104.8</ele>
        <time>2021-07-23T12:19:38Z</time>
      </trkpt>
      <trkpt lat="43.4679060" lon="-7.3030910">
        <ele>105.2</ele>
        <time>2021-07-23T12:19:39Z</time>
      </trkpt>
      <trkpt lat="43.4679030" lon="-7.3031150">
        <ele>106.0</ele>
        <time>2021-07-23T12:19:40Z</time>
      </trkpt>
      <trkpt lat="43.4679010" lon="-7.3031380">
        <ele>106.4</ele>
        <time>2021-07-23T12:19:41Z</time>
      </trkpt>
      <trkpt lat="43.4678830" lon="-7.3032780">
        <ele>106.4</ele>
        <time>2021-07-23T12:19:47Z</time>
      </trkpt>
      <trkpt lat="43.4678750" lon="-7.3034440">
        <ele>106.4</ele>
        <time>2021-07-23T12:19:54Z</time>
      </trkpt>
      <trkpt lat="43.4678750" lon="-7.3034650">
        <ele>106.8</ele>
        <time>2021-07-23T12:19:55Z</time>
      </trkpt>
      <trkpt lat="43.4678730" lon="-7.3034870">
        <ele>107.2</ele>
        <time>2021-07-23T12:19:56Z</time>
      </trkpt>
      <trkpt lat="43.4678710" lon="-7.3035080">
        <ele>107.6</ele>
        <time>2021-07-23T12:19:57Z</time>
      </trkpt>
      <trkpt lat="43.4678700" lon="-7.3035300">
        <ele>108.0</ele>
        <time>2021-07-23T12:19:58Z</time>
      </trkpt>
      <trkpt lat="43.4678700" lon="-7.3035540">
        <ele>108.4</ele>
        <time>2021-07-23T12:19:59Z</time>
      </trkpt>
      <trkpt lat="43.4678680" lon="-7.3035990">
        <ele>108.4</ele>
        <time>2021-07-23T12:20:01Z</time>
      </trkpt>
      <trkpt lat="43.4678770" lon="-7.3037070">
        <ele>109.0</ele>
        <time>2021-07-23T12:20:06Z</time>
      </trkpt>
      <trkpt lat="43.4678780" lon="-7.3037290">
        <ele>109.4</ele>
        <time>2021-07-23T12:20:07Z</time>
      </trkpt>
      <trkpt lat="43.4678790" lon="-7.3037530">
        <ele>109.8</ele>
        <time>2021-07-23T12:20:08Z</time>
      </trkpt>
      <trkpt lat="43.4678780" lon="-7.3037760">
        <ele>110.2</ele>
        <time>2021-07-23T12:20:09Z</time>
      </trkpt>
      <trkpt lat="43.4678790" lon="-7.3037970">
        <ele>110.6</ele>
        <time>2021-07-23T12:20:10Z</time>
      </trkpt>
      <trkpt lat="43.4678720" lon="-7.3039620">
        <ele>110.6</ele>
        <time>2021-07-23T12:20:17Z</time>
      </trkpt>
      <trkpt lat="43.4678550" lon="-7.3040480">
        <ele>111.0</ele>
        <time>2021-07-23T12:20:21Z</time>
      </trkpt>
      <trkpt lat="43.4678500" lon="-7.3040660">
        <ele>111.4</ele>
        <time>2021-07-23T12:20:22Z</time>
      </trkpt>
      <trkpt lat="43.4678470" lon="-7.3040860">
        <ele>111.8</ele>
        <time>2021-07-23T12:20:23Z</time>
      </trkpt>
      <trkpt lat="43.4678450" lon="-7.3041080">
        <ele>112.2</ele>
        <time>2021-07-23T12:20:24Z</time>
      </trkpt>
      <trkpt lat="43.4678400" lon="-7.3041260">
        <ele>112.6</ele>
        <time>2021-07-23T12:20:25Z</time>
      </trkpt>
      <trkpt lat="43.4678220" lon="-7.3042490">
        <ele>112.6</ele>
        <time>2021-07-23T12:20:31Z</time>
      </trkpt>
      <trkpt lat="43.4677970" lon="-7.3043900">
        <ele>113.0</ele>
        <time>2021-07-23T12:20:37Z</time>
      </trkpt>
      <trkpt lat="43.4677940" lon="-7.3044130">
        <ele>113.6</ele>
        <time>2021-07-23T12:20:38Z</time>
      </trkpt>
      <trkpt lat="43.4677900" lon="-7.3044340">
        <ele>114.0</ele>
        <time>2021-07-23T12:20:39Z</time>
      </trkpt>
      <trkpt lat="43.4677860" lon="-7.3044560">
        <ele>114.4</ele>
        <time>2021-07-23T12:20:40Z</time>
      </trkpt>
      <trkpt lat="43.4677830" lon="-7.3044770">
        <ele>114.8</ele>
        <time>2021-07-23T12:20:41Z</time>
      </trkpt>
      <trkpt lat="43.4677770" lon="-7.3045730">
        <ele>114.8</ele>
        <time>2021-07-23T12:20:46Z</time>
      </trkpt>
      <trkpt lat="43.4677690" lon="-7.3046460">
        <ele>115.2</ele>
        <time>2021-07-23T12:20:50Z</time>
      </trkpt>
      <trkpt lat="43.4677660" lon="-7.3046650">
        <ele>115.6</ele>
        <time>2021-07-23T12:20:51Z</time>
      </trkpt>
      <trkpt lat="43.4677650" lon="-7.3046860">
        <ele>116.0</ele>
        <time>2021-07-23T12:20:52Z</time>
      </trkpt>
      <trkpt lat="43.4677640" lon="-7.3047050">
        <ele>116.4</ele>
        <time>2021-07-23T12:20:53Z</time>
      </trkpt>
      <trkpt lat="43.4677630" lon="-7.3047250">
        <ele>116.8</ele>
        <time>2021-07-23T12:20:54Z</time>
      </trkpt>
      <trkpt lat="43.4677470" lon="-7.3048250">
        <ele>116.8</ele>
        <time>2021-07-23T12:20:59Z</time>
      </trkpt>
      <trkpt lat="43.4677300" lon="-7.3049710">
        <ele>116.8</ele>
        <time>2021-07-23T12:21:05Z</time>
      </trkpt>
      <trkpt lat="43.4677230" lon="-7.3050410">
        <ele>117.2</ele>
        <time>2021-07-23T12:21:08Z</time>
      </trkpt>
      <trkpt lat="43.4677180" lon="-7.3050650">
        <ele>117.6</ele>
        <time>2021-07-23T12:21:09Z</time>
      </trkpt>
      <trkpt lat="43.4677160" lon="-7.3050860">
        <ele>118.0</ele>
        <time>2021-07-23T12:21:10Z</time>
      </trkpt>
      <trkpt lat="43.4677150" lon="-7.3051080">
        <ele>118.4</ele>
        <time>2021-07-23T12:21:11Z</time>
      </trkpt>
      <trkpt lat="43.4677120" lon="-7.3051290">
        <ele>119.0</ele>
        <time>2021-07-23T12:21:12Z</time>
      </trkpt>
      <trkpt lat="43.4677100" lon="-7.3051470">
        <ele>119.0</ele>
        <time>2021-07-23T12:21:13Z</time>
      </trkpt>
      <trkpt lat="43.4677120" lon="-7.3052790">
        <ele>119.0</ele>
        <time>2021-07-23T12:21:20Z</time>
      </trkpt>
      <trkpt lat="43.4677090" lon="-7.3053230">
        <ele>119.4</ele>
        <time>2021-07-23T12:21:22Z</time>
      </trkpt>
      <trkpt lat="43.4677060" lon="-7.3053400">
        <ele>119.8</ele>
        <time>2021-07-23T12:21:23Z</time>
      </trkpt>
      <trkpt lat="43.4677040" lon="-7.3053570">
        <ele>120.2</ele>
        <time>2021-07-23T12:21:24Z</time>
      </trkpt>
      <trkpt lat="43.4677030" lon="-7.3053700">
        <ele>120.6</ele>
        <time>2021-07-23T12:21:25Z</time>
      </trkpt>
      <trkpt lat="43.4677010" lon="-7.3053840">
        <ele>121.0</ele>
        <time>2021-07-23T12:21:26Z</time>
      </trkpt>
      <trkpt lat="43.4677000" lon="-7.3053990">
        <ele>121.0</ele>
        <time>2021-07-23T12:21:27Z</time>
      </trkpt>
      <trkpt lat="43.4676850" lon="-7.3054590">
        <ele>121.6</ele>
        <time>2021-07-23T12:21:31Z</time>
      </trkpt>
      <trkpt lat="43.4676820" lon="-7.3054780">
        <ele>122.0</ele>
        <time>2021-07-23T12:21:32Z</time>
      </trkpt>
      <trkpt lat="43.4676770" lon="-7.3055000">
        <ele>122.4</ele>
        <time>2021-07-23T12:21:33Z</time>
      </trkpt>
      <trkpt lat="43.4676690" lon="-7.3055230">
        <ele>122.8</ele>
        <time>2021-07-23T12:21:34Z</time>
      </trkpt>
      <trkpt lat="43.4676640" lon="-7.3055450">
        <ele>123.4</ele>
        <time>2021-07-23T12:21:35Z</time>
      </trkpt>
      <trkpt lat="43.4676380" lon="-7.3056130">
        <ele>123.8</ele>
        <time>2021-07-23T12:21:40Z</time>
      </trkpt>
      <trkpt lat="43.4655340" lon="-7.3077420">
        <ele>168.8</ele>
        <time>2021-07-23T12:28:23Z</time>
      </trkpt>
      <trkpt lat="43.4655180" lon="-7.3077550">
        <ele>168.8</ele>
        <time>2021-07-23T12:28:24Z</time>
      </trkpt>
      <trkpt lat="43.4654180" lon="-7.3078290">
        <ele>168.8</ele>
        <time>2021-07-23T12:28:29Z</time>
      </trkpt>
      <trkpt lat="43.4653490" lon="-7.3079240">
        <ele>169.2</ele>
        <time>2021-07-23T12:28:33Z</time>
      </trkpt>
      <trkpt lat="43.4653300" lon="-7.3079450">
        <ele>169.6</ele>
        <time>2021-07-23T12:28:34Z</time>
      </trkpt>
      <trkpt lat="43.4653120" lon="-7.3079650">
        <ele>170.0</ele>
        <time>2021-07-23T12:28:35Z</time>
      </trkpt>
      <trkpt lat="43.4652960" lon="-7.3079860">
        <ele>170.4</ele>
        <time>2021-07-23T12:28:36Z</time>
      </trkpt>
      <trkpt lat="43.4652840" lon="-7.3080070">
        <ele>170.8</ele>
        <time>2021-07-23T12:28:37Z</time>
      </trkpt>
      <trkpt lat="43.4652090" lon="-7.3081200">
        <ele>170.8</ele>
        <time>2021-07-23T12:28:42Z</time>
      </trkpt>
      <trkpt lat="43.4651300" lon="-7.3082270">
        <ele>170.8</ele>
        <time>2021-07-23T12:28:47Z</time>
      </trkpt>
      <trkpt lat="43.4651020" lon="-7.3082620">
        <ele>170.8</ele>
        <time>2021-07-23T12:28:49Z</time>
      </trkpt>
      <trkpt lat="43.4650910" lon="-7.3082790">
        <ele>171.4</ele>
        <time>2021-07-23T12:28:50Z</time>
      </trkpt>
      <trkpt lat="43.4650780" lon="-7.3082950">
        <ele>171.8</ele>
        <time>2021-07-23T12:28:51Z</time>
      </trkpt>
      <trkpt lat="43.4650630" lon="-7.3083110">
        <ele>172.2</ele>
        <time>2021-07-23T12:28:52Z</time>
      </trkpt>
      <trkpt lat="43.4650470" lon="-7.3083250">
        <ele>172.6</ele>
        <time>2021-07-23T12:28:53Z</time>
      </trkpt>
      <trkpt lat="43.4650350" lon="-7.3083380">
        <ele>173.0</ele>
        <time>2021-07-23T12:28:54Z</time>
      </trkpt>
      <trkpt lat="43.4649920" lon="-7.3084070">
        <ele>173.0</ele>
        <time>2021-07-23T12:28:57Z</time>
      </trkpt>
      <trkpt lat="43.4648820" lon="-7.3085830">
        <ele>173.0</ele>
        <time>2021-07-23T12:29:05Z</time>
      </trkpt>
      <trkpt lat="43.4648500" lon="-7.3086460">
        <ele>173.4</ele>
        <time>2021-07-23T12:29:08Z</time>
      </trkpt>
      <trkpt lat="43.4648390" lon="-7.3086660">
        <ele>173.8</ele>
        <time>2021-07-23T12:29:09Z</time>
      </trkpt>
      <trkpt lat="43.4648260" lon="-7.3086850">
        <ele>174.2</ele>
        <time>2021-07-23T12:29:10Z</time>
      </trkpt>
      <trkpt lat="43.4648130" lon="-7.3087020">
        <ele>174.6</ele>
        <time>2021-07-23T12:29:11Z</time>
      </trkpt>
      <trkpt lat="43.4648020" lon="-7.3087160">
        <ele>175.2</ele>
        <time>2021-07-23T12:29:12Z</time>
      </trkpt>
      <trkpt lat="43.4647330" lon="-7.3088220">
        <ele>175.2</ele>
        <time>2021-07-23T12:29:18Z</time>
      </trkpt>
      <trkpt lat="43.4646630" lon="-7.3089340">
        <ele>175.2</ele>
        <time>2021-07-23T12:29:24Z</time>
      </trkpt>
      <trkpt lat="43.4646190" lon="-7.3090050">
        <ele>175.6</ele>
        <time>2021-07-23T12:29:28Z</time>
      </trkpt>
      <trkpt lat="43.4646080" lon="-7.3090230">
        <ele>176.0</ele>
        <time>2021-07-23T12:29:29Z</time>
      </trkpt>
      <trkpt lat="43.4645960" lon="-7.3090410">
        <ele>176.4</ele>
        <time>2021-07-23T12:29:30Z</time>
      </trkpt>
      <trkpt lat="43.4645810" lon="-7.3090580">
        <ele>176.8</ele>
        <time>2021-07-23T12:29:31Z</time>
      </trkpt>
      <trkpt lat="43.4645700" lon="-7.3090730">
        <ele>177.2</ele>
        <time>2021-07-23T12:29:32Z</time>
      </trkpt>
      <trkpt lat="43.4645180" lon="-7.3091590">
        <ele>177.2</ele>
        <time>2021-07-23T12:29:38Z</time>
      </trkpt>
      <trkpt lat="43.4644930" lon="-7.3092180">
        <ele>177.6</ele>
        <time>2021-07-23T12:29:41Z</time>
      </trkpt>
      <trkpt lat="43.4644800" lon="-7.3092360">
        <ele>178.0</ele>
        <time>2021-07-23T12:29:42Z</time>
      </trkpt>
      <trkpt lat="43.4644690" lon="-7.3092490">
        <ele>178.6</ele>
        <time>2021-07-23T12:29:43Z</time>
      </trkpt>
      <trkpt lat="43.4644580" lon="-7.3092640">
        <ele>179.0</ele>
        <time>2021-07-23T12:29:44Z</time>
      </trkpt>
      <trkpt lat="43.4644470" lon="-7.3092810">
        <ele>179.4</ele>
        <time>2021-07-23T12:29:45Z</time>
      </trkpt>
      <trkpt lat="43.4643920" lon="-7.3093450">
        <ele>179.4</ele>
        <time>2021-07-23T12:29:50Z</time>
      </trkpt>
      <trkpt lat="43.4643410" lon="-7.3094610">
        <ele>179.8</ele>
        <time>2021-07-23T12:29:55Z</time>
      </trkpt>
      <trkpt lat="43.4643390" lon="-7.3094810">
        <ele>180.2</ele>
        <time>2021-07-23T12:29:56Z</time>
      </trkpt>
      <trkpt lat="43.4643360" lon="-7.3095000">
        <ele>181.0</ele>
        <time>2021-07-23T12:29:57Z</time>
      </trkpt>
      <trkpt lat="43.4643330" lon="-7.3095190">
        <ele>181.4</ele>
        <time>2021-07-23T12:29:58Z</time>
      </trkpt>
      <trkpt lat="43.4642950" lon="-7.3096320">
        <ele>181.4</ele>
        <time>2021-07-23T12:30:04Z</time>
      </trkpt>
      <trkpt lat="43.4642930" lon="-7.3096530">
        <ele>181.4</ele>
        <time>2021-07-23T12:30:05Z</time>
      </trkpt>
      <trkpt lat="43.4642800" lon="-7.3096820">
        <ele>181.8</ele>
        <time>2021-07-23T12:30:07Z</time>
      </trkpt>
      <trkpt lat="43.4642740" lon="-7.3097010">
        <ele>182.2</ele>
        <time>2021-07-23T12:30:08Z</time>
      </trkpt>
      <trkpt lat="43.4642690" lon="-7.3097170">
        <ele>182.6</ele>
        <time>2021-07-23T12:30:09Z</time>
      </trkpt>
      <trkpt lat="43.4642590" lon="-7.3097370">
        <ele>183.0</ele>
        <time>2021-07-23T12:30:10Z</time>
      </trkpt>
      <trkpt lat="43.4642490" lon="-7.3097610">
        <ele>183.4</ele>
        <time>2021-07-23T12:30:11Z</time>
      </trkpt>
      <trkpt lat="43.4642290" lon="-7.3098890">
        <ele>183.4</ele>
        <time>2021-07-23T12:30:17Z</time>
      </trkpt>
      <trkpt lat="43.4642080" lon="-7.3099410">
        <ele>183.8</ele>
        <time>2021-07-23T12:30:20Z</time>
      </trkpt>
      <trkpt lat="43.4642010" lon="-7.3099610">
        <ele>184.2</ele>
        <time>2021-07-23T12:30:21Z</time>
      </trkpt>
      <trkpt lat="43.4641950" lon="-7.3099790">
        <ele>185.0</ele>
        <time>2021-07-23T12:30:22Z</time>
      </trkpt>
      <trkpt lat="43.4641890" lon="-7.3099970">
        <ele>185.4</ele>
        <time>2021-07-23T12:30:23Z</time>
      </trkpt>
      <trkpt lat="43.4641740" lon="-7.3100320">
        <ele>185.4</ele>
        <time>2021-07-23T12:30:25Z</time>
      </trkpt>
      <trkpt lat="43.4641150" lon="-7.3101760">
        <ele>185.4</ele>
        <time>2021-07-23T12:30:32Z</time>
      </trkpt>
      <trkpt lat="43.4640530" lon="-7.3103040">
        <ele>185.4</ele>
        <time>2021-07-23T12:30:38Z</time>
      </trkpt>
      <trkpt lat="43.4640280" lon="-7.3103480">
        <ele>185.8</ele>
        <time>2021-07-23T12:30:40Z</time>
      </trkpt>
      <trkpt lat="43.4640190" lon="-7.3103700">
        <ele>186.2</ele>
        <time>2021-07-23T12:30:41Z</time>
      </trkpt>
      <trkpt lat="43.4640070" lon="-7.3103890">
        <ele>186.6</ele>
        <time>2021-07-23T12:30:42Z</time>
      </trkpt>
      <trkpt lat="43.4639950" lon="-7.3104090">
        <ele>187.0</ele>
        <time>2021-07-23T12:30:43Z</time>
      </trkpt>
      <trkpt lat="43.4639820" lon="-7.3104320">
        <ele>187.4</ele>
        <time>2021-07-23T12:30:44Z</time>
      </trkpt>
      <trkpt lat="43.4638460" lon="-7.3106020">
        <ele>187.4</ele>
        <time>2021-07-23T12:30:51Z</time>
      </trkpt>
      <trkpt lat="43.4638180" lon="-7.3106430">
        <ele>187.8</ele>
        <time>2021-07-23T12:30:53Z</time>
      </trkpt>
      <trkpt lat="43.4638070" lon="-7.3106620">
        <ele>188.4</ele>
        <time>2021-07-23T12:30:54Z</time>
      </trkpt>
      <trkpt lat="43.4637930" lon="-7.3106800">
        <ele>188.8</ele>
        <time>2021-07-23T12:30:55Z</time>
      </trkpt>
      <trkpt lat="43.4637790" lon="-7.3106960">
        <ele>189.2</ele>
        <time>2021-07-23T12:30:56Z</time>
      </trkpt>
      <trkpt lat="43.4637710" lon="-7.3107130">
        <ele>189.6</ele>
        <time>2021-07-23T12:30:57Z</time>
      </trkpt>
      <trkpt lat="43.4637590" lon="-7.3107300">
        <ele>189.6</ele>
        <time>2021-07-23T12:30:58Z</time>
      </trkpt>
      <trkpt lat="43.4636320" lon="-7.3109030">
        <ele>189.6</ele>
        <time>2021-07-23T12:31:08Z</time>
      </trkpt>
      <trkpt lat="43.4635710" lon="-7.3109710">
        <ele>190.0</ele>
        <time>2021-07-23T12:31:12Z</time>
      </trkpt>
      <trkpt lat="43.4635590" lon="-7.3109860">
        <ele>190.4</ele>
        <time>2021-07-23T12:31:13Z</time>
      </trkpt>
      <trkpt lat="43.4635490" lon="-7.3109990">
        <ele>190.8</ele>
        <time>2021-07-23T12:31:14Z</time>
      </trkpt>
      <trkpt lat="43.4635390" lon="-7.3110080">
        <ele>191.2</ele>
        <time>2021-07-23T12:31:15Z</time>
      </trkpt>
      <trkpt lat="43.4635280" lon="-7.3110180">
        <ele>191.8</ele>
        <time>2021-07-23T12:31:16Z</time>
      </trkpt>
      <trkpt lat="43.4634970" lon="-7.3110680">
        <ele>191.8</ele>
        <time>2021-07-23T12:31:20Z</time>
      </trkpt>
      <trkpt lat="43.4634790" lon="-7.3111010">
        <ele>191.8</ele>
        <time>2021-07-23T12:31:22Z</time>
      </trkpt>
      <trkpt lat="43.4634670" lon="-7.3111140">
        <ele>192.2</ele>
        <time>2021-07-23T12:31:23Z</time>
      </trkpt>
      <trkpt lat="43.4634530" lon="-7.3111250">
        <ele>192.6</ele>
        <time>2021-07-23T12:31:24Z</time>
      </trkpt>
      <trkpt lat="43.4634420" lon="-7.3111400">
        <ele>193.0</ele>
        <time>2021-07-23T12:31:25Z</time>
      </trkpt>
      <trkpt lat="43.4634320" lon="-7.3111550">
        <ele>193.4</ele>
        <time>2021-07-23T12:31:26Z</time>
      </trkpt>
      <trkpt lat="43.4634170" lon="-7.3111670">
        <ele>193.8</ele>
        <time>2021-07-23T12:31:27Z</time>
      </trkpt>
      <trkpt lat="43.4633930" lon="-7.3111940">
        <ele>193.8</ele>
        <time>2021-07-23T12:31:29Z</time>
      </trkpt>
      <trkpt lat="43.4633290" lon="-7.3112780">
        <ele>194.2</ele>
        <time>2021-07-23T12:31:34Z</time>
      </trkpt>
      <trkpt lat="43.4633180" lon="-7.3112980">
        <ele>194.6</ele>
        <time>2021-07-23T12:31:35Z</time>
      </trkpt>
      <trkpt lat="43.4633050" lon="-7.3113140">
        <ele>195.0</ele>
        <time>2021-07-23T12:31:36Z</time>
      </trkpt>
      <trkpt lat="43.4632930" lon="-7.3113300">
        <ele>196.0</ele>
        <time>2021-07-23T12:31:37Z</time>
      </trkpt>
      <trkpt lat="43.4632540" lon="-7.3113730">
        <ele>196.0</ele>
        <time>2021-07-23T12:31:40Z</time>
      </trkpt>
      <trkpt lat="43.4632140" lon="-7.3114100">
        <ele>196.0</ele>
        <time>2021-07-23T12:31:43Z</time>
      </trkpt>
      <trkpt lat="43.4631270" lon="-7.3115170">
        <ele>196.0</ele>
        <time>2021-07-23T12:31:49Z</time>
      </trkpt>
      <trkpt lat="43.4629980" lon="-7.3116630">
        <ele>196.0</ele>
        <time>2021-07-23T12:31:57Z</time>
      </trkpt>
      <trkpt lat="43.4628980" lon="-7.3117660">
        <ele>196.4</ele>
        <time>2021-07-23T12:32:03Z</time>
      </trkpt>
      <trkpt lat="43.4628830" lon="-7.3117840">
        <ele>196.8</ele>
        <time>2021-07-23T12:32:04Z</time>
      </trkpt>
      <trkpt lat="43.4628680" lon="-7.3118030">
        <ele>197.2</ele>
        <time>2021-07-23T12:32:05Z</time>
      </trkpt>
      <trkpt lat="43.4628530" lon="-7.3118240">
        <ele>197.6</ele>
        <time>2021-07-23T12:32:06Z</time>
      </trkpt>
      <trkpt lat="43.4628390" lon="-7.3118440">
        <ele>198.0</ele>
        <time>2021-07-23T12:32:07Z</time>
      </trkpt>
      <trkpt lat="43.4627610" lon="-7.3119810">
        <ele>198.0</ele>
        <time>2021-07-23T12:32:14Z</time>
      </trkpt>
      <trkpt lat="43.4627130" lon="-7.3120940">
        <ele>198.4</ele>
        <time>2021-07-23T12:32:19Z</time>
      </trkpt>
      <trkpt lat="43.4627060" lon="-7.3121150">
        <ele>198.8</ele>
        <time>2021-07-23T12:32:20Z</time>
      </trkpt>
      <trkpt lat="43.4626980" lon="-7.3121370">
        <ele>199.2</ele>
        <time>2021-07-23T12:32:21Z</time>
      </trkpt>
      <trkpt lat="43.4626880" lon="-7.3121590">
        <ele>199.6</ele>
        <time>2021-07-23T12:32:22Z</time>
      </trkpt>
      <trkpt lat="43.4626780" lon="-7.3121860">
        <ele>200.0</ele>
        <time>2021-07-23T12:32:23Z</time>
      </trkpt>
      <trkpt lat="43.4626470" lon="-7.3122530">
        <ele>200.0</ele>
        <time>2021-07-23T12:32:26Z</time>
      </trkpt>
      <trkpt lat="43.4626350" lon="-7.3122700">
        <ele>200.0</ele>
        <time>2021-07-23T12:32:27Z</time>
      </trkpt>
      <trkpt lat="43.4625600" lon="-7.3124060">
        <ele>200.4</ele>
        <time>2021-07-23T12:32:34Z</time>
      </trkpt>
      <trkpt lat="43.4625400" lon="-7.3124340">
        <ele>200.8</ele>
        <time>2021-07-23T12:32:35Z</time>
      </trkpt>
      <trkpt lat="43.4625230" lon="-7.3124590">
        <ele>201.4</ele>
        <time>2021-07-23T12:32:36Z</time>
      </trkpt>
      <trkpt lat="43.4625060" lon="-7.3124870">
        <ele>201.8</ele>
        <time>2021-07-23T12:32:37Z</time>
      </trkpt>
      <trkpt lat="43.4624900" lon="-7.3125150">
        <ele>202.2</ele>
        <time>2021-07-23T12:32:38Z</time>
      </trkpt>
      <trkpt lat="43.4624200" lon="-7.3126470">
        <ele>202.2</ele>
        <time>2021-07-23T12:32:43Z</time>
      </trkpt>
      <trkpt lat="43.4623250" lon="-7.3127730">
        <ele>202.2</ele>
        <time>2021-07-23T12:32:49Z</time>
      </trkpt>
      <trkpt lat="43.4622600" lon="-7.3128580">
        <ele>202.6</ele>
        <time>2021-07-23T12:32:53Z</time>
      </trkpt>
      <trkpt lat="43.4622440" lon="-7.3128800">
        <ele>203.0</ele>
        <time>2021-07-23T12:32:54Z</time>
      </trkpt>
      <trkpt lat="43.4622290" lon="-7.3128990">
        <ele>203.4</ele>
        <time>2021-07-23T12:32:55Z</time>
      </trkpt>
      <trkpt lat="43.4622140" lon="-7.3129160">
        <ele>203.8</ele>
        <time>2021-07-23T12:32:56Z</time>
      </trkpt>
      <trkpt lat="43.4622030" lon="-7.3129360">
        <ele>204.2</ele>
        <time>2021-07-23T12:32:57Z</time>
      </trkpt>
      <trkpt lat="43.4620880" lon="-7.3130750">
        <ele>204.2</ele>
        <time>2021-07-23T12:33:04Z</time>
      </trkpt>
      <trkpt lat="43.4620250" lon="-7.3131490">
        <ele>205.0</ele>
        <time>2021-07-23T12:33:08Z</time>
      </trkpt>
      <trkpt lat="43.4620010" lon="-7.3131720">
        <ele>205.4</ele>
        <time>2021-07-23T12:33:09Z</time>
      </trkpt>
      <trkpt lat="43.4619850" lon="-7.3131860">
        <ele>205.8</ele>
        <time>2021-07-23T12:33:10Z</time>
      </trkpt>
      <trkpt lat="43.4619690" lon="-7.3132080">
        <ele>206.2</ele>
        <time>2021-07-23T12:33:11Z</time>
      </trkpt>
      <trkpt lat="43.4618900" lon="-7.3133310">
        <ele>206.2</ele>
        <time>2021-07-23T12:33:16Z</time>
      </trkpt>
      <trkpt lat="43.4618040" lon="-7.3134880">
        <ele>206.2</ele>
        <time>2021-07-23T12:33:22Z</time>
      </trkpt>
      <trkpt lat="43.4617940" lon="-7.3135100">
        <ele>206.6</ele>
        <time>2021-07-23T12:33:23Z</time>
      </trkpt>
      <trkpt lat="43.4617820" lon="-7.3135340">
        <ele>207.2</ele>
        <time>2021-07-23T12:33:24Z</time>
      </trkpt>
      <trkpt lat="43.4617680" lon="-7.3135540">
        <ele>207.6</ele>
        <time>2021-07-23T12:33:25Z</time>
      </trkpt>
      <trkpt lat="43.4617590" lon="-7.3135770">
        <ele>208.0</ele>
        <time>2021-07-23T12:33:26Z</time>
      </trkpt>
      <trkpt lat="43.4617510" lon="-7.3136040">
        <ele>208.4</ele>
        <time>2021-07-23T12:33:27Z</time>
      </trkpt>
      <trkpt lat="43.4617380" lon="-7.3136310">
        <ele>208.4</ele>
        <time>2021-07-23T12:33:28Z</time>
      </trkpt>
      <trkpt lat="43.4616440" lon="-7.3137770">
        <ele>208.4</ele>
        <time>2021-07-23T12:33:34Z</time>
      </trkpt>
      <trkpt lat="43.4615170" lon="-7.3139290">
        <ele>208.4</ele>
        <time>2021-07-23T12:33:40Z</time>
      </trkpt>
      <trkpt lat="43.4613570" lon="-7.3141100">
        <ele>208.8</ele>
        <time>2021-07-23T12:33:47Z</time>
      </trkpt>
      <trkpt lat="43.4613320" lon="-7.3141310">
        <ele>209.2</ele>
        <time>2021-07-23T12:33:48Z</time>
      </trkpt>
      <trkpt lat="43.4613080" lon="-7.3141580">
        <ele>209.6</ele>
        <time>2021-07-23T12:33:49Z</time>
      </trkpt>
      <trkpt lat="43.4612860" lon="-7.3141760">
        <ele>210.0</ele>
        <time>2021-07-23T12:33:50Z</time>
      </trkpt>
      <trkpt lat="43.4612640" lon="-7.3141950">
        <ele>210.4</ele>
        <time>2021-07-23T12:33:51Z</time>
      </trkpt>
      <trkpt lat="43.4612090" lon="-7.3142400">
        <ele>210.4</ele>
        <time>2021-07-23T12:33:53Z</time>
      </trkpt>
      <trkpt lat="43.4610320" lon="-7.3143930">
        <ele>210.4</ele>
        <time>2021-07-23T12:33:59Z</time>
      </trkpt>
      <trkpt lat="43.4608410" lon="-7.3145490">
        <ele>210.4</ele>
        <time>2021-07-23T12:34:06Z</time>
      </trkpt>
      <trkpt lat="43.4607450" lon="-7.3146390">
        <ele>210.8</ele>
        <time>2021-07-23T12:34:11Z</time>
      </trkpt>
      <trkpt lat="43.4607280" lon="-7.3146500">
        <ele>211.2</ele>
        <time>2021-07-23T12:34:12Z</time>
      </trkpt>
      <trkpt lat="43.4607150" lon="-7.3146620">
        <ele>211.6</ele>
        <time>2021-07-23T12:34:13Z</time>
      </trkpt>
      <trkpt lat="43.4606970" lon="-7.3146690">
        <ele>212.0</ele>
        <time>2021-07-23T12:34:14Z</time>
      </trkpt>
      <trkpt lat="43.4606810" lon="-7.3146810">
        <ele>212.4</ele>
        <time>2021-07-23T12:34:15Z</time>
      </trkpt>
      <trkpt lat="43.4606370" lon="-7.3147010">
        <ele>212.4</ele>
        <time>2021-07-23T12:34:18Z</time>
      </trkpt>
      <trkpt lat="43.4605870" lon="-7.3147440">
        <ele>212.8</ele>
        <time>2021-07-23T12:34:22Z</time>
      </trkpt>
      <trkpt lat="43.4605720" lon="-7.3147580">
        <ele>213.4</ele>
        <time>2021-07-23T12:34:23Z</time>
      </trkpt>
      <trkpt lat="43.4605590" lon="-7.3147700">
        <ele>213.8</ele>
        <time>2021-07-23T12:34:24Z</time>
      </trkpt>
      <trkpt lat="43.4605420" lon="-7.3147820">
        <ele>214.2</ele>
        <time>2021-07-23T12:34:25Z</time>
      </trkpt>
      <trkpt lat="43.4605260" lon="-7.3147910">
        <ele>214.6</ele>
        <time>2021-07-23T12:34:26Z</time>
      </trkpt>
      <trkpt lat="43.4605140" lon="-7.3148120">
        <ele>214.6</ele>
        <time>2021-07-23T12:34:27Z</time>
      </trkpt>
      <trkpt lat="43.4604790" lon="-7.3148500">
        <ele>214.6</ele>
        <time>2021-07-23T12:34:30Z</time>
      </trkpt>
      <trkpt lat="43.4604550" lon="-7.3148780">
        <ele>215.0</ele>
        <time>2021-07-23T12:34:32Z</time>
      </trkpt>
      <trkpt lat="43.4604420" lon="-7.3148920">
        <ele>215.4</ele>
        <time>2021-07-23T12:34:33Z</time>
      </trkpt>
      <trkpt lat="43.4604260" lon="-7.3149070">
        <ele>215.8</ele>
        <time>2021-07-23T12:34:34Z</time>
      </trkpt>
      <trkpt lat="43.4604110" lon="-7.3149140">
        <ele>216.2</ele>
        <time>2021-07-23T12:34:35Z</time>
      </trkpt>
      <trkpt lat="43.4603960" lon="-7.3149250">
        <ele>216.6</ele>
        <time>2021-07-23T12:34:36Z</time>
      </trkpt>
      <trkpt lat="43.4603120" lon="-7.3150180">
        <ele>216.6</ele>
        <time>2021-07-23T12:34:43Z</time>
      </trkpt>
      <trkpt lat="43.4602710" lon="-7.3150620">
        <ele>217.0</ele>
        <time>2021-07-23T12:34:46Z</time>
      </trkpt>
      <trkpt lat="43.4602560" lon="-7.3150790">
        <ele>217.8</ele>
        <time>2021-07-23T12:34:47Z</time>
      </trkpt>
      <trkpt lat="43.4602380" lon="-7.3150920">
        <ele>218.4</ele>
        <time>2021-07-23T12:34:48Z</time>
      </trkpt>
      <trkpt lat="43.4602260" lon="-7.3151090">
        <ele>218.8</ele>
        <time>2021-07-23T12:34:49Z</time>
      </trkpt>
      <trkpt lat="43.4602150" lon="-7.3151260">
        <ele>218.8</ele>
        <time>2021-07-23T12:34:50Z</time>
      </trkpt>
      <trkpt lat="43.4601240" lon="-7.3152260">
        <ele>218.8</ele>
        <time>2021-07-23T12:34:57Z</time>
      </trkpt>
      <trkpt lat="43.4600980" lon="-7.3152430">
        <ele>219.2</ele>
        <time>2021-07-23T12:34:59Z</time>
      </trkpt>
      <trkpt lat="43.4600840" lon="-7.3152560">
        <ele>219.6</ele>
        <time>2021-07-23T12:35:00Z</time>
      </trkpt>
      <trkpt lat="43.4600720" lon="-7.3152690">
        <ele>220.0</ele>
        <time>2021-07-23T12:35:01Z</time>
      </trkpt>
      <trkpt lat="43.4600610" lon="-7.3152820">
        <ele>220.4</ele>
        <time>2021-07-23T12:35:02Z</time>
      </trkpt>
      <trkpt lat="43.4600500" lon="-7.3152910">
        <ele>220.8</ele>
        <time>2021-07-23T12:35:03Z</time>
      </trkpt>
      <trkpt lat="43.4600370" lon="-7.3153030">
        <ele>220.8</ele>
        <time>2021-07-23T12:35:04Z</time>
      </trkpt>
      <trkpt lat="43.4599820" lon="-7.3153280">
        <ele>221.2</ele>
        <time>2021-07-23T12:35:08Z</time>
      </trkpt>
      <trkpt lat="43.4599690" lon="-7.3153330">
        <ele>221.6</ele>
        <time>2021-07-23T12:35:09Z</time>
      </trkpt>
      <trkpt lat="43.4599570" lon="-7.3153440">
        <ele>222.0</ele>
        <time>2021-07-23T12:35:10Z</time>
      </trkpt>
      <trkpt lat="43.4599420" lon="-7.3153530">
        <ele>222.4</ele>
        <time>2021-07-23T12:35:11Z</time>
      </trkpt>
      <trkpt lat="43.4599260" lon="-7.3153620">
        <ele>222.8</ele>
        <time>2021-07-23T12:35:12Z</time>
      </trkpt>
      <trkpt lat="43.4598730" lon="-7.3153900">
        <ele>223.4</ele>
        <time>2021-07-23T12:35:16Z</time>
      </trkpt>
      <trkpt lat="43.4598560" lon="-7.3153980">
        <ele>223.8</ele>
        <time>2021-07-23T12:35:17Z</time>
      </trkpt>
      <trkpt lat="43.4598410" lon="-7.3154080">
        <ele>224.2</ele>
        <time>2021-07-23T12:35:18Z</time>
      </trkpt>
      <trkpt lat="43.4598250" lon="-7.3154160">
        <ele>224.6</ele>
        <time>2021-07-23T12:35:19Z</time>
      </trkpt>
      <trkpt lat="43.4598110" lon="-7.3154230">
        <ele>225.0</ele>
        <time>2021-07-23T12:35:20Z</time>
      </trkpt>
      <trkpt lat="43.4597560" lon="-7.3154660">
        <ele>225.6</ele>
        <time>2021-07-23T12:35:24Z</time>
      </trkpt>
      <trkpt lat="43.4597460" lon="-7.3154700">
        <ele>226.0</ele>
        <time>2021-07-23T12:35:25Z</time>
      </trkpt>
      <trkpt lat="43.4597360" lon="-7.3154780">
        <ele>226.4</ele>
        <time>2021-07-23T12:35:26Z</time>
      </trkpt>
      <trkpt lat="43.4597240" lon="-7.3154890">
        <ele>226.8</ele>
        <time>2021-07-23T12:35:27Z</time>
      </trkpt>
      <trkpt lat="43.4597100" lon="-7.3154960">
        <ele>227.2</ele>
        <time>2021-07-23T12:35:28Z</time>
      </trkpt>
      <trkpt lat="43.4596220" lon="-7.3155740">
        <ele>227.2</ele>
        <time>2021-07-23T12:35:34Z</time>
      </trkpt>
      <trkpt lat="43.4595940" lon="-7.3156000">
        <ele>227.6</ele>
        <time>2021-07-23T12:35:36Z</time>
      </trkpt>
      <trkpt lat="43.4595800" lon="-7.3156070">
        <ele>228.0</ele>
        <time>2021-07-23T12:35:37Z</time>
      </trkpt>
      <trkpt lat="43.4595650" lon="-7.3156160">
        <ele>228.4</ele>
        <time>2021-07-23T12:35:38Z</time>
      </trkpt>
      <trkpt lat="43.4595460" lon="-7.3156300">
        <ele>228.8</ele>
        <time>2021-07-23T12:35:39Z</time>
      </trkpt>
      <trkpt lat="43.4595310" lon="-7.3156390">
        <ele>229.2</ele>
        <time>2021-07-23T12:35:40Z</time>
      </trkpt>
      <trkpt lat="43.4595180" lon="-7.3156580">
        <ele>229.2</ele>
        <time>2021-07-23T12:35:41Z</time>
      </trkpt>
      <trkpt lat="43.4594540" lon="-7.3157220">
        <ele>229.2</ele>
        <time>2021-07-23T12:35:46Z</time>
      </trkpt>
      <trkpt lat="43.4593850" lon="-7.3157640">
        <ele>229.8</ele>
        <time>2021-07-23T12:35:51Z</time>
      </trkpt>
      <trkpt lat="43.4593730" lon="-7.3157740">
        <ele>230.2</ele>
        <time>2021-07-23T12:35:52Z</time>
      </trkpt>
      <trkpt lat="43.4593590" lon="-7.3157890">
        <ele>230.6</ele>
        <time>2021-07-23T12:35:53Z</time>
      </trkpt>
      <trkpt lat="43.4593480" lon="-7.3157930">
        <ele>231.0</ele>
        <time>2021-07-23T12:35:54Z</time>
      </trkpt>
      <trkpt lat="43.4593380" lon="-7.3157970">
        <ele>231.4</ele>
        <time>2021-07-23T12:35:55Z</time>
      </trkpt>
      <trkpt lat="43.4593040" lon="-7.3158260">
        <ele>231.4</ele>
        <time>2021-07-23T12:35:57Z</time>
      </trkpt>
      <trkpt lat="43.4591650" lon="-7.3158920">
        <ele>231.4</ele>
        <time>2021-07-23T12:36:03Z</time>
      </trkpt>
      <trkpt lat="43.4590430" lon="-7.3159630">
        <ele>231.4</ele>
        <time>2021-07-23T12:36:09Z</time>
      </trkpt>
      <trkpt lat="43.4589800" lon="-7.3160290">
        <ele>231.8</ele>
        <time>2021-07-23T12:36:14Z</time>
      </trkpt>
      <trkpt lat="43.4589710" lon="-7.3160390">
        <ele>232.2</ele>
        <time>2021-07-23T12:36:15Z</time>
      </trkpt>
      <trkpt lat="43.4589580" lon="-7.3160480">
        <ele>232.6</ele>
        <time>2021-07-23T12:36:16Z</time>
      </trkpt>
      <trkpt lat="43.4589460" lon="-7.3160620">
        <ele>233.0</ele>
        <time>2021-07-23T12:36:17Z</time>
      </trkpt>
      <trkpt lat="43.4589320" lon="-7.3160730">
        <ele>233.4</ele>
        <time>2021-07-23T12:36:18Z</time>
      </trkpt>
      <trkpt lat="43.4588610" lon="-7.3161620">
        <ele>233.4</ele>
        <time>2021-07-23T12:36:24Z</time>
      </trkpt>
      <trkpt lat="43.4588450" lon="-7.3161770">
        <ele>233.8</ele>
        <time>2021-07-23T12:36:25Z</time>
      </trkpt>
      <trkpt lat="43.4588290" lon="-7.3161960">
        <ele>234.8</ele>
        <time>2021-07-23T12:36:26Z</time>
      </trkpt>
      <trkpt lat="43.4588100" lon="-7.3162070">
        <ele>235.2</ele>
        <time>2021-07-23T12:36:27Z</time>
      </trkpt>
      <trkpt lat="43.4587980" lon="-7.3162220">
        <ele>235.6</ele>
        <time>2021-07-23T12:36:28Z</time>
      </trkpt>
      <trkpt lat="43.4587690" lon="-7.3162430">
        <ele>235.6</ele>
        <time>2021-07-23T12:36:30Z</time>
      </trkpt>
      <trkpt lat="43.4586900" lon="-7.3163250">
        <ele>235.6</ele>
        <time>2021-07-23T12:36:36Z</time>
      </trkpt>
      <trkpt lat="43.4586490" lon="-7.3163770">
        <ele>236.0</ele>
        <time>2021-07-23T12:36:40Z</time>
      </trkpt>
      <trkpt lat="43.4586390" lon="-7.3163860">
        <ele>236.4</ele>
        <time>2021-07-23T12:36:41Z</time>
      </trkpt>
      <trkpt lat="43.4586300" lon="-7.3164000">
        <ele>236.8</ele>
        <time>2021-07-23T12:36:42Z</time>
      </trkpt>
      <trkpt lat="43.4586220" lon="-7.3164120">
        <ele>237.2</ele>
        <time>2021-07-23T12:36:43Z</time>
      </trkpt>
      <trkpt lat="43.4586120" lon="-7.3164220">
        <ele>237.6</ele>
        <time>2021-07-23T12:36:44Z</time>
      </trkpt>
      <trkpt lat="43.4585500" lon="-7.3165030">
        <ele>237.6</ele>
        <time>2021-07-23T12:36:50Z</time>
      </trkpt>
      <trkpt lat="43.4585350" lon="-7.3165120">
        <ele>238.0</ele>
        <time>2021-07-23T12:36:51Z</time>
      </trkpt>
      <trkpt lat="43.4585250" lon="-7.3165260">
        <ele>238.4</ele>
        <time>2021-07-23T12:36:52Z</time>
      </trkpt>
      <trkpt lat="43.4585130" lon="-7.3165370">
        <ele>239.0</ele>
        <time>2021-07-23T12:36:53Z</time>
      </trkpt>
      <trkpt lat="43.4585040" lon="-7.3165480">
        <ele>239.4</ele>
        <time>2021-07-23T12:36:54Z</time>
      </trkpt>
      <trkpt lat="43.4584930" lon="-7.3165560">
        <ele>239.8</ele>
        <time>2021-07-23T12:36:55Z</time>
      </trkpt>
      <trkpt lat="43.4584840" lon="-7.3165730">
        <ele>239.8</ele>
        <time>2021-07-23T12:36:56Z</time>
      </trkpt>
      <trkpt lat="43.4584160" lon="-7.3166590">
        <ele>240.2</ele>
        <time>2021-07-23T12:37:02Z</time>
      </trkpt>
      <trkpt lat="43.4584080" lon="-7.3166710">
        <ele>240.6</ele>
        <time>2021-07-23T12:37:03Z</time>
      </trkpt>
      <trkpt lat="43.4583960" lon="-7.3166850">
        <ele>241.0</ele>
        <time>2021-07-23T12:37:04Z</time>
      </trkpt>
      <trkpt lat="43.4583840" lon="-7.3167050">
        <ele>241.4</ele>
        <time>2021-07-23T12:37:05Z</time>
      </trkpt>
      <trkpt lat="43.4583720" lon="-7.3167160">
        <ele>241.8</ele>
        <time>2021-07-23T12:37:06Z</time>
      </trkpt>
      <trkpt lat="43.4583550" lon="-7.3167240">
        <ele>241.8</ele>
        <time>2021-07-23T12:37:07Z</time>
      </trkpt>
      <trkpt lat="43.4583120" lon="-7.3167900">
        <ele>241.8</ele>
        <time>2021-07-23T12:37:11Z</time>
      </trkpt>
      <trkpt lat="43.4582600" lon="-7.3168430">
        <ele>242.2</ele>
        <time>2021-07-23T12:37:15Z</time>
      </trkpt>
      <trkpt lat="43.4582500" lon="-7.3168550">
        <ele>243.2</ele>
        <time>2021-07-23T12:37:16Z</time>
      </trkpt>
      <trkpt lat="43.4582400" lon="-7.3168580">
        <ele>243.6</ele>
        <time>2021-07-23T12:37:17Z</time>
      </trkpt>
      <trkpt lat="43.4582260" lon="-7.3168640">
        <ele>244.0</ele>
        <time>2021-07-23T12:37:18Z</time>
      </trkpt>
      <trkpt lat="43.4581360" lon="-7.3168870">
        <ele>244.0</ele>
        <time>2021-07-23T12:37:24Z</time>
      </trkpt>
      <trkpt lat="43.4579820" lon="-7.3169860">
        <ele>244.0</ele>
        <time>2021-07-23T12:37:30Z</time>
      </trkpt>
      <trkpt lat="43.4579050" lon="-7.3170510">
        <ele>244.0</ele>
        <time>2021-07-23T12:37:34Z</time>
      </trkpt>
      <trkpt lat="43.4578390" lon="-7.3171070">
        <ele>244.0</ele>
        <time>2021-07-23T12:37:37Z</time>
      </trkpt>
      <trkpt lat="43.4577390" lon="-7.3171820">
        <ele>244.0</ele>
        <time>2021-07-23T12:37:41Z</time>
      </trkpt>
      <trkpt lat="43.4576310" lon="-7.3172930">
        <ele>244.0</ele>
        <time>2021-07-23T12:37:45Z</time>
      </trkpt>
      <trkpt lat="43.4575490" lon="-7.3173490">
        <ele>244.0</ele>
        <time>2021-07-23T12:37:47Z</time>
      </trkpt>
      <trkpt lat="43.4574170" lon="-7.3174370">
        <ele>244.0</ele>
        <time>2021-07-23T12:37:50Z</time>
      </trkpt>
      <trkpt lat="43.4572980" lon="-7.3175310">
        <ele>244.0</ele>
        <time>2021-07-23T12:37:53Z</time>
      </trkpt>
      <trkpt lat="43.4572170" lon="-7.3175930">
        <ele>244.0</ele>
        <time>2021-07-23T12:37:55Z</time>
      </trkpt>
      <trkpt lat="43.4571720" lon="-7.3176260">
        <ele>244.0</ele>
        <time>2021-07-23T12:37:56Z</time>
      </trkpt>
      <trkpt lat="43.4570730" lon="-7.3176950">
        <ele>244.0</ele>
        <time>2021-07-23T12:37:58Z</time>
      </trkpt>
      <trkpt lat="43.4569140" lon="-7.3178320">
        <ele>243.4</ele>
        <time>2021-07-23T12:38:02Z</time>
      </trkpt>
      <trkpt lat="43.4568740" lon="-7.3178620">
        <ele>243.0</ele>
        <time>2021-07-23T12:38:03Z</time>
      </trkpt>
      <trkpt lat="43.4568390" lon="-7.3178970">
        <ele>242.6</ele>
        <time>2021-07-23T12:38:04Z</time>
      </trkpt>
      <trkpt lat="43.4568040" lon="-7.3179340">
        <ele>242.0</ele>
        <time>2021-07-23T12:38:05Z</time>
      </trkpt>
      <trkpt lat="43.4567740" lon="-7.3179740">
        <ele>241.6</ele>
        <time>2021-07-23T12:38:06Z</time>
      </trkpt>
      <trkpt lat="43.4567560" lon="-7.3180190">
        <ele>241.6</ele>
        <time>2021-07-23T12:38:07Z</time>
      </trkpt>
      <trkpt lat="43.4567390" lon="-7.3181670">
        <ele>241.6</ele>
        <time>2021-07-23T12:38:11Z</time>
      </trkpt>
      <trkpt lat="43.4567370" lon="-7.3182000">
        <ele>241.6</ele>
        <time>2021-07-23T12:38:12Z</time>
      </trkpt>
      <trkpt lat="43.4567320" lon="-7.3182300">
        <ele>241.6</ele>
        <time>2021-07-23T12:38:13Z</time>
      </trkpt>
      <trkpt lat="43.4567250" lon="-7.3182900">
        <ele>241.6</ele>
        <time>2021-07-23T12:38:15Z</time>
      </trkpt>
      <trkpt lat="43.4567170" lon="-7.3183540">
        <ele>241.6</ele>
        <time>2021-07-23T12:38:17Z</time>
      </trkpt>
      <trkpt lat="43.4567130" lon="-7.3183830">
        <ele>241.6</ele>
        <time>2021-07-23T12:38:18Z</time>
      </trkpt>
      <trkpt lat="43.4567110" lon="-7.3184810">
        <ele>241.6</ele>
        <time>2021-07-23T12:38:21Z</time>
      </trkpt>
      <trkpt lat="43.4567090" lon="-7.3185750">
        <ele>241.6</ele>
        <time>2021-07-23T12:38:24Z</time>
      </trkpt>
      <trkpt lat="43.4567110" lon="-7.3186300">
        <ele>241.6</ele>
        <time>2021-07-23T12:38:26Z</time>
      </trkpt>
      <trkpt lat="43.4567150" lon="-7.3187190">
        <ele>242.0</ele>
        <time>2021-07-23T12:38:29Z</time>
      </trkpt>
      <trkpt lat="43.4567170" lon="-7.3187450">
        <ele>243.0</ele>
        <time>2021-07-23T12:38:30Z</time>
      </trkpt>
      <trkpt lat="43.4567150" lon="-7.3187700">
        <ele>243.4</ele>
        <time>2021-07-23T12:38:31Z</time>
      </trkpt>
      <trkpt lat="43.4567100" lon="-7.3187950">
        <ele>243.8</ele>
        <time>2021-07-23T12:38:32Z</time>
      </trkpt>
      <trkpt lat="43.4567070" lon="-7.3188170">
        <ele>243.8</ele>
        <time>2021-07-23T12:38:33Z</time>
      </trkpt>
      <trkpt lat="43.4566460" lon="-7.3189780">
        <ele>243.8</ele>
        <time>2021-07-23T12:38:40Z</time>
      </trkpt>
      <trkpt lat="43.4566300" lon="-7.3189960">
        <ele>243.8</ele>
        <time>2021-07-23T12:38:41Z</time>
      </trkpt>
      <trkpt lat="43.4564790" lon="-7.3191240">
        <ele>243.8</ele>
        <time>2021-07-23T12:38:47Z</time>
      </trkpt>
      <trkpt lat="43.4562640" lon="-7.3193870">
        <ele>243.8</ele>
        <time>2021-07-23T12:38:54Z</time>
      </trkpt>
      <trkpt lat="43.4562340" lon="-7.3194300">
        <ele>243.8</ele>
        <time>2021-07-23T12:38:55Z</time>
      </trkpt>
      <trkpt lat="43.4561070" lon="-7.3195860">
        <ele>243.8</ele>
        <time>2021-07-23T12:38:59Z</time>
      </trkpt>
      <trkpt lat="43.4560560" lon="-7.3196530">
        <ele>243.8</ele>
        <time>2021-07-23T12:39:01Z</time>
      </trkpt>
      <trkpt lat="43.4558760" lon="-7.3199320">
        <ele>243.8</ele>
        <time>2021-07-23T12:39:08Z</time>
      </trkpt>
      <trkpt lat="43.4557610" lon="-7.3200870">
        <ele>243.8</ele>
        <time>2021-07-23T12:39:12Z</time>
      </trkpt>
      <trkpt lat="43.4556510" lon="-7.3202150">
        <ele>243.8</ele>
        <time>2021-07-23T12:39:16Z</time>
      </trkpt>
      <trkpt lat="43.4554830" lon="-7.3203960">
        <ele>243.8</ele>
        <time>2021-07-23T12:39:22Z</time>
      </trkpt>
      <trkpt lat="43.4553150" lon="-7.3205750">
        <ele>243.8</ele>
        <time>2021-07-23T12:39:28Z</time>
      </trkpt>
      <trkpt lat="43.4552890" lon="-7.3206140">
        <ele>243.8</ele>
        <time>2021-07-23T12:39:29Z</time>
      </trkpt>
      <trkpt lat="43.4552460" lon="-7.3206690">
        <ele>244.2</ele>
        <time>2021-07-23T12:39:31Z</time>
      </trkpt>
      <trkpt lat="43.4552280" lon="-7.3206850">
        <ele>244.6</ele>
        <time>2021-07-23T12:39:32Z</time>
      </trkpt>
      <trkpt lat="43.4552090" lon="-7.3207030">
        <ele>245.0</ele>
        <time>2021-07-23T12:39:33Z</time>
      </trkpt>
      <trkpt lat="43.4551890" lon="-7.3207120">
        <ele>245.4</ele>
        <time>2021-07-23T12:39:34Z</time>
      </trkpt>
      <trkpt lat="43.4551690" lon="-7.3207230">
        <ele>245.8</ele>
        <time>2021-07-23T12:39:35Z</time>
      </trkpt>
      <trkpt lat="43.4550240" lon="-7.3207570">
        <ele>245.8</ele>
        <time>2021-07-23T12:39:41Z</time>
      </trkpt>
      <trkpt lat="43.4547920" lon="-7.3207860">
        <ele>245.8</ele>
        <time>2021-07-23T12:39:47Z</time>
      </trkpt>
      <trkpt lat="43.4545920" lon="-7.3208360">
        <ele>245.4</ele>
        <time>2021-07-23T12:39:51Z</time>
      </trkpt>
      <trkpt lat="43.4545370" lon="-7.3208510">
        <ele>245.0</ele>
        <time>2021-07-23T12:39:52Z</time>
      </trkpt>
      <trkpt lat="43.4544810" lon="-7.3208690">
        <ele>244.6</ele>
        <time>2021-07-23T12:39:53Z</time>
      </trkpt>
      <trkpt lat="43.4544270" lon="-7.3208890">
        <ele>244.2</ele>
        <time>2021-07-23T12:39:54Z</time>
      </trkpt>
      <trkpt lat="43.4543710" lon="-7.3209020">
        <ele>243.6</ele>
        <time>2021-07-23T12:39:55Z</time>
      </trkpt>
      <trkpt lat="43.4541400" lon="-7.3210050">
        <ele>243.2</ele>
        <time>2021-07-23T12:39:59Z</time>
      </trkpt>
      <trkpt lat="43.4540770" lon="-7.3210370">
        <ele>242.8</ele>
        <time>2021-07-23T12:40:00Z</time>
      </trkpt>
      <trkpt lat="43.4540170" lon="-7.3210680">
        <ele>242.4</ele>
        <time>2021-07-23T12:40:01Z</time>
      </trkpt>
      <trkpt lat="43.4539560" lon="-7.3211010">
        <ele>241.8</ele>
        <time>2021-07-23T12:40:02Z</time>
      </trkpt>
      <trkpt lat="43.4538950" lon="-7.3211390">
        <ele>241.2</ele>
        <time>2021-07-23T12:40:03Z</time>
      </trkpt>
      <trkpt lat="43.4538360" lon="-7.3211780">
        <ele>240.6</ele>
        <time>2021-07-23T12:40:04Z</time>
      </trkpt>
      <trkpt lat="43.4537760" lon="-7.3212220">
        <ele>240.0</ele>
        <time>2021-07-23T12:40:05Z</time>
      </trkpt>
      <trkpt lat="43.4537150" lon="-7.3212660">
        <ele>239.4</ele>
        <time>2021-07-23T12:40:06Z</time>
      </trkpt>
      <trkpt lat="43.4536570" lon="-7.3213090">
        <ele>238.6</ele>
        <time>2021-07-23T12:40:07Z</time>
      </trkpt>
      <trkpt lat="43.4535940" lon="-7.3213560">
        <ele>238.0</ele>
        <time>2021-07-23T12:40:08Z</time>
      </trkpt>
      <trkpt lat="43.4535400" lon="-7.3214010">
        <ele>237.0</ele>
        <time>2021-07-23T12:40:09Z</time>
      </trkpt>
      <trkpt lat="43.4534870" lon="-7.3214440">
        <ele>236.4</ele>
        <time>2021-07-23T12:40:10Z</time>
      </trkpt>
      <trkpt lat="43.4534410" lon="-7.3214970">
        <ele>235.8</ele>
        <time>2021-07-23T12:40:11Z</time>
      </trkpt>
      <trkpt lat="43.4533940" lon="-7.3215490">
        <ele>235.0</ele>
        <time>2021-07-23T12:40:12Z</time>
      </trkpt>
      <trkpt lat="43.4533500" lon="-7.3216110">
        <ele>234.4</ele>
        <time>2021-07-23T12:40:13Z</time>
      </trkpt>
      <trkpt lat="43.4533150" lon="-7.3216680">
        <ele>233.8</ele>
        <time>2021-07-23T12:40:14Z</time>
      </trkpt>
      <trkpt lat="43.4532710" lon="-7.3217210">
        <ele>233.2</ele>
        <time>2021-07-23T12:40:15Z</time>
      </trkpt>
      <trkpt lat="43.4531750" lon="-7.3218170">
        <ele>233.2</ele>
        <time>2021-07-23T12:40:17Z</time>
      </trkpt>
      <trkpt lat="43.4530230" lon="-7.3219640">
        <ele>232.6</ele>
        <time>2021-07-23T12:40:20Z</time>
      </trkpt>
      <trkpt lat="43.4529790" lon="-7.3220210">
        <ele>232.0</ele>
        <time>2021-07-23T12:40:21Z</time>
      </trkpt>
      <trkpt lat="43.4529340" lon="-7.3220730">
        <ele>231.6</ele>
        <time>2021-07-23T12:40:22Z</time>
      </trkpt>
      <trkpt lat="43.4528880" lon="-7.3221270">
        <ele>231.0</ele>
        <time>2021-07-23T12:40:23Z</time>
      </trkpt>
      <trkpt lat="43.4528440" lon="-7.3221810">
        <ele>230.6</ele>
        <time>2021-07-23T12:40:24Z</time>
      </trkpt>
      <trkpt lat="43.4527610" lon="-7.3223020">
        <ele>230.2</ele>
        <time>2021-07-23T12:40:26Z</time>
      </trkpt>
      <trkpt lat="43.4527220" lon="-7.3223580">
        <ele>229.8</ele>
        <time>2021-07-23T12:40:27Z</time>
      </trkpt>
      <trkpt lat="43.4526870" lon="-7.3224190">
        <ele>229.4</ele>
        <time>2021-07-23T12:40:28Z</time>
      </trkpt>
      <trkpt lat="43.4526540" lon="-7.3224850">
        <ele>229.0</ele>
        <time>2021-07-23T12:40:29Z</time>
      </trkpt>
      <trkpt lat="43.4526200" lon="-7.3225620">
        <ele>228.6</ele>
        <time>2021-07-23T12:40:30Z</time>
      </trkpt>
      <trkpt lat="43.4525800" lon="-7.3226550">
        <ele>228.6</ele>
        <time>2021-07-23T12:40:31Z</time>
      </trkpt>
      <trkpt lat="43.4525360" lon="-7.3227390">
        <ele>228.2</ele>
        <time>2021-07-23T12:40:32Z</time>
      </trkpt>
      <trkpt lat="43.4524900" lon="-7.3228250">
        <ele>227.0</ele>
        <time>2021-07-23T12:40:33Z</time>
      </trkpt>
      <trkpt lat="43.4524460" lon="-7.3229080">
        <ele>226.4</ele>
        <time>2021-07-23T12:40:34Z</time>
      </trkpt>
      <trkpt lat="43.4524050" lon="-7.3229850">
        <ele>225.6</ele>
        <time>2021-07-23T12:40:35Z</time>
      </trkpt>
      <trkpt lat="43.4523690" lon="-7.3230630">
        <ele>225.0</ele>
        <time>2021-07-23T12:40:36Z</time>
      </trkpt>
      <trkpt lat="43.4523370" lon="-7.3231250">
        <ele>224.4</ele>
        <time>2021-07-23T12:40:37Z</time>
      </trkpt>
      <trkpt lat="43.4523020" lon="-7.3231940">
        <ele>223.8</ele>
        <time>2021-07-23T12:40:38Z</time>
      </trkpt>
      <trkpt lat="43.4522660" lon="-7.3232620">
        <ele>223.4</ele>
        <time>2021-07-23T12:40:39Z</time>
      </trkpt>
      <trkpt lat="43.4522280" lon="-7.3233330">
        <ele>223.0</ele>
        <time>2021-07-23T12:40:40Z</time>
      </trkpt>
      <trkpt lat="43.4521900" lon="-7.3234100">
        <ele>222.6</ele>
        <time>2021-07-23T12:40:41Z</time>
      </trkpt>
      <trkpt lat="43.4521590" lon="-7.3234970">
        <ele>222.0</ele>
        <time>2021-07-23T12:40:42Z</time>
      </trkpt>
      <trkpt lat="43.4521310" lon="-7.3235850">
        <ele>221.4</ele>
        <time>2021-07-23T12:40:43Z</time>
      </trkpt>
      <trkpt lat="43.4521100" lon="-7.3236800">
        <ele>220.8</ele>
        <time>2021-07-23T12:40:44Z</time>
      </trkpt>
      <trkpt lat="43.4520880" lon="-7.3237730">
        <ele>220.2</ele>
        <time>2021-07-23T12:40:45Z</time>
      </trkpt>
      <trkpt lat="43.4520640" lon="-7.3238660">
        <ele>219.6</ele>
        <time>2021-07-23T12:40:46Z</time>
      </trkpt>
      <trkpt lat="43.4520430" lon="-7.3239480">
        <ele>218.8</ele>
        <time>2021-07-23T12:40:47Z</time>
      </trkpt>
      <trkpt lat="43.4520210" lon="-7.3240310">
        <ele>218.2</ele>
        <time>2021-07-23T12:40:48Z</time>
      </trkpt>
      <trkpt lat="43.4520000" lon="-7.3241180">
        <ele>217.6</ele>
        <time>2021-07-23T12:40:49Z</time>
      </trkpt>
      <trkpt lat="43.4519820" lon="-7.3242040">
        <ele>217.0</ele>
        <time>2021-07-23T12:40:50Z</time>
      </trkpt>
      <trkpt lat="43.4519640" lon="-7.3242900">
        <ele>216.4</ele>
        <time>2021-07-23T12:40:51Z</time>
      </trkpt>
      <trkpt lat="43.4519450" lon="-7.3243750">
        <ele>215.8</ele>
        <time>2021-07-23T12:40:52Z</time>
      </trkpt>
      <trkpt lat="43.4519280" lon="-7.3244660">
        <ele>215.2</ele>
        <time>2021-07-23T12:40:53Z</time>
      </trkpt>
      <trkpt lat="43.4518580" lon="-7.3249090">
        <ele>215.2</ele>
        <time>2021-07-23T12:40:58Z</time>
      </trkpt>
      <trkpt lat="43.4518270" lon="-7.3251610">
        <ele>214.8</ele>
        <time>2021-07-23T12:41:01Z</time>
      </trkpt>
      <trkpt lat="43.4518160" lon="-7.3252420">
        <ele>214.2</ele>
        <time>2021-07-23T12:41:02Z</time>
      </trkpt>
      <trkpt lat="43.4518040" lon="-7.3253230">
        <ele>213.6</ele>
        <time>2021-07-23T12:41:03Z</time>
      </trkpt>
      <trkpt lat="43.4517920" lon="-7.3254020">
        <ele>213.2</ele>
        <time>2021-07-23T12:41:04Z</time>
      </trkpt>
      <trkpt lat="43.4517810" lon="-7.3254830">
        <ele>212.6</ele>
        <time>2021-07-23T12:41:05Z</time>
      </trkpt>
      <trkpt lat="43.4517540" lon="-7.3256480">
        <ele>212.2</ele>
        <time>2021-07-23T12:41:07Z</time>
      </trkpt>
      <trkpt lat="43.4517410" lon="-7.3257340">
        <ele>211.8</ele>
        <time>2021-07-23T12:41:08Z</time>
      </trkpt>
      <trkpt lat="43.4517300" lon="-7.3258150">
        <ele>211.4</ele>
        <time>2021-07-23T12:41:09Z</time>
      </trkpt>
      <trkpt lat="43.4517180" lon="-7.3258950">
        <ele>210.6</ele>
        <time>2021-07-23T12:41:10Z</time>
      </trkpt>
      <trkpt lat="43.4517090" lon="-7.3259720">
        <ele>210.0</ele>
        <time>2021-07-23T12:41:11Z</time>
      </trkpt>
      <trkpt lat="43.4516980" lon="-7.3260490">
        <ele>209.4</ele>
        <time>2021-07-23T12:41:12Z</time>
      </trkpt>
      <trkpt lat="43.4516880" lon="-7.3261260">
        <ele>208.8</ele>
        <time>2021-07-23T12:41:13Z</time>
      </trkpt>
      <trkpt lat="43.4516760" lon="-7.3262040">
        <ele>208.2</ele>
        <time>2021-07-23T12:41:14Z</time>
      </trkpt>
      <trkpt lat="43.4516140" lon="-7.3265130">
        <ele>207.6</ele>
        <time>2021-07-23T12:41:18Z</time>
      </trkpt>
      <trkpt lat="43.4515980" lon="-7.3265860">
        <ele>207.2</ele>
        <time>2021-07-23T12:41:19Z</time>
      </trkpt>
      <trkpt lat="43.4515810" lon="-7.3266530">
        <ele>206.4</ele>
        <time>2021-07-23T12:41:20Z</time>
      </trkpt>
      <trkpt lat="43.4515660" lon="-7.3267180">
        <ele>205.6</ele>
        <time>2021-07-23T12:41:21Z</time>
      </trkpt>
      <trkpt lat="43.4515540" lon="-7.3267810">
        <ele>204.8</ele>
        <time>2021-07-23T12:41:22Z</time>
      </trkpt>
      <trkpt lat="43.4515430" lon="-7.3268410">
        <ele>203.0</ele>
        <time>2021-07-23T12:41:23Z</time>
      </trkpt>
      <trkpt lat="43.4515310" lon="-7.3268940">
        <ele>202.2</ele>
        <time>2021-07-23T12:41:24Z</time>
      </trkpt>
      <trkpt lat="43.4515200" lon="-7.3269470">
        <ele>201.4</ele>
        <time>2021-07-23T12:41:25Z</time>
      </trkpt>
      <trkpt lat="43.4515110" lon="-7.3269970">
        <ele>200.8</ele>
        <time>2021-07-23T12:41:26Z</time>
      </trkpt>
      <trkpt lat="43.4515010" lon="-7.3270440">
        <ele>200.2</ele>
        <time>2021-07-23T12:41:27Z</time>
      </trkpt>
      <trkpt lat="43.4514890" lon="-7.3270880">
        <ele>199.6</ele>
        <time>2021-07-23T12:41:28Z</time>
      </trkpt>
      <trkpt lat="43.4514760" lon="-7.3271330">
        <ele>198.8</ele>
        <time>2021-07-23T12:41:29Z</time>
      </trkpt>
      <trkpt lat="43.4514640" lon="-7.3271810">
        <ele>198.0</ele>
        <time>2021-07-23T12:41:30Z</time>
      </trkpt>
      <trkpt lat="43.4514490" lon="-7.3272310">
        <ele>197.4</ele>
        <time>2021-07-23T12:41:31Z</time>
      </trkpt>
      <trkpt lat="43.4514370" lon="-7.3272810">
        <ele>196.8</ele>
        <time>2021-07-23T12:41:32Z</time>
      </trkpt>
      <trkpt lat="43.4514230" lon="-7.3273350">
        <ele>196.2</ele>
        <time>2021-07-23T12:41:33Z</time>
      </trkpt>
      <trkpt lat="43.4514070" lon="-7.3273880">
        <ele>195.6</ele>
        <time>2021-07-23T12:41:34Z</time>
      </trkpt>
      <trkpt lat="43.4513880" lon="-7.3274440">
        <ele>195.0</ele>
        <time>2021-07-23T12:41:35Z</time>
      </trkpt>
      <trkpt lat="43.4513640" lon="-7.3275060">
        <ele>194.4</ele>
        <time>2021-07-23T12:41:36Z</time>
      </trkpt>
      <trkpt lat="43.4513360" lon="-7.3275780">
        <ele>193.8</ele>
        <time>2021-07-23T12:41:37Z</time>
      </trkpt>
      <trkpt lat="43.4513120" lon="-7.3276470">
        <ele>193.2</ele>
        <time>2021-07-23T12:41:38Z</time>
      </trkpt>
      <trkpt lat="43.4512990" lon="-7.3277150">
        <ele>192.4</ele>
        <time>2021-07-23T12:41:39Z</time>
      </trkpt>
      <trkpt lat="43.4512990" lon="-7.3277730">
        <ele>192.4</ele>
        <time>2021-07-23T12:41:40Z</time>
      </trkpt>
      <trkpt lat="43.4513040" lon="-7.3278170">
        <ele>192.0</ele>
        <time>2021-07-23T12:41:41Z</time>
      </trkpt>
      <trkpt lat="43.4513120" lon="-7.3278570">
        <ele>191.6</ele>
        <time>2021-07-23T12:41:42Z</time>
      </trkpt>
      <trkpt lat="43.4513190" lon="-7.3278970">
        <ele>191.0</ele>
        <time>2021-07-23T12:41:43Z</time>
      </trkpt>
      <trkpt lat="43.4513260" lon="-7.3279390">
        <ele>190.6</ele>
        <time>2021-07-23T12:41:44Z</time>
      </trkpt>
      <trkpt lat="43.4513330" lon="-7.3279830">
        <ele>190.2</ele>
        <time>2021-07-23T12:41:45Z</time>
      </trkpt>
      <trkpt lat="43.4513420" lon="-7.3280750">
        <ele>190.2</ele>
        <time>2021-07-23T12:41:47Z</time>
      </trkpt>
      <trkpt lat="43.4513430" lon="-7.3281250">
        <ele>190.2</ele>
        <time>2021-07-23T12:41:48Z</time>
      </trkpt>
      <trkpt lat="43.4513280" lon="-7.3282810">
        <ele>190.2</ele>
        <time>2021-07-23T12:41:51Z</time>
      </trkpt>
      <trkpt lat="43.4513210" lon="-7.3283390">
        <ele>190.2</ele>
        <time>2021-07-23T12:41:52Z</time>
      </trkpt>
      <trkpt lat="43.4513030" lon="-7.3285560">
        <ele>190.2</ele>
        <time>2021-07-23T12:41:56Z</time>
      </trkpt>
      <trkpt lat="43.4512660" lon="-7.3289480">
        <ele>190.2</ele>
        <time>2021-07-23T12:42:03Z</time>
      </trkpt>
      <trkpt lat="43.4512500" lon="-7.3290470">
        <ele>190.2</ele>
        <time>2021-07-23T12:42:05Z</time>
      </trkpt>
      <trkpt lat="43.4512360" lon="-7.3291540">
        <ele>189.8</ele>
        <time>2021-07-23T12:42:08Z</time>
      </trkpt>
      <trkpt lat="43.4512300" lon="-7.3291780">
        <ele>189.4</ele>
        <time>2021-07-23T12:42:09Z</time>
      </trkpt>
      <trkpt lat="43.4512230" lon="-7.3292060">
        <ele>188.8</ele>
        <time>2021-07-23T12:42:10Z</time>
      </trkpt>
      <trkpt lat="43.4512140" lon="-7.3292360">
        <ele>188.4</ele>
        <time>2021-07-23T12:42:11Z</time>
      </trkpt>
      <trkpt lat="43.4512040" lon="-7.3292650">
        <ele>188.0</ele>
        <time>2021-07-23T12:42:12Z</time>
      </trkpt>
      <trkpt lat="43.4511640" lon="-7.3293350">
        <ele>188.0</ele>
        <time>2021-07-23T12:42:15Z</time>
      </trkpt>
      <trkpt lat="43.4511350" lon="-7.3293620">
        <ele>188.0</ele>
        <time>2021-07-23T12:42:17Z</time>
      </trkpt>
      <trkpt lat="43.4511010" lon="-7.3293840">
        <ele>188.0</ele>
        <time>2021-07-23T12:42:19Z</time>
      </trkpt>
      <trkpt lat="43.4510540" lon="-7.3294300">
        <ele>188.0</ele>
        <time>2021-07-23T12:42:22Z</time>
      </trkpt>
      <trkpt lat="43.4510040" lon="-7.3294810">
        <ele>188.0</ele>
        <time>2021-07-23T12:42:25Z</time>
      </trkpt>
      <trkpt lat="43.4509750" lon="-7.3295130">
        <ele>188.4</ele>
        <time>2021-07-23T12:42:27Z</time>
      </trkpt>
      <trkpt lat="43.4509600" lon="-7.3295290">
        <ele>188.8</ele>
        <time>2021-07-23T12:42:28Z</time>
      </trkpt>
      <trkpt lat="43.4509460" lon="-7.3295450">
        <ele>189.2</ele>
        <time>2021-07-23T12:42:29Z</time>
      </trkpt>
      <trkpt lat="43.4509310" lon="-7.3295600">
        <ele>189.6</ele>
        <time>2021-07-23T12:42:30Z</time>
      </trkpt>
      <trkpt lat="43.4509160" lon="-7.3295730">
        <ele>190.0</ele>
        <time>2021-07-23T12:42:31Z</time>
      </trkpt>
      <trkpt lat="43.4508780" lon="-7.3296220">
        <ele>190.0</ele>
        <time>2021-07-23T12:42:34Z</time>
      </trkpt>
      <trkpt lat="43.4508700" lon="-7.3296380">
        <ele>190.0</ele>
        <time>2021-07-23T12:42:35Z</time>
      </trkpt>
      <trkpt lat="43.4508610" lon="-7.3296740">
        <ele>190.4</ele>
        <time>2021-07-23T12:42:37Z</time>
      </trkpt>
      <trkpt lat="43.4508630" lon="-7.3296900">
        <ele>191.4</ele>
        <time>2021-07-23T12:42:38Z</time>
      </trkpt>
      <trkpt lat="43.4508630" lon="-7.3296980">
        <ele>191.8</ele>
        <time>2021-07-23T12:42:39Z</time>
      </trkpt>
      <trkpt lat="43.4508800" lon="-7.3297300">
        <ele>192.2</ele>
        <time>2021-07-23T12:42:57Z</time>
      </trkpt>
      <trkpt lat="43.4509890" lon="-7.3298050">
        <ele>192.2</ele>
        <time>2021-07-23T12:43:03Z</time>
      </trkpt>
      <trkpt lat="43.4510670" lon="-7.3298360">
        <ele>192.2</ele>
        <time>2021-07-23T12:43:06Z</time>
      </trkpt>
      <trkpt lat="43.4511160" lon="-7.3298480">
        <ele>192.2</ele>
        <time>2021-07-23T12:43:08Z</time>
      </trkpt>
      <trkpt lat="43.4511550" lon="-7.3298390">
        <ele>192.2</ele>
        <time>2021-07-23T12:43:10Z</time>
      </trkpt>
      <trkpt lat="43.4511730" lon="-7.3298320">
        <ele>192.2</ele>
        <time>2021-07-23T12:43:12Z</time>
      </trkpt>
      <trkpt lat="43.4511720" lon="-7.3298560">
        <ele>192.2</ele>
        <time>2021-07-23T12:43:22Z</time>
      </trkpt>
      <trkpt lat="43.4511630" lon="-7.3298730">
        <ele>192.2</ele>
        <time>2021-07-23T12:43:23Z</time>
      </trkpt>
      <trkpt lat="43.4510740" lon="-7.3298890">
        <ele>192.2</ele>
        <time>2021-07-23T12:43:28Z</time>
      </trkpt>
      <trkpt lat="43.4510250" lon="-7.3298730">
        <ele>192.2</ele>
        <time>2021-07-23T12:43:30Z</time>
      </trkpt>
      <trkpt lat="43.4509380" lon="-7.3298410">
        <ele>192.2</ele>
        <time>2021-07-23T12:43:34Z</time>
      </trkpt>
      <trkpt lat="43.4508070" lon="-7.3298290">
        <ele>192.2</ele>
        <time>2021-07-23T12:43:40Z</time>
      </trkpt>
      <trkpt lat="43.4507110" lon="-7.3298910">
        <ele>192.2</ele>
        <time>2021-07-23T12:43:46Z</time>
      </trkpt>
      <trkpt lat="43.4506580" lon="-7.3299250">
        <ele>192.2</ele>
        <time>2021-07-23T12:43:50Z</time>
      </trkpt>
      <trkpt lat="43.4506410" lon="-7.3299080">
        <ele>192.2</ele>
        <time>2021-07-23T12:43:53Z</time>
      </trkpt>
      <trkpt lat="43.4506440" lon="-7.3299040">
        <ele>192.2</ele>
        <time>2021-07-23T12:43:54Z</time>
      </trkpt>
      <trkpt lat="43.4506780" lon="-7.3299090">
        <ele>192.2</ele>
        <time>2021-07-23T12:44:13Z</time>
      </trkpt>
      <trkpt lat="43.4506770" lon="-7.3299290">
        <ele>192.2</ele>
        <time>2021-07-23T12:44:14Z</time>
      </trkpt>
      <trkpt lat="43.4506700" lon="-7.3300670">
        <ele>192.2</ele>
        <time>2021-07-23T12:44:19Z</time>
      </trkpt>
      <trkpt lat="43.4506870" lon="-7.3301490">
        <ele>192.2</ele>
        <time>2021-07-23T12:44:22Z</time>
      </trkpt>
      <trkpt lat="43.4507110" lon="-7.3302280">
        <ele>192.2</ele>
        <time>2021-07-23T12:44:25Z</time>
      </trkpt>
      <trkpt lat="43.4507330" lon="-7.3302760">
        <ele>192.6</ele>
        <time>2021-07-23T12:44:27Z</time>
      </trkpt>
      <trkpt lat="43.4507400" lon="-7.3303030">
        <ele>193.0</ele>
        <time>2021-07-23T12:44:28Z</time>
      </trkpt>
      <trkpt lat="43.4507490" lon="-7.3303290">
        <ele>193.4</ele>
        <time>2021-07-23T12:44:29Z</time>
      </trkpt>
      <trkpt lat="43.4507590" lon="-7.3303550">
        <ele>193.8</ele>
        <time>2021-07-23T12:44:30Z</time>
      </trkpt>
      <trkpt lat="43.4507680" lon="-7.3303820">
        <ele>194.2</ele>
        <time>2021-07-23T12:44:31Z</time>
      </trkpt>
      <trkpt lat="43.4507870" lon="-7.3304320">
        <ele>194.2</ele>
        <time>2021-07-23T12:44:33Z</time>
      </trkpt>
      <trkpt lat="43.4508130" lon="-7.3304920">
        <ele>194.2</ele>
        <time>2021-07-23T12:44:36Z</time>
      </trkpt>
      <trkpt lat="43.4508210" lon="-7.3305140">
        <ele>194.6</ele>
        <time>2021-07-23T12:44:37Z</time>
      </trkpt>
      <trkpt lat="43.4508290" lon="-7.3305390">
        <ele>195.0</ele>
        <time>2021-07-23T12:44:38Z</time>
      </trkpt>
      <trkpt lat="43.4508360" lon="-7.3305630">
        <ele>195.6</ele>
        <time>2021-07-23T12:44:39Z</time>
      </trkpt>
      <trkpt lat="43.4508470" lon="-7.3305870">
        <ele>196.0</ele>
        <time>2021-07-23T12:44:40Z</time>
      </trkpt>
      <trkpt lat="43.4508540" lon="-7.3306100">
        <ele>196.4</ele>
        <time>2021-07-23T12:44:41Z</time>
      </trkpt>
      <trkpt lat="43.4508780" lon="-7.3306740">
        <ele>196.4</ele>
        <time>2021-07-23T12:44:44Z</time>
      </trkpt>
      <trkpt lat="43.4508850" lon="-7.3306960">
        <ele>196.8</ele>
        <time>2021-07-23T12:44:45Z</time>
      </trkpt>
      <trkpt lat="43.4508930" lon="-7.3307170">
        <ele>197.4</ele>
        <time>2021-07-23T12:44:46Z</time>
      </trkpt>
      <trkpt lat="43.4509000" lon="-7.3307400">
        <ele>197.8</ele>
        <time>2021-07-23T12:44:47Z</time>
      </trkpt>
      <trkpt lat="43.4509070" lon="-7.3307590">
        <ele>198.2</ele>
        <time>2021-07-23T12:44:48Z</time>
      </trkpt>
      <trkpt lat="43.4509120" lon="-7.3307760">
        <ele>198.6</ele>
        <time>2021-07-23T12:44:49Z</time>
      </trkpt>
      <trkpt lat="43.4509190" lon="-7.3308480">
        <ele>199.0</ele>
        <time>2021-07-23T12:44:53Z</time>
      </trkpt>
      <trkpt lat="43.4509170" lon="-7.3308630">
        <ele>199.4</ele>
        <time>2021-07-23T12:44:54Z</time>
      </trkpt>
      <trkpt lat="43.4509130" lon="-7.3308800">
        <ele>199.8</ele>
        <time>2021-07-23T12:44:55Z</time>
      </trkpt>
      <trkpt lat="43.4509080" lon="-7.3308970">
        <ele>200.2</ele>
        <time>2021-07-23T12:44:56Z</time>
      </trkpt>
      <trkpt lat="43.4509040" lon="-7.3309150">
        <ele>200.6</ele>
        <time>2021-07-23T12:44:57Z</time>
      </trkpt>
      <trkpt lat="43.4508860" lon="-7.3309970">
        <ele>201.0</ele>
        <time>2021-07-23T12:45:01Z</time>
      </trkpt>
      <trkpt lat="43.4508800" lon="-7.3310210">
        <ele>201.4</ele>
        <time>2021-07-23T12:45:02Z</time>
      </trkpt>
      <trkpt lat="43.4508740" lon="-7.3310490">
        <ele>201.8</ele>
        <time>2021-07-23T12:45:03Z</time>
      </trkpt>
      <trkpt lat="43.4508680" lon="-7.3310770">
        <ele>202.2</ele>
        <time>2021-07-23T12:45:04Z</time>
      </trkpt>
      <trkpt lat="43.4508610" lon="-7.3311050">
        <ele>202.6</ele>
        <time>2021-07-23T12:45:05Z</time>
      </trkpt>
      <trkpt lat="43.4508390" lon="-7.3311760">
        <ele>203.0</ele>
        <time>2021-07-23T12:45:08Z</time>
      </trkpt>
      <trkpt lat="43.4508290" lon="-7.3312040">
        <ele>203.4</ele>
        <time>2021-07-23T12:45:09Z</time>
      </trkpt>
      <trkpt lat="43.4508210" lon="-7.3312320">
        <ele>204.0</ele>
        <time>2021-07-23T12:45:10Z</time>
      </trkpt>
      <trkpt lat="43.4508150" lon="-7.3312560">
        <ele>204.4</ele>
        <time>2021-07-23T12:45:11Z</time>
      </trkpt>
      <trkpt lat="43.4508080" lon="-7.3312820">
        <ele>204.8</ele>
        <time>2021-07-23T12:45:12Z</time>
      </trkpt>
      <trkpt lat="43.4507850" lon="-7.3314070">
        <ele>205.2</ele>
        <time>2021-07-23T12:45:17Z</time>
      </trkpt>
      <trkpt lat="43.4507800" lon="-7.3314290">
        <ele>205.6</ele>
        <time>2021-07-23T12:45:18Z</time>
      </trkpt>
      <trkpt lat="43.4507760" lon="-7.3314520">
        <ele>206.0</ele>
        <time>2021-07-23T12:45:19Z</time>
      </trkpt>
      <trkpt lat="43.4507730" lon="-7.3314770">
        <ele>206.4</ele>
        <time>2021-07-23T12:45:20Z</time>
      </trkpt>
      <trkpt lat="43.4507720" lon="-7.3314990">
        <ele>206.8</ele>
        <time>2021-07-23T12:45:21Z</time>
      </trkpt>
      <trkpt lat="43.4507550" lon="-7.3316340">
        <ele>206.8</ele>
        <time>2021-07-23T12:45:27Z</time>
      </trkpt>
      <trkpt lat="43.4507420" lon="-7.3317220">
        <ele>207.4</ele>
        <time>2021-07-23T12:45:31Z</time>
      </trkpt>
      <trkpt lat="43.4507370" lon="-7.3317450">
        <ele>207.8</ele>
        <time>2021-07-23T12:45:32Z</time>
      </trkpt>
      <trkpt lat="43.4507310" lon="-7.3317660">
        <ele>208.2</ele>
        <time>2021-07-23T12:45:33Z</time>
      </trkpt>
      <trkpt lat="43.4507270" lon="-7.3317890">
        <ele>208.6</ele>
        <time>2021-07-23T12:45:34Z</time>
      </trkpt>
      <trkpt lat="43.4507250" lon="-7.3318080">
        <ele>209.0</ele>
        <time>2021-07-23T12:45:35Z</time>
      </trkpt>
      <trkpt lat="43.4507050" lon="-7.3319180">
        <ele>209.0</ele>
        <time>2021-07-23T12:45:40Z</time>
      </trkpt>
      <trkpt lat="43.4506900" lon="-7.3321060">
        <ele>209.0</ele>
        <time>2021-07-23T12:45:46Z</time>
      </trkpt>
      <trkpt lat="43.4506740" lon="-7.3322290">
        <ele>209.0</ele>
        <time>2021-07-23T12:45:48Z</time>
      </trkpt>
      <trkpt lat="43.4506490" lon="-7.3323970">
        <ele>208.6</ele>
        <time>2021-07-23T12:45:50Z</time>
      </trkpt>
      <trkpt lat="43.4506450" lon="-7.3324830">
        <ele>208.2</ele>
        <time>2021-07-23T12:45:51Z</time>
      </trkpt>
      <trkpt lat="43.4506400" lon="-7.3325660">
        <ele>207.8</ele>
        <time>2021-07-23T12:45:52Z</time>
      </trkpt>
      <trkpt lat="43.4506350" lon="-7.3326460">
        <ele>207.2</ele>
        <time>2021-07-23T12:45:53Z</time>
      </trkpt>
      <trkpt lat="43.4506290" lon="-7.3327260">
        <ele>206.8</ele>
        <time>2021-07-23T12:45:54Z</time>
      </trkpt>
      <trkpt lat="43.4506220" lon="-7.3328110">
        <ele>206.0</ele>
        <time>2021-07-23T12:45:55Z</time>
      </trkpt>
      <trkpt lat="43.4506130" lon="-7.3328970">
        <ele>205.6</ele>
        <time>2021-07-23T12:45:56Z</time>
      </trkpt>
      <trkpt lat="43.4506040" lon="-7.3329830">
        <ele>205.0</ele>
        <time>2021-07-23T12:45:57Z</time>
      </trkpt>
      <trkpt lat="43.4505910" lon="-7.3330700">
        <ele>204.6</ele>
        <time>2021-07-23T12:45:58Z</time>
      </trkpt>
      <trkpt lat="43.4505590" lon="-7.3332460">
        <ele>204.6</ele>
        <time>2021-07-23T12:46:00Z</time>
      </trkpt>
      <trkpt lat="43.4505400" lon="-7.3333450">
        <ele>204.6</ele>
        <time>2021-07-23T12:46:01Z</time>
      </trkpt>
      <trkpt lat="43.4505210" lon="-7.3334440">
        <ele>204.6</ele>
        <time>2021-07-23T12:46:02Z</time>
      </trkpt>
      <trkpt lat="43.4505020" lon="-7.3335450">
        <ele>204.6</ele>
        <time>2021-07-23T12:46:03Z</time>
      </trkpt>
      <trkpt lat="43.4504860" lon="-7.3336380">
        <ele>204.6</ele>
        <time>2021-07-23T12:46:04Z</time>
      </trkpt>
      <trkpt lat="43.4504530" lon="-7.3338250">
        <ele>204.2</ele>
        <time>2021-07-23T12:46:06Z</time>
      </trkpt>
      <trkpt lat="43.4504360" lon="-7.3339160">
        <ele>203.8</ele>
        <time>2021-07-23T12:46:07Z</time>
      </trkpt>
      <trkpt lat="43.4504180" lon="-7.3340060">
        <ele>203.2</ele>
        <time>2021-07-23T12:46:08Z</time>
      </trkpt>
      <trkpt lat="43.4504010" lon="-7.3340910">
        <ele>202.8</ele>
        <time>2021-07-23T12:46:09Z</time>
      </trkpt>
      <trkpt lat="43.4503830" lon="-7.3341820">
        <ele>202.4</ele>
        <time>2021-07-23T12:46:10Z</time>
      </trkpt>
      <trkpt lat="43.4503620" lon="-7.3342680">
        <ele>202.4</ele>
        <time>2021-07-23T12:46:11Z</time>
      </trkpt>
      <trkpt lat="43.4503160" lon="-7.3344410">
        <ele>202.0</ele>
        <time>2021-07-23T12:46:13Z</time>
      </trkpt>
      <trkpt lat="43.4502940" lon="-7.3345250">
        <ele>201.4</ele>
        <time>2021-07-23T12:46:14Z</time>
      </trkpt>
      <trkpt lat="43.4502720" lon="-7.3346110">
        <ele>201.0</ele>
        <time>2021-07-23T12:46:15Z</time>
      </trkpt>
      <trkpt lat="43.4502500" lon="-7.3346980">
        <ele>200.6</ele>
        <time>2021-07-23T12:46:16Z</time>
      </trkpt>
      <trkpt lat="43.4502290" lon="-7.3347810">
        <ele>200.2</ele>
        <time>2021-07-23T12:46:17Z</time>
      </trkpt>
      <trkpt lat="43.4501930" lon="-7.3349340">
        <ele>199.8</ele>
        <time>2021-07-23T12:46:19Z</time>
      </trkpt>
      <trkpt lat="43.4501770" lon="-7.3349970">
        <ele>198.8</ele>
        <time>2021-07-23T12:46:20Z</time>
      </trkpt>
      <trkpt lat="43.4501620" lon="-7.3350570">
        <ele>198.4</ele>
        <time>2021-07-23T12:46:21Z</time>
      </trkpt>
      <trkpt lat="43.4501440" lon="-7.3351180">
        <ele>198.0</ele>
        <time>2021-07-23T12:46:22Z</time>
      </trkpt>
      <trkpt lat="43.4501120" lon="-7.3352350">
        <ele>197.6</ele>
        <time>2021-07-23T12:46:24Z</time>
      </trkpt>
      <trkpt lat="43.4500980" lon="-7.3352970">
        <ele>197.2</ele>
        <time>2021-07-23T12:46:25Z</time>
      </trkpt>
      <trkpt lat="43.4500900" lon="-7.3353550">
        <ele>196.6</ele>
        <time>2021-07-23T12:46:26Z</time>
      </trkpt>
      <trkpt lat="43.4500780" lon="-7.3354170">
        <ele>196.2</ele>
        <time>2021-07-23T12:46:27Z</time>
      </trkpt>
      <trkpt lat="43.4500660" lon="-7.3354750">
        <ele>195.8</ele>
        <time>2021-07-23T12:46:28Z</time>
      </trkpt>
      <trkpt lat="43.4500570" lon="-7.3355320">
        <ele>195.8</ele>
        <time>2021-07-23T12:46:29Z</time>
      </trkpt>
      <trkpt lat="43.4500630" lon="-7.3356470">
        <ele>195.8</ele>
        <time>2021-07-23T12:46:31Z</time>
      </trkpt>
      <trkpt lat="43.4500740" lon="-7.3357070">
        <ele>195.4</ele>
        <time>2021-07-23T12:46:32Z</time>
      </trkpt>
      <trkpt lat="43.4500820" lon="-7.3357650">
        <ele>194.8</ele>
        <time>2021-07-23T12:46:33Z</time>
      </trkpt>
      <trkpt lat="43.4500860" lon="-7.3358220">
        <ele>194.4</ele>
        <time>2021-07-23T12:46:34Z</time>
      </trkpt>
      <trkpt lat="43.4500860" lon="-7.3358790">
        <ele>193.8</ele>
        <time>2021-07-23T12:46:35Z</time>
      </trkpt>
      <trkpt lat="43.4500850" lon="-7.3359280">
        <ele>193.4</ele>
        <time>2021-07-23T12:46:36Z</time>
      </trkpt>
      <trkpt lat="43.4500850" lon="-7.3360030">
        <ele>193.0</ele>
        <time>2021-07-23T12:46:38Z</time>
      </trkpt>
      <trkpt lat="43.4500870" lon="-7.3360310">
        <ele>192.4</ele>
        <time>2021-07-23T12:46:39Z</time>
      </trkpt>
      <trkpt lat="43.4500890" lon="-7.3360480">
        <ele>192.0</ele>
        <time>2021-07-23T12:46:40Z</time>
      </trkpt>
      <trkpt lat="43.4500880" lon="-7.3360530">
        <ele>191.6</ele>
        <time>2021-07-23T12:46:41Z</time>
      </trkpt>
      <trkpt lat="43.4500750" lon="-7.3361090">
        <ele>189.0</ele>
        <time>2021-07-23T12:49:54Z</time>
      </trkpt>
      <trkpt lat="43.4500720" lon="-7.3361350">
        <ele>189.0</ele>
        <time>2021-07-23T12:49:55Z</time>
      </trkpt>
      <trkpt lat="43.4500700" lon="-7.3361750">
        <ele>189.0</ele>
        <time>2021-07-23T12:49:56Z</time>
      </trkpt>
      <trkpt lat="43.4500470" lon="-7.3364920">
        <ele>189.0</ele>
        <time>2021-07-23T12:50:02Z</time>
      </trkpt>
      <trkpt lat="43.4500260" lon="-7.3366800">
        <ele>188.6</ele>
        <time>2021-07-23T12:50:05Z</time>
      </trkpt>
      <trkpt lat="43.4500210" lon="-7.3367490">
        <ele>188.0</ele>
        <time>2021-07-23T12:50:06Z</time>
      </trkpt>
      <trkpt lat="43.4500180" lon="-7.3368200">
        <ele>187.6</ele>
        <time>2021-07-23T12:50:07Z</time>
      </trkpt>
      <trkpt lat="43.4500180" lon="-7.3368920">
        <ele>187.0</ele>
        <time>2021-07-23T12:50:08Z</time>
      </trkpt>
      <trkpt lat="43.4500150" lon="-7.3369600">
        <ele>186.4</ele>
        <time>2021-07-23T12:50:09Z</time>
      </trkpt>
      <trkpt lat="43.4500100" lon="-7.3370250">
        <ele>186.0</ele>
        <time>2021-07-23T12:50:10Z</time>
      </trkpt>
      <trkpt lat="43.4500040" lon="-7.3370950">
        <ele>185.4</ele>
        <time>2021-07-23T12:50:11Z</time>
      </trkpt>
      <trkpt lat="43.4499970" lon="-7.3371660">
        <ele>184.8</ele>
        <time>2021-07-23T12:50:12Z</time>
      </trkpt>
      <trkpt lat="43.4499900" lon="-7.3372390">
        <ele>184.0</ele>
        <time>2021-07-23T12:50:13Z</time>
      </trkpt>
      <trkpt lat="43.4499850" lon="-7.3373120">
        <ele>183.4</ele>
        <time>2021-07-23T12:50:14Z</time>
      </trkpt>
      <trkpt lat="43.4499800" lon="-7.3373840">
        <ele>182.8</ele>
        <time>2021-07-23T12:50:15Z</time>
      </trkpt>
      <trkpt lat="43.4499720" lon="-7.3374580">
        <ele>182.2</ele>
        <time>2021-07-23T12:50:16Z</time>
      </trkpt>
      <trkpt lat="43.4499600" lon="-7.3376030">
        <ele>181.8</ele>
        <time>2021-07-23T12:50:18Z</time>
      </trkpt>
      <trkpt lat="43.4499550" lon="-7.3376780">
        <ele>181.2</ele>
        <time>2021-07-23T12:50:19Z</time>
      </trkpt>
      <trkpt lat="43.4499500" lon="-7.3377460">
        <ele>180.8</ele>
        <time>2021-07-23T12:50:20Z</time>
      </trkpt>
      <trkpt lat="43.4499450" lon="-7.3378100">
        <ele>180.4</ele>
        <time>2021-07-23T12:50:21Z</time>
      </trkpt>
      <trkpt lat="43.4499390" lon="-7.3378740">
        <ele>180.0</ele>
        <time>2021-07-23T12:50:22Z</time>
      </trkpt>
      <trkpt lat="43.4499120" lon="-7.3380820">
        <ele>179.6</ele>
        <time>2021-07-23T12:50:26Z</time>
      </trkpt>
      <trkpt lat="43.4499030" lon="-7.3381220">
        <ele>178.6</ele>
        <time>2021-07-23T12:50:27Z</time>
      </trkpt>
      <trkpt lat="43.4498960" lon="-7.3381540">
        <ele>178.2</ele>
        <time>2021-07-23T12:50:28Z</time>
      </trkpt>
      <trkpt lat="43.4498850" lon="-7.3381820">
        <ele>177.8</ele>
        <time>2021-07-23T12:50:29Z</time>
      </trkpt>
      <trkpt lat="43.4498490" lon="-7.3382740">
        <ele>177.4</ele>
        <time>2021-07-23T12:50:32Z</time>
      </trkpt>
      <trkpt lat="43.4498380" lon="-7.3383050">
        <ele>177.0</ele>
        <time>2021-07-23T12:50:33Z</time>
      </trkpt>
      <trkpt lat="43.4498270" lon="-7.3383400">
        <ele>176.4</ele>
        <time>2021-07-23T12:50:34Z</time>
      </trkpt>
      <trkpt lat="43.4498160" lon="-7.3383750">
        <ele>176.0</ele>
        <time>2021-07-23T12:50:35Z</time>
      </trkpt>
      <trkpt lat="43.4498060" lon="-7.3384150">
        <ele>175.6</ele>
        <time>2021-07-23T12:50:36Z</time>
      </trkpt>
      <trkpt lat="43.4497870" lon="-7.3384860">
        <ele>175.0</ele>
        <time>2021-07-23T12:50:38Z</time>
      </trkpt>
      <trkpt lat="43.4497770" lon="-7.3385190">
        <ele>174.6</ele>
        <time>2021-07-23T12:50:39Z</time>
      </trkpt>
      <trkpt lat="43.4497680" lon="-7.3385580">
        <ele>174.0</ele>
        <time>2021-07-23T12:50:40Z</time>
      </trkpt>
      <trkpt lat="43.4497570" lon="-7.3385920">
        <ele>173.6</ele>
        <time>2021-07-23T12:50:41Z</time>
      </trkpt>
      <trkpt lat="43.4497440" lon="-7.3386230">
        <ele>173.0</ele>
        <time>2021-07-23T12:50:42Z</time>
      </trkpt>
      <trkpt lat="43.4497310" lon="-7.3386530">
        <ele>172.4</ele>
        <time>2021-07-23T12:50:43Z</time>
      </trkpt>
      <trkpt lat="43.4497230" lon="-7.3386830">
        <ele>172.0</ele>
        <time>2021-07-23T12:50:44Z</time>
      </trkpt>
      <trkpt lat="43.4497130" lon="-7.3387110">
        <ele>171.4</ele>
        <time>2021-07-23T12:50:45Z</time>
      </trkpt>
      <trkpt lat="43.4497040" lon="-7.3387360">
        <ele>171.0</ele>
        <time>2021-07-23T12:50:46Z</time>
      </trkpt>
      <trkpt lat="43.4496800" lon="-7.3388000">
        <ele>170.6</ele>
        <time>2021-07-23T12:50:48Z</time>
      </trkpt>
      <trkpt lat="43.4496640" lon="-7.3388390">
        <ele>170.2</ele>
        <time>2021-07-23T12:50:49Z</time>
      </trkpt>
      <trkpt lat="43.4496450" lon="-7.3388810">
        <ele>169.8</ele>
        <time>2021-07-23T12:50:50Z</time>
      </trkpt>
      <trkpt lat="43.4496270" lon="-7.3389180">
        <ele>169.4</ele>
        <time>2021-07-23T12:50:51Z</time>
      </trkpt>
      <trkpt lat="43.4496070" lon="-7.3389590">
        <ele>169.0</ele>
        <time>2021-07-23T12:50:52Z</time>
      </trkpt>
      <trkpt lat="43.4495870" lon="-7.3389990">
        <ele>168.6</ele>
        <time>2021-07-23T12:50:53Z</time>
      </trkpt>
      <trkpt lat="43.4495660" lon="-7.3390420">
        <ele>168.2</ele>
        <time>2021-07-23T12:50:54Z</time>
      </trkpt>
      <trkpt lat="43.4495440" lon="-7.3390960">
        <ele>167.6</ele>
        <time>2021-07-23T12:50:55Z</time>
      </trkpt>
      <trkpt lat="43.4495240" lon="-7.3391510">
        <ele>167.2</ele>
        <time>2021-07-23T12:50:56Z</time>
      </trkpt>
      <trkpt lat="43.4495110" lon="-7.3392020">
        <ele>166.8</ele>
        <time>2021-07-23T12:50:57Z</time>
      </trkpt>
      <trkpt lat="43.4494840" lon="-7.3394580">
        <ele>166.8</ele>
        <time>2021-07-23T12:51:02Z</time>
      </trkpt>
      <trkpt lat="43.4494700" lon="-7.3396720">
        <ele>166.4</ele>
        <time>2021-07-23T12:51:06Z</time>
      </trkpt>
      <trkpt lat="43.4494680" lon="-7.3397150">
        <ele>165.8</ele>
        <time>2021-07-23T12:51:07Z</time>
      </trkpt>
      <trkpt lat="43.4494660" lon="-7.3397570">
        <ele>165.4</ele>
        <time>2021-07-23T12:51:08Z</time>
      </trkpt>
      <trkpt lat="43.4494680" lon="-7.3397990">
        <ele>164.8</ele>
        <time>2021-07-23T12:51:09Z</time>
      </trkpt>
      <trkpt lat="43.4494690" lon="-7.3398410">
        <ele>164.4</ele>
        <time>2021-07-23T12:51:10Z</time>
      </trkpt>
      <trkpt lat="43.4494540" lon="-7.3399940">
        <ele>164.0</ele>
        <time>2021-07-23T12:51:14Z</time>
      </trkpt>
      <trkpt lat="43.4494490" lon="-7.3400320">
        <ele>163.6</ele>
        <time>2021-07-23T12:51:15Z</time>
      </trkpt>
      <trkpt lat="43.4494450" lon="-7.3400710">
        <ele>163.2</ele>
        <time>2021-07-23T12:51:16Z</time>
      </trkpt>
      <trkpt lat="43.4494420" lon="-7.3401080">
        <ele>162.4</ele>
        <time>2021-07-23T12:51:17Z</time>
      </trkpt>
      <trkpt lat="43.4494370" lon="-7.3401400">
        <ele>162.0</ele>
        <time>2021-07-23T12:51:18Z</time>
      </trkpt>
      <trkpt lat="43.4494330" lon="-7.3401670">
        <ele>161.4</ele>
        <time>2021-07-23T12:51:19Z</time>
      </trkpt>
      <trkpt lat="43.4494300" lon="-7.3401900">
        <ele>161.0</ele>
        <time>2021-07-23T12:51:20Z</time>
      </trkpt>
      <trkpt lat="43.4494280" lon="-7.3402130">
        <ele>160.6</ele>
        <time>2021-07-23T12:51:21Z</time>
      </trkpt>
      <trkpt lat="43.4494260" lon="-7.3402300">
        <ele>160.2</ele>
        <time>2021-07-23T12:51:22Z</time>
      </trkpt>
      <trkpt lat="43.4494220" lon="-7.3402570">
        <ele>160.2</ele>
        <time>2021-07-23T12:51:24Z</time>
      </trkpt>
      <trkpt lat="43.4494120" lon="-7.3402740">
        <ele>160.2</ele>
        <time>2021-07-23T12:51:26Z</time>
      </trkpt>
      <trkpt lat="43.4494010" lon="-7.3402870">
        <ele>160.2</ele>
        <time>2021-07-23T12:51:28Z</time>
      </trkpt>
      <trkpt lat="43.4493930" lon="-7.3402930">
        <ele>160.2</ele>
        <time>2021-07-23T12:51:30Z</time>
      </trkpt>
      <trkpt lat="43.4493870" lon="-7.3402890">
        <ele>160.2</ele>
        <time>2021-07-23T12:51:31Z</time>
      </trkpt>
      <trkpt lat="43.4492600" lon="-7.3402250">
        <ele>160.2</ele>
        <time>2021-07-23T12:51:40Z</time>
      </trkpt>
      <trkpt lat="43.4492330" lon="-7.3402140">
        <ele>160.2</ele>
        <time>2021-07-23T12:51:41Z</time>
      </trkpt>
      <trkpt lat="43.4492050" lon="-7.3402040">
        <ele>160.2</ele>
        <time>2021-07-23T12:51:42Z</time>
      </trkpt>
      <trkpt lat="43.4490510" lon="-7.3401340">
        <ele>160.2</ele>
        <time>2021-07-23T12:51:48Z</time>
      </trkpt>
      <trkpt lat="43.4489070" lon="-7.3400720">
        <ele>160.2</ele>
        <time>2021-07-23T12:51:56Z</time>
      </trkpt>
      <trkpt lat="43.4488070" lon="-7.3400350">
        <ele>160.2</ele>
        <time>2021-07-23T12:52:00Z</time>
      </trkpt>
      <trkpt lat="43.4487570" lon="-7.3400350">
        <ele>160.2</ele>
        <time>2021-07-23T12:52:02Z</time>
      </trkpt>
      <trkpt lat="43.4486480" lon="-7.3400750">
        <ele>160.2</ele>
        <time>2021-07-23T12:52:08Z</time>
      </trkpt>
      <trkpt lat="43.4485270" lon="-7.3401290">
        <ele>160.2</ele>
        <time>2021-07-23T12:52:13Z</time>
      </trkpt>
      <trkpt lat="43.4484260" lon="-7.3402100">
        <ele>160.2</ele>
        <time>2021-07-23T12:52:18Z</time>
      </trkpt>
      <trkpt lat="43.4484070" lon="-7.3402520">
        <ele>160.2</ele>
        <time>2021-07-23T12:52:20Z</time>
      </trkpt>
      <trkpt lat="43.4483630" lon="-7.3403710">
        <ele>160.6</ele>
        <time>2021-07-23T12:52:25Z</time>
      </trkpt>
      <trkpt lat="43.4483490" lon="-7.3403940">
        <ele>161.0</ele>
        <time>2021-07-23T12:52:26Z</time>
      </trkpt>
      <trkpt lat="43.4483350" lon="-7.3404180">
        <ele>161.4</ele>
        <time>2021-07-23T12:52:27Z</time>
      </trkpt>
      <trkpt lat="43.4483230" lon="-7.3404440">
        <ele>161.8</ele>
        <time>2021-07-23T12:52:28Z</time>
      </trkpt>
      <trkpt lat="43.4483140" lon="-7.3404740">
        <ele>162.2</ele>
        <time>2021-07-23T12:52:29Z</time>
      </trkpt>
      <trkpt lat="43.4482920" lon="-7.3405730">
        <ele>162.2</ele>
        <time>2021-07-23T12:52:33Z</time>
      </trkpt>
      <trkpt lat="43.4482730" lon="-7.3406170">
        <ele>162.2</ele>
        <time>2021-07-23T12:52:35Z</time>
      </trkpt>
      <trkpt lat="43.4482400" lon="-7.3406890">
        <ele>162.6</ele>
        <time>2021-07-23T12:52:38Z</time>
      </trkpt>
      <trkpt lat="43.4482280" lon="-7.3407110">
        <ele>163.0</ele>
        <time>2021-07-23T12:52:39Z</time>
      </trkpt>
      <trkpt lat="43.4482160" lon="-7.3407280">
        <ele>163.6</ele>
        <time>2021-07-23T12:52:40Z</time>
      </trkpt>
      <trkpt lat="43.4482070" lon="-7.3407430">
        <ele>164.0</ele>
        <time>2021-07-23T12:52:41Z</time>
      </trkpt>
      <trkpt lat="43.4481970" lon="-7.3407590">
        <ele>164.4</ele>
        <time>2021-07-23T12:52:42Z</time>
      </trkpt>
      <trkpt lat="43.4481880" lon="-7.3407760">
        <ele>164.4</ele>
        <time>2021-07-23T12:52:43Z</time>
      </trkpt>
      <trkpt lat="43.4481590" lon="-7.3408290">
        <ele>164.4</ele>
        <time>2021-07-23T12:52:46Z</time>
      </trkpt>
      <trkpt lat="43.4481380" lon="-7.3408630">
        <ele>164.8</ele>
        <time>2021-07-23T12:52:48Z</time>
      </trkpt>
      <trkpt lat="43.4481260" lon="-7.3408800">
        <ele>165.2</ele>
        <time>2021-07-23T12:52:49Z</time>
      </trkpt>
      <trkpt lat="43.4481180" lon="-7.3408980">
        <ele>165.8</ele>
        <time>2021-07-23T12:52:50Z</time>
      </trkpt>
      <trkpt lat="43.4481090" lon="-7.3409140">
        <ele>166.2</ele>
        <time>2021-07-23T12:52:51Z</time>
      </trkpt>
      <trkpt lat="43.4480980" lon="-7.3409260">
        <ele>166.6</ele>
        <time>2021-07-23T12:52:52Z</time>
      </trkpt>
      <trkpt lat="43.4480520" lon="-7.3409690">
        <ele>167.0</ele>
        <time>2021-07-23T12:52:56Z</time>
      </trkpt>
      <trkpt lat="43.4480410" lon="-7.3409790">
        <ele>167.4</ele>
        <time>2021-07-23T12:52:57Z</time>
      </trkpt>
      <trkpt lat="43.4480310" lon="-7.3409890">
        <ele>167.8</ele>
        <time>2021-07-23T12:52:58Z</time>
      </trkpt>
      <trkpt lat="43.4480200" lon="-7.3410000">
        <ele>168.2</ele>
        <time>2021-07-23T12:52:59Z</time>
      </trkpt>
      <trkpt lat="43.4480080" lon="-7.3410150">
        <ele>168.6</ele>
        <time>2021-07-23T12:53:00Z</time>
      </trkpt>
      <trkpt lat="43.4479260" lon="-7.3410530">
        <ele>168.6</ele>
        <time>2021-07-23T12:53:06Z</time>
      </trkpt>
      <trkpt lat="43.4479110" lon="-7.3410600">
        <ele>169.0</ele>
        <time>2021-07-23T12:53:07Z</time>
      </trkpt>
      <trkpt lat="43.4478990" lon="-7.3410680">
        <ele>169.6</ele>
        <time>2021-07-23T12:53:08Z</time>
      </trkpt>
      <trkpt lat="43.4478860" lon="-7.3410780">
        <ele>170.0</ele>
        <time>2021-07-23T12:53:09Z</time>
      </trkpt>
      <trkpt lat="43.4478720" lon="-7.3410860">
        <ele>170.4</ele>
        <time>2021-07-23T12:53:10Z</time>
      </trkpt>
      <trkpt lat="43.4478590" lon="-7.3410950">
        <ele>171.0</ele>
        <time>2021-07-23T12:53:11Z</time>
      </trkpt>
      <trkpt lat="43.4478190" lon="-7.3411220">
        <ele>171.0</ele>
        <time>2021-07-23T12:53:14Z</time>
      </trkpt>
      <trkpt lat="43.4477190" lon="-7.3411870">
        <ele>171.0</ele>
        <time>2021-07-23T12:53:21Z</time>
      </trkpt>
      <trkpt lat="43.4476910" lon="-7.3412050">
        <ele>171.4</ele>
        <time>2021-07-23T12:53:23Z</time>
      </trkpt>
      <trkpt lat="43.4476780" lon="-7.3412160">
        <ele>171.8</ele>
        <time>2021-07-23T12:53:24Z</time>
      </trkpt>
      <trkpt lat="43.4476630" lon="-7.3412230">
        <ele>172.2</ele>
        <time>2021-07-23T12:53:25Z</time>
      </trkpt>
      <trkpt lat="43.4476490" lon="-7.3412300">
        <ele>172.6</ele>
        <time>2021-07-23T12:53:26Z</time>
      </trkpt>
      <trkpt lat="43.4476350" lon="-7.3412390">
        <ele>173.0</ele>
        <time>2021-07-23T12:53:27Z</time>
      </trkpt>
      <trkpt lat="43.4476220" lon="-7.3412470">
        <ele>173.0</ele>
        <time>2021-07-23T12:53:28Z</time>
      </trkpt>
      <trkpt lat="43.4475380" lon="-7.3413430">
        <ele>173.0</ele>
        <time>2021-07-23T12:53:35Z</time>
      </trkpt>
      <trkpt lat="43.4475050" lon="-7.3414060">
        <ele>173.4</ele>
        <time>2021-07-23T12:53:39Z</time>
      </trkpt>
      <trkpt lat="43.4474960" lon="-7.3414220">
        <ele>174.0</ele>
        <time>2021-07-23T12:53:40Z</time>
      </trkpt>
      <trkpt lat="43.4474880" lon="-7.3414360">
        <ele>174.4</ele>
        <time>2021-07-23T12:53:41Z</time>
      </trkpt>
      <trkpt lat="43.4474780" lon="-7.3414510">
        <ele>174.8</ele>
        <time>2021-07-23T12:53:42Z</time>
      </trkpt>
      <trkpt lat="43.4474690" lon="-7.3414660">
        <ele>175.2</ele>
        <time>2021-07-23T12:53:43Z</time>
      </trkpt>
      <trkpt lat="43.4474080" lon="-7.3415640">
        <ele>175.6</ele>
        <time>2021-07-23T12:53:49Z</time>
      </trkpt>
      <trkpt lat="43.4473980" lon="-7.3415820">
        <ele>176.0</ele>
        <time>2021-07-23T12:53:50Z</time>
      </trkpt>
      <trkpt lat="43.4473860" lon="-7.3415990">
        <ele>176.4</ele>
        <time>2021-07-23T12:53:51Z</time>
      </trkpt>
      <trkpt lat="43.4473730" lon="-7.3416120">
        <ele>176.8</ele>
        <time>2021-07-23T12:53:52Z</time>
      </trkpt>
      <trkpt lat="43.4473590" lon="-7.3416270">
        <ele>177.2</ele>
        <time>2021-07-23T12:53:53Z</time>
      </trkpt>
      <trkpt lat="43.4472800" lon="-7.3416990">
        <ele>177.2</ele>
        <time>2021-07-23T12:53:59Z</time>
      </trkpt>
      <trkpt lat="43.4471430" lon="-7.3417900">
        <ele>177.6</ele>
        <time>2021-07-23T12:54:08Z</time>
      </trkpt>
      <trkpt lat="43.4471250" lon="-7.3417950">
        <ele>178.0</ele>
        <time>2021-07-23T12:54:09Z</time>
      </trkpt>
      <trkpt lat="43.4471080" lon="-7.3418050">
        <ele>178.8</ele>
        <time>2021-07-23T12:54:10Z</time>
      </trkpt>
      <trkpt lat="43.4470930" lon="-7.3418060">
        <ele>179.2</ele>
        <time>2021-07-23T12:54:11Z</time>
      </trkpt>
      <trkpt lat="43.4470300" lon="-7.3418070">
        <ele>179.2</ele>
        <time>2021-07-23T12:54:15Z</time>
      </trkpt>
      <trkpt lat="43.4469390" lon="-7.3418110">
        <ele>179.6</ele>
        <time>2021-07-23T12:54:21Z</time>
      </trkpt>
      <trkpt lat="43.4469310" lon="-7.3418220">
        <ele>180.0</ele>
        <time>2021-07-23T12:54:22Z</time>
      </trkpt>
      <trkpt lat="43.4469230" lon="-7.3418330">
        <ele>180.4</ele>
        <time>2021-07-23T12:54:23Z</time>
      </trkpt>
      <trkpt lat="43.4469130" lon="-7.3418470">
        <ele>180.8</ele>
        <time>2021-07-23T12:54:24Z</time>
      </trkpt>
      <trkpt lat="43.4469010" lon="-7.3418600">
        <ele>181.2</ele>
        <time>2021-07-23T12:54:25Z</time>
      </trkpt>
      <trkpt lat="43.4468640" lon="-7.3419170">
        <ele>181.2</ele>
        <time>2021-07-23T12:54:28Z</time>
      </trkpt>
      <trkpt lat="43.4468430" lon="-7.3419450">
        <ele>181.2</ele>
        <time>2021-07-23T12:54:30Z</time>
      </trkpt>
      <trkpt lat="43.4468380" lon="-7.3419630">
        <ele>181.2</ele>
        <time>2021-07-23T12:54:32Z</time>
      </trkpt>
      <trkpt lat="43.4468270" lon="-7.3419190">
        <ele>181.2</ele>
        <time>2021-07-23T12:54:41Z</time>
      </trkpt>
      <trkpt lat="43.4468810" lon="-7.3418650">
        <ele>181.2</ele>
        <time>2021-07-23T12:54:45Z</time>
      </trkpt>
      <trkpt lat="43.4468970" lon="-7.3418450">
        <ele>181.2</ele>
        <time>2021-07-23T12:54:46Z</time>
      </trkpt>
      <trkpt lat="43.4469070" lon="-7.3418190">
        <ele>181.2</ele>
        <time>2021-07-23T12:54:47Z</time>
      </trkpt>
      <trkpt lat="43.4469150" lon="-7.3417590">
        <ele>181.2</ele>
        <time>2021-07-23T12:54:50Z</time>
      </trkpt>
      <trkpt lat="43.4469110" lon="-7.3417450">
        <ele>181.2</ele>
        <time>2021-07-23T12:54:52Z</time>
      </trkpt>
      <trkpt lat="43.4468950" lon="-7.3417060">
        <ele>181.2</ele>
        <time>2021-07-23T12:55:11Z</time>
      </trkpt>
      <trkpt lat="43.4468990" lon="-7.3416910">
        <ele>181.2</ele>
        <time>2021-07-23T12:55:12Z</time>
      </trkpt>
      <trkpt lat="43.4468920" lon="-7.3416610">
        <ele>181.2</ele>
        <time>2021-07-23T12:55:16Z</time>
      </trkpt>
      <trkpt lat="43.4468690" lon="-7.3416040">
        <ele>181.2</ele>
        <time>2021-07-23T12:55:53Z</time>
      </trkpt>
      <trkpt lat="43.4468690" lon="-7.3415830">
        <ele>181.2</ele>
        <time>2021-07-23T12:55:54Z</time>
      </trkpt>
      <trkpt lat="43.4468630" lon="-7.3415330">
        <ele>181.2</ele>
        <time>2021-07-23T12:55:56Z</time>
      </trkpt>
      <trkpt lat="43.4468430" lon="-7.3414160">
        <ele>181.2</ele>
        <time>2021-07-23T12:56:01Z</time>
      </trkpt>
      <trkpt lat="43.4468280" lon="-7.3413300">
        <ele>181.2</ele>
        <time>2021-07-23T12:56:04Z</time>
      </trkpt>
      <trkpt lat="43.4467880" lon="-7.3412360">
        <ele>181.2</ele>
        <time>2021-07-23T12:56:08Z</time>
      </trkpt>
      <trkpt lat="43.4467530" lon="-7.3411670">
        <ele>181.6</ele>
        <time>2021-07-23T12:56:11Z</time>
      </trkpt>
      <trkpt lat="43.4467420" lon="-7.3411460">
        <ele>182.2</ele>
        <time>2021-07-23T12:56:12Z</time>
      </trkpt>
      <trkpt lat="43.4467320" lon="-7.3411270">
        <ele>182.6</ele>
        <time>2021-07-23T12:56:13Z</time>
      </trkpt>
      <trkpt lat="43.4467240" lon="-7.3411040">
        <ele>183.4</ele>
        <time>2021-07-23T12:56:14Z</time>
      </trkpt>
      <trkpt lat="43.4467120" lon="-7.3410620">
        <ele>183.4</ele>
        <time>2021-07-23T12:56:16Z</time>
      </trkpt>
      <trkpt lat="43.4467040" lon="-7.3410430">
        <ele>183.8</ele>
        <time>2021-07-23T12:56:17Z</time>
      </trkpt>
      <trkpt lat="43.4466970" lon="-7.3410210">
        <ele>184.2</ele>
        <time>2021-07-23T12:56:18Z</time>
      </trkpt>
      <trkpt lat="43.4466910" lon="-7.3409990">
        <ele>184.6</ele>
        <time>2021-07-23T12:56:19Z</time>
      </trkpt>
      <trkpt lat="43.4466830" lon="-7.3409750">
        <ele>185.2</ele>
        <time>2021-07-23T12:56:20Z</time>
      </trkpt>
      <trkpt lat="43.4466780" lon="-7.3409540">
        <ele>185.6</ele>
        <time>2021-07-23T12:56:21Z</time>
      </trkpt>
      <trkpt lat="43.4466620" lon="-7.3409120">
        <ele>185.6</ele>
        <time>2021-07-23T12:56:23Z</time>
      </trkpt>
      <trkpt lat="43.4466430" lon="-7.3408660">
        <ele>186.0</ele>
        <time>2021-07-23T12:56:25Z</time>
      </trkpt>
      <trkpt lat="43.4466330" lon="-7.3408430">
        <ele>186.4</ele>
        <time>2021-07-23T12:56:26Z</time>
      </trkpt>
      <trkpt lat="43.4466260" lon="-7.3408230">
        <ele>186.8</ele>
        <time>2021-07-23T12:56:27Z</time>
      </trkpt>
      <trkpt lat="43.4466160" lon="-7.3408050">
        <ele>187.2</ele>
        <time>2021-07-23T12:56:28Z</time>
      </trkpt>
      <trkpt lat="43.4466090" lon="-7.3407880">
        <ele>187.6</ele>
        <time>2021-07-23T12:56:29Z</time>
      </trkpt>
      <trkpt lat="43.4465910" lon="-7.3407470">
        <ele>187.6</ele>
        <time>2021-07-23T12:56:31Z</time>
      </trkpt>
      <trkpt lat="43.4465660" lon="-7.3407200">
        <ele>188.4</ele>
        <time>2021-07-23T12:56:33Z</time>
      </trkpt>
      <trkpt lat="43.4465560" lon="-7.3407030">
        <ele>188.8</ele>
        <time>2021-07-23T12:56:34Z</time>
      </trkpt>
      <trkpt lat="43.4465440" lon="-7.3406890">
        <ele>189.4</ele>
        <time>2021-07-23T12:56:35Z</time>
      </trkpt>
      <trkpt lat="43.4465310" lon="-7.3406740">
        <ele>189.8</ele>
        <time>2021-07-23T12:56:36Z</time>
      </trkpt>
      <trkpt lat="43.4465030" lon="-7.3406500">
        <ele>189.8</ele>
        <time>2021-07-23T12:56:38Z</time>
      </trkpt>
      <trkpt lat="43.4464700" lon="-7.3406190">
        <ele>190.2</ele>
        <time>2021-07-23T12:56:41Z</time>
      </trkpt>
      <trkpt lat="43.4464600" lon="-7.3406050">
        <ele>190.6</ele>
        <time>2021-07-23T12:56:42Z</time>
      </trkpt>
      <trkpt lat="43.4464490" lon="-7.3405950">
        <ele>191.0</ele>
        <time>2021-07-23T12:56:43Z</time>
      </trkpt>
      <trkpt lat="43.4464390" lon="-7.3405760">
        <ele>191.4</ele>
        <time>2021-07-23T12:56:44Z</time>
      </trkpt>
      <trkpt lat="43.4464320" lon="-7.3405530">
        <ele>192.0</ele>
        <time>2021-07-23T12:56:45Z</time>
      </trkpt>
      <trkpt lat="43.4463890" lon="-7.3404720">
        <ele>192.4</ele>
        <time>2021-07-23T12:56:50Z</time>
      </trkpt>
      <trkpt lat="43.4463810" lon="-7.3404560">
        <ele>192.8</ele>
        <time>2021-07-23T12:56:51Z</time>
      </trkpt>
      <trkpt lat="43.4463710" lon="-7.3404380">
        <ele>193.2</ele>
        <time>2021-07-23T12:56:52Z</time>
      </trkpt>
      <trkpt lat="43.4463600" lon="-7.3404180">
        <ele>193.8</ele>
        <time>2021-07-23T12:56:53Z</time>
      </trkpt>
      <trkpt lat="43.4463490" lon="-7.3403980">
        <ele>194.2</ele>
        <time>2021-07-23T12:56:54Z</time>
      </trkpt>
      <trkpt lat="43.4463090" lon="-7.3403400">
        <ele>194.6</ele>
        <time>2021-07-23T12:56:57Z</time>
      </trkpt>
      <trkpt lat="43.4462930" lon="-7.3403230">
        <ele>195.6</ele>
        <time>2021-07-23T12:56:58Z</time>
      </trkpt>
      <trkpt lat="43.4462780" lon="-7.3403090">
        <ele>196.0</ele>
        <time>2021-07-23T12:56:59Z</time>
      </trkpt>
      <trkpt lat="43.4462650" lon="-7.3403020">
        <ele>196.4</ele>
        <time>2021-07-23T12:57:00Z</time>
      </trkpt>
      <trkpt lat="43.4462040" lon="-7.3403010">
        <ele>196.8</ele>
        <time>2021-07-23T12:57:05Z</time>
      </trkpt>
      <trkpt lat="43.4462030" lon="-7.3403020">
        <ele>197.2</ele>
        <time>2021-07-23T12:57:06Z</time>
      </trkpt>
      <trkpt lat="43.4462010" lon="-7.3403050">
        <ele>197.6</ele>
        <time>2021-07-23T12:57:07Z</time>
      </trkpt>
      <trkpt lat="43.4458580" lon="-7.3401550">
        <ele>202.6</ele>
        <time>2021-07-23T12:58:16Z</time>
      </trkpt>
      <trkpt lat="43.4458440" lon="-7.3401540">
        <ele>202.6</ele>
        <time>2021-07-23T12:58:17Z</time>
      </trkpt>
      <trkpt lat="43.4458340" lon="-7.3401560">
        <ele>202.6</ele>
        <time>2021-07-23T12:58:18Z</time>
      </trkpt>
      <trkpt lat="43.4457430" lon="-7.3401460">
        <ele>202.6</ele>
        <time>2021-07-23T12:58:25Z</time>
      </trkpt>
      <trkpt lat="43.4456710" lon="-7.3401370">
        <ele>203.0</ele>
        <time>2021-07-23T12:58:31Z</time>
      </trkpt>
      <trkpt lat="43.4456590" lon="-7.3401390">
        <ele>203.4</ele>
        <time>2021-07-23T12:58:32Z</time>
      </trkpt>
      <trkpt lat="43.4456430" lon="-7.3401390">
        <ele>203.8</ele>
        <time>2021-07-23T12:58:33Z</time>
      </trkpt>
      <trkpt lat="43.4456290" lon="-7.3401390">
        <ele>204.2</ele>
        <time>2021-07-23T12:58:34Z</time>
      </trkpt>
      <trkpt lat="43.4456130" lon="-7.3401400">
        <ele>204.6</ele>
        <time>2021-07-23T12:58:35Z</time>
      </trkpt>
      <trkpt lat="43.4455150" lon="-7.3401390">
        <ele>204.6</ele>
        <time>2021-07-23T12:58:40Z</time>
      </trkpt>
      <trkpt lat="43.4454190" lon="-7.3401570">
        <ele>204.6</ele>
        <time>2021-07-23T12:58:45Z</time>
      </trkpt>
      <trkpt lat="43.4454030" lon="-7.3401610">
        <ele>204.6</ele>
        <time>2021-07-23T12:58:46Z</time>
      </trkpt>
      <trkpt lat="43.4453870" lon="-7.3401660">
        <ele>204.6</ele>
        <time>2021-07-23T12:58:47Z</time>
      </trkpt>
      <trkpt lat="43.4452770" lon="-7.3401970">
        <ele>204.6</ele>
        <time>2021-07-23T12:58:53Z</time>
      </trkpt>
      <trkpt lat="43.4451620" lon="-7.3402510">
        <ele>204.6</ele>
        <time>2021-07-23T12:58:59Z</time>
      </trkpt>
      <trkpt lat="43.4450590" lon="-7.3403450">
        <ele>204.6</ele>
        <time>2021-07-23T12:59:06Z</time>
      </trkpt>
      <trkpt lat="43.4449970" lon="-7.3404060">
        <ele>204.6</ele>
        <time>2021-07-23T12:59:09Z</time>
      </trkpt>
      <trkpt lat="43.4449170" lon="-7.3404840">
        <ele>204.6</ele>
        <time>2021-07-23T12:59:13Z</time>
      </trkpt>
      <trkpt lat="43.4447670" lon="-7.3406670">
        <ele>204.6</ele>
        <time>2021-07-23T12:59:20Z</time>
      </trkpt>
      <trkpt lat="43.4447110" lon="-7.3407420">
        <ele>204.6</ele>
        <time>2021-07-23T12:59:23Z</time>
      </trkpt>
      <trkpt lat="43.4446190" lon="-7.3408430">
        <ele>204.6</ele>
        <time>2021-07-23T12:59:27Z</time>
      </trkpt>
      <trkpt lat="43.4444930" lon="-7.3410060">
        <ele>204.6</ele>
        <time>2021-07-23T12:59:32Z</time>
      </trkpt>
      <trkpt lat="43.4444460" lon="-7.3410470">
        <ele>204.6</ele>
        <time>2021-07-23T12:59:34Z</time>
      </trkpt>
      <trkpt lat="43.4443780" lon="-7.3411110">
        <ele>204.6</ele>
        <time>2021-07-23T12:59:39Z</time>
      </trkpt>
      <trkpt lat="43.4443380" lon="-7.3411910">
        <ele>204.6</ele>
        <time>2021-07-23T12:59:41Z</time>
      </trkpt>
      <trkpt lat="43.4442680" lon="-7.3412880">
        <ele>204.6</ele>
        <time>2021-07-23T12:59:44Z</time>
      </trkpt>
      <trkpt lat="43.4441650" lon="-7.3414050">
        <ele>204.2</ele>
        <time>2021-07-23T12:59:47Z</time>
      </trkpt>
      <trkpt lat="43.4441250" lon="-7.3414440">
        <ele>203.8</ele>
        <time>2021-07-23T12:59:48Z</time>
      </trkpt>
      <trkpt lat="43.4440900" lon="-7.3414890">
        <ele>203.2</ele>
        <time>2021-07-23T12:59:49Z</time>
      </trkpt>
      <trkpt lat="43.4440540" lon="-7.3415380">
        <ele>202.4</ele>
        <time>2021-07-23T12:59:50Z</time>
      </trkpt>
      <trkpt lat="43.4440210" lon="-7.3415920">
        <ele>202.0</ele>
        <time>2021-07-23T12:59:51Z</time>
      </trkpt>
      <trkpt lat="43.4439910" lon="-7.3416440">
        <ele>201.6</ele>
        <time>2021-07-23T12:59:52Z</time>
      </trkpt>
      <trkpt lat="43.4439620" lon="-7.3416910">
        <ele>201.2</ele>
        <time>2021-07-23T12:59:53Z</time>
      </trkpt>
      <trkpt lat="43.4439350" lon="-7.3417370">
        <ele>200.8</ele>
        <time>2021-07-23T12:59:54Z</time>
      </trkpt>
      <trkpt lat="43.4439070" lon="-7.3417750">
        <ele>200.4</ele>
        <time>2021-07-23T12:59:55Z</time>
      </trkpt>
      <trkpt lat="43.4438810" lon="-7.3418150">
        <ele>200.4</ele>
        <time>2021-07-23T12:59:56Z</time>
      </trkpt>
      <trkpt lat="43.4438510" lon="-7.3418530">
        <ele>200.4</ele>
        <time>2021-07-23T12:59:57Z</time>
      </trkpt>
      <trkpt lat="43.4437860" lon="-7.3419180">
        <ele>200.0</ele>
        <time>2021-07-23T12:59:59Z</time>
      </trkpt>
      <trkpt lat="43.4437640" lon="-7.3419420">
        <ele>199.6</ele>
        <time>2021-07-23T13:00:00Z</time>
      </trkpt>
      <trkpt lat="43.4437420" lon="-7.3419750">
        <ele>199.2</ele>
        <time>2021-07-23T13:00:01Z</time>
      </trkpt>
      <trkpt lat="43.4437270" lon="-7.3420090">
        <ele>198.8</ele>
        <time>2021-07-23T13:00:02Z</time>
      </trkpt>
      <trkpt lat="43.4437080" lon="-7.3420350">
        <ele>198.4</ele>
        <time>2021-07-23T13:00:03Z</time>
      </trkpt>
      <trkpt lat="43.4436030" lon="-7.3421210">
        <ele>198.4</ele>
        <time>2021-07-23T13:00:08Z</time>
      </trkpt>
      <trkpt lat="43.4435780" lon="-7.3421440">
        <ele>198.0</ele>
        <time>2021-07-23T13:00:09Z</time>
      </trkpt>
      <trkpt lat="43.4435500" lon="-7.3421610">
        <ele>197.6</ele>
        <time>2021-07-23T13:00:10Z</time>
      </trkpt>
      <trkpt lat="43.4435280" lon="-7.3421760">
        <ele>197.2</ele>
        <time>2021-07-23T13:00:11Z</time>
      </trkpt>
      <trkpt lat="43.4435020" lon="-7.3421950">
        <ele>196.8</ele>
        <time>2021-07-23T13:00:12Z</time>
      </trkpt>
      <trkpt lat="43.4434750" lon="-7.3422100">
        <ele>196.4</ele>
        <time>2021-07-23T13:00:13Z</time>
      </trkpt>
      <trkpt lat="43.4434100" lon="-7.3422650">
        <ele>196.0</ele>
        <time>2021-07-23T13:00:15Z</time>
      </trkpt>
      <trkpt lat="43.4433880" lon="-7.3422950">
        <ele>195.6</ele>
        <time>2021-07-23T13:00:16Z</time>
      </trkpt>
      <trkpt lat="43.4433720" lon="-7.3423150">
        <ele>195.2</ele>
        <time>2021-07-23T13:00:17Z</time>
      </trkpt>
      <trkpt lat="43.4433560" lon="-7.3423310">
        <ele>194.6</ele>
        <time>2021-07-23T13:00:18Z</time>
      </trkpt>
      <trkpt lat="43.4433440" lon="-7.3423520">
        <ele>194.2</ele>
        <time>2021-07-23T13:00:19Z</time>
      </trkpt>
      <trkpt lat="43.4433310" lon="-7.3423720">
        <ele>194.2</ele>
        <time>2021-07-23T13:00:20Z</time>
      </trkpt>
      <trkpt lat="43.4433190" lon="-7.3423910">
        <ele>194.2</ele>
        <time>2021-07-23T13:00:21Z</time>
      </trkpt>
      <trkpt lat="43.4433090" lon="-7.3424110">
        <ele>194.2</ele>
        <time>2021-07-23T13:00:22Z</time>
      </trkpt>
      <trkpt lat="43.4433040" lon="-7.3424410">
        <ele>194.2</ele>
        <time>2021-07-23T13:00:23Z</time>
      </trkpt>
      <trkpt lat="43.4432980" lon="-7.3425070">
        <ele>194.2</ele>
        <time>2021-07-23T13:00:25Z</time>
      </trkpt>
      <trkpt lat="43.4432930" lon="-7.3426120">
        <ele>194.2</ele>
        <time>2021-07-23T13:00:28Z</time>
      </trkpt>
      <trkpt lat="43.4432670" lon="-7.3427260">
        <ele>194.2</ele>
        <time>2021-07-23T13:00:32Z</time>
      </trkpt>
      <trkpt lat="43.4431880" lon="-7.3429260">
        <ele>194.2</ele>
        <time>2021-07-23T13:00:40Z</time>
      </trkpt>
      <trkpt lat="43.4431280" lon="-7.3430900">
        <ele>194.2</ele>
        <time>2021-07-23T13:00:45Z</time>
      </trkpt>
      <trkpt lat="43.4431140" lon="-7.3431250">
        <ele>194.2</ele>
        <time>2021-07-23T13:00:46Z</time>
      </trkpt>
      <trkpt lat="43.4430840" lon="-7.3431890">
        <ele>194.2</ele>
        <time>2021-07-23T13:00:48Z</time>
      </trkpt>
      <trkpt lat="43.4430490" lon="-7.3432500">
        <ele>194.2</ele>
        <time>2021-07-23T13:00:50Z</time>
      </trkpt>
      <trkpt lat="43.4430110" lon="-7.3433180">
        <ele>194.2</ele>
        <time>2021-07-23T13:00:53Z</time>
      </trkpt>
      <trkpt lat="43.4429530" lon="-7.3433910">
        <ele>194.2</ele>
        <time>2021-07-23T13:00:56Z</time>
      </trkpt>
      <trkpt lat="43.4429090" lon="-7.3434590">
        <ele>194.2</ele>
        <time>2021-07-23T13:00:58Z</time>
      </trkpt>
      <trkpt lat="43.4428560" lon="-7.3435080">
        <ele>194.2</ele>
        <time>2021-07-23T13:01:00Z</time>
      </trkpt>
      <trkpt lat="43.4426690" lon="-7.3436650">
        <ele>194.2</ele>
        <time>2021-07-23T13:01:08Z</time>
      </trkpt>
      <trkpt lat="43.4426550" lon="-7.3436800">
        <ele>194.2</ele>
        <time>2021-07-23T13:01:09Z</time>
      </trkpt>
      <trkpt lat="43.4426280" lon="-7.3437080">
        <ele>194.2</ele>
        <time>2021-07-23T13:01:11Z</time>
      </trkpt>
      <trkpt lat="43.4426070" lon="-7.3437160">
        <ele>194.2</ele>
        <time>2021-07-23T13:01:12Z</time>
      </trkpt>
      <trkpt lat="43.4425660" lon="-7.3437480">
        <ele>194.2</ele>
        <time>2021-07-23T13:01:14Z</time>
      </trkpt>
      <trkpt lat="43.4425450" lon="-7.3437710">
        <ele>194.2</ele>
        <time>2021-07-23T13:01:15Z</time>
      </trkpt>
      <trkpt lat="43.4425110" lon="-7.3437950">
        <ele>194.2</ele>
        <time>2021-07-23T13:01:17Z</time>
      </trkpt>
      <trkpt lat="43.4424250" lon="-7.3439010">
        <ele>194.2</ele>
        <time>2021-07-23T13:01:21Z</time>
      </trkpt>
      <trkpt lat="43.4423210" lon="-7.3440430">
        <ele>194.2</ele>
        <time>2021-07-23T13:01:26Z</time>
      </trkpt>
      <trkpt lat="43.4423030" lon="-7.3440680">
        <ele>193.8</ele>
        <time>2021-07-23T13:01:27Z</time>
      </trkpt>
      <trkpt lat="43.4422920" lon="-7.3440910">
        <ele>193.4</ele>
        <time>2021-07-23T13:01:28Z</time>
      </trkpt>
      <trkpt lat="43.4422820" lon="-7.3441170">
        <ele>192.6</ele>
        <time>2021-07-23T13:01:29Z</time>
      </trkpt>
      <trkpt lat="43.4422750" lon="-7.3441530">
        <ele>192.2</ele>
        <time>2021-07-23T13:01:30Z</time>
      </trkpt>
      <trkpt lat="43.4422770" lon="-7.3442260">
        <ele>191.8</ele>
        <time>2021-07-23T13:01:32Z</time>
      </trkpt>
      <trkpt lat="43.4422870" lon="-7.3442760">
        <ele>191.4</ele>
        <time>2021-07-23T13:01:33Z</time>
      </trkpt>
      <trkpt lat="43.4422920" lon="-7.3443260">
        <ele>191.0</ele>
        <time>2021-07-23T13:01:34Z</time>
      </trkpt>
      <trkpt lat="43.4423000" lon="-7.3443790">
        <ele>190.6</ele>
        <time>2021-07-23T13:01:35Z</time>
      </trkpt>
      <trkpt lat="43.4423110" lon="-7.3444290">
        <ele>190.2</ele>
        <time>2021-07-23T13:01:36Z</time>
      </trkpt>
      <trkpt lat="43.4423250" lon="-7.3444640">
        <ele>190.2</ele>
        <time>2021-07-23T13:01:37Z</time>
      </trkpt>
      <trkpt lat="43.4423720" lon="-7.3445660">
        <ele>189.8</ele>
        <time>2021-07-23T13:01:40Z</time>
      </trkpt>
      <trkpt lat="43.4423820" lon="-7.3445950">
        <ele>189.2</ele>
        <time>2021-07-23T13:01:41Z</time>
      </trkpt>
      <trkpt lat="43.4423940" lon="-7.3446230">
        <ele>188.8</ele>
        <time>2021-07-23T13:01:42Z</time>
      </trkpt>
      <trkpt lat="43.4424140" lon="-7.3446460">
        <ele>188.4</ele>
        <time>2021-07-23T13:01:43Z</time>
      </trkpt>
      <trkpt lat="43.4424320" lon="-7.3446670">
        <ele>188.0</ele>
        <time>2021-07-23T13:01:44Z</time>
      </trkpt>
      <trkpt lat="43.4424580" lon="-7.3446880">
        <ele>187.6</ele>
        <time>2021-07-23T13:01:45Z</time>
      </trkpt>
      <trkpt lat="43.4424850" lon="-7.3447050">
        <ele>187.2</ele>
        <time>2021-07-23T13:01:46Z</time>
      </trkpt>
      <trkpt lat="43.4425080" lon="-7.3447230">
        <ele>186.6</ele>
        <time>2021-07-23T13:01:47Z</time>
      </trkpt>
      <trkpt lat="43.4425300" lon="-7.3447380">
        <ele>186.2</ele>
        <time>2021-07-23T13:01:48Z</time>
      </trkpt>
      <trkpt lat="43.4425440" lon="-7.3447550">
        <ele>185.8</ele>
        <time>2021-07-23T13:01:49Z</time>
      </trkpt>
      <trkpt lat="43.4425500" lon="-7.3447800">
        <ele>185.8</ele>
        <time>2021-07-23T13:01:50Z</time>
      </trkpt>
      <trkpt lat="43.4425570" lon="-7.3448150">
        <ele>185.4</ele>
        <time>2021-07-23T13:01:51Z</time>
      </trkpt>
      <trkpt lat="43.4425610" lon="-7.3448440">
        <ele>185.0</ele>
        <time>2021-07-23T13:01:52Z</time>
      </trkpt>
      <trkpt lat="43.4425590" lon="-7.3448810">
        <ele>184.6</ele>
        <time>2021-07-23T13:01:53Z</time>
      </trkpt>
      <trkpt lat="43.4425580" lon="-7.3449170">
        <ele>183.8</ele>
        <time>2021-07-23T13:01:54Z</time>
      </trkpt>
      <trkpt lat="43.4425490" lon="-7.3449560">
        <ele>183.8</ele>
        <time>2021-07-23T13:01:55Z</time>
      </trkpt>
      <trkpt lat="43.4424530" lon="-7.3451790">
        <ele>183.8</ele>
        <time>2021-07-23T13:02:00Z</time>
      </trkpt>
      <trkpt lat="43.4423650" lon="-7.3452940">
        <ele>183.8</ele>
        <time>2021-07-23T13:02:04Z</time>
      </trkpt>
      <trkpt lat="43.4423500" lon="-7.3453120">
        <ele>183.4</ele>
        <time>2021-07-23T13:02:05Z</time>
      </trkpt>
      <trkpt lat="43.4423400" lon="-7.3453350">
        <ele>183.0</ele>
        <time>2021-07-23T13:02:06Z</time>
      </trkpt>
      <trkpt lat="43.4423350" lon="-7.3453690">
        <ele>182.6</ele>
        <time>2021-07-23T13:02:07Z</time>
      </trkpt>
      <trkpt lat="43.4423430" lon="-7.3453940">
        <ele>182.2</ele>
        <time>2021-07-23T13:02:08Z</time>
      </trkpt>
      <trkpt lat="43.4423570" lon="-7.3454250">
        <ele>181.8</ele>
        <time>2021-07-23T13:02:09Z</time>
      </trkpt>
      <trkpt lat="43.4423720" lon="-7.3454560">
        <ele>181.8</ele>
        <time>2021-07-23T13:02:10Z</time>
      </trkpt>
      <trkpt lat="43.4424230" lon="-7.3455840">
        <ele>181.2</ele>
        <time>2021-07-23T13:02:13Z</time>
      </trkpt>
      <trkpt lat="43.4424500" lon="-7.3456330">
        <ele>180.8</ele>
        <time>2021-07-23T13:02:14Z</time>
      </trkpt>
      <trkpt lat="43.4424790" lon="-7.3456780">
        <ele>180.4</ele>
        <time>2021-07-23T13:02:15Z</time>
      </trkpt>
      <trkpt lat="43.4425130" lon="-7.3457210">
        <ele>180.0</ele>
        <time>2021-07-23T13:02:16Z</time>
      </trkpt>
      <trkpt lat="43.4425430" lon="-7.3457590">
        <ele>179.4</ele>
        <time>2021-07-23T13:02:17Z</time>
      </trkpt>
      <trkpt lat="43.4425680" lon="-7.3457970">
        <ele>179.0</ele>
        <time>2021-07-23T13:02:18Z</time>
      </trkpt>
      <trkpt lat="43.4425940" lon="-7.3458380">
        <ele>178.6</ele>
        <time>2021-07-23T13:02:19Z</time>
      </trkpt>
      <trkpt lat="43.4426170" lon="-7.3458720">
        <ele>178.2</ele>
        <time>2021-07-23T13:02:20Z</time>
      </trkpt>
      <trkpt lat="43.4426430" lon="-7.3459180">
        <ele>177.8</ele>
        <time>2021-07-23T13:02:21Z</time>
      </trkpt>
      <trkpt lat="43.4426700" lon="-7.3459680">
        <ele>177.4</ele>
        <time>2021-07-23T13:02:22Z</time>
      </trkpt>
      <trkpt lat="43.4426950" lon="-7.3460190">
        <ele>176.8</ele>
        <time>2021-07-23T13:02:23Z</time>
      </trkpt>
      <trkpt lat="43.4427220" lon="-7.3460670">
        <ele>176.4</ele>
        <time>2021-07-23T13:02:24Z</time>
      </trkpt>
      <trkpt lat="43.4427490" lon="-7.3461150">
        <ele>176.0</ele>
        <time>2021-07-23T13:02:25Z</time>
      </trkpt>
      <trkpt lat="43.4427730" lon="-7.3461650">
        <ele>175.6</ele>
        <time>2021-07-23T13:02:26Z</time>
      </trkpt>
      <trkpt lat="43.4427940" lon="-7.3462060">
        <ele>175.0</ele>
        <time>2021-07-23T13:02:27Z</time>
      </trkpt>
      <trkpt lat="43.4428150" lon="-7.3462440">
        <ele>174.4</ele>
        <time>2021-07-23T13:02:28Z</time>
      </trkpt>
      <trkpt lat="43.4428410" lon="-7.3462830">
        <ele>173.8</ele>
        <time>2021-07-23T13:02:29Z</time>
      </trkpt>
      <trkpt lat="43.4428660" lon="-7.3463340">
        <ele>173.2</ele>
        <time>2021-07-23T13:02:30Z</time>
      </trkpt>
      <trkpt lat="43.4428910" lon="-7.3463980">
        <ele>172.6</ele>
        <time>2021-07-23T13:02:31Z</time>
      </trkpt>
      <trkpt lat="43.4429190" lon="-7.3465040">
        <ele>171.2</ele>
        <time>2021-07-23T13:02:33Z</time>
      </trkpt>
      <trkpt lat="43.4429340" lon="-7.3465650">
        <ele>170.6</ele>
        <time>2021-07-23T13:02:34Z</time>
      </trkpt>
      <trkpt lat="43.4429460" lon="-7.3466250">
        <ele>170.0</ele>
        <time>2021-07-23T13:02:35Z</time>
      </trkpt>
      <trkpt lat="43.4429620" lon="-7.3466890">
        <ele>169.6</ele>
        <time>2021-07-23T13:02:36Z</time>
      </trkpt>
      <trkpt lat="43.4429780" lon="-7.3467500">
        <ele>169.0</ele>
        <time>2021-07-23T13:02:37Z</time>
      </trkpt>
      <trkpt lat="43.4429960" lon="-7.3468080">
        <ele>168.4</ele>
        <time>2021-07-23T13:02:38Z</time>
      </trkpt>
      <trkpt lat="43.4430160" lon="-7.3468680">
        <ele>167.6</ele>
        <time>2021-07-23T13:02:39Z</time>
      </trkpt>
      <trkpt lat="43.4430360" lon="-7.3469260">
        <ele>167.0</ele>
        <time>2021-07-23T13:02:40Z</time>
      </trkpt>
      <trkpt lat="43.4430540" lon="-7.3469880">
        <ele>166.4</ele>
        <time>2021-07-23T13:02:41Z</time>
      </trkpt>
      <trkpt lat="43.4430710" lon="-7.3470510">
        <ele>165.6</ele>
        <time>2021-07-23T13:02:42Z</time>
      </trkpt>
      <trkpt lat="43.4430800" lon="-7.3471090">
        <ele>165.0</ele>
        <time>2021-07-23T13:02:43Z</time>
      </trkpt>
      <trkpt lat="43.4430900" lon="-7.3471680">
        <ele>164.2</ele>
        <time>2021-07-23T13:02:44Z</time>
      </trkpt>
      <trkpt lat="43.4430960" lon="-7.3472260">
        <ele>163.6</ele>
        <time>2021-07-23T13:02:45Z</time>
      </trkpt>
      <trkpt lat="43.4430990" lon="-7.3472840">
        <ele>162.8</ele>
        <time>2021-07-23T13:02:46Z</time>
      </trkpt>
      <trkpt lat="43.4431000" lon="-7.3473330">
        <ele>162.2</ele>
        <time>2021-07-23T13:02:47Z</time>
      </trkpt>
      <trkpt lat="43.4430990" lon="-7.3473860">
        <ele>161.4</ele>
        <time>2021-07-23T13:02:48Z</time>
      </trkpt>
      <trkpt lat="43.4431010" lon="-7.3474370">
        <ele>160.8</ele>
        <time>2021-07-23T13:02:49Z</time>
      </trkpt>
      <trkpt lat="43.4430960" lon="-7.3474910">
        <ele>159.2</ele>
        <time>2021-07-23T13:02:50Z</time>
      </trkpt>
      <trkpt lat="43.4430900" lon="-7.3475480">
        <ele>158.6</ele>
        <time>2021-07-23T13:02:51Z</time>
      </trkpt>
      <trkpt lat="43.4430830" lon="-7.3475990">
        <ele>158.2</ele>
        <time>2021-07-23T13:02:52Z</time>
      </trkpt>
      <trkpt lat="43.4430800" lon="-7.3476400">
        <ele>157.6</ele>
        <time>2021-07-23T13:02:53Z</time>
      </trkpt>
      <trkpt lat="43.4430690" lon="-7.3476870">
        <ele>157.0</ele>
        <time>2021-07-23T13:02:54Z</time>
      </trkpt>
      <trkpt lat="43.4430560" lon="-7.3477380">
        <ele>156.4</ele>
        <time>2021-07-23T13:02:55Z</time>
      </trkpt>
      <trkpt lat="43.4430420" lon="-7.3477990">
        <ele>156.4</ele>
        <time>2021-07-23T13:02:56Z</time>
      </trkpt>
      <trkpt lat="43.4430300" lon="-7.3478610">
        <ele>156.0</ele>
        <time>2021-07-23T13:02:57Z</time>
      </trkpt>
      <trkpt lat="43.4430150" lon="-7.3479280">
        <ele>155.6</ele>
        <time>2021-07-23T13:02:58Z</time>
      </trkpt>
      <trkpt lat="43.4430030" lon="-7.3479970">
        <ele>155.0</ele>
        <time>2021-07-23T13:02:59Z</time>
      </trkpt>
      <trkpt lat="43.4429870" lon="-7.3480630">
        <ele>154.6</ele>
        <time>2021-07-23T13:03:00Z</time>
      </trkpt>
      <trkpt lat="43.4429730" lon="-7.3481370">
        <ele>154.2</ele>
        <time>2021-07-23T13:03:01Z</time>
      </trkpt>
      <trkpt lat="43.4429610" lon="-7.3482010">
        <ele>153.8</ele>
        <time>2021-07-23T13:03:02Z</time>
      </trkpt>
      <trkpt lat="43.4429490" lon="-7.3482550">
        <ele>153.4</ele>
        <time>2021-07-23T13:03:03Z</time>
      </trkpt>
      <trkpt lat="43.4429410" lon="-7.3482970">
        <ele>153.0</ele>
        <time>2021-07-23T13:03:04Z</time>
      </trkpt>
      <trkpt lat="43.4429310" lon="-7.3483340">
        <ele>152.4</ele>
        <time>2021-07-23T13:03:05Z</time>
      </trkpt>
      <trkpt lat="43.4429260" lon="-7.3483640">
        <ele>152.0</ele>
        <time>2021-07-23T13:03:06Z</time>
      </trkpt>
      <trkpt lat="43.4429180" lon="-7.3484010">
        <ele>151.6</ele>
        <time>2021-07-23T13:03:08Z</time>
      </trkpt>
      <trkpt lat="43.4429170" lon="-7.3484010">
        <ele>151.0</ele>
        <time>2021-07-23T13:03:09Z</time>
      </trkpt>
      <trkpt lat="43.4429150" lon="-7.3484030">
        <ele>150.6</ele>
        <time>2021-07-23T13:03:10Z</time>
      </trkpt>
      <trkpt lat="43.4428980" lon="-7.3484380">
        <ele>149.6</ele>
        <time>2021-07-23T13:07:09Z</time>
      </trkpt>
      <trkpt lat="43.4428890" lon="-7.3484640">
        <ele>149.6</ele>
        <time>2021-07-23T13:07:10Z</time>
      </trkpt>
      <trkpt lat="43.4428750" lon="-7.3485060">
        <ele>149.6</ele>
        <time>2021-07-23T13:07:11Z</time>
      </trkpt>
      <trkpt lat="43.4428030" lon="-7.3487680">
        <ele>149.2</ele>
        <time>2021-07-23T13:07:15Z</time>
      </trkpt>
      <trkpt lat="43.4427820" lon="-7.3488440">
        <ele>148.8</ele>
        <time>2021-07-23T13:07:16Z</time>
      </trkpt>
      <trkpt lat="43.4427650" lon="-7.3489240">
        <ele>148.4</ele>
        <time>2021-07-23T13:07:17Z</time>
      </trkpt>
      <trkpt lat="43.4427490" lon="-7.3490040">
        <ele>147.6</ele>
        <time>2021-07-23T13:07:18Z</time>
      </trkpt>
      <trkpt lat="43.4427330" lon="-7.3490910">
        <ele>147.0</ele>
        <time>2021-07-23T13:07:19Z</time>
      </trkpt>
      <trkpt lat="43.4427190" lon="-7.3491720">
        <ele>146.4</ele>
        <time>2021-07-23T13:07:20Z</time>
      </trkpt>
      <trkpt lat="43.4427090" lon="-7.3492490">
        <ele>145.6</ele>
        <time>2021-07-23T13:07:21Z</time>
      </trkpt>
      <trkpt lat="43.4427000" lon="-7.3493210">
        <ele>144.8</ele>
        <time>2021-07-23T13:07:22Z</time>
      </trkpt>
      <trkpt lat="43.4426910" lon="-7.3493740">
        <ele>143.0</ele>
        <time>2021-07-23T13:07:23Z</time>
      </trkpt>
      <trkpt lat="43.4426830" lon="-7.3494190">
        <ele>142.0</ele>
        <time>2021-07-23T13:07:24Z</time>
      </trkpt>
      <trkpt lat="43.4426760" lon="-7.3494530">
        <ele>141.2</ele>
        <time>2021-07-23T13:07:25Z</time>
      </trkpt>
      <trkpt lat="43.4426670" lon="-7.3494880">
        <ele>140.2</ele>
        <time>2021-07-23T13:07:26Z</time>
      </trkpt>
      <trkpt lat="43.4426530" lon="-7.3495170">
        <ele>139.2</ele>
        <time>2021-07-23T13:07:27Z</time>
      </trkpt>
      <trkpt lat="43.4426380" lon="-7.3495390">
        <ele>138.6</ele>
        <time>2021-07-23T13:07:28Z</time>
      </trkpt>
      <trkpt lat="43.4426190" lon="-7.3495590">
        <ele>138.0</ele>
        <time>2021-07-23T13:07:29Z</time>
      </trkpt>
      <trkpt lat="43.4425960" lon="-7.3495710">
        <ele>137.4</ele>
        <time>2021-07-23T13:07:30Z</time>
      </trkpt>
      <trkpt lat="43.4425750" lon="-7.3495780">
        <ele>136.8</ele>
        <time>2021-07-23T13:07:31Z</time>
      </trkpt>
      <trkpt lat="43.4425550" lon="-7.3495870">
        <ele>136.0</ele>
        <time>2021-07-23T13:07:32Z</time>
      </trkpt>
      <trkpt lat="43.4425230" lon="-7.3496030">
        <ele>136.0</ele>
        <time>2021-07-23T13:07:34Z</time>
      </trkpt>
      <trkpt lat="43.4425090" lon="-7.3496060">
        <ele>136.0</ele>
        <time>2021-07-23T13:07:35Z</time>
      </trkpt>
      <trkpt lat="43.4424860" lon="-7.3495980">
        <ele>136.0</ele>
        <time>2021-07-23T13:07:37Z</time>
      </trkpt>
      <trkpt lat="43.4424730" lon="-7.3495950">
        <ele>136.0</ele>
        <time>2021-07-23T13:07:38Z</time>
      </trkpt>
      <trkpt lat="43.4424590" lon="-7.3495950">
        <ele>136.0</ele>
        <time>2021-07-23T13:07:39Z</time>
      </trkpt>
      <trkpt lat="43.4424280" lon="-7.3495960">
        <ele>136.0</ele>
        <time>2021-07-23T13:07:41Z</time>
      </trkpt>
      <trkpt lat="43.4423990" lon="-7.3496000">
        <ele>136.0</ele>
        <time>2021-07-23T13:07:43Z</time>
      </trkpt>
      <trkpt lat="43.4423430" lon="-7.3496120">
        <ele>136.0</ele>
        <time>2021-07-23T13:07:46Z</time>
      </trkpt>
      <trkpt lat="43.4422750" lon="-7.3496030">
        <ele>136.0</ele>
        <time>2021-07-23T13:07:49Z</time>
      </trkpt>
      <trkpt lat="43.4422140" lon="-7.3496000">
        <ele>136.0</ele>
        <time>2021-07-23T13:07:52Z</time>
      </trkpt>
      <trkpt lat="43.4420950" lon="-7.3495930">
        <ele>136.0</ele>
        <time>2021-07-23T13:07:58Z</time>
      </trkpt>
      <trkpt lat="43.4420380" lon="-7.3495780">
        <ele>136.0</ele>
        <time>2021-07-23T13:08:00Z</time>
      </trkpt>
      <trkpt lat="43.4418510" lon="-7.3495270">
        <ele>136.0</ele>
        <time>2021-07-23T13:08:07Z</time>
      </trkpt>
      <trkpt lat="43.4416800" lon="-7.3493940">
        <ele>136.0</ele>
        <time>2021-07-23T13:08:13Z</time>
      </trkpt>
      <trkpt lat="43.4416120" lon="-7.3492580">
        <ele>136.0</ele>
        <time>2021-07-23T13:08:17Z</time>
      </trkpt>
      <trkpt lat="43.4415840" lon="-7.3491570">
        <ele>136.0</ele>
        <time>2021-07-23T13:08:19Z</time>
      </trkpt>
      <trkpt lat="43.4415490" lon="-7.3490390">
        <ele>136.0</ele>
        <time>2021-07-23T13:08:21Z</time>
      </trkpt>
      <trkpt lat="43.4414350" lon="-7.3487980">
        <ele>136.0</ele>
        <time>2021-07-23T13:08:25Z</time>
      </trkpt>
      <trkpt lat="43.4414030" lon="-7.3487390">
        <ele>135.6</ele>
        <time>2021-07-23T13:08:26Z</time>
      </trkpt>
      <trkpt lat="43.4413720" lon="-7.3486880">
        <ele>135.2</ele>
        <time>2021-07-23T13:08:27Z</time>
      </trkpt>
      <trkpt lat="43.4413440" lon="-7.3486430">
        <ele>134.8</ele>
        <time>2021-07-23T13:08:28Z</time>
      </trkpt>
      <trkpt lat="43.4413200" lon="-7.3486110">
        <ele>134.4</ele>
        <time>2021-07-23T13:08:29Z</time>
      </trkpt>
      <trkpt lat="43.4412930" lon="-7.3485880">
        <ele>133.8</ele>
        <time>2021-07-23T13:08:30Z</time>
      </trkpt>
      <trkpt lat="43.4412670" lon="-7.3485720">
        <ele>133.8</ele>
        <time>2021-07-23T13:08:31Z</time>
      </trkpt>
      <trkpt lat="43.4411460" lon="-7.3485340">
        <ele>133.8</ele>
        <time>2021-07-23T13:08:36Z</time>
      </trkpt>
      <trkpt lat="43.4410780" lon="-7.3485860">
        <ele>133.8</ele>
        <time>2021-07-23T13:08:40Z</time>
      </trkpt>
      <trkpt lat="43.4410590" lon="-7.3485980">
        <ele>133.8</ele>
        <time>2021-07-23T13:08:41Z</time>
      </trkpt>
      <trkpt lat="43.4409980" lon="-7.3486330">
        <ele>133.8</ele>
        <time>2021-07-23T13:08:46Z</time>
      </trkpt>
      <trkpt lat="43.4409670" lon="-7.3486570">
        <ele>133.8</ele>
        <time>2021-07-23T13:08:48Z</time>
      </trkpt>
      <trkpt lat="43.4409040" lon="-7.3487040">
        <ele>133.8</ele>
        <time>2021-07-23T13:08:51Z</time>
      </trkpt>
      <trkpt lat="43.4408660" lon="-7.3487220">
        <ele>133.8</ele>
        <time>2021-07-23T13:08:53Z</time>
      </trkpt>
      <trkpt lat="43.4408480" lon="-7.3487280">
        <ele>133.8</ele>
        <time>2021-07-23T13:08:54Z</time>
      </trkpt>
      <trkpt lat="43.4408240" lon="-7.3487460">
        <ele>133.8</ele>
        <time>2021-07-23T13:08:56Z</time>
      </trkpt>
      <trkpt lat="43.4408150" lon="-7.3487550">
        <ele>134.2</ele>
        <time>2021-07-23T13:08:57Z</time>
      </trkpt>
      <trkpt lat="43.4408030" lon="-7.3487620">
        <ele>134.8</ele>
        <time>2021-07-23T13:08:58Z</time>
      </trkpt>
      <trkpt lat="43.4407890" lon="-7.3487680">
        <ele>135.2</ele>
        <time>2021-07-23T13:08:59Z</time>
      </trkpt>
      <trkpt lat="43.4407710" lon="-7.3487790">
        <ele>135.6</ele>
        <time>2021-07-23T13:09:00Z</time>
      </trkpt>
      <trkpt lat="43.4407540" lon="-7.3487920">
        <ele>136.0</ele>
        <time>2021-07-23T13:09:01Z</time>
      </trkpt>
      <trkpt lat="43.4406970" lon="-7.3488710">
        <ele>136.4</ele>
        <time>2021-07-23T13:09:05Z</time>
      </trkpt>
      <trkpt lat="43.4406820" lon="-7.3488900">
        <ele>137.0</ele>
        <time>2021-07-23T13:09:06Z</time>
      </trkpt>
      <trkpt lat="43.4406640" lon="-7.3489100">
        <ele>137.4</ele>
        <time>2021-07-23T13:09:07Z</time>
      </trkpt>
      <trkpt lat="43.4406430" lon="-7.3489290">
        <ele>137.8</ele>
        <time>2021-07-23T13:09:08Z</time>
      </trkpt>
      <trkpt lat="43.4406250" lon="-7.3489510">
        <ele>138.2</ele>
        <time>2021-07-23T13:09:09Z</time>
      </trkpt>
      <trkpt lat="43.4405810" lon="-7.3490040">
        <ele>138.2</ele>
        <time>2021-07-23T13:09:13Z</time>
      </trkpt>
      <trkpt lat="43.4405730" lon="-7.3490140">
        <ele>138.2</ele>
        <time>2021-07-23T13:09:14Z</time>
      </trkpt>
      <trkpt lat="43.4405330" lon="-7.3490500">
        <ele>138.2</ele>
        <time>2021-07-23T13:09:19Z</time>
      </trkpt>
      <trkpt lat="43.4405070" lon="-7.3490690">
        <ele>138.6</ele>
        <time>2021-07-23T13:09:21Z</time>
      </trkpt>
      <trkpt lat="43.4404860" lon="-7.3490840">
        <ele>139.0</ele>
        <time>2021-07-23T13:09:22Z</time>
      </trkpt>
      <trkpt lat="43.4404670" lon="-7.3491090">
        <ele>139.4</ele>
        <time>2021-07-23T13:09:23Z</time>
      </trkpt>
      <trkpt lat="43.4404460" lon="-7.3491300">
        <ele>139.8</ele>
        <time>2021-07-23T13:09:24Z</time>
      </trkpt>
      <trkpt lat="43.4404260" lon="-7.3491440">
        <ele>140.2</ele>
        <time>2021-07-23T13:09:25Z</time>
      </trkpt>
      <trkpt lat="43.4403460" lon="-7.3492480">
        <ele>140.2</ele>
        <time>2021-07-23T13:09:31Z</time>
      </trkpt>
      <trkpt lat="43.4403150" lon="-7.3492720">
        <ele>140.2</ele>
        <time>2021-07-23T13:09:33Z</time>
      </trkpt>
      <trkpt lat="43.4402790" lon="-7.3493370">
        <ele>140.2</ele>
        <time>2021-07-23T13:09:36Z</time>
      </trkpt>
      <trkpt lat="43.4402770" lon="-7.3493510">
        <ele>140.2</ele>
        <time>2021-07-23T13:09:37Z</time>
      </trkpt>
      <trkpt lat="43.4402730" lon="-7.3493840">
        <ele>140.2</ele>
        <time>2021-07-23T13:09:41Z</time>
      </trkpt>
      <trkpt lat="43.4401470" lon="-7.3498190">
        <ele>132.0</ele>
        <time>2021-07-23T13:10:47Z</time>
      </trkpt>
      <trkpt lat="43.4401410" lon="-7.3498270">
        <ele>131.6</ele>
        <time>2021-07-23T13:10:48Z</time>
      </trkpt>
      <trkpt lat="43.4401280" lon="-7.3498290">
        <ele>131.2</ele>
        <time>2021-07-23T13:10:49Z</time>
      </trkpt>
      <trkpt lat="43.4401190" lon="-7.3498330">
        <ele>130.6</ele>
        <time>2021-07-23T13:10:50Z</time>
      </trkpt>
      <trkpt lat="43.4401050" lon="-7.3498350">
        <ele>130.2</ele>
        <time>2021-07-23T13:10:51Z</time>
      </trkpt>
      <trkpt lat="43.4400960" lon="-7.3498350">
        <ele>129.8</ele>
        <time>2021-07-23T13:10:52Z</time>
      </trkpt>
      <trkpt lat="43.4400770" lon="-7.3498370">
        <ele>129.4</ele>
        <time>2021-07-23T13:10:54Z</time>
      </trkpt>
      <trkpt lat="43.4400640" lon="-7.3498370">
        <ele>129.0</ele>
        <time>2021-07-23T13:10:55Z</time>
      </trkpt>
      <trkpt lat="43.4400560" lon="-7.3498390">
        <ele>128.6</ele>
        <time>2021-07-23T13:10:56Z</time>
      </trkpt>
      <trkpt lat="43.4400420" lon="-7.3498430">
        <ele>128.2</ele>
        <time>2021-07-23T13:10:57Z</time>
      </trkpt>
      <trkpt lat="43.4400300" lon="-7.3498480">
        <ele>127.8</ele>
        <time>2021-07-23T13:10:58Z</time>
      </trkpt>
      <trkpt lat="43.4400070" lon="-7.3498730">
        <ele>127.8</ele>
        <time>2021-07-23T13:11:00Z</time>
      </trkpt>
      <trkpt lat="43.4400100" lon="-7.3499240">
        <ele>127.8</ele>
        <time>2021-07-23T13:11:03Z</time>
      </trkpt>
      <trkpt lat="43.4400170" lon="-7.3499440">
        <ele>127.4</ele>
        <time>2021-07-23T13:11:04Z</time>
      </trkpt>
      <trkpt lat="43.4400230" lon="-7.3499610">
        <ele>126.8</ele>
        <time>2021-07-23T13:11:05Z</time>
      </trkpt>
      <trkpt lat="43.4400310" lon="-7.3499830">
        <ele>126.0</ele>
        <time>2021-07-23T13:11:06Z</time>
      </trkpt>
      <trkpt lat="43.4400390" lon="-7.3500000">
        <ele>125.6</ele>
        <time>2021-07-23T13:11:07Z</time>
      </trkpt>
      <trkpt lat="43.4400520" lon="-7.3500580">
        <ele>125.6</ele>
        <time>2021-07-23T13:11:10Z</time>
      </trkpt>
      <trkpt lat="43.4400510" lon="-7.3500770">
        <ele>125.2</ele>
        <time>2021-07-23T13:11:11Z</time>
      </trkpt>
      <trkpt lat="43.4400520" lon="-7.3500950">
        <ele>124.8</ele>
        <time>2021-07-23T13:11:12Z</time>
      </trkpt>
      <trkpt lat="43.4400500" lon="-7.3501190">
        <ele>124.4</ele>
        <time>2021-07-23T13:11:13Z</time>
      </trkpt>
      <trkpt lat="43.4400460" lon="-7.3501370">
        <ele>124.0</ele>
        <time>2021-07-23T13:11:14Z</time>
      </trkpt>
      <trkpt lat="43.4400440" lon="-7.3501570">
        <ele>123.6</ele>
        <time>2021-07-23T13:11:15Z</time>
      </trkpt>
      <trkpt lat="43.4400290" lon="-7.3502180">
        <ele>123.6</ele>
        <time>2021-07-23T13:11:18Z</time>
      </trkpt>
      <trkpt lat="43.4400240" lon="-7.3502410">
        <ele>123.2</ele>
        <time>2021-07-23T13:11:19Z</time>
      </trkpt>
      <trkpt lat="43.4400210" lon="-7.3502560">
        <ele>122.8</ele>
        <time>2021-07-23T13:11:20Z</time>
      </trkpt>
      <trkpt lat="43.4400200" lon="-7.3502730">
        <ele>122.4</ele>
        <time>2021-07-23T13:11:21Z</time>
      </trkpt>
      <trkpt lat="43.4400200" lon="-7.3502900">
        <ele>122.0</ele>
        <time>2021-07-23T13:11:22Z</time>
      </trkpt>
      <trkpt lat="43.4400240" lon="-7.3503070">
        <ele>121.6</ele>
        <time>2021-07-23T13:11:23Z</time>
      </trkpt>
      <trkpt lat="43.4400460" lon="-7.3503430">
        <ele>121.6</ele>
        <time>2021-07-23T13:11:26Z</time>
      </trkpt>
      <trkpt lat="43.4400440" lon="-7.3503480">
        <ele>121.6</ele>
        <time>2021-07-23T13:11:28Z</time>
      </trkpt>
      <trkpt lat="43.4400730" lon="-7.3503890">
        <ele>121.6</ele>
        <time>2021-07-23T13:11:34Z</time>
      </trkpt>
      <trkpt lat="43.4400910" lon="-7.3504200">
        <ele>121.6</ele>
        <time>2021-07-23T13:11:35Z</time>
      </trkpt>
      <trkpt lat="43.4401130" lon="-7.3504580">
        <ele>121.2</ele>
        <time>2021-07-23T13:11:36Z</time>
      </trkpt>
      <trkpt lat="43.4401380" lon="-7.3505090">
        <ele>120.8</ele>
        <time>2021-07-23T13:11:37Z</time>
      </trkpt>
      <trkpt lat="43.4401620" lon="-7.3505500">
        <ele>120.4</ele>
        <time>2021-07-23T13:11:38Z</time>
      </trkpt>
      <trkpt lat="43.4401840" lon="-7.3506050">
        <ele>120.0</ele>
        <time>2021-07-23T13:11:39Z</time>
      </trkpt>
      <trkpt lat="43.4402060" lon="-7.3506680">
        <ele>119.6</ele>
        <time>2021-07-23T13:11:40Z</time>
      </trkpt>
      <trkpt lat="43.4402350" lon="-7.3507260">
        <ele>119.0</ele>
        <time>2021-07-23T13:11:41Z</time>
      </trkpt>
      <trkpt lat="43.4402660" lon="-7.3507920">
        <ele>118.6</ele>
        <time>2021-07-23T13:11:42Z</time>
      </trkpt>
      <trkpt lat="43.4402950" lon="-7.3508550">
        <ele>118.0</ele>
        <time>2021-07-23T13:11:43Z</time>
      </trkpt>
      <trkpt lat="43.4403280" lon="-7.3509200">
        <ele>117.6</ele>
        <time>2021-07-23T13:11:44Z</time>
      </trkpt>
      <trkpt lat="43.4403570" lon="-7.3509790">
        <ele>117.0</ele>
        <time>2021-07-23T13:11:45Z</time>
      </trkpt>
      <trkpt lat="43.4403800" lon="-7.3510330">
        <ele>116.6</ele>
        <time>2021-07-23T13:11:46Z</time>
      </trkpt>
      <trkpt lat="43.4404030" lon="-7.3510770">
        <ele>116.2</ele>
        <time>2021-07-23T13:11:47Z</time>
      </trkpt>
      <trkpt lat="43.4404220" lon="-7.3511210">
        <ele>115.6</ele>
        <time>2021-07-23T13:11:48Z</time>
      </trkpt>
      <trkpt lat="43.4404460" lon="-7.3511720">
        <ele>115.2</ele>
        <time>2021-07-23T13:11:49Z</time>
      </trkpt>
      <trkpt lat="43.4404640" lon="-7.3512230">
        <ele>114.8</ele>
        <time>2021-07-23T13:11:50Z</time>
      </trkpt>
      <trkpt lat="43.4404850" lon="-7.3512790">
        <ele>114.2</ele>
        <time>2021-07-23T13:11:51Z</time>
      </trkpt>
      <trkpt lat="43.4405060" lon="-7.3513290">
        <ele>113.8</ele>
        <time>2021-07-23T13:11:52Z</time>
      </trkpt>
      <trkpt lat="43.4405390" lon="-7.3513740">
        <ele>113.4</ele>
        <time>2021-07-23T13:11:53Z</time>
      </trkpt>
      <trkpt lat="43.4405760" lon="-7.3514120">
        <ele>112.8</ele>
        <time>2021-07-23T13:11:54Z</time>
      </trkpt>
      <trkpt lat="43.4406120" lon="-7.3514440">
        <ele>112.2</ele>
        <time>2021-07-23T13:11:55Z</time>
      </trkpt>
      <trkpt lat="43.4406730" lon="-7.3514670">
        <ele>111.0</ele>
        <time>2021-07-23T13:11:56Z</time>
      </trkpt>
      <trkpt lat="43.4407350" lon="-7.3514860">
        <ele>110.4</ele>
        <time>2021-07-23T13:11:57Z</time>
      </trkpt>
      <trkpt lat="43.4408010" lon="-7.3514920">
        <ele>110.0</ele>
        <time>2021-07-23T13:11:58Z</time>
      </trkpt>
      <trkpt lat="43.4408660" lon="-7.3514980">
        <ele>109.4</ele>
        <time>2021-07-23T13:11:59Z</time>
      </trkpt>
      <trkpt lat="43.4409340" lon="-7.3514950">
        <ele>109.0</ele>
        <time>2021-07-23T13:12:00Z</time>
      </trkpt>
      <trkpt lat="43.4410020" lon="-7.3515010">
        <ele>108.4</ele>
        <time>2021-07-23T13:12:01Z</time>
      </trkpt>
      <trkpt lat="43.4410690" lon="-7.3515100">
        <ele>107.6</ele>
        <time>2021-07-23T13:12:02Z</time>
      </trkpt>
      <trkpt lat="43.4411290" lon="-7.3515260">
        <ele>107.0</ele>
        <time>2021-07-23T13:12:03Z</time>
      </trkpt>
      <trkpt lat="43.4411870" lon="-7.3515470">
        <ele>106.2</ele>
        <time>2021-07-23T13:12:04Z</time>
      </trkpt>
      <trkpt lat="43.4412470" lon="-7.3515670">
        <ele>105.6</ele>
        <time>2021-07-23T13:12:05Z</time>
      </trkpt>
      <trkpt lat="43.4413070" lon="-7.3515840">
        <ele>105.0</ele>
        <time>2021-07-23T13:12:06Z</time>
      </trkpt>
      <trkpt lat="43.4413630" lon="-7.3516010">
        <ele>104.4</ele>
        <time>2021-07-23T13:12:07Z</time>
      </trkpt>
      <trkpt lat="43.4414270" lon="-7.3516060">
        <ele>104.0</ele>
        <time>2021-07-23T13:12:08Z</time>
      </trkpt>
      <trkpt lat="43.4414930" lon="-7.3516130">
        <ele>103.4</ele>
        <time>2021-07-23T13:12:09Z</time>
      </trkpt>
      <trkpt lat="43.4415550" lon="-7.3516180">
        <ele>102.8</ele>
        <time>2021-07-23T13:12:10Z</time>
      </trkpt>
      <trkpt lat="43.4416090" lon="-7.3516250">
        <ele>102.2</ele>
        <time>2021-07-23T13:12:11Z</time>
      </trkpt>
      <trkpt lat="43.4416620" lon="-7.3516320">
        <ele>101.8</ele>
        <time>2021-07-23T13:12:12Z</time>
      </trkpt>
      <trkpt lat="43.4417070" lon="-7.3516460">
        <ele>101.2</ele>
        <time>2021-07-23T13:12:13Z</time>
      </trkpt>
      <trkpt lat="43.4417730" lon="-7.3516830">
        <ele>101.2</ele>
        <time>2021-07-23T13:12:15Z</time>
      </trkpt>
      <trkpt lat="43.4417980" lon="-7.3517100">
        <ele>101.2</ele>
        <time>2021-07-23T13:12:16Z</time>
      </trkpt>
      <trkpt lat="43.4418150" lon="-7.3517370">
        <ele>100.8</ele>
        <time>2021-07-23T13:12:17Z</time>
      </trkpt>
      <trkpt lat="43.4418290" lon="-7.3517590">
        <ele>100.4</ele>
        <time>2021-07-23T13:12:18Z</time>
      </trkpt>
      <trkpt lat="43.4418360" lon="-7.3517850">
        <ele>100.0</ele>
        <time>2021-07-23T13:12:19Z</time>
      </trkpt>
      <trkpt lat="43.4418480" lon="-7.3518170">
        <ele>99.0</ele>
        <time>2021-07-23T13:12:20Z</time>
      </trkpt>
      <trkpt lat="43.4418620" lon="-7.3520470">
        <ele>99.0</ele>
        <time>2021-07-23T13:12:26Z</time>
      </trkpt>
      <trkpt lat="43.4418810" lon="-7.3521300">
        <ele>99.0</ele>
        <time>2021-07-23T13:12:28Z</time>
      </trkpt>
      <trkpt lat="43.4419100" lon="-7.3522960">
        <ele>99.0</ele>
        <time>2021-07-23T13:12:32Z</time>
      </trkpt>
      <trkpt lat="43.4419250" lon="-7.3524320">
        <ele>99.0</ele>
        <time>2021-07-23T13:12:37Z</time>
      </trkpt>
      <trkpt lat="43.4418420" lon="-7.3525200">
        <ele>99.0</ele>
        <time>2021-07-23T13:12:41Z</time>
      </trkpt>
      <trkpt lat="43.4417690" lon="-7.3525910">
        <ele>99.0</ele>
        <time>2021-07-23T13:12:44Z</time>
      </trkpt>
      <trkpt lat="43.4416910" lon="-7.3526720">
        <ele>99.0</ele>
        <time>2021-07-23T13:12:47Z</time>
      </trkpt>
      <trkpt lat="43.4416040" lon="-7.3527530">
        <ele>99.0</ele>
        <time>2021-07-23T13:12:50Z</time>
      </trkpt>
      <trkpt lat="43.4415070" lon="-7.3528490">
        <ele>99.0</ele>
        <time>2021-07-23T13:12:53Z</time>
      </trkpt>
      <trkpt lat="43.4414740" lon="-7.3528820">
        <ele>99.0</ele>
        <time>2021-07-23T13:12:54Z</time>
      </trkpt>
      <trkpt lat="43.4414120" lon="-7.3529420">
        <ele>99.0</ele>
        <time>2021-07-23T13:12:56Z</time>
      </trkpt>
      <trkpt lat="43.4412500" lon="-7.3531080">
        <ele>99.0</ele>
        <time>2021-07-23T13:13:02Z</time>
      </trkpt>
      <trkpt lat="43.4411630" lon="-7.3532020">
        <ele>99.0</ele>
        <time>2021-07-23T13:13:05Z</time>
      </trkpt>
      <trkpt lat="43.4410450" lon="-7.3533320">
        <ele>99.0</ele>
        <time>2021-07-23T13:13:09Z</time>
      </trkpt>
      <trkpt lat="43.4410140" lon="-7.3533590">
        <ele>99.0</ele>
        <time>2021-07-23T13:13:10Z</time>
      </trkpt>
      <trkpt lat="43.4409220" lon="-7.3534490">
        <ele>99.0</ele>
        <time>2021-07-23T13:13:13Z</time>
      </trkpt>
      <trkpt lat="43.4407790" lon="-7.3535880">
        <ele>99.0</ele>
        <time>2021-07-23T13:13:18Z</time>
      </trkpt>
      <trkpt lat="43.4406230" lon="-7.3537460">
        <ele>99.0</ele>
        <time>2021-07-23T13:13:24Z</time>
      </trkpt>
      <trkpt lat="43.4403760" lon="-7.3539820">
        <ele>99.0</ele>
        <time>2021-07-23T13:13:33Z</time>
      </trkpt>
      <trkpt lat="43.4402380" lon="-7.3541120">
        <ele>99.0</ele>
        <time>2021-07-23T13:13:38Z</time>
      </trkpt>
      <trkpt lat="43.4401850" lon="-7.3541690">
        <ele>99.0</ele>
        <time>2021-07-23T13:13:40Z</time>
      </trkpt>
      <trkpt lat="43.4400030" lon="-7.3543710">
        <ele>99.0</ele>
        <time>2021-07-23T13:13:47Z</time>
      </trkpt>
      <trkpt lat="43.4398200" lon="-7.3545710">
        <ele>99.0</ele>
        <time>2021-07-23T13:13:55Z</time>
      </trkpt>
      <trkpt lat="43.4396330" lon="-7.3547690">
        <ele>99.0</ele>
        <time>2021-07-23T13:14:05Z</time>
      </trkpt>
      <trkpt lat="43.4395910" lon="-7.3548120">
        <ele>99.0</ele>
        <time>2021-07-23T13:14:10Z</time>
      </trkpt>
      <trkpt lat="43.4396020" lon="-7.3548440">
        <ele>99.0</ele>
        <time>2021-07-23T13:14:25Z</time>
      </trkpt>
      <trkpt lat="43.4396980" lon="-7.3548390">
        <ele>99.0</ele>
        <time>2021-07-23T13:14:29Z</time>
      </trkpt>
      <trkpt lat="43.4397480" lon="-7.3549330">
        <ele>99.0</ele>
        <time>2021-07-23T13:14:33Z</time>
      </trkpt>
      <trkpt lat="43.4397400" lon="-7.3549900">
        <ele>99.0</ele>
        <time>2021-07-23T13:14:36Z</time>
      </trkpt>
      <trkpt lat="43.4397300" lon="-7.3550310">
        <ele>99.0</ele>
        <time>2021-07-23T13:14:38Z</time>
      </trkpt>
      <trkpt lat="43.4396930" lon="-7.3552170">
        <ele>99.0</ele>
        <time>2021-07-23T13:14:43Z</time>
      </trkpt>
      <trkpt lat="43.4396650" lon="-7.3553780">
        <ele>99.0</ele>
        <time>2021-07-23T13:14:46Z</time>
      </trkpt>
      <trkpt lat="43.4396550" lon="-7.3554890">
        <ele>99.0</ele>
        <time>2021-07-23T13:14:48Z</time>
      </trkpt>
      <trkpt lat="43.4395750" lon="-7.3558430">
        <ele>99.0</ele>
        <time>2021-07-23T13:14:55Z</time>
      </trkpt>
      <trkpt lat="43.4395340" lon="-7.3560600">
        <ele>99.0</ele>
        <time>2021-07-23T13:14:59Z</time>
      </trkpt>
      <trkpt lat="43.4395090" lon="-7.3561700">
        <ele>99.0</ele>
        <time>2021-07-23T13:15:01Z</time>
      </trkpt>
      <trkpt lat="43.4394800" lon="-7.3562770">
        <ele>99.0</ele>
        <time>2021-07-23T13:15:03Z</time>
      </trkpt>
      <trkpt lat="43.4394450" lon="-7.3564300">
        <ele>99.0</ele>
        <time>2021-07-23T13:15:06Z</time>
      </trkpt>
      <trkpt lat="43.4394090" lon="-7.3565850">
        <ele>99.0</ele>
        <time>2021-07-23T13:15:09Z</time>
      </trkpt>
      <trkpt lat="43.4393800" lon="-7.3566860">
        <ele>99.0</ele>
        <time>2021-07-23T13:15:11Z</time>
      </trkpt>
      <trkpt lat="43.4393330" lon="-7.3568820">
        <ele>99.0</ele>
        <time>2021-07-23T13:15:15Z</time>
      </trkpt>
      <trkpt lat="43.4393210" lon="-7.3569270">
        <ele>99.6</ele>
        <time>2021-07-23T13:15:16Z</time>
      </trkpt>
      <trkpt lat="43.4393040" lon="-7.3569710">
        <ele>100.0</ele>
        <time>2021-07-23T13:15:17Z</time>
      </trkpt>
      <trkpt lat="43.4392850" lon="-7.3570150">
        <ele>100.4</ele>
        <time>2021-07-23T13:15:18Z</time>
      </trkpt>
      <trkpt lat="43.4392720" lon="-7.3570620">
        <ele>100.8</ele>
        <time>2021-07-23T13:15:19Z</time>
      </trkpt>
      <trkpt lat="43.4392590" lon="-7.3571080">
        <ele>101.2</ele>
        <time>2021-07-23T13:15:20Z</time>
      </trkpt>
      <trkpt lat="43.4391510" lon="-7.3573670">
        <ele>101.2</ele>
        <time>2021-07-23T13:15:26Z</time>
      </trkpt>
      <trkpt lat="43.4391150" lon="-7.3574440">
        <ele>101.2</ele>
        <time>2021-07-23T13:15:28Z</time>
      </trkpt>
      <trkpt lat="43.4390070" lon="-7.3576670">
        <ele>101.2</ele>
        <time>2021-07-23T13:15:36Z</time>
      </trkpt>
      <trkpt lat="43.4388950" lon="-7.3577800">
        <ele>101.2</ele>
        <time>2021-07-23T13:15:41Z</time>
      </trkpt>
      <trkpt lat="43.4387170" lon="-7.3578210">
        <ele>101.2</ele>
        <time>2021-07-23T13:15:46Z</time>
      </trkpt>
      <trkpt lat="43.4384080" lon="-7.3578940">
        <ele>101.2</ele>
        <time>2021-07-23T13:15:55Z</time>
      </trkpt>
      <trkpt lat="43.4381190" lon="-7.3580040">
        <ele>101.2</ele>
        <time>2021-07-23T13:16:03Z</time>
      </trkpt>
      <trkpt lat="43.4380820" lon="-7.3580270">
        <ele>101.6</ele>
        <time>2021-07-23T13:16:04Z</time>
      </trkpt>
      <trkpt lat="43.4380500" lon="-7.3580470">
        <ele>102.0</ele>
        <time>2021-07-23T13:16:05Z</time>
      </trkpt>
      <trkpt lat="43.4380190" lon="-7.3580640">
        <ele>102.4</ele>
        <time>2021-07-23T13:16:06Z</time>
      </trkpt>
      <trkpt lat="43.4379870" lon="-7.3580850">
        <ele>102.8</ele>
        <time>2021-07-23T13:16:07Z</time>
      </trkpt>
      <trkpt lat="43.4379470" lon="-7.3580950">
        <ele>103.2</ele>
        <time>2021-07-23T13:16:08Z</time>
      </trkpt>
      <trkpt lat="43.4378720" lon="-7.3581320">
        <ele>103.2</ele>
        <time>2021-07-23T13:16:10Z</time>
      </trkpt>
      <trkpt lat="43.4375920" lon="-7.3583590">
        <ele>103.2</ele>
        <time>2021-07-23T13:16:19Z</time>
      </trkpt>
      <trkpt lat="43.4374400" lon="-7.3584950">
        <ele>103.6</ele>
        <time>2021-07-23T13:16:24Z</time>
      </trkpt>
      <trkpt lat="43.4374120" lon="-7.3585210">
        <ele>104.0</ele>
        <time>2021-07-23T13:16:25Z</time>
      </trkpt>
      <trkpt lat="43.4373860" lon="-7.3585490">
        <ele>105.0</ele>
        <time>2021-07-23T13:16:26Z</time>
      </trkpt>
      <trkpt lat="43.4373590" lon="-7.3585760">
        <ele>105.4</ele>
        <time>2021-07-23T13:16:27Z</time>
      </trkpt>
      <trkpt lat="43.4371970" lon="-7.3587390">
        <ele>105.4</ele>
        <time>2021-07-23T13:16:33Z</time>
      </trkpt>
      <trkpt lat="43.4371410" lon="-7.3587880">
        <ele>105.4</ele>
        <time>2021-07-23T13:16:35Z</time>
      </trkpt>
      <trkpt lat="43.4369820" lon="-7.3589290">
        <ele>105.8</ele>
        <time>2021-07-23T13:16:41Z</time>
      </trkpt>
      <trkpt lat="43.4369540" lon="-7.3589490">
        <ele>106.2</ele>
        <time>2021-07-23T13:16:42Z</time>
      </trkpt>
      <trkpt lat="43.4369260" lon="-7.3589700">
        <ele>106.6</ele>
        <time>2021-07-23T13:16:43Z</time>
      </trkpt>
      <trkpt lat="43.4368980" lon="-7.3589930">
        <ele>107.0</ele>
        <time>2021-07-23T13:16:44Z</time>
      </trkpt>
      <trkpt lat="43.4368690" lon="-7.3590160">
        <ele>107.4</ele>
        <time>2021-07-23T13:16:45Z</time>
      </trkpt>
      <trkpt lat="43.4366530" lon="-7.3591820">
        <ele>107.4</ele>
        <time>2021-07-23T13:16:53Z</time>
      </trkpt>
      <trkpt lat="43.4364650" lon="-7.3593220">
        <ele>107.4</ele>
        <time>2021-07-23T13:17:00Z</time>
      </trkpt>
      <trkpt lat="43.4363410" lon="-7.3594080">
        <ele>107.8</ele>
        <time>2021-07-23T13:17:05Z</time>
      </trkpt>
      <trkpt lat="43.4363160" lon="-7.3594280">
        <ele>108.2</ele>
        <time>2021-07-23T13:17:06Z</time>
      </trkpt>
      <trkpt lat="43.4362940" lon="-7.3594530">
        <ele>108.6</ele>
        <time>2021-07-23T13:17:07Z</time>
      </trkpt>
      <trkpt lat="43.4362710" lon="-7.3594780">
        <ele>109.0</ele>
        <time>2021-07-23T13:17:08Z</time>
      </trkpt>
      <trkpt lat="43.4362490" lon="-7.3594990">
        <ele>109.4</ele>
        <time>2021-07-23T13:17:09Z</time>
      </trkpt>
      <trkpt lat="43.4361200" lon="-7.3596180">
        <ele>109.4</ele>
        <time>2021-07-23T13:17:15Z</time>
      </trkpt>
      <trkpt lat="43.4360750" lon="-7.3596540">
        <ele>109.8</ele>
        <time>2021-07-23T13:17:17Z</time>
      </trkpt>
      <trkpt lat="43.4360530" lon="-7.3596750">
        <ele>110.4</ele>
        <time>2021-07-23T13:17:18Z</time>
      </trkpt>
      <trkpt lat="43.4360310" lon="-7.3596940">
        <ele>110.8</ele>
        <time>2021-07-23T13:17:19Z</time>
      </trkpt>
      <trkpt lat="43.4360080" lon="-7.3597130">
        <ele>111.2</ele>
        <time>2021-07-23T13:17:20Z</time>
      </trkpt>
      <trkpt lat="43.4359880" lon="-7.3597300">
        <ele>111.6</ele>
        <time>2021-07-23T13:17:21Z</time>
      </trkpt>
      <trkpt lat="43.4359700" lon="-7.3597450">
        <ele>111.6</ele>
        <time>2021-07-23T13:17:22Z</time>
      </trkpt>
      <trkpt lat="43.4358570" lon="-7.3598580">
        <ele>111.6</ele>
        <time>2021-07-23T13:17:28Z</time>
      </trkpt>
      <trkpt lat="43.4356900" lon="-7.3599810">
        <ele>111.6</ele>
        <time>2021-07-23T13:17:36Z</time>
      </trkpt>
      <trkpt lat="43.4356080" lon="-7.3600540">
        <ele>112.4</ele>
        <time>2021-07-23T13:17:40Z</time>
      </trkpt>
      <trkpt lat="43.4355860" lon="-7.3600750">
        <ele>112.8</ele>
        <time>2021-07-23T13:17:41Z</time>
      </trkpt>
      <trkpt lat="43.4355670" lon="-7.3600950">
        <ele>113.2</ele>
        <time>2021-07-23T13:17:42Z</time>
      </trkpt>
      <trkpt lat="43.4355480" lon="-7.3601140">
        <ele>113.6</ele>
        <time>2021-07-23T13:17:43Z</time>
      </trkpt>
      <trkpt lat="43.4354130" lon="-7.3602240">
        <ele>113.6</ele>
        <time>2021-07-23T13:17:50Z</time>
      </trkpt>
      <trkpt lat="43.4353700" lon="-7.3602620">
        <ele>113.6</ele>
        <time>2021-07-23T13:17:52Z</time>
      </trkpt>
      <trkpt lat="43.4352150" lon="-7.3603820">
        <ele>113.6</ele>
        <time>2021-07-23T13:17:59Z</time>
      </trkpt>
      <trkpt lat="43.4351410" lon="-7.3604320">
        <ele>113.6</ele>
        <time>2021-07-23T13:18:02Z</time>
      </trkpt>
      <trkpt lat="43.4350490" lon="-7.3604970">
        <ele>114.0</ele>
        <time>2021-07-23T13:18:06Z</time>
      </trkpt>
      <trkpt lat="43.4350290" lon="-7.3605160">
        <ele>114.6</ele>
        <time>2021-07-23T13:18:07Z</time>
      </trkpt>
      <trkpt lat="43.4350090" lon="-7.3605330">
        <ele>115.0</ele>
        <time>2021-07-23T13:18:08Z</time>
      </trkpt>
      <trkpt lat="43.4349900" lon="-7.3605500">
        <ele>115.4</ele>
        <time>2021-07-23T13:18:09Z</time>
      </trkpt>
      <trkpt lat="43.4349700" lon="-7.3605660">
        <ele>115.8</ele>
        <time>2021-07-23T13:18:10Z</time>
      </trkpt>
      <trkpt lat="43.4348920" lon="-7.3606270">
        <ele>115.8</ele>
        <time>2021-07-23T13:18:14Z</time>
      </trkpt>
      <trkpt lat="43.4347570" lon="-7.3607450">
        <ele>115.8</ele>
        <time>2021-07-23T13:18:21Z</time>
      </trkpt>
      <trkpt lat="43.4346280" lon="-7.3608480">
        <ele>115.8</ele>
        <time>2021-07-23T13:18:28Z</time>
      </trkpt>
      <trkpt lat="43.4346080" lon="-7.3608620">
        <ele>116.6</ele>
        <time>2021-07-23T13:18:29Z</time>
      </trkpt>
      <trkpt lat="43.4345890" lon="-7.3608800">
        <ele>117.0</ele>
        <time>2021-07-23T13:18:30Z</time>
      </trkpt>
      <trkpt lat="43.4345670" lon="-7.3609000">
        <ele>117.4</ele>
        <time>2021-07-23T13:18:31Z</time>
      </trkpt>
      <trkpt lat="43.4345460" lon="-7.3609190">
        <ele>117.8</ele>
        <time>2021-07-23T13:18:32Z</time>
      </trkpt>
      <trkpt lat="43.4344760" lon="-7.3609790">
        <ele>117.8</ele>
        <time>2021-07-23T13:18:36Z</time>
      </trkpt>
      <trkpt lat="43.4343140" lon="-7.3611180">
        <ele>117.8</ele>
        <time>2021-07-23T13:18:45Z</time>
      </trkpt>
      <trkpt lat="43.4342580" lon="-7.3611590">
        <ele>118.2</ele>
        <time>2021-07-23T13:18:48Z</time>
      </trkpt>
      <trkpt lat="43.4342410" lon="-7.3611770">
        <ele>118.6</ele>
        <time>2021-07-23T13:18:49Z</time>
      </trkpt>
      <trkpt lat="43.4342230" lon="-7.3611920">
        <ele>119.0</ele>
        <time>2021-07-23T13:18:50Z</time>
      </trkpt>
      <trkpt lat="43.4342060" lon="-7.3612050">
        <ele>119.4</ele>
        <time>2021-07-23T13:18:51Z</time>
      </trkpt>
      <trkpt lat="43.4341870" lon="-7.3612170">
        <ele>119.8</ele>
        <time>2021-07-23T13:18:52Z</time>
      </trkpt>
      <trkpt lat="43.4340480" lon="-7.3613010">
        <ele>119.8</ele>
        <time>2021-07-23T13:18:59Z</time>
      </trkpt>
      <trkpt lat="43.4340290" lon="-7.3613150">
        <ele>120.2</ele>
        <time>2021-07-23T13:19:00Z</time>
      </trkpt>
      <trkpt lat="43.4340110" lon="-7.3613310">
        <ele>120.6</ele>
        <time>2021-07-23T13:19:01Z</time>
      </trkpt>
      <trkpt lat="43.4339940" lon="-7.3613460">
        <ele>121.0</ele>
        <time>2021-07-23T13:19:02Z</time>
      </trkpt>
      <trkpt lat="43.4339740" lon="-7.3613590">
        <ele>121.4</ele>
        <time>2021-07-23T13:19:03Z</time>
      </trkpt>
      <trkpt lat="43.4339530" lon="-7.3613730">
        <ele>121.8</ele>
        <time>2021-07-23T13:19:04Z</time>
      </trkpt>
      <trkpt lat="43.4338690" lon="-7.3614310">
        <ele>121.8</ele>
        <time>2021-07-23T13:19:08Z</time>
      </trkpt>
      <trkpt lat="43.4337640" lon="-7.3615360">
        <ele>121.8</ele>
        <time>2021-07-23T13:19:14Z</time>
      </trkpt>
      <trkpt lat="43.4336740" lon="-7.3616040">
        <ele>121.8</ele>
        <time>2021-07-23T13:19:19Z</time>
      </trkpt>
      <trkpt lat="43.4335410" lon="-7.3617300">
        <ele>121.8</ele>
        <time>2021-07-23T13:19:27Z</time>
      </trkpt>
      <trkpt lat="43.4335220" lon="-7.3617450">
        <ele>122.2</ele>
        <time>2021-07-23T13:19:28Z</time>
      </trkpt>
      <trkpt lat="43.4335030" lon="-7.3617590">
        <ele>122.6</ele>
        <time>2021-07-23T13:19:29Z</time>
      </trkpt>
      <trkpt lat="43.4334850" lon="-7.3617740">
        <ele>123.0</ele>
        <time>2021-07-23T13:19:30Z</time>
      </trkpt>
      <trkpt lat="43.4334660" lon="-7.3617890">
        <ele>123.4</ele>
        <time>2021-07-23T13:19:31Z</time>
      </trkpt>
      <trkpt lat="43.4334480" lon="-7.3618020">
        <ele>123.8</ele>
        <time>2021-07-23T13:19:32Z</time>
      </trkpt>
      <trkpt lat="43.4334140" lon="-7.3618370">
        <ele>123.8</ele>
        <time>2021-07-23T13:19:34Z</time>
      </trkpt>
      <trkpt lat="43.4333220" lon="-7.3619370">
        <ele>123.8</ele>
        <time>2021-07-23T13:19:40Z</time>
      </trkpt>
      <trkpt lat="43.4332380" lon="-7.3620560">
        <ele>123.8</ele>
        <time>2021-07-23T13:19:47Z</time>
      </trkpt>
      <trkpt lat="43.4332070" lon="-7.3620930">
        <ele>124.4</ele>
        <time>2021-07-23T13:19:49Z</time>
      </trkpt>
      <trkpt lat="43.4331920" lon="-7.3621130">
        <ele>124.8</ele>
        <time>2021-07-23T13:19:50Z</time>
      </trkpt>
      <trkpt lat="43.4331780" lon="-7.3621360">
        <ele>125.2</ele>
        <time>2021-07-23T13:19:51Z</time>
      </trkpt>
      <trkpt lat="43.4331670" lon="-7.3621590">
        <ele>125.6</ele>
        <time>2021-07-23T13:19:52Z</time>
      </trkpt>
      <trkpt lat="43.4331560" lon="-7.3621800">
        <ele>126.0</ele>
        <time>2021-07-23T13:19:53Z</time>
      </trkpt>
      <trkpt lat="43.4331310" lon="-7.3622200">
        <ele>126.0</ele>
        <time>2021-07-23T13:19:55Z</time>
      </trkpt>
      <trkpt lat="43.4330450" lon="-7.3623400">
        <ele>126.0</ele>
        <time>2021-07-23T13:20:01Z</time>
      </trkpt>
      <trkpt lat="43.4329610" lon="-7.3624740">
        <ele>126.8</ele>
        <time>2021-07-23T13:20:08Z</time>
      </trkpt>
      <trkpt lat="43.4329500" lon="-7.3624940">
        <ele>127.2</ele>
        <time>2021-07-23T13:20:09Z</time>
      </trkpt>
      <trkpt lat="43.4329390" lon="-7.3625140">
        <ele>127.6</ele>
        <time>2021-07-23T13:20:10Z</time>
      </trkpt>
      <trkpt lat="43.4329270" lon="-7.3625320">
        <ele>128.0</ele>
        <time>2021-07-23T13:20:11Z</time>
      </trkpt>
      <trkpt lat="43.4328420" lon="-7.3626710">
        <ele>128.0</ele>
        <time>2021-07-23T13:20:18Z</time>
      </trkpt>
      <trkpt lat="43.4327560" lon="-7.3628240">
        <ele>128.0</ele>
        <time>2021-07-23T13:20:25Z</time>
      </trkpt>
      <trkpt lat="43.4327340" lon="-7.3628590">
        <ele>128.4</ele>
        <time>2021-07-23T13:20:27Z</time>
      </trkpt>
      <trkpt lat="43.4327230" lon="-7.3628810">
        <ele>128.8</ele>
        <time>2021-07-23T13:20:28Z</time>
      </trkpt>
      <trkpt lat="43.4327120" lon="-7.3629010">
        <ele>129.4</ele>
        <time>2021-07-23T13:20:29Z</time>
      </trkpt>
      <trkpt lat="43.4327020" lon="-7.3629200">
        <ele>129.8</ele>
        <time>2021-07-23T13:20:30Z</time>
      </trkpt>
      <trkpt lat="43.4326910" lon="-7.3629390">
        <ele>130.2</ele>
        <time>2021-07-23T13:20:31Z</time>
      </trkpt>
      <trkpt lat="43.4326700" lon="-7.3629780">
        <ele>130.2</ele>
        <time>2021-07-23T13:20:33Z</time>
      </trkpt>
      <trkpt lat="43.4326270" lon="-7.3630530">
        <ele>130.6</ele>
        <time>2021-07-23T13:20:37Z</time>
      </trkpt>
      <trkpt lat="43.4326160" lon="-7.3630720">
        <ele>131.2</ele>
        <time>2021-07-23T13:20:38Z</time>
      </trkpt>
      <trkpt lat="43.4326030" lon="-7.3630920">
        <ele>131.6</ele>
        <time>2021-07-23T13:20:39Z</time>
      </trkpt>
      <trkpt lat="43.4325930" lon="-7.3631080">
        <ele>132.0</ele>
        <time>2021-07-23T13:20:40Z</time>
      </trkpt>
      <trkpt lat="43.4325820" lon="-7.3631280">
        <ele>132.4</ele>
        <time>2021-07-23T13:20:41Z</time>
      </trkpt>
      <trkpt lat="43.4324710" lon="-7.3633650">
        <ele>132.4</ele>
        <time>2021-07-23T13:20:50Z</time>
      </trkpt>
      <trkpt lat="43.4324270" lon="-7.3635350">
        <ele>132.4</ele>
        <time>2021-07-23T13:20:57Z</time>
      </trkpt>
      <trkpt lat="43.4324250" lon="-7.3636110">
        <ele>133.0</ele>
        <time>2021-07-23T13:21:00Z</time>
      </trkpt>
      <trkpt lat="43.4324250" lon="-7.3636400">
        <ele>133.4</ele>
        <time>2021-07-23T13:21:01Z</time>
      </trkpt>
      <trkpt lat="43.4324240" lon="-7.3636660">
        <ele>133.8</ele>
        <time>2021-07-23T13:21:02Z</time>
      </trkpt>
      <trkpt lat="43.4324230" lon="-7.3636900">
        <ele>134.2</ele>
        <time>2021-07-23T13:21:03Z</time>
      </trkpt>
      <trkpt lat="43.4324230" lon="-7.3637140">
        <ele>134.6</ele>
        <time>2021-07-23T13:21:04Z</time>
      </trkpt>
      <trkpt lat="43.4324200" lon="-7.3637390">
        <ele>134.6</ele>
        <time>2021-07-23T13:21:05Z</time>
      </trkpt>
      <trkpt lat="43.4324040" lon="-7.3639670">
        <ele>134.6</ele>
        <time>2021-07-23T13:21:14Z</time>
      </trkpt>
      <trkpt lat="43.4323830" lon="-7.3640880">
        <ele>135.0</ele>
        <time>2021-07-23T13:21:18Z</time>
      </trkpt>
      <trkpt lat="43.4323720" lon="-7.3641180">
        <ele>135.4</ele>
        <time>2021-07-23T13:21:19Z</time>
      </trkpt>
      <trkpt lat="43.4323600" lon="-7.3641450">
        <ele>135.8</ele>
        <time>2021-07-23T13:21:20Z</time>
      </trkpt>
      <trkpt lat="43.4323460" lon="-7.3641710">
        <ele>136.2</ele>
        <time>2021-07-23T13:21:21Z</time>
      </trkpt>
      <trkpt lat="43.4323300" lon="-7.3641940">
        <ele>136.6</ele>
        <time>2021-07-23T13:21:22Z</time>
      </trkpt>
      <trkpt lat="43.4322500" lon="-7.3643310">
        <ele>136.6</ele>
        <time>2021-07-23T13:21:28Z</time>
      </trkpt>
      <trkpt lat="43.4321550" lon="-7.3644870">
        <ele>137.0</ele>
        <time>2021-07-23T13:21:35Z</time>
      </trkpt>
      <trkpt lat="43.4321390" lon="-7.3645110">
        <ele>137.4</ele>
        <time>2021-07-23T13:21:36Z</time>
      </trkpt>
      <trkpt lat="43.4321230" lon="-7.3645350">
        <ele>138.0</ele>
        <time>2021-07-23T13:21:37Z</time>
      </trkpt>
      <trkpt lat="43.4321080" lon="-7.3645570">
        <ele>138.4</ele>
        <time>2021-07-23T13:21:38Z</time>
      </trkpt>
      <trkpt lat="43.4320950" lon="-7.3645790">
        <ele>138.8</ele>
        <time>2021-07-23T13:21:39Z</time>
      </trkpt>
      <trkpt lat="43.4320270" lon="-7.3646970">
        <ele>138.8</ele>
        <time>2021-07-23T13:21:44Z</time>
      </trkpt>
      <trkpt lat="43.4318900" lon="-7.3649070">
        <ele>139.2</ele>
        <time>2021-07-23T13:21:53Z</time>
      </trkpt>
      <trkpt lat="43.4318750" lon="-7.3649310">
        <ele>139.6</ele>
        <time>2021-07-23T13:21:54Z</time>
      </trkpt>
      <trkpt lat="43.4318590" lon="-7.3649540">
        <ele>140.0</ele>
        <time>2021-07-23T13:21:55Z</time>
      </trkpt>
      <trkpt lat="43.4318430" lon="-7.3649770">
        <ele>140.4</ele>
        <time>2021-07-23T13:21:56Z</time>
      </trkpt>
      <trkpt lat="43.4318300" lon="-7.3650030">
        <ele>141.0</ele>
        <time>2021-07-23T13:21:57Z</time>
      </trkpt>
      <trkpt lat="43.4317720" lon="-7.3651000">
        <ele>141.0</ele>
        <time>2021-07-23T13:22:01Z</time>
      </trkpt>
      <trkpt lat="43.4317470" lon="-7.3651430">
        <ele>141.4</ele>
        <time>2021-07-23T13:22:03Z</time>
      </trkpt>
      <trkpt lat="43.4317350" lon="-7.3651680">
        <ele>141.8</ele>
        <time>2021-07-23T13:22:04Z</time>
      </trkpt>
      <trkpt lat="43.4317210" lon="-7.3651910">
        <ele>142.2</ele>
        <time>2021-07-23T13:22:05Z</time>
      </trkpt>
      <trkpt lat="43.4317090" lon="-7.3652140">
        <ele>142.6</ele>
        <time>2021-07-23T13:22:06Z</time>
      </trkpt>
      <trkpt lat="43.4316970" lon="-7.3652380">
        <ele>143.0</ele>
        <time>2021-07-23T13:22:07Z</time>
      </trkpt>
      <trkpt lat="43.4316870" lon="-7.3652610">
        <ele>143.0</ele>
        <time>2021-07-23T13:22:08Z</time>
      </trkpt>
      <trkpt lat="43.4315690" lon="-7.3654640">
        <ele>143.0</ele>
        <time>2021-07-23T13:22:17Z</time>
      </trkpt>
      <trkpt lat="43.4315190" lon="-7.3655640">
        <ele>143.6</ele>
        <time>2021-07-23T13:22:21Z</time>
      </trkpt>
      <trkpt lat="43.4315030" lon="-7.3655860">
        <ele>144.0</ele>
        <time>2021-07-23T13:22:22Z</time>
      </trkpt>
      <trkpt lat="43.4314880" lon="-7.3656080">
        <ele>144.4</ele>
        <time>2021-07-23T13:22:23Z</time>
      </trkpt>
      <trkpt lat="43.4314760" lon="-7.3656320">
        <ele>144.8</ele>
        <time>2021-07-23T13:22:24Z</time>
      </trkpt>
      <trkpt lat="43.4314660" lon="-7.3656540">
        <ele>145.2</ele>
        <time>2021-07-23T13:22:25Z</time>
      </trkpt>
      <trkpt lat="43.4314280" lon="-7.3657600">
        <ele>145.2</ele>
        <time>2021-07-23T13:22:29Z</time>
      </trkpt>
      <trkpt lat="43.4314160" lon="-7.3657840">
        <ele>145.6</ele>
        <time>2021-07-23T13:22:30Z</time>
      </trkpt>
      <trkpt lat="43.4314040" lon="-7.3658070">
        <ele>146.0</ele>
        <time>2021-07-23T13:22:31Z</time>
      </trkpt>
      <trkpt lat="43.4313930" lon="-7.3658300">
        <ele>146.4</ele>
        <time>2021-07-23T13:22:32Z</time>
      </trkpt>
      <trkpt lat="43.4313790" lon="-7.3658520">
        <ele>146.8</ele>
        <time>2021-07-23T13:22:33Z</time>
      </trkpt>
      <trkpt lat="43.4313670" lon="-7.3658750">
        <ele>147.2</ele>
        <time>2021-07-23T13:22:34Z</time>
      </trkpt>
      <trkpt lat="43.4313430" lon="-7.3659230">
        <ele>147.2</ele>
        <time>2021-07-23T13:22:36Z</time>
      </trkpt>
      <trkpt lat="43.4312650" lon="-7.3660540">
        <ele>147.2</ele>
        <time>2021-07-23T13:22:42Z</time>
      </trkpt>
      <trkpt lat="43.4312160" lon="-7.3661490">
        <ele>147.2</ele>
        <time>2021-07-23T13:22:46Z</time>
      </trkpt>
      <trkpt lat="43.4312150" lon="-7.3662020">
        <ele>147.2</ele>
        <time>2021-07-23T13:22:48Z</time>
      </trkpt>
      <trkpt lat="43.4311620" lon="-7.3663740">
        <ele>147.2</ele>
        <time>2021-07-23T13:22:55Z</time>
      </trkpt>
      <trkpt lat="43.4311360" lon="-7.3664160">
        <ele>147.8</ele>
        <time>2021-07-23T13:22:57Z</time>
      </trkpt>
      <trkpt lat="43.4311230" lon="-7.3664350">
        <ele>148.2</ele>
        <time>2021-07-23T13:22:58Z</time>
      </trkpt>
      <trkpt lat="43.4311090" lon="-7.3664540">
        <ele>148.6</ele>
        <time>2021-07-23T13:22:59Z</time>
      </trkpt>
      <trkpt lat="43.4310930" lon="-7.3664740">
        <ele>149.0</ele>
        <time>2021-07-23T13:23:00Z</time>
      </trkpt>
      <trkpt lat="43.4310810" lon="-7.3664920">
        <ele>149.4</ele>
        <time>2021-07-23T13:23:01Z</time>
      </trkpt>
      <trkpt lat="43.4310440" lon="-7.3665510">
        <ele>149.4</ele>
        <time>2021-07-23T13:23:04Z</time>
      </trkpt>
      <trkpt lat="43.4309740" lon="-7.3667040">
        <ele>149.8</ele>
        <time>2021-07-23T13:23:11Z</time>
      </trkpt>
      <trkpt lat="43.4309670" lon="-7.3667250">
        <ele>150.4</ele>
        <time>2021-07-23T13:23:12Z</time>
      </trkpt>
      <trkpt lat="43.4309610" lon="-7.3667450">
        <ele>151.0</ele>
        <time>2021-07-23T13:23:13Z</time>
      </trkpt>
      <trkpt lat="43.4309570" lon="-7.3667640">
        <ele>151.4</ele>
        <time>2021-07-23T13:23:14Z</time>
      </trkpt>
      <trkpt lat="43.4309490" lon="-7.3667850">
        <ele>152.0</ele>
        <time>2021-07-23T13:23:15Z</time>
      </trkpt>
      <trkpt lat="43.4309230" lon="-7.3668100">
        <ele>152.0</ele>
        <time>2021-07-23T13:23:17Z</time>
      </trkpt>
      <trkpt lat="43.4309070" lon="-7.3668150">
        <ele>152.0</ele>
        <time>2021-07-23T13:23:18Z</time>
      </trkpt>
      <trkpt lat="43.4308020" lon="-7.3668580">
        <ele>152.0</ele>
        <time>2021-07-23T13:23:24Z</time>
      </trkpt>
      <trkpt lat="43.4307760" lon="-7.3669010">
        <ele>152.0</ele>
        <time>2021-07-23T13:23:28Z</time>
      </trkpt>
      <trkpt lat="43.4307580" lon="-7.3669410">
        <ele>152.0</ele>
        <time>2021-07-23T13:24:03Z</time>
      </trkpt>
      <trkpt lat="43.4307490" lon="-7.3669600">
        <ele>152.0</ele>
        <time>2021-07-23T13:24:04Z</time>
      </trkpt>
      <trkpt lat="43.4307260" lon="-7.3669980">
        <ele>152.0</ele>
        <time>2021-07-23T13:24:06Z</time>
      </trkpt>
      <trkpt lat="43.4306690" lon="-7.3670730">
        <ele>152.0</ele>
        <time>2021-07-23T13:24:10Z</time>
      </trkpt>
      <trkpt lat="43.4305810" lon="-7.3671780">
        <ele>152.4</ele>
        <time>2021-07-23T13:24:15Z</time>
      </trkpt>
      <trkpt lat="43.4305660" lon="-7.3672010">
        <ele>153.2</ele>
        <time>2021-07-23T13:24:16Z</time>
      </trkpt>
      <trkpt lat="43.4305510" lon="-7.3672220">
        <ele>153.6</ele>
        <time>2021-07-23T13:24:17Z</time>
      </trkpt>
      <trkpt lat="43.4305410" lon="-7.3672410">
        <ele>154.0</ele>
        <time>2021-07-23T13:24:18Z</time>
      </trkpt>
      <trkpt lat="43.4304120" lon="-7.3674350">
        <ele>154.0</ele>
        <time>2021-07-23T13:24:27Z</time>
      </trkpt>
      <trkpt lat="43.4303690" lon="-7.3675030">
        <ele>154.4</ele>
        <time>2021-07-23T13:24:30Z</time>
      </trkpt>
      <trkpt lat="43.4303570" lon="-7.3675260">
        <ele>155.0</ele>
        <time>2021-07-23T13:24:31Z</time>
      </trkpt>
      <trkpt lat="43.4303410" lon="-7.3675480">
        <ele>155.4</ele>
        <time>2021-07-23T13:24:32Z</time>
      </trkpt>
      <trkpt lat="43.4303250" lon="-7.3675690">
        <ele>155.8</ele>
        <time>2021-07-23T13:24:33Z</time>
      </trkpt>
      <trkpt lat="43.4303100" lon="-7.3675940">
        <ele>156.2</ele>
        <time>2021-07-23T13:24:34Z</time>
      </trkpt>
      <trkpt lat="43.4302880" lon="-7.3676350">
        <ele>156.2</ele>
        <time>2021-07-23T13:24:36Z</time>
      </trkpt>
      <trkpt lat="43.4301760" lon="-7.3678130">
        <ele>156.2</ele>
        <time>2021-07-23T13:24:44Z</time>
      </trkpt>
      <trkpt lat="43.4300870" lon="-7.3679100">
        <ele>156.6</ele>
        <time>2021-07-23T13:24:50Z</time>
      </trkpt>
      <trkpt lat="43.4300670" lon="-7.3679310">
        <ele>157.0</ele>
        <time>2021-07-23T13:24:51Z</time>
      </trkpt>
      <trkpt lat="43.4300470" lon="-7.3679510">
        <ele>157.4</ele>
        <time>2021-07-23T13:24:52Z</time>
      </trkpt>
      <trkpt lat="43.4300290" lon="-7.3679740">
        <ele>158.0</ele>
        <time>2021-07-23T13:24:53Z</time>
      </trkpt>
      <trkpt lat="43.4300130" lon="-7.3680020">
        <ele>158.4</ele>
        <time>2021-07-23T13:24:54Z</time>
      </trkpt>
      <trkpt lat="43.4299810" lon="-7.3680540">
        <ele>158.4</ele>
        <time>2021-07-23T13:24:56Z</time>
      </trkpt>
      <trkpt lat="43.4298770" lon="-7.3682110">
        <ele>158.4</ele>
        <time>2021-07-23T13:25:03Z</time>
      </trkpt>
      <trkpt lat="43.4298660" lon="-7.3682130">
        <ele>158.4</ele>
        <time>2021-07-23T13:25:06Z</time>
      </trkpt>
      <trkpt lat="43.4298530" lon="-7.3682450">
        <ele>158.4</ele>
        <time>2021-07-23T13:25:09Z</time>
      </trkpt>
      <trkpt lat="43.4298440" lon="-7.3682590">
        <ele>158.4</ele>
        <time>2021-07-23T13:25:10Z</time>
      </trkpt>
      <trkpt lat="43.4298010" lon="-7.3683020">
        <ele>158.8</ele>
        <time>2021-07-23T13:25:13Z</time>
      </trkpt>
      <trkpt lat="43.4297850" lon="-7.3683250">
        <ele>159.2</ele>
        <time>2021-07-23T13:25:14Z</time>
      </trkpt>
      <trkpt lat="43.4297680" lon="-7.3683510">
        <ele>159.6</ele>
        <time>2021-07-23T13:25:15Z</time>
      </trkpt>
      <trkpt lat="43.4297500" lon="-7.3683780">
        <ele>160.0</ele>
        <time>2021-07-23T13:25:16Z</time>
      </trkpt>
      <trkpt lat="43.4297330" lon="-7.3684020">
        <ele>160.4</ele>
        <time>2021-07-23T13:25:17Z</time>
      </trkpt>
      <trkpt lat="43.4296150" lon="-7.3685710">
        <ele>160.4</ele>
        <time>2021-07-23T13:25:24Z</time>
      </trkpt>
      <trkpt lat="43.4295430" lon="-7.3686920">
        <ele>160.8</ele>
        <time>2021-07-23T13:25:29Z</time>
      </trkpt>
      <trkpt lat="43.4295290" lon="-7.3687130">
        <ele>161.2</ele>
        <time>2021-07-23T13:25:30Z</time>
      </trkpt>
      <trkpt lat="43.4295180" lon="-7.3687340">
        <ele>161.6</ele>
        <time>2021-07-23T13:25:31Z</time>
      </trkpt>
      <trkpt lat="43.4295090" lon="-7.3687520">
        <ele>162.0</ele>
        <time>2021-07-23T13:25:32Z</time>
      </trkpt>
      <trkpt lat="43.4294990" lon="-7.3687720">
        <ele>162.4</ele>
        <time>2021-07-23T13:25:33Z</time>
      </trkpt>
      <trkpt lat="43.4294240" lon="-7.3688920">
        <ele>162.4</ele>
        <time>2021-07-23T13:25:39Z</time>
      </trkpt>
      <trkpt lat="43.4293400" lon="-7.3690180">
        <ele>162.8</ele>
        <time>2021-07-23T13:25:45Z</time>
      </trkpt>
      <trkpt lat="43.4293230" lon="-7.3690370">
        <ele>163.2</ele>
        <time>2021-07-23T13:25:46Z</time>
      </trkpt>
      <trkpt lat="43.4293100" lon="-7.3690560">
        <ele>163.6</ele>
        <time>2021-07-23T13:25:47Z</time>
      </trkpt>
      <trkpt lat="43.4292970" lon="-7.3690750">
        <ele>164.0</ele>
        <time>2021-07-23T13:25:48Z</time>
      </trkpt>
      <trkpt lat="43.4292860" lon="-7.3690890">
        <ele>164.4</ele>
        <time>2021-07-23T13:25:49Z</time>
      </trkpt>
      <trkpt lat="43.4292790" lon="-7.3691180">
        <ele>164.4</ele>
        <time>2021-07-23T13:25:51Z</time>
      </trkpt>
      <trkpt lat="43.4292790" lon="-7.3691390">
        <ele>164.4</ele>
        <time>2021-07-23T13:25:53Z</time>
      </trkpt>
      <trkpt lat="43.4292760" lon="-7.3691450">
        <ele>164.4</ele>
        <time>2021-07-23T13:25:54Z</time>
      </trkpt>
      <trkpt lat="43.4292810" lon="-7.3691920">
        <ele>166.6</ele>
        <time>2021-07-23T13:26:43Z</time>
      </trkpt>
      <trkpt lat="43.4292710" lon="-7.3691750">
        <ele>166.6</ele>
        <time>2021-07-23T13:26:44Z</time>
      </trkpt>
      <trkpt lat="43.4292670" lon="-7.3691470">
        <ele>166.6</ele>
        <time>2021-07-23T13:26:45Z</time>
      </trkpt>
      <trkpt lat="43.4292400" lon="-7.3689970">
        <ele>166.6</ele>
        <time>2021-07-23T13:26:50Z</time>
      </trkpt>
      <trkpt lat="43.4292160" lon="-7.3689650">
        <ele>166.6</ele>
        <time>2021-07-23T13:26:52Z</time>
      </trkpt>
      <trkpt lat="43.4291300" lon="-7.3688860">
        <ele>166.6</ele>
        <time>2021-07-23T13:26:58Z</time>
      </trkpt>
      <trkpt lat="43.4290840" lon="-7.3688640">
        <ele>166.6</ele>
        <time>2021-07-23T13:27:01Z</time>
      </trkpt>
      <trkpt lat="43.4290420" lon="-7.3688380">
        <ele>167.0</ele>
        <time>2021-07-23T13:27:04Z</time>
      </trkpt>
      <trkpt lat="43.4290290" lon="-7.3688280">
        <ele>167.4</ele>
        <time>2021-07-23T13:27:05Z</time>
      </trkpt>
      <trkpt lat="43.4290160" lon="-7.3688180">
        <ele>167.8</ele>
        <time>2021-07-23T13:27:06Z</time>
      </trkpt>
      <trkpt lat="43.4290040" lon="-7.3688080">
        <ele>168.6</ele>
        <time>2021-07-23T13:27:07Z</time>
      </trkpt>
      <trkpt lat="43.4289810" lon="-7.3687850">
        <ele>168.6</ele>
        <time>2021-07-23T13:27:09Z</time>
      </trkpt>
      <trkpt lat="43.4289540" lon="-7.3687320">
        <ele>168.6</ele>
        <time>2021-07-23T13:27:12Z</time>
      </trkpt>
      <trkpt lat="43.4289290" lon="-7.3686390">
        <ele>168.6</ele>
        <time>2021-07-23T13:27:16Z</time>
      </trkpt>
      <trkpt lat="43.4289040" lon="-7.3685430">
        <ele>168.6</ele>
        <time>2021-07-23T13:27:20Z</time>
      </trkpt>
      <trkpt lat="43.4288740" lon="-7.3684080">
        <ele>168.6</ele>
        <time>2021-07-23T13:27:26Z</time>
      </trkpt>
      <trkpt lat="43.4288660" lon="-7.3683440">
        <ele>168.6</ele>
        <time>2021-07-23T13:27:29Z</time>
      </trkpt>
      <trkpt lat="43.4288610" lon="-7.3682560">
        <ele>168.6</ele>
        <time>2021-07-23T13:27:32Z</time>
      </trkpt>
      <trkpt lat="43.4288610" lon="-7.3681240">
        <ele>168.6</ele>
        <time>2021-07-23T13:27:37Z</time>
      </trkpt>
      <trkpt lat="43.4288660" lon="-7.3680670">
        <ele>168.6</ele>
        <time>2021-07-23T13:27:39Z</time>
      </trkpt>
      <trkpt lat="43.4288660" lon="-7.3680400">
        <ele>168.6</ele>
        <time>2021-07-23T13:27:40Z</time>
      </trkpt>
      <trkpt lat="43.4288710" lon="-7.3679840">
        <ele>168.6</ele>
        <time>2021-07-23T13:27:42Z</time>
      </trkpt>
      <trkpt lat="43.4288810" lon="-7.3679620">
        <ele>168.6</ele>
        <time>2021-07-23T13:27:44Z</time>
      </trkpt>
      <trkpt lat="43.4284600" lon="-7.3630950">
        <ele>85.8</ele>
        <time>2021-07-24T06:38:00Z</time>
      </trkpt>
      <trkpt lat="43.4284600" lon="-7.3630950">
        <ele>85.8</ele>
        <time>2021-07-24T06:38:03Z</time>
      </trkpt>
      <trkpt lat="43.4284730" lon="-7.3630780">
        <ele>85.8</ele>
        <time>2021-07-24T06:38:04Z</time>
      </trkpt>
      <trkpt lat="43.4284880" lon="-7.3630620">
        <ele>85.8</ele>
        <time>2021-07-24T06:38:05Z</time>
      </trkpt>
      <trkpt lat="43.4285050" lon="-7.3630530">
        <ele>85.8</ele>
        <time>2021-07-24T06:38:06Z</time>
      </trkpt>
      <trkpt lat="43.4285650" lon="-7.3630510">
        <ele>85.8</ele>
        <time>2021-07-24T06:38:09Z</time>
      </trkpt>
      <trkpt lat="43.4286120" lon="-7.3630520">
        <ele>85.8</ele>
        <time>2021-07-24T06:38:12Z</time>
      </trkpt>
      <trkpt lat="43.4286160" lon="-7.3630550">
        <ele>85.8</ele>
        <time>2021-07-24T06:38:14Z</time>
      </trkpt>
      <trkpt lat="43.4286060" lon="-7.3630640">
        <ele>85.8</ele>
        <time>2021-07-24T06:38:17Z</time>
      </trkpt>
      <trkpt lat="43.4285640" lon="-7.3630720">
        <ele>85.8</ele>
        <time>2021-07-24T06:38:47Z</time>
      </trkpt>
      <trkpt lat="43.4285460" lon="-7.3630340">
        <ele>85.8</ele>
        <time>2021-07-24T06:38:49Z</time>
      </trkpt>
      <trkpt lat="43.4285180" lon="-7.3630150">
        <ele>85.8</ele>
        <time>2021-07-24T06:38:51Z</time>
      </trkpt>
      <trkpt lat="43.4284750" lon="-7.3630450">
        <ele>85.8</ele>
        <time>2021-07-24T06:38:54Z</time>
      </trkpt>
      <trkpt lat="43.4283980" lon="-7.3631430">
        <ele>85.8</ele>
        <time>2021-07-24T06:38:58Z</time>
      </trkpt>
      <trkpt lat="43.4283340" lon="-7.3631690">
        <ele>85.8</ele>
        <time>2021-07-24T06:39:00Z</time>
      </trkpt>
      <trkpt lat="43.4282370" lon="-7.3632010">
        <ele>85.8</ele>
        <time>2021-07-24T06:39:03Z</time>
      </trkpt>
      <trkpt lat="43.4281550" lon="-7.3632290">
        <ele>85.8</ele>
        <time>2021-07-24T06:39:06Z</time>
      </trkpt>
      <trkpt lat="43.4281050" lon="-7.3632330">
        <ele>85.8</ele>
        <time>2021-07-24T06:39:08Z</time>
      </trkpt>
      <trkpt lat="43.4280550" lon="-7.3632420">
        <ele>85.8</ele>
        <time>2021-07-24T06:39:10Z</time>
      </trkpt>
      <trkpt lat="43.4279660" lon="-7.3632360">
        <ele>85.8</ele>
        <time>2021-07-24T06:39:14Z</time>
      </trkpt>
      <trkpt lat="43.4279290" lon="-7.3632060">
        <ele>85.8</ele>
        <time>2021-07-24T06:39:16Z</time>
      </trkpt>
      <trkpt lat="43.4278580" lon="-7.3631370">
        <ele>85.8</ele>
        <time>2021-07-24T06:39:20Z</time>
      </trkpt>
      <trkpt lat="43.4277900" lon="-7.3630920">
        <ele>85.8</ele>
        <time>2021-07-24T06:39:23Z</time>
      </trkpt>
      <trkpt lat="43.4276100" lon="-7.3629540">
        <ele>85.8</ele>
        <time>2021-07-24T06:39:31Z</time>
      </trkpt>
      <trkpt lat="43.4275700" lon="-7.3628590">
        <ele>85.8</ele>
        <time>2021-07-24T06:39:36Z</time>
      </trkpt>
      <trkpt lat="43.4275700" lon="-7.3628150">
        <ele>85.8</ele>
        <time>2021-07-24T06:39:42Z</time>
      </trkpt>
      <trkpt lat="43.4275940" lon="-7.3627130">
        <ele>85.8</ele>
        <time>2021-07-24T06:39:46Z</time>
      </trkpt>
      <trkpt lat="43.4276050" lon="-7.3626150">
        <ele>85.8</ele>
        <time>2021-07-24T06:39:49Z</time>
      </trkpt>
      <trkpt lat="43.4276150" lon="-7.3623320">
        <ele>85.8</ele>
        <time>2021-07-24T06:39:55Z</time>
      </trkpt>
      <trkpt lat="43.4276210" lon="-7.3621710">
        <ele>85.2</ele>
        <time>2021-07-24T06:39:58Z</time>
      </trkpt>
      <trkpt lat="43.4276220" lon="-7.3621200">
        <ele>84.8</ele>
        <time>2021-07-24T06:39:59Z</time>
      </trkpt>
      <trkpt lat="43.4276220" lon="-7.3620740">
        <ele>84.4</ele>
        <time>2021-07-24T06:40:00Z</time>
      </trkpt>
      <trkpt lat="43.4276210" lon="-7.3620280">
        <ele>84.0</ele>
        <time>2021-07-24T06:40:01Z</time>
      </trkpt>
      <trkpt lat="43.4276180" lon="-7.3619890">
        <ele>83.6</ele>
        <time>2021-07-24T06:40:02Z</time>
      </trkpt>
      <trkpt lat="43.4276110" lon="-7.3619120">
        <ele>83.6</ele>
        <time>2021-07-24T06:40:04Z</time>
      </trkpt>
      <trkpt lat="43.4276060" lon="-7.3617940">
        <ele>83.6</ele>
        <time>2021-07-24T06:40:08Z</time>
      </trkpt>
      <trkpt lat="43.4276050" lon="-7.3616780">
        <ele>83.2</ele>
        <time>2021-07-24T06:40:12Z</time>
      </trkpt>
      <trkpt lat="43.4276060" lon="-7.3616350">
        <ele>82.8</ele>
        <time>2021-07-24T06:40:13Z</time>
      </trkpt>
      <trkpt lat="43.4276060" lon="-7.3615920">
        <ele>82.2</ele>
        <time>2021-07-24T06:40:14Z</time>
      </trkpt>
      <trkpt lat="43.4276060" lon="-7.3615490">
        <ele>81.8</ele>
        <time>2021-07-24T06:40:15Z</time>
      </trkpt>
      <trkpt lat="43.4276040" lon="-7.3615050">
        <ele>81.4</ele>
        <time>2021-07-24T06:40:16Z</time>
      </trkpt>
      <trkpt lat="43.4276080" lon="-7.3614100">
        <ele>81.0</ele>
        <time>2021-07-24T06:40:18Z</time>
      </trkpt>
      <trkpt lat="43.4276160" lon="-7.3613550">
        <ele>80.6</ele>
        <time>2021-07-24T06:40:19Z</time>
      </trkpt>
      <trkpt lat="43.4276060" lon="-7.3612950">
        <ele>80.2</ele>
        <time>2021-07-24T06:40:20Z</time>
      </trkpt>
      <trkpt lat="43.4276080" lon="-7.3612330">
        <ele>79.6</ele>
        <time>2021-07-24T06:40:21Z</time>
      </trkpt>
      <trkpt lat="43.4276150" lon="-7.3611670">
        <ele>79.2</ele>
        <time>2021-07-24T06:40:22Z</time>
      </trkpt>
      <trkpt lat="43.4276860" lon="-7.3607360">
        <ele>79.2</ele>
        <time>2021-07-24T06:40:28Z</time>
      </trkpt>
      <trkpt lat="43.4277410" lon="-7.3605330">
        <ele>79.2</ele>
        <time>2021-07-24T06:40:31Z</time>
      </trkpt>
      <trkpt lat="43.4277940" lon="-7.3604120">
        <ele>78.8</ele>
        <time>2021-07-24T06:40:33Z</time>
      </trkpt>
      <trkpt lat="43.4278190" lon="-7.3603540">
        <ele>78.4</ele>
        <time>2021-07-24T06:40:34Z</time>
      </trkpt>
      <trkpt lat="43.4278430" lon="-7.3602980">
        <ele>78.0</ele>
        <time>2021-07-24T06:40:35Z</time>
      </trkpt>
      <trkpt lat="43.4278610" lon="-7.3602500">
        <ele>77.6</ele>
        <time>2021-07-24T06:40:36Z</time>
      </trkpt>
      <trkpt lat="43.4278750" lon="-7.3602080">
        <ele>77.2</ele>
        <time>2021-07-24T06:40:37Z</time>
      </trkpt>
      <trkpt lat="43.4278940" lon="-7.3601470">
        <ele>77.2</ele>
        <time>2021-07-24T06:40:39Z</time>
      </trkpt>
      <trkpt lat="43.4278950" lon="-7.3600830">
        <ele>76.2</ele>
        <time>2021-07-24T06:40:42Z</time>
      </trkpt>
      <trkpt lat="43.4278930" lon="-7.3600760">
        <ele>75.8</ele>
        <time>2021-07-24T06:40:43Z</time>
      </trkpt>
      <trkpt lat="43.4279010" lon="-7.3600690">
        <ele>75.0</ele>
        <time>2021-07-24T06:41:11Z</time>
      </trkpt>
      <trkpt lat="43.4279280" lon="-7.3600400">
        <ele>75.0</ele>
        <time>2021-07-24T06:41:14Z</time>
      </trkpt>
      <trkpt lat="43.4279420" lon="-7.3599960">
        <ele>75.0</ele>
        <time>2021-07-24T06:41:17Z</time>
      </trkpt>
      <trkpt lat="43.4279410" lon="-7.3599660">
        <ele>75.0</ele>
        <time>2021-07-24T06:41:20Z</time>
      </trkpt>
      <trkpt lat="43.4279570" lon="-7.3599980">
        <ele>75.0</ele>
        <time>2021-07-24T06:41:25Z</time>
      </trkpt>
      <trkpt lat="43.4279580" lon="-7.3600210">
        <ele>75.0</ele>
        <time>2021-07-24T06:41:26Z</time>
      </trkpt>
      <trkpt lat="43.4278930" lon="-7.3601430">
        <ele>75.0</ele>
        <time>2021-07-24T06:41:31Z</time>
      </trkpt>
      <trkpt lat="43.4278560" lon="-7.3602080">
        <ele>75.0</ele>
        <time>2021-07-24T06:41:33Z</time>
      </trkpt>
      <trkpt lat="43.4278060" lon="-7.3603120">
        <ele>75.0</ele>
        <time>2021-07-24T06:41:36Z</time>
      </trkpt>
      <trkpt lat="43.4277780" lon="-7.3603790">
        <ele>75.0</ele>
        <time>2021-07-24T06:41:38Z</time>
      </trkpt>
      <trkpt lat="43.4277410" lon="-7.3604870">
        <ele>75.0</ele>
        <time>2021-07-24T06:41:41Z</time>
      </trkpt>
      <trkpt lat="43.4277060" lon="-7.3605930">
        <ele>75.0</ele>
        <time>2021-07-24T06:41:44Z</time>
      </trkpt>
      <trkpt lat="43.4276700" lon="-7.3606990">
        <ele>75.0</ele>
        <time>2021-07-24T06:41:47Z</time>
      </trkpt>
      <trkpt lat="43.4276420" lon="-7.3608450">
        <ele>75.0</ele>
        <time>2021-07-24T06:41:51Z</time>
      </trkpt>
      <trkpt lat="43.4276310" lon="-7.3609160">
        <ele>75.4</ele>
        <time>2021-07-24T06:41:53Z</time>
      </trkpt>
      <trkpt lat="43.4276280" lon="-7.3609520">
        <ele>75.8</ele>
        <time>2021-07-24T06:41:54Z</time>
      </trkpt>
      <trkpt lat="43.4276230" lon="-7.3609880">
        <ele>76.2</ele>
        <time>2021-07-24T06:41:55Z</time>
      </trkpt>
      <trkpt lat="43.4276190" lon="-7.3610250">
        <ele>77.0</ele>
        <time>2021-07-24T06:41:56Z</time>
      </trkpt>
      <trkpt lat="43.4275930" lon="-7.3611920">
        <ele>77.0</ele>
        <time>2021-07-24T06:42:01Z</time>
      </trkpt>
      <trkpt lat="43.4275820" lon="-7.3612560">
        <ele>77.0</ele>
        <time>2021-07-24T06:42:03Z</time>
      </trkpt>
      <trkpt lat="43.4275610" lon="-7.3614420">
        <ele>77.6</ele>
        <time>2021-07-24T06:42:09Z</time>
      </trkpt>
      <trkpt lat="43.4275610" lon="-7.3614670">
        <ele>78.0</ele>
        <time>2021-07-24T06:42:10Z</time>
      </trkpt>
      <trkpt lat="43.4275620" lon="-7.3614970">
        <ele>78.4</ele>
        <time>2021-07-24T06:42:11Z</time>
      </trkpt>
      <trkpt lat="43.4275610" lon="-7.3615240">
        <ele>78.8</ele>
        <time>2021-07-24T06:42:12Z</time>
      </trkpt>
      <trkpt lat="43.4275610" lon="-7.3615520">
        <ele>79.2</ele>
        <time>2021-07-24T06:42:13Z</time>
      </trkpt>
      <trkpt lat="43.4275500" lon="-7.3616950">
        <ele>79.2</ele>
        <time>2021-07-24T06:42:18Z</time>
      </trkpt>
      <trkpt lat="43.4275510" lon="-7.3617840">
        <ele>79.6</ele>
        <time>2021-07-24T06:42:21Z</time>
      </trkpt>
      <trkpt lat="43.4275560" lon="-7.3618120">
        <ele>80.0</ele>
        <time>2021-07-24T06:42:22Z</time>
      </trkpt>
      <trkpt lat="43.4275620" lon="-7.3618390">
        <ele>80.4</ele>
        <time>2021-07-24T06:42:23Z</time>
      </trkpt>
      <trkpt lat="43.4275650" lon="-7.3618630">
        <ele>80.8</ele>
        <time>2021-07-24T06:42:24Z</time>
      </trkpt>
      <trkpt lat="43.4275680" lon="-7.3618840">
        <ele>81.2</ele>
        <time>2021-07-24T06:42:25Z</time>
      </trkpt>
      <trkpt lat="43.4275690" lon="-7.3619080">
        <ele>81.2</ele>
        <time>2021-07-24T06:42:26Z</time>
      </trkpt>
      <trkpt lat="43.4275690" lon="-7.3621310">
        <ele>81.2</ele>
        <time>2021-07-24T06:42:34Z</time>
      </trkpt>
      <trkpt lat="43.4275820" lon="-7.3623890">
        <ele>81.2</ele>
        <time>2021-07-24T06:42:43Z</time>
      </trkpt>
      <trkpt lat="43.4275860" lon="-7.3624440">
        <ele>82.0</ele>
        <time>2021-07-24T06:42:45Z</time>
      </trkpt>
      <trkpt lat="43.4275850" lon="-7.3624750">
        <ele>82.4</ele>
        <time>2021-07-24T06:42:46Z</time>
      </trkpt>
      <trkpt lat="43.4275840" lon="-7.3625070">
        <ele>82.8</ele>
        <time>2021-07-24T06:42:47Z</time>
      </trkpt>
      <trkpt lat="43.4275830" lon="-7.3625330">
        <ele>83.2</ele>
        <time>2021-07-24T06:42:48Z</time>
      </trkpt>
      <trkpt lat="43.4275830" lon="-7.3625590">
        <ele>83.2</ele>
        <time>2021-07-24T06:42:49Z</time>
      </trkpt>
      <trkpt lat="43.4275460" lon="-7.3627220">
        <ele>83.2</ele>
        <time>2021-07-24T06:42:57Z</time>
      </trkpt>
      <trkpt lat="43.4275250" lon="-7.3626960">
        <ele>83.2</ele>
        <time>2021-07-24T06:43:01Z</time>
      </trkpt>
      <trkpt lat="43.4275020" lon="-7.3626800">
        <ele>83.2</ele>
        <time>2021-07-24T06:43:03Z</time>
      </trkpt>
      <trkpt lat="43.4274860" lon="-7.3626710">
        <ele>83.2</ele>
        <time>2021-07-24T06:43:04Z</time>
      </trkpt>
      <trkpt lat="43.4274460" lon="-7.3626560">
        <ele>83.2</ele>
        <time>2021-07-24T06:43:07Z</time>
      </trkpt>
      <trkpt lat="43.4274280" lon="-7.3626780">
        <ele>83.2</ele>
        <time>2021-07-24T06:43:09Z</time>
      </trkpt>
      <trkpt lat="43.4274230" lon="-7.3626910">
        <ele>83.2</ele>
        <time>2021-07-24T06:43:10Z</time>
      </trkpt>
      <trkpt lat="43.4274150" lon="-7.3627240">
        <ele>83.2</ele>
        <time>2021-07-24T06:43:13Z</time>
      </trkpt>
      <trkpt lat="43.4274180" lon="-7.3627410">
        <ele>83.2</ele>
        <time>2021-07-24T06:43:16Z</time>
      </trkpt>
      <trkpt lat="43.4274730" lon="-7.3627170">
        <ele>83.2</ele>
        <time>2021-07-24T06:43:22Z</time>
      </trkpt>
      <trkpt lat="43.4274870" lon="-7.3627230">
        <ele>83.2</ele>
        <time>2021-07-24T06:43:23Z</time>
      </trkpt>
      <trkpt lat="43.4275330" lon="-7.3627480">
        <ele>83.2</ele>
        <time>2021-07-24T06:43:26Z</time>
      </trkpt>
      <trkpt lat="43.4275590" lon="-7.3627800">
        <ele>83.2</ele>
        <time>2021-07-24T06:43:28Z</time>
      </trkpt>
      <trkpt lat="43.4275730" lon="-7.3628560">
        <ele>83.2</ele>
        <time>2021-07-24T06:43:31Z</time>
      </trkpt>
      <trkpt lat="43.4275820" lon="-7.3628990">
        <ele>83.2</ele>
        <time>2021-07-24T06:43:33Z</time>
      </trkpt>
      <trkpt lat="43.4275880" lon="-7.3629040">
        <ele>83.2</ele>
        <time>2021-07-24T06:43:35Z</time>
      </trkpt>
      <trkpt lat="43.4275750" lon="-7.3628370">
        <ele>83.2</ele>
        <time>2021-07-24T06:44:15Z</time>
      </trkpt>
      <trkpt lat="43.4275680" lon="-7.3628170">
        <ele>83.2</ele>
        <time>2021-07-24T06:44:16Z</time>
      </trkpt>
      <trkpt lat="43.4274980" lon="-7.3626910">
        <ele>83.2</ele>
        <time>2021-07-24T06:44:23Z</time>
      </trkpt>
      <trkpt lat="43.4274700" lon="-7.3626810">
        <ele>83.2</ele>
        <time>2021-07-24T06:44:26Z</time>
      </trkpt>
      <trkpt lat="43.4273340" lon="-7.3626660">
        <ele>83.2</ele>
        <time>2021-07-24T06:46:23Z</time>
      </trkpt>
      <trkpt lat="43.4273470" lon="-7.3626720">
        <ele>83.2</ele>
        <time>2021-07-24T06:46:24Z</time>
      </trkpt>
      <trkpt lat="43.4273710" lon="-7.3626870">
        <ele>83.2</ele>
        <time>2021-07-24T06:46:28Z</time>
      </trkpt>
      <trkpt lat="43.4274090" lon="-7.3627160">
        <ele>83.2</ele>
        <time>2021-07-24T06:46:38Z</time>
      </trkpt>
      <trkpt lat="43.4274250" lon="-7.3627260">
        <ele>83.2</ele>
        <time>2021-07-24T06:46:39Z</time>
      </trkpt>
      <trkpt lat="43.4275150" lon="-7.3628360">
        <ele>83.2</ele>
        <time>2021-07-24T06:46:45Z</time>
      </trkpt>
      <trkpt lat="43.4275380" lon="-7.3629510">
        <ele>83.2</ele>
        <time>2021-07-24T06:46:51Z</time>
      </trkpt>
      <trkpt lat="43.4275400" lon="-7.3629580">
        <ele>83.2</ele>
        <time>2021-07-24T06:46:52Z</time>
      </trkpt>
      <trkpt lat="43.4275400" lon="-7.3629720">
        <ele>83.2</ele>
        <time>2021-07-24T06:46:54Z</time>
      </trkpt>
      <trkpt lat="43.4275390" lon="-7.3630050">
        <ele>83.2</ele>
        <time>2021-07-24T06:46:56Z</time>
      </trkpt>
      <trkpt lat="43.4275410" lon="-7.3630840">
        <ele>83.2</ele>
        <time>2021-07-24T06:46:59Z</time>
      </trkpt>
      <trkpt lat="43.4275290" lon="-7.3631560">
        <ele>83.6</ele>
        <time>2021-07-24T06:47:02Z</time>
      </trkpt>
      <trkpt lat="43.4275200" lon="-7.3631810">
        <ele>84.0</ele>
        <time>2021-07-24T06:47:03Z</time>
      </trkpt>
      <trkpt lat="43.4275060" lon="-7.3632090">
        <ele>84.4</ele>
        <time>2021-07-24T06:47:04Z</time>
      </trkpt>
      <trkpt lat="43.4274920" lon="-7.3632330">
        <ele>84.8</ele>
        <time>2021-07-24T06:47:05Z</time>
      </trkpt>
      <trkpt lat="43.4274790" lon="-7.3632500">
        <ele>85.2</ele>
        <time>2021-07-24T06:47:06Z</time>
      </trkpt>
      <trkpt lat="43.4274640" lon="-7.3632670">
        <ele>85.2</ele>
        <time>2021-07-24T06:47:07Z</time>
      </trkpt>
      <trkpt lat="43.4273760" lon="-7.3633600">
        <ele>85.2</ele>
        <time>2021-07-24T06:47:12Z</time>
      </trkpt>
      <trkpt lat="43.4273410" lon="-7.3633960">
        <ele>85.2</ele>
        <time>2021-07-24T06:47:14Z</time>
      </trkpt>
      <trkpt lat="43.4272800" lon="-7.3634750">
        <ele>85.6</ele>
        <time>2021-07-24T06:47:18Z</time>
      </trkpt>
      <trkpt lat="43.4272640" lon="-7.3634970">
        <ele>86.2</ele>
        <time>2021-07-24T06:47:19Z</time>
      </trkpt>
      <trkpt lat="43.4272460" lon="-7.3635160">
        <ele>86.6</ele>
        <time>2021-07-24T06:47:20Z</time>
      </trkpt>
      <trkpt lat="43.4272310" lon="-7.3635350">
        <ele>87.0</ele>
        <time>2021-07-24T06:47:21Z</time>
      </trkpt>
      <trkpt lat="43.4272130" lon="-7.3635550">
        <ele>87.4</ele>
        <time>2021-07-24T06:47:22Z</time>
      </trkpt>
      <trkpt lat="43.4271020" lon="-7.3636660">
        <ele>87.4</ele>
        <time>2021-07-24T06:47:29Z</time>
      </trkpt>
      <trkpt lat="43.4270770" lon="-7.3636970">
        <ele>87.4</ele>
        <time>2021-07-24T06:47:31Z</time>
      </trkpt>
      <trkpt lat="43.4270350" lon="-7.3637290">
        <ele>87.8</ele>
        <time>2021-07-24T06:47:34Z</time>
      </trkpt>
      <trkpt lat="43.4270220" lon="-7.3637410">
        <ele>88.2</ele>
        <time>2021-07-24T06:47:35Z</time>
      </trkpt>
      <trkpt lat="43.4270100" lon="-7.3637580">
        <ele>88.6</ele>
        <time>2021-07-24T06:47:36Z</time>
      </trkpt>
      <trkpt lat="43.4270000" lon="-7.3637740">
        <ele>89.0</ele>
        <time>2021-07-24T06:47:37Z</time>
      </trkpt>
      <trkpt lat="43.4269930" lon="-7.3637940">
        <ele>89.4</ele>
        <time>2021-07-24T06:47:38Z</time>
      </trkpt>
      <trkpt lat="43.4269390" lon="-7.3638840">
        <ele>89.4</ele>
        <time>2021-07-24T06:47:43Z</time>
      </trkpt>
      <trkpt lat="43.4269170" lon="-7.3639270">
        <ele>89.8</ele>
        <time>2021-07-24T06:47:45Z</time>
      </trkpt>
      <trkpt lat="43.4269070" lon="-7.3639440">
        <ele>90.2</ele>
        <time>2021-07-24T06:47:46Z</time>
      </trkpt>
      <trkpt lat="43.4268980" lon="-7.3639600">
        <ele>90.8</ele>
        <time>2021-07-24T06:47:47Z</time>
      </trkpt>
      <trkpt lat="43.4268910" lon="-7.3639770">
        <ele>91.2</ele>
        <time>2021-07-24T06:47:48Z</time>
      </trkpt>
      <trkpt lat="43.4268810" lon="-7.3639900">
        <ele>91.6</ele>
        <time>2021-07-24T06:47:49Z</time>
      </trkpt>
      <trkpt lat="43.4268740" lon="-7.3640070">
        <ele>91.6</ele>
        <time>2021-07-24T06:47:50Z</time>
      </trkpt>
      <trkpt lat="43.4268290" lon="-7.3640620">
        <ele>91.6</ele>
        <time>2021-07-24T06:47:55Z</time>
      </trkpt>
      <trkpt lat="43.4268110" lon="-7.3640910">
        <ele>92.0</ele>
        <time>2021-07-24T06:47:57Z</time>
      </trkpt>
      <trkpt lat="43.4268020" lon="-7.3641050">
        <ele>92.4</ele>
        <time>2021-07-24T06:47:58Z</time>
      </trkpt>
      <trkpt lat="43.4267930" lon="-7.3641190">
        <ele>92.8</ele>
        <time>2021-07-24T06:47:59Z</time>
      </trkpt>
      <trkpt lat="43.4267830" lon="-7.3641300">
        <ele>93.2</ele>
        <time>2021-07-24T06:48:00Z</time>
      </trkpt>
      <trkpt lat="43.4267750" lon="-7.3641420">
        <ele>93.6</ele>
        <time>2021-07-24T06:48:01Z</time>
      </trkpt>
      <trkpt lat="43.4267620" lon="-7.3641680">
        <ele>93.6</ele>
        <time>2021-07-24T06:48:03Z</time>
      </trkpt>
      <trkpt lat="43.4266810" lon="-7.3643030">
        <ele>94.0</ele>
        <time>2021-07-24T06:48:11Z</time>
      </trkpt>
      <trkpt lat="43.4266710" lon="-7.3643180">
        <ele>94.4</ele>
        <time>2021-07-24T06:48:12Z</time>
      </trkpt>
      <trkpt lat="43.4266580" lon="-7.3643340">
        <ele>94.8</ele>
        <time>2021-07-24T06:48:13Z</time>
      </trkpt>
      <trkpt lat="43.4266450" lon="-7.3643480">
        <ele>95.2</ele>
        <time>2021-07-24T06:48:14Z</time>
      </trkpt>
      <trkpt lat="43.4266340" lon="-7.3643650">
        <ele>95.6</ele>
        <time>2021-07-24T06:48:15Z</time>
      </trkpt>
      <trkpt lat="43.4266180" lon="-7.3643980">
        <ele>95.6</ele>
        <time>2021-07-24T06:48:17Z</time>
      </trkpt>
      <trkpt lat="43.4265780" lon="-7.3644750">
        <ele>96.0</ele>
        <time>2021-07-24T06:48:22Z</time>
      </trkpt>
      <trkpt lat="43.4265680" lon="-7.3644900">
        <ele>96.4</ele>
        <time>2021-07-24T06:48:23Z</time>
      </trkpt>
      <trkpt lat="43.4265580" lon="-7.3645050">
        <ele>97.0</ele>
        <time>2021-07-24T06:48:24Z</time>
      </trkpt>
      <trkpt lat="43.4265470" lon="-7.3645200">
        <ele>97.4</ele>
        <time>2021-07-24T06:48:25Z</time>
      </trkpt>
      <trkpt lat="43.4265370" lon="-7.3645350">
        <ele>97.8</ele>
        <time>2021-07-24T06:48:26Z</time>
      </trkpt>
      <trkpt lat="43.4265150" lon="-7.3645680">
        <ele>97.8</ele>
        <time>2021-07-24T06:48:28Z</time>
      </trkpt>
      <trkpt lat="43.4264880" lon="-7.3646220">
        <ele>97.8</ele>
        <time>2021-07-24T06:48:31Z</time>
      </trkpt>
      <trkpt lat="43.4264740" lon="-7.3646700">
        <ele>97.8</ele>
        <time>2021-07-24T06:48:34Z</time>
      </trkpt>
      <trkpt lat="43.4264710" lon="-7.3647040">
        <ele>98.2</ele>
        <time>2021-07-24T06:48:36Z</time>
      </trkpt>
      <trkpt lat="43.4264660" lon="-7.3647240">
        <ele>98.6</ele>
        <time>2021-07-24T06:48:37Z</time>
      </trkpt>
      <trkpt lat="43.4264670" lon="-7.3647440">
        <ele>99.0</ele>
        <time>2021-07-24T06:48:38Z</time>
      </trkpt>
      <trkpt lat="43.4264690" lon="-7.3647670">
        <ele>99.4</ele>
        <time>2021-07-24T06:48:39Z</time>
      </trkpt>
      <trkpt lat="43.4264690" lon="-7.3647860">
        <ele>99.8</ele>
        <time>2021-07-24T06:48:40Z</time>
      </trkpt>
      <trkpt lat="43.4264500" lon="-7.3649540">
        <ele>99.8</ele>
        <time>2021-07-24T06:48:46Z</time>
      </trkpt>
      <trkpt lat="43.4264080" lon="-7.3651340">
        <ele>99.8</ele>
        <time>2021-07-24T06:48:51Z</time>
      </trkpt>
      <trkpt lat="43.4263840" lon="-7.3651880">
        <ele>99.8</ele>
        <time>2021-07-24T06:48:53Z</time>
      </trkpt>
      <trkpt lat="43.4262750" lon="-7.3654090">
        <ele>99.8</ele>
        <time>2021-07-24T06:49:01Z</time>
      </trkpt>
      <trkpt lat="43.4261690" lon="-7.3655700">
        <ele>99.8</ele>
        <time>2021-07-24T06:49:09Z</time>
      </trkpt>
      <trkpt lat="43.4261570" lon="-7.3655930">
        <ele>100.2</ele>
        <time>2021-07-24T06:49:10Z</time>
      </trkpt>
      <trkpt lat="43.4261480" lon="-7.3656150">
        <ele>100.6</ele>
        <time>2021-07-24T06:49:11Z</time>
      </trkpt>
      <trkpt lat="43.4261390" lon="-7.3656360">
        <ele>101.0</ele>
        <time>2021-07-24T06:49:12Z</time>
      </trkpt>
      <trkpt lat="43.4261270" lon="-7.3656540">
        <ele>101.4</ele>
        <time>2021-07-24T06:49:13Z</time>
      </trkpt>
      <trkpt lat="43.4261120" lon="-7.3656700">
        <ele>101.8</ele>
        <time>2021-07-24T06:49:14Z</time>
      </trkpt>
      <trkpt lat="43.4261000" lon="-7.3656860">
        <ele>101.8</ele>
        <time>2021-07-24T06:49:15Z</time>
      </trkpt>
      <trkpt lat="43.4260150" lon="-7.3658020">
        <ele>101.8</ele>
        <time>2021-07-24T06:49:22Z</time>
      </trkpt>
      <trkpt lat="43.4259910" lon="-7.3658290">
        <ele>102.2</ele>
        <time>2021-07-24T06:49:24Z</time>
      </trkpt>
      <trkpt lat="43.4259770" lon="-7.3658400">
        <ele>102.6</ele>
        <time>2021-07-24T06:49:25Z</time>
      </trkpt>
      <trkpt lat="43.4259640" lon="-7.3658520">
        <ele>103.0</ele>
        <time>2021-07-24T06:49:26Z</time>
      </trkpt>
      <trkpt lat="43.4259510" lon="-7.3658670">
        <ele>103.4</ele>
        <time>2021-07-24T06:49:27Z</time>
      </trkpt>
      <trkpt lat="43.4259380" lon="-7.3658820">
        <ele>103.8</ele>
        <time>2021-07-24T06:49:28Z</time>
      </trkpt>
      <trkpt lat="43.4259260" lon="-7.3659020">
        <ele>103.8</ele>
        <time>2021-07-24T06:49:29Z</time>
      </trkpt>
      <trkpt lat="43.4258680" lon="-7.3660030">
        <ele>103.8</ele>
        <time>2021-07-24T06:49:35Z</time>
      </trkpt>
      <trkpt lat="43.4258460" lon="-7.3660360">
        <ele>103.8</ele>
        <time>2021-07-24T06:49:37Z</time>
      </trkpt>
      <trkpt lat="43.4258380" lon="-7.3660510">
        <ele>104.2</ele>
        <time>2021-07-24T06:49:38Z</time>
      </trkpt>
      <trkpt lat="43.4258290" lon="-7.3660690">
        <ele>104.8</ele>
        <time>2021-07-24T06:49:39Z</time>
      </trkpt>
      <trkpt lat="43.4258200" lon="-7.3660830">
        <ele>105.2</ele>
        <time>2021-07-24T06:49:40Z</time>
      </trkpt>
      <trkpt lat="43.4258100" lon="-7.3661000">
        <ele>105.6</ele>
        <time>2021-07-24T06:49:41Z</time>
      </trkpt>
      <trkpt lat="43.4258000" lon="-7.3661190">
        <ele>106.0</ele>
        <time>2021-07-24T06:49:42Z</time>
      </trkpt>
      <trkpt lat="43.4257820" lon="-7.3661490">
        <ele>106.0</ele>
        <time>2021-07-24T06:49:44Z</time>
      </trkpt>
      <trkpt lat="43.4257030" lon="-7.3662420">
        <ele>106.0</ele>
        <time>2021-07-24T06:49:51Z</time>
      </trkpt>
      <trkpt lat="43.4256920" lon="-7.3662560">
        <ele>106.4</ele>
        <time>2021-07-24T06:49:52Z</time>
      </trkpt>
      <trkpt lat="43.4256810" lon="-7.3662710">
        <ele>106.8</ele>
        <time>2021-07-24T06:49:53Z</time>
      </trkpt>
      <trkpt lat="43.4256700" lon="-7.3662850">
        <ele>107.2</ele>
        <time>2021-07-24T06:49:54Z</time>
      </trkpt>
      <trkpt lat="43.4256590" lon="-7.3662970">
        <ele>107.8</ele>
        <time>2021-07-24T06:49:55Z</time>
      </trkpt>
      <trkpt lat="43.4256450" lon="-7.3663070">
        <ele>108.2</ele>
        <time>2021-07-24T06:49:56Z</time>
      </trkpt>
      <trkpt lat="43.4255860" lon="-7.3663440">
        <ele>108.2</ele>
        <time>2021-07-24T06:50:00Z</time>
      </trkpt>
      <trkpt lat="43.4255170" lon="-7.3664200">
        <ele>108.6</ele>
        <time>2021-07-24T06:50:06Z</time>
      </trkpt>
      <trkpt lat="43.4255060" lon="-7.3664300">
        <ele>109.0</ele>
        <time>2021-07-24T06:50:07Z</time>
      </trkpt>
      <trkpt lat="43.4254930" lon="-7.3664390">
        <ele>109.4</ele>
        <time>2021-07-24T06:50:08Z</time>
      </trkpt>
      <trkpt lat="43.4254810" lon="-7.3664500">
        <ele>109.8</ele>
        <time>2021-07-24T06:50:09Z</time>
      </trkpt>
      <trkpt lat="43.4254710" lon="-7.3664600">
        <ele>110.2</ele>
        <time>2021-07-24T06:50:10Z</time>
      </trkpt>
      <trkpt lat="43.4253560" lon="-7.3665270">
        <ele>110.6</ele>
        <time>2021-07-24T06:50:19Z</time>
      </trkpt>
      <trkpt lat="43.4253420" lon="-7.3665380">
        <ele>111.0</ele>
        <time>2021-07-24T06:50:20Z</time>
      </trkpt>
      <trkpt lat="43.4253290" lon="-7.3665480">
        <ele>111.4</ele>
        <time>2021-07-24T06:50:21Z</time>
      </trkpt>
      <trkpt lat="43.4253160" lon="-7.3665570">
        <ele>111.8</ele>
        <time>2021-07-24T06:50:22Z</time>
      </trkpt>
      <trkpt lat="43.4253030" lon="-7.3665640">
        <ele>112.2</ele>
        <time>2021-07-24T06:50:23Z</time>
      </trkpt>
      <trkpt lat="43.4252430" lon="-7.3665990">
        <ele>112.2</ele>
        <time>2021-07-24T06:50:28Z</time>
      </trkpt>
      <trkpt lat="43.4252110" lon="-7.3666210">
        <ele>112.8</ele>
        <time>2021-07-24T06:50:31Z</time>
      </trkpt>
      <trkpt lat="43.4252000" lon="-7.3666300">
        <ele>113.2</ele>
        <time>2021-07-24T06:50:32Z</time>
      </trkpt>
      <trkpt lat="43.4251890" lon="-7.3666370">
        <ele>113.6</ele>
        <time>2021-07-24T06:50:33Z</time>
      </trkpt>
      <trkpt lat="43.4251760" lon="-7.3666470">
        <ele>114.0</ele>
        <time>2021-07-24T06:50:34Z</time>
      </trkpt>
      <trkpt lat="43.4251630" lon="-7.3666560">
        <ele>114.4</ele>
        <time>2021-07-24T06:50:35Z</time>
      </trkpt>
      <trkpt lat="43.4251040" lon="-7.3666520">
        <ele>114.4</ele>
        <time>2021-07-24T06:50:40Z</time>
      </trkpt>
      <trkpt lat="43.4250920" lon="-7.3666440">
        <ele>114.4</ele>
        <time>2021-07-24T06:50:41Z</time>
      </trkpt>
      <trkpt lat="43.4250830" lon="-7.3665640">
        <ele>114.4</ele>
        <time>2021-07-24T06:50:45Z</time>
      </trkpt>
      <trkpt lat="43.4251050" lon="-7.3665260">
        <ele>115.0</ele>
        <time>2021-07-24T06:50:47Z</time>
      </trkpt>
      <trkpt lat="43.4251150" lon="-7.3665050">
        <ele>115.4</ele>
        <time>2021-07-24T06:50:48Z</time>
      </trkpt>
      <trkpt lat="43.4251260" lon="-7.3664870">
        <ele>115.8</ele>
        <time>2021-07-24T06:50:49Z</time>
      </trkpt>
      <trkpt lat="43.4251400" lon="-7.3664670">
        <ele>116.2</ele>
        <time>2021-07-24T06:50:50Z</time>
      </trkpt>
      <trkpt lat="43.4251500" lon="-7.3664460">
        <ele>116.6</ele>
        <time>2021-07-24T06:50:51Z</time>
      </trkpt>
      <trkpt lat="43.4251610" lon="-7.3664220">
        <ele>116.6</ele>
        <time>2021-07-24T06:50:52Z</time>
      </trkpt>
      <trkpt lat="43.4252260" lon="-7.3662900">
        <ele>116.6</ele>
        <time>2021-07-24T06:50:59Z</time>
      </trkpt>
      <trkpt lat="43.4252560" lon="-7.3662370">
        <ele>117.0</ele>
        <time>2021-07-24T06:51:02Z</time>
      </trkpt>
      <trkpt lat="43.4252670" lon="-7.3662210">
        <ele>117.4</ele>
        <time>2021-07-24T06:51:03Z</time>
      </trkpt>
      <trkpt lat="43.4252760" lon="-7.3662020">
        <ele>118.0</ele>
        <time>2021-07-24T06:51:04Z</time>
      </trkpt>
      <trkpt lat="43.4252880" lon="-7.3661840">
        <ele>118.4</ele>
        <time>2021-07-24T06:51:05Z</time>
      </trkpt>
      <trkpt lat="43.4252990" lon="-7.3661640">
        <ele>118.8</ele>
        <time>2021-07-24T06:51:06Z</time>
      </trkpt>
      <trkpt lat="43.4253100" lon="-7.3661470">
        <ele>118.8</ele>
        <time>2021-07-24T06:51:07Z</time>
      </trkpt>
      <trkpt lat="43.4254020" lon="-7.3659790">
        <ele>118.8</ele>
        <time>2021-07-24T06:51:16Z</time>
      </trkpt>
      <trkpt lat="43.4254100" lon="-7.3659580">
        <ele>119.2</ele>
        <time>2021-07-24T06:51:17Z</time>
      </trkpt>
      <trkpt lat="43.4254170" lon="-7.3659380">
        <ele>119.6</ele>
        <time>2021-07-24T06:51:18Z</time>
      </trkpt>
      <trkpt lat="43.4254250" lon="-7.3659150">
        <ele>120.0</ele>
        <time>2021-07-24T06:51:19Z</time>
      </trkpt>
      <trkpt lat="43.4254350" lon="-7.3658960">
        <ele>120.4</ele>
        <time>2021-07-24T06:51:20Z</time>
      </trkpt>
      <trkpt lat="43.4254460" lon="-7.3658780">
        <ele>120.8</ele>
        <time>2021-07-24T06:51:21Z</time>
      </trkpt>
      <trkpt lat="43.4254740" lon="-7.3658250">
        <ele>120.8</ele>
        <time>2021-07-24T06:51:24Z</time>
      </trkpt>
      <trkpt lat="43.4255580" lon="-7.3656730">
        <ele>120.8</ele>
        <time>2021-07-24T06:51:32Z</time>
      </trkpt>
      <trkpt lat="43.4256100" lon="-7.3656010">
        <ele>121.2</ele>
        <time>2021-07-24T06:51:36Z</time>
      </trkpt>
      <trkpt lat="43.4256230" lon="-7.3655830">
        <ele>121.6</ele>
        <time>2021-07-24T06:51:37Z</time>
      </trkpt>
      <trkpt lat="43.4256390" lon="-7.3655640">
        <ele>122.0</ele>
        <time>2021-07-24T06:51:38Z</time>
      </trkpt>
      <trkpt lat="43.4256560" lon="-7.3655440">
        <ele>122.4</ele>
        <time>2021-07-24T06:51:39Z</time>
      </trkpt>
      <trkpt lat="43.4256710" lon="-7.3655250">
        <ele>122.8</ele>
        <time>2021-07-24T06:51:40Z</time>
      </trkpt>
      <trkpt lat="43.4257030" lon="-7.3654870">
        <ele>122.8</ele>
        <time>2021-07-24T06:51:42Z</time>
      </trkpt>
      <trkpt lat="43.4257620" lon="-7.3653730">
        <ele>122.8</ele>
        <time>2021-07-24T06:51:48Z</time>
      </trkpt>
      <trkpt lat="43.4258250" lon="-7.3651650">
        <ele>122.8</ele>
        <time>2021-07-24T06:51:58Z</time>
      </trkpt>
      <trkpt lat="43.4258290" lon="-7.3651440">
        <ele>123.2</ele>
        <time>2021-07-24T06:51:59Z</time>
      </trkpt>
      <trkpt lat="43.4258340" lon="-7.3651220">
        <ele>123.6</ele>
        <time>2021-07-24T06:52:00Z</time>
      </trkpt>
      <trkpt lat="43.4258380" lon="-7.3650960">
        <ele>124.0</ele>
        <time>2021-07-24T06:52:01Z</time>
      </trkpt>
      <trkpt lat="43.4258450" lon="-7.3650680">
        <ele>124.4</ele>
        <time>2021-07-24T06:52:02Z</time>
      </trkpt>
      <trkpt lat="43.4258520" lon="-7.3650430">
        <ele>124.8</ele>
        <time>2021-07-24T06:52:03Z</time>
      </trkpt>
      <trkpt lat="43.4258720" lon="-7.3650010">
        <ele>124.8</ele>
        <time>2021-07-24T06:52:05Z</time>
      </trkpt>
      <trkpt lat="43.4259460" lon="-7.3648250">
        <ele>124.8</ele>
        <time>2021-07-24T06:52:12Z</time>
      </trkpt>
      <trkpt lat="43.4259980" lon="-7.3646690">
        <ele>124.8</ele>
        <time>2021-07-24T06:52:18Z</time>
      </trkpt>
      <trkpt lat="43.4260210" lon="-7.3646150">
        <ele>124.8</ele>
        <time>2021-07-24T06:52:20Z</time>
      </trkpt>
      <trkpt lat="43.4260400" lon="-7.3645620">
        <ele>125.2</ele>
        <time>2021-07-24T06:52:22Z</time>
      </trkpt>
      <trkpt lat="43.4260470" lon="-7.3645340">
        <ele>125.6</ele>
        <time>2021-07-24T06:52:23Z</time>
      </trkpt>
      <trkpt lat="43.4260580" lon="-7.3645070">
        <ele>126.0</ele>
        <time>2021-07-24T06:52:24Z</time>
      </trkpt>
      <trkpt lat="43.4260680" lon="-7.3644820">
        <ele>126.4</ele>
        <time>2021-07-24T06:52:25Z</time>
      </trkpt>
      <trkpt lat="43.4260780" lon="-7.3644580">
        <ele>126.8</ele>
        <time>2021-07-24T06:52:26Z</time>
      </trkpt>
      <trkpt lat="43.4260990" lon="-7.3644100">
        <ele>126.8</ele>
        <time>2021-07-24T06:52:28Z</time>
      </trkpt>
      <trkpt lat="43.4261520" lon="-7.3642390">
        <ele>126.8</ele>
        <time>2021-07-24T06:52:35Z</time>
      </trkpt>
      <trkpt lat="43.4261600" lon="-7.3641520">
        <ele>127.2</ele>
        <time>2021-07-24T06:52:39Z</time>
      </trkpt>
      <trkpt lat="43.4261590" lon="-7.3641360">
        <ele>127.6</ele>
        <time>2021-07-24T06:52:40Z</time>
      </trkpt>
      <trkpt lat="43.4261560" lon="-7.3641210">
        <ele>128.2</ele>
        <time>2021-07-24T06:52:41Z</time>
      </trkpt>
      <trkpt lat="43.4261540" lon="-7.3641050">
        <ele>128.6</ele>
        <time>2021-07-24T06:52:42Z</time>
      </trkpt>
      <trkpt lat="43.4261510" lon="-7.3640900">
        <ele>129.0</ele>
        <time>2021-07-24T06:52:43Z</time>
      </trkpt>
      <trkpt lat="43.4261280" lon="-7.3640100">
        <ele>129.0</ele>
        <time>2021-07-24T06:52:49Z</time>
      </trkpt>
      <trkpt lat="43.4261210" lon="-7.3639710">
        <ele>129.4</ele>
        <time>2021-07-24T06:52:52Z</time>
      </trkpt>
      <trkpt lat="43.4261170" lon="-7.3639550">
        <ele>129.8</ele>
        <time>2021-07-24T06:52:53Z</time>
      </trkpt>
      <trkpt lat="43.4261130" lon="-7.3639370">
        <ele>130.2</ele>
        <time>2021-07-24T06:52:54Z</time>
      </trkpt>
      <trkpt lat="43.4261080" lon="-7.3639200">
        <ele>130.6</ele>
        <time>2021-07-24T06:52:55Z</time>
      </trkpt>
      <trkpt lat="43.4261040" lon="-7.3639020">
        <ele>131.0</ele>
        <time>2021-07-24T06:52:56Z</time>
      </trkpt>
      <trkpt lat="43.4260930" lon="-7.3638670">
        <ele>131.0</ele>
        <time>2021-07-24T06:52:58Z</time>
      </trkpt>
      <trkpt lat="43.4260770" lon="-7.3638320">
        <ele>131.0</ele>
        <time>2021-07-24T06:53:00Z</time>
      </trkpt>
      <trkpt lat="43.4260400" lon="-7.3637630">
        <ele>131.4</ele>
        <time>2021-07-24T06:53:04Z</time>
      </trkpt>
      <trkpt lat="43.4260330" lon="-7.3637460">
        <ele>131.8</ele>
        <time>2021-07-24T06:53:05Z</time>
      </trkpt>
      <trkpt lat="43.4260280" lon="-7.3637290">
        <ele>132.2</ele>
        <time>2021-07-24T06:53:06Z</time>
      </trkpt>
      <trkpt lat="43.4260250" lon="-7.3637120">
        <ele>132.6</ele>
        <time>2021-07-24T06:53:07Z</time>
      </trkpt>
      <trkpt lat="43.4260240" lon="-7.3636880">
        <ele>133.0</ele>
        <time>2021-07-24T06:53:08Z</time>
      </trkpt>
      <trkpt lat="43.4260080" lon="-7.3635490">
        <ele>133.0</ele>
        <time>2021-07-24T06:53:14Z</time>
      </trkpt>
      <trkpt lat="43.4260060" lon="-7.3635290">
        <ele>133.4</ele>
        <time>2021-07-24T06:53:15Z</time>
      </trkpt>
      <trkpt lat="43.4260040" lon="-7.3635080">
        <ele>133.8</ele>
        <time>2021-07-24T06:53:16Z</time>
      </trkpt>
      <trkpt lat="43.4260010" lon="-7.3634840">
        <ele>134.2</ele>
        <time>2021-07-24T06:53:17Z</time>
      </trkpt>
      <trkpt lat="43.4259960" lon="-7.3634620">
        <ele>134.6</ele>
        <time>2021-07-24T06:53:18Z</time>
      </trkpt>
      <trkpt lat="43.4259880" lon="-7.3634430">
        <ele>135.0</ele>
        <time>2021-07-24T06:53:19Z</time>
      </trkpt>
      <trkpt lat="43.4259580" lon="-7.3633840">
        <ele>135.0</ele>
        <time>2021-07-24T06:53:22Z</time>
      </trkpt>
      <trkpt lat="43.4259260" lon="-7.3632570">
        <ele>135.4</ele>
        <time>2021-07-24T06:53:28Z</time>
      </trkpt>
      <trkpt lat="43.4259210" lon="-7.3632370">
        <ele>135.8</ele>
        <time>2021-07-24T06:53:29Z</time>
      </trkpt>
      <trkpt lat="43.4259180" lon="-7.3632190">
        <ele>136.2</ele>
        <time>2021-07-24T06:53:30Z</time>
      </trkpt>
      <trkpt lat="43.4259150" lon="-7.3631990">
        <ele>136.6</ele>
        <time>2021-07-24T06:53:31Z</time>
      </trkpt>
      <trkpt lat="43.4259110" lon="-7.3631790">
        <ele>137.0</ele>
        <time>2021-07-24T06:53:32Z</time>
      </trkpt>
      <trkpt lat="43.4258720" lon="-7.3630950">
        <ele>137.0</ele>
        <time>2021-07-24T06:53:37Z</time>
      </trkpt>
      <trkpt lat="43.4257850" lon="-7.3629990">
        <ele>137.6</ele>
        <time>2021-07-24T06:53:44Z</time>
      </trkpt>
      <trkpt lat="43.4257700" lon="-7.3629930">
        <ele>138.0</ele>
        <time>2021-07-24T06:53:45Z</time>
      </trkpt>
      <trkpt lat="43.4257550" lon="-7.3629890">
        <ele>138.4</ele>
        <time>2021-07-24T06:53:46Z</time>
      </trkpt>
      <trkpt lat="43.4257390" lon="-7.3629850">
        <ele>138.8</ele>
        <time>2021-07-24T06:53:47Z</time>
      </trkpt>
      <trkpt lat="43.4257220" lon="-7.3629820">
        <ele>139.2</ele>
        <time>2021-07-24T06:53:48Z</time>
      </trkpt>
      <trkpt lat="43.4256430" lon="-7.3629890">
        <ele>139.2</ele>
        <time>2021-07-24T06:53:53Z</time>
      </trkpt>
      <trkpt lat="43.4255300" lon="-7.3630450">
        <ele>139.2</ele>
        <time>2021-07-24T06:54:00Z</time>
      </trkpt>
      <trkpt lat="43.4254450" lon="-7.3630850">
        <ele>139.6</ele>
        <time>2021-07-24T06:54:05Z</time>
      </trkpt>
      <trkpt lat="43.4254280" lon="-7.3630970">
        <ele>140.0</ele>
        <time>2021-07-24T06:54:06Z</time>
      </trkpt>
      <trkpt lat="43.4254110" lon="-7.3631080">
        <ele>140.4</ele>
        <time>2021-07-24T06:54:07Z</time>
      </trkpt>
      <trkpt lat="43.4253960" lon="-7.3631220">
        <ele>140.8</ele>
        <time>2021-07-24T06:54:08Z</time>
      </trkpt>
      <trkpt lat="43.4253790" lon="-7.3631350">
        <ele>141.2</ele>
        <time>2021-07-24T06:54:09Z</time>
      </trkpt>
      <trkpt lat="43.4253190" lon="-7.3632050">
        <ele>141.2</ele>
        <time>2021-07-24T06:54:13Z</time>
      </trkpt>
      <trkpt lat="43.4252870" lon="-7.3632410">
        <ele>141.2</ele>
        <time>2021-07-24T06:54:15Z</time>
      </trkpt>
      <trkpt lat="43.4251880" lon="-7.3633540">
        <ele>141.2</ele>
        <time>2021-07-24T06:54:22Z</time>
      </trkpt>
      <trkpt lat="43.4251450" lon="-7.3634080">
        <ele>141.6</ele>
        <time>2021-07-24T06:54:25Z</time>
      </trkpt>
      <trkpt lat="43.4251310" lon="-7.3634270">
        <ele>142.0</ele>
        <time>2021-07-24T06:54:26Z</time>
      </trkpt>
      <trkpt lat="43.4251180" lon="-7.3634440">
        <ele>142.4</ele>
        <time>2021-07-24T06:54:27Z</time>
      </trkpt>
      <trkpt lat="43.4251040" lon="-7.3634620">
        <ele>142.8</ele>
        <time>2021-07-24T06:54:28Z</time>
      </trkpt>
      <trkpt lat="43.4250900" lon="-7.3634780">
        <ele>143.2</ele>
        <time>2021-07-24T06:54:29Z</time>
      </trkpt>
      <trkpt lat="43.4250540" lon="-7.3635270">
        <ele>143.2</ele>
        <time>2021-07-24T06:54:32Z</time>
      </trkpt>
      <trkpt lat="43.4249490" lon="-7.3636400">
        <ele>143.6</ele>
        <time>2021-07-24T06:54:40Z</time>
      </trkpt>
      <trkpt lat="43.4249380" lon="-7.3636550">
        <ele>144.0</ele>
        <time>2021-07-24T06:54:41Z</time>
      </trkpt>
      <trkpt lat="43.4249250" lon="-7.3636650">
        <ele>144.4</ele>
        <time>2021-07-24T06:54:42Z</time>
      </trkpt>
      <trkpt lat="43.4249110" lon="-7.3636740">
        <ele>145.4</ele>
        <time>2021-07-24T06:54:43Z</time>
      </trkpt>
      <trkpt lat="43.4248570" lon="-7.3637130">
        <ele>145.4</ele>
        <time>2021-07-24T06:54:47Z</time>
      </trkpt>
      <trkpt lat="43.4247660" lon="-7.3637810">
        <ele>145.4</ele>
        <time>2021-07-24T06:54:54Z</time>
      </trkpt>
      <trkpt lat="43.4247380" lon="-7.3637940">
        <ele>145.8</ele>
        <time>2021-07-24T06:54:56Z</time>
      </trkpt>
      <trkpt lat="43.4247250" lon="-7.3638080">
        <ele>146.2</ele>
        <time>2021-07-24T06:54:57Z</time>
      </trkpt>
      <trkpt lat="43.4247120" lon="-7.3638200">
        <ele>146.8</ele>
        <time>2021-07-24T06:54:58Z</time>
      </trkpt>
      <trkpt lat="43.4246950" lon="-7.3638290">
        <ele>147.2</ele>
        <time>2021-07-24T06:54:59Z</time>
      </trkpt>
      <trkpt lat="43.4246800" lon="-7.3638340">
        <ele>147.8</ele>
        <time>2021-07-24T06:55:00Z</time>
      </trkpt>
      <trkpt lat="43.4246640" lon="-7.3638410">
        <ele>147.8</ele>
        <time>2021-07-24T06:55:01Z</time>
      </trkpt>
      <trkpt lat="43.4245650" lon="-7.3639060">
        <ele>147.8</ele>
        <time>2021-07-24T06:55:08Z</time>
      </trkpt>
      <trkpt lat="43.4245060" lon="-7.3639520">
        <ele>148.2</ele>
        <time>2021-07-24T06:55:12Z</time>
      </trkpt>
      <trkpt lat="43.4244910" lon="-7.3639600">
        <ele>148.6</ele>
        <time>2021-07-24T06:55:13Z</time>
      </trkpt>
      <trkpt lat="43.4244740" lon="-7.3639650">
        <ele>149.0</ele>
        <time>2021-07-24T06:55:14Z</time>
      </trkpt>
      <trkpt lat="43.4244560" lon="-7.3639710">
        <ele>149.4</ele>
        <time>2021-07-24T06:55:15Z</time>
      </trkpt>
      <trkpt lat="43.4244420" lon="-7.3639790">
        <ele>149.8</ele>
        <time>2021-07-24T06:55:16Z</time>
      </trkpt>
      <trkpt lat="43.4243260" lon="-7.3640140">
        <ele>149.8</ele>
        <time>2021-07-24T06:55:24Z</time>
      </trkpt>
      <trkpt lat="43.4242960" lon="-7.3640280">
        <ele>150.2</ele>
        <time>2021-07-24T06:55:26Z</time>
      </trkpt>
      <trkpt lat="43.4242800" lon="-7.3640260">
        <ele>150.6</ele>
        <time>2021-07-24T06:55:27Z</time>
      </trkpt>
      <trkpt lat="43.4242680" lon="-7.3640330">
        <ele>151.0</ele>
        <time>2021-07-24T06:55:28Z</time>
      </trkpt>
      <trkpt lat="43.4242540" lon="-7.3640490">
        <ele>151.4</ele>
        <time>2021-07-24T06:55:29Z</time>
      </trkpt>
      <trkpt lat="43.4242430" lon="-7.3640600">
        <ele>151.8</ele>
        <time>2021-07-24T06:55:30Z</time>
      </trkpt>
      <trkpt lat="43.4242330" lon="-7.3640730">
        <ele>151.8</ele>
        <time>2021-07-24T06:55:31Z</time>
      </trkpt>
      <trkpt lat="43.4241390" lon="-7.3641310">
        <ele>151.8</ele>
        <time>2021-07-24T06:55:38Z</time>
      </trkpt>
      <trkpt lat="43.4241160" lon="-7.3641480">
        <ele>152.2</ele>
        <time>2021-07-24T06:55:40Z</time>
      </trkpt>
      <trkpt lat="43.4241020" lon="-7.3641530">
        <ele>152.6</ele>
        <time>2021-07-24T06:55:41Z</time>
      </trkpt>
      <trkpt lat="43.4240880" lon="-7.3641590">
        <ele>153.0</ele>
        <time>2021-07-24T06:55:42Z</time>
      </trkpt>
      <trkpt lat="43.4240720" lon="-7.3641620">
        <ele>153.4</ele>
        <time>2021-07-24T06:55:43Z</time>
      </trkpt>
      <trkpt lat="43.4240590" lon="-7.3641710">
        <ele>153.8</ele>
        <time>2021-07-24T06:55:44Z</time>
      </trkpt>
      <trkpt lat="43.4240440" lon="-7.3641750">
        <ele>153.8</ele>
        <time>2021-07-24T06:55:45Z</time>
      </trkpt>
      <trkpt lat="43.4239470" lon="-7.3642270">
        <ele>153.8</ele>
        <time>2021-07-24T06:55:53Z</time>
      </trkpt>
      <trkpt lat="43.4239350" lon="-7.3642360">
        <ele>154.4</ele>
        <time>2021-07-24T06:55:54Z</time>
      </trkpt>
      <trkpt lat="43.4239220" lon="-7.3642420">
        <ele>154.8</ele>
        <time>2021-07-24T06:55:55Z</time>
      </trkpt>
      <trkpt lat="43.4239080" lon="-7.3642510">
        <ele>155.2</ele>
        <time>2021-07-24T06:55:56Z</time>
      </trkpt>
      <trkpt lat="43.4238960" lon="-7.3642550">
        <ele>156.0</ele>
        <time>2021-07-24T06:55:57Z</time>
      </trkpt>
      <trkpt lat="43.4238490" lon="-7.3643040">
        <ele>156.0</ele>
        <time>2021-07-24T06:56:01Z</time>
      </trkpt>
      <trkpt lat="43.4237630" lon="-7.3643790">
        <ele>156.0</ele>
        <time>2021-07-24T06:56:07Z</time>
      </trkpt>
      <trkpt lat="43.4237510" lon="-7.3643900">
        <ele>156.4</ele>
        <time>2021-07-24T06:56:08Z</time>
      </trkpt>
      <trkpt lat="43.4237360" lon="-7.3643970">
        <ele>156.8</ele>
        <time>2021-07-24T06:56:09Z</time>
      </trkpt>
      <trkpt lat="43.4237190" lon="-7.3644000">
        <ele>157.2</ele>
        <time>2021-07-24T06:56:10Z</time>
      </trkpt>
      <trkpt lat="43.4237070" lon="-7.3644010">
        <ele>157.6</ele>
        <time>2021-07-24T06:56:11Z</time>
      </trkpt>
      <trkpt lat="43.4236980" lon="-7.3644010">
        <ele>158.0</ele>
        <time>2021-07-24T06:56:12Z</time>
      </trkpt>
      <trkpt lat="43.4236600" lon="-7.3644110">
        <ele>158.0</ele>
        <time>2021-07-24T06:56:15Z</time>
      </trkpt>
      <trkpt lat="43.4235840" lon="-7.3644730">
        <ele>158.4</ele>
        <time>2021-07-24T06:56:21Z</time>
      </trkpt>
      <trkpt lat="43.4235760" lon="-7.3644790">
        <ele>159.4</ele>
        <time>2021-07-24T06:56:22Z</time>
      </trkpt>
      <trkpt lat="43.4235630" lon="-7.3644850">
        <ele>159.8</ele>
        <time>2021-07-24T06:56:23Z</time>
      </trkpt>
      <trkpt lat="43.4235510" lon="-7.3644950">
        <ele>160.2</ele>
        <time>2021-07-24T06:56:24Z</time>
      </trkpt>
      <trkpt lat="43.4235000" lon="-7.3645050">
        <ele>160.2</ele>
        <time>2021-07-24T06:56:29Z</time>
      </trkpt>
      <trkpt lat="43.4232400" lon="-7.3645480">
        <ele>164.4</ele>
        <time>2021-07-24T06:56:47Z</time>
      </trkpt>
      <trkpt lat="43.4231960" lon="-7.3645640">
        <ele>164.4</ele>
        <time>2021-07-24T06:56:50Z</time>
      </trkpt>
      <trkpt lat="43.4231470" lon="-7.3645760">
        <ele>164.8</ele>
        <time>2021-07-24T06:56:54Z</time>
      </trkpt>
      <trkpt lat="43.4231360" lon="-7.3645740">
        <ele>165.4</ele>
        <time>2021-07-24T06:56:55Z</time>
      </trkpt>
      <trkpt lat="43.4231270" lon="-7.3645780">
        <ele>165.8</ele>
        <time>2021-07-24T06:56:56Z</time>
      </trkpt>
      <trkpt lat="43.4231150" lon="-7.3645760">
        <ele>166.2</ele>
        <time>2021-07-24T06:56:57Z</time>
      </trkpt>
      <trkpt lat="43.4230930" lon="-7.3645720">
        <ele>166.6</ele>
        <time>2021-07-24T06:56:58Z</time>
      </trkpt>
      <trkpt lat="43.4229450" lon="-7.3646090">
        <ele>166.6</ele>
        <time>2021-07-24T06:57:05Z</time>
      </trkpt>
      <trkpt lat="43.4229420" lon="-7.3646100">
        <ele>167.0</ele>
        <time>2021-07-24T06:57:06Z</time>
      </trkpt>
      <trkpt lat="43.4229350" lon="-7.3646100">
        <ele>167.4</ele>
        <time>2021-07-24T06:57:07Z</time>
      </trkpt>
      <trkpt lat="43.4229260" lon="-7.3646090">
        <ele>167.8</ele>
        <time>2021-07-24T06:57:08Z</time>
      </trkpt>
      <trkpt lat="43.4229130" lon="-7.3646130">
        <ele>168.4</ele>
        <time>2021-07-24T06:57:09Z</time>
      </trkpt>
      <trkpt lat="43.4229040" lon="-7.3646170">
        <ele>168.8</ele>
        <time>2021-07-24T06:57:10Z</time>
      </trkpt>
      <trkpt lat="43.4228920" lon="-7.3646250">
        <ele>168.8</ele>
        <time>2021-07-24T06:57:11Z</time>
      </trkpt>
      <trkpt lat="43.4228240" lon="-7.3646610">
        <ele>169.2</ele>
        <time>2021-07-24T06:57:16Z</time>
      </trkpt>
      <trkpt lat="43.4228110" lon="-7.3646660">
        <ele>169.6</ele>
        <time>2021-07-24T06:57:17Z</time>
      </trkpt>
      <trkpt lat="43.4227980" lon="-7.3646740">
        <ele>170.0</ele>
        <time>2021-07-24T06:57:18Z</time>
      </trkpt>
      <trkpt lat="43.4227850" lon="-7.3646820">
        <ele>170.4</ele>
        <time>2021-07-24T06:57:19Z</time>
      </trkpt>
      <trkpt lat="43.4227720" lon="-7.3646850">
        <ele>170.8</ele>
        <time>2021-07-24T06:57:20Z</time>
      </trkpt>
      <trkpt lat="43.4226990" lon="-7.3647190">
        <ele>170.8</ele>
        <time>2021-07-24T06:57:26Z</time>
      </trkpt>
      <trkpt lat="43.4226840" lon="-7.3647310">
        <ele>171.2</ele>
        <time>2021-07-24T06:57:27Z</time>
      </trkpt>
      <trkpt lat="43.4226690" lon="-7.3647410">
        <ele>171.6</ele>
        <time>2021-07-24T06:57:28Z</time>
      </trkpt>
      <trkpt lat="43.4226590" lon="-7.3647460">
        <ele>172.0</ele>
        <time>2021-07-24T06:57:29Z</time>
      </trkpt>
      <trkpt lat="43.4226540" lon="-7.3647490">
        <ele>172.4</ele>
        <time>2021-07-24T06:57:30Z</time>
      </trkpt>
      <trkpt lat="43.4226360" lon="-7.3647560">
        <ele>172.8</ele>
        <time>2021-07-24T06:57:31Z</time>
      </trkpt>
      <trkpt lat="43.4226200" lon="-7.3647620">
        <ele>172.8</ele>
        <time>2021-07-24T06:57:32Z</time>
      </trkpt>
      <trkpt lat="43.4225530" lon="-7.3648110">
        <ele>173.2</ele>
        <time>2021-07-24T06:57:37Z</time>
      </trkpt>
      <trkpt lat="43.4225430" lon="-7.3648200">
        <ele>173.6</ele>
        <time>2021-07-24T06:57:38Z</time>
      </trkpt>
      <trkpt lat="43.4225310" lon="-7.3648310">
        <ele>174.0</ele>
        <time>2021-07-24T06:57:39Z</time>
      </trkpt>
      <trkpt lat="43.4225190" lon="-7.3648420">
        <ele>174.4</ele>
        <time>2021-07-24T06:57:40Z</time>
      </trkpt>
      <trkpt lat="43.4225060" lon="-7.3648580">
        <ele>174.8</ele>
        <time>2021-07-24T06:57:41Z</time>
      </trkpt>
      <trkpt lat="43.4224370" lon="-7.3649420">
        <ele>174.8</ele>
        <time>2021-07-24T06:57:47Z</time>
      </trkpt>
      <trkpt lat="43.4224140" lon="-7.3649910">
        <ele>175.2</ele>
        <time>2021-07-24T06:57:50Z</time>
      </trkpt>
      <trkpt lat="43.4224120" lon="-7.3649970">
        <ele>175.6</ele>
        <time>2021-07-24T06:57:51Z</time>
      </trkpt>
      <trkpt lat="43.4223990" lon="-7.3650110">
        <ele>176.2</ele>
        <time>2021-07-24T06:57:52Z</time>
      </trkpt>
      <trkpt lat="43.4223870" lon="-7.3650220">
        <ele>176.6</ele>
        <time>2021-07-24T06:57:53Z</time>
      </trkpt>
      <trkpt lat="43.4223750" lon="-7.3650360">
        <ele>177.0</ele>
        <time>2021-07-24T06:57:54Z</time>
      </trkpt>
      <trkpt lat="43.4223090" lon="-7.3650980">
        <ele>177.0</ele>
        <time>2021-07-24T06:58:00Z</time>
      </trkpt>
      <trkpt lat="43.4222700" lon="-7.3651490">
        <ele>177.4</ele>
        <time>2021-07-24T06:58:04Z</time>
      </trkpt>
      <trkpt lat="43.4222600" lon="-7.3651630">
        <ele>177.8</ele>
        <time>2021-07-24T06:58:05Z</time>
      </trkpt>
      <trkpt lat="43.4222480" lon="-7.3651710">
        <ele>178.2</ele>
        <time>2021-07-24T06:58:06Z</time>
      </trkpt>
      <trkpt lat="43.4222350" lon="-7.3651790">
        <ele>178.6</ele>
        <time>2021-07-24T06:58:07Z</time>
      </trkpt>
      <trkpt lat="43.4222210" lon="-7.3651880">
        <ele>179.0</ele>
        <time>2021-07-24T06:58:08Z</time>
      </trkpt>
      <trkpt lat="43.4221900" lon="-7.3652630">
        <ele>179.0</ele>
        <time>2021-07-24T06:58:12Z</time>
      </trkpt>
      <trkpt lat="43.4221780" lon="-7.3652860">
        <ele>179.0</ele>
        <time>2021-07-24T06:58:13Z</time>
      </trkpt>
      <trkpt lat="43.4221200" lon="-7.3653770">
        <ele>179.4</ele>
        <time>2021-07-24T06:58:18Z</time>
      </trkpt>
      <trkpt lat="43.4221100" lon="-7.3653960">
        <ele>179.8</ele>
        <time>2021-07-24T06:58:19Z</time>
      </trkpt>
      <trkpt lat="43.4221000" lon="-7.3654140">
        <ele>180.2</ele>
        <time>2021-07-24T06:58:20Z</time>
      </trkpt>
      <trkpt lat="43.4220880" lon="-7.3654310">
        <ele>180.8</ele>
        <time>2021-07-24T06:58:21Z</time>
      </trkpt>
      <trkpt lat="43.4220770" lon="-7.3654480">
        <ele>181.2</ele>
        <time>2021-07-24T06:58:22Z</time>
      </trkpt>
      <trkpt lat="43.4219970" lon="-7.3655710">
        <ele>181.2</ele>
        <time>2021-07-24T06:58:30Z</time>
      </trkpt>
      <trkpt lat="43.4219760" lon="-7.3656010">
        <ele>181.6</ele>
        <time>2021-07-24T06:58:32Z</time>
      </trkpt>
      <trkpt lat="43.4219650" lon="-7.3656170">
        <ele>182.0</ele>
        <time>2021-07-24T06:58:33Z</time>
      </trkpt>
      <trkpt lat="43.4219550" lon="-7.3656370">
        <ele>182.4</ele>
        <time>2021-07-24T06:58:34Z</time>
      </trkpt>
      <trkpt lat="43.4219450" lon="-7.3656510">
        <ele>182.8</ele>
        <time>2021-07-24T06:58:35Z</time>
      </trkpt>
      <trkpt lat="43.4219330" lon="-7.3656650">
        <ele>183.2</ele>
        <time>2021-07-24T06:58:36Z</time>
      </trkpt>
      <trkpt lat="43.4219130" lon="-7.3656970">
        <ele>183.2</ele>
        <time>2021-07-24T06:58:38Z</time>
      </trkpt>
      <trkpt lat="43.4218460" lon="-7.3657930">
        <ele>183.2</ele>
        <time>2021-07-24T06:58:44Z</time>
      </trkpt>
      <trkpt lat="43.4218010" lon="-7.3658600">
        <ele>183.6</ele>
        <time>2021-07-24T06:58:48Z</time>
      </trkpt>
      <trkpt lat="43.4217890" lon="-7.3658700">
        <ele>184.0</ele>
        <time>2021-07-24T06:58:49Z</time>
      </trkpt>
      <trkpt lat="43.4217760" lon="-7.3658780">
        <ele>184.8</ele>
        <time>2021-07-24T06:58:50Z</time>
      </trkpt>
      <trkpt lat="43.4217610" lon="-7.3658880">
        <ele>185.2</ele>
        <time>2021-07-24T06:58:51Z</time>
      </trkpt>
      <trkpt lat="43.4217490" lon="-7.3658970">
        <ele>185.2</ele>
        <time>2021-07-24T06:58:52Z</time>
      </trkpt>
      <trkpt lat="43.4216380" lon="-7.3659220">
        <ele>185.2</ele>
        <time>2021-07-24T06:58:59Z</time>
      </trkpt>
      <trkpt lat="43.4215330" lon="-7.3659350">
        <ele>185.6</ele>
        <time>2021-07-24T06:59:06Z</time>
      </trkpt>
      <trkpt lat="43.4215180" lon="-7.3659390">
        <ele>186.0</ele>
        <time>2021-07-24T06:59:07Z</time>
      </trkpt>
      <trkpt lat="43.4215010" lon="-7.3659460">
        <ele>186.4</ele>
        <time>2021-07-24T06:59:08Z</time>
      </trkpt>
      <trkpt lat="43.4214840" lon="-7.3659490">
        <ele>186.8</ele>
        <time>2021-07-24T06:59:09Z</time>
      </trkpt>
      <trkpt lat="43.4214710" lon="-7.3659440">
        <ele>187.2</ele>
        <time>2021-07-24T06:59:10Z</time>
      </trkpt>
      <trkpt lat="43.4214130" lon="-7.3659490">
        <ele>187.2</ele>
        <time>2021-07-24T06:59:14Z</time>
      </trkpt>
      <trkpt lat="43.4212680" lon="-7.3659470">
        <ele>187.2</ele>
        <time>2021-07-24T06:59:24Z</time>
      </trkpt>
      <trkpt lat="43.4212530" lon="-7.3659480">
        <ele>187.6</ele>
        <time>2021-07-24T06:59:25Z</time>
      </trkpt>
      <trkpt lat="43.4212400" lon="-7.3659480">
        <ele>188.0</ele>
        <time>2021-07-24T06:59:26Z</time>
      </trkpt>
      <trkpt lat="43.4212250" lon="-7.3659500">
        <ele>188.4</ele>
        <time>2021-07-24T06:59:27Z</time>
      </trkpt>
      <trkpt lat="43.4212100" lon="-7.3659480">
        <ele>189.0</ele>
        <time>2021-07-24T06:59:28Z</time>
      </trkpt>
      <trkpt lat="43.4211930" lon="-7.3659460">
        <ele>189.4</ele>
        <time>2021-07-24T06:59:29Z</time>
      </trkpt>
      <trkpt lat="43.4211620" lon="-7.3659450">
        <ele>189.4</ele>
        <time>2021-07-24T06:59:31Z</time>
      </trkpt>
      <trkpt lat="43.4210140" lon="-7.3659020">
        <ele>189.8</ele>
        <time>2021-07-24T06:59:41Z</time>
      </trkpt>
      <trkpt lat="43.4210020" lon="-7.3658960">
        <ele>190.2</ele>
        <time>2021-07-24T06:59:42Z</time>
      </trkpt>
      <trkpt lat="43.4209910" lon="-7.3658910">
        <ele>190.6</ele>
        <time>2021-07-24T06:59:43Z</time>
      </trkpt>
      <trkpt lat="43.4209800" lon="-7.3658850">
        <ele>191.0</ele>
        <time>2021-07-24T06:59:44Z</time>
      </trkpt>
      <trkpt lat="43.4209700" lon="-7.3658740">
        <ele>191.4</ele>
        <time>2021-07-24T06:59:45Z</time>
      </trkpt>
      <trkpt lat="43.4209030" lon="-7.3658230">
        <ele>191.4</ele>
        <time>2021-07-24T06:59:50Z</time>
      </trkpt>
      <trkpt lat="43.4208230" lon="-7.3657360">
        <ele>191.8</ele>
        <time>2021-07-24T06:59:58Z</time>
      </trkpt>
      <trkpt lat="43.4208100" lon="-7.3657290">
        <ele>192.2</ele>
        <time>2021-07-24T06:59:59Z</time>
      </trkpt>
      <trkpt lat="43.4207980" lon="-7.3657190">
        <ele>192.6</ele>
        <time>2021-07-24T07:00:00Z</time>
      </trkpt>
      <trkpt lat="43.4207830" lon="-7.3657100">
        <ele>193.0</ele>
        <time>2021-07-24T07:00:01Z</time>
      </trkpt>
      <trkpt lat="43.4207680" lon="-7.3657010">
        <ele>193.4</ele>
        <time>2021-07-24T07:00:02Z</time>
      </trkpt>
      <trkpt lat="43.4207170" lon="-7.3656270">
        <ele>193.4</ele>
        <time>2021-07-24T07:00:07Z</time>
      </trkpt>
      <trkpt lat="43.4206730" lon="-7.3655690">
        <ele>193.4</ele>
        <time>2021-07-24T07:00:12Z</time>
      </trkpt>
      <trkpt lat="43.4206620" lon="-7.3655580">
        <ele>194.0</ele>
        <time>2021-07-24T07:00:13Z</time>
      </trkpt>
      <trkpt lat="43.4206520" lon="-7.3655450">
        <ele>194.4</ele>
        <time>2021-07-24T07:00:14Z</time>
      </trkpt>
      <trkpt lat="43.4206400" lon="-7.3655320">
        <ele>194.8</ele>
        <time>2021-07-24T07:00:15Z</time>
      </trkpt>
      <trkpt lat="43.4206320" lon="-7.3655210">
        <ele>195.2</ele>
        <time>2021-07-24T07:00:16Z</time>
      </trkpt>
      <trkpt lat="43.4206230" lon="-7.3655120">
        <ele>195.6</ele>
        <time>2021-07-24T07:00:17Z</time>
      </trkpt>
      <trkpt lat="43.4205820" lon="-7.3654550">
        <ele>195.6</ele>
        <time>2021-07-24T07:00:22Z</time>
      </trkpt>
      <trkpt lat="43.4205420" lon="-7.3653770">
        <ele>196.0</ele>
        <time>2021-07-24T07:00:27Z</time>
      </trkpt>
      <trkpt lat="43.4205340" lon="-7.3653700">
        <ele>196.4</ele>
        <time>2021-07-24T07:00:28Z</time>
      </trkpt>
      <trkpt lat="43.4205260" lon="-7.3653620">
        <ele>197.2</ele>
        <time>2021-07-24T07:00:29Z</time>
      </trkpt>
      <trkpt lat="43.4205200" lon="-7.3653500">
        <ele>197.8</ele>
        <time>2021-07-24T07:00:30Z</time>
      </trkpt>
      <trkpt lat="43.4204460" lon="-7.3652230">
        <ele>197.8</ele>
        <time>2021-07-24T07:00:40Z</time>
      </trkpt>
      <trkpt lat="43.4204380" lon="-7.3652130">
        <ele>198.2</ele>
        <time>2021-07-24T07:00:41Z</time>
      </trkpt>
      <trkpt lat="43.4204320" lon="-7.3652030">
        <ele>198.6</ele>
        <time>2021-07-24T07:00:42Z</time>
      </trkpt>
      <trkpt lat="43.4204260" lon="-7.3651890">
        <ele>199.0</ele>
        <time>2021-07-24T07:00:43Z</time>
      </trkpt>
      <trkpt lat="43.4204180" lon="-7.3651770">
        <ele>199.4</ele>
        <time>2021-07-24T07:00:44Z</time>
      </trkpt>
      <trkpt lat="43.4204110" lon="-7.3651630">
        <ele>199.8</ele>
        <time>2021-07-24T07:00:45Z</time>
      </trkpt>
      <trkpt lat="43.4203900" lon="-7.3651000">
        <ele>199.8</ele>
        <time>2021-07-24T07:00:49Z</time>
      </trkpt>
      <trkpt lat="43.4203640" lon="-7.3650370">
        <ele>200.2</ele>
        <time>2021-07-24T07:00:53Z</time>
      </trkpt>
      <trkpt lat="43.4203560" lon="-7.3650260">
        <ele>200.6</ele>
        <time>2021-07-24T07:00:54Z</time>
      </trkpt>
      <trkpt lat="43.4203490" lon="-7.3650140">
        <ele>201.0</ele>
        <time>2021-07-24T07:00:55Z</time>
      </trkpt>
      <trkpt lat="43.4203400" lon="-7.3650020">
        <ele>201.4</ele>
        <time>2021-07-24T07:00:56Z</time>
      </trkpt>
      <trkpt lat="43.4203320" lon="-7.3649870">
        <ele>202.0</ele>
        <time>2021-07-24T07:00:57Z</time>
      </trkpt>
      <trkpt lat="43.4203250" lon="-7.3649710">
        <ele>202.0</ele>
        <time>2021-07-24T07:00:58Z</time>
      </trkpt>
      <trkpt lat="43.4202870" lon="-7.3648510">
        <ele>202.4</ele>
        <time>2021-07-24T07:01:05Z</time>
      </trkpt>
      <trkpt lat="43.4202820" lon="-7.3648370">
        <ele>202.8</ele>
        <time>2021-07-24T07:01:06Z</time>
      </trkpt>
      <trkpt lat="43.4202780" lon="-7.3648210">
        <ele>203.2</ele>
        <time>2021-07-24T07:01:07Z</time>
      </trkpt>
      <trkpt lat="43.4202760" lon="-7.3648040">
        <ele>203.6</ele>
        <time>2021-07-24T07:01:08Z</time>
      </trkpt>
      <trkpt lat="43.4202720" lon="-7.3647890">
        <ele>204.0</ele>
        <time>2021-07-24T07:01:09Z</time>
      </trkpt>
      <trkpt lat="43.4202360" lon="-7.3647100">
        <ele>204.0</ele>
        <time>2021-07-24T07:01:14Z</time>
      </trkpt>
      <trkpt lat="43.4202130" lon="-7.3646680">
        <ele>204.4</ele>
        <time>2021-07-24T07:01:17Z</time>
      </trkpt>
      <trkpt lat="43.4202090" lon="-7.3646520">
        <ele>205.2</ele>
        <time>2021-07-24T07:01:18Z</time>
      </trkpt>
      <trkpt lat="43.4202050" lon="-7.3646400">
        <ele>205.6</ele>
        <time>2021-07-24T07:01:19Z</time>
      </trkpt>
      <trkpt lat="43.4202000" lon="-7.3646250">
        <ele>206.0</ele>
        <time>2021-07-24T07:01:20Z</time>
      </trkpt>
      <trkpt lat="43.4201930" lon="-7.3646090">
        <ele>206.0</ele>
        <time>2021-07-24T07:01:21Z</time>
      </trkpt>
      <trkpt lat="43.4201510" lon="-7.3645330">
        <ele>206.4</ele>
        <time>2021-07-24T07:01:26Z</time>
      </trkpt>
      <trkpt lat="43.4201420" lon="-7.3645170">
        <ele>206.8</ele>
        <time>2021-07-24T07:01:27Z</time>
      </trkpt>
      <trkpt lat="43.4201300" lon="-7.3645000">
        <ele>207.2</ele>
        <time>2021-07-24T07:01:28Z</time>
      </trkpt>
      <trkpt lat="43.4201210" lon="-7.3644830">
        <ele>207.6</ele>
        <time>2021-07-24T07:01:29Z</time>
      </trkpt>
      <trkpt lat="43.4201110" lon="-7.3644680">
        <ele>208.0</ele>
        <time>2021-07-24T07:01:30Z</time>
      </trkpt>
      <trkpt lat="43.4200340" lon="-7.3643720">
        <ele>208.4</ele>
        <time>2021-07-24T07:01:38Z</time>
      </trkpt>
      <trkpt lat="43.4200240" lon="-7.3643590">
        <ele>208.8</ele>
        <time>2021-07-24T07:01:39Z</time>
      </trkpt>
      <trkpt lat="43.4200140" lon="-7.3643440">
        <ele>209.4</ele>
        <time>2021-07-24T07:01:40Z</time>
      </trkpt>
      <trkpt lat="43.4200070" lon="-7.3643310">
        <ele>209.8</ele>
        <time>2021-07-24T07:01:41Z</time>
      </trkpt>
      <trkpt lat="43.4199990" lon="-7.3643170">
        <ele>210.2</ele>
        <time>2021-07-24T07:01:42Z</time>
      </trkpt>
      <trkpt lat="43.4199530" lon="-7.3642620">
        <ele>210.2</ele>
        <time>2021-07-24T07:01:47Z</time>
      </trkpt>
      <trkpt lat="43.4199100" lon="-7.3642290">
        <ele>210.6</ele>
        <time>2021-07-24T07:01:51Z</time>
      </trkpt>
      <trkpt lat="43.4198980" lon="-7.3642230">
        <ele>211.0</ele>
        <time>2021-07-24T07:01:52Z</time>
      </trkpt>
      <trkpt lat="43.4198880" lon="-7.3642110">
        <ele>211.4</ele>
        <time>2021-07-24T07:01:53Z</time>
      </trkpt>
      <trkpt lat="43.4198780" lon="-7.3642010">
        <ele>211.8</ele>
        <time>2021-07-24T07:01:54Z</time>
      </trkpt>
      <trkpt lat="43.4198680" lon="-7.3641920">
        <ele>212.2</ele>
        <time>2021-07-24T07:01:55Z</time>
      </trkpt>
      <trkpt lat="43.4197790" lon="-7.3640970">
        <ele>212.2</ele>
        <time>2021-07-24T07:02:04Z</time>
      </trkpt>
      <trkpt lat="43.4197430" lon="-7.3640690">
        <ele>212.6</ele>
        <time>2021-07-24T07:02:07Z</time>
      </trkpt>
      <trkpt lat="43.4197320" lon="-7.3640580">
        <ele>213.0</ele>
        <time>2021-07-24T07:02:08Z</time>
      </trkpt>
      <trkpt lat="43.4197230" lon="-7.3640480">
        <ele>213.4</ele>
        <time>2021-07-24T07:02:09Z</time>
      </trkpt>
      <trkpt lat="43.4197140" lon="-7.3640390">
        <ele>213.8</ele>
        <time>2021-07-24T07:02:10Z</time>
      </trkpt>
      <trkpt lat="43.4197020" lon="-7.3640320">
        <ele>214.2</ele>
        <time>2021-07-24T07:02:11Z</time>
      </trkpt>
      <trkpt lat="43.4196720" lon="-7.3640090">
        <ele>214.2</ele>
        <time>2021-07-24T07:02:13Z</time>
      </trkpt>
      <trkpt lat="43.4196190" lon="-7.3639600">
        <ele>214.2</ele>
        <time>2021-07-24T07:02:16Z</time>
      </trkpt>
      <trkpt lat="43.4195370" lon="-7.3639000">
        <ele>214.2</ele>
        <time>2021-07-24T07:02:19Z</time>
      </trkpt>
      <trkpt lat="43.4193200" lon="-7.3637430">
        <ele>214.2</ele>
        <time>2021-07-24T07:02:24Z</time>
      </trkpt>
      <trkpt lat="43.4192080" lon="-7.3636750">
        <ele>213.8</ele>
        <time>2021-07-24T07:02:26Z</time>
      </trkpt>
      <trkpt lat="43.4191480" lon="-7.3636530">
        <ele>213.4</ele>
        <time>2021-07-24T07:02:27Z</time>
      </trkpt>
      <trkpt lat="43.4190830" lon="-7.3636370">
        <ele>213.0</ele>
        <time>2021-07-24T07:02:28Z</time>
      </trkpt>
      <trkpt lat="43.4190200" lon="-7.3636290">
        <ele>212.4</ele>
        <time>2021-07-24T07:02:29Z</time>
      </trkpt>
      <trkpt lat="43.4189540" lon="-7.3636290">
        <ele>211.8</ele>
        <time>2021-07-24T07:02:30Z</time>
      </trkpt>
      <trkpt lat="43.4188860" lon="-7.3636360">
        <ele>210.8</ele>
        <time>2021-07-24T07:02:31Z</time>
      </trkpt>
      <trkpt lat="43.4188140" lon="-7.3636460">
        <ele>210.2</ele>
        <time>2021-07-24T07:02:32Z</time>
      </trkpt>
      <trkpt lat="43.4187440" lon="-7.3636580">
        <ele>209.6</ele>
        <time>2021-07-24T07:02:33Z</time>
      </trkpt>
      <trkpt lat="43.4186740" lon="-7.3636770">
        <ele>209.0</ele>
        <time>2021-07-24T07:02:34Z</time>
      </trkpt>
      <trkpt lat="43.4186010" lon="-7.3637010">
        <ele>208.6</ele>
        <time>2021-07-24T07:02:35Z</time>
      </trkpt>
      <trkpt lat="43.4185250" lon="-7.3637280">
        <ele>208.0</ele>
        <time>2021-07-24T07:02:36Z</time>
      </trkpt>
      <trkpt lat="43.4184540" lon="-7.3637490">
        <ele>207.6</ele>
        <time>2021-07-24T07:02:37Z</time>
      </trkpt>
      <trkpt lat="43.4183830" lon="-7.3637670">
        <ele>207.0</ele>
        <time>2021-07-24T07:02:38Z</time>
      </trkpt>
      <trkpt lat="43.4183130" lon="-7.3637650">
        <ele>206.6</ele>
        <time>2021-07-24T07:02:39Z</time>
      </trkpt>
      <trkpt lat="43.4182470" lon="-7.3637430">
        <ele>206.2</ele>
        <time>2021-07-24T07:02:40Z</time>
      </trkpt>
      <trkpt lat="43.4181900" lon="-7.3637030">
        <ele>205.6</ele>
        <time>2021-07-24T07:02:41Z</time>
      </trkpt>
      <trkpt lat="43.4181400" lon="-7.3636500">
        <ele>205.0</ele>
        <time>2021-07-24T07:02:42Z</time>
      </trkpt>
      <trkpt lat="43.4180980" lon="-7.3636010">
        <ele>204.6</ele>
        <time>2021-07-24T07:02:43Z</time>
      </trkpt>
      <trkpt lat="43.4180650" lon="-7.3635540">
        <ele>204.0</ele>
        <time>2021-07-24T07:02:44Z</time>
      </trkpt>
      <trkpt lat="43.4180310" lon="-7.3635120">
        <ele>203.4</ele>
        <time>2021-07-24T07:02:45Z</time>
      </trkpt>
      <trkpt lat="43.4179810" lon="-7.3634510">
        <ele>203.4</ele>
        <time>2021-07-24T07:02:47Z</time>
      </trkpt>
      <trkpt lat="43.4179300" lon="-7.3634020">
        <ele>203.4</ele>
        <time>2021-07-24T07:02:49Z</time>
      </trkpt>
      <trkpt lat="43.4178450" lon="-7.3633270">
        <ele>203.4</ele>
        <time>2021-07-24T07:02:53Z</time>
      </trkpt>
      <trkpt lat="43.4177700" lon="-7.3632650">
        <ele>203.4</ele>
        <time>2021-07-24T07:02:57Z</time>
      </trkpt>
      <trkpt lat="43.4177110" lon="-7.3632260">
        <ele>203.4</ele>
        <time>2021-07-24T07:03:00Z</time>
      </trkpt>
      <trkpt lat="43.4176560" lon="-7.3631940">
        <ele>203.8</ele>
        <time>2021-07-24T07:03:03Z</time>
      </trkpt>
      <trkpt lat="43.4176400" lon="-7.3631870">
        <ele>204.2</ele>
        <time>2021-07-24T07:03:04Z</time>
      </trkpt>
      <trkpt lat="43.4176250" lon="-7.3631780">
        <ele>204.6</ele>
        <time>2021-07-24T07:03:05Z</time>
      </trkpt>
      <trkpt lat="43.4176110" lon="-7.3631650">
        <ele>205.2</ele>
        <time>2021-07-24T07:03:06Z</time>
      </trkpt>
      <trkpt lat="43.4175930" lon="-7.3631570">
        <ele>205.6</ele>
        <time>2021-07-24T07:03:07Z</time>
      </trkpt>
      <trkpt lat="43.4175240" lon="-7.3631230">
        <ele>205.6</ele>
        <time>2021-07-24T07:03:11Z</time>
      </trkpt>
      <trkpt lat="43.4175090" lon="-7.3631080">
        <ele>205.6</ele>
        <time>2021-07-24T07:03:12Z</time>
      </trkpt>
      <trkpt lat="43.4174620" lon="-7.3630740">
        <ele>205.6</ele>
        <time>2021-07-24T07:03:15Z</time>
      </trkpt>
      <trkpt lat="43.4174180" lon="-7.3630350">
        <ele>206.0</ele>
        <time>2021-07-24T07:03:18Z</time>
      </trkpt>
      <trkpt lat="43.4174020" lon="-7.3630260">
        <ele>206.4</ele>
        <time>2021-07-24T07:03:19Z</time>
      </trkpt>
      <trkpt lat="43.4173860" lon="-7.3630140">
        <ele>207.2</ele>
        <time>2021-07-24T07:03:20Z</time>
      </trkpt>
      <trkpt lat="43.4173720" lon="-7.3630040">
        <ele>207.6</ele>
        <time>2021-07-24T07:03:21Z</time>
      </trkpt>
      <trkpt lat="43.4172890" lon="-7.3629420">
        <ele>207.6</ele>
        <time>2021-07-24T07:03:27Z</time>
      </trkpt>
      <trkpt lat="43.4172620" lon="-7.3629220">
        <ele>207.6</ele>
        <time>2021-07-24T07:03:29Z</time>
      </trkpt>
      <trkpt lat="43.4172300" lon="-7.3628850">
        <ele>208.0</ele>
        <time>2021-07-24T07:03:32Z</time>
      </trkpt>
      <trkpt lat="43.4172210" lon="-7.3628740">
        <ele>208.4</ele>
        <time>2021-07-24T07:03:33Z</time>
      </trkpt>
      <trkpt lat="43.4172070" lon="-7.3628670">
        <ele>208.8</ele>
        <time>2021-07-24T07:03:34Z</time>
      </trkpt>
      <trkpt lat="43.4171960" lon="-7.3628550">
        <ele>209.2</ele>
        <time>2021-07-24T07:03:35Z</time>
      </trkpt>
      <trkpt lat="43.4171850" lon="-7.3628460">
        <ele>209.6</ele>
        <time>2021-07-24T07:03:36Z</time>
      </trkpt>
      <trkpt lat="43.4170770" lon="-7.3627440">
        <ele>210.0</ele>
        <time>2021-07-24T07:03:45Z</time>
      </trkpt>
      <trkpt lat="43.4170630" lon="-7.3627320">
        <ele>210.6</ele>
        <time>2021-07-24T07:03:46Z</time>
      </trkpt>
      <trkpt lat="43.4170520" lon="-7.3627200">
        <ele>211.0</ele>
        <time>2021-07-24T07:03:47Z</time>
      </trkpt>
      <trkpt lat="43.4170410" lon="-7.3627080">
        <ele>211.4</ele>
        <time>2021-07-24T07:03:48Z</time>
      </trkpt>
      <trkpt lat="43.4170280" lon="-7.3626950">
        <ele>211.8</ele>
        <time>2021-07-24T07:03:49Z</time>
      </trkpt>
      <trkpt lat="43.4169730" lon="-7.3626480">
        <ele>211.8</ele>
        <time>2021-07-24T07:03:54Z</time>
      </trkpt>
      <trkpt lat="43.4169140" lon="-7.3625960">
        <ele>212.2</ele>
        <time>2021-07-24T07:03:59Z</time>
      </trkpt>
      <trkpt lat="43.4169020" lon="-7.3625850">
        <ele>212.6</ele>
        <time>2021-07-24T07:04:00Z</time>
      </trkpt>
      <trkpt lat="43.4168880" lon="-7.3625760">
        <ele>213.0</ele>
        <time>2021-07-24T07:04:01Z</time>
      </trkpt>
      <trkpt lat="43.4168740" lon="-7.3625630">
        <ele>213.4</ele>
        <time>2021-07-24T07:04:02Z</time>
      </trkpt>
      <trkpt lat="43.4168620" lon="-7.3625550">
        <ele>213.8</ele>
        <time>2021-07-24T07:04:03Z</time>
      </trkpt>
      <trkpt lat="43.4167720" lon="-7.3625180">
        <ele>213.8</ele>
        <time>2021-07-24T07:04:10Z</time>
      </trkpt>
      <trkpt lat="43.4167330" lon="-7.3624990">
        <ele>214.2</ele>
        <time>2021-07-24T07:04:13Z</time>
      </trkpt>
      <trkpt lat="43.4167210" lon="-7.3624950">
        <ele>214.6</ele>
        <time>2021-07-24T07:04:14Z</time>
      </trkpt>
      <trkpt lat="43.4167080" lon="-7.3624900">
        <ele>215.0</ele>
        <time>2021-07-24T07:04:15Z</time>
      </trkpt>
      <trkpt lat="43.4166960" lon="-7.3624850">
        <ele>215.4</ele>
        <time>2021-07-24T07:04:16Z</time>
      </trkpt>
      <trkpt lat="43.4166850" lon="-7.3624800">
        <ele>216.0</ele>
        <time>2021-07-24T07:04:17Z</time>
      </trkpt>
      <trkpt lat="43.4166680" lon="-7.3624700">
        <ele>216.0</ele>
        <time>2021-07-24T07:04:19Z</time>
      </trkpt>
      <trkpt lat="43.4165700" lon="-7.3624460">
        <ele>216.0</ele>
        <time>2021-07-24T07:04:27Z</time>
      </trkpt>
      <trkpt lat="43.4165600" lon="-7.3624450">
        <ele>216.4</ele>
        <time>2021-07-24T07:04:28Z</time>
      </trkpt>
      <trkpt lat="43.4165490" lon="-7.3624390">
        <ele>216.8</ele>
        <time>2021-07-24T07:04:29Z</time>
      </trkpt>
      <trkpt lat="43.4165370" lon="-7.3624350">
        <ele>217.2</ele>
        <time>2021-07-24T07:04:30Z</time>
      </trkpt>
      <trkpt lat="43.4165250" lon="-7.3624270">
        <ele>217.6</ele>
        <time>2021-07-24T07:04:31Z</time>
      </trkpt>
      <trkpt lat="43.4165120" lon="-7.3624210">
        <ele>218.0</ele>
        <time>2021-07-24T07:04:32Z</time>
      </trkpt>
      <trkpt lat="43.4164420" lon="-7.3623900">
        <ele>218.0</ele>
        <time>2021-07-24T07:04:36Z</time>
      </trkpt>
      <trkpt lat="43.4162980" lon="-7.3623680">
        <ele>218.4</ele>
        <time>2021-07-24T07:04:44Z</time>
      </trkpt>
      <trkpt lat="43.4162800" lon="-7.3623680">
        <ele>218.8</ele>
        <time>2021-07-24T07:04:45Z</time>
      </trkpt>
      <trkpt lat="43.4162610" lon="-7.3623630">
        <ele>219.2</ele>
        <time>2021-07-24T07:04:46Z</time>
      </trkpt>
      <trkpt lat="43.4162410" lon="-7.3623620">
        <ele>219.6</ele>
        <time>2021-07-24T07:04:47Z</time>
      </trkpt>
      <trkpt lat="43.4162230" lon="-7.3623580">
        <ele>220.0</ele>
        <time>2021-07-24T07:04:48Z</time>
      </trkpt>
      <trkpt lat="43.4161560" lon="-7.3623390">
        <ele>220.0</ele>
        <time>2021-07-24T07:04:52Z</time>
      </trkpt>
      <trkpt lat="43.4160390" lon="-7.3623040">
        <ele>220.4</ele>
        <time>2021-07-24T07:04:59Z</time>
      </trkpt>
      <trkpt lat="43.4160230" lon="-7.3622980">
        <ele>220.8</ele>
        <time>2021-07-24T07:05:00Z</time>
      </trkpt>
      <trkpt lat="43.4160080" lon="-7.3622960">
        <ele>221.4</ele>
        <time>2021-07-24T07:05:01Z</time>
      </trkpt>
      <trkpt lat="43.4159920" lon="-7.3622930">
        <ele>221.8</ele>
        <time>2021-07-24T07:05:02Z</time>
      </trkpt>
      <trkpt lat="43.4159790" lon="-7.3622860">
        <ele>222.2</ele>
        <time>2021-07-24T07:05:03Z</time>
      </trkpt>
      <trkpt lat="43.4158980" lon="-7.3622680">
        <ele>222.2</ele>
        <time>2021-07-24T07:05:08Z</time>
      </trkpt>
      <trkpt lat="43.4157880" lon="-7.3622580">
        <ele>222.2</ele>
        <time>2021-07-24T07:05:14Z</time>
      </trkpt>
      <trkpt lat="43.4157720" lon="-7.3622550">
        <ele>222.2</ele>
        <time>2021-07-24T07:05:15Z</time>
      </trkpt>
      <trkpt lat="43.4157280" lon="-7.3622670">
        <ele>222.2</ele>
        <time>2021-07-24T07:05:18Z</time>
      </trkpt>
      <trkpt lat="43.4156370" lon="-7.3622860">
        <ele>222.2</ele>
        <time>2021-07-24T07:05:22Z</time>
      </trkpt>
      <trkpt lat="43.4155430" lon="-7.3623600">
        <ele>222.2</ele>
        <time>2021-07-24T07:05:25Z</time>
      </trkpt>
      <trkpt lat="43.4154800" lon="-7.3624290">
        <ele>222.2</ele>
        <time>2021-07-24T07:05:27Z</time>
      </trkpt>
      <trkpt lat="43.4154140" lon="-7.3625060">
        <ele>222.2</ele>
        <time>2021-07-24T07:05:29Z</time>
      </trkpt>
      <trkpt lat="43.4153450" lon="-7.3625760">
        <ele>222.2</ele>
        <time>2021-07-24T07:05:31Z</time>
      </trkpt>
      <trkpt lat="43.4152360" lon="-7.3626740">
        <ele>222.2</ele>
        <time>2021-07-24T07:05:34Z</time>
      </trkpt>
      <trkpt lat="43.4151250" lon="-7.3627870">
        <ele>222.2</ele>
        <time>2021-07-24T07:05:37Z</time>
      </trkpt>
      <trkpt lat="43.4150140" lon="-7.3629070">
        <ele>222.2</ele>
        <time>2021-07-24T07:05:40Z</time>
      </trkpt>
      <trkpt lat="43.4149080" lon="-7.3630510">
        <ele>222.2</ele>
        <time>2021-07-24T07:05:43Z</time>
      </trkpt>
      <trkpt lat="43.4147690" lon="-7.3632380">
        <ele>222.2</ele>
        <time>2021-07-24T07:05:47Z</time>
      </trkpt>
      <trkpt lat="43.4146260" lon="-7.3634320">
        <ele>221.8</ele>
        <time>2021-07-24T07:05:51Z</time>
      </trkpt>
      <trkpt lat="43.4145910" lon="-7.3634840">
        <ele>221.4</ele>
        <time>2021-07-24T07:05:52Z</time>
      </trkpt>
      <trkpt lat="43.4145550" lon="-7.3635340">
        <ele>221.0</ele>
        <time>2021-07-24T07:05:53Z</time>
      </trkpt>
      <trkpt lat="43.4145180" lon="-7.3635840">
        <ele>220.6</ele>
        <time>2021-07-24T07:05:54Z</time>
      </trkpt>
      <trkpt lat="43.4144780" lon="-7.3636370">
        <ele>220.2</ele>
        <time>2021-07-24T07:05:55Z</time>
      </trkpt>
      <trkpt lat="43.4141640" lon="-7.3640990">
        <ele>220.2</ele>
        <time>2021-07-24T07:06:03Z</time>
      </trkpt>
      <trkpt lat="43.4141180" lon="-7.3641550">
        <ele>220.2</ele>
        <time>2021-07-24T07:06:04Z</time>
      </trkpt>
      <trkpt lat="43.4140150" lon="-7.3642690">
        <ele>219.6</ele>
        <time>2021-07-24T07:06:06Z</time>
      </trkpt>
      <trkpt lat="43.4139610" lon="-7.3643220">
        <ele>219.2</ele>
        <time>2021-07-24T07:06:07Z</time>
      </trkpt>
      <trkpt lat="43.4139060" lon="-7.3643760">
        <ele>218.8</ele>
        <time>2021-07-24T07:06:08Z</time>
      </trkpt>
      <trkpt lat="43.4138510" lon="-7.3644300">
        <ele>218.4</ele>
        <time>2021-07-24T07:06:09Z</time>
      </trkpt>
      <trkpt lat="43.4137950" lon="-7.3644870">
        <ele>218.0</ele>
        <time>2021-07-24T07:06:10Z</time>
      </trkpt>
      <trkpt lat="43.4137410" lon="-7.3645440">
        <ele>218.0</ele>
        <time>2021-07-24T07:06:11Z</time>
      </trkpt>
      <trkpt lat="43.4135830" lon="-7.3647420">
        <ele>218.0</ele>
        <time>2021-07-24T07:06:14Z</time>
      </trkpt>
      <trkpt lat="43.4135430" lon="-7.3648190">
        <ele>217.6</ele>
        <time>2021-07-24T07:06:15Z</time>
      </trkpt>
      <trkpt lat="43.4135130" lon="-7.3648960">
        <ele>217.2</ele>
        <time>2021-07-24T07:06:16Z</time>
      </trkpt>
      <trkpt lat="43.4134840" lon="-7.3649810">
        <ele>216.8</ele>
        <time>2021-07-24T07:06:17Z</time>
      </trkpt>
      <trkpt lat="43.4134560" lon="-7.3650620">
        <ele>216.2</ele>
        <time>2021-07-24T07:06:18Z</time>
      </trkpt>
      <trkpt lat="43.4134320" lon="-7.3651410">
        <ele>215.8</ele>
        <time>2021-07-24T07:06:19Z</time>
      </trkpt>
      <trkpt lat="43.4133860" lon="-7.3652900">
        <ele>215.8</ele>
        <time>2021-07-24T07:06:21Z</time>
      </trkpt>
      <trkpt lat="43.4132960" lon="-7.3655600">
        <ele>215.8</ele>
        <time>2021-07-24T07:06:26Z</time>
      </trkpt>
      <trkpt lat="43.4132400" lon="-7.3656890">
        <ele>215.8</ele>
        <time>2021-07-24T07:06:29Z</time>
      </trkpt>
      <trkpt lat="43.4131880" lon="-7.3658070">
        <ele>215.8</ele>
        <time>2021-07-24T07:06:32Z</time>
      </trkpt>
      <trkpt lat="43.4131730" lon="-7.3658440">
        <ele>215.8</ele>
        <time>2021-07-24T07:06:33Z</time>
      </trkpt>
      <trkpt lat="43.4131130" lon="-7.3659880">
        <ele>215.8</ele>
        <time>2021-07-24T07:06:37Z</time>
      </trkpt>
      <trkpt lat="43.4130640" lon="-7.3660730">
        <ele>215.8</ele>
        <time>2021-07-24T07:06:40Z</time>
      </trkpt>
      <trkpt lat="43.4130480" lon="-7.3661030">
        <ele>215.8</ele>
        <time>2021-07-24T07:06:41Z</time>
      </trkpt>
      <trkpt lat="43.4129980" lon="-7.3661860">
        <ele>216.2</ele>
        <time>2021-07-24T07:06:44Z</time>
      </trkpt>
      <trkpt lat="43.4129840" lon="-7.3662120">
        <ele>216.6</ele>
        <time>2021-07-24T07:06:45Z</time>
      </trkpt>
      <trkpt lat="43.4129700" lon="-7.3662350">
        <ele>217.0</ele>
        <time>2021-07-24T07:06:46Z</time>
      </trkpt>
      <trkpt lat="43.4129570" lon="-7.3662610">
        <ele>217.4</ele>
        <time>2021-07-24T07:06:47Z</time>
      </trkpt>
      <trkpt lat="43.4129410" lon="-7.3662790">
        <ele>218.0</ele>
        <time>2021-07-24T07:06:48Z</time>
      </trkpt>
      <trkpt lat="43.4129280" lon="-7.3663040">
        <ele>218.0</ele>
        <time>2021-07-24T07:06:49Z</time>
      </trkpt>
      <trkpt lat="43.4128500" lon="-7.3664560">
        <ele>218.0</ele>
        <time>2021-07-24T07:06:56Z</time>
      </trkpt>
      <trkpt lat="43.4128220" lon="-7.3664940">
        <ele>218.0</ele>
        <time>2021-07-24T07:06:58Z</time>
      </trkpt>
      <trkpt lat="43.4128110" lon="-7.3665170">
        <ele>218.4</ele>
        <time>2021-07-24T07:06:59Z</time>
      </trkpt>
      <trkpt lat="43.4128000" lon="-7.3665320">
        <ele>218.8</ele>
        <time>2021-07-24T07:07:00Z</time>
      </trkpt>
      <trkpt lat="43.4127880" lon="-7.3665500">
        <ele>219.2</ele>
        <time>2021-07-24T07:07:01Z</time>
      </trkpt>
      <trkpt lat="43.4127770" lon="-7.3665680">
        <ele>219.6</ele>
        <time>2021-07-24T07:07:02Z</time>
      </trkpt>
      <trkpt lat="43.4127660" lon="-7.3665860">
        <ele>220.0</ele>
        <time>2021-07-24T07:07:03Z</time>
      </trkpt>
      <trkpt lat="43.4127230" lon="-7.3666620">
        <ele>220.0</ele>
        <time>2021-07-24T07:07:07Z</time>
      </trkpt>
      <trkpt lat="43.4126660" lon="-7.3667630">
        <ele>220.0</ele>
        <time>2021-07-24T07:07:13Z</time>
      </trkpt>
      <trkpt lat="43.4126420" lon="-7.3667960">
        <ele>220.4</ele>
        <time>2021-07-24T07:07:15Z</time>
      </trkpt>
      <trkpt lat="43.4126280" lon="-7.3668100">
        <ele>220.8</ele>
        <time>2021-07-24T07:07:16Z</time>
      </trkpt>
      <trkpt lat="43.4126160" lon="-7.3668290">
        <ele>221.2</ele>
        <time>2021-07-24T07:07:17Z</time>
      </trkpt>
      <trkpt lat="43.4126030" lon="-7.3668470">
        <ele>221.6</ele>
        <time>2021-07-24T07:07:18Z</time>
      </trkpt>
      <trkpt lat="43.4125890" lon="-7.3668680">
        <ele>222.0</ele>
        <time>2021-07-24T07:07:19Z</time>
      </trkpt>
      <trkpt lat="43.4125510" lon="-7.3669240">
        <ele>222.0</ele>
        <time>2021-07-24T07:07:22Z</time>
      </trkpt>
      <trkpt lat="43.4124620" lon="-7.3670430">
        <ele>222.4</ele>
        <time>2021-07-24T07:07:29Z</time>
      </trkpt>
      <trkpt lat="43.4124470" lon="-7.3670550">
        <ele>222.8</ele>
        <time>2021-07-24T07:07:30Z</time>
      </trkpt>
      <trkpt lat="43.4124320" lon="-7.3670640">
        <ele>223.2</ele>
        <time>2021-07-24T07:07:31Z</time>
      </trkpt>
      <trkpt lat="43.4124170" lon="-7.3670770">
        <ele>223.6</ele>
        <time>2021-07-24T07:07:32Z</time>
      </trkpt>
      <trkpt lat="43.4124040" lon="-7.3670860">
        <ele>224.2</ele>
        <time>2021-07-24T07:07:33Z</time>
      </trkpt>
      <trkpt lat="43.4123070" lon="-7.3671190">
        <ele>224.2</ele>
        <time>2021-07-24T07:07:39Z</time>
      </trkpt>
      <trkpt lat="43.4122450" lon="-7.3671170">
        <ele>224.6</ele>
        <time>2021-07-24T07:07:43Z</time>
      </trkpt>
      <trkpt lat="43.4122250" lon="-7.3671200">
        <ele>225.0</ele>
        <time>2021-07-24T07:07:44Z</time>
      </trkpt>
      <trkpt lat="43.4122060" lon="-7.3671220">
        <ele>225.4</ele>
        <time>2021-07-24T07:07:45Z</time>
      </trkpt>
      <trkpt lat="43.4121850" lon="-7.3671190">
        <ele>225.8</ele>
        <time>2021-07-24T07:07:46Z</time>
      </trkpt>
      <trkpt lat="43.4121680" lon="-7.3671120">
        <ele>226.2</ele>
        <time>2021-07-24T07:07:47Z</time>
      </trkpt>
      <trkpt lat="43.4120090" lon="-7.3670530">
        <ele>226.2</ele>
        <time>2021-07-24T07:07:56Z</time>
      </trkpt>
      <trkpt lat="43.4119130" lon="-7.3669900">
        <ele>226.6</ele>
        <time>2021-07-24T07:08:01Z</time>
      </trkpt>
      <trkpt lat="43.4118930" lon="-7.3669740">
        <ele>227.0</ele>
        <time>2021-07-24T07:08:02Z</time>
      </trkpt>
      <trkpt lat="43.4118780" lon="-7.3669600">
        <ele>227.4</ele>
        <time>2021-07-24T07:08:03Z</time>
      </trkpt>
      <trkpt lat="43.4118650" lon="-7.3669460">
        <ele>227.8</ele>
        <time>2021-07-24T07:08:04Z</time>
      </trkpt>
      <trkpt lat="43.4118510" lon="-7.3669310">
        <ele>228.2</ele>
        <time>2021-07-24T07:08:05Z</time>
      </trkpt>
      <trkpt lat="43.4117400" lon="-7.3667910">
        <ele>228.2</ele>
        <time>2021-07-24T07:08:12Z</time>
      </trkpt>
      <trkpt lat="43.4116540" lon="-7.3666880">
        <ele>228.2</ele>
        <time>2021-07-24T07:08:16Z</time>
      </trkpt>
      <trkpt lat="43.4115950" lon="-7.3666290">
        <ele>228.2</ele>
        <time>2021-07-24T07:08:19Z</time>
      </trkpt>
      <trkpt lat="43.4115750" lon="-7.3666110">
        <ele>228.2</ele>
        <time>2021-07-24T07:08:20Z</time>
      </trkpt>
      <trkpt lat="43.4115290" lon="-7.3665850">
        <ele>228.2</ele>
        <time>2021-07-24T07:08:22Z</time>
      </trkpt>
      <trkpt lat="43.4114160" lon="-7.3665290">
        <ele>228.2</ele>
        <time>2021-07-24T07:08:27Z</time>
      </trkpt>
      <trkpt lat="43.4113270" lon="-7.3664670">
        <ele>228.2</ele>
        <time>2021-07-24T07:08:31Z</time>
      </trkpt>
      <trkpt lat="43.4112890" lon="-7.3664450">
        <ele>228.2</ele>
        <time>2021-07-24T07:08:33Z</time>
      </trkpt>
      <trkpt lat="43.4112660" lon="-7.3664360">
        <ele>228.2</ele>
        <time>2021-07-24T07:08:34Z</time>
      </trkpt>
      <trkpt lat="43.4111980" lon="-7.3664000">
        <ele>228.2</ele>
        <time>2021-07-24T07:08:37Z</time>
      </trkpt>
      <trkpt lat="43.4110810" lon="-7.3663460">
        <ele>228.2</ele>
        <time>2021-07-24T07:08:41Z</time>
      </trkpt>
      <trkpt lat="43.4109170" lon="-7.3662440">
        <ele>228.2</ele>
        <time>2021-07-24T07:08:47Z</time>
      </trkpt>
      <trkpt lat="43.4108870" lon="-7.3662320">
        <ele>228.2</ele>
        <time>2021-07-24T07:08:48Z</time>
      </trkpt>
      <trkpt lat="43.4107370" lon="-7.3661870">
        <ele>228.2</ele>
        <time>2021-07-24T07:08:53Z</time>
      </trkpt>
      <trkpt lat="43.4105970" lon="-7.3661500">
        <ele>228.2</ele>
        <time>2021-07-24T07:08:57Z</time>
      </trkpt>
      <trkpt lat="43.4104980" lon="-7.3661570">
        <ele>228.2</ele>
        <time>2021-07-24T07:09:00Z</time>
      </trkpt>
      <trkpt lat="43.4104120" lon="-7.3662060">
        <ele>228.2</ele>
        <time>2021-07-24T07:09:03Z</time>
      </trkpt>
      <trkpt lat="43.4103340" lon="-7.3662670">
        <ele>228.2</ele>
        <time>2021-07-24T07:09:06Z</time>
      </trkpt>
      <trkpt lat="43.4102390" lon="-7.3663450">
        <ele>228.2</ele>
        <time>2021-07-24T07:09:10Z</time>
      </trkpt>
      <trkpt lat="43.4101960" lon="-7.3663900">
        <ele>228.2</ele>
        <time>2021-07-24T07:09:12Z</time>
      </trkpt>
      <trkpt lat="43.4100860" lon="-7.3665140">
        <ele>228.2</ele>
        <time>2021-07-24T07:09:17Z</time>
      </trkpt>
      <trkpt lat="43.4099370" lon="-7.3667240">
        <ele>228.2</ele>
        <time>2021-07-24T07:09:24Z</time>
      </trkpt>
      <trkpt lat="43.4098940" lon="-7.3668020">
        <ele>228.6</ele>
        <time>2021-07-24T07:09:26Z</time>
      </trkpt>
      <trkpt lat="43.4098730" lon="-7.3668330">
        <ele>229.0</ele>
        <time>2021-07-24T07:09:27Z</time>
      </trkpt>
      <trkpt lat="43.4098530" lon="-7.3668640">
        <ele>229.4</ele>
        <time>2021-07-24T07:09:28Z</time>
      </trkpt>
      <trkpt lat="43.4098320" lon="-7.3668930">
        <ele>229.8</ele>
        <time>2021-07-24T07:09:29Z</time>
      </trkpt>
      <trkpt lat="43.4098120" lon="-7.3669240">
        <ele>230.2</ele>
        <time>2021-07-24T07:09:30Z</time>
      </trkpt>
      <trkpt lat="43.4097850" lon="-7.3669530">
        <ele>230.2</ele>
        <time>2021-07-24T07:09:31Z</time>
      </trkpt>
      <trkpt lat="43.4095930" lon="-7.3670770">
        <ele>230.2</ele>
        <time>2021-07-24T07:09:38Z</time>
      </trkpt>
      <trkpt lat="43.4095420" lon="-7.3670790">
        <ele>230.2</ele>
        <time>2021-07-24T07:09:40Z</time>
      </trkpt>
      <trkpt lat="43.4094140" lon="-7.3670580">
        <ele>230.2</ele>
        <time>2021-07-24T07:09:44Z</time>
      </trkpt>
      <trkpt lat="43.4093800" lon="-7.3670480">
        <ele>230.2</ele>
        <time>2021-07-24T07:09:45Z</time>
      </trkpt>
      <trkpt lat="43.4091090" lon="-7.3670640">
        <ele>230.2</ele>
        <time>2021-07-24T07:09:52Z</time>
      </trkpt>
      <trkpt lat="43.4089370" lon="-7.3671300">
        <ele>230.2</ele>
        <time>2021-07-24T07:09:56Z</time>
      </trkpt>
      <trkpt lat="43.4088520" lon="-7.3671790">
        <ele>230.2</ele>
        <time>2021-07-24T07:09:58Z</time>
      </trkpt>
      <trkpt lat="43.4087720" lon="-7.3672360">
        <ele>230.2</ele>
        <time>2021-07-24T07:10:00Z</time>
      </trkpt>
      <trkpt lat="43.4087310" lon="-7.3672720">
        <ele>230.2</ele>
        <time>2021-07-24T07:10:01Z</time>
      </trkpt>
      <trkpt lat="43.4086060" lon="-7.3673660">
        <ele>230.2</ele>
        <time>2021-07-24T07:10:04Z</time>
      </trkpt>
      <trkpt lat="43.4084750" lon="-7.3674690">
        <ele>230.2</ele>
        <time>2021-07-24T07:10:07Z</time>
      </trkpt>
      <trkpt lat="43.4084390" lon="-7.3675050">
        <ele>229.8</ele>
        <time>2021-07-24T07:10:08Z</time>
      </trkpt>
      <trkpt lat="43.4084050" lon="-7.3675470">
        <ele>229.4</ele>
        <time>2021-07-24T07:10:09Z</time>
      </trkpt>
      <trkpt lat="43.4083680" lon="-7.3675830">
        <ele>229.0</ele>
        <time>2021-07-24T07:10:10Z</time>
      </trkpt>
      <trkpt lat="43.4083330" lon="-7.3676170">
        <ele>228.6</ele>
        <time>2021-07-24T07:10:11Z</time>
      </trkpt>
      <trkpt lat="43.4082970" lon="-7.3676500">
        <ele>228.2</ele>
        <time>2021-07-24T07:10:12Z</time>
      </trkpt>
      <trkpt lat="43.4082550" lon="-7.3676710">
        <ele>228.2</ele>
        <time>2021-07-24T07:10:13Z</time>
      </trkpt>
      <trkpt lat="43.4082160" lon="-7.3676930">
        <ele>228.2</ele>
        <time>2021-07-24T07:10:14Z</time>
      </trkpt>
      <trkpt lat="43.4081740" lon="-7.3677070">
        <ele>228.2</ele>
        <time>2021-07-24T07:10:15Z</time>
      </trkpt>
      <trkpt lat="43.4081000" lon="-7.3677230">
        <ele>228.2</ele>
        <time>2021-07-24T07:10:17Z</time>
      </trkpt>
      <trkpt lat="43.4080200" lon="-7.3677450">
        <ele>228.2</ele>
        <time>2021-07-24T07:10:19Z</time>
      </trkpt>
      <trkpt lat="43.4079430" lon="-7.3677720">
        <ele>228.2</ele>
        <time>2021-07-24T07:10:21Z</time>
      </trkpt>
      <trkpt lat="43.4077720" lon="-7.3678700">
        <ele>228.2</ele>
        <time>2021-07-24T07:10:26Z</time>
      </trkpt>
      <trkpt lat="43.4076760" lon="-7.3679390">
        <ele>228.2</ele>
        <time>2021-07-24T07:10:29Z</time>
      </trkpt>
      <trkpt lat="43.4076080" lon="-7.3679860">
        <ele>228.2</ele>
        <time>2021-07-24T07:10:31Z</time>
      </trkpt>
      <trkpt lat="43.4075070" lon="-7.3680620">
        <ele>228.2</ele>
        <time>2021-07-24T07:10:34Z</time>
      </trkpt>
      <trkpt lat="43.4073670" lon="-7.3681500">
        <ele>228.2</ele>
        <time>2021-07-24T07:10:38Z</time>
      </trkpt>
      <trkpt lat="43.4072350" lon="-7.3682060">
        <ele>228.6</ele>
        <time>2021-07-24T07:10:42Z</time>
      </trkpt>
      <trkpt lat="43.4072040" lon="-7.3682200">
        <ele>229.0</ele>
        <time>2021-07-24T07:10:43Z</time>
      </trkpt>
      <trkpt lat="43.4071780" lon="-7.3682340">
        <ele>229.4</ele>
        <time>2021-07-24T07:10:44Z</time>
      </trkpt>
      <trkpt lat="43.4071460" lon="-7.3682450">
        <ele>230.2</ele>
        <time>2021-07-24T07:10:45Z</time>
      </trkpt>
      <trkpt lat="43.4069850" lon="-7.3682820">
        <ele>230.2</ele>
        <time>2021-07-24T07:10:50Z</time>
      </trkpt>
      <trkpt lat="43.4066930" lon="-7.3683370">
        <ele>230.2</ele>
        <time>2021-07-24T07:10:59Z</time>
      </trkpt>
      <trkpt lat="43.4063820" lon="-7.3683590">
        <ele>230.2</ele>
        <time>2021-07-24T07:11:09Z</time>
      </trkpt>
      <trkpt lat="43.4061390" lon="-7.3683470">
        <ele>230.2</ele>
        <time>2021-07-24T07:11:15Z</time>
      </trkpt>
      <trkpt lat="43.4059580" lon="-7.3683220">
        <ele>230.2</ele>
        <time>2021-07-24T07:11:20Z</time>
      </trkpt>
      <trkpt lat="43.4058540" lon="-7.3683020">
        <ele>230.2</ele>
        <time>2021-07-24T07:11:23Z</time>
      </trkpt>
      <trkpt lat="43.4057560" lon="-7.3682550">
        <ele>230.2</ele>
        <time>2021-07-24T07:11:26Z</time>
      </trkpt>
      <trkpt lat="43.4057240" lon="-7.3682340">
        <ele>230.2</ele>
        <time>2021-07-24T07:11:27Z</time>
      </trkpt>
      <trkpt lat="43.4056910" lon="-7.3682110">
        <ele>230.2</ele>
        <time>2021-07-24T07:11:28Z</time>
      </trkpt>
      <trkpt lat="43.4056610" lon="-7.3681860">
        <ele>230.2</ele>
        <time>2021-07-24T07:11:29Z</time>
      </trkpt>
      <trkpt lat="43.4054470" lon="-7.3679400">
        <ele>230.2</ele>
        <time>2021-07-24T07:11:36Z</time>
      </trkpt>
      <trkpt lat="43.4052830" lon="-7.3678050">
        <ele>230.2</ele>
        <time>2021-07-24T07:11:41Z</time>
      </trkpt>
      <trkpt lat="43.4052030" lon="-7.3677690">
        <ele>230.2</ele>
        <time>2021-07-24T07:11:43Z</time>
      </trkpt>
      <trkpt lat="43.4050560" lon="-7.3677470">
        <ele>230.2</ele>
        <time>2021-07-24T07:11:47Z</time>
      </trkpt>
      <trkpt lat="43.4049800" lon="-7.3677530">
        <ele>230.2</ele>
        <time>2021-07-24T07:11:49Z</time>
      </trkpt>
      <trkpt lat="43.4048340" lon="-7.3677760">
        <ele>230.2</ele>
        <time>2021-07-24T07:11:53Z</time>
      </trkpt>
      <trkpt lat="43.4047640" lon="-7.3677860">
        <ele>230.2</ele>
        <time>2021-07-24T07:11:55Z</time>
      </trkpt>
      <trkpt lat="43.4046200" lon="-7.3678320">
        <ele>230.2</ele>
        <time>2021-07-24T07:11:59Z</time>
      </trkpt>
      <trkpt lat="43.4045600" lon="-7.3678760">
        <ele>230.2</ele>
        <time>2021-07-24T07:12:01Z</time>
      </trkpt>
      <trkpt lat="43.4045320" lon="-7.3678990">
        <ele>230.6</ele>
        <time>2021-07-24T07:12:02Z</time>
      </trkpt>
      <trkpt lat="43.4045070" lon="-7.3679180">
        <ele>231.0</ele>
        <time>2021-07-24T07:12:03Z</time>
      </trkpt>
      <trkpt lat="43.4044780" lon="-7.3679300">
        <ele>231.4</ele>
        <time>2021-07-24T07:12:04Z</time>
      </trkpt>
      <trkpt lat="43.4044380" lon="-7.3679510">
        <ele>231.8</ele>
        <time>2021-07-24T07:12:05Z</time>
      </trkpt>
      <trkpt lat="43.4044030" lon="-7.3679730">
        <ele>232.2</ele>
        <time>2021-07-24T07:12:06Z</time>
      </trkpt>
      <trkpt lat="43.4043700" lon="-7.3679980">
        <ele>232.2</ele>
        <time>2021-07-24T07:12:07Z</time>
      </trkpt>
      <trkpt lat="43.4042770" lon="-7.3680870">
        <ele>232.2</ele>
        <time>2021-07-24T07:12:10Z</time>
      </trkpt>
      <trkpt lat="43.4041850" lon="-7.3681800">
        <ele>232.2</ele>
        <time>2021-07-24T07:12:13Z</time>
      </trkpt>
      <trkpt lat="43.4039450" lon="-7.3684710">
        <ele>232.2</ele>
        <time>2021-07-24T07:12:21Z</time>
      </trkpt>
      <trkpt lat="43.4039170" lon="-7.3685090">
        <ele>232.2</ele>
        <time>2021-07-24T07:12:22Z</time>
      </trkpt>
      <trkpt lat="43.4037200" lon="-7.3688120">
        <ele>232.2</ele>
        <time>2021-07-24T07:12:30Z</time>
      </trkpt>
      <trkpt lat="43.4035710" lon="-7.3690170">
        <ele>232.6</ele>
        <time>2021-07-24T07:12:36Z</time>
      </trkpt>
      <trkpt lat="43.4035450" lon="-7.3690510">
        <ele>233.2</ele>
        <time>2021-07-24T07:12:37Z</time>
      </trkpt>
      <trkpt lat="43.4035210" lon="-7.3690870">
        <ele>233.6</ele>
        <time>2021-07-24T07:12:38Z</time>
      </trkpt>
      <trkpt lat="43.4034980" lon="-7.3691220">
        <ele>234.0</ele>
        <time>2021-07-24T07:12:39Z</time>
      </trkpt>
      <trkpt lat="43.4034760" lon="-7.3691570">
        <ele>234.4</ele>
        <time>2021-07-24T07:12:40Z</time>
      </trkpt>
      <trkpt lat="43.4033890" lon="-7.3692910">
        <ele>234.4</ele>
        <time>2021-07-24T07:12:44Z</time>
      </trkpt>
      <trkpt lat="43.4032890" lon="-7.3695290">
        <ele>234.4</ele>
        <time>2021-07-24T07:12:50Z</time>
      </trkpt>
      <trkpt lat="43.4032100" lon="-7.3698000">
        <ele>234.8</ele>
        <time>2021-07-24T07:12:56Z</time>
      </trkpt>
      <trkpt lat="43.4031960" lon="-7.3698460">
        <ele>235.2</ele>
        <time>2021-07-24T07:12:57Z</time>
      </trkpt>
      <trkpt lat="43.4031800" lon="-7.3698920">
        <ele>235.6</ele>
        <time>2021-07-24T07:12:58Z</time>
      </trkpt>
      <trkpt lat="43.4031640" lon="-7.3699390">
        <ele>236.0</ele>
        <time>2021-07-24T07:12:59Z</time>
      </trkpt>
      <trkpt lat="43.4031500" lon="-7.3699850">
        <ele>236.4</ele>
        <time>2021-07-24T07:13:00Z</time>
      </trkpt>
      <trkpt lat="43.4030650" lon="-7.3702530">
        <ele>236.4</ele>
        <time>2021-07-24T07:13:06Z</time>
      </trkpt>
      <trkpt lat="43.4029070" lon="-7.3704890">
        <ele>236.4</ele>
        <time>2021-07-24T07:13:13Z</time>
      </trkpt>
      <trkpt lat="43.4027280" lon="-7.3705860">
        <ele>236.8</ele>
        <time>2021-07-24T07:13:19Z</time>
      </trkpt>
      <trkpt lat="43.4026950" lon="-7.3705990">
        <ele>237.4</ele>
        <time>2021-07-24T07:13:20Z</time>
      </trkpt>
      <trkpt lat="43.4026650" lon="-7.3706070">
        <ele>237.8</ele>
        <time>2021-07-24T07:13:21Z</time>
      </trkpt>
      <trkpt lat="43.4026380" lon="-7.3706150">
        <ele>238.2</ele>
        <time>2021-07-24T07:13:22Z</time>
      </trkpt>
      <trkpt lat="43.4026130" lon="-7.3706200">
        <ele>238.6</ele>
        <time>2021-07-24T07:13:23Z</time>
      </trkpt>
      <trkpt lat="43.4025660" lon="-7.3706270">
        <ele>238.6</ele>
        <time>2021-07-24T07:13:25Z</time>
      </trkpt>
      <trkpt lat="43.4024010" lon="-7.3706470">
        <ele>238.6</ele>
        <time>2021-07-24T07:13:31Z</time>
      </trkpt>
      <trkpt lat="43.4022980" lon="-7.3706920">
        <ele>239.0</ele>
        <time>2021-07-24T07:13:35Z</time>
      </trkpt>
      <trkpt lat="43.4022680" lon="-7.3707040">
        <ele>239.4</ele>
        <time>2021-07-24T07:13:36Z</time>
      </trkpt>
      <trkpt lat="43.4022410" lon="-7.3707190">
        <ele>239.8</ele>
        <time>2021-07-24T07:13:37Z</time>
      </trkpt>
      <trkpt lat="43.4022150" lon="-7.3707350">
        <ele>240.2</ele>
        <time>2021-07-24T07:13:38Z</time>
      </trkpt>
      <trkpt lat="43.4021880" lon="-7.3707560">
        <ele>240.6</ele>
        <time>2021-07-24T07:13:39Z</time>
      </trkpt>
      <trkpt lat="43.4020530" lon="-7.3708830">
        <ele>240.6</ele>
        <time>2021-07-24T07:13:45Z</time>
      </trkpt>
      <trkpt lat="43.4019460" lon="-7.3710590">
        <ele>241.2</ele>
        <time>2021-07-24T07:13:51Z</time>
      </trkpt>
      <trkpt lat="43.4019280" lon="-7.3710890">
        <ele>241.6</ele>
        <time>2021-07-24T07:13:52Z</time>
      </trkpt>
      <trkpt lat="43.4019130" lon="-7.3711160">
        <ele>242.0</ele>
        <time>2021-07-24T07:13:53Z</time>
      </trkpt>
      <trkpt lat="43.4018960" lon="-7.3711460">
        <ele>242.4</ele>
        <time>2021-07-24T07:13:54Z</time>
      </trkpt>
      <trkpt lat="43.4018810" lon="-7.3711790">
        <ele>243.0</ele>
        <time>2021-07-24T07:13:55Z</time>
      </trkpt>
      <trkpt lat="43.4018260" lon="-7.3713150">
        <ele>243.0</ele>
        <time>2021-07-24T07:13:59Z</time>
      </trkpt>
      <trkpt lat="43.4017130" lon="-7.3715240">
        <ele>243.0</ele>
        <time>2021-07-24T07:14:06Z</time>
      </trkpt>
      <trkpt lat="43.4016470" lon="-7.3717000">
        <ele>243.0</ele>
        <time>2021-07-24T07:14:11Z</time>
      </trkpt>
      <trkpt lat="43.4016140" lon="-7.3718220">
        <ele>243.0</ele>
        <time>2021-07-24T07:14:14Z</time>
      </trkpt>
      <trkpt lat="43.4015850" lon="-7.3719550">
        <ele>243.0</ele>
        <time>2021-07-24T07:14:17Z</time>
      </trkpt>
      <trkpt lat="43.4015600" lon="-7.3720790">
        <ele>243.0</ele>
        <time>2021-07-24T07:14:19Z</time>
      </trkpt>
      <trkpt lat="43.4015330" lon="-7.3722170">
        <ele>243.0</ele>
        <time>2021-07-24T07:14:21Z</time>
      </trkpt>
      <trkpt lat="43.4015150" lon="-7.3722910">
        <ele>243.0</ele>
        <time>2021-07-24T07:14:22Z</time>
      </trkpt>
      <trkpt lat="43.4014930" lon="-7.3723670">
        <ele>243.0</ele>
        <time>2021-07-24T07:14:23Z</time>
      </trkpt>
      <trkpt lat="43.4013770" lon="-7.3725910">
        <ele>243.0</ele>
        <time>2021-07-24T07:14:26Z</time>
      </trkpt>
      <trkpt lat="43.4012830" lon="-7.3727100">
        <ele>242.0</ele>
        <time>2021-07-24T07:14:28Z</time>
      </trkpt>
      <trkpt lat="43.4012300" lon="-7.3727610">
        <ele>241.4</ele>
        <time>2021-07-24T07:14:29Z</time>
      </trkpt>
      <trkpt lat="43.4011740" lon="-7.3728040">
        <ele>241.0</ele>
        <time>2021-07-24T07:14:30Z</time>
      </trkpt>
      <trkpt lat="43.4011180" lon="-7.3728490">
        <ele>240.4</ele>
        <time>2021-07-24T07:14:31Z</time>
      </trkpt>
      <trkpt lat="43.4010640" lon="-7.3729010">
        <ele>240.0</ele>
        <time>2021-07-24T07:14:32Z</time>
      </trkpt>
      <trkpt lat="43.4010080" lon="-7.3729660">
        <ele>239.4</ele>
        <time>2021-07-24T07:14:33Z</time>
      </trkpt>
      <trkpt lat="43.4009560" lon="-7.3730340">
        <ele>239.0</ele>
        <time>2021-07-24T07:14:34Z</time>
      </trkpt>
      <trkpt lat="43.4009040" lon="-7.3731090">
        <ele>238.4</ele>
        <time>2021-07-24T07:14:35Z</time>
      </trkpt>
      <trkpt lat="43.4008520" lon="-7.3731960">
        <ele>238.0</ele>
        <time>2021-07-24T07:14:36Z</time>
      </trkpt>
      <trkpt lat="43.4007980" lon="-7.3732890">
        <ele>237.4</ele>
        <time>2021-07-24T07:14:37Z</time>
      </trkpt>
      <trkpt lat="43.4007390" lon="-7.3733870">
        <ele>236.8</ele>
        <time>2021-07-24T07:14:38Z</time>
      </trkpt>
      <trkpt lat="43.4006760" lon="-7.3734820">
        <ele>236.4</ele>
        <time>2021-07-24T07:14:39Z</time>
      </trkpt>
      <trkpt lat="43.4006090" lon="-7.3735740">
        <ele>235.8</ele>
        <time>2021-07-24T07:14:40Z</time>
      </trkpt>
      <trkpt lat="43.4005430" lon="-7.3736550">
        <ele>235.4</ele>
        <time>2021-07-24T07:14:41Z</time>
      </trkpt>
      <trkpt lat="43.4004790" lon="-7.3737320">
        <ele>235.0</ele>
        <time>2021-07-24T07:14:42Z</time>
      </trkpt>
      <trkpt lat="43.4004150" lon="-7.3738090">
        <ele>234.4</ele>
        <time>2021-07-24T07:14:43Z</time>
      </trkpt>
      <trkpt lat="43.4003550" lon="-7.3738780">
        <ele>234.0</ele>
        <time>2021-07-24T07:14:44Z</time>
      </trkpt>
      <trkpt lat="43.4003020" lon="-7.3739380">
        <ele>233.6</ele>
        <time>2021-07-24T07:14:45Z</time>
      </trkpt>
      <trkpt lat="43.4002120" lon="-7.3740540">
        <ele>233.6</ele>
        <time>2021-07-24T07:14:47Z</time>
      </trkpt>
      <trkpt lat="43.4001490" lon="-7.3741620">
        <ele>233.6</ele>
        <time>2021-07-24T07:14:49Z</time>
      </trkpt>
      <trkpt lat="43.4000840" lon="-7.3743080">
        <ele>233.6</ele>
        <time>2021-07-24T07:14:52Z</time>
      </trkpt>
      <trkpt lat="43.3999990" lon="-7.3745380">
        <ele>233.6</ele>
        <time>2021-07-24T07:14:58Z</time>
      </trkpt>
      <trkpt lat="43.3999730" lon="-7.3746110">
        <ele>233.6</ele>
        <time>2021-07-24T07:15:00Z</time>
      </trkpt>
      <trkpt lat="43.3999420" lon="-7.3746960">
        <ele>233.6</ele>
        <time>2021-07-24T07:15:02Z</time>
      </trkpt>
      <trkpt lat="43.3999100" lon="-7.3747820">
        <ele>233.6</ele>
        <time>2021-07-24T07:15:04Z</time>
      </trkpt>
      <trkpt lat="43.3998650" lon="-7.3749240">
        <ele>233.6</ele>
        <time>2021-07-24T07:15:07Z</time>
      </trkpt>
      <trkpt lat="43.3998340" lon="-7.3750650">
        <ele>233.6</ele>
        <time>2021-07-24T07:15:10Z</time>
      </trkpt>
      <trkpt lat="43.3998230" lon="-7.3751130">
        <ele>233.6</ele>
        <time>2021-07-24T07:15:11Z</time>
      </trkpt>
      <trkpt lat="43.3997580" lon="-7.3753420">
        <ele>233.6</ele>
        <time>2021-07-24T07:15:16Z</time>
      </trkpt>
      <trkpt lat="43.3997490" lon="-7.3753840">
        <ele>233.6</ele>
        <time>2021-07-24T07:15:17Z</time>
      </trkpt>
      <trkpt lat="43.3997270" lon="-7.3756540">
        <ele>233.6</ele>
        <time>2021-07-24T07:15:24Z</time>
      </trkpt>
      <trkpt lat="43.3997270" lon="-7.3756940">
        <ele>234.0</ele>
        <time>2021-07-24T07:15:25Z</time>
      </trkpt>
      <trkpt lat="43.3997280" lon="-7.3757320">
        <ele>234.4</ele>
        <time>2021-07-24T07:15:26Z</time>
      </trkpt>
      <trkpt lat="43.3997330" lon="-7.3757670">
        <ele>234.8</ele>
        <time>2021-07-24T07:15:27Z</time>
      </trkpt>
      <trkpt lat="43.3997390" lon="-7.3758000">
        <ele>235.2</ele>
        <time>2021-07-24T07:15:28Z</time>
      </trkpt>
      <trkpt lat="43.3997440" lon="-7.3758310">
        <ele>235.6</ele>
        <time>2021-07-24T07:15:29Z</time>
      </trkpt>
      <trkpt lat="43.3997570" lon="-7.3758840">
        <ele>235.6</ele>
        <time>2021-07-24T07:15:31Z</time>
      </trkpt>
      <trkpt lat="43.3997650" lon="-7.3759710">
        <ele>235.6</ele>
        <time>2021-07-24T07:15:35Z</time>
      </trkpt>
      <trkpt lat="43.3997630" lon="-7.3759910">
        <ele>235.6</ele>
        <time>2021-07-24T07:15:36Z</time>
      </trkpt>
      <trkpt lat="43.3997600" lon="-7.3761170">
        <ele>236.4</ele>
        <time>2021-07-24T07:15:42Z</time>
      </trkpt>
      <trkpt lat="43.3997570" lon="-7.3761360">
        <ele>236.8</ele>
        <time>2021-07-24T07:15:43Z</time>
      </trkpt>
      <trkpt lat="43.3997560" lon="-7.3761550">
        <ele>237.2</ele>
        <time>2021-07-24T07:15:44Z</time>
      </trkpt>
      <trkpt lat="43.3997560" lon="-7.3761760">
        <ele>237.6</ele>
        <time>2021-07-24T07:15:45Z</time>
      </trkpt>
      <trkpt lat="43.3997060" lon="-7.3763480">
        <ele>237.6</ele>
        <time>2021-07-24T07:15:52Z</time>
      </trkpt>
      <trkpt lat="43.3996600" lon="-7.3764450">
        <ele>238.0</ele>
        <time>2021-07-24T07:15:56Z</time>
      </trkpt>
      <trkpt lat="43.3996450" lon="-7.3764720">
        <ele>238.4</ele>
        <time>2021-07-24T07:15:57Z</time>
      </trkpt>
      <trkpt lat="43.3996300" lon="-7.3764920">
        <ele>238.8</ele>
        <time>2021-07-24T07:15:58Z</time>
      </trkpt>
      <trkpt lat="43.3996210" lon="-7.3765090">
        <ele>239.2</ele>
        <time>2021-07-24T07:15:59Z</time>
      </trkpt>
      <trkpt lat="43.3996120" lon="-7.3765270">
        <ele>239.6</ele>
        <time>2021-07-24T07:16:00Z</time>
      </trkpt>
      <trkpt lat="43.3995690" lon="-7.3766440">
        <ele>240.0</ele>
        <time>2021-07-24T07:16:05Z</time>
      </trkpt>
      <trkpt lat="43.3995640" lon="-7.3766660">
        <ele>240.4</ele>
        <time>2021-07-24T07:16:06Z</time>
      </trkpt>
      <trkpt lat="43.3995570" lon="-7.3766890">
        <ele>240.8</ele>
        <time>2021-07-24T07:16:07Z</time>
      </trkpt>
      <trkpt lat="43.3995540" lon="-7.3767140">
        <ele>241.8</ele>
        <time>2021-07-24T07:16:08Z</time>
      </trkpt>
      <trkpt lat="43.3995560" lon="-7.3768170">
        <ele>241.8</ele>
        <time>2021-07-24T07:16:12Z</time>
      </trkpt>
      <trkpt lat="43.3995560" lon="-7.3768990">
        <ele>241.8</ele>
        <time>2021-07-24T07:16:15Z</time>
      </trkpt>
      <trkpt lat="43.3995560" lon="-7.3769520">
        <ele>241.8</ele>
        <time>2021-07-24T07:16:17Z</time>
      </trkpt>
      <trkpt lat="43.3995570" lon="-7.3770140">
        <ele>242.2</ele>
        <time>2021-07-24T07:16:19Z</time>
      </trkpt>
      <trkpt lat="43.3995540" lon="-7.3770410">
        <ele>242.6</ele>
        <time>2021-07-24T07:16:20Z</time>
      </trkpt>
      <trkpt lat="43.3995530" lon="-7.3770650">
        <ele>243.0</ele>
        <time>2021-07-24T07:16:21Z</time>
      </trkpt>
      <trkpt lat="43.3995490" lon="-7.3770870">
        <ele>243.4</ele>
        <time>2021-07-24T07:16:22Z</time>
      </trkpt>
      <trkpt lat="43.3995450" lon="-7.3771130">
        <ele>243.8</ele>
        <time>2021-07-24T07:16:23Z</time>
      </trkpt>
      <trkpt lat="43.3995430" lon="-7.3772040">
        <ele>243.8</ele>
        <time>2021-07-24T07:16:27Z</time>
      </trkpt>
      <trkpt lat="43.3995130" lon="-7.3772530">
        <ele>244.2</ele>
        <time>2021-07-24T07:16:31Z</time>
      </trkpt>
      <trkpt lat="43.3995050" lon="-7.3772670">
        <ele>244.6</ele>
        <time>2021-07-24T07:16:32Z</time>
      </trkpt>
      <trkpt lat="43.3995000" lon="-7.3772760">
        <ele>245.6</ele>
        <time>2021-07-24T07:16:33Z</time>
      </trkpt>
      <trkpt lat="43.3994920" lon="-7.3772910">
        <ele>246.0</ele>
        <time>2021-07-24T07:16:34Z</time>
      </trkpt>
      <trkpt lat="43.3994840" lon="-7.3773140">
        <ele>246.0</ele>
        <time>2021-07-24T07:16:35Z</time>
      </trkpt>
      <trkpt lat="43.3994830" lon="-7.3774680">
        <ele>246.0</ele>
        <time>2021-07-24T07:16:42Z</time>
      </trkpt>
      <trkpt lat="43.3994870" lon="-7.3775110">
        <ele>246.4</ele>
        <time>2021-07-24T07:16:44Z</time>
      </trkpt>
      <trkpt lat="43.3994910" lon="-7.3775340">
        <ele>246.8</ele>
        <time>2021-07-24T07:16:45Z</time>
      </trkpt>
      <trkpt lat="43.3994950" lon="-7.3775530">
        <ele>247.2</ele>
        <time>2021-07-24T07:16:46Z</time>
      </trkpt>
      <trkpt lat="43.3995000" lon="-7.3775700">
        <ele>247.6</ele>
        <time>2021-07-24T07:16:47Z</time>
      </trkpt>
      <trkpt lat="43.3995020" lon="-7.3775920">
        <ele>248.0</ele>
        <time>2021-07-24T07:16:48Z</time>
      </trkpt>
      <trkpt lat="43.3995000" lon="-7.3776290">
        <ele>248.0</ele>
        <time>2021-07-24T07:16:50Z</time>
      </trkpt>
      <trkpt lat="43.3995040" lon="-7.3777440">
        <ele>248.8</ele>
        <time>2021-07-24T07:16:57Z</time>
      </trkpt>
      <trkpt lat="43.3995040" lon="-7.3777560">
        <ele>249.2</ele>
        <time>2021-07-24T07:16:58Z</time>
      </trkpt>
      <trkpt lat="43.3995010" lon="-7.3777710">
        <ele>249.6</ele>
        <time>2021-07-24T07:16:59Z</time>
      </trkpt>
      <trkpt lat="43.3995000" lon="-7.3777870">
        <ele>250.0</ele>
        <time>2021-07-24T07:17:00Z</time>
      </trkpt>
      <trkpt lat="43.3994990" lon="-7.3778480">
        <ele>250.0</ele>
        <time>2021-07-24T07:17:05Z</time>
      </trkpt>
      <trkpt lat="43.3993590" lon="-7.3779860">
        <ele>252.2</ele>
        <time>2021-07-24T07:17:26Z</time>
      </trkpt>
      <trkpt lat="43.3993470" lon="-7.3779780">
        <ele>252.6</ele>
        <time>2021-07-24T07:17:27Z</time>
      </trkpt>
      <trkpt lat="43.3993340" lon="-7.3779710">
        <ele>253.0</ele>
        <time>2021-07-24T07:17:28Z</time>
      </trkpt>
      <trkpt lat="43.3993220" lon="-7.3779630">
        <ele>253.4</ele>
        <time>2021-07-24T07:17:29Z</time>
      </trkpt>
      <trkpt lat="43.3993100" lon="-7.3779550">
        <ele>253.8</ele>
        <time>2021-07-24T07:17:30Z</time>
      </trkpt>
      <trkpt lat="43.3992990" lon="-7.3779440">
        <ele>254.2</ele>
        <time>2021-07-24T07:17:31Z</time>
      </trkpt>
      <trkpt lat="43.3992370" lon="-7.3778730">
        <ele>254.2</ele>
        <time>2021-07-24T07:17:37Z</time>
      </trkpt>
      <trkpt lat="43.3991830" lon="-7.3778520">
        <ele>254.6</ele>
        <time>2021-07-24T07:17:41Z</time>
      </trkpt>
      <trkpt lat="43.3991650" lon="-7.3778410">
        <ele>255.0</ele>
        <time>2021-07-24T07:17:42Z</time>
      </trkpt>
      <trkpt lat="43.3991520" lon="-7.3778280">
        <ele>255.4</ele>
        <time>2021-07-24T07:17:43Z</time>
      </trkpt>
      <trkpt lat="43.3991430" lon="-7.3778160">
        <ele>255.8</ele>
        <time>2021-07-24T07:17:44Z</time>
      </trkpt>
      <trkpt lat="43.3991330" lon="-7.3778030">
        <ele>256.2</ele>
        <time>2021-07-24T07:17:45Z</time>
      </trkpt>
      <trkpt lat="43.3991210" lon="-7.3777770">
        <ele>256.2</ele>
        <time>2021-07-24T07:17:47Z</time>
      </trkpt>
      <trkpt lat="43.3990850" lon="-7.3776680">
        <ele>256.6</ele>
        <time>2021-07-24T07:17:54Z</time>
      </trkpt>
      <trkpt lat="43.3990890" lon="-7.3776560">
        <ele>257.0</ele>
        <time>2021-07-24T07:17:55Z</time>
      </trkpt>
      <trkpt lat="43.3990870" lon="-7.3776390">
        <ele>257.4</ele>
        <time>2021-07-24T07:17:56Z</time>
      </trkpt>
      <trkpt lat="43.3990830" lon="-7.3776270">
        <ele>258.0</ele>
        <time>2021-07-24T07:17:57Z</time>
      </trkpt>
      <trkpt lat="43.3990700" lon="-7.3776110">
        <ele>258.4</ele>
        <time>2021-07-24T07:17:58Z</time>
      </trkpt>
      <trkpt lat="43.3990270" lon="-7.3775390">
        <ele>258.4</ele>
        <time>2021-07-24T07:18:03Z</time>
      </trkpt>
      <trkpt lat="43.3989840" lon="-7.3774390">
        <ele>258.8</ele>
        <time>2021-07-24T07:18:09Z</time>
      </trkpt>
      <trkpt lat="43.3989810" lon="-7.3774220">
        <ele>259.2</ele>
        <time>2021-07-24T07:18:10Z</time>
      </trkpt>
      <trkpt lat="43.3989790" lon="-7.3774030">
        <ele>259.6</ele>
        <time>2021-07-24T07:18:11Z</time>
      </trkpt>
      <trkpt lat="43.3989750" lon="-7.3773900">
        <ele>260.4</ele>
        <time>2021-07-24T07:18:12Z</time>
      </trkpt>
      <trkpt lat="43.3989370" lon="-7.3773000">
        <ele>260.4</ele>
        <time>2021-07-24T07:18:18Z</time>
      </trkpt>
      <trkpt lat="43.3988820" lon="-7.3772280">
        <ele>260.8</ele>
        <time>2021-07-24T07:18:22Z</time>
      </trkpt>
      <trkpt lat="43.3988720" lon="-7.3772070">
        <ele>261.2</ele>
        <time>2021-07-24T07:18:23Z</time>
      </trkpt>
      <trkpt lat="43.3988650" lon="-7.3771910">
        <ele>261.8</ele>
        <time>2021-07-24T07:18:24Z</time>
      </trkpt>
      <trkpt lat="43.3988550" lon="-7.3771800">
        <ele>262.2</ele>
        <time>2021-07-24T07:18:25Z</time>
      </trkpt>
      <trkpt lat="43.3988430" lon="-7.3771690">
        <ele>262.6</ele>
        <time>2021-07-24T07:18:26Z</time>
      </trkpt>
      <trkpt lat="43.3987700" lon="-7.3770690">
        <ele>262.6</ele>
        <time>2021-07-24T07:18:33Z</time>
      </trkpt>
      <trkpt lat="43.3987330" lon="-7.3770120">
        <ele>263.0</ele>
        <time>2021-07-24T07:18:37Z</time>
      </trkpt>
      <trkpt lat="43.3987230" lon="-7.3769950">
        <ele>263.4</ele>
        <time>2021-07-24T07:18:38Z</time>
      </trkpt>
      <trkpt lat="43.3987120" lon="-7.3769800">
        <ele>263.8</ele>
        <time>2021-07-24T07:18:39Z</time>
      </trkpt>
      <trkpt lat="43.3987000" lon="-7.3769630">
        <ele>264.2</ele>
        <time>2021-07-24T07:18:40Z</time>
      </trkpt>
      <trkpt lat="43.3986900" lon="-7.3769430">
        <ele>264.6</ele>
        <time>2021-07-24T07:18:41Z</time>
      </trkpt>
      <trkpt lat="43.3986140" lon="-7.3768620">
        <ele>264.6</ele>
        <time>2021-07-24T07:18:47Z</time>
      </trkpt>
      <trkpt lat="43.3985450" lon="-7.3768250">
        <ele>265.0</ele>
        <time>2021-07-24T07:18:52Z</time>
      </trkpt>
      <trkpt lat="43.3985320" lon="-7.3768170">
        <ele>265.4</ele>
        <time>2021-07-24T07:18:53Z</time>
      </trkpt>
      <trkpt lat="43.3985190" lon="-7.3768110">
        <ele>265.8</ele>
        <time>2021-07-24T07:18:54Z</time>
      </trkpt>
      <trkpt lat="43.3985070" lon="-7.3768070">
        <ele>266.2</ele>
        <time>2021-07-24T07:18:55Z</time>
      </trkpt>
      <trkpt lat="43.3984950" lon="-7.3768030">
        <ele>266.6</ele>
        <time>2021-07-24T07:18:56Z</time>
      </trkpt>
      <trkpt lat="43.3984340" lon="-7.3768270">
        <ele>266.6</ele>
        <time>2021-07-24T07:19:02Z</time>
      </trkpt>
      <trkpt lat="43.3984110" lon="-7.3768430">
        <ele>267.0</ele>
        <time>2021-07-24T07:19:04Z</time>
      </trkpt>
      <trkpt lat="43.3984000" lon="-7.3768520">
        <ele>267.4</ele>
        <time>2021-07-24T07:19:05Z</time>
      </trkpt>
      <trkpt lat="43.3983880" lon="-7.3768600">
        <ele>267.8</ele>
        <time>2021-07-24T07:19:06Z</time>
      </trkpt>
      <trkpt lat="43.3983760" lon="-7.3768710">
        <ele>268.2</ele>
        <time>2021-07-24T07:19:07Z</time>
      </trkpt>
      <trkpt lat="43.3983640" lon="-7.3768820">
        <ele>268.8</ele>
        <time>2021-07-24T07:19:08Z</time>
      </trkpt>
      <trkpt lat="43.3983260" lon="-7.3769150">
        <ele>268.8</ele>
        <time>2021-07-24T07:19:11Z</time>
      </trkpt>
      <trkpt lat="43.3982290" lon="-7.3770040">
        <ele>268.8</ele>
        <time>2021-07-24T07:19:19Z</time>
      </trkpt>
      <trkpt lat="43.3982200" lon="-7.3770120">
        <ele>269.2</ele>
        <time>2021-07-24T07:19:20Z</time>
      </trkpt>
      <trkpt lat="43.3982120" lon="-7.3770230">
        <ele>269.6</ele>
        <time>2021-07-24T07:19:21Z</time>
      </trkpt>
      <trkpt lat="43.3982040" lon="-7.3770330">
        <ele>270.0</ele>
        <time>2021-07-24T07:19:22Z</time>
      </trkpt>
      <trkpt lat="43.3981950" lon="-7.3770440">
        <ele>270.4</ele>
        <time>2021-07-24T07:19:23Z</time>
      </trkpt>
      <trkpt lat="43.3981880" lon="-7.3770590">
        <ele>270.8</ele>
        <time>2021-07-24T07:19:24Z</time>
      </trkpt>
      <trkpt lat="43.3981740" lon="-7.3770870">
        <ele>270.8</ele>
        <time>2021-07-24T07:19:26Z</time>
      </trkpt>
      <trkpt lat="43.3980760" lon="-7.3772450">
        <ele>270.8</ele>
        <time>2021-07-24T07:19:35Z</time>
      </trkpt>
      <trkpt lat="43.3980640" lon="-7.3772650">
        <ele>271.2</ele>
        <time>2021-07-24T07:19:36Z</time>
      </trkpt>
      <trkpt lat="43.3980520" lon="-7.3772860">
        <ele>271.6</ele>
        <time>2021-07-24T07:19:37Z</time>
      </trkpt>
      <trkpt lat="43.3980420" lon="-7.3773050">
        <ele>272.0</ele>
        <time>2021-07-24T07:19:38Z</time>
      </trkpt>
      <trkpt lat="43.3980330" lon="-7.3773240">
        <ele>272.4</ele>
        <time>2021-07-24T07:19:39Z</time>
      </trkpt>
      <trkpt lat="43.3980250" lon="-7.3773480">
        <ele>272.8</ele>
        <time>2021-07-24T07:19:40Z</time>
      </trkpt>
      <trkpt lat="43.3980160" lon="-7.3773760">
        <ele>272.8</ele>
        <time>2021-07-24T07:19:41Z</time>
      </trkpt>
      <trkpt lat="43.3979820" lon="-7.3775080">
        <ele>272.8</ele>
        <time>2021-07-24T07:19:45Z</time>
      </trkpt>
      <trkpt lat="43.3979640" lon="-7.3775910">
        <ele>272.8</ele>
        <time>2021-07-24T07:19:47Z</time>
      </trkpt>
      <trkpt lat="43.3979530" lon="-7.3776400">
        <ele>272.8</ele>
        <time>2021-07-24T07:19:48Z</time>
      </trkpt>
      <trkpt lat="43.3978810" lon="-7.3779520">
        <ele>272.8</ele>
        <time>2021-07-24T07:19:53Z</time>
      </trkpt>
      <trkpt lat="43.3978370" lon="-7.3781060">
        <ele>272.8</ele>
        <time>2021-07-24T07:19:55Z</time>
      </trkpt>
      <trkpt lat="43.3978060" lon="-7.3781930">
        <ele>272.4</ele>
        <time>2021-07-24T07:19:56Z</time>
      </trkpt>
      <trkpt lat="43.3977680" lon="-7.3782770">
        <ele>272.0</ele>
        <time>2021-07-24T07:19:57Z</time>
      </trkpt>
      <trkpt lat="43.3977260" lon="-7.3783580">
        <ele>271.6</ele>
        <time>2021-07-24T07:19:58Z</time>
      </trkpt>
      <trkpt lat="43.3976760" lon="-7.3784330">
        <ele>271.0</ele>
        <time>2021-07-24T07:19:59Z</time>
      </trkpt>
      <trkpt lat="43.3976200" lon="-7.3785010">
        <ele>270.6</ele>
        <time>2021-07-24T07:20:00Z</time>
      </trkpt>
      <trkpt lat="43.3974990" lon="-7.3786160">
        <ele>270.2</ele>
        <time>2021-07-24T07:20:02Z</time>
      </trkpt>
      <trkpt lat="43.3974360" lon="-7.3786670">
        <ele>269.6</ele>
        <time>2021-07-24T07:20:03Z</time>
      </trkpt>
      <trkpt lat="43.3973770" lon="-7.3787170">
        <ele>269.0</ele>
        <time>2021-07-24T07:20:04Z</time>
      </trkpt>
      <trkpt lat="43.3973190" lon="-7.3787750">
        <ele>268.6</ele>
        <time>2021-07-24T07:20:05Z</time>
      </trkpt>
      <trkpt lat="43.3972650" lon="-7.3788430">
        <ele>268.0</ele>
        <time>2021-07-24T07:20:06Z</time>
      </trkpt>
      <trkpt lat="43.3971700" lon="-7.3789960">
        <ele>268.0</ele>
        <time>2021-07-24T07:20:08Z</time>
      </trkpt>
      <trkpt lat="43.3970710" lon="-7.3792560">
        <ele>267.6</ele>
        <time>2021-07-24T07:20:11Z</time>
      </trkpt>
      <trkpt lat="43.3970410" lon="-7.3793400">
        <ele>267.0</ele>
        <time>2021-07-24T07:20:12Z</time>
      </trkpt>
      <trkpt lat="43.3970080" lon="-7.3794180">
        <ele>266.4</ele>
        <time>2021-07-24T07:20:13Z</time>
      </trkpt>
      <trkpt lat="43.3969720" lon="-7.3794880">
        <ele>265.8</ele>
        <time>2021-07-24T07:20:14Z</time>
      </trkpt>
      <trkpt lat="43.3969330" lon="-7.3795540">
        <ele>264.4</ele>
        <time>2021-07-24T07:20:15Z</time>
      </trkpt>
      <trkpt lat="43.3968910" lon="-7.3796180">
        <ele>263.8</ele>
        <time>2021-07-24T07:20:16Z</time>
      </trkpt>
      <trkpt lat="43.3968500" lon="-7.3796760">
        <ele>263.2</ele>
        <time>2021-07-24T07:20:17Z</time>
      </trkpt>
      <trkpt lat="43.3967220" lon="-7.3798430">
        <ele>263.2</ele>
        <time>2021-07-24T07:20:21Z</time>
      </trkpt>
      <trkpt lat="43.3967000" lon="-7.3798740">
        <ele>263.2</ele>
        <time>2021-07-24T07:20:22Z</time>
      </trkpt>
      <trkpt lat="43.3966640" lon="-7.3799290">
        <ele>263.2</ele>
        <time>2021-07-24T07:20:24Z</time>
      </trkpt>
      <trkpt lat="43.3966460" lon="-7.3799530">
        <ele>263.2</ele>
        <time>2021-07-24T07:20:25Z</time>
      </trkpt>
      <trkpt lat="43.3966310" lon="-7.3799700">
        <ele>263.2</ele>
        <time>2021-07-24T07:20:26Z</time>
      </trkpt>
      <trkpt lat="43.3966030" lon="-7.3800050">
        <ele>263.2</ele>
        <time>2021-07-24T07:20:28Z</time>
      </trkpt>
      <trkpt lat="43.3965580" lon="-7.3800680">
        <ele>263.2</ele>
        <time>2021-07-24T07:20:31Z</time>
      </trkpt>
      <trkpt lat="43.3965050" lon="-7.3801480">
        <ele>263.2</ele>
        <time>2021-07-24T07:20:34Z</time>
      </trkpt>
      <trkpt lat="43.3964890" lon="-7.3801720">
        <ele>263.2</ele>
        <time>2021-07-24T07:20:35Z</time>
      </trkpt>
      <trkpt lat="43.3964510" lon="-7.3802110">
        <ele>263.2</ele>
        <time>2021-07-24T07:20:37Z</time>
      </trkpt>
      <trkpt lat="43.3964070" lon="-7.3802710">
        <ele>263.6</ele>
        <time>2021-07-24T07:20:40Z</time>
      </trkpt>
      <trkpt lat="43.3963920" lon="-7.3802890">
        <ele>264.0</ele>
        <time>2021-07-24T07:20:41Z</time>
      </trkpt>
      <trkpt lat="43.3963790" lon="-7.3803100">
        <ele>264.4</ele>
        <time>2021-07-24T07:20:42Z</time>
      </trkpt>
      <trkpt lat="43.3963670" lon="-7.3803320">
        <ele>264.8</ele>
        <time>2021-07-24T07:20:43Z</time>
      </trkpt>
      <trkpt lat="43.3963550" lon="-7.3803570">
        <ele>265.2</ele>
        <time>2021-07-24T07:20:44Z</time>
      </trkpt>
      <trkpt lat="43.3963290" lon="-7.3804670">
        <ele>265.2</ele>
        <time>2021-07-24T07:20:48Z</time>
      </trkpt>
      <trkpt lat="43.3963000" lon="-7.3806770">
        <ele>265.6</ele>
        <time>2021-07-24T07:20:56Z</time>
      </trkpt>
      <trkpt lat="43.3962990" lon="-7.3807020">
        <ele>266.2</ele>
        <time>2021-07-24T07:20:57Z</time>
      </trkpt>
      <trkpt lat="43.3962990" lon="-7.3807290">
        <ele>266.6</ele>
        <time>2021-07-24T07:20:58Z</time>
      </trkpt>
      <trkpt lat="43.3962990" lon="-7.3807560">
        <ele>267.0</ele>
        <time>2021-07-24T07:20:59Z</time>
      </trkpt>
      <trkpt lat="43.3963000" lon="-7.3807780">
        <ele>267.4</ele>
        <time>2021-07-24T07:21:00Z</time>
      </trkpt>
      <trkpt lat="43.3962950" lon="-7.3809150">
        <ele>267.4</ele>
        <time>2021-07-24T07:21:06Z</time>
      </trkpt>
      <trkpt lat="43.3962860" lon="-7.3810550">
        <ele>267.8</ele>
        <time>2021-07-24T07:21:12Z</time>
      </trkpt>
      <trkpt lat="43.3962850" lon="-7.3810780">
        <ele>268.2</ele>
        <time>2021-07-24T07:21:13Z</time>
      </trkpt>
      <trkpt lat="43.3962840" lon="-7.3811000">
        <ele>268.6</ele>
        <time>2021-07-24T07:21:14Z</time>
      </trkpt>
      <trkpt lat="43.3962840" lon="-7.3811210">
        <ele>269.0</ele>
        <time>2021-07-24T07:21:15Z</time>
      </trkpt>
      <trkpt lat="43.3962850" lon="-7.3811420">
        <ele>269.4</ele>
        <time>2021-07-24T07:21:16Z</time>
      </trkpt>
      <trkpt lat="43.3963010" lon="-7.3813220">
        <ele>269.4</ele>
        <time>2021-07-24T07:21:24Z</time>
      </trkpt>
      <trkpt lat="43.3963020" lon="-7.3814720">
        <ele>269.8</ele>
        <time>2021-07-24T07:21:31Z</time>
      </trkpt>
      <trkpt lat="43.3963000" lon="-7.3814950">
        <ele>270.2</ele>
        <time>2021-07-24T07:21:32Z</time>
      </trkpt>
      <trkpt lat="43.3962970" lon="-7.3815180">
        <ele>270.6</ele>
        <time>2021-07-24T07:21:33Z</time>
      </trkpt>
      <trkpt lat="43.3962940" lon="-7.3815440">
        <ele>271.0</ele>
        <time>2021-07-24T07:21:34Z</time>
      </trkpt>
      <trkpt lat="43.3962920" lon="-7.3815680">
        <ele>271.4</ele>
        <time>2021-07-24T07:21:35Z</time>
      </trkpt>
      <trkpt lat="43.3962590" lon="-7.3816450">
        <ele>271.4</ele>
        <time>2021-07-24T07:21:39Z</time>
      </trkpt>
      <trkpt lat="43.3962260" lon="-7.3817150">
        <ele>272.0</ele>
        <time>2021-07-24T07:21:44Z</time>
      </trkpt>
      <trkpt lat="43.3962120" lon="-7.3817290">
        <ele>272.4</ele>
        <time>2021-07-24T07:21:45Z</time>
      </trkpt>
      <trkpt lat="43.3961990" lon="-7.3817430">
        <ele>272.8</ele>
        <time>2021-07-24T07:21:46Z</time>
      </trkpt>
      <trkpt lat="43.3961860" lon="-7.3817610">
        <ele>273.2</ele>
        <time>2021-07-24T07:21:47Z</time>
      </trkpt>
      <trkpt lat="43.3961740" lon="-7.3817770">
        <ele>273.6</ele>
        <time>2021-07-24T07:21:48Z</time>
      </trkpt>
      <trkpt lat="43.3960710" lon="-7.3818530">
        <ele>273.6</ele>
        <time>2021-07-24T07:21:55Z</time>
      </trkpt>
      <trkpt lat="43.3960440" lon="-7.3818810">
        <ele>274.0</ele>
        <time>2021-07-24T07:21:57Z</time>
      </trkpt>
      <trkpt lat="43.3960300" lon="-7.3818890">
        <ele>274.4</ele>
        <time>2021-07-24T07:21:58Z</time>
      </trkpt>
      <trkpt lat="43.3960180" lon="-7.3819010">
        <ele>274.8</ele>
        <time>2021-07-24T07:21:59Z</time>
      </trkpt>
      <trkpt lat="43.3960040" lon="-7.3819080">
        <ele>275.2</ele>
        <time>2021-07-24T07:22:00Z</time>
      </trkpt>
      <trkpt lat="43.3959910" lon="-7.3819140">
        <ele>275.6</ele>
        <time>2021-07-24T07:22:01Z</time>
      </trkpt>
      <trkpt lat="43.3959790" lon="-7.3819200">
        <ele>275.6</ele>
        <time>2021-07-24T07:22:02Z</time>
      </trkpt>
      <trkpt lat="43.3959050" lon="-7.3819910">
        <ele>275.6</ele>
        <time>2021-07-24T07:22:10Z</time>
      </trkpt>
      <trkpt lat="43.3958690" lon="-7.3820460">
        <ele>276.2</ele>
        <time>2021-07-24T07:22:13Z</time>
      </trkpt>
      <trkpt lat="43.3958580" lon="-7.3820610">
        <ele>276.6</ele>
        <time>2021-07-24T07:22:14Z</time>
      </trkpt>
      <trkpt lat="43.3958470" lon="-7.3820820">
        <ele>277.0</ele>
        <time>2021-07-24T07:22:15Z</time>
      </trkpt>
      <trkpt lat="43.3958390" lon="-7.3821060">
        <ele>277.4</ele>
        <time>2021-07-24T07:22:16Z</time>
      </trkpt>
      <trkpt lat="43.3958260" lon="-7.3821290">
        <ele>277.8</ele>
        <time>2021-07-24T07:22:17Z</time>
      </trkpt>
      <trkpt lat="43.3957970" lon="-7.3821780">
        <ele>277.8</ele>
        <time>2021-07-24T07:22:19Z</time>
      </trkpt>
      <trkpt lat="43.3957020" lon="-7.3823560">
        <ele>277.8</ele>
        <time>2021-07-24T07:22:26Z</time>
      </trkpt>
      <trkpt lat="43.3956110" lon="-7.3825660">
        <ele>277.8</ele>
        <time>2021-07-24T07:22:33Z</time>
      </trkpt>
      <trkpt lat="43.3955020" lon="-7.3828000">
        <ele>277.8</ele>
        <time>2021-07-24T07:22:40Z</time>
      </trkpt>
      <trkpt lat="43.3954900" lon="-7.3828310">
        <ele>277.8</ele>
        <time>2021-07-24T07:22:41Z</time>
      </trkpt>
      <trkpt lat="43.3954530" lon="-7.3828980">
        <ele>278.2</ele>
        <time>2021-07-24T07:22:43Z</time>
      </trkpt>
      <trkpt lat="43.3954360" lon="-7.3829360">
        <ele>279.0</ele>
        <time>2021-07-24T07:22:44Z</time>
      </trkpt>
      <trkpt lat="43.3954190" lon="-7.3829720">
        <ele>279.4</ele>
        <time>2021-07-24T07:22:45Z</time>
      </trkpt>
      <trkpt lat="43.3954020" lon="-7.3830080">
        <ele>279.8</ele>
        <time>2021-07-24T07:22:46Z</time>
      </trkpt>
      <trkpt lat="43.3953660" lon="-7.3830810">
        <ele>279.8</ele>
        <time>2021-07-24T07:22:48Z</time>
      </trkpt>
      <trkpt lat="43.3952900" lon="-7.3832450">
        <ele>279.8</ele>
        <time>2021-07-24T07:22:52Z</time>
      </trkpt>
      <trkpt lat="43.3952470" lon="-7.3833970">
        <ele>279.8</ele>
        <time>2021-07-24T07:22:55Z</time>
      </trkpt>
      <trkpt lat="43.3952340" lon="-7.3834450">
        <ele>279.8</ele>
        <time>2021-07-24T07:22:56Z</time>
      </trkpt>
      <trkpt lat="43.3951500" lon="-7.3837520">
        <ele>279.8</ele>
        <time>2021-07-24T07:23:03Z</time>
      </trkpt>
      <trkpt lat="43.3951050" lon="-7.3840790">
        <ele>279.8</ele>
        <time>2021-07-24T07:23:10Z</time>
      </trkpt>
      <trkpt lat="43.3951620" lon="-7.3843070">
        <ele>279.8</ele>
        <time>2021-07-24T07:23:15Z</time>
      </trkpt>
      <trkpt lat="43.3952480" lon="-7.3844180">
        <ele>279.8</ele>
        <time>2021-07-24T07:23:18Z</time>
      </trkpt>
      <trkpt lat="43.3953320" lon="-7.3844950">
        <ele>279.8</ele>
        <time>2021-07-24T07:23:20Z</time>
      </trkpt>
      <trkpt lat="43.3954210" lon="-7.3845820">
        <ele>279.8</ele>
        <time>2021-07-24T07:23:22Z</time>
      </trkpt>
      <trkpt lat="43.3955730" lon="-7.3847090">
        <ele>279.4</ele>
        <time>2021-07-24T07:23:25Z</time>
      </trkpt>
      <trkpt lat="43.3956250" lon="-7.3847580">
        <ele>279.0</ele>
        <time>2021-07-24T07:23:26Z</time>
      </trkpt>
      <trkpt lat="43.3956820" lon="-7.3848110">
        <ele>278.6</ele>
        <time>2021-07-24T07:23:27Z</time>
      </trkpt>
      <trkpt lat="43.3957370" lon="-7.3848650">
        <ele>278.2</ele>
        <time>2021-07-24T07:23:28Z</time>
      </trkpt>
      <trkpt lat="43.3957910" lon="-7.3849240">
        <ele>277.8</ele>
        <time>2021-07-24T07:23:29Z</time>
      </trkpt>
      <trkpt lat="43.3959310" lon="-7.3851330">
        <ele>277.8</ele>
        <time>2021-07-24T07:23:32Z</time>
      </trkpt>
      <trkpt lat="43.3960040" lon="-7.3852970">
        <ele>277.4</ele>
        <time>2021-07-24T07:23:34Z</time>
      </trkpt>
      <trkpt lat="43.3960240" lon="-7.3853940">
        <ele>277.0</ele>
        <time>2021-07-24T07:23:35Z</time>
      </trkpt>
      <trkpt lat="43.3960390" lon="-7.3854900">
        <ele>276.6</ele>
        <time>2021-07-24T07:23:36Z</time>
      </trkpt>
      <trkpt lat="43.3960510" lon="-7.3855870">
        <ele>276.2</ele>
        <time>2021-07-24T07:23:37Z</time>
      </trkpt>
      <trkpt lat="43.3960590" lon="-7.3856890">
        <ele>275.8</ele>
        <time>2021-07-24T07:23:38Z</time>
      </trkpt>
      <trkpt lat="43.3960680" lon="-7.3857900">
        <ele>275.4</ele>
        <time>2021-07-24T07:23:39Z</time>
      </trkpt>
      <trkpt lat="43.3960650" lon="-7.3858890">
        <ele>274.8</ele>
        <time>2021-07-24T07:23:40Z</time>
      </trkpt>
      <trkpt lat="43.3960590" lon="-7.3859830">
        <ele>274.4</ele>
        <time>2021-07-24T07:23:41Z</time>
      </trkpt>
      <trkpt lat="43.3960380" lon="-7.3860640">
        <ele>274.0</ele>
        <time>2021-07-24T07:23:42Z</time>
      </trkpt>
      <trkpt lat="43.3960030" lon="-7.3861250">
        <ele>273.6</ele>
        <time>2021-07-24T07:23:43Z</time>
      </trkpt>
      <trkpt lat="43.3959650" lon="-7.3861690">
        <ele>273.6</ele>
        <time>2021-07-24T07:23:44Z</time>
      </trkpt>
      <trkpt lat="43.3958930" lon="-7.3862020">
        <ele>273.6</ele>
        <time>2021-07-24T07:23:46Z</time>
      </trkpt>
      <trkpt lat="43.3958590" lon="-7.3861680">
        <ele>273.6</ele>
        <time>2021-07-24T07:23:47Z</time>
      </trkpt>
      <trkpt lat="43.3957440" lon="-7.3860480">
        <ele>273.6</ele>
        <time>2021-07-24T07:23:52Z</time>
      </trkpt>
      <trkpt lat="43.3957250" lon="-7.3860380">
        <ele>273.6</ele>
        <time>2021-07-24T07:23:53Z</time>
      </trkpt>
      <trkpt lat="43.3956590" lon="-7.3860130">
        <ele>273.6</ele>
        <time>2021-07-24T07:23:57Z</time>
      </trkpt>
      <trkpt lat="43.3956440" lon="-7.3860080">
        <ele>273.6</ele>
        <time>2021-07-24T07:23:58Z</time>
      </trkpt>
      <trkpt lat="43.3956270" lon="-7.3860060">
        <ele>273.6</ele>
        <time>2021-07-24T07:23:59Z</time>
      </trkpt>
      <trkpt lat="43.3955950" lon="-7.3860010">
        <ele>273.6</ele>
        <time>2021-07-24T07:24:01Z</time>
      </trkpt>
      <trkpt lat="43.3955800" lon="-7.3859990">
        <ele>273.6</ele>
        <time>2021-07-24T07:24:02Z</time>
      </trkpt>
      <trkpt lat="43.3955540" lon="-7.3859940">
        <ele>273.6</ele>
        <time>2021-07-24T07:24:04Z</time>
      </trkpt>
      <trkpt lat="43.3955230" lon="-7.3859930">
        <ele>273.6</ele>
        <time>2021-07-24T07:24:06Z</time>
      </trkpt>
      <trkpt lat="43.3954440" lon="-7.3860090">
        <ele>274.0</ele>
        <time>2021-07-24T07:24:09Z</time>
      </trkpt>
      <trkpt lat="43.3954180" lon="-7.3860130">
        <ele>274.4</ele>
        <time>2021-07-24T07:24:10Z</time>
      </trkpt>
      <trkpt lat="43.3953950" lon="-7.3860110">
        <ele>274.8</ele>
        <time>2021-07-24T07:24:11Z</time>
      </trkpt>
      <trkpt lat="43.3953760" lon="-7.3860120">
        <ele>275.2</ele>
        <time>2021-07-24T07:24:12Z</time>
      </trkpt>
      <trkpt lat="43.3953540" lon="-7.3860170">
        <ele>275.8</ele>
        <time>2021-07-24T07:24:13Z</time>
      </trkpt>
      <trkpt lat="43.3953310" lon="-7.3860220">
        <ele>275.8</ele>
        <time>2021-07-24T07:24:14Z</time>
      </trkpt>
      <trkpt lat="43.3952570" lon="-7.3860350">
        <ele>275.8</ele>
        <time>2021-07-24T07:24:18Z</time>
      </trkpt>
      <trkpt lat="43.3952080" lon="-7.3860440">
        <ele>276.2</ele>
        <time>2021-07-24T07:24:21Z</time>
      </trkpt>
      <trkpt lat="43.3951940" lon="-7.3860560">
        <ele>277.0</ele>
        <time>2021-07-24T07:24:22Z</time>
      </trkpt>
      <trkpt lat="43.3951780" lon="-7.3860630">
        <ele>277.4</ele>
        <time>2021-07-24T07:24:23Z</time>
      </trkpt>
      <trkpt lat="43.3951610" lon="-7.3860690">
        <ele>277.8</ele>
        <time>2021-07-24T07:24:24Z</time>
      </trkpt>
      <trkpt lat="43.3951300" lon="-7.3860840">
        <ele>277.8</ele>
        <time>2021-07-24T07:24:26Z</time>
      </trkpt>
      <trkpt lat="43.3950170" lon="-7.3861540">
        <ele>277.8</ele>
        <time>2021-07-24T07:24:33Z</time>
      </trkpt>
      <trkpt lat="43.3949360" lon="-7.3862280">
        <ele>278.2</ele>
        <time>2021-07-24T07:24:38Z</time>
      </trkpt>
      <trkpt lat="43.3949210" lon="-7.3862420">
        <ele>278.6</ele>
        <time>2021-07-24T07:24:39Z</time>
      </trkpt>
      <trkpt lat="43.3949050" lon="-7.3862560">
        <ele>279.0</ele>
        <time>2021-07-24T07:24:40Z</time>
      </trkpt>
      <trkpt lat="43.3948880" lon="-7.3862740">
        <ele>279.4</ele>
        <time>2021-07-24T07:24:41Z</time>
      </trkpt>
      <trkpt lat="43.3948750" lon="-7.3862880">
        <ele>279.8</ele>
        <time>2021-07-24T07:24:42Z</time>
      </trkpt>
      <trkpt lat="43.3947880" lon="-7.3864030">
        <ele>279.8</ele>
        <time>2021-07-24T07:24:47Z</time>
      </trkpt>
      <trkpt lat="43.3946920" lon="-7.3865400">
        <ele>279.8</ele>
        <time>2021-07-24T07:24:53Z</time>
      </trkpt>
      <trkpt lat="43.3946070" lon="-7.3868110">
        <ele>279.8</ele>
        <time>2021-07-24T07:24:59Z</time>
      </trkpt>
      <trkpt lat="43.3945790" lon="-7.3869570">
        <ele>279.8</ele>
        <time>2021-07-24T07:25:02Z</time>
      </trkpt>
      <trkpt lat="43.3945550" lon="-7.3870720">
        <ele>279.8</ele>
        <time>2021-07-24T07:25:04Z</time>
      </trkpt>
      <trkpt lat="43.3945210" lon="-7.3871890">
        <ele>279.8</ele>
        <time>2021-07-24T07:25:06Z</time>
      </trkpt>
      <trkpt lat="43.3945000" lon="-7.3872390">
        <ele>279.8</ele>
        <time>2021-07-24T07:25:07Z</time>
      </trkpt>
      <trkpt lat="43.3943790" lon="-7.3874380">
        <ele>279.8</ele>
        <time>2021-07-24T07:25:11Z</time>
      </trkpt>
      <trkpt lat="43.3942290" lon="-7.3876690">
        <ele>279.8</ele>
        <time>2021-07-24T07:25:14Z</time>
      </trkpt>
      <trkpt lat="43.3941740" lon="-7.3877530">
        <ele>279.4</ele>
        <time>2021-07-24T07:25:15Z</time>
      </trkpt>
      <trkpt lat="43.3941180" lon="-7.3878410">
        <ele>279.0</ele>
        <time>2021-07-24T07:25:16Z</time>
      </trkpt>
      <trkpt lat="43.3940590" lon="-7.3879380">
        <ele>278.4</ele>
        <time>2021-07-24T07:25:17Z</time>
      </trkpt>
      <trkpt lat="43.3940000" lon="-7.3880390">
        <ele>278.0</ele>
        <time>2021-07-24T07:25:18Z</time>
      </trkpt>
      <trkpt lat="43.3939400" lon="-7.3881400">
        <ele>277.4</ele>
        <time>2021-07-24T07:25:19Z</time>
      </trkpt>
      <trkpt lat="43.3938790" lon="-7.3882410">
        <ele>277.0</ele>
        <time>2021-07-24T07:25:20Z</time>
      </trkpt>
      <trkpt lat="43.3938150" lon="-7.3883420">
        <ele>276.4</ele>
        <time>2021-07-24T07:25:21Z</time>
      </trkpt>
      <trkpt lat="43.3937510" lon="-7.3884440">
        <ele>275.8</ele>
        <time>2021-07-24T07:25:22Z</time>
      </trkpt>
      <trkpt lat="43.3936840" lon="-7.3885470">
        <ele>275.2</ele>
        <time>2021-07-24T07:25:23Z</time>
      </trkpt>
      <trkpt lat="43.3936190" lon="-7.3886470">
        <ele>274.8</ele>
        <time>2021-07-24T07:25:24Z</time>
      </trkpt>
      <trkpt lat="43.3935530" lon="-7.3887480">
        <ele>274.4</ele>
        <time>2021-07-24T07:25:25Z</time>
      </trkpt>
      <trkpt lat="43.3934890" lon="-7.3888550">
        <ele>274.0</ele>
        <time>2021-07-24T07:25:26Z</time>
      </trkpt>
      <trkpt lat="43.3934290" lon="-7.3889510">
        <ele>273.4</ele>
        <time>2021-07-24T07:25:27Z</time>
      </trkpt>
      <trkpt lat="43.3933710" lon="-7.3890440">
        <ele>273.0</ele>
        <time>2021-07-24T07:25:28Z</time>
      </trkpt>
      <trkpt lat="43.3933170" lon="-7.3891320">
        <ele>272.4</ele>
        <time>2021-07-24T07:25:29Z</time>
      </trkpt>
      <trkpt lat="43.3932680" lon="-7.3892200">
        <ele>272.0</ele>
        <time>2021-07-24T07:25:30Z</time>
      </trkpt>
      <trkpt lat="43.3932230" lon="-7.3893070">
        <ele>271.4</ele>
        <time>2021-07-24T07:25:31Z</time>
      </trkpt>
      <trkpt lat="43.3931810" lon="-7.3893850">
        <ele>270.8</ele>
        <time>2021-07-24T07:25:32Z</time>
      </trkpt>
      <trkpt lat="43.3930370" lon="-7.3896640">
        <ele>270.8</ele>
        <time>2021-07-24T07:25:36Z</time>
      </trkpt>
      <trkpt lat="43.3929260" lon="-7.3899560">
        <ele>270.8</ele>
        <time>2021-07-24T07:25:41Z</time>
      </trkpt>
      <trkpt lat="43.3928540" lon="-7.3901610">
        <ele>270.8</ele>
        <time>2021-07-24T07:25:46Z</time>
      </trkpt>
      <trkpt lat="43.3928130" lon="-7.3902540">
        <ele>270.8</ele>
        <time>2021-07-24T07:25:48Z</time>
      </trkpt>
      <trkpt lat="43.3927710" lon="-7.3903770">
        <ele>270.8</ele>
        <time>2021-07-24T07:25:51Z</time>
      </trkpt>
      <trkpt lat="43.3927280" lon="-7.3905360">
        <ele>270.8</ele>
        <time>2021-07-24T07:25:55Z</time>
      </trkpt>
      <trkpt lat="43.3926840" lon="-7.3907040">
        <ele>270.8</ele>
        <time>2021-07-24T07:25:58Z</time>
      </trkpt>
      <trkpt lat="43.3926650" lon="-7.3907560">
        <ele>270.8</ele>
        <time>2021-07-24T07:25:59Z</time>
      </trkpt>
      <trkpt lat="43.3926280" lon="-7.3908360">
        <ele>270.8</ele>
        <time>2021-07-24T07:26:01Z</time>
      </trkpt>
      <trkpt lat="43.3925710" lon="-7.3909930">
        <ele>270.8</ele>
        <time>2021-07-24T07:26:05Z</time>
      </trkpt>
      <trkpt lat="43.3925590" lon="-7.3910320">
        <ele>270.8</ele>
        <time>2021-07-24T07:26:06Z</time>
      </trkpt>
      <trkpt lat="43.3925470" lon="-7.3910710">
        <ele>271.2</ele>
        <time>2021-07-24T07:26:07Z</time>
      </trkpt>
      <trkpt lat="43.3925340" lon="-7.3911140">
        <ele>271.6</ele>
        <time>2021-07-24T07:26:08Z</time>
      </trkpt>
      <trkpt lat="43.3925220" lon="-7.3911600">
        <ele>272.0</ele>
        <time>2021-07-24T07:26:09Z</time>
      </trkpt>
      <trkpt lat="43.3925110" lon="-7.3912090">
        <ele>272.4</ele>
        <time>2021-07-24T07:26:10Z</time>
      </trkpt>
      <trkpt lat="43.3925000" lon="-7.3912550">
        <ele>273.0</ele>
        <time>2021-07-24T07:26:11Z</time>
      </trkpt>
      <trkpt lat="43.3924720" lon="-7.3913860">
        <ele>273.0</ele>
        <time>2021-07-24T07:26:14Z</time>
      </trkpt>
      <trkpt lat="43.3924100" lon="-7.3916200">
        <ele>273.0</ele>
        <time>2021-07-24T07:26:19Z</time>
      </trkpt>
      <trkpt lat="43.3923720" lon="-7.3917450">
        <ele>273.0</ele>
        <time>2021-07-24T07:26:21Z</time>
      </trkpt>
      <trkpt lat="43.3922360" lon="-7.3921240">
        <ele>273.0</ele>
        <time>2021-07-24T07:26:27Z</time>
      </trkpt>
      <trkpt lat="43.3922020" lon="-7.3921830">
        <ele>273.0</ele>
        <time>2021-07-24T07:26:28Z</time>
      </trkpt>
      <trkpt lat="43.3920980" lon="-7.3923400">
        <ele>273.0</ele>
        <time>2021-07-24T07:26:31Z</time>
      </trkpt>
      <trkpt lat="43.3919660" lon="-7.3925290">
        <ele>273.0</ele>
        <time>2021-07-24T07:26:35Z</time>
      </trkpt>
      <trkpt lat="43.3919330" lon="-7.3925870">
        <ele>273.0</ele>
        <time>2021-07-24T07:26:36Z</time>
      </trkpt>
      <trkpt lat="43.3918440" lon="-7.3927830">
        <ele>273.0</ele>
        <time>2021-07-24T07:26:39Z</time>
      </trkpt>
      <trkpt lat="43.3917940" lon="-7.3928990">
        <ele>273.0</ele>
        <time>2021-07-24T07:26:41Z</time>
      </trkpt>
      <trkpt lat="43.3917530" lon="-7.3930100">
        <ele>273.0</ele>
        <time>2021-07-24T07:26:43Z</time>
      </trkpt>
      <trkpt lat="43.3917170" lon="-7.3931220">
        <ele>273.0</ele>
        <time>2021-07-24T07:26:45Z</time>
      </trkpt>
      <trkpt lat="43.3916200" lon="-7.3934670">
        <ele>273.0</ele>
        <time>2021-07-24T07:26:51Z</time>
      </trkpt>
      <trkpt lat="43.3916260" lon="-7.3935790">
        <ele>273.0</ele>
        <time>2021-07-24T07:26:53Z</time>
      </trkpt>
      <trkpt lat="43.3916690" lon="-7.3936880">
        <ele>273.0</ele>
        <time>2021-07-24T07:26:55Z</time>
      </trkpt>
      <trkpt lat="43.3918030" lon="-7.3938280">
        <ele>273.0</ele>
        <time>2021-07-24T07:26:59Z</time>
      </trkpt>
      <trkpt lat="43.3919190" lon="-7.3938840">
        <ele>273.0</ele>
        <time>2021-07-24T07:27:02Z</time>
      </trkpt>
      <trkpt lat="43.3920770" lon="-7.3939680">
        <ele>273.0</ele>
        <time>2021-07-24T07:27:06Z</time>
      </trkpt>
      <trkpt lat="43.3922040" lon="-7.3941110">
        <ele>273.0</ele>
        <time>2021-07-24T07:27:11Z</time>
      </trkpt>
      <trkpt lat="43.3922430" lon="-7.3942710">
        <ele>273.0</ele>
        <time>2021-07-24T07:27:16Z</time>
      </trkpt>
      <trkpt lat="43.3922420" lon="-7.3943570">
        <ele>273.4</ele>
        <time>2021-07-24T07:27:19Z</time>
      </trkpt>
      <trkpt lat="43.3922380" lon="-7.3943830">
        <ele>273.8</ele>
        <time>2021-07-24T07:27:21Z</time>
      </trkpt>
      <trkpt lat="43.3922330" lon="-7.3944070">
        <ele>274.2</ele>
        <time>2021-07-24T07:27:22Z</time>
      </trkpt>
      <trkpt lat="43.3922320" lon="-7.3944290">
        <ele>274.6</ele>
        <time>2021-07-24T07:27:23Z</time>
      </trkpt>
      <trkpt lat="43.3922300" lon="-7.3944510">
        <ele>275.0</ele>
        <time>2021-07-24T07:27:24Z</time>
      </trkpt>
      <trkpt lat="43.3922190" lon="-7.3945760">
        <ele>275.0</ele>
        <time>2021-07-24T07:27:31Z</time>
      </trkpt>
      <trkpt lat="43.3922140" lon="-7.3945920">
        <ele>275.4</ele>
        <time>2021-07-24T07:27:32Z</time>
      </trkpt>
      <trkpt lat="43.3922090" lon="-7.3946080">
        <ele>275.8</ele>
        <time>2021-07-24T07:27:33Z</time>
      </trkpt>
      <trkpt lat="43.3922080" lon="-7.3946290">
        <ele>276.2</ele>
        <time>2021-07-24T07:27:34Z</time>
      </trkpt>
      <trkpt lat="43.3922050" lon="-7.3946500">
        <ele>276.6</ele>
        <time>2021-07-24T07:27:35Z</time>
      </trkpt>
      <trkpt lat="43.3922020" lon="-7.3946690">
        <ele>277.0</ele>
        <time>2021-07-24T07:27:36Z</time>
      </trkpt>
      <trkpt lat="43.3921960" lon="-7.3947060">
        <ele>277.0</ele>
        <time>2021-07-24T07:27:38Z</time>
      </trkpt>
      <trkpt lat="43.3921700" lon="-7.3948450">
        <ele>277.4</ele>
        <time>2021-07-24T07:27:44Z</time>
      </trkpt>
      <trkpt lat="43.3921680" lon="-7.3948670">
        <ele>277.8</ele>
        <time>2021-07-24T07:27:45Z</time>
      </trkpt>
      <trkpt lat="43.3921660" lon="-7.3948830">
        <ele>278.2</ele>
        <time>2021-07-24T07:27:46Z</time>
      </trkpt>
      <trkpt lat="43.3921620" lon="-7.3949030">
        <ele>278.6</ele>
        <time>2021-07-24T07:27:47Z</time>
      </trkpt>
      <trkpt lat="43.3921590" lon="-7.3949230">
        <ele>279.0</ele>
        <time>2021-07-24T07:27:48Z</time>
      </trkpt>
      <trkpt lat="43.3921450" lon="-7.3950270">
        <ele>279.0</ele>
        <time>2021-07-24T07:27:53Z</time>
      </trkpt>
      <trkpt lat="43.3921180" lon="-7.3951630">
        <ele>279.4</ele>
        <time>2021-07-24T07:27:59Z</time>
      </trkpt>
      <trkpt lat="43.3921210" lon="-7.3951880">
        <ele>279.8</ele>
        <time>2021-07-24T07:28:00Z</time>
      </trkpt>
      <trkpt lat="43.3921200" lon="-7.3952130">
        <ele>280.4</ele>
        <time>2021-07-24T07:28:01Z</time>
      </trkpt>
      <trkpt lat="43.3921190" lon="-7.3952380">
        <ele>280.8</ele>
        <time>2021-07-24T07:28:02Z</time>
      </trkpt>
      <trkpt lat="43.3921170" lon="-7.3952600">
        <ele>281.2</ele>
        <time>2021-07-24T07:28:03Z</time>
      </trkpt>
      <trkpt lat="43.3920960" lon="-7.3953460">
        <ele>281.2</ele>
        <time>2021-07-24T07:28:07Z</time>
      </trkpt>
      <trkpt lat="43.3920850" lon="-7.3954520">
        <ele>281.6</ele>
        <time>2021-07-24T07:28:12Z</time>
      </trkpt>
      <trkpt lat="43.3920820" lon="-7.3954720">
        <ele>282.0</ele>
        <time>2021-07-24T07:28:13Z</time>
      </trkpt>
      <trkpt lat="43.3920810" lon="-7.3954920">
        <ele>282.4</ele>
        <time>2021-07-24T07:28:14Z</time>
      </trkpt>
      <trkpt lat="43.3920780" lon="-7.3955110">
        <ele>282.8</ele>
        <time>2021-07-24T07:28:15Z</time>
      </trkpt>
      <trkpt lat="43.3920720" lon="-7.3955300">
        <ele>283.2</ele>
        <time>2021-07-24T07:28:16Z</time>
      </trkpt>
      <trkpt lat="43.3920380" lon="-7.3956320">
        <ele>283.2</ele>
        <time>2021-07-24T07:28:22Z</time>
      </trkpt>
      <trkpt lat="43.3920270" lon="-7.3956870">
        <ele>283.6</ele>
        <time>2021-07-24T07:28:25Z</time>
      </trkpt>
      <trkpt lat="43.3920210" lon="-7.3957070">
        <ele>284.0</ele>
        <time>2021-07-24T07:28:26Z</time>
      </trkpt>
      <trkpt lat="43.3920170" lon="-7.3957270">
        <ele>284.4</ele>
        <time>2021-07-24T07:28:27Z</time>
      </trkpt>
      <trkpt lat="43.3920110" lon="-7.3957440">
        <ele>284.8</ele>
        <time>2021-07-24T07:28:28Z</time>
      </trkpt>
      <trkpt lat="43.3920080" lon="-7.3957620">
        <ele>285.2</ele>
        <time>2021-07-24T07:28:29Z</time>
      </trkpt>
      <trkpt lat="43.3919820" lon="-7.3959020">
        <ele>285.2</ele>
        <time>2021-07-24T07:28:37Z</time>
      </trkpt>
      <trkpt lat="43.3919780" lon="-7.3959200">
        <ele>285.6</ele>
        <time>2021-07-24T07:28:38Z</time>
      </trkpt>
      <trkpt lat="43.3919720" lon="-7.3959360">
        <ele>286.0</ele>
        <time>2021-07-24T07:28:39Z</time>
      </trkpt>
      <trkpt lat="43.3919670" lon="-7.3959550">
        <ele>286.4</ele>
        <time>2021-07-24T07:28:40Z</time>
      </trkpt>
      <trkpt lat="43.3919600" lon="-7.3959720">
        <ele>286.8</ele>
        <time>2021-07-24T07:28:41Z</time>
      </trkpt>
      <trkpt lat="43.3919560" lon="-7.3959870">
        <ele>287.2</ele>
        <time>2021-07-24T07:28:42Z</time>
      </trkpt>
      <trkpt lat="43.3919440" lon="-7.3960460">
        <ele>287.2</ele>
        <time>2021-07-24T07:28:46Z</time>
      </trkpt>
      <trkpt lat="43.3919390" lon="-7.3961560">
        <ele>287.6</ele>
        <time>2021-07-24T07:28:52Z</time>
      </trkpt>
      <trkpt lat="43.3919400" lon="-7.3961720">
        <ele>288.0</ele>
        <time>2021-07-24T07:28:53Z</time>
      </trkpt>
      <trkpt lat="43.3919420" lon="-7.3961920">
        <ele>289.0</ele>
        <time>2021-07-24T07:28:54Z</time>
      </trkpt>
      <trkpt lat="43.3919420" lon="-7.3962140">
        <ele>289.4</ele>
        <time>2021-07-24T07:28:55Z</time>
      </trkpt>
      <trkpt lat="43.3919420" lon="-7.3962730">
        <ele>289.4</ele>
        <time>2021-07-24T07:28:58Z</time>
      </trkpt>
      <trkpt lat="43.3919260" lon="-7.3963410">
        <ele>289.4</ele>
        <time>2021-07-24T07:29:02Z</time>
      </trkpt>
      <trkpt lat="43.3918760" lon="-7.3963980">
        <ele>289.4</ele>
        <time>2021-07-24T07:29:09Z</time>
      </trkpt>
      <trkpt lat="43.3919380" lon="-7.3963880">
        <ele>291.4</ele>
        <time>2021-07-24T07:30:02Z</time>
      </trkpt>
      <trkpt lat="43.3919450" lon="-7.3963810">
        <ele>291.4</ele>
        <time>2021-07-24T07:30:03Z</time>
      </trkpt>
      <trkpt lat="43.3919610" lon="-7.3963760">
        <ele>291.4</ele>
        <time>2021-07-24T07:30:04Z</time>
      </trkpt>
      <trkpt lat="43.3920420" lon="-7.3964280">
        <ele>291.4</ele>
        <time>2021-07-24T07:30:09Z</time>
      </trkpt>
      <trkpt lat="43.3921130" lon="-7.3965310">
        <ele>291.4</ele>
        <time>2021-07-24T07:30:15Z</time>
      </trkpt>
      <trkpt lat="43.3921300" lon="-7.3965450">
        <ele>291.4</ele>
        <time>2021-07-24T07:30:16Z</time>
      </trkpt>
      <trkpt lat="43.3921920" lon="-7.3966090">
        <ele>291.4</ele>
        <time>2021-07-24T07:30:20Z</time>
      </trkpt>
      <trkpt lat="43.3922320" lon="-7.3966630">
        <ele>291.4</ele>
        <time>2021-07-24T07:30:23Z</time>
      </trkpt>
      <trkpt lat="43.3922460" lon="-7.3966760">
        <ele>291.8</ele>
        <time>2021-07-24T07:30:24Z</time>
      </trkpt>
      <trkpt lat="43.3922620" lon="-7.3966890">
        <ele>292.2</ele>
        <time>2021-07-24T07:30:25Z</time>
      </trkpt>
      <trkpt lat="43.3922780" lon="-7.3967010">
        <ele>292.6</ele>
        <time>2021-07-24T07:30:26Z</time>
      </trkpt>
      <trkpt lat="43.3922940" lon="-7.3967130">
        <ele>293.2</ele>
        <time>2021-07-24T07:30:27Z</time>
      </trkpt>
      <trkpt lat="43.3923080" lon="-7.3967260">
        <ele>293.6</ele>
        <time>2021-07-24T07:30:28Z</time>
      </trkpt>
      <trkpt lat="43.3923650" lon="-7.3967900">
        <ele>293.6</ele>
        <time>2021-07-24T07:30:32Z</time>
      </trkpt>
      <trkpt lat="43.3923990" lon="-7.3968430">
        <ele>293.6</ele>
        <time>2021-07-24T07:30:35Z</time>
      </trkpt>
      <trkpt lat="43.3924590" lon="-7.3969080">
        <ele>294.0</ele>
        <time>2021-07-24T07:30:40Z</time>
      </trkpt>
      <trkpt lat="43.3924750" lon="-7.3969160">
        <ele>294.4</ele>
        <time>2021-07-24T07:30:41Z</time>
      </trkpt>
      <trkpt lat="43.3924930" lon="-7.3969250">
        <ele>294.8</ele>
        <time>2021-07-24T07:30:42Z</time>
      </trkpt>
      <trkpt lat="43.3925070" lon="-7.3969420">
        <ele>295.4</ele>
        <time>2021-07-24T07:30:43Z</time>
      </trkpt>
      <trkpt lat="43.3925210" lon="-7.3969630">
        <ele>295.8</ele>
        <time>2021-07-24T07:30:44Z</time>
      </trkpt>
      <trkpt lat="43.3926060" lon="-7.3970410">
        <ele>295.8</ele>
        <time>2021-07-24T07:30:49Z</time>
      </trkpt>
      <trkpt lat="43.3926220" lon="-7.3970570">
        <ele>295.8</ele>
        <time>2021-07-24T07:30:50Z</time>
      </trkpt>
      <trkpt lat="43.3927270" lon="-7.3971810">
        <ele>295.8</ele>
        <time>2021-07-24T07:30:57Z</time>
      </trkpt>
      <trkpt lat="43.3927580" lon="-7.3972100">
        <ele>296.6</ele>
        <time>2021-07-24T07:30:59Z</time>
      </trkpt>
      <trkpt lat="43.3927730" lon="-7.3972240">
        <ele>297.0</ele>
        <time>2021-07-24T07:31:00Z</time>
      </trkpt>
      <trkpt lat="43.3927900" lon="-7.3972330">
        <ele>297.4</ele>
        <time>2021-07-24T07:31:01Z</time>
      </trkpt>
      <trkpt lat="43.3928050" lon="-7.3972440">
        <ele>298.0</ele>
        <time>2021-07-24T07:31:02Z</time>
      </trkpt>
      <trkpt lat="43.3928390" lon="-7.3972890">
        <ele>298.0</ele>
        <time>2021-07-24T07:31:05Z</time>
      </trkpt>
      <trkpt lat="43.3929370" lon="-7.3973660">
        <ele>298.0</ele>
        <time>2021-07-24T07:31:12Z</time>
      </trkpt>
      <trkpt lat="43.3930060" lon="-7.3973970">
        <ele>298.4</ele>
        <time>2021-07-24T07:31:16Z</time>
      </trkpt>
      <trkpt lat="43.3930260" lon="-7.3974060">
        <ele>298.8</ele>
        <time>2021-07-24T07:31:17Z</time>
      </trkpt>
      <trkpt lat="43.3930490" lon="-7.3974110">
        <ele>299.2</ele>
        <time>2021-07-24T07:31:18Z</time>
      </trkpt>
      <trkpt lat="43.3930710" lon="-7.3974060">
        <ele>299.6</ele>
        <time>2021-07-24T07:31:19Z</time>
      </trkpt>
      <trkpt lat="43.3930970" lon="-7.3974040">
        <ele>300.0</ele>
        <time>2021-07-24T07:31:20Z</time>
      </trkpt>
      <trkpt lat="43.3932170" lon="-7.3973570">
        <ele>300.0</ele>
        <time>2021-07-24T07:31:25Z</time>
      </trkpt>
      <trkpt lat="43.3933430" lon="-7.3973070">
        <ele>300.0</ele>
        <time>2021-07-24T07:31:31Z</time>
      </trkpt>
      <trkpt lat="43.3935190" lon="-7.3972790">
        <ele>300.0</ele>
        <time>2021-07-24T07:31:38Z</time>
      </trkpt>
      <trkpt lat="43.3936520" lon="-7.3973510">
        <ele>300.0</ele>
        <time>2021-07-24T07:31:43Z</time>
      </trkpt>
      <trkpt lat="43.3936800" lon="-7.3974020">
        <ele>300.4</ele>
        <time>2021-07-24T07:31:46Z</time>
      </trkpt>
      <trkpt lat="43.3936810" lon="-7.3974280">
        <ele>300.8</ele>
        <time>2021-07-24T07:31:47Z</time>
      </trkpt>
      <trkpt lat="43.3936780" lon="-7.3974510">
        <ele>301.8</ele>
        <time>2021-07-24T07:31:48Z</time>
      </trkpt>
      <trkpt lat="43.3936770" lon="-7.3974790">
        <ele>302.2</ele>
        <time>2021-07-24T07:31:49Z</time>
      </trkpt>
      <trkpt lat="43.3936560" lon="-7.3975510">
        <ele>302.2</ele>
        <time>2021-07-24T07:31:52Z</time>
      </trkpt>
      <trkpt lat="43.3936450" lon="-7.3975720">
        <ele>302.6</ele>
        <time>2021-07-24T07:31:53Z</time>
      </trkpt>
      <trkpt lat="43.3936330" lon="-7.3975890">
        <ele>303.0</ele>
        <time>2021-07-24T07:31:54Z</time>
      </trkpt>
      <trkpt lat="43.3936210" lon="-7.3976020">
        <ele>303.4</ele>
        <time>2021-07-24T07:31:55Z</time>
      </trkpt>
      <trkpt lat="43.3936080" lon="-7.3976160">
        <ele>303.8</ele>
        <time>2021-07-24T07:31:56Z</time>
      </trkpt>
      <trkpt lat="43.3935950" lon="-7.3976320">
        <ele>304.2</ele>
        <time>2021-07-24T07:31:57Z</time>
      </trkpt>
      <trkpt lat="43.3935110" lon="-7.3976960">
        <ele>304.2</ele>
        <time>2021-07-24T07:32:03Z</time>
      </trkpt>
      <trkpt lat="43.3934860" lon="-7.3977060">
        <ele>304.6</ele>
        <time>2021-07-24T07:32:05Z</time>
      </trkpt>
      <trkpt lat="43.3934700" lon="-7.3977140">
        <ele>305.0</ele>
        <time>2021-07-24T07:32:06Z</time>
      </trkpt>
      <trkpt lat="43.3934520" lon="-7.3977200">
        <ele>305.6</ele>
        <time>2021-07-24T07:32:07Z</time>
      </trkpt>
      <trkpt lat="43.3934360" lon="-7.3977240">
        <ele>306.0</ele>
        <time>2021-07-24T07:32:08Z</time>
      </trkpt>
      <trkpt lat="43.3934210" lon="-7.3977390">
        <ele>306.4</ele>
        <time>2021-07-24T07:32:09Z</time>
      </trkpt>
      <trkpt lat="43.3933910" lon="-7.3977620">
        <ele>306.4</ele>
        <time>2021-07-24T07:32:11Z</time>
      </trkpt>
      <trkpt lat="43.3933010" lon="-7.3978610">
        <ele>306.4</ele>
        <time>2021-07-24T07:32:18Z</time>
      </trkpt>
      <trkpt lat="43.3932950" lon="-7.3978860">
        <ele>306.8</ele>
        <time>2021-07-24T07:32:19Z</time>
      </trkpt>
      <trkpt lat="43.3932920" lon="-7.3979130">
        <ele>307.2</ele>
        <time>2021-07-24T07:32:20Z</time>
      </trkpt>
      <trkpt lat="43.3932860" lon="-7.3979360">
        <ele>307.6</ele>
        <time>2021-07-24T07:32:21Z</time>
      </trkpt>
      <trkpt lat="43.3932790" lon="-7.3979570">
        <ele>308.0</ele>
        <time>2021-07-24T07:32:22Z</time>
      </trkpt>
      <trkpt lat="43.3932700" lon="-7.3979830">
        <ele>308.4</ele>
        <time>2021-07-24T07:32:23Z</time>
      </trkpt>
      <trkpt lat="43.3932530" lon="-7.3980330">
        <ele>308.4</ele>
        <time>2021-07-24T07:32:25Z</time>
      </trkpt>
      <trkpt lat="43.3931220" lon="-7.3982600">
        <ele>308.4</ele>
        <time>2021-07-24T07:32:33Z</time>
      </trkpt>
      <trkpt lat="43.3929600" lon="-7.3983950">
        <ele>308.4</ele>
        <time>2021-07-24T07:32:40Z</time>
      </trkpt>
      <trkpt lat="43.3928210" lon="-7.3985200">
        <ele>308.8</ele>
        <time>2021-07-24T07:32:46Z</time>
      </trkpt>
      <trkpt lat="43.3927950" lon="-7.3985350">
        <ele>309.2</ele>
        <time>2021-07-24T07:32:47Z</time>
      </trkpt>
      <trkpt lat="43.3927680" lon="-7.3985510">
        <ele>309.6</ele>
        <time>2021-07-24T07:32:48Z</time>
      </trkpt>
      <trkpt lat="43.3927420" lon="-7.3985710">
        <ele>310.0</ele>
        <time>2021-07-24T07:32:49Z</time>
      </trkpt>
      <trkpt lat="43.3927160" lon="-7.3985870">
        <ele>310.6</ele>
        <time>2021-07-24T07:32:50Z</time>
      </trkpt>
      <trkpt lat="43.3926090" lon="-7.3986430">
        <ele>310.6</ele>
        <time>2021-07-24T07:32:54Z</time>
      </trkpt>
      <trkpt lat="43.3925850" lon="-7.3986600">
        <ele>310.6</ele>
        <time>2021-07-24T07:32:55Z</time>
      </trkpt>
      <trkpt lat="43.3924070" lon="-7.3988100">
        <ele>310.6</ele>
        <time>2021-07-24T07:33:02Z</time>
      </trkpt>
      <trkpt lat="43.3923800" lon="-7.3988320">
        <ele>310.6</ele>
        <time>2021-07-24T07:33:03Z</time>
      </trkpt>
      <trkpt lat="43.3922150" lon="-7.3989390">
        <ele>310.6</ele>
        <time>2021-07-24T07:33:09Z</time>
      </trkpt>
      <trkpt lat="43.3921870" lon="-7.3989490">
        <ele>310.6</ele>
        <time>2021-07-24T07:33:10Z</time>
      </trkpt>
      <trkpt lat="43.3920340" lon="-7.3989360">
        <ele>310.6</ele>
        <time>2021-07-24T07:33:15Z</time>
      </trkpt>
      <trkpt lat="43.3918770" lon="-7.3989160">
        <ele>310.6</ele>
        <time>2021-07-24T07:33:19Z</time>
      </trkpt>
      <trkpt lat="43.3917580" lon="-7.3989060">
        <ele>310.6</ele>
        <time>2021-07-24T07:33:21Z</time>
      </trkpt>
      <trkpt lat="43.3917050" lon="-7.3988950">
        <ele>310.6</ele>
        <time>2021-07-24T07:33:22Z</time>
      </trkpt>
      <trkpt lat="43.3916020" lon="-7.3988630">
        <ele>310.6</ele>
        <time>2021-07-24T07:33:24Z</time>
      </trkpt>
      <trkpt lat="43.3914510" lon="-7.3987970">
        <ele>310.6</ele>
        <time>2021-07-24T07:33:27Z</time>
      </trkpt>
      <trkpt lat="43.3913960" lon="-7.3987750">
        <ele>310.6</ele>
        <time>2021-07-24T07:33:28Z</time>
      </trkpt>
      <trkpt lat="43.3912980" lon="-7.3987270">
        <ele>310.0</ele>
        <time>2021-07-24T07:33:30Z</time>
      </trkpt>
      <trkpt lat="43.3912520" lon="-7.3987030">
        <ele>309.6</ele>
        <time>2021-07-24T07:33:31Z</time>
      </trkpt>
      <trkpt lat="43.3912050" lon="-7.3986820">
        <ele>309.2</ele>
        <time>2021-07-24T07:33:32Z</time>
      </trkpt>
      <trkpt lat="43.3911550" lon="-7.3986600">
        <ele>308.6</ele>
        <time>2021-07-24T07:33:33Z</time>
      </trkpt>
      <trkpt lat="43.3911060" lon="-7.3986420">
        <ele>308.2</ele>
        <time>2021-07-24T07:33:34Z</time>
      </trkpt>
      <trkpt lat="43.3910550" lon="-7.3986210">
        <ele>308.2</ele>
        <time>2021-07-24T07:33:35Z</time>
      </trkpt>
      <trkpt lat="43.3909570" lon="-7.3986140">
        <ele>307.8</ele>
        <time>2021-07-24T07:33:37Z</time>
      </trkpt>
      <trkpt lat="43.3909080" lon="-7.3986350">
        <ele>307.4</ele>
        <time>2021-07-24T07:33:38Z</time>
      </trkpt>
      <trkpt lat="43.3908510" lon="-7.3986600">
        <ele>306.8</ele>
        <time>2021-07-24T07:33:39Z</time>
      </trkpt>
      <trkpt lat="43.3907930" lon="-7.3986890">
        <ele>306.4</ele>
        <time>2021-07-24T07:33:40Z</time>
      </trkpt>
      <trkpt lat="43.3907140" lon="-7.3987310">
        <ele>305.8</ele>
        <time>2021-07-24T07:33:41Z</time>
      </trkpt>
      <trkpt lat="43.3906430" lon="-7.3987680">
        <ele>305.4</ele>
        <time>2021-07-24T07:33:42Z</time>
      </trkpt>
      <trkpt lat="43.3905770" lon="-7.3988010">
        <ele>304.8</ele>
        <time>2021-07-24T07:33:43Z</time>
      </trkpt>
      <trkpt lat="43.3905040" lon="-7.3988010">
        <ele>304.4</ele>
        <time>2021-07-24T07:33:44Z</time>
      </trkpt>
      <trkpt lat="43.3904330" lon="-7.3987980">
        <ele>303.8</ele>
        <time>2021-07-24T07:33:45Z</time>
      </trkpt>
      <trkpt lat="43.3903600" lon="-7.3987920">
        <ele>303.0</ele>
        <time>2021-07-24T07:33:46Z</time>
      </trkpt>
      <trkpt lat="43.3902880" lon="-7.3987810">
        <ele>302.4</ele>
        <time>2021-07-24T07:33:47Z</time>
      </trkpt>
      <trkpt lat="43.3902230" lon="-7.3987700">
        <ele>301.8</ele>
        <time>2021-07-24T07:33:48Z</time>
      </trkpt>
      <trkpt lat="43.3901590" lon="-7.3987630">
        <ele>301.0</ele>
        <time>2021-07-24T07:33:49Z</time>
      </trkpt>
      <trkpt lat="43.3901010" lon="-7.3987570">
        <ele>300.4</ele>
        <time>2021-07-24T07:33:50Z</time>
      </trkpt>
      <trkpt lat="43.3900410" lon="-7.3987560">
        <ele>299.6</ele>
        <time>2021-07-24T07:33:51Z</time>
      </trkpt>
      <trkpt lat="43.3899810" lon="-7.3987570">
        <ele>298.6</ele>
        <time>2021-07-24T07:33:52Z</time>
      </trkpt>
      <trkpt lat="43.3899180" lon="-7.3987650">
        <ele>298.0</ele>
        <time>2021-07-24T07:33:53Z</time>
      </trkpt>
      <trkpt lat="43.3898550" lon="-7.3987820">
        <ele>297.4</ele>
        <time>2021-07-24T07:33:54Z</time>
      </trkpt>
      <trkpt lat="43.3897970" lon="-7.3988090">
        <ele>296.8</ele>
        <time>2021-07-24T07:33:55Z</time>
      </trkpt>
      <trkpt lat="43.3897450" lon="-7.3988460">
        <ele>296.4</ele>
        <time>2021-07-24T07:33:56Z</time>
      </trkpt>
      <trkpt lat="43.3896940" lon="-7.3988880">
        <ele>295.8</ele>
        <time>2021-07-24T07:33:57Z</time>
      </trkpt>
      <trkpt lat="43.3896420" lon="-7.3989450">
        <ele>295.4</ele>
        <time>2021-07-24T07:33:58Z</time>
      </trkpt>
      <trkpt lat="43.3895990" lon="-7.3990080">
        <ele>295.0</ele>
        <time>2021-07-24T07:33:59Z</time>
      </trkpt>
      <trkpt lat="43.3895600" lon="-7.3990850">
        <ele>294.6</ele>
        <time>2021-07-24T07:34:00Z</time>
      </trkpt>
      <trkpt lat="43.3894520" lon="-7.3993640">
        <ele>294.2</ele>
        <time>2021-07-24T07:34:03Z</time>
      </trkpt>
      <trkpt lat="43.3894160" lon="-7.3994680">
        <ele>293.8</ele>
        <time>2021-07-24T07:34:04Z</time>
      </trkpt>
      <trkpt lat="43.3893830" lon="-7.3995750">
        <ele>293.4</ele>
        <time>2021-07-24T07:34:05Z</time>
      </trkpt>
      <trkpt lat="43.3893480" lon="-7.3996920">
        <ele>292.8</ele>
        <time>2021-07-24T07:34:06Z</time>
      </trkpt>
      <trkpt lat="43.3893120" lon="-7.3998030">
        <ele>292.0</ele>
        <time>2021-07-24T07:34:07Z</time>
      </trkpt>
      <trkpt lat="43.3892720" lon="-7.3999170">
        <ele>291.4</ele>
        <time>2021-07-24T07:34:08Z</time>
      </trkpt>
      <trkpt lat="43.3892310" lon="-7.4000300">
        <ele>290.8</ele>
        <time>2021-07-24T07:34:09Z</time>
      </trkpt>
      <trkpt lat="43.3891880" lon="-7.4001410">
        <ele>290.2</ele>
        <time>2021-07-24T07:34:10Z</time>
      </trkpt>
      <trkpt lat="43.3891000" lon="-7.4003650">
        <ele>289.8</ele>
        <time>2021-07-24T07:34:12Z</time>
      </trkpt>
      <trkpt lat="43.3890550" lon="-7.4004720">
        <ele>289.2</ele>
        <time>2021-07-24T07:34:13Z</time>
      </trkpt>
      <trkpt lat="43.3890100" lon="-7.4005800">
        <ele>288.8</ele>
        <time>2021-07-24T07:34:14Z</time>
      </trkpt>
      <trkpt lat="43.3889660" lon="-7.4006860">
        <ele>288.2</ele>
        <time>2021-07-24T07:34:15Z</time>
      </trkpt>
      <trkpt lat="43.3889220" lon="-7.4007850">
        <ele>287.8</ele>
        <time>2021-07-24T07:34:16Z</time>
      </trkpt>
      <trkpt lat="43.3888830" lon="-7.4008790">
        <ele>287.8</ele>
        <time>2021-07-24T07:34:17Z</time>
      </trkpt>
      <trkpt lat="43.3887490" lon="-7.4011970">
        <ele>287.4</ele>
        <time>2021-07-24T07:34:21Z</time>
      </trkpt>
      <trkpt lat="43.3887220" lon="-7.4012650">
        <ele>287.0</ele>
        <time>2021-07-24T07:34:22Z</time>
      </trkpt>
      <trkpt lat="43.3887000" lon="-7.4013290">
        <ele>286.6</ele>
        <time>2021-07-24T07:34:23Z</time>
      </trkpt>
      <trkpt lat="43.3886830" lon="-7.4013850">
        <ele>286.2</ele>
        <time>2021-07-24T07:34:24Z</time>
      </trkpt>
      <trkpt lat="43.3886680" lon="-7.4014340">
        <ele>285.8</ele>
        <time>2021-07-24T07:34:25Z</time>
      </trkpt>
      <trkpt lat="43.3886560" lon="-7.4014830">
        <ele>285.8</ele>
        <time>2021-07-24T07:34:26Z</time>
      </trkpt>
      <trkpt lat="43.3886280" lon="-7.4015790">
        <ele>285.8</ele>
        <time>2021-07-24T07:34:28Z</time>
      </trkpt>
      <trkpt lat="43.3886150" lon="-7.4016210">
        <ele>285.8</ele>
        <time>2021-07-24T07:34:29Z</time>
      </trkpt>
      <trkpt lat="43.3885880" lon="-7.4017070">
        <ele>285.8</ele>
        <time>2021-07-24T07:34:31Z</time>
      </trkpt>
      <trkpt lat="43.3885720" lon="-7.4017500">
        <ele>285.8</ele>
        <time>2021-07-24T07:34:32Z</time>
      </trkpt>
      <trkpt lat="43.3885590" lon="-7.4017920">
        <ele>285.8</ele>
        <time>2021-07-24T07:34:33Z</time>
      </trkpt>
      <trkpt lat="43.3885480" lon="-7.4018370">
        <ele>285.8</ele>
        <time>2021-07-24T07:34:34Z</time>
      </trkpt>
      <trkpt lat="43.3885270" lon="-7.4019230">
        <ele>285.8</ele>
        <time>2021-07-24T07:34:36Z</time>
      </trkpt>
      <trkpt lat="43.3885020" lon="-7.4020000">
        <ele>285.8</ele>
        <time>2021-07-24T07:34:38Z</time>
      </trkpt>
      <trkpt lat="43.3884820" lon="-7.4020690">
        <ele>286.2</ele>
        <time>2021-07-24T07:34:40Z</time>
      </trkpt>
      <trkpt lat="43.3884700" lon="-7.4021040">
        <ele>287.0</ele>
        <time>2021-07-24T07:34:41Z</time>
      </trkpt>
      <trkpt lat="43.3884590" lon="-7.4021360">
        <ele>287.4</ele>
        <time>2021-07-24T07:34:42Z</time>
      </trkpt>
      <trkpt lat="43.3884470" lon="-7.4021680">
        <ele>287.8</ele>
        <time>2021-07-24T07:34:43Z</time>
      </trkpt>
      <trkpt lat="43.3884010" lon="-7.4022790">
        <ele>287.8</ele>
        <time>2021-07-24T07:34:47Z</time>
      </trkpt>
      <trkpt lat="43.3883730" lon="-7.4023370">
        <ele>287.8</ele>
        <time>2021-07-24T07:34:49Z</time>
      </trkpt>
      <trkpt lat="43.3883590" lon="-7.4023680">
        <ele>288.2</ele>
        <time>2021-07-24T07:34:50Z</time>
      </trkpt>
      <trkpt lat="43.3883480" lon="-7.4024020">
        <ele>288.6</ele>
        <time>2021-07-24T07:34:51Z</time>
      </trkpt>
      <trkpt lat="43.3883390" lon="-7.4024330">
        <ele>289.0</ele>
        <time>2021-07-24T07:34:52Z</time>
      </trkpt>
      <trkpt lat="43.3883300" lon="-7.4024660">
        <ele>289.4</ele>
        <time>2021-07-24T07:34:53Z</time>
      </trkpt>
      <trkpt lat="43.3883220" lon="-7.4024970">
        <ele>289.8</ele>
        <time>2021-07-24T07:34:54Z</time>
      </trkpt>
      <trkpt lat="43.3883080" lon="-7.4025650">
        <ele>289.8</ele>
        <time>2021-07-24T07:34:56Z</time>
      </trkpt>
      <trkpt lat="43.3882750" lon="-7.4027340">
        <ele>289.8</ele>
        <time>2021-07-24T07:35:01Z</time>
      </trkpt>
      <trkpt lat="43.3882550" lon="-7.4027990">
        <ele>289.8</ele>
        <time>2021-07-24T07:35:03Z</time>
      </trkpt>
      <trkpt lat="43.3882450" lon="-7.4028200">
        <ele>290.2</ele>
        <time>2021-07-24T07:35:04Z</time>
      </trkpt>
      <trkpt lat="43.3882390" lon="-7.4028420">
        <ele>290.6</ele>
        <time>2021-07-24T07:35:05Z</time>
      </trkpt>
      <trkpt lat="43.3882280" lon="-7.4028640">
        <ele>291.6</ele>
        <time>2021-07-24T07:35:06Z</time>
      </trkpt>
      <trkpt lat="43.3882190" lon="-7.4028870">
        <ele>292.0</ele>
        <time>2021-07-24T07:35:07Z</time>
      </trkpt>
      <trkpt lat="43.3882090" lon="-7.4029160">
        <ele>292.0</ele>
        <time>2021-07-24T07:35:08Z</time>
      </trkpt>
      <trkpt lat="43.3881590" lon="-7.4031420">
        <ele>292.0</ele>
        <time>2021-07-24T07:35:16Z</time>
      </trkpt>
      <trkpt lat="43.3881330" lon="-7.4033330">
        <ele>292.0</ele>
        <time>2021-07-24T07:35:21Z</time>
      </trkpt>
      <trkpt lat="43.3881040" lon="-7.4036560">
        <ele>292.4</ele>
        <time>2021-07-24T07:35:27Z</time>
      </trkpt>
      <trkpt lat="43.3881060" lon="-7.4036970">
        <ele>292.8</ele>
        <time>2021-07-24T07:35:28Z</time>
      </trkpt>
      <trkpt lat="43.3881110" lon="-7.4037290">
        <ele>293.2</ele>
        <time>2021-07-24T07:35:29Z</time>
      </trkpt>
      <trkpt lat="43.3881170" lon="-7.4037560">
        <ele>294.0</ele>
        <time>2021-07-24T07:35:30Z</time>
      </trkpt>
      <trkpt lat="43.3881810" lon="-7.4038730">
        <ele>294.0</ele>
        <time>2021-07-24T07:35:35Z</time>
      </trkpt>
      <trkpt lat="43.3882950" lon="-7.4039540">
        <ele>294.4</ele>
        <time>2021-07-24T07:35:41Z</time>
      </trkpt>
      <trkpt lat="43.3883130" lon="-7.4039610">
        <ele>294.8</ele>
        <time>2021-07-24T07:35:42Z</time>
      </trkpt>
      <trkpt lat="43.3883300" lon="-7.4039710">
        <ele>295.2</ele>
        <time>2021-07-24T07:35:43Z</time>
      </trkpt>
      <trkpt lat="43.3883500" lon="-7.4039800">
        <ele>295.6</ele>
        <time>2021-07-24T07:35:44Z</time>
      </trkpt>
      <trkpt lat="43.3883660" lon="-7.4039940">
        <ele>296.2</ele>
        <time>2021-07-24T07:35:45Z</time>
      </trkpt>
      <trkpt lat="43.3884370" lon="-7.4040500">
        <ele>296.2</ele>
        <time>2021-07-24T07:35:49Z</time>
      </trkpt>
      <trkpt lat="43.3885150" lon="-7.4041140">
        <ele>296.6</ele>
        <time>2021-07-24T07:35:53Z</time>
      </trkpt>
      <trkpt lat="43.3885300" lon="-7.4041270">
        <ele>297.0</ele>
        <time>2021-07-24T07:35:54Z</time>
      </trkpt>
      <trkpt lat="43.3885440" lon="-7.4041390">
        <ele>297.8</ele>
        <time>2021-07-24T07:35:55Z</time>
      </trkpt>
      <trkpt lat="43.3885630" lon="-7.4041440">
        <ele>298.2</ele>
        <time>2021-07-24T07:35:56Z</time>
      </trkpt>
      <trkpt lat="43.3886310" lon="-7.4042280">
        <ele>298.2</ele>
        <time>2021-07-24T07:36:01Z</time>
      </trkpt>
      <trkpt lat="43.3886500" lon="-7.4042570">
        <ele>298.6</ele>
        <time>2021-07-24T07:36:03Z</time>
      </trkpt>
      <trkpt lat="43.3886600" lon="-7.4042690">
        <ele>299.2</ele>
        <time>2021-07-24T07:36:04Z</time>
      </trkpt>
      <trkpt lat="43.3886730" lon="-7.4042820">
        <ele>299.6</ele>
        <time>2021-07-24T07:36:05Z</time>
      </trkpt>
      <trkpt lat="43.3886820" lon="-7.4042960">
        <ele>300.0</ele>
        <time>2021-07-24T07:36:06Z</time>
      </trkpt>
      <trkpt lat="43.3886910" lon="-7.4043050">
        <ele>300.4</ele>
        <time>2021-07-24T07:36:07Z</time>
      </trkpt>
      <trkpt lat="43.3887150" lon="-7.4043640">
        <ele>300.4</ele>
        <time>2021-07-24T07:36:10Z</time>
      </trkpt>
      <trkpt lat="43.3887310" lon="-7.4044130">
        <ele>300.4</ele>
        <time>2021-07-24T07:36:12Z</time>
      </trkpt>
      <trkpt lat="43.3887470" lon="-7.4044700">
        <ele>300.4</ele>
        <time>2021-07-24T07:36:14Z</time>
      </trkpt>
      <trkpt lat="43.3887810" lon="-7.4045880">
        <ele>300.8</ele>
        <time>2021-07-24T07:36:19Z</time>
      </trkpt>
      <trkpt lat="43.3887920" lon="-7.4046060">
        <ele>301.6</ele>
        <time>2021-07-24T07:36:20Z</time>
      </trkpt>
      <trkpt lat="43.3888020" lon="-7.4046280">
        <ele>302.0</ele>
        <time>2021-07-24T07:36:21Z</time>
      </trkpt>
      <trkpt lat="43.3888050" lon="-7.4046530">
        <ele>302.4</ele>
        <time>2021-07-24T07:36:22Z</time>
      </trkpt>
      <trkpt lat="43.3888140" lon="-7.4047330">
        <ele>302.4</ele>
        <time>2021-07-24T07:36:25Z</time>
      </trkpt>
      <trkpt lat="43.3888400" lon="-7.4049860">
        <ele>302.4</ele>
        <time>2021-07-24T07:36:34Z</time>
      </trkpt>
      <trkpt lat="43.3888420" lon="-7.4050030">
        <ele>302.8</ele>
        <time>2021-07-24T07:36:35Z</time>
      </trkpt>
      <trkpt lat="43.3888460" lon="-7.4050190">
        <ele>303.2</ele>
        <time>2021-07-24T07:36:36Z</time>
      </trkpt>
      <trkpt lat="43.3888450" lon="-7.4050330">
        <ele>303.6</ele>
        <time>2021-07-24T07:36:37Z</time>
      </trkpt>
      <trkpt lat="43.3888430" lon="-7.4050510">
        <ele>304.0</ele>
        <time>2021-07-24T07:36:38Z</time>
      </trkpt>
      <trkpt lat="43.3888350" lon="-7.4050710">
        <ele>304.4</ele>
        <time>2021-07-24T07:36:39Z</time>
      </trkpt>
      <trkpt lat="43.3887940" lon="-7.4051270">
        <ele>304.4</ele>
        <time>2021-07-24T07:36:42Z</time>
      </trkpt>
      <trkpt lat="43.3887430" lon="-7.4052570">
        <ele>305.0</ele>
        <time>2021-07-24T07:36:49Z</time>
      </trkpt>
      <trkpt lat="43.3887350" lon="-7.4052750">
        <ele>305.4</ele>
        <time>2021-07-24T07:36:50Z</time>
      </trkpt>
      <trkpt lat="43.3887250" lon="-7.4052920">
        <ele>305.8</ele>
        <time>2021-07-24T07:36:51Z</time>
      </trkpt>
      <trkpt lat="43.3887170" lon="-7.4053100">
        <ele>306.2</ele>
        <time>2021-07-24T07:36:52Z</time>
      </trkpt>
      <trkpt lat="43.3887120" lon="-7.4053320">
        <ele>306.6</ele>
        <time>2021-07-24T07:36:53Z</time>
      </trkpt>
      <trkpt lat="43.3886680" lon="-7.4054280">
        <ele>306.6</ele>
        <time>2021-07-24T07:36:58Z</time>
      </trkpt>
      <trkpt lat="43.3886440" lon="-7.4054700">
        <ele>307.0</ele>
        <time>2021-07-24T07:37:01Z</time>
      </trkpt>
      <trkpt lat="43.3886370" lon="-7.4054860">
        <ele>307.4</ele>
        <time>2021-07-24T07:37:02Z</time>
      </trkpt>
      <trkpt lat="43.3886300" lon="-7.4055050">
        <ele>307.8</ele>
        <time>2021-07-24T07:37:03Z</time>
      </trkpt>
      <trkpt lat="43.3886270" lon="-7.4055240">
        <ele>308.4</ele>
        <time>2021-07-24T07:37:04Z</time>
      </trkpt>
      <trkpt lat="43.3886260" lon="-7.4055410">
        <ele>308.8</ele>
        <time>2021-07-24T07:37:05Z</time>
      </trkpt>
      <trkpt lat="43.3885820" lon="-7.4056410">
        <ele>308.8</ele>
        <time>2021-07-24T07:37:12Z</time>
      </trkpt>
      <trkpt lat="43.3885780" lon="-7.4056570">
        <ele>309.2</ele>
        <time>2021-07-24T07:37:13Z</time>
      </trkpt>
      <trkpt lat="43.3885690" lon="-7.4056750">
        <ele>309.6</ele>
        <time>2021-07-24T07:37:14Z</time>
      </trkpt>
      <trkpt lat="43.3885670" lon="-7.4057000">
        <ele>310.0</ele>
        <time>2021-07-24T07:37:15Z</time>
      </trkpt>
      <trkpt lat="43.3885630" lon="-7.4057180">
        <ele>310.4</ele>
        <time>2021-07-24T07:37:16Z</time>
      </trkpt>
      <trkpt lat="43.3885580" lon="-7.4057450">
        <ele>310.8</ele>
        <time>2021-07-24T07:37:17Z</time>
      </trkpt>
      <trkpt lat="43.3885470" lon="-7.4058280">
        <ele>310.8</ele>
        <time>2021-07-24T07:37:20Z</time>
      </trkpt>
      <trkpt lat="43.3885060" lon="-7.4060030">
        <ele>310.8</ele>
        <time>2021-07-24T07:37:27Z</time>
      </trkpt>
      <trkpt lat="43.3884890" lon="-7.4060710">
        <ele>311.2</ele>
        <time>2021-07-24T07:37:30Z</time>
      </trkpt>
      <trkpt lat="43.3884920" lon="-7.4060940">
        <ele>311.8</ele>
        <time>2021-07-24T07:37:31Z</time>
      </trkpt>
      <trkpt lat="43.3884910" lon="-7.4061120">
        <ele>312.2</ele>
        <time>2021-07-24T07:37:32Z</time>
      </trkpt>
      <trkpt lat="43.3884890" lon="-7.4061350">
        <ele>312.6</ele>
        <time>2021-07-24T07:37:33Z</time>
      </trkpt>
      <trkpt lat="43.3884870" lon="-7.4061580">
        <ele>313.0</ele>
        <time>2021-07-24T07:37:34Z</time>
      </trkpt>
      <trkpt lat="43.3884890" lon="-7.4064060">
        <ele>313.0</ele>
        <time>2021-07-24T07:37:44Z</time>
      </trkpt>
      <trkpt lat="43.3884900" lon="-7.4065080">
        <ele>313.4</ele>
        <time>2021-07-24T07:37:48Z</time>
      </trkpt>
      <trkpt lat="43.3884910" lon="-7.4065350">
        <ele>313.8</ele>
        <time>2021-07-24T07:37:49Z</time>
      </trkpt>
      <trkpt lat="43.3885020" lon="-7.4065570">
        <ele>314.2</ele>
        <time>2021-07-24T07:37:50Z</time>
      </trkpt>
      <trkpt lat="43.3885060" lon="-7.4065810">
        <ele>314.6</ele>
        <time>2021-07-24T07:37:51Z</time>
      </trkpt>
      <trkpt lat="43.3885050" lon="-7.4066020">
        <ele>315.0</ele>
        <time>2021-07-24T07:37:52Z</time>
      </trkpt>
      <trkpt lat="43.3884700" lon="-7.4067350">
        <ele>315.0</ele>
        <time>2021-07-24T07:37:58Z</time>
      </trkpt>
      <trkpt lat="43.3884150" lon="-7.4067860">
        <ele>315.0</ele>
        <time>2021-07-24T07:38:03Z</time>
      </trkpt>
      <trkpt lat="43.3883730" lon="-7.4067950">
        <ele>315.0</ele>
        <time>2021-07-24T07:38:06Z</time>
      </trkpt>
      <trkpt lat="43.3883040" lon="-7.4067730">
        <ele>315.0</ele>
        <time>2021-07-24T07:38:10Z</time>
      </trkpt>
      <trkpt lat="43.3882820" lon="-7.4067630">
        <ele>315.4</ele>
        <time>2021-07-24T07:38:11Z</time>
      </trkpt>
      <trkpt lat="43.3882630" lon="-7.4067500">
        <ele>315.8</ele>
        <time>2021-07-24T07:38:12Z</time>
      </trkpt>
      <trkpt lat="43.3882440" lon="-7.4067400">
        <ele>316.2</ele>
        <time>2021-07-24T07:38:13Z</time>
      </trkpt>
      <trkpt lat="43.3882200" lon="-7.4067350">
        <ele>316.6</ele>
        <time>2021-07-24T07:38:14Z</time>
      </trkpt>
      <trkpt lat="43.3882020" lon="-7.4067310">
        <ele>317.2</ele>
        <time>2021-07-24T07:38:15Z</time>
      </trkpt>
      <trkpt lat="43.3881390" lon="-7.4067160">
        <ele>317.2</ele>
        <time>2021-07-24T07:38:18Z</time>
      </trkpt>
      <trkpt lat="43.3880400" lon="-7.4067400">
        <ele>317.2</ele>
        <time>2021-07-24T07:38:23Z</time>
      </trkpt>
      <trkpt lat="43.3880150" lon="-7.4067500">
        <ele>317.2</ele>
        <time>2021-07-24T07:38:24Z</time>
      </trkpt>
      <trkpt lat="43.3879190" lon="-7.4068380">
        <ele>317.6</ele>
        <time>2021-07-24T07:38:29Z</time>
      </trkpt>
      <trkpt lat="43.3879050" lon="-7.4068540">
        <ele>318.0</ele>
        <time>2021-07-24T07:38:30Z</time>
      </trkpt>
      <trkpt lat="43.3878860" lon="-7.4068690">
        <ele>318.4</ele>
        <time>2021-07-24T07:38:31Z</time>
      </trkpt>
      <trkpt lat="43.3878710" lon="-7.4068900">
        <ele>318.8</ele>
        <time>2021-07-24T07:38:32Z</time>
      </trkpt>
      <trkpt lat="43.3878570" lon="-7.4069110">
        <ele>319.4</ele>
        <time>2021-07-24T07:38:33Z</time>
      </trkpt>
      <trkpt lat="43.3877650" lon="-7.4070380">
        <ele>319.4</ele>
        <time>2021-07-24T07:38:40Z</time>
      </trkpt>
      <trkpt lat="43.3877040" lon="-7.4071550">
        <ele>319.8</ele>
        <time>2021-07-24T07:38:46Z</time>
      </trkpt>
      <trkpt lat="43.3876900" lon="-7.4071770">
        <ele>320.2</ele>
        <time>2021-07-24T07:38:47Z</time>
      </trkpt>
      <trkpt lat="43.3876790" lon="-7.4071990">
        <ele>321.0</ele>
        <time>2021-07-24T07:38:48Z</time>
      </trkpt>
      <trkpt lat="43.3876680" lon="-7.4072170">
        <ele>321.4</ele>
        <time>2021-07-24T07:38:49Z</time>
      </trkpt>
      <trkpt lat="43.3876090" lon="-7.4073240">
        <ele>321.4</ele>
        <time>2021-07-24T07:38:55Z</time>
      </trkpt>
      <trkpt lat="43.3875080" lon="-7.4074670">
        <ele>321.4</ele>
        <time>2021-07-24T07:39:03Z</time>
      </trkpt>
      <trkpt lat="43.3874520" lon="-7.4075520">
        <ele>321.8</ele>
        <time>2021-07-24T07:39:08Z</time>
      </trkpt>
      <trkpt lat="43.3874410" lon="-7.4075700">
        <ele>322.4</ele>
        <time>2021-07-24T07:39:09Z</time>
      </trkpt>
      <trkpt lat="43.3874330" lon="-7.4075880">
        <ele>322.8</ele>
        <time>2021-07-24T07:39:10Z</time>
      </trkpt>
      <trkpt lat="43.3874200" lon="-7.4076020">
        <ele>323.2</ele>
        <time>2021-07-24T07:39:11Z</time>
      </trkpt>
      <trkpt lat="43.3874140" lon="-7.4076160">
        <ele>323.6</ele>
        <time>2021-07-24T07:39:12Z</time>
      </trkpt>
      <trkpt lat="43.3873400" lon="-7.4077160">
        <ele>323.6</ele>
        <time>2021-07-24T07:39:19Z</time>
      </trkpt>
      <trkpt lat="43.3873050" lon="-7.4077740">
        <ele>324.0</ele>
        <time>2021-07-24T07:39:23Z</time>
      </trkpt>
      <trkpt lat="43.3872950" lon="-7.4077880">
        <ele>324.4</ele>
        <time>2021-07-24T07:39:24Z</time>
      </trkpt>
      <trkpt lat="43.3872870" lon="-7.4078050">
        <ele>324.8</ele>
        <time>2021-07-24T07:39:25Z</time>
      </trkpt>
      <trkpt lat="43.3872760" lon="-7.4078240">
        <ele>325.2</ele>
        <time>2021-07-24T07:39:26Z</time>
      </trkpt>
      <trkpt lat="43.3872660" lon="-7.4078390">
        <ele>325.6</ele>
        <time>2021-07-24T07:39:27Z</time>
      </trkpt>
      <trkpt lat="43.3872560" lon="-7.4078540">
        <ele>325.6</ele>
        <time>2021-07-24T07:39:28Z</time>
      </trkpt>
      <trkpt lat="43.3872050" lon="-7.4079540">
        <ele>326.0</ele>
        <time>2021-07-24T07:39:34Z</time>
      </trkpt>
      <trkpt lat="43.3871990" lon="-7.4079710">
        <ele>326.4</ele>
        <time>2021-07-24T07:39:35Z</time>
      </trkpt>
      <trkpt lat="43.3871900" lon="-7.4079870">
        <ele>326.8</ele>
        <time>2021-07-24T07:39:36Z</time>
      </trkpt>
      <trkpt lat="43.3871790" lon="-7.4080000">
        <ele>327.6</ele>
        <time>2021-07-24T07:39:37Z</time>
      </trkpt>
      <trkpt lat="43.3871700" lon="-7.4080150">
        <ele>327.6</ele>
        <time>2021-07-24T07:39:38Z</time>
      </trkpt>
      <trkpt lat="43.3871080" lon="-7.4081420">
        <ele>327.6</ele>
        <time>2021-07-24T07:39:46Z</time>
      </trkpt>
      <trkpt lat="43.3870340" lon="-7.4082650">
        <ele>328.2</ele>
        <time>2021-07-24T07:39:54Z</time>
      </trkpt>
      <trkpt lat="43.3870250" lon="-7.4082790">
        <ele>328.6</ele>
        <time>2021-07-24T07:39:55Z</time>
      </trkpt>
      <trkpt lat="43.3870180" lon="-7.4082940">
        <ele>329.0</ele>
        <time>2021-07-24T07:39:56Z</time>
      </trkpt>
      <trkpt lat="43.3870080" lon="-7.4083070">
        <ele>329.4</ele>
        <time>2021-07-24T07:39:57Z</time>
      </trkpt>
      <trkpt lat="43.3870000" lon="-7.4083240">
        <ele>329.8</ele>
        <time>2021-07-24T07:39:58Z</time>
      </trkpt>
      <trkpt lat="43.3869530" lon="-7.4084050">
        <ele>329.8</ele>
        <time>2021-07-24T07:40:03Z</time>
      </trkpt>
      <trkpt lat="43.3869080" lon="-7.4084890">
        <ele>330.2</ele>
        <time>2021-07-24T07:40:08Z</time>
      </trkpt>
      <trkpt lat="43.3869000" lon="-7.4085070">
        <ele>330.6</ele>
        <time>2021-07-24T07:40:09Z</time>
      </trkpt>
      <trkpt lat="43.3868920" lon="-7.4085230">
        <ele>331.0</ele>
        <time>2021-07-24T07:40:10Z</time>
      </trkpt>
      <trkpt lat="43.3868850" lon="-7.4085350">
        <ele>331.4</ele>
        <time>2021-07-24T07:40:11Z</time>
      </trkpt>
      <trkpt lat="43.3868740" lon="-7.4085510">
        <ele>331.8</ele>
        <time>2021-07-24T07:40:12Z</time>
      </trkpt>
      <trkpt lat="43.3868300" lon="-7.4086300">
        <ele>331.8</ele>
        <time>2021-07-24T07:40:17Z</time>
      </trkpt>
      <trkpt lat="43.3867360" lon="-7.4087980">
        <ele>332.2</ele>
        <time>2021-07-24T07:40:26Z</time>
      </trkpt>
      <trkpt lat="43.3867290" lon="-7.4088150">
        <ele>333.0</ele>
        <time>2021-07-24T07:40:27Z</time>
      </trkpt>
      <trkpt lat="43.3867200" lon="-7.4088350">
        <ele>333.4</ele>
        <time>2021-07-24T07:40:28Z</time>
      </trkpt>
      <trkpt lat="43.3867100" lon="-7.4088490">
        <ele>333.8</ele>
        <time>2021-07-24T07:40:29Z</time>
      </trkpt>
      <trkpt lat="43.3866510" lon="-7.4089510">
        <ele>333.8</ele>
        <time>2021-07-24T07:40:34Z</time>
      </trkpt>
      <trkpt lat="43.3865540" lon="-7.4091290">
        <ele>333.8</ele>
        <time>2021-07-24T07:40:42Z</time>
      </trkpt>
      <trkpt lat="43.3864340" lon="-7.4093160">
        <ele>333.8</ele>
        <time>2021-07-24T07:40:50Z</time>
      </trkpt>
      <trkpt lat="43.3864020" lon="-7.4093630">
        <ele>333.8</ele>
        <time>2021-07-24T07:40:52Z</time>
      </trkpt>
      <trkpt lat="43.3862810" lon="-7.4095370">
        <ele>333.8</ele>
        <time>2021-07-24T07:40:59Z</time>
      </trkpt>
      <trkpt lat="43.3861640" lon="-7.4097270">
        <ele>333.8</ele>
        <time>2021-07-24T07:41:06Z</time>
      </trkpt>
      <trkpt lat="43.3860620" lon="-7.4099020">
        <ele>334.2</ele>
        <time>2021-07-24T07:41:12Z</time>
      </trkpt>
      <trkpt lat="43.3860440" lon="-7.4099300">
        <ele>334.6</ele>
        <time>2021-07-24T07:41:13Z</time>
      </trkpt>
      <trkpt lat="43.3860250" lon="-7.4099540">
        <ele>335.2</ele>
        <time>2021-07-24T07:41:14Z</time>
      </trkpt>
      <trkpt lat="43.3860090" lon="-7.4099860">
        <ele>335.6</ele>
        <time>2021-07-24T07:41:15Z</time>
      </trkpt>
      <trkpt lat="43.3859930" lon="-7.4100130">
        <ele>336.0</ele>
        <time>2021-07-24T07:41:16Z</time>
      </trkpt>
      <trkpt lat="43.3859530" lon="-7.4101020">
        <ele>336.0</ele>
        <time>2021-07-24T07:41:19Z</time>
      </trkpt>
      <trkpt lat="43.3858870" lon="-7.4103430">
        <ele>336.0</ele>
        <time>2021-07-24T07:41:26Z</time>
      </trkpt>
      <trkpt lat="43.3858310" lon="-7.4106050">
        <ele>336.0</ele>
        <time>2021-07-24T07:41:34Z</time>
      </trkpt>
      <trkpt lat="43.3857190" lon="-7.4108170">
        <ele>336.0</ele>
        <time>2021-07-24T07:41:40Z</time>
      </trkpt>
      <trkpt lat="43.3856040" lon="-7.4110050">
        <ele>336.0</ele>
        <time>2021-07-24T07:41:44Z</time>
      </trkpt>
      <trkpt lat="43.3855700" lon="-7.4110590">
        <ele>335.6</ele>
        <time>2021-07-24T07:41:45Z</time>
      </trkpt>
      <trkpt lat="43.3855320" lon="-7.4111160">
        <ele>335.2</ele>
        <time>2021-07-24T07:41:46Z</time>
      </trkpt>
      <trkpt lat="43.3854940" lon="-7.4111720">
        <ele>334.8</ele>
        <time>2021-07-24T07:41:47Z</time>
      </trkpt>
      <trkpt lat="43.3854580" lon="-7.4112350">
        <ele>334.4</ele>
        <time>2021-07-24T07:41:48Z</time>
      </trkpt>
      <trkpt lat="43.3854200" lon="-7.4112970">
        <ele>334.0</ele>
        <time>2021-07-24T07:41:49Z</time>
      </trkpt>
      <trkpt lat="43.3852960" lon="-7.4114990">
        <ele>334.0</ele>
        <time>2021-07-24T07:41:52Z</time>
      </trkpt>
      <trkpt lat="43.3852090" lon="-7.4116390">
        <ele>334.0</ele>
        <time>2021-07-24T07:41:54Z</time>
      </trkpt>
      <trkpt lat="43.3851200" lon="-7.4117840">
        <ele>333.4</ele>
        <time>2021-07-24T07:41:56Z</time>
      </trkpt>
      <trkpt lat="43.3850750" lon="-7.4118570">
        <ele>333.0</ele>
        <time>2021-07-24T07:41:57Z</time>
      </trkpt>
      <trkpt lat="43.3850340" lon="-7.4119280">
        <ele>332.4</ele>
        <time>2021-07-24T07:41:58Z</time>
      </trkpt>
      <trkpt lat="43.3849930" lon="-7.4119990">
        <ele>331.8</ele>
        <time>2021-07-24T07:41:59Z</time>
      </trkpt>
      <trkpt lat="43.3849530" lon="-7.4120640">
        <ele>331.4</ele>
        <time>2021-07-24T07:42:00Z</time>
      </trkpt>
      <trkpt lat="43.3848760" lon="-7.4121780">
        <ele>331.4</ele>
        <time>2021-07-24T07:42:02Z</time>
      </trkpt>
      <trkpt lat="43.3847900" lon="-7.4123050">
        <ele>331.4</ele>
        <time>2021-07-24T07:42:05Z</time>
      </trkpt>
      <trkpt lat="43.3847310" lon="-7.4123880">
        <ele>331.4</ele>
        <time>2021-07-24T07:42:08Z</time>
      </trkpt>
      <trkpt lat="43.3846990" lon="-7.4124400">
        <ele>331.4</ele>
        <time>2021-07-24T07:42:10Z</time>
      </trkpt>
      <trkpt lat="43.3846700" lon="-7.4124900">
        <ele>331.4</ele>
        <time>2021-07-24T07:42:12Z</time>
      </trkpt>
      <trkpt lat="43.3846010" lon="-7.4125910">
        <ele>331.4</ele>
        <time>2021-07-24T07:42:17Z</time>
      </trkpt>
      <trkpt lat="43.3845850" lon="-7.4126090">
        <ele>331.4</ele>
        <time>2021-07-24T07:42:18Z</time>
      </trkpt>
      <trkpt lat="43.3845520" lon="-7.4126690">
        <ele>331.4</ele>
        <time>2021-07-24T07:42:21Z</time>
      </trkpt>
      <trkpt lat="43.3845140" lon="-7.4127280">
        <ele>331.4</ele>
        <time>2021-07-24T07:42:24Z</time>
      </trkpt>
      <trkpt lat="43.3845040" lon="-7.4127500">
        <ele>331.4</ele>
        <time>2021-07-24T07:42:25Z</time>
      </trkpt>
      <trkpt lat="43.3844850" lon="-7.4127900">
        <ele>331.8</ele>
        <time>2021-07-24T07:42:27Z</time>
      </trkpt>
      <trkpt lat="43.3844730" lon="-7.4128130">
        <ele>332.2</ele>
        <time>2021-07-24T07:42:28Z</time>
      </trkpt>
      <trkpt lat="43.3844640" lon="-7.4128360">
        <ele>332.6</ele>
        <time>2021-07-24T07:42:29Z</time>
      </trkpt>
      <trkpt lat="43.3844550" lon="-7.4128570">
        <ele>333.2</ele>
        <time>2021-07-24T07:42:30Z</time>
      </trkpt>
      <trkpt lat="43.3844440" lon="-7.4128760">
        <ele>333.6</ele>
        <time>2021-07-24T07:42:31Z</time>
      </trkpt>
      <trkpt lat="43.3844160" lon="-7.4129390">
        <ele>333.6</ele>
        <time>2021-07-24T07:42:34Z</time>
      </trkpt>
      <trkpt lat="43.3843730" lon="-7.4130540">
        <ele>333.6</ele>
        <time>2021-07-24T07:42:39Z</time>
      </trkpt>
      <trkpt lat="43.3843640" lon="-7.4130740">
        <ele>334.0</ele>
        <time>2021-07-24T07:42:40Z</time>
      </trkpt>
      <trkpt lat="43.3843560" lon="-7.4130930">
        <ele>334.4</ele>
        <time>2021-07-24T07:42:41Z</time>
      </trkpt>
      <trkpt lat="43.3843490" lon="-7.4131150">
        <ele>334.8</ele>
        <time>2021-07-24T07:42:42Z</time>
      </trkpt>
      <trkpt lat="43.3843410" lon="-7.4131350">
        <ele>335.2</ele>
        <time>2021-07-24T07:42:43Z</time>
      </trkpt>
      <trkpt lat="43.3843310" lon="-7.4131560">
        <ele>335.6</ele>
        <time>2021-07-24T07:42:44Z</time>
      </trkpt>
      <trkpt lat="43.3842840" lon="-7.4132810">
        <ele>335.6</ele>
        <time>2021-07-24T07:42:50Z</time>
      </trkpt>
      <trkpt lat="43.3842790" lon="-7.4133030">
        <ele>335.6</ele>
        <time>2021-07-24T07:42:51Z</time>
      </trkpt>
      <trkpt lat="43.3842410" lon="-7.4134040">
        <ele>336.0</ele>
        <time>2021-07-24T07:42:56Z</time>
      </trkpt>
      <trkpt lat="43.3842340" lon="-7.4134240">
        <ele>336.4</ele>
        <time>2021-07-24T07:42:57Z</time>
      </trkpt>
      <trkpt lat="43.3842270" lon="-7.4134460">
        <ele>336.8</ele>
        <time>2021-07-24T07:42:58Z</time>
      </trkpt>
      <trkpt lat="43.3842220" lon="-7.4134700">
        <ele>337.4</ele>
        <time>2021-07-24T07:42:59Z</time>
      </trkpt>
      <trkpt lat="43.3842180" lon="-7.4134920">
        <ele>337.8</ele>
        <time>2021-07-24T07:43:00Z</time>
      </trkpt>
      <trkpt lat="43.3841690" lon="-7.4136290">
        <ele>337.8</ele>
        <time>2021-07-24T07:43:07Z</time>
      </trkpt>
      <trkpt lat="43.3841110" lon="-7.4137790">
        <ele>338.2</ele>
        <time>2021-07-24T07:43:14Z</time>
      </trkpt>
      <trkpt lat="43.3841020" lon="-7.4137990">
        <ele>338.6</ele>
        <time>2021-07-24T07:43:15Z</time>
      </trkpt>
      <trkpt lat="43.3840930" lon="-7.4138130">
        <ele>339.0</ele>
        <time>2021-07-24T07:43:16Z</time>
      </trkpt>
      <trkpt lat="43.3840890" lon="-7.4138300">
        <ele>339.4</ele>
        <time>2021-07-24T07:43:17Z</time>
      </trkpt>
      <trkpt lat="43.3840810" lon="-7.4138470">
        <ele>339.8</ele>
        <time>2021-07-24T07:43:18Z</time>
      </trkpt>
      <trkpt lat="43.3840460" lon="-7.4139040">
        <ele>339.8</ele>
        <time>2021-07-24T07:43:21Z</time>
      </trkpt>
      <trkpt lat="43.3839450" lon="-7.4141080">
        <ele>339.8</ele>
        <time>2021-07-24T07:43:31Z</time>
      </trkpt>
      <trkpt lat="43.3839020" lon="-7.4141850">
        <ele>340.2</ele>
        <time>2021-07-24T07:43:35Z</time>
      </trkpt>
      <trkpt lat="43.3838920" lon="-7.4142060">
        <ele>340.8</ele>
        <time>2021-07-24T07:43:36Z</time>
      </trkpt>
      <trkpt lat="43.3838850" lon="-7.4142240">
        <ele>341.2</ele>
        <time>2021-07-24T07:43:37Z</time>
      </trkpt>
      <trkpt lat="43.3838750" lon="-7.4142420">
        <ele>341.6</ele>
        <time>2021-07-24T07:43:38Z</time>
      </trkpt>
      <trkpt lat="43.3838650" lon="-7.4142550">
        <ele>342.0</ele>
        <time>2021-07-24T07:43:39Z</time>
      </trkpt>
      <trkpt lat="43.3837850" lon="-7.4143960">
        <ele>342.0</ele>
        <time>2021-07-24T07:43:47Z</time>
      </trkpt>
      <trkpt lat="43.3837440" lon="-7.4144790">
        <ele>342.4</ele>
        <time>2021-07-24T07:43:52Z</time>
      </trkpt>
      <trkpt lat="43.3837360" lon="-7.4144960">
        <ele>342.8</ele>
        <time>2021-07-24T07:43:53Z</time>
      </trkpt>
      <trkpt lat="43.3837260" lon="-7.4145150">
        <ele>343.2</ele>
        <time>2021-07-24T07:43:54Z</time>
      </trkpt>
      <trkpt lat="43.3837180" lon="-7.4145340">
        <ele>343.6</ele>
        <time>2021-07-24T07:43:55Z</time>
      </trkpt>
      <trkpt lat="43.3837090" lon="-7.4145500">
        <ele>344.0</ele>
        <time>2021-07-24T07:43:56Z</time>
      </trkpt>
      <trkpt lat="43.3836510" lon="-7.4146440">
        <ele>344.0</ele>
        <time>2021-07-24T07:44:02Z</time>
      </trkpt>
      <trkpt lat="43.3836400" lon="-7.4146590">
        <ele>344.4</ele>
        <time>2021-07-24T07:44:03Z</time>
      </trkpt>
      <trkpt lat="43.3836300" lon="-7.4146770">
        <ele>344.8</ele>
        <time>2021-07-24T07:44:04Z</time>
      </trkpt>
      <trkpt lat="43.3836180" lon="-7.4146890">
        <ele>345.2</ele>
        <time>2021-07-24T07:44:05Z</time>
      </trkpt>
      <trkpt lat="43.3836100" lon="-7.4147020">
        <ele>345.6</ele>
        <time>2021-07-24T07:44:06Z</time>
      </trkpt>
      <trkpt lat="43.3835990" lon="-7.4147150">
        <ele>346.0</ele>
        <time>2021-07-24T07:44:07Z</time>
      </trkpt>
      <trkpt lat="43.3835540" lon="-7.4147600">
        <ele>346.0</ele>
        <time>2021-07-24T07:44:11Z</time>
      </trkpt>
      <trkpt lat="43.3835150" lon="-7.4147750">
        <ele>346.4</ele>
        <time>2021-07-24T07:44:14Z</time>
      </trkpt>
      <trkpt lat="43.3835010" lon="-7.4147860">
        <ele>346.8</ele>
        <time>2021-07-24T07:44:15Z</time>
      </trkpt>
      <trkpt lat="43.3834870" lon="-7.4147970">
        <ele>347.4</ele>
        <time>2021-07-24T07:44:16Z</time>
      </trkpt>
      <trkpt lat="43.3834730" lon="-7.4148040">
        <ele>347.8</ele>
        <time>2021-07-24T07:44:17Z</time>
      </trkpt>
      <trkpt lat="43.3834590" lon="-7.4148100">
        <ele>348.2</ele>
        <time>2021-07-24T07:44:18Z</time>
      </trkpt>
      <trkpt lat="43.3833630" lon="-7.4148790">
        <ele>348.6</ele>
        <time>2021-07-24T07:44:26Z</time>
      </trkpt>
      <trkpt lat="43.3833510" lon="-7.4148890">
        <ele>349.0</ele>
        <time>2021-07-24T07:44:27Z</time>
      </trkpt>
      <trkpt lat="43.3833370" lon="-7.4148940">
        <ele>349.4</ele>
        <time>2021-07-24T07:44:28Z</time>
      </trkpt>
      <trkpt lat="43.3833240" lon="-7.4149000">
        <ele>349.8</ele>
        <time>2021-07-24T07:44:29Z</time>
      </trkpt>
      <trkpt lat="43.3833110" lon="-7.4149030">
        <ele>350.4</ele>
        <time>2021-07-24T07:44:30Z</time>
      </trkpt>
      <trkpt lat="43.3832470" lon="-7.4149220">
        <ele>350.4</ele>
        <time>2021-07-24T07:44:35Z</time>
      </trkpt>
      <trkpt lat="43.3832360" lon="-7.4149270">
        <ele>350.8</ele>
        <time>2021-07-24T07:44:36Z</time>
      </trkpt>
      <trkpt lat="43.3832240" lon="-7.4149260">
        <ele>351.2</ele>
        <time>2021-07-24T07:44:37Z</time>
      </trkpt>
      <trkpt lat="43.3832100" lon="-7.4149150">
        <ele>351.6</ele>
        <time>2021-07-24T07:44:38Z</time>
      </trkpt>
      <trkpt lat="43.3831990" lon="-7.4149110">
        <ele>352.0</ele>
        <time>2021-07-24T07:44:39Z</time>
      </trkpt>
      <trkpt lat="43.3831940" lon="-7.4149090">
        <ele>352.4</ele>
        <time>2021-07-24T07:44:40Z</time>
      </trkpt>
      <trkpt lat="43.3831510" lon="-7.4148530">
        <ele>352.4</ele>
        <time>2021-07-24T07:47:29Z</time>
      </trkpt>
      <trkpt lat="43.3831410" lon="-7.4148430">
        <ele>352.4</ele>
        <time>2021-07-24T07:47:30Z</time>
      </trkpt>
      <trkpt lat="43.3831180" lon="-7.4148030">
        <ele>352.4</ele>
        <time>2021-07-24T07:47:35Z</time>
      </trkpt>
      <trkpt lat="43.3831020" lon="-7.4147940">
        <ele>352.4</ele>
        <time>2021-07-24T07:48:26Z</time>
      </trkpt>
      <trkpt lat="43.3829520" lon="-7.4147740">
        <ele>352.4</ele>
        <time>2021-07-24T07:48:32Z</time>
      </trkpt>
      <trkpt lat="43.3828970" lon="-7.4148570">
        <ele>352.4</ele>
        <time>2021-07-24T07:48:35Z</time>
      </trkpt>
      <trkpt lat="43.3828770" lon="-7.4148960">
        <ele>352.4</ele>
        <time>2021-07-24T07:48:36Z</time>
      </trkpt>
      <trkpt lat="43.3828150" lon="-7.4150470">
        <ele>352.4</ele>
        <time>2021-07-24T07:48:39Z</time>
      </trkpt>
      <trkpt lat="43.3827980" lon="-7.4150990">
        <ele>351.8</ele>
        <time>2021-07-24T07:48:40Z</time>
      </trkpt>
      <trkpt lat="43.3827780" lon="-7.4151510">
        <ele>351.0</ele>
        <time>2021-07-24T07:48:41Z</time>
      </trkpt>
      <trkpt lat="43.3827560" lon="-7.4152030">
        <ele>350.6</ele>
        <time>2021-07-24T07:48:42Z</time>
      </trkpt>
      <trkpt lat="43.3827300" lon="-7.4152560">
        <ele>350.2</ele>
        <time>2021-07-24T07:48:43Z</time>
      </trkpt>
      <trkpt lat="43.3826750" lon="-7.4153680">
        <ele>349.8</ele>
        <time>2021-07-24T07:48:45Z</time>
      </trkpt>
      <trkpt lat="43.3826450" lon="-7.4154240">
        <ele>349.2</ele>
        <time>2021-07-24T07:48:46Z</time>
      </trkpt>
      <trkpt lat="43.3826100" lon="-7.4154810">
        <ele>348.8</ele>
        <time>2021-07-24T07:48:47Z</time>
      </trkpt>
      <trkpt lat="43.3825730" lon="-7.4155390">
        <ele>348.2</ele>
        <time>2021-07-24T07:48:48Z</time>
      </trkpt>
      <trkpt lat="43.3825350" lon="-7.4155950">
        <ele>347.6</ele>
        <time>2021-07-24T07:48:49Z</time>
      </trkpt>
      <trkpt lat="43.3824950" lon="-7.4156480">
        <ele>347.0</ele>
        <time>2021-07-24T07:48:50Z</time>
      </trkpt>
      <trkpt lat="43.3824530" lon="-7.4156980">
        <ele>346.4</ele>
        <time>2021-07-24T07:48:51Z</time>
      </trkpt>
      <trkpt lat="43.3824100" lon="-7.4157470">
        <ele>345.8</ele>
        <time>2021-07-24T07:48:52Z</time>
      </trkpt>
      <trkpt lat="43.3823230" lon="-7.4158440">
        <ele>345.4</ele>
        <time>2021-07-24T07:48:54Z</time>
      </trkpt>
      <trkpt lat="43.3822820" lon="-7.4158870">
        <ele>345.0</ele>
        <time>2021-07-24T07:48:55Z</time>
      </trkpt>
      <trkpt lat="43.3822420" lon="-7.4159300">
        <ele>344.6</ele>
        <time>2021-07-24T07:48:56Z</time>
      </trkpt>
      <trkpt lat="43.3822020" lon="-7.4159770">
        <ele>344.2</ele>
        <time>2021-07-24T07:48:57Z</time>
      </trkpt>
      <trkpt lat="43.3821620" lon="-7.4160250">
        <ele>343.8</ele>
        <time>2021-07-24T07:48:58Z</time>
      </trkpt>
      <trkpt lat="43.3821210" lon="-7.4160760">
        <ele>343.2</ele>
        <time>2021-07-24T07:48:59Z</time>
      </trkpt>
      <trkpt lat="43.3820840" lon="-7.4161260">
        <ele>342.8</ele>
        <time>2021-07-24T07:49:00Z</time>
      </trkpt>
      <trkpt lat="43.3820490" lon="-7.4161780">
        <ele>342.2</ele>
        <time>2021-07-24T07:49:01Z</time>
      </trkpt>
      <trkpt lat="43.3820140" lon="-7.4162280">
        <ele>341.6</ele>
        <time>2021-07-24T07:49:02Z</time>
      </trkpt>
      <trkpt lat="43.3819820" lon="-7.4162770">
        <ele>341.2</ele>
        <time>2021-07-24T07:49:03Z</time>
      </trkpt>
      <trkpt lat="43.3819510" lon="-7.4163240">
        <ele>340.6</ele>
        <time>2021-07-24T07:49:04Z</time>
      </trkpt>
      <trkpt lat="43.3819200" lon="-7.4163720">
        <ele>339.6</ele>
        <time>2021-07-24T07:49:05Z</time>
      </trkpt>
      <trkpt lat="43.3818880" lon="-7.4164190">
        <ele>339.2</ele>
        <time>2021-07-24T07:49:06Z</time>
      </trkpt>
      <trkpt lat="43.3818570" lon="-7.4164660">
        <ele>338.8</ele>
        <time>2021-07-24T07:49:07Z</time>
      </trkpt>
      <trkpt lat="43.3818280" lon="-7.4165140">
        <ele>338.4</ele>
        <time>2021-07-24T07:49:08Z</time>
      </trkpt>
      <trkpt lat="43.3817990" lon="-7.4165590">
        <ele>338.0</ele>
        <time>2021-07-24T07:49:09Z</time>
      </trkpt>
      <trkpt lat="43.3817680" lon="-7.4166000">
        <ele>337.4</ele>
        <time>2021-07-24T07:49:10Z</time>
      </trkpt>
      <trkpt lat="43.3817100" lon="-7.4166890">
        <ele>337.0</ele>
        <time>2021-07-24T07:49:12Z</time>
      </trkpt>
      <trkpt lat="43.3816840" lon="-7.4167440">
        <ele>336.6</ele>
        <time>2021-07-24T07:49:13Z</time>
      </trkpt>
      <trkpt lat="43.3816600" lon="-7.4168020">
        <ele>336.0</ele>
        <time>2021-07-24T07:49:14Z</time>
      </trkpt>
      <trkpt lat="43.3816400" lon="-7.4168640">
        <ele>335.6</ele>
        <time>2021-07-24T07:49:15Z</time>
      </trkpt>
      <trkpt lat="43.3816220" lon="-7.4169250">
        <ele>335.0</ele>
        <time>2021-07-24T07:49:16Z</time>
      </trkpt>
      <trkpt lat="43.3816030" lon="-7.4169850">
        <ele>334.6</ele>
        <time>2021-07-24T07:49:17Z</time>
      </trkpt>
      <trkpt lat="43.3815850" lon="-7.4170420">
        <ele>334.2</ele>
        <time>2021-07-24T07:49:18Z</time>
      </trkpt>
      <trkpt lat="43.3815680" lon="-7.4170970">
        <ele>333.8</ele>
        <time>2021-07-24T07:49:19Z</time>
      </trkpt>
      <trkpt lat="43.3815550" lon="-7.4171500">
        <ele>333.4</ele>
        <time>2021-07-24T07:49:20Z</time>
      </trkpt>
      <trkpt lat="43.3815460" lon="-7.4172020">
        <ele>333.0</ele>
        <time>2021-07-24T07:49:21Z</time>
      </trkpt>
      <trkpt lat="43.3815290" lon="-7.4172970">
        <ele>333.0</ele>
        <time>2021-07-24T07:49:23Z</time>
      </trkpt>
      <trkpt lat="43.3815180" lon="-7.4173430">
        <ele>332.6</ele>
        <time>2021-07-24T07:49:24Z</time>
      </trkpt>
      <trkpt lat="43.3814970" lon="-7.4173850">
        <ele>332.2</ele>
        <time>2021-07-24T07:49:25Z</time>
      </trkpt>
      <trkpt lat="43.3814670" lon="-7.4174130">
        <ele>331.8</ele>
        <time>2021-07-24T07:49:26Z</time>
      </trkpt>
      <trkpt lat="43.3814360" lon="-7.4174260">
        <ele>331.4</ele>
        <time>2021-07-24T07:49:27Z</time>
      </trkpt>
      <trkpt lat="43.3814100" lon="-7.4174290">
        <ele>331.0</ele>
        <time>2021-07-24T07:49:28Z</time>
      </trkpt>
      <trkpt lat="43.3813380" lon="-7.4174090">
        <ele>331.0</ele>
        <time>2021-07-24T07:49:32Z</time>
      </trkpt>
      <trkpt lat="43.3813260" lon="-7.4173940">
        <ele>331.0</ele>
        <time>2021-07-24T07:49:33Z</time>
      </trkpt>
      <trkpt lat="43.3813150" lon="-7.4173780">
        <ele>331.0</ele>
        <time>2021-07-24T07:49:34Z</time>
      </trkpt>
      <trkpt lat="43.3812990" lon="-7.4173410">
        <ele>331.0</ele>
        <time>2021-07-24T07:49:36Z</time>
      </trkpt>
      <trkpt lat="43.3812940" lon="-7.4173190">
        <ele>331.0</ele>
        <time>2021-07-24T07:49:37Z</time>
      </trkpt>
      <trkpt lat="43.3812740" lon="-7.4172760">
        <ele>331.0</ele>
        <time>2021-07-24T07:49:39Z</time>
      </trkpt>
      <trkpt lat="43.3812510" lon="-7.4172400">
        <ele>331.0</ele>
        <time>2021-07-24T07:49:41Z</time>
      </trkpt>
      <trkpt lat="43.3812410" lon="-7.4172160">
        <ele>331.4</ele>
        <time>2021-07-24T07:49:43Z</time>
      </trkpt>
      <trkpt lat="43.3812360" lon="-7.4171990">
        <ele>331.8</ele>
        <time>2021-07-24T07:49:44Z</time>
      </trkpt>
      <trkpt lat="43.3812380" lon="-7.4171830">
        <ele>332.2</ele>
        <time>2021-07-24T07:49:45Z</time>
      </trkpt>
      <trkpt lat="43.3812350" lon="-7.4171650">
        <ele>332.6</ele>
        <time>2021-07-24T07:49:46Z</time>
      </trkpt>
      <trkpt lat="43.3812340" lon="-7.4171440">
        <ele>333.0</ele>
        <time>2021-07-24T07:49:47Z</time>
      </trkpt>
      <trkpt lat="43.3812220" lon="-7.4170920">
        <ele>333.0</ele>
        <time>2021-07-24T07:49:50Z</time>
      </trkpt>
      <trkpt lat="43.3811990" lon="-7.4170430">
        <ele>333.0</ele>
        <time>2021-07-24T07:49:53Z</time>
      </trkpt>
      <trkpt lat="43.3811810" lon="-7.4170090">
        <ele>333.8</ele>
        <time>2021-07-24T07:49:55Z</time>
      </trkpt>
      <trkpt lat="43.3811730" lon="-7.4169930">
        <ele>334.2</ele>
        <time>2021-07-24T07:49:56Z</time>
      </trkpt>
      <trkpt lat="43.3811650" lon="-7.4169800">
        <ele>334.8</ele>
        <time>2021-07-24T07:49:57Z</time>
      </trkpt>
      <trkpt lat="43.3811590" lon="-7.4169680">
        <ele>335.2</ele>
        <time>2021-07-24T07:49:58Z</time>
      </trkpt>
      <trkpt lat="43.3811390" lon="-7.4169280">
        <ele>335.2</ele>
        <time>2021-07-24T07:50:01Z</time>
      </trkpt>
      <trkpt lat="43.3811320" lon="-7.4169150">
        <ele>335.2</ele>
        <time>2021-07-24T07:50:02Z</time>
      </trkpt>
      <trkpt lat="43.3810760" lon="-7.4168650">
        <ele>335.6</ele>
        <time>2021-07-24T07:50:06Z</time>
      </trkpt>
      <trkpt lat="43.3810630" lon="-7.4168650">
        <ele>336.0</ele>
        <time>2021-07-24T07:50:07Z</time>
      </trkpt>
      <trkpt lat="43.3810520" lon="-7.4168690">
        <ele>336.4</ele>
        <time>2021-07-24T07:50:08Z</time>
      </trkpt>
      <trkpt lat="43.3810390" lon="-7.4168750">
        <ele>337.0</ele>
        <time>2021-07-24T07:50:09Z</time>
      </trkpt>
      <trkpt lat="43.3810280" lon="-7.4168820">
        <ele>337.4</ele>
        <time>2021-07-24T07:50:10Z</time>
      </trkpt>
      <trkpt lat="43.3809980" lon="-7.4168980">
        <ele>337.4</ele>
        <time>2021-07-24T07:50:12Z</time>
      </trkpt>
      <trkpt lat="43.3809790" lon="-7.4168980">
        <ele>337.4</ele>
        <time>2021-07-24T07:50:16Z</time>
      </trkpt>
      <trkpt lat="43.3805980" lon="-7.4187930">
        <ele>389.6</ele>
        <time>2021-07-24T07:56:53Z</time>
      </trkpt>
      <trkpt lat="43.3806190" lon="-7.4188300">
        <ele>389.6</ele>
        <time>2021-07-24T07:56:56Z</time>
      </trkpt>
      <trkpt lat="43.3806710" lon="-7.4189120">
        <ele>389.6</ele>
        <time>2021-07-24T07:57:03Z</time>
      </trkpt>
      <trkpt lat="43.3807000" lon="-7.4189420">
        <ele>390.0</ele>
        <time>2021-07-24T07:57:06Z</time>
      </trkpt>
      <trkpt lat="43.3807120" lon="-7.4189500">
        <ele>390.6</ele>
        <time>2021-07-24T07:57:07Z</time>
      </trkpt>
      <trkpt lat="43.3807190" lon="-7.4189590">
        <ele>391.0</ele>
        <time>2021-07-24T07:57:08Z</time>
      </trkpt>
      <trkpt lat="43.3807240" lon="-7.4189720">
        <ele>391.4</ele>
        <time>2021-07-24T07:57:09Z</time>
      </trkpt>
      <trkpt lat="43.3807340" lon="-7.4189870">
        <ele>391.8</ele>
        <time>2021-07-24T07:57:10Z</time>
      </trkpt>
      <trkpt lat="43.3807480" lon="-7.4190230">
        <ele>391.8</ele>
        <time>2021-07-24T07:57:12Z</time>
      </trkpt>
      <trkpt lat="43.3807680" lon="-7.4190810">
        <ele>391.8</ele>
        <time>2021-07-24T07:57:18Z</time>
      </trkpt>
      <trkpt lat="43.3799930" lon="-7.4188970">
        <ele>406.4</ele>
        <time>2021-07-24T07:59:30Z</time>
      </trkpt>
      <trkpt lat="43.3799660" lon="-7.4189150">
        <ele>406.4</ele>
        <time>2021-07-24T07:59:33Z</time>
      </trkpt>
      <trkpt lat="43.3799240" lon="-7.4189240">
        <ele>406.4</ele>
        <time>2021-07-24T07:59:37Z</time>
      </trkpt>
      <trkpt lat="43.3798670" lon="-7.4189290">
        <ele>406.4</ele>
        <time>2021-07-24T07:59:43Z</time>
      </trkpt>
      <trkpt lat="43.3798470" lon="-7.4189320">
        <ele>406.8</ele>
        <time>2021-07-24T07:59:45Z</time>
      </trkpt>
      <trkpt lat="43.3798310" lon="-7.4189370">
        <ele>407.2</ele>
        <time>2021-07-24T07:59:46Z</time>
      </trkpt>
      <trkpt lat="43.3798200" lon="-7.4189480">
        <ele>407.6</ele>
        <time>2021-07-24T07:59:47Z</time>
      </trkpt>
      <trkpt lat="43.3798070" lon="-7.4189600">
        <ele>408.0</ele>
        <time>2021-07-24T07:59:48Z</time>
      </trkpt>
      <trkpt lat="43.3797950" lon="-7.4189680">
        <ele>408.4</ele>
        <time>2021-07-24T07:59:49Z</time>
      </trkpt>
      <trkpt lat="43.3797630" lon="-7.4189920">
        <ele>408.4</ele>
        <time>2021-07-24T07:59:52Z</time>
      </trkpt>
      <trkpt lat="43.3797270" lon="-7.4190090">
        <ele>408.8</ele>
        <time>2021-07-24T07:59:56Z</time>
      </trkpt>
      <trkpt lat="43.3797190" lon="-7.4190110">
        <ele>409.2</ele>
        <time>2021-07-24T07:59:57Z</time>
      </trkpt>
      <trkpt lat="43.3797090" lon="-7.4190140">
        <ele>409.6</ele>
        <time>2021-07-24T07:59:58Z</time>
      </trkpt>
      <trkpt lat="43.3796970" lon="-7.4190170">
        <ele>410.0</ele>
        <time>2021-07-24T07:59:59Z</time>
      </trkpt>
      <trkpt lat="43.3796880" lon="-7.4190170">
        <ele>410.4</ele>
        <time>2021-07-24T08:00:00Z</time>
      </trkpt>
      <trkpt lat="43.3796420" lon="-7.4190250">
        <ele>410.4</ele>
        <time>2021-07-24T08:00:04Z</time>
      </trkpt>
      <trkpt lat="43.3796060" lon="-7.4190340">
        <ele>410.8</ele>
        <time>2021-07-24T08:00:08Z</time>
      </trkpt>
      <trkpt lat="43.3795980" lon="-7.4190410">
        <ele>411.2</ele>
        <time>2021-07-24T08:00:09Z</time>
      </trkpt>
      <trkpt lat="43.3795890" lon="-7.4190470">
        <ele>411.6</ele>
        <time>2021-07-24T08:00:10Z</time>
      </trkpt>
      <trkpt lat="43.3795730" lon="-7.4190550">
        <ele>412.2</ele>
        <time>2021-07-24T08:00:11Z</time>
      </trkpt>
      <trkpt lat="43.3795610" lon="-7.4190600">
        <ele>412.6</ele>
        <time>2021-07-24T08:00:12Z</time>
      </trkpt>
      <trkpt lat="43.3795390" lon="-7.4190670">
        <ele>412.6</ele>
        <time>2021-07-24T08:00:14Z</time>
      </trkpt>
      <trkpt lat="43.3795140" lon="-7.4190780">
        <ele>412.6</ele>
        <time>2021-07-24T08:00:17Z</time>
      </trkpt>
      <trkpt lat="43.3791520" lon="-7.4191620">
        <ele>417.4</ele>
        <time>2021-07-24T08:01:18Z</time>
      </trkpt>
      <trkpt lat="43.3791370" lon="-7.4191640">
        <ele>417.8</ele>
        <time>2021-07-24T08:01:19Z</time>
      </trkpt>
      <trkpt lat="43.3791200" lon="-7.4191660">
        <ele>418.2</ele>
        <time>2021-07-24T08:01:20Z</time>
      </trkpt>
      <trkpt lat="43.3791040" lon="-7.4191690">
        <ele>418.6</ele>
        <time>2021-07-24T08:01:21Z</time>
      </trkpt>
      <trkpt lat="43.3790740" lon="-7.4191790">
        <ele>418.6</ele>
        <time>2021-07-24T08:01:23Z</time>
      </trkpt>
      <trkpt lat="43.3790620" lon="-7.4191850">
        <ele>418.6</ele>
        <time>2021-07-24T08:01:24Z</time>
      </trkpt>
      <trkpt lat="43.3789930" lon="-7.4192060">
        <ele>418.6</ele>
        <time>2021-07-24T08:01:29Z</time>
      </trkpt>
      <trkpt lat="43.3789140" lon="-7.4192120">
        <ele>419.0</ele>
        <time>2021-07-24T08:01:35Z</time>
      </trkpt>
      <trkpt lat="43.3788970" lon="-7.4192010">
        <ele>419.4</ele>
        <time>2021-07-24T08:01:36Z</time>
      </trkpt>
      <trkpt lat="43.3788840" lon="-7.4191950">
        <ele>419.8</ele>
        <time>2021-07-24T08:01:37Z</time>
      </trkpt>
      <trkpt lat="43.3788720" lon="-7.4191920">
        <ele>420.2</ele>
        <time>2021-07-24T08:01:38Z</time>
      </trkpt>
      <trkpt lat="43.3788630" lon="-7.4191900">
        <ele>420.6</ele>
        <time>2021-07-24T08:01:39Z</time>
      </trkpt>
      <trkpt lat="43.3787970" lon="-7.4191910">
        <ele>420.6</ele>
        <time>2021-07-24T08:01:45Z</time>
      </trkpt>
      <trkpt lat="43.3787460" lon="-7.4191960">
        <ele>421.0</ele>
        <time>2021-07-24T08:01:50Z</time>
      </trkpt>
      <trkpt lat="43.3787380" lon="-7.4191940">
        <ele>421.4</ele>
        <time>2021-07-24T08:01:51Z</time>
      </trkpt>
      <trkpt lat="43.3787280" lon="-7.4191870">
        <ele>422.2</ele>
        <time>2021-07-24T08:01:52Z</time>
      </trkpt>
      <trkpt lat="43.3787190" lon="-7.4191900">
        <ele>422.6</ele>
        <time>2021-07-24T08:01:53Z</time>
      </trkpt>
      <trkpt lat="43.3786590" lon="-7.4191780">
        <ele>422.6</ele>
        <time>2021-07-24T08:01:59Z</time>
      </trkpt>
      <trkpt lat="43.3786430" lon="-7.4191750">
        <ele>422.6</ele>
        <time>2021-07-24T08:02:01Z</time>
      </trkpt>
      <trkpt lat="43.3786230" lon="-7.4191710">
        <ele>423.2</ele>
        <time>2021-07-24T08:02:03Z</time>
      </trkpt>
      <trkpt lat="43.3786080" lon="-7.4191690">
        <ele>423.6</ele>
        <time>2021-07-24T08:02:04Z</time>
      </trkpt>
      <trkpt lat="43.3785960" lon="-7.4191690">
        <ele>424.0</ele>
        <time>2021-07-24T08:02:05Z</time>
      </trkpt>
      <trkpt lat="43.3785880" lon="-7.4191670">
        <ele>424.4</ele>
        <time>2021-07-24T08:02:06Z</time>
      </trkpt>
      <trkpt lat="43.3785780" lon="-7.4191650">
        <ele>424.8</ele>
        <time>2021-07-24T08:02:07Z</time>
      </trkpt>
      <trkpt lat="43.3785620" lon="-7.4191560">
        <ele>424.8</ele>
        <time>2021-07-24T08:02:09Z</time>
      </trkpt>
      <trkpt lat="43.3784930" lon="-7.4191380">
        <ele>425.2</ele>
        <time>2021-07-24T08:02:16Z</time>
      </trkpt>
      <trkpt lat="43.3784840" lon="-7.4191350">
        <ele>426.0</ele>
        <time>2021-07-24T08:02:17Z</time>
      </trkpt>
      <trkpt lat="43.3784750" lon="-7.4191320">
        <ele>426.4</ele>
        <time>2021-07-24T08:02:18Z</time>
      </trkpt>
      <trkpt lat="43.3784720" lon="-7.4191320">
        <ele>427.0</ele>
        <time>2021-07-24T08:02:19Z</time>
      </trkpt>
      <trkpt lat="43.3784090" lon="-7.4191250">
        <ele>427.0</ele>
        <time>2021-07-24T08:02:25Z</time>
      </trkpt>
      <trkpt lat="43.3783420" lon="-7.4191280">
        <ele>427.0</ele>
        <time>2021-07-24T08:02:32Z</time>
      </trkpt>
      <trkpt lat="43.3783300" lon="-7.4191260">
        <ele>427.4</ele>
        <time>2021-07-24T08:02:33Z</time>
      </trkpt>
      <trkpt lat="43.3783180" lon="-7.4191230">
        <ele>427.8</ele>
        <time>2021-07-24T08:02:34Z</time>
      </trkpt>
      <trkpt lat="43.3783080" lon="-7.4191230">
        <ele>428.2</ele>
        <time>2021-07-24T08:02:35Z</time>
      </trkpt>
      <trkpt lat="43.3782970" lon="-7.4191250">
        <ele>428.6</ele>
        <time>2021-07-24T08:02:36Z</time>
      </trkpt>
      <trkpt lat="43.3782850" lon="-7.4191250">
        <ele>429.0</ele>
        <time>2021-07-24T08:02:37Z</time>
      </trkpt>
      <trkpt lat="43.3782300" lon="-7.4191180">
        <ele>429.0</ele>
        <time>2021-07-24T08:02:42Z</time>
      </trkpt>
      <trkpt lat="43.3781770" lon="-7.4190780">
        <ele>429.0</ele>
        <time>2021-07-24T08:02:47Z</time>
      </trkpt>
      <trkpt lat="43.3781670" lon="-7.4190670">
        <ele>429.4</ele>
        <time>2021-07-24T08:02:48Z</time>
      </trkpt>
      <trkpt lat="43.3781590" lon="-7.4190640">
        <ele>429.8</ele>
        <time>2021-07-24T08:02:49Z</time>
      </trkpt>
      <trkpt lat="43.3781570" lon="-7.4190640">
        <ele>430.4</ele>
        <time>2021-07-24T08:02:50Z</time>
      </trkpt>
      <trkpt lat="43.3781530" lon="-7.4190620">
        <ele>430.8</ele>
        <time>2021-07-24T08:02:51Z</time>
      </trkpt>
      <trkpt lat="43.3781490" lon="-7.4190640">
        <ele>431.2</ele>
        <time>2021-07-24T08:02:52Z</time>
      </trkpt>
      <trkpt lat="43.3781390" lon="-7.4190640">
        <ele>431.2</ele>
        <time>2021-07-24T08:02:54Z</time>
      </trkpt>
      <trkpt lat="43.3780830" lon="-7.4190730">
        <ele>431.2</ele>
        <time>2021-07-24T08:03:36Z</time>
      </trkpt>
      <trkpt lat="43.3780700" lon="-7.4190760">
        <ele>431.2</ele>
        <time>2021-07-24T08:03:37Z</time>
      </trkpt>
      <trkpt lat="43.3780250" lon="-7.4190890">
        <ele>431.2</ele>
        <time>2021-07-24T08:03:41Z</time>
      </trkpt>
      <trkpt lat="43.3780150" lon="-7.4190860">
        <ele>431.2</ele>
        <time>2021-07-24T08:03:42Z</time>
      </trkpt>
      <trkpt lat="43.3779880" lon="-7.4190810">
        <ele>431.6</ele>
        <time>2021-07-24T08:03:45Z</time>
      </trkpt>
      <trkpt lat="43.3779770" lon="-7.4190810">
        <ele>432.0</ele>
        <time>2021-07-24T08:03:46Z</time>
      </trkpt>
      <trkpt lat="43.3779740" lon="-7.4190810">
        <ele>432.4</ele>
        <time>2021-07-24T08:03:47Z</time>
      </trkpt>
      <trkpt lat="43.3779720" lon="-7.4190830">
        <ele>432.8</ele>
        <time>2021-07-24T08:03:48Z</time>
      </trkpt>
      <trkpt lat="43.3778690" lon="-7.4190760">
        <ele>433.2</ele>
        <time>2021-07-24T08:04:18Z</time>
      </trkpt>
      <trkpt lat="43.3778530" lon="-7.4190770">
        <ele>433.2</ele>
        <time>2021-07-24T08:04:19Z</time>
      </trkpt>
      <trkpt lat="43.3777880" lon="-7.4190710">
        <ele>433.2</ele>
        <time>2021-07-24T08:04:25Z</time>
      </trkpt>
      <trkpt lat="43.3778000" lon="-7.4191710">
        <ele>435.2</ele>
        <time>2021-07-24T08:04:37Z</time>
      </trkpt>
      <trkpt lat="43.3778570" lon="-7.4192070">
        <ele>435.2</ele>
        <time>2021-07-24T08:04:43Z</time>
      </trkpt>
      <trkpt lat="43.3778660" lon="-7.4192140">
        <ele>435.2</ele>
        <time>2021-07-24T08:04:44Z</time>
      </trkpt>
      <trkpt lat="43.3778860" lon="-7.4192390">
        <ele>435.6</ele>
        <time>2021-07-24T08:04:47Z</time>
      </trkpt>
      <trkpt lat="43.3778950" lon="-7.4192480">
        <ele>436.0</ele>
        <time>2021-07-24T08:04:48Z</time>
      </trkpt>
      <trkpt lat="43.3779040" lon="-7.4192550">
        <ele>436.4</ele>
        <time>2021-07-24T08:04:49Z</time>
      </trkpt>
      <trkpt lat="43.3779150" lon="-7.4192630">
        <ele>437.0</ele>
        <time>2021-07-24T08:04:50Z</time>
      </trkpt>
      <trkpt lat="43.3779240" lon="-7.4192710">
        <ele>437.4</ele>
        <time>2021-07-24T08:04:51Z</time>
      </trkpt>
      <trkpt lat="43.3779500" lon="-7.4192910">
        <ele>437.4</ele>
        <time>2021-07-24T08:04:54Z</time>
      </trkpt>
      <trkpt lat="43.3780030" lon="-7.4193280">
        <ele>437.8</ele>
        <time>2021-07-24T08:05:00Z</time>
      </trkpt>
      <trkpt lat="43.3780100" lon="-7.4193350">
        <ele>438.2</ele>
        <time>2021-07-24T08:05:01Z</time>
      </trkpt>
      <trkpt lat="43.3780190" lon="-7.4193440">
        <ele>438.6</ele>
        <time>2021-07-24T08:05:02Z</time>
      </trkpt>
      <trkpt lat="43.3780260" lon="-7.4193540">
        <ele>439.0</ele>
        <time>2021-07-24T08:05:03Z</time>
      </trkpt>
      <trkpt lat="43.3780370" lon="-7.4193640">
        <ele>439.4</ele>
        <time>2021-07-24T08:05:04Z</time>
      </trkpt>
      <trkpt lat="43.3780980" lon="-7.4194270">
        <ele>439.8</ele>
        <time>2021-07-24T08:05:12Z</time>
      </trkpt>
      <trkpt lat="43.3781060" lon="-7.4194320">
        <ele>440.2</ele>
        <time>2021-07-24T08:05:13Z</time>
      </trkpt>
      <trkpt lat="43.3781140" lon="-7.4194400">
        <ele>440.8</ele>
        <time>2021-07-24T08:05:14Z</time>
      </trkpt>
      <trkpt lat="43.3781210" lon="-7.4194470">
        <ele>441.2</ele>
        <time>2021-07-24T08:05:15Z</time>
      </trkpt>
      <trkpt lat="43.3781300" lon="-7.4194530">
        <ele>441.6</ele>
        <time>2021-07-24T08:05:16Z</time>
      </trkpt>
      <trkpt lat="43.3781800" lon="-7.4195000">
        <ele>441.6</ele>
        <time>2021-07-24T08:05:23Z</time>
      </trkpt>
      <trkpt lat="43.3781980" lon="-7.4195210">
        <ele>442.0</ele>
        <time>2021-07-24T08:05:26Z</time>
      </trkpt>
      <trkpt lat="43.3782050" lon="-7.4195290">
        <ele>442.4</ele>
        <time>2021-07-24T08:05:27Z</time>
      </trkpt>
      <trkpt lat="43.3782100" lon="-7.4195340">
        <ele>443.0</ele>
        <time>2021-07-24T08:05:28Z</time>
      </trkpt>
      <trkpt lat="43.3782120" lon="-7.4195340">
        <ele>443.4</ele>
        <time>2021-07-24T08:05:29Z</time>
      </trkpt>
      <trkpt lat="43.3782180" lon="-7.4195350">
        <ele>443.8</ele>
        <time>2021-07-24T08:05:30Z</time>
      </trkpt>
      <trkpt lat="43.3782270" lon="-7.4195410">
        <ele>443.8</ele>
        <time>2021-07-24T08:05:31Z</time>
      </trkpt>
      <trkpt lat="43.3782600" lon="-7.4195830">
        <ele>443.8</ele>
        <time>2021-07-24T08:05:38Z</time>
      </trkpt>
      <trkpt lat="43.3782800" lon="-7.4196080">
        <ele>444.2</ele>
        <time>2021-07-24T08:05:41Z</time>
      </trkpt>
      <trkpt lat="43.3782850" lon="-7.4196170">
        <ele>444.6</ele>
        <time>2021-07-24T08:05:42Z</time>
      </trkpt>
      <trkpt lat="43.3782900" lon="-7.4196260">
        <ele>445.0</ele>
        <time>2021-07-24T08:05:43Z</time>
      </trkpt>
      <trkpt lat="43.3782990" lon="-7.4196350">
        <ele>445.4</ele>
        <time>2021-07-24T08:05:44Z</time>
      </trkpt>
      <trkpt lat="43.3783010" lon="-7.4196370">
        <ele>445.8</ele>
        <time>2021-07-24T08:05:45Z</time>
      </trkpt>
      <trkpt lat="43.3789290" lon="-7.4209270">
        <ele>470.6</ele>
        <time>2021-07-24T08:09:15Z</time>
      </trkpt>
      <trkpt lat="43.3789270" lon="-7.4209430">
        <ele>470.6</ele>
        <time>2021-07-24T08:09:16Z</time>
      </trkpt>
      <trkpt lat="43.3789010" lon="-7.4210490">
        <ele>471.0</ele>
        <time>2021-07-24T08:09:23Z</time>
      </trkpt>
      <trkpt lat="43.3788980" lon="-7.4210660">
        <ele>471.4</ele>
        <time>2021-07-24T08:09:24Z</time>
      </trkpt>
      <trkpt lat="43.3788970" lon="-7.4210810">
        <ele>472.0</ele>
        <time>2021-07-24T08:09:25Z</time>
      </trkpt>
      <trkpt lat="43.3788910" lon="-7.4210950">
        <ele>472.4</ele>
        <time>2021-07-24T08:09:26Z</time>
      </trkpt>
      <trkpt lat="43.3788870" lon="-7.4211070">
        <ele>472.8</ele>
        <time>2021-07-24T08:09:27Z</time>
      </trkpt>
      <trkpt lat="43.3788840" lon="-7.4211120">
        <ele>472.8</ele>
        <time>2021-07-24T08:09:29Z</time>
      </trkpt>
      <trkpt lat="43.3788770" lon="-7.4211380">
        <ele>472.8</ele>
        <time>2021-07-24T08:09:41Z</time>
      </trkpt>
      <trkpt lat="43.3788680" lon="-7.4211570">
        <ele>472.8</ele>
        <time>2021-07-24T08:09:42Z</time>
      </trkpt>
      <trkpt lat="43.3788310" lon="-7.4212710">
        <ele>473.2</ele>
        <time>2021-07-24T08:09:47Z</time>
      </trkpt>
      <trkpt lat="43.3788260" lon="-7.4212980">
        <ele>473.6</ele>
        <time>2021-07-24T08:09:48Z</time>
      </trkpt>
      <trkpt lat="43.3788170" lon="-7.4213240">
        <ele>474.0</ele>
        <time>2021-07-24T08:09:49Z</time>
      </trkpt>
      <trkpt lat="43.3788050" lon="-7.4213500">
        <ele>474.4</ele>
        <time>2021-07-24T08:09:50Z</time>
      </trkpt>
      <trkpt lat="43.3787940" lon="-7.4213750">
        <ele>474.8</ele>
        <time>2021-07-24T08:09:51Z</time>
      </trkpt>
      <trkpt lat="43.3787110" lon="-7.4215770">
        <ele>474.8</ele>
        <time>2021-07-24T08:09:59Z</time>
      </trkpt>
      <trkpt lat="43.3786510" lon="-7.4217070">
        <ele>474.8</ele>
        <time>2021-07-24T08:10:04Z</time>
      </trkpt>
      <trkpt lat="43.3786230" lon="-7.4217780">
        <ele>474.8</ele>
        <time>2021-07-24T08:10:07Z</time>
      </trkpt>
      <trkpt lat="43.3785510" lon="-7.4219780">
        <ele>475.2</ele>
        <time>2021-07-24T08:10:15Z</time>
      </trkpt>
      <trkpt lat="43.3785410" lon="-7.4220050">
        <ele>475.6</ele>
        <time>2021-07-24T08:10:16Z</time>
      </trkpt>
      <trkpt lat="43.3785290" lon="-7.4220300">
        <ele>476.0</ele>
        <time>2021-07-24T08:10:17Z</time>
      </trkpt>
      <trkpt lat="43.3785160" lon="-7.4220550">
        <ele>476.4</ele>
        <time>2021-07-24T08:10:18Z</time>
      </trkpt>
      <trkpt lat="43.3785040" lon="-7.4220850">
        <ele>477.0</ele>
        <time>2021-07-24T08:10:19Z</time>
      </trkpt>
      <trkpt lat="43.3784080" lon="-7.4223270">
        <ele>477.0</ele>
        <time>2021-07-24T08:10:27Z</time>
      </trkpt>
      <trkpt lat="43.3783180" lon="-7.4225530">
        <ele>477.0</ele>
        <time>2021-07-24T08:10:34Z</time>
      </trkpt>
      <trkpt lat="43.3783030" lon="-7.4225860">
        <ele>477.0</ele>
        <time>2021-07-24T08:10:35Z</time>
      </trkpt>
      <trkpt lat="43.3782180" lon="-7.4227860">
        <ele>477.0</ele>
        <time>2021-07-24T08:10:41Z</time>
      </trkpt>
      <trkpt lat="43.3781700" lon="-7.4230730">
        <ele>477.0</ele>
        <time>2021-07-24T08:10:47Z</time>
      </trkpt>
      <trkpt lat="43.3781450" lon="-7.4231800">
        <ele>477.0</ele>
        <time>2021-07-24T08:10:49Z</time>
      </trkpt>
      <trkpt lat="43.3781080" lon="-7.4232850">
        <ele>477.0</ele>
        <time>2021-07-24T08:10:51Z</time>
      </trkpt>
      <trkpt lat="43.3780700" lon="-7.4233770">
        <ele>477.0</ele>
        <time>2021-07-24T08:10:53Z</time>
      </trkpt>
      <trkpt lat="43.3780400" lon="-7.4234710">
        <ele>477.0</ele>
        <time>2021-07-24T08:10:55Z</time>
      </trkpt>
      <trkpt lat="43.3780220" lon="-7.4235710">
        <ele>477.0</ele>
        <time>2021-07-24T08:10:57Z</time>
      </trkpt>
      <trkpt lat="43.3780100" lon="-7.4237170">
        <ele>477.0</ele>
        <time>2021-07-24T08:11:00Z</time>
      </trkpt>
      <trkpt lat="43.3780230" lon="-7.4238270">
        <ele>477.0</ele>
        <time>2021-07-24T08:11:03Z</time>
      </trkpt>
      <trkpt lat="43.3780410" lon="-7.4239380">
        <ele>477.0</ele>
        <time>2021-07-24T08:11:06Z</time>
      </trkpt>
      <trkpt lat="43.3780570" lon="-7.4240530">
        <ele>477.0</ele>
        <time>2021-07-24T08:11:09Z</time>
      </trkpt>
      <trkpt lat="43.3780730" lon="-7.4241240">
        <ele>477.0</ele>
        <time>2021-07-24T08:11:11Z</time>
      </trkpt>
      <trkpt lat="43.3780840" lon="-7.4241970">
        <ele>477.0</ele>
        <time>2021-07-24T08:11:13Z</time>
      </trkpt>
      <trkpt lat="43.3780890" lon="-7.4242300">
        <ele>477.0</ele>
        <time>2021-07-24T08:11:14Z</time>
      </trkpt>
      <trkpt lat="43.3781070" lon="-7.4243360">
        <ele>477.0</ele>
        <time>2021-07-24T08:11:17Z</time>
      </trkpt>
      <trkpt lat="43.3781160" lon="-7.4243720">
        <ele>477.4</ele>
        <time>2021-07-24T08:11:18Z</time>
      </trkpt>
      <trkpt lat="43.3781240" lon="-7.4244070">
        <ele>477.8</ele>
        <time>2021-07-24T08:11:19Z</time>
      </trkpt>
      <trkpt lat="43.3781310" lon="-7.4244430">
        <ele>478.2</ele>
        <time>2021-07-24T08:11:20Z</time>
      </trkpt>
      <trkpt lat="43.3781360" lon="-7.4244770">
        <ele>479.0</ele>
        <time>2021-07-24T08:11:21Z</time>
      </trkpt>
      <trkpt lat="43.3781440" lon="-7.4245470">
        <ele>479.0</ele>
        <time>2021-07-24T08:11:23Z</time>
      </trkpt>
      <trkpt lat="43.3781690" lon="-7.4246520">
        <ele>479.4</ele>
        <time>2021-07-24T08:11:26Z</time>
      </trkpt>
      <trkpt lat="43.3781810" lon="-7.4246840">
        <ele>479.8</ele>
        <time>2021-07-24T08:11:27Z</time>
      </trkpt>
      <trkpt lat="43.3781950" lon="-7.4247160">
        <ele>480.4</ele>
        <time>2021-07-24T08:11:28Z</time>
      </trkpt>
      <trkpt lat="43.3782160" lon="-7.4247440">
        <ele>480.8</ele>
        <time>2021-07-24T08:11:29Z</time>
      </trkpt>
      <trkpt lat="43.3782400" lon="-7.4247650">
        <ele>481.2</ele>
        <time>2021-07-24T08:11:30Z</time>
      </trkpt>
      <trkpt lat="43.3783980" lon="-7.4248780">
        <ele>481.2</ele>
        <time>2021-07-24T08:11:37Z</time>
      </trkpt>
      <trkpt lat="43.3784660" lon="-7.4249790">
        <ele>481.2</ele>
        <time>2021-07-24T08:11:41Z</time>
      </trkpt>
      <trkpt lat="43.3784770" lon="-7.4250370">
        <ele>481.2</ele>
        <time>2021-07-24T08:11:43Z</time>
      </trkpt>
      <trkpt lat="43.3784800" lon="-7.4250720">
        <ele>481.2</ele>
        <time>2021-07-24T08:11:44Z</time>
      </trkpt>
      <trkpt lat="43.3784740" lon="-7.4251920">
        <ele>481.2</ele>
        <time>2021-07-24T08:11:47Z</time>
      </trkpt>
      <trkpt lat="43.3784720" lon="-7.4252240">
        <ele>481.2</ele>
        <time>2021-07-24T08:11:48Z</time>
      </trkpt>
      <trkpt lat="43.3784730" lon="-7.4252460">
        <ele>480.6</ele>
        <time>2021-07-24T08:11:50Z</time>
      </trkpt>
      <trkpt lat="43.3784730" lon="-7.4252390">
        <ele>480.2</ele>
        <time>2021-07-24T08:11:51Z</time>
      </trkpt>
      <trkpt lat="43.3784680" lon="-7.4252540">
        <ele>478.8</ele>
        <time>2021-07-24T08:13:13Z</time>
      </trkpt>
      <trkpt lat="43.3784630" lon="-7.4252800">
        <ele>478.8</ele>
        <time>2021-07-24T08:13:14Z</time>
      </trkpt>
      <trkpt lat="43.3784510" lon="-7.4253400">
        <ele>478.8</ele>
        <time>2021-07-24T08:13:16Z</time>
      </trkpt>
      <trkpt lat="43.3784410" lon="-7.4254310">
        <ele>478.8</ele>
        <time>2021-07-24T08:13:18Z</time>
      </trkpt>
      <trkpt lat="43.3784390" lon="-7.4254840">
        <ele>478.8</ele>
        <time>2021-07-24T08:13:19Z</time>
      </trkpt>
      <trkpt lat="43.3784430" lon="-7.4255880">
        <ele>478.8</ele>
        <time>2021-07-24T08:13:21Z</time>
      </trkpt>
      <trkpt lat="43.3784650" lon="-7.4257930">
        <ele>478.8</ele>
        <time>2021-07-24T08:13:25Z</time>
      </trkpt>
      <trkpt lat="43.3785080" lon="-7.4260350">
        <ele>478.8</ele>
        <time>2021-07-24T08:13:30Z</time>
      </trkpt>
      <trkpt lat="43.3785590" lon="-7.4263000">
        <ele>478.8</ele>
        <time>2021-07-24T08:13:36Z</time>
      </trkpt>
      <trkpt lat="43.3785760" lon="-7.4263920">
        <ele>478.8</ele>
        <time>2021-07-24T08:13:38Z</time>
      </trkpt>
      <trkpt lat="43.3786140" lon="-7.4266360">
        <ele>478.8</ele>
        <time>2021-07-24T08:13:43Z</time>
      </trkpt>
      <trkpt lat="43.3786360" lon="-7.4267890">
        <ele>478.8</ele>
        <time>2021-07-24T08:13:46Z</time>
      </trkpt>
      <trkpt lat="43.3786870" lon="-7.4270710">
        <ele>478.8</ele>
        <time>2021-07-24T08:13:52Z</time>
      </trkpt>
      <trkpt lat="43.3787100" lon="-7.4272560">
        <ele>478.8</ele>
        <time>2021-07-24T08:13:56Z</time>
      </trkpt>
      <trkpt lat="43.3787190" lon="-7.4273410">
        <ele>478.8</ele>
        <time>2021-07-24T08:13:58Z</time>
      </trkpt>
      <trkpt lat="43.3787290" lon="-7.4277960">
        <ele>478.8</ele>
        <time>2021-07-24T08:14:08Z</time>
      </trkpt>
      <trkpt lat="43.3787100" lon="-7.4281440">
        <ele>478.8</ele>
        <time>2021-07-24T08:14:16Z</time>
      </trkpt>
      <trkpt lat="43.3786990" lon="-7.4283080">
        <ele>478.8</ele>
        <time>2021-07-24T08:14:21Z</time>
      </trkpt>
      <trkpt lat="43.3786990" lon="-7.4283420">
        <ele>479.2</ele>
        <time>2021-07-24T08:14:22Z</time>
      </trkpt>
      <trkpt lat="43.3786990" lon="-7.4283770">
        <ele>479.6</ele>
        <time>2021-07-24T08:14:23Z</time>
      </trkpt>
      <trkpt lat="43.3786980" lon="-7.4284120">
        <ele>480.0</ele>
        <time>2021-07-24T08:14:24Z</time>
      </trkpt>
      <trkpt lat="43.3786990" lon="-7.4284460">
        <ele>480.4</ele>
        <time>2021-07-24T08:14:25Z</time>
      </trkpt>
      <trkpt lat="43.3786960" lon="-7.4284790">
        <ele>480.8</ele>
        <time>2021-07-24T08:14:26Z</time>
      </trkpt>
      <trkpt lat="43.3786920" lon="-7.4286500">
        <ele>480.8</ele>
        <time>2021-07-24T08:14:31Z</time>
      </trkpt>
      <trkpt lat="43.3786700" lon="-7.4289280">
        <ele>480.8</ele>
        <time>2021-07-24T08:14:38Z</time>
      </trkpt>
      <trkpt lat="43.3787110" lon="-7.4290530">
        <ele>480.8</ele>
        <time>2021-07-24T08:14:41Z</time>
      </trkpt>
      <trkpt lat="43.3787400" lon="-7.4290770">
        <ele>480.8</ele>
        <time>2021-07-24T08:14:42Z</time>
      </trkpt>
      <trkpt lat="43.3788240" lon="-7.4291220">
        <ele>480.8</ele>
        <time>2021-07-24T08:14:45Z</time>
      </trkpt>
      <trkpt lat="43.3788980" lon="-7.4291480">
        <ele>480.8</ele>
        <time>2021-07-24T08:14:48Z</time>
      </trkpt>
      <trkpt lat="43.3790190" lon="-7.4291940">
        <ele>481.2</ele>
        <time>2021-07-24T08:14:53Z</time>
      </trkpt>
      <trkpt lat="43.3790410" lon="-7.4292040">
        <ele>481.6</ele>
        <time>2021-07-24T08:14:54Z</time>
      </trkpt>
      <trkpt lat="43.3790630" lon="-7.4292090">
        <ele>482.2</ele>
        <time>2021-07-24T08:14:55Z</time>
      </trkpt>
      <trkpt lat="43.3790820" lon="-7.4292230">
        <ele>482.6</ele>
        <time>2021-07-24T08:14:56Z</time>
      </trkpt>
      <trkpt lat="43.3791000" lon="-7.4292380">
        <ele>483.0</ele>
        <time>2021-07-24T08:14:57Z</time>
      </trkpt>
      <trkpt lat="43.3791990" lon="-7.4293430">
        <ele>483.0</ele>
        <time>2021-07-24T08:15:03Z</time>
      </trkpt>
      <trkpt lat="43.3792190" lon="-7.4293870">
        <ele>483.4</ele>
        <time>2021-07-24T08:15:05Z</time>
      </trkpt>
      <trkpt lat="43.3792270" lon="-7.4294110">
        <ele>483.8</ele>
        <time>2021-07-24T08:15:06Z</time>
      </trkpt>
      <trkpt lat="43.3792350" lon="-7.4294370">
        <ele>484.2</ele>
        <time>2021-07-24T08:15:07Z</time>
      </trkpt>
      <trkpt lat="43.3792410" lon="-7.4294650">
        <ele>484.6</ele>
        <time>2021-07-24T08:15:08Z</time>
      </trkpt>
      <trkpt lat="43.3792490" lon="-7.4294890">
        <ele>485.0</ele>
        <time>2021-07-24T08:15:09Z</time>
      </trkpt>
      <trkpt lat="43.3792630" lon="-7.4295380">
        <ele>485.0</ele>
        <time>2021-07-24T08:15:11Z</time>
      </trkpt>
      <trkpt lat="43.3793370" lon="-7.4296220">
        <ele>485.0</ele>
        <time>2021-07-24T08:15:17Z</time>
      </trkpt>
      <trkpt lat="43.3793550" lon="-7.4296180">
        <ele>485.0</ele>
        <time>2021-07-24T08:15:21Z</time>
      </trkpt>
      <trkpt lat="43.3793940" lon="-7.4296350">
        <ele>487.0</ele>
        <time>2021-07-24T08:16:57Z</time>
      </trkpt>
      <trkpt lat="43.3794200" lon="-7.4296440">
        <ele>487.0</ele>
        <time>2021-07-24T08:16:58Z</time>
      </trkpt>
      <trkpt lat="43.3794710" lon="-7.4296580">
        <ele>487.0</ele>
        <time>2021-07-24T08:17:00Z</time>
      </trkpt>
      <trkpt lat="43.3795220" lon="-7.4296700">
        <ele>487.0</ele>
        <time>2021-07-24T08:17:02Z</time>
      </trkpt>
      <trkpt lat="43.3795450" lon="-7.4296760">
        <ele>487.0</ele>
        <time>2021-07-24T08:17:03Z</time>
      </trkpt>
      <trkpt lat="43.3796170" lon="-7.4296910">
        <ele>487.0</ele>
        <time>2021-07-24T08:17:06Z</time>
      </trkpt>
      <trkpt lat="43.3796410" lon="-7.4296940">
        <ele>487.4</ele>
        <time>2021-07-24T08:17:07Z</time>
      </trkpt>
      <trkpt lat="43.3796660" lon="-7.4297010">
        <ele>487.8</ele>
        <time>2021-07-24T08:17:08Z</time>
      </trkpt>
      <trkpt lat="43.3796910" lon="-7.4297070">
        <ele>488.8</ele>
        <time>2021-07-24T08:17:09Z</time>
      </trkpt>
      <trkpt lat="43.3797170" lon="-7.4297140">
        <ele>489.2</ele>
        <time>2021-07-24T08:17:10Z</time>
      </trkpt>
      <trkpt lat="43.3797900" lon="-7.4297290">
        <ele>489.2</ele>
        <time>2021-07-24T08:17:13Z</time>
      </trkpt>
      <trkpt lat="43.3798580" lon="-7.4297400">
        <ele>489.2</ele>
        <time>2021-07-24T08:17:16Z</time>
      </trkpt>
      <trkpt lat="43.3799250" lon="-7.4297540">
        <ele>489.2</ele>
        <time>2021-07-24T08:17:19Z</time>
      </trkpt>
      <trkpt lat="43.3800430" lon="-7.4297720">
        <ele>489.2</ele>
        <time>2021-07-24T08:17:24Z</time>
      </trkpt>
      <trkpt lat="43.3801100" lon="-7.4297870">
        <ele>489.6</ele>
        <time>2021-07-24T08:17:27Z</time>
      </trkpt>
      <trkpt lat="43.3801320" lon="-7.4297930">
        <ele>490.0</ele>
        <time>2021-07-24T08:17:28Z</time>
      </trkpt>
      <trkpt lat="43.3801530" lon="-7.4297950">
        <ele>490.4</ele>
        <time>2021-07-24T08:17:29Z</time>
      </trkpt>
      <trkpt lat="43.3801750" lon="-7.4297960">
        <ele>490.8</ele>
        <time>2021-07-24T08:17:30Z</time>
      </trkpt>
      <trkpt lat="43.3801940" lon="-7.4297950">
        <ele>491.4</ele>
        <time>2021-07-24T08:17:31Z</time>
      </trkpt>
      <trkpt lat="43.3802420" lon="-7.4298030">
        <ele>491.4</ele>
        <time>2021-07-24T08:17:34Z</time>
      </trkpt>
      <trkpt lat="43.3802860" lon="-7.4298580">
        <ele>491.4</ele>
        <time>2021-07-24T08:17:39Z</time>
      </trkpt>
      <trkpt lat="43.3803070" lon="-7.4298830">
        <ele>491.4</ele>
        <time>2021-07-24T08:17:41Z</time>
      </trkpt>
      <trkpt lat="43.3803240" lon="-7.4299020">
        <ele>491.8</ele>
        <time>2021-07-24T08:17:42Z</time>
      </trkpt>
      <trkpt lat="43.3803460" lon="-7.4299260">
        <ele>492.2</ele>
        <time>2021-07-24T08:17:43Z</time>
      </trkpt>
      <trkpt lat="43.3803720" lon="-7.4299510">
        <ele>492.6</ele>
        <time>2021-07-24T08:17:44Z</time>
      </trkpt>
      <trkpt lat="43.3803990" lon="-7.4299750">
        <ele>493.2</ele>
        <time>2021-07-24T08:17:45Z</time>
      </trkpt>
      <trkpt lat="43.3804210" lon="-7.4299980">
        <ele>493.6</ele>
        <time>2021-07-24T08:17:46Z</time>
      </trkpt>
      <trkpt lat="43.3805270" lon="-7.4301360">
        <ele>493.6</ele>
        <time>2021-07-24T08:17:52Z</time>
      </trkpt>
      <trkpt lat="43.3805450" lon="-7.4301570">
        <ele>493.6</ele>
        <time>2021-07-24T08:17:53Z</time>
      </trkpt>
      <trkpt lat="43.3806790" lon="-7.4303320">
        <ele>493.6</ele>
        <time>2021-07-24T08:18:02Z</time>
      </trkpt>
      <trkpt lat="43.3807820" lon="-7.4304590">
        <ele>493.6</ele>
        <time>2021-07-24T08:18:09Z</time>
      </trkpt>
      <trkpt lat="43.3808570" lon="-7.4305430">
        <ele>494.0</ele>
        <time>2021-07-24T08:18:14Z</time>
      </trkpt>
      <trkpt lat="43.3808710" lon="-7.4305560">
        <ele>494.4</ele>
        <time>2021-07-24T08:18:15Z</time>
      </trkpt>
      <trkpt lat="43.3808870" lon="-7.4305710">
        <ele>494.8</ele>
        <time>2021-07-24T08:18:16Z</time>
      </trkpt>
      <trkpt lat="43.3809030" lon="-7.4305880">
        <ele>495.2</ele>
        <time>2021-07-24T08:18:17Z</time>
      </trkpt>
      <trkpt lat="43.3809170" lon="-7.4306060">
        <ele>495.8</ele>
        <time>2021-07-24T08:18:18Z</time>
      </trkpt>
      <trkpt lat="43.3809730" lon="-7.4306810">
        <ele>495.8</ele>
        <time>2021-07-24T08:18:22Z</time>
      </trkpt>
      <trkpt lat="43.3810190" lon="-7.4307350">
        <ele>496.2</ele>
        <time>2021-07-24T08:18:25Z</time>
      </trkpt>
      <trkpt lat="43.3810350" lon="-7.4307500">
        <ele>496.6</ele>
        <time>2021-07-24T08:18:26Z</time>
      </trkpt>
      <trkpt lat="43.3810500" lon="-7.4307660">
        <ele>497.0</ele>
        <time>2021-07-24T08:18:27Z</time>
      </trkpt>
      <trkpt lat="43.3810650" lon="-7.4307820">
        <ele>497.4</ele>
        <time>2021-07-24T08:18:28Z</time>
      </trkpt>
      <trkpt lat="43.3810830" lon="-7.4308000">
        <ele>497.8</ele>
        <time>2021-07-24T08:18:29Z</time>
      </trkpt>
      <trkpt lat="43.3810990" lon="-7.4308170">
        <ele>497.8</ele>
        <time>2021-07-24T08:18:30Z</time>
      </trkpt>
      <trkpt lat="43.3811640" lon="-7.4308840">
        <ele>498.2</ele>
        <time>2021-07-24T08:18:34Z</time>
      </trkpt>
      <trkpt lat="43.3811810" lon="-7.4309030">
        <ele>498.6</ele>
        <time>2021-07-24T08:18:35Z</time>
      </trkpt>
      <trkpt lat="43.3811970" lon="-7.4309230">
        <ele>499.0</ele>
        <time>2021-07-24T08:18:36Z</time>
      </trkpt>
      <trkpt lat="43.3812130" lon="-7.4309420">
        <ele>499.4</ele>
        <time>2021-07-24T08:18:37Z</time>
      </trkpt>
      <trkpt lat="43.3812300" lon="-7.4309580">
        <ele>500.0</ele>
        <time>2021-07-24T08:18:38Z</time>
      </trkpt>
      <trkpt lat="43.3812780" lon="-7.4310150">
        <ele>500.0</ele>
        <time>2021-07-24T08:18:41Z</time>
      </trkpt>
      <trkpt lat="43.3813790" lon="-7.4311420">
        <ele>500.0</ele>
        <time>2021-07-24T08:18:48Z</time>
      </trkpt>
      <trkpt lat="43.3814750" lon="-7.4312750">
        <ele>500.4</ele>
        <time>2021-07-24T08:18:55Z</time>
      </trkpt>
      <trkpt lat="43.3814910" lon="-7.4312910">
        <ele>500.8</ele>
        <time>2021-07-24T08:18:56Z</time>
      </trkpt>
      <trkpt lat="43.3815040" lon="-7.4313080">
        <ele>501.4</ele>
        <time>2021-07-24T08:18:57Z</time>
      </trkpt>
      <trkpt lat="43.3815180" lon="-7.4313250">
        <ele>501.8</ele>
        <time>2021-07-24T08:18:58Z</time>
      </trkpt>
      <trkpt lat="43.3815320" lon="-7.4313410">
        <ele>502.4</ele>
        <time>2021-07-24T08:18:59Z</time>
      </trkpt>
      <trkpt lat="43.3816160" lon="-7.4314510">
        <ele>502.4</ele>
        <time>2021-07-24T08:19:05Z</time>
      </trkpt>
      <trkpt lat="43.3817510" lon="-7.4316130">
        <ele>502.4</ele>
        <time>2021-07-24T08:19:14Z</time>
      </trkpt>
      <trkpt lat="43.3817680" lon="-7.4316280">
        <ele>502.8</ele>
        <time>2021-07-24T08:19:15Z</time>
      </trkpt>
      <trkpt lat="43.3817830" lon="-7.4316420">
        <ele>503.2</ele>
        <time>2021-07-24T08:19:16Z</time>
      </trkpt>
      <trkpt lat="43.3817960" lon="-7.4316530">
        <ele>503.8</ele>
        <time>2021-07-24T08:19:17Z</time>
      </trkpt>
      <trkpt lat="43.3818100" lon="-7.4316640">
        <ele>504.2</ele>
        <time>2021-07-24T08:19:18Z</time>
      </trkpt>
      <trkpt lat="43.3818240" lon="-7.4316790">
        <ele>504.6</ele>
        <time>2021-07-24T08:19:19Z</time>
      </trkpt>
      <trkpt lat="43.3818490" lon="-7.4317070">
        <ele>504.6</ele>
        <time>2021-07-24T08:19:21Z</time>
      </trkpt>
      <trkpt lat="43.3819310" lon="-7.4318270">
        <ele>505.0</ele>
        <time>2021-07-24T08:19:28Z</time>
      </trkpt>
      <trkpt lat="43.3819410" lon="-7.4318510">
        <ele>505.6</ele>
        <time>2021-07-24T08:19:29Z</time>
      </trkpt>
      <trkpt lat="43.3819500" lon="-7.4318750">
        <ele>506.0</ele>
        <time>2021-07-24T08:19:30Z</time>
      </trkpt>
      <trkpt lat="43.3819580" lon="-7.4319010">
        <ele>506.4</ele>
        <time>2021-07-24T08:19:31Z</time>
      </trkpt>
      <trkpt lat="43.3819620" lon="-7.4319260">
        <ele>506.8</ele>
        <time>2021-07-24T08:19:32Z</time>
      </trkpt>
      <trkpt lat="43.3819590" lon="-7.4320190">
        <ele>507.2</ele>
        <time>2021-07-24T08:19:36Z</time>
      </trkpt>
      <trkpt lat="43.3819510" lon="-7.4320430">
        <ele>508.0</ele>
        <time>2021-07-24T08:19:37Z</time>
      </trkpt>
      <trkpt lat="43.3819430" lon="-7.4320660">
        <ele>508.4</ele>
        <time>2021-07-24T08:19:38Z</time>
      </trkpt>
      <trkpt lat="43.3819340" lon="-7.4320900">
        <ele>508.8</ele>
        <time>2021-07-24T08:19:39Z</time>
      </trkpt>
      <trkpt lat="43.3818770" lon="-7.4322290">
        <ele>508.8</ele>
        <time>2021-07-24T08:19:44Z</time>
      </trkpt>
      <trkpt lat="43.3817840" lon="-7.4324230">
        <ele>508.8</ele>
        <time>2021-07-24T08:19:51Z</time>
      </trkpt>
      <trkpt lat="43.3816400" lon="-7.4327070">
        <ele>508.8</ele>
        <time>2021-07-24T08:20:00Z</time>
      </trkpt>
      <trkpt lat="43.3815120" lon="-7.4329440">
        <ele>508.8</ele>
        <time>2021-07-24T08:20:07Z</time>
      </trkpt>
      <trkpt lat="43.3814320" lon="-7.4331070">
        <ele>508.8</ele>
        <time>2021-07-24T08:20:11Z</time>
      </trkpt>
      <trkpt lat="43.3813940" lon="-7.4331780">
        <ele>508.8</ele>
        <time>2021-07-24T08:20:13Z</time>
      </trkpt>
      <trkpt lat="43.3813570" lon="-7.4332500">
        <ele>508.8</ele>
        <time>2021-07-24T08:20:15Z</time>
      </trkpt>
      <trkpt lat="43.3813380" lon="-7.4332900">
        <ele>509.2</ele>
        <time>2021-07-24T08:20:16Z</time>
      </trkpt>
      <trkpt lat="43.3813200" lon="-7.4333300">
        <ele>509.6</ele>
        <time>2021-07-24T08:20:17Z</time>
      </trkpt>
      <trkpt lat="43.3813030" lon="-7.4333710">
        <ele>510.2</ele>
        <time>2021-07-24T08:20:18Z</time>
      </trkpt>
      <trkpt lat="43.3812830" lon="-7.4334120">
        <ele>510.6</ele>
        <time>2021-07-24T08:20:19Z</time>
      </trkpt>
      <trkpt lat="43.3812620" lon="-7.4334520">
        <ele>511.0</ele>
        <time>2021-07-24T08:20:20Z</time>
      </trkpt>
      <trkpt lat="43.3811950" lon="-7.4335710">
        <ele>511.0</ele>
        <time>2021-07-24T08:20:23Z</time>
      </trkpt>
      <trkpt lat="43.3810050" lon="-7.4339330">
        <ele>510.6</ele>
        <time>2021-07-24T08:20:31Z</time>
      </trkpt>
      <trkpt lat="43.3809790" lon="-7.4339810">
        <ele>510.0</ele>
        <time>2021-07-24T08:20:32Z</time>
      </trkpt>
      <trkpt lat="43.3809540" lon="-7.4340310">
        <ele>509.6</ele>
        <time>2021-07-24T08:20:33Z</time>
      </trkpt>
      <trkpt lat="43.3809270" lon="-7.4340830">
        <ele>509.0</ele>
        <time>2021-07-24T08:20:34Z</time>
      </trkpt>
      <trkpt lat="43.3808990" lon="-7.4341350">
        <ele>508.4</ele>
        <time>2021-07-24T08:20:35Z</time>
      </trkpt>
      <trkpt lat="43.3808060" lon="-7.4343050">
        <ele>508.4</ele>
        <time>2021-07-24T08:20:38Z</time>
      </trkpt>
      <trkpt lat="43.3807020" lon="-7.4345000">
        <ele>508.0</ele>
        <time>2021-07-24T08:20:41Z</time>
      </trkpt>
      <trkpt lat="43.3806630" lon="-7.4345720">
        <ele>507.6</ele>
        <time>2021-07-24T08:20:42Z</time>
      </trkpt>
      <trkpt lat="43.3806240" lon="-7.4346470">
        <ele>507.2</ele>
        <time>2021-07-24T08:20:43Z</time>
      </trkpt>
      <trkpt lat="43.3805830" lon="-7.4347250">
        <ele>506.8</ele>
        <time>2021-07-24T08:20:44Z</time>
      </trkpt>
      <trkpt lat="43.3805410" lon="-7.4348030">
        <ele>506.4</ele>
        <time>2021-07-24T08:20:45Z</time>
      </trkpt>
      <trkpt lat="43.3804490" lon="-7.4349660">
        <ele>506.4</ele>
        <time>2021-07-24T08:20:47Z</time>
      </trkpt>
      <trkpt lat="43.3803620" lon="-7.4351290">
        <ele>505.8</ele>
        <time>2021-07-24T08:20:49Z</time>
      </trkpt>
      <trkpt lat="43.3803170" lon="-7.4352120">
        <ele>505.4</ele>
        <time>2021-07-24T08:20:50Z</time>
      </trkpt>
      <trkpt lat="43.3802720" lon="-7.4352990">
        <ele>504.4</ele>
        <time>2021-07-24T08:20:51Z</time>
      </trkpt>
      <trkpt lat="43.3802280" lon="-7.4353900">
        <ele>503.8</ele>
        <time>2021-07-24T08:20:52Z</time>
      </trkpt>
      <trkpt lat="43.3801840" lon="-7.4354880">
        <ele>503.2</ele>
        <time>2021-07-24T08:20:53Z</time>
      </trkpt>
      <trkpt lat="43.3801430" lon="-7.4355790">
        <ele>502.6</ele>
        <time>2021-07-24T08:20:54Z</time>
      </trkpt>
      <trkpt lat="43.3801050" lon="-7.4356650">
        <ele>501.8</ele>
        <time>2021-07-24T08:20:55Z</time>
      </trkpt>
      <trkpt lat="43.3800110" lon="-7.4359080">
        <ele>501.4</ele>
        <time>2021-07-24T08:20:58Z</time>
      </trkpt>
      <trkpt lat="43.3799870" lon="-7.4359810">
        <ele>501.0</ele>
        <time>2021-07-24T08:20:59Z</time>
      </trkpt>
      <trkpt lat="43.3799630" lon="-7.4360450">
        <ele>500.6</ele>
        <time>2021-07-24T08:21:00Z</time>
      </trkpt>
      <trkpt lat="43.3799380" lon="-7.4361060">
        <ele>500.0</ele>
        <time>2021-07-24T08:21:01Z</time>
      </trkpt>
      <trkpt lat="43.3799150" lon="-7.4361610">
        <ele>499.4</ele>
        <time>2021-07-24T08:21:02Z</time>
      </trkpt>
      <trkpt lat="43.3798930" lon="-7.4362150">
        <ele>498.8</ele>
        <time>2021-07-24T08:21:03Z</time>
      </trkpt>
      <trkpt lat="43.3798760" lon="-7.4362670">
        <ele>498.2</ele>
        <time>2021-07-24T08:21:04Z</time>
      </trkpt>
      <trkpt lat="43.3798610" lon="-7.4363180">
        <ele>497.4</ele>
        <time>2021-07-24T08:21:05Z</time>
      </trkpt>
      <trkpt lat="43.3798010" lon="-7.4365440">
        <ele>497.4</ele>
        <time>2021-07-24T08:21:09Z</time>
      </trkpt>
      <trkpt lat="43.3797650" lon="-7.4366710">
        <ele>497.0</ele>
        <time>2021-07-24T08:21:11Z</time>
      </trkpt>
      <trkpt lat="43.3797480" lon="-7.4367430">
        <ele>496.4</ele>
        <time>2021-07-24T08:21:12Z</time>
      </trkpt>
      <trkpt lat="43.3797270" lon="-7.4368180">
        <ele>496.0</ele>
        <time>2021-07-24T08:21:13Z</time>
      </trkpt>
      <trkpt lat="43.3797030" lon="-7.4368950">
        <ele>495.4</ele>
        <time>2021-07-24T08:21:14Z</time>
      </trkpt>
      <trkpt lat="43.3796780" lon="-7.4369770">
        <ele>495.0</ele>
        <time>2021-07-24T08:21:15Z</time>
      </trkpt>
      <trkpt lat="43.3796300" lon="-7.4371440">
        <ele>494.6</ele>
        <time>2021-07-24T08:21:17Z</time>
      </trkpt>
      <trkpt lat="43.3796080" lon="-7.4372230">
        <ele>494.0</ele>
        <time>2021-07-24T08:21:18Z</time>
      </trkpt>
      <trkpt lat="43.3795860" lon="-7.4373060">
        <ele>493.6</ele>
        <time>2021-07-24T08:21:19Z</time>
      </trkpt>
      <trkpt lat="43.3795630" lon="-7.4373890">
        <ele>493.0</ele>
        <time>2021-07-24T08:21:20Z</time>
      </trkpt>
      <trkpt lat="43.3795410" lon="-7.4374730">
        <ele>492.4</ele>
        <time>2021-07-24T08:21:21Z</time>
      </trkpt>
      <trkpt lat="43.3795180" lon="-7.4375550">
        <ele>491.8</ele>
        <time>2021-07-24T08:21:22Z</time>
      </trkpt>
      <trkpt lat="43.3794930" lon="-7.4376360">
        <ele>491.2</ele>
        <time>2021-07-24T08:21:23Z</time>
      </trkpt>
      <trkpt lat="43.3794660" lon="-7.4377230">
        <ele>490.4</ele>
        <time>2021-07-24T08:21:24Z</time>
      </trkpt>
      <trkpt lat="43.3794110" lon="-7.4378910">
        <ele>490.0</ele>
        <time>2021-07-24T08:21:26Z</time>
      </trkpt>
      <trkpt lat="43.3793860" lon="-7.4379770">
        <ele>489.6</ele>
        <time>2021-07-24T08:21:27Z</time>
      </trkpt>
      <trkpt lat="43.3793650" lon="-7.4380630">
        <ele>489.2</ele>
        <time>2021-07-24T08:21:28Z</time>
      </trkpt>
      <trkpt lat="43.3793420" lon="-7.4381460">
        <ele>488.8</ele>
        <time>2021-07-24T08:21:29Z</time>
      </trkpt>
      <trkpt lat="43.3793160" lon="-7.4382270">
        <ele>488.4</ele>
        <time>2021-07-24T08:21:30Z</time>
      </trkpt>
      <trkpt lat="43.3792900" lon="-7.4383110">
        <ele>488.0</ele>
        <time>2021-07-24T08:21:31Z</time>
      </trkpt>
      <trkpt lat="43.3792620" lon="-7.4384030">
        <ele>487.4</ele>
        <time>2021-07-24T08:21:32Z</time>
      </trkpt>
      <trkpt lat="43.3792350" lon="-7.4384910">
        <ele>487.0</ele>
        <time>2021-07-24T08:21:33Z</time>
      </trkpt>
      <trkpt lat="43.3792080" lon="-7.4385790">
        <ele>486.4</ele>
        <time>2021-07-24T08:21:34Z</time>
      </trkpt>
      <trkpt lat="43.3791820" lon="-7.4386680">
        <ele>486.0</ele>
        <time>2021-07-24T08:21:35Z</time>
      </trkpt>
      <trkpt lat="43.3791570" lon="-7.4387530">
        <ele>485.4</ele>
        <time>2021-07-24T08:21:36Z</time>
      </trkpt>
      <trkpt lat="43.3791330" lon="-7.4388330">
        <ele>485.0</ele>
        <time>2021-07-24T08:21:37Z</time>
      </trkpt>
      <trkpt lat="43.3791120" lon="-7.4389110">
        <ele>484.6</ele>
        <time>2021-07-24T08:21:38Z</time>
      </trkpt>
      <trkpt lat="43.3790940" lon="-7.4389890">
        <ele>484.2</ele>
        <time>2021-07-24T08:21:39Z</time>
      </trkpt>
      <trkpt lat="43.3790770" lon="-7.4390610">
        <ele>483.6</ele>
        <time>2021-07-24T08:21:40Z</time>
      </trkpt>
      <trkpt lat="43.3790610" lon="-7.4391310">
        <ele>482.4</ele>
        <time>2021-07-24T08:21:41Z</time>
      </trkpt>
      <trkpt lat="43.3790460" lon="-7.4391990">
        <ele>481.8</ele>
        <time>2021-07-24T08:21:42Z</time>
      </trkpt>
      <trkpt lat="43.3790320" lon="-7.4392660">
        <ele>481.2</ele>
        <time>2021-07-24T08:21:43Z</time>
      </trkpt>
      <trkpt lat="43.3790200" lon="-7.4393340">
        <ele>480.6</ele>
        <time>2021-07-24T08:21:44Z</time>
      </trkpt>
      <trkpt lat="43.3790090" lon="-7.4394040">
        <ele>479.8</ele>
        <time>2021-07-24T08:21:45Z</time>
      </trkpt>
      <trkpt lat="43.3789990" lon="-7.4394810">
        <ele>479.4</ele>
        <time>2021-07-24T08:21:46Z</time>
      </trkpt>
      <trkpt lat="43.3789870" lon="-7.4395570">
        <ele>478.8</ele>
        <time>2021-07-24T08:21:47Z</time>
      </trkpt>
      <trkpt lat="43.3789740" lon="-7.4396360">
        <ele>478.2</ele>
        <time>2021-07-24T08:21:48Z</time>
      </trkpt>
      <trkpt lat="43.3789640" lon="-7.4397190">
        <ele>477.6</ele>
        <time>2021-07-24T08:21:49Z</time>
      </trkpt>
      <trkpt lat="43.3789570" lon="-7.4398050">
        <ele>477.0</ele>
        <time>2021-07-24T08:21:50Z</time>
      </trkpt>
      <trkpt lat="43.3789600" lon="-7.4400820">
        <ele>477.0</ele>
        <time>2021-07-24T08:21:53Z</time>
      </trkpt>
      <trkpt lat="43.3789690" lon="-7.4401830">
        <ele>476.6</ele>
        <time>2021-07-24T08:21:54Z</time>
      </trkpt>
      <trkpt lat="43.3789830" lon="-7.4402820">
        <ele>476.0</ele>
        <time>2021-07-24T08:21:55Z</time>
      </trkpt>
      <trkpt lat="43.3789970" lon="-7.4403750">
        <ele>475.6</ele>
        <time>2021-07-24T08:21:56Z</time>
      </trkpt>
      <trkpt lat="43.3790130" lon="-7.4404620">
        <ele>475.2</ele>
        <time>2021-07-24T08:21:57Z</time>
      </trkpt>
      <trkpt lat="43.3790300" lon="-7.4405430">
        <ele>474.8</ele>
        <time>2021-07-24T08:21:58Z</time>
      </trkpt>
      <trkpt lat="43.3791080" lon="-7.4407780">
        <ele>474.8</ele>
        <time>2021-07-24T08:22:02Z</time>
      </trkpt>
      <trkpt lat="43.3791330" lon="-7.4409140">
        <ele>474.8</ele>
        <time>2021-07-24T08:22:07Z</time>
      </trkpt>
      <trkpt lat="43.3791390" lon="-7.4409600">
        <ele>474.8</ele>
        <time>2021-07-24T08:22:09Z</time>
      </trkpt>
      <trkpt lat="43.3791460" lon="-7.4409820">
        <ele>474.8</ele>
        <time>2021-07-24T08:22:10Z</time>
      </trkpt>
      <trkpt lat="43.3791550" lon="-7.4410230">
        <ele>474.8</ele>
        <time>2021-07-24T08:22:12Z</time>
      </trkpt>
      <trkpt lat="43.3791620" lon="-7.4410430">
        <ele>474.8</ele>
        <time>2021-07-24T08:22:13Z</time>
      </trkpt>
      <trkpt lat="43.3791780" lon="-7.4410830">
        <ele>474.8</ele>
        <time>2021-07-24T08:22:15Z</time>
      </trkpt>
      <trkpt lat="43.3791840" lon="-7.4411020">
        <ele>474.8</ele>
        <time>2021-07-24T08:22:16Z</time>
      </trkpt>
      <trkpt lat="43.3791880" lon="-7.4411420">
        <ele>474.8</ele>
        <time>2021-07-24T08:22:18Z</time>
      </trkpt>
      <trkpt lat="43.3791910" lon="-7.4411630">
        <ele>475.2</ele>
        <time>2021-07-24T08:22:19Z</time>
      </trkpt>
      <trkpt lat="43.3791970" lon="-7.4411830">
        <ele>475.6</ele>
        <time>2021-07-24T08:22:20Z</time>
      </trkpt>
      <trkpt lat="43.3792070" lon="-7.4412000">
        <ele>476.2</ele>
        <time>2021-07-24T08:22:21Z</time>
      </trkpt>
      <trkpt lat="43.3792160" lon="-7.4412170">
        <ele>476.6</ele>
        <time>2021-07-24T08:22:22Z</time>
      </trkpt>
      <trkpt lat="43.3792250" lon="-7.4412350">
        <ele>477.0</ele>
        <time>2021-07-24T08:22:23Z</time>
      </trkpt>
      <trkpt lat="43.3792450" lon="-7.4412890">
        <ele>477.0</ele>
        <time>2021-07-24T08:22:26Z</time>
      </trkpt>
      <trkpt lat="43.3792620" lon="-7.4413460">
        <ele>477.0</ele>
        <time>2021-07-24T08:22:29Z</time>
      </trkpt>
      <trkpt lat="43.3792700" lon="-7.4413660">
        <ele>477.4</ele>
        <time>2021-07-24T08:22:30Z</time>
      </trkpt>
      <trkpt lat="43.3792780" lon="-7.4413840">
        <ele>477.8</ele>
        <time>2021-07-24T08:22:31Z</time>
      </trkpt>
      <trkpt lat="43.3792860" lon="-7.4414050">
        <ele>478.2</ele>
        <time>2021-07-24T08:22:32Z</time>
      </trkpt>
      <trkpt lat="43.3792930" lon="-7.4414230">
        <ele>478.6</ele>
        <time>2021-07-24T08:22:33Z</time>
      </trkpt>
      <trkpt lat="43.3792980" lon="-7.4414420">
        <ele>479.0</ele>
        <time>2021-07-24T08:22:34Z</time>
      </trkpt>
      <trkpt lat="43.3793090" lon="-7.4415050">
        <ele>479.0</ele>
        <time>2021-07-24T08:22:37Z</time>
      </trkpt>
      <trkpt lat="43.3793190" lon="-7.4415440">
        <ele>479.6</ele>
        <time>2021-07-24T08:22:39Z</time>
      </trkpt>
      <trkpt lat="43.3793260" lon="-7.4415620">
        <ele>480.0</ele>
        <time>2021-07-24T08:22:40Z</time>
      </trkpt>
      <trkpt lat="43.3793330" lon="-7.4415820">
        <ele>480.4</ele>
        <time>2021-07-24T08:22:41Z</time>
      </trkpt>
      <trkpt lat="43.3793390" lon="-7.4416000">
        <ele>480.8</ele>
        <time>2021-07-24T08:22:42Z</time>
      </trkpt>
      <trkpt lat="43.3793450" lon="-7.4416180">
        <ele>481.4</ele>
        <time>2021-07-24T08:22:43Z</time>
      </trkpt>
      <trkpt lat="43.3793510" lon="-7.4416380">
        <ele>481.4</ele>
        <time>2021-07-24T08:22:44Z</time>
      </trkpt>
      <trkpt lat="43.3793860" lon="-7.4417400">
        <ele>481.8</ele>
        <time>2021-07-24T08:22:49Z</time>
      </trkpt>
      <trkpt lat="43.3793910" lon="-7.4417620">
        <ele>482.2</ele>
        <time>2021-07-24T08:22:50Z</time>
      </trkpt>
      <trkpt lat="43.3793950" lon="-7.4417840">
        <ele>482.6</ele>
        <time>2021-07-24T08:22:51Z</time>
      </trkpt>
      <trkpt lat="43.3794010" lon="-7.4418070">
        <ele>483.0</ele>
        <time>2021-07-24T08:22:52Z</time>
      </trkpt>
      <trkpt lat="43.3794070" lon="-7.4418290">
        <ele>483.4</ele>
        <time>2021-07-24T08:22:53Z</time>
      </trkpt>
      <trkpt lat="43.3794270" lon="-7.4419100">
        <ele>484.0</ele>
        <time>2021-07-24T08:22:57Z</time>
      </trkpt>
      <trkpt lat="43.3794320" lon="-7.4419300">
        <ele>484.4</ele>
        <time>2021-07-24T08:22:58Z</time>
      </trkpt>
      <trkpt lat="43.3794350" lon="-7.4419490">
        <ele>484.8</ele>
        <time>2021-07-24T08:22:59Z</time>
      </trkpt>
      <trkpt lat="43.3794370" lon="-7.4419690">
        <ele>485.2</ele>
        <time>2021-07-24T08:23:00Z</time>
      </trkpt>
      <trkpt lat="43.3794370" lon="-7.4419920">
        <ele>485.8</ele>
        <time>2021-07-24T08:23:01Z</time>
      </trkpt>
      <trkpt lat="43.3794660" lon="-7.4421170">
        <ele>485.8</ele>
        <time>2021-07-24T08:23:08Z</time>
      </trkpt>
      <trkpt lat="43.3794770" lon="-7.4421780">
        <ele>486.2</ele>
        <time>2021-07-24T08:23:11Z</time>
      </trkpt>
      <trkpt lat="43.3794810" lon="-7.4421960">
        <ele>486.6</ele>
        <time>2021-07-24T08:23:12Z</time>
      </trkpt>
      <trkpt lat="43.3794860" lon="-7.4422130">
        <ele>487.0</ele>
        <time>2021-07-24T08:23:13Z</time>
      </trkpt>
      <trkpt lat="43.3794870" lon="-7.4422310">
        <ele>487.4</ele>
        <time>2021-07-24T08:23:14Z</time>
      </trkpt>
      <trkpt lat="43.3794870" lon="-7.4422490">
        <ele>487.8</ele>
        <time>2021-07-24T08:23:15Z</time>
      </trkpt>
      <trkpt lat="43.3794880" lon="-7.4422700">
        <ele>487.8</ele>
        <time>2021-07-24T08:23:16Z</time>
      </trkpt>
      <trkpt lat="43.3794680" lon="-7.4424130">
        <ele>487.8</ele>
        <time>2021-07-24T08:23:23Z</time>
      </trkpt>
      <trkpt lat="43.3794680" lon="-7.4424330">
        <ele>488.2</ele>
        <time>2021-07-24T08:23:24Z</time>
      </trkpt>
      <trkpt lat="43.3794650" lon="-7.4424550">
        <ele>488.6</ele>
        <time>2021-07-24T08:23:25Z</time>
      </trkpt>
      <trkpt lat="43.3794640" lon="-7.4424750">
        <ele>489.2</ele>
        <time>2021-07-24T08:23:26Z</time>
      </trkpt>
      <trkpt lat="43.3794620" lon="-7.4424970">
        <ele>489.6</ele>
        <time>2021-07-24T08:23:27Z</time>
      </trkpt>
      <trkpt lat="43.3794600" lon="-7.4425190">
        <ele>490.0</ele>
        <time>2021-07-24T08:23:28Z</time>
      </trkpt>
      <trkpt lat="43.3794520" lon="-7.4425640">
        <ele>490.0</ele>
        <time>2021-07-24T08:23:30Z</time>
      </trkpt>
      <trkpt lat="43.3793960" lon="-7.4427180">
        <ele>490.0</ele>
        <time>2021-07-24T08:23:37Z</time>
      </trkpt>
      <trkpt lat="43.3793640" lon="-7.4428150">
        <ele>490.0</ele>
        <time>2021-07-24T08:23:41Z</time>
      </trkpt>
      <trkpt lat="43.3793460" lon="-7.4428770">
        <ele>490.0</ele>
        <time>2021-07-24T08:23:43Z</time>
      </trkpt>
      <trkpt lat="43.3793030" lon="-7.4430020">
        <ele>490.0</ele>
        <time>2021-07-24T08:23:47Z</time>
      </trkpt>
      <trkpt lat="43.3792860" lon="-7.4430720">
        <ele>490.0</ele>
        <time>2021-07-24T08:23:49Z</time>
      </trkpt>
      <trkpt lat="43.3792400" lon="-7.4432080">
        <ele>490.0</ele>
        <time>2021-07-24T08:23:53Z</time>
      </trkpt>
      <trkpt lat="43.3792060" lon="-7.4433100">
        <ele>490.0</ele>
        <time>2021-07-24T08:23:56Z</time>
      </trkpt>
      <trkpt lat="43.3791950" lon="-7.4433420">
        <ele>490.0</ele>
        <time>2021-07-24T08:23:57Z</time>
      </trkpt>
      <trkpt lat="43.3791690" lon="-7.4434030">
        <ele>490.0</ele>
        <time>2021-07-24T08:23:59Z</time>
      </trkpt>
      <trkpt lat="43.3791300" lon="-7.4435050">
        <ele>490.0</ele>
        <time>2021-07-24T08:24:02Z</time>
      </trkpt>
      <trkpt lat="43.3790860" lon="-7.4436260">
        <ele>490.0</ele>
        <time>2021-07-24T08:24:05Z</time>
      </trkpt>
      <trkpt lat="43.3789750" lon="-7.4439590">
        <ele>490.0</ele>
        <time>2021-07-24T08:24:13Z</time>
      </trkpt>
      <trkpt lat="43.3788860" lon="-7.4442210">
        <ele>490.0</ele>
        <time>2021-07-24T08:24:19Z</time>
      </trkpt>
      <trkpt lat="43.3788320" lon="-7.4443610">
        <ele>489.6</ele>
        <time>2021-07-24T08:24:22Z</time>
      </trkpt>
      <trkpt lat="43.3788150" lon="-7.4444140">
        <ele>489.2</ele>
        <time>2021-07-24T08:24:23Z</time>
      </trkpt>
      <trkpt lat="43.3787960" lon="-7.4444680">
        <ele>488.8</ele>
        <time>2021-07-24T08:24:24Z</time>
      </trkpt>
      <trkpt lat="43.3787760" lon="-7.4445270">
        <ele>488.4</ele>
        <time>2021-07-24T08:24:25Z</time>
      </trkpt>
      <trkpt lat="43.3787560" lon="-7.4445810">
        <ele>488.0</ele>
        <time>2021-07-24T08:24:26Z</time>
      </trkpt>
      <trkpt lat="43.3787380" lon="-7.4446340">
        <ele>488.0</ele>
        <time>2021-07-24T08:24:27Z</time>
      </trkpt>
      <trkpt lat="43.3786830" lon="-7.4447790">
        <ele>488.0</ele>
        <time>2021-07-24T08:24:30Z</time>
      </trkpt>
      <trkpt lat="43.3786140" lon="-7.4448990">
        <ele>487.6</ele>
        <time>2021-07-24T08:24:33Z</time>
      </trkpt>
      <trkpt lat="43.3785840" lon="-7.4449270">
        <ele>486.8</ele>
        <time>2021-07-24T08:24:34Z</time>
      </trkpt>
      <trkpt lat="43.3785500" lon="-7.4449530">
        <ele>486.4</ele>
        <time>2021-07-24T08:24:35Z</time>
      </trkpt>
      <trkpt lat="43.3785120" lon="-7.4449730">
        <ele>486.0</ele>
        <time>2021-07-24T08:24:36Z</time>
      </trkpt>
      <trkpt lat="43.3784620" lon="-7.4449810">
        <ele>486.0</ele>
        <time>2021-07-24T08:24:37Z</time>
      </trkpt>
      <trkpt lat="43.3782210" lon="-7.4449650">
        <ele>486.0</ele>
        <time>2021-07-24T08:24:41Z</time>
      </trkpt>
      <trkpt lat="43.3781540" lon="-7.4449720">
        <ele>485.4</ele>
        <time>2021-07-24T08:24:42Z</time>
      </trkpt>
      <trkpt lat="43.3780890" lon="-7.4449870">
        <ele>485.0</ele>
        <time>2021-07-24T08:24:43Z</time>
      </trkpt>
      <trkpt lat="43.3780290" lon="-7.4450080">
        <ele>484.6</ele>
        <time>2021-07-24T08:24:44Z</time>
      </trkpt>
      <trkpt lat="43.3779740" lon="-7.4450340">
        <ele>484.2</ele>
        <time>2021-07-24T08:24:45Z</time>
      </trkpt>
      <trkpt lat="43.3779250" lon="-7.4450610">
        <ele>483.8</ele>
        <time>2021-07-24T08:24:46Z</time>
      </trkpt>
      <trkpt lat="43.3778810" lon="-7.4450890">
        <ele>483.8</ele>
        <time>2021-07-24T08:24:47Z</time>
      </trkpt>
      <trkpt lat="43.3778250" lon="-7.4451310">
        <ele>483.8</ele>
        <time>2021-07-24T08:24:49Z</time>
      </trkpt>
      <trkpt lat="43.3777280" lon="-7.4452050">
        <ele>483.8</ele>
        <time>2021-07-24T08:24:55Z</time>
      </trkpt>
      <trkpt lat="43.3777110" lon="-7.4452200">
        <ele>483.8</ele>
        <time>2021-07-24T08:24:56Z</time>
      </trkpt>
      <trkpt lat="43.3776840" lon="-7.4452450">
        <ele>483.8</ele>
        <time>2021-07-24T08:24:58Z</time>
      </trkpt>
      <trkpt lat="43.3776720" lon="-7.4452610">
        <ele>483.8</ele>
        <time>2021-07-24T08:24:59Z</time>
      </trkpt>
      <trkpt lat="43.3776610" lon="-7.4452780">
        <ele>483.8</ele>
        <time>2021-07-24T08:25:00Z</time>
      </trkpt>
      <trkpt lat="43.3776490" lon="-7.4452930">
        <ele>483.8</ele>
        <time>2021-07-24T08:25:01Z</time>
      </trkpt>
      <trkpt lat="43.3776280" lon="-7.4453280">
        <ele>484.2</ele>
        <time>2021-07-24T08:25:03Z</time>
      </trkpt>
      <trkpt lat="43.3776200" lon="-7.4453500">
        <ele>484.6</ele>
        <time>2021-07-24T08:25:04Z</time>
      </trkpt>
      <trkpt lat="43.3776130" lon="-7.4453730">
        <ele>485.0</ele>
        <time>2021-07-24T08:25:05Z</time>
      </trkpt>
      <trkpt lat="43.3776080" lon="-7.4453960">
        <ele>485.4</ele>
        <time>2021-07-24T08:25:06Z</time>
      </trkpt>
      <trkpt lat="43.3776070" lon="-7.4454200">
        <ele>485.8</ele>
        <time>2021-07-24T08:25:07Z</time>
      </trkpt>
      <trkpt lat="43.3776170" lon="-7.4454630">
        <ele>485.8</ele>
        <time>2021-07-24T08:25:09Z</time>
      </trkpt>
      <trkpt lat="43.3776360" lon="-7.4454960">
        <ele>486.2</ele>
        <time>2021-07-24T08:25:11Z</time>
      </trkpt>
      <trkpt lat="43.3776450" lon="-7.4455120">
        <ele>486.6</ele>
        <time>2021-07-24T08:25:12Z</time>
      </trkpt>
      <trkpt lat="43.3776550" lon="-7.4455280">
        <ele>487.0</ele>
        <time>2021-07-24T08:25:13Z</time>
      </trkpt>
      <trkpt lat="43.3776630" lon="-7.4455420">
        <ele>487.4</ele>
        <time>2021-07-24T08:25:14Z</time>
      </trkpt>
      <trkpt lat="43.3776730" lon="-7.4455500">
        <ele>487.8</ele>
        <time>2021-07-24T08:25:15Z</time>
      </trkpt>
      <trkpt lat="43.3777140" lon="-7.4455740">
        <ele>487.8</ele>
        <time>2021-07-24T08:25:18Z</time>
      </trkpt>
      <trkpt lat="43.3777570" lon="-7.4456050">
        <ele>487.8</ele>
        <time>2021-07-24T08:25:21Z</time>
      </trkpt>
      <trkpt lat="43.3778020" lon="-7.4456540">
        <ele>487.8</ele>
        <time>2021-07-24T08:25:25Z</time>
      </trkpt>
      <trkpt lat="43.3778660" lon="-7.4457010">
        <ele>488.4</ele>
        <time>2021-07-24T08:25:30Z</time>
      </trkpt>
      <trkpt lat="43.3778790" lon="-7.4457120">
        <ele>488.8</ele>
        <time>2021-07-24T08:25:31Z</time>
      </trkpt>
      <trkpt lat="43.3778940" lon="-7.4457210">
        <ele>489.2</ele>
        <time>2021-07-24T08:25:32Z</time>
      </trkpt>
      <trkpt lat="43.3779070" lon="-7.4457280">
        <ele>489.6</ele>
        <time>2021-07-24T08:25:33Z</time>
      </trkpt>
      <trkpt lat="43.3779180" lon="-7.4457410">
        <ele>490.0</ele>
        <time>2021-07-24T08:25:34Z</time>
      </trkpt>
      <trkpt lat="43.3779740" lon="-7.4457960">
        <ele>490.0</ele>
        <time>2021-07-24T08:25:39Z</time>
      </trkpt>
      <trkpt lat="43.3780510" lon="-7.4458850">
        <ele>490.4</ele>
        <time>2021-07-24T08:25:46Z</time>
      </trkpt>
      <trkpt lat="43.3780590" lon="-7.4458990">
        <ele>490.8</ele>
        <time>2021-07-24T08:25:47Z</time>
      </trkpt>
      <trkpt lat="43.3780700" lon="-7.4459110">
        <ele>491.6</ele>
        <time>2021-07-24T08:25:48Z</time>
      </trkpt>
      <trkpt lat="43.3780810" lon="-7.4459210">
        <ele>492.0</ele>
        <time>2021-07-24T08:25:49Z</time>
      </trkpt>
      <trkpt lat="43.3781480" lon="-7.4459930">
        <ele>492.0</ele>
        <time>2021-07-24T08:25:55Z</time>
      </trkpt>
      <trkpt lat="43.3781840" lon="-7.4460700">
        <ele>492.6</ele>
        <time>2021-07-24T08:25:59Z</time>
      </trkpt>
      <trkpt lat="43.3781940" lon="-7.4460820">
        <ele>493.0</ele>
        <time>2021-07-24T08:26:00Z</time>
      </trkpt>
      <trkpt lat="43.3782050" lon="-7.4460950">
        <ele>493.4</ele>
        <time>2021-07-24T08:26:01Z</time>
      </trkpt>
      <trkpt lat="43.3782160" lon="-7.4461100">
        <ele>493.8</ele>
        <time>2021-07-24T08:26:02Z</time>
      </trkpt>
      <trkpt lat="43.3782250" lon="-7.4461240">
        <ele>494.2</ele>
        <time>2021-07-24T08:26:03Z</time>
      </trkpt>
      <trkpt lat="43.3783130" lon="-7.4462520">
        <ele>494.6</ele>
        <time>2021-07-24T08:26:12Z</time>
      </trkpt>
      <trkpt lat="43.3783260" lon="-7.4462640">
        <ele>495.0</ele>
        <time>2021-07-24T08:26:13Z</time>
      </trkpt>
      <trkpt lat="43.3783360" lon="-7.4462750">
        <ele>495.4</ele>
        <time>2021-07-24T08:26:14Z</time>
      </trkpt>
      <trkpt lat="43.3783470" lon="-7.4462890">
        <ele>495.8</ele>
        <time>2021-07-24T08:26:15Z</time>
      </trkpt>
      <trkpt lat="43.3783560" lon="-7.4463040">
        <ele>496.2</ele>
        <time>2021-07-24T08:26:16Z</time>
      </trkpt>
      <trkpt lat="43.3784030" lon="-7.4463760">
        <ele>496.2</ele>
        <time>2021-07-24T08:26:21Z</time>
      </trkpt>
      <trkpt lat="43.3784270" lon="-7.4464280">
        <ele>496.8</ele>
        <time>2021-07-24T08:26:24Z</time>
      </trkpt>
      <trkpt lat="43.3784340" lon="-7.4464440">
        <ele>497.2</ele>
        <time>2021-07-24T08:26:25Z</time>
      </trkpt>
      <trkpt lat="43.3784420" lon="-7.4464580">
        <ele>497.6</ele>
        <time>2021-07-24T08:26:26Z</time>
      </trkpt>
      <trkpt lat="43.3784510" lon="-7.4464740">
        <ele>498.0</ele>
        <time>2021-07-24T08:26:27Z</time>
      </trkpt>
      <trkpt lat="43.3784570" lon="-7.4464930">
        <ele>498.4</ele>
        <time>2021-07-24T08:26:28Z</time>
      </trkpt>
      <trkpt lat="43.3784620" lon="-7.4465110">
        <ele>498.4</ele>
        <time>2021-07-24T08:26:29Z</time>
      </trkpt>
      <trkpt lat="43.3785230" lon="-7.4466100">
        <ele>498.4</ele>
        <time>2021-07-24T08:26:36Z</time>
      </trkpt>
      <trkpt lat="43.3785290" lon="-7.4466280">
        <ele>498.8</ele>
        <time>2021-07-24T08:26:37Z</time>
      </trkpt>
      <trkpt lat="43.3785340" lon="-7.4466440">
        <ele>499.4</ele>
        <time>2021-07-24T08:26:38Z</time>
      </trkpt>
      <trkpt lat="43.3785410" lon="-7.4466600">
        <ele>499.8</ele>
        <time>2021-07-24T08:26:39Z</time>
      </trkpt>
      <trkpt lat="43.3785490" lon="-7.4466780">
        <ele>500.2</ele>
        <time>2021-07-24T08:26:40Z</time>
      </trkpt>
      <trkpt lat="43.3785590" lon="-7.4466940">
        <ele>500.6</ele>
        <time>2021-07-24T08:26:41Z</time>
      </trkpt>
      <trkpt lat="43.3785890" lon="-7.4467540">
        <ele>500.6</ele>
        <time>2021-07-24T08:26:45Z</time>
      </trkpt>
      <trkpt lat="43.3786080" lon="-7.4468280">
        <ele>501.0</ele>
        <time>2021-07-24T08:26:49Z</time>
      </trkpt>
      <trkpt lat="43.3786140" lon="-7.4468420">
        <ele>501.4</ele>
        <time>2021-07-24T08:26:50Z</time>
      </trkpt>
      <trkpt lat="43.3786230" lon="-7.4468530">
        <ele>501.8</ele>
        <time>2021-07-24T08:26:51Z</time>
      </trkpt>
      <trkpt lat="43.3786310" lon="-7.4468610">
        <ele>502.2</ele>
        <time>2021-07-24T08:26:52Z</time>
      </trkpt>
      <trkpt lat="43.3786400" lon="-7.4468710">
        <ele>502.8</ele>
        <time>2021-07-24T08:26:53Z</time>
      </trkpt>
      <trkpt lat="43.3786870" lon="-7.4469990">
        <ele>502.8</ele>
        <time>2021-07-24T08:27:01Z</time>
      </trkpt>
      <trkpt lat="43.3787000" lon="-7.4470350">
        <ele>503.2</ele>
        <time>2021-07-24T08:27:03Z</time>
      </trkpt>
      <trkpt lat="43.3787030" lon="-7.4470550">
        <ele>503.6</ele>
        <time>2021-07-24T08:27:04Z</time>
      </trkpt>
      <trkpt lat="43.3787050" lon="-7.4470750">
        <ele>504.0</ele>
        <time>2021-07-24T08:27:05Z</time>
      </trkpt>
      <trkpt lat="43.3787100" lon="-7.4470930">
        <ele>504.4</ele>
        <time>2021-07-24T08:27:06Z</time>
      </trkpt>
      <trkpt lat="43.3787160" lon="-7.4471130">
        <ele>504.8</ele>
        <time>2021-07-24T08:27:07Z</time>
      </trkpt>
      <trkpt lat="43.3787220" lon="-7.4471310">
        <ele>504.8</ele>
        <time>2021-07-24T08:27:08Z</time>
      </trkpt>
      <trkpt lat="43.3787730" lon="-7.4472950">
        <ele>505.2</ele>
        <time>2021-07-24T08:27:16Z</time>
      </trkpt>
      <trkpt lat="43.3787810" lon="-7.4473160">
        <ele>505.6</ele>
        <time>2021-07-24T08:27:17Z</time>
      </trkpt>
      <trkpt lat="43.3787850" lon="-7.4473350">
        <ele>506.0</ele>
        <time>2021-07-24T08:27:18Z</time>
      </trkpt>
      <trkpt lat="43.3787900" lon="-7.4473560">
        <ele>506.4</ele>
        <time>2021-07-24T08:27:19Z</time>
      </trkpt>
      <trkpt lat="43.3787970" lon="-7.4473770">
        <ele>506.8</ele>
        <time>2021-07-24T08:27:20Z</time>
      </trkpt>
      <trkpt lat="43.3788400" lon="-7.4474860">
        <ele>506.8</ele>
        <time>2021-07-24T08:27:26Z</time>
      </trkpt>
      <trkpt lat="43.3788750" lon="-7.4476310">
        <ele>506.8</ele>
        <time>2021-07-24T08:27:33Z</time>
      </trkpt>
      <trkpt lat="43.3788780" lon="-7.4476490">
        <ele>507.2</ele>
        <time>2021-07-24T08:27:34Z</time>
      </trkpt>
      <trkpt lat="43.3788780" lon="-7.4476680">
        <ele>507.6</ele>
        <time>2021-07-24T08:27:35Z</time>
      </trkpt>
      <trkpt lat="43.3788760" lon="-7.4476880">
        <ele>508.0</ele>
        <time>2021-07-24T08:27:36Z</time>
      </trkpt>
      <trkpt lat="43.3788710" lon="-7.4477080">
        <ele>508.4</ele>
        <time>2021-07-24T08:27:37Z</time>
      </trkpt>
      <trkpt lat="43.3788620" lon="-7.4477300">
        <ele>508.8</ele>
        <time>2021-07-24T08:27:38Z</time>
      </trkpt>
      <trkpt lat="43.3788410" lon="-7.4477760">
        <ele>508.8</ele>
        <time>2021-07-24T08:27:40Z</time>
      </trkpt>
      <trkpt lat="43.3787440" lon="-7.4478790">
        <ele>508.8</ele>
        <time>2021-07-24T08:27:46Z</time>
      </trkpt>
      <trkpt lat="43.3786040" lon="-7.4479450">
        <ele>508.8</ele>
        <time>2021-07-24T08:27:51Z</time>
      </trkpt>
      <trkpt lat="43.3785450" lon="-7.4479790">
        <ele>508.8</ele>
        <time>2021-07-24T08:27:53Z</time>
      </trkpt>
      <trkpt lat="43.3785140" lon="-7.4479960">
        <ele>508.8</ele>
        <time>2021-07-24T08:27:54Z</time>
      </trkpt>
      <trkpt lat="43.3784460" lon="-7.4480370">
        <ele>508.8</ele>
        <time>2021-07-24T08:27:56Z</time>
      </trkpt>
      <trkpt lat="43.3782690" lon="-7.4481250">
        <ele>508.8</ele>
        <time>2021-07-24T08:28:01Z</time>
      </trkpt>
      <trkpt lat="43.3780640" lon="-7.4482120">
        <ele>508.8</ele>
        <time>2021-07-24T08:28:06Z</time>
      </trkpt>
      <trkpt lat="43.3779740" lon="-7.4482410">
        <ele>508.8</ele>
        <time>2021-07-24T08:28:08Z</time>
      </trkpt>
      <trkpt lat="43.3778800" lon="-7.4482700">
        <ele>508.8</ele>
        <time>2021-07-24T08:28:10Z</time>
      </trkpt>
      <trkpt lat="43.3777450" lon="-7.4483050">
        <ele>508.8</ele>
        <time>2021-07-24T08:28:13Z</time>
      </trkpt>
      <trkpt lat="43.3776570" lon="-7.4483290">
        <ele>508.4</ele>
        <time>2021-07-24T08:28:15Z</time>
      </trkpt>
      <trkpt lat="43.3776090" lon="-7.4483440">
        <ele>508.0</ele>
        <time>2021-07-24T08:28:16Z</time>
      </trkpt>
      <trkpt lat="43.3775640" lon="-7.4483560">
        <ele>507.2</ele>
        <time>2021-07-24T08:28:17Z</time>
      </trkpt>
      <trkpt lat="43.3775120" lon="-7.4483680">
        <ele>506.8</ele>
        <time>2021-07-24T08:28:18Z</time>
      </trkpt>
      <trkpt lat="43.3772660" lon="-7.4484170">
        <ele>506.8</ele>
        <time>2021-07-24T08:28:23Z</time>
      </trkpt>
      <trkpt lat="43.3771630" lon="-7.4484440">
        <ele>506.8</ele>
        <time>2021-07-24T08:28:25Z</time>
      </trkpt>
      <trkpt lat="43.3770530" lon="-7.4484670">
        <ele>506.8</ele>
        <time>2021-07-24T08:28:27Z</time>
      </trkpt>
      <trkpt lat="43.3768690" lon="-7.4485100">
        <ele>506.8</ele>
        <time>2021-07-24T08:28:30Z</time>
      </trkpt>
      <trkpt lat="43.3767290" lon="-7.4485400">
        <ele>506.4</ele>
        <time>2021-07-24T08:28:32Z</time>
      </trkpt>
      <trkpt lat="43.3766510" lon="-7.4485550">
        <ele>505.8</ele>
        <time>2021-07-24T08:28:33Z</time>
      </trkpt>
      <trkpt lat="43.3765730" lon="-7.4485720">
        <ele>505.4</ele>
        <time>2021-07-24T08:28:34Z</time>
      </trkpt>
      <trkpt lat="43.3764940" lon="-7.4485910">
        <ele>505.0</ele>
        <time>2021-07-24T08:28:35Z</time>
      </trkpt>
      <trkpt lat="43.3764150" lon="-7.4486090">
        <ele>504.6</ele>
        <time>2021-07-24T08:28:36Z</time>
      </trkpt>
      <trkpt lat="43.3761850" lon="-7.4486620">
        <ele>504.2</ele>
        <time>2021-07-24T08:28:39Z</time>
      </trkpt>
      <trkpt lat="43.3761040" lon="-7.4486790">
        <ele>503.6</ele>
        <time>2021-07-24T08:28:40Z</time>
      </trkpt>
      <trkpt lat="43.3760260" lon="-7.4486990">
        <ele>502.6</ele>
        <time>2021-07-24T08:28:41Z</time>
      </trkpt>
      <trkpt lat="43.3759460" lon="-7.4487190">
        <ele>502.0</ele>
        <time>2021-07-24T08:28:42Z</time>
      </trkpt>
      <trkpt lat="43.3758620" lon="-7.4487400">
        <ele>501.4</ele>
        <time>2021-07-24T08:28:43Z</time>
      </trkpt>
      <trkpt lat="43.3757740" lon="-7.4487650">
        <ele>500.8</ele>
        <time>2021-07-24T08:28:44Z</time>
      </trkpt>
      <trkpt lat="43.3756840" lon="-7.4487940">
        <ele>500.2</ele>
        <time>2021-07-24T08:28:45Z</time>
      </trkpt>
      <trkpt lat="43.3755950" lon="-7.4488270">
        <ele>499.6</ele>
        <time>2021-07-24T08:28:46Z</time>
      </trkpt>
      <trkpt lat="43.3755050" lon="-7.4488640">
        <ele>499.0</ele>
        <time>2021-07-24T08:28:47Z</time>
      </trkpt>
      <trkpt lat="43.3754110" lon="-7.4489070">
        <ele>498.4</ele>
        <time>2021-07-24T08:28:48Z</time>
      </trkpt>
      <trkpt lat="43.3753230" lon="-7.4489490">
        <ele>497.8</ele>
        <time>2021-07-24T08:28:49Z</time>
      </trkpt>
      <trkpt lat="43.3752360" lon="-7.4489920">
        <ele>497.0</ele>
        <time>2021-07-24T08:28:50Z</time>
      </trkpt>
      <trkpt lat="43.3751490" lon="-7.4490370">
        <ele>496.4</ele>
        <time>2021-07-24T08:28:51Z</time>
      </trkpt>
      <trkpt lat="43.3750620" lon="-7.4490830">
        <ele>495.6</ele>
        <time>2021-07-24T08:28:52Z</time>
      </trkpt>
      <trkpt lat="43.3749790" lon="-7.4491300">
        <ele>495.0</ele>
        <time>2021-07-24T08:28:53Z</time>
      </trkpt>
      <trkpt lat="43.3747220" lon="-7.4492600">
        <ele>494.4</ele>
        <time>2021-07-24T08:28:56Z</time>
      </trkpt>
      <trkpt lat="43.3746420" lon="-7.4492990">
        <ele>494.0</ele>
        <time>2021-07-24T08:28:57Z</time>
      </trkpt>
      <trkpt lat="43.3745640" lon="-7.4493370">
        <ele>493.6</ele>
        <time>2021-07-24T08:28:58Z</time>
      </trkpt>
      <trkpt lat="43.3744910" lon="-7.4493730">
        <ele>492.8</ele>
        <time>2021-07-24T08:28:59Z</time>
      </trkpt>
      <trkpt lat="43.3744260" lon="-7.4494060">
        <ele>492.0</ele>
        <time>2021-07-24T08:29:00Z</time>
      </trkpt>
      <trkpt lat="43.3743650" lon="-7.4494380">
        <ele>491.2</ele>
        <time>2021-07-24T08:29:01Z</time>
      </trkpt>
      <trkpt lat="43.3743080" lon="-7.4494680">
        <ele>490.4</ele>
        <time>2021-07-24T08:29:02Z</time>
      </trkpt>
      <trkpt lat="43.3742510" lon="-7.4494970">
        <ele>489.6</ele>
        <time>2021-07-24T08:29:03Z</time>
      </trkpt>
      <trkpt lat="43.3741980" lon="-7.4495200">
        <ele>488.6</ele>
        <time>2021-07-24T08:29:04Z</time>
      </trkpt>
      <trkpt lat="43.3741470" lon="-7.4495430">
        <ele>487.8</ele>
        <time>2021-07-24T08:29:05Z</time>
      </trkpt>
      <trkpt lat="43.3740980" lon="-7.4495640">
        <ele>486.2</ele>
        <time>2021-07-24T08:29:06Z</time>
      </trkpt>
      <trkpt lat="43.3740510" lon="-7.4495870">
        <ele>485.4</ele>
        <time>2021-07-24T08:29:07Z</time>
      </trkpt>
      <trkpt lat="43.3740030" lon="-7.4496100">
        <ele>485.0</ele>
        <time>2021-07-24T08:29:08Z</time>
      </trkpt>
      <trkpt lat="43.3739580" lon="-7.4496360">
        <ele>484.6</ele>
        <time>2021-07-24T08:29:09Z</time>
      </trkpt>
      <trkpt lat="43.3739160" lon="-7.4496630">
        <ele>484.2</ele>
        <time>2021-07-24T08:29:10Z</time>
      </trkpt>
      <trkpt lat="43.3738760" lon="-7.4496940">
        <ele>483.8</ele>
        <time>2021-07-24T08:29:11Z</time>
      </trkpt>
      <trkpt lat="43.3738400" lon="-7.4497260">
        <ele>483.4</ele>
        <time>2021-07-24T08:29:12Z</time>
      </trkpt>
      <trkpt lat="43.3737710" lon="-7.4497950">
        <ele>483.4</ele>
        <time>2021-07-24T08:29:14Z</time>
      </trkpt>
      <trkpt lat="43.3737070" lon="-7.4498530">
        <ele>483.4</ele>
        <time>2021-07-24T08:29:16Z</time>
      </trkpt>
      <trkpt lat="43.3736770" lon="-7.4498780">
        <ele>483.4</ele>
        <time>2021-07-24T08:29:17Z</time>
      </trkpt>
      <trkpt lat="43.3736170" lon="-7.4499200">
        <ele>483.4</ele>
        <time>2021-07-24T08:29:19Z</time>
      </trkpt>
      <trkpt lat="43.3734940" lon="-7.4500480">
        <ele>483.4</ele>
        <time>2021-07-24T08:29:24Z</time>
      </trkpt>
      <trkpt lat="43.3734170" lon="-7.4501240">
        <ele>483.4</ele>
        <time>2021-07-24T08:29:27Z</time>
      </trkpt>
      <trkpt lat="43.3733660" lon="-7.4501780">
        <ele>483.4</ele>
        <time>2021-07-24T08:29:29Z</time>
      </trkpt>
      <trkpt lat="43.3733400" lon="-7.4502120">
        <ele>483.8</ele>
        <time>2021-07-24T08:29:30Z</time>
      </trkpt>
      <trkpt lat="43.3733110" lon="-7.4502420">
        <ele>484.6</ele>
        <time>2021-07-24T08:29:31Z</time>
      </trkpt>
      <trkpt lat="43.3732840" lon="-7.4502710">
        <ele>485.0</ele>
        <time>2021-07-24T08:29:32Z</time>
      </trkpt>
      <trkpt lat="43.3732580" lon="-7.4503000">
        <ele>485.4</ele>
        <time>2021-07-24T08:29:33Z</time>
      </trkpt>
      <trkpt lat="43.3731840" lon="-7.4503840">
        <ele>485.4</ele>
        <time>2021-07-24T08:29:36Z</time>
      </trkpt>
      <trkpt lat="43.3731070" lon="-7.4504740">
        <ele>485.4</ele>
        <time>2021-07-24T08:29:39Z</time>
      </trkpt>
      <trkpt lat="43.3730520" lon="-7.4505340">
        <ele>485.8</ele>
        <time>2021-07-24T08:29:41Z</time>
      </trkpt>
      <trkpt lat="43.3730230" lon="-7.4505610">
        <ele>486.2</ele>
        <time>2021-07-24T08:29:42Z</time>
      </trkpt>
      <trkpt lat="43.3729990" lon="-7.4505840">
        <ele>486.6</ele>
        <time>2021-07-24T08:29:43Z</time>
      </trkpt>
      <trkpt lat="43.3729750" lon="-7.4506100">
        <ele>487.0</ele>
        <time>2021-07-24T08:29:44Z</time>
      </trkpt>
      <trkpt lat="43.3729560" lon="-7.4506350">
        <ele>487.4</ele>
        <time>2021-07-24T08:29:45Z</time>
      </trkpt>
      <trkpt lat="43.3728000" lon="-7.4508070">
        <ele>487.4</ele>
        <time>2021-07-24T08:29:51Z</time>
      </trkpt>
      <trkpt lat="43.3726020" lon="-7.4509950">
        <ele>487.4</ele>
        <time>2021-07-24T08:29:58Z</time>
      </trkpt>
      <trkpt lat="43.3724150" lon="-7.4511550">
        <ele>487.4</ele>
        <time>2021-07-24T08:30:05Z</time>
      </trkpt>
      <trkpt lat="43.3722120" lon="-7.4513180">
        <ele>487.4</ele>
        <time>2021-07-24T08:30:11Z</time>
      </trkpt>
      <trkpt lat="43.3720120" lon="-7.4514890">
        <ele>488.0</ele>
        <time>2021-07-24T08:30:17Z</time>
      </trkpt>
      <trkpt lat="43.3719810" lon="-7.4515180">
        <ele>488.4</ele>
        <time>2021-07-24T08:30:18Z</time>
      </trkpt>
      <trkpt lat="43.3719500" lon="-7.4515470">
        <ele>488.8</ele>
        <time>2021-07-24T08:30:19Z</time>
      </trkpt>
      <trkpt lat="43.3719190" lon="-7.4515770">
        <ele>489.8</ele>
        <time>2021-07-24T08:30:20Z</time>
      </trkpt>
      <trkpt lat="43.3717140" lon="-7.4517830">
        <ele>489.8</ele>
        <time>2021-07-24T08:30:26Z</time>
      </trkpt>
      <trkpt lat="43.3715910" lon="-7.4519430">
        <ele>489.8</ele>
        <time>2021-07-24T08:30:30Z</time>
      </trkpt>
      <trkpt lat="43.3715270" lon="-7.4520410">
        <ele>489.8</ele>
        <time>2021-07-24T08:30:32Z</time>
      </trkpt>
      <trkpt lat="43.3714050" lon="-7.4522380">
        <ele>489.8</ele>
        <time>2021-07-24T08:30:36Z</time>
      </trkpt>
      <trkpt lat="43.3713520" lon="-7.4523450">
        <ele>489.8</ele>
        <time>2021-07-24T08:30:38Z</time>
      </trkpt>
      <trkpt lat="43.3713110" lon="-7.4524580">
        <ele>489.8</ele>
        <time>2021-07-24T08:30:40Z</time>
      </trkpt>
      <trkpt lat="43.3712790" lon="-7.4525780">
        <ele>489.8</ele>
        <time>2021-07-24T08:30:42Z</time>
      </trkpt>
      <trkpt lat="43.3712520" lon="-7.4526950">
        <ele>489.8</ele>
        <time>2021-07-24T08:30:44Z</time>
      </trkpt>
      <trkpt lat="43.3712290" lon="-7.4528150">
        <ele>489.8</ele>
        <time>2021-07-24T08:30:46Z</time>
      </trkpt>
      <trkpt lat="43.3712230" lon="-7.4528750">
        <ele>489.8</ele>
        <time>2021-07-24T08:30:47Z</time>
      </trkpt>
      <trkpt lat="43.3712090" lon="-7.4529960">
        <ele>489.2</ele>
        <time>2021-07-24T08:30:49Z</time>
      </trkpt>
      <trkpt lat="43.3712060" lon="-7.4530580">
        <ele>488.8</ele>
        <time>2021-07-24T08:30:50Z</time>
      </trkpt>
      <trkpt lat="43.3712050" lon="-7.4531240">
        <ele>488.4</ele>
        <time>2021-07-24T08:30:51Z</time>
      </trkpt>
      <trkpt lat="43.3712010" lon="-7.4531880">
        <ele>487.8</ele>
        <time>2021-07-24T08:30:52Z</time>
      </trkpt>
      <trkpt lat="43.3711930" lon="-7.4532830">
        <ele>487.4</ele>
        <time>2021-07-24T08:30:54Z</time>
      </trkpt>
      <trkpt lat="43.3711880" lon="-7.4533420">
        <ele>487.4</ele>
        <time>2021-07-24T08:30:55Z</time>
      </trkpt>
      <trkpt lat="43.3711710" lon="-7.4537540">
        <ele>487.4</ele>
        <time>2021-07-24T08:31:02Z</time>
      </trkpt>
      <trkpt lat="43.3711830" lon="-7.4538800">
        <ele>487.4</ele>
        <time>2021-07-24T08:31:04Z</time>
      </trkpt>
      <trkpt lat="43.3711970" lon="-7.4540030">
        <ele>487.4</ele>
        <time>2021-07-24T08:31:06Z</time>
      </trkpt>
      <trkpt lat="43.3712370" lon="-7.4541840">
        <ele>487.4</ele>
        <time>2021-07-24T08:31:09Z</time>
      </trkpt>
      <trkpt lat="43.3713750" lon="-7.4545180">
        <ele>487.4</ele>
        <time>2021-07-24T08:31:15Z</time>
      </trkpt>
      <trkpt lat="43.3714670" lon="-7.4547830">
        <ele>487.4</ele>
        <time>2021-07-24T08:31:19Z</time>
      </trkpt>
      <trkpt lat="43.3714770" lon="-7.4548630">
        <ele>487.4</ele>
        <time>2021-07-24T08:31:20Z</time>
      </trkpt>
      <trkpt lat="43.3714820" lon="-7.4549450">
        <ele>487.4</ele>
        <time>2021-07-24T08:31:21Z</time>
      </trkpt>
      <trkpt lat="43.3714830" lon="-7.4550290">
        <ele>486.6</ele>
        <time>2021-07-24T08:31:22Z</time>
      </trkpt>
      <trkpt lat="43.3714820" lon="-7.4551250">
        <ele>486.0</ele>
        <time>2021-07-24T08:31:23Z</time>
      </trkpt>
      <trkpt lat="43.3714730" lon="-7.4552260">
        <ele>485.6</ele>
        <time>2021-07-24T08:31:24Z</time>
      </trkpt>
      <trkpt lat="43.3714630" lon="-7.4553280">
        <ele>485.2</ele>
        <time>2021-07-24T08:31:25Z</time>
      </trkpt>
      <trkpt lat="43.3714250" lon="-7.4556370">
        <ele>485.2</ele>
        <time>2021-07-24T08:31:28Z</time>
      </trkpt>
      <trkpt lat="43.3714000" lon="-7.4558370">
        <ele>484.8</ele>
        <time>2021-07-24T08:31:30Z</time>
      </trkpt>
      <trkpt lat="43.3713890" lon="-7.4559280">
        <ele>484.2</ele>
        <time>2021-07-24T08:31:31Z</time>
      </trkpt>
      <trkpt lat="43.3713820" lon="-7.4560060">
        <ele>483.8</ele>
        <time>2021-07-24T08:31:32Z</time>
      </trkpt>
      <trkpt lat="43.3713740" lon="-7.4560780">
        <ele>483.0</ele>
        <time>2021-07-24T08:31:33Z</time>
      </trkpt>
      <trkpt lat="43.3713670" lon="-7.4561440">
        <ele>482.2</ele>
        <time>2021-07-24T08:31:34Z</time>
      </trkpt>
      <trkpt lat="43.3713580" lon="-7.4562000">
        <ele>481.4</ele>
        <time>2021-07-24T08:31:35Z</time>
      </trkpt>
      <trkpt lat="43.3713560" lon="-7.4562400">
        <ele>480.6</ele>
        <time>2021-07-24T08:31:36Z</time>
      </trkpt>
      <trkpt lat="43.3713600" lon="-7.4562750">
        <ele>480.0</ele>
        <time>2021-07-24T08:31:37Z</time>
      </trkpt>
      <trkpt lat="43.3713660" lon="-7.4562910">
        <ele>479.2</ele>
        <time>2021-07-24T08:31:38Z</time>
      </trkpt>
      <trkpt lat="43.3713710" lon="-7.4563010">
        <ele>478.6</ele>
        <time>2021-07-24T08:31:39Z</time>
      </trkpt>
      <trkpt lat="43.3713680" lon="-7.4562960">
        <ele>477.8</ele>
        <time>2021-07-24T08:31:40Z</time>
      </trkpt>
      <trkpt lat="43.3713450" lon="-7.4563110">
        <ele>479.8</ele>
        <time>2021-07-24T08:59:28Z</time>
      </trkpt>
      <trkpt lat="43.3713140" lon="-7.4563720">
        <ele>479.8</ele>
        <time>2021-07-24T08:59:30Z</time>
      </trkpt>
      <trkpt lat="43.3712880" lon="-7.4564510">
        <ele>479.8</ele>
        <time>2021-07-24T08:59:32Z</time>
      </trkpt>
      <trkpt lat="43.3712580" lon="-7.4565830">
        <ele>479.8</ele>
        <time>2021-07-24T08:59:35Z</time>
      </trkpt>
      <trkpt lat="43.3712500" lon="-7.4566390">
        <ele>479.8</ele>
        <time>2021-07-24T08:59:36Z</time>
      </trkpt>
      <trkpt lat="43.3711900" lon="-7.4569780">
        <ele>479.8</ele>
        <time>2021-07-24T08:59:41Z</time>
      </trkpt>
      <trkpt lat="43.3711270" lon="-7.4576410">
        <ele>479.8</ele>
        <time>2021-07-24T08:59:49Z</time>
      </trkpt>
      <trkpt lat="43.3711240" lon="-7.4578990">
        <ele>479.8</ele>
        <time>2021-07-24T08:59:52Z</time>
      </trkpt>
      <trkpt lat="43.3711150" lon="-7.4583200">
        <ele>479.8</ele>
        <time>2021-07-24T08:59:57Z</time>
      </trkpt>
      <trkpt lat="43.3711010" lon="-7.4587260">
        <ele>479.4</ele>
        <time>2021-07-24T09:00:02Z</time>
      </trkpt>
      <trkpt lat="43.3710980" lon="-7.4588090">
        <ele>479.0</ele>
        <time>2021-07-24T09:00:03Z</time>
      </trkpt>
      <trkpt lat="43.3710940" lon="-7.4588930">
        <ele>478.6</ele>
        <time>2021-07-24T09:00:04Z</time>
      </trkpt>
      <trkpt lat="43.3710900" lon="-7.4589780">
        <ele>478.0</ele>
        <time>2021-07-24T09:00:05Z</time>
      </trkpt>
      <trkpt lat="43.3710830" lon="-7.4590650">
        <ele>477.6</ele>
        <time>2021-07-24T09:00:06Z</time>
      </trkpt>
      <trkpt lat="43.3710630" lon="-7.4592460">
        <ele>477.2</ele>
        <time>2021-07-24T09:00:08Z</time>
      </trkpt>
      <trkpt lat="43.3710510" lon="-7.4593380">
        <ele>476.6</ele>
        <time>2021-07-24T09:00:09Z</time>
      </trkpt>
      <trkpt lat="43.3710380" lon="-7.4594300">
        <ele>476.2</ele>
        <time>2021-07-24T09:00:10Z</time>
      </trkpt>
      <trkpt lat="43.3710210" lon="-7.4595230">
        <ele>475.6</ele>
        <time>2021-07-24T09:00:11Z</time>
      </trkpt>
      <trkpt lat="43.3710040" lon="-7.4596140">
        <ele>475.2</ele>
        <time>2021-07-24T09:00:12Z</time>
      </trkpt>
      <trkpt lat="43.3709620" lon="-7.4598010">
        <ele>475.2</ele>
        <time>2021-07-24T09:00:14Z</time>
      </trkpt>
      <trkpt lat="43.3709240" lon="-7.4599890">
        <ele>475.2</ele>
        <time>2021-07-24T09:00:16Z</time>
      </trkpt>
      <trkpt lat="43.3709090" lon="-7.4600800">
        <ele>474.6</ele>
        <time>2021-07-24T09:00:17Z</time>
      </trkpt>
      <trkpt lat="43.3708960" lon="-7.4601660">
        <ele>474.2</ele>
        <time>2021-07-24T09:00:18Z</time>
      </trkpt>
      <trkpt lat="43.3708850" lon="-7.4602500">
        <ele>473.8</ele>
        <time>2021-07-24T09:00:19Z</time>
      </trkpt>
      <trkpt lat="43.3708760" lon="-7.4603300">
        <ele>473.4</ele>
        <time>2021-07-24T09:00:20Z</time>
      </trkpt>
      <trkpt lat="43.3708660" lon="-7.4604060">
        <ele>472.8</ele>
        <time>2021-07-24T09:00:21Z</time>
      </trkpt>
      <trkpt lat="43.3708410" lon="-7.4606450">
        <ele>472.8</ele>
        <time>2021-07-24T09:00:24Z</time>
      </trkpt>
      <trkpt lat="43.3708400" lon="-7.4607200">
        <ele>472.8</ele>
        <time>2021-07-24T09:00:25Z</time>
      </trkpt>
      <trkpt lat="43.3708340" lon="-7.4608780">
        <ele>472.8</ele>
        <time>2021-07-24T09:00:27Z</time>
      </trkpt>
      <trkpt lat="43.3708380" lon="-7.4610100">
        <ele>472.8</ele>
        <time>2021-07-24T09:00:29Z</time>
      </trkpt>
      <trkpt lat="43.3708440" lon="-7.4611440">
        <ele>472.8</ele>
        <time>2021-07-24T09:00:31Z</time>
      </trkpt>
      <trkpt lat="43.3708800" lon="-7.4615940">
        <ele>472.8</ele>
        <time>2021-07-24T09:00:38Z</time>
      </trkpt>
      <trkpt lat="43.3709000" lon="-7.4617820">
        <ele>472.8</ele>
        <time>2021-07-24T09:00:41Z</time>
      </trkpt>
      <trkpt lat="43.3709080" lon="-7.4618420">
        <ele>473.2</ele>
        <time>2021-07-24T09:00:42Z</time>
      </trkpt>
      <trkpt lat="43.3709160" lon="-7.4618990">
        <ele>473.6</ele>
        <time>2021-07-24T09:00:43Z</time>
      </trkpt>
      <trkpt lat="43.3709240" lon="-7.4619530">
        <ele>474.0</ele>
        <time>2021-07-24T09:00:44Z</time>
      </trkpt>
      <trkpt lat="43.3709330" lon="-7.4620050">
        <ele>474.4</ele>
        <time>2021-07-24T09:00:45Z</time>
      </trkpt>
      <trkpt lat="43.3709410" lon="-7.4620560">
        <ele>474.8</ele>
        <time>2021-07-24T09:00:46Z</time>
      </trkpt>
      <trkpt lat="43.3709530" lon="-7.4621950">
        <ele>474.8</ele>
        <time>2021-07-24T09:00:49Z</time>
      </trkpt>
      <trkpt lat="43.3709660" lon="-7.4623260">
        <ele>474.8</ele>
        <time>2021-07-24T09:00:52Z</time>
      </trkpt>
      <trkpt lat="43.3709770" lon="-7.4624140">
        <ele>475.2</ele>
        <time>2021-07-24T09:00:54Z</time>
      </trkpt>
      <trkpt lat="43.3709810" lon="-7.4624560">
        <ele>475.8</ele>
        <time>2021-07-24T09:00:55Z</time>
      </trkpt>
      <trkpt lat="43.3709810" lon="-7.4624960">
        <ele>476.2</ele>
        <time>2021-07-24T09:00:56Z</time>
      </trkpt>
      <trkpt lat="43.3709780" lon="-7.4625430">
        <ele>476.6</ele>
        <time>2021-07-24T09:00:57Z</time>
      </trkpt>
      <trkpt lat="43.3709730" lon="-7.4625850">
        <ele>477.0</ele>
        <time>2021-07-24T09:00:58Z</time>
      </trkpt>
      <trkpt lat="43.3709620" lon="-7.4626590">
        <ele>477.0</ele>
        <time>2021-07-24T09:01:00Z</time>
      </trkpt>
      <trkpt lat="43.3708930" lon="-7.4628140">
        <ele>477.4</ele>
        <time>2021-07-24T09:01:04Z</time>
      </trkpt>
      <trkpt lat="43.3708780" lon="-7.4628500">
        <ele>477.8</ele>
        <time>2021-07-24T09:01:05Z</time>
      </trkpt>
      <trkpt lat="43.3708570" lon="-7.4628850">
        <ele>478.2</ele>
        <time>2021-07-24T09:01:06Z</time>
      </trkpt>
      <trkpt lat="43.3708380" lon="-7.4629200">
        <ele>478.6</ele>
        <time>2021-07-24T09:01:07Z</time>
      </trkpt>
      <trkpt lat="43.3708160" lon="-7.4629550">
        <ele>479.0</ele>
        <time>2021-07-24T09:01:08Z</time>
      </trkpt>
      <trkpt lat="43.3707330" lon="-7.4630800">
        <ele>479.0</ele>
        <time>2021-07-24T09:01:12Z</time>
      </trkpt>
      <trkpt lat="43.3706190" lon="-7.4632700">
        <ele>479.0</ele>
        <time>2021-07-24T09:01:17Z</time>
      </trkpt>
      <trkpt lat="43.3704690" lon="-7.4634710">
        <ele>479.0</ele>
        <time>2021-07-24T09:01:22Z</time>
      </trkpt>
      <trkpt lat="43.3702760" lon="-7.4638030">
        <ele>479.0</ele>
        <time>2021-07-24T09:01:28Z</time>
      </trkpt>
      <trkpt lat="43.3701750" lon="-7.4640890">
        <ele>479.0</ele>
        <time>2021-07-24T09:01:32Z</time>
      </trkpt>
      <trkpt lat="43.3701580" lon="-7.4641710">
        <ele>479.0</ele>
        <time>2021-07-24T09:01:33Z</time>
      </trkpt>
      <trkpt lat="43.3701260" lon="-7.4643730">
        <ele>479.0</ele>
        <time>2021-07-24T09:01:35Z</time>
      </trkpt>
      <trkpt lat="43.3701090" lon="-7.4644730">
        <ele>478.4</ele>
        <time>2021-07-24T09:01:36Z</time>
      </trkpt>
      <trkpt lat="43.3700930" lon="-7.4645730">
        <ele>478.0</ele>
        <time>2021-07-24T09:01:37Z</time>
      </trkpt>
      <trkpt lat="43.3700810" lon="-7.4646680">
        <ele>477.6</ele>
        <time>2021-07-24T09:01:38Z</time>
      </trkpt>
      <trkpt lat="43.3700760" lon="-7.4647640">
        <ele>477.0</ele>
        <time>2021-07-24T09:01:39Z</time>
      </trkpt>
      <trkpt lat="43.3700690" lon="-7.4648460">
        <ele>476.6</ele>
        <time>2021-07-24T09:01:40Z</time>
      </trkpt>
      <trkpt lat="43.3700510" lon="-7.4650970">
        <ele>476.2</ele>
        <time>2021-07-24T09:01:43Z</time>
      </trkpt>
      <trkpt lat="43.3700460" lon="-7.4651790">
        <ele>475.8</ele>
        <time>2021-07-24T09:01:44Z</time>
      </trkpt>
      <trkpt lat="43.3700440" lon="-7.4652550">
        <ele>475.2</ele>
        <time>2021-07-24T09:01:45Z</time>
      </trkpt>
      <trkpt lat="43.3700430" lon="-7.4653210">
        <ele>474.8</ele>
        <time>2021-07-24T09:01:46Z</time>
      </trkpt>
      <trkpt lat="43.3700420" lon="-7.4653900">
        <ele>474.4</ele>
        <time>2021-07-24T09:01:47Z</time>
      </trkpt>
      <trkpt lat="43.3700450" lon="-7.4654570">
        <ele>474.0</ele>
        <time>2021-07-24T09:01:48Z</time>
      </trkpt>
      <trkpt lat="43.3700520" lon="-7.4655310">
        <ele>473.6</ele>
        <time>2021-07-24T09:01:49Z</time>
      </trkpt>
      <trkpt lat="43.3700590" lon="-7.4656060">
        <ele>473.2</ele>
        <time>2021-07-24T09:01:50Z</time>
      </trkpt>
      <trkpt lat="43.3700720" lon="-7.4656780">
        <ele>472.4</ele>
        <time>2021-07-24T09:01:51Z</time>
      </trkpt>
      <trkpt lat="43.3700860" lon="-7.4657500">
        <ele>471.8</ele>
        <time>2021-07-24T09:01:52Z</time>
      </trkpt>
      <trkpt lat="43.3701020" lon="-7.4658190">
        <ele>471.4</ele>
        <time>2021-07-24T09:01:53Z</time>
      </trkpt>
      <trkpt lat="43.3701190" lon="-7.4658760">
        <ele>471.0</ele>
        <time>2021-07-24T09:01:54Z</time>
      </trkpt>
      <trkpt lat="43.3701310" lon="-7.4659300">
        <ele>470.4</ele>
        <time>2021-07-24T09:01:55Z</time>
      </trkpt>
      <trkpt lat="43.3701440" lon="-7.4659790">
        <ele>469.8</ele>
        <time>2021-07-24T09:01:56Z</time>
      </trkpt>
      <trkpt lat="43.3701580" lon="-7.4660230">
        <ele>469.2</ele>
        <time>2021-07-24T09:01:57Z</time>
      </trkpt>
      <trkpt lat="43.3701690" lon="-7.4660670">
        <ele>468.6</ele>
        <time>2021-07-24T09:01:58Z</time>
      </trkpt>
      <trkpt lat="43.3701750" lon="-7.4661130">
        <ele>468.0</ele>
        <time>2021-07-24T09:01:59Z</time>
      </trkpt>
      <trkpt lat="43.3701650" lon="-7.4661620">
        <ele>468.0</ele>
        <time>2021-07-24T09:02:00Z</time>
      </trkpt>
      <trkpt lat="43.3701120" lon="-7.4662700">
        <ele>467.4</ele>
        <time>2021-07-24T09:02:02Z</time>
      </trkpt>
      <trkpt lat="43.3700680" lon="-7.4663250">
        <ele>467.0</ele>
        <time>2021-07-24T09:02:03Z</time>
      </trkpt>
      <trkpt lat="43.3700140" lon="-7.4663800">
        <ele>466.6</ele>
        <time>2021-07-24T09:02:04Z</time>
      </trkpt>
      <trkpt lat="43.3699540" lon="-7.4664420">
        <ele>466.0</ele>
        <time>2021-07-24T09:02:05Z</time>
      </trkpt>
      <trkpt lat="43.3698900" lon="-7.4665070">
        <ele>465.6</ele>
        <time>2021-07-24T09:02:06Z</time>
      </trkpt>
      <trkpt lat="43.3698280" lon="-7.4665720">
        <ele>465.2</ele>
        <time>2021-07-24T09:02:07Z</time>
      </trkpt>
      <trkpt lat="43.3697610" lon="-7.4666420">
        <ele>464.8</ele>
        <time>2021-07-24T09:02:08Z</time>
      </trkpt>
      <trkpt lat="43.3696930" lon="-7.4667100">
        <ele>464.4</ele>
        <time>2021-07-24T09:02:09Z</time>
      </trkpt>
      <trkpt lat="43.3696300" lon="-7.4667710">
        <ele>463.6</ele>
        <time>2021-07-24T09:02:10Z</time>
      </trkpt>
      <trkpt lat="43.3695660" lon="-7.4668330">
        <ele>462.8</ele>
        <time>2021-07-24T09:02:11Z</time>
      </trkpt>
      <trkpt lat="43.3694980" lon="-7.4669000">
        <ele>462.0</ele>
        <time>2021-07-24T09:02:12Z</time>
      </trkpt>
      <trkpt lat="43.3694340" lon="-7.4669630">
        <ele>461.0</ele>
        <time>2021-07-24T09:02:13Z</time>
      </trkpt>
      <trkpt lat="43.3693660" lon="-7.4670320">
        <ele>460.2</ele>
        <time>2021-07-24T09:02:14Z</time>
      </trkpt>
      <trkpt lat="43.3693030" lon="-7.4670960">
        <ele>459.0</ele>
        <time>2021-07-24T09:02:15Z</time>
      </trkpt>
      <trkpt lat="43.3692420" lon="-7.4671560">
        <ele>457.0</ele>
        <time>2021-07-24T09:02:16Z</time>
      </trkpt>
      <trkpt lat="43.3691810" lon="-7.4672110">
        <ele>456.0</ele>
        <time>2021-07-24T09:02:17Z</time>
      </trkpt>
      <trkpt lat="43.3691230" lon="-7.4672650">
        <ele>455.2</ele>
        <time>2021-07-24T09:02:18Z</time>
      </trkpt>
      <trkpt lat="43.3690680" lon="-7.4673110">
        <ele>454.6</ele>
        <time>2021-07-24T09:02:19Z</time>
      </trkpt>
      <trkpt lat="43.3690200" lon="-7.4673520">
        <ele>453.8</ele>
        <time>2021-07-24T09:02:20Z</time>
      </trkpt>
      <trkpt lat="43.3689660" lon="-7.4673940">
        <ele>453.2</ele>
        <time>2021-07-24T09:02:21Z</time>
      </trkpt>
      <trkpt lat="43.3689180" lon="-7.4674300">
        <ele>452.6</ele>
        <time>2021-07-24T09:02:22Z</time>
      </trkpt>
      <trkpt lat="43.3688710" lon="-7.4674620">
        <ele>452.0</ele>
        <time>2021-07-24T09:02:23Z</time>
      </trkpt>
      <trkpt lat="43.3688280" lon="-7.4674900">
        <ele>451.6</ele>
        <time>2021-07-24T09:02:24Z</time>
      </trkpt>
      <trkpt lat="43.3687860" lon="-7.4675180">
        <ele>450.8</ele>
        <time>2021-07-24T09:02:25Z</time>
      </trkpt>
      <trkpt lat="43.3687500" lon="-7.4675430">
        <ele>450.2</ele>
        <time>2021-07-24T09:02:26Z</time>
      </trkpt>
      <trkpt lat="43.3687150" lon="-7.4675640">
        <ele>449.6</ele>
        <time>2021-07-24T09:02:27Z</time>
      </trkpt>
      <trkpt lat="43.3686870" lon="-7.4675820">
        <ele>448.8</ele>
        <time>2021-07-24T09:02:28Z</time>
      </trkpt>
      <trkpt lat="43.3686560" lon="-7.4675990">
        <ele>448.2</ele>
        <time>2021-07-24T09:02:29Z</time>
      </trkpt>
      <trkpt lat="43.3686270" lon="-7.4676110">
        <ele>447.4</ele>
        <time>2021-07-24T09:02:30Z</time>
      </trkpt>
      <trkpt lat="43.3686010" lon="-7.4676210">
        <ele>446.6</ele>
        <time>2021-07-24T09:02:31Z</time>
      </trkpt>
      <trkpt lat="43.3685730" lon="-7.4676360">
        <ele>446.0</ele>
        <time>2021-07-24T09:02:32Z</time>
      </trkpt>
      <trkpt lat="43.3685090" lon="-7.4676640">
        <ele>445.6</ele>
        <time>2021-07-24T09:02:34Z</time>
      </trkpt>
      <trkpt lat="43.3684790" lon="-7.4676780">
        <ele>445.2</ele>
        <time>2021-07-24T09:02:35Z</time>
      </trkpt>
      <trkpt lat="43.3684480" lon="-7.4676860">
        <ele>444.8</ele>
        <time>2021-07-24T09:02:36Z</time>
      </trkpt>
      <trkpt lat="43.3684190" lon="-7.4676970">
        <ele>444.2</ele>
        <time>2021-07-24T09:02:37Z</time>
      </trkpt>
      <trkpt lat="43.3683860" lon="-7.4677110">
        <ele>443.8</ele>
        <time>2021-07-24T09:02:38Z</time>
      </trkpt>
      <trkpt lat="43.3682440" lon="-7.4678130">
        <ele>443.8</ele>
        <time>2021-07-24T09:02:41Z</time>
      </trkpt>
      <trkpt lat="43.3681330" lon="-7.4679030">
        <ele>443.4</ele>
        <time>2021-07-24T09:02:43Z</time>
      </trkpt>
      <trkpt lat="43.3680740" lon="-7.4679480">
        <ele>443.0</ele>
        <time>2021-07-24T09:02:44Z</time>
      </trkpt>
      <trkpt lat="43.3680160" lon="-7.4679850">
        <ele>442.4</ele>
        <time>2021-07-24T09:02:45Z</time>
      </trkpt>
      <trkpt lat="43.3679620" lon="-7.4680280">
        <ele>442.0</ele>
        <time>2021-07-24T09:02:46Z</time>
      </trkpt>
      <trkpt lat="43.3679090" lon="-7.4680680">
        <ele>441.6</ele>
        <time>2021-07-24T09:02:47Z</time>
      </trkpt>
      <trkpt lat="43.3678590" lon="-7.4681120">
        <ele>441.6</ele>
        <time>2021-07-24T09:02:48Z</time>
      </trkpt>
      <trkpt lat="43.3677530" lon="-7.4681970">
        <ele>441.0</ele>
        <time>2021-07-24T09:02:50Z</time>
      </trkpt>
      <trkpt lat="43.3676970" lon="-7.4682390">
        <ele>440.6</ele>
        <time>2021-07-24T09:02:51Z</time>
      </trkpt>
      <trkpt lat="43.3676430" lon="-7.4682820">
        <ele>440.2</ele>
        <time>2021-07-24T09:02:52Z</time>
      </trkpt>
      <trkpt lat="43.3675840" lon="-7.4683260">
        <ele>439.8</ele>
        <time>2021-07-24T09:02:53Z</time>
      </trkpt>
      <trkpt lat="43.3675220" lon="-7.4683700">
        <ele>439.2</ele>
        <time>2021-07-24T09:02:54Z</time>
      </trkpt>
      <trkpt lat="43.3674620" lon="-7.4684140">
        <ele>438.8</ele>
        <time>2021-07-24T09:02:55Z</time>
      </trkpt>
      <trkpt lat="43.3674010" lon="-7.4684590">
        <ele>438.2</ele>
        <time>2021-07-24T09:02:56Z</time>
      </trkpt>
      <trkpt lat="43.3673400" lon="-7.4685040">
        <ele>437.8</ele>
        <time>2021-07-24T09:02:57Z</time>
      </trkpt>
      <trkpt lat="43.3672810" lon="-7.4685500">
        <ele>437.2</ele>
        <time>2021-07-24T09:02:58Z</time>
      </trkpt>
      <trkpt lat="43.3672210" lon="-7.4686010">
        <ele>436.6</ele>
        <time>2021-07-24T09:02:59Z</time>
      </trkpt>
      <trkpt lat="43.3671620" lon="-7.4686490">
        <ele>436.0</ele>
        <time>2021-07-24T09:03:00Z</time>
      </trkpt>
      <trkpt lat="43.3671060" lon="-7.4686920">
        <ele>435.6</ele>
        <time>2021-07-24T09:03:01Z</time>
      </trkpt>
      <trkpt lat="43.3670520" lon="-7.4687300">
        <ele>435.0</ele>
        <time>2021-07-24T09:03:02Z</time>
      </trkpt>
      <trkpt lat="43.3669990" lon="-7.4687700">
        <ele>434.6</ele>
        <time>2021-07-24T09:03:03Z</time>
      </trkpt>
      <trkpt lat="43.3669500" lon="-7.4688010">
        <ele>434.0</ele>
        <time>2021-07-24T09:03:04Z</time>
      </trkpt>
      <trkpt lat="43.3669050" lon="-7.4688360">
        <ele>433.2</ele>
        <time>2021-07-24T09:03:05Z</time>
      </trkpt>
      <trkpt lat="43.3668560" lon="-7.4688680">
        <ele>432.6</ele>
        <time>2021-07-24T09:03:06Z</time>
      </trkpt>
      <trkpt lat="43.3667670" lon="-7.4689090">
        <ele>432.6</ele>
        <time>2021-07-24T09:03:08Z</time>
      </trkpt>
      <trkpt lat="43.3666920" lon="-7.4689770">
        <ele>432.6</ele>
        <time>2021-07-24T09:03:10Z</time>
      </trkpt>
      <trkpt lat="43.3666020" lon="-7.4690800">
        <ele>432.6</ele>
        <time>2021-07-24T09:03:13Z</time>
      </trkpt>
      <trkpt lat="43.3664360" lon="-7.4691760">
        <ele>432.6</ele>
        <time>2021-07-24T09:03:18Z</time>
      </trkpt>
      <trkpt lat="43.3664050" lon="-7.4691840">
        <ele>432.6</ele>
        <time>2021-07-24T09:03:19Z</time>
      </trkpt>
      <trkpt lat="43.3662330" lon="-7.4691870">
        <ele>432.6</ele>
        <time>2021-07-24T09:03:25Z</time>
      </trkpt>
      <trkpt lat="43.3660530" lon="-7.4691820">
        <ele>432.6</ele>
        <time>2021-07-24T09:03:31Z</time>
      </trkpt>
      <trkpt lat="43.3660250" lon="-7.4691790">
        <ele>432.6</ele>
        <time>2021-07-24T09:03:32Z</time>
      </trkpt>
      <trkpt lat="43.3659960" lon="-7.4691750">
        <ele>432.6</ele>
        <time>2021-07-24T09:03:33Z</time>
      </trkpt>
      <trkpt lat="43.3659690" lon="-7.4691690">
        <ele>432.6</ele>
        <time>2021-07-24T09:03:34Z</time>
      </trkpt>
      <trkpt lat="43.3659170" lon="-7.4691510">
        <ele>433.0</ele>
        <time>2021-07-24T09:03:36Z</time>
      </trkpt>
      <trkpt lat="43.3658890" lon="-7.4691410">
        <ele>433.6</ele>
        <time>2021-07-24T09:03:37Z</time>
      </trkpt>
      <trkpt lat="43.3658620" lon="-7.4691340">
        <ele>434.0</ele>
        <time>2021-07-24T09:03:38Z</time>
      </trkpt>
      <trkpt lat="43.3658370" lon="-7.4691220">
        <ele>434.4</ele>
        <time>2021-07-24T09:03:39Z</time>
      </trkpt>
      <trkpt lat="43.3658120" lon="-7.4691100">
        <ele>434.8</ele>
        <time>2021-07-24T09:03:40Z</time>
      </trkpt>
      <trkpt lat="43.3657670" lon="-7.4690670">
        <ele>434.8</ele>
        <time>2021-07-24T09:03:42Z</time>
      </trkpt>
      <trkpt lat="43.3657170" lon="-7.4690070">
        <ele>434.8</ele>
        <time>2021-07-24T09:03:45Z</time>
      </trkpt>
      <trkpt lat="43.3655990" lon="-7.4690070">
        <ele>434.8</ele>
        <time>2021-07-24T09:03:50Z</time>
      </trkpt>
      <trkpt lat="43.3655570" lon="-7.4690230">
        <ele>435.2</ele>
        <time>2021-07-24T09:03:53Z</time>
      </trkpt>
      <trkpt lat="43.3655510" lon="-7.4690310">
        <ele>436.0</ele>
        <time>2021-07-24T09:03:54Z</time>
      </trkpt>
      <trkpt lat="43.3655570" lon="-7.4690270">
        <ele>436.4</ele>
        <time>2021-07-24T09:03:55Z</time>
      </trkpt>
      <trkpt lat="43.3655810" lon="-7.4689710">
        <ele>437.0</ele>
        <time>2021-07-24T09:04:18Z</time>
      </trkpt>
      <trkpt lat="43.3656000" lon="-7.4689610">
        <ele>437.0</ele>
        <time>2021-07-24T09:04:19Z</time>
      </trkpt>
      <trkpt lat="43.3656890" lon="-7.4689690">
        <ele>437.0</ele>
        <time>2021-07-24T09:04:22Z</time>
      </trkpt>
      <trkpt lat="43.3658380" lon="-7.4690640">
        <ele>437.0</ele>
        <time>2021-07-24T09:04:26Z</time>
      </trkpt>
      <trkpt lat="43.3658810" lon="-7.4690940">
        <ele>437.0</ele>
        <time>2021-07-24T09:04:27Z</time>
      </trkpt>
      <trkpt lat="43.3659290" lon="-7.4691090">
        <ele>437.0</ele>
        <time>2021-07-24T09:04:28Z</time>
      </trkpt>
      <trkpt lat="43.3660190" lon="-7.4691330">
        <ele>437.0</ele>
        <time>2021-07-24T09:04:30Z</time>
      </trkpt>
      <trkpt lat="43.3661230" lon="-7.4691470">
        <ele>436.6</ele>
        <time>2021-07-24T09:04:32Z</time>
      </trkpt>
      <trkpt lat="43.3661740" lon="-7.4691520">
        <ele>436.0</ele>
        <time>2021-07-24T09:04:33Z</time>
      </trkpt>
      <trkpt lat="43.3662320" lon="-7.4691560">
        <ele>435.6</ele>
        <time>2021-07-24T09:04:34Z</time>
      </trkpt>
      <trkpt lat="43.3662840" lon="-7.4691530">
        <ele>435.2</ele>
        <time>2021-07-24T09:04:35Z</time>
      </trkpt>
      <trkpt lat="43.3663310" lon="-7.4691490">
        <ele>434.8</ele>
        <time>2021-07-24T09:04:36Z</time>
      </trkpt>
      <trkpt lat="43.3664210" lon="-7.4691340">
        <ele>434.8</ele>
        <time>2021-07-24T09:04:38Z</time>
      </trkpt>
      <trkpt lat="43.3664550" lon="-7.4691180">
        <ele>434.4</ele>
        <time>2021-07-24T09:04:39Z</time>
      </trkpt>
      <trkpt lat="43.3664910" lon="-7.4691060">
        <ele>434.0</ele>
        <time>2021-07-24T09:04:40Z</time>
      </trkpt>
      <trkpt lat="43.3665230" lon="-7.4690960">
        <ele>433.6</ele>
        <time>2021-07-24T09:04:41Z</time>
      </trkpt>
      <trkpt lat="43.3665560" lon="-7.4690840">
        <ele>433.2</ele>
        <time>2021-07-24T09:04:42Z</time>
      </trkpt>
      <trkpt lat="43.3665830" lon="-7.4690750">
        <ele>432.8</ele>
        <time>2021-07-24T09:04:43Z</time>
      </trkpt>
      <trkpt lat="43.3666070" lon="-7.4690560">
        <ele>432.8</ele>
        <time>2021-07-24T09:04:44Z</time>
      </trkpt>
      <trkpt lat="43.3666650" lon="-7.4690040">
        <ele>432.8</ele>
        <time>2021-07-24T09:04:47Z</time>
      </trkpt>
      <trkpt lat="43.3666700" lon="-7.4690050">
        <ele>432.8</ele>
        <time>2021-07-24T09:04:49Z</time>
      </trkpt>
      <trkpt lat="43.3666760" lon="-7.4690020">
        <ele>432.8</ele>
        <time>2021-07-24T09:04:50Z</time>
      </trkpt>
      <trkpt lat="43.3667070" lon="-7.4689830">
        <ele>432.8</ele>
        <time>2021-07-24T09:04:55Z</time>
      </trkpt>
      <trkpt lat="43.3667410" lon="-7.4689720">
        <ele>432.8</ele>
        <time>2021-07-24T09:04:57Z</time>
      </trkpt>
      <trkpt lat="43.3668240" lon="-7.4689140">
        <ele>432.8</ele>
        <time>2021-07-24T09:05:03Z</time>
      </trkpt>
      <trkpt lat="43.3668290" lon="-7.4688910">
        <ele>432.8</ele>
        <time>2021-07-24T09:05:04Z</time>
      </trkpt>
      <trkpt lat="43.3668100" lon="-7.4688670">
        <ele>432.8</ele>
        <time>2021-07-24T09:05:06Z</time>
      </trkpt>
      <trkpt lat="43.3667510" lon="-7.4689080">
        <ele>432.8</ele>
        <time>2021-07-24T09:05:12Z</time>
      </trkpt>
      <trkpt lat="43.3667330" lon="-7.4689460">
        <ele>432.8</ele>
        <time>2021-07-24T09:05:13Z</time>
      </trkpt>
      <trkpt lat="43.3666490" lon="-7.4691230">
        <ele>432.8</ele>
        <time>2021-07-24T09:05:18Z</time>
      </trkpt>
      <trkpt lat="43.3666240" lon="-7.4691440">
        <ele>432.8</ele>
        <time>2021-07-24T09:05:19Z</time>
      </trkpt>
      <trkpt lat="43.3665470" lon="-7.4691710">
        <ele>432.8</ele>
        <time>2021-07-24T09:05:22Z</time>
      </trkpt>
      <trkpt lat="43.3665110" lon="-7.4692080">
        <ele>432.8</ele>
        <time>2021-07-24T09:05:24Z</time>
      </trkpt>
      <trkpt lat="43.3664920" lon="-7.4692370">
        <ele>432.8</ele>
        <time>2021-07-24T09:05:26Z</time>
      </trkpt>
      <trkpt lat="43.3664970" lon="-7.4692660">
        <ele>432.8</ele>
        <time>2021-07-24T09:05:33Z</time>
      </trkpt>
      <trkpt lat="43.3665070" lon="-7.4692800">
        <ele>432.8</ele>
        <time>2021-07-24T09:05:34Z</time>
      </trkpt>
      <trkpt lat="43.3665500" lon="-7.4693460">
        <ele>432.8</ele>
        <time>2021-07-24T09:05:38Z</time>
      </trkpt>
      <trkpt lat="43.3665720" lon="-7.4693380">
        <ele>432.8</ele>
        <time>2021-07-24T09:05:51Z</time>
      </trkpt>
      <trkpt lat="43.3665790" lon="-7.4692970">
        <ele>432.8</ele>
        <time>2021-07-24T09:05:53Z</time>
      </trkpt>
      <trkpt lat="43.3665570" lon="-7.4692250">
        <ele>432.8</ele>
        <time>2021-07-24T09:05:56Z</time>
      </trkpt>
      <trkpt lat="43.3665360" lon="-7.4691480">
        <ele>432.8</ele>
        <time>2021-07-24T09:05:59Z</time>
      </trkpt>
      <trkpt lat="43.3665240" lon="-7.4691290">
        <ele>432.8</ele>
        <time>2021-07-24T09:06:00Z</time>
      </trkpt>
      <trkpt lat="43.3664520" lon="-7.4690280">
        <ele>432.8</ele>
        <time>2021-07-24T09:06:06Z</time>
      </trkpt>
      <trkpt lat="43.3664440" lon="-7.4690280">
        <ele>432.8</ele>
        <time>2021-07-24T09:06:07Z</time>
      </trkpt>
      <trkpt lat="43.3664420" lon="-7.4690350">
        <ele>432.8</ele>
        <time>2021-07-24T09:06:09Z</time>
      </trkpt>
      <trkpt lat="43.3664430" lon="-7.4690780">
        <ele>432.8</ele>
        <time>2021-07-24T09:06:47Z</time>
      </trkpt>
      <trkpt lat="43.3664400" lon="-7.4691040">
        <ele>432.8</ele>
        <time>2021-07-24T09:06:48Z</time>
      </trkpt>
      <trkpt lat="43.3664770" lon="-7.4692610">
        <ele>432.8</ele>
        <time>2021-07-24T09:06:53Z</time>
      </trkpt>
      <trkpt lat="43.3664410" lon="-7.4694420">
        <ele>432.8</ele>
        <time>2021-07-24T09:06:59Z</time>
      </trkpt>
      <trkpt lat="43.3664220" lon="-7.4694900">
        <ele>432.8</ele>
        <time>2021-07-24T09:07:01Z</time>
      </trkpt>
      <trkpt lat="43.3663670" lon="-7.4695670">
        <ele>432.8</ele>
        <time>2021-07-24T09:07:05Z</time>
      </trkpt>
      <trkpt lat="43.3663050" lon="-7.4696490">
        <ele>432.8</ele>
        <time>2021-07-24T09:07:09Z</time>
      </trkpt>
      <trkpt lat="43.3662780" lon="-7.4697000">
        <ele>432.8</ele>
        <time>2021-07-24T09:07:11Z</time>
      </trkpt>
      <trkpt lat="43.3662480" lon="-7.4697580">
        <ele>432.8</ele>
        <time>2021-07-24T09:07:14Z</time>
      </trkpt>
      <trkpt lat="43.3662250" lon="-7.4697710">
        <ele>432.8</ele>
        <time>2021-07-24T09:07:16Z</time>
      </trkpt>
      <trkpt lat="43.3661990" lon="-7.4698130">
        <ele>432.8</ele>
        <time>2021-07-24T09:07:19Z</time>
      </trkpt>
      <trkpt lat="43.3662140" lon="-7.4698100">
        <ele>432.8</ele>
        <time>2021-07-24T09:07:21Z</time>
      </trkpt>
      <trkpt lat="43.3662980" lon="-7.4696400">
        <ele>432.8</ele>
        <time>2021-07-24T09:07:26Z</time>
      </trkpt>
      <trkpt lat="43.3663430" lon="-7.4695500">
        <ele>432.8</ele>
        <time>2021-07-24T09:07:30Z</time>
      </trkpt>
      <trkpt lat="43.3663420" lon="-7.4695380">
        <ele>432.8</ele>
        <time>2021-07-24T09:07:32Z</time>
      </trkpt>
      <trkpt lat="43.3663370" lon="-7.4695360">
        <ele>432.8</ele>
        <time>2021-07-24T09:07:38Z</time>
      </trkpt>
      <trkpt lat="43.3663280" lon="-7.4695540">
        <ele>432.8</ele>
        <time>2021-07-24T09:07:39Z</time>
      </trkpt>
      <trkpt lat="43.3663070" lon="-7.4695960">
        <ele>432.8</ele>
        <time>2021-07-24T09:07:41Z</time>
      </trkpt>
      <trkpt lat="43.3662760" lon="-7.4696530">
        <ele>432.8</ele>
        <time>2021-07-24T09:07:43Z</time>
      </trkpt>
      <trkpt lat="43.3662630" lon="-7.4696850">
        <ele>432.8</ele>
        <time>2021-07-24T09:07:44Z</time>
      </trkpt>
      <trkpt lat="43.3661970" lon="-7.4698360">
        <ele>432.8</ele>
        <time>2021-07-24T09:07:49Z</time>
      </trkpt>
      <trkpt lat="43.3661080" lon="-7.4699780">
        <ele>432.8</ele>
        <time>2021-07-24T09:07:55Z</time>
      </trkpt>
      <trkpt lat="43.3659990" lon="-7.4701180">
        <ele>433.2</ele>
        <time>2021-07-24T09:08:03Z</time>
      </trkpt>
      <trkpt lat="43.3659850" lon="-7.4701380">
        <ele>433.6</ele>
        <time>2021-07-24T09:08:04Z</time>
      </trkpt>
      <trkpt lat="43.3659710" lon="-7.4701590">
        <ele>434.0</ele>
        <time>2021-07-24T09:08:05Z</time>
      </trkpt>
      <trkpt lat="43.3659590" lon="-7.4701780">
        <ele>434.4</ele>
        <time>2021-07-24T09:08:06Z</time>
      </trkpt>
      <trkpt lat="43.3659480" lon="-7.4701940">
        <ele>434.8</ele>
        <time>2021-07-24T09:08:07Z</time>
      </trkpt>
      <trkpt lat="43.3658930" lon="-7.4702480">
        <ele>434.8</ele>
        <time>2021-07-24T09:08:11Z</time>
      </trkpt>
      <trkpt lat="43.3658470" lon="-7.4703000">
        <ele>434.8</ele>
        <time>2021-07-24T09:08:15Z</time>
      </trkpt>
      <trkpt lat="43.3658230" lon="-7.4703240">
        <ele>435.2</ele>
        <time>2021-07-24T09:08:17Z</time>
      </trkpt>
      <trkpt lat="43.3658130" lon="-7.4703410">
        <ele>435.6</ele>
        <time>2021-07-24T09:08:18Z</time>
      </trkpt>
      <trkpt lat="43.3658020" lon="-7.4703570">
        <ele>436.2</ele>
        <time>2021-07-24T09:08:19Z</time>
      </trkpt>
      <trkpt lat="43.3657930" lon="-7.4703710">
        <ele>436.6</ele>
        <time>2021-07-24T09:08:20Z</time>
      </trkpt>
      <trkpt lat="43.3657850" lon="-7.4703820">
        <ele>437.0</ele>
        <time>2021-07-24T09:08:21Z</time>
      </trkpt>
      <trkpt lat="43.3657360" lon="-7.4704310">
        <ele>437.0</ele>
        <time>2021-07-24T09:08:25Z</time>
      </trkpt>
      <trkpt lat="43.3657150" lon="-7.4704600">
        <ele>437.8</ele>
        <time>2021-07-24T09:08:27Z</time>
      </trkpt>
      <trkpt lat="43.3657060" lon="-7.4704720">
        <ele>438.2</ele>
        <time>2021-07-24T09:08:28Z</time>
      </trkpt>
      <trkpt lat="43.3656970" lon="-7.4704810">
        <ele>438.8</ele>
        <time>2021-07-24T09:08:29Z</time>
      </trkpt>
      <trkpt lat="43.3656870" lon="-7.4704900">
        <ele>439.2</ele>
        <time>2021-07-24T09:08:30Z</time>
      </trkpt>
      <trkpt lat="43.3656680" lon="-7.4705150">
        <ele>439.2</ele>
        <time>2021-07-24T09:08:32Z</time>
      </trkpt>
      <trkpt lat="43.3656540" lon="-7.4705450">
        <ele>439.6</ele>
        <time>2021-07-24T09:08:34Z</time>
      </trkpt>
      <trkpt lat="43.3656460" lon="-7.4705610">
        <ele>440.0</ele>
        <time>2021-07-24T09:08:35Z</time>
      </trkpt>
      <trkpt lat="43.3656380" lon="-7.4705760">
        <ele>440.4</ele>
        <time>2021-07-24T09:08:36Z</time>
      </trkpt>
      <trkpt lat="43.3656260" lon="-7.4705890">
        <ele>440.8</ele>
        <time>2021-07-24T09:08:37Z</time>
      </trkpt>
      <trkpt lat="43.3656140" lon="-7.4706010">
        <ele>441.2</ele>
        <time>2021-07-24T09:08:38Z</time>
      </trkpt>
      <trkpt lat="43.3655890" lon="-7.4706290">
        <ele>441.2</ele>
        <time>2021-07-24T09:08:40Z</time>
      </trkpt>
      <trkpt lat="43.3655650" lon="-7.4706580">
        <ele>441.6</ele>
        <time>2021-07-24T09:08:42Z</time>
      </trkpt>
      <trkpt lat="43.3655560" lon="-7.4706730">
        <ele>442.0</ele>
        <time>2021-07-24T09:08:43Z</time>
      </trkpt>
      <trkpt lat="43.3655460" lon="-7.4706910">
        <ele>442.6</ele>
        <time>2021-07-24T09:08:44Z</time>
      </trkpt>
      <trkpt lat="43.3655380" lon="-7.4707090">
        <ele>443.0</ele>
        <time>2021-07-24T09:08:45Z</time>
      </trkpt>
      <trkpt lat="43.3655330" lon="-7.4707270">
        <ele>443.4</ele>
        <time>2021-07-24T09:08:46Z</time>
      </trkpt>
      <trkpt lat="43.3655290" lon="-7.4707410">
        <ele>443.4</ele>
        <time>2021-07-24T09:08:47Z</time>
      </trkpt>
      <trkpt lat="43.3655300" lon="-7.4707440">
        <ele>443.4</ele>
        <time>2021-07-24T09:08:48Z</time>
      </trkpt>
      <trkpt lat="43.3655210" lon="-7.4708490">
        <ele>445.4</ele>
        <time>2021-07-24T09:09:00Z</time>
      </trkpt>
      <trkpt lat="43.3655230" lon="-7.4708920">
        <ele>445.4</ele>
        <time>2021-07-24T09:09:02Z</time>
      </trkpt>
      <trkpt lat="43.3655220" lon="-7.4711110">
        <ele>445.4</ele>
        <time>2021-07-24T09:09:11Z</time>
      </trkpt>
      <trkpt lat="43.3655150" lon="-7.4711860">
        <ele>445.8</ele>
        <time>2021-07-24T09:09:14Z</time>
      </trkpt>
      <trkpt lat="43.3655110" lon="-7.4712120">
        <ele>446.2</ele>
        <time>2021-07-24T09:09:15Z</time>
      </trkpt>
      <trkpt lat="43.3655080" lon="-7.4712370">
        <ele>447.0</ele>
        <time>2021-07-24T09:09:16Z</time>
      </trkpt>
      <trkpt lat="43.3655060" lon="-7.4712610">
        <ele>447.4</ele>
        <time>2021-07-24T09:09:17Z</time>
      </trkpt>
      <trkpt lat="43.3655000" lon="-7.4713280">
        <ele>447.4</ele>
        <time>2021-07-24T09:09:20Z</time>
      </trkpt>
      <trkpt lat="43.3654710" lon="-7.4715190">
        <ele>447.8</ele>
        <time>2021-07-24T09:09:28Z</time>
      </trkpt>
      <trkpt lat="43.3654650" lon="-7.4715400">
        <ele>448.2</ele>
        <time>2021-07-24T09:09:29Z</time>
      </trkpt>
      <trkpt lat="43.3654600" lon="-7.4715600">
        <ele>448.8</ele>
        <time>2021-07-24T09:09:30Z</time>
      </trkpt>
      <trkpt lat="43.3654530" lon="-7.4715810">
        <ele>449.2</ele>
        <time>2021-07-24T09:09:31Z</time>
      </trkpt>
      <trkpt lat="43.3654460" lon="-7.4716030">
        <ele>449.6</ele>
        <time>2021-07-24T09:09:32Z</time>
      </trkpt>
      <trkpt lat="43.3654080" lon="-7.4717080">
        <ele>449.6</ele>
        <time>2021-07-24T09:09:36Z</time>
      </trkpt>
      <trkpt lat="43.3653410" lon="-7.4718630">
        <ele>450.0</ele>
        <time>2021-07-24T09:09:43Z</time>
      </trkpt>
      <trkpt lat="43.3653310" lon="-7.4718840">
        <ele>450.4</ele>
        <time>2021-07-24T09:09:44Z</time>
      </trkpt>
      <trkpt lat="43.3653210" lon="-7.4719060">
        <ele>450.8</ele>
        <time>2021-07-24T09:09:45Z</time>
      </trkpt>
      <trkpt lat="43.3653100" lon="-7.4719240">
        <ele>451.2</ele>
        <time>2021-07-24T09:09:46Z</time>
      </trkpt>
      <trkpt lat="43.3652970" lon="-7.4719420">
        <ele>451.6</ele>
        <time>2021-07-24T09:09:47Z</time>
      </trkpt>
      <trkpt lat="43.3652600" lon="-7.4719990">
        <ele>451.6</ele>
        <time>2021-07-24T09:09:50Z</time>
      </trkpt>
      <trkpt lat="43.3651910" lon="-7.4721050">
        <ele>452.0</ele>
        <time>2021-07-24T09:09:56Z</time>
      </trkpt>
      <trkpt lat="43.3651760" lon="-7.4721210">
        <ele>452.4</ele>
        <time>2021-07-24T09:09:57Z</time>
      </trkpt>
      <trkpt lat="43.3651620" lon="-7.4721390">
        <ele>452.8</ele>
        <time>2021-07-24T09:09:58Z</time>
      </trkpt>
      <trkpt lat="43.3651490" lon="-7.4721570">
        <ele>453.2</ele>
        <time>2021-07-24T09:09:59Z</time>
      </trkpt>
      <trkpt lat="43.3651350" lon="-7.4721720">
        <ele>453.6</ele>
        <time>2021-07-24T09:10:00Z</time>
      </trkpt>
      <trkpt lat="43.3650760" lon="-7.4722240">
        <ele>453.6</ele>
        <time>2021-07-24T09:10:04Z</time>
      </trkpt>
      <trkpt lat="43.3650330" lon="-7.4722580">
        <ele>454.0</ele>
        <time>2021-07-24T09:10:07Z</time>
      </trkpt>
      <trkpt lat="43.3650170" lon="-7.4722650">
        <ele>454.4</ele>
        <time>2021-07-24T09:10:08Z</time>
      </trkpt>
      <trkpt lat="43.3650000" lon="-7.4722780">
        <ele>454.8</ele>
        <time>2021-07-24T09:10:09Z</time>
      </trkpt>
      <trkpt lat="43.3649840" lon="-7.4722890">
        <ele>455.2</ele>
        <time>2021-07-24T09:10:10Z</time>
      </trkpt>
      <trkpt lat="43.3649680" lon="-7.4723010">
        <ele>455.6</ele>
        <time>2021-07-24T09:10:11Z</time>
      </trkpt>
      <trkpt lat="43.3648250" lon="-7.4723770">
        <ele>455.6</ele>
        <time>2021-07-24T09:10:20Z</time>
      </trkpt>
      <trkpt lat="43.3647120" lon="-7.4724270">
        <ele>456.0</ele>
        <time>2021-07-24T09:10:27Z</time>
      </trkpt>
      <trkpt lat="43.3646970" lon="-7.4724360">
        <ele>456.4</ele>
        <time>2021-07-24T09:10:28Z</time>
      </trkpt>
      <trkpt lat="43.3646840" lon="-7.4724450">
        <ele>456.8</ele>
        <time>2021-07-24T09:10:29Z</time>
      </trkpt>
      <trkpt lat="43.3646700" lon="-7.4724570">
        <ele>457.8</ele>
        <time>2021-07-24T09:10:30Z</time>
      </trkpt>
      <trkpt lat="43.3645850" lon="-7.4724990">
        <ele>457.8</ele>
        <time>2021-07-24T09:10:35Z</time>
      </trkpt>
      <trkpt lat="43.3644640" lon="-7.4726150">
        <ele>457.8</ele>
        <time>2021-07-24T09:10:42Z</time>
      </trkpt>
      <trkpt lat="43.3643760" lon="-7.4728340">
        <ele>457.8</ele>
        <time>2021-07-24T09:10:48Z</time>
      </trkpt>
      <trkpt lat="43.3642760" lon="-7.4731750">
        <ele>457.8</ele>
        <time>2021-07-24T09:10:55Z</time>
      </trkpt>
      <trkpt lat="43.3642590" lon="-7.4732260">
        <ele>458.2</ele>
        <time>2021-07-24T09:10:56Z</time>
      </trkpt>
      <trkpt lat="43.3642440" lon="-7.4732750">
        <ele>458.6</ele>
        <time>2021-07-24T09:10:57Z</time>
      </trkpt>
      <trkpt lat="43.3642270" lon="-7.4733230">
        <ele>459.0</ele>
        <time>2021-07-24T09:10:58Z</time>
      </trkpt>
      <trkpt lat="43.3642120" lon="-7.4733680">
        <ele>459.4</ele>
        <time>2021-07-24T09:10:59Z</time>
      </trkpt>
      <trkpt lat="43.3641970" lon="-7.4734120">
        <ele>459.8</ele>
        <time>2021-07-24T09:11:00Z</time>
      </trkpt>
      <trkpt lat="43.3641530" lon="-7.4735350">
        <ele>459.8</ele>
        <time>2021-07-24T09:11:03Z</time>
      </trkpt>
      <trkpt lat="43.3640670" lon="-7.4738160">
        <ele>459.8</ele>
        <time>2021-07-24T09:11:10Z</time>
      </trkpt>
      <trkpt lat="43.3640160" lon="-7.4739760">
        <ele>460.2</ele>
        <time>2021-07-24T09:11:14Z</time>
      </trkpt>
      <trkpt lat="43.3640040" lon="-7.4740140">
        <ele>460.6</ele>
        <time>2021-07-24T09:11:15Z</time>
      </trkpt>
      <trkpt lat="43.3639930" lon="-7.4740530">
        <ele>461.2</ele>
        <time>2021-07-24T09:11:16Z</time>
      </trkpt>
      <trkpt lat="43.3639830" lon="-7.4740920">
        <ele>461.6</ele>
        <time>2021-07-24T09:11:17Z</time>
      </trkpt>
      <trkpt lat="43.3639700" lon="-7.4741280">
        <ele>462.0</ele>
        <time>2021-07-24T09:11:18Z</time>
      </trkpt>
      <trkpt lat="43.3638620" lon="-7.4744350">
        <ele>462.0</ele>
        <time>2021-07-24T09:11:26Z</time>
      </trkpt>
      <trkpt lat="43.3637800" lon="-7.4747160">
        <ele>462.0</ele>
        <time>2021-07-24T09:11:33Z</time>
      </trkpt>
      <trkpt lat="43.3637510" lon="-7.4747970">
        <ele>462.4</ele>
        <time>2021-07-24T09:11:35Z</time>
      </trkpt>
      <trkpt lat="43.3637380" lon="-7.4748420">
        <ele>462.8</ele>
        <time>2021-07-24T09:11:36Z</time>
      </trkpt>
      <trkpt lat="43.3637250" lon="-7.4748870">
        <ele>463.2</ele>
        <time>2021-07-24T09:11:37Z</time>
      </trkpt>
      <trkpt lat="43.3637100" lon="-7.4749320">
        <ele>463.6</ele>
        <time>2021-07-24T09:11:38Z</time>
      </trkpt>
      <trkpt lat="43.3636950" lon="-7.4749810">
        <ele>464.0</ele>
        <time>2021-07-24T09:11:39Z</time>
      </trkpt>
      <trkpt lat="43.3636810" lon="-7.4750310">
        <ele>464.0</ele>
        <time>2021-07-24T09:11:40Z</time>
      </trkpt>
      <trkpt lat="43.3635770" lon="-7.4753520">
        <ele>464.0</ele>
        <time>2021-07-24T09:11:47Z</time>
      </trkpt>
      <trkpt lat="43.3635490" lon="-7.4754240">
        <ele>464.0</ele>
        <time>2021-07-24T09:11:49Z</time>
      </trkpt>
      <trkpt lat="43.3635260" lon="-7.4755000">
        <ele>464.0</ele>
        <time>2021-07-24T09:11:51Z</time>
      </trkpt>
      <trkpt lat="43.3635060" lon="-7.4755760">
        <ele>464.0</ele>
        <time>2021-07-24T09:11:53Z</time>
      </trkpt>
      <trkpt lat="43.3634860" lon="-7.4756560">
        <ele>464.0</ele>
        <time>2021-07-24T09:11:55Z</time>
      </trkpt>
      <trkpt lat="43.3634630" lon="-7.4757370">
        <ele>464.0</ele>
        <time>2021-07-24T09:11:57Z</time>
      </trkpt>
      <trkpt lat="43.3634350" lon="-7.4758210">
        <ele>464.0</ele>
        <time>2021-07-24T09:11:59Z</time>
      </trkpt>
      <trkpt lat="43.3634030" lon="-7.4759100">
        <ele>464.0</ele>
        <time>2021-07-24T09:12:01Z</time>
      </trkpt>
      <trkpt lat="43.3633710" lon="-7.4760020">
        <ele>463.6</ele>
        <time>2021-07-24T09:12:03Z</time>
      </trkpt>
      <trkpt lat="43.3633560" lon="-7.4760470">
        <ele>463.2</ele>
        <time>2021-07-24T09:12:04Z</time>
      </trkpt>
      <trkpt lat="43.3633420" lon="-7.4760860">
        <ele>462.8</ele>
        <time>2021-07-24T09:12:05Z</time>
      </trkpt>
      <trkpt lat="43.3633310" lon="-7.4761180">
        <ele>462.4</ele>
        <time>2021-07-24T09:12:06Z</time>
      </trkpt>
      <trkpt lat="43.3633230" lon="-7.4761420">
        <ele>462.0</ele>
        <time>2021-07-24T09:12:07Z</time>
      </trkpt>
      <trkpt lat="43.3633170" lon="-7.4761520">
        <ele>462.0</ele>
        <time>2021-07-24T09:12:09Z</time>
      </trkpt>
      <trkpt lat="43.3633080" lon="-7.4761840">
        <ele>462.0</ele>
        <time>2021-07-24T09:12:15Z</time>
      </trkpt>
      <trkpt lat="43.3632920" lon="-7.4762400">
        <ele>462.0</ele>
        <time>2021-07-24T09:12:17Z</time>
      </trkpt>
      <trkpt lat="43.3632230" lon="-7.4764750">
        <ele>462.0</ele>
        <time>2021-07-24T09:12:22Z</time>
      </trkpt>
      <trkpt lat="43.3632040" lon="-7.4765290">
        <ele>461.4</ele>
        <time>2021-07-24T09:12:23Z</time>
      </trkpt>
      <trkpt lat="43.3631850" lon="-7.4765870">
        <ele>461.0</ele>
        <time>2021-07-24T09:12:24Z</time>
      </trkpt>
      <trkpt lat="43.3631670" lon="-7.4766480">
        <ele>460.6</ele>
        <time>2021-07-24T09:12:25Z</time>
      </trkpt>
      <trkpt lat="43.3631510" lon="-7.4767110">
        <ele>460.2</ele>
        <time>2021-07-24T09:12:26Z</time>
      </trkpt>
      <trkpt lat="43.3631330" lon="-7.4767770">
        <ele>459.8</ele>
        <time>2021-07-24T09:12:27Z</time>
      </trkpt>
      <trkpt lat="43.3631140" lon="-7.4768450">
        <ele>459.8</ele>
        <time>2021-07-24T09:12:28Z</time>
      </trkpt>
      <trkpt lat="43.3630930" lon="-7.4769120">
        <ele>459.8</ele>
        <time>2021-07-24T09:12:29Z</time>
      </trkpt>
      <trkpt lat="43.3629560" lon="-7.4773660">
        <ele>459.8</ele>
        <time>2021-07-24T09:12:35Z</time>
      </trkpt>
      <trkpt lat="43.3629290" lon="-7.4774460">
        <ele>459.8</ele>
        <time>2021-07-24T09:12:36Z</time>
      </trkpt>
      <trkpt lat="43.3628450" lon="-7.4776990">
        <ele>459.8</ele>
        <time>2021-07-24T09:12:39Z</time>
      </trkpt>
      <trkpt lat="43.3628160" lon="-7.4777840">
        <ele>459.4</ele>
        <time>2021-07-24T09:12:40Z</time>
      </trkpt>
      <trkpt lat="43.3627900" lon="-7.4778680">
        <ele>459.0</ele>
        <time>2021-07-24T09:12:41Z</time>
      </trkpt>
      <trkpt lat="43.3627630" lon="-7.4779550">
        <ele>458.6</ele>
        <time>2021-07-24T09:12:42Z</time>
      </trkpt>
      <trkpt lat="43.3627370" lon="-7.4780370">
        <ele>458.2</ele>
        <time>2021-07-24T09:12:43Z</time>
      </trkpt>
      <trkpt lat="43.3627120" lon="-7.4781140">
        <ele>457.8</ele>
        <time>2021-07-24T09:12:44Z</time>
      </trkpt>
      <trkpt lat="43.3626080" lon="-7.4784270">
        <ele>457.8</ele>
        <time>2021-07-24T09:12:49Z</time>
      </trkpt>
      <trkpt lat="43.3625450" lon="-7.4786300">
        <ele>457.8</ele>
        <time>2021-07-24T09:12:54Z</time>
      </trkpt>
      <trkpt lat="43.3625340" lon="-7.4786670">
        <ele>457.8</ele>
        <time>2021-07-24T09:12:55Z</time>
      </trkpt>
      <trkpt lat="43.3625120" lon="-7.4787410">
        <ele>457.8</ele>
        <time>2021-07-24T09:12:57Z</time>
      </trkpt>
      <trkpt lat="43.3624890" lon="-7.4788120">
        <ele>457.8</ele>
        <time>2021-07-24T09:12:59Z</time>
      </trkpt>
      <trkpt lat="43.3624660" lon="-7.4788840">
        <ele>457.8</ele>
        <time>2021-07-24T09:13:01Z</time>
      </trkpt>
      <trkpt lat="43.3624460" lon="-7.4789540">
        <ele>457.8</ele>
        <time>2021-07-24T09:13:03Z</time>
      </trkpt>
      <trkpt lat="43.3624220" lon="-7.4790240">
        <ele>457.8</ele>
        <time>2021-07-24T09:13:05Z</time>
      </trkpt>
      <trkpt lat="43.3624050" lon="-7.4790880">
        <ele>457.8</ele>
        <time>2021-07-24T09:13:07Z</time>
      </trkpt>
      <trkpt lat="43.3623860" lon="-7.4791510">
        <ele>457.8</ele>
        <time>2021-07-24T09:13:09Z</time>
      </trkpt>
      <trkpt lat="43.3623500" lon="-7.4792540">
        <ele>457.8</ele>
        <time>2021-07-24T09:13:12Z</time>
      </trkpt>
      <trkpt lat="43.3623100" lon="-7.4793980">
        <ele>458.2</ele>
        <time>2021-07-24T09:13:16Z</time>
      </trkpt>
      <trkpt lat="43.3622990" lon="-7.4794330">
        <ele>458.6</ele>
        <time>2021-07-24T09:13:17Z</time>
      </trkpt>
      <trkpt lat="43.3622860" lon="-7.4794660">
        <ele>459.0</ele>
        <time>2021-07-24T09:13:18Z</time>
      </trkpt>
      <trkpt lat="43.3622740" lon="-7.4794990">
        <ele>459.4</ele>
        <time>2021-07-24T09:13:19Z</time>
      </trkpt>
      <trkpt lat="43.3622630" lon="-7.4795350">
        <ele>459.8</ele>
        <time>2021-07-24T09:13:20Z</time>
      </trkpt>
      <trkpt lat="43.3622120" lon="-7.4797070">
        <ele>459.8</ele>
        <time>2021-07-24T09:13:25Z</time>
      </trkpt>
      <trkpt lat="43.3621460" lon="-7.4800040">
        <ele>459.8</ele>
        <time>2021-07-24T09:13:33Z</time>
      </trkpt>
      <trkpt lat="43.3621730" lon="-7.4801900">
        <ele>459.8</ele>
        <time>2021-07-24T09:13:38Z</time>
      </trkpt>
      <trkpt lat="43.3621980" lon="-7.4804680">
        <ele>459.8</ele>
        <time>2021-07-24T09:13:45Z</time>
      </trkpt>
      <trkpt lat="43.3621740" lon="-7.4805400">
        <ele>460.2</ele>
        <time>2021-07-24T09:13:47Z</time>
      </trkpt>
      <trkpt lat="43.3621590" lon="-7.4805750">
        <ele>461.0</ele>
        <time>2021-07-24T09:13:48Z</time>
      </trkpt>
      <trkpt lat="43.3621410" lon="-7.4806090">
        <ele>461.4</ele>
        <time>2021-07-24T09:13:49Z</time>
      </trkpt>
      <trkpt lat="43.3621200" lon="-7.4806420">
        <ele>461.8</ele>
        <time>2021-07-24T09:13:50Z</time>
      </trkpt>
      <trkpt lat="43.3619570" lon="-7.4808020">
        <ele>461.8</ele>
        <time>2021-07-24T09:13:56Z</time>
      </trkpt>
      <trkpt lat="43.3618770" lon="-7.4808950">
        <ele>461.8</ele>
        <time>2021-07-24T09:13:59Z</time>
      </trkpt>
      <trkpt lat="43.3618210" lon="-7.4810230">
        <ele>461.8</ele>
        <time>2021-07-24T09:14:02Z</time>
      </trkpt>
      <trkpt lat="43.3617210" lon="-7.4813180">
        <ele>461.8</ele>
        <time>2021-07-24T09:14:09Z</time>
      </trkpt>
      <trkpt lat="43.3617070" lon="-7.4813590">
        <ele>461.8</ele>
        <time>2021-07-24T09:14:10Z</time>
      </trkpt>
      <trkpt lat="43.3616680" lon="-7.4814890">
        <ele>461.8</ele>
        <time>2021-07-24T09:14:13Z</time>
      </trkpt>
      <trkpt lat="43.3616090" lon="-7.4816630">
        <ele>461.8</ele>
        <time>2021-07-24T09:14:17Z</time>
      </trkpt>
      <trkpt lat="43.3615530" lon="-7.4818330">
        <ele>461.8</ele>
        <time>2021-07-24T09:14:21Z</time>
      </trkpt>
      <trkpt lat="43.3615090" lon="-7.4819690">
        <ele>461.8</ele>
        <time>2021-07-24T09:14:24Z</time>
      </trkpt>
      <trkpt lat="43.3614810" lon="-7.4820590">
        <ele>461.8</ele>
        <time>2021-07-24T09:14:26Z</time>
      </trkpt>
      <trkpt lat="43.3614670" lon="-7.4821060">
        <ele>461.4</ele>
        <time>2021-07-24T09:14:27Z</time>
      </trkpt>
      <trkpt lat="43.3614530" lon="-7.4821560">
        <ele>461.0</ele>
        <time>2021-07-24T09:14:28Z</time>
      </trkpt>
      <trkpt lat="43.3614370" lon="-7.4822090">
        <ele>460.6</ele>
        <time>2021-07-24T09:14:29Z</time>
      </trkpt>
      <trkpt lat="43.3614210" lon="-7.4822600">
        <ele>460.2</ele>
        <time>2021-07-24T09:14:30Z</time>
      </trkpt>
      <trkpt lat="43.3614050" lon="-7.4823090">
        <ele>459.6</ele>
        <time>2021-07-24T09:14:31Z</time>
      </trkpt>
      <trkpt lat="43.3613510" lon="-7.4824830">
        <ele>459.6</ele>
        <time>2021-07-24T09:14:35Z</time>
      </trkpt>
      <trkpt lat="43.3613330" lon="-7.4825690">
        <ele>459.6</ele>
        <time>2021-07-24T09:14:38Z</time>
      </trkpt>
      <trkpt lat="43.3613360" lon="-7.4825880">
        <ele>459.2</ele>
        <time>2021-07-24T09:14:39Z</time>
      </trkpt>
      <trkpt lat="43.3613370" lon="-7.4826000">
        <ele>458.8</ele>
        <time>2021-07-24T09:14:40Z</time>
      </trkpt>
      <trkpt lat="43.3613190" lon="-7.4826450">
        <ele>457.4</ele>
        <time>2021-07-24T09:16:16Z</time>
      </trkpt>
      <trkpt lat="43.3613080" lon="-7.4826610">
        <ele>457.4</ele>
        <time>2021-07-24T09:16:17Z</time>
      </trkpt>
      <trkpt lat="43.3612250" lon="-7.4828650">
        <ele>457.4</ele>
        <time>2021-07-24T09:16:23Z</time>
      </trkpt>
      <trkpt lat="43.3611240" lon="-7.4831800">
        <ele>457.4</ele>
        <time>2021-07-24T09:16:28Z</time>
      </trkpt>
      <trkpt lat="43.3609420" lon="-7.4837480">
        <ele>457.4</ele>
        <time>2021-07-24T09:16:35Z</time>
      </trkpt>
      <trkpt lat="43.3608860" lon="-7.4839330">
        <ele>457.0</ele>
        <time>2021-07-24T09:16:37Z</time>
      </trkpt>
      <trkpt lat="43.3608570" lon="-7.4840260">
        <ele>456.6</ele>
        <time>2021-07-24T09:16:38Z</time>
      </trkpt>
      <trkpt lat="43.3608280" lon="-7.4841190">
        <ele>456.2</ele>
        <time>2021-07-24T09:16:39Z</time>
      </trkpt>
      <trkpt lat="43.3607980" lon="-7.4842130">
        <ele>455.8</ele>
        <time>2021-07-24T09:16:40Z</time>
      </trkpt>
      <trkpt lat="43.3607670" lon="-7.4843090">
        <ele>455.4</ele>
        <time>2021-07-24T09:16:41Z</time>
      </trkpt>
      <trkpt lat="43.3607370" lon="-7.4844040">
        <ele>454.8</ele>
        <time>2021-07-24T09:16:42Z</time>
      </trkpt>
      <trkpt lat="43.3607060" lon="-7.4845000">
        <ele>454.2</ele>
        <time>2021-07-24T09:16:43Z</time>
      </trkpt>
      <trkpt lat="43.3606780" lon="-7.4845960">
        <ele>453.8</ele>
        <time>2021-07-24T09:16:44Z</time>
      </trkpt>
      <trkpt lat="43.3606470" lon="-7.4846940">
        <ele>453.2</ele>
        <time>2021-07-24T09:16:45Z</time>
      </trkpt>
      <trkpt lat="43.3606170" lon="-7.4847860">
        <ele>452.6</ele>
        <time>2021-07-24T09:16:46Z</time>
      </trkpt>
      <trkpt lat="43.3605110" lon="-7.4851350">
        <ele>452.6</ele>
        <time>2021-07-24T09:16:50Z</time>
      </trkpt>
      <trkpt lat="43.3604320" lon="-7.4853800">
        <ele>452.2</ele>
        <time>2021-07-24T09:16:53Z</time>
      </trkpt>
      <trkpt lat="43.3604070" lon="-7.4854560">
        <ele>451.8</ele>
        <time>2021-07-24T09:16:54Z</time>
      </trkpt>
      <trkpt lat="43.3603830" lon="-7.4855330">
        <ele>451.4</ele>
        <time>2021-07-24T09:16:55Z</time>
      </trkpt>
      <trkpt lat="43.3603610" lon="-7.4856110">
        <ele>450.8</ele>
        <time>2021-07-24T09:16:56Z</time>
      </trkpt>
      <trkpt lat="43.3603360" lon="-7.4856890">
        <ele>450.4</ele>
        <time>2021-07-24T09:16:57Z</time>
      </trkpt>
      <trkpt lat="43.3603130" lon="-7.4857640">
        <ele>450.4</ele>
        <time>2021-07-24T09:16:58Z</time>
      </trkpt>
      <trkpt lat="43.3601340" lon="-7.4863370">
        <ele>450.0</ele>
        <time>2021-07-24T09:17:06Z</time>
      </trkpt>
      <trkpt lat="43.3601110" lon="-7.4864080">
        <ele>449.6</ele>
        <time>2021-07-24T09:17:07Z</time>
      </trkpt>
      <trkpt lat="43.3600900" lon="-7.4864780">
        <ele>449.0</ele>
        <time>2021-07-24T09:17:08Z</time>
      </trkpt>
      <trkpt lat="43.3600690" lon="-7.4865470">
        <ele>448.6</ele>
        <time>2021-07-24T09:17:09Z</time>
      </trkpt>
      <trkpt lat="43.3600480" lon="-7.4866140">
        <ele>448.2</ele>
        <time>2021-07-24T09:17:10Z</time>
      </trkpt>
      <trkpt lat="43.3598820" lon="-7.4871470">
        <ele>448.2</ele>
        <time>2021-07-24T09:17:18Z</time>
      </trkpt>
      <trkpt lat="43.3598240" lon="-7.4873330">
        <ele>447.8</ele>
        <time>2021-07-24T09:17:21Z</time>
      </trkpt>
      <trkpt lat="43.3598040" lon="-7.4873960">
        <ele>447.4</ele>
        <time>2021-07-24T09:17:22Z</time>
      </trkpt>
      <trkpt lat="43.3597810" lon="-7.4874630">
        <ele>447.0</ele>
        <time>2021-07-24T09:17:23Z</time>
      </trkpt>
      <trkpt lat="43.3597620" lon="-7.4875240">
        <ele>446.6</ele>
        <time>2021-07-24T09:17:24Z</time>
      </trkpt>
      <trkpt lat="43.3597430" lon="-7.4875850">
        <ele>446.2</ele>
        <time>2021-07-24T09:17:25Z</time>
      </trkpt>
      <trkpt lat="43.3597020" lon="-7.4877080">
        <ele>446.2</ele>
        <time>2021-07-24T09:17:27Z</time>
      </trkpt>
      <trkpt lat="43.3595920" lon="-7.4880750">
        <ele>445.8</ele>
        <time>2021-07-24T09:17:33Z</time>
      </trkpt>
      <trkpt lat="43.3595770" lon="-7.4881240">
        <ele>445.2</ele>
        <time>2021-07-24T09:17:34Z</time>
      </trkpt>
      <trkpt lat="43.3595630" lon="-7.4881750">
        <ele>444.8</ele>
        <time>2021-07-24T09:17:35Z</time>
      </trkpt>
      <trkpt lat="43.3595510" lon="-7.4882280">
        <ele>444.2</ele>
        <time>2021-07-24T09:17:36Z</time>
      </trkpt>
      <trkpt lat="43.3595380" lon="-7.4882800">
        <ele>443.8</ele>
        <time>2021-07-24T09:17:37Z</time>
      </trkpt>
      <trkpt lat="43.3595220" lon="-7.4883470">
        <ele>443.4</ele>
        <time>2021-07-24T09:17:40Z</time>
      </trkpt>
      <trkpt lat="43.3595420" lon="-7.4882960">
        <ele>441.8</ele>
        <time>2021-07-24T09:18:23Z</time>
      </trkpt>
      <trkpt lat="43.3595630" lon="-7.4882320">
        <ele>441.8</ele>
        <time>2021-07-24T09:18:26Z</time>
      </trkpt>
      <trkpt lat="43.3596260" lon="-7.4880580">
        <ele>441.8</ele>
        <time>2021-07-24T09:18:35Z</time>
      </trkpt>
      <trkpt lat="43.3596390" lon="-7.4880470">
        <ele>441.8</ele>
        <time>2021-07-24T09:18:36Z</time>
      </trkpt>
      <trkpt lat="43.3596540" lon="-7.4880390">
        <ele>441.8</ele>
        <time>2021-07-24T09:18:39Z</time>
      </trkpt>
      <trkpt lat="43.3596870" lon="-7.4880490">
        <ele>441.8</ele>
        <time>2021-07-24T09:18:43Z</time>
      </trkpt>
      <trkpt lat="43.3597000" lon="-7.4880500">
        <ele>441.8</ele>
        <time>2021-07-24T09:18:44Z</time>
      </trkpt>
      <trkpt lat="43.3597640" lon="-7.4880730">
        <ele>441.8</ele>
        <time>2021-07-24T09:18:48Z</time>
      </trkpt>
      <trkpt lat="43.3598130" lon="-7.4880940">
        <ele>441.8</ele>
        <time>2021-07-24T09:18:51Z</time>
      </trkpt>
      <trkpt lat="43.3599630" lon="-7.4882000">
        <ele>441.8</ele>
        <time>2021-07-24T09:18:57Z</time>
      </trkpt>
      <trkpt lat="43.3600450" lon="-7.4882580">
        <ele>442.2</ele>
        <time>2021-07-24T09:19:00Z</time>
      </trkpt>
      <trkpt lat="43.3600720" lon="-7.4882760">
        <ele>442.6</ele>
        <time>2021-07-24T09:19:01Z</time>
      </trkpt>
      <trkpt lat="43.3600970" lon="-7.4882920">
        <ele>443.0</ele>
        <time>2021-07-24T09:19:02Z</time>
      </trkpt>
      <trkpt lat="43.3601220" lon="-7.4883060">
        <ele>443.4</ele>
        <time>2021-07-24T09:19:03Z</time>
      </trkpt>
      <trkpt lat="43.3601490" lon="-7.4883170">
        <ele>443.8</ele>
        <time>2021-07-24T09:19:04Z</time>
      </trkpt>
      <trkpt lat="43.3601740" lon="-7.4883300">
        <ele>443.8</ele>
        <time>2021-07-24T09:19:05Z</time>
      </trkpt>
      <trkpt lat="43.3603120" lon="-7.4883970">
        <ele>444.2</ele>
        <time>2021-07-24T09:19:11Z</time>
      </trkpt>
      <trkpt lat="43.3603330" lon="-7.4884070">
        <ele>444.6</ele>
        <time>2021-07-24T09:19:12Z</time>
      </trkpt>
      <trkpt lat="43.3603540" lon="-7.4884160">
        <ele>445.0</ele>
        <time>2021-07-24T09:19:13Z</time>
      </trkpt>
      <trkpt lat="43.3603760" lon="-7.4884270">
        <ele>445.6</ele>
        <time>2021-07-24T09:19:14Z</time>
      </trkpt>
      <trkpt lat="43.3604030" lon="-7.4884350">
        <ele>446.0</ele>
        <time>2021-07-24T09:19:15Z</time>
      </trkpt>
      <trkpt lat="43.3605160" lon="-7.4885440">
        <ele>446.0</ele>
        <time>2021-07-24T09:19:21Z</time>
      </trkpt>
      <trkpt lat="43.3605630" lon="-7.4886130">
        <ele>446.4</ele>
        <time>2021-07-24T09:19:24Z</time>
      </trkpt>
      <trkpt lat="43.3605750" lon="-7.4886480">
        <ele>446.8</ele>
        <time>2021-07-24T09:19:25Z</time>
      </trkpt>
      <trkpt lat="43.3605880" lon="-7.4886750">
        <ele>447.2</ele>
        <time>2021-07-24T09:19:26Z</time>
      </trkpt>
      <trkpt lat="43.3605960" lon="-7.4887040">
        <ele>447.6</ele>
        <time>2021-07-24T09:19:27Z</time>
      </trkpt>
      <trkpt lat="43.3606050" lon="-7.4887320">
        <ele>448.2</ele>
        <time>2021-07-24T09:19:28Z</time>
      </trkpt>
      <trkpt lat="43.3606200" lon="-7.4887580">
        <ele>448.2</ele>
        <time>2021-07-24T09:19:29Z</time>
      </trkpt>
      <trkpt lat="43.3606730" lon="-7.4888940">
        <ele>448.6</ele>
        <time>2021-07-24T09:19:35Z</time>
      </trkpt>
      <trkpt lat="43.3606810" lon="-7.4889110">
        <ele>449.0</ele>
        <time>2021-07-24T09:19:36Z</time>
      </trkpt>
      <trkpt lat="43.3606900" lon="-7.4889300">
        <ele>449.4</ele>
        <time>2021-07-24T09:19:37Z</time>
      </trkpt>
      <trkpt lat="43.3606990" lon="-7.4889460">
        <ele>449.8</ele>
        <time>2021-07-24T09:19:38Z</time>
      </trkpt>
      <trkpt lat="43.3607110" lon="-7.4889660">
        <ele>450.2</ele>
        <time>2021-07-24T09:19:39Z</time>
      </trkpt>
      <trkpt lat="43.3607790" lon="-7.4890450">
        <ele>450.2</ele>
        <time>2021-07-24T09:19:43Z</time>
      </trkpt>
      <trkpt lat="43.3608220" lon="-7.4890960">
        <ele>450.6</ele>
        <time>2021-07-24T09:19:46Z</time>
      </trkpt>
      <trkpt lat="43.3608360" lon="-7.4891130">
        <ele>451.0</ele>
        <time>2021-07-24T09:19:47Z</time>
      </trkpt>
      <trkpt lat="43.3608510" lon="-7.4891300">
        <ele>451.4</ele>
        <time>2021-07-24T09:19:48Z</time>
      </trkpt>
      <trkpt lat="43.3608660" lon="-7.4891440">
        <ele>451.8</ele>
        <time>2021-07-24T09:19:49Z</time>
      </trkpt>
      <trkpt lat="43.3608800" lon="-7.4891590">
        <ele>452.2</ele>
        <time>2021-07-24T09:19:50Z</time>
      </trkpt>
      <trkpt lat="43.3608930" lon="-7.4891740">
        <ele>452.2</ele>
        <time>2021-07-24T09:19:51Z</time>
      </trkpt>
      <trkpt lat="43.3609180" lon="-7.4891880">
        <ele>452.2</ele>
        <time>2021-07-24T09:19:53Z</time>
      </trkpt>
      <trkpt lat="43.3609270" lon="-7.4891860">
        <ele>452.2</ele>
        <time>2021-07-24T09:19:55Z</time>
      </trkpt>
      <trkpt lat="43.3609590" lon="-7.4892030">
        <ele>452.2</ele>
        <time>2021-07-24T09:20:40Z</time>
      </trkpt>
      <trkpt lat="43.3610420" lon="-7.4892580">
        <ele>452.2</ele>
        <time>2021-07-24T09:20:44Z</time>
      </trkpt>
      <trkpt lat="43.3610910" lon="-7.4892980">
        <ele>452.2</ele>
        <time>2021-07-24T09:20:46Z</time>
      </trkpt>
      <trkpt lat="43.3611910" lon="-7.4895040">
        <ele>452.2</ele>
        <time>2021-07-24T09:20:51Z</time>
      </trkpt>
      <trkpt lat="43.3613280" lon="-7.4897480">
        <ele>452.2</ele>
        <time>2021-07-24T09:20:58Z</time>
      </trkpt>
      <trkpt lat="43.3613690" lon="-7.4897890">
        <ele>452.6</ele>
        <time>2021-07-24T09:21:00Z</time>
      </trkpt>
      <trkpt lat="43.3613880" lon="-7.4898030">
        <ele>453.0</ele>
        <time>2021-07-24T09:21:01Z</time>
      </trkpt>
      <trkpt lat="43.3614120" lon="-7.4898160">
        <ele>453.4</ele>
        <time>2021-07-24T09:21:02Z</time>
      </trkpt>
      <trkpt lat="43.3614380" lon="-7.4898200">
        <ele>453.8</ele>
        <time>2021-07-24T09:21:03Z</time>
      </trkpt>
      <trkpt lat="43.3614610" lon="-7.4898200">
        <ele>454.2</ele>
        <time>2021-07-24T09:21:04Z</time>
      </trkpt>
      <trkpt lat="43.3615860" lon="-7.4897970">
        <ele>454.2</ele>
        <time>2021-07-24T09:21:11Z</time>
      </trkpt>
      <trkpt lat="43.3616210" lon="-7.4898030">
        <ele>455.0</ele>
        <time>2021-07-24T09:21:13Z</time>
      </trkpt>
      <trkpt lat="43.3616400" lon="-7.4897980">
        <ele>455.4</ele>
        <time>2021-07-24T09:21:14Z</time>
      </trkpt>
      <trkpt lat="43.3616550" lon="-7.4897990">
        <ele>456.0</ele>
        <time>2021-07-24T09:21:15Z</time>
      </trkpt>
      <trkpt lat="43.3616720" lon="-7.4898040">
        <ele>456.4</ele>
        <time>2021-07-24T09:21:16Z</time>
      </trkpt>
      <trkpt lat="43.3617090" lon="-7.4898120">
        <ele>456.4</ele>
        <time>2021-07-24T09:21:18Z</time>
      </trkpt>
      <trkpt lat="43.3617880" lon="-7.4898140">
        <ele>456.8</ele>
        <time>2021-07-24T09:21:23Z</time>
      </trkpt>
      <trkpt lat="43.3618030" lon="-7.4898180">
        <ele>457.2</ele>
        <time>2021-07-24T09:21:24Z</time>
      </trkpt>
      <trkpt lat="43.3618170" lon="-7.4898230">
        <ele>457.6</ele>
        <time>2021-07-24T09:21:25Z</time>
      </trkpt>
      <trkpt lat="43.3618310" lon="-7.4898260">
        <ele>458.0</ele>
        <time>2021-07-24T09:21:26Z</time>
      </trkpt>
      <trkpt lat="43.3618470" lon="-7.4898310">
        <ele>458.4</ele>
        <time>2021-07-24T09:21:27Z</time>
      </trkpt>
      <trkpt lat="43.3619380" lon="-7.4898720">
        <ele>458.4</ele>
        <time>2021-07-24T09:21:33Z</time>
      </trkpt>
      <trkpt lat="43.3619800" lon="-7.4898820">
        <ele>458.8</ele>
        <time>2021-07-24T09:21:36Z</time>
      </trkpt>
      <trkpt lat="43.3619960" lon="-7.4898880">
        <ele>459.8</ele>
        <time>2021-07-24T09:21:37Z</time>
      </trkpt>
      <trkpt lat="43.3620120" lon="-7.4898910">
        <ele>460.2</ele>
        <time>2021-07-24T09:21:38Z</time>
      </trkpt>
      <trkpt lat="43.3620270" lon="-7.4898950">
        <ele>460.6</ele>
        <time>2021-07-24T09:21:39Z</time>
      </trkpt>
      <trkpt lat="43.3620400" lon="-7.4899010">
        <ele>460.6</ele>
        <time>2021-07-24T09:21:40Z</time>
      </trkpt>
      <trkpt lat="43.3621230" lon="-7.4899530">
        <ele>461.0</ele>
        <time>2021-07-24T09:21:46Z</time>
      </trkpt>
      <trkpt lat="43.3621340" lon="-7.4899610">
        <ele>461.4</ele>
        <time>2021-07-24T09:21:47Z</time>
      </trkpt>
      <trkpt lat="43.3621480" lon="-7.4899680">
        <ele>461.8</ele>
        <time>2021-07-24T09:21:48Z</time>
      </trkpt>
      <trkpt lat="43.3621620" lon="-7.4899720">
        <ele>462.2</ele>
        <time>2021-07-24T09:21:49Z</time>
      </trkpt>
      <trkpt lat="43.3621770" lon="-7.4899700">
        <ele>462.6</ele>
        <time>2021-07-24T09:21:50Z</time>
      </trkpt>
      <trkpt lat="43.3622020" lon="-7.4899600">
        <ele>462.6</ele>
        <time>2021-07-24T09:21:52Z</time>
      </trkpt>
      <trkpt lat="43.3622260" lon="-7.4899360">
        <ele>462.6</ele>
        <time>2021-07-24T09:21:54Z</time>
      </trkpt>
      <trkpt lat="43.3623070" lon="-7.4898740">
        <ele>463.0</ele>
        <time>2021-07-24T09:21:59Z</time>
      </trkpt>
      <trkpt lat="43.3623230" lon="-7.4898650">
        <ele>463.4</ele>
        <time>2021-07-24T09:22:00Z</time>
      </trkpt>
      <trkpt lat="43.3623390" lon="-7.4898550">
        <ele>464.0</ele>
        <time>2021-07-24T09:22:01Z</time>
      </trkpt>
      <trkpt lat="43.3623560" lon="-7.4898470">
        <ele>464.8</ele>
        <time>2021-07-24T09:22:02Z</time>
      </trkpt>
      <trkpt lat="43.3624970" lon="-7.4897510">
        <ele>464.8</ele>
        <time>2021-07-24T09:22:11Z</time>
      </trkpt>
      <trkpt lat="43.3625960" lon="-7.4896880">
        <ele>464.8</ele>
        <time>2021-07-24T09:22:17Z</time>
      </trkpt>
      <trkpt lat="43.3627040" lon="-7.4896150">
        <ele>465.2</ele>
        <time>2021-07-24T09:22:23Z</time>
      </trkpt>
      <trkpt lat="43.3627220" lon="-7.4896030">
        <ele>465.6</ele>
        <time>2021-07-24T09:22:24Z</time>
      </trkpt>
      <trkpt lat="43.3627370" lon="-7.4895930">
        <ele>466.0</ele>
        <time>2021-07-24T09:22:25Z</time>
      </trkpt>
      <trkpt lat="43.3627560" lon="-7.4895830">
        <ele>466.4</ele>
        <time>2021-07-24T09:22:26Z</time>
      </trkpt>
      <trkpt lat="43.3627730" lon="-7.4895700">
        <ele>466.8</ele>
        <time>2021-07-24T09:22:27Z</time>
      </trkpt>
      <trkpt lat="43.3628200" lon="-7.4895090">
        <ele>466.8</ele>
        <time>2021-07-24T09:22:30Z</time>
      </trkpt>
      <trkpt lat="43.3629120" lon="-7.4893010">
        <ele>466.8</ele>
        <time>2021-07-24T09:22:37Z</time>
      </trkpt>
      <trkpt lat="43.3630590" lon="-7.4891090">
        <ele>466.8</ele>
        <time>2021-07-24T09:22:43Z</time>
      </trkpt>
      <trkpt lat="43.3632290" lon="-7.4888740">
        <ele>466.8</ele>
        <time>2021-07-24T09:22:50Z</time>
      </trkpt>
      <trkpt lat="43.3633800" lon="-7.4885630">
        <ele>466.8</ele>
        <time>2021-07-24T09:22:57Z</time>
      </trkpt>
      <trkpt lat="43.3635370" lon="-7.4881970">
        <ele>466.8</ele>
        <time>2021-07-24T09:23:05Z</time>
      </trkpt>
      <trkpt lat="43.3636510" lon="-7.4878850">
        <ele>466.8</ele>
        <time>2021-07-24T09:23:12Z</time>
      </trkpt>
      <trkpt lat="43.3636760" lon="-7.4878320">
        <ele>466.8</ele>
        <time>2021-07-24T09:23:15Z</time>
      </trkpt>
      <trkpt lat="43.3636930" lon="-7.4878610">
        <ele>466.8</ele>
        <time>2021-07-24T09:23:18Z</time>
      </trkpt>
      <trkpt lat="43.3637070" lon="-7.4878880">
        <ele>466.8</ele>
        <time>2021-07-24T09:23:20Z</time>
      </trkpt>
      <trkpt lat="43.3637090" lon="-7.4878890">
        <ele>466.8</ele>
        <time>2021-07-24T09:23:21Z</time>
      </trkpt>
      <trkpt lat="43.3637450" lon="-7.4879110">
        <ele>466.8</ele>
        <time>2021-07-24T09:24:03Z</time>
      </trkpt>
      <trkpt lat="43.3637820" lon="-7.4879220">
        <ele>466.8</ele>
        <time>2021-07-24T09:24:05Z</time>
      </trkpt>
      <trkpt lat="43.3639040" lon="-7.4880080">
        <ele>466.4</ele>
        <time>2021-07-24T09:24:10Z</time>
      </trkpt>
      <trkpt lat="43.3639230" lon="-7.4880490">
        <ele>466.0</ele>
        <time>2021-07-24T09:24:11Z</time>
      </trkpt>
      <trkpt lat="43.3639370" lon="-7.4880910">
        <ele>465.6</ele>
        <time>2021-07-24T09:24:12Z</time>
      </trkpt>
      <trkpt lat="43.3639480" lon="-7.4881400">
        <ele>465.2</ele>
        <time>2021-07-24T09:24:13Z</time>
      </trkpt>
      <trkpt lat="43.3639580" lon="-7.4881870">
        <ele>464.8</ele>
        <time>2021-07-24T09:24:14Z</time>
      </trkpt>
      <trkpt lat="43.3639970" lon="-7.4883400">
        <ele>464.8</ele>
        <time>2021-07-24T09:24:17Z</time>
      </trkpt>
      <trkpt lat="43.3640580" lon="-7.4886860">
        <ele>464.4</ele>
        <time>2021-07-24T09:24:23Z</time>
      </trkpt>
      <trkpt lat="43.3640650" lon="-7.4887400">
        <ele>464.0</ele>
        <time>2021-07-24T09:24:24Z</time>
      </trkpt>
      <trkpt lat="43.3640720" lon="-7.4887940">
        <ele>463.6</ele>
        <time>2021-07-24T09:24:25Z</time>
      </trkpt>
      <trkpt lat="43.3640770" lon="-7.4888480">
        <ele>463.2</ele>
        <time>2021-07-24T09:24:26Z</time>
      </trkpt>
      <trkpt lat="43.3640810" lon="-7.4889040">
        <ele>462.8</ele>
        <time>2021-07-24T09:24:27Z</time>
      </trkpt>
      <trkpt lat="43.3641020" lon="-7.4892190">
        <ele>462.8</ele>
        <time>2021-07-24T09:24:33Z</time>
      </trkpt>
      <trkpt lat="43.3640950" lon="-7.4893690">
        <ele>462.4</ele>
        <time>2021-07-24T09:24:36Z</time>
      </trkpt>
      <trkpt lat="43.3640900" lon="-7.4894160">
        <ele>461.8</ele>
        <time>2021-07-24T09:24:37Z</time>
      </trkpt>
      <trkpt lat="43.3640860" lon="-7.4894640">
        <ele>461.4</ele>
        <time>2021-07-24T09:24:38Z</time>
      </trkpt>
      <trkpt lat="43.3640800" lon="-7.4895070">
        <ele>461.0</ele>
        <time>2021-07-24T09:24:39Z</time>
      </trkpt>
      <trkpt lat="43.3640730" lon="-7.4895480">
        <ele>460.6</ele>
        <time>2021-07-24T09:24:40Z</time>
      </trkpt>
      <trkpt lat="43.3640640" lon="-7.4895880">
        <ele>460.6</ele>
        <time>2021-07-24T09:24:41Z</time>
      </trkpt>
      <trkpt lat="43.3639720" lon="-7.4897510">
        <ele>460.6</ele>
        <time>2021-07-24T09:24:46Z</time>
      </trkpt>
      <trkpt lat="43.3638040" lon="-7.4898830">
        <ele>460.6</ele>
        <time>2021-07-24T09:24:52Z</time>
      </trkpt>
      <trkpt lat="43.3636050" lon="-7.4899910">
        <ele>460.6</ele>
        <time>2021-07-24T09:24:58Z</time>
      </trkpt>
      <trkpt lat="43.3634290" lon="-7.4901250">
        <ele>460.6</ele>
        <time>2021-07-24T09:25:05Z</time>
      </trkpt>
      <trkpt lat="43.3632950" lon="-7.4902110">
        <ele>460.6</ele>
        <time>2021-07-24T09:25:11Z</time>
      </trkpt>
      <trkpt lat="43.3631800" lon="-7.4903170">
        <ele>461.0</ele>
        <time>2021-07-24T09:25:17Z</time>
      </trkpt>
      <trkpt lat="43.3631650" lon="-7.4903340">
        <ele>461.4</ele>
        <time>2021-07-24T09:25:18Z</time>
      </trkpt>
      <trkpt lat="43.3631500" lon="-7.4903510">
        <ele>461.8</ele>
        <time>2021-07-24T09:25:19Z</time>
      </trkpt>
      <trkpt lat="43.3631360" lon="-7.4903660">
        <ele>462.2</ele>
        <time>2021-07-24T09:25:20Z</time>
      </trkpt>
      <trkpt lat="43.3631220" lon="-7.4903780">
        <ele>462.8</ele>
        <time>2021-07-24T09:25:21Z</time>
      </trkpt>
      <trkpt lat="43.3630480" lon="-7.4904530">
        <ele>462.8</ele>
        <time>2021-07-24T09:25:27Z</time>
      </trkpt>
      <trkpt lat="43.3628950" lon="-7.4905560">
        <ele>462.8</ele>
        <time>2021-07-24T09:25:36Z</time>
      </trkpt>
      <trkpt lat="43.3626830" lon="-7.4907470">
        <ele>462.8</ele>
        <time>2021-07-24T09:25:46Z</time>
      </trkpt>
      <trkpt lat="43.3626410" lon="-7.4907810">
        <ele>462.2</ele>
        <time>2021-07-24T09:25:48Z</time>
      </trkpt>
      <trkpt lat="43.3626160" lon="-7.4908060">
        <ele>461.8</ele>
        <time>2021-07-24T09:25:49Z</time>
      </trkpt>
      <trkpt lat="43.3625870" lon="-7.4908350">
        <ele>461.4</ele>
        <time>2021-07-24T09:25:50Z</time>
      </trkpt>
      <trkpt lat="43.3625560" lon="-7.4908690">
        <ele>461.0</ele>
        <time>2021-07-24T09:25:51Z</time>
      </trkpt>
      <trkpt lat="43.3625210" lon="-7.4908960">
        <ele>460.6</ele>
        <time>2021-07-24T09:25:52Z</time>
      </trkpt>
      <trkpt lat="43.3624450" lon="-7.4909370">
        <ele>460.6</ele>
        <time>2021-07-24T09:25:54Z</time>
      </trkpt>
      <trkpt lat="43.3622800" lon="-7.4911070">
        <ele>460.6</ele>
        <time>2021-07-24T09:26:00Z</time>
      </trkpt>
      <trkpt lat="43.3622630" lon="-7.4911260">
        <ele>460.2</ele>
        <time>2021-07-24T09:26:01Z</time>
      </trkpt>
      <trkpt lat="43.3622400" lon="-7.4911510">
        <ele>459.8</ele>
        <time>2021-07-24T09:26:02Z</time>
      </trkpt>
      <trkpt lat="43.3622200" lon="-7.4911690">
        <ele>459.4</ele>
        <time>2021-07-24T09:26:03Z</time>
      </trkpt>
      <trkpt lat="43.3622020" lon="-7.4911820">
        <ele>459.0</ele>
        <time>2021-07-24T09:26:04Z</time>
      </trkpt>
      <trkpt lat="43.3621690" lon="-7.4912090">
        <ele>458.6</ele>
        <time>2021-07-24T09:26:05Z</time>
      </trkpt>
      <trkpt lat="43.3621340" lon="-7.4912480">
        <ele>458.6</ele>
        <time>2021-07-24T09:26:06Z</time>
      </trkpt>
      <trkpt lat="43.3620680" lon="-7.4913240">
        <ele>458.0</ele>
        <time>2021-07-24T09:26:08Z</time>
      </trkpt>
      <trkpt lat="43.3620400" lon="-7.4913610">
        <ele>457.6</ele>
        <time>2021-07-24T09:26:09Z</time>
      </trkpt>
      <trkpt lat="43.3620150" lon="-7.4913960">
        <ele>457.2</ele>
        <time>2021-07-24T09:26:10Z</time>
      </trkpt>
      <trkpt lat="43.3619900" lon="-7.4914280">
        <ele>456.4</ele>
        <time>2021-07-24T09:26:11Z</time>
      </trkpt>
      <trkpt lat="43.3619480" lon="-7.4914920">
        <ele>455.8</ele>
        <time>2021-07-24T09:26:13Z</time>
      </trkpt>
      <trkpt lat="43.3619260" lon="-7.4915260">
        <ele>455.4</ele>
        <time>2021-07-24T09:26:14Z</time>
      </trkpt>
      <trkpt lat="43.3619010" lon="-7.4915540">
        <ele>454.8</ele>
        <time>2021-07-24T09:26:15Z</time>
      </trkpt>
      <trkpt lat="43.3618810" lon="-7.4915930">
        <ele>454.2</ele>
        <time>2021-07-24T09:26:16Z</time>
      </trkpt>
      <trkpt lat="43.3618590" lon="-7.4916330">
        <ele>453.6</ele>
        <time>2021-07-24T09:26:17Z</time>
      </trkpt>
      <trkpt lat="43.3618450" lon="-7.4916790">
        <ele>453.0</ele>
        <time>2021-07-24T09:26:18Z</time>
      </trkpt>
      <trkpt lat="43.3618330" lon="-7.4917230">
        <ele>452.2</ele>
        <time>2021-07-24T09:26:19Z</time>
      </trkpt>
      <trkpt lat="43.3618220" lon="-7.4917710">
        <ele>451.6</ele>
        <time>2021-07-24T09:26:20Z</time>
      </trkpt>
      <trkpt lat="43.3618120" lon="-7.4918150">
        <ele>451.0</ele>
        <time>2021-07-24T09:26:21Z</time>
      </trkpt>
      <trkpt lat="43.3618030" lon="-7.4918600">
        <ele>450.2</ele>
        <time>2021-07-24T09:26:22Z</time>
      </trkpt>
      <trkpt lat="43.3617970" lon="-7.4919040">
        <ele>449.6</ele>
        <time>2021-07-24T09:26:23Z</time>
      </trkpt>
      <trkpt lat="43.3617890" lon="-7.4919470">
        <ele>449.0</ele>
        <time>2021-07-24T09:26:24Z</time>
      </trkpt>
      <trkpt lat="43.3617820" lon="-7.4919880">
        <ele>448.4</ele>
        <time>2021-07-24T09:26:25Z</time>
      </trkpt>
      <trkpt lat="43.3617770" lon="-7.4920170">
        <ele>447.8</ele>
        <time>2021-07-24T09:26:26Z</time>
      </trkpt>
      <trkpt lat="43.3617620" lon="-7.4920610">
        <ele>447.2</ele>
        <time>2021-07-24T09:26:27Z</time>
      </trkpt>
      <trkpt lat="43.3617530" lon="-7.4920990">
        <ele>446.6</ele>
        <time>2021-07-24T09:26:28Z</time>
      </trkpt>
      <trkpt lat="43.3617450" lon="-7.4921430">
        <ele>446.2</ele>
        <time>2021-07-24T09:26:29Z</time>
      </trkpt>
      <trkpt lat="43.3617380" lon="-7.4921890">
        <ele>445.6</ele>
        <time>2021-07-24T09:26:30Z</time>
      </trkpt>
      <trkpt lat="43.3617370" lon="-7.4922330">
        <ele>445.0</ele>
        <time>2021-07-24T09:26:31Z</time>
      </trkpt>
      <trkpt lat="43.3617400" lon="-7.4922840">
        <ele>444.4</ele>
        <time>2021-07-24T09:26:32Z</time>
      </trkpt>
      <trkpt lat="43.3617400" lon="-7.4923370">
        <ele>443.8</ele>
        <time>2021-07-24T09:26:33Z</time>
      </trkpt>
      <trkpt lat="43.3617380" lon="-7.4923970">
        <ele>443.2</ele>
        <time>2021-07-24T09:26:34Z</time>
      </trkpt>
      <trkpt lat="43.3617330" lon="-7.4924500">
        <ele>442.2</ele>
        <time>2021-07-24T09:26:35Z</time>
      </trkpt>
      <trkpt lat="43.3617310" lon="-7.4925100">
        <ele>441.6</ele>
        <time>2021-07-24T09:26:36Z</time>
      </trkpt>
      <trkpt lat="43.3617260" lon="-7.4925710">
        <ele>441.0</ele>
        <time>2021-07-24T09:26:37Z</time>
      </trkpt>
      <trkpt lat="43.3617160" lon="-7.4926180">
        <ele>440.4</ele>
        <time>2021-07-24T09:26:38Z</time>
      </trkpt>
      <trkpt lat="43.3617030" lon="-7.4926640">
        <ele>439.8</ele>
        <time>2021-07-24T09:26:39Z</time>
      </trkpt>
      <trkpt lat="43.3616880" lon="-7.4927140">
        <ele>439.2</ele>
        <time>2021-07-24T09:26:40Z</time>
      </trkpt>
      <trkpt lat="43.3616730" lon="-7.4927640">
        <ele>438.6</ele>
        <time>2021-07-24T09:26:41Z</time>
      </trkpt>
      <trkpt lat="43.3616610" lon="-7.4927990">
        <ele>438.0</ele>
        <time>2021-07-24T09:26:42Z</time>
      </trkpt>
      <trkpt lat="43.3616460" lon="-7.4928420">
        <ele>437.4</ele>
        <time>2021-07-24T09:26:43Z</time>
      </trkpt>
      <trkpt lat="43.3616260" lon="-7.4928910">
        <ele>437.0</ele>
        <time>2021-07-24T09:26:44Z</time>
      </trkpt>
      <trkpt lat="43.3616060" lon="-7.4929480">
        <ele>436.4</ele>
        <time>2021-07-24T09:26:45Z</time>
      </trkpt>
      <trkpt lat="43.3615870" lon="-7.4930040">
        <ele>435.8</ele>
        <time>2021-07-24T09:26:46Z</time>
      </trkpt>
      <trkpt lat="43.3615660" lon="-7.4930620">
        <ele>435.4</ele>
        <time>2021-07-24T09:26:47Z</time>
      </trkpt>
      <trkpt lat="43.3615360" lon="-7.4931620">
        <ele>434.8</ele>
        <time>2021-07-24T09:26:49Z</time>
      </trkpt>
      <trkpt lat="43.3615150" lon="-7.4932070">
        <ele>434.4</ele>
        <time>2021-07-24T09:26:50Z</time>
      </trkpt>
      <trkpt lat="43.3614990" lon="-7.4932500">
        <ele>433.8</ele>
        <time>2021-07-24T09:26:51Z</time>
      </trkpt>
      <trkpt lat="43.3614790" lon="-7.4932910">
        <ele>433.2</ele>
        <time>2021-07-24T09:26:52Z</time>
      </trkpt>
      <trkpt lat="43.3614630" lon="-7.4933250">
        <ele>432.8</ele>
        <time>2021-07-24T09:26:53Z</time>
      </trkpt>
      <trkpt lat="43.3614440" lon="-7.4933710">
        <ele>432.4</ele>
        <time>2021-07-24T09:26:54Z</time>
      </trkpt>
      <trkpt lat="43.3614300" lon="-7.4934070">
        <ele>431.8</ele>
        <time>2021-07-24T09:26:55Z</time>
      </trkpt>
      <trkpt lat="43.3614210" lon="-7.4934520">
        <ele>431.4</ele>
        <time>2021-07-24T09:26:56Z</time>
      </trkpt>
      <trkpt lat="43.3614020" lon="-7.4935070">
        <ele>431.0</ele>
        <time>2021-07-24T09:26:57Z</time>
      </trkpt>
      <trkpt lat="43.3613850" lon="-7.4935560">
        <ele>430.4</ele>
        <time>2021-07-24T09:26:58Z</time>
      </trkpt>
      <trkpt lat="43.3613600" lon="-7.4936350">
        <ele>429.6</ele>
        <time>2021-07-24T09:27:00Z</time>
      </trkpt>
      <trkpt lat="43.3613500" lon="-7.4936780">
        <ele>429.2</ele>
        <time>2021-07-24T09:27:01Z</time>
      </trkpt>
      <trkpt lat="43.3613390" lon="-7.4937180">
        <ele>428.8</ele>
        <time>2021-07-24T09:27:02Z</time>
      </trkpt>
      <trkpt lat="43.3613300" lon="-7.4937530">
        <ele>428.2</ele>
        <time>2021-07-24T09:27:03Z</time>
      </trkpt>
      <trkpt lat="43.3613190" lon="-7.4937860">
        <ele>427.8</ele>
        <time>2021-07-24T09:27:04Z</time>
      </trkpt>
      <trkpt lat="43.3613060" lon="-7.4938160">
        <ele>427.4</ele>
        <time>2021-07-24T09:27:05Z</time>
      </trkpt>
      <trkpt lat="43.3612950" lon="-7.4938410">
        <ele>427.0</ele>
        <time>2021-07-24T09:27:06Z</time>
      </trkpt>
      <trkpt lat="43.3612850" lon="-7.4938740">
        <ele>426.4</ele>
        <time>2021-07-24T09:27:07Z</time>
      </trkpt>
      <trkpt lat="43.3612720" lon="-7.4939050">
        <ele>426.0</ele>
        <time>2021-07-24T09:27:08Z</time>
      </trkpt>
      <trkpt lat="43.3612470" lon="-7.4939850">
        <ele>425.6</ele>
        <time>2021-07-24T09:27:10Z</time>
      </trkpt>
      <trkpt lat="43.3612330" lon="-7.4940280">
        <ele>425.2</ele>
        <time>2021-07-24T09:27:11Z</time>
      </trkpt>
      <trkpt lat="43.3612160" lon="-7.4940750">
        <ele>424.6</ele>
        <time>2021-07-24T09:27:12Z</time>
      </trkpt>
      <trkpt lat="43.3612000" lon="-7.4941190">
        <ele>424.2</ele>
        <time>2021-07-24T09:27:13Z</time>
      </trkpt>
      <trkpt lat="43.3611840" lon="-7.4941690">
        <ele>423.8</ele>
        <time>2021-07-24T09:27:14Z</time>
      </trkpt>
      <trkpt lat="43.3611680" lon="-7.4942170">
        <ele>423.4</ele>
        <time>2021-07-24T09:27:15Z</time>
      </trkpt>
      <trkpt lat="43.3611520" lon="-7.4942650">
        <ele>423.0</ele>
        <time>2021-07-24T09:27:16Z</time>
      </trkpt>
      <trkpt lat="43.3611360" lon="-7.4943110">
        <ele>422.4</ele>
        <time>2021-07-24T09:27:17Z</time>
      </trkpt>
      <trkpt lat="43.3611130" lon="-7.4943540">
        <ele>422.0</ele>
        <time>2021-07-24T09:27:18Z</time>
      </trkpt>
      <trkpt lat="43.3610870" lon="-7.4943940">
        <ele>421.6</ele>
        <time>2021-07-24T09:27:19Z</time>
      </trkpt>
      <trkpt lat="43.3610730" lon="-7.4944220">
        <ele>421.2</ele>
        <time>2021-07-24T09:27:20Z</time>
      </trkpt>
      <trkpt lat="43.3610480" lon="-7.4944560">
        <ele>420.8</ele>
        <time>2021-07-24T09:27:21Z</time>
      </trkpt>
      <trkpt lat="43.3610260" lon="-7.4944980">
        <ele>420.4</ele>
        <time>2021-07-24T09:27:22Z</time>
      </trkpt>
      <trkpt lat="43.3610050" lon="-7.4945350">
        <ele>420.0</ele>
        <time>2021-07-24T09:27:23Z</time>
      </trkpt>
      <trkpt lat="43.3609980" lon="-7.4945710">
        <ele>419.6</ele>
        <time>2021-07-24T09:27:24Z</time>
      </trkpt>
      <trkpt lat="43.3609900" lon="-7.4946080">
        <ele>418.8</ele>
        <time>2021-07-24T09:27:25Z</time>
      </trkpt>
      <trkpt lat="43.3609870" lon="-7.4946530">
        <ele>418.4</ele>
        <time>2021-07-24T09:27:26Z</time>
      </trkpt>
      <trkpt lat="43.3609800" lon="-7.4946970">
        <ele>418.0</ele>
        <time>2021-07-24T09:27:27Z</time>
      </trkpt>
      <trkpt lat="43.3609600" lon="-7.4947370">
        <ele>417.6</ele>
        <time>2021-07-24T09:27:28Z</time>
      </trkpt>
      <trkpt lat="43.3609040" lon="-7.4948100">
        <ele>417.6</ele>
        <time>2021-07-24T09:27:30Z</time>
      </trkpt>
      <trkpt lat="43.3608610" lon="-7.4948360">
        <ele>417.6</ele>
        <time>2021-07-24T09:27:31Z</time>
      </trkpt>
      <trkpt lat="43.3606730" lon="-7.4949120">
        <ele>417.6</ele>
        <time>2021-07-24T09:27:36Z</time>
      </trkpt>
      <trkpt lat="43.3604280" lon="-7.4950830">
        <ele>417.6</ele>
        <time>2021-07-24T09:27:43Z</time>
      </trkpt>
      <trkpt lat="43.3602240" lon="-7.4953300">
        <ele>417.6</ele>
        <time>2021-07-24T09:27:50Z</time>
      </trkpt>
      <trkpt lat="43.3599990" lon="-7.4954780">
        <ele>417.6</ele>
        <time>2021-07-24T09:27:57Z</time>
      </trkpt>
      <trkpt lat="43.3599110" lon="-7.4955340">
        <ele>417.2</ele>
        <time>2021-07-24T09:28:00Z</time>
      </trkpt>
      <trkpt lat="43.3598870" lon="-7.4955590">
        <ele>416.8</ele>
        <time>2021-07-24T09:28:01Z</time>
      </trkpt>
      <trkpt lat="43.3598620" lon="-7.4955830">
        <ele>416.4</ele>
        <time>2021-07-24T09:28:02Z</time>
      </trkpt>
      <trkpt lat="43.3598450" lon="-7.4956020">
        <ele>416.0</ele>
        <time>2021-07-24T09:28:03Z</time>
      </trkpt>
      <trkpt lat="43.3598270" lon="-7.4956200">
        <ele>415.6</ele>
        <time>2021-07-24T09:28:04Z</time>
      </trkpt>
      <trkpt lat="43.3598000" lon="-7.4956480">
        <ele>415.6</ele>
        <time>2021-07-24T09:28:07Z</time>
      </trkpt>
      <trkpt lat="43.3600240" lon="-7.4999680">
        <ele>455.6</ele>
        <time>2021-07-24T09:43:50Z</time>
      </trkpt>
      <trkpt lat="43.3600470" lon="-7.5001040">
        <ele>455.6</ele>
        <time>2021-07-24T09:44:00Z</time>
      </trkpt>
      <trkpt lat="43.3600480" lon="-7.5001170">
        <ele>456.0</ele>
        <time>2021-07-24T09:44:01Z</time>
      </trkpt>
      <trkpt lat="43.3600480" lon="-7.5001240">
        <ele>456.4</ele>
        <time>2021-07-24T09:44:02Z</time>
      </trkpt>
      <trkpt lat="43.3600230" lon="-7.5001330">
        <ele>457.6</ele>
        <time>2021-07-24T09:44:08Z</time>
      </trkpt>
      <trkpt lat="43.3599990" lon="-7.5001410">
        <ele>457.6</ele>
        <time>2021-07-24T09:44:09Z</time>
      </trkpt>
      <trkpt lat="43.3598040" lon="-7.5001970">
        <ele>457.6</ele>
        <time>2021-07-24T09:44:14Z</time>
      </trkpt>
      <trkpt lat="43.3595990" lon="-7.5003100">
        <ele>457.6</ele>
        <time>2021-07-24T09:44:18Z</time>
      </trkpt>
      <trkpt lat="43.3595510" lon="-7.5003490">
        <ele>457.2</ele>
        <time>2021-07-24T09:44:19Z</time>
      </trkpt>
      <trkpt lat="43.3595050" lon="-7.5003880">
        <ele>456.8</ele>
        <time>2021-07-24T09:44:20Z</time>
      </trkpt>
      <trkpt lat="43.3594630" lon="-7.5004250">
        <ele>456.4</ele>
        <time>2021-07-24T09:44:21Z</time>
      </trkpt>
      <trkpt lat="43.3594240" lon="-7.5004620">
        <ele>456.0</ele>
        <time>2021-07-24T09:44:22Z</time>
      </trkpt>
      <trkpt lat="43.3593880" lon="-7.5004980">
        <ele>455.6</ele>
        <time>2021-07-24T09:44:23Z</time>
      </trkpt>
      <trkpt lat="43.3593160" lon="-7.5005730">
        <ele>455.0</ele>
        <time>2021-07-24T09:44:25Z</time>
      </trkpt>
      <trkpt lat="43.3592780" lon="-7.5006140">
        <ele>454.6</ele>
        <time>2021-07-24T09:44:26Z</time>
      </trkpt>
      <trkpt lat="43.3592410" lon="-7.5006590">
        <ele>454.2</ele>
        <time>2021-07-24T09:44:27Z</time>
      </trkpt>
      <trkpt lat="43.3592040" lon="-7.5007070">
        <ele>453.8</ele>
        <time>2021-07-24T09:44:28Z</time>
      </trkpt>
      <trkpt lat="43.3591650" lon="-7.5007610">
        <ele>453.4</ele>
        <time>2021-07-24T09:44:29Z</time>
      </trkpt>
      <trkpt lat="43.3590480" lon="-7.5009120">
        <ele>453.4</ele>
        <time>2021-07-24T09:44:32Z</time>
      </trkpt>
      <trkpt lat="43.3589710" lon="-7.5010460">
        <ele>453.0</ele>
        <time>2021-07-24T09:44:34Z</time>
      </trkpt>
      <trkpt lat="43.3589330" lon="-7.5010980">
        <ele>452.6</ele>
        <time>2021-07-24T09:44:35Z</time>
      </trkpt>
      <trkpt lat="43.3588930" lon="-7.5011500">
        <ele>452.2</ele>
        <time>2021-07-24T09:44:36Z</time>
      </trkpt>
      <trkpt lat="43.3588520" lon="-7.5012060">
        <ele>451.8</ele>
        <time>2021-07-24T09:44:37Z</time>
      </trkpt>
      <trkpt lat="43.3588140" lon="-7.5012630">
        <ele>451.2</ele>
        <time>2021-07-24T09:44:38Z</time>
      </trkpt>
      <trkpt lat="43.3587770" lon="-7.5013190">
        <ele>450.8</ele>
        <time>2021-07-24T09:44:39Z</time>
      </trkpt>
      <trkpt lat="43.3587430" lon="-7.5013790">
        <ele>450.4</ele>
        <time>2021-07-24T09:44:40Z</time>
      </trkpt>
      <trkpt lat="43.3587110" lon="-7.5014400">
        <ele>450.0</ele>
        <time>2021-07-24T09:44:41Z</time>
      </trkpt>
      <trkpt lat="43.3586810" lon="-7.5015020">
        <ele>449.6</ele>
        <time>2021-07-24T09:44:42Z</time>
      </trkpt>
      <trkpt lat="43.3586500" lon="-7.5015650">
        <ele>449.2</ele>
        <time>2021-07-24T09:44:43Z</time>
      </trkpt>
      <trkpt lat="43.3586220" lon="-7.5016340">
        <ele>449.2</ele>
        <time>2021-07-24T09:44:44Z</time>
      </trkpt>
      <trkpt lat="43.3584340" lon="-7.5021110">
        <ele>449.2</ele>
        <time>2021-07-24T09:44:51Z</time>
      </trkpt>
      <trkpt lat="43.3583210" lon="-7.5023470">
        <ele>449.2</ele>
        <time>2021-07-24T09:44:56Z</time>
      </trkpt>
      <trkpt lat="43.3582390" lon="-7.5024580">
        <ele>449.2</ele>
        <time>2021-07-24T09:45:01Z</time>
      </trkpt>
      <trkpt lat="43.3581280" lon="-7.5026360">
        <ele>449.2</ele>
        <time>2021-07-24T09:45:07Z</time>
      </trkpt>
      <trkpt lat="43.3580100" lon="-7.5027970">
        <ele>449.6</ele>
        <time>2021-07-24T09:45:14Z</time>
      </trkpt>
      <trkpt lat="43.3579950" lon="-7.5028200">
        <ele>450.0</ele>
        <time>2021-07-24T09:45:15Z</time>
      </trkpt>
      <trkpt lat="43.3579800" lon="-7.5028420">
        <ele>450.4</ele>
        <time>2021-07-24T09:45:16Z</time>
      </trkpt>
      <trkpt lat="43.3579650" lon="-7.5028630">
        <ele>451.0</ele>
        <time>2021-07-24T09:45:17Z</time>
      </trkpt>
      <trkpt lat="43.3579500" lon="-7.5028850">
        <ele>451.4</ele>
        <time>2021-07-24T09:45:18Z</time>
      </trkpt>
      <trkpt lat="43.3579080" lon="-7.5029510">
        <ele>451.8</ele>
        <time>2021-07-24T09:45:21Z</time>
      </trkpt>
      <trkpt lat="43.3579000" lon="-7.5029740">
        <ele>452.2</ele>
        <time>2021-07-24T09:45:22Z</time>
      </trkpt>
      <trkpt lat="43.3578900" lon="-7.5029940">
        <ele>452.6</ele>
        <time>2021-07-24T09:45:23Z</time>
      </trkpt>
      <trkpt lat="43.3578780" lon="-7.5030170">
        <ele>453.0</ele>
        <time>2021-07-24T09:45:24Z</time>
      </trkpt>
      <trkpt lat="43.3578680" lon="-7.5030430">
        <ele>453.4</ele>
        <time>2021-07-24T09:45:25Z</time>
      </trkpt>
      <trkpt lat="43.3578240" lon="-7.5031300">
        <ele>453.8</ele>
        <time>2021-07-24T09:45:29Z</time>
      </trkpt>
      <trkpt lat="43.3578130" lon="-7.5031530">
        <ele>454.2</ele>
        <time>2021-07-24T09:45:30Z</time>
      </trkpt>
      <trkpt lat="43.3578040" lon="-7.5031750">
        <ele>454.6</ele>
        <time>2021-07-24T09:45:31Z</time>
      </trkpt>
      <trkpt lat="43.3577980" lon="-7.5031970">
        <ele>455.4</ele>
        <time>2021-07-24T09:45:32Z</time>
      </trkpt>
      <trkpt lat="43.3577680" lon="-7.5033140">
        <ele>455.4</ele>
        <time>2021-07-24T09:45:36Z</time>
      </trkpt>
      <trkpt lat="43.3577550" lon="-7.5033780">
        <ele>455.8</ele>
        <time>2021-07-24T09:45:38Z</time>
      </trkpt>
      <trkpt lat="43.3577510" lon="-7.5034090">
        <ele>456.2</ele>
        <time>2021-07-24T09:45:39Z</time>
      </trkpt>
      <trkpt lat="43.3577490" lon="-7.5034390">
        <ele>456.6</ele>
        <time>2021-07-24T09:45:40Z</time>
      </trkpt>
      <trkpt lat="43.3577460" lon="-7.5034700">
        <ele>457.0</ele>
        <time>2021-07-24T09:45:41Z</time>
      </trkpt>
      <trkpt lat="43.3577450" lon="-7.5035010">
        <ele>457.4</ele>
        <time>2021-07-24T09:45:42Z</time>
      </trkpt>
      <trkpt lat="43.3577440" lon="-7.5035300">
        <ele>457.4</ele>
        <time>2021-07-24T09:45:43Z</time>
      </trkpt>
      <trkpt lat="43.3577580" lon="-7.5036620">
        <ele>458.0</ele>
        <time>2021-07-24T09:45:48Z</time>
      </trkpt>
      <trkpt lat="43.3577590" lon="-7.5036870">
        <ele>458.4</ele>
        <time>2021-07-24T09:45:49Z</time>
      </trkpt>
      <trkpt lat="43.3577610" lon="-7.5037140">
        <ele>458.8</ele>
        <time>2021-07-24T09:45:50Z</time>
      </trkpt>
      <trkpt lat="43.3577600" lon="-7.5037400">
        <ele>459.2</ele>
        <time>2021-07-24T09:45:51Z</time>
      </trkpt>
      <trkpt lat="43.3577610" lon="-7.5037660">
        <ele>459.6</ele>
        <time>2021-07-24T09:45:52Z</time>
      </trkpt>
      <trkpt lat="43.3577690" lon="-7.5039920">
        <ele>459.6</ele>
        <time>2021-07-24T09:46:00Z</time>
      </trkpt>
      <trkpt lat="43.3577570" lon="-7.5041300">
        <ele>460.0</ele>
        <time>2021-07-24T09:46:05Z</time>
      </trkpt>
      <trkpt lat="43.3577550" lon="-7.5041620">
        <ele>460.4</ele>
        <time>2021-07-24T09:46:06Z</time>
      </trkpt>
      <trkpt lat="43.3577550" lon="-7.5041940">
        <ele>461.0</ele>
        <time>2021-07-24T09:46:07Z</time>
      </trkpt>
      <trkpt lat="43.3577490" lon="-7.5042260">
        <ele>461.4</ele>
        <time>2021-07-24T09:46:08Z</time>
      </trkpt>
      <trkpt lat="43.3577430" lon="-7.5042560">
        <ele>461.8</ele>
        <time>2021-07-24T09:46:09Z</time>
      </trkpt>
      <trkpt lat="43.3576900" lon="-7.5043910">
        <ele>461.8</ele>
        <time>2021-07-24T09:46:14Z</time>
      </trkpt>
      <trkpt lat="43.3575600" lon="-7.5045750">
        <ele>462.2</ele>
        <time>2021-07-24T09:46:21Z</time>
      </trkpt>
      <trkpt lat="43.3575430" lon="-7.5046010">
        <ele>462.6</ele>
        <time>2021-07-24T09:46:22Z</time>
      </trkpt>
      <trkpt lat="43.3575250" lon="-7.5046310">
        <ele>463.0</ele>
        <time>2021-07-24T09:46:23Z</time>
      </trkpt>
      <trkpt lat="43.3575080" lon="-7.5046580">
        <ele>463.4</ele>
        <time>2021-07-24T09:46:24Z</time>
      </trkpt>
      <trkpt lat="43.3574910" lon="-7.5046850">
        <ele>463.8</ele>
        <time>2021-07-24T09:46:25Z</time>
      </trkpt>
      <trkpt lat="43.3573980" lon="-7.5048220">
        <ele>463.8</ele>
        <time>2021-07-24T09:46:30Z</time>
      </trkpt>
      <trkpt lat="43.3571960" lon="-7.5051020">
        <ele>463.8</ele>
        <time>2021-07-24T09:46:38Z</time>
      </trkpt>
      <trkpt lat="43.3570120" lon="-7.5053500">
        <ele>463.8</ele>
        <time>2021-07-24T09:46:44Z</time>
      </trkpt>
      <trkpt lat="43.3568800" lon="-7.5055780">
        <ele>464.2</ele>
        <time>2021-07-24T09:46:51Z</time>
      </trkpt>
      <trkpt lat="43.3568610" lon="-7.5056070">
        <ele>464.8</ele>
        <time>2021-07-24T09:46:52Z</time>
      </trkpt>
      <trkpt lat="43.3568380" lon="-7.5056340">
        <ele>465.2</ele>
        <time>2021-07-24T09:46:53Z</time>
      </trkpt>
      <trkpt lat="43.3568160" lon="-7.5056600">
        <ele>465.6</ele>
        <time>2021-07-24T09:46:54Z</time>
      </trkpt>
      <trkpt lat="43.3567950" lon="-7.5056810">
        <ele>466.0</ele>
        <time>2021-07-24T09:46:55Z</time>
      </trkpt>
      <trkpt lat="43.3567730" lon="-7.5057070">
        <ele>466.0</ele>
        <time>2021-07-24T09:46:56Z</time>
      </trkpt>
      <trkpt lat="43.3566450" lon="-7.5057690">
        <ele>466.4</ele>
        <time>2021-07-24T09:47:01Z</time>
      </trkpt>
      <trkpt lat="43.3566200" lon="-7.5057800">
        <ele>466.8</ele>
        <time>2021-07-24T09:47:02Z</time>
      </trkpt>
      <trkpt lat="43.3565970" lon="-7.5057890">
        <ele>467.4</ele>
        <time>2021-07-24T09:47:03Z</time>
      </trkpt>
      <trkpt lat="43.3565740" lon="-7.5057940">
        <ele>467.8</ele>
        <time>2021-07-24T09:47:04Z</time>
      </trkpt>
      <trkpt lat="43.3565520" lon="-7.5057970">
        <ele>468.2</ele>
        <time>2021-07-24T09:47:05Z</time>
      </trkpt>
      <trkpt lat="43.3564350" lon="-7.5058270">
        <ele>468.2</ele>
        <time>2021-07-24T09:47:10Z</time>
      </trkpt>
      <trkpt lat="43.3563050" lon="-7.5058420">
        <ele>468.6</ele>
        <time>2021-07-24T09:47:15Z</time>
      </trkpt>
      <trkpt lat="43.3562790" lon="-7.5058420">
        <ele>469.0</ele>
        <time>2021-07-24T09:47:16Z</time>
      </trkpt>
      <trkpt lat="43.3562510" lon="-7.5058430">
        <ele>469.4</ele>
        <time>2021-07-24T09:47:17Z</time>
      </trkpt>
      <trkpt lat="43.3562240" lon="-7.5058460">
        <ele>469.8</ele>
        <time>2021-07-24T09:47:18Z</time>
      </trkpt>
      <trkpt lat="43.3561980" lon="-7.5058500">
        <ele>470.4</ele>
        <time>2021-07-24T09:47:19Z</time>
      </trkpt>
      <trkpt lat="43.3560600" lon="-7.5058700">
        <ele>470.4</ele>
        <time>2021-07-24T09:47:24Z</time>
      </trkpt>
      <trkpt lat="43.3558400" lon="-7.5058900">
        <ele>470.4</ele>
        <time>2021-07-24T09:47:32Z</time>
      </trkpt>
      <trkpt lat="43.3558100" lon="-7.5058950">
        <ele>470.8</ele>
        <time>2021-07-24T09:47:33Z</time>
      </trkpt>
      <trkpt lat="43.3557780" lon="-7.5058980">
        <ele>471.2</ele>
        <time>2021-07-24T09:47:34Z</time>
      </trkpt>
      <trkpt lat="43.3557450" lon="-7.5059000">
        <ele>471.6</ele>
        <time>2021-07-24T09:47:35Z</time>
      </trkpt>
      <trkpt lat="43.3557150" lon="-7.5059050">
        <ele>472.4</ele>
        <time>2021-07-24T09:47:36Z</time>
      </trkpt>
      <trkpt lat="43.3555880" lon="-7.5059250">
        <ele>472.4</ele>
        <time>2021-07-24T09:47:40Z</time>
      </trkpt>
      <trkpt lat="43.3553730" lon="-7.5059480">
        <ele>472.4</ele>
        <time>2021-07-24T09:47:46Z</time>
      </trkpt>
      <trkpt lat="43.3551000" lon="-7.5059950">
        <ele>472.4</ele>
        <time>2021-07-24T09:47:53Z</time>
      </trkpt>
      <trkpt lat="43.3550570" lon="-7.5060080">
        <ele>472.4</ele>
        <time>2021-07-24T09:47:54Z</time>
      </trkpt>
      <trkpt lat="43.3549120" lon="-7.5060990">
        <ele>472.4</ele>
        <time>2021-07-24T09:47:58Z</time>
      </trkpt>
      <trkpt lat="43.3548100" lon="-7.5062540">
        <ele>472.4</ele>
        <time>2021-07-24T09:48:02Z</time>
      </trkpt>
      <trkpt lat="43.3547660" lon="-7.5063340">
        <ele>472.4</ele>
        <time>2021-07-24T09:48:04Z</time>
      </trkpt>
      <trkpt lat="43.3545930" lon="-7.5065660">
        <ele>472.4</ele>
        <time>2021-07-24T09:48:11Z</time>
      </trkpt>
      <trkpt lat="43.3544230" lon="-7.5068400">
        <ele>472.4</ele>
        <time>2021-07-24T09:48:20Z</time>
      </trkpt>
      <trkpt lat="43.3542700" lon="-7.5070650">
        <ele>472.4</ele>
        <time>2021-07-24T09:48:28Z</time>
      </trkpt>
      <trkpt lat="43.3541500" lon="-7.5072640">
        <ele>472.8</ele>
        <time>2021-07-24T09:48:35Z</time>
      </trkpt>
      <trkpt lat="43.3541300" lon="-7.5072920">
        <ele>473.2</ele>
        <time>2021-07-24T09:48:36Z</time>
      </trkpt>
      <trkpt lat="43.3541100" lon="-7.5073190">
        <ele>473.6</ele>
        <time>2021-07-24T09:48:37Z</time>
      </trkpt>
      <trkpt lat="43.3540930" lon="-7.5073460">
        <ele>474.0</ele>
        <time>2021-07-24T09:48:38Z</time>
      </trkpt>
      <trkpt lat="43.3540760" lon="-7.5073730">
        <ele>474.4</ele>
        <time>2021-07-24T09:48:39Z</time>
      </trkpt>
      <trkpt lat="43.3540060" lon="-7.5074920">
        <ele>474.8</ele>
        <time>2021-07-24T09:48:43Z</time>
      </trkpt>
      <trkpt lat="43.3539890" lon="-7.5075190">
        <ele>475.2</ele>
        <time>2021-07-24T09:48:44Z</time>
      </trkpt>
      <trkpt lat="43.3539690" lon="-7.5075470">
        <ele>475.6</ele>
        <time>2021-07-24T09:48:45Z</time>
      </trkpt>
      <trkpt lat="43.3539500" lon="-7.5075760">
        <ele>476.0</ele>
        <time>2021-07-24T09:48:46Z</time>
      </trkpt>
      <trkpt lat="43.3539320" lon="-7.5076080">
        <ele>476.4</ele>
        <time>2021-07-24T09:48:47Z</time>
      </trkpt>
      <trkpt lat="43.3538090" lon="-7.5078130">
        <ele>476.4</ele>
        <time>2021-07-24T09:48:54Z</time>
      </trkpt>
      <trkpt lat="43.3536580" lon="-7.5080280">
        <ele>476.4</ele>
        <time>2021-07-24T09:49:02Z</time>
      </trkpt>
      <trkpt lat="43.3536370" lon="-7.5080530">
        <ele>476.8</ele>
        <time>2021-07-24T09:49:03Z</time>
      </trkpt>
      <trkpt lat="43.3536160" lon="-7.5080770">
        <ele>477.4</ele>
        <time>2021-07-24T09:49:04Z</time>
      </trkpt>
      <trkpt lat="43.3535970" lon="-7.5080990">
        <ele>477.8</ele>
        <time>2021-07-24T09:49:05Z</time>
      </trkpt>
      <trkpt lat="43.3535740" lon="-7.5081170">
        <ele>478.2</ele>
        <time>2021-07-24T09:49:06Z</time>
      </trkpt>
      <trkpt lat="43.3535480" lon="-7.5081360">
        <ele>478.6</ele>
        <time>2021-07-24T09:49:07Z</time>
      </trkpt>
      <trkpt lat="43.3535000" lon="-7.5081730">
        <ele>478.6</ele>
        <time>2021-07-24T09:49:09Z</time>
      </trkpt>
      <trkpt lat="43.3533340" lon="-7.5082910">
        <ele>478.6</ele>
        <time>2021-07-24T09:49:16Z</time>
      </trkpt>
      <trkpt lat="43.3530900" lon="-7.5084390">
        <ele>479.0</ele>
        <time>2021-07-24T09:49:25Z</time>
      </trkpt>
      <trkpt lat="43.3530620" lon="-7.5084640">
        <ele>479.4</ele>
        <time>2021-07-24T09:49:26Z</time>
      </trkpt>
      <trkpt lat="43.3530360" lon="-7.5084890">
        <ele>479.8</ele>
        <time>2021-07-24T09:49:27Z</time>
      </trkpt>
      <trkpt lat="43.3530080" lon="-7.5085160">
        <ele>480.2</ele>
        <time>2021-07-24T09:49:28Z</time>
      </trkpt>
      <trkpt lat="43.3529800" lon="-7.5085430">
        <ele>480.6</ele>
        <time>2021-07-24T09:49:29Z</time>
      </trkpt>
      <trkpt lat="43.3528820" lon="-7.5086640">
        <ele>480.6</ele>
        <time>2021-07-24T09:49:33Z</time>
      </trkpt>
      <trkpt lat="43.3527430" lon="-7.5088790">
        <ele>480.6</ele>
        <time>2021-07-24T09:49:40Z</time>
      </trkpt>
      <trkpt lat="43.3525990" lon="-7.5091120">
        <ele>480.6</ele>
        <time>2021-07-24T09:49:48Z</time>
      </trkpt>
      <trkpt lat="43.3525270" lon="-7.5092920">
        <ele>480.6</ele>
        <time>2021-07-24T09:49:54Z</time>
      </trkpt>
      <trkpt lat="43.3525030" lon="-7.5093830">
        <ele>481.0</ele>
        <time>2021-07-24T09:49:57Z</time>
      </trkpt>
      <trkpt lat="43.3524940" lon="-7.5094120">
        <ele>481.6</ele>
        <time>2021-07-24T09:49:58Z</time>
      </trkpt>
      <trkpt lat="43.3524840" lon="-7.5094380">
        <ele>482.0</ele>
        <time>2021-07-24T09:49:59Z</time>
      </trkpt>
      <trkpt lat="43.3524750" lon="-7.5094630">
        <ele>482.4</ele>
        <time>2021-07-24T09:50:00Z</time>
      </trkpt>
      <trkpt lat="43.3524680" lon="-7.5094880">
        <ele>483.0</ele>
        <time>2021-07-24T09:50:01Z</time>
      </trkpt>
      <trkpt lat="43.3524580" lon="-7.5095150">
        <ele>483.0</ele>
        <time>2021-07-24T09:50:02Z</time>
      </trkpt>
      <trkpt lat="43.3524150" lon="-7.5096410">
        <ele>483.4</ele>
        <time>2021-07-24T09:50:07Z</time>
      </trkpt>
      <trkpt lat="43.3524050" lon="-7.5096660">
        <ele>483.8</ele>
        <time>2021-07-24T09:50:08Z</time>
      </trkpt>
      <trkpt lat="43.3523990" lon="-7.5096930">
        <ele>484.2</ele>
        <time>2021-07-24T09:50:09Z</time>
      </trkpt>
      <trkpt lat="43.3523900" lon="-7.5097190">
        <ele>484.6</ele>
        <time>2021-07-24T09:50:10Z</time>
      </trkpt>
      <trkpt lat="43.3523820" lon="-7.5097470">
        <ele>485.0</ele>
        <time>2021-07-24T09:50:11Z</time>
      </trkpt>
      <trkpt lat="43.3523450" lon="-7.5098580">
        <ele>485.0</ele>
        <time>2021-07-24T09:50:16Z</time>
      </trkpt>
      <trkpt lat="43.3522760" lon="-7.5100320">
        <ele>485.4</ele>
        <time>2021-07-24T09:50:24Z</time>
      </trkpt>
      <trkpt lat="43.3522700" lon="-7.5100570">
        <ele>485.8</ele>
        <time>2021-07-24T09:50:25Z</time>
      </trkpt>
      <trkpt lat="43.3522650" lon="-7.5100780">
        <ele>486.2</ele>
        <time>2021-07-24T09:50:26Z</time>
      </trkpt>
      <trkpt lat="43.3522600" lon="-7.5101010">
        <ele>486.8</ele>
        <time>2021-07-24T09:50:27Z</time>
      </trkpt>
      <trkpt lat="43.3522540" lon="-7.5101210">
        <ele>487.2</ele>
        <time>2021-07-24T09:50:28Z</time>
      </trkpt>
      <trkpt lat="43.3522080" lon="-7.5102340">
        <ele>487.2</ele>
        <time>2021-07-24T09:50:33Z</time>
      </trkpt>
      <trkpt lat="43.3521780" lon="-7.5103460">
        <ele>487.6</ele>
        <time>2021-07-24T09:50:38Z</time>
      </trkpt>
      <trkpt lat="43.3521700" lon="-7.5103660">
        <ele>488.0</ele>
        <time>2021-07-24T09:50:39Z</time>
      </trkpt>
      <trkpt lat="43.3521620" lon="-7.5103870">
        <ele>488.4</ele>
        <time>2021-07-24T09:50:40Z</time>
      </trkpt>
      <trkpt lat="43.3521540" lon="-7.5104060">
        <ele>488.8</ele>
        <time>2021-07-24T09:50:41Z</time>
      </trkpt>
      <trkpt lat="43.3521450" lon="-7.5104250">
        <ele>489.2</ele>
        <time>2021-07-24T09:50:42Z</time>
      </trkpt>
      <trkpt lat="43.3521390" lon="-7.5104460">
        <ele>489.2</ele>
        <time>2021-07-24T09:50:43Z</time>
      </trkpt>
      <trkpt lat="43.3520810" lon="-7.5106240">
        <ele>489.6</ele>
        <time>2021-07-24T09:50:51Z</time>
      </trkpt>
      <trkpt lat="43.3520740" lon="-7.5106490">
        <ele>490.0</ele>
        <time>2021-07-24T09:50:52Z</time>
      </trkpt>
      <trkpt lat="43.3520630" lon="-7.5106730">
        <ele>491.0</ele>
        <time>2021-07-24T09:50:53Z</time>
      </trkpt>
      <trkpt lat="43.3520530" lon="-7.5106970">
        <ele>491.4</ele>
        <time>2021-07-24T09:50:54Z</time>
      </trkpt>
      <trkpt lat="43.3520170" lon="-7.5108270">
        <ele>491.4</ele>
        <time>2021-07-24T09:50:59Z</time>
      </trkpt>
      <trkpt lat="43.3519510" lon="-7.5110040">
        <ele>491.4</ele>
        <time>2021-07-24T09:51:06Z</time>
      </trkpt>
      <trkpt lat="43.3518940" lon="-7.5111900">
        <ele>491.4</ele>
        <time>2021-07-24T09:51:12Z</time>
      </trkpt>
      <trkpt lat="43.3518680" lon="-7.5112610">
        <ele>491.8</ele>
        <time>2021-07-24T09:51:14Z</time>
      </trkpt>
      <trkpt lat="43.3518530" lon="-7.5113000">
        <ele>492.2</ele>
        <time>2021-07-24T09:51:15Z</time>
      </trkpt>
      <trkpt lat="43.3518400" lon="-7.5113380">
        <ele>492.6</ele>
        <time>2021-07-24T09:51:16Z</time>
      </trkpt>
      <trkpt lat="43.3518260" lon="-7.5113770">
        <ele>493.0</ele>
        <time>2021-07-24T09:51:17Z</time>
      </trkpt>
      <trkpt lat="43.3518110" lon="-7.5114170">
        <ele>493.4</ele>
        <time>2021-07-24T09:51:18Z</time>
      </trkpt>
      <trkpt lat="43.3517850" lon="-7.5114990">
        <ele>493.4</ele>
        <time>2021-07-24T09:51:20Z</time>
      </trkpt>
      <trkpt lat="43.3516750" lon="-7.5118210">
        <ele>493.4</ele>
        <time>2021-07-24T09:51:28Z</time>
      </trkpt>
      <trkpt lat="43.3515570" lon="-7.5121670">
        <ele>493.4</ele>
        <time>2021-07-24T09:51:36Z</time>
      </trkpt>
      <trkpt lat="43.3514510" lon="-7.5124870">
        <ele>493.4</ele>
        <time>2021-07-24T09:51:43Z</time>
      </trkpt>
      <trkpt lat="43.3513420" lon="-7.5128220">
        <ele>493.4</ele>
        <time>2021-07-24T09:51:50Z</time>
      </trkpt>
      <trkpt lat="43.3512060" lon="-7.5132230">
        <ele>493.4</ele>
        <time>2021-07-24T09:51:58Z</time>
      </trkpt>
      <trkpt lat="43.3511890" lon="-7.5132690">
        <ele>494.0</ele>
        <time>2021-07-24T09:51:59Z</time>
      </trkpt>
      <trkpt lat="43.3511710" lon="-7.5133140">
        <ele>494.4</ele>
        <time>2021-07-24T09:52:00Z</time>
      </trkpt>
      <trkpt lat="43.3511530" lon="-7.5133580">
        <ele>494.8</ele>
        <time>2021-07-24T09:52:01Z</time>
      </trkpt>
      <trkpt lat="43.3511350" lon="-7.5134040">
        <ele>495.4</ele>
        <time>2021-07-24T09:52:02Z</time>
      </trkpt>
      <trkpt lat="43.3511190" lon="-7.5134510">
        <ele>495.8</ele>
        <time>2021-07-24T09:52:03Z</time>
      </trkpt>
      <trkpt lat="43.3510700" lon="-7.5135950">
        <ele>495.8</ele>
        <time>2021-07-24T09:52:06Z</time>
      </trkpt>
      <trkpt lat="43.3509050" lon="-7.5140920">
        <ele>495.8</ele>
        <time>2021-07-24T09:52:16Z</time>
      </trkpt>
      <trkpt lat="43.3508870" lon="-7.5141430">
        <ele>495.8</ele>
        <time>2021-07-24T09:52:17Z</time>
      </trkpt>
      <trkpt lat="43.3507450" lon="-7.5145450">
        <ele>495.8</ele>
        <time>2021-07-24T09:52:25Z</time>
      </trkpt>
      <trkpt lat="43.3506020" lon="-7.5149560">
        <ele>495.8</ele>
        <time>2021-07-24T09:52:33Z</time>
      </trkpt>
      <trkpt lat="43.3504650" lon="-7.5153590">
        <ele>495.8</ele>
        <time>2021-07-24T09:52:41Z</time>
      </trkpt>
      <trkpt lat="43.3503380" lon="-7.5157330">
        <ele>495.4</ele>
        <time>2021-07-24T09:52:49Z</time>
      </trkpt>
      <trkpt lat="43.3503210" lon="-7.5157760">
        <ele>495.0</ele>
        <time>2021-07-24T09:52:50Z</time>
      </trkpt>
      <trkpt lat="43.3503050" lon="-7.5158230">
        <ele>494.6</ele>
        <time>2021-07-24T09:52:51Z</time>
      </trkpt>
      <trkpt lat="43.3502890" lon="-7.5158700">
        <ele>494.2</ele>
        <time>2021-07-24T09:52:52Z</time>
      </trkpt>
      <trkpt lat="43.3502710" lon="-7.5159200">
        <ele>493.8</ele>
        <time>2021-07-24T09:52:53Z</time>
      </trkpt>
      <trkpt lat="43.3501830" lon="-7.5161430">
        <ele>493.8</ele>
        <time>2021-07-24T09:52:58Z</time>
      </trkpt>
      <trkpt lat="43.3500230" lon="-7.5163910">
        <ele>493.8</ele>
        <time>2021-07-24T09:53:05Z</time>
      </trkpt>
      <trkpt lat="43.3499050" lon="-7.5165270">
        <ele>493.8</ele>
        <time>2021-07-24T09:53:11Z</time>
      </trkpt>
      <trkpt lat="43.3497640" lon="-7.5167060">
        <ele>493.8</ele>
        <time>2021-07-24T09:53:16Z</time>
      </trkpt>
      <trkpt lat="43.3495960" lon="-7.5169590">
        <ele>493.8</ele>
        <time>2021-07-24T09:53:22Z</time>
      </trkpt>
      <trkpt lat="43.3495650" lon="-7.5170010">
        <ele>493.8</ele>
        <time>2021-07-24T09:53:23Z</time>
      </trkpt>
      <trkpt lat="43.3492660" lon="-7.5173950">
        <ele>493.8</ele>
        <time>2021-07-24T09:53:33Z</time>
      </trkpt>
      <trkpt lat="43.3490450" lon="-7.5176680">
        <ele>493.8</ele>
        <time>2021-07-24T09:53:41Z</time>
      </trkpt>
      <trkpt lat="43.3489440" lon="-7.5177760">
        <ele>493.4</ele>
        <time>2021-07-24T09:53:44Z</time>
      </trkpt>
      <trkpt lat="43.3489100" lon="-7.5178130">
        <ele>493.0</ele>
        <time>2021-07-24T09:53:45Z</time>
      </trkpt>
      <trkpt lat="43.3488720" lon="-7.5178450">
        <ele>492.0</ele>
        <time>2021-07-24T09:53:46Z</time>
      </trkpt>
      <trkpt lat="43.3488340" lon="-7.5178770">
        <ele>491.6</ele>
        <time>2021-07-24T09:53:47Z</time>
      </trkpt>
      <trkpt lat="43.3487940" lon="-7.5179080">
        <ele>491.6</ele>
        <time>2021-07-24T09:53:48Z</time>
      </trkpt>
      <trkpt lat="43.3485470" lon="-7.5181540">
        <ele>491.6</ele>
        <time>2021-07-24T09:53:55Z</time>
      </trkpt>
      <trkpt lat="43.3483860" lon="-7.5183370">
        <ele>491.6</ele>
        <time>2021-07-24T09:54:00Z</time>
      </trkpt>
      <trkpt lat="43.3483520" lon="-7.5183820">
        <ele>491.2</ele>
        <time>2021-07-24T09:54:01Z</time>
      </trkpt>
      <trkpt lat="43.3483170" lon="-7.5184260">
        <ele>490.8</ele>
        <time>2021-07-24T09:54:02Z</time>
      </trkpt>
      <trkpt lat="43.3482820" lon="-7.5184720">
        <ele>490.4</ele>
        <time>2021-07-24T09:54:03Z</time>
      </trkpt>
      <trkpt lat="43.3482490" lon="-7.5185210">
        <ele>490.0</ele>
        <time>2021-07-24T09:54:04Z</time>
      </trkpt>
      <trkpt lat="43.3482160" lon="-7.5185700">
        <ele>489.6</ele>
        <time>2021-07-24T09:54:05Z</time>
      </trkpt>
      <trkpt lat="43.3481060" lon="-7.5187670">
        <ele>489.6</ele>
        <time>2021-07-24T09:54:09Z</time>
      </trkpt>
      <trkpt lat="43.3479270" lon="-7.5192010">
        <ele>489.6</ele>
        <time>2021-07-24T09:54:17Z</time>
      </trkpt>
      <trkpt lat="43.3478710" lon="-7.5193640">
        <ele>489.2</ele>
        <time>2021-07-24T09:54:20Z</time>
      </trkpt>
      <trkpt lat="43.3478580" lon="-7.5194200">
        <ele>488.8</ele>
        <time>2021-07-24T09:54:21Z</time>
      </trkpt>
      <trkpt lat="43.3478510" lon="-7.5194770">
        <ele>488.4</ele>
        <time>2021-07-24T09:54:22Z</time>
      </trkpt>
      <trkpt lat="43.3478440" lon="-7.5195330">
        <ele>488.0</ele>
        <time>2021-07-24T09:54:23Z</time>
      </trkpt>
      <trkpt lat="43.3478370" lon="-7.5195870">
        <ele>487.4</ele>
        <time>2021-07-24T09:54:24Z</time>
      </trkpt>
      <trkpt lat="43.3477820" lon="-7.5200170">
        <ele>487.4</ele>
        <time>2021-07-24T09:54:32Z</time>
      </trkpt>
      <trkpt lat="43.3477580" lon="-7.5203750">
        <ele>487.4</ele>
        <time>2021-07-24T09:54:39Z</time>
      </trkpt>
      <trkpt lat="43.3476840" lon="-7.5206990">
        <ele>487.4</ele>
        <time>2021-07-24T09:54:46Z</time>
      </trkpt>
      <trkpt lat="43.3475490" lon="-7.5210010">
        <ele>487.4</ele>
        <time>2021-07-24T09:54:52Z</time>
      </trkpt>
      <trkpt lat="43.3474640" lon="-7.5211930">
        <ele>487.0</ele>
        <time>2021-07-24T09:54:55Z</time>
      </trkpt>
      <trkpt lat="43.3474350" lon="-7.5212510">
        <ele>486.6</ele>
        <time>2021-07-24T09:54:56Z</time>
      </trkpt>
      <trkpt lat="43.3474090" lon="-7.5213050">
        <ele>486.2</ele>
        <time>2021-07-24T09:54:57Z</time>
      </trkpt>
      <trkpt lat="43.3473880" lon="-7.5213590">
        <ele>485.8</ele>
        <time>2021-07-24T09:54:59Z</time>
      </trkpt>
      <trkpt lat="43.3473690" lon="-7.5214100">
        <ele>485.2</ele>
        <time>2021-07-24T09:55:00Z</time>
      </trkpt>
      <trkpt lat="43.3473200" lon="-7.5215170">
        <ele>485.2</ele>
        <time>2021-07-24T09:55:02Z</time>
      </trkpt>
      <trkpt lat="43.3472530" lon="-7.5216450">
        <ele>485.2</ele>
        <time>2021-07-24T09:55:04Z</time>
      </trkpt>
      <trkpt lat="43.3472170" lon="-7.5217080">
        <ele>484.8</ele>
        <time>2021-07-24T09:55:05Z</time>
      </trkpt>
      <trkpt lat="43.3471830" lon="-7.5217700">
        <ele>484.4</ele>
        <time>2021-07-24T09:55:06Z</time>
      </trkpt>
      <trkpt lat="43.3471550" lon="-7.5218170">
        <ele>484.0</ele>
        <time>2021-07-24T09:55:07Z</time>
      </trkpt>
      <trkpt lat="43.3471290" lon="-7.5218570">
        <ele>483.6</ele>
        <time>2021-07-24T09:55:08Z</time>
      </trkpt>
      <trkpt lat="43.3471050" lon="-7.5218930">
        <ele>483.2</ele>
        <time>2021-07-24T09:55:09Z</time>
      </trkpt>
      <trkpt lat="43.3470820" lon="-7.5219290">
        <ele>482.6</ele>
        <time>2021-07-24T09:55:10Z</time>
      </trkpt>
      <trkpt lat="43.3470590" lon="-7.5219710">
        <ele>482.2</ele>
        <time>2021-07-24T09:55:11Z</time>
      </trkpt>
      <trkpt lat="43.3470320" lon="-7.5220130">
        <ele>481.8</ele>
        <time>2021-07-24T09:55:12Z</time>
      </trkpt>
      <trkpt lat="43.3470080" lon="-7.5220550">
        <ele>481.4</ele>
        <time>2021-07-24T09:55:13Z</time>
      </trkpt>
      <trkpt lat="43.3469870" lon="-7.5221000">
        <ele>480.8</ele>
        <time>2021-07-24T09:55:14Z</time>
      </trkpt>
      <trkpt lat="43.3469770" lon="-7.5221480">
        <ele>480.8</ele>
        <time>2021-07-24T09:55:15Z</time>
      </trkpt>
      <trkpt lat="43.3469570" lon="-7.5224750">
        <ele>480.8</ele>
        <time>2021-07-24T09:55:21Z</time>
      </trkpt>
      <trkpt lat="43.3469560" lon="-7.5227730">
        <ele>480.0</ele>
        <time>2021-07-24T09:55:26Z</time>
      </trkpt>
      <trkpt lat="43.3469530" lon="-7.5228330">
        <ele>479.6</ele>
        <time>2021-07-24T09:55:27Z</time>
      </trkpt>
      <trkpt lat="43.3469510" lon="-7.5228930">
        <ele>479.2</ele>
        <time>2021-07-24T09:55:28Z</time>
      </trkpt>
      <trkpt lat="43.3469530" lon="-7.5229560">
        <ele>478.6</ele>
        <time>2021-07-24T09:55:29Z</time>
      </trkpt>
      <trkpt lat="43.3469540" lon="-7.5230150">
        <ele>478.6</ele>
        <time>2021-07-24T09:55:30Z</time>
      </trkpt>
      <trkpt lat="43.3469600" lon="-7.5234640">
        <ele>478.6</ele>
        <time>2021-07-24T09:55:38Z</time>
      </trkpt>
      <trkpt lat="43.3469610" lon="-7.5236370">
        <ele>478.2</ele>
        <time>2021-07-24T09:55:41Z</time>
      </trkpt>
      <trkpt lat="43.3469580" lon="-7.5236950">
        <ele>477.8</ele>
        <time>2021-07-24T09:55:42Z</time>
      </trkpt>
      <trkpt lat="43.3469500" lon="-7.5237530">
        <ele>477.4</ele>
        <time>2021-07-24T09:55:43Z</time>
      </trkpt>
      <trkpt lat="43.3469400" lon="-7.5238130">
        <ele>477.0</ele>
        <time>2021-07-24T09:55:44Z</time>
      </trkpt>
      <trkpt lat="43.3469320" lon="-7.5238710">
        <ele>476.6</ele>
        <time>2021-07-24T09:55:45Z</time>
      </trkpt>
      <trkpt lat="43.3469280" lon="-7.5242440">
        <ele>476.6</ele>
        <time>2021-07-24T09:55:51Z</time>
      </trkpt>
      <trkpt lat="43.3469300" lon="-7.5246480">
        <ele>476.6</ele>
        <time>2021-07-24T09:55:57Z</time>
      </trkpt>
      <trkpt lat="43.3469110" lon="-7.5247930">
        <ele>476.6</ele>
        <time>2021-07-24T09:55:59Z</time>
      </trkpt>
      <trkpt lat="43.3469020" lon="-7.5248690">
        <ele>476.0</ele>
        <time>2021-07-24T09:56:00Z</time>
      </trkpt>
      <trkpt lat="43.3468940" lon="-7.5249480">
        <ele>475.4</ele>
        <time>2021-07-24T09:56:01Z</time>
      </trkpt>
      <trkpt lat="43.3468850" lon="-7.5250330">
        <ele>474.8</ele>
        <time>2021-07-24T09:56:02Z</time>
      </trkpt>
      <trkpt lat="43.3468760" lon="-7.5251180">
        <ele>474.0</ele>
        <time>2021-07-24T09:56:03Z</time>
      </trkpt>
      <trkpt lat="43.3468660" lon="-7.5252040">
        <ele>473.4</ele>
        <time>2021-07-24T09:56:04Z</time>
      </trkpt>
      <trkpt lat="43.3468580" lon="-7.5252880">
        <ele>472.8</ele>
        <time>2021-07-24T09:56:05Z</time>
      </trkpt>
      <trkpt lat="43.3468490" lon="-7.5253690">
        <ele>472.0</ele>
        <time>2021-07-24T09:56:06Z</time>
      </trkpt>
      <trkpt lat="43.3468430" lon="-7.5254490">
        <ele>471.4</ele>
        <time>2021-07-24T09:56:07Z</time>
      </trkpt>
      <trkpt lat="43.3468350" lon="-7.5255230">
        <ele>470.8</ele>
        <time>2021-07-24T09:56:08Z</time>
      </trkpt>
      <trkpt lat="43.3468260" lon="-7.5256020">
        <ele>470.4</ele>
        <time>2021-07-24T09:56:09Z</time>
      </trkpt>
      <trkpt lat="43.3468180" lon="-7.5256830">
        <ele>470.0</ele>
        <time>2021-07-24T09:56:10Z</time>
      </trkpt>
      <trkpt lat="43.3468120" lon="-7.5257590">
        <ele>469.6</ele>
        <time>2021-07-24T09:56:11Z</time>
      </trkpt>
      <trkpt lat="43.3468060" lon="-7.5258350">
        <ele>469.0</ele>
        <time>2021-07-24T09:56:12Z</time>
      </trkpt>
      <trkpt lat="43.3468010" lon="-7.5259120">
        <ele>468.6</ele>
        <time>2021-07-24T09:56:13Z</time>
      </trkpt>
      <trkpt lat="43.3467940" lon="-7.5259850">
        <ele>468.0</ele>
        <time>2021-07-24T09:56:14Z</time>
      </trkpt>
      <trkpt lat="43.3467860" lon="-7.5260610">
        <ele>467.6</ele>
        <time>2021-07-24T09:56:15Z</time>
      </trkpt>
      <trkpt lat="43.3467780" lon="-7.5261330">
        <ele>466.6</ele>
        <time>2021-07-24T09:56:16Z</time>
      </trkpt>
      <trkpt lat="43.3467700" lon="-7.5262060">
        <ele>466.0</ele>
        <time>2021-07-24T09:56:17Z</time>
      </trkpt>
      <trkpt lat="43.3467630" lon="-7.5262810">
        <ele>465.4</ele>
        <time>2021-07-24T09:56:18Z</time>
      </trkpt>
      <trkpt lat="43.3467550" lon="-7.5263570">
        <ele>464.8</ele>
        <time>2021-07-24T09:56:19Z</time>
      </trkpt>
      <trkpt lat="43.3467480" lon="-7.5264290">
        <ele>464.0</ele>
        <time>2021-07-24T09:56:20Z</time>
      </trkpt>
      <trkpt lat="43.3467400" lon="-7.5265010">
        <ele>463.2</ele>
        <time>2021-07-24T09:56:21Z</time>
      </trkpt>
      <trkpt lat="43.3467310" lon="-7.5265740">
        <ele>462.4</ele>
        <time>2021-07-24T09:56:22Z</time>
      </trkpt>
      <trkpt lat="43.3467230" lon="-7.5266410">
        <ele>461.8</ele>
        <time>2021-07-24T09:56:23Z</time>
      </trkpt>
      <trkpt lat="43.3467170" lon="-7.5267030">
        <ele>461.0</ele>
        <time>2021-07-24T09:56:24Z</time>
      </trkpt>
      <trkpt lat="43.3467110" lon="-7.5267580">
        <ele>460.4</ele>
        <time>2021-07-24T09:56:25Z</time>
      </trkpt>
      <trkpt lat="43.3467040" lon="-7.5268050">
        <ele>459.6</ele>
        <time>2021-07-24T09:56:26Z</time>
      </trkpt>
      <trkpt lat="43.3466980" lon="-7.5268450">
        <ele>458.8</ele>
        <time>2021-07-24T09:56:27Z</time>
      </trkpt>
      <trkpt lat="43.3466940" lon="-7.5268780">
        <ele>458.0</ele>
        <time>2021-07-24T09:56:28Z</time>
      </trkpt>
      <trkpt lat="43.3466930" lon="-7.5269060">
        <ele>457.0</ele>
        <time>2021-07-24T09:56:29Z</time>
      </trkpt>
      <trkpt lat="43.3466920" lon="-7.5269260">
        <ele>456.4</ele>
        <time>2021-07-24T09:56:30Z</time>
      </trkpt>
      <trkpt lat="43.3466880" lon="-7.5269420">
        <ele>455.8</ele>
        <time>2021-07-24T09:56:31Z</time>
      </trkpt>
      <trkpt lat="43.3466800" lon="-7.5269640">
        <ele>455.0</ele>
        <time>2021-07-24T09:56:32Z</time>
      </trkpt>
      <trkpt lat="43.3466610" lon="-7.5269880">
        <ele>454.4</ele>
        <time>2021-07-24T09:56:33Z</time>
      </trkpt>
      <trkpt lat="43.3466360" lon="-7.5270090">
        <ele>453.8</ele>
        <time>2021-07-24T09:56:34Z</time>
      </trkpt>
      <trkpt lat="43.3466050" lon="-7.5270250">
        <ele>453.8</ele>
        <time>2021-07-24T09:56:35Z</time>
      </trkpt>
      <trkpt lat="43.3464490" lon="-7.5270290">
        <ele>453.8</ele>
        <time>2021-07-24T09:56:39Z</time>
      </trkpt>
      <trkpt lat="43.3464050" lon="-7.5270280">
        <ele>453.8</ele>
        <time>2021-07-24T09:56:40Z</time>
      </trkpt>
      <trkpt lat="43.3461900" lon="-7.5270140">
        <ele>453.8</ele>
        <time>2021-07-24T09:56:45Z</time>
      </trkpt>
      <trkpt lat="43.3459360" lon="-7.5270070">
        <ele>453.8</ele>
        <time>2021-07-24T09:56:52Z</time>
      </trkpt>
      <trkpt lat="43.3458420" lon="-7.5270170">
        <ele>453.8</ele>
        <time>2021-07-24T09:56:57Z</time>
      </trkpt>
      <trkpt lat="43.3458410" lon="-7.5270200">
        <ele>453.8</ele>
        <time>2021-07-24T09:56:59Z</time>
      </trkpt>
      <trkpt lat="43.3458250" lon="-7.5270490">
        <ele>453.8</ele>
        <time>2021-07-24T09:57:28Z</time>
      </trkpt>
      <trkpt lat="43.3458150" lon="-7.5270830">
        <ele>453.8</ele>
        <time>2021-07-24T09:57:29Z</time>
      </trkpt>
      <trkpt lat="43.3458000" lon="-7.5272730">
        <ele>453.2</ele>
        <time>2021-07-24T09:57:33Z</time>
      </trkpt>
      <trkpt lat="43.3457920" lon="-7.5273290">
        <ele>452.8</ele>
        <time>2021-07-24T09:57:34Z</time>
      </trkpt>
      <trkpt lat="43.3457880" lon="-7.5273830">
        <ele>452.4</ele>
        <time>2021-07-24T09:57:35Z</time>
      </trkpt>
      <trkpt lat="43.3457810" lon="-7.5274390">
        <ele>452.0</ele>
        <time>2021-07-24T09:57:36Z</time>
      </trkpt>
      <trkpt lat="43.3457740" lon="-7.5274990">
        <ele>451.6</ele>
        <time>2021-07-24T09:57:37Z</time>
      </trkpt>
      <trkpt lat="43.3457520" lon="-7.5277050">
        <ele>451.6</ele>
        <time>2021-07-24T09:57:40Z</time>
      </trkpt>
      <trkpt lat="43.3457360" lon="-7.5278500">
        <ele>451.0</ele>
        <time>2021-07-24T09:57:42Z</time>
      </trkpt>
      <trkpt lat="43.3457300" lon="-7.5279230">
        <ele>450.6</ele>
        <time>2021-07-24T09:57:43Z</time>
      </trkpt>
      <trkpt lat="43.3457230" lon="-7.5279940">
        <ele>450.2</ele>
        <time>2021-07-24T09:57:44Z</time>
      </trkpt>
      <trkpt lat="43.3457150" lon="-7.5280670">
        <ele>449.6</ele>
        <time>2021-07-24T09:57:45Z</time>
      </trkpt>
      <trkpt lat="43.3457100" lon="-7.5281390">
        <ele>449.2</ele>
        <time>2021-07-24T09:57:46Z</time>
      </trkpt>
      <trkpt lat="43.3456890" lon="-7.5282840">
        <ele>448.8</ele>
        <time>2021-07-24T09:57:48Z</time>
      </trkpt>
      <trkpt lat="43.3456770" lon="-7.5283480">
        <ele>448.4</ele>
        <time>2021-07-24T09:57:49Z</time>
      </trkpt>
      <trkpt lat="43.3456630" lon="-7.5284000">
        <ele>447.8</ele>
        <time>2021-07-24T09:57:50Z</time>
      </trkpt>
      <trkpt lat="43.3456530" lon="-7.5284460">
        <ele>447.4</ele>
        <time>2021-07-24T09:57:51Z</time>
      </trkpt>
      <trkpt lat="43.3456400" lon="-7.5284930">
        <ele>447.0</ele>
        <time>2021-07-24T09:57:52Z</time>
      </trkpt>
      <trkpt lat="43.3456220" lon="-7.5286030">
        <ele>446.6</ele>
        <time>2021-07-24T09:57:54Z</time>
      </trkpt>
      <trkpt lat="43.3456200" lon="-7.5286590">
        <ele>446.2</ele>
        <time>2021-07-24T09:57:55Z</time>
      </trkpt>
      <trkpt lat="43.3456200" lon="-7.5287200">
        <ele>445.8</ele>
        <time>2021-07-24T09:57:56Z</time>
      </trkpt>
      <trkpt lat="43.3456210" lon="-7.5287780">
        <ele>445.2</ele>
        <time>2021-07-24T09:57:57Z</time>
      </trkpt>
      <trkpt lat="43.3456190" lon="-7.5288410">
        <ele>444.8</ele>
        <time>2021-07-24T09:57:58Z</time>
      </trkpt>
      <trkpt lat="43.3456230" lon="-7.5289620">
        <ele>444.8</ele>
        <time>2021-07-24T09:58:00Z</time>
      </trkpt>
      <trkpt lat="43.3456320" lon="-7.5290850">
        <ele>444.8</ele>
        <time>2021-07-24T09:58:02Z</time>
      </trkpt>
      <trkpt lat="43.3456340" lon="-7.5292510">
        <ele>444.4</ele>
        <time>2021-07-24T09:58:05Z</time>
      </trkpt>
      <trkpt lat="43.3456300" lon="-7.5293150">
        <ele>444.0</ele>
        <time>2021-07-24T09:58:06Z</time>
      </trkpt>
      <trkpt lat="43.3456240" lon="-7.5293790">
        <ele>443.6</ele>
        <time>2021-07-24T09:58:07Z</time>
      </trkpt>
      <trkpt lat="43.3456170" lon="-7.5294430">
        <ele>443.2</ele>
        <time>2021-07-24T09:58:08Z</time>
      </trkpt>
      <trkpt lat="43.3456090" lon="-7.5295080">
        <ele>442.6</ele>
        <time>2021-07-24T09:58:09Z</time>
      </trkpt>
      <trkpt lat="43.3455850" lon="-7.5296260">
        <ele>442.6</ele>
        <time>2021-07-24T09:58:11Z</time>
      </trkpt>
      <trkpt lat="43.3455440" lon="-7.5297790">
        <ele>442.6</ele>
        <time>2021-07-24T09:58:14Z</time>
      </trkpt>
      <trkpt lat="43.3455040" lon="-7.5299260">
        <ele>442.2</ele>
        <time>2021-07-24T09:58:17Z</time>
      </trkpt>
      <trkpt lat="43.3454870" lon="-7.5299840">
        <ele>441.8</ele>
        <time>2021-07-24T09:58:18Z</time>
      </trkpt>
      <trkpt lat="43.3454670" lon="-7.5300460">
        <ele>441.0</ele>
        <time>2021-07-24T09:58:19Z</time>
      </trkpt>
      <trkpt lat="43.3454440" lon="-7.5301100">
        <ele>440.6</ele>
        <time>2021-07-24T09:58:20Z</time>
      </trkpt>
      <trkpt lat="43.3454230" lon="-7.5301770">
        <ele>440.6</ele>
        <time>2021-07-24T09:58:21Z</time>
      </trkpt>
      <trkpt lat="43.3452970" lon="-7.5305640">
        <ele>440.6</ele>
        <time>2021-07-24T09:58:27Z</time>
      </trkpt>
      <trkpt lat="43.3452610" lon="-7.5307740">
        <ele>440.6</ele>
        <time>2021-07-24T09:58:30Z</time>
      </trkpt>
      <trkpt lat="43.3452440" lon="-7.5309280">
        <ele>440.6</ele>
        <time>2021-07-24T09:58:32Z</time>
      </trkpt>
      <trkpt lat="43.3452390" lon="-7.5309980">
        <ele>440.2</ele>
        <time>2021-07-24T09:58:33Z</time>
      </trkpt>
      <trkpt lat="43.3452350" lon="-7.5310660">
        <ele>439.8</ele>
        <time>2021-07-24T09:58:34Z</time>
      </trkpt>
      <trkpt lat="43.3452300" lon="-7.5311390">
        <ele>439.2</ele>
        <time>2021-07-24T09:58:35Z</time>
      </trkpt>
      <trkpt lat="43.3452230" lon="-7.5312150">
        <ele>438.8</ele>
        <time>2021-07-24T09:58:36Z</time>
      </trkpt>
      <trkpt lat="43.3452140" lon="-7.5312890">
        <ele>438.4</ele>
        <time>2021-07-24T09:58:37Z</time>
      </trkpt>
      <trkpt lat="43.3452040" lon="-7.5314390">
        <ele>438.4</ele>
        <time>2021-07-24T09:58:39Z</time>
      </trkpt>
      <trkpt lat="43.3452200" lon="-7.5317210">
        <ele>438.4</ele>
        <time>2021-07-24T09:58:43Z</time>
      </trkpt>
      <trkpt lat="43.3452370" lon="-7.5317860">
        <ele>438.4</ele>
        <time>2021-07-24T09:58:44Z</time>
      </trkpt>
      <trkpt lat="43.3453020" lon="-7.5320730">
        <ele>438.0</ele>
        <time>2021-07-24T09:58:49Z</time>
      </trkpt>
      <trkpt lat="43.3453150" lon="-7.5321220">
        <ele>437.6</ele>
        <time>2021-07-24T09:58:50Z</time>
      </trkpt>
      <trkpt lat="43.3453260" lon="-7.5321770">
        <ele>437.2</ele>
        <time>2021-07-24T09:58:51Z</time>
      </trkpt>
      <trkpt lat="43.3453370" lon="-7.5322370">
        <ele>436.8</ele>
        <time>2021-07-24T09:58:52Z</time>
      </trkpt>
      <trkpt lat="43.3453440" lon="-7.5322980">
        <ele>436.4</ele>
        <time>2021-07-24T09:58:53Z</time>
      </trkpt>
      <trkpt lat="43.3453630" lon="-7.5324880">
        <ele>436.4</ele>
        <time>2021-07-24T09:58:56Z</time>
      </trkpt>
      <trkpt lat="43.3454200" lon="-7.5330060">
        <ele>436.0</ele>
        <time>2021-07-24T09:59:04Z</time>
      </trkpt>
      <trkpt lat="43.3454220" lon="-7.5330580">
        <ele>435.4</ele>
        <time>2021-07-24T09:59:05Z</time>
      </trkpt>
      <trkpt lat="43.3454170" lon="-7.5331010">
        <ele>435.0</ele>
        <time>2021-07-24T09:59:06Z</time>
      </trkpt>
      <trkpt lat="43.3454050" lon="-7.5331370">
        <ele>434.6</ele>
        <time>2021-07-24T09:59:07Z</time>
      </trkpt>
      <trkpt lat="43.3453920" lon="-7.5331640">
        <ele>434.2</ele>
        <time>2021-07-24T09:59:08Z</time>
      </trkpt>
      <trkpt lat="43.3453520" lon="-7.5332910">
        <ele>434.2</ele>
        <time>2021-07-24T09:59:13Z</time>
      </trkpt>
      <trkpt lat="43.3453340" lon="-7.5333930">
        <ele>433.8</ele>
        <time>2021-07-24T09:59:16Z</time>
      </trkpt>
      <trkpt lat="43.3453320" lon="-7.5334320">
        <ele>433.4</ele>
        <time>2021-07-24T09:59:17Z</time>
      </trkpt>
      <trkpt lat="43.3453290" lon="-7.5334690">
        <ele>432.8</ele>
        <time>2021-07-24T09:59:18Z</time>
      </trkpt>
      <trkpt lat="43.3453290" lon="-7.5335030">
        <ele>432.4</ele>
        <time>2021-07-24T09:59:19Z</time>
      </trkpt>
      <trkpt lat="43.3453270" lon="-7.5335360">
        <ele>432.0</ele>
        <time>2021-07-24T09:59:20Z</time>
      </trkpt>
      <trkpt lat="43.3453270" lon="-7.5335730">
        <ele>431.6</ele>
        <time>2021-07-24T09:59:21Z</time>
      </trkpt>
      <trkpt lat="43.3453270" lon="-7.5336100">
        <ele>431.2</ele>
        <time>2021-07-24T09:59:22Z</time>
      </trkpt>
      <trkpt lat="43.3453260" lon="-7.5336440">
        <ele>430.6</ele>
        <time>2021-07-24T09:59:23Z</time>
      </trkpt>
      <trkpt lat="43.3453250" lon="-7.5336710">
        <ele>430.2</ele>
        <time>2021-07-24T09:59:24Z</time>
      </trkpt>
      <trkpt lat="43.3453230" lon="-7.5337000">
        <ele>429.8</ele>
        <time>2021-07-24T09:59:25Z</time>
      </trkpt>
      <trkpt lat="43.3453210" lon="-7.5337250">
        <ele>429.4</ele>
        <time>2021-07-24T09:59:26Z</time>
      </trkpt>
      <trkpt lat="43.3453190" lon="-7.5337530">
        <ele>429.0</ele>
        <time>2021-07-24T09:59:27Z</time>
      </trkpt>
      <trkpt lat="43.3453180" lon="-7.5337840">
        <ele>428.6</ele>
        <time>2021-07-24T09:59:28Z</time>
      </trkpt>
      <trkpt lat="43.3453170" lon="-7.5338170">
        <ele>428.2</ele>
        <time>2021-07-24T09:59:29Z</time>
      </trkpt>
      <trkpt lat="43.3453130" lon="-7.5338500">
        <ele>427.8</ele>
        <time>2021-07-24T09:59:30Z</time>
      </trkpt>
      <trkpt lat="43.3453100" lon="-7.5338800">
        <ele>427.2</ele>
        <time>2021-07-24T09:59:31Z</time>
      </trkpt>
      <trkpt lat="43.3453030" lon="-7.5339120">
        <ele>426.8</ele>
        <time>2021-07-24T09:59:32Z</time>
      </trkpt>
      <trkpt lat="43.3452990" lon="-7.5339420">
        <ele>426.4</ele>
        <time>2021-07-24T09:59:33Z</time>
      </trkpt>
      <trkpt lat="43.3452930" lon="-7.5339770">
        <ele>426.0</ele>
        <time>2021-07-24T09:59:34Z</time>
      </trkpt>
      <trkpt lat="43.3452880" lon="-7.5340070">
        <ele>425.6</ele>
        <time>2021-07-24T09:59:35Z</time>
      </trkpt>
      <trkpt lat="43.3452820" lon="-7.5340350">
        <ele>425.6</ele>
        <time>2021-07-24T09:59:36Z</time>
      </trkpt>
      <trkpt lat="43.3452700" lon="-7.5340930">
        <ele>425.0</ele>
        <time>2021-07-24T09:59:38Z</time>
      </trkpt>
      <trkpt lat="43.3452600" lon="-7.5341210">
        <ele>424.6</ele>
        <time>2021-07-24T09:59:39Z</time>
      </trkpt>
      <trkpt lat="43.3452480" lon="-7.5341480">
        <ele>424.0</ele>
        <time>2021-07-24T09:59:40Z</time>
      </trkpt>
      <trkpt lat="43.3452340" lon="-7.5341780">
        <ele>423.6</ele>
        <time>2021-07-24T09:59:41Z</time>
      </trkpt>
      <trkpt lat="43.3452260" lon="-7.5342000">
        <ele>423.2</ele>
        <time>2021-07-24T09:59:42Z</time>
      </trkpt>
      <trkpt lat="43.3452140" lon="-7.5342470">
        <ele>423.2</ele>
        <time>2021-07-24T09:59:44Z</time>
      </trkpt>
      <trkpt lat="43.3452090" lon="-7.5342670">
        <ele>422.6</ele>
        <time>2021-07-24T09:59:45Z</time>
      </trkpt>
      <trkpt lat="43.3452030" lon="-7.5343050">
        <ele>422.2</ele>
        <time>2021-07-24T09:59:46Z</time>
      </trkpt>
      <trkpt lat="43.3451980" lon="-7.5343410">
        <ele>421.8</ele>
        <time>2021-07-24T09:59:47Z</time>
      </trkpt>
      <trkpt lat="43.3451960" lon="-7.5343750">
        <ele>421.4</ele>
        <time>2021-07-24T09:59:48Z</time>
      </trkpt>
      <trkpt lat="43.3451870" lon="-7.5344290">
        <ele>420.8</ele>
        <time>2021-07-24T09:59:49Z</time>
      </trkpt>
      <trkpt lat="43.3451660" lon="-7.5344950">
        <ele>420.4</ele>
        <time>2021-07-24T09:59:51Z</time>
      </trkpt>
      <trkpt lat="43.3451520" lon="-7.5345260">
        <ele>420.0</ele>
        <time>2021-07-24T09:59:52Z</time>
      </trkpt>
      <trkpt lat="43.3451370" lon="-7.5345480">
        <ele>419.4</ele>
        <time>2021-07-24T09:59:53Z</time>
      </trkpt>
      <trkpt lat="43.3451220" lon="-7.5345730">
        <ele>419.0</ele>
        <time>2021-07-24T09:59:54Z</time>
      </trkpt>
      <trkpt lat="43.3451010" lon="-7.5346110">
        <ele>418.4</ele>
        <time>2021-07-24T09:59:55Z</time>
      </trkpt>
      <trkpt lat="43.3450740" lon="-7.5346750">
        <ele>417.2</ele>
        <time>2021-07-24T09:59:56Z</time>
      </trkpt>
      <trkpt lat="43.3450490" lon="-7.5347430">
        <ele>416.6</ele>
        <time>2021-07-24T09:59:57Z</time>
      </trkpt>
      <trkpt lat="43.3450240" lon="-7.5347930">
        <ele>415.8</ele>
        <time>2021-07-24T09:59:58Z</time>
      </trkpt>
      <trkpt lat="43.3449970" lon="-7.5348350">
        <ele>415.2</ele>
        <time>2021-07-24T09:59:59Z</time>
      </trkpt>
      <trkpt lat="43.3449720" lon="-7.5348800">
        <ele>414.4</ele>
        <time>2021-07-24T10:00:00Z</time>
      </trkpt>
      <trkpt lat="43.3449440" lon="-7.5349280">
        <ele>413.8</ele>
        <time>2021-07-24T10:00:01Z</time>
      </trkpt>
      <trkpt lat="43.3449130" lon="-7.5349830">
        <ele>413.0</ele>
        <time>2021-07-24T10:00:02Z</time>
      </trkpt>
      <trkpt lat="43.3448940" lon="-7.5350300">
        <ele>412.4</ele>
        <time>2021-07-24T10:00:03Z</time>
      </trkpt>
      <trkpt lat="43.3448690" lon="-7.5350800">
        <ele>411.6</ele>
        <time>2021-07-24T10:00:04Z</time>
      </trkpt>
      <trkpt lat="43.3448390" lon="-7.5351580">
        <ele>411.0</ele>
        <time>2021-07-24T10:00:05Z</time>
      </trkpt>
      <trkpt lat="43.3448070" lon="-7.5352350">
        <ele>410.4</ele>
        <time>2021-07-24T10:00:06Z</time>
      </trkpt>
      <trkpt lat="43.3447750" lon="-7.5353180">
        <ele>409.6</ele>
        <time>2021-07-24T10:00:07Z</time>
      </trkpt>
      <trkpt lat="43.3447550" lon="-7.5353870">
        <ele>409.0</ele>
        <time>2021-07-24T10:00:08Z</time>
      </trkpt>
      <trkpt lat="43.3446950" lon="-7.5355210">
        <ele>408.4</ele>
        <time>2021-07-24T10:00:09Z</time>
      </trkpt>
      <trkpt lat="43.3446790" lon="-7.5355840">
        <ele>407.6</ele>
        <time>2021-07-24T10:00:10Z</time>
      </trkpt>
      <trkpt lat="43.3446660" lon="-7.5356560">
        <ele>407.0</ele>
        <time>2021-07-24T10:00:11Z</time>
      </trkpt>
      <trkpt lat="43.3446550" lon="-7.5357160">
        <ele>406.2</ele>
        <time>2021-07-24T10:00:12Z</time>
      </trkpt>
      <trkpt lat="43.3446360" lon="-7.5357830">
        <ele>405.6</ele>
        <time>2021-07-24T10:00:13Z</time>
      </trkpt>
      <trkpt lat="43.3446150" lon="-7.5358460">
        <ele>405.0</ele>
        <time>2021-07-24T10:00:14Z</time>
      </trkpt>
      <trkpt lat="43.3445990" lon="-7.5359030">
        <ele>404.2</ele>
        <time>2021-07-24T10:00:15Z</time>
      </trkpt>
      <trkpt lat="43.3445720" lon="-7.5359830">
        <ele>403.6</ele>
        <time>2021-07-24T10:00:16Z</time>
      </trkpt>
      <trkpt lat="43.3445660" lon="-7.5360480">
        <ele>403.0</ele>
        <time>2021-07-24T10:00:17Z</time>
      </trkpt>
      <trkpt lat="43.3445440" lon="-7.5361240">
        <ele>402.2</ele>
        <time>2021-07-24T10:00:18Z</time>
      </trkpt>
      <trkpt lat="43.3445200" lon="-7.5362010">
        <ele>401.4</ele>
        <time>2021-07-24T10:00:19Z</time>
      </trkpt>
      <trkpt lat="43.3444940" lon="-7.5362770">
        <ele>400.6</ele>
        <time>2021-07-24T10:00:20Z</time>
      </trkpt>
      <trkpt lat="43.3444700" lon="-7.5363480">
        <ele>399.2</ele>
        <time>2021-07-24T10:00:21Z</time>
      </trkpt>
      <trkpt lat="43.3444430" lon="-7.5364160">
        <ele>398.4</ele>
        <time>2021-07-24T10:00:22Z</time>
      </trkpt>
      <trkpt lat="43.3444170" lon="-7.5364700">
        <ele>397.6</ele>
        <time>2021-07-24T10:00:23Z</time>
      </trkpt>
      <trkpt lat="43.3443940" lon="-7.5365240">
        <ele>397.0</ele>
        <time>2021-07-24T10:00:24Z</time>
      </trkpt>
      <trkpt lat="43.3443700" lon="-7.5365640">
        <ele>396.4</ele>
        <time>2021-07-24T10:00:25Z</time>
      </trkpt>
      <trkpt lat="43.3443540" lon="-7.5366060">
        <ele>395.8</ele>
        <time>2021-07-24T10:00:26Z</time>
      </trkpt>
      <trkpt lat="43.3443340" lon="-7.5366500">
        <ele>395.2</ele>
        <time>2021-07-24T10:00:27Z</time>
      </trkpt>
      <trkpt lat="43.3443150" lon="-7.5366870">
        <ele>394.6</ele>
        <time>2021-07-24T10:00:28Z</time>
      </trkpt>
      <trkpt lat="43.3442950" lon="-7.5368590">
        <ele>394.6</ele>
        <time>2021-07-24T10:00:32Z</time>
      </trkpt>
      <trkpt lat="43.3443940" lon="-7.5371060">
        <ele>394.6</ele>
        <time>2021-07-24T10:00:37Z</time>
      </trkpt>
      <trkpt lat="43.3444110" lon="-7.5371640">
        <ele>394.6</ele>
        <time>2021-07-24T10:00:38Z</time>
      </trkpt>
      <trkpt lat="43.3443900" lon="-7.5372750">
        <ele>394.6</ele>
        <time>2021-07-24T10:00:40Z</time>
      </trkpt>
      <trkpt lat="43.3443570" lon="-7.5373810">
        <ele>394.6</ele>
        <time>2021-07-24T10:00:42Z</time>
      </trkpt>
      <trkpt lat="43.3442780" lon="-7.5376110">
        <ele>394.6</ele>
        <time>2021-07-24T10:00:47Z</time>
      </trkpt>
      <trkpt lat="43.3442100" lon="-7.5378740">
        <ele>394.6</ele>
        <time>2021-07-24T10:00:54Z</time>
      </trkpt>
      <trkpt lat="43.3441780" lon="-7.5380740">
        <ele>395.0</ele>
        <time>2021-07-24T10:01:00Z</time>
      </trkpt>
      <trkpt lat="43.3441770" lon="-7.5381090">
        <ele>395.4</ele>
        <time>2021-07-24T10:01:01Z</time>
      </trkpt>
      <trkpt lat="43.3441770" lon="-7.5381420">
        <ele>395.8</ele>
        <time>2021-07-24T10:01:02Z</time>
      </trkpt>
      <trkpt lat="43.3441760" lon="-7.5381760">
        <ele>396.2</ele>
        <time>2021-07-24T10:01:03Z</time>
      </trkpt>
      <trkpt lat="43.3441720" lon="-7.5382070">
        <ele>396.6</ele>
        <time>2021-07-24T10:01:04Z</time>
      </trkpt>
      <trkpt lat="43.3441550" lon="-7.5383240">
        <ele>396.6</ele>
        <time>2021-07-24T10:01:08Z</time>
      </trkpt>
      <trkpt lat="43.3441530" lon="-7.5383470">
        <ele>397.2</ele>
        <time>2021-07-24T10:01:09Z</time>
      </trkpt>
      <trkpt lat="43.3441510" lon="-7.5383710">
        <ele>398.0</ele>
        <time>2021-07-24T10:01:10Z</time>
      </trkpt>
      <trkpt lat="43.3441490" lon="-7.5383960">
        <ele>398.4</ele>
        <time>2021-07-24T10:01:11Z</time>
      </trkpt>
      <trkpt lat="43.3441500" lon="-7.5384220">
        <ele>398.8</ele>
        <time>2021-07-24T10:01:12Z</time>
      </trkpt>
      <trkpt lat="43.3441550" lon="-7.5385340">
        <ele>398.8</ele>
        <time>2021-07-24T10:01:16Z</time>
      </trkpt>
      <trkpt lat="43.3441980" lon="-7.5386860">
        <ele>399.2</ele>
        <time>2021-07-24T10:01:22Z</time>
      </trkpt>
      <trkpt lat="43.3442050" lon="-7.5387090">
        <ele>399.6</ele>
        <time>2021-07-24T10:01:23Z</time>
      </trkpt>
      <trkpt lat="43.3442130" lon="-7.5387300">
        <ele>400.0</ele>
        <time>2021-07-24T10:01:24Z</time>
      </trkpt>
      <trkpt lat="43.3442220" lon="-7.5387480">
        <ele>400.4</ele>
        <time>2021-07-24T10:01:25Z</time>
      </trkpt>
      <trkpt lat="43.3442310" lon="-7.5387660">
        <ele>400.8</ele>
        <time>2021-07-24T10:01:26Z</time>
      </trkpt>
      <trkpt lat="43.3442970" lon="-7.5388980">
        <ele>400.8</ele>
        <time>2021-07-24T10:01:33Z</time>
      </trkpt>
      <trkpt lat="43.3442970" lon="-7.5388980">
        <ele>401.2</ele>
        <time>2021-07-24T10:01:37Z</time>
      </trkpt>
      <trkpt lat="43.3442970" lon="-7.5388980">
        <ele>401.6</ele>
        <time>2021-07-24T10:01:38Z</time>
      </trkpt>
      <trkpt lat="43.3442970" lon="-7.5388980">
        <ele>402.0</ele>
        <time>2021-07-24T10:01:39Z</time>
      </trkpt>
      <trkpt lat="43.3442970" lon="-7.5388980">
        <ele>402.4</ele>
        <time>2021-07-24T10:01:40Z</time>
      </trkpt>
      <trkpt lat="43.3442970" lon="-7.5388980">
        <ele>402.8</ele>
        <time>2021-07-24T10:01:41Z</time>
      </trkpt>
      <trkpt lat="43.3445200" lon="-7.5392750">
        <ele>403.2</ele>
        <time>2021-07-24T10:01:51Z</time>
      </trkpt>
      <trkpt lat="43.3445260" lon="-7.5392950">
        <ele>403.6</ele>
        <time>2021-07-24T10:01:52Z</time>
      </trkpt>
      <trkpt lat="43.3445240" lon="-7.5393190">
        <ele>404.0</ele>
        <time>2021-07-24T10:01:53Z</time>
      </trkpt>
      <trkpt lat="43.3445260" lon="-7.5393400">
        <ele>404.4</ele>
        <time>2021-07-24T10:01:54Z</time>
      </trkpt>
      <trkpt lat="43.3445240" lon="-7.5393590">
        <ele>404.8</ele>
        <time>2021-07-24T10:01:55Z</time>
      </trkpt>
      <trkpt lat="43.3445000" lon="-7.5394230">
        <ele>404.8</ele>
        <time>2021-07-24T10:01:58Z</time>
      </trkpt>
      <trkpt lat="43.3444240" lon="-7.5395730">
        <ele>405.2</ele>
        <time>2021-07-24T10:02:05Z</time>
      </trkpt>
      <trkpt lat="43.3444130" lon="-7.5395900">
        <ele>405.6</ele>
        <time>2021-07-24T10:02:06Z</time>
      </trkpt>
      <trkpt lat="43.3443980" lon="-7.5396060">
        <ele>406.0</ele>
        <time>2021-07-24T10:02:07Z</time>
      </trkpt>
      <trkpt lat="43.3443850" lon="-7.5396230">
        <ele>406.6</ele>
        <time>2021-07-24T10:02:08Z</time>
      </trkpt>
      <trkpt lat="43.3443690" lon="-7.5396420">
        <ele>407.0</ele>
        <time>2021-07-24T10:02:09Z</time>
      </trkpt>
      <trkpt lat="43.3443190" lon="-7.5396890">
        <ele>407.0</ele>
        <time>2021-07-24T10:02:12Z</time>
      </trkpt>
      <trkpt lat="43.3442030" lon="-7.5397890">
        <ele>407.0</ele>
        <time>2021-07-24T10:02:18Z</time>
      </trkpt>
      <trkpt lat="43.3440870" lon="-7.5399360">
        <ele>407.0</ele>
        <time>2021-07-24T10:02:24Z</time>
      </trkpt>
      <trkpt lat="43.3439880" lon="-7.5401310">
        <ele>407.0</ele>
        <time>2021-07-24T10:02:31Z</time>
      </trkpt>
      <trkpt lat="43.3439650" lon="-7.5401860">
        <ele>407.4</ele>
        <time>2021-07-24T10:02:33Z</time>
      </trkpt>
      <trkpt lat="43.3439550" lon="-7.5402130">
        <ele>407.8</ele>
        <time>2021-07-24T10:02:34Z</time>
      </trkpt>
      <trkpt lat="43.3439480" lon="-7.5402430">
        <ele>408.2</ele>
        <time>2021-07-24T10:02:35Z</time>
      </trkpt>
      <trkpt lat="43.3439400" lon="-7.5402730">
        <ele>408.6</ele>
        <time>2021-07-24T10:02:36Z</time>
      </trkpt>
      <trkpt lat="43.3439290" lon="-7.5403000">
        <ele>409.0</ele>
        <time>2021-07-24T10:02:37Z</time>
      </trkpt>
      <trkpt lat="43.3439200" lon="-7.5403280">
        <ele>409.0</ele>
        <time>2021-07-24T10:02:38Z</time>
      </trkpt>
      <trkpt lat="43.3438810" lon="-7.5405450">
        <ele>409.0</ele>
        <time>2021-07-24T10:02:46Z</time>
      </trkpt>
      <trkpt lat="43.3438750" lon="-7.5405740">
        <ele>409.4</ele>
        <time>2021-07-24T10:02:47Z</time>
      </trkpt>
      <trkpt lat="43.3438700" lon="-7.5406050">
        <ele>409.8</ele>
        <time>2021-07-24T10:02:48Z</time>
      </trkpt>
      <trkpt lat="43.3438670" lon="-7.5406360">
        <ele>410.2</ele>
        <time>2021-07-24T10:02:49Z</time>
      </trkpt>
      <trkpt lat="43.3438660" lon="-7.5406710">
        <ele>411.0</ele>
        <time>2021-07-24T10:02:50Z</time>
      </trkpt>
      <trkpt lat="43.3438480" lon="-7.5407620">
        <ele>411.0</ele>
        <time>2021-07-24T10:02:53Z</time>
      </trkpt>
      <trkpt lat="43.3438280" lon="-7.5409130">
        <ele>411.4</ele>
        <time>2021-07-24T10:02:58Z</time>
      </trkpt>
      <trkpt lat="43.3438220" lon="-7.5409510">
        <ele>411.8</ele>
        <time>2021-07-24T10:02:59Z</time>
      </trkpt>
      <trkpt lat="43.3438170" lon="-7.5409900">
        <ele>412.2</ele>
        <time>2021-07-24T10:03:00Z</time>
      </trkpt>
      <trkpt lat="43.3438100" lon="-7.5410230">
        <ele>412.6</ele>
        <time>2021-07-24T10:03:01Z</time>
      </trkpt>
      <trkpt lat="43.3438020" lon="-7.5410600">
        <ele>413.2</ele>
        <time>2021-07-24T10:03:02Z</time>
      </trkpt>
      <trkpt lat="43.3437940" lon="-7.5412110">
        <ele>413.2</ele>
        <time>2021-07-24T10:03:06Z</time>
      </trkpt>
      <trkpt lat="43.3437480" lon="-7.5415520">
        <ele>413.2</ele>
        <time>2021-07-24T10:03:15Z</time>
      </trkpt>
      <trkpt lat="43.3437250" lon="-7.5417870">
        <ele>413.6</ele>
        <time>2021-07-24T10:03:21Z</time>
      </trkpt>
      <trkpt lat="43.3437170" lon="-7.5418250">
        <ele>414.0</ele>
        <time>2021-07-24T10:03:22Z</time>
      </trkpt>
      <trkpt lat="43.3437140" lon="-7.5418630">
        <ele>414.4</ele>
        <time>2021-07-24T10:03:23Z</time>
      </trkpt>
      <trkpt lat="43.3437100" lon="-7.5419030">
        <ele>414.8</ele>
        <time>2021-07-24T10:03:24Z</time>
      </trkpt>
      <trkpt lat="43.3437080" lon="-7.5419410">
        <ele>415.2</ele>
        <time>2021-07-24T10:03:25Z</time>
      </trkpt>
      <trkpt lat="43.3436970" lon="-7.5421760">
        <ele>415.2</ele>
        <time>2021-07-24T10:03:31Z</time>
      </trkpt>
      <trkpt lat="43.3436880" lon="-7.5424510">
        <ele>415.2</ele>
        <time>2021-07-24T10:03:38Z</time>
      </trkpt>
      <trkpt lat="43.3437420" lon="-7.5427890">
        <ele>415.2</ele>
        <time>2021-07-24T10:03:47Z</time>
      </trkpt>
      <trkpt lat="43.3437480" lon="-7.5428220">
        <ele>415.8</ele>
        <time>2021-07-24T10:03:48Z</time>
      </trkpt>
      <trkpt lat="43.3437550" lon="-7.5428530">
        <ele>416.2</ele>
        <time>2021-07-24T10:03:49Z</time>
      </trkpt>
      <trkpt lat="43.3437610" lon="-7.5428840">
        <ele>416.6</ele>
        <time>2021-07-24T10:03:50Z</time>
      </trkpt>
      <trkpt lat="43.3437660" lon="-7.5429150">
        <ele>417.0</ele>
        <time>2021-07-24T10:03:51Z</time>
      </trkpt>
      <trkpt lat="43.3437640" lon="-7.5429450">
        <ele>417.4</ele>
        <time>2021-07-24T10:03:52Z</time>
      </trkpt>
      <trkpt lat="43.3437560" lon="-7.5430080">
        <ele>417.4</ele>
        <time>2021-07-24T10:03:54Z</time>
      </trkpt>
      <trkpt lat="43.3436850" lon="-7.5430860">
        <ele>417.4</ele>
        <time>2021-07-24T10:03:58Z</time>
      </trkpt>
      <trkpt lat="43.3435260" lon="-7.5432210">
        <ele>417.4</ele>
        <time>2021-07-24T10:04:05Z</time>
      </trkpt>
      <trkpt lat="43.3433570" lon="-7.5434520">
        <ele>417.4</ele>
        <time>2021-07-24T10:04:12Z</time>
      </trkpt>
      <trkpt lat="43.3433640" lon="-7.5436510">
        <ele>417.4</ele>
        <time>2021-07-24T10:04:16Z</time>
      </trkpt>
      <trkpt lat="43.3434500" lon="-7.5440800">
        <ele>417.8</ele>
        <time>2021-07-24T10:04:25Z</time>
      </trkpt>
      <trkpt lat="43.3434650" lon="-7.5441230">
        <ele>418.2</ele>
        <time>2021-07-24T10:04:26Z</time>
      </trkpt>
      <trkpt lat="43.3434800" lon="-7.5441670">
        <ele>418.8</ele>
        <time>2021-07-24T10:04:27Z</time>
      </trkpt>
      <trkpt lat="43.3434930" lon="-7.5442080">
        <ele>419.6</ele>
        <time>2021-07-24T10:04:28Z</time>
      </trkpt>
      <trkpt lat="43.3435700" lon="-7.5443750">
        <ele>419.6</ele>
        <time>2021-07-24T10:04:33Z</time>
      </trkpt>
      <trkpt lat="43.3436120" lon="-7.5445500">
        <ele>420.0</ele>
        <time>2021-07-24T10:04:38Z</time>
      </trkpt>
      <trkpt lat="43.3436130" lon="-7.5445810">
        <ele>420.6</ele>
        <time>2021-07-24T10:04:39Z</time>
      </trkpt>
      <trkpt lat="43.3436140" lon="-7.5446210">
        <ele>421.0</ele>
        <time>2021-07-24T10:04:40Z</time>
      </trkpt>
      <trkpt lat="43.3436110" lon="-7.5446600">
        <ele>421.4</ele>
        <time>2021-07-24T10:04:41Z</time>
      </trkpt>
      <trkpt lat="43.3436090" lon="-7.5447050">
        <ele>422.0</ele>
        <time>2021-07-24T10:04:42Z</time>
      </trkpt>
      <trkpt lat="43.3435990" lon="-7.5448540">
        <ele>422.0</ele>
        <time>2021-07-24T10:04:45Z</time>
      </trkpt>
      <trkpt lat="43.3435900" lon="-7.5453000">
        <ele>422.0</ele>
        <time>2021-07-24T10:04:54Z</time>
      </trkpt>
      <trkpt lat="43.3435450" lon="-7.5456000">
        <ele>422.0</ele>
        <time>2021-07-24T10:05:00Z</time>
      </trkpt>
      <trkpt lat="43.3434240" lon="-7.5459120">
        <ele>422.0</ele>
        <time>2021-07-24T10:05:07Z</time>
      </trkpt>
      <trkpt lat="43.3433370" lon="-7.5461390">
        <ele>422.0</ele>
        <time>2021-07-24T10:05:12Z</time>
      </trkpt>
      <trkpt lat="43.3432510" lon="-7.5463390">
        <ele>421.6</ele>
        <time>2021-07-24T10:05:16Z</time>
      </trkpt>
      <trkpt lat="43.3432220" lon="-7.5463920">
        <ele>421.0</ele>
        <time>2021-07-24T10:05:17Z</time>
      </trkpt>
      <trkpt lat="43.3431940" lon="-7.5464400">
        <ele>420.2</ele>
        <time>2021-07-24T10:05:18Z</time>
      </trkpt>
      <trkpt lat="43.3431640" lon="-7.5464860">
        <ele>419.8</ele>
        <time>2021-07-24T10:05:19Z</time>
      </trkpt>
      <trkpt lat="43.3430620" lon="-7.5466320">
        <ele>419.8</ele>
        <time>2021-07-24T10:05:22Z</time>
      </trkpt>
      <trkpt lat="43.3429970" lon="-7.5467320">
        <ele>419.8</ele>
        <time>2021-07-24T10:05:24Z</time>
      </trkpt>
      <trkpt lat="43.3429080" lon="-7.5469290">
        <ele>419.8</ele>
        <time>2021-07-24T10:05:27Z</time>
      </trkpt>
      <trkpt lat="43.3428890" lon="-7.5470090">
        <ele>419.4</ele>
        <time>2021-07-24T10:05:28Z</time>
      </trkpt>
      <trkpt lat="43.3428700" lon="-7.5470930">
        <ele>419.0</ele>
        <time>2021-07-24T10:05:29Z</time>
      </trkpt>
      <trkpt lat="43.3428490" lon="-7.5471800">
        <ele>418.6</ele>
        <time>2021-07-24T10:05:30Z</time>
      </trkpt>
      <trkpt lat="43.3428270" lon="-7.5472680">
        <ele>418.2</ele>
        <time>2021-07-24T10:05:31Z</time>
      </trkpt>
      <trkpt lat="43.3428040" lon="-7.5473550">
        <ele>417.8</ele>
        <time>2021-07-24T10:05:32Z</time>
      </trkpt>
      <trkpt lat="43.3427130" lon="-7.5476770">
        <ele>417.4</ele>
        <time>2021-07-24T10:05:36Z</time>
      </trkpt>
      <trkpt lat="43.3426890" lon="-7.5477520">
        <ele>417.0</ele>
        <time>2021-07-24T10:05:37Z</time>
      </trkpt>
      <trkpt lat="43.3426670" lon="-7.5478230">
        <ele>416.4</ele>
        <time>2021-07-24T10:05:38Z</time>
      </trkpt>
      <trkpt lat="43.3426430" lon="-7.5478860">
        <ele>416.0</ele>
        <time>2021-07-24T10:05:39Z</time>
      </trkpt>
      <trkpt lat="43.3426200" lon="-7.5479490">
        <ele>415.6</ele>
        <time>2021-07-24T10:05:40Z</time>
      </trkpt>
      <trkpt lat="43.3425770" lon="-7.5480730">
        <ele>414.8</ele>
        <time>2021-07-24T10:05:42Z</time>
      </trkpt>
      <trkpt lat="43.3425600" lon="-7.5481440">
        <ele>414.4</ele>
        <time>2021-07-24T10:05:43Z</time>
      </trkpt>
      <trkpt lat="43.3425430" lon="-7.5482230">
        <ele>414.0</ele>
        <time>2021-07-24T10:05:44Z</time>
      </trkpt>
      <trkpt lat="43.3425300" lon="-7.5483140">
        <ele>413.4</ele>
        <time>2021-07-24T10:05:45Z</time>
      </trkpt>
      <trkpt lat="43.3424820" lon="-7.5485800">
        <ele>413.4</ele>
        <time>2021-07-24T10:05:48Z</time>
      </trkpt>
      <trkpt lat="43.3424670" lon="-7.5486650">
        <ele>413.0</ele>
        <time>2021-07-24T10:05:49Z</time>
      </trkpt>
      <trkpt lat="43.3424560" lon="-7.5487530">
        <ele>412.6</ele>
        <time>2021-07-24T10:05:50Z</time>
      </trkpt>
      <trkpt lat="43.3424540" lon="-7.5488290">
        <ele>412.2</ele>
        <time>2021-07-24T10:05:51Z</time>
      </trkpt>
      <trkpt lat="43.3424460" lon="-7.5489040">
        <ele>411.8</ele>
        <time>2021-07-24T10:05:52Z</time>
      </trkpt>
      <trkpt lat="43.3424320" lon="-7.5489760">
        <ele>411.4</ele>
        <time>2021-07-24T10:05:53Z</time>
      </trkpt>
      <trkpt lat="43.3424190" lon="-7.5490520">
        <ele>410.8</ele>
        <time>2021-07-24T10:05:54Z</time>
      </trkpt>
      <trkpt lat="43.3424100" lon="-7.5491290">
        <ele>410.2</ele>
        <time>2021-07-24T10:05:55Z</time>
      </trkpt>
      <trkpt lat="43.3424030" lon="-7.5492050">
        <ele>409.8</ele>
        <time>2021-07-24T10:05:56Z</time>
      </trkpt>
      <trkpt lat="43.3423910" lon="-7.5492840">
        <ele>409.2</ele>
        <time>2021-07-24T10:05:57Z</time>
      </trkpt>
      <trkpt lat="43.3423570" lon="-7.5494280">
        <ele>409.2</ele>
        <time>2021-07-24T10:05:59Z</time>
      </trkpt>
      <trkpt lat="43.3423110" lon="-7.5496340">
        <ele>408.8</ele>
        <time>2021-07-24T10:06:02Z</time>
      </trkpt>
      <trkpt lat="43.3422920" lon="-7.5497120">
        <ele>408.4</ele>
        <time>2021-07-24T10:06:03Z</time>
      </trkpt>
      <trkpt lat="43.3422670" lon="-7.5497860">
        <ele>408.0</ele>
        <time>2021-07-24T10:06:04Z</time>
      </trkpt>
      <trkpt lat="43.3422510" lon="-7.5498710">
        <ele>407.6</ele>
        <time>2021-07-24T10:06:05Z</time>
      </trkpt>
      <trkpt lat="43.3422350" lon="-7.5499520">
        <ele>407.2</ele>
        <time>2021-07-24T10:06:06Z</time>
      </trkpt>
      <trkpt lat="43.3422270" lon="-7.5500310">
        <ele>407.2</ele>
        <time>2021-07-24T10:06:07Z</time>
      </trkpt>
      <trkpt lat="43.3422240" lon="-7.5501840">
        <ele>407.2</ele>
        <time>2021-07-24T10:06:09Z</time>
      </trkpt>
      <trkpt lat="43.3422340" lon="-7.5503800">
        <ele>407.2</ele>
        <time>2021-07-24T10:06:12Z</time>
      </trkpt>
      <trkpt lat="43.3422300" lon="-7.5504890">
        <ele>407.2</ele>
        <time>2021-07-24T10:06:14Z</time>
      </trkpt>
      <trkpt lat="43.3421980" lon="-7.5507700">
        <ele>407.2</ele>
        <time>2021-07-24T10:06:20Z</time>
      </trkpt>
      <trkpt lat="43.3421360" lon="-7.5510000">
        <ele>407.2</ele>
        <time>2021-07-24T10:06:26Z</time>
      </trkpt>
      <trkpt lat="43.3421160" lon="-7.5511830">
        <ele>407.2</ele>
        <time>2021-07-24T10:06:31Z</time>
      </trkpt>
      <trkpt lat="43.3421010" lon="-7.5514200">
        <ele>407.2</ele>
        <time>2021-07-24T10:06:37Z</time>
      </trkpt>
      <trkpt lat="43.3420710" lon="-7.5516660">
        <ele>407.2</ele>
        <time>2021-07-24T10:06:43Z</time>
      </trkpt>
      <trkpt lat="43.3420650" lon="-7.5517620">
        <ele>406.8</ele>
        <time>2021-07-24T10:06:45Z</time>
      </trkpt>
      <trkpt lat="43.3420620" lon="-7.5518150">
        <ele>406.2</ele>
        <time>2021-07-24T10:06:46Z</time>
      </trkpt>
      <trkpt lat="43.3420530" lon="-7.5518640">
        <ele>405.8</ele>
        <time>2021-07-24T10:06:47Z</time>
      </trkpt>
      <trkpt lat="43.3420360" lon="-7.5519270">
        <ele>405.4</ele>
        <time>2021-07-24T10:06:48Z</time>
      </trkpt>
      <trkpt lat="43.3420170" lon="-7.5520100">
        <ele>405.0</ele>
        <time>2021-07-24T10:06:49Z</time>
      </trkpt>
      <trkpt lat="43.3419960" lon="-7.5520790">
        <ele>405.0</ele>
        <time>2021-07-24T10:06:50Z</time>
      </trkpt>
      <trkpt lat="43.3419250" lon="-7.5522180">
        <ele>404.6</ele>
        <time>2021-07-24T10:06:52Z</time>
      </trkpt>
      <trkpt lat="43.3418890" lon="-7.5522840">
        <ele>404.0</ele>
        <time>2021-07-24T10:06:53Z</time>
      </trkpt>
      <trkpt lat="43.3418480" lon="-7.5523410">
        <ele>403.6</ele>
        <time>2021-07-24T10:06:54Z</time>
      </trkpt>
      <trkpt lat="43.3418160" lon="-7.5523920">
        <ele>403.2</ele>
        <time>2021-07-24T10:06:55Z</time>
      </trkpt>
      <trkpt lat="43.3417850" lon="-7.5524350">
        <ele>402.8</ele>
        <time>2021-07-24T10:06:56Z</time>
      </trkpt>
      <trkpt lat="43.3417540" lon="-7.5524730">
        <ele>402.8</ele>
        <time>2021-07-24T10:06:57Z</time>
      </trkpt>
      <trkpt lat="43.3416430" lon="-7.5525860">
        <ele>402.4</ele>
        <time>2021-07-24T10:07:01Z</time>
      </trkpt>
      <trkpt lat="43.3416120" lon="-7.5526090">
        <ele>401.8</ele>
        <time>2021-07-24T10:07:02Z</time>
      </trkpt>
      <trkpt lat="43.3415830" lon="-7.5526310">
        <ele>401.4</ele>
        <time>2021-07-24T10:07:03Z</time>
      </trkpt>
      <trkpt lat="43.3415550" lon="-7.5526520">
        <ele>401.0</ele>
        <time>2021-07-24T10:07:04Z</time>
      </trkpt>
      <trkpt lat="43.3415280" lon="-7.5526720">
        <ele>400.6</ele>
        <time>2021-07-24T10:07:05Z</time>
      </trkpt>
      <trkpt lat="43.3414690" lon="-7.5527070">
        <ele>400.2</ele>
        <time>2021-07-24T10:07:08Z</time>
      </trkpt>
      <trkpt lat="43.3414530" lon="-7.5527210">
        <ele>399.8</ele>
        <time>2021-07-24T10:07:09Z</time>
      </trkpt>
      <trkpt lat="43.3414400" lon="-7.5527430">
        <ele>399.2</ele>
        <time>2021-07-24T10:07:10Z</time>
      </trkpt>
      <trkpt lat="43.3414260" lon="-7.5527600">
        <ele>398.8</ele>
        <time>2021-07-24T10:07:11Z</time>
      </trkpt>
      <trkpt lat="43.3414080" lon="-7.5527890">
        <ele>398.4</ele>
        <time>2021-07-24T10:07:12Z</time>
      </trkpt>
      <trkpt lat="43.3413840" lon="-7.5528180">
        <ele>398.4</ele>
        <time>2021-07-24T10:07:13Z</time>
      </trkpt>
      <trkpt lat="43.3412470" lon="-7.5529560">
        <ele>398.4</ele>
        <time>2021-07-24T10:07:19Z</time>
      </trkpt>
      <trkpt lat="43.3411930" lon="-7.5530310">
        <ele>398.0</ele>
        <time>2021-07-24T10:07:21Z</time>
      </trkpt>
      <trkpt lat="43.3411640" lon="-7.5530580">
        <ele>397.6</ele>
        <time>2021-07-24T10:07:22Z</time>
      </trkpt>
      <trkpt lat="43.3411350" lon="-7.5530770">
        <ele>397.2</ele>
        <time>2021-07-24T10:07:23Z</time>
      </trkpt>
      <trkpt lat="43.3411050" lon="-7.5531030">
        <ele>396.6</ele>
        <time>2021-07-24T10:07:24Z</time>
      </trkpt>
      <trkpt lat="43.3410740" lon="-7.5531310">
        <ele>396.2</ele>
        <time>2021-07-24T10:07:25Z</time>
      </trkpt>
      <trkpt lat="43.3409020" lon="-7.5532860">
        <ele>395.8</ele>
        <time>2021-07-24T10:07:30Z</time>
      </trkpt>
      <trkpt lat="43.3408720" lon="-7.5533150">
        <ele>395.4</ele>
        <time>2021-07-24T10:07:31Z</time>
      </trkpt>
      <trkpt lat="43.3408420" lon="-7.5533410">
        <ele>395.0</ele>
        <time>2021-07-24T10:07:32Z</time>
      </trkpt>
      <trkpt lat="43.3408200" lon="-7.5533600">
        <ele>394.6</ele>
        <time>2021-07-24T10:07:33Z</time>
      </trkpt>
      <trkpt lat="43.3408010" lon="-7.5533780">
        <ele>394.2</ele>
        <time>2021-07-24T10:07:34Z</time>
      </trkpt>
      <trkpt lat="43.3407490" lon="-7.5534260">
        <ele>394.2</ele>
        <time>2021-07-24T10:07:37Z</time>
      </trkpt>
      <trkpt lat="43.3407130" lon="-7.5534620">
        <ele>393.8</ele>
        <time>2021-07-24T10:07:40Z</time>
      </trkpt>
      <trkpt lat="43.3406990" lon="-7.5534730">
        <ele>393.4</ele>
        <time>2021-07-24T10:07:41Z</time>
      </trkpt>
      <trkpt lat="43.3406860" lon="-7.5534900">
        <ele>393.0</ele>
        <time>2021-07-24T10:07:42Z</time>
      </trkpt>
      <trkpt lat="43.3406750" lon="-7.5535020">
        <ele>392.4</ele>
        <time>2021-07-24T10:07:43Z</time>
      </trkpt>
      <trkpt lat="43.3406600" lon="-7.5535170">
        <ele>392.0</ele>
        <time>2021-07-24T10:07:44Z</time>
      </trkpt>
      <trkpt lat="43.3405750" lon="-7.5536080">
        <ele>392.0</ele>
        <time>2021-07-24T10:07:49Z</time>
      </trkpt>
      <trkpt lat="43.3404130" lon="-7.5537760">
        <ele>392.0</ele>
        <time>2021-07-24T10:07:54Z</time>
      </trkpt>
      <trkpt lat="43.3402410" lon="-7.5539640">
        <ele>392.0</ele>
        <time>2021-07-24T10:07:59Z</time>
      </trkpt>
      <trkpt lat="43.3402010" lon="-7.5540030">
        <ele>392.0</ele>
        <time>2021-07-24T10:08:00Z</time>
      </trkpt>
      <trkpt lat="43.3400840" lon="-7.5541300">
        <ele>392.0</ele>
        <time>2021-07-24T10:08:03Z</time>
      </trkpt>
      <trkpt lat="43.3399850" lon="-7.5542430">
        <ele>391.6</ele>
        <time>2021-07-24T10:08:06Z</time>
      </trkpt>
      <trkpt lat="43.3399520" lon="-7.5542740">
        <ele>391.2</ele>
        <time>2021-07-24T10:08:07Z</time>
      </trkpt>
      <trkpt lat="43.3399160" lon="-7.5543020">
        <ele>390.8</ele>
        <time>2021-07-24T10:08:08Z</time>
      </trkpt>
      <trkpt lat="43.3398770" lon="-7.5543340">
        <ele>390.4</ele>
        <time>2021-07-24T10:08:09Z</time>
      </trkpt>
      <trkpt lat="43.3398410" lon="-7.5543600">
        <ele>390.0</ele>
        <time>2021-07-24T10:08:10Z</time>
      </trkpt>
      <trkpt lat="43.3398040" lon="-7.5543870">
        <ele>390.0</ele>
        <time>2021-07-24T10:08:11Z</time>
      </trkpt>
      <trkpt lat="43.3396030" lon="-7.5545100">
        <ele>390.0</ele>
        <time>2021-07-24T10:08:17Z</time>
      </trkpt>
      <trkpt lat="43.3393770" lon="-7.5546570">
        <ele>389.6</ele>
        <time>2021-07-24T10:08:23Z</time>
      </trkpt>
      <trkpt lat="43.3393360" lon="-7.5546760">
        <ele>389.2</ele>
        <time>2021-07-24T10:08:24Z</time>
      </trkpt>
      <trkpt lat="43.3392930" lon="-7.5547010">
        <ele>388.8</ele>
        <time>2021-07-24T10:08:25Z</time>
      </trkpt>
      <trkpt lat="43.3392560" lon="-7.5547280">
        <ele>388.4</ele>
        <time>2021-07-24T10:08:26Z</time>
      </trkpt>
      <trkpt lat="43.3392160" lon="-7.5547640">
        <ele>388.0</ele>
        <time>2021-07-24T10:08:27Z</time>
      </trkpt>
      <trkpt lat="43.3391370" lon="-7.5548380">
        <ele>388.0</ele>
        <time>2021-07-24T10:08:29Z</time>
      </trkpt>
      <trkpt lat="43.3390080" lon="-7.5550040">
        <ele>388.0</ele>
        <time>2021-07-24T10:08:33Z</time>
      </trkpt>
      <trkpt lat="43.3389440" lon="-7.5550810">
        <ele>388.0</ele>
        <time>2021-07-24T10:08:35Z</time>
      </trkpt>
      <trkpt lat="43.3387630" lon="-7.5552990">
        <ele>388.0</ele>
        <time>2021-07-24T10:08:41Z</time>
      </trkpt>
      <trkpt lat="43.3385990" lon="-7.5554820">
        <ele>388.0</ele>
        <time>2021-07-24T10:08:47Z</time>
      </trkpt>
      <trkpt lat="43.3384210" lon="-7.5557040">
        <ele>388.0</ele>
        <time>2021-07-24T10:08:54Z</time>
      </trkpt>
      <trkpt lat="43.3382470" lon="-7.5558940">
        <ele>388.0</ele>
        <time>2021-07-24T10:09:00Z</time>
      </trkpt>
      <trkpt lat="43.3381840" lon="-7.5560010">
        <ele>388.0</ele>
        <time>2021-07-24T10:09:02Z</time>
      </trkpt>
      <trkpt lat="43.3381340" lon="-7.5561310">
        <ele>388.0</ele>
        <time>2021-07-24T10:09:04Z</time>
      </trkpt>
      <trkpt lat="43.3381010" lon="-7.5562660">
        <ele>388.0</ele>
        <time>2021-07-24T10:09:06Z</time>
      </trkpt>
      <trkpt lat="43.3380520" lon="-7.5565120">
        <ele>388.0</ele>
        <time>2021-07-24T10:09:10Z</time>
      </trkpt>
      <trkpt lat="43.3379580" lon="-7.5569140">
        <ele>388.0</ele>
        <time>2021-07-24T10:09:17Z</time>
      </trkpt>
      <trkpt lat="43.3379180" lon="-7.5570760">
        <ele>388.0</ele>
        <time>2021-07-24T10:09:20Z</time>
      </trkpt>
      <trkpt lat="43.3378730" lon="-7.5572470">
        <ele>388.0</ele>
        <time>2021-07-24T10:09:23Z</time>
      </trkpt>
      <trkpt lat="43.3378460" lon="-7.5573640">
        <ele>387.2</ele>
        <time>2021-07-24T10:09:25Z</time>
      </trkpt>
      <trkpt lat="43.3378330" lon="-7.5574280">
        <ele>386.8</ele>
        <time>2021-07-24T10:09:26Z</time>
      </trkpt>
      <trkpt lat="43.3378150" lon="-7.5574940">
        <ele>386.4</ele>
        <time>2021-07-24T10:09:27Z</time>
      </trkpt>
      <trkpt lat="43.3377960" lon="-7.5575540">
        <ele>386.0</ele>
        <time>2021-07-24T10:09:28Z</time>
      </trkpt>
      <trkpt lat="43.3377520" lon="-7.5576560">
        <ele>386.0</ele>
        <time>2021-07-24T10:09:30Z</time>
      </trkpt>
      <trkpt lat="43.3376160" lon="-7.5577320">
        <ele>386.0</ele>
        <time>2021-07-24T10:09:34Z</time>
      </trkpt>
      <trkpt lat="43.3375500" lon="-7.5577410">
        <ele>385.6</ele>
        <time>2021-07-24T10:09:36Z</time>
      </trkpt>
      <trkpt lat="43.3375140" lon="-7.5577460">
        <ele>385.2</ele>
        <time>2021-07-24T10:09:37Z</time>
      </trkpt>
      <trkpt lat="43.3374790" lon="-7.5577520">
        <ele>384.8</ele>
        <time>2021-07-24T10:09:38Z</time>
      </trkpt>
      <trkpt lat="43.3374790" lon="-7.5577520">
        <ele>384.4</ele>
        <time>2021-07-24T10:09:39Z</time>
      </trkpt>
      <trkpt lat="43.3374790" lon="-7.5577520">
        <ele>384.0</ele>
        <time>2021-07-24T10:09:40Z</time>
      </trkpt>
      <trkpt lat="43.3372270" lon="-7.5577430">
        <ele>384.0</ele>
        <time>2021-07-24T10:09:45Z</time>
      </trkpt>
      <trkpt lat="43.3372070" lon="-7.5577710">
        <ele>384.0</ele>
        <time>2021-07-24T10:09:46Z</time>
      </trkpt>
      <trkpt lat="43.3371050" lon="-7.5579690">
        <ele>384.0</ele>
        <time>2021-07-24T10:09:52Z</time>
      </trkpt>
      <trkpt lat="43.3369560" lon="-7.5581830">
        <ele>384.0</ele>
        <time>2021-07-24T10:09:58Z</time>
      </trkpt>
      <trkpt lat="43.3367690" lon="-7.5583980">
        <ele>384.0</ele>
        <time>2021-07-24T10:10:05Z</time>
      </trkpt>
      <trkpt lat="43.3365700" lon="-7.5586240">
        <ele>384.4</ele>
        <time>2021-07-24T10:10:12Z</time>
      </trkpt>
      <trkpt lat="43.3365400" lon="-7.5586540">
        <ele>384.8</ele>
        <time>2021-07-24T10:10:13Z</time>
      </trkpt>
      <trkpt lat="43.3365090" lon="-7.5586890">
        <ele>385.6</ele>
        <time>2021-07-24T10:10:14Z</time>
      </trkpt>
      <trkpt lat="43.3364800" lon="-7.5587210">
        <ele>386.0</ele>
        <time>2021-07-24T10:10:15Z</time>
      </trkpt>
      <trkpt lat="43.3363050" lon="-7.5589090">
        <ele>386.0</ele>
        <time>2021-07-24T10:10:21Z</time>
      </trkpt>
      <trkpt lat="43.3362520" lon="-7.5589730">
        <ele>386.0</ele>
        <time>2021-07-24T10:10:23Z</time>
      </trkpt>
      <trkpt lat="43.3360850" lon="-7.5591420">
        <ele>386.0</ele>
        <time>2021-07-24T10:10:29Z</time>
      </trkpt>
      <trkpt lat="43.3358750" lon="-7.5593250">
        <ele>386.0</ele>
        <time>2021-07-24T10:10:35Z</time>
      </trkpt>
      <trkpt lat="43.3356200" lon="-7.5595760">
        <ele>386.0</ele>
        <time>2021-07-24T10:10:42Z</time>
      </trkpt>
      <trkpt lat="43.3353350" lon="-7.5598780">
        <ele>386.0</ele>
        <time>2021-07-24T10:10:50Z</time>
      </trkpt>
      <trkpt lat="43.3351430" lon="-7.5600770">
        <ele>386.0</ele>
        <time>2021-07-24T10:10:56Z</time>
      </trkpt>
      <trkpt lat="43.3348470" lon="-7.5603560">
        <ele>386.0</ele>
        <time>2021-07-24T10:11:05Z</time>
      </trkpt>
      <trkpt lat="43.3346350" lon="-7.5605530">
        <ele>386.0</ele>
        <time>2021-07-24T10:11:11Z</time>
      </trkpt>
      <trkpt lat="43.3343930" lon="-7.5607770">
        <ele>386.0</ele>
        <time>2021-07-24T10:11:18Z</time>
      </trkpt>
      <trkpt lat="43.3342530" lon="-7.5609140">
        <ele>386.0</ele>
        <time>2021-07-24T10:11:22Z</time>
      </trkpt>
      <trkpt lat="43.3341710" lon="-7.5609720">
        <ele>386.0</ele>
        <time>2021-07-24T10:11:24Z</time>
      </trkpt>
      <trkpt lat="43.3341340" lon="-7.5610080">
        <ele>386.0</ele>
        <time>2021-07-24T10:11:25Z</time>
      </trkpt>
      <trkpt lat="43.3339680" lon="-7.5611740">
        <ele>386.0</ele>
        <time>2021-07-24T10:11:30Z</time>
      </trkpt>
      <trkpt lat="43.3337560" lon="-7.5613340">
        <ele>386.0</ele>
        <time>2021-07-24T10:11:36Z</time>
      </trkpt>
      <trkpt lat="43.3337010" lon="-7.5613680">
        <ele>386.0</ele>
        <time>2021-07-24T10:11:38Z</time>
      </trkpt>
      <trkpt lat="43.3336180" lon="-7.5614250">
        <ele>386.0</ele>
        <time>2021-07-24T10:11:42Z</time>
      </trkpt>
      <trkpt lat="43.3334770" lon="-7.5615710">
        <ele>386.0</ele>
        <time>2021-07-24T10:11:47Z</time>
      </trkpt>
      <trkpt lat="43.3332710" lon="-7.5617420">
        <ele>386.0</ele>
        <time>2021-07-24T10:11:53Z</time>
      </trkpt>
      <trkpt lat="43.3330380" lon="-7.5619540">
        <ele>386.0</ele>
        <time>2021-07-24T10:11:59Z</time>
      </trkpt>
      <trkpt lat="43.3327460" lon="-7.5622210">
        <ele>386.0</ele>
        <time>2021-07-24T10:12:06Z</time>
      </trkpt>
      <trkpt lat="43.3326650" lon="-7.5622950">
        <ele>386.0</ele>
        <time>2021-07-24T10:12:08Z</time>
      </trkpt>
      <trkpt lat="43.3324470" lon="-7.5624700">
        <ele>386.0</ele>
        <time>2021-07-24T10:12:13Z</time>
      </trkpt>
      <trkpt lat="43.3323270" lon="-7.5625680">
        <ele>386.0</ele>
        <time>2021-07-24T10:12:16Z</time>
      </trkpt>
      <trkpt lat="43.3322140" lon="-7.5626410">
        <ele>386.0</ele>
        <time>2021-07-24T10:12:19Z</time>
      </trkpt>
      <trkpt lat="43.3320210" lon="-7.5627480">
        <ele>386.0</ele>
        <time>2021-07-24T10:12:25Z</time>
      </trkpt>
      <trkpt lat="43.3318380" lon="-7.5628290">
        <ele>386.0</ele>
        <time>2021-07-24T10:12:32Z</time>
      </trkpt>
      <trkpt lat="43.3316350" lon="-7.5629300">
        <ele>386.4</ele>
        <time>2021-07-24T10:12:39Z</time>
      </trkpt>
      <trkpt lat="43.3316080" lon="-7.5629490">
        <ele>386.8</ele>
        <time>2021-07-24T10:12:40Z</time>
      </trkpt>
      <trkpt lat="43.3315820" lon="-7.5629680">
        <ele>387.6</ele>
        <time>2021-07-24T10:12:41Z</time>
      </trkpt>
      <trkpt lat="43.3315590" lon="-7.5629870">
        <ele>388.2</ele>
        <time>2021-07-24T10:12:42Z</time>
      </trkpt>
      <trkpt lat="43.3314160" lon="-7.5631520">
        <ele>388.2</ele>
        <time>2021-07-24T10:12:48Z</time>
      </trkpt>
      <trkpt lat="43.3313730" lon="-7.5632160">
        <ele>388.6</ele>
        <time>2021-07-24T10:12:50Z</time>
      </trkpt>
      <trkpt lat="43.3313520" lon="-7.5632480">
        <ele>389.0</ele>
        <time>2021-07-24T10:12:51Z</time>
      </trkpt>
      <trkpt lat="43.3313350" lon="-7.5632790">
        <ele>389.4</ele>
        <time>2021-07-24T10:12:52Z</time>
      </trkpt>
      <trkpt lat="43.3313170" lon="-7.5633150">
        <ele>389.8</ele>
        <time>2021-07-24T10:12:53Z</time>
      </trkpt>
      <trkpt lat="43.3312970" lon="-7.5633620">
        <ele>390.2</ele>
        <time>2021-07-24T10:12:54Z</time>
      </trkpt>
      <trkpt lat="43.3312460" lon="-7.5634720">
        <ele>390.2</ele>
        <time>2021-07-24T10:12:57Z</time>
      </trkpt>
      <trkpt lat="43.3311270" lon="-7.5637310">
        <ele>390.2</ele>
        <time>2021-07-24T10:13:04Z</time>
      </trkpt>
      <trkpt lat="43.3310610" lon="-7.5638300">
        <ele>390.2</ele>
        <time>2021-07-24T10:13:07Z</time>
      </trkpt>
      <trkpt lat="43.3309450" lon="-7.5640040">
        <ele>390.6</ele>
        <time>2021-07-24T10:13:12Z</time>
      </trkpt>
      <trkpt lat="43.3309230" lon="-7.5640350">
        <ele>391.0</ele>
        <time>2021-07-24T10:13:13Z</time>
      </trkpt>
      <trkpt lat="43.3308990" lon="-7.5640610">
        <ele>391.4</ele>
        <time>2021-07-24T10:13:14Z</time>
      </trkpt>
      <trkpt lat="43.3308740" lon="-7.5640970">
        <ele>391.8</ele>
        <time>2021-07-24T10:13:15Z</time>
      </trkpt>
      <trkpt lat="43.3308490" lon="-7.5641340">
        <ele>392.2</ele>
        <time>2021-07-24T10:13:16Z</time>
      </trkpt>
      <trkpt lat="43.3307730" lon="-7.5642530">
        <ele>392.2</ele>
        <time>2021-07-24T10:13:19Z</time>
      </trkpt>
      <trkpt lat="43.3305910" lon="-7.5645420">
        <ele>392.2</ele>
        <time>2021-07-24T10:13:27Z</time>
      </trkpt>
      <trkpt lat="43.3304290" lon="-7.5648090">
        <ele>392.2</ele>
        <time>2021-07-24T10:13:34Z</time>
      </trkpt>
      <trkpt lat="43.3302670" lon="-7.5650080">
        <ele>392.2</ele>
        <time>2021-07-24T10:13:40Z</time>
      </trkpt>
      <trkpt lat="43.3301940" lon="-7.5650620">
        <ele>392.2</ele>
        <time>2021-07-24T10:13:42Z</time>
      </trkpt>
      <trkpt lat="43.3300340" lon="-7.5651420">
        <ele>392.2</ele>
        <time>2021-07-24T10:13:46Z</time>
      </trkpt>
      <trkpt lat="43.3299580" lon="-7.5651920">
        <ele>392.2</ele>
        <time>2021-07-24T10:13:48Z</time>
      </trkpt>
      <trkpt lat="43.3298080" lon="-7.5653070">
        <ele>392.2</ele>
        <time>2021-07-24T10:13:52Z</time>
      </trkpt>
      <trkpt lat="43.3296900" lon="-7.5654070">
        <ele>392.2</ele>
        <time>2021-07-24T10:13:55Z</time>
      </trkpt>
      <trkpt lat="43.3296180" lon="-7.5654560">
        <ele>392.2</ele>
        <time>2021-07-24T10:13:57Z</time>
      </trkpt>
      <trkpt lat="43.3293970" lon="-7.5656180">
        <ele>392.2</ele>
        <time>2021-07-24T10:14:03Z</time>
      </trkpt>
      <trkpt lat="43.3293560" lon="-7.5656490">
        <ele>391.8</ele>
        <time>2021-07-24T10:14:04Z</time>
      </trkpt>
      <trkpt lat="43.3293120" lon="-7.5656770">
        <ele>391.2</ele>
        <time>2021-07-24T10:14:05Z</time>
      </trkpt>
      <trkpt lat="43.3292690" lon="-7.5657200">
        <ele>390.8</ele>
        <time>2021-07-24T10:14:06Z</time>
      </trkpt>
      <trkpt lat="43.3292300" lon="-7.5657650">
        <ele>390.4</ele>
        <time>2021-07-24T10:14:07Z</time>
      </trkpt>
      <trkpt lat="43.3291910" lon="-7.5658100">
        <ele>389.8</ele>
        <time>2021-07-24T10:14:08Z</time>
      </trkpt>
      <trkpt lat="43.3291510" lon="-7.5658560">
        <ele>389.4</ele>
        <time>2021-07-24T10:14:09Z</time>
      </trkpt>
      <trkpt lat="43.3291150" lon="-7.5658960">
        <ele>388.8</ele>
        <time>2021-07-24T10:14:10Z</time>
      </trkpt>
      <trkpt lat="43.3290800" lon="-7.5659400">
        <ele>388.4</ele>
        <time>2021-07-24T10:14:11Z</time>
      </trkpt>
      <trkpt lat="43.3290460" lon="-7.5659820">
        <ele>387.8</ele>
        <time>2021-07-24T10:14:12Z</time>
      </trkpt>
      <trkpt lat="43.3290150" lon="-7.5660260">
        <ele>387.8</ele>
        <time>2021-07-24T10:14:13Z</time>
      </trkpt>
      <trkpt lat="43.3289860" lon="-7.5660710">
        <ele>387.8</ele>
        <time>2021-07-24T10:14:14Z</time>
      </trkpt>
      <trkpt lat="43.3289570" lon="-7.5661170">
        <ele>387.8</ele>
        <time>2021-07-24T10:14:15Z</time>
      </trkpt>
      <trkpt lat="43.3288260" lon="-7.5663390">
        <ele>387.4</ele>
        <time>2021-07-24T10:14:19Z</time>
      </trkpt>
      <trkpt lat="43.3287870" lon="-7.5663970">
        <ele>387.0</ele>
        <time>2021-07-24T10:14:20Z</time>
      </trkpt>
      <trkpt lat="43.3287400" lon="-7.5664520">
        <ele>386.6</ele>
        <time>2021-07-24T10:14:21Z</time>
      </trkpt>
      <trkpt lat="43.3286910" lon="-7.5665120">
        <ele>385.6</ele>
        <time>2021-07-24T10:14:22Z</time>
      </trkpt>
      <trkpt lat="43.3286000" lon="-7.5666340">
        <ele>385.2</ele>
        <time>2021-07-24T10:14:24Z</time>
      </trkpt>
      <trkpt lat="43.3285600" lon="-7.5666890">
        <ele>384.8</ele>
        <time>2021-07-24T10:14:25Z</time>
      </trkpt>
      <trkpt lat="43.3285250" lon="-7.5667400">
        <ele>384.4</ele>
        <time>2021-07-24T10:14:26Z</time>
      </trkpt>
      <trkpt lat="43.3284920" lon="-7.5667860">
        <ele>383.8</ele>
        <time>2021-07-24T10:14:27Z</time>
      </trkpt>
      <trkpt lat="43.3284590" lon="-7.5668260">
        <ele>383.2</ele>
        <time>2021-07-24T10:14:28Z</time>
      </trkpt>
      <trkpt lat="43.3284290" lon="-7.5668650">
        <ele>382.4</ele>
        <time>2021-07-24T10:14:29Z</time>
      </trkpt>
      <trkpt lat="43.3284000" lon="-7.5669030">
        <ele>381.8</ele>
        <time>2021-07-24T10:14:30Z</time>
      </trkpt>
      <trkpt lat="43.3283700" lon="-7.5669420">
        <ele>381.2</ele>
        <time>2021-07-24T10:14:31Z</time>
      </trkpt>
      <trkpt lat="43.3283050" lon="-7.5670250">
        <ele>380.8</ele>
        <time>2021-07-24T10:14:33Z</time>
      </trkpt>
      <trkpt lat="43.3282700" lon="-7.5670700">
        <ele>380.4</ele>
        <time>2021-07-24T10:14:34Z</time>
      </trkpt>
      <trkpt lat="43.3282380" lon="-7.5671190">
        <ele>380.0</ele>
        <time>2021-07-24T10:14:35Z</time>
      </trkpt>
      <trkpt lat="43.3282080" lon="-7.5671650">
        <ele>379.6</ele>
        <time>2021-07-24T10:14:36Z</time>
      </trkpt>
      <trkpt lat="43.3281850" lon="-7.5671960">
        <ele>379.2</ele>
        <time>2021-07-24T10:14:37Z</time>
      </trkpt>
      <trkpt lat="43.3281650" lon="-7.5672210">
        <ele>378.6</ele>
        <time>2021-07-24T10:14:38Z</time>
      </trkpt>
      <trkpt lat="43.3281490" lon="-7.5672420">
        <ele>378.2</ele>
        <time>2021-07-24T10:14:39Z</time>
      </trkpt>
      <trkpt lat="43.3281350" lon="-7.5672660">
        <ele>377.8</ele>
        <time>2021-07-24T10:14:40Z</time>
      </trkpt>
      <trkpt lat="43.3281220" lon="-7.5672840">
        <ele>377.4</ele>
        <time>2021-07-24T10:14:41Z</time>
      </trkpt>
      <trkpt lat="43.3281100" lon="-7.5672950">
        <ele>377.0</ele>
        <time>2021-07-24T10:14:42Z</time>
      </trkpt>
      <trkpt lat="43.3281010" lon="-7.5673060">
        <ele>377.0</ele>
        <time>2021-07-24T10:14:43Z</time>
      </trkpt>
      <trkpt lat="43.3280500" lon="-7.5673460">
        <ele>377.0</ele>
        <time>2021-07-24T10:14:48Z</time>
      </trkpt>
      <trkpt lat="43.3279490" lon="-7.5674160">
        <ele>377.0</ele>
        <time>2021-07-24T10:14:54Z</time>
      </trkpt>
      <trkpt lat="43.3278140" lon="-7.5675700">
        <ele>377.0</ele>
        <time>2021-07-24T10:15:02Z</time>
      </trkpt>
      <trkpt lat="43.3276900" lon="-7.5677890">
        <ele>377.0</ele>
        <time>2021-07-24T10:15:10Z</time>
      </trkpt>
      <trkpt lat="43.3276040" lon="-7.5679960">
        <ele>377.0</ele>
        <time>2021-07-24T10:15:15Z</time>
      </trkpt>
      <trkpt lat="43.3275170" lon="-7.5682630">
        <ele>377.0</ele>
        <time>2021-07-24T10:15:22Z</time>
      </trkpt>
      <trkpt lat="43.3275080" lon="-7.5682990">
        <ele>377.4</ele>
        <time>2021-07-24T10:15:23Z</time>
      </trkpt>
      <trkpt lat="43.3275010" lon="-7.5683320">
        <ele>377.8</ele>
        <time>2021-07-24T10:15:24Z</time>
      </trkpt>
      <trkpt lat="43.3274920" lon="-7.5683610">
        <ele>378.4</ele>
        <time>2021-07-24T10:15:25Z</time>
      </trkpt>
      <trkpt lat="43.3274820" lon="-7.5683900">
        <ele>378.8</ele>
        <time>2021-07-24T10:15:26Z</time>
      </trkpt>
      <trkpt lat="43.3274720" lon="-7.5684250">
        <ele>379.2</ele>
        <time>2021-07-24T10:15:27Z</time>
      </trkpt>
      <trkpt lat="43.3274630" lon="-7.5684560">
        <ele>379.2</ele>
        <time>2021-07-24T10:15:28Z</time>
      </trkpt>
      <trkpt lat="43.3274290" lon="-7.5686060">
        <ele>379.2</ele>
        <time>2021-07-24T10:15:33Z</time>
      </trkpt>
      <trkpt lat="43.3273990" lon="-7.5687490">
        <ele>379.6</ele>
        <time>2021-07-24T10:15:38Z</time>
      </trkpt>
      <trkpt lat="43.3273960" lon="-7.5687780">
        <ele>380.0</ele>
        <time>2021-07-24T10:15:39Z</time>
      </trkpt>
      <trkpt lat="43.3273930" lon="-7.5688140">
        <ele>380.4</ele>
        <time>2021-07-24T10:15:40Z</time>
      </trkpt>
      <trkpt lat="43.3273890" lon="-7.5688420">
        <ele>381.0</ele>
        <time>2021-07-24T10:15:41Z</time>
      </trkpt>
      <trkpt lat="43.3273820" lon="-7.5688790">
        <ele>381.4</ele>
        <time>2021-07-24T10:15:42Z</time>
      </trkpt>
      <trkpt lat="43.3273630" lon="-7.5689980">
        <ele>381.4</ele>
        <time>2021-07-24T10:15:45Z</time>
      </trkpt>
      <trkpt lat="43.3273230" lon="-7.5692250">
        <ele>381.4</ele>
        <time>2021-07-24T10:15:51Z</time>
      </trkpt>
      <trkpt lat="43.3272950" lon="-7.5694210">
        <ele>381.8</ele>
        <time>2021-07-24T10:15:56Z</time>
      </trkpt>
      <trkpt lat="43.3272870" lon="-7.5694560">
        <ele>382.2</ele>
        <time>2021-07-24T10:15:57Z</time>
      </trkpt>
      <trkpt lat="43.3272830" lon="-7.5694920">
        <ele>382.6</ele>
        <time>2021-07-24T10:15:58Z</time>
      </trkpt>
      <trkpt lat="43.3272760" lon="-7.5695280">
        <ele>383.0</ele>
        <time>2021-07-24T10:15:59Z</time>
      </trkpt>
      <trkpt lat="43.3272690" lon="-7.5695630">
        <ele>383.4</ele>
        <time>2021-07-24T10:16:00Z</time>
      </trkpt>
      <trkpt lat="43.3272350" lon="-7.5697450">
        <ele>383.4</ele>
        <time>2021-07-24T10:16:05Z</time>
      </trkpt>
      <trkpt lat="43.3271800" lon="-7.5699860">
        <ele>383.4</ele>
        <time>2021-07-24T10:16:12Z</time>
      </trkpt>
      <trkpt lat="43.3271610" lon="-7.5700810">
        <ele>383.8</ele>
        <time>2021-07-24T10:16:15Z</time>
      </trkpt>
      <trkpt lat="43.3271560" lon="-7.5701120">
        <ele>384.2</ele>
        <time>2021-07-24T10:16:16Z</time>
      </trkpt>
      <trkpt lat="43.3271490" lon="-7.5701450">
        <ele>384.6</ele>
        <time>2021-07-24T10:16:17Z</time>
      </trkpt>
      <trkpt lat="43.3271400" lon="-7.5701750">
        <ele>385.0</ele>
        <time>2021-07-24T10:16:18Z</time>
      </trkpt>
      <trkpt lat="43.3271330" lon="-7.5702060">
        <ele>385.4</ele>
        <time>2021-07-24T10:16:19Z</time>
      </trkpt>
      <trkpt lat="43.3270930" lon="-7.5703880">
        <ele>385.4</ele>
        <time>2021-07-24T10:16:25Z</time>
      </trkpt>
      <trkpt lat="43.3270590" lon="-7.5705060">
        <ele>385.8</ele>
        <time>2021-07-24T10:16:29Z</time>
      </trkpt>
      <trkpt lat="43.3270540" lon="-7.5705350">
        <ele>386.2</ele>
        <time>2021-07-24T10:16:30Z</time>
      </trkpt>
      <trkpt lat="43.3270470" lon="-7.5705640">
        <ele>386.6</ele>
        <time>2021-07-24T10:16:31Z</time>
      </trkpt>
      <trkpt lat="43.3270410" lon="-7.5705940">
        <ele>387.0</ele>
        <time>2021-07-24T10:16:32Z</time>
      </trkpt>
      <trkpt lat="43.3270360" lon="-7.5706240">
        <ele>387.4</ele>
        <time>2021-07-24T10:16:33Z</time>
      </trkpt>
      <trkpt lat="43.3270020" lon="-7.5708020">
        <ele>387.4</ele>
        <time>2021-07-24T10:16:39Z</time>
      </trkpt>
      <trkpt lat="43.3269790" lon="-7.5709860">
        <ele>387.8</ele>
        <time>2021-07-24T10:16:45Z</time>
      </trkpt>
      <trkpt lat="43.3269770" lon="-7.5710190">
        <ele>388.2</ele>
        <time>2021-07-24T10:16:46Z</time>
      </trkpt>
      <trkpt lat="43.3269770" lon="-7.5710540">
        <ele>388.6</ele>
        <time>2021-07-24T10:16:47Z</time>
      </trkpt>
      <trkpt lat="43.3269750" lon="-7.5710880">
        <ele>389.2</ele>
        <time>2021-07-24T10:16:48Z</time>
      </trkpt>
      <trkpt lat="43.3269700" lon="-7.5711240">
        <ele>389.6</ele>
        <time>2021-07-24T10:16:49Z</time>
      </trkpt>
      <trkpt lat="43.3269540" lon="-7.5713230">
        <ele>389.6</ele>
        <time>2021-07-24T10:16:55Z</time>
      </trkpt>
      <trkpt lat="43.3269290" lon="-7.5716310">
        <ele>389.6</ele>
        <time>2021-07-24T10:17:04Z</time>
      </trkpt>
      <trkpt lat="43.3269190" lon="-7.5717360">
        <ele>390.0</ele>
        <time>2021-07-24T10:17:07Z</time>
      </trkpt>
      <trkpt lat="43.3269180" lon="-7.5717680">
        <ele>390.4</ele>
        <time>2021-07-24T10:17:08Z</time>
      </trkpt>
      <trkpt lat="43.3269150" lon="-7.5717980">
        <ele>390.8</ele>
        <time>2021-07-24T10:17:09Z</time>
      </trkpt>
      <trkpt lat="43.3269100" lon="-7.5718250">
        <ele>391.2</ele>
        <time>2021-07-24T10:17:10Z</time>
      </trkpt>
      <trkpt lat="43.3269050" lon="-7.5718530">
        <ele>391.6</ele>
        <time>2021-07-24T10:17:11Z</time>
      </trkpt>
      <trkpt lat="43.3268990" lon="-7.5718880">
        <ele>391.6</ele>
        <time>2021-07-24T10:17:12Z</time>
      </trkpt>
      <trkpt lat="43.3268990" lon="-7.5720400">
        <ele>391.6</ele>
        <time>2021-07-24T10:17:17Z</time>
      </trkpt>
      <trkpt lat="43.3268890" lon="-7.5721320">
        <ele>392.0</ele>
        <time>2021-07-24T10:17:20Z</time>
      </trkpt>
      <trkpt lat="43.3268830" lon="-7.5721600">
        <ele>392.6</ele>
        <time>2021-07-24T10:17:21Z</time>
      </trkpt>
      <trkpt lat="43.3268810" lon="-7.5721910">
        <ele>393.0</ele>
        <time>2021-07-24T10:17:22Z</time>
      </trkpt>
      <trkpt lat="43.3268780" lon="-7.5722230">
        <ele>393.4</ele>
        <time>2021-07-24T10:17:23Z</time>
      </trkpt>
      <trkpt lat="43.3268750" lon="-7.5722560">
        <ele>393.8</ele>
        <time>2021-07-24T10:17:24Z</time>
      </trkpt>
      <trkpt lat="43.3268710" lon="-7.5722900">
        <ele>393.8</ele>
        <time>2021-07-24T10:17:25Z</time>
      </trkpt>
      <trkpt lat="43.3268390" lon="-7.5725460">
        <ele>393.8</ele>
        <time>2021-07-24T10:17:33Z</time>
      </trkpt>
      <trkpt lat="43.3268280" lon="-7.5726510">
        <ele>394.2</ele>
        <time>2021-07-24T10:17:36Z</time>
      </trkpt>
      <trkpt lat="43.3268230" lon="-7.5726890">
        <ele>394.6</ele>
        <time>2021-07-24T10:17:37Z</time>
      </trkpt>
      <trkpt lat="43.3268170" lon="-7.5727260">
        <ele>395.0</ele>
        <time>2021-07-24T10:17:38Z</time>
      </trkpt>
      <trkpt lat="43.3268120" lon="-7.5727620">
        <ele>395.4</ele>
        <time>2021-07-24T10:17:39Z</time>
      </trkpt>
      <trkpt lat="43.3268060" lon="-7.5728000">
        <ele>396.0</ele>
        <time>2021-07-24T10:17:40Z</time>
      </trkpt>
      <trkpt lat="43.3268010" lon="-7.5728390">
        <ele>396.0</ele>
        <time>2021-07-24T10:17:41Z</time>
      </trkpt>
      <trkpt lat="43.3267720" lon="-7.5731340">
        <ele>396.0</ele>
        <time>2021-07-24T10:17:48Z</time>
      </trkpt>
      <trkpt lat="43.3267350" lon="-7.5734840">
        <ele>396.0</ele>
        <time>2021-07-24T10:17:56Z</time>
      </trkpt>
      <trkpt lat="43.3267070" lon="-7.5737030">
        <ele>396.4</ele>
        <time>2021-07-24T10:18:01Z</time>
      </trkpt>
      <trkpt lat="43.3267070" lon="-7.5737510">
        <ele>396.8</ele>
        <time>2021-07-24T10:18:02Z</time>
      </trkpt>
      <trkpt lat="43.3267040" lon="-7.5737970">
        <ele>397.2</ele>
        <time>2021-07-24T10:18:03Z</time>
      </trkpt>
      <trkpt lat="43.3266960" lon="-7.5738370">
        <ele>398.0</ele>
        <time>2021-07-24T10:18:04Z</time>
      </trkpt>
      <trkpt lat="43.3266850" lon="-7.5739310">
        <ele>398.0</ele>
        <time>2021-07-24T10:18:06Z</time>
      </trkpt>
      <trkpt lat="43.3266100" lon="-7.5742180">
        <ele>398.0</ele>
        <time>2021-07-24T10:18:12Z</time>
      </trkpt>
      <trkpt lat="43.3265200" lon="-7.5745580">
        <ele>398.0</ele>
        <time>2021-07-24T10:18:19Z</time>
      </trkpt>
      <trkpt lat="43.3264160" lon="-7.5749270">
        <ele>398.0</ele>
        <time>2021-07-24T10:18:26Z</time>
      </trkpt>
      <trkpt lat="43.3263260" lon="-7.5751980">
        <ele>398.0</ele>
        <time>2021-07-24T10:18:32Z</time>
      </trkpt>
      <trkpt lat="43.3262120" lon="-7.5755100">
        <ele>398.0</ele>
        <time>2021-07-24T10:18:39Z</time>
      </trkpt>
      <trkpt lat="43.3260970" lon="-7.5757800">
        <ele>398.0</ele>
        <time>2021-07-24T10:18:45Z</time>
      </trkpt>
      <trkpt lat="43.3260070" lon="-7.5760160">
        <ele>398.0</ele>
        <time>2021-07-24T10:18:50Z</time>
      </trkpt>
      <trkpt lat="43.3258600" lon="-7.5763570">
        <ele>398.0</ele>
        <time>2021-07-24T10:18:57Z</time>
      </trkpt>
      <trkpt lat="43.3257980" lon="-7.5765000">
        <ele>398.0</ele>
        <time>2021-07-24T10:19:00Z</time>
      </trkpt>
      <trkpt lat="43.3257660" lon="-7.5766110">
        <ele>398.0</ele>
        <time>2021-07-24T10:19:02Z</time>
      </trkpt>
      <trkpt lat="43.3257150" lon="-7.5767760">
        <ele>398.0</ele>
        <time>2021-07-24T10:19:05Z</time>
      </trkpt>
      <trkpt lat="43.3256690" lon="-7.5769140">
        <ele>398.0</ele>
        <time>2021-07-24T10:19:08Z</time>
      </trkpt>
      <trkpt lat="43.3255700" lon="-7.5772550">
        <ele>398.0</ele>
        <time>2021-07-24T10:19:15Z</time>
      </trkpt>
      <trkpt lat="43.3255080" lon="-7.5774920">
        <ele>398.0</ele>
        <time>2021-07-24T10:19:20Z</time>
      </trkpt>
      <trkpt lat="43.3254600" lon="-7.5776570">
        <ele>398.0</ele>
        <time>2021-07-24T10:19:23Z</time>
      </trkpt>
      <trkpt lat="43.3254210" lon="-7.5777970">
        <ele>398.0</ele>
        <time>2021-07-24T10:19:26Z</time>
      </trkpt>
      <trkpt lat="43.3253560" lon="-7.5780570">
        <ele>398.0</ele>
        <time>2021-07-24T10:19:32Z</time>
      </trkpt>
      <trkpt lat="43.3252540" lon="-7.5783880">
        <ele>398.0</ele>
        <time>2021-07-24T10:19:39Z</time>
      </trkpt>
      <trkpt lat="43.3251530" lon="-7.5787170">
        <ele>398.0</ele>
        <time>2021-07-24T10:19:45Z</time>
      </trkpt>
      <trkpt lat="43.3251360" lon="-7.5787780">
        <ele>398.0</ele>
        <time>2021-07-24T10:19:46Z</time>
      </trkpt>
      <trkpt lat="43.3250430" lon="-7.5790630">
        <ele>398.0</ele>
        <time>2021-07-24T10:19:51Z</time>
      </trkpt>
      <trkpt lat="43.3249230" lon="-7.5794180">
        <ele>398.0</ele>
        <time>2021-07-24T10:19:58Z</time>
      </trkpt>
      <trkpt lat="43.3248350" lon="-7.5797240">
        <ele>398.0</ele>
        <time>2021-07-24T10:20:04Z</time>
      </trkpt>
      <trkpt lat="43.3247550" lon="-7.5800090">
        <ele>398.0</ele>
        <time>2021-07-24T10:20:10Z</time>
      </trkpt>
      <trkpt lat="43.3246710" lon="-7.5802500">
        <ele>398.0</ele>
        <time>2021-07-24T10:20:15Z</time>
      </trkpt>
      <trkpt lat="43.3246130" lon="-7.5803680">
        <ele>398.4</ele>
        <time>2021-07-24T10:20:19Z</time>
      </trkpt>
      <trkpt lat="43.3246040" lon="-7.5803920">
        <ele>398.8</ele>
        <time>2021-07-24T10:20:20Z</time>
      </trkpt>
      <trkpt lat="43.3245980" lon="-7.5804170">
        <ele>399.2</ele>
        <time>2021-07-24T10:20:21Z</time>
      </trkpt>
      <trkpt lat="43.3245940" lon="-7.5804500">
        <ele>399.6</ele>
        <time>2021-07-24T10:20:22Z</time>
      </trkpt>
      <trkpt lat="43.3245850" lon="-7.5804890">
        <ele>400.0</ele>
        <time>2021-07-24T10:20:23Z</time>
      </trkpt>
      <trkpt lat="43.3245520" lon="-7.5805720">
        <ele>400.0</ele>
        <time>2021-07-24T10:20:25Z</time>
      </trkpt>
      <trkpt lat="43.3244580" lon="-7.5808070">
        <ele>400.0</ele>
        <time>2021-07-24T10:20:31Z</time>
      </trkpt>
      <trkpt lat="43.3243780" lon="-7.5810440">
        <ele>400.0</ele>
        <time>2021-07-24T10:20:37Z</time>
      </trkpt>
      <trkpt lat="43.3243140" lon="-7.5812120">
        <ele>400.0</ele>
        <time>2021-07-24T10:20:42Z</time>
      </trkpt>
      <trkpt lat="43.3243020" lon="-7.5812420">
        <ele>400.4</ele>
        <time>2021-07-24T10:20:43Z</time>
      </trkpt>
      <trkpt lat="43.3242880" lon="-7.5812770">
        <ele>400.8</ele>
        <time>2021-07-24T10:20:44Z</time>
      </trkpt>
      <trkpt lat="43.3242780" lon="-7.5813120">
        <ele>401.2</ele>
        <time>2021-07-24T10:20:45Z</time>
      </trkpt>
      <trkpt lat="43.3242650" lon="-7.5813460">
        <ele>401.6</ele>
        <time>2021-07-24T10:20:46Z</time>
      </trkpt>
      <trkpt lat="43.3242500" lon="-7.5813750">
        <ele>402.0</ele>
        <time>2021-07-24T10:20:47Z</time>
      </trkpt>
      <trkpt lat="43.3242190" lon="-7.5814270">
        <ele>402.0</ele>
        <time>2021-07-24T10:20:50Z</time>
      </trkpt>
      <trkpt lat="43.3241930" lon="-7.5814800">
        <ele>402.0</ele>
        <time>2021-07-24T10:20:53Z</time>
      </trkpt>
      <trkpt lat="43.3241820" lon="-7.5815110">
        <ele>402.0</ele>
        <time>2021-07-24T10:20:54Z</time>
      </trkpt>
      <trkpt lat="43.3241040" lon="-7.5816940">
        <ele>402.0</ele>
        <time>2021-07-24T10:20:59Z</time>
      </trkpt>
      <trkpt lat="43.3240080" lon="-7.5819300">
        <ele>402.0</ele>
        <time>2021-07-24T10:21:05Z</time>
      </trkpt>
      <trkpt lat="43.3239500" lon="-7.5820860">
        <ele>402.4</ele>
        <time>2021-07-24T10:21:09Z</time>
      </trkpt>
      <trkpt lat="43.3239350" lon="-7.5821250">
        <ele>402.8</ele>
        <time>2021-07-24T10:21:10Z</time>
      </trkpt>
      <trkpt lat="43.3239210" lon="-7.5821590">
        <ele>403.2</ele>
        <time>2021-07-24T10:21:11Z</time>
      </trkpt>
      <trkpt lat="43.3239020" lon="-7.5821960">
        <ele>403.6</ele>
        <time>2021-07-24T10:21:12Z</time>
      </trkpt>
      <trkpt lat="43.3238790" lon="-7.5822300">
        <ele>404.2</ele>
        <time>2021-07-24T10:21:13Z</time>
      </trkpt>
      <trkpt lat="43.3238190" lon="-7.5823970">
        <ele>404.2</ele>
        <time>2021-07-24T10:21:17Z</time>
      </trkpt>
      <trkpt lat="43.3237160" lon="-7.5826360">
        <ele>404.2</ele>
        <time>2021-07-24T10:21:23Z</time>
      </trkpt>
      <trkpt lat="43.3236270" lon="-7.5828720">
        <ele>404.2</ele>
        <time>2021-07-24T10:21:29Z</time>
      </trkpt>
      <trkpt lat="43.3235340" lon="-7.5830550">
        <ele>404.2</ele>
        <time>2021-07-24T10:21:34Z</time>
      </trkpt>
      <trkpt lat="43.3234400" lon="-7.5832420">
        <ele>404.6</ele>
        <time>2021-07-24T10:21:39Z</time>
      </trkpt>
      <trkpt lat="43.3234270" lon="-7.5832720">
        <ele>405.0</ele>
        <time>2021-07-24T10:21:40Z</time>
      </trkpt>
      <trkpt lat="43.3234090" lon="-7.5833010">
        <ele>405.8</ele>
        <time>2021-07-24T10:21:41Z</time>
      </trkpt>
      <trkpt lat="43.3233930" lon="-7.5833250">
        <ele>406.2</ele>
        <time>2021-07-24T10:21:42Z</time>
      </trkpt>
      <trkpt lat="43.3233140" lon="-7.5834400">
        <ele>406.2</ele>
        <time>2021-07-24T10:21:46Z</time>
      </trkpt>
      <trkpt lat="43.3232180" lon="-7.5836150">
        <ele>406.2</ele>
        <time>2021-07-24T10:21:52Z</time>
      </trkpt>
      <trkpt lat="43.3231180" lon="-7.5838050">
        <ele>406.2</ele>
        <time>2021-07-24T10:21:57Z</time>
      </trkpt>
      <trkpt lat="43.3230510" lon="-7.5839890">
        <ele>406.2</ele>
        <time>2021-07-24T10:22:01Z</time>
      </trkpt>
      <trkpt lat="43.3229700" lon="-7.5842800">
        <ele>406.2</ele>
        <time>2021-07-24T10:22:07Z</time>
      </trkpt>
      <trkpt lat="43.3228420" lon="-7.5845470">
        <ele>406.2</ele>
        <time>2021-07-24T10:22:14Z</time>
      </trkpt>
      <trkpt lat="43.3227160" lon="-7.5848440">
        <ele>406.2</ele>
        <time>2021-07-24T10:22:20Z</time>
      </trkpt>
      <trkpt lat="43.3225850" lon="-7.5850730">
        <ele>406.2</ele>
        <time>2021-07-24T10:22:25Z</time>
      </trkpt>
      <trkpt lat="43.3224980" lon="-7.5852500">
        <ele>406.2</ele>
        <time>2021-07-24T10:22:30Z</time>
      </trkpt>
      <trkpt lat="43.3223890" lon="-7.5854500">
        <ele>406.2</ele>
        <time>2021-07-24T10:22:35Z</time>
      </trkpt>
      <trkpt lat="43.3222600" lon="-7.5856470">
        <ele>406.2</ele>
        <time>2021-07-24T10:22:40Z</time>
      </trkpt>
      <trkpt lat="43.3220920" lon="-7.5858490">
        <ele>406.2</ele>
        <time>2021-07-24T10:22:46Z</time>
      </trkpt>
      <trkpt lat="43.3219390" lon="-7.5860940">
        <ele>406.2</ele>
        <time>2021-07-24T10:22:52Z</time>
      </trkpt>
      <trkpt lat="43.3219120" lon="-7.5861400">
        <ele>406.2</ele>
        <time>2021-07-24T10:22:53Z</time>
      </trkpt>
      <trkpt lat="43.3218160" lon="-7.5863020">
        <ele>406.2</ele>
        <time>2021-07-24T10:22:57Z</time>
      </trkpt>
      <trkpt lat="43.3217130" lon="-7.5864450">
        <ele>406.2</ele>
        <time>2021-07-24T10:23:02Z</time>
      </trkpt>
      <trkpt lat="43.3216350" lon="-7.5865210">
        <ele>406.2</ele>
        <time>2021-07-24T10:23:05Z</time>
      </trkpt>
      <trkpt lat="43.3215730" lon="-7.5865930">
        <ele>406.2</ele>
        <time>2021-07-24T10:23:07Z</time>
      </trkpt>
      <trkpt lat="43.3214480" lon="-7.5867470">
        <ele>406.2</ele>
        <time>2021-07-24T10:23:12Z</time>
      </trkpt>
      <trkpt lat="43.3213190" lon="-7.5869660">
        <ele>406.2</ele>
        <time>2021-07-24T10:23:18Z</time>
      </trkpt>
      <trkpt lat="43.3211680" lon="-7.5872150">
        <ele>406.2</ele>
        <time>2021-07-24T10:23:24Z</time>
      </trkpt>
      <trkpt lat="43.3210000" lon="-7.5874320">
        <ele>406.2</ele>
        <time>2021-07-24T10:23:29Z</time>
      </trkpt>
      <trkpt lat="43.3208140" lon="-7.5877070">
        <ele>406.2</ele>
        <time>2021-07-24T10:23:35Z</time>
      </trkpt>
      <trkpt lat="43.3206460" lon="-7.5879450">
        <ele>406.2</ele>
        <time>2021-07-24T10:23:41Z</time>
      </trkpt>
      <trkpt lat="43.3204700" lon="-7.5882400">
        <ele>406.2</ele>
        <time>2021-07-24T10:23:48Z</time>
      </trkpt>
      <trkpt lat="43.3203050" lon="-7.5885100">
        <ele>406.2</ele>
        <time>2021-07-24T10:23:55Z</time>
      </trkpt>
      <trkpt lat="43.3201510" lon="-7.5887510">
        <ele>406.2</ele>
        <time>2021-07-24T10:24:01Z</time>
      </trkpt>
      <trkpt lat="43.3200110" lon="-7.5889280">
        <ele>406.2</ele>
        <time>2021-07-24T10:24:06Z</time>
      </trkpt>
      <trkpt lat="43.3199110" lon="-7.5890460">
        <ele>405.8</ele>
        <time>2021-07-24T10:24:10Z</time>
      </trkpt>
      <trkpt lat="43.3198890" lon="-7.5890600">
        <ele>405.2</ele>
        <time>2021-07-24T10:24:11Z</time>
      </trkpt>
      <trkpt lat="43.3198730" lon="-7.5890750">
        <ele>404.8</ele>
        <time>2021-07-24T10:24:12Z</time>
      </trkpt>
      <trkpt lat="43.3198570" lon="-7.5890810">
        <ele>404.4</ele>
        <time>2021-07-24T10:24:13Z</time>
      </trkpt>
      <trkpt lat="43.3198420" lon="-7.5890830">
        <ele>404.0</ele>
        <time>2021-07-24T10:24:14Z</time>
      </trkpt>
      <trkpt lat="43.3198010" lon="-7.5891270">
        <ele>404.0</ele>
        <time>2021-07-24T10:24:17Z</time>
      </trkpt>
      <trkpt lat="43.3197910" lon="-7.5891510">
        <ele>404.0</ele>
        <time>2021-07-24T10:24:20Z</time>
      </trkpt>
      <trkpt lat="43.3197000" lon="-7.5894330">
        <ele>404.0</ele>
        <time>2021-07-24T10:25:02Z</time>
      </trkpt>
      <trkpt lat="43.3196910" lon="-7.5894670">
        <ele>404.0</ele>
        <time>2021-07-24T10:25:03Z</time>
      </trkpt>
      <trkpt lat="43.3196470" lon="-7.5896920">
        <ele>404.0</ele>
        <time>2021-07-24T10:25:10Z</time>
      </trkpt>
      <trkpt lat="43.3195950" lon="-7.5899310">
        <ele>404.4</ele>
        <time>2021-07-24T10:25:17Z</time>
      </trkpt>
      <trkpt lat="43.3195870" lon="-7.5899780">
        <ele>404.8</ele>
        <time>2021-07-24T10:25:18Z</time>
      </trkpt>
      <trkpt lat="43.3195740" lon="-7.5900250">
        <ele>405.2</ele>
        <time>2021-07-24T10:25:19Z</time>
      </trkpt>
      <trkpt lat="43.3195620" lon="-7.5900620">
        <ele>405.6</ele>
        <time>2021-07-24T10:25:20Z</time>
      </trkpt>
      <trkpt lat="43.3195520" lon="-7.5901020">
        <ele>406.0</ele>
        <time>2021-07-24T10:25:21Z</time>
      </trkpt>
      <trkpt lat="43.3195450" lon="-7.5901390">
        <ele>406.0</ele>
        <time>2021-07-24T10:25:22Z</time>
      </trkpt>
      <trkpt lat="43.3194730" lon="-7.5904340">
        <ele>406.0</ele>
        <time>2021-07-24T10:25:30Z</time>
      </trkpt>
      <trkpt lat="43.3194500" lon="-7.5905010">
        <ele>406.4</ele>
        <time>2021-07-24T10:25:32Z</time>
      </trkpt>
      <trkpt lat="43.3194440" lon="-7.5905340">
        <ele>406.8</ele>
        <time>2021-07-24T10:25:33Z</time>
      </trkpt>
      <trkpt lat="43.3194370" lon="-7.5905700">
        <ele>407.2</ele>
        <time>2021-07-24T10:25:34Z</time>
      </trkpt>
      <trkpt lat="43.3194310" lon="-7.5906070">
        <ele>407.6</ele>
        <time>2021-07-24T10:25:35Z</time>
      </trkpt>
      <trkpt lat="43.3194220" lon="-7.5906440">
        <ele>408.2</ele>
        <time>2021-07-24T10:25:36Z</time>
      </trkpt>
      <trkpt lat="43.3194170" lon="-7.5906840">
        <ele>408.2</ele>
        <time>2021-07-24T10:25:37Z</time>
      </trkpt>
      <trkpt lat="43.3193550" lon="-7.5909260">
        <ele>408.2</ele>
        <time>2021-07-24T10:25:44Z</time>
      </trkpt>
      <trkpt lat="43.3193420" lon="-7.5909530">
        <ele>408.6</ele>
        <time>2021-07-24T10:25:45Z</time>
      </trkpt>
      <trkpt lat="43.3193330" lon="-7.5909840">
        <ele>409.0</ele>
        <time>2021-07-24T10:25:46Z</time>
      </trkpt>
      <trkpt lat="43.3193270" lon="-7.5910130">
        <ele>409.4</ele>
        <time>2021-07-24T10:25:47Z</time>
      </trkpt>
      <trkpt lat="43.3193230" lon="-7.5910400">
        <ele>410.2</ele>
        <time>2021-07-24T10:25:48Z</time>
      </trkpt>
      <trkpt lat="43.3192930" lon="-7.5911330">
        <ele>410.2</ele>
        <time>2021-07-24T10:25:51Z</time>
      </trkpt>
      <trkpt lat="43.3192020" lon="-7.5912710">
        <ele>410.2</ele>
        <time>2021-07-24T10:25:57Z</time>
      </trkpt>
      <trkpt lat="43.3191380" lon="-7.5914170">
        <ele>410.6</ele>
        <time>2021-07-24T10:26:02Z</time>
      </trkpt>
      <trkpt lat="43.3191240" lon="-7.5914470">
        <ele>411.0</ele>
        <time>2021-07-24T10:26:03Z</time>
      </trkpt>
      <trkpt lat="43.3191070" lon="-7.5914750">
        <ele>411.4</ele>
        <time>2021-07-24T10:26:04Z</time>
      </trkpt>
      <trkpt lat="43.3190930" lon="-7.5915010">
        <ele>411.8</ele>
        <time>2021-07-24T10:26:05Z</time>
      </trkpt>
      <trkpt lat="43.3190760" lon="-7.5915260">
        <ele>412.2</ele>
        <time>2021-07-24T10:26:06Z</time>
      </trkpt>
      <trkpt lat="43.3189920" lon="-7.5916330">
        <ele>412.2</ele>
        <time>2021-07-24T10:26:10Z</time>
      </trkpt>
      <trkpt lat="43.3189160" lon="-7.5918140">
        <ele>412.2</ele>
        <time>2021-07-24T10:26:16Z</time>
      </trkpt>
      <trkpt lat="43.3188930" lon="-7.5918740">
        <ele>412.6</ele>
        <time>2021-07-24T10:26:18Z</time>
      </trkpt>
      <trkpt lat="43.3188850" lon="-7.5919060">
        <ele>413.0</ele>
        <time>2021-07-24T10:26:19Z</time>
      </trkpt>
      <trkpt lat="43.3188750" lon="-7.5919410">
        <ele>413.4</ele>
        <time>2021-07-24T10:26:20Z</time>
      </trkpt>
      <trkpt lat="43.3188640" lon="-7.5919740">
        <ele>413.8</ele>
        <time>2021-07-24T10:26:21Z</time>
      </trkpt>
      <trkpt lat="43.3188490" lon="-7.5920060">
        <ele>414.2</ele>
        <time>2021-07-24T10:26:22Z</time>
      </trkpt>
      <trkpt lat="43.3187830" lon="-7.5921840">
        <ele>414.2</ele>
        <time>2021-07-24T10:26:28Z</time>
      </trkpt>
      <trkpt lat="43.3187200" lon="-7.5923280">
        <ele>414.6</ele>
        <time>2021-07-24T10:26:33Z</time>
      </trkpt>
      <trkpt lat="43.3187080" lon="-7.5923510">
        <ele>415.0</ele>
        <time>2021-07-24T10:26:34Z</time>
      </trkpt>
      <trkpt lat="43.3186940" lon="-7.5923800">
        <ele>415.4</ele>
        <time>2021-07-24T10:26:35Z</time>
      </trkpt>
      <trkpt lat="43.3186790" lon="-7.5924080">
        <ele>416.0</ele>
        <time>2021-07-24T10:26:36Z</time>
      </trkpt>
      <trkpt lat="43.3186660" lon="-7.5924380">
        <ele>416.4</ele>
        <time>2021-07-24T10:26:37Z</time>
      </trkpt>
      <trkpt lat="43.3185600" lon="-7.5926690">
        <ele>416.4</ele>
        <time>2021-07-24T10:26:43Z</time>
      </trkpt>
      <trkpt lat="43.3185030" lon="-7.5927590">
        <ele>416.4</ele>
        <time>2021-07-24T10:26:46Z</time>
      </trkpt>
      <trkpt lat="43.3184630" lon="-7.5928570">
        <ele>416.4</ele>
        <time>2021-07-24T10:26:49Z</time>
      </trkpt>
      <trkpt lat="43.3184000" lon="-7.5930240">
        <ele>416.4</ele>
        <time>2021-07-24T10:26:54Z</time>
      </trkpt>
      <trkpt lat="43.3182650" lon="-7.5932540">
        <ele>416.8</ele>
        <time>2021-07-24T10:27:01Z</time>
      </trkpt>
      <trkpt lat="43.3182450" lon="-7.5932860">
        <ele>417.2</ele>
        <time>2021-07-24T10:27:02Z</time>
      </trkpt>
      <trkpt lat="43.3182300" lon="-7.5933190">
        <ele>418.0</ele>
        <time>2021-07-24T10:27:03Z</time>
      </trkpt>
      <trkpt lat="43.3182120" lon="-7.5933520">
        <ele>418.4</ele>
        <time>2021-07-24T10:27:04Z</time>
      </trkpt>
      <trkpt lat="43.3181150" lon="-7.5935310">
        <ele>418.4</ele>
        <time>2021-07-24T10:27:09Z</time>
      </trkpt>
      <trkpt lat="43.3180160" lon="-7.5937270">
        <ele>418.4</ele>
        <time>2021-07-24T10:27:15Z</time>
      </trkpt>
      <trkpt lat="43.3178940" lon="-7.5939770">
        <ele>418.4</ele>
        <time>2021-07-24T10:27:21Z</time>
      </trkpt>
      <trkpt lat="43.3177520" lon="-7.5942690">
        <ele>418.4</ele>
        <time>2021-07-24T10:27:28Z</time>
      </trkpt>
      <trkpt lat="43.3175750" lon="-7.5946420">
        <ele>418.4</ele>
        <time>2021-07-24T10:27:36Z</time>
      </trkpt>
      <trkpt lat="43.3174960" lon="-7.5948150">
        <ele>418.8</ele>
        <time>2021-07-24T10:27:40Z</time>
      </trkpt>
      <trkpt lat="43.3174720" lon="-7.5948550">
        <ele>419.2</ele>
        <time>2021-07-24T10:27:41Z</time>
      </trkpt>
      <trkpt lat="43.3174470" lon="-7.5949000">
        <ele>419.6</ele>
        <time>2021-07-24T10:27:42Z</time>
      </trkpt>
      <trkpt lat="43.3174260" lon="-7.5949470">
        <ele>420.0</ele>
        <time>2021-07-24T10:27:43Z</time>
      </trkpt>
      <trkpt lat="43.3174080" lon="-7.5949910">
        <ele>420.4</ele>
        <time>2021-07-24T10:27:44Z</time>
      </trkpt>
      <trkpt lat="43.3172860" lon="-7.5952490">
        <ele>420.4</ele>
        <time>2021-07-24T10:27:50Z</time>
      </trkpt>
      <trkpt lat="43.3171470" lon="-7.5955220">
        <ele>420.4</ele>
        <time>2021-07-24T10:27:58Z</time>
      </trkpt>
      <trkpt lat="43.3171180" lon="-7.5955880">
        <ele>420.8</ele>
        <time>2021-07-24T10:28:01Z</time>
      </trkpt>
      <trkpt lat="43.3171060" lon="-7.5956130">
        <ele>421.2</ele>
        <time>2021-07-24T10:28:02Z</time>
      </trkpt>
      <trkpt lat="43.3170970" lon="-7.5956350">
        <ele>421.6</ele>
        <time>2021-07-24T10:28:03Z</time>
      </trkpt>
      <trkpt lat="43.3170810" lon="-7.5956620">
        <ele>422.0</ele>
        <time>2021-07-24T10:28:04Z</time>
      </trkpt>
      <trkpt lat="43.3170650" lon="-7.5956870">
        <ele>422.4</ele>
        <time>2021-07-24T10:28:05Z</time>
      </trkpt>
      <trkpt lat="43.3169860" lon="-7.5958510">
        <ele>422.4</ele>
        <time>2021-07-24T10:28:09Z</time>
      </trkpt>
      <trkpt lat="43.3169320" lon="-7.5959580">
        <ele>422.8</ele>
        <time>2021-07-24T10:28:12Z</time>
      </trkpt>
      <trkpt lat="43.3169130" lon="-7.5959960">
        <ele>423.2</ele>
        <time>2021-07-24T10:28:13Z</time>
      </trkpt>
      <trkpt lat="43.3169000" lon="-7.5960220">
        <ele>423.6</ele>
        <time>2021-07-24T10:28:14Z</time>
      </trkpt>
      <trkpt lat="43.3168830" lon="-7.5960580">
        <ele>424.0</ele>
        <time>2021-07-24T10:28:15Z</time>
      </trkpt>
      <trkpt lat="43.3168650" lon="-7.5960910">
        <ele>424.4</ele>
        <time>2021-07-24T10:28:16Z</time>
      </trkpt>
      <trkpt lat="43.3167530" lon="-7.5963930">
        <ele>424.4</ele>
        <time>2021-07-24T10:28:23Z</time>
      </trkpt>
      <trkpt lat="43.3166990" lon="-7.5965470">
        <ele>424.4</ele>
        <time>2021-07-24T10:28:27Z</time>
      </trkpt>
      <trkpt lat="43.3166690" lon="-7.5966460">
        <ele>424.8</ele>
        <time>2021-07-24T10:28:30Z</time>
      </trkpt>
      <trkpt lat="43.3166560" lon="-7.5966750">
        <ele>425.2</ele>
        <time>2021-07-24T10:28:31Z</time>
      </trkpt>
      <trkpt lat="43.3166450" lon="-7.5967050">
        <ele>425.6</ele>
        <time>2021-07-24T10:28:32Z</time>
      </trkpt>
      <trkpt lat="43.3166360" lon="-7.5967340">
        <ele>426.0</ele>
        <time>2021-07-24T10:28:33Z</time>
      </trkpt>
      <trkpt lat="43.3166260" lon="-7.5967690">
        <ele>426.4</ele>
        <time>2021-07-24T10:28:34Z</time>
      </trkpt>
      <trkpt lat="43.3165740" lon="-7.5970250">
        <ele>426.4</ele>
        <time>2021-07-24T10:28:41Z</time>
      </trkpt>
      <trkpt lat="43.3165160" lon="-7.5972910">
        <ele>426.4</ele>
        <time>2021-07-24T10:28:48Z</time>
      </trkpt>
      <trkpt lat="43.3164470" lon="-7.5975800">
        <ele>426.4</ele>
        <time>2021-07-24T10:28:53Z</time>
      </trkpt>
      <trkpt lat="43.3163520" lon="-7.5980280">
        <ele>426.0</ele>
        <time>2021-07-24T10:29:00Z</time>
      </trkpt>
      <trkpt lat="43.3163520" lon="-7.5980710">
        <ele>425.6</ele>
        <time>2021-07-24T10:29:01Z</time>
      </trkpt>
      <trkpt lat="43.3163500" lon="-7.5981140">
        <ele>425.2</ele>
        <time>2021-07-24T10:29:02Z</time>
      </trkpt>
      <trkpt lat="43.3163470" lon="-7.5981540">
        <ele>424.8</ele>
        <time>2021-07-24T10:29:03Z</time>
      </trkpt>
      <trkpt lat="43.3163430" lon="-7.5981940">
        <ele>424.4</ele>
        <time>2021-07-24T10:29:04Z</time>
      </trkpt>
      <trkpt lat="43.3163010" lon="-7.5983680">
        <ele>424.4</ele>
        <time>2021-07-24T10:29:08Z</time>
      </trkpt>
      <trkpt lat="43.3162870" lon="-7.5985350">
        <ele>424.4</ele>
        <time>2021-07-24T10:29:12Z</time>
      </trkpt>
      <trkpt lat="43.3162610" lon="-7.5988250">
        <ele>424.4</ele>
        <time>2021-07-24T10:29:19Z</time>
      </trkpt>
      <trkpt lat="43.3162350" lon="-7.5989940">
        <ele>424.4</ele>
        <time>2021-07-24T10:29:24Z</time>
      </trkpt>
      <trkpt lat="43.3161610" lon="-7.5992630">
        <ele>425.2</ele>
        <time>2021-07-24T10:29:31Z</time>
      </trkpt>
      <trkpt lat="43.3161530" lon="-7.5993030">
        <ele>425.6</ele>
        <time>2021-07-24T10:29:32Z</time>
      </trkpt>
      <trkpt lat="43.3161490" lon="-7.5993390">
        <ele>426.0</ele>
        <time>2021-07-24T10:29:33Z</time>
      </trkpt>
      <trkpt lat="43.3161400" lon="-7.5993710">
        <ele>426.4</ele>
        <time>2021-07-24T10:29:34Z</time>
      </trkpt>
      <trkpt lat="43.3161050" lon="-7.5994830">
        <ele>426.4</ele>
        <time>2021-07-24T10:29:38Z</time>
      </trkpt>
      <trkpt lat="43.3160920" lon="-7.5997130">
        <ele>426.4</ele>
        <time>2021-07-24T10:29:45Z</time>
      </trkpt>
      <trkpt lat="43.3160940" lon="-7.5999020">
        <ele>426.4</ele>
        <time>2021-07-24T10:29:50Z</time>
      </trkpt>
      <trkpt lat="43.3160860" lon="-7.6000330">
        <ele>426.8</ele>
        <time>2021-07-24T10:29:53Z</time>
      </trkpt>
      <trkpt lat="43.3160810" lon="-7.6000740">
        <ele>427.2</ele>
        <time>2021-07-24T10:29:54Z</time>
      </trkpt>
      <trkpt lat="43.3160760" lon="-7.6001170">
        <ele>427.6</ele>
        <time>2021-07-24T10:29:55Z</time>
      </trkpt>
      <trkpt lat="43.3160700" lon="-7.6001590">
        <ele>428.4</ele>
        <time>2021-07-24T10:29:56Z</time>
      </trkpt>
      <trkpt lat="43.3160600" lon="-7.6002460">
        <ele>428.4</ele>
        <time>2021-07-24T10:29:58Z</time>
      </trkpt>
      <trkpt lat="43.3160250" lon="-7.6005060">
        <ele>428.4</ele>
        <time>2021-07-24T10:30:04Z</time>
      </trkpt>
      <trkpt lat="43.3159820" lon="-7.6007860">
        <ele>428.4</ele>
        <time>2021-07-24T10:30:10Z</time>
      </trkpt>
      <trkpt lat="43.3159260" lon="-7.6010380">
        <ele>428.8</ele>
        <time>2021-07-24T10:30:15Z</time>
      </trkpt>
      <trkpt lat="43.3159120" lon="-7.6010860">
        <ele>429.2</ele>
        <time>2021-07-24T10:30:16Z</time>
      </trkpt>
      <trkpt lat="43.3158990" lon="-7.6011340">
        <ele>429.6</ele>
        <time>2021-07-24T10:30:17Z</time>
      </trkpt>
      <trkpt lat="43.3158880" lon="-7.6011800">
        <ele>430.0</ele>
        <time>2021-07-24T10:30:18Z</time>
      </trkpt>
      <trkpt lat="43.3158770" lon="-7.6012280">
        <ele>430.6</ele>
        <time>2021-07-24T10:30:19Z</time>
      </trkpt>
      <trkpt lat="43.3158840" lon="-7.6014620">
        <ele>430.6</ele>
        <time>2021-07-24T10:30:24Z</time>
      </trkpt>
      <trkpt lat="43.3159610" lon="-7.6018140">
        <ele>430.6</ele>
        <time>2021-07-24T10:30:32Z</time>
      </trkpt>
      <trkpt lat="43.3161120" lon="-7.6022130">
        <ele>430.6</ele>
        <time>2021-07-24T10:30:40Z</time>
      </trkpt>
      <trkpt lat="43.3162130" lon="-7.6025430">
        <ele>430.6</ele>
        <time>2021-07-24T10:30:47Z</time>
      </trkpt>
      <trkpt lat="43.3162880" lon="-7.6027720">
        <ele>430.6</ele>
        <time>2021-07-24T10:30:53Z</time>
      </trkpt>
      <trkpt lat="43.3164350" lon="-7.6031150">
        <ele>430.6</ele>
        <time>2021-07-24T10:31:00Z</time>
      </trkpt>
      <trkpt lat="43.3164580" lon="-7.6031760">
        <ele>430.0</ele>
        <time>2021-07-24T10:31:01Z</time>
      </trkpt>
      <trkpt lat="43.3164840" lon="-7.6032410">
        <ele>429.6</ele>
        <time>2021-07-24T10:31:02Z</time>
      </trkpt>
      <trkpt lat="43.3165070" lon="-7.6032980">
        <ele>429.2</ele>
        <time>2021-07-24T10:31:03Z</time>
      </trkpt>
      <trkpt lat="43.3165240" lon="-7.6033500">
        <ele>428.8</ele>
        <time>2021-07-24T10:31:04Z</time>
      </trkpt>
      <trkpt lat="43.3165410" lon="-7.6033960">
        <ele>428.4</ele>
        <time>2021-07-24T10:31:05Z</time>
      </trkpt>
      <trkpt lat="43.3165580" lon="-7.6034380">
        <ele>428.4</ele>
        <time>2021-07-24T10:31:06Z</time>
      </trkpt>
      <trkpt lat="43.3166580" lon="-7.6037250">
        <ele>428.4</ele>
        <time>2021-07-24T10:31:11Z</time>
      </trkpt>
      <trkpt lat="43.3167610" lon="-7.6040290">
        <ele>428.4</ele>
        <time>2021-07-24T10:31:16Z</time>
      </trkpt>
      <trkpt lat="43.3167710" lon="-7.6040810">
        <ele>428.4</ele>
        <time>2021-07-24T10:31:17Z</time>
      </trkpt>
      <trkpt lat="43.3167920" lon="-7.6041820">
        <ele>428.0</ele>
        <time>2021-07-24T10:31:19Z</time>
      </trkpt>
      <trkpt lat="43.3168030" lon="-7.6042350">
        <ele>427.6</ele>
        <time>2021-07-24T10:31:20Z</time>
      </trkpt>
      <trkpt lat="43.3168130" lon="-7.6042890">
        <ele>427.0</ele>
        <time>2021-07-24T10:31:21Z</time>
      </trkpt>
      <trkpt lat="43.3168270" lon="-7.6043370">
        <ele>426.6</ele>
        <time>2021-07-24T10:31:22Z</time>
      </trkpt>
      <trkpt lat="43.3168460" lon="-7.6043900">
        <ele>426.2</ele>
        <time>2021-07-24T10:31:23Z</time>
      </trkpt>
      <trkpt lat="43.3168800" lon="-7.6044940">
        <ele>426.2</ele>
        <time>2021-07-24T10:31:25Z</time>
      </trkpt>
      <trkpt lat="43.3169590" lon="-7.6048600">
        <ele>425.8</ele>
        <time>2021-07-24T10:31:32Z</time>
      </trkpt>
      <trkpt lat="43.3169710" lon="-7.6049190">
        <ele>425.4</ele>
        <time>2021-07-24T10:31:33Z</time>
      </trkpt>
      <trkpt lat="43.3169830" lon="-7.6049690">
        <ele>425.0</ele>
        <time>2021-07-24T10:31:34Z</time>
      </trkpt>
      <trkpt lat="43.3169960" lon="-7.6050170">
        <ele>424.2</ele>
        <time>2021-07-24T10:31:35Z</time>
      </trkpt>
      <trkpt lat="43.3170280" lon="-7.6051430">
        <ele>424.2</ele>
        <time>2021-07-24T10:31:38Z</time>
      </trkpt>
      <trkpt lat="43.3170470" lon="-7.6052120">
        <ele>423.8</ele>
        <time>2021-07-24T10:31:40Z</time>
      </trkpt>
      <trkpt lat="43.3170540" lon="-7.6052430">
        <ele>423.4</ele>
        <time>2021-07-24T10:31:41Z</time>
      </trkpt>
      <trkpt lat="43.3170650" lon="-7.6052800">
        <ele>423.0</ele>
        <time>2021-07-24T10:31:42Z</time>
      </trkpt>
      <trkpt lat="43.3170850" lon="-7.6053140">
        <ele>422.6</ele>
        <time>2021-07-24T10:31:43Z</time>
      </trkpt>
      <trkpt lat="43.3171090" lon="-7.6053430">
        <ele>422.2</ele>
        <time>2021-07-24T10:31:44Z</time>
      </trkpt>
      <trkpt lat="43.3171830" lon="-7.6054570">
        <ele>422.2</ele>
        <time>2021-07-24T10:31:48Z</time>
      </trkpt>
      <trkpt lat="43.3172720" lon="-7.6056400">
        <ele>421.6</ele>
        <time>2021-07-24T10:31:53Z</time>
      </trkpt>
      <trkpt lat="43.3172900" lon="-7.6057050">
        <ele>421.2</ele>
        <time>2021-07-24T10:31:54Z</time>
      </trkpt>
      <trkpt lat="43.3173090" lon="-7.6057680">
        <ele>420.8</ele>
        <time>2021-07-24T10:31:55Z</time>
      </trkpt>
      <trkpt lat="43.3173310" lon="-7.6058270">
        <ele>420.2</ele>
        <time>2021-07-24T10:31:56Z</time>
      </trkpt>
      <trkpt lat="43.3173530" lon="-7.6058870">
        <ele>419.8</ele>
        <time>2021-07-24T10:31:57Z</time>
      </trkpt>
      <trkpt lat="43.3174060" lon="-7.6060680">
        <ele>419.8</ele>
        <time>2021-07-24T10:32:00Z</time>
      </trkpt>
      <trkpt lat="43.3174200" lon="-7.6061320">
        <ele>419.8</ele>
        <time>2021-07-24T10:32:01Z</time>
      </trkpt>
      <trkpt lat="43.3174320" lon="-7.6062040">
        <ele>419.4</ele>
        <time>2021-07-24T10:32:02Z</time>
      </trkpt>
      <trkpt lat="43.3174440" lon="-7.6062720">
        <ele>419.0</ele>
        <time>2021-07-24T10:32:03Z</time>
      </trkpt>
      <trkpt lat="43.3174550" lon="-7.6063460">
        <ele>418.6</ele>
        <time>2021-07-24T10:32:04Z</time>
      </trkpt>
      <trkpt lat="43.3174710" lon="-7.6064200">
        <ele>418.2</ele>
        <time>2021-07-24T10:32:05Z</time>
      </trkpt>
      <trkpt lat="43.3174850" lon="-7.6064890">
        <ele>417.6</ele>
        <time>2021-07-24T10:32:06Z</time>
      </trkpt>
      <trkpt lat="43.3175100" lon="-7.6065610">
        <ele>417.6</ele>
        <time>2021-07-24T10:32:07Z</time>
      </trkpt>
      <trkpt lat="43.3176440" lon="-7.6069830">
        <ele>417.2</ele>
        <time>2021-07-24T10:32:13Z</time>
      </trkpt>
      <trkpt lat="43.3176650" lon="-7.6070540">
        <ele>416.8</ele>
        <time>2021-07-24T10:32:14Z</time>
      </trkpt>
      <trkpt lat="43.3176900" lon="-7.6071230">
        <ele>416.4</ele>
        <time>2021-07-24T10:32:15Z</time>
      </trkpt>
      <trkpt lat="43.3177210" lon="-7.6071930">
        <ele>416.0</ele>
        <time>2021-07-24T10:32:16Z</time>
      </trkpt>
      <trkpt lat="43.3177560" lon="-7.6072620">
        <ele>415.6</ele>
        <time>2021-07-24T10:32:17Z</time>
      </trkpt>
      <trkpt lat="43.3177930" lon="-7.6073200">
        <ele>415.6</ele>
        <time>2021-07-24T10:32:18Z</time>
      </trkpt>
      <trkpt lat="43.3179350" lon="-7.6075700">
        <ele>415.2</ele>
        <time>2021-07-24T10:32:22Z</time>
      </trkpt>
      <trkpt lat="43.3179650" lon="-7.6076430">
        <ele>414.8</ele>
        <time>2021-07-24T10:32:23Z</time>
      </trkpt>
      <trkpt lat="43.3179960" lon="-7.6077230">
        <ele>413.8</ele>
        <time>2021-07-24T10:32:24Z</time>
      </trkpt>
      <trkpt lat="43.3180280" lon="-7.6078070">
        <ele>413.2</ele>
        <time>2021-07-24T10:32:25Z</time>
      </trkpt>
      <trkpt lat="43.3181200" lon="-7.6080410">
        <ele>413.2</ele>
        <time>2021-07-24T10:32:28Z</time>
      </trkpt>
      <trkpt lat="43.3181510" lon="-7.6081140">
        <ele>412.8</ele>
        <time>2021-07-24T10:32:29Z</time>
      </trkpt>
      <trkpt lat="43.3181800" lon="-7.6081830">
        <ele>412.4</ele>
        <time>2021-07-24T10:32:30Z</time>
      </trkpt>
      <trkpt lat="43.3182060" lon="-7.6082500">
        <ele>412.0</ele>
        <time>2021-07-24T10:32:31Z</time>
      </trkpt>
      <trkpt lat="43.3182280" lon="-7.6083160">
        <ele>411.6</ele>
        <time>2021-07-24T10:32:32Z</time>
      </trkpt>
      <trkpt lat="43.3182480" lon="-7.6083690">
        <ele>411.2</ele>
        <time>2021-07-24T10:32:33Z</time>
      </trkpt>
      <trkpt lat="43.3182680" lon="-7.6084130">
        <ele>411.2</ele>
        <time>2021-07-24T10:32:34Z</time>
      </trkpt>
      <trkpt lat="43.3182810" lon="-7.6084530">
        <ele>410.8</ele>
        <time>2021-07-24T10:32:35Z</time>
      </trkpt>
      <trkpt lat="43.3182930" lon="-7.6084910">
        <ele>410.4</ele>
        <time>2021-07-24T10:32:36Z</time>
      </trkpt>
      <trkpt lat="43.3183020" lon="-7.6085160">
        <ele>410.0</ele>
        <time>2021-07-24T10:32:37Z</time>
      </trkpt>
      <trkpt lat="43.3183090" lon="-7.6085470">
        <ele>409.6</ele>
        <time>2021-07-24T10:32:38Z</time>
      </trkpt>
      <trkpt lat="43.3183160" lon="-7.6085620">
        <ele>409.2</ele>
        <time>2021-07-24T10:32:39Z</time>
      </trkpt>
      <trkpt lat="43.3183370" lon="-7.6085990">
        <ele>409.2</ele>
        <time>2021-07-24T10:32:43Z</time>
      </trkpt>
      <trkpt lat="43.3183660" lon="-7.6086350">
        <ele>409.2</ele>
        <time>2021-07-24T10:32:58Z</time>
      </trkpt>
      <trkpt lat="43.3183870" lon="-7.6086710">
        <ele>409.2</ele>
        <time>2021-07-24T10:33:01Z</time>
      </trkpt>
      <trkpt lat="43.3184160" lon="-7.6087440">
        <ele>409.2</ele>
        <time>2021-07-24T10:33:08Z</time>
      </trkpt>
      <trkpt lat="43.3184330" lon="-7.6088140">
        <ele>409.2</ele>
        <time>2021-07-24T10:33:14Z</time>
      </trkpt>
      <trkpt lat="43.3184500" lon="-7.6088880">
        <ele>409.2</ele>
        <time>2021-07-24T10:33:17Z</time>
      </trkpt>
      <trkpt lat="43.3185020" lon="-7.6090170">
        <ele>409.2</ele>
        <time>2021-07-24T10:33:21Z</time>
      </trkpt>
      <trkpt lat="43.3185140" lon="-7.6090520">
        <ele>409.2</ele>
        <time>2021-07-24T10:33:22Z</time>
      </trkpt>
      <trkpt lat="43.3185550" lon="-7.6093050">
        <ele>409.2</ele>
        <time>2021-07-24T10:33:28Z</time>
      </trkpt>
      <trkpt lat="43.3185210" lon="-7.6095190">
        <ele>409.2</ele>
        <time>2021-07-24T10:33:33Z</time>
      </trkpt>
      <trkpt lat="43.3185110" lon="-7.6095650">
        <ele>409.6</ele>
        <time>2021-07-24T10:33:34Z</time>
      </trkpt>
      <trkpt lat="43.3185020" lon="-7.6095960">
        <ele>410.0</ele>
        <time>2021-07-24T10:33:35Z</time>
      </trkpt>
      <trkpt lat="43.3184970" lon="-7.6096340">
        <ele>410.4</ele>
        <time>2021-07-24T10:33:36Z</time>
      </trkpt>
      <trkpt lat="43.3184920" lon="-7.6096680">
        <ele>410.8</ele>
        <time>2021-07-24T10:33:37Z</time>
      </trkpt>
      <trkpt lat="43.3184840" lon="-7.6097020">
        <ele>411.2</ele>
        <time>2021-07-24T10:33:38Z</time>
      </trkpt>
      <trkpt lat="43.3184730" lon="-7.6097400">
        <ele>411.2</ele>
        <time>2021-07-24T10:33:39Z</time>
      </trkpt>
      <trkpt lat="43.3184270" lon="-7.6099810">
        <ele>411.2</ele>
        <time>2021-07-24T10:33:46Z</time>
      </trkpt>
      <trkpt lat="43.3184190" lon="-7.6100130">
        <ele>411.6</ele>
        <time>2021-07-24T10:33:47Z</time>
      </trkpt>
      <trkpt lat="43.3184100" lon="-7.6100390">
        <ele>412.0</ele>
        <time>2021-07-24T10:33:48Z</time>
      </trkpt>
      <trkpt lat="43.3183990" lon="-7.6100770">
        <ele>412.4</ele>
        <time>2021-07-24T10:33:49Z</time>
      </trkpt>
      <trkpt lat="43.3183950" lon="-7.6101260">
        <ele>412.8</ele>
        <time>2021-07-24T10:33:50Z</time>
      </trkpt>
      <trkpt lat="43.3183900" lon="-7.6101750">
        <ele>413.2</ele>
        <time>2021-07-24T10:33:51Z</time>
      </trkpt>
      <trkpt lat="43.3183810" lon="-7.6102280">
        <ele>413.2</ele>
        <time>2021-07-24T10:33:52Z</time>
      </trkpt>
      <trkpt lat="43.3183250" lon="-7.6106750">
        <ele>413.2</ele>
        <time>2021-07-24T10:34:00Z</time>
      </trkpt>
      <trkpt lat="43.3183030" lon="-7.6109230">
        <ele>413.2</ele>
        <time>2021-07-24T10:34:06Z</time>
      </trkpt>
      <trkpt lat="43.3183020" lon="-7.6109550">
        <ele>413.6</ele>
        <time>2021-07-24T10:34:07Z</time>
      </trkpt>
      <trkpt lat="43.3182990" lon="-7.6109910">
        <ele>414.0</ele>
        <time>2021-07-24T10:34:08Z</time>
      </trkpt>
      <trkpt lat="43.3182960" lon="-7.6110300">
        <ele>414.4</ele>
        <time>2021-07-24T10:34:09Z</time>
      </trkpt>
      <trkpt lat="43.3182930" lon="-7.6110760">
        <ele>414.8</ele>
        <time>2021-07-24T10:34:10Z</time>
      </trkpt>
      <trkpt lat="43.3182900" lon="-7.6111260">
        <ele>415.2</ele>
        <time>2021-07-24T10:34:11Z</time>
      </trkpt>
      <trkpt lat="43.3182780" lon="-7.6112260">
        <ele>415.2</ele>
        <time>2021-07-24T10:34:13Z</time>
      </trkpt>
      <trkpt lat="43.3182410" lon="-7.6115660">
        <ele>415.2</ele>
        <time>2021-07-24T10:34:20Z</time>
      </trkpt>
      <trkpt lat="43.3182280" lon="-7.6118440">
        <ele>415.2</ele>
        <time>2021-07-24T10:34:27Z</time>
      </trkpt>
      <trkpt lat="43.3181820" lon="-7.6121080">
        <ele>415.2</ele>
        <time>2021-07-24T10:34:34Z</time>
      </trkpt>
      <trkpt lat="43.3181700" lon="-7.6122150">
        <ele>415.8</ele>
        <time>2021-07-24T10:34:37Z</time>
      </trkpt>
      <trkpt lat="43.3181670" lon="-7.6122540">
        <ele>416.2</ele>
        <time>2021-07-24T10:34:38Z</time>
      </trkpt>
      <trkpt lat="43.3181630" lon="-7.6122920">
        <ele>416.6</ele>
        <time>2021-07-24T10:34:39Z</time>
      </trkpt>
      <trkpt lat="43.3181590" lon="-7.6123380">
        <ele>417.0</ele>
        <time>2021-07-24T10:34:40Z</time>
      </trkpt>
      <trkpt lat="43.3181530" lon="-7.6123800">
        <ele>417.4</ele>
        <time>2021-07-24T10:34:41Z</time>
      </trkpt>
      <trkpt lat="43.3181160" lon="-7.6125300">
        <ele>417.4</ele>
        <time>2021-07-24T10:34:45Z</time>
      </trkpt>
      <trkpt lat="43.3180450" lon="-7.6126500">
        <ele>417.4</ele>
        <time>2021-07-24T10:34:50Z</time>
      </trkpt>
      <trkpt lat="43.3180030" lon="-7.6128570">
        <ele>417.4</ele>
        <time>2021-07-24T10:34:56Z</time>
      </trkpt>
      <trkpt lat="43.3179420" lon="-7.6130950">
        <ele>417.8</ele>
        <time>2021-07-24T10:35:02Z</time>
      </trkpt>
      <trkpt lat="43.3179420" lon="-7.6131400">
        <ele>418.2</ele>
        <time>2021-07-24T10:35:03Z</time>
      </trkpt>
      <trkpt lat="43.3179470" lon="-7.6131830">
        <ele>418.6</ele>
        <time>2021-07-24T10:35:04Z</time>
      </trkpt>
      <trkpt lat="43.3179510" lon="-7.6132230">
        <ele>419.0</ele>
        <time>2021-07-24T10:35:05Z</time>
      </trkpt>
      <trkpt lat="43.3179580" lon="-7.6132650">
        <ele>419.6</ele>
        <time>2021-07-24T10:35:06Z</time>
      </trkpt>
      <trkpt lat="43.3179700" lon="-7.6133490">
        <ele>419.6</ele>
        <time>2021-07-24T10:35:08Z</time>
      </trkpt>
      <trkpt lat="43.3179890" lon="-7.6136020">
        <ele>419.6</ele>
        <time>2021-07-24T10:35:14Z</time>
      </trkpt>
      <trkpt lat="43.3180090" lon="-7.6136950">
        <ele>420.0</ele>
        <time>2021-07-24T10:35:17Z</time>
      </trkpt>
      <trkpt lat="43.3180140" lon="-7.6137290">
        <ele>420.4</ele>
        <time>2021-07-24T10:35:18Z</time>
      </trkpt>
      <trkpt lat="43.3180180" lon="-7.6137550">
        <ele>420.8</ele>
        <time>2021-07-24T10:35:19Z</time>
      </trkpt>
      <trkpt lat="43.3180230" lon="-7.6137880">
        <ele>421.2</ele>
        <time>2021-07-24T10:35:20Z</time>
      </trkpt>
      <trkpt lat="43.3180320" lon="-7.6138290">
        <ele>421.6</ele>
        <time>2021-07-24T10:35:21Z</time>
      </trkpt>
      <trkpt lat="43.3180860" lon="-7.6140400">
        <ele>421.6</ele>
        <time>2021-07-24T10:35:27Z</time>
      </trkpt>
      <trkpt lat="43.3181490" lon="-7.6142680">
        <ele>421.6</ele>
        <time>2021-07-24T10:35:34Z</time>
      </trkpt>
      <trkpt lat="43.3182090" lon="-7.6144880">
        <ele>421.6</ele>
        <time>2021-07-24T10:35:40Z</time>
      </trkpt>
      <trkpt lat="43.3182190" lon="-7.6146860">
        <ele>422.2</ele>
        <time>2021-07-24T10:35:45Z</time>
      </trkpt>
      <trkpt lat="43.3182170" lon="-7.6147290">
        <ele>422.6</ele>
        <time>2021-07-24T10:35:46Z</time>
      </trkpt>
      <trkpt lat="43.3182150" lon="-7.6147790">
        <ele>423.0</ele>
        <time>2021-07-24T10:35:47Z</time>
      </trkpt>
      <trkpt lat="43.3182100" lon="-7.6148310">
        <ele>423.4</ele>
        <time>2021-07-24T10:35:48Z</time>
      </trkpt>
      <trkpt lat="43.3182040" lon="-7.6148880">
        <ele>423.8</ele>
        <time>2021-07-24T10:35:49Z</time>
      </trkpt>
      <trkpt lat="43.3181860" lon="-7.6149900">
        <ele>423.8</ele>
        <time>2021-07-24T10:35:51Z</time>
      </trkpt>
      <trkpt lat="43.3181020" lon="-7.6153050">
        <ele>423.8</ele>
        <time>2021-07-24T10:35:58Z</time>
      </trkpt>
      <trkpt lat="43.3180300" lon="-7.6155180">
        <ele>423.8</ele>
        <time>2021-07-24T10:36:03Z</time>
      </trkpt>
      <trkpt lat="43.3178890" lon="-7.6157560">
        <ele>423.8</ele>
        <time>2021-07-24T10:36:09Z</time>
      </trkpt>
      <trkpt lat="43.3178610" lon="-7.6158280">
        <ele>423.8</ele>
        <time>2021-07-24T10:36:10Z</time>
      </trkpt>
      <trkpt lat="43.3177960" lon="-7.6159290">
        <ele>424.2</ele>
        <time>2021-07-24T10:36:12Z</time>
      </trkpt>
      <trkpt lat="43.3177670" lon="-7.6159730">
        <ele>424.8</ele>
        <time>2021-07-24T10:36:13Z</time>
      </trkpt>
      <trkpt lat="43.3177420" lon="-7.6160140">
        <ele>425.2</ele>
        <time>2021-07-24T10:36:14Z</time>
      </trkpt>
      <trkpt lat="43.3177200" lon="-7.6160480">
        <ele>425.6</ele>
        <time>2021-07-24T10:36:15Z</time>
      </trkpt>
      <trkpt lat="43.3177070" lon="-7.6160840">
        <ele>426.0</ele>
        <time>2021-07-24T10:36:16Z</time>
      </trkpt>
      <trkpt lat="43.3176840" lon="-7.6161240">
        <ele>426.0</ele>
        <time>2021-07-24T10:36:17Z</time>
      </trkpt>
      <trkpt lat="43.3176090" lon="-7.6162640">
        <ele>426.0</ele>
        <time>2021-07-24T10:36:22Z</time>
      </trkpt>
      <trkpt lat="43.3175370" lon="-7.6164350">
        <ele>426.0</ele>
        <time>2021-07-24T10:36:27Z</time>
      </trkpt>
      <trkpt lat="43.3174160" lon="-7.6166970">
        <ele>426.0</ele>
        <time>2021-07-24T10:36:34Z</time>
      </trkpt>
      <trkpt lat="43.3173910" lon="-7.6167780">
        <ele>426.4</ele>
        <time>2021-07-24T10:36:36Z</time>
      </trkpt>
      <trkpt lat="43.3173770" lon="-7.6168160">
        <ele>426.8</ele>
        <time>2021-07-24T10:36:37Z</time>
      </trkpt>
      <trkpt lat="43.3173650" lon="-7.6168540">
        <ele>427.4</ele>
        <time>2021-07-24T10:36:38Z</time>
      </trkpt>
      <trkpt lat="43.3173550" lon="-7.6169030">
        <ele>427.8</ele>
        <time>2021-07-24T10:36:39Z</time>
      </trkpt>
      <trkpt lat="43.3173460" lon="-7.6169350">
        <ele>428.2</ele>
        <time>2021-07-24T10:36:40Z</time>
      </trkpt>
      <trkpt lat="43.3173280" lon="-7.6169550">
        <ele>428.2</ele>
        <time>2021-07-24T10:36:41Z</time>
      </trkpt>
      <trkpt lat="43.3172020" lon="-7.6171630">
        <ele>428.2</ele>
        <time>2021-07-24T10:36:48Z</time>
      </trkpt>
      <trkpt lat="43.3171010" lon="-7.6173930">
        <ele>428.6</ele>
        <time>2021-07-24T10:36:54Z</time>
      </trkpt>
      <trkpt lat="43.3170750" lon="-7.6174300">
        <ele>429.4</ele>
        <time>2021-07-24T10:36:55Z</time>
      </trkpt>
      <trkpt lat="43.3170570" lon="-7.6174700">
        <ele>429.8</ele>
        <time>2021-07-24T10:36:56Z</time>
      </trkpt>
      <trkpt lat="43.3170470" lon="-7.6175150">
        <ele>430.2</ele>
        <time>2021-07-24T10:36:57Z</time>
      </trkpt>
      <trkpt lat="43.3170280" lon="-7.6176240">
        <ele>430.2</ele>
        <time>2021-07-24T10:37:00Z</time>
      </trkpt>
      <trkpt lat="43.3169870" lon="-7.6178430">
        <ele>430.2</ele>
        <time>2021-07-24T10:37:06Z</time>
      </trkpt>
      <trkpt lat="43.3169790" lon="-7.6181090">
        <ele>430.2</ele>
        <time>2021-07-24T10:37:13Z</time>
      </trkpt>
      <trkpt lat="43.3170830" lon="-7.6184030">
        <ele>430.2</ele>
        <time>2021-07-24T10:37:20Z</time>
      </trkpt>
      <trkpt lat="43.3171470" lon="-7.6185330">
        <ele>430.6</ele>
        <time>2021-07-24T10:37:24Z</time>
      </trkpt>
      <trkpt lat="43.3171580" lon="-7.6185710">
        <ele>431.0</ele>
        <time>2021-07-24T10:37:25Z</time>
      </trkpt>
      <trkpt lat="43.3171720" lon="-7.6186020">
        <ele>431.4</ele>
        <time>2021-07-24T10:37:26Z</time>
      </trkpt>
      <trkpt lat="43.3171880" lon="-7.6186350">
        <ele>431.8</ele>
        <time>2021-07-24T10:37:27Z</time>
      </trkpt>
      <trkpt lat="43.3172080" lon="-7.6186650">
        <ele>432.2</ele>
        <time>2021-07-24T10:37:28Z</time>
      </trkpt>
      <trkpt lat="43.3173040" lon="-7.6188230">
        <ele>432.2</ele>
        <time>2021-07-24T10:37:33Z</time>
      </trkpt>
      <trkpt lat="43.3173620" lon="-7.6189380">
        <ele>432.2</ele>
        <time>2021-07-24T10:37:38Z</time>
      </trkpt>
      <trkpt lat="43.3174600" lon="-7.6190520">
        <ele>432.6</ele>
        <time>2021-07-24T10:37:44Z</time>
      </trkpt>
      <trkpt lat="43.3174780" lon="-7.6190730">
        <ele>433.0</ele>
        <time>2021-07-24T10:37:45Z</time>
      </trkpt>
      <trkpt lat="43.3175000" lon="-7.6190950">
        <ele>433.4</ele>
        <time>2021-07-24T10:37:46Z</time>
      </trkpt>
      <trkpt lat="43.3175220" lon="-7.6191160">
        <ele>433.8</ele>
        <time>2021-07-24T10:37:47Z</time>
      </trkpt>
      <trkpt lat="43.3175430" lon="-7.6191430">
        <ele>434.2</ele>
        <time>2021-07-24T10:37:48Z</time>
      </trkpt>
      <trkpt lat="43.3176070" lon="-7.6192210">
        <ele>434.2</ele>
        <time>2021-07-24T10:37:51Z</time>
      </trkpt>
      <trkpt lat="43.3177240" lon="-7.6193620">
        <ele>434.2</ele>
        <time>2021-07-24T10:37:57Z</time>
      </trkpt>
      <trkpt lat="43.3178690" lon="-7.6195080">
        <ele>434.2</ele>
        <time>2021-07-24T10:38:03Z</time>
      </trkpt>
      <trkpt lat="43.3178790" lon="-7.6195560">
        <ele>434.2</ele>
        <time>2021-07-24T10:38:04Z</time>
      </trkpt>
      <trkpt lat="43.3178860" lon="-7.6195940">
        <ele>434.6</ele>
        <time>2021-07-24T10:38:05Z</time>
      </trkpt>
      <trkpt lat="43.3178850" lon="-7.6196320">
        <ele>435.0</ele>
        <time>2021-07-24T10:38:06Z</time>
      </trkpt>
      <trkpt lat="43.3178780" lon="-7.6196760">
        <ele>435.6</ele>
        <time>2021-07-24T10:38:07Z</time>
      </trkpt>
      <trkpt lat="43.3178710" lon="-7.6197110">
        <ele>436.4</ele>
        <time>2021-07-24T10:38:08Z</time>
      </trkpt>
      <trkpt lat="43.3178330" lon="-7.6198630">
        <ele>436.4</ele>
        <time>2021-07-24T10:38:13Z</time>
      </trkpt>
      <trkpt lat="43.3177790" lon="-7.6200260">
        <ele>436.8</ele>
        <time>2021-07-24T10:38:18Z</time>
      </trkpt>
      <trkpt lat="43.3177700" lon="-7.6200590">
        <ele>437.2</ele>
        <time>2021-07-24T10:38:19Z</time>
      </trkpt>
      <trkpt lat="43.3177550" lon="-7.6200880">
        <ele>437.6</ele>
        <time>2021-07-24T10:38:20Z</time>
      </trkpt>
      <trkpt lat="43.3177430" lon="-7.6201220">
        <ele>438.0</ele>
        <time>2021-07-24T10:38:21Z</time>
      </trkpt>
      <trkpt lat="43.3177320" lon="-7.6201590">
        <ele>438.4</ele>
        <time>2021-07-24T10:38:22Z</time>
      </trkpt>
      <trkpt lat="43.3176860" lon="-7.6203380">
        <ele>438.4</ele>
        <time>2021-07-24T10:38:27Z</time>
      </trkpt>
      <trkpt lat="43.3176040" lon="-7.6206040">
        <ele>438.4</ele>
        <time>2021-07-24T10:38:34Z</time>
      </trkpt>
      <trkpt lat="43.3175410" lon="-7.6208690">
        <ele>438.8</ele>
        <time>2021-07-24T10:38:42Z</time>
      </trkpt>
      <trkpt lat="43.3175320" lon="-7.6209030">
        <ele>439.2</ele>
        <time>2021-07-24T10:38:43Z</time>
      </trkpt>
      <trkpt lat="43.3175230" lon="-7.6209370">
        <ele>439.6</ele>
        <time>2021-07-24T10:38:44Z</time>
      </trkpt>
      <trkpt lat="43.3175150" lon="-7.6209670">
        <ele>440.0</ele>
        <time>2021-07-24T10:38:45Z</time>
      </trkpt>
      <trkpt lat="43.3175070" lon="-7.6210040">
        <ele>440.4</ele>
        <time>2021-07-24T10:38:46Z</time>
      </trkpt>
      <trkpt lat="43.3174550" lon="-7.6210960">
        <ele>440.4</ele>
        <time>2021-07-24T10:38:49Z</time>
      </trkpt>
      <trkpt lat="43.3173380" lon="-7.6213770">
        <ele>440.4</ele>
        <time>2021-07-24T10:38:56Z</time>
      </trkpt>
      <trkpt lat="43.3173230" lon="-7.6214280">
        <ele>440.8</ele>
        <time>2021-07-24T10:38:57Z</time>
      </trkpt>
      <trkpt lat="43.3173080" lon="-7.6214850">
        <ele>441.2</ele>
        <time>2021-07-24T10:38:58Z</time>
      </trkpt>
      <trkpt lat="43.3172960" lon="-7.6215230">
        <ele>441.8</ele>
        <time>2021-07-24T10:38:59Z</time>
      </trkpt>
      <trkpt lat="43.3172850" lon="-7.6215620">
        <ele>442.2</ele>
        <time>2021-07-24T10:39:00Z</time>
      </trkpt>
      <trkpt lat="43.3172770" lon="-7.6215970">
        <ele>442.6</ele>
        <time>2021-07-24T10:39:01Z</time>
      </trkpt>
      <trkpt lat="43.3172580" lon="-7.6216580">
        <ele>442.6</ele>
        <time>2021-07-24T10:39:03Z</time>
      </trkpt>
      <trkpt lat="43.3172200" lon="-7.6218890">
        <ele>442.6</ele>
        <time>2021-07-24T10:39:09Z</time>
      </trkpt>
      <trkpt lat="43.3171570" lon="-7.6222390">
        <ele>442.6</ele>
        <time>2021-07-24T10:39:18Z</time>
      </trkpt>
      <trkpt lat="43.3171130" lon="-7.6225080">
        <ele>443.0</ele>
        <time>2021-07-24T10:39:24Z</time>
      </trkpt>
      <trkpt lat="43.3171070" lon="-7.6225530">
        <ele>443.4</ele>
        <time>2021-07-24T10:39:25Z</time>
      </trkpt>
      <trkpt lat="43.3170990" lon="-7.6225970">
        <ele>443.8</ele>
        <time>2021-07-24T10:39:26Z</time>
      </trkpt>
      <trkpt lat="43.3170900" lon="-7.6226420">
        <ele>444.2</ele>
        <time>2021-07-24T10:39:27Z</time>
      </trkpt>
      <trkpt lat="43.3170820" lon="-7.6226910">
        <ele>444.6</ele>
        <time>2021-07-24T10:39:28Z</time>
      </trkpt>
      <trkpt lat="43.3170400" lon="-7.6229580">
        <ele>444.6</ele>
        <time>2021-07-24T10:39:34Z</time>
      </trkpt>
      <trkpt lat="43.3169840" lon="-7.6232380">
        <ele>444.6</ele>
        <time>2021-07-24T10:39:41Z</time>
      </trkpt>
      <trkpt lat="43.3169340" lon="-7.6234160">
        <ele>444.6</ele>
        <time>2021-07-24T10:39:48Z</time>
      </trkpt>
      <trkpt lat="43.3168570" lon="-7.6235950">
        <ele>444.6</ele>
        <time>2021-07-24T10:39:54Z</time>
      </trkpt>
      <trkpt lat="43.3167310" lon="-7.6239100">
        <ele>444.6</ele>
        <time>2021-07-24T10:40:01Z</time>
      </trkpt>
      <trkpt lat="43.3165950" lon="-7.6242260">
        <ele>444.6</ele>
        <time>2021-07-24T10:40:07Z</time>
      </trkpt>
      <trkpt lat="43.3164640" lon="-7.6245590">
        <ele>444.6</ele>
        <time>2021-07-24T10:40:14Z</time>
      </trkpt>
      <trkpt lat="43.3163960" lon="-7.6248780">
        <ele>444.6</ele>
        <time>2021-07-24T10:40:21Z</time>
      </trkpt>
      <trkpt lat="43.3163200" lon="-7.6249890">
        <ele>444.6</ele>
        <time>2021-07-24T10:40:24Z</time>
      </trkpt>
      <trkpt lat="43.3162860" lon="-7.6250210">
        <ele>444.6</ele>
        <time>2021-07-24T10:40:25Z</time>
      </trkpt>
      <trkpt lat="43.3161410" lon="-7.6252640">
        <ele>444.6</ele>
        <time>2021-07-24T10:40:31Z</time>
      </trkpt>
      <trkpt lat="43.3160580" lon="-7.6255820">
        <ele>444.6</ele>
        <time>2021-07-24T10:40:38Z</time>
      </trkpt>
      <trkpt lat="43.3160720" lon="-7.6258730">
        <ele>444.6</ele>
        <time>2021-07-24T10:40:44Z</time>
      </trkpt>
      <trkpt lat="43.3161640" lon="-7.6262750">
        <ele>444.6</ele>
        <time>2021-07-24T10:40:51Z</time>
      </trkpt>
      <trkpt lat="43.3161850" lon="-7.6264000">
        <ele>444.6</ele>
        <time>2021-07-24T10:40:53Z</time>
      </trkpt>
      <trkpt lat="43.3162000" lon="-7.6265250">
        <ele>444.6</ele>
        <time>2021-07-24T10:40:55Z</time>
      </trkpt>
      <trkpt lat="43.3162120" lon="-7.6265810">
        <ele>444.2</ele>
        <time>2021-07-24T10:40:56Z</time>
      </trkpt>
      <trkpt lat="43.3162320" lon="-7.6266360">
        <ele>443.8</ele>
        <time>2021-07-24T10:40:57Z</time>
      </trkpt>
      <trkpt lat="43.3162560" lon="-7.6266870">
        <ele>443.4</ele>
        <time>2021-07-24T10:40:58Z</time>
      </trkpt>
      <trkpt lat="43.3162850" lon="-7.6267340">
        <ele>443.0</ele>
        <time>2021-07-24T10:40:59Z</time>
      </trkpt>
      <trkpt lat="43.3163180" lon="-7.6267800">
        <ele>442.6</ele>
        <time>2021-07-24T10:41:00Z</time>
      </trkpt>
      <trkpt lat="43.3163880" lon="-7.6268560">
        <ele>442.6</ele>
        <time>2021-07-24T10:41:02Z</time>
      </trkpt>
      <trkpt lat="43.3164880" lon="-7.6269760">
        <ele>442.6</ele>
        <time>2021-07-24T10:41:05Z</time>
      </trkpt>
      <trkpt lat="43.3165260" lon="-7.6270070">
        <ele>442.2</ele>
        <time>2021-07-24T10:41:06Z</time>
      </trkpt>
      <trkpt lat="43.3165700" lon="-7.6270200">
        <ele>441.8</ele>
        <time>2021-07-24T10:41:07Z</time>
      </trkpt>
      <trkpt lat="43.3166170" lon="-7.6270200">
        <ele>441.4</ele>
        <time>2021-07-24T10:41:08Z</time>
      </trkpt>
      <trkpt lat="43.3166610" lon="-7.6270110">
        <ele>441.0</ele>
        <time>2021-07-24T10:41:09Z</time>
      </trkpt>
      <trkpt lat="43.3167020" lon="-7.6269970">
        <ele>440.4</ele>
        <time>2021-07-24T10:41:10Z</time>
      </trkpt>
      <trkpt lat="43.3167400" lon="-7.6269840">
        <ele>440.4</ele>
        <time>2021-07-24T10:41:11Z</time>
      </trkpt>
      <trkpt lat="43.3168380" lon="-7.6269740">
        <ele>440.4</ele>
        <time>2021-07-24T10:41:15Z</time>
      </trkpt>
      <trkpt lat="43.3168630" lon="-7.6270110">
        <ele>440.4</ele>
        <time>2021-07-24T10:41:17Z</time>
      </trkpt>
      <trkpt lat="43.3168890" lon="-7.6270990">
        <ele>440.4</ele>
        <time>2021-07-24T10:41:20Z</time>
      </trkpt>
      <trkpt lat="43.3168860" lon="-7.6272880">
        <ele>440.4</ele>
        <time>2021-07-24T10:41:24Z</time>
      </trkpt>
      <trkpt lat="43.3167940" lon="-7.6276440">
        <ele>440.4</ele>
        <time>2021-07-24T10:41:31Z</time>
      </trkpt>
      <trkpt lat="43.3167260" lon="-7.6279120">
        <ele>440.0</ele>
        <time>2021-07-24T10:41:36Z</time>
      </trkpt>
      <trkpt lat="43.3167100" lon="-7.6279670">
        <ele>439.6</ele>
        <time>2021-07-24T10:41:37Z</time>
      </trkpt>
      <trkpt lat="43.3166930" lon="-7.6280210">
        <ele>439.2</ele>
        <time>2021-07-24T10:41:38Z</time>
      </trkpt>
      <trkpt lat="43.3166790" lon="-7.6280780">
        <ele>438.8</ele>
        <time>2021-07-24T10:41:39Z</time>
      </trkpt>
      <trkpt lat="43.3166650" lon="-7.6281360">
        <ele>438.4</ele>
        <time>2021-07-24T10:41:40Z</time>
      </trkpt>
      <trkpt lat="43.3166360" lon="-7.6282540">
        <ele>438.4</ele>
        <time>2021-07-24T10:41:42Z</time>
      </trkpt>
      <trkpt lat="43.3164990" lon="-7.6288010">
        <ele>438.4</ele>
        <time>2021-07-24T10:41:51Z</time>
      </trkpt>
      <trkpt lat="43.3164700" lon="-7.6290090">
        <ele>438.4</ele>
        <time>2021-07-24T10:41:55Z</time>
      </trkpt>
      <trkpt lat="43.3164850" lon="-7.6290540">
        <ele>438.0</ele>
        <time>2021-07-24T10:41:56Z</time>
      </trkpt>
      <trkpt lat="43.3165000" lon="-7.6291020">
        <ele>437.4</ele>
        <time>2021-07-24T10:41:57Z</time>
      </trkpt>
      <trkpt lat="43.3165110" lon="-7.6291550">
        <ele>437.0</ele>
        <time>2021-07-24T10:41:58Z</time>
      </trkpt>
      <trkpt lat="43.3165170" lon="-7.6292200">
        <ele>436.6</ele>
        <time>2021-07-24T10:41:59Z</time>
      </trkpt>
      <trkpt lat="43.3165180" lon="-7.6292870">
        <ele>436.2</ele>
        <time>2021-07-24T10:42:00Z</time>
      </trkpt>
      <trkpt lat="43.3165160" lon="-7.6293550">
        <ele>436.2</ele>
        <time>2021-07-24T10:42:01Z</time>
      </trkpt>
      <trkpt lat="43.3165080" lon="-7.6295550">
        <ele>435.8</ele>
        <time>2021-07-24T10:42:04Z</time>
      </trkpt>
      <trkpt lat="43.3165070" lon="-7.6296210">
        <ele>435.4</ele>
        <time>2021-07-24T10:42:05Z</time>
      </trkpt>
      <trkpt lat="43.3165040" lon="-7.6296860">
        <ele>435.0</ele>
        <time>2021-07-24T10:42:06Z</time>
      </trkpt>
      <trkpt lat="43.3165020" lon="-7.6297500">
        <ele>434.6</ele>
        <time>2021-07-24T10:42:07Z</time>
      </trkpt>
      <trkpt lat="43.3165020" lon="-7.6298120">
        <ele>434.2</ele>
        <time>2021-07-24T10:42:08Z</time>
      </trkpt>
      <trkpt lat="43.3164890" lon="-7.6300470">
        <ele>434.2</ele>
        <time>2021-07-24T10:42:12Z</time>
      </trkpt>
      <trkpt lat="43.3164730" lon="-7.6301540">
        <ele>434.2</ele>
        <time>2021-07-24T10:42:14Z</time>
      </trkpt>
      <trkpt lat="43.3164690" lon="-7.6303840">
        <ele>433.6</ele>
        <time>2021-07-24T10:42:18Z</time>
      </trkpt>
      <trkpt lat="43.3164690" lon="-7.6304350">
        <ele>433.2</ele>
        <time>2021-07-24T10:42:19Z</time>
      </trkpt>
      <trkpt lat="43.3164700" lon="-7.6304860">
        <ele>432.8</ele>
        <time>2021-07-24T10:42:20Z</time>
      </trkpt>
      <trkpt lat="43.3164700" lon="-7.6305340">
        <ele>432.4</ele>
        <time>2021-07-24T10:42:21Z</time>
      </trkpt>
      <trkpt lat="43.3164700" lon="-7.6305860">
        <ele>432.0</ele>
        <time>2021-07-24T10:42:22Z</time>
      </trkpt>
      <trkpt lat="43.3164610" lon="-7.6307870">
        <ele>432.0</ele>
        <time>2021-07-24T10:42:26Z</time>
      </trkpt>
      <trkpt lat="43.3164040" lon="-7.6311510">
        <ele>432.0</ele>
        <time>2021-07-24T10:42:34Z</time>
      </trkpt>
      <trkpt lat="43.3163140" lon="-7.6314970">
        <ele>432.0</ele>
        <time>2021-07-24T10:42:40Z</time>
      </trkpt>
      <trkpt lat="43.3163020" lon="-7.6315670">
        <ele>431.4</ele>
        <time>2021-07-24T10:42:41Z</time>
      </trkpt>
      <trkpt lat="43.3162940" lon="-7.6316400">
        <ele>430.8</ele>
        <time>2021-07-24T10:42:42Z</time>
      </trkpt>
      <trkpt lat="43.3162930" lon="-7.6317160">
        <ele>430.4</ele>
        <time>2021-07-24T10:42:43Z</time>
      </trkpt>
      <trkpt lat="43.3162980" lon="-7.6317930">
        <ele>429.8</ele>
        <time>2021-07-24T10:42:44Z</time>
      </trkpt>
      <trkpt lat="43.3163070" lon="-7.6318720">
        <ele>429.4</ele>
        <time>2021-07-24T10:42:45Z</time>
      </trkpt>
      <trkpt lat="43.3163180" lon="-7.6319430">
        <ele>428.8</ele>
        <time>2021-07-24T10:42:46Z</time>
      </trkpt>
      <trkpt lat="43.3163360" lon="-7.6320150">
        <ele>428.2</ele>
        <time>2021-07-24T10:42:47Z</time>
      </trkpt>
      <trkpt lat="43.3163520" lon="-7.6320790">
        <ele>427.8</ele>
        <time>2021-07-24T10:42:48Z</time>
      </trkpt>
      <trkpt lat="43.3163660" lon="-7.6321350">
        <ele>427.2</ele>
        <time>2021-07-24T10:42:49Z</time>
      </trkpt>
      <trkpt lat="43.3163750" lon="-7.6321880">
        <ele>427.2</ele>
        <time>2021-07-24T10:42:50Z</time>
      </trkpt>
      <trkpt lat="43.3163620" lon="-7.6324200">
        <ele>427.2</ele>
        <time>2021-07-24T10:42:55Z</time>
      </trkpt>
      <trkpt lat="43.3163800" lon="-7.6325890">
        <ele>427.2</ele>
        <time>2021-07-24T10:43:00Z</time>
      </trkpt>
      <trkpt lat="43.3164240" lon="-7.6328530">
        <ele>427.2</ele>
        <time>2021-07-24T10:43:08Z</time>
      </trkpt>
      <trkpt lat="43.3164510" lon="-7.6330340">
        <ele>427.2</ele>
        <time>2021-07-24T10:43:14Z</time>
      </trkpt>
      <trkpt lat="43.3164940" lon="-7.6332200">
        <ele>427.2</ele>
        <time>2021-07-24T10:43:19Z</time>
      </trkpt>
      <trkpt lat="43.3165420" lon="-7.6334920">
        <ele>427.2</ele>
        <time>2021-07-24T10:43:26Z</time>
      </trkpt>
      <trkpt lat="43.3165950" lon="-7.6337290">
        <ele>427.6</ele>
        <time>2021-07-24T10:43:32Z</time>
      </trkpt>
      <trkpt lat="43.3166060" lon="-7.6337710">
        <ele>428.0</ele>
        <time>2021-07-24T10:43:33Z</time>
      </trkpt>
      <trkpt lat="43.3166190" lon="-7.6338150">
        <ele>428.4</ele>
        <time>2021-07-24T10:43:34Z</time>
      </trkpt>
      <trkpt lat="43.3166310" lon="-7.6338560">
        <ele>428.8</ele>
        <time>2021-07-24T10:43:35Z</time>
      </trkpt>
      <trkpt lat="43.3166430" lon="-7.6338960">
        <ele>429.2</ele>
        <time>2021-07-24T10:43:36Z</time>
      </trkpt>
      <trkpt lat="43.3166810" lon="-7.6340330">
        <ele>429.2</ele>
        <time>2021-07-24T10:43:40Z</time>
      </trkpt>
      <trkpt lat="43.3167730" lon="-7.6343580">
        <ele>429.2</ele>
        <time>2021-07-24T10:43:50Z</time>
      </trkpt>
      <trkpt lat="43.3168440" lon="-7.6346300">
        <ele>429.2</ele>
        <time>2021-07-24T10:43:57Z</time>
      </trkpt>
      <trkpt lat="43.3169030" lon="-7.6348860">
        <ele>429.2</ele>
        <time>2021-07-24T10:44:04Z</time>
      </trkpt>
      <trkpt lat="43.3169760" lon="-7.6351250">
        <ele>429.2</ele>
        <time>2021-07-24T10:44:10Z</time>
      </trkpt>
      <trkpt lat="43.3170470" lon="-7.6354020">
        <ele>429.2</ele>
        <time>2021-07-24T10:44:17Z</time>
      </trkpt>
      <trkpt lat="43.3171440" lon="-7.6357940">
        <ele>429.2</ele>
        <time>2021-07-24T10:44:25Z</time>
      </trkpt>
      <trkpt lat="43.3172480" lon="-7.6361730">
        <ele>429.2</ele>
        <time>2021-07-24T10:44:33Z</time>
      </trkpt>
      <trkpt lat="43.3173810" lon="-7.6365630">
        <ele>429.2</ele>
        <time>2021-07-24T10:44:42Z</time>
      </trkpt>
      <trkpt lat="43.3174780" lon="-7.6369060">
        <ele>429.2</ele>
        <time>2021-07-24T10:44:50Z</time>
      </trkpt>
      <trkpt lat="43.3174960" lon="-7.6369950">
        <ele>429.2</ele>
        <time>2021-07-24T10:44:52Z</time>
      </trkpt>
      <trkpt lat="43.3175700" lon="-7.6373090">
        <ele>429.2</ele>
        <time>2021-07-24T10:45:00Z</time>
      </trkpt>
      <trkpt lat="43.3175890" lon="-7.6375220">
        <ele>429.2</ele>
        <time>2021-07-24T10:45:06Z</time>
      </trkpt>
      <trkpt lat="43.3175780" lon="-7.6375740">
        <ele>428.8</ele>
        <time>2021-07-24T10:45:08Z</time>
      </trkpt>
      <trkpt lat="43.3175680" lon="-7.6375940">
        <ele>428.4</ele>
        <time>2021-07-24T10:45:09Z</time>
      </trkpt>
      <trkpt lat="43.3175580" lon="-7.6376130">
        <ele>428.0</ele>
        <time>2021-07-24T10:45:10Z</time>
      </trkpt>
      <trkpt lat="43.3175480" lon="-7.6376310">
        <ele>427.4</ele>
        <time>2021-07-24T10:45:11Z</time>
      </trkpt>
      <trkpt lat="43.3175400" lon="-7.6376520">
        <ele>427.0</ele>
        <time>2021-07-24T10:45:12Z</time>
      </trkpt>
      <trkpt lat="43.3175550" lon="-7.6377530">
        <ele>427.0</ele>
        <time>2021-07-24T10:45:16Z</time>
      </trkpt>
      <trkpt lat="43.3176140" lon="-7.6379820">
        <ele>427.0</ele>
        <time>2021-07-24T10:45:22Z</time>
      </trkpt>
      <trkpt lat="43.3176150" lon="-7.6382360">
        <ele>427.0</ele>
        <time>2021-07-24T10:45:28Z</time>
      </trkpt>
      <trkpt lat="43.3176010" lon="-7.6386180">
        <ele>427.0</ele>
        <time>2021-07-24T10:45:34Z</time>
      </trkpt>
      <trkpt lat="43.3175700" lon="-7.6389540">
        <ele>426.6</ele>
        <time>2021-07-24T10:45:39Z</time>
      </trkpt>
      <trkpt lat="43.3175660" lon="-7.6390140">
        <ele>426.2</ele>
        <time>2021-07-24T10:45:40Z</time>
      </trkpt>
      <trkpt lat="43.3175610" lon="-7.6390690">
        <ele>425.6</ele>
        <time>2021-07-24T10:45:41Z</time>
      </trkpt>
      <trkpt lat="43.3175540" lon="-7.6391220">
        <ele>425.2</ele>
        <time>2021-07-24T10:45:42Z</time>
      </trkpt>
      <trkpt lat="43.3175420" lon="-7.6391740">
        <ele>424.8</ele>
        <time>2021-07-24T10:45:43Z</time>
      </trkpt>
      <trkpt lat="43.3175050" lon="-7.6393170">
        <ele>424.8</ele>
        <time>2021-07-24T10:45:47Z</time>
      </trkpt>
      <trkpt lat="43.3174510" lon="-7.6394770">
        <ele>424.8</ele>
        <time>2021-07-24T10:45:53Z</time>
      </trkpt>
      <trkpt lat="43.3173790" lon="-7.6397240">
        <ele>424.8</ele>
        <time>2021-07-24T10:46:00Z</time>
      </trkpt>
      <trkpt lat="43.3173070" lon="-7.6400120">
        <ele>424.8</ele>
        <time>2021-07-24T10:46:08Z</time>
      </trkpt>
      <trkpt lat="43.3172640" lon="-7.6402150">
        <ele>424.8</ele>
        <time>2021-07-24T10:46:14Z</time>
      </trkpt>
      <trkpt lat="43.3172400" lon="-7.6403580">
        <ele>425.2</ele>
        <time>2021-07-24T10:46:18Z</time>
      </trkpt>
      <trkpt lat="43.3172330" lon="-7.6403910">
        <ele>425.6</ele>
        <time>2021-07-24T10:46:19Z</time>
      </trkpt>
      <trkpt lat="43.3172280" lon="-7.6404230">
        <ele>426.0</ele>
        <time>2021-07-24T10:46:20Z</time>
      </trkpt>
      <trkpt lat="43.3172240" lon="-7.6404550">
        <ele>426.8</ele>
        <time>2021-07-24T10:46:21Z</time>
      </trkpt>
      <trkpt lat="43.3171780" lon="-7.6407310">
        <ele>426.8</ele>
        <time>2021-07-24T10:46:30Z</time>
      </trkpt>
      <trkpt lat="43.3171580" lon="-7.6409260">
        <ele>427.2</ele>
        <time>2021-07-24T10:46:36Z</time>
      </trkpt>
      <trkpt lat="43.3171560" lon="-7.6409550">
        <ele>427.8</ele>
        <time>2021-07-24T10:46:37Z</time>
      </trkpt>
      <trkpt lat="43.3171530" lon="-7.6409880">
        <ele>428.2</ele>
        <time>2021-07-24T10:46:38Z</time>
      </trkpt>
      <trkpt lat="43.3171490" lon="-7.6410190">
        <ele>428.6</ele>
        <time>2021-07-24T10:46:39Z</time>
      </trkpt>
      <trkpt lat="43.3171430" lon="-7.6410510">
        <ele>429.2</ele>
        <time>2021-07-24T10:46:40Z</time>
      </trkpt>
      <trkpt lat="43.3171170" lon="-7.6413360">
        <ele>429.2</ele>
        <time>2021-07-24T10:46:48Z</time>
      </trkpt>
      <trkpt lat="43.3170760" lon="-7.6416420">
        <ele>429.2</ele>
        <time>2021-07-24T10:46:56Z</time>
      </trkpt>
      <trkpt lat="43.3169900" lon="-7.6418720">
        <ele>429.2</ele>
        <time>2021-07-24T10:47:03Z</time>
      </trkpt>
      <trkpt lat="43.3169190" lon="-7.6421330">
        <ele>429.2</ele>
        <time>2021-07-24T10:47:11Z</time>
      </trkpt>
      <trkpt lat="43.3169020" lon="-7.6422360">
        <ele>429.6</ele>
        <time>2021-07-24T10:47:14Z</time>
      </trkpt>
      <trkpt lat="43.3168940" lon="-7.6422680">
        <ele>430.0</ele>
        <time>2021-07-24T10:47:15Z</time>
      </trkpt>
      <trkpt lat="43.3168890" lon="-7.6423030">
        <ele>430.6</ele>
        <time>2021-07-24T10:47:16Z</time>
      </trkpt>
      <trkpt lat="43.3168850" lon="-7.6423330">
        <ele>431.0</ele>
        <time>2021-07-24T10:47:17Z</time>
      </trkpt>
      <trkpt lat="43.3168810" lon="-7.6423660">
        <ele>431.4</ele>
        <time>2021-07-24T10:47:18Z</time>
      </trkpt>
      <trkpt lat="43.3168550" lon="-7.6426110">
        <ele>431.4</ele>
        <time>2021-07-24T10:47:25Z</time>
      </trkpt>
      <trkpt lat="43.3168350" lon="-7.6430260">
        <ele>431.4</ele>
        <time>2021-07-24T10:47:36Z</time>
      </trkpt>
      <trkpt lat="43.3168180" lon="-7.6433390">
        <ele>431.4</ele>
        <time>2021-07-24T10:47:45Z</time>
      </trkpt>
      <trkpt lat="43.3168240" lon="-7.6436290">
        <ele>431.4</ele>
        <time>2021-07-24T10:47:53Z</time>
      </trkpt>
      <trkpt lat="43.3168180" lon="-7.6439860">
        <ele>431.4</ele>
        <time>2021-07-24T10:48:02Z</time>
      </trkpt>
      <trkpt lat="43.3168290" lon="-7.6443840">
        <ele>432.0</ele>
        <time>2021-07-24T10:48:11Z</time>
      </trkpt>
      <trkpt lat="43.3168300" lon="-7.6444280">
        <ele>432.4</ele>
        <time>2021-07-24T10:48:12Z</time>
      </trkpt>
      <trkpt lat="43.3168300" lon="-7.6444710">
        <ele>432.8</ele>
        <time>2021-07-24T10:48:13Z</time>
      </trkpt>
      <trkpt lat="43.3168290" lon="-7.6445130">
        <ele>433.2</ele>
        <time>2021-07-24T10:48:14Z</time>
      </trkpt>
      <trkpt lat="43.3168290" lon="-7.6445520">
        <ele>433.6</ele>
        <time>2021-07-24T10:48:15Z</time>
      </trkpt>
      <trkpt lat="43.3168360" lon="-7.6447040">
        <ele>433.6</ele>
        <time>2021-07-24T10:48:19Z</time>
      </trkpt>
      <trkpt lat="43.3168650" lon="-7.6449490">
        <ele>433.6</ele>
        <time>2021-07-24T10:48:26Z</time>
      </trkpt>
      <trkpt lat="43.3169020" lon="-7.6452560">
        <ele>433.6</ele>
        <time>2021-07-24T10:48:34Z</time>
      </trkpt>
      <trkpt lat="43.3169240" lon="-7.6455050">
        <ele>433.6</ele>
        <time>2021-07-24T10:48:41Z</time>
      </trkpt>
      <trkpt lat="43.3169440" lon="-7.6457940">
        <ele>433.6</ele>
        <time>2021-07-24T10:48:49Z</time>
      </trkpt>
      <trkpt lat="43.3169430" lon="-7.6458320">
        <ele>434.0</ele>
        <time>2021-07-24T10:48:50Z</time>
      </trkpt>
      <trkpt lat="43.3169440" lon="-7.6458650">
        <ele>434.4</ele>
        <time>2021-07-24T10:48:51Z</time>
      </trkpt>
      <trkpt lat="43.3169470" lon="-7.6458980">
        <ele>434.8</ele>
        <time>2021-07-24T10:48:52Z</time>
      </trkpt>
      <trkpt lat="43.3169500" lon="-7.6459260">
        <ele>435.2</ele>
        <time>2021-07-24T10:48:53Z</time>
      </trkpt>
      <trkpt lat="43.3169560" lon="-7.6459500">
        <ele>435.6</ele>
        <time>2021-07-24T10:48:54Z</time>
      </trkpt>
      <trkpt lat="43.3169690" lon="-7.6460000">
        <ele>435.6</ele>
        <time>2021-07-24T10:48:56Z</time>
      </trkpt>
      <trkpt lat="43.3170050" lon="-7.6462030">
        <ele>436.0</ele>
        <time>2021-07-24T10:49:03Z</time>
      </trkpt>
      <trkpt lat="43.3170050" lon="-7.6462450">
        <ele>436.4</ele>
        <time>2021-07-24T10:49:04Z</time>
      </trkpt>
      <trkpt lat="43.3170100" lon="-7.6462840">
        <ele>436.8</ele>
        <time>2021-07-24T10:49:05Z</time>
      </trkpt>
      <trkpt lat="43.3170200" lon="-7.6463200">
        <ele>437.4</ele>
        <time>2021-07-24T10:49:06Z</time>
      </trkpt>
      <trkpt lat="43.3170290" lon="-7.6463550">
        <ele>437.8</ele>
        <time>2021-07-24T10:49:07Z</time>
      </trkpt>
      <trkpt lat="43.3170420" lon="-7.6464280">
        <ele>437.8</ele>
        <time>2021-07-24T10:49:09Z</time>
      </trkpt>
      <trkpt lat="43.3170570" lon="-7.6466600">
        <ele>437.8</ele>
        <time>2021-07-24T10:49:16Z</time>
      </trkpt>
      <trkpt lat="43.3170840" lon="-7.6469270">
        <ele>437.8</ele>
        <time>2021-07-24T10:49:23Z</time>
      </trkpt>
      <trkpt lat="43.3170790" lon="-7.6470210">
        <ele>438.2</ele>
        <time>2021-07-24T10:49:26Z</time>
      </trkpt>
      <trkpt lat="43.3170710" lon="-7.6470510">
        <ele>438.6</ele>
        <time>2021-07-24T10:49:27Z</time>
      </trkpt>
      <trkpt lat="43.3170600" lon="-7.6470820">
        <ele>439.0</ele>
        <time>2021-07-24T10:49:28Z</time>
      </trkpt>
      <trkpt lat="43.3170450" lon="-7.6471130">
        <ele>439.4</ele>
        <time>2021-07-24T10:49:29Z</time>
      </trkpt>
      <trkpt lat="43.3170250" lon="-7.6471430">
        <ele>439.8</ele>
        <time>2021-07-24T10:49:30Z</time>
      </trkpt>
      <trkpt lat="43.3169200" lon="-7.6472750">
        <ele>439.8</ele>
        <time>2021-07-24T10:49:35Z</time>
      </trkpt>
      <trkpt lat="43.3167790" lon="-7.6474580">
        <ele>439.8</ele>
        <time>2021-07-24T10:49:42Z</time>
      </trkpt>
      <trkpt lat="43.3166010" lon="-7.6476420">
        <ele>439.8</ele>
        <time>2021-07-24T10:49:49Z</time>
      </trkpt>
      <trkpt lat="43.3163770" lon="-7.6478480">
        <ele>439.8</ele>
        <time>2021-07-24T10:49:57Z</time>
      </trkpt>
      <trkpt lat="43.3160950" lon="-7.6480060">
        <ele>439.8</ele>
        <time>2021-07-24T10:50:06Z</time>
      </trkpt>
      <trkpt lat="43.3158870" lon="-7.6480660">
        <ele>439.8</ele>
        <time>2021-07-24T10:50:13Z</time>
      </trkpt>
      <trkpt lat="43.3157540" lon="-7.6481040">
        <ele>439.4</ele>
        <time>2021-07-24T10:50:17Z</time>
      </trkpt>
      <trkpt lat="43.3157170" lon="-7.6481210">
        <ele>439.0</ele>
        <time>2021-07-24T10:50:18Z</time>
      </trkpt>
      <trkpt lat="43.3156810" lon="-7.6481370">
        <ele>438.4</ele>
        <time>2021-07-24T10:50:19Z</time>
      </trkpt>
      <trkpt lat="43.3156480" lon="-7.6481560">
        <ele>438.0</ele>
        <time>2021-07-24T10:50:20Z</time>
      </trkpt>
      <trkpt lat="43.3156160" lon="-7.6481740">
        <ele>437.6</ele>
        <time>2021-07-24T10:50:21Z</time>
      </trkpt>
      <trkpt lat="43.3154920" lon="-7.6482940">
        <ele>437.6</ele>
        <time>2021-07-24T10:50:26Z</time>
      </trkpt>
      <trkpt lat="43.3153270" lon="-7.6484720">
        <ele>437.6</ele>
        <time>2021-07-24T10:50:33Z</time>
      </trkpt>
      <trkpt lat="43.3151430" lon="-7.6487210">
        <ele>437.6</ele>
        <time>2021-07-24T10:50:40Z</time>
      </trkpt>
      <trkpt lat="43.3149610" lon="-7.6490060">
        <ele>437.6</ele>
        <time>2021-07-24T10:50:47Z</time>
      </trkpt>
      <trkpt lat="43.3146460" lon="-7.6493520">
        <ele>437.6</ele>
        <time>2021-07-24T10:50:57Z</time>
      </trkpt>
      <trkpt lat="43.3145000" lon="-7.6495370">
        <ele>437.2</ele>
        <time>2021-07-24T10:51:02Z</time>
      </trkpt>
      <trkpt lat="43.3144660" lon="-7.6495760">
        <ele>436.8</ele>
        <time>2021-07-24T10:51:03Z</time>
      </trkpt>
      <trkpt lat="43.3144360" lon="-7.6496130">
        <ele>436.4</ele>
        <time>2021-07-24T10:51:04Z</time>
      </trkpt>
      <trkpt lat="43.3144070" lon="-7.6496560">
        <ele>436.0</ele>
        <time>2021-07-24T10:51:05Z</time>
      </trkpt>
      <trkpt lat="43.3143770" lon="-7.6496970">
        <ele>435.6</ele>
        <time>2021-07-24T10:51:06Z</time>
      </trkpt>
      <trkpt lat="43.3141600" lon="-7.6499830">
        <ele>435.6</ele>
        <time>2021-07-24T10:51:13Z</time>
      </trkpt>
      <trkpt lat="43.3139090" lon="-7.6502780">
        <ele>435.2</ele>
        <time>2021-07-24T10:51:20Z</time>
      </trkpt>
      <trkpt lat="43.3138760" lon="-7.6503200">
        <ele>434.8</ele>
        <time>2021-07-24T10:51:21Z</time>
      </trkpt>
      <trkpt lat="43.3138470" lon="-7.6503610">
        <ele>434.4</ele>
        <time>2021-07-24T10:51:22Z</time>
      </trkpt>
      <trkpt lat="43.3138170" lon="-7.6504000">
        <ele>434.0</ele>
        <time>2021-07-24T10:51:23Z</time>
      </trkpt>
      <trkpt lat="43.3137860" lon="-7.6504350">
        <ele>433.6</ele>
        <time>2021-07-24T10:51:24Z</time>
      </trkpt>
      <trkpt lat="43.3137180" lon="-7.6505160">
        <ele>433.6</ele>
        <time>2021-07-24T10:51:27Z</time>
      </trkpt>
      <trkpt lat="43.3136440" lon="-7.6505810">
        <ele>433.2</ele>
        <time>2021-07-24T10:51:32Z</time>
      </trkpt>
      <trkpt lat="43.3136350" lon="-7.6505960">
        <ele>432.8</ele>
        <time>2021-07-24T10:51:33Z</time>
      </trkpt>
      <trkpt lat="43.3136250" lon="-7.6506100">
        <ele>432.2</ele>
        <time>2021-07-24T10:51:34Z</time>
      </trkpt>
      <trkpt lat="43.3136150" lon="-7.6506210">
        <ele>431.8</ele>
        <time>2021-07-24T10:51:35Z</time>
      </trkpt>
      <trkpt lat="43.3136070" lon="-7.6506290">
        <ele>431.4</ele>
        <time>2021-07-24T10:51:36Z</time>
      </trkpt>
      <trkpt lat="43.3135480" lon="-7.6507160">
        <ele>431.4</ele>
        <time>2021-07-24T10:51:41Z</time>
      </trkpt>
      <trkpt lat="43.3134400" lon="-7.6508720">
        <ele>431.4</ele>
        <time>2021-07-24T10:51:47Z</time>
      </trkpt>
      <trkpt lat="43.3132650" lon="-7.6510710">
        <ele>431.4</ele>
        <time>2021-07-24T10:51:54Z</time>
      </trkpt>
      <trkpt lat="43.3131990" lon="-7.6511440">
        <ele>431.4</ele>
        <time>2021-07-24T10:51:56Z</time>
      </trkpt>
      <trkpt lat="43.3131090" lon="-7.6512370">
        <ele>431.4</ele>
        <time>2021-07-24T10:51:59Z</time>
      </trkpt>
      <trkpt lat="43.3129080" lon="-7.6514740">
        <ele>431.4</ele>
        <time>2021-07-24T10:52:07Z</time>
      </trkpt>
      <trkpt lat="43.3127470" lon="-7.6516300">
        <ele>431.4</ele>
        <time>2021-07-24T10:52:13Z</time>
      </trkpt>
      <trkpt lat="43.3125750" lon="-7.6518580">
        <ele>431.4</ele>
        <time>2021-07-24T10:52:20Z</time>
      </trkpt>
      <trkpt lat="43.3124480" lon="-7.6519970">
        <ele>431.0</ele>
        <time>2021-07-24T10:52:26Z</time>
      </trkpt>
      <trkpt lat="43.3124260" lon="-7.6520190">
        <ele>430.6</ele>
        <time>2021-07-24T10:52:27Z</time>
      </trkpt>
      <trkpt lat="43.3124070" lon="-7.6520390">
        <ele>430.2</ele>
        <time>2021-07-24T10:52:28Z</time>
      </trkpt>
      <trkpt lat="43.3123890" lon="-7.6520590">
        <ele>429.8</ele>
        <time>2021-07-24T10:52:29Z</time>
      </trkpt>
      <trkpt lat="43.3123710" lon="-7.6520770">
        <ele>429.4</ele>
        <time>2021-07-24T10:52:30Z</time>
      </trkpt>
      <trkpt lat="43.3122960" lon="-7.6521510">
        <ele>429.4</ele>
        <time>2021-07-24T10:52:33Z</time>
      </trkpt>
      <trkpt lat="43.3121250" lon="-7.6523590">
        <ele>429.4</ele>
        <time>2021-07-24T10:52:39Z</time>
      </trkpt>
      <trkpt lat="43.3118380" lon="-7.6527360">
        <ele>429.4</ele>
        <time>2021-07-24T10:52:48Z</time>
      </trkpt>
      <trkpt lat="43.3115620" lon="-7.6531590">
        <ele>429.4</ele>
        <time>2021-07-24T10:52:57Z</time>
      </trkpt>
      <trkpt lat="43.3114170" lon="-7.6533880">
        <ele>429.0</ele>
        <time>2021-07-24T10:53:02Z</time>
      </trkpt>
      <trkpt lat="43.3113930" lon="-7.6534430">
        <ele>428.6</ele>
        <time>2021-07-24T10:53:03Z</time>
      </trkpt>
      <trkpt lat="43.3113660" lon="-7.6535010">
        <ele>428.0</ele>
        <time>2021-07-24T10:53:04Z</time>
      </trkpt>
      <trkpt lat="43.3113370" lon="-7.6535550">
        <ele>427.6</ele>
        <time>2021-07-24T10:53:05Z</time>
      </trkpt>
      <trkpt lat="43.3113090" lon="-7.6536100">
        <ele>427.2</ele>
        <time>2021-07-24T10:53:06Z</time>
      </trkpt>
      <trkpt lat="43.3111930" lon="-7.6538350">
        <ele>427.2</ele>
        <time>2021-07-24T10:53:10Z</time>
      </trkpt>
      <trkpt lat="43.3111650" lon="-7.6538850">
        <ele>426.8</ele>
        <time>2021-07-24T10:53:11Z</time>
      </trkpt>
      <trkpt lat="43.3111350" lon="-7.6539400">
        <ele>426.4</ele>
        <time>2021-07-24T10:53:12Z</time>
      </trkpt>
      <trkpt lat="43.3111040" lon="-7.6539930">
        <ele>426.0</ele>
        <time>2021-07-24T10:53:13Z</time>
      </trkpt>
      <trkpt lat="43.3110730" lon="-7.6540470">
        <ele>425.4</ele>
        <time>2021-07-24T10:53:14Z</time>
      </trkpt>
      <trkpt lat="43.3110420" lon="-7.6541020">
        <ele>425.0</ele>
        <time>2021-07-24T10:53:15Z</time>
      </trkpt>
      <trkpt lat="43.3109540" lon="-7.6542950">
        <ele>425.0</ele>
        <time>2021-07-24T10:53:18Z</time>
      </trkpt>
      <trkpt lat="43.3107350" lon="-7.6546940">
        <ele>425.0</ele>
        <time>2021-07-24T10:53:25Z</time>
      </trkpt>
      <trkpt lat="43.3106210" lon="-7.6549940">
        <ele>424.6</ele>
        <time>2021-07-24T10:53:30Z</time>
      </trkpt>
      <trkpt lat="43.3106020" lon="-7.6550470">
        <ele>424.2</ele>
        <time>2021-07-24T10:53:31Z</time>
      </trkpt>
      <trkpt lat="43.3105830" lon="-7.6551070">
        <ele>423.8</ele>
        <time>2021-07-24T10:53:32Z</time>
      </trkpt>
      <trkpt lat="43.3105650" lon="-7.6551580">
        <ele>423.4</ele>
        <time>2021-07-24T10:53:33Z</time>
      </trkpt>
      <trkpt lat="43.3105450" lon="-7.6552130">
        <ele>423.0</ele>
        <time>2021-07-24T10:53:34Z</time>
      </trkpt>
      <trkpt lat="43.3104870" lon="-7.6553740">
        <ele>423.0</ele>
        <time>2021-07-24T10:53:37Z</time>
      </trkpt>
      <trkpt lat="43.3104060" lon="-7.6555790">
        <ele>422.6</ele>
        <time>2021-07-24T10:53:41Z</time>
      </trkpt>
      <trkpt lat="43.3103850" lon="-7.6556310">
        <ele>422.2</ele>
        <time>2021-07-24T10:53:42Z</time>
      </trkpt>
      <trkpt lat="43.3103660" lon="-7.6556840">
        <ele>421.8</ele>
        <time>2021-07-24T10:53:43Z</time>
      </trkpt>
      <trkpt lat="43.3103410" lon="-7.6557380">
        <ele>421.4</ele>
        <time>2021-07-24T10:53:44Z</time>
      </trkpt>
      <trkpt lat="43.3103190" lon="-7.6557850">
        <ele>421.0</ele>
        <time>2021-07-24T10:53:45Z</time>
      </trkpt>
      <trkpt lat="43.3101400" lon="-7.6561480">
        <ele>421.0</ele>
        <time>2021-07-24T10:53:52Z</time>
      </trkpt>
      <trkpt lat="43.3099820" lon="-7.6564610">
        <ele>420.6</ele>
        <time>2021-07-24T10:53:58Z</time>
      </trkpt>
      <trkpt lat="43.3099600" lon="-7.6565080">
        <ele>420.2</ele>
        <time>2021-07-24T10:53:59Z</time>
      </trkpt>
      <trkpt lat="43.3099370" lon="-7.6565570">
        <ele>419.8</ele>
        <time>2021-07-24T10:54:00Z</time>
      </trkpt>
      <trkpt lat="43.3099130" lon="-7.6566060">
        <ele>419.4</ele>
        <time>2021-07-24T10:54:01Z</time>
      </trkpt>
      <trkpt lat="43.3098890" lon="-7.6566550">
        <ele>419.0</ele>
        <time>2021-07-24T10:54:02Z</time>
      </trkpt>
      <trkpt lat="43.3097070" lon="-7.6570140">
        <ele>419.0</ele>
        <time>2021-07-24T10:54:09Z</time>
      </trkpt>
      <trkpt lat="43.3096130" lon="-7.6572040">
        <ele>418.4</ele>
        <time>2021-07-24T10:54:14Z</time>
      </trkpt>
      <trkpt lat="43.3095960" lon="-7.6572370">
        <ele>418.0</ele>
        <time>2021-07-24T10:54:15Z</time>
      </trkpt>
      <trkpt lat="43.3095710" lon="-7.6572700">
        <ele>417.6</ele>
        <time>2021-07-24T10:54:16Z</time>
      </trkpt>
      <trkpt lat="43.3095420" lon="-7.6573000">
        <ele>417.2</ele>
        <time>2021-07-24T10:54:17Z</time>
      </trkpt>
      <trkpt lat="43.3095110" lon="-7.6573280">
        <ele>416.8</ele>
        <time>2021-07-24T10:54:18Z</time>
      </trkpt>
      <trkpt lat="43.3094420" lon="-7.6573770">
        <ele>416.8</ele>
        <time>2021-07-24T10:54:20Z</time>
      </trkpt>
      <trkpt lat="43.3092840" lon="-7.6575610">
        <ele>416.8</ele>
        <time>2021-07-24T10:54:26Z</time>
      </trkpt>
      <trkpt lat="43.3091850" lon="-7.6577750">
        <ele>416.8</ele>
        <time>2021-07-24T10:54:31Z</time>
      </trkpt>
      <trkpt lat="43.3091250" lon="-7.6580610">
        <ele>416.8</ele>
        <time>2021-07-24T10:54:36Z</time>
      </trkpt>
      <trkpt lat="43.3091140" lon="-7.6581210">
        <ele>416.8</ele>
        <time>2021-07-24T10:54:37Z</time>
      </trkpt>
      <trkpt lat="43.3090220" lon="-7.6584920">
        <ele>416.8</ele>
        <time>2021-07-24T10:54:44Z</time>
      </trkpt>
      <trkpt lat="43.3088870" lon="-7.6588540">
        <ele>416.8</ele>
        <time>2021-07-24T10:54:52Z</time>
      </trkpt>
      <trkpt lat="43.3087570" lon="-7.6591800">
        <ele>416.8</ele>
        <time>2021-07-24T10:54:59Z</time>
      </trkpt>
      <trkpt lat="43.3086290" lon="-7.6594780">
        <ele>416.8</ele>
        <time>2021-07-24T10:55:06Z</time>
      </trkpt>
      <trkpt lat="43.3085080" lon="-7.6597140">
        <ele>417.4</ele>
        <time>2021-07-24T10:55:12Z</time>
      </trkpt>
      <trkpt lat="43.3084920" lon="-7.6597610">
        <ele>417.8</ele>
        <time>2021-07-24T10:55:13Z</time>
      </trkpt>
      <trkpt lat="43.3084760" lon="-7.6598080">
        <ele>418.2</ele>
        <time>2021-07-24T10:55:14Z</time>
      </trkpt>
      <trkpt lat="43.3084590" lon="-7.6598520">
        <ele>418.8</ele>
        <time>2021-07-24T10:55:15Z</time>
      </trkpt>
      <trkpt lat="43.3084360" lon="-7.6598940">
        <ele>419.2</ele>
        <time>2021-07-24T10:55:16Z</time>
      </trkpt>
      <trkpt lat="43.3083420" lon="-7.6601090">
        <ele>419.2</ele>
        <time>2021-07-24T10:55:21Z</time>
      </trkpt>
      <trkpt lat="43.3082250" lon="-7.6604000">
        <ele>419.2</ele>
        <time>2021-07-24T10:55:28Z</time>
      </trkpt>
      <trkpt lat="43.3080800" lon="-7.6607410">
        <ele>419.2</ele>
        <time>2021-07-24T10:55:37Z</time>
      </trkpt>
      <trkpt lat="43.3079610" lon="-7.6610240">
        <ele>419.2</ele>
        <time>2021-07-24T10:55:45Z</time>
      </trkpt>
      <trkpt lat="43.3078710" lon="-7.6612930">
        <ele>419.2</ele>
        <time>2021-07-24T10:55:53Z</time>
      </trkpt>
      <trkpt lat="43.3078870" lon="-7.6614520">
        <ele>419.2</ele>
        <time>2021-07-24T10:55:59Z</time>
      </trkpt>
      <trkpt lat="43.3078950" lon="-7.6614580">
        <ele>419.2</ele>
        <time>2021-07-24T10:56:01Z</time>
      </trkpt>
      <trkpt lat="43.3078970" lon="-7.6614220">
        <ele>419.2</ele>
        <time>2021-07-24T10:56:47Z</time>
      </trkpt>
      <trkpt lat="43.3079030" lon="-7.6614060">
        <ele>419.2</ele>
        <time>2021-07-24T10:56:48Z</time>
      </trkpt>
      <trkpt lat="43.3079120" lon="-7.6613680">
        <ele>419.2</ele>
        <time>2021-07-24T10:56:53Z</time>
      </trkpt>
      <trkpt lat="43.3078870" lon="-7.6613960">
        <ele>421.2</ele>
        <time>2021-07-24T11:00:44Z</time>
      </trkpt>
      <trkpt lat="43.3078340" lon="-7.6614850">
        <ele>421.2</ele>
        <time>2021-07-24T11:00:48Z</time>
      </trkpt>
      <trkpt lat="43.3077980" lon="-7.6615360">
        <ele>421.2</ele>
        <time>2021-07-24T11:00:50Z</time>
      </trkpt>
      <trkpt lat="43.3076500" lon="-7.6617460">
        <ele>421.2</ele>
        <time>2021-07-24T11:00:57Z</time>
      </trkpt>
      <trkpt lat="43.3074820" lon="-7.6619780">
        <ele>421.2</ele>
        <time>2021-07-24T11:01:04Z</time>
      </trkpt>
      <trkpt lat="43.3073630" lon="-7.6621550">
        <ele>421.2</ele>
        <time>2021-07-24T11:01:10Z</time>
      </trkpt>
      <trkpt lat="43.3072980" lon="-7.6624140">
        <ele>421.2</ele>
        <time>2021-07-24T11:01:16Z</time>
      </trkpt>
      <trkpt lat="43.3072740" lon="-7.6626090">
        <ele>421.2</ele>
        <time>2021-07-24T11:01:21Z</time>
      </trkpt>
      <trkpt lat="43.3071700" lon="-7.6629240">
        <ele>421.2</ele>
        <time>2021-07-24T11:01:29Z</time>
      </trkpt>
      <trkpt lat="43.3071540" lon="-7.6631660">
        <ele>421.2</ele>
        <time>2021-07-24T11:01:33Z</time>
      </trkpt>
      <trkpt lat="43.3071640" lon="-7.6632350">
        <ele>421.2</ele>
        <time>2021-07-24T11:01:34Z</time>
      </trkpt>
      <trkpt lat="43.3072710" lon="-7.6634500">
        <ele>421.2</ele>
        <time>2021-07-24T11:01:38Z</time>
      </trkpt>
      <trkpt lat="43.3073330" lon="-7.6635280">
        <ele>421.2</ele>
        <time>2021-07-24T11:01:40Z</time>
      </trkpt>
      <trkpt lat="43.3073970" lon="-7.6636490">
        <ele>421.2</ele>
        <time>2021-07-24T11:01:43Z</time>
      </trkpt>
      <trkpt lat="43.3075020" lon="-7.6637940">
        <ele>421.2</ele>
        <time>2021-07-24T11:01:48Z</time>
      </trkpt>
      <trkpt lat="43.3075330" lon="-7.6638080">
        <ele>421.2</ele>
        <time>2021-07-24T11:01:49Z</time>
      </trkpt>
      <trkpt lat="43.3075510" lon="-7.6638440">
        <ele>421.2</ele>
        <time>2021-07-24T11:01:50Z</time>
      </trkpt>
      <trkpt lat="43.3075690" lon="-7.6639330">
        <ele>421.2</ele>
        <time>2021-07-24T11:01:52Z</time>
      </trkpt>
      <trkpt lat="43.3075810" lon="-7.6640240">
        <ele>421.2</ele>
        <time>2021-07-24T11:01:54Z</time>
      </trkpt>
      <trkpt lat="43.3075860" lon="-7.6642490">
        <ele>421.2</ele>
        <time>2021-07-24T11:01:59Z</time>
      </trkpt>
      <trkpt lat="43.3075850" lon="-7.6643280">
        <ele>421.6</ele>
        <time>2021-07-24T11:02:01Z</time>
      </trkpt>
      <trkpt lat="43.3075830" lon="-7.6643670">
        <ele>422.0</ele>
        <time>2021-07-24T11:02:02Z</time>
      </trkpt>
      <trkpt lat="43.3075840" lon="-7.6644090">
        <ele>422.6</ele>
        <time>2021-07-24T11:02:03Z</time>
      </trkpt>
      <trkpt lat="43.3075810" lon="-7.6644490">
        <ele>423.0</ele>
        <time>2021-07-24T11:02:04Z</time>
      </trkpt>
      <trkpt lat="43.3075770" lon="-7.6644880">
        <ele>423.4</ele>
        <time>2021-07-24T11:02:05Z</time>
      </trkpt>
      <trkpt lat="43.3075770" lon="-7.6645280">
        <ele>423.4</ele>
        <time>2021-07-24T11:02:06Z</time>
      </trkpt>
      <trkpt lat="43.3075630" lon="-7.6648120">
        <ele>423.8</ele>
        <time>2021-07-24T11:02:14Z</time>
      </trkpt>
      <trkpt lat="43.3075600" lon="-7.6648410">
        <ele>424.2</ele>
        <time>2021-07-24T11:02:15Z</time>
      </trkpt>
      <trkpt lat="43.3075570" lon="-7.6648730">
        <ele>424.6</ele>
        <time>2021-07-24T11:02:16Z</time>
      </trkpt>
      <trkpt lat="43.3075550" lon="-7.6649090">
        <ele>425.0</ele>
        <time>2021-07-24T11:02:17Z</time>
      </trkpt>
      <trkpt lat="43.3075530" lon="-7.6649420">
        <ele>425.4</ele>
        <time>2021-07-24T11:02:18Z</time>
      </trkpt>
      <trkpt lat="43.3075440" lon="-7.6651230">
        <ele>425.4</ele>
        <time>2021-07-24T11:02:24Z</time>
      </trkpt>
      <trkpt lat="43.3075380" lon="-7.6653340">
        <ele>426.0</ele>
        <time>2021-07-24T11:02:31Z</time>
      </trkpt>
      <trkpt lat="43.3075390" lon="-7.6653660">
        <ele>426.4</ele>
        <time>2021-07-24T11:02:32Z</time>
      </trkpt>
      <trkpt lat="43.3075370" lon="-7.6653950">
        <ele>426.8</ele>
        <time>2021-07-24T11:02:33Z</time>
      </trkpt>
      <trkpt lat="43.3075370" lon="-7.6654220">
        <ele>427.2</ele>
        <time>2021-07-24T11:02:34Z</time>
      </trkpt>
      <trkpt lat="43.3075350" lon="-7.6654470">
        <ele>427.6</ele>
        <time>2021-07-24T11:02:35Z</time>
      </trkpt>
      <trkpt lat="43.3075030" lon="-7.6655000">
        <ele>427.6</ele>
        <time>2021-07-24T11:02:38Z</time>
      </trkpt>
      <trkpt lat="43.3073810" lon="-7.6655960">
        <ele>427.6</ele>
        <time>2021-07-24T11:02:44Z</time>
      </trkpt>
      <trkpt lat="43.3072780" lon="-7.6656610">
        <ele>427.6</ele>
        <time>2021-07-24T11:02:50Z</time>
      </trkpt>
      <trkpt lat="43.3072710" lon="-7.6656540">
        <ele>427.6</ele>
        <time>2021-07-24T11:02:51Z</time>
      </trkpt>
      <trkpt lat="43.3072230" lon="-7.6656030">
        <ele>427.6</ele>
        <time>2021-07-24T11:02:54Z</time>
      </trkpt>
      <trkpt lat="43.3071030" lon="-7.6654450">
        <ele>427.6</ele>
        <time>2021-07-24T11:02:58Z</time>
      </trkpt>
      <trkpt lat="43.3068190" lon="-7.6650850">
        <ele>427.2</ele>
        <time>2021-07-24T11:03:06Z</time>
      </trkpt>
      <trkpt lat="43.3067740" lon="-7.6650330">
        <ele>426.8</ele>
        <time>2021-07-24T11:03:07Z</time>
      </trkpt>
      <trkpt lat="43.3067270" lon="-7.6649840">
        <ele>426.4</ele>
        <time>2021-07-24T11:03:08Z</time>
      </trkpt>
      <trkpt lat="43.3066780" lon="-7.6649390">
        <ele>425.6</ele>
        <time>2021-07-24T11:03:09Z</time>
      </trkpt>
      <trkpt lat="43.3066260" lon="-7.6648980">
        <ele>425.0</ele>
        <time>2021-07-24T11:03:10Z</time>
      </trkpt>
      <trkpt lat="43.3065780" lon="-7.6648660">
        <ele>424.6</ele>
        <time>2021-07-24T11:03:11Z</time>
      </trkpt>
      <trkpt lat="43.3065250" lon="-7.6648410">
        <ele>424.2</ele>
        <time>2021-07-24T11:03:12Z</time>
      </trkpt>
      <trkpt lat="43.3064740" lon="-7.6648240">
        <ele>423.8</ele>
        <time>2021-07-24T11:03:13Z</time>
      </trkpt>
      <trkpt lat="43.3064200" lon="-7.6648090">
        <ele>423.4</ele>
        <time>2021-07-24T11:03:14Z</time>
      </trkpt>
      <trkpt lat="43.3063700" lon="-7.6647980">
        <ele>422.8</ele>
        <time>2021-07-24T11:03:15Z</time>
      </trkpt>
      <trkpt lat="43.3063200" lon="-7.6647880">
        <ele>422.4</ele>
        <time>2021-07-24T11:03:16Z</time>
      </trkpt>
      <trkpt lat="43.3062700" lon="-7.6647790">
        <ele>421.8</ele>
        <time>2021-07-24T11:03:17Z</time>
      </trkpt>
      <trkpt lat="43.3062280" lon="-7.6647750">
        <ele>421.4</ele>
        <time>2021-07-24T11:03:18Z</time>
      </trkpt>
      <trkpt lat="43.3061980" lon="-7.6647690">
        <ele>420.8</ele>
        <time>2021-07-24T11:03:19Z</time>
      </trkpt>
      <trkpt lat="43.3061920" lon="-7.6647680">
        <ele>420.4</ele>
        <time>2021-07-24T11:03:20Z</time>
      </trkpt>
      <trkpt lat="43.3061930" lon="-7.6647610">
        <ele>419.8</ele>
        <time>2021-07-24T11:03:21Z</time>
      </trkpt>
      <trkpt lat="43.3061950" lon="-7.6647460">
        <ele>419.4</ele>
        <time>2021-07-24T11:03:22Z</time>
      </trkpt>
      <trkpt lat="43.3062050" lon="-7.6647310">
        <ele>418.8</ele>
        <time>2021-07-24T11:03:23Z</time>
      </trkpt>
      <trkpt lat="43.3062370" lon="-7.6647190">
        <ele>418.8</ele>
        <time>2021-07-24T11:03:25Z</time>
      </trkpt>
      <trkpt lat="43.3063380" lon="-7.6647080">
        <ele>418.8</ele>
        <time>2021-07-24T11:03:29Z</time>
      </trkpt>
      <trkpt lat="43.3063670" lon="-7.6647110">
        <ele>418.8</ele>
        <time>2021-07-24T11:03:30Z</time>
      </trkpt>
      <trkpt lat="43.3066090" lon="-7.6647770">
        <ele>418.8</ele>
        <time>2021-07-24T11:03:38Z</time>
      </trkpt>
      <trkpt lat="43.3068400" lon="-7.6648880">
        <ele>418.8</ele>
        <time>2021-07-24T11:03:46Z</time>
      </trkpt>
      <trkpt lat="43.3070120" lon="-7.6650710">
        <ele>418.8</ele>
        <time>2021-07-24T11:03:53Z</time>
      </trkpt>
      <trkpt lat="43.3070720" lon="-7.6651730">
        <ele>419.2</ele>
        <time>2021-07-24T11:03:56Z</time>
      </trkpt>
      <trkpt lat="43.3070930" lon="-7.6652070">
        <ele>419.8</ele>
        <time>2021-07-24T11:03:57Z</time>
      </trkpt>
      <trkpt lat="43.3071080" lon="-7.6652450">
        <ele>420.6</ele>
        <time>2021-07-24T11:03:58Z</time>
      </trkpt>
      <trkpt lat="43.3071240" lon="-7.6652830">
        <ele>421.0</ele>
        <time>2021-07-24T11:03:59Z</time>
      </trkpt>
      <trkpt lat="43.3071570" lon="-7.6653580">
        <ele>421.0</ele>
        <time>2021-07-24T11:04:01Z</time>
      </trkpt>
      <trkpt lat="43.3073130" lon="-7.6656820">
        <ele>421.0</ele>
        <time>2021-07-24T11:04:10Z</time>
      </trkpt>
      <trkpt lat="43.3074190" lon="-7.6659000">
        <ele>421.0</ele>
        <time>2021-07-24T11:04:16Z</time>
      </trkpt>
      <trkpt lat="43.3074250" lon="-7.6660120">
        <ele>421.0</ele>
        <time>2021-07-24T11:04:19Z</time>
      </trkpt>
      <trkpt lat="43.3074080" lon="-7.6660900">
        <ele>421.0</ele>
        <time>2021-07-24T11:04:21Z</time>
      </trkpt>
      <trkpt lat="43.3073880" lon="-7.6661650">
        <ele>421.0</ele>
        <time>2021-07-24T11:04:23Z</time>
      </trkpt>
      <trkpt lat="43.3073130" lon="-7.6664120">
        <ele>421.0</ele>
        <time>2021-07-24T11:04:28Z</time>
      </trkpt>
      <trkpt lat="43.3072050" lon="-7.6668400">
        <ele>421.0</ele>
        <time>2021-07-24T11:04:36Z</time>
      </trkpt>
      <trkpt lat="43.3070920" lon="-7.6672040">
        <ele>421.0</ele>
        <time>2021-07-24T11:04:43Z</time>
      </trkpt>
      <trkpt lat="43.3070790" lon="-7.6672530">
        <ele>421.4</ele>
        <time>2021-07-24T11:04:44Z</time>
      </trkpt>
      <trkpt lat="43.3070700" lon="-7.6672970">
        <ele>421.8</ele>
        <time>2021-07-24T11:04:45Z</time>
      </trkpt>
      <trkpt lat="43.3070520" lon="-7.6673380">
        <ele>422.2</ele>
        <time>2021-07-24T11:04:46Z</time>
      </trkpt>
      <trkpt lat="43.3070250" lon="-7.6673700">
        <ele>422.6</ele>
        <time>2021-07-24T11:04:47Z</time>
      </trkpt>
      <trkpt lat="43.3069870" lon="-7.6674020">
        <ele>423.0</ele>
        <time>2021-07-24T11:04:48Z</time>
      </trkpt>
      <trkpt lat="43.3068890" lon="-7.6675320">
        <ele>423.0</ele>
        <time>2021-07-24T11:04:51Z</time>
      </trkpt>
      <trkpt lat="43.3068150" lon="-7.6677680">
        <ele>423.0</ele>
        <time>2021-07-24T11:04:55Z</time>
      </trkpt>
      <trkpt lat="43.3066480" lon="-7.6681220">
        <ele>423.0</ele>
        <time>2021-07-24T11:05:02Z</time>
      </trkpt>
      <trkpt lat="43.3066140" lon="-7.6681770">
        <ele>423.0</ele>
        <time>2021-07-24T11:05:03Z</time>
      </trkpt>
      <trkpt lat="43.3064900" lon="-7.6683820">
        <ele>423.0</ele>
        <time>2021-07-24T11:05:07Z</time>
      </trkpt>
      <trkpt lat="43.3062490" lon="-7.6687250">
        <ele>423.0</ele>
        <time>2021-07-24T11:05:14Z</time>
      </trkpt>
      <trkpt lat="43.3060080" lon="-7.6690310">
        <ele>423.0</ele>
        <time>2021-07-24T11:05:21Z</time>
      </trkpt>
      <trkpt lat="43.3059470" lon="-7.6691480">
        <ele>423.0</ele>
        <time>2021-07-24T11:05:25Z</time>
      </trkpt>
      <trkpt lat="43.3059170" lon="-7.6692070">
        <ele>422.6</ele>
        <time>2021-07-24T11:05:28Z</time>
      </trkpt>
      <trkpt lat="43.3058980" lon="-7.6692420">
        <ele>422.2</ele>
        <time>2021-07-24T11:05:29Z</time>
      </trkpt>
      <trkpt lat="43.3058760" lon="-7.6692820">
        <ele>421.8</ele>
        <time>2021-07-24T11:05:30Z</time>
      </trkpt>
      <trkpt lat="43.3058550" lon="-7.6693230">
        <ele>421.4</ele>
        <time>2021-07-24T11:05:31Z</time>
      </trkpt>
      <trkpt lat="43.3058270" lon="-7.6693650">
        <ele>421.0</ele>
        <time>2021-07-24T11:05:32Z</time>
      </trkpt>
      <trkpt lat="43.3056870" lon="-7.6695730">
        <ele>421.0</ele>
        <time>2021-07-24T11:05:37Z</time>
      </trkpt>
      <trkpt lat="43.3054910" lon="-7.6698440">
        <ele>421.0</ele>
        <time>2021-07-24T11:05:44Z</time>
      </trkpt>
      <trkpt lat="43.3053110" lon="-7.6700550">
        <ele>421.0</ele>
        <time>2021-07-24T11:05:50Z</time>
      </trkpt>
      <trkpt lat="43.3051020" lon="-7.6703530">
        <ele>421.0</ele>
        <time>2021-07-24T11:05:58Z</time>
      </trkpt>
      <trkpt lat="43.3049870" lon="-7.6705020">
        <ele>421.4</ele>
        <time>2021-07-24T11:06:02Z</time>
      </trkpt>
      <trkpt lat="43.3049580" lon="-7.6705410">
        <ele>421.8</ele>
        <time>2021-07-24T11:06:03Z</time>
      </trkpt>
      <trkpt lat="43.3049310" lon="-7.6705810">
        <ele>422.2</ele>
        <time>2021-07-24T11:06:04Z</time>
      </trkpt>
      <trkpt lat="43.3049050" lon="-7.6706180">
        <ele>422.6</ele>
        <time>2021-07-24T11:06:05Z</time>
      </trkpt>
      <trkpt lat="43.3048760" lon="-7.6706530">
        <ele>423.0</ele>
        <time>2021-07-24T11:06:06Z</time>
      </trkpt>
      <trkpt lat="43.3046790" lon="-7.6709080">
        <ele>423.0</ele>
        <time>2021-07-24T11:06:13Z</time>
      </trkpt>
      <trkpt lat="43.3044380" lon="-7.6712400">
        <ele>423.0</ele>
        <time>2021-07-24T11:06:22Z</time>
      </trkpt>
      <trkpt lat="43.3042680" lon="-7.6714410">
        <ele>423.4</ele>
        <time>2021-07-24T11:06:28Z</time>
      </trkpt>
      <trkpt lat="43.3042390" lon="-7.6714730">
        <ele>423.8</ele>
        <time>2021-07-24T11:06:29Z</time>
      </trkpt>
      <trkpt lat="43.3042090" lon="-7.6715030">
        <ele>424.2</ele>
        <time>2021-07-24T11:06:30Z</time>
      </trkpt>
      <trkpt lat="43.3041780" lon="-7.6715340">
        <ele>424.8</ele>
        <time>2021-07-24T11:06:31Z</time>
      </trkpt>
      <trkpt lat="43.3041460" lon="-7.6715640">
        <ele>425.2</ele>
        <time>2021-07-24T11:06:32Z</time>
      </trkpt>
      <trkpt lat="43.3039680" lon="-7.6717010">
        <ele>425.2</ele>
        <time>2021-07-24T11:06:37Z</time>
      </trkpt>
      <trkpt lat="43.3037270" lon="-7.6718990">
        <ele>425.2</ele>
        <time>2021-07-24T11:06:44Z</time>
      </trkpt>
      <trkpt lat="43.3034620" lon="-7.6721030">
        <ele>425.2</ele>
        <time>2021-07-24T11:06:52Z</time>
      </trkpt>
      <trkpt lat="43.3032950" lon="-7.6722260">
        <ele>425.6</ele>
        <time>2021-07-24T11:06:57Z</time>
      </trkpt>
      <trkpt lat="43.3032650" lon="-7.6722570">
        <ele>426.0</ele>
        <time>2021-07-24T11:06:58Z</time>
      </trkpt>
      <trkpt lat="43.3032350" lon="-7.6722870">
        <ele>426.4</ele>
        <time>2021-07-24T11:06:59Z</time>
      </trkpt>
      <trkpt lat="43.3032050" lon="-7.6723160">
        <ele>426.8</ele>
        <time>2021-07-24T11:07:00Z</time>
      </trkpt>
      <trkpt lat="43.3031740" lon="-7.6723430">
        <ele>427.2</ele>
        <time>2021-07-24T11:07:01Z</time>
      </trkpt>
      <trkpt lat="43.3030630" lon="-7.6724710">
        <ele>427.2</ele>
        <time>2021-07-24T11:07:05Z</time>
      </trkpt>
      <trkpt lat="43.3029830" lon="-7.6726120">
        <ele>427.2</ele>
        <time>2021-07-24T11:07:10Z</time>
      </trkpt>
      <trkpt lat="43.3029730" lon="-7.6726360">
        <ele>427.2</ele>
        <time>2021-07-24T11:07:11Z</time>
      </trkpt>
      <trkpt lat="43.3029140" lon="-7.6726980">
        <ele>427.2</ele>
        <time>2021-07-24T11:07:14Z</time>
      </trkpt>
      <trkpt lat="43.3028250" lon="-7.6728180">
        <ele>427.6</ele>
        <time>2021-07-24T11:07:18Z</time>
      </trkpt>
      <trkpt lat="43.3027990" lon="-7.6728530">
        <ele>428.0</ele>
        <time>2021-07-24T11:07:19Z</time>
      </trkpt>
      <trkpt lat="43.3027720" lon="-7.6728860">
        <ele>428.4</ele>
        <time>2021-07-24T11:07:20Z</time>
      </trkpt>
      <trkpt lat="43.3027440" lon="-7.6729210">
        <ele>428.8</ele>
        <time>2021-07-24T11:07:21Z</time>
      </trkpt>
      <trkpt lat="43.3027170" lon="-7.6729540">
        <ele>429.2</ele>
        <time>2021-07-24T11:07:22Z</time>
      </trkpt>
      <trkpt lat="43.3025440" lon="-7.6731620">
        <ele>429.2</ele>
        <time>2021-07-24T11:07:28Z</time>
      </trkpt>
      <trkpt lat="43.3023220" lon="-7.6734360">
        <ele>429.2</ele>
        <time>2021-07-24T11:07:36Z</time>
      </trkpt>
      <trkpt lat="43.3021010" lon="-7.6736990">
        <ele>429.6</ele>
        <time>2021-07-24T11:07:44Z</time>
      </trkpt>
      <trkpt lat="43.3020740" lon="-7.6737320">
        <ele>430.0</ele>
        <time>2021-07-24T11:07:45Z</time>
      </trkpt>
      <trkpt lat="43.3020480" lon="-7.6737620">
        <ele>430.4</ele>
        <time>2021-07-24T11:07:46Z</time>
      </trkpt>
      <trkpt lat="43.3020220" lon="-7.6737940">
        <ele>430.8</ele>
        <time>2021-07-24T11:07:47Z</time>
      </trkpt>
      <trkpt lat="43.3019980" lon="-7.6738270">
        <ele>431.2</ele>
        <time>2021-07-24T11:07:48Z</time>
      </trkpt>
      <trkpt lat="43.3019130" lon="-7.6739410">
        <ele>431.2</ele>
        <time>2021-07-24T11:07:52Z</time>
      </trkpt>
      <trkpt lat="43.3017790" lon="-7.6741310">
        <ele>431.2</ele>
        <time>2021-07-24T11:07:58Z</time>
      </trkpt>
      <trkpt lat="43.3016180" lon="-7.6743150">
        <ele>431.2</ele>
        <time>2021-07-24T11:08:05Z</time>
      </trkpt>
      <trkpt lat="43.3014530" lon="-7.6744490">
        <ele>431.2</ele>
        <time>2021-07-24T11:08:12Z</time>
      </trkpt>
      <trkpt lat="43.3013950" lon="-7.6745750">
        <ele>431.2</ele>
        <time>2021-07-24T11:08:16Z</time>
      </trkpt>
      <trkpt lat="43.3013030" lon="-7.6747600">
        <ele>431.2</ele>
        <time>2021-07-24T11:08:22Z</time>
      </trkpt>
      <trkpt lat="43.3011920" lon="-7.6749510">
        <ele>431.2</ele>
        <time>2021-07-24T11:08:27Z</time>
      </trkpt>
      <trkpt lat="43.3010550" lon="-7.6752180">
        <ele>431.2</ele>
        <time>2021-07-24T11:08:34Z</time>
      </trkpt>
      <trkpt lat="43.3009860" lon="-7.6753830">
        <ele>431.2</ele>
        <time>2021-07-24T11:08:40Z</time>
      </trkpt>
      <trkpt lat="43.3009840" lon="-7.6753900">
        <ele>431.2</ele>
        <time>2021-07-24T11:08:41Z</time>
      </trkpt>
      <trkpt lat="43.3009530" lon="-7.6754360">
        <ele>431.2</ele>
        <time>2021-07-24T11:09:02Z</time>
      </trkpt>
      <trkpt lat="43.3009340" lon="-7.6754320">
        <ele>431.2</ele>
        <time>2021-07-24T11:09:04Z</time>
      </trkpt>
      <trkpt lat="43.3009230" lon="-7.6754280">
        <ele>431.2</ele>
        <time>2021-07-24T11:09:05Z</time>
      </trkpt>
      <trkpt lat="43.3008590" lon="-7.6753810">
        <ele>431.2</ele>
        <time>2021-07-24T11:09:09Z</time>
      </trkpt>
      <trkpt lat="43.3007790" lon="-7.6752590">
        <ele>431.2</ele>
        <time>2021-07-24T11:09:14Z</time>
      </trkpt>
      <trkpt lat="43.3007640" lon="-7.6752100">
        <ele>431.2</ele>
        <time>2021-07-24T11:09:19Z</time>
      </trkpt>
      <trkpt lat="43.3007370" lon="-7.6751780">
        <ele>431.2</ele>
        <time>2021-07-24T11:09:26Z</time>
      </trkpt>
      <trkpt lat="43.3007750" lon="-7.6750800">
        <ele>431.2</ele>
        <time>2021-07-24T11:13:12Z</time>
      </trkpt>
      <trkpt lat="43.3007990" lon="-7.6751060">
        <ele>431.2</ele>
        <time>2021-07-24T11:13:14Z</time>
      </trkpt>
      <trkpt lat="43.3009070" lon="-7.6752290">
        <ele>431.2</ele>
        <time>2021-07-24T11:13:21Z</time>
      </trkpt>
      <trkpt lat="43.3009300" lon="-7.6752640">
        <ele>431.2</ele>
        <time>2021-07-24T11:13:23Z</time>
      </trkpt>
      <trkpt lat="43.3009530" lon="-7.6753380">
        <ele>432.2</ele>
        <time>2021-07-24T11:13:26Z</time>
      </trkpt>
      <trkpt lat="43.3009560" lon="-7.6753620">
        <ele>432.6</ele>
        <time>2021-07-24T11:13:27Z</time>
      </trkpt>
      <trkpt lat="43.3009550" lon="-7.6753870">
        <ele>433.0</ele>
        <time>2021-07-24T11:13:28Z</time>
      </trkpt>
      <trkpt lat="43.3009470" lon="-7.6754090">
        <ele>433.4</ele>
        <time>2021-07-24T11:13:29Z</time>
      </trkpt>
      <trkpt lat="43.3009320" lon="-7.6754850">
        <ele>433.4</ele>
        <time>2021-07-24T11:13:32Z</time>
      </trkpt>
      <trkpt lat="43.3009160" lon="-7.6755400">
        <ele>433.4</ele>
        <time>2021-07-24T11:13:34Z</time>
      </trkpt>
      <trkpt lat="43.3008820" lon="-7.6756030">
        <ele>433.4</ele>
        <time>2021-07-24T11:13:36Z</time>
      </trkpt>
      <trkpt lat="43.3008660" lon="-7.6756340">
        <ele>433.4</ele>
        <time>2021-07-24T11:13:37Z</time>
      </trkpt>
      <trkpt lat="43.3008130" lon="-7.6757370">
        <ele>433.4</ele>
        <time>2021-07-24T11:13:42Z</time>
      </trkpt>
      <trkpt lat="43.3008140" lon="-7.6757400">
        <ele>433.4</ele>
        <time>2021-07-24T11:13:43Z</time>
      </trkpt>
      <trkpt lat="43.3008120" lon="-7.6757430">
        <ele>433.4</ele>
        <time>2021-07-24T11:13:54Z</time>
      </trkpt>
      <trkpt lat="43.3007890" lon="-7.6757850">
        <ele>433.4</ele>
        <time>2021-07-24T11:13:56Z</time>
      </trkpt>
      <trkpt lat="43.3007420" lon="-7.6759380">
        <ele>433.4</ele>
        <time>2021-07-24T11:14:01Z</time>
      </trkpt>
      <trkpt lat="43.3006400" lon="-7.6761780">
        <ele>433.4</ele>
        <time>2021-07-24T11:14:08Z</time>
      </trkpt>
      <trkpt lat="43.3006130" lon="-7.6762320">
        <ele>433.4</ele>
        <time>2021-07-24T11:14:12Z</time>
      </trkpt>
      <trkpt lat="43.3006110" lon="-7.6762360">
        <ele>433.4</ele>
        <time>2021-07-24T11:14:21Z</time>
      </trkpt>
      <trkpt lat="43.3005250" lon="-7.6763730">
        <ele>433.4</ele>
        <time>2021-07-24T11:14:27Z</time>
      </trkpt>
      <trkpt lat="43.3004170" lon="-7.6766140">
        <ele>433.4</ele>
        <time>2021-07-24T11:14:34Z</time>
      </trkpt>
      <trkpt lat="43.3003330" lon="-7.6767940">
        <ele>433.4</ele>
        <time>2021-07-24T11:14:39Z</time>
      </trkpt>
      <trkpt lat="43.3002630" lon="-7.6769670">
        <ele>433.4</ele>
        <time>2021-07-24T11:14:44Z</time>
      </trkpt>
      <trkpt lat="43.3001970" lon="-7.6771260">
        <ele>433.4</ele>
        <time>2021-07-24T11:14:51Z</time>
      </trkpt>
      <trkpt lat="43.3001840" lon="-7.6771440">
        <ele>433.0</ele>
        <time>2021-07-24T11:14:52Z</time>
      </trkpt>
      <trkpt lat="43.3001670" lon="-7.6771620">
        <ele>432.6</ele>
        <time>2021-07-24T11:14:53Z</time>
      </trkpt>
      <trkpt lat="43.3001500" lon="-7.6771840">
        <ele>432.2</ele>
        <time>2021-07-24T11:14:54Z</time>
      </trkpt>
      <trkpt lat="43.3001300" lon="-7.6772090">
        <ele>431.8</ele>
        <time>2021-07-24T11:14:55Z</time>
      </trkpt>
      <trkpt lat="43.3001120" lon="-7.6772370">
        <ele>431.4</ele>
        <time>2021-07-24T11:14:56Z</time>
      </trkpt>
      <trkpt lat="43.3000720" lon="-7.6773010">
        <ele>431.4</ele>
        <time>2021-07-24T11:14:58Z</time>
      </trkpt>
      <trkpt lat="43.2999440" lon="-7.6775740">
        <ele>431.4</ele>
        <time>2021-07-24T11:15:05Z</time>
      </trkpt>
      <trkpt lat="43.2998260" lon="-7.6777900">
        <ele>431.4</ele>
        <time>2021-07-24T11:15:11Z</time>
      </trkpt>
      <trkpt lat="43.2997390" lon="-7.6780710">
        <ele>431.4</ele>
        <time>2021-07-24T11:15:17Z</time>
      </trkpt>
      <trkpt lat="43.2996240" lon="-7.6782870">
        <ele>431.4</ele>
        <time>2021-07-24T11:15:22Z</time>
      </trkpt>
      <trkpt lat="43.2995120" lon="-7.6784710">
        <ele>431.4</ele>
        <time>2021-07-24T11:15:28Z</time>
      </trkpt>
      <trkpt lat="43.2994940" lon="-7.6786340">
        <ele>431.4</ele>
        <time>2021-07-24T11:15:33Z</time>
      </trkpt>
      <trkpt lat="43.2995020" lon="-7.6786750">
        <ele>431.4</ele>
        <time>2021-07-24T11:15:35Z</time>
      </trkpt>
      <trkpt lat="43.2994920" lon="-7.6787490">
        <ele>431.4</ele>
        <time>2021-07-24T11:15:54Z</time>
      </trkpt>
      <trkpt lat="43.2994750" lon="-7.6787670">
        <ele>431.4</ele>
        <time>2021-07-24T11:15:55Z</time>
      </trkpt>
      <trkpt lat="43.2993850" lon="-7.6788510">
        <ele>431.4</ele>
        <time>2021-07-24T11:16:00Z</time>
      </trkpt>
      <trkpt lat="43.2993560" lon="-7.6789110">
        <ele>431.4</ele>
        <time>2021-07-24T11:16:03Z</time>
      </trkpt>
      <trkpt lat="43.2993430" lon="-7.6789850">
        <ele>431.4</ele>
        <time>2021-07-24T11:16:05Z</time>
      </trkpt>
      <trkpt lat="43.2993560" lon="-7.6790850">
        <ele>431.0</ele>
        <time>2021-07-24T11:16:08Z</time>
      </trkpt>
      <trkpt lat="43.2993580" lon="-7.6791090">
        <ele>430.6</ele>
        <time>2021-07-24T11:16:09Z</time>
      </trkpt>
      <trkpt lat="43.2993640" lon="-7.6791260">
        <ele>430.0</ele>
        <time>2021-07-24T11:16:10Z</time>
      </trkpt>
      <trkpt lat="43.2993590" lon="-7.6791360">
        <ele>429.6</ele>
        <time>2021-07-24T11:16:11Z</time>
      </trkpt>
      <trkpt lat="43.2993490" lon="-7.6791510">
        <ele>429.2</ele>
        <time>2021-07-24T11:16:12Z</time>
      </trkpt>
      <trkpt lat="43.2993360" lon="-7.6791750">
        <ele>429.2</ele>
        <time>2021-07-24T11:16:14Z</time>
      </trkpt>
      <trkpt lat="43.2993160" lon="-7.6792030">
        <ele>429.2</ele>
        <time>2021-07-24T11:16:16Z</time>
      </trkpt>
      <trkpt lat="43.2992890" lon="-7.6793080">
        <ele>428.8</ele>
        <time>2021-07-24T11:16:19Z</time>
      </trkpt>
      <trkpt lat="43.2992840" lon="-7.6793550">
        <ele>428.2</ele>
        <time>2021-07-24T11:16:20Z</time>
      </trkpt>
      <trkpt lat="43.2992780" lon="-7.6794010">
        <ele>427.8</ele>
        <time>2021-07-24T11:16:21Z</time>
      </trkpt>
      <trkpt lat="43.2992750" lon="-7.6794350">
        <ele>427.4</ele>
        <time>2021-07-24T11:16:22Z</time>
      </trkpt>
      <trkpt lat="43.2992720" lon="-7.6794720">
        <ele>427.0</ele>
        <time>2021-07-24T11:16:23Z</time>
      </trkpt>
      <trkpt lat="43.2992510" lon="-7.6795880">
        <ele>427.0</ele>
        <time>2021-07-24T11:16:26Z</time>
      </trkpt>
      <trkpt lat="43.2992290" lon="-7.6796680">
        <ele>426.6</ele>
        <time>2021-07-24T11:16:28Z</time>
      </trkpt>
      <trkpt lat="43.2992250" lon="-7.6797040">
        <ele>426.0</ele>
        <time>2021-07-24T11:16:29Z</time>
      </trkpt>
      <trkpt lat="43.2992220" lon="-7.6797350">
        <ele>425.6</ele>
        <time>2021-07-24T11:16:30Z</time>
      </trkpt>
      <trkpt lat="43.2992230" lon="-7.6797630">
        <ele>425.2</ele>
        <time>2021-07-24T11:16:31Z</time>
      </trkpt>
      <trkpt lat="43.2992240" lon="-7.6797910">
        <ele>424.6</ele>
        <time>2021-07-24T11:16:32Z</time>
      </trkpt>
      <trkpt lat="43.2992280" lon="-7.6798760">
        <ele>424.2</ele>
        <time>2021-07-24T11:16:37Z</time>
      </trkpt>
      <trkpt lat="43.2992250" lon="-7.6798860">
        <ele>423.8</ele>
        <time>2021-07-24T11:16:38Z</time>
      </trkpt>
      <trkpt lat="43.2992060" lon="-7.6799220">
        <ele>422.6</ele>
        <time>2021-07-24T11:16:43Z</time>
      </trkpt>
      <trkpt lat="43.2991830" lon="-7.6799700">
        <ele>422.6</ele>
        <time>2021-07-24T11:16:45Z</time>
      </trkpt>
      <trkpt lat="43.2991700" lon="-7.6800000">
        <ele>422.6</ele>
        <time>2021-07-24T11:16:46Z</time>
      </trkpt>
      <trkpt lat="43.2991110" lon="-7.6800530">
        <ele>422.6</ele>
        <time>2021-07-24T11:16:48Z</time>
      </trkpt>
      <trkpt lat="43.2989610" lon="-7.6802600">
        <ele>422.6</ele>
        <time>2021-07-24T11:16:55Z</time>
      </trkpt>
      <trkpt lat="43.2989710" lon="-7.6804260">
        <ele>422.6</ele>
        <time>2021-07-24T11:17:00Z</time>
      </trkpt>
      <trkpt lat="43.2989580" lon="-7.6806500">
        <ele>422.6</ele>
        <time>2021-07-24T11:17:06Z</time>
      </trkpt>
      <trkpt lat="43.2989480" lon="-7.6809970">
        <ele>422.6</ele>
        <time>2021-07-24T11:17:15Z</time>
      </trkpt>
      <trkpt lat="43.2989340" lon="-7.6813000">
        <ele>422.6</ele>
        <time>2021-07-24T11:17:22Z</time>
      </trkpt>
      <trkpt lat="43.2988170" lon="-7.6816570">
        <ele>422.6</ele>
        <time>2021-07-24T11:17:32Z</time>
      </trkpt>
      <trkpt lat="43.2987410" lon="-7.6819110">
        <ele>422.6</ele>
        <time>2021-07-24T11:17:39Z</time>
      </trkpt>
      <trkpt lat="43.2986810" lon="-7.6821900">
        <ele>422.6</ele>
        <time>2021-07-24T11:17:46Z</time>
      </trkpt>
      <trkpt lat="43.2986750" lon="-7.6823860">
        <ele>422.6</ele>
        <time>2021-07-24T11:17:52Z</time>
      </trkpt>
      <trkpt lat="43.2985610" lon="-7.6825720">
        <ele>423.0</ele>
        <time>2021-07-24T11:17:59Z</time>
      </trkpt>
      <trkpt lat="43.2985490" lon="-7.6826040">
        <ele>423.4</ele>
        <time>2021-07-24T11:18:00Z</time>
      </trkpt>
      <trkpt lat="43.2985370" lon="-7.6826340">
        <ele>423.8</ele>
        <time>2021-07-24T11:18:01Z</time>
      </trkpt>
      <trkpt lat="43.2985240" lon="-7.6826600">
        <ele>424.2</ele>
        <time>2021-07-24T11:18:02Z</time>
      </trkpt>
      <trkpt lat="43.2985210" lon="-7.6826880">
        <ele>424.6</ele>
        <time>2021-07-24T11:18:03Z</time>
      </trkpt>
      <trkpt lat="43.2984770" lon="-7.6827910">
        <ele>424.6</ele>
        <time>2021-07-24T11:18:08Z</time>
      </trkpt>
      <trkpt lat="43.2984410" lon="-7.6828720">
        <ele>424.6</ele>
        <time>2021-07-24T11:18:12Z</time>
      </trkpt>
      <trkpt lat="43.2984570" lon="-7.6829170">
        <ele>424.6</ele>
        <time>2021-07-24T11:18:14Z</time>
      </trkpt>
      <trkpt lat="43.2985400" lon="-7.6830290">
        <ele>424.6</ele>
        <time>2021-07-24T11:18:19Z</time>
      </trkpt>
      <trkpt lat="43.2986080" lon="-7.6831670">
        <ele>424.6</ele>
        <time>2021-07-24T11:18:25Z</time>
      </trkpt>
      <trkpt lat="43.2985970" lon="-7.6832930">
        <ele>424.6</ele>
        <time>2021-07-24T11:18:29Z</time>
      </trkpt>
      <trkpt lat="43.2984800" lon="-7.6833880">
        <ele>424.6</ele>
        <time>2021-07-24T11:18:34Z</time>
      </trkpt>
      <trkpt lat="43.2982710" lon="-7.6835240">
        <ele>424.6</ele>
        <time>2021-07-24T11:18:41Z</time>
      </trkpt>
      <trkpt lat="43.2981470" lon="-7.6835810">
        <ele>424.6</ele>
        <time>2021-07-24T11:18:46Z</time>
      </trkpt>
      <trkpt lat="43.2980820" lon="-7.6836150">
        <ele>424.2</ele>
        <time>2021-07-24T11:18:49Z</time>
      </trkpt>
      <trkpt lat="43.2980730" lon="-7.6836370">
        <ele>423.8</ele>
        <time>2021-07-24T11:18:50Z</time>
      </trkpt>
      <trkpt lat="43.2980670" lon="-7.6836580">
        <ele>423.4</ele>
        <time>2021-07-24T11:18:51Z</time>
      </trkpt>
      <trkpt lat="43.2980580" lon="-7.6836740">
        <ele>422.8</ele>
        <time>2021-07-24T11:18:52Z</time>
      </trkpt>
      <trkpt lat="43.2980530" lon="-7.6836850">
        <ele>422.4</ele>
        <time>2021-07-24T11:18:53Z</time>
      </trkpt>
      <trkpt lat="43.2979930" lon="-7.6837620">
        <ele>422.4</ele>
        <time>2021-07-24T11:18:57Z</time>
      </trkpt>
      <trkpt lat="43.2979770" lon="-7.6837900">
        <ele>422.0</ele>
        <time>2021-07-24T11:18:58Z</time>
      </trkpt>
      <trkpt lat="43.2979640" lon="-7.6838180">
        <ele>421.6</ele>
        <time>2021-07-24T11:18:59Z</time>
      </trkpt>
      <trkpt lat="43.2979510" lon="-7.6838380">
        <ele>421.0</ele>
        <time>2021-07-24T11:19:00Z</time>
      </trkpt>
      <trkpt lat="43.2979360" lon="-7.6838570">
        <ele>420.6</ele>
        <time>2021-07-24T11:19:01Z</time>
      </trkpt>
      <trkpt lat="43.2979230" lon="-7.6838710">
        <ele>420.2</ele>
        <time>2021-07-24T11:19:02Z</time>
      </trkpt>
      <trkpt lat="43.2979090" lon="-7.6838870">
        <ele>420.2</ele>
        <time>2021-07-24T11:19:03Z</time>
      </trkpt>
      <trkpt lat="43.2978770" lon="-7.6839000">
        <ele>419.8</ele>
        <time>2021-07-24T11:19:05Z</time>
      </trkpt>
      <trkpt lat="43.2978630" lon="-7.6838950">
        <ele>419.4</ele>
        <time>2021-07-24T11:19:06Z</time>
      </trkpt>
      <trkpt lat="43.2978540" lon="-7.6838920">
        <ele>419.0</ele>
        <time>2021-07-24T11:19:07Z</time>
      </trkpt>
      <trkpt lat="43.2978490" lon="-7.6839020">
        <ele>418.2</ele>
        <time>2021-07-24T11:19:08Z</time>
      </trkpt>
      <trkpt lat="43.2978370" lon="-7.6839180">
        <ele>418.2</ele>
        <time>2021-07-24T11:19:09Z</time>
      </trkpt>
      <trkpt lat="43.2977950" lon="-7.6840080">
        <ele>418.2</ele>
        <time>2021-07-24T11:19:12Z</time>
      </trkpt>
      <trkpt lat="43.2977740" lon="-7.6840440">
        <ele>418.2</ele>
        <time>2021-07-24T11:19:13Z</time>
      </trkpt>
      <trkpt lat="43.2977150" lon="-7.6841380">
        <ele>417.8</ele>
        <time>2021-07-24T11:19:16Z</time>
      </trkpt>
      <trkpt lat="43.2976970" lon="-7.6841620">
        <ele>417.4</ele>
        <time>2021-07-24T11:19:17Z</time>
      </trkpt>
      <trkpt lat="43.2976830" lon="-7.6841870">
        <ele>417.0</ele>
        <time>2021-07-24T11:19:18Z</time>
      </trkpt>
      <trkpt lat="43.2976700" lon="-7.6842080">
        <ele>416.6</ele>
        <time>2021-07-24T11:19:19Z</time>
      </trkpt>
      <trkpt lat="43.2976630" lon="-7.6842310">
        <ele>416.2</ele>
        <time>2021-07-24T11:19:20Z</time>
      </trkpt>
      <trkpt lat="43.2976150" lon="-7.6843620">
        <ele>416.2</ele>
        <time>2021-07-24T11:19:25Z</time>
      </trkpt>
      <trkpt lat="43.2975920" lon="-7.6843770">
        <ele>416.2</ele>
        <time>2021-07-24T11:19:26Z</time>
      </trkpt>
      <trkpt lat="43.2975660" lon="-7.6843980">
        <ele>415.8</ele>
        <time>2021-07-24T11:19:27Z</time>
      </trkpt>
      <trkpt lat="43.2975380" lon="-7.6844190">
        <ele>415.4</ele>
        <time>2021-07-24T11:19:28Z</time>
      </trkpt>
      <trkpt lat="43.2975040" lon="-7.6844450">
        <ele>415.0</ele>
        <time>2021-07-24T11:19:29Z</time>
      </trkpt>
      <trkpt lat="43.2974670" lon="-7.6844600">
        <ele>414.6</ele>
        <time>2021-07-24T11:19:30Z</time>
      </trkpt>
      <trkpt lat="43.2974180" lon="-7.6844720">
        <ele>414.0</ele>
        <time>2021-07-24T11:19:31Z</time>
      </trkpt>
      <trkpt lat="43.2973260" lon="-7.6844790">
        <ele>414.0</ele>
        <time>2021-07-24T11:19:33Z</time>
      </trkpt>
      <trkpt lat="43.2972780" lon="-7.6844860">
        <ele>413.6</ele>
        <time>2021-07-24T11:19:34Z</time>
      </trkpt>
      <trkpt lat="43.2972320" lon="-7.6845000">
        <ele>413.2</ele>
        <time>2021-07-24T11:19:35Z</time>
      </trkpt>
      <trkpt lat="43.2971840" lon="-7.6845170">
        <ele>412.8</ele>
        <time>2021-07-24T11:19:36Z</time>
      </trkpt>
      <trkpt lat="43.2971440" lon="-7.6845300">
        <ele>412.4</ele>
        <time>2021-07-24T11:19:37Z</time>
      </trkpt>
      <trkpt lat="43.2971050" lon="-7.6845420">
        <ele>412.0</ele>
        <time>2021-07-24T11:19:38Z</time>
      </trkpt>
      <trkpt lat="43.2970680" lon="-7.6845570">
        <ele>412.0</ele>
        <time>2021-07-24T11:19:39Z</time>
      </trkpt>
      <trkpt lat="43.2969380" lon="-7.6846310">
        <ele>411.6</ele>
        <time>2021-07-24T11:19:43Z</time>
      </trkpt>
      <trkpt lat="43.2969110" lon="-7.6846400">
        <ele>411.2</ele>
        <time>2021-07-24T11:19:44Z</time>
      </trkpt>
      <trkpt lat="43.2968820" lon="-7.6846440">
        <ele>410.8</ele>
        <time>2021-07-24T11:19:45Z</time>
      </trkpt>
      <trkpt lat="43.2968560" lon="-7.6846510">
        <ele>410.4</ele>
        <time>2021-07-24T11:19:46Z</time>
      </trkpt>
      <trkpt lat="43.2968320" lon="-7.6846550">
        <ele>410.0</ele>
        <time>2021-07-24T11:19:47Z</time>
      </trkpt>
      <trkpt lat="43.2967100" lon="-7.6846780">
        <ele>410.0</ele>
        <time>2021-07-24T11:19:52Z</time>
      </trkpt>
      <trkpt lat="43.2965750" lon="-7.6847530">
        <ele>410.0</ele>
        <time>2021-07-24T11:19:57Z</time>
      </trkpt>
      <trkpt lat="43.2963680" lon="-7.6848220">
        <ele>410.0</ele>
        <time>2021-07-24T11:20:04Z</time>
      </trkpt>
      <trkpt lat="43.2961740" lon="-7.6848520">
        <ele>410.0</ele>
        <time>2021-07-24T11:20:10Z</time>
      </trkpt>
      <trkpt lat="43.2959530" lon="-7.6848050">
        <ele>410.0</ele>
        <time>2021-07-24T11:20:16Z</time>
      </trkpt>
      <trkpt lat="43.2957980" lon="-7.6847660">
        <ele>410.0</ele>
        <time>2021-07-24T11:20:22Z</time>
      </trkpt>
      <trkpt lat="43.2956510" lon="-7.6847760">
        <ele>409.4</ele>
        <time>2021-07-24T11:20:28Z</time>
      </trkpt>
      <trkpt lat="43.2956230" lon="-7.6847850">
        <ele>409.0</ele>
        <time>2021-07-24T11:20:29Z</time>
      </trkpt>
      <trkpt lat="43.2955940" lon="-7.6847970">
        <ele>408.6</ele>
        <time>2021-07-24T11:20:30Z</time>
      </trkpt>
      <trkpt lat="43.2955620" lon="-7.6848150">
        <ele>408.2</ele>
        <time>2021-07-24T11:20:31Z</time>
      </trkpt>
      <trkpt lat="43.2955330" lon="-7.6848270">
        <ele>407.8</ele>
        <time>2021-07-24T11:20:32Z</time>
      </trkpt>
      <trkpt lat="43.2954750" lon="-7.6848460">
        <ele>407.4</ele>
        <time>2021-07-24T11:20:34Z</time>
      </trkpt>
      <trkpt lat="43.2954500" lon="-7.6848560">
        <ele>407.0</ele>
        <time>2021-07-24T11:20:35Z</time>
      </trkpt>
      <trkpt lat="43.2954210" lon="-7.6848670">
        <ele>406.6</ele>
        <time>2021-07-24T11:20:36Z</time>
      </trkpt>
      <trkpt lat="43.2953930" lon="-7.6848790">
        <ele>406.0</ele>
        <time>2021-07-24T11:20:37Z</time>
      </trkpt>
      <trkpt lat="43.2953630" lon="-7.6848860">
        <ele>405.6</ele>
        <time>2021-07-24T11:20:38Z</time>
      </trkpt>
      <trkpt lat="43.2953090" lon="-7.6849090">
        <ele>405.2</ele>
        <time>2021-07-24T11:20:40Z</time>
      </trkpt>
      <trkpt lat="43.2952770" lon="-7.6849120">
        <ele>404.8</ele>
        <time>2021-07-24T11:20:41Z</time>
      </trkpt>
      <trkpt lat="43.2952430" lon="-7.6849090">
        <ele>404.4</ele>
        <time>2021-07-24T11:20:42Z</time>
      </trkpt>
      <trkpt lat="43.2952090" lon="-7.6849080">
        <ele>404.0</ele>
        <time>2021-07-24T11:20:43Z</time>
      </trkpt>
      <trkpt lat="43.2951750" lon="-7.6849010">
        <ele>403.4</ele>
        <time>2021-07-24T11:20:44Z</time>
      </trkpt>
      <trkpt lat="43.2951390" lon="-7.6848870">
        <ele>403.0</ele>
        <time>2021-07-24T11:20:45Z</time>
      </trkpt>
      <trkpt lat="43.2950970" lon="-7.6848710">
        <ele>402.4</ele>
        <time>2021-07-24T11:20:46Z</time>
      </trkpt>
      <trkpt lat="43.2950510" lon="-7.6848530">
        <ele>401.4</ele>
        <time>2021-07-24T11:20:47Z</time>
      </trkpt>
      <trkpt lat="43.2950050" lon="-7.6848290">
        <ele>401.0</ele>
        <time>2021-07-24T11:20:48Z</time>
      </trkpt>
      <trkpt lat="43.2949580" lon="-7.6848000">
        <ele>400.4</ele>
        <time>2021-07-24T11:20:49Z</time>
      </trkpt>
      <trkpt lat="43.2949070" lon="-7.6847750">
        <ele>400.0</ele>
        <time>2021-07-24T11:20:50Z</time>
      </trkpt>
      <trkpt lat="43.2948530" lon="-7.6847600">
        <ele>399.4</ele>
        <time>2021-07-24T11:20:51Z</time>
      </trkpt>
      <trkpt lat="43.2947990" lon="-7.6847530">
        <ele>399.4</ele>
        <time>2021-07-24T11:20:52Z</time>
      </trkpt>
      <trkpt lat="43.2946900" lon="-7.6847450">
        <ele>399.0</ele>
        <time>2021-07-24T11:20:54Z</time>
      </trkpt>
      <trkpt lat="43.2946410" lon="-7.6847430">
        <ele>398.6</ele>
        <time>2021-07-24T11:20:55Z</time>
      </trkpt>
      <trkpt lat="43.2945950" lon="-7.6847450">
        <ele>398.2</ele>
        <time>2021-07-24T11:20:56Z</time>
      </trkpt>
      <trkpt lat="43.2945470" lon="-7.6847470">
        <ele>397.8</ele>
        <time>2021-07-24T11:20:57Z</time>
      </trkpt>
      <trkpt lat="43.2945010" lon="-7.6847450">
        <ele>397.4</ele>
        <time>2021-07-24T11:20:58Z</time>
      </trkpt>
      <trkpt lat="43.2943720" lon="-7.6847720">
        <ele>397.4</ele>
        <time>2021-07-24T11:21:02Z</time>
      </trkpt>
      <trkpt lat="43.2943430" lon="-7.6847920">
        <ele>397.4</ele>
        <time>2021-07-24T11:21:03Z</time>
      </trkpt>
      <trkpt lat="43.2942770" lon="-7.6848410">
        <ele>397.0</ele>
        <time>2021-07-24T11:21:05Z</time>
      </trkpt>
      <trkpt lat="43.2942430" lon="-7.6848720">
        <ele>396.4</ele>
        <time>2021-07-24T11:21:06Z</time>
      </trkpt>
      <trkpt lat="43.2942100" lon="-7.6849050">
        <ele>396.0</ele>
        <time>2021-07-24T11:21:07Z</time>
      </trkpt>
      <trkpt lat="43.2941740" lon="-7.6849390">
        <ele>395.6</ele>
        <time>2021-07-24T11:21:08Z</time>
      </trkpt>
      <trkpt lat="43.2941380" lon="-7.6849700">
        <ele>395.2</ele>
        <time>2021-07-24T11:21:09Z</time>
      </trkpt>
      <trkpt lat="43.2940930" lon="-7.6849920">
        <ele>394.6</ele>
        <time>2021-07-24T11:21:10Z</time>
      </trkpt>
      <trkpt lat="43.2940430" lon="-7.6850140">
        <ele>394.2</ele>
        <time>2021-07-24T11:21:11Z</time>
      </trkpt>
      <trkpt lat="43.2939880" lon="-7.6850370">
        <ele>393.2</ele>
        <time>2021-07-24T11:21:12Z</time>
      </trkpt>
      <trkpt lat="43.2938130" lon="-7.6851080">
        <ele>392.6</ele>
        <time>2021-07-24T11:21:15Z</time>
      </trkpt>
      <trkpt lat="43.2937540" lon="-7.6851380">
        <ele>392.2</ele>
        <time>2021-07-24T11:21:16Z</time>
      </trkpt>
      <trkpt lat="43.2937040" lon="-7.6851640">
        <ele>391.8</ele>
        <time>2021-07-24T11:21:17Z</time>
      </trkpt>
      <trkpt lat="43.2936510" lon="-7.6851930">
        <ele>391.4</ele>
        <time>2021-07-24T11:21:18Z</time>
      </trkpt>
      <trkpt lat="43.2936000" lon="-7.6852220">
        <ele>391.0</ele>
        <time>2021-07-24T11:21:19Z</time>
      </trkpt>
      <trkpt lat="43.2935490" lon="-7.6852410">
        <ele>391.0</ele>
        <time>2021-07-24T11:21:20Z</time>
      </trkpt>
      <trkpt lat="43.2935020" lon="-7.6852580">
        <ele>390.6</ele>
        <time>2021-07-24T11:21:21Z</time>
      </trkpt>
      <trkpt lat="43.2934520" lon="-7.6852660">
        <ele>390.2</ele>
        <time>2021-07-24T11:21:22Z</time>
      </trkpt>
      <trkpt lat="43.2934020" lon="-7.6852690">
        <ele>389.8</ele>
        <time>2021-07-24T11:21:23Z</time>
      </trkpt>
      <trkpt lat="43.2933680" lon="-7.6852750">
        <ele>389.4</ele>
        <time>2021-07-24T11:21:24Z</time>
      </trkpt>
      <trkpt lat="43.2933470" lon="-7.6852990">
        <ele>389.0</ele>
        <time>2021-07-24T11:21:25Z</time>
      </trkpt>
      <trkpt lat="43.2933060" lon="-7.6853930">
        <ele>389.0</ele>
        <time>2021-07-24T11:21:27Z</time>
      </trkpt>
      <trkpt lat="43.2932820" lon="-7.6854530">
        <ele>389.0</ele>
        <time>2021-07-24T11:21:28Z</time>
      </trkpt>
      <trkpt lat="43.2931890" lon="-7.6856600">
        <ele>389.0</ele>
        <time>2021-07-24T11:21:31Z</time>
      </trkpt>
      <trkpt lat="43.2931010" lon="-7.6858230">
        <ele>388.4</ele>
        <time>2021-07-24T11:21:33Z</time>
      </trkpt>
      <trkpt lat="43.2930560" lon="-7.6859010">
        <ele>388.0</ele>
        <time>2021-07-24T11:21:34Z</time>
      </trkpt>
      <trkpt lat="43.2930120" lon="-7.6859750">
        <ele>387.6</ele>
        <time>2021-07-24T11:21:35Z</time>
      </trkpt>
      <trkpt lat="43.2929640" lon="-7.6860570">
        <ele>386.6</ele>
        <time>2021-07-24T11:21:36Z</time>
      </trkpt>
      <trkpt lat="43.2928630" lon="-7.6862120">
        <ele>386.2</ele>
        <time>2021-07-24T11:21:38Z</time>
      </trkpt>
      <trkpt lat="43.2928110" lon="-7.6862740">
        <ele>385.8</ele>
        <time>2021-07-24T11:21:39Z</time>
      </trkpt>
      <trkpt lat="43.2927530" lon="-7.6863340">
        <ele>385.2</ele>
        <time>2021-07-24T11:21:40Z</time>
      </trkpt>
      <trkpt lat="43.2927010" lon="-7.6863870">
        <ele>384.8</ele>
        <time>2021-07-24T11:21:41Z</time>
      </trkpt>
      <trkpt lat="43.2926490" lon="-7.6864340">
        <ele>384.2</ele>
        <time>2021-07-24T11:21:42Z</time>
      </trkpt>
      <trkpt lat="43.2926040" lon="-7.6864680">
        <ele>383.8</ele>
        <time>2021-07-24T11:21:43Z</time>
      </trkpt>
      <trkpt lat="43.2925700" lon="-7.6864940">
        <ele>383.2</ele>
        <time>2021-07-24T11:21:44Z</time>
      </trkpt>
      <trkpt lat="43.2925400" lon="-7.6865110">
        <ele>382.6</ele>
        <time>2021-07-24T11:21:45Z</time>
      </trkpt>
      <trkpt lat="43.2925140" lon="-7.6865280">
        <ele>382.2</ele>
        <time>2021-07-24T11:21:46Z</time>
      </trkpt>
      <trkpt lat="43.2924790" lon="-7.6865430">
        <ele>381.6</ele>
        <time>2021-07-24T11:21:47Z</time>
      </trkpt>
      <trkpt lat="43.2924430" lon="-7.6865570">
        <ele>381.0</ele>
        <time>2021-07-24T11:21:48Z</time>
      </trkpt>
      <trkpt lat="43.2924040" lon="-7.6865720">
        <ele>380.4</ele>
        <time>2021-07-24T11:21:49Z</time>
      </trkpt>
      <trkpt lat="43.2923650" lon="-7.6865870">
        <ele>379.8</ele>
        <time>2021-07-24T11:21:50Z</time>
      </trkpt>
      <trkpt lat="43.2923170" lon="-7.6866020">
        <ele>379.8</ele>
        <time>2021-07-24T11:21:51Z</time>
      </trkpt>
      <trkpt lat="43.2922700" lon="-7.6866270">
        <ele>379.8</ele>
        <time>2021-07-24T11:21:52Z</time>
      </trkpt>
      <trkpt lat="43.2920560" lon="-7.6867190">
        <ele>379.4</ele>
        <time>2021-07-24T11:21:56Z</time>
      </trkpt>
      <trkpt lat="43.2919960" lon="-7.6867490">
        <ele>379.0</ele>
        <time>2021-07-24T11:21:57Z</time>
      </trkpt>
      <trkpt lat="43.2919390" lon="-7.6867840">
        <ele>378.6</ele>
        <time>2021-07-24T11:21:58Z</time>
      </trkpt>
      <trkpt lat="43.2918790" lon="-7.6868160">
        <ele>378.2</ele>
        <time>2021-07-24T11:21:59Z</time>
      </trkpt>
      <trkpt lat="43.2918160" lon="-7.6868480">
        <ele>377.8</ele>
        <time>2021-07-24T11:22:00Z</time>
      </trkpt>
      <trkpt lat="43.2917500" lon="-7.6868830">
        <ele>377.4</ele>
        <time>2021-07-24T11:22:01Z</time>
      </trkpt>
      <trkpt lat="43.2916840" lon="-7.6869250">
        <ele>377.0</ele>
        <time>2021-07-24T11:22:02Z</time>
      </trkpt>
      <trkpt lat="43.2916200" lon="-7.6869560">
        <ele>376.6</ele>
        <time>2021-07-24T11:22:03Z</time>
      </trkpt>
      <trkpt lat="43.2915610" lon="-7.6869880">
        <ele>376.2</ele>
        <time>2021-07-24T11:22:04Z</time>
      </trkpt>
      <trkpt lat="43.2915060" lon="-7.6870190">
        <ele>375.8</ele>
        <time>2021-07-24T11:22:05Z</time>
      </trkpt>
      <trkpt lat="43.2914560" lon="-7.6870450">
        <ele>375.4</ele>
        <time>2021-07-24T11:22:06Z</time>
      </trkpt>
      <trkpt lat="43.2914120" lon="-7.6870660">
        <ele>375.0</ele>
        <time>2021-07-24T11:22:07Z</time>
      </trkpt>
      <trkpt lat="43.2913730" lon="-7.6870890">
        <ele>374.6</ele>
        <time>2021-07-24T11:22:08Z</time>
      </trkpt>
      <trkpt lat="43.2913350" lon="-7.6871220">
        <ele>374.2</ele>
        <time>2021-07-24T11:22:09Z</time>
      </trkpt>
      <trkpt lat="43.2913010" lon="-7.6871720">
        <ele>373.8</ele>
        <time>2021-07-24T11:22:10Z</time>
      </trkpt>
      <trkpt lat="43.2912540" lon="-7.6873560">
        <ele>373.8</ele>
        <time>2021-07-24T11:22:13Z</time>
      </trkpt>
      <trkpt lat="43.2912520" lon="-7.6874150">
        <ele>373.2</ele>
        <time>2021-07-24T11:22:14Z</time>
      </trkpt>
      <trkpt lat="43.2912500" lon="-7.6874720">
        <ele>372.8</ele>
        <time>2021-07-24T11:22:15Z</time>
      </trkpt>
      <trkpt lat="43.2912480" lon="-7.6875300">
        <ele>372.4</ele>
        <time>2021-07-24T11:22:16Z</time>
      </trkpt>
      <trkpt lat="43.2912490" lon="-7.6875860">
        <ele>372.0</ele>
        <time>2021-07-24T11:22:17Z</time>
      </trkpt>
      <trkpt lat="43.2912500" lon="-7.6876420">
        <ele>371.4</ele>
        <time>2021-07-24T11:22:18Z</time>
      </trkpt>
      <trkpt lat="43.2912470" lon="-7.6876870">
        <ele>371.4</ele>
        <time>2021-07-24T11:22:19Z</time>
      </trkpt>
      <trkpt lat="43.2912730" lon="-7.6878160">
        <ele>371.4</ele>
        <time>2021-07-24T11:22:23Z</time>
      </trkpt>
      <trkpt lat="43.2913070" lon="-7.6878550">
        <ele>371.4</ele>
        <time>2021-07-24T11:22:25Z</time>
      </trkpt>
      <trkpt lat="43.2913350" lon="-7.6878840">
        <ele>371.4</ele>
        <time>2021-07-24T11:22:27Z</time>
      </trkpt>
      <trkpt lat="43.2914370" lon="-7.6880110">
        <ele>371.4</ele>
        <time>2021-07-24T11:22:34Z</time>
      </trkpt>
      <trkpt lat="43.2914370" lon="-7.6881610">
        <ele>371.8</ele>
        <time>2021-07-24T11:22:41Z</time>
      </trkpt>
      <trkpt lat="43.2914350" lon="-7.6881800">
        <ele>372.2</ele>
        <time>2021-07-24T11:22:42Z</time>
      </trkpt>
      <trkpt lat="43.2914360" lon="-7.6882000">
        <ele>372.8</ele>
        <time>2021-07-24T11:22:43Z</time>
      </trkpt>
      <trkpt lat="43.2914390" lon="-7.6882210">
        <ele>373.2</ele>
        <time>2021-07-24T11:22:44Z</time>
      </trkpt>
      <trkpt lat="43.2914390" lon="-7.6882440">
        <ele>373.6</ele>
        <time>2021-07-24T11:22:45Z</time>
      </trkpt>
      <trkpt lat="43.2914330" lon="-7.6883010">
        <ele>374.0</ele>
        <time>2021-07-24T11:22:48Z</time>
      </trkpt>
      <trkpt lat="43.2914290" lon="-7.6883230">
        <ele>374.4</ele>
        <time>2021-07-24T11:22:49Z</time>
      </trkpt>
      <trkpt lat="43.2914290" lon="-7.6883440">
        <ele>374.8</ele>
        <time>2021-07-24T11:22:50Z</time>
      </trkpt>
      <trkpt lat="43.2914270" lon="-7.6883630">
        <ele>375.6</ele>
        <time>2021-07-24T11:22:51Z</time>
      </trkpt>
      <trkpt lat="43.2914120" lon="-7.6884590">
        <ele>376.0</ele>
        <time>2021-07-24T11:22:56Z</time>
      </trkpt>
      <trkpt lat="43.2914080" lon="-7.6884770">
        <ele>376.4</ele>
        <time>2021-07-24T11:22:57Z</time>
      </trkpt>
      <trkpt lat="43.2914010" lon="-7.6884920">
        <ele>376.8</ele>
        <time>2021-07-24T11:22:58Z</time>
      </trkpt>
      <trkpt lat="43.2913940" lon="-7.6885100">
        <ele>377.2</ele>
        <time>2021-07-24T11:22:59Z</time>
      </trkpt>
      <trkpt lat="43.2913890" lon="-7.6885270">
        <ele>377.6</ele>
        <time>2021-07-24T11:23:00Z</time>
      </trkpt>
      <trkpt lat="43.2913490" lon="-7.6886610">
        <ele>377.6</ele>
        <time>2021-07-24T11:23:07Z</time>
      </trkpt>
      <trkpt lat="43.2913520" lon="-7.6887040">
        <ele>378.0</ele>
        <time>2021-07-24T11:23:09Z</time>
      </trkpt>
      <trkpt lat="43.2913510" lon="-7.6887260">
        <ele>378.4</ele>
        <time>2021-07-24T11:23:10Z</time>
      </trkpt>
      <trkpt lat="43.2913500" lon="-7.6887470">
        <ele>378.8</ele>
        <time>2021-07-24T11:23:11Z</time>
      </trkpt>
      <trkpt lat="43.2913470" lon="-7.6887710">
        <ele>379.4</ele>
        <time>2021-07-24T11:23:12Z</time>
      </trkpt>
      <trkpt lat="43.2913410" lon="-7.6888010">
        <ele>379.8</ele>
        <time>2021-07-24T11:23:13Z</time>
      </trkpt>
      <trkpt lat="43.2913100" lon="-7.6889720">
        <ele>379.8</ele>
        <time>2021-07-24T11:23:20Z</time>
      </trkpt>
      <trkpt lat="43.2912830" lon="-7.6891370">
        <ele>380.2</ele>
        <time>2021-07-24T11:23:28Z</time>
      </trkpt>
      <trkpt lat="43.2912790" lon="-7.6891530">
        <ele>380.6</ele>
        <time>2021-07-24T11:23:29Z</time>
      </trkpt>
      <trkpt lat="43.2912740" lon="-7.6891660">
        <ele>381.0</ele>
        <time>2021-07-24T11:23:30Z</time>
      </trkpt>
      <trkpt lat="43.2912710" lon="-7.6891800">
        <ele>381.4</ele>
        <time>2021-07-24T11:23:31Z</time>
      </trkpt>
      <trkpt lat="43.2912700" lon="-7.6891940">
        <ele>381.8</ele>
        <time>2021-07-24T11:23:32Z</time>
      </trkpt>
      <trkpt lat="43.2912590" lon="-7.6892690">
        <ele>381.8</ele>
        <time>2021-07-24T11:23:37Z</time>
      </trkpt>
      <trkpt lat="43.2912430" lon="-7.6893290">
        <ele>382.2</ele>
        <time>2021-07-24T11:23:41Z</time>
      </trkpt>
      <trkpt lat="43.2912390" lon="-7.6893460">
        <ele>382.6</ele>
        <time>2021-07-24T11:23:42Z</time>
      </trkpt>
      <trkpt lat="43.2912330" lon="-7.6893610">
        <ele>383.2</ele>
        <time>2021-07-24T11:23:43Z</time>
      </trkpt>
      <trkpt lat="43.2912290" lon="-7.6893780">
        <ele>383.6</ele>
        <time>2021-07-24T11:23:44Z</time>
      </trkpt>
      <trkpt lat="43.2912250" lon="-7.6893940">
        <ele>384.0</ele>
        <time>2021-07-24T11:23:45Z</time>
      </trkpt>
      <trkpt lat="43.2911820" lon="-7.6894640">
        <ele>384.0</ele>
        <time>2021-07-24T11:23:52Z</time>
      </trkpt>
      <trkpt lat="43.2911720" lon="-7.6894800">
        <ele>384.0</ele>
        <time>2021-07-24T11:23:54Z</time>
      </trkpt>
      <trkpt lat="43.2910940" lon="-7.6895250">
        <ele>384.0</ele>
        <time>2021-07-24T11:24:00Z</time>
      </trkpt>
      <trkpt lat="43.2910490" lon="-7.6895420">
        <ele>384.4</ele>
        <time>2021-07-24T11:24:02Z</time>
      </trkpt>
      <trkpt lat="43.2910330" lon="-7.6895570">
        <ele>384.8</ele>
        <time>2021-07-24T11:24:03Z</time>
      </trkpt>
      <trkpt lat="43.2910150" lon="-7.6895750">
        <ele>385.2</ele>
        <time>2021-07-24T11:24:04Z</time>
      </trkpt>
      <trkpt lat="43.2909970" lon="-7.6895910">
        <ele>386.0</ele>
        <time>2021-07-24T11:24:05Z</time>
      </trkpt>
      <trkpt lat="43.2909510" lon="-7.6896470">
        <ele>386.0</ele>
        <time>2021-07-24T11:24:08Z</time>
      </trkpt>
      <trkpt lat="43.2908400" lon="-7.6897580">
        <ele>386.0</ele>
        <time>2021-07-24T11:24:14Z</time>
      </trkpt>
      <trkpt lat="43.2908050" lon="-7.6897920">
        <ele>386.4</ele>
        <time>2021-07-24T11:24:17Z</time>
      </trkpt>
      <trkpt lat="43.2907820" lon="-7.6898080">
        <ele>386.8</ele>
        <time>2021-07-24T11:24:18Z</time>
      </trkpt>
      <trkpt lat="43.2907620" lon="-7.6898240">
        <ele>387.2</ele>
        <time>2021-07-24T11:24:19Z</time>
      </trkpt>
      <trkpt lat="43.2907460" lon="-7.6898350">
        <ele>387.6</ele>
        <time>2021-07-24T11:24:20Z</time>
      </trkpt>
      <trkpt lat="43.2907360" lon="-7.6898450">
        <ele>388.0</ele>
        <time>2021-07-24T11:24:21Z</time>
      </trkpt>
      <trkpt lat="43.2906250" lon="-7.6899100">
        <ele>388.0</ele>
        <time>2021-07-24T11:24:26Z</time>
      </trkpt>
      <trkpt lat="43.2905610" lon="-7.6899770">
        <ele>388.4</ele>
        <time>2021-07-24T11:24:30Z</time>
      </trkpt>
      <trkpt lat="43.2905460" lon="-7.6899970">
        <ele>388.8</ele>
        <time>2021-07-24T11:24:31Z</time>
      </trkpt>
      <trkpt lat="43.2905270" lon="-7.6900090">
        <ele>389.2</ele>
        <time>2021-07-24T11:24:32Z</time>
      </trkpt>
      <trkpt lat="43.2905100" lon="-7.6900240">
        <ele>389.6</ele>
        <time>2021-07-24T11:24:33Z</time>
      </trkpt>
      <trkpt lat="43.2904920" lon="-7.6900300">
        <ele>390.0</ele>
        <time>2021-07-24T11:24:34Z</time>
      </trkpt>
      <trkpt lat="43.2904100" lon="-7.6900920">
        <ele>390.0</ele>
        <time>2021-07-24T11:24:39Z</time>
      </trkpt>
      <trkpt lat="43.2903420" lon="-7.6901560">
        <ele>390.4</ele>
        <time>2021-07-24T11:24:44Z</time>
      </trkpt>
      <trkpt lat="43.2903260" lon="-7.6901680">
        <ele>390.8</ele>
        <time>2021-07-24T11:24:45Z</time>
      </trkpt>
      <trkpt lat="43.2903140" lon="-7.6901850">
        <ele>391.2</ele>
        <time>2021-07-24T11:24:46Z</time>
      </trkpt>
      <trkpt lat="43.2903000" lon="-7.6902010">
        <ele>391.6</ele>
        <time>2021-07-24T11:24:47Z</time>
      </trkpt>
      <trkpt lat="43.2902870" lon="-7.6902160">
        <ele>392.0</ele>
        <time>2021-07-24T11:24:48Z</time>
      </trkpt>
      <trkpt lat="43.2901720" lon="-7.6903120">
        <ele>392.0</ele>
        <time>2021-07-24T11:24:55Z</time>
      </trkpt>
      <trkpt lat="43.2901600" lon="-7.6903200">
        <ele>392.4</ele>
        <time>2021-07-24T11:24:56Z</time>
      </trkpt>
      <trkpt lat="43.2901460" lon="-7.6903350">
        <ele>392.8</ele>
        <time>2021-07-24T11:24:57Z</time>
      </trkpt>
      <trkpt lat="43.2901320" lon="-7.6903470">
        <ele>393.2</ele>
        <time>2021-07-24T11:24:58Z</time>
      </trkpt>
      <trkpt lat="43.2901170" lon="-7.6903600">
        <ele>393.6</ele>
        <time>2021-07-24T11:24:59Z</time>
      </trkpt>
      <trkpt lat="43.2901040" lon="-7.6903770">
        <ele>394.2</ele>
        <time>2021-07-24T11:25:00Z</time>
      </trkpt>
      <trkpt lat="43.2900840" lon="-7.6904050">
        <ele>394.2</ele>
        <time>2021-07-24T11:25:02Z</time>
      </trkpt>
      <trkpt lat="43.2899900" lon="-7.6904870">
        <ele>394.6</ele>
        <time>2021-07-24T11:25:08Z</time>
      </trkpt>
      <trkpt lat="43.2899750" lon="-7.6905010">
        <ele>395.0</ele>
        <time>2021-07-24T11:25:09Z</time>
      </trkpt>
      <trkpt lat="43.2899590" lon="-7.6905160">
        <ele>395.4</ele>
        <time>2021-07-24T11:25:10Z</time>
      </trkpt>
      <trkpt lat="43.2899430" lon="-7.6905330">
        <ele>395.8</ele>
        <time>2021-07-24T11:25:11Z</time>
      </trkpt>
      <trkpt lat="43.2899270" lon="-7.6905460">
        <ele>396.2</ele>
        <time>2021-07-24T11:25:12Z</time>
      </trkpt>
      <trkpt lat="43.2898570" lon="-7.6906140">
        <ele>396.2</ele>
        <time>2021-07-24T11:25:17Z</time>
      </trkpt>
      <trkpt lat="43.2898140" lon="-7.6906700">
        <ele>396.6</ele>
        <time>2021-07-24T11:25:21Z</time>
      </trkpt>
      <trkpt lat="43.2897990" lon="-7.6906870">
        <ele>397.2</ele>
        <time>2021-07-24T11:25:22Z</time>
      </trkpt>
      <trkpt lat="43.2897850" lon="-7.6906990">
        <ele>397.6</ele>
        <time>2021-07-24T11:25:23Z</time>
      </trkpt>
      <trkpt lat="43.2897710" lon="-7.6907130">
        <ele>398.0</ele>
        <time>2021-07-24T11:25:24Z</time>
      </trkpt>
      <trkpt lat="43.2897570" lon="-7.6907260">
        <ele>398.4</ele>
        <time>2021-07-24T11:25:25Z</time>
      </trkpt>
      <trkpt lat="43.2896510" lon="-7.6908420">
        <ele>398.4</ele>
        <time>2021-07-24T11:25:33Z</time>
      </trkpt>
      <trkpt lat="43.2895640" lon="-7.6908800">
        <ele>398.8</ele>
        <time>2021-07-24T11:25:38Z</time>
      </trkpt>
      <trkpt lat="43.2895480" lon="-7.6908890">
        <ele>399.2</ele>
        <time>2021-07-24T11:25:39Z</time>
      </trkpt>
      <trkpt lat="43.2895300" lon="-7.6908940">
        <ele>399.6</ele>
        <time>2021-07-24T11:25:40Z</time>
      </trkpt>
      <trkpt lat="43.2895100" lon="-7.6908970">
        <ele>400.0</ele>
        <time>2021-07-24T11:25:41Z</time>
      </trkpt>
      <trkpt lat="43.2894890" lon="-7.6909020">
        <ele>400.4</ele>
        <time>2021-07-24T11:25:42Z</time>
      </trkpt>
      <trkpt lat="43.2893610" lon="-7.6908750">
        <ele>400.4</ele>
        <time>2021-07-24T11:25:47Z</time>
      </trkpt>
      <trkpt lat="43.2891260" lon="-7.6907830">
        <ele>400.4</ele>
        <time>2021-07-24T11:25:53Z</time>
      </trkpt>
      <trkpt lat="43.2888460" lon="-7.6907380">
        <ele>400.4</ele>
        <time>2021-07-24T11:25:59Z</time>
      </trkpt>
      <trkpt lat="43.2888020" lon="-7.6907420">
        <ele>400.4</ele>
        <time>2021-07-24T11:26:00Z</time>
      </trkpt>
      <trkpt lat="43.2886440" lon="-7.6907510">
        <ele>400.4</ele>
        <time>2021-07-24T11:26:04Z</time>
      </trkpt>
      <trkpt lat="43.2884510" lon="-7.6908140">
        <ele>400.4</ele>
        <time>2021-07-24T11:26:10Z</time>
      </trkpt>
      <trkpt lat="43.2882830" lon="-7.6909030">
        <ele>400.4</ele>
        <time>2021-07-24T11:26:16Z</time>
      </trkpt>
      <trkpt lat="43.2881920" lon="-7.6909950">
        <ele>400.4</ele>
        <time>2021-07-24T11:26:20Z</time>
      </trkpt>
      <trkpt lat="43.2881210" lon="-7.6910950">
        <ele>400.4</ele>
        <time>2021-07-24T11:26:26Z</time>
      </trkpt>
      <trkpt lat="43.2880670" lon="-7.6912160">
        <ele>400.4</ele>
        <time>2021-07-24T11:26:33Z</time>
      </trkpt>
      <trkpt lat="43.2880520" lon="-7.6912850">
        <ele>400.8</ele>
        <time>2021-07-24T11:26:36Z</time>
      </trkpt>
      <trkpt lat="43.2880460" lon="-7.6913040">
        <ele>401.2</ele>
        <time>2021-07-24T11:26:37Z</time>
      </trkpt>
      <trkpt lat="43.2880420" lon="-7.6913270">
        <ele>401.6</ele>
        <time>2021-07-24T11:26:38Z</time>
      </trkpt>
      <trkpt lat="43.2880350" lon="-7.6913410">
        <ele>402.0</ele>
        <time>2021-07-24T11:26:39Z</time>
      </trkpt>
      <trkpt lat="43.2880320" lon="-7.6913590">
        <ele>402.4</ele>
        <time>2021-07-24T11:26:40Z</time>
      </trkpt>
      <trkpt lat="43.2880110" lon="-7.6914760">
        <ele>402.4</ele>
        <time>2021-07-24T11:26:45Z</time>
      </trkpt>
      <trkpt lat="43.2879980" lon="-7.6916700">
        <ele>402.4</ele>
        <time>2021-07-24T11:26:52Z</time>
      </trkpt>
      <trkpt lat="43.2879800" lon="-7.6917180">
        <ele>402.8</ele>
        <time>2021-07-24T11:26:54Z</time>
      </trkpt>
      <trkpt lat="43.2879720" lon="-7.6917460">
        <ele>403.2</ele>
        <time>2021-07-24T11:26:55Z</time>
      </trkpt>
      <trkpt lat="43.2879660" lon="-7.6917680">
        <ele>403.8</ele>
        <time>2021-07-24T11:26:56Z</time>
      </trkpt>
      <trkpt lat="43.2879580" lon="-7.6918000">
        <ele>404.2</ele>
        <time>2021-07-24T11:26:57Z</time>
      </trkpt>
      <trkpt lat="43.2879500" lon="-7.6918310">
        <ele>404.6</ele>
        <time>2021-07-24T11:26:58Z</time>
      </trkpt>
      <trkpt lat="43.2878440" lon="-7.6921030">
        <ele>404.6</ele>
        <time>2021-07-24T11:27:05Z</time>
      </trkpt>
      <trkpt lat="43.2877470" lon="-7.6923660">
        <ele>404.6</ele>
        <time>2021-07-24T11:27:10Z</time>
      </trkpt>
      <trkpt lat="43.2875690" lon="-7.6928620">
        <ele>404.6</ele>
        <time>2021-07-24T11:27:18Z</time>
      </trkpt>
      <trkpt lat="43.2875470" lon="-7.6929480">
        <ele>404.2</ele>
        <time>2021-07-24T11:27:19Z</time>
      </trkpt>
      <trkpt lat="43.2875240" lon="-7.6930410">
        <ele>403.6</ele>
        <time>2021-07-24T11:27:20Z</time>
      </trkpt>
      <trkpt lat="43.2874980" lon="-7.6931240">
        <ele>403.2</ele>
        <time>2021-07-24T11:27:21Z</time>
      </trkpt>
      <trkpt lat="43.2874670" lon="-7.6932150">
        <ele>402.4</ele>
        <time>2021-07-24T11:27:22Z</time>
      </trkpt>
      <trkpt lat="43.2874360" lon="-7.6933040">
        <ele>402.0</ele>
        <time>2021-07-24T11:27:23Z</time>
      </trkpt>
      <trkpt lat="43.2874040" lon="-7.6933920">
        <ele>401.4</ele>
        <time>2021-07-24T11:27:24Z</time>
      </trkpt>
      <trkpt lat="43.2873720" lon="-7.6934740">
        <ele>400.8</ele>
        <time>2021-07-24T11:27:25Z</time>
      </trkpt>
      <trkpt lat="43.2873420" lon="-7.6935490">
        <ele>400.2</ele>
        <time>2021-07-24T11:27:26Z</time>
      </trkpt>
      <trkpt lat="43.2873070" lon="-7.6936260">
        <ele>399.4</ele>
        <time>2021-07-24T11:27:27Z</time>
      </trkpt>
      <trkpt lat="43.2872730" lon="-7.6937090">
        <ele>398.6</ele>
        <time>2021-07-24T11:27:28Z</time>
      </trkpt>
      <trkpt lat="43.2872350" lon="-7.6937940">
        <ele>398.0</ele>
        <time>2021-07-24T11:27:29Z</time>
      </trkpt>
      <trkpt lat="43.2871940" lon="-7.6938980">
        <ele>397.2</ele>
        <time>2021-07-24T11:27:30Z</time>
      </trkpt>
      <trkpt lat="43.2871520" lon="-7.6940030">
        <ele>396.6</ele>
        <time>2021-07-24T11:27:31Z</time>
      </trkpt>
      <trkpt lat="43.2871090" lon="-7.6941160">
        <ele>395.8</ele>
        <time>2021-07-24T11:27:32Z</time>
      </trkpt>
      <trkpt lat="43.2870610" lon="-7.6942480">
        <ele>394.8</ele>
        <time>2021-07-24T11:27:33Z</time>
      </trkpt>
      <trkpt lat="43.2870110" lon="-7.6943800">
        <ele>394.0</ele>
        <time>2021-07-24T11:27:34Z</time>
      </trkpt>
      <trkpt lat="43.2869610" lon="-7.6945070">
        <ele>393.2</ele>
        <time>2021-07-24T11:27:35Z</time>
      </trkpt>
      <trkpt lat="43.2869110" lon="-7.6946200">
        <ele>392.4</ele>
        <time>2021-07-24T11:27:36Z</time>
      </trkpt>
      <trkpt lat="43.2868610" lon="-7.6947320">
        <ele>391.8</ele>
        <time>2021-07-24T11:27:37Z</time>
      </trkpt>
      <trkpt lat="43.2868150" lon="-7.6948290">
        <ele>391.4</ele>
        <time>2021-07-24T11:27:38Z</time>
      </trkpt>
      <trkpt lat="43.2867770" lon="-7.6949150">
        <ele>390.4</ele>
        <time>2021-07-24T11:27:39Z</time>
      </trkpt>
      <trkpt lat="43.2867420" lon="-7.6949950">
        <ele>389.6</ele>
        <time>2021-07-24T11:27:40Z</time>
      </trkpt>
      <trkpt lat="43.2867120" lon="-7.6950720">
        <ele>388.8</ele>
        <time>2021-07-24T11:27:41Z</time>
      </trkpt>
      <trkpt lat="43.2866880" lon="-7.6951440">
        <ele>387.8</ele>
        <time>2021-07-24T11:27:42Z</time>
      </trkpt>
      <trkpt lat="43.2866590" lon="-7.6952130">
        <ele>386.8</ele>
        <time>2021-07-24T11:27:43Z</time>
      </trkpt>
      <trkpt lat="43.2866250" lon="-7.6952820">
        <ele>385.8</ele>
        <time>2021-07-24T11:27:44Z</time>
      </trkpt>
      <trkpt lat="43.2865860" lon="-7.6953480">
        <ele>384.8</ele>
        <time>2021-07-24T11:27:45Z</time>
      </trkpt>
      <trkpt lat="43.2865490" lon="-7.6954140">
        <ele>384.4</ele>
        <time>2021-07-24T11:27:46Z</time>
      </trkpt>
      <trkpt lat="43.2865160" lon="-7.6954830">
        <ele>383.6</ele>
        <time>2021-07-24T11:27:47Z</time>
      </trkpt>
      <trkpt lat="43.2864820" lon="-7.6955520">
        <ele>383.2</ele>
        <time>2021-07-24T11:27:48Z</time>
      </trkpt>
      <trkpt lat="43.2864470" lon="-7.6956190">
        <ele>382.8</ele>
        <time>2021-07-24T11:27:49Z</time>
      </trkpt>
      <trkpt lat="43.2862820" lon="-7.6958530">
        <ele>382.8</ele>
        <time>2021-07-24T11:27:53Z</time>
      </trkpt>
      <trkpt lat="43.2861920" lon="-7.6959550">
        <ele>382.4</ele>
        <time>2021-07-24T11:27:55Z</time>
      </trkpt>
      <trkpt lat="43.2861470" lon="-7.6960080">
        <ele>382.0</ele>
        <time>2021-07-24T11:27:56Z</time>
      </trkpt>
      <trkpt lat="43.2861060" lon="-7.6960660">
        <ele>381.6</ele>
        <time>2021-07-24T11:27:57Z</time>
      </trkpt>
      <trkpt lat="43.2860680" lon="-7.6961310">
        <ele>381.0</ele>
        <time>2021-07-24T11:27:58Z</time>
      </trkpt>
      <trkpt lat="43.2860280" lon="-7.6961940">
        <ele>380.6</ele>
        <time>2021-07-24T11:27:59Z</time>
      </trkpt>
      <trkpt lat="43.2859330" lon="-7.6963910">
        <ele>380.6</ele>
        <time>2021-07-24T11:28:02Z</time>
      </trkpt>
      <trkpt lat="43.2858910" lon="-7.6965380">
        <ele>380.6</ele>
        <time>2021-07-24T11:28:04Z</time>
      </trkpt>
      <trkpt lat="43.2857990" lon="-7.6968760">
        <ele>380.6</ele>
        <time>2021-07-24T11:28:09Z</time>
      </trkpt>
      <trkpt lat="43.2857810" lon="-7.6970060">
        <ele>380.2</ele>
        <time>2021-07-24T11:28:11Z</time>
      </trkpt>
      <trkpt lat="43.2857760" lon="-7.6970670">
        <ele>379.4</ele>
        <time>2021-07-24T11:28:12Z</time>
      </trkpt>
      <trkpt lat="43.2857730" lon="-7.6971250">
        <ele>379.0</ele>
        <time>2021-07-24T11:28:13Z</time>
      </trkpt>
      <trkpt lat="43.2857640" lon="-7.6971760">
        <ele>378.6</ele>
        <time>2021-07-24T11:28:14Z</time>
      </trkpt>
      <trkpt lat="43.2857440" lon="-7.6972750">
        <ele>378.6</ele>
        <time>2021-07-24T11:28:16Z</time>
      </trkpt>
      <trkpt lat="43.2856420" lon="-7.6975310">
        <ele>378.6</ele>
        <time>2021-07-24T11:28:22Z</time>
      </trkpt>
      <trkpt lat="43.2854500" lon="-7.6978880">
        <ele>378.0</ele>
        <time>2021-07-24T11:28:29Z</time>
      </trkpt>
      <trkpt lat="43.2854280" lon="-7.6979410">
        <ele>377.6</ele>
        <time>2021-07-24T11:28:30Z</time>
      </trkpt>
      <trkpt lat="43.2854110" lon="-7.6979980">
        <ele>377.2</ele>
        <time>2021-07-24T11:28:31Z</time>
      </trkpt>
      <trkpt lat="43.2853960" lon="-7.6980440">
        <ele>376.6</ele>
        <time>2021-07-24T11:28:32Z</time>
      </trkpt>
      <trkpt lat="43.2853800" lon="-7.6981030">
        <ele>376.2</ele>
        <time>2021-07-24T11:28:33Z</time>
      </trkpt>
      <trkpt lat="43.2853540" lon="-7.6982260">
        <ele>376.2</ele>
        <time>2021-07-24T11:28:35Z</time>
      </trkpt>
      <trkpt lat="43.2853420" lon="-7.6982860">
        <ele>375.8</ele>
        <time>2021-07-24T11:28:36Z</time>
      </trkpt>
      <trkpt lat="43.2853310" lon="-7.6983540">
        <ele>374.8</ele>
        <time>2021-07-24T11:28:37Z</time>
      </trkpt>
      <trkpt lat="43.2853200" lon="-7.6984090">
        <ele>374.4</ele>
        <time>2021-07-24T11:28:38Z</time>
      </trkpt>
      <trkpt lat="43.2853150" lon="-7.6984640">
        <ele>374.0</ele>
        <time>2021-07-24T11:28:39Z</time>
      </trkpt>
      <trkpt lat="43.2853160" lon="-7.6985190">
        <ele>373.6</ele>
        <time>2021-07-24T11:28:40Z</time>
      </trkpt>
      <trkpt lat="43.2853180" lon="-7.6985750">
        <ele>373.2</ele>
        <time>2021-07-24T11:28:41Z</time>
      </trkpt>
      <trkpt lat="43.2853120" lon="-7.6986320">
        <ele>372.8</ele>
        <time>2021-07-24T11:28:42Z</time>
      </trkpt>
      <trkpt lat="43.2853060" lon="-7.6986820">
        <ele>372.4</ele>
        <time>2021-07-24T11:28:43Z</time>
      </trkpt>
      <trkpt lat="43.2852930" lon="-7.6987370">
        <ele>371.8</ele>
        <time>2021-07-24T11:28:44Z</time>
      </trkpt>
      <trkpt lat="43.2852770" lon="-7.6987860">
        <ele>371.2</ele>
        <time>2021-07-24T11:28:45Z</time>
      </trkpt>
      <trkpt lat="43.2852630" lon="-7.6988320">
        <ele>370.8</ele>
        <time>2021-07-24T11:28:46Z</time>
      </trkpt>
      <trkpt lat="43.2852430" lon="-7.6988730">
        <ele>370.2</ele>
        <time>2021-07-24T11:28:47Z</time>
      </trkpt>
      <trkpt lat="43.2852240" lon="-7.6989180">
        <ele>369.6</ele>
        <time>2021-07-24T11:28:48Z</time>
      </trkpt>
      <trkpt lat="43.2851750" lon="-7.6989910">
        <ele>369.2</ele>
        <time>2021-07-24T11:28:50Z</time>
      </trkpt>
      <trkpt lat="43.2851540" lon="-7.6990250">
        <ele>368.8</ele>
        <time>2021-07-24T11:28:51Z</time>
      </trkpt>
      <trkpt lat="43.2851320" lon="-7.6990530">
        <ele>368.4</ele>
        <time>2021-07-24T11:28:52Z</time>
      </trkpt>
      <trkpt lat="43.2851100" lon="-7.6990760">
        <ele>368.0</ele>
        <time>2021-07-24T11:28:53Z</time>
      </trkpt>
      <trkpt lat="43.2850930" lon="-7.6990950">
        <ele>367.6</ele>
        <time>2021-07-24T11:28:54Z</time>
      </trkpt>
      <trkpt lat="43.2850650" lon="-7.6991190">
        <ele>367.6</ele>
        <time>2021-07-24T11:28:56Z</time>
      </trkpt>
      <trkpt lat="43.2850410" lon="-7.6991530">
        <ele>367.6</ele>
        <time>2021-07-24T11:28:58Z</time>
      </trkpt>
      <trkpt lat="43.2849760" lon="-7.6992260">
        <ele>367.6</ele>
        <time>2021-07-24T11:29:03Z</time>
      </trkpt>
      <trkpt lat="43.2848790" lon="-7.6993160">
        <ele>367.6</ele>
        <time>2021-07-24T11:29:10Z</time>
      </trkpt>
      <trkpt lat="43.2847930" lon="-7.6993800">
        <ele>367.6</ele>
        <time>2021-07-24T11:29:16Z</time>
      </trkpt>
      <trkpt lat="43.2847070" lon="-7.6994730">
        <ele>367.6</ele>
        <time>2021-07-24T11:29:23Z</time>
      </trkpt>
      <trkpt lat="43.2846150" lon="-7.6995770">
        <ele>367.6</ele>
        <time>2021-07-24T11:29:30Z</time>
      </trkpt>
      <trkpt lat="43.2845940" lon="-7.6995980">
        <ele>367.6</ele>
        <time>2021-07-24T11:29:34Z</time>
      </trkpt>
      <trkpt lat="43.2845790" lon="-7.6996130">
        <ele>367.6</ele>
        <time>2021-07-24T11:52:28Z</time>
      </trkpt>
      <trkpt lat="43.2845200" lon="-7.6996990">
        <ele>367.6</ele>
        <time>2021-07-24T11:52:33Z</time>
      </trkpt>
      <trkpt lat="43.2844920" lon="-7.6997890">
        <ele>367.6</ele>
        <time>2021-07-24T11:52:37Z</time>
      </trkpt>
      <trkpt lat="43.2844780" lon="-7.6998350">
        <ele>367.6</ele>
        <time>2021-07-24T11:52:39Z</time>
      </trkpt>
      <trkpt lat="43.2844130" lon="-7.6999770">
        <ele>368.0</ele>
        <time>2021-07-24T11:52:45Z</time>
      </trkpt>
      <trkpt lat="43.2844020" lon="-7.7000050">
        <ele>368.4</ele>
        <time>2021-07-24T11:52:46Z</time>
      </trkpt>
      <trkpt lat="43.2843930" lon="-7.7000300">
        <ele>368.8</ele>
        <time>2021-07-24T11:52:47Z</time>
      </trkpt>
      <trkpt lat="43.2843820" lon="-7.7000530">
        <ele>369.2</ele>
        <time>2021-07-24T11:52:48Z</time>
      </trkpt>
      <trkpt lat="43.2843730" lon="-7.7000760">
        <ele>369.6</ele>
        <time>2021-07-24T11:52:49Z</time>
      </trkpt>
      <trkpt lat="43.2843330" lon="-7.7001460">
        <ele>369.6</ele>
        <time>2021-07-24T11:52:53Z</time>
      </trkpt>
      <trkpt lat="43.2842530" lon="-7.7002490">
        <ele>370.0</ele>
        <time>2021-07-24T11:52:59Z</time>
      </trkpt>
      <trkpt lat="43.2842410" lon="-7.7002670">
        <ele>370.4</ele>
        <time>2021-07-24T11:53:00Z</time>
      </trkpt>
      <trkpt lat="43.2842310" lon="-7.7002800">
        <ele>371.0</ele>
        <time>2021-07-24T11:53:01Z</time>
      </trkpt>
      <trkpt lat="43.2842210" lon="-7.7002930">
        <ele>371.4</ele>
        <time>2021-07-24T11:53:02Z</time>
      </trkpt>
      <trkpt lat="43.2842060" lon="-7.7003030">
        <ele>371.8</ele>
        <time>2021-07-24T11:53:03Z</time>
      </trkpt>
      <trkpt lat="43.2841380" lon="-7.7003620">
        <ele>371.8</ele>
        <time>2021-07-24T11:53:07Z</time>
      </trkpt>
      <trkpt lat="43.2840670" lon="-7.7004410">
        <ele>371.8</ele>
        <time>2021-07-24T11:53:13Z</time>
      </trkpt>
      <trkpt lat="43.2840550" lon="-7.7004540">
        <ele>372.2</ele>
        <time>2021-07-24T11:53:14Z</time>
      </trkpt>
      <trkpt lat="43.2840400" lon="-7.7004700">
        <ele>372.6</ele>
        <time>2021-07-24T11:53:15Z</time>
      </trkpt>
      <trkpt lat="43.2840230" lon="-7.7004870">
        <ele>373.0</ele>
        <time>2021-07-24T11:53:16Z</time>
      </trkpt>
      <trkpt lat="43.2840120" lon="-7.7005040">
        <ele>373.4</ele>
        <time>2021-07-24T11:53:17Z</time>
      </trkpt>
      <trkpt lat="43.2839980" lon="-7.7005270">
        <ele>373.8</ele>
        <time>2021-07-24T11:53:18Z</time>
      </trkpt>
      <trkpt lat="43.2839700" lon="-7.7005640">
        <ele>373.8</ele>
        <time>2021-07-24T11:53:20Z</time>
      </trkpt>
      <trkpt lat="43.2839370" lon="-7.7006390">
        <ele>374.2</ele>
        <time>2021-07-24T11:53:24Z</time>
      </trkpt>
      <trkpt lat="43.2839350" lon="-7.7006570">
        <ele>374.8</ele>
        <time>2021-07-24T11:53:25Z</time>
      </trkpt>
      <trkpt lat="43.2839310" lon="-7.7006740">
        <ele>375.2</ele>
        <time>2021-07-24T11:53:26Z</time>
      </trkpt>
      <trkpt lat="43.2839180" lon="-7.7006960">
        <ele>375.6</ele>
        <time>2021-07-24T11:53:27Z</time>
      </trkpt>
      <trkpt lat="43.2839100" lon="-7.7007160">
        <ele>376.0</ele>
        <time>2021-07-24T11:53:28Z</time>
      </trkpt>
      <trkpt lat="43.2838940" lon="-7.7007600">
        <ele>376.0</ele>
        <time>2021-07-24T11:53:31Z</time>
      </trkpt>
      <trkpt lat="43.2838380" lon="-7.7008260">
        <ele>376.4</ele>
        <time>2021-07-24T11:53:36Z</time>
      </trkpt>
      <trkpt lat="43.2838240" lon="-7.7008410">
        <ele>376.8</ele>
        <time>2021-07-24T11:53:37Z</time>
      </trkpt>
      <trkpt lat="43.2838100" lon="-7.7008540">
        <ele>377.2</ele>
        <time>2021-07-24T11:53:38Z</time>
      </trkpt>
      <trkpt lat="43.2838000" lon="-7.7008630">
        <ele>377.6</ele>
        <time>2021-07-24T11:53:39Z</time>
      </trkpt>
      <trkpt lat="43.2837900" lon="-7.7008740">
        <ele>378.0</ele>
        <time>2021-07-24T11:53:40Z</time>
      </trkpt>
      <trkpt lat="43.2837490" lon="-7.7009110">
        <ele>378.0</ele>
        <time>2021-07-24T11:53:44Z</time>
      </trkpt>
      <trkpt lat="43.2837210" lon="-7.7009330">
        <ele>378.4</ele>
        <time>2021-07-24T11:53:46Z</time>
      </trkpt>
      <trkpt lat="43.2837050" lon="-7.7009390">
        <ele>378.8</ele>
        <time>2021-07-24T11:53:47Z</time>
      </trkpt>
      <trkpt lat="43.2836930" lon="-7.7009450">
        <ele>379.4</ele>
        <time>2021-07-24T11:53:48Z</time>
      </trkpt>
      <trkpt lat="43.2836810" lon="-7.7009560">
        <ele>379.8</ele>
        <time>2021-07-24T11:53:49Z</time>
      </trkpt>
      <trkpt lat="43.2836630" lon="-7.7009730">
        <ele>380.2</ele>
        <time>2021-07-24T11:53:50Z</time>
      </trkpt>
      <trkpt lat="43.2836340" lon="-7.7009990">
        <ele>380.2</ele>
        <time>2021-07-24T11:53:52Z</time>
      </trkpt>
      <trkpt lat="43.2835930" lon="-7.7010280">
        <ele>380.2</ele>
        <time>2021-07-24T11:53:55Z</time>
      </trkpt>
      <trkpt lat="43.2835430" lon="-7.7010340">
        <ele>380.2</ele>
        <time>2021-07-24T11:53:59Z</time>
      </trkpt>
      <trkpt lat="43.2834510" lon="-7.7010440">
        <ele>380.2</ele>
        <time>2021-07-24T11:54:04Z</time>
      </trkpt>
      <trkpt lat="43.2833960" lon="-7.7010660">
        <ele>380.6</ele>
        <time>2021-07-24T11:54:07Z</time>
      </trkpt>
      <trkpt lat="43.2833740" lon="-7.7010810">
        <ele>381.0</ele>
        <time>2021-07-24T11:54:08Z</time>
      </trkpt>
      <trkpt lat="43.2833570" lon="-7.7010920">
        <ele>381.8</ele>
        <time>2021-07-24T11:54:09Z</time>
      </trkpt>
      <trkpt lat="43.2833420" lon="-7.7011060">
        <ele>382.2</ele>
        <time>2021-07-24T11:54:10Z</time>
      </trkpt>
      <trkpt lat="43.2832400" lon="-7.7011700">
        <ele>382.2</ele>
        <time>2021-07-24T11:54:17Z</time>
      </trkpt>
      <trkpt lat="43.2832260" lon="-7.7011820">
        <ele>382.2</ele>
        <time>2021-07-24T11:54:18Z</time>
      </trkpt>
      <trkpt lat="43.2832140" lon="-7.7011900">
        <ele>382.6</ele>
        <time>2021-07-24T11:54:19Z</time>
      </trkpt>
      <trkpt lat="43.2832010" lon="-7.7011930">
        <ele>383.0</ele>
        <time>2021-07-24T11:54:20Z</time>
      </trkpt>
      <trkpt lat="43.2831910" lon="-7.7011910">
        <ele>383.4</ele>
        <time>2021-07-24T11:54:21Z</time>
      </trkpt>
      <trkpt lat="43.2831760" lon="-7.7011910">
        <ele>383.8</ele>
        <time>2021-07-24T11:54:22Z</time>
      </trkpt>
      <trkpt lat="43.2831570" lon="-7.7011920">
        <ele>384.2</ele>
        <time>2021-07-24T11:54:23Z</time>
      </trkpt>
      <trkpt lat="43.2830840" lon="-7.7011670">
        <ele>384.6</ele>
        <time>2021-07-24T11:54:28Z</time>
      </trkpt>
      <trkpt lat="43.2830740" lon="-7.7011680">
        <ele>385.0</ele>
        <time>2021-07-24T11:54:29Z</time>
      </trkpt>
      <trkpt lat="43.2830670" lon="-7.7011650">
        <ele>385.4</ele>
        <time>2021-07-24T11:54:30Z</time>
      </trkpt>
      <trkpt lat="43.2830580" lon="-7.7011620">
        <ele>385.8</ele>
        <time>2021-07-24T11:54:31Z</time>
      </trkpt>
      <trkpt lat="43.2830480" lon="-7.7011590">
        <ele>386.2</ele>
        <time>2021-07-24T11:54:32Z</time>
      </trkpt>
      <trkpt lat="43.2830080" lon="-7.7011670">
        <ele>386.2</ele>
        <time>2021-07-24T11:54:35Z</time>
      </trkpt>
      <trkpt lat="43.2829980" lon="-7.7011790">
        <ele>386.2</ele>
        <time>2021-07-24T11:54:36Z</time>
      </trkpt>
      <trkpt lat="43.2829790" lon="-7.7012290">
        <ele>386.2</ele>
        <time>2021-07-24T11:54:39Z</time>
      </trkpt>
      <trkpt lat="43.2829730" lon="-7.7012480">
        <ele>386.6</ele>
        <time>2021-07-24T11:54:40Z</time>
      </trkpt>
      <trkpt lat="43.2829620" lon="-7.7012660">
        <ele>387.0</ele>
        <time>2021-07-24T11:54:41Z</time>
      </trkpt>
      <trkpt lat="43.2829560" lon="-7.7012870">
        <ele>387.6</ele>
        <time>2021-07-24T11:54:42Z</time>
      </trkpt>
      <trkpt lat="43.2829530" lon="-7.7013120">
        <ele>388.0</ele>
        <time>2021-07-24T11:54:43Z</time>
      </trkpt>
      <trkpt lat="43.2829500" lon="-7.7013410">
        <ele>388.4</ele>
        <time>2021-07-24T11:54:44Z</time>
      </trkpt>
      <trkpt lat="43.2829210" lon="-7.7014500">
        <ele>388.8</ele>
        <time>2021-07-24T11:54:49Z</time>
      </trkpt>
      <trkpt lat="43.2829100" lon="-7.7014660">
        <ele>389.2</ele>
        <time>2021-07-24T11:54:50Z</time>
      </trkpt>
      <trkpt lat="43.2828920" lon="-7.7014840">
        <ele>389.8</ele>
        <time>2021-07-24T11:54:51Z</time>
      </trkpt>
      <trkpt lat="43.2828800" lon="-7.7015010">
        <ele>390.2</ele>
        <time>2021-07-24T11:54:52Z</time>
      </trkpt>
      <trkpt lat="43.2828690" lon="-7.7015130">
        <ele>390.6</ele>
        <time>2021-07-24T11:54:53Z</time>
      </trkpt>
      <trkpt lat="43.2828620" lon="-7.7015130">
        <ele>391.0</ele>
        <time>2021-07-24T11:54:55Z</time>
      </trkpt>
      <trkpt lat="43.2825690" lon="-7.7020370">
        <ele>399.2</ele>
        <time>2021-07-24T11:55:54Z</time>
      </trkpt>
      <trkpt lat="43.2825540" lon="-7.7020520">
        <ele>399.6</ele>
        <time>2021-07-24T11:55:56Z</time>
      </trkpt>
      <trkpt lat="43.2825450" lon="-7.7020630">
        <ele>400.0</ele>
        <time>2021-07-24T11:55:57Z</time>
      </trkpt>
      <trkpt lat="43.2825410" lon="-7.7020730">
        <ele>400.4</ele>
        <time>2021-07-24T11:55:58Z</time>
      </trkpt>
      <trkpt lat="43.2825360" lon="-7.7020820">
        <ele>400.8</ele>
        <time>2021-07-24T11:55:59Z</time>
      </trkpt>
      <trkpt lat="43.2825290" lon="-7.7020930">
        <ele>401.2</ele>
        <time>2021-07-24T11:56:00Z</time>
      </trkpt>
      <trkpt lat="43.2824570" lon="-7.7022030">
        <ele>401.2</ele>
        <time>2021-07-24T11:56:09Z</time>
      </trkpt>
      <trkpt lat="43.2824410" lon="-7.7022470">
        <ele>401.6</ele>
        <time>2021-07-24T11:56:12Z</time>
      </trkpt>
      <trkpt lat="43.2824370" lon="-7.7022580">
        <ele>402.0</ele>
        <time>2021-07-24T11:56:13Z</time>
      </trkpt>
      <trkpt lat="43.2824300" lon="-7.7022690">
        <ele>402.8</ele>
        <time>2021-07-24T11:56:14Z</time>
      </trkpt>
      <trkpt lat="43.2824240" lon="-7.7022800">
        <ele>403.2</ele>
        <time>2021-07-24T11:56:15Z</time>
      </trkpt>
      <trkpt lat="43.2824170" lon="-7.7022900">
        <ele>403.2</ele>
        <time>2021-07-24T11:56:16Z</time>
      </trkpt>
      <trkpt lat="43.2823800" lon="-7.7024270">
        <ele>403.2</ele>
        <time>2021-07-24T11:56:25Z</time>
      </trkpt>
      <trkpt lat="43.2823740" lon="-7.7024410">
        <ele>403.6</ele>
        <time>2021-07-24T11:56:26Z</time>
      </trkpt>
      <trkpt lat="43.2823700" lon="-7.7024560">
        <ele>404.0</ele>
        <time>2021-07-24T11:56:27Z</time>
      </trkpt>
      <trkpt lat="43.2823630" lon="-7.7024680">
        <ele>404.4</ele>
        <time>2021-07-24T11:56:28Z</time>
      </trkpt>
      <trkpt lat="43.2823560" lon="-7.7024830">
        <ele>404.8</ele>
        <time>2021-07-24T11:56:29Z</time>
      </trkpt>
      <trkpt lat="43.2823520" lon="-7.7024990">
        <ele>405.2</ele>
        <time>2021-07-24T11:56:30Z</time>
      </trkpt>
      <trkpt lat="43.2823440" lon="-7.7025390">
        <ele>405.2</ele>
        <time>2021-07-24T11:56:33Z</time>
      </trkpt>
      <trkpt lat="43.2823220" lon="-7.7026070">
        <ele>405.6</ele>
        <time>2021-07-24T11:56:39Z</time>
      </trkpt>
      <trkpt lat="43.2823190" lon="-7.7026170">
        <ele>406.0</ele>
        <time>2021-07-24T11:56:40Z</time>
      </trkpt>
      <trkpt lat="43.2823170" lon="-7.7026280">
        <ele>406.4</ele>
        <time>2021-07-24T11:56:41Z</time>
      </trkpt>
      <trkpt lat="43.2823140" lon="-7.7026290">
        <ele>406.8</ele>
        <time>2021-07-24T11:56:42Z</time>
      </trkpt>
      <trkpt lat="43.2823060" lon="-7.7026450">
        <ele>407.2</ele>
        <time>2021-07-24T11:56:43Z</time>
      </trkpt>
      <trkpt lat="43.2822780" lon="-7.7027240">
        <ele>407.2</ele>
        <time>2021-07-24T11:56:49Z</time>
      </trkpt>
      <trkpt lat="43.2822590" lon="-7.7027580">
        <ele>407.2</ele>
        <time>2021-07-24T11:56:52Z</time>
      </trkpt>
      <trkpt lat="43.2822400" lon="-7.7028090">
        <ele>407.6</ele>
        <time>2021-07-24T11:56:56Z</time>
      </trkpt>
      <trkpt lat="43.2822390" lon="-7.7028220">
        <ele>408.0</ele>
        <time>2021-07-24T11:56:57Z</time>
      </trkpt>
      <trkpt lat="43.2822370" lon="-7.7028380">
        <ele>408.4</ele>
        <time>2021-07-24T11:56:58Z</time>
      </trkpt>
      <trkpt lat="43.2822320" lon="-7.7028530">
        <ele>408.8</ele>
        <time>2021-07-24T11:56:59Z</time>
      </trkpt>
      <trkpt lat="43.2822230" lon="-7.7028730">
        <ele>409.2</ele>
        <time>2021-07-24T11:57:00Z</time>
      </trkpt>
      <trkpt lat="43.2822190" lon="-7.7028900">
        <ele>409.2</ele>
        <time>2021-07-24T11:57:01Z</time>
      </trkpt>
      <trkpt lat="43.2821810" lon="-7.7030310">
        <ele>409.2</ele>
        <time>2021-07-24T11:57:09Z</time>
      </trkpt>
      <trkpt lat="43.2821650" lon="-7.7031010">
        <ele>409.2</ele>
        <time>2021-07-24T11:57:15Z</time>
      </trkpt>
      <trkpt lat="43.2821650" lon="-7.7031080">
        <ele>409.2</ele>
        <time>2021-07-24T11:57:16Z</time>
      </trkpt>
      <trkpt lat="43.2821600" lon="-7.7031700">
        <ele>409.2</ele>
        <time>2021-07-24T11:57:28Z</time>
      </trkpt>
      <trkpt lat="43.2821590" lon="-7.7032040">
        <ele>409.2</ele>
        <time>2021-07-24T11:57:30Z</time>
      </trkpt>
      <trkpt lat="43.2821570" lon="-7.7032430">
        <ele>409.6</ele>
        <time>2021-07-24T11:57:32Z</time>
      </trkpt>
      <trkpt lat="43.2821620" lon="-7.7032600">
        <ele>410.2</ele>
        <time>2021-07-24T11:57:33Z</time>
      </trkpt>
      <trkpt lat="43.2821660" lon="-7.7032790">
        <ele>410.6</ele>
        <time>2021-07-24T11:57:34Z</time>
      </trkpt>
      <trkpt lat="43.2821650" lon="-7.7032980">
        <ele>411.0</ele>
        <time>2021-07-24T11:57:35Z</time>
      </trkpt>
      <trkpt lat="43.2821610" lon="-7.7033110">
        <ele>411.4</ele>
        <time>2021-07-24T11:57:36Z</time>
      </trkpt>
      <trkpt lat="43.2821570" lon="-7.7033340">
        <ele>411.4</ele>
        <time>2021-07-24T11:57:37Z</time>
      </trkpt>
      <trkpt lat="43.2821590" lon="-7.7034030">
        <ele>411.4</ele>
        <time>2021-07-24T11:57:40Z</time>
      </trkpt>
      <trkpt lat="43.2821570" lon="-7.7034670">
        <ele>411.4</ele>
        <time>2021-07-24T11:57:43Z</time>
      </trkpt>
      <trkpt lat="43.2821400" lon="-7.7036150">
        <ele>411.8</ele>
        <time>2021-07-24T11:57:49Z</time>
      </trkpt>
      <trkpt lat="43.2821310" lon="-7.7036420">
        <ele>412.2</ele>
        <time>2021-07-24T11:57:50Z</time>
      </trkpt>
      <trkpt lat="43.2821210" lon="-7.7036690">
        <ele>412.6</ele>
        <time>2021-07-24T11:57:51Z</time>
      </trkpt>
      <trkpt lat="43.2821160" lon="-7.7037000">
        <ele>413.0</ele>
        <time>2021-07-24T11:57:52Z</time>
      </trkpt>
      <trkpt lat="43.2821080" lon="-7.7037260">
        <ele>413.4</ele>
        <time>2021-07-24T11:57:53Z</time>
      </trkpt>
      <trkpt lat="43.2820890" lon="-7.7037760">
        <ele>413.4</ele>
        <time>2021-07-24T11:57:55Z</time>
      </trkpt>
      <trkpt lat="43.2820170" lon="-7.7039680">
        <ele>413.4</ele>
        <time>2021-07-24T11:58:02Z</time>
      </trkpt>
      <trkpt lat="43.2819440" lon="-7.7041510">
        <ele>413.4</ele>
        <time>2021-07-24T11:58:09Z</time>
      </trkpt>
      <trkpt lat="43.2819360" lon="-7.7041800">
        <ele>413.8</ele>
        <time>2021-07-24T11:58:10Z</time>
      </trkpt>
      <trkpt lat="43.2819270" lon="-7.7042100">
        <ele>414.2</ele>
        <time>2021-07-24T11:58:11Z</time>
      </trkpt>
      <trkpt lat="43.2819140" lon="-7.7042380">
        <ele>414.8</ele>
        <time>2021-07-24T11:58:12Z</time>
      </trkpt>
      <trkpt lat="43.2818980" lon="-7.7042640">
        <ele>415.2</ele>
        <time>2021-07-24T11:58:13Z</time>
      </trkpt>
      <trkpt lat="43.2818840" lon="-7.7042940">
        <ele>415.6</ele>
        <time>2021-07-24T11:58:14Z</time>
      </trkpt>
      <trkpt lat="43.2818720" lon="-7.7043210">
        <ele>415.6</ele>
        <time>2021-07-24T11:58:15Z</time>
      </trkpt>
      <trkpt lat="43.2817350" lon="-7.7044470">
        <ele>415.6</ele>
        <time>2021-07-24T11:58:22Z</time>
      </trkpt>
      <trkpt lat="43.2816330" lon="-7.7045120">
        <ele>416.0</ele>
        <time>2021-07-24T11:58:27Z</time>
      </trkpt>
      <trkpt lat="43.2816170" lon="-7.7045250">
        <ele>416.4</ele>
        <time>2021-07-24T11:58:28Z</time>
      </trkpt>
      <trkpt lat="43.2815990" lon="-7.7045390">
        <ele>416.8</ele>
        <time>2021-07-24T11:58:29Z</time>
      </trkpt>
      <trkpt lat="43.2815820" lon="-7.7045540">
        <ele>417.2</ele>
        <time>2021-07-24T11:58:30Z</time>
      </trkpt>
      <trkpt lat="43.2815700" lon="-7.7045700">
        <ele>417.6</ele>
        <time>2021-07-24T11:58:31Z</time>
      </trkpt>
      <trkpt lat="43.2814770" lon="-7.7046470">
        <ele>417.6</ele>
        <time>2021-07-24T11:58:37Z</time>
      </trkpt>
      <trkpt lat="43.2813950" lon="-7.7047280">
        <ele>418.0</ele>
        <time>2021-07-24T11:58:43Z</time>
      </trkpt>
      <trkpt lat="43.2813790" lon="-7.7047420">
        <ele>418.4</ele>
        <time>2021-07-24T11:58:44Z</time>
      </trkpt>
      <trkpt lat="43.2813680" lon="-7.7047540">
        <ele>418.8</ele>
        <time>2021-07-24T11:58:45Z</time>
      </trkpt>
      <trkpt lat="43.2813560" lon="-7.7047670">
        <ele>419.2</ele>
        <time>2021-07-24T11:58:46Z</time>
      </trkpt>
      <trkpt lat="43.2813430" lon="-7.7047780">
        <ele>419.6</ele>
        <time>2021-07-24T11:58:47Z</time>
      </trkpt>
      <trkpt lat="43.2813040" lon="-7.7048010">
        <ele>419.6</ele>
        <time>2021-07-24T11:58:50Z</time>
      </trkpt>
      <trkpt lat="43.2812410" lon="-7.7048540">
        <ele>420.0</ele>
        <time>2021-07-24T11:58:55Z</time>
      </trkpt>
      <trkpt lat="43.2812320" lon="-7.7048680">
        <ele>420.4</ele>
        <time>2021-07-24T11:58:56Z</time>
      </trkpt>
      <trkpt lat="43.2812210" lon="-7.7048860">
        <ele>420.8</ele>
        <time>2021-07-24T11:58:57Z</time>
      </trkpt>
      <trkpt lat="43.2812130" lon="-7.7049020">
        <ele>421.2</ele>
        <time>2021-07-24T11:58:58Z</time>
      </trkpt>
      <trkpt lat="43.2812050" lon="-7.7049120">
        <ele>421.8</ele>
        <time>2021-07-24T11:58:59Z</time>
      </trkpt>
      <trkpt lat="43.2811280" lon="-7.7050010">
        <ele>421.8</ele>
        <time>2021-07-24T11:59:06Z</time>
      </trkpt>
      <trkpt lat="43.2811170" lon="-7.7050110">
        <ele>422.2</ele>
        <time>2021-07-24T11:59:07Z</time>
      </trkpt>
      <trkpt lat="43.2811090" lon="-7.7050220">
        <ele>422.6</ele>
        <time>2021-07-24T11:59:08Z</time>
      </trkpt>
      <trkpt lat="43.2811050" lon="-7.7050410">
        <ele>423.0</ele>
        <time>2021-07-24T11:59:09Z</time>
      </trkpt>
      <trkpt lat="43.2811010" lon="-7.7050620">
        <ele>423.4</ele>
        <time>2021-07-24T11:59:10Z</time>
      </trkpt>
      <trkpt lat="43.2810950" lon="-7.7050820">
        <ele>423.8</ele>
        <time>2021-07-24T11:59:11Z</time>
      </trkpt>
      <trkpt lat="43.2810700" lon="-7.7051280">
        <ele>423.8</ele>
        <time>2021-07-24T11:59:14Z</time>
      </trkpt>
      <trkpt lat="43.2810310" lon="-7.7052010">
        <ele>424.2</ele>
        <time>2021-07-24T11:59:19Z</time>
      </trkpt>
      <trkpt lat="43.2810230" lon="-7.7052150">
        <ele>424.6</ele>
        <time>2021-07-24T11:59:20Z</time>
      </trkpt>
      <trkpt lat="43.2810120" lon="-7.7052250">
        <ele>425.0</ele>
        <time>2021-07-24T11:59:21Z</time>
      </trkpt>
      <trkpt lat="43.2810000" lon="-7.7052320">
        <ele>425.4</ele>
        <time>2021-07-24T11:59:22Z</time>
      </trkpt>
      <trkpt lat="43.2809880" lon="-7.7052350">
        <ele>425.8</ele>
        <time>2021-07-24T11:59:23Z</time>
      </trkpt>
      <trkpt lat="43.2809240" lon="-7.7052270">
        <ele>425.8</ele>
        <time>2021-07-24T11:59:28Z</time>
      </trkpt>
      <trkpt lat="43.2809110" lon="-7.7052120">
        <ele>426.2</ele>
        <time>2021-07-24T11:59:30Z</time>
      </trkpt>
      <trkpt lat="43.2809030" lon="-7.7051980">
        <ele>427.0</ele>
        <time>2021-07-24T11:59:31Z</time>
      </trkpt>
      <trkpt lat="43.2808880" lon="-7.7051880">
        <ele>427.6</ele>
        <time>2021-07-24T11:59:32Z</time>
      </trkpt>
      <trkpt lat="43.2808700" lon="-7.7051700">
        <ele>428.0</ele>
        <time>2021-07-24T11:59:33Z</time>
      </trkpt>
      <trkpt lat="43.2808570" lon="-7.7051510">
        <ele>428.0</ele>
        <time>2021-07-24T11:59:34Z</time>
      </trkpt>
      <trkpt lat="43.2807530" lon="-7.7050310">
        <ele>428.0</ele>
        <time>2021-07-24T11:59:41Z</time>
      </trkpt>
      <trkpt lat="43.2807300" lon="-7.7049900">
        <ele>428.4</ele>
        <time>2021-07-24T11:59:43Z</time>
      </trkpt>
      <trkpt lat="43.2807210" lon="-7.7049590">
        <ele>428.8</ele>
        <time>2021-07-24T11:59:44Z</time>
      </trkpt>
      <trkpt lat="43.2807110" lon="-7.7049320">
        <ele>429.2</ele>
        <time>2021-07-24T11:59:45Z</time>
      </trkpt>
      <trkpt lat="43.2807070" lon="-7.7049010">
        <ele>429.6</ele>
        <time>2021-07-24T11:59:46Z</time>
      </trkpt>
      <trkpt lat="43.2806970" lon="-7.7048660">
        <ele>430.0</ele>
        <time>2021-07-24T11:59:47Z</time>
      </trkpt>
      <trkpt lat="43.2806810" lon="-7.7048430">
        <ele>430.0</ele>
        <time>2021-07-24T11:59:48Z</time>
      </trkpt>
      <trkpt lat="43.2806570" lon="-7.7048300">
        <ele>430.0</ele>
        <time>2021-07-24T11:59:50Z</time>
      </trkpt>
      <trkpt lat="43.2806040" lon="-7.7048250">
        <ele>430.0</ele>
        <time>2021-07-24T11:59:53Z</time>
      </trkpt>
      <trkpt lat="43.2805730" lon="-7.7048620">
        <ele>430.0</ele>
        <time>2021-07-24T11:59:56Z</time>
      </trkpt>
      <trkpt lat="43.2805740" lon="-7.7048620">
        <ele>430.0</ele>
        <time>2021-07-24T11:59:57Z</time>
      </trkpt>
      <trkpt lat="43.2799020" lon="-7.7055410">
        <ele>440.4</ele>
        <time>2021-07-24T12:01:23Z</time>
      </trkpt>
      <trkpt lat="43.2798920" lon="-7.7055910">
        <ele>440.8</ele>
        <time>2021-07-24T12:01:26Z</time>
      </trkpt>
      <trkpt lat="43.2798850" lon="-7.7056070">
        <ele>441.2</ele>
        <time>2021-07-24T12:01:27Z</time>
      </trkpt>
      <trkpt lat="43.2798760" lon="-7.7056230">
        <ele>441.6</ele>
        <time>2021-07-24T12:01:28Z</time>
      </trkpt>
      <trkpt lat="43.2798710" lon="-7.7056370">
        <ele>442.0</ele>
        <time>2021-07-24T12:01:29Z</time>
      </trkpt>
      <trkpt lat="43.2798640" lon="-7.7056510">
        <ele>442.4</ele>
        <time>2021-07-24T12:01:30Z</time>
      </trkpt>
      <trkpt lat="43.2798410" lon="-7.7056860">
        <ele>442.4</ele>
        <time>2021-07-24T12:01:32Z</time>
      </trkpt>
      <trkpt lat="43.2798290" lon="-7.7056930">
        <ele>442.4</ele>
        <time>2021-07-24T12:01:34Z</time>
      </trkpt>
      <trkpt lat="43.2797630" lon="-7.7057420">
        <ele>442.4</ele>
        <time>2021-07-24T12:01:47Z</time>
      </trkpt>
      <trkpt lat="43.2797460" lon="-7.7057580">
        <ele>442.4</ele>
        <time>2021-07-24T12:01:48Z</time>
      </trkpt>
      <trkpt lat="43.2796960" lon="-7.7058490">
        <ele>442.4</ele>
        <time>2021-07-24T12:01:51Z</time>
      </trkpt>
      <trkpt lat="43.2796900" lon="-7.7059350">
        <ele>442.4</ele>
        <time>2021-07-24T12:01:53Z</time>
      </trkpt>
      <trkpt lat="43.2796750" lon="-7.7060880">
        <ele>442.4</ele>
        <time>2021-07-24T12:01:57Z</time>
      </trkpt>
      <trkpt lat="43.2795660" lon="-7.7061780">
        <ele>442.4</ele>
        <time>2021-07-24T12:02:03Z</time>
      </trkpt>
      <trkpt lat="43.2795460" lon="-7.7061780">
        <ele>442.4</ele>
        <time>2021-07-24T12:02:04Z</time>
      </trkpt>
      <trkpt lat="43.2795260" lon="-7.7061740">
        <ele>442.8</ele>
        <time>2021-07-24T12:02:05Z</time>
      </trkpt>
      <trkpt lat="43.2795040" lon="-7.7061720">
        <ele>443.2</ele>
        <time>2021-07-24T12:02:06Z</time>
      </trkpt>
      <trkpt lat="43.2794830" lon="-7.7061700">
        <ele>443.6</ele>
        <time>2021-07-24T12:02:07Z</time>
      </trkpt>
      <trkpt lat="43.2794590" lon="-7.7061660">
        <ele>444.0</ele>
        <time>2021-07-24T12:02:08Z</time>
      </trkpt>
      <trkpt lat="43.2794350" lon="-7.7061600">
        <ele>444.4</ele>
        <time>2021-07-24T12:02:09Z</time>
      </trkpt>
      <trkpt lat="43.2794070" lon="-7.7061560">
        <ele>444.4</ele>
        <time>2021-07-24T12:02:10Z</time>
      </trkpt>
      <trkpt lat="43.2792440" lon="-7.7061580">
        <ele>444.4</ele>
        <time>2021-07-24T12:02:17Z</time>
      </trkpt>
      <trkpt lat="43.2791620" lon="-7.7061670">
        <ele>444.8</ele>
        <time>2021-07-24T12:02:22Z</time>
      </trkpt>
      <trkpt lat="43.2791570" lon="-7.7061720">
        <ele>445.4</ele>
        <time>2021-07-24T12:02:23Z</time>
      </trkpt>
      <trkpt lat="43.2791500" lon="-7.7061900">
        <ele>446.2</ele>
        <time>2021-07-24T12:02:24Z</time>
      </trkpt>
      <trkpt lat="43.2791520" lon="-7.7062150">
        <ele>446.6</ele>
        <time>2021-07-24T12:02:25Z</time>
      </trkpt>
      <trkpt lat="43.2791880" lon="-7.7062860">
        <ele>446.6</ele>
        <time>2021-07-24T12:02:28Z</time>
      </trkpt>
      <trkpt lat="43.2792010" lon="-7.7063530">
        <ele>446.6</ele>
        <time>2021-07-24T12:02:30Z</time>
      </trkpt>
      <trkpt lat="43.2792030" lon="-7.7064820">
        <ele>447.0</ele>
        <time>2021-07-24T12:02:35Z</time>
      </trkpt>
      <trkpt lat="43.2791910" lon="-7.7064990">
        <ele>447.4</ele>
        <time>2021-07-24T12:02:36Z</time>
      </trkpt>
      <trkpt lat="43.2791810" lon="-7.7065090">
        <ele>447.8</ele>
        <time>2021-07-24T12:02:37Z</time>
      </trkpt>
      <trkpt lat="43.2791640" lon="-7.7065180">
        <ele>448.2</ele>
        <time>2021-07-24T12:02:38Z</time>
      </trkpt>
      <trkpt lat="43.2791410" lon="-7.7065280">
        <ele>448.6</ele>
        <time>2021-07-24T12:02:39Z</time>
      </trkpt>
      <trkpt lat="43.2791170" lon="-7.7065480">
        <ele>448.6</ele>
        <time>2021-07-24T12:02:40Z</time>
      </trkpt>
      <trkpt lat="43.2790920" lon="-7.7065670">
        <ele>448.6</ele>
        <time>2021-07-24T12:02:41Z</time>
      </trkpt>
      <trkpt lat="43.2789810" lon="-7.7066810">
        <ele>449.2</ele>
        <time>2021-07-24T12:02:47Z</time>
      </trkpt>
      <trkpt lat="43.2789690" lon="-7.7067010">
        <ele>449.6</ele>
        <time>2021-07-24T12:02:48Z</time>
      </trkpt>
      <trkpt lat="43.2789620" lon="-7.7067250">
        <ele>450.4</ele>
        <time>2021-07-24T12:02:49Z</time>
      </trkpt>
      <trkpt lat="43.2789550" lon="-7.7067460">
        <ele>450.8</ele>
        <time>2021-07-24T12:02:50Z</time>
      </trkpt>
      <trkpt lat="43.2789320" lon="-7.7068240">
        <ele>450.8</ele>
        <time>2021-07-24T12:02:53Z</time>
      </trkpt>
      <trkpt lat="43.2788720" lon="-7.7069830">
        <ele>451.2</ele>
        <time>2021-07-24T12:02:59Z</time>
      </trkpt>
      <trkpt lat="43.2788660" lon="-7.7070150">
        <ele>451.6</ele>
        <time>2021-07-24T12:03:00Z</time>
      </trkpt>
      <trkpt lat="43.2788580" lon="-7.7070470">
        <ele>452.0</ele>
        <time>2021-07-24T12:03:01Z</time>
      </trkpt>
      <trkpt lat="43.2788510" lon="-7.7070740">
        <ele>452.4</ele>
        <time>2021-07-24T12:03:02Z</time>
      </trkpt>
      <trkpt lat="43.2788470" lon="-7.7071040">
        <ele>453.0</ele>
        <time>2021-07-24T12:03:03Z</time>
      </trkpt>
      <trkpt lat="43.2788510" lon="-7.7072480">
        <ele>453.0</ele>
        <time>2021-07-24T12:03:08Z</time>
      </trkpt>
      <trkpt lat="43.2788920" lon="-7.7073990">
        <ele>453.4</ele>
        <time>2021-07-24T12:03:13Z</time>
      </trkpt>
      <trkpt lat="43.2789020" lon="-7.7074280">
        <ele>454.2</ele>
        <time>2021-07-24T12:03:14Z</time>
      </trkpt>
      <trkpt lat="43.2789110" lon="-7.7074680">
        <ele>454.6</ele>
        <time>2021-07-24T12:03:15Z</time>
      </trkpt>
      <trkpt lat="43.2789210" lon="-7.7074980">
        <ele>455.0</ele>
        <time>2021-07-24T12:03:16Z</time>
      </trkpt>
      <trkpt lat="43.2789000" lon="-7.7076750">
        <ele>455.0</ele>
        <time>2021-07-24T12:03:21Z</time>
      </trkpt>
      <trkpt lat="43.2788210" lon="-7.7078980">
        <ele>455.0</ele>
        <time>2021-07-24T12:03:28Z</time>
      </trkpt>
      <trkpt lat="43.2787520" lon="-7.7080520">
        <ele>455.0</ele>
        <time>2021-07-24T12:03:35Z</time>
      </trkpt>
      <trkpt lat="43.2787070" lon="-7.7082190">
        <ele>455.0</ele>
        <time>2021-07-24T12:03:41Z</time>
      </trkpt>
      <trkpt lat="43.2786210" lon="-7.7083840">
        <ele>455.4</ele>
        <time>2021-07-24T12:03:47Z</time>
      </trkpt>
      <trkpt lat="43.2786070" lon="-7.7084120">
        <ele>455.8</ele>
        <time>2021-07-24T12:03:48Z</time>
      </trkpt>
      <trkpt lat="43.2786000" lon="-7.7084280">
        <ele>456.2</ele>
        <time>2021-07-24T12:03:49Z</time>
      </trkpt>
      <trkpt lat="43.2785850" lon="-7.7084540">
        <ele>456.6</ele>
        <time>2021-07-24T12:03:50Z</time>
      </trkpt>
      <trkpt lat="43.2785660" lon="-7.7084820">
        <ele>457.0</ele>
        <time>2021-07-24T12:03:51Z</time>
      </trkpt>
      <trkpt lat="43.2784900" lon="-7.7086120">
        <ele>457.0</ele>
        <time>2021-07-24T12:03:56Z</time>
      </trkpt>
      <trkpt lat="43.2783900" lon="-7.7087070">
        <ele>457.0</ele>
        <time>2021-07-24T12:04:02Z</time>
      </trkpt>
      <trkpt lat="43.2783660" lon="-7.7087430">
        <ele>457.0</ele>
        <time>2021-07-24T12:04:04Z</time>
      </trkpt>
      <trkpt lat="43.2783440" lon="-7.7087900">
        <ele>457.0</ele>
        <time>2021-07-24T12:04:08Z</time>
      </trkpt>
      <trkpt lat="43.2783110" lon="-7.7087940">
        <ele>457.0</ele>
        <time>2021-07-24T12:04:18Z</time>
      </trkpt>
      <trkpt lat="43.2782930" lon="-7.7087990">
        <ele>457.0</ele>
        <time>2021-07-24T12:04:19Z</time>
      </trkpt>
      <trkpt lat="43.2781570" lon="-7.7087500">
        <ele>457.0</ele>
        <time>2021-07-24T12:04:26Z</time>
      </trkpt>
      <trkpt lat="43.2779680" lon="-7.7087060">
        <ele>457.0</ele>
        <time>2021-07-24T12:04:32Z</time>
      </trkpt>
      <trkpt lat="43.2779130" lon="-7.7087310">
        <ele>457.0</ele>
        <time>2021-07-24T12:04:33Z</time>
      </trkpt>
      <trkpt lat="43.2778630" lon="-7.7087550">
        <ele>456.6</ele>
        <time>2021-07-24T12:04:34Z</time>
      </trkpt>
      <trkpt lat="43.2778170" lon="-7.7087820">
        <ele>456.2</ele>
        <time>2021-07-24T12:04:35Z</time>
      </trkpt>
      <trkpt lat="43.2777770" lon="-7.7088100">
        <ele>455.8</ele>
        <time>2021-07-24T12:04:36Z</time>
      </trkpt>
      <trkpt lat="43.2777430" lon="-7.7088390">
        <ele>455.2</ele>
        <time>2021-07-24T12:04:37Z</time>
      </trkpt>
      <trkpt lat="43.2777140" lon="-7.7088710">
        <ele>454.8</ele>
        <time>2021-07-24T12:04:38Z</time>
      </trkpt>
      <trkpt lat="43.2776510" lon="-7.7089510">
        <ele>454.4</ele>
        <time>2021-07-24T12:04:40Z</time>
      </trkpt>
      <trkpt lat="43.2776100" lon="-7.7090070">
        <ele>454.0</ele>
        <time>2021-07-24T12:04:41Z</time>
      </trkpt>
      <trkpt lat="43.2775760" lon="-7.7090510">
        <ele>453.6</ele>
        <time>2021-07-24T12:04:42Z</time>
      </trkpt>
      <trkpt lat="43.2775420" lon="-7.7090950">
        <ele>453.2</ele>
        <time>2021-07-24T12:04:43Z</time>
      </trkpt>
      <trkpt lat="43.2775110" lon="-7.7091350">
        <ele>452.8</ele>
        <time>2021-07-24T12:04:44Z</time>
      </trkpt>
      <trkpt lat="43.2774830" lon="-7.7091600">
        <ele>452.4</ele>
        <time>2021-07-24T12:04:45Z</time>
      </trkpt>
      <trkpt lat="43.2774520" lon="-7.7091910">
        <ele>452.0</ele>
        <time>2021-07-24T12:04:46Z</time>
      </trkpt>
      <trkpt lat="43.2774210" lon="-7.7092200">
        <ele>451.6</ele>
        <time>2021-07-24T12:04:47Z</time>
      </trkpt>
      <trkpt lat="43.2773930" lon="-7.7092480">
        <ele>451.0</ele>
        <time>2021-07-24T12:04:48Z</time>
      </trkpt>
      <trkpt lat="43.2773600" lon="-7.7092720">
        <ele>450.6</ele>
        <time>2021-07-24T12:04:49Z</time>
      </trkpt>
      <trkpt lat="43.2772940" lon="-7.7093020">
        <ele>450.6</ele>
        <time>2021-07-24T12:04:51Z</time>
      </trkpt>
      <trkpt lat="43.2772590" lon="-7.7093140">
        <ele>449.6</ele>
        <time>2021-07-24T12:04:52Z</time>
      </trkpt>
      <trkpt lat="43.2772220" lon="-7.7093220">
        <ele>449.2</ele>
        <time>2021-07-24T12:04:53Z</time>
      </trkpt>
      <trkpt lat="43.2771980" lon="-7.7093250">
        <ele>448.8</ele>
        <time>2021-07-24T12:04:54Z</time>
      </trkpt>
      <trkpt lat="43.2771760" lon="-7.7093330">
        <ele>448.2</ele>
        <time>2021-07-24T12:04:55Z</time>
      </trkpt>
      <trkpt lat="43.2771540" lon="-7.7093370">
        <ele>448.2</ele>
        <time>2021-07-24T12:04:56Z</time>
      </trkpt>
      <trkpt lat="43.2770140" lon="-7.7093830">
        <ele>448.2</ele>
        <time>2021-07-24T12:05:02Z</time>
      </trkpt>
      <trkpt lat="43.2768800" lon="-7.7093120">
        <ele>448.2</ele>
        <time>2021-07-24T12:05:08Z</time>
      </trkpt>
      <trkpt lat="43.2767620" lon="-7.7092650">
        <ele>448.2</ele>
        <time>2021-07-24T12:05:15Z</time>
      </trkpt>
      <trkpt lat="43.2767220" lon="-7.7092490">
        <ele>448.6</ele>
        <time>2021-07-24T12:05:18Z</time>
      </trkpt>
      <trkpt lat="43.2767090" lon="-7.7092440">
        <ele>449.2</ele>
        <time>2021-07-24T12:05:19Z</time>
      </trkpt>
      <trkpt lat="43.2766920" lon="-7.7092390">
        <ele>449.6</ele>
        <time>2021-07-24T12:05:20Z</time>
      </trkpt>
      <trkpt lat="43.2766720" lon="-7.7092340">
        <ele>450.0</ele>
        <time>2021-07-24T12:05:21Z</time>
      </trkpt>
      <trkpt lat="43.2766560" lon="-7.7092300">
        <ele>450.4</ele>
        <time>2021-07-24T12:05:22Z</time>
      </trkpt>
      <trkpt lat="43.2766410" lon="-7.7092280">
        <ele>450.4</ele>
        <time>2021-07-24T12:05:23Z</time>
      </trkpt>
      <trkpt lat="43.2765100" lon="-7.7091810">
        <ele>450.4</ele>
        <time>2021-07-24T12:05:31Z</time>
      </trkpt>
      <trkpt lat="43.2764790" lon="-7.7091740">
        <ele>450.8</ele>
        <time>2021-07-24T12:05:33Z</time>
      </trkpt>
      <trkpt lat="43.2764640" lon="-7.7091740">
        <ele>451.2</ele>
        <time>2021-07-24T12:05:34Z</time>
      </trkpt>
      <trkpt lat="43.2764490" lon="-7.7091790">
        <ele>451.6</ele>
        <time>2021-07-24T12:05:35Z</time>
      </trkpt>
      <trkpt lat="43.2764350" lon="-7.7091820">
        <ele>452.0</ele>
        <time>2021-07-24T12:05:36Z</time>
      </trkpt>
      <trkpt lat="43.2764200" lon="-7.7091790">
        <ele>452.4</ele>
        <time>2021-07-24T12:05:37Z</time>
      </trkpt>
      <trkpt lat="43.2764050" lon="-7.7091770">
        <ele>452.4</ele>
        <time>2021-07-24T12:05:38Z</time>
      </trkpt>
      <trkpt lat="43.2763210" lon="-7.7091930">
        <ele>452.8</ele>
        <time>2021-07-24T12:05:44Z</time>
      </trkpt>
      <trkpt lat="43.2763060" lon="-7.7091970">
        <ele>453.2</ele>
        <time>2021-07-24T12:05:45Z</time>
      </trkpt>
      <trkpt lat="43.2762870" lon="-7.7091980">
        <ele>453.6</ele>
        <time>2021-07-24T12:05:46Z</time>
      </trkpt>
      <trkpt lat="43.2762720" lon="-7.7091950">
        <ele>454.0</ele>
        <time>2021-07-24T12:05:47Z</time>
      </trkpt>
      <trkpt lat="43.2762580" lon="-7.7091870">
        <ele>454.4</ele>
        <time>2021-07-24T12:05:48Z</time>
      </trkpt>
      <trkpt lat="43.2761720" lon="-7.7091320">
        <ele>454.4</ele>
        <time>2021-07-24T12:05:54Z</time>
      </trkpt>
      <trkpt lat="43.2761470" lon="-7.7091010">
        <ele>454.8</ele>
        <time>2021-07-24T12:05:56Z</time>
      </trkpt>
      <trkpt lat="43.2761350" lon="-7.7090810">
        <ele>455.2</ele>
        <time>2021-07-24T12:05:57Z</time>
      </trkpt>
      <trkpt lat="43.2761230" lon="-7.7090630">
        <ele>455.8</ele>
        <time>2021-07-24T12:05:58Z</time>
      </trkpt>
      <trkpt lat="43.2761140" lon="-7.7090440">
        <ele>456.2</ele>
        <time>2021-07-24T12:05:59Z</time>
      </trkpt>
      <trkpt lat="43.2761040" lon="-7.7090230">
        <ele>456.6</ele>
        <time>2021-07-24T12:06:00Z</time>
      </trkpt>
      <trkpt lat="43.2760910" lon="-7.7090040">
        <ele>456.6</ele>
        <time>2021-07-24T12:06:01Z</time>
      </trkpt>
      <trkpt lat="43.2759980" lon="-7.7089140">
        <ele>457.0</ele>
        <time>2021-07-24T12:06:06Z</time>
      </trkpt>
      <trkpt lat="43.2759840" lon="-7.7089000">
        <ele>457.4</ele>
        <time>2021-07-24T12:06:07Z</time>
      </trkpt>
      <trkpt lat="43.2759660" lon="-7.7088950">
        <ele>457.8</ele>
        <time>2021-07-24T12:06:08Z</time>
      </trkpt>
      <trkpt lat="43.2759490" lon="-7.7088910">
        <ele>458.2</ele>
        <time>2021-07-24T12:06:09Z</time>
      </trkpt>
      <trkpt lat="43.2759320" lon="-7.7088830">
        <ele>458.6</ele>
        <time>2021-07-24T12:06:10Z</time>
      </trkpt>
      <trkpt lat="43.2758780" lon="-7.7088660">
        <ele>458.6</ele>
        <time>2021-07-24T12:06:13Z</time>
      </trkpt>
      <trkpt lat="43.2758380" lon="-7.7088510">
        <ele>458.6</ele>
        <time>2021-07-24T12:06:15Z</time>
      </trkpt>
      <trkpt lat="43.2757770" lon="-7.7088420">
        <ele>459.0</ele>
        <time>2021-07-24T12:06:18Z</time>
      </trkpt>
      <trkpt lat="43.2757570" lon="-7.7088470">
        <ele>459.6</ele>
        <time>2021-07-24T12:06:19Z</time>
      </trkpt>
      <trkpt lat="43.2757360" lon="-7.7088500">
        <ele>460.0</ele>
        <time>2021-07-24T12:06:20Z</time>
      </trkpt>
      <trkpt lat="43.2757190" lon="-7.7088530">
        <ele>460.4</ele>
        <time>2021-07-24T12:06:21Z</time>
      </trkpt>
      <trkpt lat="43.2757030" lon="-7.7088560">
        <ele>460.8</ele>
        <time>2021-07-24T12:06:22Z</time>
      </trkpt>
      <trkpt lat="43.2756890" lon="-7.7088620">
        <ele>460.8</ele>
        <time>2021-07-24T12:06:23Z</time>
      </trkpt>
      <trkpt lat="43.2756170" lon="-7.7088830">
        <ele>460.8</ele>
        <time>2021-07-24T12:06:27Z</time>
      </trkpt>
      <trkpt lat="43.2754270" lon="-7.7088930">
        <ele>460.8</ele>
        <time>2021-07-24T12:06:36Z</time>
      </trkpt>
      <trkpt lat="43.2753650" lon="-7.7088960">
        <ele>461.2</ele>
        <time>2021-07-24T12:06:39Z</time>
      </trkpt>
      <trkpt lat="43.2753460" lon="-7.7088990">
        <ele>461.6</ele>
        <time>2021-07-24T12:06:40Z</time>
      </trkpt>
      <trkpt lat="43.2753280" lon="-7.7089010">
        <ele>462.0</ele>
        <time>2021-07-24T12:06:41Z</time>
      </trkpt>
      <trkpt lat="43.2753120" lon="-7.7089020">
        <ele>462.6</ele>
        <time>2021-07-24T12:06:42Z</time>
      </trkpt>
      <trkpt lat="43.2752970" lon="-7.7088990">
        <ele>463.0</ele>
        <time>2021-07-24T12:06:43Z</time>
      </trkpt>
      <trkpt lat="43.2752120" lon="-7.7088940">
        <ele>463.0</ele>
        <time>2021-07-24T12:06:49Z</time>
      </trkpt>
      <trkpt lat="43.2751210" lon="-7.7088820">
        <ele>463.4</ele>
        <time>2021-07-24T12:06:54Z</time>
      </trkpt>
      <trkpt lat="43.2751060" lon="-7.7088770">
        <ele>463.8</ele>
        <time>2021-07-24T12:06:55Z</time>
      </trkpt>
      <trkpt lat="43.2750900" lon="-7.7088740">
        <ele>464.6</ele>
        <time>2021-07-24T12:06:56Z</time>
      </trkpt>
      <trkpt lat="43.2750730" lon="-7.7088700">
        <ele>465.0</ele>
        <time>2021-07-24T12:06:57Z</time>
      </trkpt>
      <trkpt lat="43.2749780" lon="-7.7088730">
        <ele>465.0</ele>
        <time>2021-07-24T12:07:03Z</time>
      </trkpt>
      <trkpt lat="43.2748840" lon="-7.7088530">
        <ele>465.4</ele>
        <time>2021-07-24T12:07:09Z</time>
      </trkpt>
      <trkpt lat="43.2748690" lon="-7.7088410">
        <ele>466.0</ele>
        <time>2021-07-24T12:07:10Z</time>
      </trkpt>
      <trkpt lat="43.2748540" lon="-7.7088310">
        <ele>466.4</ele>
        <time>2021-07-24T12:07:11Z</time>
      </trkpt>
      <trkpt lat="43.2748370" lon="-7.7088190">
        <ele>466.8</ele>
        <time>2021-07-24T12:07:12Z</time>
      </trkpt>
      <trkpt lat="43.2748190" lon="-7.7088090">
        <ele>467.2</ele>
        <time>2021-07-24T12:07:13Z</time>
      </trkpt>
      <trkpt lat="43.2747390" lon="-7.7087960">
        <ele>467.2</ele>
        <time>2021-07-24T12:07:18Z</time>
      </trkpt>
      <trkpt lat="43.2746450" lon="-7.7088090">
        <ele>467.6</ele>
        <time>2021-07-24T12:07:24Z</time>
      </trkpt>
      <trkpt lat="43.2746280" lon="-7.7088110">
        <ele>468.0</ele>
        <time>2021-07-24T12:07:25Z</time>
      </trkpt>
      <trkpt lat="43.2746090" lon="-7.7088150">
        <ele>468.4</ele>
        <time>2021-07-24T12:07:26Z</time>
      </trkpt>
      <trkpt lat="43.2745900" lon="-7.7088180">
        <ele>468.8</ele>
        <time>2021-07-24T12:07:27Z</time>
      </trkpt>
      <trkpt lat="43.2745710" lon="-7.7088170">
        <ele>469.2</ele>
        <time>2021-07-24T12:07:28Z</time>
      </trkpt>
      <trkpt lat="43.2744950" lon="-7.7088090">
        <ele>469.2</ele>
        <time>2021-07-24T12:07:32Z</time>
      </trkpt>
      <trkpt lat="43.2743450" lon="-7.7087800">
        <ele>469.2</ele>
        <time>2021-07-24T12:07:39Z</time>
      </trkpt>
      <trkpt lat="43.2742350" lon="-7.7087020">
        <ele>469.2</ele>
        <time>2021-07-24T12:07:45Z</time>
      </trkpt>
      <trkpt lat="43.2740850" lon="-7.7085890">
        <ele>469.2</ele>
        <time>2021-07-24T12:07:52Z</time>
      </trkpt>
      <trkpt lat="43.2739530" lon="-7.7084470">
        <ele>469.2</ele>
        <time>2021-07-24T12:07:57Z</time>
      </trkpt>
      <trkpt lat="43.2737630" lon="-7.7082940">
        <ele>469.2</ele>
        <time>2021-07-24T12:08:04Z</time>
      </trkpt>
      <trkpt lat="43.2737090" lon="-7.7082600">
        <ele>469.8</ele>
        <time>2021-07-24T12:08:06Z</time>
      </trkpt>
      <trkpt lat="43.2736820" lon="-7.7082410">
        <ele>470.2</ele>
        <time>2021-07-24T12:08:07Z</time>
      </trkpt>
      <trkpt lat="43.2736540" lon="-7.7082240">
        <ele>470.6</ele>
        <time>2021-07-24T12:08:08Z</time>
      </trkpt>
      <trkpt lat="43.2736260" lon="-7.7082080">
        <ele>471.0</ele>
        <time>2021-07-24T12:08:09Z</time>
      </trkpt>
      <trkpt lat="43.2735970" lon="-7.7081920">
        <ele>471.4</ele>
        <time>2021-07-24T12:08:10Z</time>
      </trkpt>
      <trkpt lat="43.2735380" lon="-7.7081600">
        <ele>471.4</ele>
        <time>2021-07-24T12:08:12Z</time>
      </trkpt>
      <trkpt lat="43.2733390" lon="-7.7081110">
        <ele>471.4</ele>
        <time>2021-07-24T12:08:19Z</time>
      </trkpt>
      <trkpt lat="43.2731360" lon="-7.7080780">
        <ele>471.4</ele>
        <time>2021-07-24T12:08:26Z</time>
      </trkpt>
      <trkpt lat="43.2729740" lon="-7.7080300">
        <ele>471.4</ele>
        <time>2021-07-24T12:08:31Z</time>
      </trkpt>
      <trkpt lat="43.2728530" lon="-7.7078850">
        <ele>471.4</ele>
        <time>2021-07-24T12:08:36Z</time>
      </trkpt>
      <trkpt lat="43.2727370" lon="-7.7078390">
        <ele>471.4</ele>
        <time>2021-07-24T12:08:41Z</time>
      </trkpt>
      <trkpt lat="43.2727150" lon="-7.7078450">
        <ele>471.0</ele>
        <time>2021-07-24T12:08:42Z</time>
      </trkpt>
      <trkpt lat="43.2726920" lon="-7.7078580">
        <ele>470.4</ele>
        <time>2021-07-24T12:08:43Z</time>
      </trkpt>
      <trkpt lat="43.2726700" lon="-7.7078680">
        <ele>470.0</ele>
        <time>2021-07-24T12:08:44Z</time>
      </trkpt>
      <trkpt lat="43.2726480" lon="-7.7078770">
        <ele>469.6</ele>
        <time>2021-07-24T12:08:45Z</time>
      </trkpt>
      <trkpt lat="43.2726230" lon="-7.7078860">
        <ele>469.0</ele>
        <time>2021-07-24T12:08:46Z</time>
      </trkpt>
      <trkpt lat="43.2724530" lon="-7.7079620">
        <ele>468.6</ele>
        <time>2021-07-24T12:08:51Z</time>
      </trkpt>
      <trkpt lat="43.2724120" lon="-7.7079880">
        <ele>468.2</ele>
        <time>2021-07-24T12:08:52Z</time>
      </trkpt>
      <trkpt lat="43.2723700" lon="-7.7080140">
        <ele>467.8</ele>
        <time>2021-07-24T12:08:53Z</time>
      </trkpt>
      <trkpt lat="43.2723280" lon="-7.7080400">
        <ele>467.4</ele>
        <time>2021-07-24T12:08:54Z</time>
      </trkpt>
      <trkpt lat="43.2722900" lon="-7.7080650">
        <ele>467.0</ele>
        <time>2021-07-24T12:08:55Z</time>
      </trkpt>
      <trkpt lat="43.2722310" lon="-7.7081030">
        <ele>466.6</ele>
        <time>2021-07-24T12:08:57Z</time>
      </trkpt>
      <trkpt lat="43.2722170" lon="-7.7081130">
        <ele>466.2</ele>
        <time>2021-07-24T12:08:58Z</time>
      </trkpt>
      <trkpt lat="43.2722030" lon="-7.7081200">
        <ele>465.8</ele>
        <time>2021-07-24T12:08:59Z</time>
      </trkpt>
      <trkpt lat="43.2721810" lon="-7.7081260">
        <ele>465.0</ele>
        <time>2021-07-24T12:09:00Z</time>
      </trkpt>
      <trkpt lat="43.2721550" lon="-7.7081330">
        <ele>465.0</ele>
        <time>2021-07-24T12:09:01Z</time>
      </trkpt>
      <trkpt lat="43.2720910" lon="-7.7081480">
        <ele>465.0</ele>
        <time>2021-07-24T12:09:04Z</time>
      </trkpt>
      <trkpt lat="43.2719980" lon="-7.7081790">
        <ele>465.0</ele>
        <time>2021-07-24T12:09:08Z</time>
      </trkpt>
      <trkpt lat="43.2718570" lon="-7.7082310">
        <ele>465.4</ele>
        <time>2021-07-24T12:09:15Z</time>
      </trkpt>
      <trkpt lat="43.2718340" lon="-7.7082400">
        <ele>465.8</ele>
        <time>2021-07-24T12:09:16Z</time>
      </trkpt>
      <trkpt lat="43.2718120" lon="-7.7082480">
        <ele>466.2</ele>
        <time>2021-07-24T12:09:17Z</time>
      </trkpt>
      <trkpt lat="43.2717870" lon="-7.7082510">
        <ele>466.6</ele>
        <time>2021-07-24T12:09:18Z</time>
      </trkpt>
      <trkpt lat="43.2717610" lon="-7.7082560">
        <ele>467.0</ele>
        <time>2021-07-24T12:09:19Z</time>
      </trkpt>
      <trkpt lat="43.2716820" lon="-7.7082850">
        <ele>467.0</ele>
        <time>2021-07-24T12:09:22Z</time>
      </trkpt>
      <trkpt lat="43.2716320" lon="-7.7083140">
        <ele>467.4</ele>
        <time>2021-07-24T12:09:24Z</time>
      </trkpt>
      <trkpt lat="43.2716080" lon="-7.7083290">
        <ele>467.8</ele>
        <time>2021-07-24T12:09:25Z</time>
      </trkpt>
      <trkpt lat="43.2715830" lon="-7.7083390">
        <ele>468.2</ele>
        <time>2021-07-24T12:09:26Z</time>
      </trkpt>
      <trkpt lat="43.2715600" lon="-7.7083480">
        <ele>468.6</ele>
        <time>2021-07-24T12:09:27Z</time>
      </trkpt>
      <trkpt lat="43.2715350" lon="-7.7083540">
        <ele>469.0</ele>
        <time>2021-07-24T12:09:28Z</time>
      </trkpt>
      <trkpt lat="43.2715110" lon="-7.7083590">
        <ele>469.0</ele>
        <time>2021-07-24T12:09:29Z</time>
      </trkpt>
      <trkpt lat="43.2713500" lon="-7.7083950">
        <ele>469.0</ele>
        <time>2021-07-24T12:09:35Z</time>
      </trkpt>
      <trkpt lat="43.2710970" lon="-7.7085560">
        <ele>469.0</ele>
        <time>2021-07-24T12:09:43Z</time>
      </trkpt>
      <trkpt lat="43.2709730" lon="-7.7086620">
        <ele>469.0</ele>
        <time>2021-07-24T12:09:48Z</time>
      </trkpt>
      <trkpt lat="43.2708290" lon="-7.7087400">
        <ele>469.0</ele>
        <time>2021-07-24T12:09:54Z</time>
      </trkpt>
      <trkpt lat="43.2707240" lon="-7.7088900">
        <ele>469.4</ele>
        <time>2021-07-24T12:09:59Z</time>
      </trkpt>
      <trkpt lat="43.2707030" lon="-7.7089220">
        <ele>469.8</ele>
        <time>2021-07-24T12:10:00Z</time>
      </trkpt>
      <trkpt lat="43.2706870" lon="-7.7089540">
        <ele>470.2</ele>
        <time>2021-07-24T12:10:01Z</time>
      </trkpt>
      <trkpt lat="43.2706690" lon="-7.7089910">
        <ele>470.6</ele>
        <time>2021-07-24T12:10:02Z</time>
      </trkpt>
      <trkpt lat="43.2706490" lon="-7.7090260">
        <ele>471.2</ele>
        <time>2021-07-24T12:10:03Z</time>
      </trkpt>
      <trkpt lat="43.2706020" lon="-7.7090860">
        <ele>471.2</ele>
        <time>2021-07-24T12:10:05Z</time>
      </trkpt>
      <trkpt lat="43.2704600" lon="-7.7092240">
        <ele>471.2</ele>
        <time>2021-07-24T12:10:11Z</time>
      </trkpt>
      <trkpt lat="43.2703220" lon="-7.7093920">
        <ele>471.2</ele>
        <time>2021-07-24T12:10:17Z</time>
      </trkpt>
      <trkpt lat="43.2701420" lon="-7.7095380">
        <ele>471.2</ele>
        <time>2021-07-24T12:10:24Z</time>
      </trkpt>
      <trkpt lat="43.2699600" lon="-7.7095570">
        <ele>471.2</ele>
        <time>2021-07-24T12:10:30Z</time>
      </trkpt>
      <trkpt lat="43.2698030" lon="-7.7095740">
        <ele>471.2</ele>
        <time>2021-07-24T12:10:36Z</time>
      </trkpt>
      <trkpt lat="43.2696000" lon="-7.7096190">
        <ele>471.2</ele>
        <time>2021-07-24T12:10:44Z</time>
      </trkpt>
      <trkpt lat="43.2694510" lon="-7.7096640">
        <ele>471.2</ele>
        <time>2021-07-24T12:10:50Z</time>
      </trkpt>
      <trkpt lat="43.2692920" lon="-7.7097500">
        <ele>471.2</ele>
        <time>2021-07-24T12:10:57Z</time>
      </trkpt>
      <trkpt lat="43.2691090" lon="-7.7098050">
        <ele>471.2</ele>
        <time>2021-07-24T12:11:03Z</time>
      </trkpt>
      <trkpt lat="43.2688730" lon="-7.7099160">
        <ele>471.2</ele>
        <time>2021-07-24T12:11:09Z</time>
      </trkpt>
      <trkpt lat="43.2686590" lon="-7.7099760">
        <ele>471.2</ele>
        <time>2021-07-24T12:11:15Z</time>
      </trkpt>
      <trkpt lat="43.2684680" lon="-7.7100150">
        <ele>471.2</ele>
        <time>2021-07-24T12:11:21Z</time>
      </trkpt>
      <trkpt lat="43.2683020" lon="-7.7100520">
        <ele>471.2</ele>
        <time>2021-07-24T12:11:25Z</time>
      </trkpt>
      <trkpt lat="43.2682010" lon="-7.7100950">
        <ele>471.2</ele>
        <time>2021-07-24T12:11:27Z</time>
      </trkpt>
      <trkpt lat="43.2681470" lon="-7.7101220">
        <ele>470.2</ele>
        <time>2021-07-24T12:11:28Z</time>
      </trkpt>
      <trkpt lat="43.2680880" lon="-7.7101540">
        <ele>469.6</ele>
        <time>2021-07-24T12:11:29Z</time>
      </trkpt>
      <trkpt lat="43.2680230" lon="-7.7101840">
        <ele>469.2</ele>
        <time>2021-07-24T12:11:30Z</time>
      </trkpt>
      <trkpt lat="43.2679540" lon="-7.7102080">
        <ele>468.6</ele>
        <time>2021-07-24T12:11:31Z</time>
      </trkpt>
      <trkpt lat="43.2677350" lon="-7.7102520">
        <ele>468.6</ele>
        <time>2021-07-24T12:11:34Z</time>
      </trkpt>
      <trkpt lat="43.2675870" lon="-7.7102280">
        <ele>468.2</ele>
        <time>2021-07-24T12:11:36Z</time>
      </trkpt>
      <trkpt lat="43.2675150" lon="-7.7102120">
        <ele>467.6</ele>
        <time>2021-07-24T12:11:37Z</time>
      </trkpt>
      <trkpt lat="43.2674450" lon="-7.7101980">
        <ele>467.2</ele>
        <time>2021-07-24T12:11:38Z</time>
      </trkpt>
      <trkpt lat="43.2673760" lon="-7.7101880">
        <ele>466.6</ele>
        <time>2021-07-24T12:11:39Z</time>
      </trkpt>
      <trkpt lat="43.2673090" lon="-7.7101790">
        <ele>466.0</ele>
        <time>2021-07-24T12:11:40Z</time>
      </trkpt>
      <trkpt lat="43.2672450" lon="-7.7101700">
        <ele>465.2</ele>
        <time>2021-07-24T12:11:41Z</time>
      </trkpt>
      <trkpt lat="43.2671780" lon="-7.7101620">
        <ele>464.6</ele>
        <time>2021-07-24T12:11:42Z</time>
      </trkpt>
      <trkpt lat="43.2671190" lon="-7.7101570">
        <ele>464.0</ele>
        <time>2021-07-24T12:11:43Z</time>
      </trkpt>
      <trkpt lat="43.2668760" lon="-7.7101310">
        <ele>464.0</ele>
        <time>2021-07-24T12:11:48Z</time>
      </trkpt>
      <trkpt lat="43.2667200" lon="-7.7101400">
        <ele>464.0</ele>
        <time>2021-07-24T12:11:53Z</time>
      </trkpt>
      <trkpt lat="43.2666040" lon="-7.7102430">
        <ele>464.0</ele>
        <time>2021-07-24T12:11:58Z</time>
      </trkpt>
      <trkpt lat="43.2664080" lon="-7.7103880">
        <ele>464.0</ele>
        <time>2021-07-24T12:12:05Z</time>
      </trkpt>
      <trkpt lat="43.2662300" lon="-7.7104000">
        <ele>464.0</ele>
        <time>2021-07-24T12:12:11Z</time>
      </trkpt>
      <trkpt lat="43.2660940" lon="-7.7105240">
        <ele>464.0</ele>
        <time>2021-07-24T12:12:15Z</time>
      </trkpt>
      <trkpt lat="43.2660380" lon="-7.7105980">
        <ele>464.4</ele>
        <time>2021-07-24T12:12:17Z</time>
      </trkpt>
      <trkpt lat="43.2660070" lon="-7.7106350">
        <ele>465.2</ele>
        <time>2021-07-24T12:12:18Z</time>
      </trkpt>
      <trkpt lat="43.2659780" lon="-7.7106690">
        <ele>465.6</ele>
        <time>2021-07-24T12:12:19Z</time>
      </trkpt>
      <trkpt lat="43.2659480" lon="-7.7107000">
        <ele>466.0</ele>
        <time>2021-07-24T12:12:20Z</time>
      </trkpt>
      <trkpt lat="43.2658570" lon="-7.7107960">
        <ele>466.0</ele>
        <time>2021-07-24T12:12:23Z</time>
      </trkpt>
      <trkpt lat="43.2657160" lon="-7.7109430">
        <ele>466.0</ele>
        <time>2021-07-24T12:12:29Z</time>
      </trkpt>
      <trkpt lat="43.2656760" lon="-7.7109480">
        <ele>466.0</ele>
        <time>2021-07-24T12:12:31Z</time>
      </trkpt>
      <trkpt lat="43.2656180" lon="-7.7108980">
        <ele>466.0</ele>
        <time>2021-07-24T12:12:34Z</time>
      </trkpt>
      <trkpt lat="43.2655730" lon="-7.7108250">
        <ele>466.0</ele>
        <time>2021-07-24T12:12:36Z</time>
      </trkpt>
      <trkpt lat="43.2654980" lon="-7.7107010">
        <ele>466.0</ele>
        <time>2021-07-24T12:12:39Z</time>
      </trkpt>
      <trkpt lat="43.2652750" lon="-7.7103380">
        <ele>466.0</ele>
        <time>2021-07-24T12:12:47Z</time>
      </trkpt>
      <trkpt lat="43.2650560" lon="-7.7099970">
        <ele>466.0</ele>
        <time>2021-07-24T12:12:54Z</time>
      </trkpt>
      <trkpt lat="43.2649560" lon="-7.7098870">
        <ele>465.6</ele>
        <time>2021-07-24T12:12:58Z</time>
      </trkpt>
      <trkpt lat="43.2649280" lon="-7.7098750">
        <ele>465.0</ele>
        <time>2021-07-24T12:12:59Z</time>
      </trkpt>
      <trkpt lat="43.2649000" lon="-7.7098680">
        <ele>464.6</ele>
        <time>2021-07-24T12:13:00Z</time>
      </trkpt>
      <trkpt lat="43.2648670" lon="-7.7098650">
        <ele>464.2</ele>
        <time>2021-07-24T12:13:01Z</time>
      </trkpt>
      <trkpt lat="43.2648270" lon="-7.7098690">
        <ele>463.8</ele>
        <time>2021-07-24T12:13:02Z</time>
      </trkpt>
      <trkpt lat="43.2647850" lon="-7.7098810">
        <ele>463.8</ele>
        <time>2021-07-24T12:13:03Z</time>
      </trkpt>
      <trkpt lat="43.2645530" lon="-7.7100120">
        <ele>463.8</ele>
        <time>2021-07-24T12:13:09Z</time>
      </trkpt>
      <trkpt lat="43.2643210" lon="-7.7101460">
        <ele>463.8</ele>
        <time>2021-07-24T12:13:15Z</time>
      </trkpt>
      <trkpt lat="43.2640120" lon="-7.7102110">
        <ele>463.8</ele>
        <time>2021-07-24T12:13:22Z</time>
      </trkpt>
      <trkpt lat="43.2637120" lon="-7.7102680">
        <ele>463.8</ele>
        <time>2021-07-24T12:13:28Z</time>
      </trkpt>
      <trkpt lat="43.2635050" lon="-7.7102810">
        <ele>463.4</ele>
        <time>2021-07-24T12:13:32Z</time>
      </trkpt>
      <trkpt lat="43.2634530" lon="-7.7102820">
        <ele>463.0</ele>
        <time>2021-07-24T12:13:33Z</time>
      </trkpt>
      <trkpt lat="43.2634020" lon="-7.7102840">
        <ele>462.6</ele>
        <time>2021-07-24T12:13:34Z</time>
      </trkpt>
      <trkpt lat="43.2633510" lon="-7.7102810">
        <ele>462.2</ele>
        <time>2021-07-24T12:13:35Z</time>
      </trkpt>
      <trkpt lat="43.2633000" lon="-7.7102770">
        <ele>461.8</ele>
        <time>2021-07-24T12:13:36Z</time>
      </trkpt>
      <trkpt lat="43.2632480" lon="-7.7102760">
        <ele>461.8</ele>
        <time>2021-07-24T12:13:37Z</time>
      </trkpt>
      <trkpt lat="43.2630810" lon="-7.7103410">
        <ele>461.8</ele>
        <time>2021-07-24T12:13:40Z</time>
      </trkpt>
      <trkpt lat="43.2630300" lon="-7.7103780">
        <ele>461.8</ele>
        <time>2021-07-24T12:13:41Z</time>
      </trkpt>
      <trkpt lat="43.2629770" lon="-7.7104120">
        <ele>461.8</ele>
        <time>2021-07-24T12:13:42Z</time>
      </trkpt>
      <trkpt lat="43.2628150" lon="-7.7104790">
        <ele>461.8</ele>
        <time>2021-07-24T12:13:45Z</time>
      </trkpt>
      <trkpt lat="43.2624100" lon="-7.7105790">
        <ele>461.8</ele>
        <time>2021-07-24T12:13:52Z</time>
      </trkpt>
      <trkpt lat="43.2622230" lon="-7.7106170">
        <ele>461.2</ele>
        <time>2021-07-24T12:13:56Z</time>
      </trkpt>
      <trkpt lat="43.2621780" lon="-7.7106240">
        <ele>460.4</ele>
        <time>2021-07-24T12:13:57Z</time>
      </trkpt>
      <trkpt lat="43.2621310" lon="-7.7106320">
        <ele>460.0</ele>
        <time>2021-07-24T12:13:58Z</time>
      </trkpt>
      <trkpt lat="43.2620820" lon="-7.7106430">
        <ele>459.6</ele>
        <time>2021-07-24T12:13:59Z</time>
      </trkpt>
      <trkpt lat="43.2620380" lon="-7.7106490">
        <ele>459.6</ele>
        <time>2021-07-24T12:14:00Z</time>
      </trkpt>
      <trkpt lat="43.2619530" lon="-7.7106530">
        <ele>459.6</ele>
        <time>2021-07-24T12:14:02Z</time>
      </trkpt>
      <trkpt lat="43.2618650" lon="-7.7106680">
        <ele>459.6</ele>
        <time>2021-07-24T12:14:04Z</time>
      </trkpt>
      <trkpt lat="43.2618260" lon="-7.7106940">
        <ele>459.2</ele>
        <time>2021-07-24T12:14:05Z</time>
      </trkpt>
      <trkpt lat="43.2617930" lon="-7.7107250">
        <ele>458.6</ele>
        <time>2021-07-24T12:14:06Z</time>
      </trkpt>
      <trkpt lat="43.2617610" lon="-7.7107550">
        <ele>458.2</ele>
        <time>2021-07-24T12:14:07Z</time>
      </trkpt>
      <trkpt lat="43.2617290" lon="-7.7107830">
        <ele>457.8</ele>
        <time>2021-07-24T12:14:08Z</time>
      </trkpt>
      <trkpt lat="43.2616970" lon="-7.7108140">
        <ele>457.4</ele>
        <time>2021-07-24T12:14:09Z</time>
      </trkpt>
      <trkpt lat="43.2615690" lon="-7.7109410">
        <ele>457.4</ele>
        <time>2021-07-24T12:14:13Z</time>
      </trkpt>
      <trkpt lat="43.2615310" lon="-7.7109640">
        <ele>457.4</ele>
        <time>2021-07-24T12:14:14Z</time>
      </trkpt>
      <trkpt lat="43.2613940" lon="-7.7109990">
        <ele>457.4</ele>
        <time>2021-07-24T12:14:17Z</time>
      </trkpt>
      <trkpt lat="43.2613390" lon="-7.7110110">
        <ele>457.4</ele>
        <time>2021-07-24T12:14:18Z</time>
      </trkpt>
      <trkpt lat="43.2611700" lon="-7.7110480">
        <ele>456.6</ele>
        <time>2021-07-24T12:14:21Z</time>
      </trkpt>
      <trkpt lat="43.2611140" lon="-7.7110420">
        <ele>456.2</ele>
        <time>2021-07-24T12:14:22Z</time>
      </trkpt>
      <trkpt lat="43.2610580" lon="-7.7110250">
        <ele>455.8</ele>
        <time>2021-07-24T12:14:23Z</time>
      </trkpt>
      <trkpt lat="43.2610020" lon="-7.7110030">
        <ele>455.4</ele>
        <time>2021-07-24T12:14:24Z</time>
      </trkpt>
      <trkpt lat="43.2609480" lon="-7.7109810">
        <ele>455.4</ele>
        <time>2021-07-24T12:14:25Z</time>
      </trkpt>
      <trkpt lat="43.2608630" lon="-7.7109440">
        <ele>455.4</ele>
        <time>2021-07-24T12:14:27Z</time>
      </trkpt>
      <trkpt lat="43.2607660" lon="-7.7109490">
        <ele>455.4</ele>
        <time>2021-07-24T12:14:31Z</time>
      </trkpt>
      <trkpt lat="43.2605850" lon="-7.7110740">
        <ele>455.4</ele>
        <time>2021-07-24T12:14:37Z</time>
      </trkpt>
      <trkpt lat="43.2604280" lon="-7.7111250">
        <ele>455.0</ele>
        <time>2021-07-24T12:14:42Z</time>
      </trkpt>
      <trkpt lat="43.2603940" lon="-7.7111110">
        <ele>454.4</ele>
        <time>2021-07-24T12:14:43Z</time>
      </trkpt>
      <trkpt lat="43.2603610" lon="-7.7110940">
        <ele>454.0</ele>
        <time>2021-07-24T12:14:44Z</time>
      </trkpt>
      <trkpt lat="43.2603300" lon="-7.7110810">
        <ele>453.6</ele>
        <time>2021-07-24T12:14:45Z</time>
      </trkpt>
      <trkpt lat="43.2603030" lon="-7.7110700">
        <ele>453.2</ele>
        <time>2021-07-24T12:14:46Z</time>
      </trkpt>
      <trkpt lat="43.2602760" lon="-7.7110560">
        <ele>453.2</ele>
        <time>2021-07-24T12:14:47Z</time>
      </trkpt>
      <trkpt lat="43.2602180" lon="-7.7109650">
        <ele>452.8</ele>
        <time>2021-07-24T12:14:51Z</time>
      </trkpt>
      <trkpt lat="43.2602180" lon="-7.7109470">
        <ele>452.4</ele>
        <time>2021-07-24T12:14:52Z</time>
      </trkpt>
      <trkpt lat="43.2602180" lon="-7.7109410">
        <ele>452.0</ele>
        <time>2021-07-24T12:14:53Z</time>
      </trkpt>
      <trkpt lat="43.2601950" lon="-7.7109160">
        <ele>451.2</ele>
        <time>2021-07-24T12:15:04Z</time>
      </trkpt>
      <trkpt lat="43.2601800" lon="-7.7108970">
        <ele>451.2</ele>
        <time>2021-07-24T12:15:05Z</time>
      </trkpt>
      <trkpt lat="43.2601280" lon="-7.7107930">
        <ele>451.2</ele>
        <time>2021-07-24T12:15:10Z</time>
      </trkpt>
      <trkpt lat="43.2601290" lon="-7.7107870">
        <ele>451.2</ele>
        <time>2021-07-24T12:15:11Z</time>
      </trkpt>
      <trkpt lat="43.2601810" lon="-7.7108100">
        <ele>451.2</ele>
        <time>2021-07-24T12:15:37Z</time>
      </trkpt>
      <trkpt lat="43.2602020" lon="-7.7108380">
        <ele>451.2</ele>
        <time>2021-07-24T12:15:39Z</time>
      </trkpt>
      <trkpt lat="43.2602460" lon="-7.7108890">
        <ele>451.2</ele>
        <time>2021-07-24T12:15:43Z</time>
      </trkpt>
      <trkpt lat="43.2602510" lon="-7.7108840">
        <ele>451.2</ele>
        <time>2021-07-24T12:15:45Z</time>
      </trkpt>
      <trkpt lat="43.2602150" lon="-7.7110200">
        <ele>451.2</ele>
        <time>2021-07-24T12:16:11Z</time>
      </trkpt>
      <trkpt lat="43.2602120" lon="-7.7110340">
        <ele>451.2</ele>
        <time>2021-07-24T12:16:13Z</time>
      </trkpt>
      <trkpt lat="43.2602360" lon="-7.7110320">
        <ele>451.2</ele>
        <time>2021-07-24T12:18:35Z</time>
      </trkpt>
      <trkpt lat="43.2602500" lon="-7.7110670">
        <ele>451.2</ele>
        <time>2021-07-24T12:18:37Z</time>
      </trkpt>
      <trkpt lat="43.2602040" lon="-7.7111260">
        <ele>451.2</ele>
        <time>2021-07-24T12:18:41Z</time>
      </trkpt>
      <trkpt lat="43.2600530" lon="-7.7111910">
        <ele>451.2</ele>
        <time>2021-07-24T12:18:46Z</time>
      </trkpt>
      <trkpt lat="43.2597630" lon="-7.7114030">
        <ele>451.2</ele>
        <time>2021-07-24T12:18:54Z</time>
      </trkpt>
      <trkpt lat="43.2595760" lon="-7.7115140">
        <ele>450.8</ele>
        <time>2021-07-24T12:18:59Z</time>
      </trkpt>
      <trkpt lat="43.2595420" lon="-7.7115310">
        <ele>450.2</ele>
        <time>2021-07-24T12:19:00Z</time>
      </trkpt>
      <trkpt lat="43.2595120" lon="-7.7115510">
        <ele>449.8</ele>
        <time>2021-07-24T12:19:01Z</time>
      </trkpt>
      <trkpt lat="43.2594910" lon="-7.7115740">
        <ele>449.2</ele>
        <time>2021-07-24T12:19:02Z</time>
      </trkpt>
      <trkpt lat="43.2594830" lon="-7.7115980">
        <ele>448.8</ele>
        <time>2021-07-24T12:19:03Z</time>
      </trkpt>
      <trkpt lat="43.2594680" lon="-7.7116540">
        <ele>448.8</ele>
        <time>2021-07-24T12:19:05Z</time>
      </trkpt>
      <trkpt lat="43.2594080" lon="-7.7117120">
        <ele>448.8</ele>
        <time>2021-07-24T12:19:08Z</time>
      </trkpt>
      <trkpt lat="43.2593810" lon="-7.7117320">
        <ele>448.8</ele>
        <time>2021-07-24T12:19:09Z</time>
      </trkpt>
      <trkpt lat="43.2593040" lon="-7.7118270">
        <ele>448.2</ele>
        <time>2021-07-24T12:19:12Z</time>
      </trkpt>
      <trkpt lat="43.2592850" lon="-7.7118750">
        <ele>447.8</ele>
        <time>2021-07-24T12:19:13Z</time>
      </trkpt>
      <trkpt lat="43.2592660" lon="-7.7119290">
        <ele>447.4</ele>
        <time>2021-07-24T12:19:14Z</time>
      </trkpt>
      <trkpt lat="43.2592530" lon="-7.7119830">
        <ele>447.0</ele>
        <time>2021-07-24T12:19:15Z</time>
      </trkpt>
      <trkpt lat="43.2592470" lon="-7.7120380">
        <ele>446.6</ele>
        <time>2021-07-24T12:19:16Z</time>
      </trkpt>
      <trkpt lat="43.2592050" lon="-7.7121770">
        <ele>446.6</ele>
        <time>2021-07-24T12:19:19Z</time>
      </trkpt>
      <trkpt lat="43.2590940" lon="-7.7123010">
        <ele>446.6</ele>
        <time>2021-07-24T12:19:23Z</time>
      </trkpt>
      <trkpt lat="43.2590670" lon="-7.7123320">
        <ele>446.6</ele>
        <time>2021-07-24T12:19:24Z</time>
      </trkpt>
      <trkpt lat="43.2589210" lon="-7.7124640">
        <ele>446.2</ele>
        <time>2021-07-24T12:19:29Z</time>
      </trkpt>
      <trkpt lat="43.2588870" lon="-7.7124940">
        <ele>445.8</ele>
        <time>2021-07-24T12:19:30Z</time>
      </trkpt>
      <trkpt lat="43.2588570" lon="-7.7125270">
        <ele>445.2</ele>
        <time>2021-07-24T12:19:31Z</time>
      </trkpt>
      <trkpt lat="43.2588330" lon="-7.7125630">
        <ele>444.8</ele>
        <time>2021-07-24T12:19:32Z</time>
      </trkpt>
      <trkpt lat="43.2588110" lon="-7.7125990">
        <ele>444.4</ele>
        <time>2021-07-24T12:19:33Z</time>
      </trkpt>
      <trkpt lat="43.2587630" lon="-7.7126750">
        <ele>444.4</ele>
        <time>2021-07-24T12:19:35Z</time>
      </trkpt>
      <trkpt lat="43.2586410" lon="-7.7128990">
        <ele>444.4</ele>
        <time>2021-07-24T12:19:40Z</time>
      </trkpt>
      <trkpt lat="43.2586130" lon="-7.7129360">
        <ele>444.0</ele>
        <time>2021-07-24T12:19:41Z</time>
      </trkpt>
      <trkpt lat="43.2585800" lon="-7.7129780">
        <ele>443.6</ele>
        <time>2021-07-24T12:19:42Z</time>
      </trkpt>
      <trkpt lat="43.2585410" lon="-7.7130180">
        <ele>442.8</ele>
        <time>2021-07-24T12:19:43Z</time>
      </trkpt>
      <trkpt lat="43.2585020" lon="-7.7130550">
        <ele>442.4</ele>
        <time>2021-07-24T12:19:44Z</time>
      </trkpt>
      <trkpt lat="43.2584220" lon="-7.7131220">
        <ele>442.4</ele>
        <time>2021-07-24T12:19:46Z</time>
      </trkpt>
      <trkpt lat="43.2583890" lon="-7.7131540">
        <ele>442.0</ele>
        <time>2021-07-24T12:19:47Z</time>
      </trkpt>
      <trkpt lat="43.2583550" lon="-7.7131880">
        <ele>441.6</ele>
        <time>2021-07-24T12:19:48Z</time>
      </trkpt>
      <trkpt lat="43.2583240" lon="-7.7132190">
        <ele>441.0</ele>
        <time>2021-07-24T12:19:49Z</time>
      </trkpt>
      <trkpt lat="43.2582960" lon="-7.7132400">
        <ele>440.6</ele>
        <time>2021-07-24T12:19:50Z</time>
      </trkpt>
      <trkpt lat="43.2582720" lon="-7.7132560">
        <ele>440.2</ele>
        <time>2021-07-24T12:19:51Z</time>
      </trkpt>
      <trkpt lat="43.2582540" lon="-7.7132690">
        <ele>440.2</ele>
        <time>2021-07-24T12:19:52Z</time>
      </trkpt>
      <trkpt lat="43.2582120" lon="-7.7133090">
        <ele>439.8</ele>
        <time>2021-07-24T12:19:54Z</time>
      </trkpt>
      <trkpt lat="43.2581880" lon="-7.7133370">
        <ele>439.4</ele>
        <time>2021-07-24T12:19:55Z</time>
      </trkpt>
      <trkpt lat="43.2581620" lon="-7.7133680">
        <ele>438.8</ele>
        <time>2021-07-24T12:19:56Z</time>
      </trkpt>
      <trkpt lat="43.2581320" lon="-7.7134070">
        <ele>438.4</ele>
        <time>2021-07-24T12:19:57Z</time>
      </trkpt>
      <trkpt lat="43.2580950" lon="-7.7134480">
        <ele>438.0</ele>
        <time>2021-07-24T12:19:58Z</time>
      </trkpt>
      <trkpt lat="43.2579620" lon="-7.7136000">
        <ele>437.6</ele>
        <time>2021-07-24T12:20:02Z</time>
      </trkpt>
      <trkpt lat="43.2579350" lon="-7.7136210">
        <ele>437.2</ele>
        <time>2021-07-24T12:20:03Z</time>
      </trkpt>
      <trkpt lat="43.2579070" lon="-7.7136400">
        <ele>436.6</ele>
        <time>2021-07-24T12:20:04Z</time>
      </trkpt>
      <trkpt lat="43.2578780" lon="-7.7136560">
        <ele>436.2</ele>
        <time>2021-07-24T12:20:05Z</time>
      </trkpt>
      <trkpt lat="43.2578500" lon="-7.7136730">
        <ele>435.8</ele>
        <time>2021-07-24T12:20:06Z</time>
      </trkpt>
      <trkpt lat="43.2577640" lon="-7.7137290">
        <ele>435.4</ele>
        <time>2021-07-24T12:20:09Z</time>
      </trkpt>
      <trkpt lat="43.2577370" lon="-7.7137440">
        <ele>435.0</ele>
        <time>2021-07-24T12:20:10Z</time>
      </trkpt>
      <trkpt lat="43.2577110" lon="-7.7137670">
        <ele>434.4</ele>
        <time>2021-07-24T12:20:11Z</time>
      </trkpt>
      <trkpt lat="43.2576850" lon="-7.7138000">
        <ele>434.0</ele>
        <time>2021-07-24T12:20:12Z</time>
      </trkpt>
      <trkpt lat="43.2576610" lon="-7.7138360">
        <ele>433.6</ele>
        <time>2021-07-24T12:20:13Z</time>
      </trkpt>
      <trkpt lat="43.2576420" lon="-7.7138780">
        <ele>433.6</ele>
        <time>2021-07-24T12:20:14Z</time>
      </trkpt>
      <trkpt lat="43.2575220" lon="-7.7140560">
        <ele>433.2</ele>
        <time>2021-07-24T12:20:19Z</time>
      </trkpt>
      <trkpt lat="43.2574980" lon="-7.7141020">
        <ele>432.8</ele>
        <time>2021-07-24T12:20:20Z</time>
      </trkpt>
      <trkpt lat="43.2574890" lon="-7.7141570">
        <ele>432.4</ele>
        <time>2021-07-24T12:20:21Z</time>
      </trkpt>
      <trkpt lat="43.2574840" lon="-7.7142080">
        <ele>431.8</ele>
        <time>2021-07-24T12:20:22Z</time>
      </trkpt>
      <trkpt lat="43.2574750" lon="-7.7142630">
        <ele>431.4</ele>
        <time>2021-07-24T12:20:23Z</time>
      </trkpt>
      <trkpt lat="43.2574590" lon="-7.7143240">
        <ele>431.4</ele>
        <time>2021-07-24T12:20:24Z</time>
      </trkpt>
      <trkpt lat="43.2574170" lon="-7.7145190">
        <ele>431.0</ele>
        <time>2021-07-24T12:20:27Z</time>
      </trkpt>
      <trkpt lat="43.2574110" lon="-7.7145880">
        <ele>430.6</ele>
        <time>2021-07-24T12:20:28Z</time>
      </trkpt>
      <trkpt lat="43.2574080" lon="-7.7146520">
        <ele>430.0</ele>
        <time>2021-07-24T12:20:29Z</time>
      </trkpt>
      <trkpt lat="43.2574060" lon="-7.7147170">
        <ele>429.6</ele>
        <time>2021-07-24T12:20:30Z</time>
      </trkpt>
      <trkpt lat="43.2574040" lon="-7.7147830">
        <ele>429.2</ele>
        <time>2021-07-24T12:20:31Z</time>
      </trkpt>
      <trkpt lat="43.2573850" lon="-7.7149170">
        <ele>429.2</ele>
        <time>2021-07-24T12:20:33Z</time>
      </trkpt>
      <trkpt lat="43.2573690" lon="-7.7149770">
        <ele>429.2</ele>
        <time>2021-07-24T12:20:34Z</time>
      </trkpt>
      <trkpt lat="43.2573210" lon="-7.7150670">
        <ele>428.6</ele>
        <time>2021-07-24T12:20:36Z</time>
      </trkpt>
      <trkpt lat="43.2572930" lon="-7.7151090">
        <ele>428.2</ele>
        <time>2021-07-24T12:20:37Z</time>
      </trkpt>
      <trkpt lat="43.2572650" lon="-7.7151420">
        <ele>427.8</ele>
        <time>2021-07-24T12:20:38Z</time>
      </trkpt>
      <trkpt lat="43.2572310" lon="-7.7151810">
        <ele>427.4</ele>
        <time>2021-07-24T12:20:39Z</time>
      </trkpt>
      <trkpt lat="43.2571850" lon="-7.7152210">
        <ele>426.8</ele>
        <time>2021-07-24T12:20:40Z</time>
      </trkpt>
      <trkpt lat="43.2570910" lon="-7.7152940">
        <ele>426.8</ele>
        <time>2021-07-24T12:20:42Z</time>
      </trkpt>
      <trkpt lat="43.2567750" lon="-7.7154780">
        <ele>426.4</ele>
        <time>2021-07-24T12:20:49Z</time>
      </trkpt>
      <trkpt lat="43.2567300" lon="-7.7154970">
        <ele>426.0</ele>
        <time>2021-07-24T12:20:50Z</time>
      </trkpt>
      <trkpt lat="43.2566850" lon="-7.7155190">
        <ele>425.6</ele>
        <time>2021-07-24T12:20:51Z</time>
      </trkpt>
      <trkpt lat="43.2566380" lon="-7.7155460">
        <ele>425.2</ele>
        <time>2021-07-24T12:20:52Z</time>
      </trkpt>
      <trkpt lat="43.2565950" lon="-7.7155760">
        <ele>424.8</ele>
        <time>2021-07-24T12:20:53Z</time>
      </trkpt>
      <trkpt lat="43.2564680" lon="-7.7156770">
        <ele>424.8</ele>
        <time>2021-07-24T12:20:56Z</time>
      </trkpt>
      <trkpt lat="43.2563060" lon="-7.7157980">
        <ele>424.4</ele>
        <time>2021-07-24T12:21:00Z</time>
      </trkpt>
      <trkpt lat="43.2562650" lon="-7.7158110">
        <ele>424.0</ele>
        <time>2021-07-24T12:21:01Z</time>
      </trkpt>
      <trkpt lat="43.2562260" lon="-7.7158210">
        <ele>423.4</ele>
        <time>2021-07-24T12:21:02Z</time>
      </trkpt>
      <trkpt lat="43.2561860" lon="-7.7158270">
        <ele>423.0</ele>
        <time>2021-07-24T12:21:03Z</time>
      </trkpt>
      <trkpt lat="43.2561440" lon="-7.7158330">
        <ele>422.6</ele>
        <time>2021-07-24T12:21:04Z</time>
      </trkpt>
      <trkpt lat="43.2559690" lon="-7.7158520">
        <ele>422.6</ele>
        <time>2021-07-24T12:21:08Z</time>
      </trkpt>
      <trkpt lat="43.2557230" lon="-7.7158950">
        <ele>422.6</ele>
        <time>2021-07-24T12:21:14Z</time>
      </trkpt>
      <trkpt lat="43.2556410" lon="-7.7159020">
        <ele>422.6</ele>
        <time>2021-07-24T12:21:16Z</time>
      </trkpt>
      <trkpt lat="43.2553800" lon="-7.7159330">
        <ele>422.6</ele>
        <time>2021-07-24T12:21:23Z</time>
      </trkpt>
      <trkpt lat="43.2552970" lon="-7.7159500">
        <ele>422.6</ele>
        <time>2021-07-24T12:21:25Z</time>
      </trkpt>
      <trkpt lat="43.2552250" lon="-7.7159880">
        <ele>422.2</ele>
        <time>2021-07-24T12:21:27Z</time>
      </trkpt>
      <trkpt lat="43.2551900" lon="-7.7160170">
        <ele>421.6</ele>
        <time>2021-07-24T12:21:28Z</time>
      </trkpt>
      <trkpt lat="43.2551560" lon="-7.7160510">
        <ele>421.2</ele>
        <time>2021-07-24T12:21:29Z</time>
      </trkpt>
      <trkpt lat="43.2551200" lon="-7.7160790">
        <ele>420.8</ele>
        <time>2021-07-24T12:21:30Z</time>
      </trkpt>
      <trkpt lat="43.2550860" lon="-7.7161080">
        <ele>420.4</ele>
        <time>2021-07-24T12:21:31Z</time>
      </trkpt>
      <trkpt lat="43.2549620" lon="-7.7162280">
        <ele>420.4</ele>
        <time>2021-07-24T12:21:35Z</time>
      </trkpt>
      <trkpt lat="43.2547350" lon="-7.7164210">
        <ele>420.4</ele>
        <time>2021-07-24T12:21:42Z</time>
      </trkpt>
      <trkpt lat="43.2544910" lon="-7.7165600">
        <ele>420.4</ele>
        <time>2021-07-24T12:21:51Z</time>
      </trkpt>
      <trkpt lat="43.2543110" lon="-7.7166330">
        <ele>420.4</ele>
        <time>2021-07-24T12:21:56Z</time>
      </trkpt>
      <trkpt lat="43.2540460" lon="-7.7167400">
        <ele>420.4</ele>
        <time>2021-07-24T12:22:03Z</time>
      </trkpt>
      <trkpt lat="43.2537060" lon="-7.7168610">
        <ele>420.4</ele>
        <time>2021-07-24T12:22:12Z</time>
      </trkpt>
      <trkpt lat="43.2535930" lon="-7.7169110">
        <ele>420.4</ele>
        <time>2021-07-24T12:22:17Z</time>
      </trkpt>
      <trkpt lat="43.2535000" lon="-7.7170320">
        <ele>420.4</ele>
        <time>2021-07-24T12:22:23Z</time>
      </trkpt>
      <trkpt lat="43.2534770" lon="-7.7170670">
        <ele>420.8</ele>
        <time>2021-07-24T12:22:24Z</time>
      </trkpt>
      <trkpt lat="43.2534530" lon="-7.7170990">
        <ele>421.2</ele>
        <time>2021-07-24T12:22:25Z</time>
      </trkpt>
      <trkpt lat="43.2534290" lon="-7.7171330">
        <ele>421.6</ele>
        <time>2021-07-24T12:22:26Z</time>
      </trkpt>
      <trkpt lat="43.2533990" lon="-7.7171690">
        <ele>422.0</ele>
        <time>2021-07-24T12:22:27Z</time>
      </trkpt>
      <trkpt lat="43.2533710" lon="-7.7172070">
        <ele>422.4</ele>
        <time>2021-07-24T12:22:28Z</time>
      </trkpt>
      <trkpt lat="43.2533440" lon="-7.7172400">
        <ele>422.4</ele>
        <time>2021-07-24T12:22:29Z</time>
      </trkpt>
      <trkpt lat="43.2531960" lon="-7.7174540">
        <ele>422.4</ele>
        <time>2021-07-24T12:22:36Z</time>
      </trkpt>
      <trkpt lat="43.2531800" lon="-7.7174790">
        <ele>422.8</ele>
        <time>2021-07-24T12:22:37Z</time>
      </trkpt>
      <trkpt lat="43.2531630" lon="-7.7175050">
        <ele>423.2</ele>
        <time>2021-07-24T12:22:38Z</time>
      </trkpt>
      <trkpt lat="43.2531400" lon="-7.7175340">
        <ele>423.6</ele>
        <time>2021-07-24T12:22:39Z</time>
      </trkpt>
      <trkpt lat="43.2531130" lon="-7.7175620">
        <ele>424.0</ele>
        <time>2021-07-24T12:22:40Z</time>
      </trkpt>
      <trkpt lat="43.2530860" lon="-7.7175880">
        <ele>424.4</ele>
        <time>2021-07-24T12:22:41Z</time>
      </trkpt>
      <trkpt lat="43.2530640" lon="-7.7176110">
        <ele>424.4</ele>
        <time>2021-07-24T12:22:42Z</time>
      </trkpt>
      <trkpt lat="43.2529020" lon="-7.7178010">
        <ele>424.4</ele>
        <time>2021-07-24T12:22:48Z</time>
      </trkpt>
      <trkpt lat="43.2527230" lon="-7.7179560">
        <ele>424.4</ele>
        <time>2021-07-24T12:22:54Z</time>
      </trkpt>
      <trkpt lat="43.2525190" lon="-7.7181430">
        <ele>424.4</ele>
        <time>2021-07-24T12:23:00Z</time>
      </trkpt>
      <trkpt lat="43.2523280" lon="-7.7183350">
        <ele>424.4</ele>
        <time>2021-07-24T12:23:06Z</time>
      </trkpt>
      <trkpt lat="43.2521810" lon="-7.7185220">
        <ele>424.4</ele>
        <time>2021-07-24T12:23:12Z</time>
      </trkpt>
      <trkpt lat="43.2520210" lon="-7.7187620">
        <ele>424.4</ele>
        <time>2021-07-24T12:23:18Z</time>
      </trkpt>
      <trkpt lat="43.2518400" lon="-7.7189820">
        <ele>424.4</ele>
        <time>2021-07-24T12:23:24Z</time>
      </trkpt>
      <trkpt lat="43.2516500" lon="-7.7192090">
        <ele>424.4</ele>
        <time>2021-07-24T12:23:31Z</time>
      </trkpt>
      <trkpt lat="43.2515660" lon="-7.7192770">
        <ele>424.8</ele>
        <time>2021-07-24T12:23:34Z</time>
      </trkpt>
      <trkpt lat="43.2515380" lon="-7.7192950">
        <ele>425.2</ele>
        <time>2021-07-24T12:23:35Z</time>
      </trkpt>
      <trkpt lat="43.2515110" lon="-7.7193090">
        <ele>425.6</ele>
        <time>2021-07-24T12:23:36Z</time>
      </trkpt>
      <trkpt lat="43.2514830" lon="-7.7193230">
        <ele>426.0</ele>
        <time>2021-07-24T12:23:37Z</time>
      </trkpt>
      <trkpt lat="43.2514550" lon="-7.7193410">
        <ele>426.4</ele>
        <time>2021-07-24T12:23:38Z</time>
      </trkpt>
      <trkpt lat="43.2512340" lon="-7.7195190">
        <ele>426.4</ele>
        <time>2021-07-24T12:23:45Z</time>
      </trkpt>
      <trkpt lat="43.2510650" lon="-7.7196850">
        <ele>426.4</ele>
        <time>2021-07-24T12:23:51Z</time>
      </trkpt>
      <trkpt lat="43.2509220" lon="-7.7198370">
        <ele>426.4</ele>
        <time>2021-07-24T12:23:57Z</time>
      </trkpt>
      <trkpt lat="43.2507600" lon="-7.7200420">
        <ele>426.4</ele>
        <time>2021-07-24T12:24:04Z</time>
      </trkpt>
      <trkpt lat="43.2506040" lon="-7.7202110">
        <ele>426.8</ele>
        <time>2021-07-24T12:24:10Z</time>
      </trkpt>
      <trkpt lat="43.2505800" lon="-7.7202340">
        <ele>427.2</ele>
        <time>2021-07-24T12:24:11Z</time>
      </trkpt>
      <trkpt lat="43.2505510" lon="-7.7202590">
        <ele>427.8</ele>
        <time>2021-07-24T12:24:12Z</time>
      </trkpt>
      <trkpt lat="43.2505240" lon="-7.7202810">
        <ele>428.2</ele>
        <time>2021-07-24T12:24:13Z</time>
      </trkpt>
      <trkpt lat="43.2504960" lon="-7.7203090">
        <ele>428.6</ele>
        <time>2021-07-24T12:24:14Z</time>
      </trkpt>
      <trkpt lat="43.2504010" lon="-7.7203730">
        <ele>428.6</ele>
        <time>2021-07-24T12:24:17Z</time>
      </trkpt>
      <trkpt lat="43.2502350" lon="-7.7204890">
        <ele>428.6</ele>
        <time>2021-07-24T12:24:23Z</time>
      </trkpt>
      <trkpt lat="43.2501050" lon="-7.7205800">
        <ele>428.6</ele>
        <time>2021-07-24T12:24:28Z</time>
      </trkpt>
      <trkpt lat="43.2499420" lon="-7.7206650">
        <ele>428.6</ele>
        <time>2021-07-24T12:24:33Z</time>
      </trkpt>
      <trkpt lat="43.2497110" lon="-7.7207850">
        <ele>428.6</ele>
        <time>2021-07-24T12:24:40Z</time>
      </trkpt>
      <trkpt lat="43.2494990" lon="-7.7208760">
        <ele>428.6</ele>
        <time>2021-07-24T12:24:48Z</time>
      </trkpt>
      <trkpt lat="43.2493500" lon="-7.7210470">
        <ele>428.6</ele>
        <time>2021-07-24T12:24:54Z</time>
      </trkpt>
      <trkpt lat="43.2492040" lon="-7.7212220">
        <ele>428.6</ele>
        <time>2021-07-24T12:24:59Z</time>
      </trkpt>
      <trkpt lat="43.2491400" lon="-7.7213240">
        <ele>428.2</ele>
        <time>2021-07-24T12:25:01Z</time>
      </trkpt>
      <trkpt lat="43.2490990" lon="-7.7213760">
        <ele>427.8</ele>
        <time>2021-07-24T12:25:02Z</time>
      </trkpt>
      <trkpt lat="43.2490610" lon="-7.7214300">
        <ele>427.2</ele>
        <time>2021-07-24T12:25:03Z</time>
      </trkpt>
      <trkpt lat="43.2490250" lon="-7.7214880">
        <ele>426.8</ele>
        <time>2021-07-24T12:25:04Z</time>
      </trkpt>
      <trkpt lat="43.2489930" lon="-7.7215550">
        <ele>426.4</ele>
        <time>2021-07-24T12:25:05Z</time>
      </trkpt>
      <trkpt lat="43.2489220" lon="-7.7217590">
        <ele>426.4</ele>
        <time>2021-07-24T12:25:08Z</time>
      </trkpt>
      <trkpt lat="43.2488280" lon="-7.7221150">
        <ele>426.0</ele>
        <time>2021-07-24T12:25:13Z</time>
      </trkpt>
      <trkpt lat="43.2488090" lon="-7.7221880">
        <ele>425.6</ele>
        <time>2021-07-24T12:25:14Z</time>
      </trkpt>
      <trkpt lat="43.2487870" lon="-7.7222580">
        <ele>425.2</ele>
        <time>2021-07-24T12:25:15Z</time>
      </trkpt>
      <trkpt lat="43.2487700" lon="-7.7223250">
        <ele>424.6</ele>
        <time>2021-07-24T12:25:16Z</time>
      </trkpt>
      <trkpt lat="43.2487500" lon="-7.7223960">
        <ele>424.2</ele>
        <time>2021-07-24T12:25:17Z</time>
      </trkpt>
      <trkpt lat="43.2487300" lon="-7.7224620">
        <ele>423.8</ele>
        <time>2021-07-24T12:25:18Z</time>
      </trkpt>
      <trkpt lat="43.2487090" lon="-7.7225300">
        <ele>423.2</ele>
        <time>2021-07-24T12:25:19Z</time>
      </trkpt>
      <trkpt lat="43.2486870" lon="-7.7225970">
        <ele>422.8</ele>
        <time>2021-07-24T12:25:20Z</time>
      </trkpt>
      <trkpt lat="43.2486660" lon="-7.7226620">
        <ele>422.4</ele>
        <time>2021-07-24T12:25:21Z</time>
      </trkpt>
      <trkpt lat="43.2486490" lon="-7.7227240">
        <ele>422.0</ele>
        <time>2021-07-24T12:25:22Z</time>
      </trkpt>
      <trkpt lat="43.2485760" lon="-7.7229570">
        <ele>421.6</ele>
        <time>2021-07-24T12:25:26Z</time>
      </trkpt>
      <trkpt lat="43.2485510" lon="-7.7230020">
        <ele>421.0</ele>
        <time>2021-07-24T12:25:27Z</time>
      </trkpt>
      <trkpt lat="43.2485360" lon="-7.7230320">
        <ele>420.6</ele>
        <time>2021-07-24T12:25:28Z</time>
      </trkpt>
      <trkpt lat="43.2485300" lon="-7.7230520">
        <ele>420.2</ele>
        <time>2021-07-24T12:25:29Z</time>
      </trkpt>
      <trkpt lat="43.2485140" lon="-7.7230760">
        <ele>419.8</ele>
        <time>2021-07-24T12:25:30Z</time>
      </trkpt>
      <trkpt lat="43.2484760" lon="-7.7231100">
        <ele>419.8</ele>
        <time>2021-07-24T12:25:32Z</time>
      </trkpt>
      <trkpt lat="43.2483450" lon="-7.7231700">
        <ele>419.8</ele>
        <time>2021-07-24T12:25:37Z</time>
      </trkpt>
      <trkpt lat="43.2482290" lon="-7.7232630">
        <ele>419.8</ele>
        <time>2021-07-24T12:25:42Z</time>
      </trkpt>
      <trkpt lat="43.2480140" lon="-7.7234130">
        <ele>419.8</ele>
        <time>2021-07-24T12:25:48Z</time>
      </trkpt>
      <trkpt lat="43.2478540" lon="-7.7234400">
        <ele>419.8</ele>
        <time>2021-07-24T12:25:52Z</time>
      </trkpt>
      <trkpt lat="43.2478040" lon="-7.7234440">
        <ele>419.8</ele>
        <time>2021-07-24T12:25:53Z</time>
      </trkpt>
      <trkpt lat="43.2477610" lon="-7.7234470">
        <ele>419.4</ele>
        <time>2021-07-24T12:25:54Z</time>
      </trkpt>
      <trkpt lat="43.2477190" lon="-7.7234540">
        <ele>418.6</ele>
        <time>2021-07-24T12:25:55Z</time>
      </trkpt>
      <trkpt lat="43.2476730" lon="-7.7234580">
        <ele>418.0</ele>
        <time>2021-07-24T12:25:56Z</time>
      </trkpt>
      <trkpt lat="43.2476300" lon="-7.7234590">
        <ele>417.6</ele>
        <time>2021-07-24T12:25:57Z</time>
      </trkpt>
      <trkpt lat="43.2475400" lon="-7.7234660">
        <ele>417.6</ele>
        <time>2021-07-24T12:25:59Z</time>
      </trkpt>
      <trkpt lat="43.2474930" lon="-7.7234650">
        <ele>417.2</ele>
        <time>2021-07-24T12:26:00Z</time>
      </trkpt>
      <trkpt lat="43.2474460" lon="-7.7234620">
        <ele>416.8</ele>
        <time>2021-07-24T12:26:01Z</time>
      </trkpt>
      <trkpt lat="43.2474000" lon="-7.7234580">
        <ele>416.2</ele>
        <time>2021-07-24T12:26:02Z</time>
      </trkpt>
      <trkpt lat="43.2473550" lon="-7.7234540">
        <ele>415.8</ele>
        <time>2021-07-24T12:26:03Z</time>
      </trkpt>
      <trkpt lat="43.2473080" lon="-7.7234500">
        <ele>415.4</ele>
        <time>2021-07-24T12:26:04Z</time>
      </trkpt>
      <trkpt lat="43.2472140" lon="-7.7234400">
        <ele>415.4</ele>
        <time>2021-07-24T12:26:06Z</time>
      </trkpt>
      <trkpt lat="43.2469720" lon="-7.7233470">
        <ele>415.4</ele>
        <time>2021-07-24T12:26:12Z</time>
      </trkpt>
      <trkpt lat="43.2468500" lon="-7.7232200">
        <ele>415.0</ele>
        <time>2021-07-24T12:26:16Z</time>
      </trkpt>
      <trkpt lat="43.2468170" lon="-7.7231830">
        <ele>414.6</ele>
        <time>2021-07-24T12:26:17Z</time>
      </trkpt>
      <trkpt lat="43.2467820" lon="-7.7231490">
        <ele>414.0</ele>
        <time>2021-07-24T12:26:18Z</time>
      </trkpt>
      <trkpt lat="43.2467430" lon="-7.7231170">
        <ele>413.2</ele>
        <time>2021-07-24T12:26:19Z</time>
      </trkpt>
      <trkpt lat="43.2466620" lon="-7.7230680">
        <ele>413.2</ele>
        <time>2021-07-24T12:26:21Z</time>
      </trkpt>
      <trkpt lat="43.2465700" lon="-7.7230330">
        <ele>412.8</ele>
        <time>2021-07-24T12:26:23Z</time>
      </trkpt>
      <trkpt lat="43.2465200" lon="-7.7230190">
        <ele>412.4</ele>
        <time>2021-07-24T12:26:24Z</time>
      </trkpt>
      <trkpt lat="43.2464700" lon="-7.7230120">
        <ele>412.0</ele>
        <time>2021-07-24T12:26:25Z</time>
      </trkpt>
      <trkpt lat="43.2464220" lon="-7.7230040">
        <ele>411.6</ele>
        <time>2021-07-24T12:26:26Z</time>
      </trkpt>
      <trkpt lat="43.2463770" lon="-7.7230000">
        <ele>411.2</ele>
        <time>2021-07-24T12:26:27Z</time>
      </trkpt>
      <trkpt lat="43.2462560" lon="-7.7229830">
        <ele>411.2</ele>
        <time>2021-07-24T12:26:30Z</time>
      </trkpt>
      <trkpt lat="43.2460890" lon="-7.7230340">
        <ele>411.2</ele>
        <time>2021-07-24T12:26:35Z</time>
      </trkpt>
      <trkpt lat="43.2459810" lon="-7.7231150">
        <ele>411.2</ele>
        <time>2021-07-24T12:26:41Z</time>
      </trkpt>
      <trkpt lat="43.2459290" lon="-7.7233490">
        <ele>411.2</ele>
        <time>2021-07-24T12:26:47Z</time>
      </trkpt>
      <trkpt lat="43.2458570" lon="-7.7235150">
        <ele>411.2</ele>
        <time>2021-07-24T12:26:52Z</time>
      </trkpt>
      <trkpt lat="43.2457410" lon="-7.7236220">
        <ele>411.2</ele>
        <time>2021-07-24T12:26:57Z</time>
      </trkpt>
      <trkpt lat="43.2455490" lon="-7.7237910">
        <ele>411.2</ele>
        <time>2021-07-24T12:27:05Z</time>
      </trkpt>
      <trkpt lat="43.2453600" lon="-7.7239830">
        <ele>411.2</ele>
        <time>2021-07-24T12:27:12Z</time>
      </trkpt>
      <trkpt lat="43.2453320" lon="-7.7240150">
        <ele>410.8</ele>
        <time>2021-07-24T12:27:14Z</time>
      </trkpt>
      <trkpt lat="43.2453320" lon="-7.7240130">
        <ele>410.4</ele>
        <time>2021-07-24T12:27:15Z</time>
      </trkpt>
      <trkpt lat="43.2453260" lon="-7.7240150">
        <ele>410.0</ele>
        <time>2021-07-24T12:27:16Z</time>
      </trkpt>
      <trkpt lat="43.2453120" lon="-7.7240360">
        <ele>409.2</ele>
        <time>2021-07-24T12:27:18Z</time>
      </trkpt>
      <trkpt lat="43.2452890" lon="-7.7240900">
        <ele>409.2</ele>
        <time>2021-07-24T12:27:20Z</time>
      </trkpt>
      <trkpt lat="43.2452260" lon="-7.7242340">
        <ele>409.2</ele>
        <time>2021-07-24T12:27:23Z</time>
      </trkpt>
      <trkpt lat="43.2451920" lon="-7.7242760">
        <ele>409.2</ele>
        <time>2021-07-24T12:27:24Z</time>
      </trkpt>
      <trkpt lat="43.2450340" lon="-7.7244510">
        <ele>409.2</ele>
        <time>2021-07-24T12:27:28Z</time>
      </trkpt>
      <trkpt lat="43.2449960" lon="-7.7244970">
        <ele>408.6</ele>
        <time>2021-07-24T12:27:29Z</time>
      </trkpt>
      <trkpt lat="43.2449560" lon="-7.7245430">
        <ele>408.2</ele>
        <time>2021-07-24T12:27:30Z</time>
      </trkpt>
      <trkpt lat="43.2449150" lon="-7.7245840">
        <ele>407.8</ele>
        <time>2021-07-24T12:27:31Z</time>
      </trkpt>
      <trkpt lat="43.2448710" lon="-7.7246240">
        <ele>407.2</ele>
        <time>2021-07-24T12:27:32Z</time>
      </trkpt>
      <trkpt lat="43.2448260" lon="-7.7246560">
        <ele>406.2</ele>
        <time>2021-07-24T12:27:33Z</time>
      </trkpt>
      <trkpt lat="43.2447840" lon="-7.7246840">
        <ele>405.8</ele>
        <time>2021-07-24T12:27:34Z</time>
      </trkpt>
      <trkpt lat="43.2447500" lon="-7.7247020">
        <ele>405.2</ele>
        <time>2021-07-24T12:27:35Z</time>
      </trkpt>
      <trkpt lat="43.2447170" lon="-7.7247190">
        <ele>404.6</ele>
        <time>2021-07-24T12:27:36Z</time>
      </trkpt>
      <trkpt lat="43.2446810" lon="-7.7247320">
        <ele>404.0</ele>
        <time>2021-07-24T12:27:37Z</time>
      </trkpt>
      <trkpt lat="43.2446070" lon="-7.7247610">
        <ele>403.6</ele>
        <time>2021-07-24T12:27:39Z</time>
      </trkpt>
      <trkpt lat="43.2445710" lon="-7.7247720">
        <ele>403.0</ele>
        <time>2021-07-24T12:27:40Z</time>
      </trkpt>
      <trkpt lat="43.2445350" lon="-7.7247760">
        <ele>402.4</ele>
        <time>2021-07-24T12:27:41Z</time>
      </trkpt>
      <trkpt lat="43.2445000" lon="-7.7247760">
        <ele>401.8</ele>
        <time>2021-07-24T12:27:42Z</time>
      </trkpt>
      <trkpt lat="43.2444650" lon="-7.7247780">
        <ele>401.2</ele>
        <time>2021-07-24T12:27:43Z</time>
      </trkpt>
      <trkpt lat="43.2443710" lon="-7.7247870">
        <ele>401.2</ele>
        <time>2021-07-24T12:27:46Z</time>
      </trkpt>
      <trkpt lat="43.2442730" lon="-7.7248150">
        <ele>401.2</ele>
        <time>2021-07-24T12:27:50Z</time>
      </trkpt>
      <trkpt lat="43.2440910" lon="-7.7248530">
        <ele>401.2</ele>
        <time>2021-07-24T12:27:55Z</time>
      </trkpt>
      <trkpt lat="43.2439040" lon="-7.7249080">
        <ele>401.2</ele>
        <time>2021-07-24T12:28:01Z</time>
      </trkpt>
      <trkpt lat="43.2437710" lon="-7.7250020">
        <ele>401.2</ele>
        <time>2021-07-24T12:28:06Z</time>
      </trkpt>
      <trkpt lat="43.2435680" lon="-7.7250810">
        <ele>401.2</ele>
        <time>2021-07-24T12:28:11Z</time>
      </trkpt>
      <trkpt lat="43.2433860" lon="-7.7251490">
        <ele>401.2</ele>
        <time>2021-07-24T12:28:15Z</time>
      </trkpt>
      <trkpt lat="43.2433410" lon="-7.7251580">
        <ele>401.2</ele>
        <time>2021-07-24T12:28:16Z</time>
      </trkpt>
      <trkpt lat="43.2431570" lon="-7.7251760">
        <ele>400.8</ele>
        <time>2021-07-24T12:28:20Z</time>
      </trkpt>
      <trkpt lat="43.2431090" lon="-7.7251850">
        <ele>400.4</ele>
        <time>2021-07-24T12:28:21Z</time>
      </trkpt>
      <trkpt lat="43.2430600" lon="-7.7251970">
        <ele>400.0</ele>
        <time>2021-07-24T12:28:22Z</time>
      </trkpt>
      <trkpt lat="43.2430090" lon="-7.7252120">
        <ele>399.2</ele>
        <time>2021-07-24T12:28:23Z</time>
      </trkpt>
      <trkpt lat="43.2426920" lon="-7.7252820">
        <ele>399.2</ele>
        <time>2021-07-24T12:28:29Z</time>
      </trkpt>
      <trkpt lat="43.2423510" lon="-7.7252970">
        <ele>399.2</ele>
        <time>2021-07-24T12:28:35Z</time>
      </trkpt>
      <trkpt lat="43.2421360" lon="-7.7253170">
        <ele>399.2</ele>
        <time>2021-07-24T12:28:40Z</time>
      </trkpt>
      <trkpt lat="43.2419110" lon="-7.7252870">
        <ele>399.2</ele>
        <time>2021-07-24T12:28:47Z</time>
      </trkpt>
      <trkpt lat="43.2418870" lon="-7.7252790">
        <ele>398.8</ele>
        <time>2021-07-24T12:28:48Z</time>
      </trkpt>
      <trkpt lat="43.2418630" lon="-7.7252720">
        <ele>398.4</ele>
        <time>2021-07-24T12:28:49Z</time>
      </trkpt>
      <trkpt lat="43.2418370" lon="-7.7252680">
        <ele>398.0</ele>
        <time>2021-07-24T12:28:50Z</time>
      </trkpt>
      <trkpt lat="43.2418110" lon="-7.7252670">
        <ele>397.6</ele>
        <time>2021-07-24T12:28:51Z</time>
      </trkpt>
      <trkpt lat="43.2417820" lon="-7.7252690">
        <ele>397.2</ele>
        <time>2021-07-24T12:28:52Z</time>
      </trkpt>
      <trkpt lat="43.2417200" lon="-7.7253010">
        <ele>397.2</ele>
        <time>2021-07-24T12:28:54Z</time>
      </trkpt>
      <trkpt lat="43.2415510" lon="-7.7252940">
        <ele>397.2</ele>
        <time>2021-07-24T12:28:59Z</time>
      </trkpt>
      <trkpt lat="43.2413810" lon="-7.7252220">
        <ele>397.2</ele>
        <time>2021-07-24T12:29:04Z</time>
      </trkpt>
      <trkpt lat="43.2412200" lon="-7.7252210">
        <ele>397.2</ele>
        <time>2021-07-24T12:29:09Z</time>
      </trkpt>
      <trkpt lat="43.2411100" lon="-7.7252080">
        <ele>397.2</ele>
        <time>2021-07-24T12:29:13Z</time>
      </trkpt>
      <trkpt lat="43.2408760" lon="-7.7251410">
        <ele>397.2</ele>
        <time>2021-07-24T12:29:20Z</time>
      </trkpt>
      <trkpt lat="43.2407530" lon="-7.7251160">
        <ele>397.2</ele>
        <time>2021-07-24T12:29:24Z</time>
      </trkpt>
      <trkpt lat="43.2407100" lon="-7.7251080">
        <ele>397.2</ele>
        <time>2021-07-24T12:29:28Z</time>
      </trkpt>
      <trkpt lat="43.2406680" lon="-7.7250950">
        <ele>397.2</ele>
        <time>2021-07-24T12:30:07Z</time>
      </trkpt>
      <trkpt lat="43.2406200" lon="-7.7250780">
        <ele>397.2</ele>
        <time>2021-07-24T12:30:09Z</time>
      </trkpt>
      <trkpt lat="43.2404790" lon="-7.7250860">
        <ele>397.2</ele>
        <time>2021-07-24T12:30:14Z</time>
      </trkpt>
      <trkpt lat="43.2402060" lon="-7.7250720">
        <ele>397.2</ele>
        <time>2021-07-24T12:30:21Z</time>
      </trkpt>
      <trkpt lat="43.2400380" lon="-7.7250860">
        <ele>397.2</ele>
        <time>2021-07-24T12:30:25Z</time>
      </trkpt>
      <trkpt lat="43.2399900" lon="-7.7251050">
        <ele>397.2</ele>
        <time>2021-07-24T12:30:26Z</time>
      </trkpt>
      <trkpt lat="43.2398510" lon="-7.7251360">
        <ele>397.2</ele>
        <time>2021-07-24T12:30:29Z</time>
      </trkpt>
      <trkpt lat="43.2397220" lon="-7.7251570">
        <ele>397.2</ele>
        <time>2021-07-24T12:30:32Z</time>
      </trkpt>
      <trkpt lat="43.2395740" lon="-7.7251460">
        <ele>396.8</ele>
        <time>2021-07-24T12:30:36Z</time>
      </trkpt>
      <trkpt lat="43.2395450" lon="-7.7251430">
        <ele>396.4</ele>
        <time>2021-07-24T12:30:37Z</time>
      </trkpt>
      <trkpt lat="43.2395090" lon="-7.7251350">
        <ele>396.0</ele>
        <time>2021-07-24T12:30:38Z</time>
      </trkpt>
      <trkpt lat="43.2394690" lon="-7.7251240">
        <ele>395.4</ele>
        <time>2021-07-24T12:30:39Z</time>
      </trkpt>
      <trkpt lat="43.2394290" lon="-7.7251080">
        <ele>395.0</ele>
        <time>2021-07-24T12:30:40Z</time>
      </trkpt>
      <trkpt lat="43.2393600" lon="-7.7250690">
        <ele>395.0</ele>
        <time>2021-07-24T12:30:42Z</time>
      </trkpt>
      <trkpt lat="43.2390970" lon="-7.7248960">
        <ele>395.0</ele>
        <time>2021-07-24T12:30:50Z</time>
      </trkpt>
      <trkpt lat="43.2388240" lon="-7.7247860">
        <ele>395.0</ele>
        <time>2021-07-24T12:30:58Z</time>
      </trkpt>
      <trkpt lat="43.2386040" lon="-7.7247000">
        <ele>395.0</ele>
        <time>2021-07-24T12:31:04Z</time>
      </trkpt>
      <trkpt lat="43.2383010" lon="-7.7246430">
        <ele>395.0</ele>
        <time>2021-07-24T12:31:12Z</time>
      </trkpt>
      <trkpt lat="43.2382110" lon="-7.7246600">
        <ele>394.2</ele>
        <time>2021-07-24T12:31:15Z</time>
      </trkpt>
      <trkpt lat="43.2381960" lon="-7.7246660">
        <ele>393.8</ele>
        <time>2021-07-24T12:31:16Z</time>
      </trkpt>
      <trkpt lat="43.2381820" lon="-7.7246680">
        <ele>393.2</ele>
        <time>2021-07-24T12:31:17Z</time>
      </trkpt>
      <trkpt lat="43.2381760" lon="-7.7246660">
        <ele>392.8</ele>
        <time>2021-07-24T12:31:18Z</time>
      </trkpt>
      <trkpt lat="43.2381670" lon="-7.7246650">
        <ele>392.8</ele>
        <time>2021-07-24T12:31:19Z</time>
      </trkpt>
      <trkpt lat="43.2381050" lon="-7.7246870">
        <ele>392.8</ele>
        <time>2021-07-24T12:31:24Z</time>
      </trkpt>
      <trkpt lat="43.2380530" lon="-7.7246890">
        <ele>392.8</ele>
        <time>2021-07-24T12:31:26Z</time>
      </trkpt>
      <trkpt lat="43.2378830" lon="-7.7246610">
        <ele>392.8</ele>
        <time>2021-07-24T12:31:32Z</time>
      </trkpt>
      <trkpt lat="43.2377150" lon="-7.7246120">
        <ele>392.8</ele>
        <time>2021-07-24T12:31:38Z</time>
      </trkpt>
      <trkpt lat="43.2376600" lon="-7.7245970">
        <ele>393.2</ele>
        <time>2021-07-24T12:31:40Z</time>
      </trkpt>
      <trkpt lat="43.2376360" lon="-7.7245910">
        <ele>393.6</ele>
        <time>2021-07-24T12:31:41Z</time>
      </trkpt>
      <trkpt lat="43.2376100" lon="-7.7245790">
        <ele>394.0</ele>
        <time>2021-07-24T12:31:42Z</time>
      </trkpt>
      <trkpt lat="43.2375790" lon="-7.7245500">
        <ele>394.4</ele>
        <time>2021-07-24T12:31:43Z</time>
      </trkpt>
      <trkpt lat="43.2375530" lon="-7.7245180">
        <ele>394.8</ele>
        <time>2021-07-24T12:31:44Z</time>
      </trkpt>
      <trkpt lat="43.2375260" lon="-7.7245000">
        <ele>394.8</ele>
        <time>2021-07-24T12:31:45Z</time>
      </trkpt>
      <trkpt lat="43.2373780" lon="-7.7244060">
        <ele>394.8</ele>
        <time>2021-07-24T12:31:51Z</time>
      </trkpt>
      <trkpt lat="43.2372930" lon="-7.7243350">
        <ele>395.4</ele>
        <time>2021-07-24T12:31:55Z</time>
      </trkpt>
      <trkpt lat="43.2372670" lon="-7.7243150">
        <ele>395.8</ele>
        <time>2021-07-24T12:31:56Z</time>
      </trkpt>
      <trkpt lat="43.2372420" lon="-7.7243070">
        <ele>396.2</ele>
        <time>2021-07-24T12:31:57Z</time>
      </trkpt>
      <trkpt lat="43.2372120" lon="-7.7243110">
        <ele>396.6</ele>
        <time>2021-07-24T12:31:58Z</time>
      </trkpt>
      <trkpt lat="43.2371830" lon="-7.7243130">
        <ele>397.0</ele>
        <time>2021-07-24T12:31:59Z</time>
      </trkpt>
      <trkpt lat="43.2370350" lon="-7.7243010">
        <ele>397.0</ele>
        <time>2021-07-24T12:32:05Z</time>
      </trkpt>
      <trkpt lat="43.2368630" lon="-7.7243010">
        <ele>397.0</ele>
        <time>2021-07-24T12:32:11Z</time>
      </trkpt>
      <trkpt lat="43.2367420" lon="-7.7243470">
        <ele>397.0</ele>
        <time>2021-07-24T12:32:17Z</time>
      </trkpt>
      <trkpt lat="43.2367790" lon="-7.7244130">
        <ele>397.0</ele>
        <time>2021-07-24T12:32:22Z</time>
      </trkpt>
      <trkpt lat="43.2367850" lon="-7.7245650">
        <ele>397.0</ele>
        <time>2021-07-24T12:32:26Z</time>
      </trkpt>
      <trkpt lat="43.2367800" lon="-7.7246380">
        <ele>396.6</ele>
        <time>2021-07-24T12:32:28Z</time>
      </trkpt>
      <trkpt lat="43.2367770" lon="-7.7246860">
        <ele>395.8</ele>
        <time>2021-07-24T12:32:29Z</time>
      </trkpt>
      <trkpt lat="43.2367770" lon="-7.7247410">
        <ele>395.2</ele>
        <time>2021-07-24T12:32:30Z</time>
      </trkpt>
      <trkpt lat="43.2367780" lon="-7.7247940">
        <ele>394.8</ele>
        <time>2021-07-24T12:32:31Z</time>
      </trkpt>
      <trkpt lat="43.2367760" lon="-7.7249790">
        <ele>394.4</ele>
        <time>2021-07-24T12:32:35Z</time>
      </trkpt>
      <trkpt lat="43.2367770" lon="-7.7250180">
        <ele>394.0</ele>
        <time>2021-07-24T12:32:36Z</time>
      </trkpt>
      <trkpt lat="43.2367770" lon="-7.7250610">
        <ele>393.6</ele>
        <time>2021-07-24T12:32:37Z</time>
      </trkpt>
      <trkpt lat="43.2367850" lon="-7.7251060">
        <ele>393.2</ele>
        <time>2021-07-24T12:32:38Z</time>
      </trkpt>
      <trkpt lat="43.2367910" lon="-7.7251490">
        <ele>392.8</ele>
        <time>2021-07-24T12:32:39Z</time>
      </trkpt>
      <trkpt lat="43.2367920" lon="-7.7252830">
        <ele>392.2</ele>
        <time>2021-07-24T12:32:42Z</time>
      </trkpt>
      <trkpt lat="43.2367840" lon="-7.7253290">
        <ele>391.8</ele>
        <time>2021-07-24T12:32:43Z</time>
      </trkpt>
      <trkpt lat="43.2367790" lon="-7.7253680">
        <ele>391.4</ele>
        <time>2021-07-24T12:32:44Z</time>
      </trkpt>
      <trkpt lat="43.2367700" lon="-7.7254100">
        <ele>390.8</ele>
        <time>2021-07-24T12:32:45Z</time>
      </trkpt>
      <trkpt lat="43.2367570" lon="-7.7254530">
        <ele>390.4</ele>
        <time>2021-07-24T12:32:46Z</time>
      </trkpt>
      <trkpt lat="43.2367350" lon="-7.7254910">
        <ele>390.0</ele>
        <time>2021-07-24T12:32:47Z</time>
      </trkpt>
      <trkpt lat="43.2367120" lon="-7.7255140">
        <ele>389.4</ele>
        <time>2021-07-24T12:32:48Z</time>
      </trkpt>
      <trkpt lat="43.2366930" lon="-7.7255430">
        <ele>389.0</ele>
        <time>2021-07-24T12:32:49Z</time>
      </trkpt>
      <trkpt lat="43.2366680" lon="-7.7255710">
        <ele>388.6</ele>
        <time>2021-07-24T12:32:50Z</time>
      </trkpt>
      <trkpt lat="43.2366410" lon="-7.7256030">
        <ele>388.0</ele>
        <time>2021-07-24T12:32:51Z</time>
      </trkpt>
      <trkpt lat="43.2365240" lon="-7.7257570">
        <ele>387.6</ele>
        <time>2021-07-24T12:32:55Z</time>
      </trkpt>
      <trkpt lat="43.2364890" lon="-7.7257880">
        <ele>387.2</ele>
        <time>2021-07-24T12:32:56Z</time>
      </trkpt>
      <trkpt lat="43.2364570" lon="-7.7258130">
        <ele>386.6</ele>
        <time>2021-07-24T12:32:57Z</time>
      </trkpt>
      <trkpt lat="43.2364260" lon="-7.7258370">
        <ele>386.2</ele>
        <time>2021-07-24T12:32:58Z</time>
      </trkpt>
      <trkpt lat="43.2363960" lon="-7.7258530">
        <ele>385.8</ele>
        <time>2021-07-24T12:32:59Z</time>
      </trkpt>
      <trkpt lat="43.2363400" lon="-7.7258750">
        <ele>385.4</ele>
        <time>2021-07-24T12:33:01Z</time>
      </trkpt>
      <trkpt lat="43.2363180" lon="-7.7258810">
        <ele>384.8</ele>
        <time>2021-07-24T12:33:02Z</time>
      </trkpt>
      <trkpt lat="43.2362960" lon="-7.7258990">
        <ele>384.4</ele>
        <time>2021-07-24T12:33:03Z</time>
      </trkpt>
      <trkpt lat="43.2362770" lon="-7.7259250">
        <ele>384.0</ele>
        <time>2021-07-24T12:33:04Z</time>
      </trkpt>
      <trkpt lat="43.2362590" lon="-7.7259510">
        <ele>383.4</ele>
        <time>2021-07-24T12:33:05Z</time>
      </trkpt>
      <trkpt lat="43.2362380" lon="-7.7259780">
        <ele>383.4</ele>
        <time>2021-07-24T12:33:06Z</time>
      </trkpt>
      <trkpt lat="43.2362190" lon="-7.7260020">
        <ele>383.0</ele>
        <time>2021-07-24T12:33:07Z</time>
      </trkpt>
      <trkpt lat="43.2362000" lon="-7.7260280">
        <ele>382.6</ele>
        <time>2021-07-24T12:33:08Z</time>
      </trkpt>
      <trkpt lat="43.2361780" lon="-7.7260570">
        <ele>382.2</ele>
        <time>2021-07-24T12:33:09Z</time>
      </trkpt>
      <trkpt lat="43.2361550" lon="-7.7260870">
        <ele>381.8</ele>
        <time>2021-07-24T12:33:10Z</time>
      </trkpt>
      <trkpt lat="43.2361310" lon="-7.7261070">
        <ele>381.4</ele>
        <time>2021-07-24T12:33:11Z</time>
      </trkpt>
      <trkpt lat="43.2360730" lon="-7.7261470">
        <ele>381.4</ele>
        <time>2021-07-24T12:33:13Z</time>
      </trkpt>
      <trkpt lat="43.2360450" lon="-7.7261700">
        <ele>381.0</ele>
        <time>2021-07-24T12:33:14Z</time>
      </trkpt>
      <trkpt lat="43.2360200" lon="-7.7261950">
        <ele>380.6</ele>
        <time>2021-07-24T12:33:15Z</time>
      </trkpt>
      <trkpt lat="43.2359970" lon="-7.7262210">
        <ele>380.0</ele>
        <time>2021-07-24T12:33:16Z</time>
      </trkpt>
      <trkpt lat="43.2359770" lon="-7.7262490">
        <ele>379.6</ele>
        <time>2021-07-24T12:33:17Z</time>
      </trkpt>
      <trkpt lat="43.2359570" lon="-7.7262720">
        <ele>379.2</ele>
        <time>2021-07-24T12:33:18Z</time>
      </trkpt>
      <trkpt lat="43.2359360" lon="-7.7263000">
        <ele>379.2</ele>
        <time>2021-07-24T12:33:19Z</time>
      </trkpt>
      <trkpt lat="43.2358790" lon="-7.7263910">
        <ele>378.8</ele>
        <time>2021-07-24T12:33:22Z</time>
      </trkpt>
      <trkpt lat="43.2358540" lon="-7.7264280">
        <ele>378.2</ele>
        <time>2021-07-24T12:33:23Z</time>
      </trkpt>
      <trkpt lat="43.2358360" lon="-7.7264580">
        <ele>377.8</ele>
        <time>2021-07-24T12:33:24Z</time>
      </trkpt>
      <trkpt lat="43.2358140" lon="-7.7264890">
        <ele>377.4</ele>
        <time>2021-07-24T12:33:25Z</time>
      </trkpt>
      <trkpt lat="43.2358000" lon="-7.7265240">
        <ele>377.0</ele>
        <time>2021-07-24T12:33:26Z</time>
      </trkpt>
      <trkpt lat="43.2357510" lon="-7.7267130">
        <ele>377.0</ele>
        <time>2021-07-24T12:33:30Z</time>
      </trkpt>
      <trkpt lat="43.2357310" lon="-7.7268010">
        <ele>376.6</ele>
        <time>2021-07-24T12:33:32Z</time>
      </trkpt>
      <trkpt lat="43.2357250" lon="-7.7268500">
        <ele>376.0</ele>
        <time>2021-07-24T12:33:33Z</time>
      </trkpt>
      <trkpt lat="43.2357180" lon="-7.7268900">
        <ele>375.6</ele>
        <time>2021-07-24T12:33:34Z</time>
      </trkpt>
      <trkpt lat="43.2357060" lon="-7.7269260">
        <ele>375.2</ele>
        <time>2021-07-24T12:33:35Z</time>
      </trkpt>
      <trkpt lat="43.2356980" lon="-7.7269630">
        <ele>374.8</ele>
        <time>2021-07-24T12:33:36Z</time>
      </trkpt>
      <trkpt lat="43.2356390" lon="-7.7272630">
        <ele>373.8</ele>
        <time>2021-07-24T12:33:43Z</time>
      </trkpt>
      <trkpt lat="43.2356330" lon="-7.7273050">
        <ele>373.4</ele>
        <time>2021-07-24T12:33:44Z</time>
      </trkpt>
      <trkpt lat="43.2356240" lon="-7.7273450">
        <ele>373.0</ele>
        <time>2021-07-24T12:33:45Z</time>
      </trkpt>
      <trkpt lat="43.2356170" lon="-7.7273880">
        <ele>372.6</ele>
        <time>2021-07-24T12:33:46Z</time>
      </trkpt>
      <trkpt lat="43.2355850" lon="-7.7275410">
        <ele>372.6</ele>
        <time>2021-07-24T12:33:50Z</time>
      </trkpt>
      <trkpt lat="43.2355270" lon="-7.7277270">
        <ele>372.2</ele>
        <time>2021-07-24T12:33:55Z</time>
      </trkpt>
      <trkpt lat="43.2355190" lon="-7.7277660">
        <ele>371.8</ele>
        <time>2021-07-24T12:33:56Z</time>
      </trkpt>
      <trkpt lat="43.2355100" lon="-7.7278030">
        <ele>371.4</ele>
        <time>2021-07-24T12:33:57Z</time>
      </trkpt>
      <trkpt lat="43.2355010" lon="-7.7278430">
        <ele>370.8</ele>
        <time>2021-07-24T12:33:58Z</time>
      </trkpt>
      <trkpt lat="43.2354910" lon="-7.7278770">
        <ele>370.4</ele>
        <time>2021-07-24T12:33:59Z</time>
      </trkpt>
      <trkpt lat="43.2354530" lon="-7.7279930">
        <ele>370.4</ele>
        <time>2021-07-24T12:34:03Z</time>
      </trkpt>
      <trkpt lat="43.2354250" lon="-7.7280820">
        <ele>370.0</ele>
        <time>2021-07-24T12:34:07Z</time>
      </trkpt>
      <trkpt lat="43.2354260" lon="-7.7280890">
        <ele>369.2</ele>
        <time>2021-07-24T12:34:08Z</time>
      </trkpt>
      <trkpt lat="43.2354290" lon="-7.7280910">
        <ele>368.8</ele>
        <time>2021-07-24T12:34:09Z</time>
      </trkpt>
      <trkpt lat="43.2353900" lon="-7.7281070">
        <ele>368.2</ele>
        <time>2021-07-24T12:34:25Z</time>
      </trkpt>
      <trkpt lat="43.2353860" lon="-7.7280980">
        <ele>368.2</ele>
        <time>2021-07-24T12:34:27Z</time>
      </trkpt>
      <trkpt lat="43.2354020" lon="-7.7280580">
        <ele>368.2</ele>
        <time>2021-07-24T12:34:31Z</time>
      </trkpt>
      <trkpt lat="43.2354060" lon="-7.7280510">
        <ele>368.2</ele>
        <time>2021-07-24T12:34:34Z</time>
      </trkpt>
      <trkpt lat="43.2354240" lon="-7.7281090">
        <ele>368.2</ele>
        <time>2021-07-24T12:39:55Z</time>
      </trkpt>
      <trkpt lat="43.2354100" lon="-7.7281490">
        <ele>368.2</ele>
        <time>2021-07-24T12:39:57Z</time>
      </trkpt>
      <trkpt lat="43.2353890" lon="-7.7282270">
        <ele>368.2</ele>
        <time>2021-07-24T12:40:00Z</time>
      </trkpt>
      <trkpt lat="43.2354050" lon="-7.7282930">
        <ele>368.2</ele>
        <time>2021-07-24T12:40:02Z</time>
      </trkpt>
      <trkpt lat="43.2354720" lon="-7.7283820">
        <ele>368.2</ele>
        <time>2021-07-24T12:40:05Z</time>
      </trkpt>
      <trkpt lat="43.2354990" lon="-7.7283940">
        <ele>368.2</ele>
        <time>2021-07-24T12:40:06Z</time>
      </trkpt>
      <trkpt lat="43.2357440" lon="-7.7285780">
        <ele>368.2</ele>
        <time>2021-07-24T12:40:14Z</time>
      </trkpt>
      <trkpt lat="43.2358220" lon="-7.7286510">
        <ele>368.2</ele>
        <time>2021-07-24T12:40:16Z</time>
      </trkpt>
      <trkpt lat="43.2359150" lon="-7.7287810">
        <ele>368.2</ele>
        <time>2021-07-24T12:40:19Z</time>
      </trkpt>
      <trkpt lat="43.2359580" lon="-7.7288820">
        <ele>368.2</ele>
        <time>2021-07-24T12:40:21Z</time>
      </trkpt>
      <trkpt lat="43.2359690" lon="-7.7289470">
        <ele>368.2</ele>
        <time>2021-07-24T12:40:22Z</time>
      </trkpt>
      <trkpt lat="43.2359930" lon="-7.7290660">
        <ele>368.2</ele>
        <time>2021-07-24T12:40:24Z</time>
      </trkpt>
      <trkpt lat="43.2360050" lon="-7.7291250">
        <ele>368.2</ele>
        <time>2021-07-24T12:40:25Z</time>
      </trkpt>
      <trkpt lat="43.2361020" lon="-7.7294890">
        <ele>368.2</ele>
        <time>2021-07-24T12:40:31Z</time>
      </trkpt>
      <trkpt lat="43.2361320" lon="-7.7295840">
        <ele>368.2</ele>
        <time>2021-07-24T12:40:32Z</time>
      </trkpt>
      <trkpt lat="43.2361450" lon="-7.7296600">
        <ele>367.8</ele>
        <time>2021-07-24T12:40:33Z</time>
      </trkpt>
      <trkpt lat="43.2361460" lon="-7.7297210">
        <ele>367.4</ele>
        <time>2021-07-24T12:40:34Z</time>
      </trkpt>
      <trkpt lat="43.2361350" lon="-7.7297700">
        <ele>367.0</ele>
        <time>2021-07-24T12:40:35Z</time>
      </trkpt>
      <trkpt lat="43.2361130" lon="-7.7298170">
        <ele>366.6</ele>
        <time>2021-07-24T12:40:36Z</time>
      </trkpt>
      <trkpt lat="43.2360850" lon="-7.7298600">
        <ele>366.2</ele>
        <time>2021-07-24T12:40:37Z</time>
      </trkpt>
      <trkpt lat="43.2360210" lon="-7.7299150">
        <ele>366.2</ele>
        <time>2021-07-24T12:40:39Z</time>
      </trkpt>
      <trkpt lat="43.2359900" lon="-7.7299350">
        <ele>366.2</ele>
        <time>2021-07-24T12:40:40Z</time>
      </trkpt>
      <trkpt lat="43.2358490" lon="-7.7300230">
        <ele>365.6</ele>
        <time>2021-07-24T12:40:44Z</time>
      </trkpt>
      <trkpt lat="43.2358090" lon="-7.7300410">
        <ele>365.2</ele>
        <time>2021-07-24T12:40:45Z</time>
      </trkpt>
      <trkpt lat="43.2357680" lon="-7.7300600">
        <ele>364.8</ele>
        <time>2021-07-24T12:40:46Z</time>
      </trkpt>
      <trkpt lat="43.2357280" lon="-7.7300790">
        <ele>364.4</ele>
        <time>2021-07-24T12:40:47Z</time>
      </trkpt>
      <trkpt lat="43.2356900" lon="-7.7301000">
        <ele>363.8</ele>
        <time>2021-07-24T12:40:48Z</time>
      </trkpt>
      <trkpt lat="43.2354900" lon="-7.7302160">
        <ele>363.8</ele>
        <time>2021-07-24T12:40:53Z</time>
      </trkpt>
      <trkpt lat="43.2354510" lon="-7.7302380">
        <ele>363.8</ele>
        <time>2021-07-24T12:40:54Z</time>
      </trkpt>
      <trkpt lat="43.2352900" lon="-7.7303300">
        <ele>363.8</ele>
        <time>2021-07-24T12:40:58Z</time>
      </trkpt>
      <trkpt lat="43.2352060" lon="-7.7303860">
        <ele>363.8</ele>
        <time>2021-07-24T12:41:00Z</time>
      </trkpt>
      <trkpt lat="43.2351010" lon="-7.7304900">
        <ele>363.8</ele>
        <time>2021-07-24T12:41:03Z</time>
      </trkpt>
      <trkpt lat="43.2350720" lon="-7.7305290">
        <ele>363.8</ele>
        <time>2021-07-24T12:41:04Z</time>
      </trkpt>
      <trkpt lat="43.2349210" lon="-7.7307370">
        <ele>363.8</ele>
        <time>2021-07-24T12:41:09Z</time>
      </trkpt>
      <trkpt lat="43.2348500" lon="-7.7307980">
        <ele>363.8</ele>
        <time>2021-07-24T12:41:11Z</time>
      </trkpt>
      <trkpt lat="43.2346420" lon="-7.7309200">
        <ele>363.8</ele>
        <time>2021-07-24T12:41:17Z</time>
      </trkpt>
      <trkpt lat="43.2346080" lon="-7.7309380">
        <ele>363.4</ele>
        <time>2021-07-24T12:41:18Z</time>
      </trkpt>
      <trkpt lat="43.2345770" lon="-7.7309600">
        <ele>363.0</ele>
        <time>2021-07-24T12:41:19Z</time>
      </trkpt>
      <trkpt lat="43.2345480" lon="-7.7309790">
        <ele>362.6</ele>
        <time>2021-07-24T12:41:20Z</time>
      </trkpt>
      <trkpt lat="43.2345180" lon="-7.7309980">
        <ele>362.2</ele>
        <time>2021-07-24T12:41:21Z</time>
      </trkpt>
      <trkpt lat="43.2344920" lon="-7.7310190">
        <ele>361.8</ele>
        <time>2021-07-24T12:41:22Z</time>
      </trkpt>
      <trkpt lat="43.2344440" lon="-7.7310670">
        <ele>361.8</ele>
        <time>2021-07-24T12:41:24Z</time>
      </trkpt>
      <trkpt lat="43.2343810" lon="-7.7312350">
        <ele>361.8</ele>
        <time>2021-07-24T12:41:29Z</time>
      </trkpt>
      <trkpt lat="43.2343970" lon="-7.7314860">
        <ele>361.8</ele>
        <time>2021-07-24T12:41:37Z</time>
      </trkpt>
      <trkpt lat="43.2344080" lon="-7.7317680">
        <ele>361.8</ele>
        <time>2021-07-24T12:41:44Z</time>
      </trkpt>
      <trkpt lat="43.2344010" lon="-7.7320600">
        <ele>361.8</ele>
        <time>2021-07-24T12:41:52Z</time>
      </trkpt>
      <trkpt lat="43.2344220" lon="-7.7321040">
        <ele>361.8</ele>
        <time>2021-07-24T12:41:56Z</time>
      </trkpt>
      <trkpt lat="43.2344050" lon="-7.7321830">
        <ele>361.8</ele>
        <time>2021-07-24T12:42:14Z</time>
      </trkpt>
      <trkpt lat="43.2343970" lon="-7.7323370">
        <ele>361.8</ele>
        <time>2021-07-24T12:42:19Z</time>
      </trkpt>
      <trkpt lat="43.2344000" lon="-7.7325470">
        <ele>361.8</ele>
        <time>2021-07-24T12:42:25Z</time>
      </trkpt>
      <trkpt lat="43.2343920" lon="-7.7328300">
        <ele>361.8</ele>
        <time>2021-07-24T12:42:32Z</time>
      </trkpt>
      <trkpt lat="43.2343600" lon="-7.7329610">
        <ele>361.8</ele>
        <time>2021-07-24T12:42:36Z</time>
      </trkpt>
      <trkpt lat="43.2343360" lon="-7.7329810">
        <ele>361.8</ele>
        <time>2021-07-24T12:42:37Z</time>
      </trkpt>
      <trkpt lat="43.2341900" lon="-7.7330420">
        <ele>361.8</ele>
        <time>2021-07-24T12:42:44Z</time>
      </trkpt>
      <trkpt lat="43.2341820" lon="-7.7330680">
        <ele>361.8</ele>
        <time>2021-07-24T12:42:46Z</time>
      </trkpt>
      <trkpt lat="43.2341780" lon="-7.7331490">
        <ele>361.8</ele>
        <time>2021-07-24T12:50:23Z</time>
      </trkpt>
      <trkpt lat="43.2341730" lon="-7.7331720">
        <ele>361.8</ele>
        <time>2021-07-24T12:50:24Z</time>
      </trkpt>
      <trkpt lat="43.2341150" lon="-7.7333250">
        <ele>361.8</ele>
        <time>2021-07-24T12:50:30Z</time>
      </trkpt>
      <trkpt lat="43.2340460" lon="-7.7335060">
        <ele>361.8</ele>
        <time>2021-07-24T12:50:38Z</time>
      </trkpt>
      <trkpt lat="43.2339840" lon="-7.7336810">
        <ele>362.2</ele>
        <time>2021-07-24T12:50:45Z</time>
      </trkpt>
      <trkpt lat="43.2339820" lon="-7.7337060">
        <ele>362.6</ele>
        <time>2021-07-24T12:50:46Z</time>
      </trkpt>
      <trkpt lat="43.2339780" lon="-7.7337310">
        <ele>363.0</ele>
        <time>2021-07-24T12:50:47Z</time>
      </trkpt>
      <trkpt lat="43.2339720" lon="-7.7337550">
        <ele>363.4</ele>
        <time>2021-07-24T12:50:48Z</time>
      </trkpt>
      <trkpt lat="43.2339670" lon="-7.7337800">
        <ele>363.8</ele>
        <time>2021-07-24T12:50:49Z</time>
      </trkpt>
      <trkpt lat="43.2339470" lon="-7.7338510">
        <ele>363.8</ele>
        <time>2021-07-24T12:50:52Z</time>
      </trkpt>
      <trkpt lat="43.2339410" lon="-7.7338700">
        <ele>364.4</ele>
        <time>2021-07-24T12:50:53Z</time>
      </trkpt>
      <trkpt lat="43.2339350" lon="-7.7338920">
        <ele>364.8</ele>
        <time>2021-07-24T12:50:54Z</time>
      </trkpt>
      <trkpt lat="43.2339320" lon="-7.7339160">
        <ele>365.2</ele>
        <time>2021-07-24T12:50:55Z</time>
      </trkpt>
      <trkpt lat="43.2339260" lon="-7.7339400">
        <ele>365.6</ele>
        <time>2021-07-24T12:50:56Z</time>
      </trkpt>
      <trkpt lat="43.2339190" lon="-7.7339620">
        <ele>366.0</ele>
        <time>2021-07-24T12:50:57Z</time>
      </trkpt>
      <trkpt lat="43.2339080" lon="-7.7339770">
        <ele>366.0</ele>
        <time>2021-07-24T12:50:58Z</time>
      </trkpt>
      <trkpt lat="43.2338950" lon="-7.7339850">
        <ele>366.0</ele>
        <time>2021-07-24T12:50:59Z</time>
      </trkpt>
      <trkpt lat="43.2338460" lon="-7.7339620">
        <ele>366.0</ele>
        <time>2021-07-24T12:51:02Z</time>
      </trkpt>
      <trkpt lat="43.2337940" lon="-7.7339340">
        <ele>366.0</ele>
        <time>2021-07-24T12:51:05Z</time>
      </trkpt>
      <trkpt lat="43.2336620" lon="-7.7338650">
        <ele>366.0</ele>
        <time>2021-07-24T12:51:11Z</time>
      </trkpt>
      <trkpt lat="43.2334990" lon="-7.7338330">
        <ele>366.0</ele>
        <time>2021-07-24T12:51:17Z</time>
      </trkpt>
      <trkpt lat="43.2333680" lon="-7.7337570">
        <ele>366.0</ele>
        <time>2021-07-24T12:51:21Z</time>
      </trkpt>
      <trkpt lat="43.2332940" lon="-7.7336960">
        <ele>366.0</ele>
        <time>2021-07-24T12:51:23Z</time>
      </trkpt>
      <trkpt lat="43.2331990" lon="-7.7335570">
        <ele>366.0</ele>
        <time>2021-07-24T12:51:26Z</time>
      </trkpt>
      <trkpt lat="43.2330710" lon="-7.7332240">
        <ele>366.0</ele>
        <time>2021-07-24T12:51:31Z</time>
      </trkpt>
      <trkpt lat="43.2329920" lon="-7.7328980">
        <ele>365.6</ele>
        <time>2021-07-24T12:51:36Z</time>
      </trkpt>
      <trkpt lat="43.2329630" lon="-7.7328370">
        <ele>365.2</ele>
        <time>2021-07-24T12:51:37Z</time>
      </trkpt>
      <trkpt lat="43.2329310" lon="-7.7327830">
        <ele>364.8</ele>
        <time>2021-07-24T12:51:38Z</time>
      </trkpt>
      <trkpt lat="43.2328940" lon="-7.7327350">
        <ele>364.4</ele>
        <time>2021-07-24T12:51:39Z</time>
      </trkpt>
      <trkpt lat="43.2328560" lon="-7.7326900">
        <ele>363.8</ele>
        <time>2021-07-24T12:51:40Z</time>
      </trkpt>
      <trkpt lat="43.2328120" lon="-7.7326560">
        <ele>363.8</ele>
        <time>2021-07-24T12:51:41Z</time>
      </trkpt>
      <trkpt lat="43.2325870" lon="-7.7325020">
        <ele>363.8</ele>
        <time>2021-07-24T12:51:47Z</time>
      </trkpt>
      <trkpt lat="43.2324220" lon="-7.7324130">
        <ele>363.8</ele>
        <time>2021-07-24T12:51:53Z</time>
      </trkpt>
      <trkpt lat="43.2323280" lon="-7.7323460">
        <ele>363.8</ele>
        <time>2021-07-24T12:51:58Z</time>
      </trkpt>
      <trkpt lat="43.2322120" lon="-7.7322630">
        <ele>363.8</ele>
        <time>2021-07-24T12:52:02Z</time>
      </trkpt>
      <trkpt lat="43.2320070" lon="-7.7321450">
        <ele>363.8</ele>
        <time>2021-07-24T12:52:08Z</time>
      </trkpt>
      <trkpt lat="43.2317880" lon="-7.7321490">
        <ele>363.8</ele>
        <time>2021-07-24T12:52:14Z</time>
      </trkpt>
      <trkpt lat="43.2315480" lon="-7.7321720">
        <ele>363.8</ele>
        <time>2021-07-24T12:52:21Z</time>
      </trkpt>
      <trkpt lat="43.2313970" lon="-7.7322100">
        <ele>363.8</ele>
        <time>2021-07-24T12:52:25Z</time>
      </trkpt>
      <trkpt lat="43.2311960" lon="-7.7322740">
        <ele>363.8</ele>
        <time>2021-07-24T12:52:31Z</time>
      </trkpt>
      <trkpt lat="43.2310070" lon="-7.7323410">
        <ele>363.8</ele>
        <time>2021-07-24T12:52:37Z</time>
      </trkpt>
      <trkpt lat="43.2309490" lon="-7.7323740">
        <ele>364.4</ele>
        <time>2021-07-24T12:52:39Z</time>
      </trkpt>
      <trkpt lat="43.2309190" lon="-7.7323870">
        <ele>365.2</ele>
        <time>2021-07-24T12:52:40Z</time>
      </trkpt>
      <trkpt lat="43.2308890" lon="-7.7323920">
        <ele>365.6</ele>
        <time>2021-07-24T12:52:41Z</time>
      </trkpt>
      <trkpt lat="43.2308580" lon="-7.7323960">
        <ele>366.0</ele>
        <time>2021-07-24T12:52:42Z</time>
      </trkpt>
      <trkpt lat="43.2307870" lon="-7.7324030">
        <ele>366.0</ele>
        <time>2021-07-24T12:52:44Z</time>
      </trkpt>
      <trkpt lat="43.2306410" lon="-7.7324770">
        <ele>366.0</ele>
        <time>2021-07-24T12:52:48Z</time>
      </trkpt>
      <trkpt lat="43.2304360" lon="-7.7325020">
        <ele>366.0</ele>
        <time>2021-07-24T12:52:53Z</time>
      </trkpt>
      <trkpt lat="43.2300820" lon="-7.7325550">
        <ele>366.0</ele>
        <time>2021-07-24T12:53:02Z</time>
      </trkpt>
      <trkpt lat="43.2299320" lon="-7.7325830">
        <ele>366.4</ele>
        <time>2021-07-24T12:53:06Z</time>
      </trkpt>
      <trkpt lat="43.2298920" lon="-7.7325910">
        <ele>366.8</ele>
        <time>2021-07-24T12:53:07Z</time>
      </trkpt>
      <trkpt lat="43.2298540" lon="-7.7325980">
        <ele>367.2</ele>
        <time>2021-07-24T12:53:08Z</time>
      </trkpt>
      <trkpt lat="43.2298170" lon="-7.7326050">
        <ele>367.6</ele>
        <time>2021-07-24T12:53:09Z</time>
      </trkpt>
      <trkpt lat="43.2297810" lon="-7.7326110">
        <ele>368.0</ele>
        <time>2021-07-24T12:53:10Z</time>
      </trkpt>
      <trkpt lat="43.2294520" lon="-7.7326820">
        <ele>368.0</ele>
        <time>2021-07-24T12:53:19Z</time>
      </trkpt>
      <trkpt lat="43.2291560" lon="-7.7327610">
        <ele>368.0</ele>
        <time>2021-07-24T12:53:27Z</time>
      </trkpt>
      <trkpt lat="43.2289060" lon="-7.7328170">
        <ele>368.0</ele>
        <time>2021-07-24T12:53:34Z</time>
      </trkpt>
      <trkpt lat="43.2287950" lon="-7.7327930">
        <ele>368.0</ele>
        <time>2021-07-24T12:53:39Z</time>
      </trkpt>
      <trkpt lat="43.2287630" lon="-7.7327120">
        <ele>368.0</ele>
        <time>2021-07-24T12:53:43Z</time>
      </trkpt>
      <trkpt lat="43.2287690" lon="-7.7326400">
        <ele>368.0</ele>
        <time>2021-07-24T12:53:45Z</time>
      </trkpt>
      <trkpt lat="43.2287540" lon="-7.7323680">
        <ele>368.0</ele>
        <time>2021-07-24T12:53:50Z</time>
      </trkpt>
      <trkpt lat="43.2287760" lon="-7.7319680">
        <ele>368.0</ele>
        <time>2021-07-24T12:53:55Z</time>
      </trkpt>
      <trkpt lat="43.2287950" lon="-7.7318410">
        <ele>368.0</ele>
        <time>2021-07-24T12:53:57Z</time>
      </trkpt>
      <trkpt lat="43.2287960" lon="-7.7317570">
        <ele>368.0</ele>
        <time>2021-07-24T12:53:59Z</time>
      </trkpt>
      <trkpt lat="43.2287930" lon="-7.7317350">
        <ele>367.6</ele>
        <time>2021-07-24T12:54:00Z</time>
      </trkpt>
      <trkpt lat="43.2287890" lon="-7.7317240">
        <ele>367.2</ele>
        <time>2021-07-24T12:54:01Z</time>
      </trkpt>
      <trkpt lat="43.2287830" lon="-7.7317160">
        <ele>366.8</ele>
        <time>2021-07-24T12:54:02Z</time>
      </trkpt>
      <trkpt lat="43.2287750" lon="-7.7317050">
        <ele>366.4</ele>
        <time>2021-07-24T12:54:03Z</time>
      </trkpt>
      <trkpt lat="43.2287650" lon="-7.7316890">
        <ele>366.0</ele>
        <time>2021-07-24T12:54:04Z</time>
      </trkpt>
      <trkpt lat="43.2286890" lon="-7.7315990">
        <ele>366.0</ele>
        <time>2021-07-24T12:54:08Z</time>
      </trkpt>
      <trkpt lat="43.2285250" lon="-7.7314410">
        <ele>366.0</ele>
        <time>2021-07-24T12:54:13Z</time>
      </trkpt>
      <trkpt lat="43.2283360" lon="-7.7312640">
        <ele>366.0</ele>
        <time>2021-07-24T12:54:18Z</time>
      </trkpt>
      <trkpt lat="43.2282740" lon="-7.7311940">
        <ele>366.0</ele>
        <time>2021-07-24T12:54:20Z</time>
      </trkpt>
      <trkpt lat="43.2280600" lon="-7.7309740">
        <ele>366.0</ele>
        <time>2021-07-24T12:54:26Z</time>
      </trkpt>
      <trkpt lat="43.2279370" lon="-7.7309000">
        <ele>366.0</ele>
        <time>2021-07-24T12:54:29Z</time>
      </trkpt>
      <trkpt lat="43.2278070" lon="-7.7308400">
        <ele>366.0</ele>
        <time>2021-07-24T12:54:32Z</time>
      </trkpt>
      <trkpt lat="43.2276310" lon="-7.7307860">
        <ele>366.0</ele>
        <time>2021-07-24T12:54:36Z</time>
      </trkpt>
      <trkpt lat="43.2274910" lon="-7.7307940">
        <ele>366.0</ele>
        <time>2021-07-24T12:54:39Z</time>
      </trkpt>
      <trkpt lat="43.2274470" lon="-7.7307990">
        <ele>366.0</ele>
        <time>2021-07-24T12:54:40Z</time>
      </trkpt>
      <trkpt lat="43.2273990" lon="-7.7308000">
        <ele>366.0</ele>
        <time>2021-07-24T12:54:41Z</time>
      </trkpt>
      <trkpt lat="43.2272060" lon="-7.7307850">
        <ele>366.0</ele>
        <time>2021-07-24T12:54:45Z</time>
      </trkpt>
      <trkpt lat="43.2268910" lon="-7.7307260">
        <ele>366.0</ele>
        <time>2021-07-24T12:54:52Z</time>
      </trkpt>
      <trkpt lat="43.2265790" lon="-7.7305880">
        <ele>366.0</ele>
        <time>2021-07-24T12:54:59Z</time>
      </trkpt>
      <trkpt lat="43.2263100" lon="-7.7304500">
        <ele>366.0</ele>
        <time>2021-07-24T12:55:05Z</time>
      </trkpt>
      <trkpt lat="43.2260660" lon="-7.7303550">
        <ele>366.0</ele>
        <time>2021-07-24T12:55:11Z</time>
      </trkpt>
      <trkpt lat="43.2258690" lon="-7.7303080">
        <ele>366.4</ele>
        <time>2021-07-24T12:55:16Z</time>
      </trkpt>
      <trkpt lat="43.2258300" lon="-7.7302980">
        <ele>366.8</ele>
        <time>2021-07-24T12:55:17Z</time>
      </trkpt>
      <trkpt lat="43.2258000" lon="-7.7302930">
        <ele>367.2</ele>
        <time>2021-07-24T12:55:18Z</time>
      </trkpt>
      <trkpt lat="43.2257650" lon="-7.7302910">
        <ele>367.6</ele>
        <time>2021-07-24T12:55:19Z</time>
      </trkpt>
      <trkpt lat="43.2257320" lon="-7.7302950">
        <ele>368.2</ele>
        <time>2021-07-24T12:55:20Z</time>
      </trkpt>
      <trkpt lat="43.2256150" lon="-7.7303060">
        <ele>368.2</ele>
        <time>2021-07-24T12:55:23Z</time>
      </trkpt>
      <trkpt lat="43.2255690" lon="-7.7302980">
        <ele>368.2</ele>
        <time>2021-07-24T12:55:24Z</time>
      </trkpt>
      <trkpt lat="43.2253340" lon="-7.7301920">
        <ele>368.2</ele>
        <time>2021-07-24T12:55:30Z</time>
      </trkpt>
      <trkpt lat="43.2252640" lon="-7.7301470">
        <ele>368.6</ele>
        <time>2021-07-24T12:55:32Z</time>
      </trkpt>
      <trkpt lat="43.2252270" lon="-7.7301210">
        <ele>369.4</ele>
        <time>2021-07-24T12:55:33Z</time>
      </trkpt>
      <trkpt lat="43.2251960" lon="-7.7300950">
        <ele>369.8</ele>
        <time>2021-07-24T12:55:34Z</time>
      </trkpt>
      <trkpt lat="43.2251630" lon="-7.7300670">
        <ele>370.2</ele>
        <time>2021-07-24T12:55:35Z</time>
      </trkpt>
      <trkpt lat="43.2250750" lon="-7.7299980">
        <ele>370.2</ele>
        <time>2021-07-24T12:55:38Z</time>
      </trkpt>
      <trkpt lat="43.2248670" lon="-7.7299130">
        <ele>370.2</ele>
        <time>2021-07-24T12:55:45Z</time>
      </trkpt>
      <trkpt lat="43.2248350" lon="-7.7298980">
        <ele>370.6</ele>
        <time>2021-07-24T12:55:46Z</time>
      </trkpt>
      <trkpt lat="43.2248040" lon="-7.7298910">
        <ele>371.2</ele>
        <time>2021-07-24T12:55:47Z</time>
      </trkpt>
      <trkpt lat="43.2247740" lon="-7.7298860">
        <ele>371.6</ele>
        <time>2021-07-24T12:55:48Z</time>
      </trkpt>
      <trkpt lat="43.2247460" lon="-7.7298830">
        <ele>372.0</ele>
        <time>2021-07-24T12:55:49Z</time>
      </trkpt>
      <trkpt lat="43.2247210" lon="-7.7298730">
        <ele>372.4</ele>
        <time>2021-07-24T12:55:50Z</time>
      </trkpt>
      <trkpt lat="43.2246690" lon="-7.7298560">
        <ele>372.4</ele>
        <time>2021-07-24T12:55:52Z</time>
      </trkpt>
      <trkpt lat="43.2245050" lon="-7.7298460">
        <ele>372.4</ele>
        <time>2021-07-24T12:55:58Z</time>
      </trkpt>
      <trkpt lat="43.2243460" lon="-7.7297730">
        <ele>372.8</ele>
        <time>2021-07-24T12:56:05Z</time>
      </trkpt>
      <trkpt lat="43.2243190" lon="-7.7297600">
        <ele>373.2</ele>
        <time>2021-07-24T12:56:06Z</time>
      </trkpt>
      <trkpt lat="43.2242910" lon="-7.7297500">
        <ele>373.6</ele>
        <time>2021-07-24T12:56:07Z</time>
      </trkpt>
      <trkpt lat="43.2242660" lon="-7.7297450">
        <ele>374.0</ele>
        <time>2021-07-24T12:56:08Z</time>
      </trkpt>
      <trkpt lat="43.2242410" lon="-7.7297350">
        <ele>374.4</ele>
        <time>2021-07-24T12:56:09Z</time>
      </trkpt>
      <trkpt lat="43.2241670" lon="-7.7296940">
        <ele>374.4</ele>
        <time>2021-07-24T12:56:12Z</time>
      </trkpt>
      <trkpt lat="43.2239950" lon="-7.7296200">
        <ele>374.4</ele>
        <time>2021-07-24T12:56:19Z</time>
      </trkpt>
      <trkpt lat="43.2237830" lon="-7.7294950">
        <ele>374.4</ele>
        <time>2021-07-24T12:56:26Z</time>
      </trkpt>
      <trkpt lat="43.2237520" lon="-7.7294780">
        <ele>374.4</ele>
        <time>2021-07-24T12:56:27Z</time>
      </trkpt>
      <trkpt lat="43.2235110" lon="-7.7293700">
        <ele>374.4</ele>
        <time>2021-07-24T12:56:34Z</time>
      </trkpt>
      <trkpt lat="43.2232950" lon="-7.7293290">
        <ele>374.4</ele>
        <time>2021-07-24T12:56:39Z</time>
      </trkpt>
      <trkpt lat="43.2232480" lon="-7.7293220">
        <ele>374.4</ele>
        <time>2021-07-24T12:56:40Z</time>
      </trkpt>
      <trkpt lat="43.2231560" lon="-7.7292960">
        <ele>374.4</ele>
        <time>2021-07-24T12:56:42Z</time>
      </trkpt>
      <trkpt lat="43.2230060" lon="-7.7292350">
        <ele>374.0</ele>
        <time>2021-07-24T12:56:45Z</time>
      </trkpt>
      <trkpt lat="43.2229530" lon="-7.7292140">
        <ele>373.6</ele>
        <time>2021-07-24T12:56:46Z</time>
      </trkpt>
      <trkpt lat="43.2228980" lon="-7.7291910">
        <ele>373.2</ele>
        <time>2021-07-24T12:56:47Z</time>
      </trkpt>
      <trkpt lat="43.2228430" lon="-7.7291650">
        <ele>372.2</ele>
        <time>2021-07-24T12:56:48Z</time>
      </trkpt>
      <trkpt lat="43.2224930" lon="-7.7290050">
        <ele>372.2</ele>
        <time>2021-07-24T12:56:54Z</time>
      </trkpt>
      <trkpt lat="43.2224330" lon="-7.7289840">
        <ele>371.8</ele>
        <time>2021-07-24T12:56:55Z</time>
      </trkpt>
      <trkpt lat="43.2223740" lon="-7.7289610">
        <ele>371.4</ele>
        <time>2021-07-24T12:56:56Z</time>
      </trkpt>
      <trkpt lat="43.2223140" lon="-7.7289360">
        <ele>371.0</ele>
        <time>2021-07-24T12:56:57Z</time>
      </trkpt>
      <trkpt lat="43.2222510" lon="-7.7289090">
        <ele>370.6</ele>
        <time>2021-07-24T12:56:58Z</time>
      </trkpt>
      <trkpt lat="43.2221920" lon="-7.7288840">
        <ele>370.2</ele>
        <time>2021-07-24T12:56:59Z</time>
      </trkpt>
      <trkpt lat="43.2220730" lon="-7.7288390">
        <ele>370.2</ele>
        <time>2021-07-24T12:57:01Z</time>
      </trkpt>
      <trkpt lat="43.2220120" lon="-7.7288260">
        <ele>370.2</ele>
        <time>2021-07-24T12:57:02Z</time>
      </trkpt>
      <trkpt lat="43.2218310" lon="-7.7288610">
        <ele>370.2</ele>
        <time>2021-07-24T12:57:05Z</time>
      </trkpt>
      <trkpt lat="43.2216820" lon="-7.7289490">
        <ele>370.2</ele>
        <time>2021-07-24T12:57:08Z</time>
      </trkpt>
      <trkpt lat="43.2215940" lon="-7.7290050">
        <ele>370.2</ele>
        <time>2021-07-24T12:57:10Z</time>
      </trkpt>
      <trkpt lat="43.2215520" lon="-7.7290230">
        <ele>370.2</ele>
        <time>2021-07-24T12:57:11Z</time>
      </trkpt>
      <trkpt lat="43.2214240" lon="-7.7290450">
        <ele>370.2</ele>
        <time>2021-07-24T12:57:15Z</time>
      </trkpt>
      <trkpt lat="43.2214230" lon="-7.7290470">
        <ele>370.2</ele>
        <time>2021-07-24T12:57:16Z</time>
      </trkpt>
      <trkpt lat="43.2214150" lon="-7.7290440">
        <ele>370.2</ele>
        <time>2021-07-24T12:57:31Z</time>
      </trkpt>
      <trkpt lat="43.2213940" lon="-7.7290300">
        <ele>370.2</ele>
        <time>2021-07-24T12:57:32Z</time>
      </trkpt>
      <trkpt lat="43.2212250" lon="-7.7289350">
        <ele>370.2</ele>
        <time>2021-07-24T12:57:37Z</time>
      </trkpt>
      <trkpt lat="43.2209160" lon="-7.7287230">
        <ele>369.8</ele>
        <time>2021-07-24T12:57:44Z</time>
      </trkpt>
      <trkpt lat="43.2208750" lon="-7.7286930">
        <ele>369.4</ele>
        <time>2021-07-24T12:57:45Z</time>
      </trkpt>
      <trkpt lat="43.2208390" lon="-7.7286680">
        <ele>369.0</ele>
        <time>2021-07-24T12:57:46Z</time>
      </trkpt>
      <trkpt lat="43.2208040" lon="-7.7286440">
        <ele>368.6</ele>
        <time>2021-07-24T12:57:47Z</time>
      </trkpt>
      <trkpt lat="43.2207690" lon="-7.7286220">
        <ele>368.2</ele>
        <time>2021-07-24T12:57:48Z</time>
      </trkpt>
      <trkpt lat="43.2206370" lon="-7.7285350">
        <ele>368.2</ele>
        <time>2021-07-24T12:57:52Z</time>
      </trkpt>
      <trkpt lat="43.2204880" lon="-7.7283840">
        <ele>368.2</ele>
        <time>2021-07-24T12:57:58Z</time>
      </trkpt>
      <trkpt lat="43.2203560" lon="-7.7283300">
        <ele>369.0</ele>
        <time>2021-07-24T12:58:03Z</time>
      </trkpt>
      <trkpt lat="43.2203320" lon="-7.7283310">
        <ele>369.4</ele>
        <time>2021-07-24T12:58:04Z</time>
      </trkpt>
      <trkpt lat="43.2203070" lon="-7.7283290">
        <ele>369.8</ele>
        <time>2021-07-24T12:58:05Z</time>
      </trkpt>
      <trkpt lat="43.2202800" lon="-7.7283280">
        <ele>370.2</ele>
        <time>2021-07-24T12:58:06Z</time>
      </trkpt>
      <trkpt lat="43.2202310" lon="-7.7283280">
        <ele>370.6</ele>
        <time>2021-07-24T12:58:08Z</time>
      </trkpt>
      <trkpt lat="43.2202070" lon="-7.7283290">
        <ele>371.0</ele>
        <time>2021-07-24T12:58:09Z</time>
      </trkpt>
      <trkpt lat="43.2201830" lon="-7.7283320">
        <ele>371.4</ele>
        <time>2021-07-24T12:58:10Z</time>
      </trkpt>
      <trkpt lat="43.2201590" lon="-7.7283370">
        <ele>372.0</ele>
        <time>2021-07-24T12:58:11Z</time>
      </trkpt>
      <trkpt lat="43.2201370" lon="-7.7283400">
        <ele>372.4</ele>
        <time>2021-07-24T12:58:12Z</time>
      </trkpt>
      <trkpt lat="43.2200330" lon="-7.7283790">
        <ele>372.8</ele>
        <time>2021-07-24T12:58:17Z</time>
      </trkpt>
      <trkpt lat="43.2200140" lon="-7.7283940">
        <ele>373.2</ele>
        <time>2021-07-24T12:58:18Z</time>
      </trkpt>
      <trkpt lat="43.2199950" lon="-7.7284100">
        <ele>373.8</ele>
        <time>2021-07-24T12:58:19Z</time>
      </trkpt>
      <trkpt lat="43.2199760" lon="-7.7284230">
        <ele>374.2</ele>
        <time>2021-07-24T12:58:20Z</time>
      </trkpt>
      <trkpt lat="43.2199590" lon="-7.7284370">
        <ele>374.6</ele>
        <time>2021-07-24T12:58:21Z</time>
      </trkpt>
      <trkpt lat="43.2198660" lon="-7.7285630">
        <ele>374.6</ele>
        <time>2021-07-24T12:58:27Z</time>
      </trkpt>
      <trkpt lat="43.2198330" lon="-7.7286100">
        <ele>375.0</ele>
        <time>2021-07-24T12:58:29Z</time>
      </trkpt>
      <trkpt lat="43.2198170" lon="-7.7286350">
        <ele>375.4</ele>
        <time>2021-07-24T12:58:30Z</time>
      </trkpt>
      <trkpt lat="43.2198020" lon="-7.7286580">
        <ele>375.8</ele>
        <time>2021-07-24T12:58:31Z</time>
      </trkpt>
      <trkpt lat="43.2197850" lon="-7.7286810">
        <ele>376.2</ele>
        <time>2021-07-24T12:58:32Z</time>
      </trkpt>
      <trkpt lat="43.2197670" lon="-7.7287050">
        <ele>376.6</ele>
        <time>2021-07-24T12:58:33Z</time>
      </trkpt>
      <trkpt lat="43.2197030" lon="-7.7287980">
        <ele>376.6</ele>
        <time>2021-07-24T12:58:37Z</time>
      </trkpt>
      <trkpt lat="43.2195990" lon="-7.7289390">
        <ele>376.6</ele>
        <time>2021-07-24T12:58:43Z</time>
      </trkpt>
      <trkpt lat="43.2195820" lon="-7.7289640">
        <ele>377.2</ele>
        <time>2021-07-24T12:58:44Z</time>
      </trkpt>
      <trkpt lat="43.2195660" lon="-7.7289900">
        <ele>377.6</ele>
        <time>2021-07-24T12:58:45Z</time>
      </trkpt>
      <trkpt lat="43.2195500" lon="-7.7290150">
        <ele>378.0</ele>
        <time>2021-07-24T12:58:46Z</time>
      </trkpt>
      <trkpt lat="43.2195320" lon="-7.7290400">
        <ele>378.4</ele>
        <time>2021-07-24T12:58:47Z</time>
      </trkpt>
      <trkpt lat="43.2195180" lon="-7.7290670">
        <ele>378.8</ele>
        <time>2021-07-24T12:58:48Z</time>
      </trkpt>
      <trkpt lat="43.2194660" lon="-7.7291510">
        <ele>378.8</ele>
        <time>2021-07-24T12:58:51Z</time>
      </trkpt>
      <trkpt lat="43.2194240" lon="-7.7291980">
        <ele>378.8</ele>
        <time>2021-07-24T12:58:53Z</time>
      </trkpt>
      <trkpt lat="43.2192750" lon="-7.7293430">
        <ele>378.8</ele>
        <time>2021-07-24T12:58:59Z</time>
      </trkpt>
      <trkpt lat="43.2190750" lon="-7.7294650">
        <ele>378.8</ele>
        <time>2021-07-24T12:59:06Z</time>
      </trkpt>
      <trkpt lat="43.2189170" lon="-7.7295520">
        <ele>379.2</ele>
        <time>2021-07-24T12:59:11Z</time>
      </trkpt>
      <trkpt lat="43.2188840" lon="-7.7295710">
        <ele>379.6</ele>
        <time>2021-07-24T12:59:12Z</time>
      </trkpt>
      <trkpt lat="43.2188520" lon="-7.7295930">
        <ele>380.0</ele>
        <time>2021-07-24T12:59:13Z</time>
      </trkpt>
      <trkpt lat="43.2188190" lon="-7.7296120">
        <ele>380.4</ele>
        <time>2021-07-24T12:59:14Z</time>
      </trkpt>
      <trkpt lat="43.2187860" lon="-7.7296270">
        <ele>380.8</ele>
        <time>2021-07-24T12:59:15Z</time>
      </trkpt>
      <trkpt lat="43.2186280" lon="-7.7297200">
        <ele>380.8</ele>
        <time>2021-07-24T12:59:20Z</time>
      </trkpt>
      <trkpt lat="43.2184430" lon="-7.7298330">
        <ele>380.8</ele>
        <time>2021-07-24T12:59:25Z</time>
      </trkpt>
      <trkpt lat="43.2183710" lon="-7.7298750">
        <ele>380.8</ele>
        <time>2021-07-24T12:59:27Z</time>
      </trkpt>
      <trkpt lat="43.2181840" lon="-7.7299970">
        <ele>380.8</ele>
        <time>2021-07-24T12:59:33Z</time>
      </trkpt>
      <trkpt lat="43.2179730" lon="-7.7301460">
        <ele>380.8</ele>
        <time>2021-07-24T12:59:39Z</time>
      </trkpt>
      <trkpt lat="43.2177250" lon="-7.7302750">
        <ele>380.8</ele>
        <time>2021-07-24T12:59:46Z</time>
      </trkpt>
      <trkpt lat="43.2176400" lon="-7.7302710">
        <ele>380.8</ele>
        <time>2021-07-24T12:59:48Z</time>
      </trkpt>
      <trkpt lat="43.2175620" lon="-7.7302400">
        <ele>380.8</ele>
        <time>2021-07-24T12:59:50Z</time>
      </trkpt>
      <trkpt lat="43.2174620" lon="-7.7301480">
        <ele>380.8</ele>
        <time>2021-07-24T12:59:53Z</time>
      </trkpt>
      <trkpt lat="43.2173960" lon="-7.7300900">
        <ele>380.8</ele>
        <time>2021-07-24T12:59:55Z</time>
      </trkpt>
      <trkpt lat="43.2173210" lon="-7.7300450">
        <ele>380.8</ele>
        <time>2021-07-24T12:59:57Z</time>
      </trkpt>
      <trkpt lat="43.2172380" lon="-7.7300580">
        <ele>380.8</ele>
        <time>2021-07-24T12:59:59Z</time>
      </trkpt>
      <trkpt lat="43.2171260" lon="-7.7301660">
        <ele>380.8</ele>
        <time>2021-07-24T13:00:02Z</time>
      </trkpt>
      <trkpt lat="43.2170880" lon="-7.7302030">
        <ele>380.8</ele>
        <time>2021-07-24T13:00:03Z</time>
      </trkpt>
      <trkpt lat="43.2169740" lon="-7.7303110">
        <ele>380.8</ele>
        <time>2021-07-24T13:00:06Z</time>
      </trkpt>
      <trkpt lat="43.2168620" lon="-7.7304170">
        <ele>380.8</ele>
        <time>2021-07-24T13:00:09Z</time>
      </trkpt>
      <trkpt lat="43.2166120" lon="-7.7306390">
        <ele>380.8</ele>
        <time>2021-07-24T13:00:16Z</time>
      </trkpt>
      <trkpt lat="43.2164760" lon="-7.7307600">
        <ele>381.2</ele>
        <time>2021-07-24T13:00:20Z</time>
      </trkpt>
      <trkpt lat="43.2164450" lon="-7.7307850">
        <ele>381.6</ele>
        <time>2021-07-24T13:00:21Z</time>
      </trkpt>
      <trkpt lat="43.2164100" lon="-7.7308130">
        <ele>382.0</ele>
        <time>2021-07-24T13:00:22Z</time>
      </trkpt>
      <trkpt lat="43.2163770" lon="-7.7308390">
        <ele>382.4</ele>
        <time>2021-07-24T13:00:23Z</time>
      </trkpt>
      <trkpt lat="43.2163420" lon="-7.7308630">
        <ele>382.8</ele>
        <time>2021-07-24T13:00:24Z</time>
      </trkpt>
      <trkpt lat="43.2162280" lon="-7.7309240">
        <ele>382.8</ele>
        <time>2021-07-24T13:00:27Z</time>
      </trkpt>
      <trkpt lat="43.2161480" lon="-7.7309470">
        <ele>382.8</ele>
        <time>2021-07-24T13:00:29Z</time>
      </trkpt>
      <trkpt lat="43.2158350" lon="-7.7309610">
        <ele>382.8</ele>
        <time>2021-07-24T13:00:36Z</time>
      </trkpt>
      <trkpt lat="43.2156120" lon="-7.7309190">
        <ele>382.8</ele>
        <time>2021-07-24T13:00:42Z</time>
      </trkpt>
      <trkpt lat="43.2155200" lon="-7.7309180">
        <ele>382.8</ele>
        <time>2021-07-24T13:00:44Z</time>
      </trkpt>
      <trkpt lat="43.2153300" lon="-7.7309330">
        <ele>382.8</ele>
        <time>2021-07-24T13:00:48Z</time>
      </trkpt>
      <trkpt lat="43.2149810" lon="-7.7309530">
        <ele>382.8</ele>
        <time>2021-07-24T13:00:56Z</time>
      </trkpt>
      <trkpt lat="43.2146940" lon="-7.7309780">
        <ele>382.8</ele>
        <time>2021-07-24T13:01:03Z</time>
      </trkpt>
      <trkpt lat="43.2146030" lon="-7.7309810">
        <ele>382.4</ele>
        <time>2021-07-24T13:01:05Z</time>
      </trkpt>
      <trkpt lat="43.2145600" lon="-7.7309820">
        <ele>382.0</ele>
        <time>2021-07-24T13:01:06Z</time>
      </trkpt>
      <trkpt lat="43.2145190" lon="-7.7309870">
        <ele>381.6</ele>
        <time>2021-07-24T13:01:07Z</time>
      </trkpt>
      <trkpt lat="43.2144760" lon="-7.7309920">
        <ele>381.2</ele>
        <time>2021-07-24T13:01:08Z</time>
      </trkpt>
      <trkpt lat="43.2144350" lon="-7.7309990">
        <ele>380.8</ele>
        <time>2021-07-24T13:01:09Z</time>
      </trkpt>
      <trkpt lat="43.2143490" lon="-7.7310130">
        <ele>380.8</ele>
        <time>2021-07-24T13:01:11Z</time>
      </trkpt>
      <trkpt lat="43.2143050" lon="-7.7310210">
        <ele>380.8</ele>
        <time>2021-07-24T13:01:12Z</time>
      </trkpt>
      <trkpt lat="43.2142190" lon="-7.7310300">
        <ele>380.8</ele>
        <time>2021-07-24T13:01:14Z</time>
      </trkpt>
      <trkpt lat="43.2140470" lon="-7.7310370">
        <ele>380.8</ele>
        <time>2021-07-24T13:01:18Z</time>
      </trkpt>
      <trkpt lat="43.2138190" lon="-7.7310480">
        <ele>380.2</ele>
        <time>2021-07-24T13:01:23Z</time>
      </trkpt>
      <trkpt lat="43.2137680" lon="-7.7310450">
        <ele>379.8</ele>
        <time>2021-07-24T13:01:24Z</time>
      </trkpt>
      <trkpt lat="43.2137150" lon="-7.7310390">
        <ele>379.4</ele>
        <time>2021-07-24T13:01:25Z</time>
      </trkpt>
      <trkpt lat="43.2136580" lon="-7.7310380">
        <ele>379.0</ele>
        <time>2021-07-24T13:01:26Z</time>
      </trkpt>
      <trkpt lat="43.2136040" lon="-7.7310320">
        <ele>378.6</ele>
        <time>2021-07-24T13:01:27Z</time>
      </trkpt>
      <trkpt lat="43.2134000" lon="-7.7310020">
        <ele>378.6</ele>
        <time>2021-07-24T13:01:31Z</time>
      </trkpt>
      <trkpt lat="43.2132570" lon="-7.7310020">
        <ele>378.6</ele>
        <time>2021-07-24T13:01:35Z</time>
      </trkpt>
      <trkpt lat="43.2131020" lon="-7.7309990">
        <ele>378.2</ele>
        <time>2021-07-24T13:01:39Z</time>
      </trkpt>
      <trkpt lat="43.2130610" lon="-7.7310010">
        <ele>377.8</ele>
        <time>2021-07-24T13:01:40Z</time>
      </trkpt>
      <trkpt lat="43.2130200" lon="-7.7309990">
        <ele>377.4</ele>
        <time>2021-07-24T13:01:41Z</time>
      </trkpt>
      <trkpt lat="43.2129780" lon="-7.7310010">
        <ele>377.0</ele>
        <time>2021-07-24T13:01:42Z</time>
      </trkpt>
      <trkpt lat="43.2129340" lon="-7.7310010">
        <ele>376.6</ele>
        <time>2021-07-24T13:01:43Z</time>
      </trkpt>
      <trkpt lat="43.2125580" lon="-7.7310770">
        <ele>376.6</ele>
        <time>2021-07-24T13:01:51Z</time>
      </trkpt>
      <trkpt lat="43.2122620" lon="-7.7311400">
        <ele>376.6</ele>
        <time>2021-07-24T13:01:57Z</time>
      </trkpt>
      <trkpt lat="43.2119480" lon="-7.7311990">
        <ele>376.6</ele>
        <time>2021-07-24T13:02:04Z</time>
      </trkpt>
      <trkpt lat="43.2116380" lon="-7.7312360">
        <ele>376.6</ele>
        <time>2021-07-24T13:02:11Z</time>
      </trkpt>
      <trkpt lat="43.2115920" lon="-7.7312340">
        <ele>376.6</ele>
        <time>2021-07-24T13:02:12Z</time>
      </trkpt>
      <trkpt lat="43.2114230" lon="-7.7311620">
        <ele>376.6</ele>
        <time>2021-07-24T13:02:16Z</time>
      </trkpt>
      <trkpt lat="43.2113790" lon="-7.7311410">
        <ele>376.6</ele>
        <time>2021-07-24T13:02:17Z</time>
      </trkpt>
      <trkpt lat="43.2110180" lon="-7.7309330">
        <ele>376.6</ele>
        <time>2021-07-24T13:02:26Z</time>
      </trkpt>
      <trkpt lat="43.2109760" lon="-7.7309160">
        <ele>376.6</ele>
        <time>2021-07-24T13:02:27Z</time>
      </trkpt>
      <trkpt lat="43.2107640" lon="-7.7308240">
        <ele>376.6</ele>
        <time>2021-07-24T13:02:32Z</time>
      </trkpt>
      <trkpt lat="43.2105110" lon="-7.7306920">
        <ele>376.6</ele>
        <time>2021-07-24T13:02:39Z</time>
      </trkpt>
      <trkpt lat="43.2103770" lon="-7.7306910">
        <ele>376.6</ele>
        <time>2021-07-24T13:02:44Z</time>
      </trkpt>
      <trkpt lat="43.2103350" lon="-7.7306830">
        <ele>376.6</ele>
        <time>2021-07-24T13:02:48Z</time>
      </trkpt>
      <trkpt lat="43.2103420" lon="-7.7306600">
        <ele>376.6</ele>
        <time>2021-07-24T13:03:28Z</time>
      </trkpt>
      <trkpt lat="43.2104040" lon="-7.7306690">
        <ele>376.6</ele>
        <time>2021-07-24T13:03:32Z</time>
      </trkpt>
      <trkpt lat="43.2104050" lon="-7.7307850">
        <ele>376.6</ele>
        <time>2021-07-24T13:03:36Z</time>
      </trkpt>
      <trkpt lat="43.2103990" lon="-7.7308250">
        <ele>376.6</ele>
        <time>2021-07-24T13:03:37Z</time>
      </trkpt>
      <trkpt lat="43.2103370" lon="-7.7309660">
        <ele>376.6</ele>
        <time>2021-07-24T13:03:41Z</time>
      </trkpt>
      <trkpt lat="43.2102190" lon="-7.7311320">
        <ele>376.6</ele>
        <time>2021-07-24T13:03:47Z</time>
      </trkpt>
      <trkpt lat="43.2100320" lon="-7.7313070">
        <ele>376.6</ele>
        <time>2021-07-24T13:03:53Z</time>
      </trkpt>
      <trkpt lat="43.2097920" lon="-7.7314590">
        <ele>376.6</ele>
        <time>2021-07-24T13:04:00Z</time>
      </trkpt>
      <trkpt lat="43.2095370" lon="-7.7315970">
        <ele>376.6</ele>
        <time>2021-07-24T13:04:07Z</time>
      </trkpt>
      <trkpt lat="43.2093050" lon="-7.7316440">
        <ele>376.6</ele>
        <time>2021-07-24T13:04:13Z</time>
      </trkpt>
      <trkpt lat="43.2092540" lon="-7.7316410">
        <ele>376.6</ele>
        <time>2021-07-24T13:04:14Z</time>
      </trkpt>
      <trkpt lat="43.2091390" lon="-7.7315440">
        <ele>376.6</ele>
        <time>2021-07-24T13:04:17Z</time>
      </trkpt>
      <trkpt lat="43.2090880" lon="-7.7314580">
        <ele>376.6</ele>
        <time>2021-07-24T13:04:19Z</time>
      </trkpt>
      <trkpt lat="43.2089990" lon="-7.7312790">
        <ele>376.6</ele>
        <time>2021-07-24T13:04:23Z</time>
      </trkpt>
      <trkpt lat="43.2089780" lon="-7.7312300">
        <ele>376.0</ele>
        <time>2021-07-24T13:04:24Z</time>
      </trkpt>
      <trkpt lat="43.2089510" lon="-7.7311930">
        <ele>375.6</ele>
        <time>2021-07-24T13:04:25Z</time>
      </trkpt>
      <trkpt lat="43.2089230" lon="-7.7311620">
        <ele>375.2</ele>
        <time>2021-07-24T13:04:26Z</time>
      </trkpt>
      <trkpt lat="43.2088930" lon="-7.7311350">
        <ele>374.8</ele>
        <time>2021-07-24T13:04:27Z</time>
      </trkpt>
      <trkpt lat="43.2088600" lon="-7.7311230">
        <ele>374.4</ele>
        <time>2021-07-24T13:04:28Z</time>
      </trkpt>
      <trkpt lat="43.2087090" lon="-7.7311310">
        <ele>374.4</ele>
        <time>2021-07-24T13:04:32Z</time>
      </trkpt>
      <trkpt lat="43.2086590" lon="-7.7311610">
        <ele>374.4</ele>
        <time>2021-07-24T13:04:33Z</time>
      </trkpt>
      <trkpt lat="43.2085160" lon="-7.7312140">
        <ele>374.4</ele>
        <time>2021-07-24T13:04:36Z</time>
      </trkpt>
      <trkpt lat="43.2081970" lon="-7.7313150">
        <ele>374.4</ele>
        <time>2021-07-24T13:04:43Z</time>
      </trkpt>
      <trkpt lat="43.2080840" lon="-7.7313660">
        <ele>374.4</ele>
        <time>2021-07-24T13:04:47Z</time>
      </trkpt>
      <trkpt lat="43.2079870" lon="-7.7314550">
        <ele>374.0</ele>
        <time>2021-07-24T13:04:50Z</time>
      </trkpt>
      <trkpt lat="43.2079490" lon="-7.7314870">
        <ele>373.6</ele>
        <time>2021-07-24T13:04:51Z</time>
      </trkpt>
      <trkpt lat="43.2079090" lon="-7.7315250">
        <ele>373.2</ele>
        <time>2021-07-24T13:04:52Z</time>
      </trkpt>
      <trkpt lat="43.2078690" lon="-7.7315630">
        <ele>372.8</ele>
        <time>2021-07-24T13:04:53Z</time>
      </trkpt>
      <trkpt lat="43.2078280" lon="-7.7315970">
        <ele>372.4</ele>
        <time>2021-07-24T13:04:54Z</time>
      </trkpt>
      <trkpt lat="43.2076060" lon="-7.7317610">
        <ele>372.4</ele>
        <time>2021-07-24T13:04:59Z</time>
      </trkpt>
      <trkpt lat="43.2073090" lon="-7.7319710">
        <ele>372.4</ele>
        <time>2021-07-24T13:05:06Z</time>
      </trkpt>
      <trkpt lat="43.2069920" lon="-7.7321140">
        <ele>372.4</ele>
        <time>2021-07-24T13:05:13Z</time>
      </trkpt>
      <trkpt lat="43.2066570" lon="-7.7322840">
        <ele>372.4</ele>
        <time>2021-07-24T13:05:20Z</time>
      </trkpt>
      <trkpt lat="43.2063040" lon="-7.7325150">
        <ele>372.4</ele>
        <time>2021-07-24T13:05:27Z</time>
      </trkpt>
      <trkpt lat="43.2059670" lon="-7.7327010">
        <ele>372.4</ele>
        <time>2021-07-24T13:05:33Z</time>
      </trkpt>
      <trkpt lat="43.2059130" lon="-7.7327290">
        <ele>371.8</ele>
        <time>2021-07-24T13:05:34Z</time>
      </trkpt>
      <trkpt lat="43.2058650" lon="-7.7327470">
        <ele>371.4</ele>
        <time>2021-07-24T13:05:35Z</time>
      </trkpt>
      <trkpt lat="43.2058270" lon="-7.7327610">
        <ele>371.0</ele>
        <time>2021-07-24T13:05:36Z</time>
      </trkpt>
      <trkpt lat="43.2057880" lon="-7.7327740">
        <ele>370.6</ele>
        <time>2021-07-24T13:05:37Z</time>
      </trkpt>
      <trkpt lat="43.2057590" lon="-7.7327850">
        <ele>370.2</ele>
        <time>2021-07-24T13:05:38Z</time>
      </trkpt>
      <trkpt lat="43.2057640" lon="-7.7327820">
        <ele>370.2</ele>
        <time>2021-07-24T13:05:40Z</time>
      </trkpt>
      <trkpt lat="43.2057440" lon="-7.7327860">
        <ele>368.2</ele>
        <time>2021-07-24T13:06:13Z</time>
      </trkpt>
      <trkpt lat="43.2055900" lon="-7.7328140">
        <ele>368.2</ele>
        <time>2021-07-24T13:06:18Z</time>
      </trkpt>
      <trkpt lat="43.2052700" lon="-7.7328510">
        <ele>368.2</ele>
        <time>2021-07-24T13:06:24Z</time>
      </trkpt>
      <trkpt lat="43.2050380" lon="-7.7328730">
        <ele>368.2</ele>
        <time>2021-07-24T13:06:28Z</time>
      </trkpt>
      <trkpt lat="43.2048590" lon="-7.7328960">
        <ele>368.2</ele>
        <time>2021-07-24T13:06:31Z</time>
      </trkpt>
      <trkpt lat="43.2048030" lon="-7.7328990">
        <ele>367.8</ele>
        <time>2021-07-24T13:06:32Z</time>
      </trkpt>
      <trkpt lat="43.2047460" lon="-7.7329030">
        <ele>367.4</ele>
        <time>2021-07-24T13:06:33Z</time>
      </trkpt>
      <trkpt lat="43.2046910" lon="-7.7329100">
        <ele>367.0</ele>
        <time>2021-07-24T13:06:34Z</time>
      </trkpt>
      <trkpt lat="43.2046380" lon="-7.7329180">
        <ele>366.6</ele>
        <time>2021-07-24T13:06:35Z</time>
      </trkpt>
      <trkpt lat="43.2045890" lon="-7.7329280">
        <ele>366.2</ele>
        <time>2021-07-24T13:06:36Z</time>
      </trkpt>
      <trkpt lat="43.2044900" lon="-7.7329410">
        <ele>366.2</ele>
        <time>2021-07-24T13:06:38Z</time>
      </trkpt>
      <trkpt lat="43.2042560" lon="-7.7329790">
        <ele>366.2</ele>
        <time>2021-07-24T13:06:43Z</time>
      </trkpt>
      <trkpt lat="43.2042110" lon="-7.7329790">
        <ele>366.2</ele>
        <time>2021-07-24T13:06:44Z</time>
      </trkpt>
      <trkpt lat="43.2040760" lon="-7.7329710">
        <ele>366.2</ele>
        <time>2021-07-24T13:06:47Z</time>
      </trkpt>
      <trkpt lat="43.2039490" lon="-7.7329550">
        <ele>366.2</ele>
        <time>2021-07-24T13:06:50Z</time>
      </trkpt>
      <trkpt lat="43.2036450" lon="-7.7329400">
        <ele>366.2</ele>
        <time>2021-07-24T13:06:57Z</time>
      </trkpt>
      <trkpt lat="43.2035140" lon="-7.7329360">
        <ele>366.6</ele>
        <time>2021-07-24T13:07:00Z</time>
      </trkpt>
      <trkpt lat="43.2034720" lon="-7.7329330">
        <ele>367.0</ele>
        <time>2021-07-24T13:07:01Z</time>
      </trkpt>
      <trkpt lat="43.2034280" lon="-7.7329280">
        <ele>367.4</ele>
        <time>2021-07-24T13:07:02Z</time>
      </trkpt>
      <trkpt lat="43.2033830" lon="-7.7329290">
        <ele>367.8</ele>
        <time>2021-07-24T13:07:03Z</time>
      </trkpt>
      <trkpt lat="43.2033400" lon="-7.7329280">
        <ele>368.2</ele>
        <time>2021-07-24T13:07:04Z</time>
      </trkpt>
      <trkpt lat="43.2032950" lon="-7.7329310">
        <ele>368.2</ele>
        <time>2021-07-24T13:07:05Z</time>
      </trkpt>
      <trkpt lat="43.2029900" lon="-7.7330160">
        <ele>368.2</ele>
        <time>2021-07-24T13:07:12Z</time>
      </trkpt>
      <trkpt lat="43.2027000" lon="-7.7331790">
        <ele>368.2</ele>
        <time>2021-07-24T13:07:19Z</time>
      </trkpt>
      <trkpt lat="43.2024820" lon="-7.7333040">
        <ele>368.2</ele>
        <time>2021-07-24T13:07:25Z</time>
      </trkpt>
      <trkpt lat="43.2022160" lon="-7.7334660">
        <ele>368.2</ele>
        <time>2021-07-24T13:07:32Z</time>
      </trkpt>
      <trkpt lat="43.2019100" lon="-7.7336530">
        <ele>368.2</ele>
        <time>2021-07-24T13:07:39Z</time>
      </trkpt>
      <trkpt lat="43.2016300" lon="-7.7338420">
        <ele>368.2</ele>
        <time>2021-07-24T13:07:46Z</time>
      </trkpt>
      <trkpt lat="43.2015910" lon="-7.7338730">
        <ele>368.2</ele>
        <time>2021-07-24T13:07:47Z</time>
      </trkpt>
      <trkpt lat="43.2013890" lon="-7.7339870">
        <ele>368.2</ele>
        <time>2021-07-24T13:07:52Z</time>
      </trkpt>
      <trkpt lat="43.2011650" lon="-7.7340650">
        <ele>368.2</ele>
        <time>2021-07-24T13:07:58Z</time>
      </trkpt>
      <trkpt lat="43.2008930" lon="-7.7340590">
        <ele>368.2</ele>
        <time>2021-07-24T13:08:04Z</time>
      </trkpt>
      <trkpt lat="43.2005790" lon="-7.7339600">
        <ele>368.2</ele>
        <time>2021-07-24T13:08:11Z</time>
      </trkpt>
      <trkpt lat="43.2003790" lon="-7.7338700">
        <ele>368.2</ele>
        <time>2021-07-24T13:08:16Z</time>
      </trkpt>
      <trkpt lat="43.2003030" lon="-7.7338060">
        <ele>368.2</ele>
        <time>2021-07-24T13:08:18Z</time>
      </trkpt>
      <trkpt lat="43.2000860" lon="-7.7335710">
        <ele>368.2</ele>
        <time>2021-07-24T13:08:24Z</time>
      </trkpt>
      <trkpt lat="43.2000100" lon="-7.7335170">
        <ele>368.2</ele>
        <time>2021-07-24T13:08:26Z</time>
      </trkpt>
      <trkpt lat="43.1998370" lon="-7.7334360">
        <ele>368.2</ele>
        <time>2021-07-24T13:08:30Z</time>
      </trkpt>
      <trkpt lat="43.1995380" lon="-7.7333690">
        <ele>368.2</ele>
        <time>2021-07-24T13:08:36Z</time>
      </trkpt>
      <trkpt lat="43.1994870" lon="-7.7333630">
        <ele>368.2</ele>
        <time>2021-07-24T13:08:37Z</time>
      </trkpt>
      <trkpt lat="43.1993300" lon="-7.7333590">
        <ele>368.2</ele>
        <time>2021-07-24T13:08:40Z</time>
      </trkpt>
      <trkpt lat="43.1991640" lon="-7.7333600">
        <ele>368.2</ele>
        <time>2021-07-24T13:08:43Z</time>
      </trkpt>
      <trkpt lat="43.1987840" lon="-7.7333130">
        <ele>368.2</ele>
        <time>2021-07-24T13:08:50Z</time>
      </trkpt>
      <trkpt lat="43.1984130" lon="-7.7332360">
        <ele>368.2</ele>
        <time>2021-07-24T13:08:57Z</time>
      </trkpt>
      <trkpt lat="43.1982100" lon="-7.7331900">
        <ele>367.8</ele>
        <time>2021-07-24T13:09:01Z</time>
      </trkpt>
      <trkpt lat="43.1981620" lon="-7.7331800">
        <ele>367.4</ele>
        <time>2021-07-24T13:09:02Z</time>
      </trkpt>
      <trkpt lat="43.1981150" lon="-7.7331720">
        <ele>367.0</ele>
        <time>2021-07-24T13:09:03Z</time>
      </trkpt>
      <trkpt lat="43.1980650" lon="-7.7331590">
        <ele>366.6</ele>
        <time>2021-07-24T13:09:04Z</time>
      </trkpt>
      <trkpt lat="43.1980120" lon="-7.7331430">
        <ele>366.2</ele>
        <time>2021-07-24T13:09:05Z</time>
      </trkpt>
      <trkpt lat="43.1976440" lon="-7.7330370">
        <ele>366.2</ele>
        <time>2021-07-24T13:09:12Z</time>
      </trkpt>
      <trkpt lat="43.1974920" lon="-7.7330170">
        <ele>366.2</ele>
        <time>2021-07-24T13:09:15Z</time>
      </trkpt>
      <trkpt lat="43.1973430" lon="-7.7329870">
        <ele>366.2</ele>
        <time>2021-07-24T13:09:18Z</time>
      </trkpt>
      <trkpt lat="43.1972930" lon="-7.7329760">
        <ele>366.2</ele>
        <time>2021-07-24T13:09:19Z</time>
      </trkpt>
      <trkpt lat="43.1968270" lon="-7.7329180">
        <ele>366.2</ele>
        <time>2021-07-24T13:09:28Z</time>
      </trkpt>
      <trkpt lat="43.1964730" lon="-7.7329690">
        <ele>366.2</ele>
        <time>2021-07-24T13:09:35Z</time>
      </trkpt>
      <trkpt lat="43.1960380" lon="-7.7330610">
        <ele>366.2</ele>
        <time>2021-07-24T13:09:44Z</time>
      </trkpt>
      <trkpt lat="43.1957290" lon="-7.7331100">
        <ele>366.2</ele>
        <time>2021-07-24T13:09:50Z</time>
      </trkpt>
      <trkpt lat="43.1956350" lon="-7.7331150">
        <ele>365.8</ele>
        <time>2021-07-24T13:09:52Z</time>
      </trkpt>
      <trkpt lat="43.1955900" lon="-7.7331200">
        <ele>365.4</ele>
        <time>2021-07-24T13:09:53Z</time>
      </trkpt>
      <trkpt lat="43.1955470" lon="-7.7331280">
        <ele>364.8</ele>
        <time>2021-07-24T13:09:54Z</time>
      </trkpt>
      <trkpt lat="43.1955060" lon="-7.7331370">
        <ele>364.4</ele>
        <time>2021-07-24T13:09:55Z</time>
      </trkpt>
      <trkpt lat="43.1954660" lon="-7.7331460">
        <ele>364.0</ele>
        <time>2021-07-24T13:09:56Z</time>
      </trkpt>
      <trkpt lat="43.1954220" lon="-7.7331570">
        <ele>364.0</ele>
        <time>2021-07-24T13:09:57Z</time>
      </trkpt>
      <trkpt lat="43.1951250" lon="-7.7332130">
        <ele>364.0</ele>
        <time>2021-07-24T13:10:03Z</time>
      </trkpt>
      <trkpt lat="43.1947660" lon="-7.7333170">
        <ele>364.0</ele>
        <time>2021-07-24T13:10:10Z</time>
      </trkpt>
      <trkpt lat="43.1945050" lon="-7.7335020">
        <ele>364.0</ele>
        <time>2021-07-24T13:10:16Z</time>
      </trkpt>
      <trkpt lat="43.1942970" lon="-7.7337050">
        <ele>364.0</ele>
        <time>2021-07-24T13:10:22Z</time>
      </trkpt>
      <trkpt lat="43.1942400" lon="-7.7337980">
        <ele>364.0</ele>
        <time>2021-07-24T13:10:24Z</time>
      </trkpt>
      <trkpt lat="43.1941900" lon="-7.7339570">
        <ele>364.0</ele>
        <time>2021-07-24T13:10:27Z</time>
      </trkpt>
      <trkpt lat="43.1941100" lon="-7.7341850">
        <ele>364.0</ele>
        <time>2021-07-24T13:10:31Z</time>
      </trkpt>
      <trkpt lat="43.1940230" lon="-7.7343240">
        <ele>364.0</ele>
        <time>2021-07-24T13:10:34Z</time>
      </trkpt>
      <trkpt lat="43.1938660" lon="-7.7345500">
        <ele>364.0</ele>
        <time>2021-07-24T13:10:39Z</time>
      </trkpt>
      <trkpt lat="43.1936400" lon="-7.7349120">
        <ele>364.0</ele>
        <time>2021-07-24T13:10:45Z</time>
      </trkpt>
      <trkpt lat="43.1935180" lon="-7.7350920">
        <ele>363.2</ele>
        <time>2021-07-24T13:10:48Z</time>
      </trkpt>
      <trkpt lat="43.1934840" lon="-7.7351480">
        <ele>362.6</ele>
        <time>2021-07-24T13:10:49Z</time>
      </trkpt>
      <trkpt lat="43.1934510" lon="-7.7351960">
        <ele>362.2</ele>
        <time>2021-07-24T13:10:50Z</time>
      </trkpt>
      <trkpt lat="43.1934200" lon="-7.7352440">
        <ele>361.8</ele>
        <time>2021-07-24T13:10:51Z</time>
      </trkpt>
      <trkpt lat="43.1933860" lon="-7.7352820">
        <ele>361.2</ele>
        <time>2021-07-24T13:10:52Z</time>
      </trkpt>
      <trkpt lat="43.1933530" lon="-7.7353150">
        <ele>360.8</ele>
        <time>2021-07-24T13:10:53Z</time>
      </trkpt>
      <trkpt lat="43.1933230" lon="-7.7353460">
        <ele>360.2</ele>
        <time>2021-07-24T13:10:54Z</time>
      </trkpt>
      <trkpt lat="43.1932920" lon="-7.7353680">
        <ele>359.6</ele>
        <time>2021-07-24T13:10:55Z</time>
      </trkpt>
      <trkpt lat="43.1932650" lon="-7.7353940">
        <ele>359.2</ele>
        <time>2021-07-24T13:10:56Z</time>
      </trkpt>
      <trkpt lat="43.1932410" lon="-7.7354130">
        <ele>358.8</ele>
        <time>2021-07-24T13:10:57Z</time>
      </trkpt>
      <trkpt lat="43.1932250" lon="-7.7354360">
        <ele>358.4</ele>
        <time>2021-07-24T13:10:58Z</time>
      </trkpt>
      <trkpt lat="43.1932140" lon="-7.7354550">
        <ele>357.8</ele>
        <time>2021-07-24T13:10:59Z</time>
      </trkpt>
      <trkpt lat="43.1932130" lon="-7.7354740">
        <ele>357.4</ele>
        <time>2021-07-24T13:11:00Z</time>
      </trkpt>
      <trkpt lat="43.1932090" lon="-7.7354860">
        <ele>357.4</ele>
        <time>2021-07-24T13:11:01Z</time>
      </trkpt>
      <trkpt lat="43.1932070" lon="-7.7354900">
        <ele>357.4</ele>
        <time>2021-07-24T13:11:03Z</time>
      </trkpt>
      <trkpt lat="43.1931790" lon="-7.7354970">
        <ele>355.4</ele>
        <time>2021-07-24T13:13:14Z</time>
      </trkpt>
      <trkpt lat="43.1931590" lon="-7.7355100">
        <ele>355.4</ele>
        <time>2021-07-24T13:13:15Z</time>
      </trkpt>
      <trkpt lat="43.1930160" lon="-7.7356190">
        <ele>355.4</ele>
        <time>2021-07-24T13:13:20Z</time>
      </trkpt>
      <trkpt lat="43.1927690" lon="-7.7358090">
        <ele>355.4</ele>
        <time>2021-07-24T13:13:27Z</time>
      </trkpt>
      <trkpt lat="43.1927320" lon="-7.7358470">
        <ele>355.4</ele>
        <time>2021-07-24T13:13:28Z</time>
      </trkpt>
      <trkpt lat="43.1925720" lon="-7.7360150">
        <ele>355.4</ele>
        <time>2021-07-24T13:13:32Z</time>
      </trkpt>
      <trkpt lat="43.1923830" lon="-7.7362130">
        <ele>355.4</ele>
        <time>2021-07-24T13:13:38Z</time>
      </trkpt>
      <trkpt lat="43.1922130" lon="-7.7364440">
        <ele>355.8</ele>
        <time>2021-07-24T13:13:45Z</time>
      </trkpt>
      <trkpt lat="43.1921890" lon="-7.7364730">
        <ele>356.2</ele>
        <time>2021-07-24T13:13:46Z</time>
      </trkpt>
      <trkpt lat="43.1921630" lon="-7.7365070">
        <ele>356.8</ele>
        <time>2021-07-24T13:13:47Z</time>
      </trkpt>
      <trkpt lat="43.1921400" lon="-7.7365450">
        <ele>357.2</ele>
        <time>2021-07-24T13:13:48Z</time>
      </trkpt>
      <trkpt lat="43.1921190" lon="-7.7365740">
        <ele>357.6</ele>
        <time>2021-07-24T13:13:49Z</time>
      </trkpt>
      <trkpt lat="43.1920290" lon="-7.7367030">
        <ele>357.6</ele>
        <time>2021-07-24T13:13:53Z</time>
      </trkpt>
      <trkpt lat="43.1919910" lon="-7.7367590">
        <ele>358.0</ele>
        <time>2021-07-24T13:13:55Z</time>
      </trkpt>
      <trkpt lat="43.1919690" lon="-7.7367910">
        <ele>358.4</ele>
        <time>2021-07-24T13:13:56Z</time>
      </trkpt>
      <trkpt lat="43.1919460" lon="-7.7368150">
        <ele>358.8</ele>
        <time>2021-07-24T13:13:57Z</time>
      </trkpt>
      <trkpt lat="43.1919240" lon="-7.7368440">
        <ele>359.2</ele>
        <time>2021-07-24T13:13:58Z</time>
      </trkpt>
      <trkpt lat="43.1918970" lon="-7.7368790">
        <ele>359.6</ele>
        <time>2021-07-24T13:13:59Z</time>
      </trkpt>
      <trkpt lat="43.1916990" lon="-7.7371200">
        <ele>360.0</ele>
        <time>2021-07-24T13:14:07Z</time>
      </trkpt>
      <trkpt lat="43.1916720" lon="-7.7371440">
        <ele>360.4</ele>
        <time>2021-07-24T13:14:08Z</time>
      </trkpt>
      <trkpt lat="43.1916430" lon="-7.7371650">
        <ele>360.8</ele>
        <time>2021-07-24T13:14:09Z</time>
      </trkpt>
      <trkpt lat="43.1916220" lon="-7.7371830">
        <ele>361.2</ele>
        <time>2021-07-24T13:14:10Z</time>
      </trkpt>
      <trkpt lat="43.1915930" lon="-7.7372030">
        <ele>361.6</ele>
        <time>2021-07-24T13:14:11Z</time>
      </trkpt>
      <trkpt lat="43.1914040" lon="-7.7373170">
        <ele>361.6</ele>
        <time>2021-07-24T13:14:17Z</time>
      </trkpt>
      <trkpt lat="43.1912140" lon="-7.7373210">
        <ele>362.0</ele>
        <time>2021-07-24T13:14:24Z</time>
      </trkpt>
      <trkpt lat="43.1911830" lon="-7.7373210">
        <ele>362.4</ele>
        <time>2021-07-24T13:14:25Z</time>
      </trkpt>
      <trkpt lat="43.1911560" lon="-7.7373210">
        <ele>363.0</ele>
        <time>2021-07-24T13:14:26Z</time>
      </trkpt>
      <trkpt lat="43.1911250" lon="-7.7373180">
        <ele>363.4</ele>
        <time>2021-07-24T13:14:27Z</time>
      </trkpt>
      <trkpt lat="43.1911000" lon="-7.7373180">
        <ele>363.8</ele>
        <time>2021-07-24T13:14:28Z</time>
      </trkpt>
      <trkpt lat="43.1909840" lon="-7.7373340">
        <ele>363.8</ele>
        <time>2021-07-24T13:14:32Z</time>
      </trkpt>
      <trkpt lat="43.1907450" lon="-7.7373490">
        <ele>363.8</ele>
        <time>2021-07-24T13:14:40Z</time>
      </trkpt>
      <trkpt lat="43.1906560" lon="-7.7373730">
        <ele>364.2</ele>
        <time>2021-07-24T13:14:43Z</time>
      </trkpt>
      <trkpt lat="43.1906250" lon="-7.7373800">
        <ele>364.6</ele>
        <time>2021-07-24T13:14:44Z</time>
      </trkpt>
      <trkpt lat="43.1905950" lon="-7.7373880">
        <ele>365.0</ele>
        <time>2021-07-24T13:14:45Z</time>
      </trkpt>
      <trkpt lat="43.1905670" lon="-7.7373950">
        <ele>365.4</ele>
        <time>2021-07-24T13:14:46Z</time>
      </trkpt>
      <trkpt lat="43.1905380" lon="-7.7374020">
        <ele>365.8</ele>
        <time>2021-07-24T13:14:47Z</time>
      </trkpt>
      <trkpt lat="43.1904500" lon="-7.7374350">
        <ele>365.8</ele>
        <time>2021-07-24T13:14:50Z</time>
      </trkpt>
      <trkpt lat="43.1901460" lon="-7.7375670">
        <ele>365.8</ele>
        <time>2021-07-24T13:14:59Z</time>
      </trkpt>
      <trkpt lat="43.1899210" lon="-7.7376580">
        <ele>365.8</ele>
        <time>2021-07-24T13:15:05Z</time>
      </trkpt>
      <trkpt lat="43.1896170" lon="-7.7377990">
        <ele>365.8</ele>
        <time>2021-07-24T13:15:13Z</time>
      </trkpt>
      <trkpt lat="43.1893260" lon="-7.7379300">
        <ele>365.8</ele>
        <time>2021-07-24T13:15:21Z</time>
      </trkpt>
      <trkpt lat="43.1890470" lon="-7.7380940">
        <ele>365.8</ele>
        <time>2021-07-24T13:15:29Z</time>
      </trkpt>
      <trkpt lat="43.1888060" lon="-7.7382230">
        <ele>365.8</ele>
        <time>2021-07-24T13:15:36Z</time>
      </trkpt>
      <trkpt lat="43.1885930" lon="-7.7382770">
        <ele>365.8</ele>
        <time>2021-07-24T13:15:42Z</time>
      </trkpt>
      <trkpt lat="43.1883920" lon="-7.7383040">
        <ele>365.8</ele>
        <time>2021-07-24T13:15:48Z</time>
      </trkpt>
      <trkpt lat="43.1881750" lon="-7.7383160">
        <ele>365.8</ele>
        <time>2021-07-24T13:15:54Z</time>
      </trkpt>
      <trkpt lat="43.1879230" lon="-7.7383450">
        <ele>365.8</ele>
        <time>2021-07-24T13:16:01Z</time>
      </trkpt>
      <trkpt lat="43.1877620" lon="-7.7383540">
        <ele>365.8</ele>
        <time>2021-07-24T13:16:05Z</time>
      </trkpt>
      <trkpt lat="43.1875470" lon="-7.7384030">
        <ele>365.8</ele>
        <time>2021-07-24T13:16:10Z</time>
      </trkpt>
      <trkpt lat="43.1874730" lon="-7.7384260">
        <ele>365.8</ele>
        <time>2021-07-24T13:16:12Z</time>
      </trkpt>
      <trkpt lat="43.1874000" lon="-7.7384470">
        <ele>366.2</ele>
        <time>2021-07-24T13:16:14Z</time>
      </trkpt>
      <trkpt lat="43.1873630" lon="-7.7384570">
        <ele>366.6</ele>
        <time>2021-07-24T13:16:15Z</time>
      </trkpt>
      <trkpt lat="43.1873240" lon="-7.7384630">
        <ele>367.2</ele>
        <time>2021-07-24T13:16:16Z</time>
      </trkpt>
      <trkpt lat="43.1872790" lon="-7.7384620">
        <ele>367.6</ele>
        <time>2021-07-24T13:16:17Z</time>
      </trkpt>
      <trkpt lat="43.1872360" lon="-7.7384620">
        <ele>368.0</ele>
        <time>2021-07-24T13:16:18Z</time>
      </trkpt>
      <trkpt lat="43.1871880" lon="-7.7384580">
        <ele>368.0</ele>
        <time>2021-07-24T13:16:19Z</time>
      </trkpt>
      <trkpt lat="43.1868270" lon="-7.7384800">
        <ele>368.0</ele>
        <time>2021-07-24T13:16:27Z</time>
      </trkpt>
      <trkpt lat="43.1864820" lon="-7.7385240">
        <ele>368.0</ele>
        <time>2021-07-24T13:16:35Z</time>
      </trkpt>
      <trkpt lat="43.1861330" lon="-7.7385760">
        <ele>368.0</ele>
        <time>2021-07-24T13:16:44Z</time>
      </trkpt>
      <trkpt lat="43.1859030" lon="-7.7385860">
        <ele>368.0</ele>
        <time>2021-07-24T13:16:50Z</time>
      </trkpt>
      <trkpt lat="43.1856760" lon="-7.7385800">
        <ele>368.0</ele>
        <time>2021-07-24T13:16:56Z</time>
      </trkpt>
      <trkpt lat="43.1853340" lon="-7.7385500">
        <ele>368.0</ele>
        <time>2021-07-24T13:17:05Z</time>
      </trkpt>
      <trkpt lat="43.1851170" lon="-7.7384620">
        <ele>368.0</ele>
        <time>2021-07-24T13:17:11Z</time>
      </trkpt>
      <trkpt lat="43.1848810" lon="-7.7383760">
        <ele>368.0</ele>
        <time>2021-07-24T13:17:17Z</time>
      </trkpt>
      <trkpt lat="43.1847200" lon="-7.7384200">
        <ele>368.0</ele>
        <time>2021-07-24T13:17:22Z</time>
      </trkpt>
      <trkpt lat="43.1845370" lon="-7.7385310">
        <ele>368.0</ele>
        <time>2021-07-24T13:17:29Z</time>
      </trkpt>
      <trkpt lat="43.1844350" lon="-7.7386020">
        <ele>368.4</ele>
        <time>2021-07-24T13:17:32Z</time>
      </trkpt>
      <trkpt lat="43.1843970" lon="-7.7386250">
        <ele>368.8</ele>
        <time>2021-07-24T13:17:33Z</time>
      </trkpt>
      <trkpt lat="43.1843600" lon="-7.7386460">
        <ele>369.2</ele>
        <time>2021-07-24T13:17:34Z</time>
      </trkpt>
      <trkpt lat="43.1843210" lon="-7.7386650">
        <ele>369.8</ele>
        <time>2021-07-24T13:17:35Z</time>
      </trkpt>
      <trkpt lat="43.1842800" lon="-7.7386830">
        <ele>370.2</ele>
        <time>2021-07-24T13:17:36Z</time>
      </trkpt>
      <trkpt lat="43.1840970" lon="-7.7387550">
        <ele>370.2</ele>
        <time>2021-07-24T13:17:41Z</time>
      </trkpt>
      <trkpt lat="43.1838400" lon="-7.7388250">
        <ele>370.2</ele>
        <time>2021-07-24T13:17:48Z</time>
      </trkpt>
      <trkpt lat="43.1836150" lon="-7.7388870">
        <ele>370.2</ele>
        <time>2021-07-24T13:17:54Z</time>
      </trkpt>
      <trkpt lat="43.1832940" lon="-7.7389850">
        <ele>370.2</ele>
        <time>2021-07-24T13:18:02Z</time>
      </trkpt>
      <trkpt lat="43.1830070" lon="-7.7390750">
        <ele>370.2</ele>
        <time>2021-07-24T13:18:09Z</time>
      </trkpt>
      <trkpt lat="43.1826940" lon="-7.7391530">
        <ele>370.2</ele>
        <time>2021-07-24T13:18:17Z</time>
      </trkpt>
      <trkpt lat="43.1825660" lon="-7.7391810">
        <ele>370.6</ele>
        <time>2021-07-24T13:18:20Z</time>
      </trkpt>
      <trkpt lat="43.1825240" lon="-7.7391860">
        <ele>371.0</ele>
        <time>2021-07-24T13:18:21Z</time>
      </trkpt>
      <trkpt lat="43.1824850" lon="-7.7391960">
        <ele>371.4</ele>
        <time>2021-07-24T13:18:22Z</time>
      </trkpt>
      <trkpt lat="43.1824480" lon="-7.7392090">
        <ele>371.8</ele>
        <time>2021-07-24T13:18:23Z</time>
      </trkpt>
      <trkpt lat="43.1824040" lon="-7.7392210">
        <ele>372.4</ele>
        <time>2021-07-24T13:18:24Z</time>
      </trkpt>
      <trkpt lat="43.1820370" lon="-7.7393300">
        <ele>372.4</ele>
        <time>2021-07-24T13:18:33Z</time>
      </trkpt>
      <trkpt lat="43.1817240" lon="-7.7394470">
        <ele>372.4</ele>
        <time>2021-07-24T13:18:41Z</time>
      </trkpt>
      <trkpt lat="43.1814180" lon="-7.7395720">
        <ele>372.4</ele>
        <time>2021-07-24T13:18:49Z</time>
      </trkpt>
      <trkpt lat="43.1811760" lon="-7.7396920">
        <ele>372.4</ele>
        <time>2021-07-24T13:18:56Z</time>
      </trkpt>
      <trkpt lat="43.1808930" lon="-7.7397820">
        <ele>371.4</ele>
        <time>2021-07-24T13:19:03Z</time>
      </trkpt>
      <trkpt lat="43.1808530" lon="-7.7397940">
        <ele>371.0</ele>
        <time>2021-07-24T13:19:04Z</time>
      </trkpt>
      <trkpt lat="43.1808100" lon="-7.7398040">
        <ele>370.6</ele>
        <time>2021-07-24T13:19:05Z</time>
      </trkpt>
      <trkpt lat="43.1807690" lon="-7.7398150">
        <ele>370.2</ele>
        <time>2021-07-24T13:19:06Z</time>
      </trkpt>
      <trkpt lat="43.1804950" lon="-7.7398410">
        <ele>370.2</ele>
        <time>2021-07-24T13:19:12Z</time>
      </trkpt>
      <trkpt lat="43.1801420" lon="-7.7398240">
        <ele>370.2</ele>
        <time>2021-07-24T13:19:20Z</time>
      </trkpt>
      <trkpt lat="43.1799060" lon="-7.7397550">
        <ele>369.8</ele>
        <time>2021-07-24T13:19:25Z</time>
      </trkpt>
      <trkpt lat="43.1798540" lon="-7.7397410">
        <ele>369.2</ele>
        <time>2021-07-24T13:19:26Z</time>
      </trkpt>
      <trkpt lat="43.1798020" lon="-7.7397300">
        <ele>368.8</ele>
        <time>2021-07-24T13:19:27Z</time>
      </trkpt>
      <trkpt lat="43.1797500" lon="-7.7397200">
        <ele>368.0</ele>
        <time>2021-07-24T13:19:28Z</time>
      </trkpt>
      <trkpt lat="43.1794190" lon="-7.7396670">
        <ele>368.0</ele>
        <time>2021-07-24T13:19:34Z</time>
      </trkpt>
      <trkpt lat="43.1792340" lon="-7.7396260">
        <ele>367.6</ele>
        <time>2021-07-24T13:19:37Z</time>
      </trkpt>
      <trkpt lat="43.1791720" lon="-7.7396140">
        <ele>367.2</ele>
        <time>2021-07-24T13:19:38Z</time>
      </trkpt>
      <trkpt lat="43.1791060" lon="-7.7396000">
        <ele>366.6</ele>
        <time>2021-07-24T13:19:39Z</time>
      </trkpt>
      <trkpt lat="43.1790390" lon="-7.7395830">
        <ele>366.2</ele>
        <time>2021-07-24T13:19:40Z</time>
      </trkpt>
      <trkpt lat="43.1789700" lon="-7.7395670">
        <ele>365.8</ele>
        <time>2021-07-24T13:19:41Z</time>
      </trkpt>
      <trkpt lat="43.1788220" lon="-7.7395350">
        <ele>365.8</ele>
        <time>2021-07-24T13:19:43Z</time>
      </trkpt>
      <trkpt lat="43.1786680" lon="-7.7395050">
        <ele>365.4</ele>
        <time>2021-07-24T13:19:45Z</time>
      </trkpt>
      <trkpt lat="43.1785900" lon="-7.7394920">
        <ele>365.0</ele>
        <time>2021-07-24T13:19:46Z</time>
      </trkpt>
      <trkpt lat="43.1785110" lon="-7.7394860">
        <ele>364.4</ele>
        <time>2021-07-24T13:19:47Z</time>
      </trkpt>
      <trkpt lat="43.1784310" lon="-7.7394840">
        <ele>364.0</ele>
        <time>2021-07-24T13:19:48Z</time>
      </trkpt>
      <trkpt lat="43.1783480" lon="-7.7394870">
        <ele>363.6</ele>
        <time>2021-07-24T13:19:49Z</time>
      </trkpt>
      <trkpt lat="43.1782010" lon="-7.7395070">
        <ele>363.6</ele>
        <time>2021-07-24T13:19:51Z</time>
      </trkpt>
      <trkpt lat="43.1781300" lon="-7.7395220">
        <ele>362.6</ele>
        <time>2021-07-24T13:19:52Z</time>
      </trkpt>
      <trkpt lat="43.1780620" lon="-7.7395380">
        <ele>362.2</ele>
        <time>2021-07-24T13:19:53Z</time>
      </trkpt>
      <trkpt lat="43.1779970" lon="-7.7395570">
        <ele>361.6</ele>
        <time>2021-07-24T13:19:54Z</time>
      </trkpt>
      <trkpt lat="43.1779310" lon="-7.7395810">
        <ele>361.2</ele>
        <time>2021-07-24T13:19:55Z</time>
      </trkpt>
      <trkpt lat="43.1778640" lon="-7.7396110">
        <ele>360.6</ele>
        <time>2021-07-24T13:19:56Z</time>
      </trkpt>
      <trkpt lat="43.1777970" lon="-7.7396390">
        <ele>360.2</ele>
        <time>2021-07-24T13:19:57Z</time>
      </trkpt>
      <trkpt lat="43.1777310" lon="-7.7396640">
        <ele>359.8</ele>
        <time>2021-07-24T13:19:58Z</time>
      </trkpt>
      <trkpt lat="43.1776660" lon="-7.7396900">
        <ele>359.2</ele>
        <time>2021-07-24T13:19:59Z</time>
      </trkpt>
      <trkpt lat="43.1775990" lon="-7.7397150">
        <ele>358.8</ele>
        <time>2021-07-24T13:20:00Z</time>
      </trkpt>
      <trkpt lat="43.1775320" lon="-7.7397580">
        <ele>358.4</ele>
        <time>2021-07-24T13:20:11Z</time>
      </trkpt>
      <trkpt lat="43.1774650" lon="-7.7398010">
        <ele>358.0</ele>
        <time>2021-07-24T13:20:12Z</time>
      </trkpt>
      <trkpt lat="43.1773980" lon="-7.7398450">
        <ele>357.4</ele>
        <time>2021-07-24T13:20:13Z</time>
      </trkpt>
      <trkpt lat="43.1773310" lon="-7.7398880">
        <ele>357.0</ele>
        <time>2021-07-24T13:20:14Z</time>
      </trkpt>
      <trkpt lat="43.1772640" lon="-7.7399310">
        <ele>356.6</ele>
        <time>2021-07-24T13:20:15Z</time>
      </trkpt>
      <trkpt lat="43.1771970" lon="-7.7399740">
        <ele>356.0</ele>
        <time>2021-07-24T13:20:16Z</time>
      </trkpt>
      <trkpt lat="43.1767940" lon="-7.7402320">
        <ele>355.0</ele>
        <time>2021-07-24T13:20:17Z</time>
      </trkpt>
      <trkpt lat="43.1768080" lon="-7.7402670">
        <ele>354.4</ele>
        <time>2021-07-24T13:20:18Z</time>
      </trkpt>
      <trkpt lat="43.1768450" lon="-7.7403620">
        <ele>354.4</ele>
        <time>2021-07-24T13:20:21Z</time>
      </trkpt>
      <trkpt lat="43.1768650" lon="-7.7404490">
        <ele>354.8</ele>
        <time>2021-07-24T13:20:24Z</time>
      </trkpt>
      <trkpt lat="43.1768710" lon="-7.7404800">
        <ele>355.4</ele>
        <time>2021-07-24T13:20:25Z</time>
      </trkpt>
      <trkpt lat="43.1768800" lon="-7.7405120">
        <ele>355.8</ele>
        <time>2021-07-24T13:20:26Z</time>
      </trkpt>
      <trkpt lat="43.1768880" lon="-7.7405420">
        <ele>356.2</ele>
        <time>2021-07-24T13:20:27Z</time>
      </trkpt>
      <trkpt lat="43.1768940" lon="-7.7405750">
        <ele>356.8</ele>
        <time>2021-07-24T13:20:28Z</time>
      </trkpt>
      <trkpt lat="43.1769220" lon="-7.7407620">
        <ele>356.8</ele>
        <time>2021-07-24T13:20:33Z</time>
      </trkpt>
      <trkpt lat="43.1769810" lon="-7.7410570">
        <ele>356.8</ele>
        <time>2021-07-24T13:20:40Z</time>
      </trkpt>
      <trkpt lat="43.1770660" lon="-7.7413280">
        <ele>356.8</ele>
        <time>2021-07-24T13:20:47Z</time>
      </trkpt>
      <trkpt lat="43.1771710" lon="-7.7415690">
        <ele>356.8</ele>
        <time>2021-07-24T13:20:54Z</time>
      </trkpt>
      <trkpt lat="43.1773110" lon="-7.7418120">
        <ele>356.8</ele>
        <time>2021-07-24T13:21:02Z</time>
      </trkpt>
      <trkpt lat="43.1773660" lon="-7.7418970">
        <ele>357.2</ele>
        <time>2021-07-24T13:21:05Z</time>
      </trkpt>
      <trkpt lat="43.1773850" lon="-7.7419240">
        <ele>358.0</ele>
        <time>2021-07-24T13:21:06Z</time>
      </trkpt>
      <trkpt lat="43.1774020" lon="-7.7419510">
        <ele>358.4</ele>
        <time>2021-07-24T13:21:07Z</time>
      </trkpt>
      <trkpt lat="43.1774190" lon="-7.7419780">
        <ele>358.8</ele>
        <time>2021-07-24T13:21:08Z</time>
      </trkpt>
      <trkpt lat="43.1774470" lon="-7.7420380">
        <ele>358.8</ele>
        <time>2021-07-24T13:21:10Z</time>
      </trkpt>
      <trkpt lat="43.1775370" lon="-7.7422020">
        <ele>358.8</ele>
        <time>2021-07-24T13:21:16Z</time>
      </trkpt>
      <trkpt lat="43.1776050" lon="-7.7423670">
        <ele>359.2</ele>
        <time>2021-07-24T13:21:22Z</time>
      </trkpt>
      <trkpt lat="43.1776130" lon="-7.7423960">
        <ele>359.8</ele>
        <time>2021-07-24T13:21:23Z</time>
      </trkpt>
      <trkpt lat="43.1776220" lon="-7.7424200">
        <ele>360.2</ele>
        <time>2021-07-24T13:21:24Z</time>
      </trkpt>
      <trkpt lat="43.1776330" lon="-7.7424420">
        <ele>360.6</ele>
        <time>2021-07-24T13:21:25Z</time>
      </trkpt>
      <trkpt lat="43.1776440" lon="-7.7424650">
        <ele>361.0</ele>
        <time>2021-07-24T13:21:26Z</time>
      </trkpt>
      <trkpt lat="43.1776810" lon="-7.7425670">
        <ele>361.0</ele>
        <time>2021-07-24T13:21:31Z</time>
      </trkpt>
      <trkpt lat="43.1777120" lon="-7.7426580">
        <ele>361.4</ele>
        <time>2021-07-24T13:21:36Z</time>
      </trkpt>
      <trkpt lat="43.1777220" lon="-7.7426740">
        <ele>361.8</ele>
        <time>2021-07-24T13:21:37Z</time>
      </trkpt>
      <trkpt lat="43.1777310" lon="-7.7426890">
        <ele>362.2</ele>
        <time>2021-07-24T13:21:38Z</time>
      </trkpt>
      <trkpt lat="43.1777410" lon="-7.7427050">
        <ele>362.6</ele>
        <time>2021-07-24T13:21:39Z</time>
      </trkpt>
      <trkpt lat="43.1777480" lon="-7.7427230">
        <ele>363.2</ele>
        <time>2021-07-24T13:21:40Z</time>
      </trkpt>
      <trkpt lat="43.1777810" lon="-7.7428110">
        <ele>363.2</ele>
        <time>2021-07-24T13:21:45Z</time>
      </trkpt>
      <trkpt lat="43.1778010" lon="-7.7428810">
        <ele>363.6</ele>
        <time>2021-07-24T13:21:49Z</time>
      </trkpt>
      <trkpt lat="43.1778080" lon="-7.7429010">
        <ele>364.0</ele>
        <time>2021-07-24T13:21:50Z</time>
      </trkpt>
      <trkpt lat="43.1778140" lon="-7.7429240">
        <ele>364.4</ele>
        <time>2021-07-24T13:21:51Z</time>
      </trkpt>
      <trkpt lat="43.1778200" lon="-7.7429410">
        <ele>364.8</ele>
        <time>2021-07-24T13:21:52Z</time>
      </trkpt>
      <trkpt lat="43.1778290" lon="-7.7429620">
        <ele>365.2</ele>
        <time>2021-07-24T13:21:53Z</time>
      </trkpt>
      <trkpt lat="43.1778650" lon="-7.7430370">
        <ele>365.6</ele>
        <time>2021-07-24T13:21:57Z</time>
      </trkpt>
      <trkpt lat="43.1778750" lon="-7.7430560">
        <ele>366.2</ele>
        <time>2021-07-24T13:21:58Z</time>
      </trkpt>
      <trkpt lat="43.1778830" lon="-7.7430750">
        <ele>366.6</ele>
        <time>2021-07-24T13:21:59Z</time>
      </trkpt>
      <trkpt lat="43.1778910" lon="-7.7430920">
        <ele>367.0</ele>
        <time>2021-07-24T13:22:00Z</time>
      </trkpt>
      <trkpt lat="43.1778980" lon="-7.7431090">
        <ele>367.4</ele>
        <time>2021-07-24T13:22:01Z</time>
      </trkpt>
      <trkpt lat="43.1779440" lon="-7.7431990">
        <ele>367.4</ele>
        <time>2021-07-24T13:22:06Z</time>
      </trkpt>
      <trkpt lat="43.1779570" lon="-7.7432380">
        <ele>367.8</ele>
        <time>2021-07-24T13:22:08Z</time>
      </trkpt>
      <trkpt lat="43.1779650" lon="-7.7432600">
        <ele>368.2</ele>
        <time>2021-07-24T13:22:09Z</time>
      </trkpt>
      <trkpt lat="43.1779730" lon="-7.7432820">
        <ele>368.6</ele>
        <time>2021-07-24T13:22:10Z</time>
      </trkpt>
      <trkpt lat="43.1779800" lon="-7.7433070">
        <ele>369.0</ele>
        <time>2021-07-24T13:22:11Z</time>
      </trkpt>
      <trkpt lat="43.1779880" lon="-7.7433310">
        <ele>369.4</ele>
        <time>2021-07-24T13:22:12Z</time>
      </trkpt>
      <trkpt lat="43.1780140" lon="-7.7433980">
        <ele>369.4</ele>
        <time>2021-07-24T13:22:15Z</time>
      </trkpt>
      <trkpt lat="43.1780260" lon="-7.7434430">
        <ele>369.8</ele>
        <time>2021-07-24T13:22:17Z</time>
      </trkpt>
      <trkpt lat="43.1780300" lon="-7.7434650">
        <ele>370.2</ele>
        <time>2021-07-24T13:22:18Z</time>
      </trkpt>
      <trkpt lat="43.1780330" lon="-7.7434860">
        <ele>370.6</ele>
        <time>2021-07-24T13:22:19Z</time>
      </trkpt>
      <trkpt lat="43.1780380" lon="-7.7435040">
        <ele>371.6</ele>
        <time>2021-07-24T13:22:20Z</time>
      </trkpt>
      <trkpt lat="43.1780580" lon="-7.7435950">
        <ele>371.6</ele>
        <time>2021-07-24T13:22:24Z</time>
      </trkpt>
      <trkpt lat="43.1780780" lon="-7.7436510">
        <ele>372.0</ele>
        <time>2021-07-24T13:22:27Z</time>
      </trkpt>
      <trkpt lat="43.1780810" lon="-7.7436750">
        <ele>372.4</ele>
        <time>2021-07-24T13:22:28Z</time>
      </trkpt>
      <trkpt lat="43.1780830" lon="-7.7436950">
        <ele>372.8</ele>
        <time>2021-07-24T13:22:29Z</time>
      </trkpt>
      <trkpt lat="43.1780840" lon="-7.7437140">
        <ele>373.2</ele>
        <time>2021-07-24T13:22:30Z</time>
      </trkpt>
      <trkpt lat="43.1780870" lon="-7.7437320">
        <ele>373.6</ele>
        <time>2021-07-24T13:22:31Z</time>
      </trkpt>
      <trkpt lat="43.1780930" lon="-7.7438520">
        <ele>373.6</ele>
        <time>2021-07-24T13:22:38Z</time>
      </trkpt>
      <trkpt lat="43.1780920" lon="-7.7438680">
        <ele>374.0</ele>
        <time>2021-07-24T13:22:39Z</time>
      </trkpt>
      <trkpt lat="43.1780890" lon="-7.7438840">
        <ele>374.6</ele>
        <time>2021-07-24T13:22:40Z</time>
      </trkpt>
      <trkpt lat="43.1780890" lon="-7.7438970">
        <ele>375.0</ele>
        <time>2021-07-24T13:22:41Z</time>
      </trkpt>
      <trkpt lat="43.1780890" lon="-7.7439150">
        <ele>375.4</ele>
        <time>2021-07-24T13:22:42Z</time>
      </trkpt>
      <trkpt lat="43.1780870" lon="-7.7439360">
        <ele>375.8</ele>
        <time>2021-07-24T13:22:43Z</time>
      </trkpt>
      <trkpt lat="43.1780840" lon="-7.7439590">
        <ele>375.8</ele>
        <time>2021-07-24T13:22:44Z</time>
      </trkpt>
      <trkpt lat="43.1780940" lon="-7.7440970">
        <ele>376.2</ele>
        <time>2021-07-24T13:22:51Z</time>
      </trkpt>
      <trkpt lat="43.1780930" lon="-7.7441180">
        <ele>376.6</ele>
        <time>2021-07-24T13:22:52Z</time>
      </trkpt>
      <trkpt lat="43.1780940" lon="-7.7441420">
        <ele>377.0</ele>
        <time>2021-07-24T13:22:53Z</time>
      </trkpt>
      <trkpt lat="43.1780940" lon="-7.7441640">
        <ele>377.4</ele>
        <time>2021-07-24T13:22:54Z</time>
      </trkpt>
      <trkpt lat="43.1780950" lon="-7.7441890">
        <ele>377.8</ele>
        <time>2021-07-24T13:22:55Z</time>
      </trkpt>
      <trkpt lat="43.1780980" lon="-7.7442570">
        <ele>377.8</ele>
        <time>2021-07-24T13:22:58Z</time>
      </trkpt>
      <trkpt lat="43.1781110" lon="-7.7443630">
        <ele>378.2</ele>
        <time>2021-07-24T13:23:03Z</time>
      </trkpt>
      <trkpt lat="43.1781120" lon="-7.7443830">
        <ele>378.6</ele>
        <time>2021-07-24T13:23:04Z</time>
      </trkpt>
      <trkpt lat="43.1781150" lon="-7.7444020">
        <ele>379.0</ele>
        <time>2021-07-24T13:23:05Z</time>
      </trkpt>
      <trkpt lat="43.1781230" lon="-7.7444200">
        <ele>379.4</ele>
        <time>2021-07-24T13:23:06Z</time>
      </trkpt>
      <trkpt lat="43.1781300" lon="-7.7444400">
        <ele>379.8</ele>
        <time>2021-07-24T13:23:07Z</time>
      </trkpt>
      <trkpt lat="43.1781630" lon="-7.7445900">
        <ele>380.2</ele>
        <time>2021-07-24T13:23:15Z</time>
      </trkpt>
      <trkpt lat="43.1781660" lon="-7.7446110">
        <ele>380.8</ele>
        <time>2021-07-24T13:23:16Z</time>
      </trkpt>
      <trkpt lat="43.1781720" lon="-7.7446310">
        <ele>381.2</ele>
        <time>2021-07-24T13:23:17Z</time>
      </trkpt>
      <trkpt lat="43.1781750" lon="-7.7446510">
        <ele>381.6</ele>
        <time>2021-07-24T13:23:18Z</time>
      </trkpt>
      <trkpt lat="43.1781800" lon="-7.7446690">
        <ele>382.0</ele>
        <time>2021-07-24T13:23:19Z</time>
      </trkpt>
      <trkpt lat="43.1781850" lon="-7.7447090">
        <ele>382.0</ele>
        <time>2021-07-24T13:23:21Z</time>
      </trkpt>
      <trkpt lat="43.1782090" lon="-7.7448350">
        <ele>382.4</ele>
        <time>2021-07-24T13:23:27Z</time>
      </trkpt>
      <trkpt lat="43.1782130" lon="-7.7448600">
        <ele>382.8</ele>
        <time>2021-07-24T13:23:28Z</time>
      </trkpt>
      <trkpt lat="43.1782180" lon="-7.7448860">
        <ele>383.2</ele>
        <time>2021-07-24T13:23:29Z</time>
      </trkpt>
      <trkpt lat="43.1782220" lon="-7.7449090">
        <ele>383.6</ele>
        <time>2021-07-24T13:23:30Z</time>
      </trkpt>
      <trkpt lat="43.1782250" lon="-7.7449320">
        <ele>384.0</ele>
        <time>2021-07-24T13:23:31Z</time>
      </trkpt>
      <trkpt lat="43.1782760" lon="-7.7450740">
        <ele>384.0</ele>
        <time>2021-07-24T13:23:38Z</time>
      </trkpt>
      <trkpt lat="43.1783050" lon="-7.7451610">
        <ele>384.4</ele>
        <time>2021-07-24T13:23:42Z</time>
      </trkpt>
      <trkpt lat="43.1783110" lon="-7.7451830">
        <ele>384.8</ele>
        <time>2021-07-24T13:23:43Z</time>
      </trkpt>
      <trkpt lat="43.1783170" lon="-7.7452070">
        <ele>385.2</ele>
        <time>2021-07-24T13:23:44Z</time>
      </trkpt>
      <trkpt lat="43.1783250" lon="-7.7452350">
        <ele>385.8</ele>
        <time>2021-07-24T13:23:45Z</time>
      </trkpt>
      <trkpt lat="43.1783350" lon="-7.7452600">
        <ele>386.2</ele>
        <time>2021-07-24T13:23:46Z</time>
      </trkpt>
      <trkpt lat="43.1784280" lon="-7.7454770">
        <ele>386.2</ele>
        <time>2021-07-24T13:23:54Z</time>
      </trkpt>
      <trkpt lat="43.1785240" lon="-7.7456740">
        <ele>386.2</ele>
        <time>2021-07-24T13:24:01Z</time>
      </trkpt>
      <trkpt lat="43.1786240" lon="-7.7459100">
        <ele>386.2</ele>
        <time>2021-07-24T13:24:09Z</time>
      </trkpt>
      <trkpt lat="43.1787310" lon="-7.7461330">
        <ele>386.2</ele>
        <time>2021-07-24T13:24:15Z</time>
      </trkpt>
      <trkpt lat="43.1788680" lon="-7.7464360">
        <ele>386.2</ele>
        <time>2021-07-24T13:24:21Z</time>
      </trkpt>
      <trkpt lat="43.1789770" lon="-7.7467110">
        <ele>385.6</ele>
        <time>2021-07-24T13:24:26Z</time>
      </trkpt>
      <trkpt lat="43.1789940" lon="-7.7467580">
        <ele>385.2</ele>
        <time>2021-07-24T13:24:27Z</time>
      </trkpt>
      <trkpt lat="43.1790130" lon="-7.7468130">
        <ele>384.8</ele>
        <time>2021-07-24T13:24:28Z</time>
      </trkpt>
      <trkpt lat="43.1790310" lon="-7.7468740">
        <ele>384.4</ele>
        <time>2021-07-24T13:24:29Z</time>
      </trkpt>
      <trkpt lat="43.1790500" lon="-7.7469400">
        <ele>384.0</ele>
        <time>2021-07-24T13:24:30Z</time>
      </trkpt>
      <trkpt lat="43.1790830" lon="-7.7470830">
        <ele>384.0</ele>
        <time>2021-07-24T13:24:32Z</time>
      </trkpt>
      <trkpt lat="43.1791350" lon="-7.7474240">
        <ele>383.6</ele>
        <time>2021-07-24T13:24:36Z</time>
      </trkpt>
      <trkpt lat="43.1791490" lon="-7.7475190">
        <ele>383.2</ele>
        <time>2021-07-24T13:24:37Z</time>
      </trkpt>
      <trkpt lat="43.1791630" lon="-7.7476190">
        <ele>382.8</ele>
        <time>2021-07-24T13:24:38Z</time>
      </trkpt>
      <trkpt lat="43.1791750" lon="-7.7477090">
        <ele>382.4</ele>
        <time>2021-07-24T13:24:39Z</time>
      </trkpt>
      <trkpt lat="43.1791880" lon="-7.7477940">
        <ele>381.8</ele>
        <time>2021-07-24T13:24:40Z</time>
      </trkpt>
      <trkpt lat="43.1791990" lon="-7.7478710">
        <ele>381.2</ele>
        <time>2021-07-24T13:24:41Z</time>
      </trkpt>
      <trkpt lat="43.1792130" lon="-7.7479450">
        <ele>380.4</ele>
        <time>2021-07-24T13:24:42Z</time>
      </trkpt>
      <trkpt lat="43.1792290" lon="-7.7480130">
        <ele>379.6</ele>
        <time>2021-07-24T13:24:43Z</time>
      </trkpt>
      <trkpt lat="43.1792440" lon="-7.7480810">
        <ele>379.0</ele>
        <time>2021-07-24T13:24:44Z</time>
      </trkpt>
      <trkpt lat="43.1792570" lon="-7.7481530">
        <ele>378.2</ele>
        <time>2021-07-24T13:24:45Z</time>
      </trkpt>
      <trkpt lat="43.1792690" lon="-7.7482360">
        <ele>377.6</ele>
        <time>2021-07-24T13:24:46Z</time>
      </trkpt>
      <trkpt lat="43.1792820" lon="-7.7483170">
        <ele>376.8</ele>
        <time>2021-07-24T13:24:47Z</time>
      </trkpt>
      <trkpt lat="43.1793000" lon="-7.7483940">
        <ele>376.2</ele>
        <time>2021-07-24T13:24:48Z</time>
      </trkpt>
      <trkpt lat="43.1793200" lon="-7.7484630">
        <ele>375.0</ele>
        <time>2021-07-24T13:24:49Z</time>
      </trkpt>
      <trkpt lat="43.1793380" lon="-7.7485350">
        <ele>374.4</ele>
        <time>2021-07-24T13:24:50Z</time>
      </trkpt>
      <trkpt lat="43.1793540" lon="-7.7486110">
        <ele>373.8</ele>
        <time>2021-07-24T13:24:51Z</time>
      </trkpt>
      <trkpt lat="43.1793690" lon="-7.7486880">
        <ele>373.2</ele>
        <time>2021-07-24T13:24:52Z</time>
      </trkpt>
      <trkpt lat="43.1793860" lon="-7.7487620">
        <ele>372.6</ele>
        <time>2021-07-24T13:24:53Z</time>
      </trkpt>
      <trkpt lat="43.1794090" lon="-7.7488370">
        <ele>372.0</ele>
        <time>2021-07-24T13:24:54Z</time>
      </trkpt>
      <trkpt lat="43.1794330" lon="-7.7489040">
        <ele>371.4</ele>
        <time>2021-07-24T13:24:55Z</time>
      </trkpt>
      <trkpt lat="43.1794550" lon="-7.7489640">
        <ele>370.8</ele>
        <time>2021-07-24T13:24:56Z</time>
      </trkpt>
      <trkpt lat="43.1794800" lon="-7.7490190">
        <ele>370.2</ele>
        <time>2021-07-24T13:24:57Z</time>
      </trkpt>
      <trkpt lat="43.1795040" lon="-7.7490720">
        <ele>369.4</ele>
        <time>2021-07-24T13:24:58Z</time>
      </trkpt>
      <trkpt lat="43.1795270" lon="-7.7491250">
        <ele>368.8</ele>
        <time>2021-07-24T13:24:59Z</time>
      </trkpt>
      <trkpt lat="43.1795500" lon="-7.7491790">
        <ele>368.2</ele>
        <time>2021-07-24T13:25:00Z</time>
      </trkpt>
      <trkpt lat="43.1795710" lon="-7.7492320">
        <ele>367.4</ele>
        <time>2021-07-24T13:25:01Z</time>
      </trkpt>
      <trkpt lat="43.1795900" lon="-7.7492880">
        <ele>366.8</ele>
        <time>2021-07-24T13:25:02Z</time>
      </trkpt>
      <trkpt lat="43.1796020" lon="-7.7493450">
        <ele>366.2</ele>
        <time>2021-07-24T13:25:03Z</time>
      </trkpt>
      <trkpt lat="43.1796120" lon="-7.7494040">
        <ele>365.4</ele>
        <time>2021-07-24T13:25:04Z</time>
      </trkpt>
      <trkpt lat="43.1796300" lon="-7.7495260">
        <ele>365.4</ele>
        <time>2021-07-24T13:25:06Z</time>
      </trkpt>
      <trkpt lat="43.1796750" lon="-7.7499370">
        <ele>365.4</ele>
        <time>2021-07-24T13:25:13Z</time>
      </trkpt>
      <trkpt lat="43.1797320" lon="-7.7503320">
        <ele>365.4</ele>
        <time>2021-07-24T13:25:20Z</time>
      </trkpt>
      <trkpt lat="43.1797840" lon="-7.7507080">
        <ele>365.4</ele>
        <time>2021-07-24T13:25:26Z</time>
      </trkpt>
      <trkpt lat="43.1798280" lon="-7.7511670">
        <ele>365.4</ele>
        <time>2021-07-24T13:25:34Z</time>
      </trkpt>
      <trkpt lat="43.1798250" lon="-7.7514750">
        <ele>365.4</ele>
        <time>2021-07-24T13:25:40Z</time>
      </trkpt>
      <trkpt lat="43.1797830" lon="-7.7517340">
        <ele>365.4</ele>
        <time>2021-07-24T13:25:45Z</time>
      </trkpt>
      <trkpt lat="43.1797470" lon="-7.7518460">
        <ele>365.4</ele>
        <time>2021-07-24T13:25:47Z</time>
      </trkpt>
      <trkpt lat="43.1797220" lon="-7.7519050">
        <ele>365.4</ele>
        <time>2021-07-24T13:25:48Z</time>
      </trkpt>
      <trkpt lat="43.1796900" lon="-7.7519630">
        <ele>365.0</ele>
        <time>2021-07-24T13:25:49Z</time>
      </trkpt>
      <trkpt lat="43.1796520" lon="-7.7520190">
        <ele>364.6</ele>
        <time>2021-07-24T13:25:50Z</time>
      </trkpt>
      <trkpt lat="43.1796100" lon="-7.7520750">
        <ele>364.2</ele>
        <time>2021-07-24T13:25:51Z</time>
      </trkpt>
      <trkpt lat="43.1795650" lon="-7.7521260">
        <ele>363.8</ele>
        <time>2021-07-24T13:25:52Z</time>
      </trkpt>
      <trkpt lat="43.1795140" lon="-7.7521750">
        <ele>363.4</ele>
        <time>2021-07-24T13:25:53Z</time>
      </trkpt>
      <trkpt lat="43.1793510" lon="-7.7523070">
        <ele>363.4</ele>
        <time>2021-07-24T13:25:56Z</time>
      </trkpt>
      <trkpt lat="43.1790860" lon="-7.7525140">
        <ele>363.4</ele>
        <time>2021-07-24T13:26:02Z</time>
      </trkpt>
      <trkpt lat="43.1788630" lon="-7.7527280">
        <ele>363.4</ele>
        <time>2021-07-24T13:26:08Z</time>
      </trkpt>
      <trkpt lat="43.1787840" lon="-7.7528460">
        <ele>363.0</ele>
        <time>2021-07-24T13:26:10Z</time>
      </trkpt>
      <trkpt lat="43.1787550" lon="-7.7529100">
        <ele>362.6</ele>
        <time>2021-07-24T13:26:11Z</time>
      </trkpt>
      <trkpt lat="43.1787280" lon="-7.7529740">
        <ele>362.2</ele>
        <time>2021-07-24T13:26:12Z</time>
      </trkpt>
      <trkpt lat="43.1787030" lon="-7.7530340">
        <ele>361.8</ele>
        <time>2021-07-24T13:26:13Z</time>
      </trkpt>
      <trkpt lat="43.1786810" lon="-7.7530910">
        <ele>361.2</ele>
        <time>2021-07-24T13:26:14Z</time>
      </trkpt>
      <trkpt lat="43.1785940" lon="-7.7533110">
        <ele>361.2</ele>
        <time>2021-07-24T13:26:18Z</time>
      </trkpt>
      <trkpt lat="43.1784700" lon="-7.7536300">
        <ele>361.2</ele>
        <time>2021-07-24T13:26:24Z</time>
      </trkpt>
      <trkpt lat="43.1783490" lon="-7.7539230">
        <ele>361.2</ele>
        <time>2021-07-24T13:26:31Z</time>
      </trkpt>
      <trkpt lat="43.1782560" lon="-7.7541240">
        <ele>361.2</ele>
        <time>2021-07-24T13:26:37Z</time>
      </trkpt>
      <trkpt lat="43.1781640" lon="-7.7542890">
        <ele>361.2</ele>
        <time>2021-07-24T13:26:44Z</time>
      </trkpt>
      <trkpt lat="43.1781060" lon="-7.7542970">
        <ele>361.2</ele>
        <time>2021-07-24T13:26:49Z</time>
      </trkpt>
      <trkpt lat="43.1781070" lon="-7.7543260">
        <ele>361.2</ele>
        <time>2021-07-24T13:26:56Z</time>
      </trkpt>
      <trkpt lat="43.1781260" lon="-7.7543830">
        <ele>361.2</ele>
        <time>2021-07-24T13:26:59Z</time>
      </trkpt>
      <trkpt lat="43.1781410" lon="-7.7544140">
        <ele>361.2</ele>
        <time>2021-07-24T13:27:01Z</time>
      </trkpt>
      <trkpt lat="43.1781460" lon="-7.7544360">
        <ele>361.8</ele>
        <time>2021-07-24T13:27:02Z</time>
      </trkpt>
      <trkpt lat="43.1781480" lon="-7.7544600">
        <ele>362.2</ele>
        <time>2021-07-24T13:27:03Z</time>
      </trkpt>
      <trkpt lat="43.1781490" lon="-7.7544850">
        <ele>362.6</ele>
        <time>2021-07-24T13:27:04Z</time>
      </trkpt>
      <trkpt lat="43.1781480" lon="-7.7545080">
        <ele>363.0</ele>
        <time>2021-07-24T13:27:05Z</time>
      </trkpt>
      <trkpt lat="43.1781500" lon="-7.7545350">
        <ele>363.4</ele>
        <time>2021-07-24T13:27:06Z</time>
      </trkpt>
      <trkpt lat="43.1781570" lon="-7.7547080">
        <ele>363.4</ele>
        <time>2021-07-24T13:27:12Z</time>
      </trkpt>
      <trkpt lat="43.1781570" lon="-7.7547980">
        <ele>363.8</ele>
        <time>2021-07-24T13:27:15Z</time>
      </trkpt>
      <trkpt lat="43.1781550" lon="-7.7548290">
        <ele>364.2</ele>
        <time>2021-07-24T13:27:16Z</time>
      </trkpt>
      <trkpt lat="43.1781550" lon="-7.7548610">
        <ele>365.0</ele>
        <time>2021-07-24T13:27:17Z</time>
      </trkpt>
      <trkpt lat="43.1781560" lon="-7.7548920">
        <ele>365.6</ele>
        <time>2021-07-24T13:27:18Z</time>
      </trkpt>
      <trkpt lat="43.1781640" lon="-7.7549540">
        <ele>365.6</ele>
        <time>2021-07-24T13:27:20Z</time>
      </trkpt>
      <trkpt lat="43.1781860" lon="-7.7551590">
        <ele>366.0</ele>
        <time>2021-07-24T13:27:27Z</time>
      </trkpt>
      <trkpt lat="43.1781900" lon="-7.7551860">
        <ele>366.4</ele>
        <time>2021-07-24T13:27:28Z</time>
      </trkpt>
      <trkpt lat="43.1781930" lon="-7.7552170">
        <ele>366.8</ele>
        <time>2021-07-24T13:27:29Z</time>
      </trkpt>
      <trkpt lat="43.1781950" lon="-7.7552430">
        <ele>367.2</ele>
        <time>2021-07-24T13:27:30Z</time>
      </trkpt>
      <trkpt lat="43.1781950" lon="-7.7552700">
        <ele>367.6</ele>
        <time>2021-07-24T13:27:31Z</time>
      </trkpt>
      <trkpt lat="43.1781780" lon="-7.7553710">
        <ele>367.6</ele>
        <time>2021-07-24T13:27:35Z</time>
      </trkpt>
      <trkpt lat="43.1780780" lon="-7.7555280">
        <ele>367.6</ele>
        <time>2021-07-24T13:27:41Z</time>
      </trkpt>
      <trkpt lat="43.1779030" lon="-7.7556180">
        <ele>367.6</ele>
        <time>2021-07-24T13:27:47Z</time>
      </trkpt>
      <trkpt lat="43.1776560" lon="-7.7557300">
        <ele>367.6</ele>
        <time>2021-07-24T13:27:55Z</time>
      </trkpt>
      <trkpt lat="43.1774370" lon="-7.7558390">
        <ele>367.6</ele>
        <time>2021-07-24T13:28:03Z</time>
      </trkpt>
      <trkpt lat="43.1771980" lon="-7.7559760">
        <ele>367.6</ele>
        <time>2021-07-24T13:28:12Z</time>
      </trkpt>
      <trkpt lat="43.1768680" lon="-7.7561310">
        <ele>367.6</ele>
        <time>2021-07-24T13:28:23Z</time>
      </trkpt>
      <trkpt lat="43.1767380" lon="-7.7561930">
        <ele>367.6</ele>
        <time>2021-07-24T13:28:29Z</time>
      </trkpt>
      <trkpt lat="43.1767070" lon="-7.7562030">
        <ele>367.6</ele>
        <time>2021-07-24T13:29:25Z</time>
      </trkpt>
      <trkpt lat="43.1766630" lon="-7.7562170">
        <ele>367.6</ele>
        <time>2021-07-24T13:29:27Z</time>
      </trkpt>
      <trkpt lat="43.1764490" lon="-7.7563220">
        <ele>367.6</ele>
        <time>2021-07-24T13:29:34Z</time>
      </trkpt>
      <trkpt lat="43.1760900" lon="-7.7565010">
        <ele>367.6</ele>
        <time>2021-07-24T13:29:43Z</time>
      </trkpt>
      <trkpt lat="43.1758800" lon="-7.7566040">
        <ele>367.2</ele>
        <time>2021-07-24T13:29:48Z</time>
      </trkpt>
      <trkpt lat="43.1758380" lon="-7.7566260">
        <ele>366.8</ele>
        <time>2021-07-24T13:29:49Z</time>
      </trkpt>
      <trkpt lat="43.1757950" lon="-7.7566470">
        <ele>366.4</ele>
        <time>2021-07-24T13:29:50Z</time>
      </trkpt>
      <trkpt lat="43.1757470" lon="-7.7566650">
        <ele>366.0</ele>
        <time>2021-07-24T13:29:51Z</time>
      </trkpt>
      <trkpt lat="43.1757000" lon="-7.7566840">
        <ele>365.6</ele>
        <time>2021-07-24T13:29:52Z</time>
      </trkpt>
      <trkpt lat="43.1756550" lon="-7.7567060">
        <ele>365.0</ele>
        <time>2021-07-24T13:29:53Z</time>
      </trkpt>
      <trkpt lat="43.1756080" lon="-7.7567290">
        <ele>364.6</ele>
        <time>2021-07-24T13:29:54Z</time>
      </trkpt>
      <trkpt lat="43.1755620" lon="-7.7567490">
        <ele>364.2</ele>
        <time>2021-07-24T13:29:55Z</time>
      </trkpt>
      <trkpt lat="43.1755140" lon="-7.7567730">
        <ele>363.6</ele>
        <time>2021-07-24T13:29:56Z</time>
      </trkpt>
      <trkpt lat="43.1754660" lon="-7.7567940">
        <ele>363.2</ele>
        <time>2021-07-24T13:29:57Z</time>
      </trkpt>
      <trkpt lat="43.1752840" lon="-7.7568820">
        <ele>363.2</ele>
        <time>2021-07-24T13:30:01Z</time>
      </trkpt>
      <trkpt lat="43.1749970" lon="-7.7570290">
        <ele>363.2</ele>
        <time>2021-07-24T13:30:08Z</time>
      </trkpt>
      <trkpt lat="43.1747600" lon="-7.7571290">
        <ele>362.8</ele>
        <time>2021-07-24T13:30:14Z</time>
      </trkpt>
      <trkpt lat="43.1747250" lon="-7.7571440">
        <ele>362.2</ele>
        <time>2021-07-24T13:30:15Z</time>
      </trkpt>
      <trkpt lat="43.1746920" lon="-7.7571580">
        <ele>361.8</ele>
        <time>2021-07-24T13:30:16Z</time>
      </trkpt>
      <trkpt lat="43.1746610" lon="-7.7571760">
        <ele>361.4</ele>
        <time>2021-07-24T13:30:17Z</time>
      </trkpt>
      <trkpt lat="43.1746310" lon="-7.7571910">
        <ele>360.8</ele>
        <time>2021-07-24T13:30:18Z</time>
      </trkpt>
      <trkpt lat="43.1744960" lon="-7.7572300">
        <ele>360.8</ele>
        <time>2021-07-24T13:30:22Z</time>
      </trkpt>
      <trkpt lat="43.1741950" lon="-7.7572540">
        <ele>360.4</ele>
        <time>2021-07-24T13:30:30Z</time>
      </trkpt>
      <trkpt lat="43.1741550" lon="-7.7572620">
        <ele>360.0</ele>
        <time>2021-07-24T13:30:31Z</time>
      </trkpt>
      <trkpt lat="43.1741160" lon="-7.7572750">
        <ele>359.6</ele>
        <time>2021-07-24T13:30:32Z</time>
      </trkpt>
      <trkpt lat="43.1740880" lon="-7.7572990">
        <ele>359.2</ele>
        <time>2021-07-24T13:30:33Z</time>
      </trkpt>
      <trkpt lat="43.1740730" lon="-7.7573410">
        <ele>358.8</ele>
        <time>2021-07-24T13:30:34Z</time>
      </trkpt>
      <trkpt lat="43.1740540" lon="-7.7574690">
        <ele>358.8</ele>
        <time>2021-07-24T13:30:37Z</time>
      </trkpt>
      <trkpt lat="43.1740420" lon="-7.7575480">
        <ele>358.8</ele>
        <time>2021-07-24T13:30:39Z</time>
      </trkpt>
      <trkpt lat="43.1739800" lon="-7.7578450">
        <ele>358.8</ele>
        <time>2021-07-24T13:30:47Z</time>
      </trkpt>
      <trkpt lat="43.1739300" lon="-7.7581480">
        <ele>358.8</ele>
        <time>2021-07-24T13:30:55Z</time>
      </trkpt>
      <trkpt lat="43.1739020" lon="-7.7583340">
        <ele>358.8</ele>
        <time>2021-07-24T13:31:00Z</time>
      </trkpt>
      <trkpt lat="43.1738480" lon="-7.7586010">
        <ele>358.8</ele>
        <time>2021-07-24T13:31:07Z</time>
      </trkpt>
      <trkpt lat="43.1738010" lon="-7.7588980">
        <ele>358.8</ele>
        <time>2021-07-24T13:31:15Z</time>
      </trkpt>
      <trkpt lat="43.1737450" lon="-7.7592280">
        <ele>358.8</ele>
        <time>2021-07-24T13:31:24Z</time>
      </trkpt>
      <trkpt lat="43.1736870" lon="-7.7595160">
        <ele>358.8</ele>
        <time>2021-07-24T13:31:32Z</time>
      </trkpt>
      <trkpt lat="43.1736810" lon="-7.7595970">
        <ele>358.8</ele>
        <time>2021-07-24T13:31:36Z</time>
      </trkpt>
      <trkpt lat="43.1736740" lon="-7.7596350">
        <ele>358.8</ele>
        <time>2021-07-24T13:32:00Z</time>
      </trkpt>
      <trkpt lat="43.1736360" lon="-7.7598360">
        <ele>358.8</ele>
        <time>2021-07-24T13:32:05Z</time>
      </trkpt>
      <trkpt lat="43.1735870" lon="-7.7602030">
        <ele>358.8</ele>
        <time>2021-07-24T13:32:12Z</time>
      </trkpt>
      <trkpt lat="43.1735550" lon="-7.7603110">
        <ele>358.2</ele>
        <time>2021-07-24T13:32:15Z</time>
      </trkpt>
      <trkpt lat="43.1735350" lon="-7.7603340">
        <ele>357.8</ele>
        <time>2021-07-24T13:32:16Z</time>
      </trkpt>
      <trkpt lat="43.1735180" lon="-7.7603480">
        <ele>357.4</ele>
        <time>2021-07-24T13:32:17Z</time>
      </trkpt>
      <trkpt lat="43.1735000" lon="-7.7603580">
        <ele>357.0</ele>
        <time>2021-07-24T13:32:18Z</time>
      </trkpt>
      <trkpt lat="43.1734880" lon="-7.7603690">
        <ele>356.6</ele>
        <time>2021-07-24T13:32:19Z</time>
      </trkpt>
      <trkpt lat="43.1734840" lon="-7.7604090">
        <ele>356.6</ele>
        <time>2021-07-24T13:32:21Z</time>
      </trkpt>
      <trkpt lat="43.1734900" lon="-7.7604850">
        <ele>356.6</ele>
        <time>2021-07-24T13:32:23Z</time>
      </trkpt>
      <trkpt lat="43.1734970" lon="-7.7605790">
        <ele>356.6</ele>
        <time>2021-07-24T13:32:25Z</time>
      </trkpt>
      <trkpt lat="43.1734830" lon="-7.7608320">
        <ele>356.6</ele>
        <time>2021-07-24T13:32:30Z</time>
      </trkpt>
      <trkpt lat="43.1734110" lon="-7.7612430">
        <ele>356.6</ele>
        <time>2021-07-24T13:32:38Z</time>
      </trkpt>
      <trkpt lat="43.1733540" lon="-7.7615970">
        <ele>356.6</ele>
        <time>2021-07-24T13:32:45Z</time>
      </trkpt>
      <trkpt lat="43.1732790" lon="-7.7619930">
        <ele>356.6</ele>
        <time>2021-07-24T13:32:53Z</time>
      </trkpt>
      <trkpt lat="43.1732200" lon="-7.7623400">
        <ele>356.6</ele>
        <time>2021-07-24T13:33:00Z</time>
      </trkpt>
      <trkpt lat="43.1731770" lon="-7.7626830">
        <ele>356.6</ele>
        <time>2021-07-24T13:33:08Z</time>
      </trkpt>
      <trkpt lat="43.1731170" lon="-7.7630230">
        <ele>356.6</ele>
        <time>2021-07-24T13:33:15Z</time>
      </trkpt>
      <trkpt lat="43.1730320" lon="-7.7635230">
        <ele>356.6</ele>
        <time>2021-07-24T13:33:25Z</time>
      </trkpt>
      <trkpt lat="43.1729790" lon="-7.7638390">
        <ele>356.6</ele>
        <time>2021-07-24T13:33:32Z</time>
      </trkpt>
      <trkpt lat="43.1729190" lon="-7.7641730">
        <ele>356.6</ele>
        <time>2021-07-24T13:33:39Z</time>
      </trkpt>
      <trkpt lat="43.1728580" lon="-7.7645400">
        <ele>356.6</ele>
        <time>2021-07-24T13:33:47Z</time>
      </trkpt>
      <trkpt lat="43.1728950" lon="-7.7647250">
        <ele>356.6</ele>
        <time>2021-07-24T13:33:51Z</time>
      </trkpt>
      <trkpt lat="43.1729660" lon="-7.7649590">
        <ele>356.6</ele>
        <time>2021-07-24T13:33:57Z</time>
      </trkpt>
      <trkpt lat="43.1729620" lon="-7.7652510">
        <ele>356.6</ele>
        <time>2021-07-24T13:34:04Z</time>
      </trkpt>
      <trkpt lat="43.1730060" lon="-7.7654260">
        <ele>356.6</ele>
        <time>2021-07-24T13:34:09Z</time>
      </trkpt>
      <trkpt lat="43.1730540" lon="-7.7655180">
        <ele>356.6</ele>
        <time>2021-07-24T13:34:14Z</time>
      </trkpt>
      <trkpt lat="43.1730570" lon="-7.7655170">
        <ele>356.6</ele>
        <time>2021-07-24T13:34:16Z</time>
      </trkpt>
      <trkpt lat="43.1727590" lon="-7.7656040">
        <ele>352.8</ele>
        <time>2021-07-25T05:45:03Z</time>
      </trkpt>
      <trkpt lat="43.1727390" lon="-7.7656330">
        <ele>352.8</ele>
        <time>2021-07-25T05:45:04Z</time>
      </trkpt>
      <trkpt lat="43.1726740" lon="-7.7657020">
        <ele>352.8</ele>
        <time>2021-07-25T05:45:07Z</time>
      </trkpt>
      <trkpt lat="43.1726530" lon="-7.7657270">
        <ele>352.4</ele>
        <time>2021-07-25T05:45:08Z</time>
      </trkpt>
      <trkpt lat="43.1726220" lon="-7.7658000">
        <ele>352.4</ele>
        <time>2021-07-25T05:45:10Z</time>
      </trkpt>
      <trkpt lat="43.1725910" lon="-7.7659870">
        <ele>352.4</ele>
        <time>2021-07-25T05:45:15Z</time>
      </trkpt>
      <trkpt lat="43.1726060" lon="-7.7661610">
        <ele>352.4</ele>
        <time>2021-07-25T05:45:21Z</time>
      </trkpt>
      <trkpt lat="43.1726130" lon="-7.7662860">
        <ele>352.4</ele>
        <time>2021-07-25T05:45:28Z</time>
      </trkpt>
      <trkpt lat="43.1726110" lon="-7.7662980">
        <ele>352.4</ele>
        <time>2021-07-25T05:45:30Z</time>
      </trkpt>
      <trkpt lat="43.1726380" lon="-7.7663680">
        <ele>352.4</ele>
        <time>2021-07-25T05:47:18Z</time>
      </trkpt>
      <trkpt lat="43.1725940" lon="-7.7663740">
        <ele>352.4</ele>
        <time>2021-07-25T05:47:20Z</time>
      </trkpt>
      <trkpt lat="43.1725180" lon="-7.7664120">
        <ele>352.4</ele>
        <time>2021-07-25T05:47:26Z</time>
      </trkpt>
      <trkpt lat="43.1724910" lon="-7.7664250">
        <ele>352.4</ele>
        <time>2021-07-25T05:47:28Z</time>
      </trkpt>
      <trkpt lat="43.1724810" lon="-7.7664440">
        <ele>352.4</ele>
        <time>2021-07-25T05:47:31Z</time>
      </trkpt>
      <trkpt lat="43.1724930" lon="-7.7664890">
        <ele>352.4</ele>
        <time>2021-07-25T05:48:30Z</time>
      </trkpt>
      <trkpt lat="43.1724840" lon="-7.7665670">
        <ele>352.4</ele>
        <time>2021-07-25T05:48:33Z</time>
      </trkpt>
      <trkpt lat="43.1724790" lon="-7.7665940">
        <ele>352.4</ele>
        <time>2021-07-25T05:48:34Z</time>
      </trkpt>
      <trkpt lat="43.1724530" lon="-7.7667790">
        <ele>352.4</ele>
        <time>2021-07-25T05:48:39Z</time>
      </trkpt>
      <trkpt lat="43.1724310" lon="-7.7670180">
        <ele>352.4</ele>
        <time>2021-07-25T05:48:44Z</time>
      </trkpt>
      <trkpt lat="43.1724120" lon="-7.7671840">
        <ele>352.4</ele>
        <time>2021-07-25T05:48:47Z</time>
      </trkpt>
      <trkpt lat="43.1723820" lon="-7.7673810">
        <ele>352.4</ele>
        <time>2021-07-25T05:48:51Z</time>
      </trkpt>
      <trkpt lat="43.1723710" lon="-7.7674770">
        <ele>352.4</ele>
        <time>2021-07-25T05:48:53Z</time>
      </trkpt>
      <trkpt lat="43.1723520" lon="-7.7676270">
        <ele>352.4</ele>
        <time>2021-07-25T05:48:56Z</time>
      </trkpt>
      <trkpt lat="43.1723310" lon="-7.7677700">
        <ele>352.4</ele>
        <time>2021-07-25T05:48:59Z</time>
      </trkpt>
      <trkpt lat="43.1723130" lon="-7.7678650">
        <ele>352.4</ele>
        <time>2021-07-25T05:49:01Z</time>
      </trkpt>
      <trkpt lat="43.1722450" lon="-7.7682430">
        <ele>352.4</ele>
        <time>2021-07-25T05:49:09Z</time>
      </trkpt>
      <trkpt lat="43.1721630" lon="-7.7687150">
        <ele>352.4</ele>
        <time>2021-07-25T05:49:18Z</time>
      </trkpt>
      <trkpt lat="43.1720900" lon="-7.7691020">
        <ele>352.4</ele>
        <time>2021-07-25T05:49:25Z</time>
      </trkpt>
      <trkpt lat="43.1720800" lon="-7.7691570">
        <ele>352.4</ele>
        <time>2021-07-25T05:49:26Z</time>
      </trkpt>
      <trkpt lat="43.1720410" lon="-7.7695790">
        <ele>352.8</ele>
        <time>2021-07-25T05:49:34Z</time>
      </trkpt>
      <trkpt lat="43.1720300" lon="-7.7696330">
        <ele>353.2</ele>
        <time>2021-07-25T05:49:35Z</time>
      </trkpt>
      <trkpt lat="43.1720190" lon="-7.7696830">
        <ele>353.6</ele>
        <time>2021-07-25T05:49:36Z</time>
      </trkpt>
      <trkpt lat="43.1720050" lon="-7.7697360">
        <ele>354.0</ele>
        <time>2021-07-25T05:49:37Z</time>
      </trkpt>
      <trkpt lat="43.1719930" lon="-7.7697900">
        <ele>354.6</ele>
        <time>2021-07-25T05:49:38Z</time>
      </trkpt>
      <trkpt lat="43.1719360" lon="-7.7700370">
        <ele>354.6</ele>
        <time>2021-07-25T05:49:43Z</time>
      </trkpt>
      <trkpt lat="43.1719320" lon="-7.7700870">
        <ele>354.6</ele>
        <time>2021-07-25T05:49:44Z</time>
      </trkpt>
      <trkpt lat="43.1718930" lon="-7.7704040">
        <ele>354.6</ele>
        <time>2021-07-25T05:49:50Z</time>
      </trkpt>
      <trkpt lat="43.1718850" lon="-7.7704560">
        <ele>354.6</ele>
        <time>2021-07-25T05:49:51Z</time>
      </trkpt>
      <trkpt lat="43.1718580" lon="-7.7706890">
        <ele>354.6</ele>
        <time>2021-07-25T05:49:55Z</time>
      </trkpt>
      <trkpt lat="43.1718330" lon="-7.7709180">
        <ele>354.6</ele>
        <time>2021-07-25T05:49:59Z</time>
      </trkpt>
      <trkpt lat="43.1717930" lon="-7.7712030">
        <ele>354.6</ele>
        <time>2021-07-25T05:50:04Z</time>
      </trkpt>
      <trkpt lat="43.1717860" lon="-7.7713200">
        <ele>354.6</ele>
        <time>2021-07-25T05:50:06Z</time>
      </trkpt>
      <trkpt lat="43.1717710" lon="-7.7715550">
        <ele>354.6</ele>
        <time>2021-07-25T05:50:10Z</time>
      </trkpt>
      <trkpt lat="43.1717720" lon="-7.7716840">
        <ele>355.0</ele>
        <time>2021-07-25T05:50:12Z</time>
      </trkpt>
      <trkpt lat="43.1717680" lon="-7.7717470">
        <ele>355.4</ele>
        <time>2021-07-25T05:50:13Z</time>
      </trkpt>
      <trkpt lat="43.1717690" lon="-7.7718090">
        <ele>355.8</ele>
        <time>2021-07-25T05:50:14Z</time>
      </trkpt>
      <trkpt lat="43.1717670" lon="-7.7718710">
        <ele>356.2</ele>
        <time>2021-07-25T05:50:15Z</time>
      </trkpt>
      <trkpt lat="43.1717640" lon="-7.7719320">
        <ele>356.6</ele>
        <time>2021-07-25T05:50:16Z</time>
      </trkpt>
      <trkpt lat="43.1717700" lon="-7.7721810">
        <ele>356.6</ele>
        <time>2021-07-25T05:50:20Z</time>
      </trkpt>
      <trkpt lat="43.1717820" lon="-7.7725780">
        <ele>356.6</ele>
        <time>2021-07-25T05:50:26Z</time>
      </trkpt>
      <trkpt lat="43.1717890" lon="-7.7727990">
        <ele>356.6</ele>
        <time>2021-07-25T05:50:29Z</time>
      </trkpt>
      <trkpt lat="43.1718000" lon="-7.7731150">
        <ele>356.6</ele>
        <time>2021-07-25T05:50:33Z</time>
      </trkpt>
      <trkpt lat="43.1718140" lon="-7.7732790">
        <ele>356.6</ele>
        <time>2021-07-25T05:50:35Z</time>
      </trkpt>
      <trkpt lat="43.1718280" lon="-7.7734620">
        <ele>356.6</ele>
        <time>2021-07-25T05:50:37Z</time>
      </trkpt>
      <trkpt lat="43.1718380" lon="-7.7735570">
        <ele>356.2</ele>
        <time>2021-07-25T05:50:38Z</time>
      </trkpt>
      <trkpt lat="43.1718490" lon="-7.7736550">
        <ele>355.6</ele>
        <time>2021-07-25T05:50:39Z</time>
      </trkpt>
      <trkpt lat="43.1718630" lon="-7.7737520">
        <ele>355.2</ele>
        <time>2021-07-25T05:50:40Z</time>
      </trkpt>
      <trkpt lat="43.1718760" lon="-7.7738470">
        <ele>354.8</ele>
        <time>2021-07-25T05:50:41Z</time>
      </trkpt>
      <trkpt lat="43.1718920" lon="-7.7739470">
        <ele>354.4</ele>
        <time>2021-07-25T05:50:42Z</time>
      </trkpt>
      <trkpt lat="43.1719360" lon="-7.7741420">
        <ele>354.4</ele>
        <time>2021-07-25T05:50:44Z</time>
      </trkpt>
      <trkpt lat="43.1719870" lon="-7.7743390">
        <ele>353.8</ele>
        <time>2021-07-25T05:50:46Z</time>
      </trkpt>
      <trkpt lat="43.1720160" lon="-7.7744330">
        <ele>353.4</ele>
        <time>2021-07-25T05:50:47Z</time>
      </trkpt>
      <trkpt lat="43.1720460" lon="-7.7745250">
        <ele>353.0</ele>
        <time>2021-07-25T05:50:48Z</time>
      </trkpt>
      <trkpt lat="43.1720790" lon="-7.7746170">
        <ele>352.6</ele>
        <time>2021-07-25T05:50:49Z</time>
      </trkpt>
      <trkpt lat="43.1721160" lon="-7.7747020">
        <ele>352.2</ele>
        <time>2021-07-25T05:50:50Z</time>
      </trkpt>
      <trkpt lat="43.1721520" lon="-7.7747870">
        <ele>352.2</ele>
        <time>2021-07-25T05:50:51Z</time>
      </trkpt>
      <trkpt lat="43.1721900" lon="-7.7748710">
        <ele>351.8</ele>
        <time>2021-07-25T05:50:52Z</time>
      </trkpt>
      <trkpt lat="43.1722270" lon="-7.7749510">
        <ele>351.4</ele>
        <time>2021-07-25T05:50:53Z</time>
      </trkpt>
      <trkpt lat="43.1722630" lon="-7.7750280">
        <ele>351.0</ele>
        <time>2021-07-25T05:50:54Z</time>
      </trkpt>
      <trkpt lat="43.1722980" lon="-7.7751030">
        <ele>350.6</ele>
        <time>2021-07-25T05:50:55Z</time>
      </trkpt>
      <trkpt lat="43.1723330" lon="-7.7751740">
        <ele>350.2</ele>
        <time>2021-07-25T05:50:56Z</time>
      </trkpt>
      <trkpt lat="43.1724030" lon="-7.7753050">
        <ele>350.2</ele>
        <time>2021-07-25T05:50:58Z</time>
      </trkpt>
      <trkpt lat="43.1725740" lon="-7.7756190">
        <ele>350.2</ele>
        <time>2021-07-25T05:51:03Z</time>
      </trkpt>
      <trkpt lat="43.1726080" lon="-7.7756840">
        <ele>350.2</ele>
        <time>2021-07-25T05:51:04Z</time>
      </trkpt>
      <trkpt lat="43.1726770" lon="-7.7758050">
        <ele>350.2</ele>
        <time>2021-07-25T05:51:06Z</time>
      </trkpt>
      <trkpt lat="43.1727120" lon="-7.7758650">
        <ele>350.2</ele>
        <time>2021-07-25T05:51:07Z</time>
      </trkpt>
      <trkpt lat="43.1728140" lon="-7.7760440">
        <ele>350.2</ele>
        <time>2021-07-25T05:51:10Z</time>
      </trkpt>
      <trkpt lat="43.1729060" lon="-7.7762290">
        <ele>350.2</ele>
        <time>2021-07-25T05:51:13Z</time>
      </trkpt>
      <trkpt lat="43.1729250" lon="-7.7763030">
        <ele>350.2</ele>
        <time>2021-07-25T05:51:14Z</time>
      </trkpt>
      <trkpt lat="43.1729440" lon="-7.7763840">
        <ele>350.2</ele>
        <time>2021-07-25T05:51:15Z</time>
      </trkpt>
      <trkpt lat="43.1729790" lon="-7.7765310">
        <ele>350.2</ele>
        <time>2021-07-25T05:51:17Z</time>
      </trkpt>
      <trkpt lat="43.1729980" lon="-7.7766030">
        <ele>350.2</ele>
        <time>2021-07-25T05:51:18Z</time>
      </trkpt>
      <trkpt lat="43.1730810" lon="-7.7769530">
        <ele>350.2</ele>
        <time>2021-07-25T05:51:23Z</time>
      </trkpt>
      <trkpt lat="43.1730950" lon="-7.7770180">
        <ele>350.2</ele>
        <time>2021-07-25T05:51:24Z</time>
      </trkpt>
      <trkpt lat="43.1731350" lon="-7.7772980">
        <ele>350.2</ele>
        <time>2021-07-25T05:51:28Z</time>
      </trkpt>
      <trkpt lat="43.1731560" lon="-7.7775120">
        <ele>350.2</ele>
        <time>2021-07-25T05:51:31Z</time>
      </trkpt>
      <trkpt lat="43.1731880" lon="-7.7781110">
        <ele>350.2</ele>
        <time>2021-07-25T05:51:40Z</time>
      </trkpt>
      <trkpt lat="43.1731620" lon="-7.7786550">
        <ele>350.2</ele>
        <time>2021-07-25T05:51:48Z</time>
      </trkpt>
      <trkpt lat="43.1731480" lon="-7.7787230">
        <ele>350.2</ele>
        <time>2021-07-25T05:51:49Z</time>
      </trkpt>
      <trkpt lat="43.1731060" lon="-7.7790720">
        <ele>350.2</ele>
        <time>2021-07-25T05:51:54Z</time>
      </trkpt>
      <trkpt lat="43.1730060" lon="-7.7795530">
        <ele>350.2</ele>
        <time>2021-07-25T05:52:01Z</time>
      </trkpt>
      <trkpt lat="43.1728610" lon="-7.7800970">
        <ele>350.2</ele>
        <time>2021-07-25T05:52:09Z</time>
      </trkpt>
      <trkpt lat="43.1728010" lon="-7.7803300">
        <ele>350.2</ele>
        <time>2021-07-25T05:52:13Z</time>
      </trkpt>
      <trkpt lat="43.1727640" lon="-7.7804550">
        <ele>350.2</ele>
        <time>2021-07-25T05:52:15Z</time>
      </trkpt>
      <trkpt lat="43.1726580" lon="-7.7807920">
        <ele>350.2</ele>
        <time>2021-07-25T05:52:20Z</time>
      </trkpt>
      <trkpt lat="43.1726390" lon="-7.7808580">
        <ele>350.2</ele>
        <time>2021-07-25T05:52:21Z</time>
      </trkpt>
      <trkpt lat="43.1724780" lon="-7.7813510">
        <ele>350.2</ele>
        <time>2021-07-25T05:52:28Z</time>
      </trkpt>
      <trkpt lat="43.1723290" lon="-7.7818360">
        <ele>350.2</ele>
        <time>2021-07-25T05:52:35Z</time>
      </trkpt>
      <trkpt lat="43.1723080" lon="-7.7819040">
        <ele>350.2</ele>
        <time>2021-07-25T05:52:36Z</time>
      </trkpt>
      <trkpt lat="43.1721750" lon="-7.7824530">
        <ele>350.2</ele>
        <time>2021-07-25T05:52:44Z</time>
      </trkpt>
      <trkpt lat="43.1720890" lon="-7.7829060">
        <ele>350.2</ele>
        <time>2021-07-25T05:52:51Z</time>
      </trkpt>
      <trkpt lat="43.1720780" lon="-7.7829690">
        <ele>350.2</ele>
        <time>2021-07-25T05:52:52Z</time>
      </trkpt>
      <trkpt lat="43.1720460" lon="-7.7834030">
        <ele>350.2</ele>
        <time>2021-07-25T05:52:59Z</time>
      </trkpt>
      <trkpt lat="43.1720450" lon="-7.7834680">
        <ele>350.2</ele>
        <time>2021-07-25T05:53:00Z</time>
      </trkpt>
      <trkpt lat="43.1720430" lon="-7.7839350">
        <ele>350.2</ele>
        <time>2021-07-25T05:53:08Z</time>
      </trkpt>
      <trkpt lat="43.1720420" lon="-7.7839930">
        <ele>350.2</ele>
        <time>2021-07-25T05:53:09Z</time>
      </trkpt>
      <trkpt lat="43.1720490" lon="-7.7841050">
        <ele>350.2</ele>
        <time>2021-07-25T05:53:11Z</time>
      </trkpt>
      <trkpt lat="43.1720520" lon="-7.7844000">
        <ele>350.2</ele>
        <time>2021-07-25T05:53:16Z</time>
      </trkpt>
      <trkpt lat="43.1720930" lon="-7.7849530">
        <ele>350.2</ele>
        <time>2021-07-25T05:53:25Z</time>
      </trkpt>
      <trkpt lat="43.1721410" lon="-7.7854320">
        <ele>350.2</ele>
        <time>2021-07-25T05:53:32Z</time>
      </trkpt>
      <trkpt lat="43.1721510" lon="-7.7857120">
        <ele>350.2</ele>
        <time>2021-07-25T05:53:36Z</time>
      </trkpt>
      <trkpt lat="43.1721580" lon="-7.7858450">
        <ele>350.2</ele>
        <time>2021-07-25T05:53:38Z</time>
      </trkpt>
      <trkpt lat="43.1721660" lon="-7.7859760">
        <ele>350.2</ele>
        <time>2021-07-25T05:53:40Z</time>
      </trkpt>
      <trkpt lat="43.1721800" lon="-7.7862440">
        <ele>350.2</ele>
        <time>2021-07-25T05:53:44Z</time>
      </trkpt>
      <trkpt lat="43.1721910" lon="-7.7865240">
        <ele>350.2</ele>
        <time>2021-07-25T05:53:48Z</time>
      </trkpt>
      <trkpt lat="43.1722270" lon="-7.7872000">
        <ele>350.2</ele>
        <time>2021-07-25T05:53:57Z</time>
      </trkpt>
      <trkpt lat="43.1722590" lon="-7.7876670">
        <ele>350.2</ele>
        <time>2021-07-25T05:54:04Z</time>
      </trkpt>
      <trkpt lat="43.1722750" lon="-7.7878670">
        <ele>350.2</ele>
        <time>2021-07-25T05:54:07Z</time>
      </trkpt>
      <trkpt lat="43.1722890" lon="-7.7880730">
        <ele>350.2</ele>
        <time>2021-07-25T05:54:10Z</time>
      </trkpt>
      <trkpt lat="43.1723010" lon="-7.7882100">
        <ele>350.2</ele>
        <time>2021-07-25T05:54:12Z</time>
      </trkpt>
      <trkpt lat="43.1723390" lon="-7.7887790">
        <ele>350.2</ele>
        <time>2021-07-25T05:54:21Z</time>
      </trkpt>
      <trkpt lat="43.1723720" lon="-7.7892490">
        <ele>350.2</ele>
        <time>2021-07-25T05:54:29Z</time>
      </trkpt>
      <trkpt lat="43.1724140" lon="-7.7897250">
        <ele>350.2</ele>
        <time>2021-07-25T05:54:37Z</time>
      </trkpt>
      <trkpt lat="43.1724660" lon="-7.7903140">
        <ele>350.2</ele>
        <time>2021-07-25T05:54:47Z</time>
      </trkpt>
      <trkpt lat="43.1724760" lon="-7.7907410">
        <ele>350.2</ele>
        <time>2021-07-25T05:54:54Z</time>
      </trkpt>
      <trkpt lat="43.1725160" lon="-7.7911400">
        <ele>350.2</ele>
        <time>2021-07-25T05:55:01Z</time>
      </trkpt>
      <trkpt lat="43.1725450" lon="-7.7916350">
        <ele>350.2</ele>
        <time>2021-07-25T05:55:10Z</time>
      </trkpt>
      <trkpt lat="43.1725920" lon="-7.7920990">
        <ele>350.2</ele>
        <time>2021-07-25T05:55:19Z</time>
      </trkpt>
      <trkpt lat="43.1726120" lon="-7.7924020">
        <ele>350.2</ele>
        <time>2021-07-25T05:55:25Z</time>
      </trkpt>
      <trkpt lat="43.1726030" lon="-7.7924790">
        <ele>350.2</ele>
        <time>2021-07-25T05:55:27Z</time>
      </trkpt>
      <trkpt lat="43.1725360" lon="-7.7927630">
        <ele>350.2</ele>
        <time>2021-07-25T05:55:33Z</time>
      </trkpt>
      <trkpt lat="43.1725260" lon="-7.7928460">
        <ele>350.2</ele>
        <time>2021-07-25T05:55:36Z</time>
      </trkpt>
      <trkpt lat="43.1725120" lon="-7.7928780">
        <ele>350.2</ele>
        <time>2021-07-25T05:55:38Z</time>
      </trkpt>
      <trkpt lat="43.1725050" lon="-7.7929760">
        <ele>350.2</ele>
        <time>2021-07-25T05:55:43Z</time>
      </trkpt>
      <trkpt lat="43.1724980" lon="-7.7930220">
        <ele>350.2</ele>
        <time>2021-07-25T05:55:45Z</time>
      </trkpt>
      <trkpt lat="43.1724790" lon="-7.7930380">
        <ele>350.2</ele>
        <time>2021-07-25T05:55:48Z</time>
      </trkpt>
      <trkpt lat="43.1724430" lon="-7.7930400">
        <ele>348.2</ele>
        <time>2021-07-25T05:56:05Z</time>
      </trkpt>
      <trkpt lat="43.1724280" lon="-7.7930370">
        <ele>348.2</ele>
        <time>2021-07-25T05:56:06Z</time>
      </trkpt>
      <trkpt lat="43.1723550" lon="-7.7930180">
        <ele>348.2</ele>
        <time>2021-07-25T05:56:09Z</time>
      </trkpt>
      <trkpt lat="43.1722980" lon="-7.7930070">
        <ele>348.2</ele>
        <time>2021-07-25T05:56:11Z</time>
      </trkpt>
      <trkpt lat="43.1720690" lon="-7.7929680">
        <ele>348.2</ele>
        <time>2021-07-25T05:56:19Z</time>
      </trkpt>
      <trkpt lat="43.1720260" lon="-7.7929690">
        <ele>348.2</ele>
        <time>2021-07-25T05:56:21Z</time>
      </trkpt>
      <trkpt lat="43.1718530" lon="-7.7929910">
        <ele>348.2</ele>
        <time>2021-07-25T05:56:28Z</time>
      </trkpt>
      <trkpt lat="43.1717190" lon="-7.7931710">
        <ele>348.2</ele>
        <time>2021-07-25T05:56:34Z</time>
      </trkpt>
      <trkpt lat="43.1717040" lon="-7.7933280">
        <ele>348.2</ele>
        <time>2021-07-25T05:56:37Z</time>
      </trkpt>
      <trkpt lat="43.1716880" lon="-7.7934420">
        <ele>348.2</ele>
        <time>2021-07-25T05:56:40Z</time>
      </trkpt>
      <trkpt lat="43.1716340" lon="-7.7936370">
        <ele>348.2</ele>
        <time>2021-07-25T05:56:47Z</time>
      </trkpt>
      <trkpt lat="43.1716100" lon="-7.7936870">
        <ele>348.2</ele>
        <time>2021-07-25T05:56:52Z</time>
      </trkpt>
      <trkpt lat="43.1714710" lon="-7.7939890">
        <ele>350.2</ele>
        <time>2021-07-25T05:58:03Z</time>
      </trkpt>
      <trkpt lat="43.1714170" lon="-7.7941400">
        <ele>350.2</ele>
        <time>2021-07-25T05:58:07Z</time>
      </trkpt>
      <trkpt lat="43.1714020" lon="-7.7941710">
        <ele>350.2</ele>
        <time>2021-07-25T05:58:08Z</time>
      </trkpt>
      <trkpt lat="43.1713770" lon="-7.7942500">
        <ele>349.6</ele>
        <time>2021-07-25T05:58:10Z</time>
      </trkpt>
      <trkpt lat="43.1713640" lon="-7.7942930">
        <ele>349.2</ele>
        <time>2021-07-25T05:58:11Z</time>
      </trkpt>
      <trkpt lat="43.1713470" lon="-7.7943430">
        <ele>348.8</ele>
        <time>2021-07-25T05:58:12Z</time>
      </trkpt>
      <trkpt lat="43.1713330" lon="-7.7943840">
        <ele>348.2</ele>
        <time>2021-07-25T05:58:13Z</time>
      </trkpt>
      <trkpt lat="43.1713260" lon="-7.7944130">
        <ele>347.8</ele>
        <time>2021-07-25T05:58:14Z</time>
      </trkpt>
      <trkpt lat="43.1713170" lon="-7.7944520">
        <ele>347.2</ele>
        <time>2021-07-25T05:58:15Z</time>
      </trkpt>
      <trkpt lat="43.1713110" lon="-7.7944920">
        <ele>346.6</ele>
        <time>2021-07-25T05:58:16Z</time>
      </trkpt>
      <trkpt lat="43.1713010" lon="-7.7945260">
        <ele>346.0</ele>
        <time>2021-07-25T05:58:17Z</time>
      </trkpt>
      <trkpt lat="43.1712910" lon="-7.7945550">
        <ele>345.6</ele>
        <time>2021-07-25T05:58:18Z</time>
      </trkpt>
      <trkpt lat="43.1712650" lon="-7.7946100">
        <ele>345.6</ele>
        <time>2021-07-25T05:58:20Z</time>
      </trkpt>
      <trkpt lat="43.1712390" lon="-7.7946500">
        <ele>345.6</ele>
        <time>2021-07-25T05:58:24Z</time>
      </trkpt>
      <trkpt lat="43.1712310" lon="-7.7946760">
        <ele>345.6</ele>
        <time>2021-07-25T05:58:26Z</time>
      </trkpt>
      <trkpt lat="43.1712080" lon="-7.7947020">
        <ele>345.6</ele>
        <time>2021-07-25T05:58:28Z</time>
      </trkpt>
      <trkpt lat="43.1711590" lon="-7.7947520">
        <ele>345.6</ele>
        <time>2021-07-25T05:58:31Z</time>
      </trkpt>
      <trkpt lat="43.1711250" lon="-7.7947920">
        <ele>345.6</ele>
        <time>2021-07-25T05:58:33Z</time>
      </trkpt>
      <trkpt lat="43.1711140" lon="-7.7948120">
        <ele>346.0</ele>
        <time>2021-07-25T05:58:34Z</time>
      </trkpt>
      <trkpt lat="43.1710970" lon="-7.7948320">
        <ele>346.4</ele>
        <time>2021-07-25T05:58:35Z</time>
      </trkpt>
      <trkpt lat="43.1710840" lon="-7.7948550">
        <ele>347.0</ele>
        <time>2021-07-25T05:58:36Z</time>
      </trkpt>
      <trkpt lat="43.1710720" lon="-7.7948780">
        <ele>347.4</ele>
        <time>2021-07-25T05:58:37Z</time>
      </trkpt>
      <trkpt lat="43.1710640" lon="-7.7949080">
        <ele>347.8</ele>
        <time>2021-07-25T05:58:38Z</time>
      </trkpt>
      <trkpt lat="43.1710620" lon="-7.7949330">
        <ele>347.8</ele>
        <time>2021-07-25T05:58:39Z</time>
      </trkpt>
      <trkpt lat="43.1710470" lon="-7.7949540">
        <ele>347.8</ele>
        <time>2021-07-25T05:58:41Z</time>
      </trkpt>
      <trkpt lat="43.1711050" lon="-7.7961760">
        <ele>362.8</ele>
        <time>2021-07-25T06:01:29Z</time>
      </trkpt>
      <trkpt lat="43.1711060" lon="-7.7962010">
        <ele>363.2</ele>
        <time>2021-07-25T06:01:30Z</time>
      </trkpt>
      <trkpt lat="43.1711090" lon="-7.7962240">
        <ele>363.6</ele>
        <time>2021-07-25T06:01:31Z</time>
      </trkpt>
      <trkpt lat="43.1711130" lon="-7.7962470">
        <ele>364.0</ele>
        <time>2021-07-25T06:01:32Z</time>
      </trkpt>
      <trkpt lat="43.1711170" lon="-7.7962680">
        <ele>364.4</ele>
        <time>2021-07-25T06:01:33Z</time>
      </trkpt>
      <trkpt lat="43.1711320" lon="-7.7963750">
        <ele>364.4</ele>
        <time>2021-07-25T06:01:37Z</time>
      </trkpt>
      <trkpt lat="43.1711680" lon="-7.7964690">
        <ele>364.4</ele>
        <time>2021-07-25T06:01:41Z</time>
      </trkpt>
      <trkpt lat="43.1711710" lon="-7.7964760">
        <ele>364.4</ele>
        <time>2021-07-25T06:01:42Z</time>
      </trkpt>
      <trkpt lat="43.1712290" lon="-7.7968570">
        <ele>368.6</ele>
        <time>2021-07-25T06:02:13Z</time>
      </trkpt>
      <trkpt lat="43.1712330" lon="-7.7968810">
        <ele>369.0</ele>
        <time>2021-07-25T06:02:14Z</time>
      </trkpt>
      <trkpt lat="43.1712360" lon="-7.7969080">
        <ele>369.4</ele>
        <time>2021-07-25T06:02:15Z</time>
      </trkpt>
      <trkpt lat="43.1712370" lon="-7.7969350">
        <ele>369.8</ele>
        <time>2021-07-25T06:02:16Z</time>
      </trkpt>
      <trkpt lat="43.1712410" lon="-7.7969560">
        <ele>370.2</ele>
        <time>2021-07-25T06:02:17Z</time>
      </trkpt>
      <trkpt lat="43.1712430" lon="-7.7969770">
        <ele>370.6</ele>
        <time>2021-07-25T06:02:18Z</time>
      </trkpt>
      <trkpt lat="43.1712450" lon="-7.7969880">
        <ele>370.6</ele>
        <time>2021-07-25T06:02:19Z</time>
      </trkpt>
      <trkpt lat="43.1712540" lon="-7.7970220">
        <ele>370.6</ele>
        <time>2021-07-25T06:02:24Z</time>
      </trkpt>
      <trkpt lat="43.1712640" lon="-7.7970440">
        <ele>370.6</ele>
        <time>2021-07-25T06:02:25Z</time>
      </trkpt>
      <trkpt lat="43.1713290" lon="-7.7971740">
        <ele>370.6</ele>
        <time>2021-07-25T06:02:30Z</time>
      </trkpt>
      <trkpt lat="43.1713430" lon="-7.7972030">
        <ele>370.6</ele>
        <time>2021-07-25T06:02:31Z</time>
      </trkpt>
      <trkpt lat="43.1713770" lon="-7.7972890">
        <ele>370.6</ele>
        <time>2021-07-25T06:02:34Z</time>
      </trkpt>
      <trkpt lat="43.1713780" lon="-7.7973170">
        <ele>370.6</ele>
        <time>2021-07-25T06:02:36Z</time>
      </trkpt>
      <trkpt lat="43.1713050" lon="-7.7975080">
        <ele>372.2</ele>
        <time>2021-07-25T06:02:52Z</time>
      </trkpt>
      <trkpt lat="43.1712980" lon="-7.7975260">
        <ele>372.6</ele>
        <time>2021-07-25T06:02:53Z</time>
      </trkpt>
      <trkpt lat="43.1712870" lon="-7.7975570">
        <ele>372.6</ele>
        <time>2021-07-25T06:02:55Z</time>
      </trkpt>
      <trkpt lat="43.1712530" lon="-7.7976360">
        <ele>372.6</ele>
        <time>2021-07-25T06:03:01Z</time>
      </trkpt>
      <trkpt lat="43.1712500" lon="-7.7976510">
        <ele>373.0</ele>
        <time>2021-07-25T06:03:02Z</time>
      </trkpt>
      <trkpt lat="43.1712520" lon="-7.7976660">
        <ele>373.4</ele>
        <time>2021-07-25T06:03:03Z</time>
      </trkpt>
      <trkpt lat="43.1712530" lon="-7.7976800">
        <ele>374.0</ele>
        <time>2021-07-25T06:03:04Z</time>
      </trkpt>
      <trkpt lat="43.1712540" lon="-7.7976940">
        <ele>374.4</ele>
        <time>2021-07-25T06:03:05Z</time>
      </trkpt>
      <trkpt lat="43.1712530" lon="-7.7977090">
        <ele>374.8</ele>
        <time>2021-07-25T06:03:06Z</time>
      </trkpt>
      <trkpt lat="43.1712580" lon="-7.7978370">
        <ele>374.8</ele>
        <time>2021-07-25T06:03:14Z</time>
      </trkpt>
      <trkpt lat="43.1712600" lon="-7.7979450">
        <ele>374.8</ele>
        <time>2021-07-25T06:03:20Z</time>
      </trkpt>
      <trkpt lat="43.1712170" lon="-7.7980610">
        <ele>374.8</ele>
        <time>2021-07-25T06:03:27Z</time>
      </trkpt>
      <trkpt lat="43.1712040" lon="-7.7980980">
        <ele>375.2</ele>
        <time>2021-07-25T06:03:29Z</time>
      </trkpt>
      <trkpt lat="43.1711980" lon="-7.7981140">
        <ele>375.6</ele>
        <time>2021-07-25T06:03:30Z</time>
      </trkpt>
      <trkpt lat="43.1711940" lon="-7.7981270">
        <ele>376.0</ele>
        <time>2021-07-25T06:03:31Z</time>
      </trkpt>
      <trkpt lat="43.1711960" lon="-7.7981460">
        <ele>376.4</ele>
        <time>2021-07-25T06:03:32Z</time>
      </trkpt>
      <trkpt lat="43.1711950" lon="-7.7981590">
        <ele>376.8</ele>
        <time>2021-07-25T06:03:33Z</time>
      </trkpt>
      <trkpt lat="43.1711170" lon="-7.7983950">
        <ele>379.0</ele>
        <time>2021-07-25T06:03:56Z</time>
      </trkpt>
      <trkpt lat="43.1710750" lon="-7.7985010">
        <ele>379.0</ele>
        <time>2021-07-25T06:03:59Z</time>
      </trkpt>
      <trkpt lat="43.1710130" lon="-7.7986220">
        <ele>379.4</ele>
        <time>2021-07-25T06:04:03Z</time>
      </trkpt>
      <trkpt lat="43.1709980" lon="-7.7986510">
        <ele>379.8</ele>
        <time>2021-07-25T06:04:04Z</time>
      </trkpt>
      <trkpt lat="43.1709880" lon="-7.7986780">
        <ele>380.2</ele>
        <time>2021-07-25T06:04:05Z</time>
      </trkpt>
      <trkpt lat="43.1709790" lon="-7.7987010">
        <ele>380.6</ele>
        <time>2021-07-25T06:04:06Z</time>
      </trkpt>
      <trkpt lat="43.1709680" lon="-7.7987290">
        <ele>381.0</ele>
        <time>2021-07-25T06:04:07Z</time>
      </trkpt>
      <trkpt lat="43.1709500" lon="-7.7987990">
        <ele>381.0</ele>
        <time>2021-07-25T06:04:10Z</time>
      </trkpt>
      <trkpt lat="43.1709280" lon="-7.7988650">
        <ele>381.4</ele>
        <time>2021-07-25T06:04:14Z</time>
      </trkpt>
      <trkpt lat="43.1709170" lon="-7.7988820">
        <ele>381.8</ele>
        <time>2021-07-25T06:04:15Z</time>
      </trkpt>
      <trkpt lat="43.1709100" lon="-7.7988980">
        <ele>382.2</ele>
        <time>2021-07-25T06:04:16Z</time>
      </trkpt>
      <trkpt lat="43.1709020" lon="-7.7989180">
        <ele>382.6</ele>
        <time>2021-07-25T06:04:17Z</time>
      </trkpt>
      <trkpt lat="43.1708940" lon="-7.7989410">
        <ele>383.0</ele>
        <time>2021-07-25T06:04:18Z</time>
      </trkpt>
      <trkpt lat="43.1708450" lon="-7.7990580">
        <ele>383.0</ele>
        <time>2021-07-25T06:04:24Z</time>
      </trkpt>
      <trkpt lat="43.1708260" lon="-7.7990660">
        <ele>383.0</ele>
        <time>2021-07-25T06:04:25Z</time>
      </trkpt>
      <trkpt lat="43.1707540" lon="-7.7990930">
        <ele>383.4</ele>
        <time>2021-07-25T06:04:29Z</time>
      </trkpt>
      <trkpt lat="43.1707370" lon="-7.7991020">
        <ele>383.8</ele>
        <time>2021-07-25T06:04:30Z</time>
      </trkpt>
      <trkpt lat="43.1707190" lon="-7.7991080">
        <ele>384.2</ele>
        <time>2021-07-25T06:04:31Z</time>
      </trkpt>
      <trkpt lat="43.1706980" lon="-7.7991150">
        <ele>384.8</ele>
        <time>2021-07-25T06:04:32Z</time>
      </trkpt>
      <trkpt lat="43.1706800" lon="-7.7991170">
        <ele>385.2</ele>
        <time>2021-07-25T06:04:33Z</time>
      </trkpt>
      <trkpt lat="43.1705500" lon="-7.7991690">
        <ele>385.2</ele>
        <time>2021-07-25T06:04:39Z</time>
      </trkpt>
      <trkpt lat="43.1703930" lon="-7.7992250">
        <ele>385.2</ele>
        <time>2021-07-25T06:04:46Z</time>
      </trkpt>
      <trkpt lat="43.1703450" lon="-7.7992370">
        <ele>385.6</ele>
        <time>2021-07-25T06:04:48Z</time>
      </trkpt>
      <trkpt lat="43.1703250" lon="-7.7992430">
        <ele>386.0</ele>
        <time>2021-07-25T06:04:49Z</time>
      </trkpt>
      <trkpt lat="43.1703050" lon="-7.7992490">
        <ele>386.4</ele>
        <time>2021-07-25T06:04:50Z</time>
      </trkpt>
      <trkpt lat="43.1702870" lon="-7.7992560">
        <ele>386.8</ele>
        <time>2021-07-25T06:04:51Z</time>
      </trkpt>
      <trkpt lat="43.1702690" lon="-7.7992650">
        <ele>387.2</ele>
        <time>2021-07-25T06:04:52Z</time>
      </trkpt>
      <trkpt lat="43.1701700" lon="-7.7993390">
        <ele>387.2</ele>
        <time>2021-07-25T06:04:58Z</time>
      </trkpt>
      <trkpt lat="43.1700620" lon="-7.7994070">
        <ele>387.2</ele>
        <time>2021-07-25T06:05:04Z</time>
      </trkpt>
      <trkpt lat="43.1699600" lon="-7.7994420">
        <ele>387.6</ele>
        <time>2021-07-25T06:05:09Z</time>
      </trkpt>
      <trkpt lat="43.1699440" lon="-7.7994470">
        <ele>388.0</ele>
        <time>2021-07-25T06:05:10Z</time>
      </trkpt>
      <trkpt lat="43.1699300" lon="-7.7994520">
        <ele>388.4</ele>
        <time>2021-07-25T06:05:11Z</time>
      </trkpt>
      <trkpt lat="43.1699060" lon="-7.7994590">
        <ele>388.8</ele>
        <time>2021-07-25T06:05:12Z</time>
      </trkpt>
      <trkpt lat="43.1698850" lon="-7.7994680">
        <ele>389.2</ele>
        <time>2021-07-25T06:05:13Z</time>
      </trkpt>
      <trkpt lat="43.1698070" lon="-7.7995130">
        <ele>389.2</ele>
        <time>2021-07-25T06:05:17Z</time>
      </trkpt>
      <trkpt lat="43.1696560" lon="-7.7995160">
        <ele>389.2</ele>
        <time>2021-07-25T06:05:22Z</time>
      </trkpt>
      <trkpt lat="43.1695430" lon="-7.7994690">
        <ele>389.6</ele>
        <time>2021-07-25T06:05:27Z</time>
      </trkpt>
      <trkpt lat="43.1695250" lon="-7.7994600">
        <ele>390.0</ele>
        <time>2021-07-25T06:05:28Z</time>
      </trkpt>
      <trkpt lat="43.1695050" lon="-7.7994500">
        <ele>390.4</ele>
        <time>2021-07-25T06:05:29Z</time>
      </trkpt>
      <trkpt lat="43.1694850" lon="-7.7994400">
        <ele>391.0</ele>
        <time>2021-07-25T06:05:30Z</time>
      </trkpt>
      <trkpt lat="43.1694630" lon="-7.7994350">
        <ele>391.4</ele>
        <time>2021-07-25T06:05:31Z</time>
      </trkpt>
      <trkpt lat="43.1693870" lon="-7.7994140">
        <ele>391.4</ele>
        <time>2021-07-25T06:05:34Z</time>
      </trkpt>
      <trkpt lat="43.1693290" lon="-7.7993910">
        <ele>391.4</ele>
        <time>2021-07-25T06:05:36Z</time>
      </trkpt>
      <trkpt lat="43.1692210" lon="-7.7994240">
        <ele>391.4</ele>
        <time>2021-07-25T06:05:40Z</time>
      </trkpt>
      <trkpt lat="43.1691950" lon="-7.7994420">
        <ele>391.4</ele>
        <time>2021-07-25T06:05:41Z</time>
      </trkpt>
      <trkpt lat="43.1690790" lon="-7.7995550">
        <ele>391.0</ele>
        <time>2021-07-25T06:05:45Z</time>
      </trkpt>
      <trkpt lat="43.1690500" lon="-7.7995840">
        <ele>390.6</ele>
        <time>2021-07-25T06:05:46Z</time>
      </trkpt>
      <trkpt lat="43.1690190" lon="-7.7996100">
        <ele>389.6</ele>
        <time>2021-07-25T06:05:47Z</time>
      </trkpt>
      <trkpt lat="43.1689900" lon="-7.7996340">
        <ele>389.2</ele>
        <time>2021-07-25T06:05:48Z</time>
      </trkpt>
      <trkpt lat="43.1689340" lon="-7.7996810">
        <ele>389.2</ele>
        <time>2021-07-25T06:05:50Z</time>
      </trkpt>
      <trkpt lat="43.1688510" lon="-7.7997460">
        <ele>389.2</ele>
        <time>2021-07-25T06:05:53Z</time>
      </trkpt>
      <trkpt lat="43.1688000" lon="-7.7997890">
        <ele>388.8</ele>
        <time>2021-07-25T06:05:55Z</time>
      </trkpt>
      <trkpt lat="43.1687750" lon="-7.7998110">
        <ele>388.4</ele>
        <time>2021-07-25T06:05:56Z</time>
      </trkpt>
      <trkpt lat="43.1687530" lon="-7.7998300">
        <ele>388.0</ele>
        <time>2021-07-25T06:05:57Z</time>
      </trkpt>
      <trkpt lat="43.1687250" lon="-7.7998510">
        <ele>387.6</ele>
        <time>2021-07-25T06:05:58Z</time>
      </trkpt>
      <trkpt lat="43.1686980" lon="-7.7998690">
        <ele>387.2</ele>
        <time>2021-07-25T06:05:59Z</time>
      </trkpt>
      <trkpt lat="43.1686200" lon="-7.7999190">
        <ele>387.2</ele>
        <time>2021-07-25T06:06:02Z</time>
      </trkpt>
      <trkpt lat="43.1685320" lon="-7.7999990">
        <ele>387.2</ele>
        <time>2021-07-25T06:06:05Z</time>
      </trkpt>
      <trkpt lat="43.1684680" lon="-7.8000870">
        <ele>387.2</ele>
        <time>2021-07-25T06:06:08Z</time>
      </trkpt>
      <trkpt lat="43.1683190" lon="-7.8003000">
        <ele>387.2</ele>
        <time>2021-07-25T06:06:14Z</time>
      </trkpt>
      <trkpt lat="43.1682890" lon="-7.8003850">
        <ele>386.8</ele>
        <time>2021-07-25T06:06:17Z</time>
      </trkpt>
      <trkpt lat="43.1682740" lon="-7.8004100">
        <ele>386.4</ele>
        <time>2021-07-25T06:06:18Z</time>
      </trkpt>
      <trkpt lat="43.1682530" lon="-7.8004340">
        <ele>385.8</ele>
        <time>2021-07-25T06:06:19Z</time>
      </trkpt>
      <trkpt lat="43.1682320" lon="-7.8004550">
        <ele>385.4</ele>
        <time>2021-07-25T06:06:20Z</time>
      </trkpt>
      <trkpt lat="43.1682110" lon="-7.8004750">
        <ele>385.0</ele>
        <time>2021-07-25T06:06:21Z</time>
      </trkpt>
      <trkpt lat="43.1681540" lon="-7.8005330">
        <ele>385.0</ele>
        <time>2021-07-25T06:06:24Z</time>
      </trkpt>
      <trkpt lat="43.1681210" lon="-7.8005460">
        <ele>385.0</ele>
        <time>2021-07-25T06:06:27Z</time>
      </trkpt>
      <trkpt lat="43.1681050" lon="-7.8005560">
        <ele>385.0</ele>
        <time>2021-07-25T06:06:30Z</time>
      </trkpt>
      <trkpt lat="43.1681030" lon="-7.8005720">
        <ele>385.0</ele>
        <time>2021-07-25T06:06:31Z</time>
      </trkpt>
      <trkpt lat="43.1680820" lon="-7.8007310">
        <ele>385.0</ele>
        <time>2021-07-25T06:09:27Z</time>
      </trkpt>
      <trkpt lat="43.1680230" lon="-7.8008030">
        <ele>385.0</ele>
        <time>2021-07-25T06:09:30Z</time>
      </trkpt>
      <trkpt lat="43.1679580" lon="-7.8008940">
        <ele>384.6</ele>
        <time>2021-07-25T06:09:33Z</time>
      </trkpt>
      <trkpt lat="43.1679350" lon="-7.8009270">
        <ele>384.2</ele>
        <time>2021-07-25T06:09:34Z</time>
      </trkpt>
      <trkpt lat="43.1679090" lon="-7.8009580">
        <ele>383.8</ele>
        <time>2021-07-25T06:09:35Z</time>
      </trkpt>
      <trkpt lat="43.1678800" lon="-7.8009900">
        <ele>383.4</ele>
        <time>2021-07-25T06:09:36Z</time>
      </trkpt>
      <trkpt lat="43.1678550" lon="-7.8010140">
        <ele>383.0</ele>
        <time>2021-07-25T06:09:37Z</time>
      </trkpt>
      <trkpt lat="43.1678010" lon="-7.8011080">
        <ele>383.0</ele>
        <time>2021-07-25T06:09:41Z</time>
      </trkpt>
      <trkpt lat="43.1677930" lon="-7.8011710">
        <ele>383.0</ele>
        <time>2021-07-25T06:09:43Z</time>
      </trkpt>
      <trkpt lat="43.1678010" lon="-7.8012440">
        <ele>383.0</ele>
        <time>2021-07-25T06:09:45Z</time>
      </trkpt>
      <trkpt lat="43.1678110" lon="-7.8013130">
        <ele>383.0</ele>
        <time>2021-07-25T06:09:47Z</time>
      </trkpt>
      <trkpt lat="43.1678250" lon="-7.8013760">
        <ele>383.4</ele>
        <time>2021-07-25T06:09:49Z</time>
      </trkpt>
      <trkpt lat="43.1678370" lon="-7.8014040">
        <ele>383.8</ele>
        <time>2021-07-25T06:09:50Z</time>
      </trkpt>
      <trkpt lat="43.1678480" lon="-7.8014270">
        <ele>384.2</ele>
        <time>2021-07-25T06:09:51Z</time>
      </trkpt>
      <trkpt lat="43.1678580" lon="-7.8014600">
        <ele>384.6</ele>
        <time>2021-07-25T06:09:52Z</time>
      </trkpt>
      <trkpt lat="43.1678670" lon="-7.8014870">
        <ele>385.0</ele>
        <time>2021-07-25T06:09:53Z</time>
      </trkpt>
      <trkpt lat="43.1678740" lon="-7.8015290">
        <ele>385.4</ele>
        <time>2021-07-25T06:09:55Z</time>
      </trkpt>
      <trkpt lat="43.1678710" lon="-7.8015420">
        <ele>385.8</ele>
        <time>2021-07-25T06:09:56Z</time>
      </trkpt>
      <trkpt lat="43.1678770" lon="-7.8016080">
        <ele>387.2</ele>
        <time>2021-07-25T06:10:02Z</time>
      </trkpt>
      <trkpt lat="43.1678880" lon="-7.8016490">
        <ele>387.2</ele>
        <time>2021-07-25T06:10:04Z</time>
      </trkpt>
      <trkpt lat="43.1678920" lon="-7.8017130">
        <ele>387.2</ele>
        <time>2021-07-25T06:10:08Z</time>
      </trkpt>
      <trkpt lat="43.1679000" lon="-7.8017420">
        <ele>387.6</ele>
        <time>2021-07-25T06:10:10Z</time>
      </trkpt>
      <trkpt lat="43.1679030" lon="-7.8017560">
        <ele>388.0</ele>
        <time>2021-07-25T06:10:11Z</time>
      </trkpt>
      <trkpt lat="43.1679060" lon="-7.8017740">
        <ele>388.4</ele>
        <time>2021-07-25T06:10:12Z</time>
      </trkpt>
      <trkpt lat="43.1679120" lon="-7.8017910">
        <ele>388.8</ele>
        <time>2021-07-25T06:10:13Z</time>
      </trkpt>
      <trkpt lat="43.1679180" lon="-7.8018120">
        <ele>389.2</ele>
        <time>2021-07-25T06:10:14Z</time>
      </trkpt>
      <trkpt lat="43.1679300" lon="-7.8018410">
        <ele>389.2</ele>
        <time>2021-07-25T06:10:16Z</time>
      </trkpt>
      <trkpt lat="43.1679370" lon="-7.8019050">
        <ele>389.6</ele>
        <time>2021-07-25T06:10:21Z</time>
      </trkpt>
      <trkpt lat="43.1679380" lon="-7.8019150">
        <ele>390.0</ele>
        <time>2021-07-25T06:10:22Z</time>
      </trkpt>
      <trkpt lat="43.1679430" lon="-7.8019340">
        <ele>390.4</ele>
        <time>2021-07-25T06:10:23Z</time>
      </trkpt>
      <trkpt lat="43.1679440" lon="-7.8019470">
        <ele>390.8</ele>
        <time>2021-07-25T06:10:24Z</time>
      </trkpt>
      <trkpt lat="43.1679460" lon="-7.8019580">
        <ele>391.2</ele>
        <time>2021-07-25T06:10:25Z</time>
      </trkpt>
      <trkpt lat="43.1679610" lon="-7.8020410">
        <ele>391.2</ele>
        <time>2021-07-25T06:10:31Z</time>
      </trkpt>
      <trkpt lat="43.1679630" lon="-7.8021020">
        <ele>391.6</ele>
        <time>2021-07-25T06:10:34Z</time>
      </trkpt>
      <trkpt lat="43.1679610" lon="-7.8021180">
        <ele>392.0</ele>
        <time>2021-07-25T06:10:35Z</time>
      </trkpt>
      <trkpt lat="43.1679590" lon="-7.8021340">
        <ele>392.4</ele>
        <time>2021-07-25T06:10:36Z</time>
      </trkpt>
      <trkpt lat="43.1679570" lon="-7.8021450">
        <ele>392.8</ele>
        <time>2021-07-25T06:10:37Z</time>
      </trkpt>
      <trkpt lat="43.1679580" lon="-7.8021590">
        <ele>393.2</ele>
        <time>2021-07-25T06:10:38Z</time>
      </trkpt>
      <trkpt lat="43.1679440" lon="-7.8022630">
        <ele>393.2</ele>
        <time>2021-07-25T06:10:46Z</time>
      </trkpt>
      <trkpt lat="43.1679120" lon="-7.8023500">
        <ele>393.6</ele>
        <time>2021-07-25T06:10:52Z</time>
      </trkpt>
      <trkpt lat="43.1679050" lon="-7.8023670">
        <ele>394.0</ele>
        <time>2021-07-25T06:10:53Z</time>
      </trkpt>
      <trkpt lat="43.1679020" lon="-7.8023830">
        <ele>394.4</ele>
        <time>2021-07-25T06:10:54Z</time>
      </trkpt>
      <trkpt lat="43.1679010" lon="-7.8023970">
        <ele>395.0</ele>
        <time>2021-07-25T06:10:55Z</time>
      </trkpt>
      <trkpt lat="43.1678950" lon="-7.8024130">
        <ele>395.4</ele>
        <time>2021-07-25T06:10:56Z</time>
      </trkpt>
      <trkpt lat="43.1678810" lon="-7.8024750">
        <ele>395.4</ele>
        <time>2021-07-25T06:11:00Z</time>
      </trkpt>
      <trkpt lat="43.1678410" lon="-7.8026050">
        <ele>395.4</ele>
        <time>2021-07-25T06:11:08Z</time>
      </trkpt>
      <trkpt lat="43.1678000" lon="-7.8027540">
        <ele>395.4</ele>
        <time>2021-07-25T06:11:15Z</time>
      </trkpt>
      <trkpt lat="43.1677910" lon="-7.8028050">
        <ele>395.8</ele>
        <time>2021-07-25T06:11:18Z</time>
      </trkpt>
      <trkpt lat="43.1677910" lon="-7.8028260">
        <ele>396.2</ele>
        <time>2021-07-25T06:11:19Z</time>
      </trkpt>
      <trkpt lat="43.1677870" lon="-7.8028430">
        <ele>396.6</ele>
        <time>2021-07-25T06:11:20Z</time>
      </trkpt>
      <trkpt lat="43.1677790" lon="-7.8028620">
        <ele>397.0</ele>
        <time>2021-07-25T06:11:21Z</time>
      </trkpt>
      <trkpt lat="43.1677680" lon="-7.8028740">
        <ele>397.4</ele>
        <time>2021-07-25T06:11:22Z</time>
      </trkpt>
      <trkpt lat="43.1677580" lon="-7.8028810">
        <ele>397.4</ele>
        <time>2021-07-25T06:11:23Z</time>
      </trkpt>
      <trkpt lat="43.1676990" lon="-7.8030550">
        <ele>397.4</ele>
        <time>2021-07-25T06:11:35Z</time>
      </trkpt>
      <trkpt lat="43.1676780" lon="-7.8031290">
        <ele>397.4</ele>
        <time>2021-07-25T06:11:37Z</time>
      </trkpt>
      <trkpt lat="43.1676310" lon="-7.8033570">
        <ele>397.4</ele>
        <time>2021-07-25T06:11:44Z</time>
      </trkpt>
      <trkpt lat="43.1676300" lon="-7.8035770">
        <ele>397.8</ele>
        <time>2021-07-25T06:11:50Z</time>
      </trkpt>
      <trkpt lat="43.1676340" lon="-7.8036100">
        <ele>398.2</ele>
        <time>2021-07-25T06:11:51Z</time>
      </trkpt>
      <trkpt lat="43.1676330" lon="-7.8036450">
        <ele>398.6</ele>
        <time>2021-07-25T06:11:52Z</time>
      </trkpt>
      <trkpt lat="43.1676350" lon="-7.8036790">
        <ele>399.0</ele>
        <time>2021-07-25T06:11:53Z</time>
      </trkpt>
      <trkpt lat="43.1676330" lon="-7.8037170">
        <ele>399.4</ele>
        <time>2021-07-25T06:11:54Z</time>
      </trkpt>
      <trkpt lat="43.1676510" lon="-7.8038610">
        <ele>399.4</ele>
        <time>2021-07-25T06:11:58Z</time>
      </trkpt>
      <trkpt lat="43.1677060" lon="-7.8040680">
        <ele>399.4</ele>
        <time>2021-07-25T06:12:04Z</time>
      </trkpt>
      <trkpt lat="43.1677720" lon="-7.8042580">
        <ele>399.8</ele>
        <time>2021-07-25T06:12:10Z</time>
      </trkpt>
      <trkpt lat="43.1677790" lon="-7.8042880">
        <ele>400.2</ele>
        <time>2021-07-25T06:12:11Z</time>
      </trkpt>
      <trkpt lat="43.1677870" lon="-7.8043170">
        <ele>400.6</ele>
        <time>2021-07-25T06:12:12Z</time>
      </trkpt>
      <trkpt lat="43.1677950" lon="-7.8043470">
        <ele>401.0</ele>
        <time>2021-07-25T06:12:13Z</time>
      </trkpt>
      <trkpt lat="43.1678000" lon="-7.8043790">
        <ele>401.4</ele>
        <time>2021-07-25T06:12:14Z</time>
      </trkpt>
      <trkpt lat="43.1678170" lon="-7.8044780">
        <ele>401.4</ele>
        <time>2021-07-25T06:12:17Z</time>
      </trkpt>
      <trkpt lat="43.1678080" lon="-7.8047060">
        <ele>401.4</ele>
        <time>2021-07-25T06:12:24Z</time>
      </trkpt>
      <trkpt lat="43.1677670" lon="-7.8048310">
        <ele>401.8</ele>
        <time>2021-07-25T06:12:29Z</time>
      </trkpt>
      <trkpt lat="43.1677570" lon="-7.8048620">
        <ele>402.2</ele>
        <time>2021-07-25T06:12:30Z</time>
      </trkpt>
      <trkpt lat="43.1677470" lon="-7.8048940">
        <ele>402.6</ele>
        <time>2021-07-25T06:12:31Z</time>
      </trkpt>
      <trkpt lat="43.1677370" lon="-7.8049220">
        <ele>403.0</ele>
        <time>2021-07-25T06:12:32Z</time>
      </trkpt>
      <trkpt lat="43.1677310" lon="-7.8049510">
        <ele>403.4</ele>
        <time>2021-07-25T06:12:33Z</time>
      </trkpt>
      <trkpt lat="43.1676790" lon="-7.8051290">
        <ele>403.4</ele>
        <time>2021-07-25T06:12:39Z</time>
      </trkpt>
      <trkpt lat="43.1676090" lon="-7.8054090">
        <ele>403.4</ele>
        <time>2021-07-25T06:12:47Z</time>
      </trkpt>
      <trkpt lat="43.1675850" lon="-7.8055670">
        <ele>403.4</ele>
        <time>2021-07-25T06:12:52Z</time>
      </trkpt>
      <trkpt lat="43.1675600" lon="-7.8056220">
        <ele>403.4</ele>
        <time>2021-07-25T06:12:54Z</time>
      </trkpt>
      <trkpt lat="43.1675300" lon="-7.8057480">
        <ele>403.4</ele>
        <time>2021-07-25T06:12:58Z</time>
      </trkpt>
      <trkpt lat="43.1675310" lon="-7.8057850">
        <ele>403.8</ele>
        <time>2021-07-25T06:12:59Z</time>
      </trkpt>
      <trkpt lat="43.1675320" lon="-7.8058210">
        <ele>404.2</ele>
        <time>2021-07-25T06:13:00Z</time>
      </trkpt>
      <trkpt lat="43.1675240" lon="-7.8058700">
        <ele>404.8</ele>
        <time>2021-07-25T06:13:01Z</time>
      </trkpt>
      <trkpt lat="43.1675130" lon="-7.8059220">
        <ele>405.2</ele>
        <time>2021-07-25T06:13:02Z</time>
      </trkpt>
      <trkpt lat="43.1675050" lon="-7.8059640">
        <ele>405.6</ele>
        <time>2021-07-25T06:13:03Z</time>
      </trkpt>
      <trkpt lat="43.1674870" lon="-7.8060430">
        <ele>405.6</ele>
        <time>2021-07-25T06:13:05Z</time>
      </trkpt>
      <trkpt lat="43.1674310" lon="-7.8063370">
        <ele>405.6</ele>
        <time>2021-07-25T06:13:12Z</time>
      </trkpt>
      <trkpt lat="43.1673540" lon="-7.8066240">
        <ele>405.6</ele>
        <time>2021-07-25T06:13:18Z</time>
      </trkpt>
      <trkpt lat="43.1672470" lon="-7.8069620">
        <ele>405.6</ele>
        <time>2021-07-25T06:13:26Z</time>
      </trkpt>
      <trkpt lat="43.1672350" lon="-7.8070010">
        <ele>405.6</ele>
        <time>2021-07-25T06:13:27Z</time>
      </trkpt>
      <trkpt lat="43.1671370" lon="-7.8072060">
        <ele>405.6</ele>
        <time>2021-07-25T06:13:33Z</time>
      </trkpt>
      <trkpt lat="43.1670590" lon="-7.8073650">
        <ele>406.0</ele>
        <time>2021-07-25T06:13:38Z</time>
      </trkpt>
      <trkpt lat="43.1670460" lon="-7.8073960">
        <ele>406.4</ele>
        <time>2021-07-25T06:13:39Z</time>
      </trkpt>
      <trkpt lat="43.1670310" lon="-7.8074250">
        <ele>406.8</ele>
        <time>2021-07-25T06:13:40Z</time>
      </trkpt>
      <trkpt lat="43.1670170" lon="-7.8074570">
        <ele>407.2</ele>
        <time>2021-07-25T06:13:41Z</time>
      </trkpt>
      <trkpt lat="43.1670000" lon="-7.8074860">
        <ele>407.6</ele>
        <time>2021-07-25T06:13:42Z</time>
      </trkpt>
      <trkpt lat="43.1668910" lon="-7.8076440">
        <ele>407.6</ele>
        <time>2021-07-25T06:13:48Z</time>
      </trkpt>
      <trkpt lat="43.1668210" lon="-7.8077120">
        <ele>408.0</ele>
        <time>2021-07-25T06:13:51Z</time>
      </trkpt>
      <trkpt lat="43.1667970" lon="-7.8077370">
        <ele>408.4</ele>
        <time>2021-07-25T06:13:52Z</time>
      </trkpt>
      <trkpt lat="43.1667720" lon="-7.8077600">
        <ele>408.8</ele>
        <time>2021-07-25T06:13:53Z</time>
      </trkpt>
      <trkpt lat="43.1667510" lon="-7.8077820">
        <ele>409.4</ele>
        <time>2021-07-25T06:13:54Z</time>
      </trkpt>
      <trkpt lat="43.1667250" lon="-7.8078030">
        <ele>409.8</ele>
        <time>2021-07-25T06:13:55Z</time>
      </trkpt>
      <trkpt lat="43.1666800" lon="-7.8078530">
        <ele>409.8</ele>
        <time>2021-07-25T06:13:57Z</time>
      </trkpt>
      <trkpt lat="43.1665710" lon="-7.8080520">
        <ele>409.8</ele>
        <time>2021-07-25T06:14:04Z</time>
      </trkpt>
      <trkpt lat="43.1665530" lon="-7.8081060">
        <ele>410.2</ele>
        <time>2021-07-25T06:14:06Z</time>
      </trkpt>
      <trkpt lat="43.1665440" lon="-7.8081370">
        <ele>410.6</ele>
        <time>2021-07-25T06:14:07Z</time>
      </trkpt>
      <trkpt lat="43.1665320" lon="-7.8081680">
        <ele>411.0</ele>
        <time>2021-07-25T06:14:08Z</time>
      </trkpt>
      <trkpt lat="43.1665150" lon="-7.8082020">
        <ele>411.4</ele>
        <time>2021-07-25T06:14:09Z</time>
      </trkpt>
      <trkpt lat="43.1665020" lon="-7.8082330">
        <ele>411.8</ele>
        <time>2021-07-25T06:14:10Z</time>
      </trkpt>
      <trkpt lat="43.1664310" lon="-7.8084000">
        <ele>412.2</ele>
        <time>2021-07-25T06:14:16Z</time>
      </trkpt>
      <trkpt lat="43.1664180" lon="-7.8084240">
        <ele>412.6</ele>
        <time>2021-07-25T06:14:17Z</time>
      </trkpt>
      <trkpt lat="43.1664040" lon="-7.8084510">
        <ele>413.0</ele>
        <time>2021-07-25T06:14:18Z</time>
      </trkpt>
      <trkpt lat="43.1663910" lon="-7.8084780">
        <ele>413.4</ele>
        <time>2021-07-25T06:14:19Z</time>
      </trkpt>
      <trkpt lat="43.1663790" lon="-7.8084990">
        <ele>414.0</ele>
        <time>2021-07-25T06:14:20Z</time>
      </trkpt>
      <trkpt lat="43.1663590" lon="-7.8085460">
        <ele>414.0</ele>
        <time>2021-07-25T06:14:22Z</time>
      </trkpt>
      <trkpt lat="43.1662990" lon="-7.8086840">
        <ele>414.0</ele>
        <time>2021-07-25T06:14:28Z</time>
      </trkpt>
      <trkpt lat="43.1662830" lon="-7.8088450">
        <ele>414.0</ele>
        <time>2021-07-25T06:14:34Z</time>
      </trkpt>
      <trkpt lat="43.1662820" lon="-7.8088680">
        <ele>414.0</ele>
        <time>2021-07-25T06:14:35Z</time>
      </trkpt>
      <trkpt lat="43.1662680" lon="-7.8089310">
        <ele>414.0</ele>
        <time>2021-07-25T06:14:38Z</time>
      </trkpt>
      <trkpt lat="43.1662480" lon="-7.8089770">
        <ele>414.0</ele>
        <time>2021-07-25T06:14:40Z</time>
      </trkpt>
      <trkpt lat="43.1662430" lon="-7.8090040">
        <ele>414.0</ele>
        <time>2021-07-25T06:14:41Z</time>
      </trkpt>
      <trkpt lat="43.1662270" lon="-7.8090980">
        <ele>414.0</ele>
        <time>2021-07-25T06:14:44Z</time>
      </trkpt>
      <trkpt lat="43.1662260" lon="-7.8091630">
        <ele>414.0</ele>
        <time>2021-07-25T06:14:46Z</time>
      </trkpt>
      <trkpt lat="43.1662190" lon="-7.8092340">
        <ele>414.0</ele>
        <time>2021-07-25T06:14:48Z</time>
      </trkpt>
      <trkpt lat="43.1662060" lon="-7.8092970">
        <ele>414.0</ele>
        <time>2021-07-25T06:14:50Z</time>
      </trkpt>
      <trkpt lat="43.1661940" lon="-7.8093760">
        <ele>414.0</ele>
        <time>2021-07-25T06:14:53Z</time>
      </trkpt>
      <trkpt lat="43.1661740" lon="-7.8093790">
        <ele>414.0</ele>
        <time>2021-07-25T06:14:55Z</time>
      </trkpt>
      <trkpt lat="43.1661690" lon="-7.8094050">
        <ele>414.0</ele>
        <time>2021-07-25T06:16:05Z</time>
      </trkpt>
      <trkpt lat="43.1661610" lon="-7.8094260">
        <ele>414.0</ele>
        <time>2021-07-25T06:16:06Z</time>
      </trkpt>
      <trkpt lat="43.1661460" lon="-7.8094790">
        <ele>414.0</ele>
        <time>2021-07-25T06:16:08Z</time>
      </trkpt>
      <trkpt lat="43.1661330" lon="-7.8095550">
        <ele>414.0</ele>
        <time>2021-07-25T06:16:10Z</time>
      </trkpt>
      <trkpt lat="43.1661080" lon="-7.8096940">
        <ele>414.0</ele>
        <time>2021-07-25T06:16:13Z</time>
      </trkpt>
      <trkpt lat="43.1661000" lon="-7.8097370">
        <ele>414.0</ele>
        <time>2021-07-25T06:16:14Z</time>
      </trkpt>
      <trkpt lat="43.1660250" lon="-7.8100060">
        <ele>414.0</ele>
        <time>2021-07-25T06:16:21Z</time>
      </trkpt>
      <trkpt lat="43.1659360" lon="-7.8101860">
        <ele>414.0</ele>
        <time>2021-07-25T06:16:27Z</time>
      </trkpt>
      <trkpt lat="43.1658370" lon="-7.8102820">
        <ele>414.0</ele>
        <time>2021-07-25T06:16:31Z</time>
      </trkpt>
      <trkpt lat="43.1657650" lon="-7.8103540">
        <ele>414.0</ele>
        <time>2021-07-25T06:16:34Z</time>
      </trkpt>
      <trkpt lat="43.1656220" lon="-7.8105080">
        <ele>414.0</ele>
        <time>2021-07-25T06:16:41Z</time>
      </trkpt>
      <trkpt lat="43.1654710" lon="-7.8106730">
        <ele>414.0</ele>
        <time>2021-07-25T06:16:48Z</time>
      </trkpt>
      <trkpt lat="43.1653360" lon="-7.8108030">
        <ele>414.0</ele>
        <time>2021-07-25T06:16:55Z</time>
      </trkpt>
      <trkpt lat="43.1651730" lon="-7.8109790">
        <ele>414.4</ele>
        <time>2021-07-25T06:17:03Z</time>
      </trkpt>
      <trkpt lat="43.1651560" lon="-7.8109990">
        <ele>414.8</ele>
        <time>2021-07-25T06:17:04Z</time>
      </trkpt>
      <trkpt lat="43.1651380" lon="-7.8110150">
        <ele>415.2</ele>
        <time>2021-07-25T06:17:05Z</time>
      </trkpt>
      <trkpt lat="43.1651160" lon="-7.8110310">
        <ele>415.6</ele>
        <time>2021-07-25T06:17:06Z</time>
      </trkpt>
      <trkpt lat="43.1650950" lon="-7.8110500">
        <ele>416.0</ele>
        <time>2021-07-25T06:17:07Z</time>
      </trkpt>
      <trkpt lat="43.1650270" lon="-7.8111030">
        <ele>416.0</ele>
        <time>2021-07-25T06:17:10Z</time>
      </trkpt>
      <trkpt lat="43.1648480" lon="-7.8112590">
        <ele>416.0</ele>
        <time>2021-07-25T06:17:16Z</time>
      </trkpt>
      <trkpt lat="43.1646940" lon="-7.8113930">
        <ele>416.0</ele>
        <time>2021-07-25T06:17:20Z</time>
      </trkpt>
      <trkpt lat="43.1646040" lon="-7.8114620">
        <ele>416.0</ele>
        <time>2021-07-25T06:17:22Z</time>
      </trkpt>
      <trkpt lat="43.1645130" lon="-7.8115380">
        <ele>416.0</ele>
        <time>2021-07-25T06:17:24Z</time>
      </trkpt>
      <trkpt lat="43.1644340" lon="-7.8116630">
        <ele>416.0</ele>
        <time>2021-07-25T06:17:26Z</time>
      </trkpt>
      <trkpt lat="43.1643520" lon="-7.8117980">
        <ele>415.4</ele>
        <time>2021-07-25T06:17:28Z</time>
      </trkpt>
      <trkpt lat="43.1643070" lon="-7.8118510">
        <ele>415.0</ele>
        <time>2021-07-25T06:17:29Z</time>
      </trkpt>
      <trkpt lat="43.1642620" lon="-7.8118930">
        <ele>414.6</ele>
        <time>2021-07-25T06:17:30Z</time>
      </trkpt>
      <trkpt lat="43.1642180" lon="-7.8119260">
        <ele>414.2</ele>
        <time>2021-07-25T06:17:31Z</time>
      </trkpt>
      <trkpt lat="43.1641800" lon="-7.8119500">
        <ele>413.8</ele>
        <time>2021-07-25T06:17:32Z</time>
      </trkpt>
      <trkpt lat="43.1641300" lon="-7.8119670">
        <ele>413.8</ele>
        <time>2021-07-25T06:17:34Z</time>
      </trkpt>
      <trkpt lat="43.1641020" lon="-7.8119790">
        <ele>413.8</ele>
        <time>2021-07-25T06:17:36Z</time>
      </trkpt>
      <trkpt lat="43.1640690" lon="-7.8119990">
        <ele>413.8</ele>
        <time>2021-07-25T06:17:39Z</time>
      </trkpt>
      <trkpt lat="43.1640530" lon="-7.8120020">
        <ele>413.8</ele>
        <time>2021-07-25T06:17:40Z</time>
      </trkpt>
      <trkpt lat="43.1640260" lon="-7.8120000">
        <ele>413.8</ele>
        <time>2021-07-25T06:17:43Z</time>
      </trkpt>
      <trkpt lat="43.1639880" lon="-7.8118640">
        <ele>411.8</ele>
        <time>2021-07-25T06:30:57Z</time>
      </trkpt>
      <trkpt lat="43.1639810" lon="-7.8118510">
        <ele>411.8</ele>
        <time>2021-07-25T06:30:58Z</time>
      </trkpt>
      <trkpt lat="43.1639560" lon="-7.8118200">
        <ele>411.8</ele>
        <time>2021-07-25T06:31:00Z</time>
      </trkpt>
      <trkpt lat="43.1639110" lon="-7.8117790">
        <ele>411.8</ele>
        <time>2021-07-25T06:31:03Z</time>
      </trkpt>
      <trkpt lat="43.1638800" lon="-7.8117540">
        <ele>411.8</ele>
        <time>2021-07-25T06:31:05Z</time>
      </trkpt>
      <trkpt lat="43.1638470" lon="-7.8117370">
        <ele>411.8</ele>
        <time>2021-07-25T06:31:07Z</time>
      </trkpt>
      <trkpt lat="43.1638010" lon="-7.8116990">
        <ele>412.2</ele>
        <time>2021-07-25T06:31:10Z</time>
      </trkpt>
      <trkpt lat="43.1637900" lon="-7.8116830">
        <ele>412.6</ele>
        <time>2021-07-25T06:31:11Z</time>
      </trkpt>
      <trkpt lat="43.1637730" lon="-7.8116740">
        <ele>413.0</ele>
        <time>2021-07-25T06:31:12Z</time>
      </trkpt>
      <trkpt lat="43.1637570" lon="-7.8116600">
        <ele>413.4</ele>
        <time>2021-07-25T06:31:13Z</time>
      </trkpt>
      <trkpt lat="43.1637420" lon="-7.8116500">
        <ele>413.8</ele>
        <time>2021-07-25T06:31:14Z</time>
      </trkpt>
      <trkpt lat="43.1636910" lon="-7.8116070">
        <ele>413.8</ele>
        <time>2021-07-25T06:31:18Z</time>
      </trkpt>
      <trkpt lat="43.1636650" lon="-7.8115900">
        <ele>413.8</ele>
        <time>2021-07-25T06:31:20Z</time>
      </trkpt>
      <trkpt lat="43.1636370" lon="-7.8115720">
        <ele>414.2</ele>
        <time>2021-07-25T06:31:22Z</time>
      </trkpt>
      <trkpt lat="43.1636190" lon="-7.8115640">
        <ele>414.6</ele>
        <time>2021-07-25T06:31:23Z</time>
      </trkpt>
      <trkpt lat="43.1636020" lon="-7.8115530">
        <ele>415.0</ele>
        <time>2021-07-25T06:31:24Z</time>
      </trkpt>
      <trkpt lat="43.1635850" lon="-7.8115400">
        <ele>415.4</ele>
        <time>2021-07-25T06:31:25Z</time>
      </trkpt>
      <trkpt lat="43.1635700" lon="-7.8115310">
        <ele>415.8</ele>
        <time>2021-07-25T06:31:26Z</time>
      </trkpt>
      <trkpt lat="43.1635380" lon="-7.8115180">
        <ele>415.8</ele>
        <time>2021-07-25T06:31:28Z</time>
      </trkpt>
      <trkpt lat="43.1634790" lon="-7.8114910">
        <ele>415.8</ele>
        <time>2021-07-25T06:31:32Z</time>
      </trkpt>
      <trkpt lat="43.1634470" lon="-7.8114830">
        <ele>416.2</ele>
        <time>2021-07-25T06:31:34Z</time>
      </trkpt>
      <trkpt lat="43.1634290" lon="-7.8114760">
        <ele>416.6</ele>
        <time>2021-07-25T06:31:35Z</time>
      </trkpt>
      <trkpt lat="43.1634110" lon="-7.8114680">
        <ele>417.0</ele>
        <time>2021-07-25T06:31:36Z</time>
      </trkpt>
      <trkpt lat="43.1633970" lon="-7.8114610">
        <ele>417.4</ele>
        <time>2021-07-25T06:31:37Z</time>
      </trkpt>
      <trkpt lat="43.1633840" lon="-7.8114560">
        <ele>417.8</ele>
        <time>2021-07-25T06:31:38Z</time>
      </trkpt>
      <trkpt lat="43.1632850" lon="-7.8114240">
        <ele>417.8</ele>
        <time>2021-07-25T06:31:44Z</time>
      </trkpt>
      <trkpt lat="43.1632370" lon="-7.8114090">
        <ele>418.2</ele>
        <time>2021-07-25T06:31:47Z</time>
      </trkpt>
      <trkpt lat="43.1632230" lon="-7.8114010">
        <ele>418.6</ele>
        <time>2021-07-25T06:31:48Z</time>
      </trkpt>
      <trkpt lat="43.1632030" lon="-7.8113970">
        <ele>419.0</ele>
        <time>2021-07-25T06:31:49Z</time>
      </trkpt>
      <trkpt lat="43.1631850" lon="-7.8113910">
        <ele>419.4</ele>
        <time>2021-07-25T06:31:50Z</time>
      </trkpt>
      <trkpt lat="43.1631660" lon="-7.8113800">
        <ele>419.8</ele>
        <time>2021-07-25T06:31:51Z</time>
      </trkpt>
      <trkpt lat="43.1631370" lon="-7.8113610">
        <ele>419.8</ele>
        <time>2021-07-25T06:31:53Z</time>
      </trkpt>
      <trkpt lat="43.1630150" lon="-7.8113310">
        <ele>419.8</ele>
        <time>2021-07-25T06:32:00Z</time>
      </trkpt>
      <trkpt lat="43.1629570" lon="-7.8113130">
        <ele>420.2</ele>
        <time>2021-07-25T06:32:03Z</time>
      </trkpt>
      <trkpt lat="43.1629400" lon="-7.8113080">
        <ele>420.6</ele>
        <time>2021-07-25T06:32:04Z</time>
      </trkpt>
      <trkpt lat="43.1629200" lon="-7.8113110">
        <ele>421.0</ele>
        <time>2021-07-25T06:32:05Z</time>
      </trkpt>
      <trkpt lat="43.1629000" lon="-7.8113100">
        <ele>421.6</ele>
        <time>2021-07-25T06:32:06Z</time>
      </trkpt>
      <trkpt lat="43.1628790" lon="-7.8113050">
        <ele>422.0</ele>
        <time>2021-07-25T06:32:07Z</time>
      </trkpt>
      <trkpt lat="43.1626630" lon="-7.8112360">
        <ele>422.0</ele>
        <time>2021-07-25T06:32:16Z</time>
      </trkpt>
      <trkpt lat="43.1624510" lon="-7.8111610">
        <ele>422.0</ele>
        <time>2021-07-25T06:32:24Z</time>
      </trkpt>
      <trkpt lat="43.1624220" lon="-7.8111520">
        <ele>422.0</ele>
        <time>2021-07-25T06:32:25Z</time>
      </trkpt>
      <trkpt lat="43.1623300" lon="-7.8111250">
        <ele>422.0</ele>
        <time>2021-07-25T06:32:28Z</time>
      </trkpt>
      <trkpt lat="43.1622690" lon="-7.8111080">
        <ele>422.0</ele>
        <time>2021-07-25T06:32:30Z</time>
      </trkpt>
      <trkpt lat="43.1621770" lon="-7.8110790">
        <ele>422.0</ele>
        <time>2021-07-25T06:32:33Z</time>
      </trkpt>
      <trkpt lat="43.1620500" lon="-7.8110300">
        <ele>422.0</ele>
        <time>2021-07-25T06:32:37Z</time>
      </trkpt>
      <trkpt lat="43.1619590" lon="-7.8109910">
        <ele>422.0</ele>
        <time>2021-07-25T06:32:40Z</time>
      </trkpt>
      <trkpt lat="43.1619300" lon="-7.8109750">
        <ele>422.0</ele>
        <time>2021-07-25T06:32:41Z</time>
      </trkpt>
      <trkpt lat="43.1618680" lon="-7.8109460">
        <ele>422.0</ele>
        <time>2021-07-25T06:32:43Z</time>
      </trkpt>
      <trkpt lat="43.1618130" lon="-7.8109140">
        <ele>422.0</ele>
        <time>2021-07-25T06:32:45Z</time>
      </trkpt>
      <trkpt lat="43.1617100" lon="-7.8108580">
        <ele>422.0</ele>
        <time>2021-07-25T06:32:49Z</time>
      </trkpt>
      <trkpt lat="43.1615360" lon="-7.8108620">
        <ele>422.0</ele>
        <time>2021-07-25T06:32:55Z</time>
      </trkpt>
      <trkpt lat="43.1613030" lon="-7.8110060">
        <ele>422.0</ele>
        <time>2021-07-25T06:33:01Z</time>
      </trkpt>
      <trkpt lat="43.1609830" lon="-7.8111940">
        <ele>422.0</ele>
        <time>2021-07-25T06:33:08Z</time>
      </trkpt>
      <trkpt lat="43.1609350" lon="-7.8112140">
        <ele>422.0</ele>
        <time>2021-07-25T06:33:09Z</time>
      </trkpt>
      <trkpt lat="43.1608460" lon="-7.8112570">
        <ele>422.0</ele>
        <time>2021-07-25T06:33:11Z</time>
      </trkpt>
      <trkpt lat="43.1606640" lon="-7.8113620">
        <ele>421.6</ele>
        <time>2021-07-25T06:33:15Z</time>
      </trkpt>
      <trkpt lat="43.1606150" lon="-7.8113860">
        <ele>421.2</ele>
        <time>2021-07-25T06:33:16Z</time>
      </trkpt>
      <trkpt lat="43.1605660" lon="-7.8114080">
        <ele>420.8</ele>
        <time>2021-07-25T06:33:17Z</time>
      </trkpt>
      <trkpt lat="43.1605160" lon="-7.8114300">
        <ele>420.4</ele>
        <time>2021-07-25T06:33:18Z</time>
      </trkpt>
      <trkpt lat="43.1604620" lon="-7.8114540">
        <ele>420.0</ele>
        <time>2021-07-25T06:33:19Z</time>
      </trkpt>
      <trkpt lat="43.1604080" lon="-7.8114690">
        <ele>420.0</ele>
        <time>2021-07-25T06:33:20Z</time>
      </trkpt>
      <trkpt lat="43.1603550" lon="-7.8114740">
        <ele>420.0</ele>
        <time>2021-07-25T06:33:21Z</time>
      </trkpt>
      <trkpt lat="43.1601980" lon="-7.8114470">
        <ele>420.0</ele>
        <time>2021-07-25T06:33:24Z</time>
      </trkpt>
      <trkpt lat="43.1601030" lon="-7.8114060">
        <ele>420.0</ele>
        <time>2021-07-25T06:33:26Z</time>
      </trkpt>
      <trkpt lat="43.1598620" lon="-7.8113170">
        <ele>420.0</ele>
        <time>2021-07-25T06:33:31Z</time>
      </trkpt>
      <trkpt lat="43.1597630" lon="-7.8112830">
        <ele>419.6</ele>
        <time>2021-07-25T06:33:33Z</time>
      </trkpt>
      <trkpt lat="43.1597190" lon="-7.8112690">
        <ele>419.2</ele>
        <time>2021-07-25T06:33:34Z</time>
      </trkpt>
      <trkpt lat="43.1596730" lon="-7.8112530">
        <ele>418.6</ele>
        <time>2021-07-25T06:33:35Z</time>
      </trkpt>
      <trkpt lat="43.1596260" lon="-7.8112380">
        <ele>418.2</ele>
        <time>2021-07-25T06:33:36Z</time>
      </trkpt>
      <trkpt lat="43.1595810" lon="-7.8112190">
        <ele>417.8</ele>
        <time>2021-07-25T06:33:37Z</time>
      </trkpt>
      <trkpt lat="43.1593130" lon="-7.8111330">
        <ele>417.8</ele>
        <time>2021-07-25T06:33:43Z</time>
      </trkpt>
      <trkpt lat="43.1592340" lon="-7.8111130">
        <ele>417.8</ele>
        <time>2021-07-25T06:33:45Z</time>
      </trkpt>
      <trkpt lat="43.1591200" lon="-7.8110930">
        <ele>417.8</ele>
        <time>2021-07-25T06:33:48Z</time>
      </trkpt>
      <trkpt lat="43.1590490" lon="-7.8110890">
        <ele>417.8</ele>
        <time>2021-07-25T06:33:50Z</time>
      </trkpt>
      <trkpt lat="43.1589410" lon="-7.8110920">
        <ele>417.8</ele>
        <time>2021-07-25T06:33:53Z</time>
      </trkpt>
      <trkpt lat="43.1588450" lon="-7.8111010">
        <ele>418.2</ele>
        <time>2021-07-25T06:33:56Z</time>
      </trkpt>
      <trkpt lat="43.1588120" lon="-7.8111060">
        <ele>418.8</ele>
        <time>2021-07-25T06:33:57Z</time>
      </trkpt>
      <trkpt lat="43.1587770" lon="-7.8111120">
        <ele>419.2</ele>
        <time>2021-07-25T06:33:58Z</time>
      </trkpt>
      <trkpt lat="43.1587450" lon="-7.8111130">
        <ele>419.6</ele>
        <time>2021-07-25T06:33:59Z</time>
      </trkpt>
      <trkpt lat="43.1587120" lon="-7.8111140">
        <ele>420.0</ele>
        <time>2021-07-25T06:34:00Z</time>
      </trkpt>
      <trkpt lat="43.1586410" lon="-7.8111180">
        <ele>420.0</ele>
        <time>2021-07-25T06:34:02Z</time>
      </trkpt>
      <trkpt lat="43.1585700" lon="-7.8111230">
        <ele>420.0</ele>
        <time>2021-07-25T06:34:04Z</time>
      </trkpt>
      <trkpt lat="43.1584670" lon="-7.8111240">
        <ele>420.0</ele>
        <time>2021-07-25T06:34:07Z</time>
      </trkpt>
      <trkpt lat="43.1583130" lon="-7.8111250">
        <ele>420.0</ele>
        <time>2021-07-25T06:34:12Z</time>
      </trkpt>
      <trkpt lat="43.1581650" lon="-7.8111500">
        <ele>420.0</ele>
        <time>2021-07-25T06:34:18Z</time>
      </trkpt>
      <trkpt lat="43.1579450" lon="-7.8112170">
        <ele>420.0</ele>
        <time>2021-07-25T06:34:24Z</time>
      </trkpt>
      <trkpt lat="43.1578650" lon="-7.8112380">
        <ele>420.4</ele>
        <time>2021-07-25T06:34:26Z</time>
      </trkpt>
      <trkpt lat="43.1578250" lon="-7.8112470">
        <ele>420.8</ele>
        <time>2021-07-25T06:34:27Z</time>
      </trkpt>
      <trkpt lat="43.1577810" lon="-7.8112560">
        <ele>421.2</ele>
        <time>2021-07-25T06:34:28Z</time>
      </trkpt>
      <trkpt lat="43.1577420" lon="-7.8112640">
        <ele>421.6</ele>
        <time>2021-07-25T06:34:29Z</time>
      </trkpt>
      <trkpt lat="43.1577020" lon="-7.8112720">
        <ele>422.0</ele>
        <time>2021-07-25T06:34:30Z</time>
      </trkpt>
      <trkpt lat="43.1576190" lon="-7.8112870">
        <ele>422.0</ele>
        <time>2021-07-25T06:34:32Z</time>
      </trkpt>
      <trkpt lat="43.1574920" lon="-7.8113100">
        <ele>422.0</ele>
        <time>2021-07-25T06:34:35Z</time>
      </trkpt>
      <trkpt lat="43.1573270" lon="-7.8113480">
        <ele>422.0</ele>
        <time>2021-07-25T06:34:39Z</time>
      </trkpt>
      <trkpt lat="43.1572890" lon="-7.8113610">
        <ele>422.0</ele>
        <time>2021-07-25T06:34:40Z</time>
      </trkpt>
      <trkpt lat="43.1571790" lon="-7.8113850">
        <ele>422.0</ele>
        <time>2021-07-25T06:34:43Z</time>
      </trkpt>
      <trkpt lat="43.1570420" lon="-7.8114050">
        <ele>422.0</ele>
        <time>2021-07-25T06:34:47Z</time>
      </trkpt>
      <trkpt lat="43.1568880" lon="-7.8115430">
        <ele>422.0</ele>
        <time>2021-07-25T06:34:52Z</time>
      </trkpt>
      <trkpt lat="43.1567520" lon="-7.8117250">
        <ele>422.0</ele>
        <time>2021-07-25T06:34:57Z</time>
      </trkpt>
      <trkpt lat="43.1566840" lon="-7.8117860">
        <ele>422.0</ele>
        <time>2021-07-25T06:34:59Z</time>
      </trkpt>
      <trkpt lat="43.1566440" lon="-7.8118070">
        <ele>422.0</ele>
        <time>2021-07-25T06:35:00Z</time>
      </trkpt>
      <trkpt lat="43.1564100" lon="-7.8119270">
        <ele>422.0</ele>
        <time>2021-07-25T06:35:06Z</time>
      </trkpt>
      <trkpt lat="43.1563320" lon="-7.8119670">
        <ele>422.0</ele>
        <time>2021-07-25T06:35:08Z</time>
      </trkpt>
      <trkpt lat="43.1561940" lon="-7.8120600">
        <ele>422.0</ele>
        <time>2021-07-25T06:35:12Z</time>
      </trkpt>
      <trkpt lat="43.1559870" lon="-7.8122180">
        <ele>422.0</ele>
        <time>2021-07-25T06:35:19Z</time>
      </trkpt>
      <trkpt lat="43.1558470" lon="-7.8123700">
        <ele>422.0</ele>
        <time>2021-07-25T06:35:24Z</time>
      </trkpt>
      <trkpt lat="43.1556680" lon="-7.8126050">
        <ele>422.0</ele>
        <time>2021-07-25T06:35:30Z</time>
      </trkpt>
      <trkpt lat="43.1555660" lon="-7.8127050">
        <ele>422.0</ele>
        <time>2021-07-25T06:35:33Z</time>
      </trkpt>
      <trkpt lat="43.1554480" lon="-7.8128160">
        <ele>422.0</ele>
        <time>2021-07-25T06:35:36Z</time>
      </trkpt>
      <trkpt lat="43.1552560" lon="-7.8130260">
        <ele>422.0</ele>
        <time>2021-07-25T06:35:41Z</time>
      </trkpt>
      <trkpt lat="43.1550520" lon="-7.8131970">
        <ele>422.0</ele>
        <time>2021-07-25T06:35:46Z</time>
      </trkpt>
      <trkpt lat="43.1550150" lon="-7.8132310">
        <ele>422.0</ele>
        <time>2021-07-25T06:35:47Z</time>
      </trkpt>
      <trkpt lat="43.1547100" lon="-7.8134710">
        <ele>422.0</ele>
        <time>2021-07-25T06:35:55Z</time>
      </trkpt>
      <trkpt lat="43.1545180" lon="-7.8136330">
        <ele>422.0</ele>
        <time>2021-07-25T06:36:00Z</time>
      </trkpt>
      <trkpt lat="43.1543380" lon="-7.8137790">
        <ele>422.0</ele>
        <time>2021-07-25T06:36:05Z</time>
      </trkpt>
      <trkpt lat="43.1542970" lon="-7.8138160">
        <ele>422.0</ele>
        <time>2021-07-25T06:36:06Z</time>
      </trkpt>
      <trkpt lat="43.1540890" lon="-7.8140330">
        <ele>422.0</ele>
        <time>2021-07-25T06:36:12Z</time>
      </trkpt>
      <trkpt lat="43.1540140" lon="-7.8141990">
        <ele>422.0</ele>
        <time>2021-07-25T06:36:16Z</time>
      </trkpt>
      <trkpt lat="43.1539960" lon="-7.8142430">
        <ele>422.0</ele>
        <time>2021-07-25T06:36:17Z</time>
      </trkpt>
      <trkpt lat="43.1538890" lon="-7.8145630">
        <ele>422.0</ele>
        <time>2021-07-25T06:36:24Z</time>
      </trkpt>
      <trkpt lat="43.1537260" lon="-7.8148470">
        <ele>422.0</ele>
        <time>2021-07-25T06:36:31Z</time>
      </trkpt>
      <trkpt lat="43.1536420" lon="-7.8149260">
        <ele>422.0</ele>
        <time>2021-07-25T06:36:34Z</time>
      </trkpt>
      <trkpt lat="43.1536140" lon="-7.8149370">
        <ele>422.0</ele>
        <time>2021-07-25T06:36:35Z</time>
      </trkpt>
      <trkpt lat="43.1534500" lon="-7.8149560">
        <ele>422.0</ele>
        <time>2021-07-25T06:36:40Z</time>
      </trkpt>
      <trkpt lat="43.1533130" lon="-7.8149410">
        <ele>422.0</ele>
        <time>2021-07-25T06:36:45Z</time>
      </trkpt>
      <trkpt lat="43.1532430" lon="-7.8149420">
        <ele>422.4</ele>
        <time>2021-07-25T06:36:47Z</time>
      </trkpt>
      <trkpt lat="43.1532070" lon="-7.8149490">
        <ele>422.8</ele>
        <time>2021-07-25T06:36:48Z</time>
      </trkpt>
      <trkpt lat="43.1531690" lon="-7.8149530">
        <ele>423.2</ele>
        <time>2021-07-25T06:36:49Z</time>
      </trkpt>
      <trkpt lat="43.1531340" lon="-7.8149550">
        <ele>423.6</ele>
        <time>2021-07-25T06:36:50Z</time>
      </trkpt>
      <trkpt lat="43.1531010" lon="-7.8149590">
        <ele>424.0</ele>
        <time>2021-07-25T06:36:51Z</time>
      </trkpt>
      <trkpt lat="43.1530610" lon="-7.8149600">
        <ele>424.0</ele>
        <time>2021-07-25T06:36:52Z</time>
      </trkpt>
      <trkpt lat="43.1528360" lon="-7.8149350">
        <ele>424.0</ele>
        <time>2021-07-25T06:36:57Z</time>
      </trkpt>
      <trkpt lat="43.1525740" lon="-7.8149270">
        <ele>424.0</ele>
        <time>2021-07-25T06:37:03Z</time>
      </trkpt>
      <trkpt lat="43.1522960" lon="-7.8149110">
        <ele>424.0</ele>
        <time>2021-07-25T06:37:09Z</time>
      </trkpt>
      <trkpt lat="43.1522030" lon="-7.8149370">
        <ele>424.0</ele>
        <time>2021-07-25T06:37:11Z</time>
      </trkpt>
      <trkpt lat="43.1519660" lon="-7.8150440">
        <ele>424.0</ele>
        <time>2021-07-25T06:37:17Z</time>
      </trkpt>
      <trkpt lat="43.1519280" lon="-7.8150640">
        <ele>424.0</ele>
        <time>2021-07-25T06:37:18Z</time>
      </trkpt>
      <trkpt lat="43.1516480" lon="-7.8152420">
        <ele>424.0</ele>
        <time>2021-07-25T06:37:25Z</time>
      </trkpt>
      <trkpt lat="43.1515710" lon="-7.8153010">
        <ele>424.0</ele>
        <time>2021-07-25T06:37:27Z</time>
      </trkpt>
      <trkpt lat="43.1513970" lon="-7.8153850">
        <ele>424.0</ele>
        <time>2021-07-25T06:37:31Z</time>
      </trkpt>
      <trkpt lat="43.1511460" lon="-7.8154670">
        <ele>424.0</ele>
        <time>2021-07-25T06:37:37Z</time>
      </trkpt>
      <trkpt lat="43.1511070" lon="-7.8154810">
        <ele>424.0</ele>
        <time>2021-07-25T06:37:38Z</time>
      </trkpt>
      <trkpt lat="43.1509890" lon="-7.8155260">
        <ele>423.6</ele>
        <time>2021-07-25T06:37:41Z</time>
      </trkpt>
      <trkpt lat="43.1509520" lon="-7.8155380">
        <ele>423.2</ele>
        <time>2021-07-25T06:37:42Z</time>
      </trkpt>
      <trkpt lat="43.1509140" lon="-7.8155520">
        <ele>422.8</ele>
        <time>2021-07-25T06:37:43Z</time>
      </trkpt>
      <trkpt lat="43.1508760" lon="-7.8155670">
        <ele>422.4</ele>
        <time>2021-07-25T06:37:44Z</time>
      </trkpt>
      <trkpt lat="43.1508420" lon="-7.8155750">
        <ele>422.0</ele>
        <time>2021-07-25T06:37:45Z</time>
      </trkpt>
      <trkpt lat="43.1507750" lon="-7.8155890">
        <ele>422.0</ele>
        <time>2021-07-25T06:37:47Z</time>
      </trkpt>
      <trkpt lat="43.1506990" lon="-7.8156080">
        <ele>422.0</ele>
        <time>2021-07-25T06:37:49Z</time>
      </trkpt>
      <trkpt lat="43.1505220" lon="-7.8156890">
        <ele>422.0</ele>
        <time>2021-07-25T06:37:54Z</time>
      </trkpt>
      <trkpt lat="43.1504390" lon="-7.8157110">
        <ele>422.0</ele>
        <time>2021-07-25T06:37:56Z</time>
      </trkpt>
      <trkpt lat="43.1503560" lon="-7.8157260">
        <ele>422.0</ele>
        <time>2021-07-25T06:37:58Z</time>
      </trkpt>
      <trkpt lat="43.1502730" lon="-7.8157430">
        <ele>422.0</ele>
        <time>2021-07-25T06:38:00Z</time>
      </trkpt>
      <trkpt lat="43.1500090" lon="-7.8157320">
        <ele>422.0</ele>
        <time>2021-07-25T06:38:06Z</time>
      </trkpt>
      <trkpt lat="43.1498640" lon="-7.8157320">
        <ele>422.0</ele>
        <time>2021-07-25T06:38:11Z</time>
      </trkpt>
      <trkpt lat="43.1497920" lon="-7.8157170">
        <ele>422.0</ele>
        <time>2021-07-25T06:38:15Z</time>
      </trkpt>
      <trkpt lat="43.1497590" lon="-7.8157110">
        <ele>422.0</ele>
        <time>2021-07-25T06:38:16Z</time>
      </trkpt>
      <trkpt lat="43.1496580" lon="-7.8156660">
        <ele>422.0</ele>
        <time>2021-07-25T06:38:19Z</time>
      </trkpt>
      <trkpt lat="43.1495600" lon="-7.8156140">
        <ele>422.0</ele>
        <time>2021-07-25T06:38:22Z</time>
      </trkpt>
      <trkpt lat="43.1495270" lon="-7.8155940">
        <ele>421.6</ele>
        <time>2021-07-25T06:38:23Z</time>
      </trkpt>
      <trkpt lat="43.1494930" lon="-7.8155750">
        <ele>421.2</ele>
        <time>2021-07-25T06:38:24Z</time>
      </trkpt>
      <trkpt lat="43.1494600" lon="-7.8155530">
        <ele>420.8</ele>
        <time>2021-07-25T06:38:25Z</time>
      </trkpt>
      <trkpt lat="43.1494300" lon="-7.8155390">
        <ele>420.4</ele>
        <time>2021-07-25T06:38:26Z</time>
      </trkpt>
      <trkpt lat="43.1493850" lon="-7.8155350">
        <ele>420.0</ele>
        <time>2021-07-25T06:38:27Z</time>
      </trkpt>
      <trkpt lat="43.1492600" lon="-7.8155220">
        <ele>420.0</ele>
        <time>2021-07-25T06:38:30Z</time>
      </trkpt>
      <trkpt lat="43.1491450" lon="-7.8155080">
        <ele>420.0</ele>
        <time>2021-07-25T06:38:33Z</time>
      </trkpt>
      <trkpt lat="43.1489080" lon="-7.8154670">
        <ele>420.0</ele>
        <time>2021-07-25T06:38:39Z</time>
      </trkpt>
      <trkpt lat="43.1485870" lon="-7.8154630">
        <ele>420.0</ele>
        <time>2021-07-25T06:38:46Z</time>
      </trkpt>
      <trkpt lat="43.1485420" lon="-7.8154760">
        <ele>420.0</ele>
        <time>2021-07-25T06:38:47Z</time>
      </trkpt>
      <trkpt lat="43.1484930" lon="-7.8154860">
        <ele>420.0</ele>
        <time>2021-07-25T06:38:48Z</time>
      </trkpt>
      <trkpt lat="43.1483020" lon="-7.8155050">
        <ele>420.0</ele>
        <time>2021-07-25T06:38:52Z</time>
      </trkpt>
      <trkpt lat="43.1482520" lon="-7.8155120">
        <ele>420.0</ele>
        <time>2021-07-25T06:38:53Z</time>
      </trkpt>
      <trkpt lat="43.1480590" lon="-7.8155440">
        <ele>420.0</ele>
        <time>2021-07-25T06:38:57Z</time>
      </trkpt>
      <trkpt lat="43.1479710" lon="-7.8156050">
        <ele>420.0</ele>
        <time>2021-07-25T06:38:59Z</time>
      </trkpt>
      <trkpt lat="43.1479010" lon="-7.8157030">
        <ele>419.6</ele>
        <time>2021-07-25T06:39:01Z</time>
      </trkpt>
      <trkpt lat="43.1478700" lon="-7.8157480">
        <ele>419.2</ele>
        <time>2021-07-25T06:39:02Z</time>
      </trkpt>
      <trkpt lat="43.1478410" lon="-7.8157950">
        <ele>418.6</ele>
        <time>2021-07-25T06:39:03Z</time>
      </trkpt>
      <trkpt lat="43.1478140" lon="-7.8158440">
        <ele>418.2</ele>
        <time>2021-07-25T06:39:04Z</time>
      </trkpt>
      <trkpt lat="43.1477850" lon="-7.8159050">
        <ele>417.8</ele>
        <time>2021-07-25T06:39:05Z</time>
      </trkpt>
      <trkpt lat="43.1477260" lon="-7.8160400">
        <ele>417.8</ele>
        <time>2021-07-25T06:39:07Z</time>
      </trkpt>
      <trkpt lat="43.1476440" lon="-7.8161500">
        <ele>417.8</ele>
        <time>2021-07-25T06:39:09Z</time>
      </trkpt>
      <trkpt lat="43.1474770" lon="-7.8162920">
        <ele>417.4</ele>
        <time>2021-07-25T06:39:12Z</time>
      </trkpt>
      <trkpt lat="43.1474190" lon="-7.8163450">
        <ele>417.0</ele>
        <time>2021-07-25T06:39:13Z</time>
      </trkpt>
      <trkpt lat="43.1473650" lon="-7.8163980">
        <ele>416.6</ele>
        <time>2021-07-25T06:39:14Z</time>
      </trkpt>
      <trkpt lat="43.1473180" lon="-7.8164520">
        <ele>416.2</ele>
        <time>2021-07-25T06:39:15Z</time>
      </trkpt>
      <trkpt lat="43.1472750" lon="-7.8165090">
        <ele>415.8</ele>
        <time>2021-07-25T06:39:16Z</time>
      </trkpt>
      <trkpt lat="43.1472370" lon="-7.8165710">
        <ele>415.8</ele>
        <time>2021-07-25T06:39:17Z</time>
      </trkpt>
      <trkpt lat="43.1472060" lon="-7.8166370">
        <ele>415.8</ele>
        <time>2021-07-25T06:39:18Z</time>
      </trkpt>
      <trkpt lat="43.1471410" lon="-7.8169400">
        <ele>415.8</ele>
        <time>2021-07-25T06:39:22Z</time>
      </trkpt>
      <trkpt lat="43.1471390" lon="-7.8170860">
        <ele>415.4</ele>
        <time>2021-07-25T06:39:24Z</time>
      </trkpt>
      <trkpt lat="43.1471410" lon="-7.8171580">
        <ele>415.0</ele>
        <time>2021-07-25T06:39:25Z</time>
      </trkpt>
      <trkpt lat="43.1471440" lon="-7.8172340">
        <ele>414.6</ele>
        <time>2021-07-25T06:39:26Z</time>
      </trkpt>
      <trkpt lat="43.1471520" lon="-7.8173170">
        <ele>414.2</ele>
        <time>2021-07-25T06:39:27Z</time>
      </trkpt>
      <trkpt lat="43.1471620" lon="-7.8173980">
        <ele>413.8</ele>
        <time>2021-07-25T06:39:28Z</time>
      </trkpt>
      <trkpt lat="43.1472240" lon="-7.8179910">
        <ele>413.8</ele>
        <time>2021-07-25T06:39:35Z</time>
      </trkpt>
      <trkpt lat="43.1472420" lon="-7.8180810">
        <ele>413.4</ele>
        <time>2021-07-25T06:39:36Z</time>
      </trkpt>
      <trkpt lat="43.1472610" lon="-7.8181680">
        <ele>413.0</ele>
        <time>2021-07-25T06:39:37Z</time>
      </trkpt>
      <trkpt lat="43.1472820" lon="-7.8182470">
        <ele>412.6</ele>
        <time>2021-07-25T06:39:38Z</time>
      </trkpt>
      <trkpt lat="43.1473040" lon="-7.8183210">
        <ele>412.2</ele>
        <time>2021-07-25T06:39:39Z</time>
      </trkpt>
      <trkpt lat="43.1473220" lon="-7.8183890">
        <ele>411.6</ele>
        <time>2021-07-25T06:39:40Z</time>
      </trkpt>
      <trkpt lat="43.1473360" lon="-7.8184520">
        <ele>411.2</ele>
        <time>2021-07-25T06:39:41Z</time>
      </trkpt>
      <trkpt lat="43.1473470" lon="-7.8185100">
        <ele>410.6</ele>
        <time>2021-07-25T06:39:42Z</time>
      </trkpt>
      <trkpt lat="43.1473580" lon="-7.8185590">
        <ele>410.0</ele>
        <time>2021-07-25T06:39:43Z</time>
      </trkpt>
      <trkpt lat="43.1473610" lon="-7.8186110">
        <ele>409.6</ele>
        <time>2021-07-25T06:39:44Z</time>
      </trkpt>
      <trkpt lat="43.1473500" lon="-7.8186610">
        <ele>409.0</ele>
        <time>2021-07-25T06:39:45Z</time>
      </trkpt>
      <trkpt lat="43.1473240" lon="-7.8187080">
        <ele>408.4</ele>
        <time>2021-07-25T06:39:46Z</time>
      </trkpt>
      <trkpt lat="43.1472880" lon="-7.8187510">
        <ele>407.8</ele>
        <time>2021-07-25T06:39:47Z</time>
      </trkpt>
      <trkpt lat="43.1472480" lon="-7.8187950">
        <ele>407.2</ele>
        <time>2021-07-25T06:39:48Z</time>
      </trkpt>
      <trkpt lat="43.1471700" lon="-7.8188910">
        <ele>407.2</ele>
        <time>2021-07-25T06:39:50Z</time>
      </trkpt>
      <trkpt lat="43.1470940" lon="-7.8190130">
        <ele>406.8</ele>
        <time>2021-07-25T06:39:52Z</time>
      </trkpt>
      <trkpt lat="43.1470600" lon="-7.8190820">
        <ele>406.4</ele>
        <time>2021-07-25T06:39:53Z</time>
      </trkpt>
      <trkpt lat="43.1470260" lon="-7.8191500">
        <ele>406.0</ele>
        <time>2021-07-25T06:39:54Z</time>
      </trkpt>
      <trkpt lat="43.1469940" lon="-7.8192200">
        <ele>405.6</ele>
        <time>2021-07-25T06:39:55Z</time>
      </trkpt>
      <trkpt lat="43.1469580" lon="-7.8192900">
        <ele>405.2</ele>
        <time>2021-07-25T06:39:56Z</time>
      </trkpt>
      <trkpt lat="43.1469220" lon="-7.8193650">
        <ele>404.6</ele>
        <time>2021-07-25T06:39:57Z</time>
      </trkpt>
      <trkpt lat="43.1468850" lon="-7.8194380">
        <ele>404.2</ele>
        <time>2021-07-25T06:39:58Z</time>
      </trkpt>
      <trkpt lat="43.1468490" lon="-7.8195110">
        <ele>403.6</ele>
        <time>2021-07-25T06:39:59Z</time>
      </trkpt>
      <trkpt lat="43.1468150" lon="-7.8195850">
        <ele>402.4</ele>
        <time>2021-07-25T06:40:00Z</time>
      </trkpt>
      <trkpt lat="43.1467830" lon="-7.8196590">
        <ele>402.0</ele>
        <time>2021-07-25T06:40:01Z</time>
      </trkpt>
      <trkpt lat="43.1467560" lon="-7.8197330">
        <ele>401.4</ele>
        <time>2021-07-25T06:40:02Z</time>
      </trkpt>
      <trkpt lat="43.1467320" lon="-7.8198010">
        <ele>400.8</ele>
        <time>2021-07-25T06:40:03Z</time>
      </trkpt>
      <trkpt lat="43.1467110" lon="-7.8198660">
        <ele>400.2</ele>
        <time>2021-07-25T06:40:04Z</time>
      </trkpt>
      <trkpt lat="43.1466920" lon="-7.8199290">
        <ele>399.6</ele>
        <time>2021-07-25T06:40:05Z</time>
      </trkpt>
      <trkpt lat="43.1466720" lon="-7.8199830">
        <ele>399.0</ele>
        <time>2021-07-25T06:40:06Z</time>
      </trkpt>
      <trkpt lat="43.1466460" lon="-7.8200360">
        <ele>398.4</ele>
        <time>2021-07-25T06:40:07Z</time>
      </trkpt>
      <trkpt lat="43.1466190" lon="-7.8200860">
        <ele>397.8</ele>
        <time>2021-07-25T06:40:08Z</time>
      </trkpt>
      <trkpt lat="43.1465260" lon="-7.8202420">
        <ele>397.4</ele>
        <time>2021-07-25T06:40:11Z</time>
      </trkpt>
      <trkpt lat="43.1464930" lon="-7.8203010">
        <ele>397.0</ele>
        <time>2021-07-25T06:40:12Z</time>
      </trkpt>
      <trkpt lat="43.1464620" lon="-7.8203600">
        <ele>396.6</ele>
        <time>2021-07-25T06:40:13Z</time>
      </trkpt>
      <trkpt lat="43.1464290" lon="-7.8204190">
        <ele>396.2</ele>
        <time>2021-07-25T06:40:14Z</time>
      </trkpt>
      <trkpt lat="43.1463990" lon="-7.8204760">
        <ele>395.8</ele>
        <time>2021-07-25T06:40:15Z</time>
      </trkpt>
      <trkpt lat="43.1463110" lon="-7.8206400">
        <ele>395.8</ele>
        <time>2021-07-25T06:40:18Z</time>
      </trkpt>
      <trkpt lat="43.1461260" lon="-7.8209380">
        <ele>395.2</ele>
        <time>2021-07-25T06:40:24Z</time>
      </trkpt>
      <trkpt lat="43.1460980" lon="-7.8209710">
        <ele>394.4</ele>
        <time>2021-07-25T06:40:25Z</time>
      </trkpt>
      <trkpt lat="43.1460700" lon="-7.8210010">
        <ele>394.0</ele>
        <time>2021-07-25T06:40:26Z</time>
      </trkpt>
      <trkpt lat="43.1460410" lon="-7.8210310">
        <ele>393.6</ele>
        <time>2021-07-25T06:40:27Z</time>
      </trkpt>
      <trkpt lat="43.1459530" lon="-7.8210980">
        <ele>393.6</ele>
        <time>2021-07-25T06:40:30Z</time>
      </trkpt>
      <trkpt lat="43.1457070" lon="-7.8211990">
        <ele>393.2</ele>
        <time>2021-07-25T06:40:36Z</time>
      </trkpt>
      <trkpt lat="43.1456630" lon="-7.8212190">
        <ele>392.6</ele>
        <time>2021-07-25T06:40:37Z</time>
      </trkpt>
      <trkpt lat="43.1456180" lon="-7.8212390">
        <ele>392.2</ele>
        <time>2021-07-25T06:40:38Z</time>
      </trkpt>
      <trkpt lat="43.1455750" lon="-7.8212610">
        <ele>391.8</ele>
        <time>2021-07-25T06:40:39Z</time>
      </trkpt>
      <trkpt lat="43.1455330" lon="-7.8212840">
        <ele>391.4</ele>
        <time>2021-07-25T06:40:40Z</time>
      </trkpt>
      <trkpt lat="43.1454960" lon="-7.8213140">
        <ele>391.4</ele>
        <time>2021-07-25T06:40:41Z</time>
      </trkpt>
      <trkpt lat="43.1454280" lon="-7.8214000">
        <ele>391.4</ele>
        <time>2021-07-25T06:40:43Z</time>
      </trkpt>
      <trkpt lat="43.1453700" lon="-7.8215120">
        <ele>391.0</ele>
        <time>2021-07-25T06:40:45Z</time>
      </trkpt>
      <trkpt lat="43.1453420" lon="-7.8215690">
        <ele>390.6</ele>
        <time>2021-07-25T06:40:46Z</time>
      </trkpt>
      <trkpt lat="43.1453130" lon="-7.8216210">
        <ele>390.2</ele>
        <time>2021-07-25T06:40:47Z</time>
      </trkpt>
      <trkpt lat="43.1452810" lon="-7.8216720">
        <ele>389.8</ele>
        <time>2021-07-25T06:40:48Z</time>
      </trkpt>
      <trkpt lat="43.1452450" lon="-7.8217310">
        <ele>389.4</ele>
        <time>2021-07-25T06:40:49Z</time>
      </trkpt>
      <trkpt lat="43.1451840" lon="-7.8218620">
        <ele>389.4</ele>
        <time>2021-07-25T06:40:51Z</time>
      </trkpt>
      <trkpt lat="43.1451400" lon="-7.8220170">
        <ele>389.0</ele>
        <time>2021-07-25T06:40:53Z</time>
      </trkpt>
      <trkpt lat="43.1451170" lon="-7.8220930">
        <ele>388.6</ele>
        <time>2021-07-25T06:40:54Z</time>
      </trkpt>
      <trkpt lat="43.1450930" lon="-7.8221700">
        <ele>388.2</ele>
        <time>2021-07-25T06:40:55Z</time>
      </trkpt>
      <trkpt lat="43.1450710" lon="-7.8222500">
        <ele>387.6</ele>
        <time>2021-07-25T06:40:56Z</time>
      </trkpt>
      <trkpt lat="43.1450550" lon="-7.8223410">
        <ele>387.2</ele>
        <time>2021-07-25T06:40:57Z</time>
      </trkpt>
      <trkpt lat="43.1450490" lon="-7.8225220">
        <ele>387.2</ele>
        <time>2021-07-25T06:40:59Z</time>
      </trkpt>
      <trkpt lat="43.1450590" lon="-7.8226990">
        <ele>387.2</ele>
        <time>2021-07-25T06:41:01Z</time>
      </trkpt>
      <trkpt lat="43.1450740" lon="-7.8227870">
        <ele>386.8</ele>
        <time>2021-07-25T06:41:02Z</time>
      </trkpt>
      <trkpt lat="43.1450970" lon="-7.8228680">
        <ele>386.4</ele>
        <time>2021-07-25T06:41:03Z</time>
      </trkpt>
      <trkpt lat="43.1451220" lon="-7.8229370">
        <ele>386.0</ele>
        <time>2021-07-25T06:41:04Z</time>
      </trkpt>
      <trkpt lat="43.1451490" lon="-7.8230040">
        <ele>385.6</ele>
        <time>2021-07-25T06:41:05Z</time>
      </trkpt>
      <trkpt lat="43.1451700" lon="-7.8230680">
        <ele>385.2</ele>
        <time>2021-07-25T06:41:06Z</time>
      </trkpt>
      <trkpt lat="43.1451910" lon="-7.8232030">
        <ele>385.2</ele>
        <time>2021-07-25T06:41:08Z</time>
      </trkpt>
      <trkpt lat="43.1451830" lon="-7.8233380">
        <ele>385.2</ele>
        <time>2021-07-25T06:41:10Z</time>
      </trkpt>
      <trkpt lat="43.1451680" lon="-7.8234660">
        <ele>385.2</ele>
        <time>2021-07-25T06:41:12Z</time>
      </trkpt>
      <trkpt lat="43.1451570" lon="-7.8235240">
        <ele>385.2</ele>
        <time>2021-07-25T06:41:13Z</time>
      </trkpt>
      <trkpt lat="43.1451450" lon="-7.8235770">
        <ele>385.2</ele>
        <time>2021-07-25T06:41:14Z</time>
      </trkpt>
      <trkpt lat="43.1451270" lon="-7.8236250">
        <ele>385.2</ele>
        <time>2021-07-25T06:41:15Z</time>
      </trkpt>
      <trkpt lat="43.1450770" lon="-7.8236990">
        <ele>385.2</ele>
        <time>2021-07-25T06:41:17Z</time>
      </trkpt>
      <trkpt lat="43.1450170" lon="-7.8237480">
        <ele>385.2</ele>
        <time>2021-07-25T06:41:19Z</time>
      </trkpt>
      <trkpt lat="43.1449310" lon="-7.8238090">
        <ele>385.2</ele>
        <time>2021-07-25T06:41:22Z</time>
      </trkpt>
      <trkpt lat="43.1449050" lon="-7.8238320">
        <ele>385.2</ele>
        <time>2021-07-25T06:41:23Z</time>
      </trkpt>
      <trkpt lat="43.1448330" lon="-7.8238970">
        <ele>385.2</ele>
        <time>2021-07-25T06:41:26Z</time>
      </trkpt>
      <trkpt lat="43.1447840" lon="-7.8239500">
        <ele>385.6</ele>
        <time>2021-07-25T06:41:28Z</time>
      </trkpt>
      <trkpt lat="43.1447610" lon="-7.8239730">
        <ele>386.0</ele>
        <time>2021-07-25T06:41:29Z</time>
      </trkpt>
      <trkpt lat="43.1447380" lon="-7.8239990">
        <ele>386.4</ele>
        <time>2021-07-25T06:41:30Z</time>
      </trkpt>
      <trkpt lat="43.1447160" lon="-7.8240220">
        <ele>386.8</ele>
        <time>2021-07-25T06:41:31Z</time>
      </trkpt>
      <trkpt lat="43.1446940" lon="-7.8240440">
        <ele>387.2</ele>
        <time>2021-07-25T06:41:32Z</time>
      </trkpt>
      <trkpt lat="43.1446470" lon="-7.8240780">
        <ele>387.2</ele>
        <time>2021-07-25T06:41:34Z</time>
      </trkpt>
      <trkpt lat="43.1446010" lon="-7.8241140">
        <ele>387.2</ele>
        <time>2021-07-25T06:41:36Z</time>
      </trkpt>
      <trkpt lat="43.1445360" lon="-7.8241780">
        <ele>388.2</ele>
        <time>2021-07-25T06:41:39Z</time>
      </trkpt>
      <trkpt lat="43.1445150" lon="-7.8242030">
        <ele>388.6</ele>
        <time>2021-07-25T06:41:40Z</time>
      </trkpt>
      <trkpt lat="43.1444940" lon="-7.8242300">
        <ele>389.0</ele>
        <time>2021-07-25T06:41:41Z</time>
      </trkpt>
      <trkpt lat="43.1444730" lon="-7.8242570">
        <ele>389.4</ele>
        <time>2021-07-25T06:41:42Z</time>
      </trkpt>
      <trkpt lat="43.1444040" lon="-7.8243300">
        <ele>389.4</ele>
        <time>2021-07-25T06:41:45Z</time>
      </trkpt>
      <trkpt lat="43.1443060" lon="-7.8244230">
        <ele>389.4</ele>
        <time>2021-07-25T06:41:49Z</time>
      </trkpt>
      <trkpt lat="43.1442760" lon="-7.8244390">
        <ele>389.8</ele>
        <time>2021-07-25T06:41:50Z</time>
      </trkpt>
      <trkpt lat="43.1442480" lon="-7.8244550">
        <ele>390.2</ele>
        <time>2021-07-25T06:41:51Z</time>
      </trkpt>
      <trkpt lat="43.1442210" lon="-7.8244700">
        <ele>390.6</ele>
        <time>2021-07-25T06:41:52Z</time>
      </trkpt>
      <trkpt lat="43.1441920" lon="-7.8244840">
        <ele>391.0</ele>
        <time>2021-07-25T06:41:53Z</time>
      </trkpt>
      <trkpt lat="43.1441640" lon="-7.8244990">
        <ele>391.4</ele>
        <time>2021-07-25T06:41:54Z</time>
      </trkpt>
      <trkpt lat="43.1441370" lon="-7.8245130">
        <ele>391.4</ele>
        <time>2021-07-25T06:41:55Z</time>
      </trkpt>
      <trkpt lat="43.1439150" lon="-7.8245710">
        <ele>391.4</ele>
        <time>2021-07-25T06:42:02Z</time>
      </trkpt>
      <trkpt lat="43.1437570" lon="-7.8245850">
        <ele>391.4</ele>
        <time>2021-07-25T06:42:07Z</time>
      </trkpt>
      <trkpt lat="43.1435220" lon="-7.8245540">
        <ele>391.4</ele>
        <time>2021-07-25T06:42:14Z</time>
      </trkpt>
      <trkpt lat="43.1433570" lon="-7.8244820">
        <ele>391.4</ele>
        <time>2021-07-25T06:42:19Z</time>
      </trkpt>
      <trkpt lat="43.1432520" lon="-7.8244200">
        <ele>391.8</ele>
        <time>2021-07-25T06:42:23Z</time>
      </trkpt>
      <trkpt lat="43.1432260" lon="-7.8244040">
        <ele>392.2</ele>
        <time>2021-07-25T06:42:24Z</time>
      </trkpt>
      <trkpt lat="43.1431970" lon="-7.8243880">
        <ele>392.8</ele>
        <time>2021-07-25T06:42:25Z</time>
      </trkpt>
      <trkpt lat="43.1431670" lon="-7.8243720">
        <ele>393.2</ele>
        <time>2021-07-25T06:42:26Z</time>
      </trkpt>
      <trkpt lat="43.1431350" lon="-7.8243590">
        <ele>393.6</ele>
        <time>2021-07-25T06:42:27Z</time>
      </trkpt>
      <trkpt lat="43.1430030" lon="-7.8243240">
        <ele>393.6</ele>
        <time>2021-07-25T06:42:31Z</time>
      </trkpt>
      <trkpt lat="43.1427800" lon="-7.8242700">
        <ele>393.6</ele>
        <time>2021-07-25T06:42:37Z</time>
      </trkpt>
      <trkpt lat="43.1426430" lon="-7.8241650">
        <ele>393.6</ele>
        <time>2021-07-25T06:42:41Z</time>
      </trkpt>
      <trkpt lat="43.1425760" lon="-7.8241040">
        <ele>393.6</ele>
        <time>2021-07-25T06:42:43Z</time>
      </trkpt>
      <trkpt lat="43.1424370" lon="-7.8239980">
        <ele>393.6</ele>
        <time>2021-07-25T06:42:47Z</time>
      </trkpt>
      <trkpt lat="43.1424020" lon="-7.8239740">
        <ele>393.6</ele>
        <time>2021-07-25T06:42:48Z</time>
      </trkpt>
      <trkpt lat="43.1422970" lon="-7.8238880">
        <ele>393.6</ele>
        <time>2021-07-25T06:42:51Z</time>
      </trkpt>
      <trkpt lat="43.1421430" lon="-7.8237420">
        <ele>393.6</ele>
        <time>2021-07-25T06:42:56Z</time>
      </trkpt>
      <trkpt lat="43.1420880" lon="-7.8236850">
        <ele>393.6</ele>
        <time>2021-07-25T06:42:58Z</time>
      </trkpt>
      <trkpt lat="43.1419620" lon="-7.8235620">
        <ele>393.6</ele>
        <time>2021-07-25T06:43:03Z</time>
      </trkpt>
      <trkpt lat="43.1418030" lon="-7.8234010">
        <ele>393.6</ele>
        <time>2021-07-25T06:43:10Z</time>
      </trkpt>
      <trkpt lat="43.1417750" lon="-7.8233800">
        <ele>394.0</ele>
        <time>2021-07-25T06:43:11Z</time>
      </trkpt>
      <trkpt lat="43.1417450" lon="-7.8233630">
        <ele>394.4</ele>
        <time>2021-07-25T06:43:12Z</time>
      </trkpt>
      <trkpt lat="43.1417140" lon="-7.8233480">
        <ele>394.8</ele>
        <time>2021-07-25T06:43:13Z</time>
      </trkpt>
      <trkpt lat="43.1416820" lon="-7.8233290">
        <ele>395.2</ele>
        <time>2021-07-25T06:43:14Z</time>
      </trkpt>
      <trkpt lat="43.1416510" lon="-7.8233100">
        <ele>395.6</ele>
        <time>2021-07-25T06:43:15Z</time>
      </trkpt>
      <trkpt lat="43.1415930" lon="-7.8232750">
        <ele>395.6</ele>
        <time>2021-07-25T06:43:17Z</time>
      </trkpt>
      <trkpt lat="43.1414120" lon="-7.8231410">
        <ele>395.6</ele>
        <time>2021-07-25T06:43:24Z</time>
      </trkpt>
      <trkpt lat="43.1412850" lon="-7.8230890">
        <ele>395.6</ele>
        <time>2021-07-25T06:43:28Z</time>
      </trkpt>
      <trkpt lat="43.1412310" lon="-7.8230680">
        <ele>396.0</ele>
        <time>2021-07-25T06:43:30Z</time>
      </trkpt>
      <trkpt lat="43.1412040" lon="-7.8230590">
        <ele>396.4</ele>
        <time>2021-07-25T06:43:31Z</time>
      </trkpt>
      <trkpt lat="43.1411750" lon="-7.8230530">
        <ele>396.8</ele>
        <time>2021-07-25T06:43:32Z</time>
      </trkpt>
      <trkpt lat="43.1411440" lon="-7.8230490">
        <ele>397.2</ele>
        <time>2021-07-25T06:43:33Z</time>
      </trkpt>
      <trkpt lat="43.1411170" lon="-7.8230430">
        <ele>397.6</ele>
        <time>2021-07-25T06:43:34Z</time>
      </trkpt>
      <trkpt lat="43.1409890" lon="-7.8230400">
        <ele>397.6</ele>
        <time>2021-07-25T06:43:38Z</time>
      </trkpt>
      <trkpt lat="43.1408420" lon="-7.8230500">
        <ele>397.6</ele>
        <time>2021-07-25T06:43:43Z</time>
      </trkpt>
      <trkpt lat="43.1406430" lon="-7.8230240">
        <ele>397.6</ele>
        <time>2021-07-25T06:43:49Z</time>
      </trkpt>
      <trkpt lat="43.1405490" lon="-7.8229800">
        <ele>397.6</ele>
        <time>2021-07-25T06:43:52Z</time>
      </trkpt>
      <trkpt lat="43.1404930" lon="-7.8229740">
        <ele>397.6</ele>
        <time>2021-07-25T06:43:54Z</time>
      </trkpt>
      <trkpt lat="43.1404640" lon="-7.8229700">
        <ele>397.6</ele>
        <time>2021-07-25T06:43:55Z</time>
      </trkpt>
      <trkpt lat="43.1403520" lon="-7.8229610">
        <ele>397.6</ele>
        <time>2021-07-25T06:43:58Z</time>
      </trkpt>
      <trkpt lat="43.1403030" lon="-7.8229640">
        <ele>397.6</ele>
        <time>2021-07-25T06:44:00Z</time>
      </trkpt>
      <trkpt lat="43.1402840" lon="-7.8229660">
        <ele>397.6</ele>
        <time>2021-07-25T06:44:01Z</time>
      </trkpt>
      <trkpt lat="43.1402410" lon="-7.8229810">
        <ele>397.6</ele>
        <time>2021-07-25T06:44:03Z</time>
      </trkpt>
      <trkpt lat="43.1402120" lon="-7.8229910">
        <ele>397.2</ele>
        <time>2021-07-25T06:44:04Z</time>
      </trkpt>
      <trkpt lat="43.1401810" lon="-7.8230010">
        <ele>396.4</ele>
        <time>2021-07-25T06:44:05Z</time>
      </trkpt>
      <trkpt lat="43.1401510" lon="-7.8230170">
        <ele>396.0</ele>
        <time>2021-07-25T06:44:06Z</time>
      </trkpt>
      <trkpt lat="43.1401180" lon="-7.8230350">
        <ele>395.6</ele>
        <time>2021-07-25T06:44:07Z</time>
      </trkpt>
      <trkpt lat="43.1400180" lon="-7.8230800">
        <ele>395.6</ele>
        <time>2021-07-25T06:44:10Z</time>
      </trkpt>
      <trkpt lat="43.1398300" lon="-7.8231750">
        <ele>395.6</ele>
        <time>2021-07-25T06:44:15Z</time>
      </trkpt>
      <trkpt lat="43.1397910" lon="-7.8231980">
        <ele>395.6</ele>
        <time>2021-07-25T06:44:16Z</time>
      </trkpt>
      <trkpt lat="43.1395950" lon="-7.8233030">
        <ele>395.6</ele>
        <time>2021-07-25T06:44:21Z</time>
      </trkpt>
      <trkpt lat="43.1395160" lon="-7.8233440">
        <ele>395.6</ele>
        <time>2021-07-25T06:44:23Z</time>
      </trkpt>
      <trkpt lat="43.1393870" lon="-7.8234060">
        <ele>395.2</ele>
        <time>2021-07-25T06:44:26Z</time>
      </trkpt>
      <trkpt lat="43.1393470" lon="-7.8234250">
        <ele>394.8</ele>
        <time>2021-07-25T06:44:27Z</time>
      </trkpt>
      <trkpt lat="43.1393040" lon="-7.8234440">
        <ele>394.4</ele>
        <time>2021-07-25T06:44:28Z</time>
      </trkpt>
      <trkpt lat="43.1392590" lon="-7.8234670">
        <ele>393.4</ele>
        <time>2021-07-25T06:44:29Z</time>
      </trkpt>
      <trkpt lat="43.1392170" lon="-7.8234920">
        <ele>393.4</ele>
        <time>2021-07-25T06:44:30Z</time>
      </trkpt>
      <trkpt lat="43.1390960" lon="-7.8235880">
        <ele>393.4</ele>
        <time>2021-07-25T06:44:33Z</time>
      </trkpt>
      <trkpt lat="43.1390360" lon="-7.8236560">
        <ele>393.4</ele>
        <time>2021-07-25T06:44:35Z</time>
      </trkpt>
      <trkpt lat="43.1389150" lon="-7.8237230">
        <ele>393.0</ele>
        <time>2021-07-25T06:44:39Z</time>
      </trkpt>
      <trkpt lat="43.1388820" lon="-7.8237360">
        <ele>392.6</ele>
        <time>2021-07-25T06:44:40Z</time>
      </trkpt>
      <trkpt lat="43.1388530" lon="-7.8237440">
        <ele>392.2</ele>
        <time>2021-07-25T06:44:41Z</time>
      </trkpt>
      <trkpt lat="43.1388190" lon="-7.8237540">
        <ele>391.8</ele>
        <time>2021-07-25T06:44:42Z</time>
      </trkpt>
      <trkpt lat="43.1387890" lon="-7.8237680">
        <ele>391.4</ele>
        <time>2021-07-25T06:44:43Z</time>
      </trkpt>
      <trkpt lat="43.1387560" lon="-7.8237820">
        <ele>391.4</ele>
        <time>2021-07-25T06:44:44Z</time>
      </trkpt>
      <trkpt lat="43.1386740" lon="-7.8238430">
        <ele>391.4</ele>
        <time>2021-07-25T06:44:47Z</time>
      </trkpt>
      <trkpt lat="43.1386210" lon="-7.8239030">
        <ele>391.4</ele>
        <time>2021-07-25T06:44:49Z</time>
      </trkpt>
      <trkpt lat="43.1385100" lon="-7.8240560">
        <ele>391.4</ele>
        <time>2021-07-25T06:44:53Z</time>
      </trkpt>
      <trkpt lat="43.1384720" lon="-7.8240910">
        <ele>391.4</ele>
        <time>2021-07-25T06:44:54Z</time>
      </trkpt>
      <trkpt lat="43.1383960" lon="-7.8241640">
        <ele>391.4</ele>
        <time>2021-07-25T06:44:56Z</time>
      </trkpt>
      <trkpt lat="43.1381560" lon="-7.8243660">
        <ele>391.4</ele>
        <time>2021-07-25T06:45:02Z</time>
      </trkpt>
      <trkpt lat="43.1381100" lon="-7.8243990">
        <ele>391.0</ele>
        <time>2021-07-25T06:45:03Z</time>
      </trkpt>
      <trkpt lat="43.1380710" lon="-7.8244360">
        <ele>390.6</ele>
        <time>2021-07-25T06:45:04Z</time>
      </trkpt>
      <trkpt lat="43.1380390" lon="-7.8244660">
        <ele>390.2</ele>
        <time>2021-07-25T06:45:05Z</time>
      </trkpt>
      <trkpt lat="43.1380110" lon="-7.8244940">
        <ele>389.8</ele>
        <time>2021-07-25T06:45:06Z</time>
      </trkpt>
      <trkpt lat="43.1379850" lon="-7.8245230">
        <ele>389.4</ele>
        <time>2021-07-25T06:45:07Z</time>
      </trkpt>
      <trkpt lat="43.1379420" lon="-7.8245630">
        <ele>389.4</ele>
        <time>2021-07-25T06:45:09Z</time>
      </trkpt>
      <trkpt lat="43.1378780" lon="-7.8245740">
        <ele>389.4</ele>
        <time>2021-07-25T06:45:11Z</time>
      </trkpt>
      <trkpt lat="43.1376620" lon="-7.8245500">
        <ele>389.4</ele>
        <time>2021-07-25T06:45:17Z</time>
      </trkpt>
      <trkpt lat="43.1376230" lon="-7.8245470">
        <ele>389.4</ele>
        <time>2021-07-25T06:45:18Z</time>
      </trkpt>
      <trkpt lat="43.1375430" lon="-7.8245470">
        <ele>389.4</ele>
        <time>2021-07-25T06:45:20Z</time>
      </trkpt>
      <trkpt lat="43.1373830" lon="-7.8245530">
        <ele>389.0</ele>
        <time>2021-07-25T06:45:24Z</time>
      </trkpt>
      <trkpt lat="43.1373470" lon="-7.8245480">
        <ele>388.6</ele>
        <time>2021-07-25T06:45:25Z</time>
      </trkpt>
      <trkpt lat="43.1373050" lon="-7.8245440">
        <ele>388.2</ele>
        <time>2021-07-25T06:45:26Z</time>
      </trkpt>
      <trkpt lat="43.1372540" lon="-7.8245420">
        <ele>387.8</ele>
        <time>2021-07-25T06:45:27Z</time>
      </trkpt>
      <trkpt lat="43.1372060" lon="-7.8245380">
        <ele>387.4</ele>
        <time>2021-07-25T06:45:28Z</time>
      </trkpt>
      <trkpt lat="43.1370580" lon="-7.8245030">
        <ele>387.4</ele>
        <time>2021-07-25T06:45:31Z</time>
      </trkpt>
      <trkpt lat="43.1367570" lon="-7.8243730">
        <ele>387.4</ele>
        <time>2021-07-25T06:45:37Z</time>
      </trkpt>
      <trkpt lat="43.1366070" lon="-7.8243060">
        <ele>387.4</ele>
        <time>2021-07-25T06:45:40Z</time>
      </trkpt>
      <trkpt lat="43.1365030" lon="-7.8242650">
        <ele>387.0</ele>
        <time>2021-07-25T06:45:42Z</time>
      </trkpt>
      <trkpt lat="43.1364480" lon="-7.8242450">
        <ele>386.0</ele>
        <time>2021-07-25T06:45:43Z</time>
      </trkpt>
      <trkpt lat="43.1363960" lon="-7.8242280">
        <ele>385.6</ele>
        <time>2021-07-25T06:45:44Z</time>
      </trkpt>
      <trkpt lat="43.1363430" lon="-7.8242120">
        <ele>385.2</ele>
        <time>2021-07-25T06:45:45Z</time>
      </trkpt>
      <trkpt lat="43.1360380" lon="-7.8241070">
        <ele>385.2</ele>
        <time>2021-07-25T06:45:50Z</time>
      </trkpt>
      <trkpt lat="43.1358970" lon="-7.8240510">
        <ele>384.8</ele>
        <time>2021-07-25T06:45:52Z</time>
      </trkpt>
      <trkpt lat="43.1358230" lon="-7.8240240">
        <ele>384.4</ele>
        <time>2021-07-25T06:45:53Z</time>
      </trkpt>
      <trkpt lat="43.1357480" lon="-7.8239990">
        <ele>383.8</ele>
        <time>2021-07-25T06:45:54Z</time>
      </trkpt>
      <trkpt lat="43.1356700" lon="-7.8239780">
        <ele>383.4</ele>
        <time>2021-07-25T06:45:55Z</time>
      </trkpt>
      <trkpt lat="43.1355940" lon="-7.8239520">
        <ele>383.0</ele>
        <time>2021-07-25T06:45:56Z</time>
      </trkpt>
      <trkpt lat="43.1353360" lon="-7.8238210">
        <ele>383.0</ele>
        <time>2021-07-25T06:46:00Z</time>
      </trkpt>
      <trkpt lat="43.1352230" lon="-7.8237530">
        <ele>382.6</ele>
        <time>2021-07-25T06:46:02Z</time>
      </trkpt>
      <trkpt lat="43.1351700" lon="-7.8237200">
        <ele>382.2</ele>
        <time>2021-07-25T06:46:03Z</time>
      </trkpt>
      <trkpt lat="43.1351200" lon="-7.8236870">
        <ele>381.8</ele>
        <time>2021-07-25T06:46:04Z</time>
      </trkpt>
      <trkpt lat="43.1350760" lon="-7.8236600">
        <ele>381.4</ele>
        <time>2021-07-25T06:46:05Z</time>
      </trkpt>
      <trkpt lat="43.1350370" lon="-7.8236380">
        <ele>381.0</ele>
        <time>2021-07-25T06:46:06Z</time>
      </trkpt>
      <trkpt lat="43.1349600" lon="-7.8235890">
        <ele>381.0</ele>
        <time>2021-07-25T06:46:08Z</time>
      </trkpt>
      <trkpt lat="43.1348840" lon="-7.8235420">
        <ele>381.0</ele>
        <time>2021-07-25T06:46:10Z</time>
      </trkpt>
      <trkpt lat="43.1348090" lon="-7.8234990">
        <ele>381.0</ele>
        <time>2021-07-25T06:46:12Z</time>
      </trkpt>
      <trkpt lat="43.1347380" lon="-7.8234540">
        <ele>381.0</ele>
        <time>2021-07-25T06:46:14Z</time>
      </trkpt>
      <trkpt lat="43.1346680" lon="-7.8234090">
        <ele>381.0</ele>
        <time>2021-07-25T06:46:16Z</time>
      </trkpt>
      <trkpt lat="43.1346000" lon="-7.8233750">
        <ele>381.0</ele>
        <time>2021-07-25T06:46:18Z</time>
      </trkpt>
      <trkpt lat="43.1345390" lon="-7.8233410">
        <ele>381.0</ele>
        <time>2021-07-25T06:46:20Z</time>
      </trkpt>
      <trkpt lat="43.1345090" lon="-7.8233280">
        <ele>381.0</ele>
        <time>2021-07-25T06:46:21Z</time>
      </trkpt>
      <trkpt lat="43.1344190" lon="-7.8233010">
        <ele>381.0</ele>
        <time>2021-07-25T06:46:24Z</time>
      </trkpt>
      <trkpt lat="43.1343220" lon="-7.8232820">
        <ele>381.4</ele>
        <time>2021-07-25T06:46:27Z</time>
      </trkpt>
      <trkpt lat="43.1342910" lon="-7.8232770">
        <ele>381.8</ele>
        <time>2021-07-25T06:46:28Z</time>
      </trkpt>
      <trkpt lat="43.1342620" lon="-7.8232710">
        <ele>382.2</ele>
        <time>2021-07-25T06:46:29Z</time>
      </trkpt>
      <trkpt lat="43.1342310" lon="-7.8232670">
        <ele>382.6</ele>
        <time>2021-07-25T06:46:30Z</time>
      </trkpt>
      <trkpt lat="43.1342010" lon="-7.8232610">
        <ele>383.0</ele>
        <time>2021-07-25T06:46:31Z</time>
      </trkpt>
      <trkpt lat="43.1341140" lon="-7.8232430">
        <ele>383.0</ele>
        <time>2021-07-25T06:46:34Z</time>
      </trkpt>
      <trkpt lat="43.1339580" lon="-7.8231540">
        <ele>383.0</ele>
        <time>2021-07-25T06:46:40Z</time>
      </trkpt>
      <trkpt lat="43.1339080" lon="-7.8231130">
        <ele>383.4</ele>
        <time>2021-07-25T06:46:42Z</time>
      </trkpt>
      <trkpt lat="43.1338800" lon="-7.8230980">
        <ele>383.8</ele>
        <time>2021-07-25T06:46:43Z</time>
      </trkpt>
      <trkpt lat="43.1338530" lon="-7.8230850">
        <ele>384.2</ele>
        <time>2021-07-25T06:46:44Z</time>
      </trkpt>
      <trkpt lat="43.1338230" lon="-7.8230710">
        <ele>384.6</ele>
        <time>2021-07-25T06:46:45Z</time>
      </trkpt>
      <trkpt lat="43.1337910" lon="-7.8230590">
        <ele>385.0</ele>
        <time>2021-07-25T06:46:46Z</time>
      </trkpt>
      <trkpt lat="43.1335330" lon="-7.8229520">
        <ele>385.0</ele>
        <time>2021-07-25T06:46:54Z</time>
      </trkpt>
      <trkpt lat="43.1333320" lon="-7.8228300">
        <ele>385.0</ele>
        <time>2021-07-25T06:47:00Z</time>
      </trkpt>
      <trkpt lat="43.1332960" lon="-7.8228040">
        <ele>385.0</ele>
        <time>2021-07-25T06:47:01Z</time>
      </trkpt>
      <trkpt lat="43.1332280" lon="-7.8227530">
        <ele>385.0</ele>
        <time>2021-07-25T06:47:03Z</time>
      </trkpt>
      <trkpt lat="43.1331560" lon="-7.8226810">
        <ele>385.0</ele>
        <time>2021-07-25T06:47:06Z</time>
      </trkpt>
      <trkpt lat="43.1331380" lon="-7.8226650">
        <ele>385.0</ele>
        <time>2021-07-25T06:47:07Z</time>
      </trkpt>
      <trkpt lat="43.1331120" lon="-7.8226450">
        <ele>385.0</ele>
        <time>2021-07-25T06:47:10Z</time>
      </trkpt>
      <trkpt lat="43.1330500" lon="-7.8226620">
        <ele>385.0</ele>
        <time>2021-07-25T06:47:30Z</time>
      </trkpt>
      <trkpt lat="43.1330310" lon="-7.8226600">
        <ele>385.0</ele>
        <time>2021-07-25T06:47:31Z</time>
      </trkpt>
      <trkpt lat="43.1328840" lon="-7.8226510">
        <ele>385.0</ele>
        <time>2021-07-25T06:47:36Z</time>
      </trkpt>
      <trkpt lat="43.1326480" lon="-7.8225840">
        <ele>385.0</ele>
        <time>2021-07-25T06:47:43Z</time>
      </trkpt>
      <trkpt lat="43.1324590" lon="-7.8224950">
        <ele>385.0</ele>
        <time>2021-07-25T06:47:49Z</time>
      </trkpt>
      <trkpt lat="43.1323630" lon="-7.8224620">
        <ele>385.0</ele>
        <time>2021-07-25T06:47:52Z</time>
      </trkpt>
      <trkpt lat="43.1322530" lon="-7.8224330">
        <ele>385.0</ele>
        <time>2021-07-25T06:47:55Z</time>
      </trkpt>
      <trkpt lat="43.1322120" lon="-7.8224220">
        <ele>385.0</ele>
        <time>2021-07-25T06:47:56Z</time>
      </trkpt>
      <trkpt lat="43.1319760" lon="-7.8223790">
        <ele>385.0</ele>
        <time>2021-07-25T06:48:02Z</time>
      </trkpt>
      <trkpt lat="43.1317620" lon="-7.8223420">
        <ele>385.0</ele>
        <time>2021-07-25T06:48:08Z</time>
      </trkpt>
      <trkpt lat="43.1315860" lon="-7.8222240">
        <ele>385.0</ele>
        <time>2021-07-25T06:48:15Z</time>
      </trkpt>
      <trkpt lat="43.1315410" lon="-7.8221540">
        <ele>385.4</ele>
        <time>2021-07-25T06:48:18Z</time>
      </trkpt>
      <trkpt lat="43.1315260" lon="-7.8221270">
        <ele>385.8</ele>
        <time>2021-07-25T06:48:19Z</time>
      </trkpt>
      <trkpt lat="43.1315110" lon="-7.8220980">
        <ele>386.2</ele>
        <time>2021-07-25T06:48:20Z</time>
      </trkpt>
      <trkpt lat="43.1314960" lon="-7.8220750">
        <ele>386.6</ele>
        <time>2021-07-25T06:48:21Z</time>
      </trkpt>
      <trkpt lat="43.1314800" lon="-7.8220490">
        <ele>387.2</ele>
        <time>2021-07-25T06:48:22Z</time>
      </trkpt>
      <trkpt lat="43.1313480" lon="-7.8218860">
        <ele>387.2</ele>
        <time>2021-07-25T06:48:29Z</time>
      </trkpt>
      <trkpt lat="43.1313140" lon="-7.8218220">
        <ele>387.6</ele>
        <time>2021-07-25T06:48:32Z</time>
      </trkpt>
      <trkpt lat="43.1313050" lon="-7.8217940">
        <ele>388.0</ele>
        <time>2021-07-25T06:48:33Z</time>
      </trkpt>
      <trkpt lat="43.1312940" lon="-7.8217600">
        <ele>388.4</ele>
        <time>2021-07-25T06:48:34Z</time>
      </trkpt>
      <trkpt lat="43.1312860" lon="-7.8217200">
        <ele>388.8</ele>
        <time>2021-07-25T06:48:35Z</time>
      </trkpt>
      <trkpt lat="43.1312860" lon="-7.8216810">
        <ele>389.2</ele>
        <time>2021-07-25T06:48:36Z</time>
      </trkpt>
      <trkpt lat="43.1312910" lon="-7.8215100">
        <ele>389.2</ele>
        <time>2021-07-25T06:48:41Z</time>
      </trkpt>
      <trkpt lat="43.1313340" lon="-7.8213880">
        <ele>389.8</ele>
        <time>2021-07-25T06:48:44Z</time>
      </trkpt>
      <trkpt lat="43.1313530" lon="-7.8213440">
        <ele>390.2</ele>
        <time>2021-07-25T06:48:45Z</time>
      </trkpt>
      <trkpt lat="43.1313670" lon="-7.8213070">
        <ele>390.6</ele>
        <time>2021-07-25T06:48:46Z</time>
      </trkpt>
      <trkpt lat="43.1313820" lon="-7.8212740">
        <ele>391.0</ele>
        <time>2021-07-25T06:48:47Z</time>
      </trkpt>
      <trkpt lat="43.1313910" lon="-7.8212440">
        <ele>391.4</ele>
        <time>2021-07-25T06:48:48Z</time>
      </trkpt>
      <trkpt lat="43.1314300" lon="-7.8211060">
        <ele>391.4</ele>
        <time>2021-07-25T06:48:52Z</time>
      </trkpt>
      <trkpt lat="43.1315000" lon="-7.8209050">
        <ele>391.4</ele>
        <time>2021-07-25T06:48:58Z</time>
      </trkpt>
      <trkpt lat="43.1315550" lon="-7.8207250">
        <ele>391.8</ele>
        <time>2021-07-25T06:49:03Z</time>
      </trkpt>
      <trkpt lat="43.1315620" lon="-7.8206880">
        <ele>392.2</ele>
        <time>2021-07-25T06:49:04Z</time>
      </trkpt>
      <trkpt lat="43.1315660" lon="-7.8206510">
        <ele>392.6</ele>
        <time>2021-07-25T06:49:05Z</time>
      </trkpt>
      <trkpt lat="43.1315690" lon="-7.8206160">
        <ele>393.0</ele>
        <time>2021-07-25T06:49:06Z</time>
      </trkpt>
      <trkpt lat="43.1315730" lon="-7.8205860">
        <ele>393.4</ele>
        <time>2021-07-25T06:49:07Z</time>
      </trkpt>
      <trkpt lat="43.1316010" lon="-7.8204280">
        <ele>393.4</ele>
        <time>2021-07-25T06:49:12Z</time>
      </trkpt>
      <trkpt lat="43.1317000" lon="-7.8202100">
        <ele>393.4</ele>
        <time>2021-07-25T06:49:19Z</time>
      </trkpt>
      <trkpt lat="43.1318220" lon="-7.8200810">
        <ele>393.4</ele>
        <time>2021-07-25T06:49:24Z</time>
      </trkpt>
      <trkpt lat="43.1318980" lon="-7.8199540">
        <ele>393.8</ele>
        <time>2021-07-25T06:49:29Z</time>
      </trkpt>
      <trkpt lat="43.1319020" lon="-7.8199240">
        <ele>394.2</ele>
        <time>2021-07-25T06:49:30Z</time>
      </trkpt>
      <trkpt lat="43.1319090" lon="-7.8198950">
        <ele>394.6</ele>
        <time>2021-07-25T06:49:31Z</time>
      </trkpt>
      <trkpt lat="43.1319170" lon="-7.8198650">
        <ele>395.0</ele>
        <time>2021-07-25T06:49:32Z</time>
      </trkpt>
      <trkpt lat="43.1319270" lon="-7.8198440">
        <ele>395.4</ele>
        <time>2021-07-25T06:49:33Z</time>
      </trkpt>
      <trkpt lat="43.1319520" lon="-7.8197610">
        <ele>395.4</ele>
        <time>2021-07-25T06:49:36Z</time>
      </trkpt>
      <trkpt lat="43.1319620" lon="-7.8196130">
        <ele>395.4</ele>
        <time>2021-07-25T06:49:41Z</time>
      </trkpt>
      <trkpt lat="43.1320070" lon="-7.8193900">
        <ele>395.4</ele>
        <time>2021-07-25T06:49:48Z</time>
      </trkpt>
      <trkpt lat="43.1320130" lon="-7.8193600">
        <ele>395.8</ele>
        <time>2021-07-25T06:49:49Z</time>
      </trkpt>
      <trkpt lat="43.1320240" lon="-7.8193320">
        <ele>396.2</ele>
        <time>2021-07-25T06:49:50Z</time>
      </trkpt>
      <trkpt lat="43.1320370" lon="-7.8193030">
        <ele>396.6</ele>
        <time>2021-07-25T06:49:51Z</time>
      </trkpt>
      <trkpt lat="43.1320470" lon="-7.8192750">
        <ele>397.4</ele>
        <time>2021-07-25T06:49:52Z</time>
      </trkpt>
      <trkpt lat="43.1321020" lon="-7.8191500">
        <ele>397.4</ele>
        <time>2021-07-25T06:49:56Z</time>
      </trkpt>
      <trkpt lat="43.1322030" lon="-7.8189020">
        <ele>397.4</ele>
        <time>2021-07-25T06:50:03Z</time>
      </trkpt>
      <trkpt lat="43.1322880" lon="-7.8186590">
        <ele>397.4</ele>
        <time>2021-07-25T06:50:09Z</time>
      </trkpt>
      <trkpt lat="43.1323330" lon="-7.8183500">
        <ele>397.4</ele>
        <time>2021-07-25T06:50:17Z</time>
      </trkpt>
      <trkpt lat="43.1323330" lon="-7.8179800">
        <ele>397.8</ele>
        <time>2021-07-25T06:50:26Z</time>
      </trkpt>
      <trkpt lat="43.1323340" lon="-7.8179360">
        <ele>398.2</ele>
        <time>2021-07-25T06:50:27Z</time>
      </trkpt>
      <trkpt lat="43.1323360" lon="-7.8178910">
        <ele>398.6</ele>
        <time>2021-07-25T06:50:28Z</time>
      </trkpt>
      <trkpt lat="43.1323370" lon="-7.8178450">
        <ele>399.0</ele>
        <time>2021-07-25T06:50:29Z</time>
      </trkpt>
      <trkpt lat="43.1323400" lon="-7.8178020">
        <ele>399.6</ele>
        <time>2021-07-25T06:50:30Z</time>
      </trkpt>
      <trkpt lat="43.1323550" lon="-7.8175830">
        <ele>399.6</ele>
        <time>2021-07-25T06:50:35Z</time>
      </trkpt>
      <trkpt lat="43.1323790" lon="-7.8173310">
        <ele>399.6</ele>
        <time>2021-07-25T06:50:40Z</time>
      </trkpt>
      <trkpt lat="43.1324010" lon="-7.8171530">
        <ele>399.6</ele>
        <time>2021-07-25T06:50:43Z</time>
      </trkpt>
      <trkpt lat="43.1324510" lon="-7.8167760">
        <ele>399.6</ele>
        <time>2021-07-25T06:50:50Z</time>
      </trkpt>
      <trkpt lat="43.1324670" lon="-7.8163060">
        <ele>399.6</ele>
        <time>2021-07-25T06:50:59Z</time>
      </trkpt>
      <trkpt lat="43.1324610" lon="-7.8160900">
        <ele>399.6</ele>
        <time>2021-07-25T06:51:03Z</time>
      </trkpt>
      <trkpt lat="43.1324570" lon="-7.8158890">
        <ele>399.6</ele>
        <time>2021-07-25T06:51:07Z</time>
      </trkpt>
      <trkpt lat="43.1324980" lon="-7.8156890">
        <ele>399.6</ele>
        <time>2021-07-25T06:51:12Z</time>
      </trkpt>
      <trkpt lat="43.1325140" lon="-7.8156680">
        <ele>399.6</ele>
        <time>2021-07-25T06:51:13Z</time>
      </trkpt>
      <trkpt lat="43.1325380" lon="-7.8156510">
        <ele>399.6</ele>
        <time>2021-07-25T06:51:15Z</time>
      </trkpt>
      <trkpt lat="43.1325350" lon="-7.8156400">
        <ele>399.6</ele>
        <time>2021-07-25T06:51:17Z</time>
      </trkpt>
      <trkpt lat="43.1325160" lon="-7.8156790">
        <ele>399.6</ele>
        <time>2021-07-25T06:51:21Z</time>
      </trkpt>
      <trkpt lat="43.1324940" lon="-7.8156750">
        <ele>399.6</ele>
        <time>2021-07-25T06:51:25Z</time>
      </trkpt>
      <trkpt lat="43.1324880" lon="-7.8156590">
        <ele>399.6</ele>
        <time>2021-07-25T06:51:26Z</time>
      </trkpt>
      <trkpt lat="43.1324790" lon="-7.8155530">
        <ele>399.6</ele>
        <time>2021-07-25T06:51:30Z</time>
      </trkpt>
      <trkpt lat="43.1325200" lon="-7.8153950">
        <ele>399.6</ele>
        <time>2021-07-25T06:51:35Z</time>
      </trkpt>
      <trkpt lat="43.1325530" lon="-7.8152880">
        <ele>399.6</ele>
        <time>2021-07-25T06:51:38Z</time>
      </trkpt>
      <trkpt lat="43.1325840" lon="-7.8151930">
        <ele>399.6</ele>
        <time>2021-07-25T06:51:41Z</time>
      </trkpt>
      <trkpt lat="43.1325980" lon="-7.8151090">
        <ele>399.6</ele>
        <time>2021-07-25T06:51:44Z</time>
      </trkpt>
      <trkpt lat="43.1326130" lon="-7.8150550">
        <ele>399.6</ele>
        <time>2021-07-25T06:51:47Z</time>
      </trkpt>
      <trkpt lat="43.1326270" lon="-7.8149700">
        <ele>399.6</ele>
        <time>2021-07-25T06:51:50Z</time>
      </trkpt>
      <trkpt lat="43.1326110" lon="-7.8149060">
        <ele>399.6</ele>
        <time>2021-07-25T06:51:52Z</time>
      </trkpt>
      <trkpt lat="43.1325840" lon="-7.8148420">
        <ele>399.6</ele>
        <time>2021-07-25T06:51:55Z</time>
      </trkpt>
      <trkpt lat="43.1325690" lon="-7.8148210">
        <ele>399.6</ele>
        <time>2021-07-25T06:51:57Z</time>
      </trkpt>
      <trkpt lat="43.1325610" lon="-7.8147950">
        <ele>399.6</ele>
        <time>2021-07-25T06:52:00Z</time>
      </trkpt>
      <trkpt lat="43.1325430" lon="-7.8147670">
        <ele>399.6</ele>
        <time>2021-07-25T06:52:37Z</time>
      </trkpt>
      <trkpt lat="43.1325270" lon="-7.8147540">
        <ele>399.6</ele>
        <time>2021-07-25T06:52:38Z</time>
      </trkpt>
      <trkpt lat="43.1323840" lon="-7.8146760">
        <ele>399.6</ele>
        <time>2021-07-25T06:52:44Z</time>
      </trkpt>
      <trkpt lat="43.1321930" lon="-7.8145900">
        <ele>399.6</ele>
        <time>2021-07-25T06:52:50Z</time>
      </trkpt>
      <trkpt lat="43.1319780" lon="-7.8144970">
        <ele>399.6</ele>
        <time>2021-07-25T06:52:57Z</time>
      </trkpt>
      <trkpt lat="43.1316970" lon="-7.8143960">
        <ele>399.6</ele>
        <time>2021-07-25T06:53:05Z</time>
      </trkpt>
      <trkpt lat="43.1315440" lon="-7.8143760">
        <ele>399.6</ele>
        <time>2021-07-25T06:53:09Z</time>
      </trkpt>
      <trkpt lat="43.1313680" lon="-7.8143560">
        <ele>399.0</ele>
        <time>2021-07-25T06:53:13Z</time>
      </trkpt>
      <trkpt lat="43.1313230" lon="-7.8143490">
        <ele>398.6</ele>
        <time>2021-07-25T06:53:14Z</time>
      </trkpt>
      <trkpt lat="43.1312790" lon="-7.8143400">
        <ele>398.0</ele>
        <time>2021-07-25T06:53:15Z</time>
      </trkpt>
      <trkpt lat="43.1312320" lon="-7.8143310">
        <ele>397.6</ele>
        <time>2021-07-25T06:53:16Z</time>
      </trkpt>
      <trkpt lat="43.1311860" lon="-7.8143060">
        <ele>397.2</ele>
        <time>2021-07-25T06:53:17Z</time>
      </trkpt>
      <trkpt lat="43.1311460" lon="-7.8142780">
        <ele>396.6</ele>
        <time>2021-07-25T06:53:18Z</time>
      </trkpt>
      <trkpt lat="43.1311130" lon="-7.8142350">
        <ele>396.2</ele>
        <time>2021-07-25T06:53:19Z</time>
      </trkpt>
      <trkpt lat="43.1310750" lon="-7.8141810">
        <ele>395.6</ele>
        <time>2021-07-25T06:53:20Z</time>
      </trkpt>
      <trkpt lat="43.1310470" lon="-7.8141270">
        <ele>395.2</ele>
        <time>2021-07-25T06:53:21Z</time>
      </trkpt>
      <trkpt lat="43.1310160" lon="-7.8140540">
        <ele>394.6</ele>
        <time>2021-07-25T06:53:22Z</time>
      </trkpt>
      <trkpt lat="43.1309690" lon="-7.8139130">
        <ele>394.2</ele>
        <time>2021-07-25T06:53:24Z</time>
      </trkpt>
      <trkpt lat="43.1309470" lon="-7.8138510">
        <ele>393.8</ele>
        <time>2021-07-25T06:53:25Z</time>
      </trkpt>
      <trkpt lat="43.1309230" lon="-7.8137860">
        <ele>393.4</ele>
        <time>2021-07-25T06:53:26Z</time>
      </trkpt>
      <trkpt lat="43.1309010" lon="-7.8137210">
        <ele>393.0</ele>
        <time>2021-07-25T06:53:27Z</time>
      </trkpt>
      <trkpt lat="43.1308730" lon="-7.8136560">
        <ele>392.4</ele>
        <time>2021-07-25T06:53:28Z</time>
      </trkpt>
      <trkpt lat="43.1308400" lon="-7.8135790">
        <ele>392.0</ele>
        <time>2021-07-25T06:53:29Z</time>
      </trkpt>
      <trkpt lat="43.1308130" lon="-7.8135180">
        <ele>391.6</ele>
        <time>2021-07-25T06:53:30Z</time>
      </trkpt>
      <trkpt lat="43.1307810" lon="-7.8134620">
        <ele>391.2</ele>
        <time>2021-07-25T06:53:31Z</time>
      </trkpt>
      <trkpt lat="43.1307460" lon="-7.8134180">
        <ele>390.8</ele>
        <time>2021-07-25T06:53:32Z</time>
      </trkpt>
      <trkpt lat="43.1307080" lon="-7.8133770">
        <ele>390.4</ele>
        <time>2021-07-25T06:53:33Z</time>
      </trkpt>
      <trkpt lat="43.1306020" lon="-7.8133150">
        <ele>390.4</ele>
        <time>2021-07-25T06:53:35Z</time>
      </trkpt>
      <trkpt lat="43.1304990" lon="-7.8132570">
        <ele>390.0</ele>
        <time>2021-07-25T06:53:37Z</time>
      </trkpt>
      <trkpt lat="43.1304470" lon="-7.8132320">
        <ele>389.6</ele>
        <time>2021-07-25T06:53:38Z</time>
      </trkpt>
      <trkpt lat="43.1304000" lon="-7.8132070">
        <ele>389.2</ele>
        <time>2021-07-25T06:53:39Z</time>
      </trkpt>
      <trkpt lat="43.1303530" lon="-7.8131800">
        <ele>388.8</ele>
        <time>2021-07-25T06:53:40Z</time>
      </trkpt>
      <trkpt lat="43.1303010" lon="-7.8131510">
        <ele>388.4</ele>
        <time>2021-07-25T06:53:41Z</time>
      </trkpt>
      <trkpt lat="43.1301530" lon="-7.8130800">
        <ele>388.4</ele>
        <time>2021-07-25T06:53:45Z</time>
      </trkpt>
      <trkpt lat="43.1300540" lon="-7.8130660">
        <ele>388.4</ele>
        <time>2021-07-25T06:53:48Z</time>
      </trkpt>
      <trkpt lat="43.1299960" lon="-7.8130600">
        <ele>388.4</ele>
        <time>2021-07-25T06:53:50Z</time>
      </trkpt>
      <trkpt lat="43.1299100" lon="-7.8130490">
        <ele>388.4</ele>
        <time>2021-07-25T06:53:53Z</time>
      </trkpt>
      <trkpt lat="43.1298580" lon="-7.8130430">
        <ele>388.4</ele>
        <time>2021-07-25T06:53:55Z</time>
      </trkpt>
      <trkpt lat="43.1298130" lon="-7.8130370">
        <ele>388.4</ele>
        <time>2021-07-25T06:53:57Z</time>
      </trkpt>
      <trkpt lat="43.1297570" lon="-7.8130360">
        <ele>388.8</ele>
        <time>2021-07-25T06:54:00Z</time>
      </trkpt>
      <trkpt lat="43.1297400" lon="-7.8130330">
        <ele>389.6</ele>
        <time>2021-07-25T06:54:01Z</time>
      </trkpt>
      <trkpt lat="43.1297230" lon="-7.8130330">
        <ele>390.0</ele>
        <time>2021-07-25T06:54:02Z</time>
      </trkpt>
      <trkpt lat="43.1297030" lon="-7.8130310">
        <ele>390.4</ele>
        <time>2021-07-25T06:54:03Z</time>
      </trkpt>
      <trkpt lat="43.1296630" lon="-7.8130350">
        <ele>390.4</ele>
        <time>2021-07-25T06:54:05Z</time>
      </trkpt>
      <trkpt lat="43.1296090" lon="-7.8130440">
        <ele>390.4</ele>
        <time>2021-07-25T06:54:08Z</time>
      </trkpt>
      <trkpt lat="43.1295770" lon="-7.8130480">
        <ele>390.8</ele>
        <time>2021-07-25T06:54:10Z</time>
      </trkpt>
      <trkpt lat="43.1295630" lon="-7.8130500">
        <ele>391.2</ele>
        <time>2021-07-25T06:54:11Z</time>
      </trkpt>
      <trkpt lat="43.1295500" lon="-7.8130510">
        <ele>391.6</ele>
        <time>2021-07-25T06:54:12Z</time>
      </trkpt>
      <trkpt lat="43.1295380" lon="-7.8130590">
        <ele>392.0</ele>
        <time>2021-07-25T06:54:13Z</time>
      </trkpt>
      <trkpt lat="43.1295200" lon="-7.8130630">
        <ele>392.6</ele>
        <time>2021-07-25T06:54:14Z</time>
      </trkpt>
      <trkpt lat="43.1295030" lon="-7.8130670">
        <ele>392.6</ele>
        <time>2021-07-25T06:54:15Z</time>
      </trkpt>
      <trkpt lat="43.1294420" lon="-7.8130670">
        <ele>392.6</ele>
        <time>2021-07-25T06:54:18Z</time>
      </trkpt>
      <trkpt lat="43.1293910" lon="-7.8130820">
        <ele>392.6</ele>
        <time>2021-07-25T06:54:21Z</time>
      </trkpt>
      <trkpt lat="43.1293500" lon="-7.8130840">
        <ele>393.0</ele>
        <time>2021-07-25T06:54:23Z</time>
      </trkpt>
      <trkpt lat="43.1293350" lon="-7.8130830">
        <ele>393.4</ele>
        <time>2021-07-25T06:54:24Z</time>
      </trkpt>
      <trkpt lat="43.1293180" lon="-7.8130820">
        <ele>393.8</ele>
        <time>2021-07-25T06:54:25Z</time>
      </trkpt>
      <trkpt lat="43.1293040" lon="-7.8130740">
        <ele>394.6</ele>
        <time>2021-07-25T06:54:26Z</time>
      </trkpt>
      <trkpt lat="43.1292910" lon="-7.8130670">
        <ele>394.6</ele>
        <time>2021-07-25T06:54:27Z</time>
      </trkpt>
      <trkpt lat="43.1292560" lon="-7.8130580">
        <ele>394.6</ele>
        <time>2021-07-25T06:54:29Z</time>
      </trkpt>
      <trkpt lat="43.1291310" lon="-7.8129820">
        <ele>394.6</ele>
        <time>2021-07-25T06:54:37Z</time>
      </trkpt>
      <trkpt lat="43.1290390" lon="-7.8129270">
        <ele>395.0</ele>
        <time>2021-07-25T06:54:41Z</time>
      </trkpt>
      <trkpt lat="43.1290100" lon="-7.8129180">
        <ele>395.4</ele>
        <time>2021-07-25T06:54:42Z</time>
      </trkpt>
      <trkpt lat="43.1289780" lon="-7.8129050">
        <ele>395.8</ele>
        <time>2021-07-25T06:54:43Z</time>
      </trkpt>
      <trkpt lat="43.1289400" lon="-7.8128960">
        <ele>396.2</ele>
        <time>2021-07-25T06:54:44Z</time>
      </trkpt>
      <trkpt lat="43.1289090" lon="-7.8128890">
        <ele>396.6</ele>
        <time>2021-07-25T06:54:45Z</time>
      </trkpt>
      <trkpt lat="43.1286970" lon="-7.8128290">
        <ele>396.6</ele>
        <time>2021-07-25T06:54:53Z</time>
      </trkpt>
      <trkpt lat="43.1284440" lon="-7.8127420">
        <ele>396.6</ele>
        <time>2021-07-25T06:55:01Z</time>
      </trkpt>
      <trkpt lat="43.1282520" lon="-7.8127580">
        <ele>396.6</ele>
        <time>2021-07-25T06:55:07Z</time>
      </trkpt>
      <trkpt lat="43.1280380" lon="-7.8127260">
        <ele>396.6</ele>
        <time>2021-07-25T06:55:13Z</time>
      </trkpt>
      <trkpt lat="43.1279990" lon="-7.8127190">
        <ele>396.6</ele>
        <time>2021-07-25T06:55:14Z</time>
      </trkpt>
      <trkpt lat="43.1278420" lon="-7.8127000">
        <ele>396.6</ele>
        <time>2021-07-25T06:55:18Z</time>
      </trkpt>
      <trkpt lat="43.1277620" lon="-7.8126980">
        <ele>396.6</ele>
        <time>2021-07-25T06:55:20Z</time>
      </trkpt>
      <trkpt lat="43.1277240" lon="-7.8127090">
        <ele>396.6</ele>
        <time>2021-07-25T06:55:21Z</time>
      </trkpt>
      <trkpt lat="43.1275760" lon="-7.8128020">
        <ele>396.6</ele>
        <time>2021-07-25T06:55:25Z</time>
      </trkpt>
      <trkpt lat="43.1275410" lon="-7.8128340">
        <ele>396.6</ele>
        <time>2021-07-25T06:55:26Z</time>
      </trkpt>
      <trkpt lat="43.1274660" lon="-7.8128950">
        <ele>396.6</ele>
        <time>2021-07-25T06:55:28Z</time>
      </trkpt>
      <trkpt lat="43.1274280" lon="-7.8129370">
        <ele>396.6</ele>
        <time>2021-07-25T06:55:29Z</time>
      </trkpt>
      <trkpt lat="43.1273590" lon="-7.8130230">
        <ele>396.6</ele>
        <time>2021-07-25T06:55:31Z</time>
      </trkpt>
      <trkpt lat="43.1273210" lon="-7.8130710">
        <ele>396.6</ele>
        <time>2021-07-25T06:55:32Z</time>
      </trkpt>
      <trkpt lat="43.1272870" lon="-7.8131270">
        <ele>396.6</ele>
        <time>2021-07-25T06:55:33Z</time>
      </trkpt>
      <trkpt lat="43.1271860" lon="-7.8133690">
        <ele>396.6</ele>
        <time>2021-07-25T06:55:37Z</time>
      </trkpt>
      <trkpt lat="43.1271670" lon="-7.8134390">
        <ele>396.6</ele>
        <time>2021-07-25T06:55:38Z</time>
      </trkpt>
      <trkpt lat="43.1271250" lon="-7.8135800">
        <ele>396.6</ele>
        <time>2021-07-25T06:55:40Z</time>
      </trkpt>
      <trkpt lat="43.1271040" lon="-7.8136420">
        <ele>396.6</ele>
        <time>2021-07-25T06:55:41Z</time>
      </trkpt>
      <trkpt lat="43.1270610" lon="-7.8137710">
        <ele>396.2</ele>
        <time>2021-07-25T06:55:43Z</time>
      </trkpt>
      <trkpt lat="43.1270380" lon="-7.8138440">
        <ele>395.8</ele>
        <time>2021-07-25T06:55:44Z</time>
      </trkpt>
      <trkpt lat="43.1270140" lon="-7.8139110">
        <ele>395.4</ele>
        <time>2021-07-25T06:55:45Z</time>
      </trkpt>
      <trkpt lat="43.1269890" lon="-7.8139720">
        <ele>394.8</ele>
        <time>2021-07-25T06:55:46Z</time>
      </trkpt>
      <trkpt lat="43.1269620" lon="-7.8140370">
        <ele>394.4</ele>
        <time>2021-07-25T06:55:47Z</time>
      </trkpt>
      <trkpt lat="43.1269340" lon="-7.8141000">
        <ele>394.4</ele>
        <time>2021-07-25T06:55:48Z</time>
      </trkpt>
      <trkpt lat="43.1268250" lon="-7.8142950">
        <ele>394.0</ele>
        <time>2021-07-25T06:55:51Z</time>
      </trkpt>
      <trkpt lat="43.1267790" lon="-7.8143630">
        <ele>393.6</ele>
        <time>2021-07-25T06:55:52Z</time>
      </trkpt>
      <trkpt lat="43.1267350" lon="-7.8144300">
        <ele>393.2</ele>
        <time>2021-07-25T06:55:53Z</time>
      </trkpt>
      <trkpt lat="43.1266900" lon="-7.8145020">
        <ele>392.6</ele>
        <time>2021-07-25T06:55:54Z</time>
      </trkpt>
      <trkpt lat="43.1266440" lon="-7.8145720">
        <ele>392.2</ele>
        <time>2021-07-25T06:55:55Z</time>
      </trkpt>
      <trkpt lat="43.1265990" lon="-7.8146450">
        <ele>391.6</ele>
        <time>2021-07-25T06:55:56Z</time>
      </trkpt>
      <trkpt lat="43.1265560" lon="-7.8147160">
        <ele>391.0</ele>
        <time>2021-07-25T06:55:57Z</time>
      </trkpt>
      <trkpt lat="43.1265140" lon="-7.8147820">
        <ele>390.4</ele>
        <time>2021-07-25T06:55:58Z</time>
      </trkpt>
      <trkpt lat="43.1264730" lon="-7.8148470">
        <ele>389.8</ele>
        <time>2021-07-25T06:55:59Z</time>
      </trkpt>
      <trkpt lat="43.1264340" lon="-7.8149100">
        <ele>389.2</ele>
        <time>2021-07-25T06:56:00Z</time>
      </trkpt>
      <trkpt lat="43.1263900" lon="-7.8149700">
        <ele>388.6</ele>
        <time>2021-07-25T06:56:01Z</time>
      </trkpt>
      <trkpt lat="43.1263430" lon="-7.8150260">
        <ele>388.0</ele>
        <time>2021-07-25T06:56:02Z</time>
      </trkpt>
      <trkpt lat="43.1262930" lon="-7.8150790">
        <ele>387.4</ele>
        <time>2021-07-25T06:56:03Z</time>
      </trkpt>
      <trkpt lat="43.1262430" lon="-7.8151220">
        <ele>387.0</ele>
        <time>2021-07-25T06:56:04Z</time>
      </trkpt>
      <trkpt lat="43.1261910" lon="-7.8151550">
        <ele>386.0</ele>
        <time>2021-07-25T06:56:05Z</time>
      </trkpt>
      <trkpt lat="43.1261350" lon="-7.8151850">
        <ele>385.6</ele>
        <time>2021-07-25T06:56:06Z</time>
      </trkpt>
      <trkpt lat="43.1260120" lon="-7.8152400">
        <ele>385.6</ele>
        <time>2021-07-25T06:56:08Z</time>
      </trkpt>
      <trkpt lat="43.1258380" lon="-7.8153290">
        <ele>385.6</ele>
        <time>2021-07-25T06:56:11Z</time>
      </trkpt>
      <trkpt lat="43.1257760" lon="-7.8153520">
        <ele>385.2</ele>
        <time>2021-07-25T06:56:12Z</time>
      </trkpt>
      <trkpt lat="43.1257250" lon="-7.8153740">
        <ele>384.8</ele>
        <time>2021-07-25T06:56:13Z</time>
      </trkpt>
      <trkpt lat="43.1256730" lon="-7.8153970">
        <ele>384.4</ele>
        <time>2021-07-25T06:56:14Z</time>
      </trkpt>
      <trkpt lat="43.1256180" lon="-7.8154210">
        <ele>384.0</ele>
        <time>2021-07-25T06:56:15Z</time>
      </trkpt>
      <trkpt lat="43.1255700" lon="-7.8154440">
        <ele>383.6</ele>
        <time>2021-07-25T06:56:16Z</time>
      </trkpt>
      <trkpt lat="43.1254730" lon="-7.8154660">
        <ele>383.6</ele>
        <time>2021-07-25T06:56:18Z</time>
      </trkpt>
      <trkpt lat="43.1254240" lon="-7.8154650">
        <ele>383.2</ele>
        <time>2021-07-25T06:56:19Z</time>
      </trkpt>
      <trkpt lat="43.1253750" lon="-7.8154620">
        <ele>382.8</ele>
        <time>2021-07-25T06:56:20Z</time>
      </trkpt>
      <trkpt lat="43.1253240" lon="-7.8154550">
        <ele>382.4</ele>
        <time>2021-07-25T06:56:21Z</time>
      </trkpt>
      <trkpt lat="43.1252650" lon="-7.8154350">
        <ele>382.0</ele>
        <time>2021-07-25T06:56:22Z</time>
      </trkpt>
      <trkpt lat="43.1252030" lon="-7.8154110">
        <ele>381.6</ele>
        <time>2021-07-25T06:56:23Z</time>
      </trkpt>
      <trkpt lat="43.1250710" lon="-7.8153790">
        <ele>381.6</ele>
        <time>2021-07-25T06:56:25Z</time>
      </trkpt>
      <trkpt lat="43.1247230" lon="-7.8153580">
        <ele>381.6</ele>
        <time>2021-07-25T06:56:31Z</time>
      </trkpt>
      <trkpt lat="43.1246200" lon="-7.8153680">
        <ele>381.2</ele>
        <time>2021-07-25T06:56:33Z</time>
      </trkpt>
      <trkpt lat="43.1245670" lon="-7.8153770">
        <ele>380.8</ele>
        <time>2021-07-25T06:56:34Z</time>
      </trkpt>
      <trkpt lat="43.1245180" lon="-7.8153900">
        <ele>380.4</ele>
        <time>2021-07-25T06:56:35Z</time>
      </trkpt>
      <trkpt lat="43.1244690" lon="-7.8154030">
        <ele>380.0</ele>
        <time>2021-07-25T06:56:36Z</time>
      </trkpt>
      <trkpt lat="43.1244200" lon="-7.8154120">
        <ele>379.6</ele>
        <time>2021-07-25T06:56:37Z</time>
      </trkpt>
      <trkpt lat="43.1243230" lon="-7.8154340">
        <ele>379.6</ele>
        <time>2021-07-25T06:56:39Z</time>
      </trkpt>
      <trkpt lat="43.1241030" lon="-7.8154820">
        <ele>379.6</ele>
        <time>2021-07-25T06:56:44Z</time>
      </trkpt>
      <trkpt lat="43.1240540" lon="-7.8154930">
        <ele>379.6</ele>
        <time>2021-07-25T06:56:45Z</time>
      </trkpt>
      <trkpt lat="43.1239580" lon="-7.8155160">
        <ele>379.6</ele>
        <time>2021-07-25T06:56:47Z</time>
      </trkpt>
      <trkpt lat="43.1238140" lon="-7.8155610">
        <ele>379.6</ele>
        <time>2021-07-25T06:56:50Z</time>
      </trkpt>
      <trkpt lat="43.1237150" lon="-7.8156010">
        <ele>379.6</ele>
        <time>2021-07-25T06:56:52Z</time>
      </trkpt>
      <trkpt lat="43.1234850" lon="-7.8157230">
        <ele>379.6</ele>
        <time>2021-07-25T06:56:57Z</time>
      </trkpt>
      <trkpt lat="43.1234480" lon="-7.8157610">
        <ele>379.2</ele>
        <time>2021-07-25T06:56:58Z</time>
      </trkpt>
      <trkpt lat="43.1234070" lon="-7.8158070">
        <ele>378.8</ele>
        <time>2021-07-25T06:56:59Z</time>
      </trkpt>
      <trkpt lat="43.1233730" lon="-7.8158430">
        <ele>378.2</ele>
        <time>2021-07-25T06:57:00Z</time>
      </trkpt>
      <trkpt lat="43.1233390" lon="-7.8158850">
        <ele>377.8</ele>
        <time>2021-07-25T06:57:01Z</time>
      </trkpt>
      <trkpt lat="43.1233020" lon="-7.8159300">
        <ele>377.4</ele>
        <time>2021-07-25T06:57:02Z</time>
      </trkpt>
      <trkpt lat="43.1232340" lon="-7.8160060">
        <ele>377.4</ele>
        <time>2021-07-25T06:57:04Z</time>
      </trkpt>
      <trkpt lat="43.1231280" lon="-7.8160920">
        <ele>377.4</ele>
        <time>2021-07-25T06:57:07Z</time>
      </trkpt>
      <trkpt lat="43.1230460" lon="-7.8160950">
        <ele>377.4</ele>
        <time>2021-07-25T06:57:09Z</time>
      </trkpt>
      <trkpt lat="43.1229610" lon="-7.8160790">
        <ele>377.4</ele>
        <time>2021-07-25T06:57:11Z</time>
      </trkpt>
      <trkpt lat="43.1228810" lon="-7.8160550">
        <ele>377.4</ele>
        <time>2021-07-25T06:57:13Z</time>
      </trkpt>
      <trkpt lat="43.1227920" lon="-7.8160310">
        <ele>377.4</ele>
        <time>2021-07-25T06:57:15Z</time>
      </trkpt>
      <trkpt lat="43.1225380" lon="-7.8159740">
        <ele>377.4</ele>
        <time>2021-07-25T06:57:20Z</time>
      </trkpt>
      <trkpt lat="43.1223690" lon="-7.8159900">
        <ele>377.4</ele>
        <time>2021-07-25T06:57:25Z</time>
      </trkpt>
      <trkpt lat="43.1222830" lon="-7.8160120">
        <ele>377.8</ele>
        <time>2021-07-25T06:57:29Z</time>
      </trkpt>
      <trkpt lat="43.1222670" lon="-7.8160210">
        <ele>378.4</ele>
        <time>2021-07-25T06:57:30Z</time>
      </trkpt>
      <trkpt lat="43.1222500" lon="-7.8160280">
        <ele>378.8</ele>
        <time>2021-07-25T06:57:31Z</time>
      </trkpt>
      <trkpt lat="43.1222340" lon="-7.8160360">
        <ele>379.2</ele>
        <time>2021-07-25T06:57:32Z</time>
      </trkpt>
      <trkpt lat="43.1222170" lon="-7.8160440">
        <ele>379.6</ele>
        <time>2021-07-25T06:57:33Z</time>
      </trkpt>
      <trkpt lat="43.1221640" lon="-7.8160660">
        <ele>379.6</ele>
        <time>2021-07-25T06:57:36Z</time>
      </trkpt>
      <trkpt lat="43.1221270" lon="-7.8160730">
        <ele>380.0</ele>
        <time>2021-07-25T06:57:38Z</time>
      </trkpt>
      <trkpt lat="43.1221100" lon="-7.8160740">
        <ele>380.4</ele>
        <time>2021-07-25T06:57:39Z</time>
      </trkpt>
      <trkpt lat="43.1220870" lon="-7.8160770">
        <ele>380.8</ele>
        <time>2021-07-25T06:57:40Z</time>
      </trkpt>
      <trkpt lat="43.1220710" lon="-7.8160770">
        <ele>381.2</ele>
        <time>2021-07-25T06:57:41Z</time>
      </trkpt>
      <trkpt lat="43.1220520" lon="-7.8160820">
        <ele>381.6</ele>
        <time>2021-07-25T06:57:42Z</time>
      </trkpt>
      <trkpt lat="43.1219520" lon="-7.8161000">
        <ele>381.6</ele>
        <time>2021-07-25T06:57:47Z</time>
      </trkpt>
      <trkpt lat="43.1219350" lon="-7.8161070">
        <ele>381.6</ele>
        <time>2021-07-25T06:57:48Z</time>
      </trkpt>
      <trkpt lat="43.1219030" lon="-7.8161310">
        <ele>382.0</ele>
        <time>2021-07-25T06:57:50Z</time>
      </trkpt>
      <trkpt lat="43.1218860" lon="-7.8161390">
        <ele>382.4</ele>
        <time>2021-07-25T06:57:51Z</time>
      </trkpt>
      <trkpt lat="43.1218720" lon="-7.8161510">
        <ele>382.8</ele>
        <time>2021-07-25T06:57:52Z</time>
      </trkpt>
      <trkpt lat="43.1218570" lon="-7.8161670">
        <ele>383.2</ele>
        <time>2021-07-25T06:57:53Z</time>
      </trkpt>
      <trkpt lat="43.1218410" lon="-7.8161840">
        <ele>383.6</ele>
        <time>2021-07-25T06:57:54Z</time>
      </trkpt>
      <trkpt lat="43.1218220" lon="-7.8162030">
        <ele>383.6</ele>
        <time>2021-07-25T06:57:55Z</time>
      </trkpt>
      <trkpt lat="43.1216940" lon="-7.8162270">
        <ele>383.6</ele>
        <time>2021-07-25T06:58:01Z</time>
      </trkpt>
      <trkpt lat="43.1216010" lon="-7.8161890">
        <ele>384.2</ele>
        <time>2021-07-25T06:58:06Z</time>
      </trkpt>
      <trkpt lat="43.1215800" lon="-7.8161830">
        <ele>384.6</ele>
        <time>2021-07-25T06:58:07Z</time>
      </trkpt>
      <trkpt lat="43.1215660" lon="-7.8161800">
        <ele>385.0</ele>
        <time>2021-07-25T06:58:08Z</time>
      </trkpt>
      <trkpt lat="43.1215490" lon="-7.8161750">
        <ele>385.8</ele>
        <time>2021-07-25T06:58:09Z</time>
      </trkpt>
      <trkpt lat="43.1214080" lon="-7.8161540">
        <ele>385.8</ele>
        <time>2021-07-25T06:58:16Z</time>
      </trkpt>
      <trkpt lat="43.1213220" lon="-7.8161080">
        <ele>386.2</ele>
        <time>2021-07-25T06:58:21Z</time>
      </trkpt>
      <trkpt lat="43.1213060" lon="-7.8160980">
        <ele>386.6</ele>
        <time>2021-07-25T06:58:22Z</time>
      </trkpt>
      <trkpt lat="43.1212880" lon="-7.8160930">
        <ele>387.0</ele>
        <time>2021-07-25T06:58:23Z</time>
      </trkpt>
      <trkpt lat="43.1212720" lon="-7.8160780">
        <ele>387.4</ele>
        <time>2021-07-25T06:58:24Z</time>
      </trkpt>
      <trkpt lat="43.1212540" lon="-7.8160670">
        <ele>387.8</ele>
        <time>2021-07-25T06:58:25Z</time>
      </trkpt>
      <trkpt lat="43.1211640" lon="-7.8160340">
        <ele>387.8</ele>
        <time>2021-07-25T06:58:29Z</time>
      </trkpt>
      <trkpt lat="43.1209750" lon="-7.8159540">
        <ele>387.8</ele>
        <time>2021-07-25T06:58:37Z</time>
      </trkpt>
      <trkpt lat="43.1208860" lon="-7.8158230">
        <ele>388.2</ele>
        <time>2021-07-25T06:58:42Z</time>
      </trkpt>
      <trkpt lat="43.1208730" lon="-7.8157950">
        <ele>388.6</ele>
        <time>2021-07-25T06:58:43Z</time>
      </trkpt>
      <trkpt lat="43.1208530" lon="-7.8157710">
        <ele>389.0</ele>
        <time>2021-07-25T06:58:44Z</time>
      </trkpt>
      <trkpt lat="43.1208320" lon="-7.8157560">
        <ele>389.4</ele>
        <time>2021-07-25T06:58:45Z</time>
      </trkpt>
      <trkpt lat="43.1208100" lon="-7.8157450">
        <ele>389.8</ele>
        <time>2021-07-25T06:58:46Z</time>
      </trkpt>
      <trkpt lat="43.1207410" lon="-7.8157440">
        <ele>389.8</ele>
        <time>2021-07-25T06:58:49Z</time>
      </trkpt>
      <trkpt lat="43.1206900" lon="-7.8157800">
        <ele>389.8</ele>
        <time>2021-07-25T06:58:54Z</time>
      </trkpt>
      <trkpt lat="43.1206550" lon="-7.8157810">
        <ele>389.8</ele>
        <time>2021-07-25T06:59:17Z</time>
      </trkpt>
      <trkpt lat="43.1206210" lon="-7.8157790">
        <ele>389.8</ele>
        <time>2021-07-25T06:59:19Z</time>
      </trkpt>
      <trkpt lat="43.1205970" lon="-7.8157870">
        <ele>389.8</ele>
        <time>2021-07-25T06:59:20Z</time>
      </trkpt>
      <trkpt lat="43.1205110" lon="-7.8158340">
        <ele>389.8</ele>
        <time>2021-07-25T06:59:24Z</time>
      </trkpt>
      <trkpt lat="43.1204780" lon="-7.8158750">
        <ele>389.8</ele>
        <time>2021-07-25T06:59:26Z</time>
      </trkpt>
      <trkpt lat="43.1203100" lon="-7.8160030">
        <ele>390.4</ele>
        <time>2021-07-25T06:59:34Z</time>
      </trkpt>
      <trkpt lat="43.1202930" lon="-7.8160030">
        <ele>390.8</ele>
        <time>2021-07-25T06:59:35Z</time>
      </trkpt>
      <trkpt lat="43.1202730" lon="-7.8160050">
        <ele>391.2</ele>
        <time>2021-07-25T06:59:36Z</time>
      </trkpt>
      <trkpt lat="43.1202510" lon="-7.8160040">
        <ele>391.6</ele>
        <time>2021-07-25T06:59:37Z</time>
      </trkpt>
      <trkpt lat="43.1202300" lon="-7.8160030">
        <ele>392.0</ele>
        <time>2021-07-25T06:59:38Z</time>
      </trkpt>
      <trkpt lat="43.1201810" lon="-7.8160020">
        <ele>392.0</ele>
        <time>2021-07-25T06:59:40Z</time>
      </trkpt>
      <trkpt lat="43.1199990" lon="-7.8159660">
        <ele>392.0</ele>
        <time>2021-07-25T06:59:47Z</time>
      </trkpt>
      <trkpt lat="43.1199520" lon="-7.8159600">
        <ele>392.0</ele>
        <time>2021-07-25T06:59:49Z</time>
      </trkpt>
      <trkpt lat="43.1198350" lon="-7.8159420">
        <ele>392.0</ele>
        <time>2021-07-25T06:59:54Z</time>
      </trkpt>
      <trkpt lat="43.1198100" lon="-7.8159390">
        <ele>392.0</ele>
        <time>2021-07-25T06:59:55Z</time>
      </trkpt>
      <trkpt lat="43.1196750" lon="-7.8159020">
        <ele>392.0</ele>
        <time>2021-07-25T07:00:01Z</time>
      </trkpt>
      <trkpt lat="43.1195660" lon="-7.8158670">
        <ele>392.0</ele>
        <time>2021-07-25T07:00:05Z</time>
      </trkpt>
      <trkpt lat="43.1195170" lon="-7.8158450">
        <ele>392.4</ele>
        <time>2021-07-25T07:00:07Z</time>
      </trkpt>
      <trkpt lat="43.1194930" lon="-7.8158420">
        <ele>392.8</ele>
        <time>2021-07-25T07:00:08Z</time>
      </trkpt>
      <trkpt lat="43.1194710" lon="-7.8158370">
        <ele>393.2</ele>
        <time>2021-07-25T07:00:09Z</time>
      </trkpt>
      <trkpt lat="43.1194480" lon="-7.8158350">
        <ele>393.6</ele>
        <time>2021-07-25T07:00:10Z</time>
      </trkpt>
      <trkpt lat="43.1194220" lon="-7.8158350">
        <ele>394.0</ele>
        <time>2021-07-25T07:00:11Z</time>
      </trkpt>
      <trkpt lat="43.1193210" lon="-7.8158130">
        <ele>394.0</ele>
        <time>2021-07-25T07:00:15Z</time>
      </trkpt>
      <trkpt lat="43.1191650" lon="-7.8157760">
        <ele>394.0</ele>
        <time>2021-07-25T07:00:21Z</time>
      </trkpt>
      <trkpt lat="43.1191170" lon="-7.8157660">
        <ele>394.0</ele>
        <time>2021-07-25T07:00:23Z</time>
      </trkpt>
      <trkpt lat="43.1190040" lon="-7.8157440">
        <ele>394.6</ele>
        <time>2021-07-25T07:00:28Z</time>
      </trkpt>
      <trkpt lat="43.1189770" lon="-7.8157370">
        <ele>395.0</ele>
        <time>2021-07-25T07:00:29Z</time>
      </trkpt>
      <trkpt lat="43.1189540" lon="-7.8157360">
        <ele>395.4</ele>
        <time>2021-07-25T07:00:30Z</time>
      </trkpt>
      <trkpt lat="43.1189300" lon="-7.8157400">
        <ele>395.8</ele>
        <time>2021-07-25T07:00:31Z</time>
      </trkpt>
      <trkpt lat="43.1189070" lon="-7.8157480">
        <ele>396.2</ele>
        <time>2021-07-25T07:00:32Z</time>
      </trkpt>
      <trkpt lat="43.1187870" lon="-7.8157730">
        <ele>396.2</ele>
        <time>2021-07-25T07:00:37Z</time>
      </trkpt>
      <trkpt lat="43.1186150" lon="-7.8157640">
        <ele>396.2</ele>
        <time>2021-07-25T07:00:44Z</time>
      </trkpt>
      <trkpt lat="43.1184960" lon="-7.8157780">
        <ele>396.6</ele>
        <time>2021-07-25T07:00:49Z</time>
      </trkpt>
      <trkpt lat="43.1184740" lon="-7.8157850">
        <ele>397.0</ele>
        <time>2021-07-25T07:00:50Z</time>
      </trkpt>
      <trkpt lat="43.1184490" lon="-7.8157860">
        <ele>397.4</ele>
        <time>2021-07-25T07:00:51Z</time>
      </trkpt>
      <trkpt lat="43.1184210" lon="-7.8157970">
        <ele>397.8</ele>
        <time>2021-07-25T07:00:52Z</time>
      </trkpt>
      <trkpt lat="43.1183990" lon="-7.8158000">
        <ele>398.2</ele>
        <time>2021-07-25T07:00:53Z</time>
      </trkpt>
      <trkpt lat="43.1182080" lon="-7.8158440">
        <ele>398.2</ele>
        <time>2021-07-25T07:01:01Z</time>
      </trkpt>
      <trkpt lat="43.1180150" lon="-7.8158930">
        <ele>398.2</ele>
        <time>2021-07-25T07:01:09Z</time>
      </trkpt>
      <trkpt lat="43.1179450" lon="-7.8159220">
        <ele>398.6</ele>
        <time>2021-07-25T07:01:12Z</time>
      </trkpt>
      <trkpt lat="43.1179210" lon="-7.8159270">
        <ele>399.0</ele>
        <time>2021-07-25T07:01:13Z</time>
      </trkpt>
      <trkpt lat="43.1178980" lon="-7.8159360">
        <ele>399.4</ele>
        <time>2021-07-25T07:01:14Z</time>
      </trkpt>
      <trkpt lat="43.1178740" lon="-7.8159460">
        <ele>399.8</ele>
        <time>2021-07-25T07:01:15Z</time>
      </trkpt>
      <trkpt lat="43.1178510" lon="-7.8159560">
        <ele>400.2</ele>
        <time>2021-07-25T07:01:16Z</time>
      </trkpt>
      <trkpt lat="43.1178250" lon="-7.8159620">
        <ele>400.2</ele>
        <time>2021-07-25T07:01:17Z</time>
      </trkpt>
      <trkpt lat="43.1176400" lon="-7.8160210">
        <ele>400.2</ele>
        <time>2021-07-25T07:01:25Z</time>
      </trkpt>
      <trkpt lat="43.1175070" lon="-7.8160510">
        <ele>400.6</ele>
        <time>2021-07-25T07:01:31Z</time>
      </trkpt>
      <trkpt lat="43.1174840" lon="-7.8160510">
        <ele>401.0</ele>
        <time>2021-07-25T07:01:32Z</time>
      </trkpt>
      <trkpt lat="43.1174630" lon="-7.8160570">
        <ele>401.6</ele>
        <time>2021-07-25T07:01:33Z</time>
      </trkpt>
      <trkpt lat="43.1174400" lon="-7.8160600">
        <ele>402.0</ele>
        <time>2021-07-25T07:01:34Z</time>
      </trkpt>
      <trkpt lat="43.1174200" lon="-7.8160660">
        <ele>402.4</ele>
        <time>2021-07-25T07:01:35Z</time>
      </trkpt>
      <trkpt lat="43.1173330" lon="-7.8160820">
        <ele>402.4</ele>
        <time>2021-07-25T07:01:39Z</time>
      </trkpt>
      <trkpt lat="43.1171720" lon="-7.8160850">
        <ele>402.4</ele>
        <time>2021-07-25T07:01:47Z</time>
      </trkpt>
      <trkpt lat="43.1171310" lon="-7.8160850">
        <ele>402.8</ele>
        <time>2021-07-25T07:01:49Z</time>
      </trkpt>
      <trkpt lat="43.1171110" lon="-7.8160820">
        <ele>403.6</ele>
        <time>2021-07-25T07:01:50Z</time>
      </trkpt>
      <trkpt lat="43.1170900" lon="-7.8160800">
        <ele>404.0</ele>
        <time>2021-07-25T07:01:51Z</time>
      </trkpt>
      <trkpt lat="43.1170710" lon="-7.8160760">
        <ele>404.6</ele>
        <time>2021-07-25T07:01:52Z</time>
      </trkpt>
      <trkpt lat="43.1170160" lon="-7.8160540">
        <ele>404.6</ele>
        <time>2021-07-25T07:01:55Z</time>
      </trkpt>
      <trkpt lat="43.1169110" lon="-7.8160150">
        <ele>405.0</ele>
        <time>2021-07-25T07:02:01Z</time>
      </trkpt>
      <trkpt lat="43.1168960" lon="-7.8160030">
        <ele>405.4</ele>
        <time>2021-07-25T07:02:02Z</time>
      </trkpt>
      <trkpt lat="43.1168780" lon="-7.8159920">
        <ele>405.8</ele>
        <time>2021-07-25T07:02:03Z</time>
      </trkpt>
      <trkpt lat="43.1168630" lon="-7.8159780">
        <ele>406.2</ele>
        <time>2021-07-25T07:02:04Z</time>
      </trkpt>
      <trkpt lat="43.1168440" lon="-7.8159670">
        <ele>406.6</ele>
        <time>2021-07-25T07:02:05Z</time>
      </trkpt>
      <trkpt lat="43.1167500" lon="-7.8159140">
        <ele>406.6</ele>
        <time>2021-07-25T07:02:10Z</time>
      </trkpt>
      <trkpt lat="43.1166620" lon="-7.8158590">
        <ele>407.4</ele>
        <time>2021-07-25T07:02:15Z</time>
      </trkpt>
      <trkpt lat="43.1166440" lon="-7.8158510">
        <ele>408.0</ele>
        <time>2021-07-25T07:02:16Z</time>
      </trkpt>
      <trkpt lat="43.1166270" lon="-7.8158470">
        <ele>408.4</ele>
        <time>2021-07-25T07:02:17Z</time>
      </trkpt>
      <trkpt lat="43.1166080" lon="-7.8158390">
        <ele>408.8</ele>
        <time>2021-07-25T07:02:18Z</time>
      </trkpt>
      <trkpt lat="43.1164440" lon="-7.8157640">
        <ele>408.8</ele>
        <time>2021-07-25T07:02:26Z</time>
      </trkpt>
      <trkpt lat="43.1163050" lon="-7.8157000">
        <ele>408.8</ele>
        <time>2021-07-25T07:02:33Z</time>
      </trkpt>
      <trkpt lat="43.1162520" lon="-7.8156620">
        <ele>409.2</ele>
        <time>2021-07-25T07:02:36Z</time>
      </trkpt>
      <trkpt lat="43.1162330" lon="-7.8156510">
        <ele>409.6</ele>
        <time>2021-07-25T07:02:37Z</time>
      </trkpt>
      <trkpt lat="43.1162140" lon="-7.8156440">
        <ele>410.0</ele>
        <time>2021-07-25T07:02:38Z</time>
      </trkpt>
      <trkpt lat="43.1161920" lon="-7.8156380">
        <ele>410.4</ele>
        <time>2021-07-25T07:02:39Z</time>
      </trkpt>
      <trkpt lat="43.1161720" lon="-7.8156290">
        <ele>410.8</ele>
        <time>2021-07-25T07:02:40Z</time>
      </trkpt>
      <trkpt lat="43.1160260" lon="-7.8155790">
        <ele>410.8</ele>
        <time>2021-07-25T07:02:47Z</time>
      </trkpt>
      <trkpt lat="43.1159250" lon="-7.8155770">
        <ele>410.8</ele>
        <time>2021-07-25T07:02:52Z</time>
      </trkpt>
      <trkpt lat="43.1158890" lon="-7.8155940">
        <ele>410.8</ele>
        <time>2021-07-25T07:02:54Z</time>
      </trkpt>
      <trkpt lat="43.1158420" lon="-7.8156260">
        <ele>410.8</ele>
        <time>2021-07-25T07:02:57Z</time>
      </trkpt>
      <trkpt lat="43.1157990" lon="-7.8157140">
        <ele>410.8</ele>
        <time>2021-07-25T07:03:01Z</time>
      </trkpt>
      <trkpt lat="43.1157910" lon="-7.8158250">
        <ele>410.8</ele>
        <time>2021-07-25T07:03:04Z</time>
      </trkpt>
      <trkpt lat="43.1157810" lon="-7.8159600">
        <ele>410.8</ele>
        <time>2021-07-25T07:03:07Z</time>
      </trkpt>
      <trkpt lat="43.1157800" lon="-7.8163620">
        <ele>410.8</ele>
        <time>2021-07-25T07:03:15Z</time>
      </trkpt>
      <trkpt lat="43.1157400" lon="-7.8167710">
        <ele>410.8</ele>
        <time>2021-07-25T07:03:23Z</time>
      </trkpt>
      <trkpt lat="43.1156970" lon="-7.8169140">
        <ele>410.8</ele>
        <time>2021-07-25T07:03:26Z</time>
      </trkpt>
      <trkpt lat="43.1156160" lon="-7.8171210">
        <ele>410.8</ele>
        <time>2021-07-25T07:03:31Z</time>
      </trkpt>
      <trkpt lat="43.1155670" lon="-7.8172730">
        <ele>410.8</ele>
        <time>2021-07-25T07:03:35Z</time>
      </trkpt>
      <trkpt lat="43.1155370" lon="-7.8173960">
        <ele>410.8</ele>
        <time>2021-07-25T07:03:38Z</time>
      </trkpt>
      <trkpt lat="43.1155050" lon="-7.8176300">
        <ele>410.8</ele>
        <time>2021-07-25T07:03:45Z</time>
      </trkpt>
      <trkpt lat="43.1154920" lon="-7.8177040">
        <ele>410.8</ele>
        <time>2021-07-25T07:03:47Z</time>
      </trkpt>
      <trkpt lat="43.1154940" lon="-7.8177610">
        <ele>410.8</ele>
        <time>2021-07-25T07:03:51Z</time>
      </trkpt>
      <trkpt lat="43.1154830" lon="-7.8178290">
        <ele>410.8</ele>
        <time>2021-07-25T07:04:58Z</time>
      </trkpt>
      <trkpt lat="43.1154820" lon="-7.8179000">
        <ele>410.8</ele>
        <time>2021-07-25T07:05:00Z</time>
      </trkpt>
      <trkpt lat="43.1155300" lon="-7.8181670">
        <ele>410.8</ele>
        <time>2021-07-25T07:05:05Z</time>
      </trkpt>
      <trkpt lat="43.1155990" lon="-7.8183830">
        <ele>410.4</ele>
        <time>2021-07-25T07:05:08Z</time>
      </trkpt>
      <trkpt lat="43.1156270" lon="-7.8184680">
        <ele>410.0</ele>
        <time>2021-07-25T07:05:09Z</time>
      </trkpt>
      <trkpt lat="43.1156560" lon="-7.8185570">
        <ele>409.6</ele>
        <time>2021-07-25T07:05:10Z</time>
      </trkpt>
      <trkpt lat="43.1156890" lon="-7.8186470">
        <ele>409.0</ele>
        <time>2021-07-25T07:05:11Z</time>
      </trkpt>
      <trkpt lat="43.1157240" lon="-7.8187410">
        <ele>408.6</ele>
        <time>2021-07-25T07:05:12Z</time>
      </trkpt>
      <trkpt lat="43.1157960" lon="-7.8189200">
        <ele>408.2</ele>
        <time>2021-07-25T07:05:14Z</time>
      </trkpt>
      <trkpt lat="43.1158330" lon="-7.8190080">
        <ele>407.8</ele>
        <time>2021-07-25T07:05:15Z</time>
      </trkpt>
      <trkpt lat="43.1158710" lon="-7.8190940">
        <ele>407.2</ele>
        <time>2021-07-25T07:05:16Z</time>
      </trkpt>
      <trkpt lat="43.1159070" lon="-7.8191720">
        <ele>406.8</ele>
        <time>2021-07-25T07:05:17Z</time>
      </trkpt>
      <trkpt lat="43.1159420" lon="-7.8192460">
        <ele>406.4</ele>
        <time>2021-07-25T07:05:18Z</time>
      </trkpt>
      <trkpt lat="43.1159750" lon="-7.8193270">
        <ele>405.8</ele>
        <time>2021-07-25T07:05:19Z</time>
      </trkpt>
      <trkpt lat="43.1160080" lon="-7.8194120">
        <ele>405.4</ele>
        <time>2021-07-25T07:05:20Z</time>
      </trkpt>
      <trkpt lat="43.1160400" lon="-7.8195070">
        <ele>405.0</ele>
        <time>2021-07-25T07:05:21Z</time>
      </trkpt>
      <trkpt lat="43.1160720" lon="-7.8195980">
        <ele>404.6</ele>
        <time>2021-07-25T07:05:22Z</time>
      </trkpt>
      <trkpt lat="43.1161050" lon="-7.8196910">
        <ele>404.2</ele>
        <time>2021-07-25T07:05:23Z</time>
      </trkpt>
      <trkpt lat="43.1161380" lon="-7.8197850">
        <ele>403.8</ele>
        <time>2021-07-25T07:05:24Z</time>
      </trkpt>
      <trkpt lat="43.1161740" lon="-7.8198820">
        <ele>403.4</ele>
        <time>2021-07-25T07:05:25Z</time>
      </trkpt>
      <trkpt lat="43.1162130" lon="-7.8199790">
        <ele>403.0</ele>
        <time>2021-07-25T07:05:26Z</time>
      </trkpt>
      <trkpt lat="43.1162490" lon="-7.8200920">
        <ele>402.6</ele>
        <time>2021-07-25T07:05:27Z</time>
      </trkpt>
      <trkpt lat="43.1162860" lon="-7.8202070">
        <ele>402.2</ele>
        <time>2021-07-25T07:05:28Z</time>
      </trkpt>
      <trkpt lat="43.1163230" lon="-7.8203190">
        <ele>401.6</ele>
        <time>2021-07-25T07:05:29Z</time>
      </trkpt>
      <trkpt lat="43.1163600" lon="-7.8204340">
        <ele>401.2</ele>
        <time>2021-07-25T07:05:30Z</time>
      </trkpt>
      <trkpt lat="43.1163970" lon="-7.8205520">
        <ele>400.8</ele>
        <time>2021-07-25T07:05:31Z</time>
      </trkpt>
      <trkpt lat="43.1164340" lon="-7.8206680">
        <ele>399.8</ele>
        <time>2021-07-25T07:05:32Z</time>
      </trkpt>
      <trkpt lat="43.1165130" lon="-7.8209020">
        <ele>399.4</ele>
        <time>2021-07-25T07:05:34Z</time>
      </trkpt>
      <trkpt lat="43.1165500" lon="-7.8210180">
        <ele>399.0</ele>
        <time>2021-07-25T07:05:35Z</time>
      </trkpt>
      <trkpt lat="43.1165860" lon="-7.8211430">
        <ele>398.4</ele>
        <time>2021-07-25T07:05:36Z</time>
      </trkpt>
      <trkpt lat="43.1166190" lon="-7.8212680">
        <ele>398.0</ele>
        <time>2021-07-25T07:05:37Z</time>
      </trkpt>
      <trkpt lat="43.1166520" lon="-7.8213950">
        <ele>397.6</ele>
        <time>2021-07-25T07:05:38Z</time>
      </trkpt>
      <trkpt lat="43.1166840" lon="-7.8215230">
        <ele>397.0</ele>
        <time>2021-07-25T07:05:39Z</time>
      </trkpt>
      <trkpt lat="43.1167130" lon="-7.8216510">
        <ele>396.6</ele>
        <time>2021-07-25T07:05:40Z</time>
      </trkpt>
      <trkpt lat="43.1167450" lon="-7.8217750">
        <ele>396.0</ele>
        <time>2021-07-25T07:05:41Z</time>
      </trkpt>
      <trkpt lat="43.1167760" lon="-7.8219050">
        <ele>395.6</ele>
        <time>2021-07-25T07:05:42Z</time>
      </trkpt>
      <trkpt lat="43.1168090" lon="-7.8220380">
        <ele>395.0</ele>
        <time>2021-07-25T07:05:43Z</time>
      </trkpt>
      <trkpt lat="43.1168400" lon="-7.8221650">
        <ele>394.2</ele>
        <time>2021-07-25T07:05:44Z</time>
      </trkpt>
      <trkpt lat="43.1168710" lon="-7.8222910">
        <ele>393.6</ele>
        <time>2021-07-25T07:05:45Z</time>
      </trkpt>
      <trkpt lat="43.1168990" lon="-7.8224140">
        <ele>393.0</ele>
        <time>2021-07-25T07:05:46Z</time>
      </trkpt>
      <trkpt lat="43.1169270" lon="-7.8225290">
        <ele>392.4</ele>
        <time>2021-07-25T07:05:47Z</time>
      </trkpt>
      <trkpt lat="43.1169530" lon="-7.8226450">
        <ele>391.8</ele>
        <time>2021-07-25T07:05:48Z</time>
      </trkpt>
      <trkpt lat="43.1169790" lon="-7.8227580">
        <ele>391.2</ele>
        <time>2021-07-25T07:05:49Z</time>
      </trkpt>
      <trkpt lat="43.1170070" lon="-7.8228690">
        <ele>390.6</ele>
        <time>2021-07-25T07:05:50Z</time>
      </trkpt>
      <trkpt lat="43.1170300" lon="-7.8229660">
        <ele>390.0</ele>
        <time>2021-07-25T07:05:51Z</time>
      </trkpt>
      <trkpt lat="43.1170520" lon="-7.8230530">
        <ele>389.4</ele>
        <time>2021-07-25T07:05:52Z</time>
      </trkpt>
      <trkpt lat="43.1170720" lon="-7.8231340">
        <ele>388.8</ele>
        <time>2021-07-25T07:05:53Z</time>
      </trkpt>
      <trkpt lat="43.1170930" lon="-7.8232120">
        <ele>388.2</ele>
        <time>2021-07-25T07:05:54Z</time>
      </trkpt>
      <trkpt lat="43.1171160" lon="-7.8232850">
        <ele>387.4</ele>
        <time>2021-07-25T07:05:55Z</time>
      </trkpt>
      <trkpt lat="43.1171360" lon="-7.8233560">
        <ele>386.8</ele>
        <time>2021-07-25T07:05:56Z</time>
      </trkpt>
      <trkpt lat="43.1171510" lon="-7.8234180">
        <ele>385.4</ele>
        <time>2021-07-25T07:05:57Z</time>
      </trkpt>
      <trkpt lat="43.1171690" lon="-7.8234670">
        <ele>385.0</ele>
        <time>2021-07-25T07:05:58Z</time>
      </trkpt>
      <trkpt lat="43.1171780" lon="-7.8235120">
        <ele>384.4</ele>
        <time>2021-07-25T07:05:59Z</time>
      </trkpt>
      <trkpt lat="43.1171800" lon="-7.8235570">
        <ele>384.0</ele>
        <time>2021-07-25T07:06:00Z</time>
      </trkpt>
      <trkpt lat="43.1171750" lon="-7.8235990">
        <ele>383.6</ele>
        <time>2021-07-25T07:06:01Z</time>
      </trkpt>
      <trkpt lat="43.1171670" lon="-7.8236380">
        <ele>383.0</ele>
        <time>2021-07-25T07:06:02Z</time>
      </trkpt>
      <trkpt lat="43.1171540" lon="-7.8236760">
        <ele>383.0</ele>
        <time>2021-07-25T07:06:03Z</time>
      </trkpt>
      <trkpt lat="43.1171110" lon="-7.8237490">
        <ele>383.0</ele>
        <time>2021-07-25T07:06:05Z</time>
      </trkpt>
      <trkpt lat="43.1170510" lon="-7.8238060">
        <ele>383.0</ele>
        <time>2021-07-25T07:06:07Z</time>
      </trkpt>
      <trkpt lat="43.1170210" lon="-7.8238320">
        <ele>383.0</ele>
        <time>2021-07-25T07:06:08Z</time>
      </trkpt>
      <trkpt lat="43.1169580" lon="-7.8238810">
        <ele>383.0</ele>
        <time>2021-07-25T07:06:10Z</time>
      </trkpt>
      <trkpt lat="43.1169000" lon="-7.8239400">
        <ele>383.0</ele>
        <time>2021-07-25T07:06:12Z</time>
      </trkpt>
      <trkpt lat="43.1168200" lon="-7.8240220">
        <ele>383.0</ele>
        <time>2021-07-25T07:06:15Z</time>
      </trkpt>
      <trkpt lat="43.1167300" lon="-7.8241210">
        <ele>383.0</ele>
        <time>2021-07-25T07:06:19Z</time>
      </trkpt>
      <trkpt lat="43.1166650" lon="-7.8241940">
        <ele>383.0</ele>
        <time>2021-07-25T07:06:22Z</time>
      </trkpt>
      <trkpt lat="43.1165990" lon="-7.8242620">
        <ele>383.0</ele>
        <time>2021-07-25T07:06:25Z</time>
      </trkpt>
      <trkpt lat="43.1165350" lon="-7.8243590">
        <ele>383.0</ele>
        <time>2021-07-25T07:06:28Z</time>
      </trkpt>
      <trkpt lat="43.1165110" lon="-7.8244000">
        <ele>383.0</ele>
        <time>2021-07-25T07:06:29Z</time>
      </trkpt>
      <trkpt lat="43.1164500" lon="-7.8245980">
        <ele>383.0</ele>
        <time>2021-07-25T07:06:33Z</time>
      </trkpt>
      <trkpt lat="43.1164400" lon="-7.8246540">
        <ele>383.0</ele>
        <time>2021-07-25T07:06:34Z</time>
      </trkpt>
      <trkpt lat="43.1164200" lon="-7.8250080">
        <ele>383.0</ele>
        <time>2021-07-25T07:06:40Z</time>
      </trkpt>
      <trkpt lat="43.1163970" lon="-7.8254240">
        <ele>383.0</ele>
        <time>2021-07-25T07:06:47Z</time>
      </trkpt>
      <trkpt lat="43.1163840" lon="-7.8259280">
        <ele>383.0</ele>
        <time>2021-07-25T07:06:55Z</time>
      </trkpt>
      <trkpt lat="43.1163820" lon="-7.8259910">
        <ele>383.0</ele>
        <time>2021-07-25T07:06:56Z</time>
      </trkpt>
      <trkpt lat="43.1163760" lon="-7.8261140">
        <ele>383.0</ele>
        <time>2021-07-25T07:06:58Z</time>
      </trkpt>
      <trkpt lat="43.1163750" lon="-7.8262320">
        <ele>383.0</ele>
        <time>2021-07-25T07:07:00Z</time>
      </trkpt>
      <trkpt lat="43.1163770" lon="-7.8264170">
        <ele>383.0</ele>
        <time>2021-07-25T07:07:03Z</time>
      </trkpt>
      <trkpt lat="43.1163620" lon="-7.8267210">
        <ele>383.0</ele>
        <time>2021-07-25T07:07:08Z</time>
      </trkpt>
      <trkpt lat="43.1163650" lon="-7.8269620">
        <ele>383.0</ele>
        <time>2021-07-25T07:07:12Z</time>
      </trkpt>
      <trkpt lat="43.1163680" lon="-7.8271870">
        <ele>383.0</ele>
        <time>2021-07-25T07:07:16Z</time>
      </trkpt>
      <trkpt lat="43.1163700" lon="-7.8272410">
        <ele>382.6</ele>
        <time>2021-07-25T07:07:17Z</time>
      </trkpt>
      <trkpt lat="43.1163700" lon="-7.8272960">
        <ele>382.2</ele>
        <time>2021-07-25T07:07:18Z</time>
      </trkpt>
      <trkpt lat="43.1163700" lon="-7.8273530">
        <ele>381.8</ele>
        <time>2021-07-25T07:07:19Z</time>
      </trkpt>
      <trkpt lat="43.1163720" lon="-7.8274050">
        <ele>381.4</ele>
        <time>2021-07-25T07:07:20Z</time>
      </trkpt>
      <trkpt lat="43.1163740" lon="-7.8274600">
        <ele>381.0</ele>
        <time>2021-07-25T07:07:21Z</time>
      </trkpt>
      <trkpt lat="43.1164030" lon="-7.8277360">
        <ele>381.0</ele>
        <time>2021-07-25T07:07:26Z</time>
      </trkpt>
      <trkpt lat="43.1164190" lon="-7.8278450">
        <ele>381.0</ele>
        <time>2021-07-25T07:07:28Z</time>
      </trkpt>
      <trkpt lat="43.1164670" lon="-7.8280850">
        <ele>381.0</ele>
        <time>2021-07-25T07:07:33Z</time>
      </trkpt>
      <trkpt lat="43.1164920" lon="-7.8281920">
        <ele>381.0</ele>
        <time>2021-07-25T07:07:35Z</time>
      </trkpt>
      <trkpt lat="43.1165760" lon="-7.8285590">
        <ele>380.6</ele>
        <time>2021-07-25T07:07:41Z</time>
      </trkpt>
      <trkpt lat="43.1165890" lon="-7.8286250">
        <ele>380.2</ele>
        <time>2021-07-25T07:07:42Z</time>
      </trkpt>
      <trkpt lat="43.1166020" lon="-7.8286920">
        <ele>379.8</ele>
        <time>2021-07-25T07:07:43Z</time>
      </trkpt>
      <trkpt lat="43.1166150" lon="-7.8287560">
        <ele>379.4</ele>
        <time>2021-07-25T07:07:44Z</time>
      </trkpt>
      <trkpt lat="43.1166290" lon="-7.8288210">
        <ele>379.0</ele>
        <time>2021-07-25T07:07:45Z</time>
      </trkpt>
      <trkpt lat="43.1166820" lon="-7.8290720">
        <ele>379.0</ele>
        <time>2021-07-25T07:07:49Z</time>
      </trkpt>
      <trkpt lat="43.1167460" lon="-7.8293710">
        <ele>379.0</ele>
        <time>2021-07-25T07:07:54Z</time>
      </trkpt>
      <trkpt lat="43.1167880" lon="-7.8295550">
        <ele>379.0</ele>
        <time>2021-07-25T07:07:57Z</time>
      </trkpt>
      <trkpt lat="43.1168500" lon="-7.8298500">
        <ele>378.6</ele>
        <time>2021-07-25T07:08:02Z</time>
      </trkpt>
      <trkpt lat="43.1168640" lon="-7.8299120">
        <ele>378.2</ele>
        <time>2021-07-25T07:08:03Z</time>
      </trkpt>
      <trkpt lat="43.1168760" lon="-7.8299690">
        <ele>377.8</ele>
        <time>2021-07-25T07:08:04Z</time>
      </trkpt>
      <trkpt lat="43.1168880" lon="-7.8300270">
        <ele>377.4</ele>
        <time>2021-07-25T07:08:05Z</time>
      </trkpt>
      <trkpt lat="43.1169000" lon="-7.8300800">
        <ele>377.0</ele>
        <time>2021-07-25T07:08:06Z</time>
      </trkpt>
      <trkpt lat="43.1169390" lon="-7.8302520">
        <ele>377.0</ele>
        <time>2021-07-25T07:08:09Z</time>
      </trkpt>
      <trkpt lat="43.1169610" lon="-7.8303750">
        <ele>377.0</ele>
        <time>2021-07-25T07:08:11Z</time>
      </trkpt>
      <trkpt lat="43.1170410" lon="-7.8307230">
        <ele>377.0</ele>
        <time>2021-07-25T07:08:17Z</time>
      </trkpt>
      <trkpt lat="43.1171030" lon="-7.8309860">
        <ele>376.6</ele>
        <time>2021-07-25T07:08:21Z</time>
      </trkpt>
      <trkpt lat="43.1171180" lon="-7.8310660">
        <ele>376.2</ele>
        <time>2021-07-25T07:08:22Z</time>
      </trkpt>
      <trkpt lat="43.1171340" lon="-7.8311520">
        <ele>375.8</ele>
        <time>2021-07-25T07:08:23Z</time>
      </trkpt>
      <trkpt lat="43.1171520" lon="-7.8312360">
        <ele>375.4</ele>
        <time>2021-07-25T07:08:24Z</time>
      </trkpt>
      <trkpt lat="43.1171710" lon="-7.8313260">
        <ele>375.0</ele>
        <time>2021-07-25T07:08:25Z</time>
      </trkpt>
      <trkpt lat="43.1172930" lon="-7.8319270">
        <ele>374.6</ele>
        <time>2021-07-25T07:08:32Z</time>
      </trkpt>
      <trkpt lat="43.1173120" lon="-7.8320140">
        <ele>374.0</ele>
        <time>2021-07-25T07:08:33Z</time>
      </trkpt>
      <trkpt lat="43.1173280" lon="-7.8321050">
        <ele>373.6</ele>
        <time>2021-07-25T07:08:34Z</time>
      </trkpt>
      <trkpt lat="43.1173470" lon="-7.8321920">
        <ele>373.2</ele>
        <time>2021-07-25T07:08:35Z</time>
      </trkpt>
      <trkpt lat="43.1173680" lon="-7.8322790">
        <ele>372.8</ele>
        <time>2021-07-25T07:08:36Z</time>
      </trkpt>
      <trkpt lat="43.1175180" lon="-7.8329160">
        <ele>372.4</ele>
        <time>2021-07-25T07:08:43Z</time>
      </trkpt>
      <trkpt lat="43.1175370" lon="-7.8330020">
        <ele>371.8</ele>
        <time>2021-07-25T07:08:44Z</time>
      </trkpt>
      <trkpt lat="43.1175530" lon="-7.8330860">
        <ele>371.4</ele>
        <time>2021-07-25T07:08:45Z</time>
      </trkpt>
      <trkpt lat="43.1175680" lon="-7.8331670">
        <ele>371.0</ele>
        <time>2021-07-25T07:08:46Z</time>
      </trkpt>
      <trkpt lat="43.1175870" lon="-7.8332510">
        <ele>370.6</ele>
        <time>2021-07-25T07:08:47Z</time>
      </trkpt>
      <trkpt lat="43.1176140" lon="-7.8334190">
        <ele>370.6</ele>
        <time>2021-07-25T07:08:49Z</time>
      </trkpt>
      <trkpt lat="43.1176210" lon="-7.8335020">
        <ele>370.2</ele>
        <time>2021-07-25T07:08:50Z</time>
      </trkpt>
      <trkpt lat="43.1176260" lon="-7.8335840">
        <ele>369.2</ele>
        <time>2021-07-25T07:08:51Z</time>
      </trkpt>
      <trkpt lat="43.1176270" lon="-7.8336630">
        <ele>368.8</ele>
        <time>2021-07-25T07:08:52Z</time>
      </trkpt>
      <trkpt lat="43.1176240" lon="-7.8337390">
        <ele>368.4</ele>
        <time>2021-07-25T07:08:53Z</time>
      </trkpt>
      <trkpt lat="43.1176190" lon="-7.8338090">
        <ele>368.4</ele>
        <time>2021-07-25T07:08:54Z</time>
      </trkpt>
      <trkpt lat="43.1175660" lon="-7.8340670">
        <ele>368.4</ele>
        <time>2021-07-25T07:08:59Z</time>
      </trkpt>
      <trkpt lat="43.1174910" lon="-7.8343540">
        <ele>368.4</ele>
        <time>2021-07-25T07:09:06Z</time>
      </trkpt>
      <trkpt lat="43.1174570" lon="-7.8344410">
        <ele>368.4</ele>
        <time>2021-07-25T07:09:08Z</time>
      </trkpt>
      <trkpt lat="43.1173990" lon="-7.8345350">
        <ele>368.4</ele>
        <time>2021-07-25T07:09:10Z</time>
      </trkpt>
      <trkpt lat="43.1173290" lon="-7.8346020">
        <ele>368.4</ele>
        <time>2021-07-25T07:09:12Z</time>
      </trkpt>
      <trkpt lat="43.1172140" lon="-7.8346610">
        <ele>368.4</ele>
        <time>2021-07-25T07:09:15Z</time>
      </trkpt>
      <trkpt lat="43.1170790" lon="-7.8346790">
        <ele>368.4</ele>
        <time>2021-07-25T07:09:18Z</time>
      </trkpt>
      <trkpt lat="43.1170320" lon="-7.8346750">
        <ele>368.4</ele>
        <time>2021-07-25T07:09:19Z</time>
      </trkpt>
      <trkpt lat="43.1169380" lon="-7.8346630">
        <ele>368.4</ele>
        <time>2021-07-25T07:09:21Z</time>
      </trkpt>
      <trkpt lat="43.1167800" lon="-7.8346450">
        <ele>368.4</ele>
        <time>2021-07-25T07:09:24Z</time>
      </trkpt>
      <trkpt lat="43.1166050" lon="-7.8346280">
        <ele>368.4</ele>
        <time>2021-07-25T07:09:27Z</time>
      </trkpt>
      <trkpt lat="43.1164540" lon="-7.8346080">
        <ele>368.4</ele>
        <time>2021-07-25T07:09:30Z</time>
      </trkpt>
      <trkpt lat="43.1163570" lon="-7.8346230">
        <ele>368.4</ele>
        <time>2021-07-25T07:09:32Z</time>
      </trkpt>
      <trkpt lat="43.1161690" lon="-7.8347320">
        <ele>368.4</ele>
        <time>2021-07-25T07:09:36Z</time>
      </trkpt>
      <trkpt lat="43.1161320" lon="-7.8347690">
        <ele>368.4</ele>
        <time>2021-07-25T07:09:37Z</time>
      </trkpt>
      <trkpt lat="43.1160500" lon="-7.8348920">
        <ele>368.4</ele>
        <time>2021-07-25T07:09:40Z</time>
      </trkpt>
      <trkpt lat="43.1160260" lon="-7.8349380">
        <ele>368.4</ele>
        <time>2021-07-25T07:09:41Z</time>
      </trkpt>
      <trkpt lat="43.1160020" lon="-7.8349860">
        <ele>368.4</ele>
        <time>2021-07-25T07:09:42Z</time>
      </trkpt>
      <trkpt lat="43.1159170" lon="-7.8351980">
        <ele>368.4</ele>
        <time>2021-07-25T07:09:47Z</time>
      </trkpt>
      <trkpt lat="43.1158970" lon="-7.8352890">
        <ele>368.4</ele>
        <time>2021-07-25T07:09:49Z</time>
      </trkpt>
      <trkpt lat="43.1158690" lon="-7.8355450">
        <ele>368.4</ele>
        <time>2021-07-25T07:09:54Z</time>
      </trkpt>
      <trkpt lat="43.1158660" lon="-7.8355970">
        <ele>368.4</ele>
        <time>2021-07-25T07:09:55Z</time>
      </trkpt>
      <trkpt lat="43.1158950" lon="-7.8359350">
        <ele>368.4</ele>
        <time>2021-07-25T07:10:02Z</time>
      </trkpt>
      <trkpt lat="43.1159480" lon="-7.8362490">
        <ele>368.4</ele>
        <time>2021-07-25T07:10:10Z</time>
      </trkpt>
      <trkpt lat="43.1159530" lon="-7.8363660">
        <ele>368.8</ele>
        <time>2021-07-25T07:10:13Z</time>
      </trkpt>
      <trkpt lat="43.1159500" lon="-7.8364040">
        <ele>369.2</ele>
        <time>2021-07-25T07:10:14Z</time>
      </trkpt>
      <trkpt lat="43.1159460" lon="-7.8364410">
        <ele>369.6</ele>
        <time>2021-07-25T07:10:15Z</time>
      </trkpt>
      <trkpt lat="43.1159410" lon="-7.8364760">
        <ele>370.0</ele>
        <time>2021-07-25T07:10:16Z</time>
      </trkpt>
      <trkpt lat="43.1159320" lon="-7.8365100">
        <ele>370.4</ele>
        <time>2021-07-25T07:10:17Z</time>
      </trkpt>
      <trkpt lat="43.1158970" lon="-7.8366420">
        <ele>370.4</ele>
        <time>2021-07-25T07:10:22Z</time>
      </trkpt>
      <trkpt lat="43.1159330" lon="-7.8367720">
        <ele>370.4</ele>
        <time>2021-07-25T07:10:28Z</time>
      </trkpt>
      <trkpt lat="43.1159730" lon="-7.8369110">
        <ele>371.0</ele>
        <time>2021-07-25T07:10:32Z</time>
      </trkpt>
      <trkpt lat="43.1159840" lon="-7.8369500">
        <ele>371.4</ele>
        <time>2021-07-25T07:10:33Z</time>
      </trkpt>
      <trkpt lat="43.1159990" lon="-7.8369870">
        <ele>371.8</ele>
        <time>2021-07-25T07:10:34Z</time>
      </trkpt>
      <trkpt lat="43.1160150" lon="-7.8370230">
        <ele>372.2</ele>
        <time>2021-07-25T07:10:35Z</time>
      </trkpt>
      <trkpt lat="43.1160290" lon="-7.8370590">
        <ele>372.6</ele>
        <time>2021-07-25T07:10:36Z</time>
      </trkpt>
      <trkpt lat="43.1160660" lon="-7.8372250">
        <ele>372.6</ele>
        <time>2021-07-25T07:10:41Z</time>
      </trkpt>
      <trkpt lat="43.1160470" lon="-7.8374810">
        <ele>372.6</ele>
        <time>2021-07-25T07:10:48Z</time>
      </trkpt>
      <trkpt lat="43.1160570" lon="-7.8377060">
        <ele>373.6</ele>
        <time>2021-07-25T07:10:54Z</time>
      </trkpt>
      <trkpt lat="43.1160630" lon="-7.8377420">
        <ele>374.0</ele>
        <time>2021-07-25T07:10:55Z</time>
      </trkpt>
      <trkpt lat="43.1160650" lon="-7.8377800">
        <ele>374.4</ele>
        <time>2021-07-25T07:10:56Z</time>
      </trkpt>
      <trkpt lat="43.1160640" lon="-7.8378170">
        <ele>374.8</ele>
        <time>2021-07-25T07:10:57Z</time>
      </trkpt>
      <trkpt lat="43.1160660" lon="-7.8379330">
        <ele>374.8</ele>
        <time>2021-07-25T07:11:00Z</time>
      </trkpt>
      <trkpt lat="43.1160830" lon="-7.8382130">
        <ele>374.8</ele>
        <time>2021-07-25T07:11:06Z</time>
      </trkpt>
      <trkpt lat="43.1160340" lon="-7.8384810">
        <ele>374.8</ele>
        <time>2021-07-25T07:11:13Z</time>
      </trkpt>
      <trkpt lat="43.1160240" lon="-7.8385280">
        <ele>375.2</ele>
        <time>2021-07-25T07:11:14Z</time>
      </trkpt>
      <trkpt lat="43.1160140" lon="-7.8385750">
        <ele>375.6</ele>
        <time>2021-07-25T07:11:15Z</time>
      </trkpt>
      <trkpt lat="43.1160000" lon="-7.8386160">
        <ele>376.0</ele>
        <time>2021-07-25T07:11:16Z</time>
      </trkpt>
      <trkpt lat="43.1159870" lon="-7.8386560">
        <ele>376.4</ele>
        <time>2021-07-25T07:11:17Z</time>
      </trkpt>
      <trkpt lat="43.1159700" lon="-7.8386960">
        <ele>376.8</ele>
        <time>2021-07-25T07:11:18Z</time>
      </trkpt>
      <trkpt lat="43.1158810" lon="-7.8388430">
        <ele>376.8</ele>
        <time>2021-07-25T07:11:24Z</time>
      </trkpt>
      <trkpt lat="43.1158520" lon="-7.8389000">
        <ele>377.2</ele>
        <time>2021-07-25T07:11:27Z</time>
      </trkpt>
      <trkpt lat="43.1158500" lon="-7.8389330">
        <ele>377.6</ele>
        <time>2021-07-25T07:11:28Z</time>
      </trkpt>
      <trkpt lat="43.1158470" lon="-7.8389720">
        <ele>378.0</ele>
        <time>2021-07-25T07:11:29Z</time>
      </trkpt>
      <trkpt lat="43.1158420" lon="-7.8390090">
        <ele>378.4</ele>
        <time>2021-07-25T07:11:30Z</time>
      </trkpt>
      <trkpt lat="43.1158340" lon="-7.8390470">
        <ele>378.8</ele>
        <time>2021-07-25T07:11:31Z</time>
      </trkpt>
      <trkpt lat="43.1157930" lon="-7.8392290">
        <ele>378.8</ele>
        <time>2021-07-25T07:11:36Z</time>
      </trkpt>
      <trkpt lat="43.1157500" lon="-7.8394230">
        <ele>378.8</ele>
        <time>2021-07-25T07:11:41Z</time>
      </trkpt>
      <trkpt lat="43.1157440" lon="-7.8395610">
        <ele>378.8</ele>
        <time>2021-07-25T07:11:44Z</time>
      </trkpt>
      <trkpt lat="43.1157410" lon="-7.8396500">
        <ele>378.8</ele>
        <time>2021-07-25T07:11:46Z</time>
      </trkpt>
      <trkpt lat="43.1157300" lon="-7.8397870">
        <ele>378.8</ele>
        <time>2021-07-25T07:11:49Z</time>
      </trkpt>
      <trkpt lat="43.1157230" lon="-7.8398590">
        <ele>378.8</ele>
        <time>2021-07-25T07:11:51Z</time>
      </trkpt>
      <trkpt lat="43.1157240" lon="-7.8399290">
        <ele>378.8</ele>
        <time>2021-07-25T07:11:53Z</time>
      </trkpt>
      <trkpt lat="43.1157050" lon="-7.8400080">
        <ele>378.8</ele>
        <time>2021-07-25T07:11:55Z</time>
      </trkpt>
      <trkpt lat="43.1156990" lon="-7.8400500">
        <ele>378.8</ele>
        <time>2021-07-25T07:11:56Z</time>
      </trkpt>
      <trkpt lat="43.1156890" lon="-7.8402910">
        <ele>378.8</ele>
        <time>2021-07-25T07:12:02Z</time>
      </trkpt>
      <trkpt lat="43.1156400" lon="-7.8405540">
        <ele>378.8</ele>
        <time>2021-07-25T07:12:09Z</time>
      </trkpt>
      <trkpt lat="43.1156050" lon="-7.8405940">
        <ele>379.2</ele>
        <time>2021-07-25T07:12:11Z</time>
      </trkpt>
      <trkpt lat="43.1155820" lon="-7.8406090">
        <ele>379.6</ele>
        <time>2021-07-25T07:12:12Z</time>
      </trkpt>
      <trkpt lat="43.1155580" lon="-7.8406210">
        <ele>380.0</ele>
        <time>2021-07-25T07:12:13Z</time>
      </trkpt>
      <trkpt lat="43.1155310" lon="-7.8406300">
        <ele>380.4</ele>
        <time>2021-07-25T07:12:14Z</time>
      </trkpt>
      <trkpt lat="43.1155050" lon="-7.8406390">
        <ele>380.8</ele>
        <time>2021-07-25T07:12:15Z</time>
      </trkpt>
      <trkpt lat="43.1153770" lon="-7.8406980">
        <ele>380.8</ele>
        <time>2021-07-25T07:12:20Z</time>
      </trkpt>
      <trkpt lat="43.1152050" lon="-7.8407560">
        <ele>380.8</ele>
        <time>2021-07-25T07:12:26Z</time>
      </trkpt>
      <trkpt lat="43.1150430" lon="-7.8409170">
        <ele>380.8</ele>
        <time>2021-07-25T07:12:33Z</time>
      </trkpt>
      <trkpt lat="43.1148930" lon="-7.8410540">
        <ele>380.8</ele>
        <time>2021-07-25T07:12:39Z</time>
      </trkpt>
      <trkpt lat="43.1148700" lon="-7.8410740">
        <ele>380.8</ele>
        <time>2021-07-25T07:12:40Z</time>
      </trkpt>
      <trkpt lat="43.1148030" lon="-7.8411230">
        <ele>380.8</ele>
        <time>2021-07-25T07:12:43Z</time>
      </trkpt>
      <trkpt lat="43.1147350" lon="-7.8411700">
        <ele>380.8</ele>
        <time>2021-07-25T07:12:46Z</time>
      </trkpt>
      <trkpt lat="43.1147120" lon="-7.8411850">
        <ele>380.8</ele>
        <time>2021-07-25T07:12:47Z</time>
      </trkpt>
      <trkpt lat="43.1145390" lon="-7.8413450">
        <ele>380.8</ele>
        <time>2021-07-25T07:12:54Z</time>
      </trkpt>
      <trkpt lat="43.1144680" lon="-7.8414050">
        <ele>381.2</ele>
        <time>2021-07-25T07:12:57Z</time>
      </trkpt>
      <trkpt lat="43.1144450" lon="-7.8414260">
        <ele>381.6</ele>
        <time>2021-07-25T07:12:58Z</time>
      </trkpt>
      <trkpt lat="43.1144210" lon="-7.8414430">
        <ele>382.0</ele>
        <time>2021-07-25T07:12:59Z</time>
      </trkpt>
      <trkpt lat="43.1143960" lon="-7.8414530">
        <ele>382.4</ele>
        <time>2021-07-25T07:13:00Z</time>
      </trkpt>
      <trkpt lat="43.1143670" lon="-7.8414580">
        <ele>383.0</ele>
        <time>2021-07-25T07:13:01Z</time>
      </trkpt>
      <trkpt lat="43.1143370" lon="-7.8414630">
        <ele>383.0</ele>
        <time>2021-07-25T07:13:02Z</time>
      </trkpt>
      <trkpt lat="43.1140980" lon="-7.8414470">
        <ele>383.0</ele>
        <time>2021-07-25T07:13:10Z</time>
      </trkpt>
      <trkpt lat="43.1139660" lon="-7.8413420">
        <ele>383.0</ele>
        <time>2021-07-25T07:13:16Z</time>
      </trkpt>
      <trkpt lat="43.1138800" lon="-7.8412280">
        <ele>383.4</ele>
        <time>2021-07-25T07:13:21Z</time>
      </trkpt>
      <trkpt lat="43.1138670" lon="-7.8412030">
        <ele>384.2</ele>
        <time>2021-07-25T07:13:22Z</time>
      </trkpt>
      <trkpt lat="43.1138580" lon="-7.8411750">
        <ele>384.6</ele>
        <time>2021-07-25T07:13:23Z</time>
      </trkpt>
      <trkpt lat="43.1138510" lon="-7.8411490">
        <ele>385.0</ele>
        <time>2021-07-25T07:13:24Z</time>
      </trkpt>
      <trkpt lat="43.1138150" lon="-7.8410840">
        <ele>385.0</ele>
        <time>2021-07-25T07:13:27Z</time>
      </trkpt>
      <trkpt lat="43.1137970" lon="-7.8410770">
        <ele>385.0</ele>
        <time>2021-07-25T07:13:28Z</time>
      </trkpt>
      <trkpt lat="43.1137580" lon="-7.8411080">
        <ele>385.0</ele>
        <time>2021-07-25T07:13:31Z</time>
      </trkpt>
      <trkpt lat="43.1137370" lon="-7.8412760">
        <ele>385.4</ele>
        <time>2021-07-25T07:13:37Z</time>
      </trkpt>
      <trkpt lat="43.1137320" lon="-7.8413030">
        <ele>385.8</ele>
        <time>2021-07-25T07:13:38Z</time>
      </trkpt>
      <trkpt lat="43.1137270" lon="-7.8413310">
        <ele>386.2</ele>
        <time>2021-07-25T07:13:39Z</time>
      </trkpt>
      <trkpt lat="43.1137230" lon="-7.8413610">
        <ele>386.6</ele>
        <time>2021-07-25T07:13:40Z</time>
      </trkpt>
      <trkpt lat="43.1137200" lon="-7.8413920">
        <ele>387.0</ele>
        <time>2021-07-25T07:13:41Z</time>
      </trkpt>
      <trkpt lat="43.1137050" lon="-7.8414720">
        <ele>387.0</ele>
        <time>2021-07-25T07:13:44Z</time>
      </trkpt>
      <trkpt lat="43.1136520" lon="-7.8416570">
        <ele>387.0</ele>
        <time>2021-07-25T07:13:51Z</time>
      </trkpt>
      <trkpt lat="43.1135630" lon="-7.8418590">
        <ele>387.0</ele>
        <time>2021-07-25T07:13:59Z</time>
      </trkpt>
      <trkpt lat="43.1135460" lon="-7.8418770">
        <ele>387.0</ele>
        <time>2021-07-25T07:14:00Z</time>
      </trkpt>
      <trkpt lat="43.1135040" lon="-7.8418920">
        <ele>387.0</ele>
        <time>2021-07-25T07:14:03Z</time>
      </trkpt>
      <trkpt lat="43.1134790" lon="-7.8418750">
        <ele>387.0</ele>
        <time>2021-07-25T07:14:05Z</time>
      </trkpt>
      <trkpt lat="43.1134660" lon="-7.8418470">
        <ele>387.0</ele>
        <time>2021-07-25T07:14:08Z</time>
      </trkpt>
      <trkpt lat="43.1135120" lon="-7.8418200">
        <ele>387.0</ele>
        <time>2021-07-25T07:17:26Z</time>
      </trkpt>
      <trkpt lat="43.1135180" lon="-7.8418420">
        <ele>387.0</ele>
        <time>2021-07-25T07:17:27Z</time>
      </trkpt>
      <trkpt lat="43.1135310" lon="-7.8419320">
        <ele>387.0</ele>
        <time>2021-07-25T07:17:30Z</time>
      </trkpt>
      <trkpt lat="43.1135370" lon="-7.8420450">
        <ele>387.0</ele>
        <time>2021-07-25T07:17:33Z</time>
      </trkpt>
      <trkpt lat="43.1135390" lon="-7.8421750">
        <ele>387.0</ele>
        <time>2021-07-25T07:17:36Z</time>
      </trkpt>
      <trkpt lat="43.1135620" lon="-7.8423930">
        <ele>387.0</ele>
        <time>2021-07-25T07:17:41Z</time>
      </trkpt>
      <trkpt lat="43.1136330" lon="-7.8427270">
        <ele>387.0</ele>
        <time>2021-07-25T07:17:49Z</time>
      </trkpt>
      <trkpt lat="43.1136710" lon="-7.8429800">
        <ele>387.0</ele>
        <time>2021-07-25T07:17:55Z</time>
      </trkpt>
      <trkpt lat="43.1136530" lon="-7.8431570">
        <ele>387.0</ele>
        <time>2021-07-25T07:17:59Z</time>
      </trkpt>
      <trkpt lat="43.1136290" lon="-7.8432370">
        <ele>387.0</ele>
        <time>2021-07-25T07:18:01Z</time>
      </trkpt>
      <trkpt lat="43.1135970" lon="-7.8433100">
        <ele>387.0</ele>
        <time>2021-07-25T07:18:03Z</time>
      </trkpt>
      <trkpt lat="43.1135490" lon="-7.8434230">
        <ele>387.0</ele>
        <time>2021-07-25T07:18:06Z</time>
      </trkpt>
      <trkpt lat="43.1135150" lon="-7.8434920">
        <ele>387.0</ele>
        <time>2021-07-25T07:18:08Z</time>
      </trkpt>
      <trkpt lat="43.1134410" lon="-7.8436400">
        <ele>387.0</ele>
        <time>2021-07-25T07:18:13Z</time>
      </trkpt>
      <trkpt lat="43.1134280" lon="-7.8436700">
        <ele>387.4</ele>
        <time>2021-07-25T07:18:14Z</time>
      </trkpt>
      <trkpt lat="43.1134150" lon="-7.8437020">
        <ele>387.8</ele>
        <time>2021-07-25T07:18:15Z</time>
      </trkpt>
      <trkpt lat="43.1134070" lon="-7.8437310">
        <ele>388.2</ele>
        <time>2021-07-25T07:18:16Z</time>
      </trkpt>
      <trkpt lat="43.1133970" lon="-7.8437650">
        <ele>388.8</ele>
        <time>2021-07-25T07:18:17Z</time>
      </trkpt>
      <trkpt lat="43.1133920" lon="-7.8438000">
        <ele>389.2</ele>
        <time>2021-07-25T07:18:18Z</time>
      </trkpt>
      <trkpt lat="43.1133820" lon="-7.8438770">
        <ele>389.2</ele>
        <time>2021-07-25T07:18:20Z</time>
      </trkpt>
      <trkpt lat="43.1133670" lon="-7.8439810">
        <ele>389.2</ele>
        <time>2021-07-25T07:18:23Z</time>
      </trkpt>
      <trkpt lat="43.1133460" lon="-7.8440800">
        <ele>389.2</ele>
        <time>2021-07-25T07:18:26Z</time>
      </trkpt>
      <trkpt lat="43.1133380" lon="-7.8441460">
        <ele>389.2</ele>
        <time>2021-07-25T07:18:28Z</time>
      </trkpt>
      <trkpt lat="43.1133310" lon="-7.8441790">
        <ele>389.6</ele>
        <time>2021-07-25T07:18:29Z</time>
      </trkpt>
      <trkpt lat="43.1133260" lon="-7.8442110">
        <ele>390.0</ele>
        <time>2021-07-25T07:18:30Z</time>
      </trkpt>
      <trkpt lat="43.1133190" lon="-7.8442420">
        <ele>390.4</ele>
        <time>2021-07-25T07:18:31Z</time>
      </trkpt>
      <trkpt lat="43.1133130" lon="-7.8442720">
        <ele>390.8</ele>
        <time>2021-07-25T07:18:32Z</time>
      </trkpt>
      <trkpt lat="43.1133060" lon="-7.8443040">
        <ele>391.2</ele>
        <time>2021-07-25T07:18:33Z</time>
      </trkpt>
      <trkpt lat="43.1132850" lon="-7.8444250">
        <ele>391.2</ele>
        <time>2021-07-25T07:18:37Z</time>
      </trkpt>
      <trkpt lat="43.1132530" lon="-7.8445660">
        <ele>391.6</ele>
        <time>2021-07-25T07:18:42Z</time>
      </trkpt>
      <trkpt lat="43.1132450" lon="-7.8445950">
        <ele>392.0</ele>
        <time>2021-07-25T07:18:43Z</time>
      </trkpt>
      <trkpt lat="43.1132360" lon="-7.8446270">
        <ele>392.4</ele>
        <time>2021-07-25T07:18:44Z</time>
      </trkpt>
      <trkpt lat="43.1132260" lon="-7.8446620">
        <ele>393.0</ele>
        <time>2021-07-25T07:18:45Z</time>
      </trkpt>
      <trkpt lat="43.1132110" lon="-7.8446900">
        <ele>393.4</ele>
        <time>2021-07-25T07:18:46Z</time>
      </trkpt>
      <trkpt lat="43.1130750" lon="-7.8447450">
        <ele>393.4</ele>
        <time>2021-07-25T07:18:51Z</time>
      </trkpt>
      <trkpt lat="43.1128730" lon="-7.8448370">
        <ele>393.4</ele>
        <time>2021-07-25T07:18:58Z</time>
      </trkpt>
      <trkpt lat="43.1128090" lon="-7.8449860">
        <ele>393.4</ele>
        <time>2021-07-25T07:19:02Z</time>
      </trkpt>
      <trkpt lat="43.1127980" lon="-7.8450280">
        <ele>393.4</ele>
        <time>2021-07-25T07:19:03Z</time>
      </trkpt>
      <trkpt lat="43.1127720" lon="-7.8451590">
        <ele>393.4</ele>
        <time>2021-07-25T07:19:06Z</time>
      </trkpt>
      <trkpt lat="43.1127580" lon="-7.8453060">
        <ele>393.4</ele>
        <time>2021-07-25T07:19:09Z</time>
      </trkpt>
      <trkpt lat="43.1127350" lon="-7.8454400">
        <ele>393.4</ele>
        <time>2021-07-25T07:19:12Z</time>
      </trkpt>
      <trkpt lat="43.1126980" lon="-7.8456220">
        <ele>393.4</ele>
        <time>2021-07-25T07:19:16Z</time>
      </trkpt>
      <trkpt lat="43.1125950" lon="-7.8459280">
        <ele>393.4</ele>
        <time>2021-07-25T07:19:23Z</time>
      </trkpt>
      <trkpt lat="43.1125530" lon="-7.8461480">
        <ele>393.4</ele>
        <time>2021-07-25T07:19:28Z</time>
      </trkpt>
      <trkpt lat="43.1125310" lon="-7.8462230">
        <ele>393.4</ele>
        <time>2021-07-25T07:19:30Z</time>
      </trkpt>
      <trkpt lat="43.1125220" lon="-7.8462560">
        <ele>393.4</ele>
        <time>2021-07-25T07:19:31Z</time>
      </trkpt>
      <trkpt lat="43.1125050" lon="-7.8463130">
        <ele>393.4</ele>
        <time>2021-07-25T07:19:33Z</time>
      </trkpt>
      <trkpt lat="43.1125080" lon="-7.8463370">
        <ele>393.4</ele>
        <time>2021-07-25T07:19:34Z</time>
      </trkpt>
      <trkpt lat="43.1125100" lon="-7.8463690">
        <ele>393.4</ele>
        <time>2021-07-25T07:19:35Z</time>
      </trkpt>
      <trkpt lat="43.1125160" lon="-7.8463990">
        <ele>393.4</ele>
        <time>2021-07-25T07:19:36Z</time>
      </trkpt>
      <trkpt lat="43.1125260" lon="-7.8465540">
        <ele>393.4</ele>
        <time>2021-07-25T07:19:40Z</time>
      </trkpt>
      <trkpt lat="43.1125220" lon="-7.8466290">
        <ele>393.4</ele>
        <time>2021-07-25T07:19:42Z</time>
      </trkpt>
      <trkpt lat="43.1124800" lon="-7.8468050">
        <ele>393.4</ele>
        <time>2021-07-25T07:19:47Z</time>
      </trkpt>
      <trkpt lat="43.1124440" lon="-7.8468660">
        <ele>393.8</ele>
        <time>2021-07-25T07:19:49Z</time>
      </trkpt>
      <trkpt lat="43.1124200" lon="-7.8468890">
        <ele>394.2</ele>
        <time>2021-07-25T07:19:50Z</time>
      </trkpt>
      <trkpt lat="43.1123960" lon="-7.8469140">
        <ele>394.6</ele>
        <time>2021-07-25T07:19:51Z</time>
      </trkpt>
      <trkpt lat="43.1123720" lon="-7.8469380">
        <ele>395.4</ele>
        <time>2021-07-25T07:19:52Z</time>
      </trkpt>
      <trkpt lat="43.1123510" lon="-7.8469620">
        <ele>395.4</ele>
        <time>2021-07-25T07:19:53Z</time>
      </trkpt>
      <trkpt lat="43.1122490" lon="-7.8470880">
        <ele>395.4</ele>
        <time>2021-07-25T07:19:58Z</time>
      </trkpt>
      <trkpt lat="43.1122070" lon="-7.8471430">
        <ele>395.4</ele>
        <time>2021-07-25T07:20:00Z</time>
      </trkpt>
      <trkpt lat="43.1120620" lon="-7.8473480">
        <ele>395.4</ele>
        <time>2021-07-25T07:20:07Z</time>
      </trkpt>
      <trkpt lat="43.1119560" lon="-7.8475030">
        <ele>395.4</ele>
        <time>2021-07-25T07:20:12Z</time>
      </trkpt>
      <trkpt lat="43.1118900" lon="-7.8475930">
        <ele>395.4</ele>
        <time>2021-07-25T07:20:15Z</time>
      </trkpt>
      <trkpt lat="43.1117860" lon="-7.8477780">
        <ele>395.4</ele>
        <time>2021-07-25T07:20:21Z</time>
      </trkpt>
      <trkpt lat="43.1117610" lon="-7.8478120">
        <ele>395.4</ele>
        <time>2021-07-25T07:20:22Z</time>
      </trkpt>
      <trkpt lat="43.1116670" lon="-7.8479490">
        <ele>395.4</ele>
        <time>2021-07-25T07:20:26Z</time>
      </trkpt>
      <trkpt lat="43.1115930" lon="-7.8480510">
        <ele>395.4</ele>
        <time>2021-07-25T07:20:29Z</time>
      </trkpt>
      <trkpt lat="43.1114760" lon="-7.8482150">
        <ele>395.8</ele>
        <time>2021-07-25T07:20:34Z</time>
      </trkpt>
      <trkpt lat="43.1114550" lon="-7.8482400">
        <ele>396.2</ele>
        <time>2021-07-25T07:20:35Z</time>
      </trkpt>
      <trkpt lat="43.1114380" lon="-7.8482690">
        <ele>396.6</ele>
        <time>2021-07-25T07:20:36Z</time>
      </trkpt>
      <trkpt lat="43.1114160" lon="-7.8483000">
        <ele>397.0</ele>
        <time>2021-07-25T07:20:37Z</time>
      </trkpt>
      <trkpt lat="43.1113890" lon="-7.8483300">
        <ele>397.4</ele>
        <time>2021-07-25T07:20:38Z</time>
      </trkpt>
      <trkpt lat="43.1112930" lon="-7.8484510">
        <ele>397.4</ele>
        <time>2021-07-25T07:20:42Z</time>
      </trkpt>
      <trkpt lat="43.1111330" lon="-7.8486940">
        <ele>397.4</ele>
        <time>2021-07-25T07:20:50Z</time>
      </trkpt>
      <trkpt lat="43.1109020" lon="-7.8489620">
        <ele>397.4</ele>
        <time>2021-07-25T07:21:00Z</time>
      </trkpt>
      <trkpt lat="43.1108490" lon="-7.8490020">
        <ele>397.8</ele>
        <time>2021-07-25T07:21:02Z</time>
      </trkpt>
      <trkpt lat="43.1108230" lon="-7.8490210">
        <ele>398.2</ele>
        <time>2021-07-25T07:21:03Z</time>
      </trkpt>
      <trkpt lat="43.1107950" lon="-7.8490330">
        <ele>398.6</ele>
        <time>2021-07-25T07:21:04Z</time>
      </trkpt>
      <trkpt lat="43.1107650" lon="-7.8490400">
        <ele>399.0</ele>
        <time>2021-07-25T07:21:05Z</time>
      </trkpt>
      <trkpt lat="43.1107340" lon="-7.8490530">
        <ele>399.4</ele>
        <time>2021-07-25T07:21:06Z</time>
      </trkpt>
      <trkpt lat="43.1107090" lon="-7.8490720">
        <ele>399.4</ele>
        <time>2021-07-25T07:21:07Z</time>
      </trkpt>
      <trkpt lat="43.1106190" lon="-7.8491310">
        <ele>399.4</ele>
        <time>2021-07-25T07:21:11Z</time>
      </trkpt>
      <trkpt lat="43.1104340" lon="-7.8492150">
        <ele>399.4</ele>
        <time>2021-07-25T07:21:19Z</time>
      </trkpt>
      <trkpt lat="43.1102740" lon="-7.8493200">
        <ele>399.4</ele>
        <time>2021-07-25T07:21:26Z</time>
      </trkpt>
      <trkpt lat="43.1102100" lon="-7.8493520">
        <ele>399.8</ele>
        <time>2021-07-25T07:21:29Z</time>
      </trkpt>
      <trkpt lat="43.1101900" lon="-7.8493630">
        <ele>400.2</ele>
        <time>2021-07-25T07:21:30Z</time>
      </trkpt>
      <trkpt lat="43.1101700" lon="-7.8493770">
        <ele>400.6</ele>
        <time>2021-07-25T07:21:31Z</time>
      </trkpt>
      <trkpt lat="43.1101500" lon="-7.8493880">
        <ele>401.6</ele>
        <time>2021-07-25T07:21:32Z</time>
      </trkpt>
      <trkpt lat="43.1101280" lon="-7.8493970">
        <ele>401.6</ele>
        <time>2021-07-25T07:21:33Z</time>
      </trkpt>
      <trkpt lat="43.1100060" lon="-7.8494740">
        <ele>401.6</ele>
        <time>2021-07-25T07:21:39Z</time>
      </trkpt>
      <trkpt lat="43.1099680" lon="-7.8494950">
        <ele>401.6</ele>
        <time>2021-07-25T07:21:41Z</time>
      </trkpt>
      <trkpt lat="43.1098770" lon="-7.8495510">
        <ele>402.0</ele>
        <time>2021-07-25T07:21:46Z</time>
      </trkpt>
      <trkpt lat="43.1098580" lon="-7.8495630">
        <ele>402.4</ele>
        <time>2021-07-25T07:21:47Z</time>
      </trkpt>
      <trkpt lat="43.1098390" lon="-7.8495790">
        <ele>402.8</ele>
        <time>2021-07-25T07:21:48Z</time>
      </trkpt>
      <trkpt lat="43.1098200" lon="-7.8495900">
        <ele>403.2</ele>
        <time>2021-07-25T07:21:49Z</time>
      </trkpt>
      <trkpt lat="43.1098020" lon="-7.8496000">
        <ele>403.6</ele>
        <time>2021-07-25T07:21:50Z</time>
      </trkpt>
      <trkpt lat="43.1096680" lon="-7.8496920">
        <ele>403.6</ele>
        <time>2021-07-25T07:21:57Z</time>
      </trkpt>
      <trkpt lat="43.1096200" lon="-7.8497380">
        <ele>404.0</ele>
        <time>2021-07-25T07:22:00Z</time>
      </trkpt>
      <trkpt lat="43.1096030" lon="-7.8497450">
        <ele>404.4</ele>
        <time>2021-07-25T07:22:01Z</time>
      </trkpt>
      <trkpt lat="43.1095870" lon="-7.8497510">
        <ele>404.8</ele>
        <time>2021-07-25T07:22:02Z</time>
      </trkpt>
      <trkpt lat="43.1095740" lon="-7.8497570">
        <ele>405.2</ele>
        <time>2021-07-25T07:22:03Z</time>
      </trkpt>
      <trkpt lat="43.1095570" lon="-7.8497640">
        <ele>405.6</ele>
        <time>2021-07-25T07:22:04Z</time>
      </trkpt>
      <trkpt lat="43.1094830" lon="-7.8497930">
        <ele>405.6</ele>
        <time>2021-07-25T07:22:08Z</time>
      </trkpt>
      <trkpt lat="43.1093590" lon="-7.8498700">
        <ele>406.0</ele>
        <time>2021-07-25T07:22:15Z</time>
      </trkpt>
      <trkpt lat="43.1093420" lon="-7.8498760">
        <ele>406.4</ele>
        <time>2021-07-25T07:22:16Z</time>
      </trkpt>
      <trkpt lat="43.1093250" lon="-7.8498790">
        <ele>406.8</ele>
        <time>2021-07-25T07:22:17Z</time>
      </trkpt>
      <trkpt lat="43.1093070" lon="-7.8498850">
        <ele>407.2</ele>
        <time>2021-07-25T07:22:18Z</time>
      </trkpt>
      <trkpt lat="43.1092900" lon="-7.8498910">
        <ele>407.6</ele>
        <time>2021-07-25T07:22:19Z</time>
      </trkpt>
      <trkpt lat="43.1092160" lon="-7.8498990">
        <ele>407.6</ele>
        <time>2021-07-25T07:22:23Z</time>
      </trkpt>
      <trkpt lat="43.1091400" lon="-7.8499260">
        <ele>408.2</ele>
        <time>2021-07-25T07:22:27Z</time>
      </trkpt>
      <trkpt lat="43.1091220" lon="-7.8499360">
        <ele>408.6</ele>
        <time>2021-07-25T07:22:28Z</time>
      </trkpt>
      <trkpt lat="43.1091080" lon="-7.8499450">
        <ele>409.0</ele>
        <time>2021-07-25T07:22:29Z</time>
      </trkpt>
      <trkpt lat="43.1090960" lon="-7.8499540">
        <ele>409.4</ele>
        <time>2021-07-25T07:22:30Z</time>
      </trkpt>
      <trkpt lat="43.1090840" lon="-7.8499620">
        <ele>409.8</ele>
        <time>2021-07-25T07:22:31Z</time>
      </trkpt>
      <trkpt lat="43.1089760" lon="-7.8499770">
        <ele>409.8</ele>
        <time>2021-07-25T07:22:35Z</time>
      </trkpt>
      <trkpt lat="43.1088410" lon="-7.8499170">
        <ele>409.8</ele>
        <time>2021-07-25T07:22:43Z</time>
      </trkpt>
      <trkpt lat="43.1087970" lon="-7.8499050">
        <ele>410.2</ele>
        <time>2021-07-25T07:22:45Z</time>
      </trkpt>
      <trkpt lat="43.1087760" lon="-7.8499050">
        <ele>410.6</ele>
        <time>2021-07-25T07:22:46Z</time>
      </trkpt>
      <trkpt lat="43.1087530" lon="-7.8499060">
        <ele>411.0</ele>
        <time>2021-07-25T07:22:47Z</time>
      </trkpt>
      <trkpt lat="43.1087310" lon="-7.8499100">
        <ele>411.4</ele>
        <time>2021-07-25T07:22:48Z</time>
      </trkpt>
      <trkpt lat="43.1087120" lon="-7.8499170">
        <ele>411.8</ele>
        <time>2021-07-25T07:22:49Z</time>
      </trkpt>
      <trkpt lat="43.1085070" lon="-7.8499440">
        <ele>411.8</ele>
        <time>2021-07-25T07:22:58Z</time>
      </trkpt>
      <trkpt lat="43.1083810" lon="-7.8499700">
        <ele>412.4</ele>
        <time>2021-07-25T07:23:04Z</time>
      </trkpt>
      <trkpt lat="43.1083600" lon="-7.8499790">
        <ele>412.8</ele>
        <time>2021-07-25T07:23:05Z</time>
      </trkpt>
      <trkpt lat="43.1083400" lon="-7.8499890">
        <ele>413.2</ele>
        <time>2021-07-25T07:23:06Z</time>
      </trkpt>
      <trkpt lat="43.1083220" lon="-7.8499990">
        <ele>413.6</ele>
        <time>2021-07-25T07:23:07Z</time>
      </trkpt>
      <trkpt lat="43.1083030" lon="-7.8500070">
        <ele>414.0</ele>
        <time>2021-07-25T07:23:08Z</time>
      </trkpt>
      <trkpt lat="43.1082360" lon="-7.8500890">
        <ele>414.0</ele>
        <time>2021-07-25T07:23:12Z</time>
      </trkpt>
      <trkpt lat="43.1081250" lon="-7.8502850">
        <ele>414.0</ele>
        <time>2021-07-25T07:23:20Z</time>
      </trkpt>
      <trkpt lat="43.1080960" lon="-7.8503400">
        <ele>414.4</ele>
        <time>2021-07-25T07:23:22Z</time>
      </trkpt>
      <trkpt lat="43.1080820" lon="-7.8503650">
        <ele>414.8</ele>
        <time>2021-07-25T07:23:23Z</time>
      </trkpt>
      <trkpt lat="43.1080680" lon="-7.8503900">
        <ele>415.2</ele>
        <time>2021-07-25T07:23:24Z</time>
      </trkpt>
      <trkpt lat="43.1080550" lon="-7.8504160">
        <ele>415.6</ele>
        <time>2021-07-25T07:23:25Z</time>
      </trkpt>
      <trkpt lat="43.1080400" lon="-7.8504410">
        <ele>416.0</ele>
        <time>2021-07-25T07:23:26Z</time>
      </trkpt>
      <trkpt lat="43.1080140" lon="-7.8504950">
        <ele>416.0</ele>
        <time>2021-07-25T07:23:28Z</time>
      </trkpt>
      <trkpt lat="43.1079140" lon="-7.8506680">
        <ele>416.0</ele>
        <time>2021-07-25T07:23:35Z</time>
      </trkpt>
      <trkpt lat="43.1078570" lon="-7.8507870">
        <ele>416.0</ele>
        <time>2021-07-25T07:23:40Z</time>
      </trkpt>
      <trkpt lat="43.1078440" lon="-7.8508090">
        <ele>416.0</ele>
        <time>2021-07-25T07:23:41Z</time>
      </trkpt>
      <trkpt lat="43.1078100" lon="-7.8508710">
        <ele>416.4</ele>
        <time>2021-07-25T07:23:44Z</time>
      </trkpt>
      <trkpt lat="43.1077960" lon="-7.8508940">
        <ele>416.8</ele>
        <time>2021-07-25T07:23:45Z</time>
      </trkpt>
      <trkpt lat="43.1077900" lon="-7.8509210">
        <ele>417.2</ele>
        <time>2021-07-25T07:23:46Z</time>
      </trkpt>
      <trkpt lat="43.1077840" lon="-7.8509430">
        <ele>417.6</ele>
        <time>2021-07-25T07:23:47Z</time>
      </trkpt>
      <trkpt lat="43.1077740" lon="-7.8509650">
        <ele>418.2</ele>
        <time>2021-07-25T07:23:48Z</time>
      </trkpt>
      <trkpt lat="43.1076990" lon="-7.8510930">
        <ele>418.2</ele>
        <time>2021-07-25T07:23:55Z</time>
      </trkpt>
      <trkpt lat="43.1076630" lon="-7.8511780">
        <ele>419.0</ele>
        <time>2021-07-25T07:23:59Z</time>
      </trkpt>
      <trkpt lat="43.1076530" lon="-7.8511990">
        <ele>419.4</ele>
        <time>2021-07-25T07:24:00Z</time>
      </trkpt>
      <trkpt lat="43.1076410" lon="-7.8512170">
        <ele>419.8</ele>
        <time>2021-07-25T07:24:01Z</time>
      </trkpt>
      <trkpt lat="43.1076280" lon="-7.8512350">
        <ele>420.2</ele>
        <time>2021-07-25T07:24:02Z</time>
      </trkpt>
      <trkpt lat="43.1076060" lon="-7.8512840">
        <ele>420.2</ele>
        <time>2021-07-25T07:24:04Z</time>
      </trkpt>
      <trkpt lat="43.1074990" lon="-7.8514440">
        <ele>420.2</ele>
        <time>2021-07-25T07:24:11Z</time>
      </trkpt>
      <trkpt lat="43.1073650" lon="-7.8516160">
        <ele>420.2</ele>
        <time>2021-07-25T07:24:17Z</time>
      </trkpt>
      <trkpt lat="43.1072520" lon="-7.8517790">
        <ele>420.2</ele>
        <time>2021-07-25T07:24:22Z</time>
      </trkpt>
      <trkpt lat="43.1071870" lon="-7.8518360">
        <ele>420.2</ele>
        <time>2021-07-25T07:24:25Z</time>
      </trkpt>
      <trkpt lat="43.1071330" lon="-7.8518770">
        <ele>420.2</ele>
        <time>2021-07-25T07:24:27Z</time>
      </trkpt>
      <trkpt lat="43.1070200" lon="-7.8519890">
        <ele>420.2</ele>
        <time>2021-07-25T07:24:31Z</time>
      </trkpt>
      <trkpt lat="43.1068070" lon="-7.8522510">
        <ele>420.2</ele>
        <time>2021-07-25T07:24:39Z</time>
      </trkpt>
      <trkpt lat="43.1066900" lon="-7.8525030">
        <ele>420.2</ele>
        <time>2021-07-25T07:24:45Z</time>
      </trkpt>
      <trkpt lat="43.1066110" lon="-7.8528070">
        <ele>420.6</ele>
        <time>2021-07-25T07:24:52Z</time>
      </trkpt>
      <trkpt lat="43.1066010" lon="-7.8528490">
        <ele>421.2</ele>
        <time>2021-07-25T07:24:53Z</time>
      </trkpt>
      <trkpt lat="43.1065930" lon="-7.8528870">
        <ele>421.6</ele>
        <time>2021-07-25T07:24:54Z</time>
      </trkpt>
      <trkpt lat="43.1065770" lon="-7.8529200">
        <ele>422.0</ele>
        <time>2021-07-25T07:24:55Z</time>
      </trkpt>
      <trkpt lat="43.1065610" lon="-7.8529530">
        <ele>422.4</ele>
        <time>2021-07-25T07:24:56Z</time>
      </trkpt>
      <trkpt lat="43.1065170" lon="-7.8530530">
        <ele>422.4</ele>
        <time>2021-07-25T07:24:59Z</time>
      </trkpt>
      <trkpt lat="43.1063950" lon="-7.8533440">
        <ele>422.8</ele>
        <time>2021-07-25T07:25:08Z</time>
      </trkpt>
      <trkpt lat="43.1063760" lon="-7.8533750">
        <ele>423.2</ele>
        <time>2021-07-25T07:25:09Z</time>
      </trkpt>
      <trkpt lat="43.1063540" lon="-7.8534040">
        <ele>423.6</ele>
        <time>2021-07-25T07:25:10Z</time>
      </trkpt>
      <trkpt lat="43.1063360" lon="-7.8534320">
        <ele>424.0</ele>
        <time>2021-07-25T07:25:11Z</time>
      </trkpt>
      <trkpt lat="43.1063140" lon="-7.8534570">
        <ele>424.4</ele>
        <time>2021-07-25T07:25:12Z</time>
      </trkpt>
      <trkpt lat="43.1062170" lon="-7.8535400">
        <ele>424.4</ele>
        <time>2021-07-25T07:25:16Z</time>
      </trkpt>
      <trkpt lat="43.1060000" lon="-7.8536510">
        <ele>424.4</ele>
        <time>2021-07-25T07:25:24Z</time>
      </trkpt>
      <trkpt lat="43.1057520" lon="-7.8538070">
        <ele>424.4</ele>
        <time>2021-07-25T07:25:32Z</time>
      </trkpt>
      <trkpt lat="43.1056320" lon="-7.8539970">
        <ele>424.4</ele>
        <time>2021-07-25T07:25:37Z</time>
      </trkpt>
      <trkpt lat="43.1055970" lon="-7.8540920">
        <ele>424.8</ele>
        <time>2021-07-25T07:25:39Z</time>
      </trkpt>
      <trkpt lat="43.1055830" lon="-7.8541350">
        <ele>425.2</ele>
        <time>2021-07-25T07:25:40Z</time>
      </trkpt>
      <trkpt lat="43.1055630" lon="-7.8541840">
        <ele>425.6</ele>
        <time>2021-07-25T07:25:41Z</time>
      </trkpt>
      <trkpt lat="43.1055430" lon="-7.8542330">
        <ele>426.0</ele>
        <time>2021-07-25T07:25:42Z</time>
      </trkpt>
      <trkpt lat="43.1055240" lon="-7.8542770">
        <ele>426.4</ele>
        <time>2021-07-25T07:25:43Z</time>
      </trkpt>
      <trkpt lat="43.1053780" lon="-7.8545820">
        <ele>426.4</ele>
        <time>2021-07-25T07:25:50Z</time>
      </trkpt>
      <trkpt lat="43.1052360" lon="-7.8548460">
        <ele>426.4</ele>
        <time>2021-07-25T07:25:57Z</time>
      </trkpt>
      <trkpt lat="43.1050850" lon="-7.8550480">
        <ele>426.4</ele>
        <time>2021-07-25T07:26:03Z</time>
      </trkpt>
      <trkpt lat="43.1050150" lon="-7.8552650">
        <ele>426.4</ele>
        <time>2021-07-25T07:26:08Z</time>
      </trkpt>
      <trkpt lat="43.1049880" lon="-7.8554440">
        <ele>426.4</ele>
        <time>2021-07-25T07:26:12Z</time>
      </trkpt>
      <trkpt lat="43.1049880" lon="-7.8555280">
        <ele>426.4</ele>
        <time>2021-07-25T07:26:14Z</time>
      </trkpt>
      <trkpt lat="43.1049650" lon="-7.8558100">
        <ele>426.4</ele>
        <time>2021-07-25T07:26:20Z</time>
      </trkpt>
      <trkpt lat="43.1049520" lon="-7.8558580">
        <ele>426.4</ele>
        <time>2021-07-25T07:26:21Z</time>
      </trkpt>
      <trkpt lat="43.1048400" lon="-7.8560090">
        <ele>426.4</ele>
        <time>2021-07-25T07:26:25Z</time>
      </trkpt>
      <trkpt lat="43.1047450" lon="-7.8561310">
        <ele>426.4</ele>
        <time>2021-07-25T07:26:28Z</time>
      </trkpt>
      <trkpt lat="43.1046590" lon="-7.8562350">
        <ele>426.4</ele>
        <time>2021-07-25T07:26:31Z</time>
      </trkpt>
      <trkpt lat="43.1046360" lon="-7.8562780">
        <ele>426.4</ele>
        <time>2021-07-25T07:26:32Z</time>
      </trkpt>
      <trkpt lat="43.1046150" lon="-7.8563280">
        <ele>426.4</ele>
        <time>2021-07-25T07:26:33Z</time>
      </trkpt>
      <trkpt lat="43.1045140" lon="-7.8565850">
        <ele>426.4</ele>
        <time>2021-07-25T07:26:38Z</time>
      </trkpt>
      <trkpt lat="43.1044510" lon="-7.8567760">
        <ele>426.4</ele>
        <time>2021-07-25T07:26:42Z</time>
      </trkpt>
      <trkpt lat="43.1043900" lon="-7.8569500">
        <ele>426.4</ele>
        <time>2021-07-25T07:26:46Z</time>
      </trkpt>
      <trkpt lat="43.1042550" lon="-7.8572590">
        <ele>426.4</ele>
        <time>2021-07-25T07:26:53Z</time>
      </trkpt>
      <trkpt lat="43.1041450" lon="-7.8576190">
        <ele>426.4</ele>
        <time>2021-07-25T07:27:00Z</time>
      </trkpt>
      <trkpt lat="43.1040990" lon="-7.8578170">
        <ele>426.4</ele>
        <time>2021-07-25T07:27:04Z</time>
      </trkpt>
      <trkpt lat="43.1040920" lon="-7.8578660">
        <ele>426.8</ele>
        <time>2021-07-25T07:27:05Z</time>
      </trkpt>
      <trkpt lat="43.1040790" lon="-7.8579130">
        <ele>427.2</ele>
        <time>2021-07-25T07:27:06Z</time>
      </trkpt>
      <trkpt lat="43.1040680" lon="-7.8579590">
        <ele>427.6</ele>
        <time>2021-07-25T07:27:07Z</time>
      </trkpt>
      <trkpt lat="43.1040630" lon="-7.8580050">
        <ele>428.0</ele>
        <time>2021-07-25T07:27:08Z</time>
      </trkpt>
      <trkpt lat="43.1040550" lon="-7.8580470">
        <ele>428.4</ele>
        <time>2021-07-25T07:27:09Z</time>
      </trkpt>
      <trkpt lat="43.1040230" lon="-7.8581670">
        <ele>428.4</ele>
        <time>2021-07-25T07:27:12Z</time>
      </trkpt>
      <trkpt lat="43.1039870" lon="-7.8583890">
        <ele>428.4</ele>
        <time>2021-07-25T07:27:17Z</time>
      </trkpt>
      <trkpt lat="43.1039800" lon="-7.8584300">
        <ele>428.4</ele>
        <time>2021-07-25T07:27:18Z</time>
      </trkpt>
      <trkpt lat="43.1039680" lon="-7.8586810">
        <ele>428.4</ele>
        <time>2021-07-25T07:27:24Z</time>
      </trkpt>
      <trkpt lat="43.1039300" lon="-7.8590190">
        <ele>428.4</ele>
        <time>2021-07-25T07:27:31Z</time>
      </trkpt>
      <trkpt lat="43.1038610" lon="-7.8592200">
        <ele>428.4</ele>
        <time>2021-07-25T07:27:37Z</time>
      </trkpt>
      <trkpt lat="43.1037180" lon="-7.8595500">
        <ele>428.4</ele>
        <time>2021-07-25T07:27:43Z</time>
      </trkpt>
      <trkpt lat="43.1036760" lon="-7.8596530">
        <ele>428.4</ele>
        <time>2021-07-25T07:27:46Z</time>
      </trkpt>
      <trkpt lat="43.1036530" lon="-7.8596910">
        <ele>428.4</ele>
        <time>2021-07-25T07:27:48Z</time>
      </trkpt>
      <trkpt lat="43.1035580" lon="-7.8598700">
        <ele>428.4</ele>
        <time>2021-07-25T07:27:54Z</time>
      </trkpt>
      <trkpt lat="43.1033980" lon="-7.8600680">
        <ele>428.4</ele>
        <time>2021-07-25T07:28:01Z</time>
      </trkpt>
      <trkpt lat="43.1031630" lon="-7.8602720">
        <ele>428.4</ele>
        <time>2021-07-25T07:28:08Z</time>
      </trkpt>
      <trkpt lat="43.1029830" lon="-7.8602650">
        <ele>428.4</ele>
        <time>2021-07-25T07:28:13Z</time>
      </trkpt>
      <trkpt lat="43.1026840" lon="-7.8603450">
        <ele>428.8</ele>
        <time>2021-07-25T07:28:19Z</time>
      </trkpt>
      <trkpt lat="43.1026510" lon="-7.8603630">
        <ele>429.2</ele>
        <time>2021-07-25T07:28:20Z</time>
      </trkpt>
      <trkpt lat="43.1026210" lon="-7.8603870">
        <ele>429.6</ele>
        <time>2021-07-25T07:28:21Z</time>
      </trkpt>
      <trkpt lat="43.1025880" lon="-7.8604100">
        <ele>430.0</ele>
        <time>2021-07-25T07:28:22Z</time>
      </trkpt>
      <trkpt lat="43.1025550" lon="-7.8604380">
        <ele>430.4</ele>
        <time>2021-07-25T07:28:23Z</time>
      </trkpt>
      <trkpt lat="43.1024510" lon="-7.8605100">
        <ele>430.4</ele>
        <time>2021-07-25T07:28:26Z</time>
      </trkpt>
      <trkpt lat="43.1022340" lon="-7.8606820">
        <ele>430.4</ele>
        <time>2021-07-25T07:28:33Z</time>
      </trkpt>
      <trkpt lat="43.1020480" lon="-7.8608580">
        <ele>430.4</ele>
        <time>2021-07-25T07:28:39Z</time>
      </trkpt>
      <trkpt lat="43.1019740" lon="-7.8609850">
        <ele>430.8</ele>
        <time>2021-07-25T07:28:44Z</time>
      </trkpt>
      <trkpt lat="43.1019580" lon="-7.8610070">
        <ele>431.2</ele>
        <time>2021-07-25T07:28:45Z</time>
      </trkpt>
      <trkpt lat="43.1019390" lon="-7.8610360">
        <ele>431.6</ele>
        <time>2021-07-25T07:28:46Z</time>
      </trkpt>
      <trkpt lat="43.1019270" lon="-7.8610670">
        <ele>432.0</ele>
        <time>2021-07-25T07:28:47Z</time>
      </trkpt>
      <trkpt lat="43.1019130" lon="-7.8610970">
        <ele>432.4</ele>
        <time>2021-07-25T07:28:48Z</time>
      </trkpt>
      <trkpt lat="43.1018600" lon="-7.8611810">
        <ele>432.4</ele>
        <time>2021-07-25T07:28:51Z</time>
      </trkpt>
      <trkpt lat="43.1017740" lon="-7.8613320">
        <ele>432.4</ele>
        <time>2021-07-25T07:28:56Z</time>
      </trkpt>
      <trkpt lat="43.1017450" lon="-7.8614040">
        <ele>432.4</ele>
        <time>2021-07-25T07:28:58Z</time>
      </trkpt>
      <trkpt lat="43.1017030" lon="-7.8615020">
        <ele>432.8</ele>
        <time>2021-07-25T07:29:01Z</time>
      </trkpt>
      <trkpt lat="43.1016860" lon="-7.8615320">
        <ele>433.2</ele>
        <time>2021-07-25T07:29:02Z</time>
      </trkpt>
      <trkpt lat="43.1016730" lon="-7.8615670">
        <ele>433.6</ele>
        <time>2021-07-25T07:29:03Z</time>
      </trkpt>
      <trkpt lat="43.1016620" lon="-7.8615990">
        <ele>434.2</ele>
        <time>2021-07-25T07:29:04Z</time>
      </trkpt>
      <trkpt lat="43.1016450" lon="-7.8616280">
        <ele>434.6</ele>
        <time>2021-07-25T07:29:05Z</time>
      </trkpt>
      <trkpt lat="43.1015350" lon="-7.8618700">
        <ele>434.6</ele>
        <time>2021-07-25T07:29:13Z</time>
      </trkpt>
      <trkpt lat="43.1014300" lon="-7.8619880">
        <ele>434.6</ele>
        <time>2021-07-25T07:29:18Z</time>
      </trkpt>
      <trkpt lat="43.1012950" lon="-7.8621490">
        <ele>434.6</ele>
        <time>2021-07-25T07:29:25Z</time>
      </trkpt>
      <trkpt lat="43.1012730" lon="-7.8622260">
        <ele>435.0</ele>
        <time>2021-07-25T07:29:28Z</time>
      </trkpt>
      <trkpt lat="43.1012710" lon="-7.8622490">
        <ele>435.4</ele>
        <time>2021-07-25T07:29:29Z</time>
      </trkpt>
      <trkpt lat="43.1012680" lon="-7.8622710">
        <ele>435.8</ele>
        <time>2021-07-25T07:29:30Z</time>
      </trkpt>
      <trkpt lat="43.1012610" lon="-7.8622930">
        <ele>436.2</ele>
        <time>2021-07-25T07:29:31Z</time>
      </trkpt>
      <trkpt lat="43.1012500" lon="-7.8623200">
        <ele>436.6</ele>
        <time>2021-07-25T07:29:32Z</time>
      </trkpt>
      <trkpt lat="43.1011970" lon="-7.8624060">
        <ele>437.0</ele>
        <time>2021-07-25T07:29:37Z</time>
      </trkpt>
      <trkpt lat="43.1011830" lon="-7.8624180">
        <ele>437.4</ele>
        <time>2021-07-25T07:29:38Z</time>
      </trkpt>
      <trkpt lat="43.1011670" lon="-7.8624210">
        <ele>437.8</ele>
        <time>2021-07-25T07:29:39Z</time>
      </trkpt>
      <trkpt lat="43.1011490" lon="-7.8624280">
        <ele>438.2</ele>
        <time>2021-07-25T07:29:40Z</time>
      </trkpt>
      <trkpt lat="43.1011380" lon="-7.8624320">
        <ele>438.6</ele>
        <time>2021-07-25T07:29:41Z</time>
      </trkpt>
      <trkpt lat="43.1010880" lon="-7.8624480">
        <ele>438.6</ele>
        <time>2021-07-25T07:29:44Z</time>
      </trkpt>
      <trkpt lat="43.1009850" lon="-7.8624680">
        <ele>438.6</ele>
        <time>2021-07-25T07:29:50Z</time>
      </trkpt>
      <trkpt lat="43.1009740" lon="-7.8624910">
        <ele>438.6</ele>
        <time>2021-07-25T07:29:51Z</time>
      </trkpt>
      <trkpt lat="43.1008950" lon="-7.8626310">
        <ele>438.6</ele>
        <time>2021-07-25T07:29:59Z</time>
      </trkpt>
      <trkpt lat="43.1008680" lon="-7.8626660">
        <ele>438.6</ele>
        <time>2021-07-25T07:30:01Z</time>
      </trkpt>
      <trkpt lat="43.1008230" lon="-7.8627420">
        <ele>438.6</ele>
        <time>2021-07-25T07:30:05Z</time>
      </trkpt>
      <trkpt lat="43.1008010" lon="-7.8627940">
        <ele>439.0</ele>
        <time>2021-07-25T07:30:07Z</time>
      </trkpt>
      <trkpt lat="43.1007890" lon="-7.8628100">
        <ele>439.4</ele>
        <time>2021-07-25T07:30:08Z</time>
      </trkpt>
      <trkpt lat="43.1007780" lon="-7.8628270">
        <ele>439.8</ele>
        <time>2021-07-25T07:30:09Z</time>
      </trkpt>
      <trkpt lat="43.1007680" lon="-7.8628510">
        <ele>440.6</ele>
        <time>2021-07-25T07:30:10Z</time>
      </trkpt>
      <trkpt lat="43.1006940" lon="-7.8629990">
        <ele>440.6</ele>
        <time>2021-07-25T07:30:16Z</time>
      </trkpt>
      <trkpt lat="43.1006490" lon="-7.8630930">
        <ele>440.6</ele>
        <time>2021-07-25T07:30:20Z</time>
      </trkpt>
      <trkpt lat="43.1006320" lon="-7.8631120">
        <ele>440.6</ele>
        <time>2021-07-25T07:30:21Z</time>
      </trkpt>
      <trkpt lat="43.1005400" lon="-7.8632760">
        <ele>440.6</ele>
        <time>2021-07-25T07:30:28Z</time>
      </trkpt>
      <trkpt lat="43.1004900" lon="-7.8634560">
        <ele>440.6</ele>
        <time>2021-07-25T07:30:34Z</time>
      </trkpt>
      <trkpt lat="43.1004220" lon="-7.8635840">
        <ele>440.6</ele>
        <time>2021-07-25T07:30:39Z</time>
      </trkpt>
      <trkpt lat="43.1003970" lon="-7.8636530">
        <ele>440.6</ele>
        <time>2021-07-25T07:30:42Z</time>
      </trkpt>
      <trkpt lat="43.1003900" lon="-7.8636810">
        <ele>441.0</ele>
        <time>2021-07-25T07:30:43Z</time>
      </trkpt>
      <trkpt lat="43.1003830" lon="-7.8637140">
        <ele>441.4</ele>
        <time>2021-07-25T07:30:44Z</time>
      </trkpt>
      <trkpt lat="43.1003750" lon="-7.8637410">
        <ele>441.8</ele>
        <time>2021-07-25T07:30:45Z</time>
      </trkpt>
      <trkpt lat="43.1003690" lon="-7.8637690">
        <ele>442.2</ele>
        <time>2021-07-25T07:30:46Z</time>
      </trkpt>
      <trkpt lat="43.1003650" lon="-7.8637970">
        <ele>442.6</ele>
        <time>2021-07-25T07:30:47Z</time>
      </trkpt>
      <trkpt lat="43.1003630" lon="-7.8638200">
        <ele>442.6</ele>
        <time>2021-07-25T07:30:48Z</time>
      </trkpt>
      <trkpt lat="43.1003360" lon="-7.8640010">
        <ele>442.6</ele>
        <time>2021-07-25T07:30:55Z</time>
      </trkpt>
      <trkpt lat="43.1003350" lon="-7.8641220">
        <ele>442.6</ele>
        <time>2021-07-25T07:30:59Z</time>
      </trkpt>
      <trkpt lat="43.1003300" lon="-7.8641840">
        <ele>442.6</ele>
        <time>2021-07-25T07:31:01Z</time>
      </trkpt>
      <trkpt lat="43.1003300" lon="-7.8642780">
        <ele>442.6</ele>
        <time>2021-07-25T07:31:04Z</time>
      </trkpt>
      <trkpt lat="43.1003340" lon="-7.8643790">
        <ele>442.6</ele>
        <time>2021-07-25T07:31:07Z</time>
      </trkpt>
      <trkpt lat="43.1002820" lon="-7.8645800">
        <ele>442.6</ele>
        <time>2021-07-25T07:31:13Z</time>
      </trkpt>
      <trkpt lat="43.1002350" lon="-7.8647630">
        <ele>443.0</ele>
        <time>2021-07-25T07:31:18Z</time>
      </trkpt>
      <trkpt lat="43.1002240" lon="-7.8648030">
        <ele>443.4</ele>
        <time>2021-07-25T07:31:19Z</time>
      </trkpt>
      <trkpt lat="43.1002130" lon="-7.8648430">
        <ele>443.8</ele>
        <time>2021-07-25T07:31:20Z</time>
      </trkpt>
      <trkpt lat="43.1002010" lon="-7.8648810">
        <ele>444.2</ele>
        <time>2021-07-25T07:31:21Z</time>
      </trkpt>
      <trkpt lat="43.1001900" lon="-7.8649210">
        <ele>444.6</ele>
        <time>2021-07-25T07:31:22Z</time>
      </trkpt>
      <trkpt lat="43.1001670" lon="-7.8650430">
        <ele>444.6</ele>
        <time>2021-07-25T07:31:25Z</time>
      </trkpt>
      <trkpt lat="43.1001500" lon="-7.8651160">
        <ele>444.6</ele>
        <time>2021-07-25T07:31:27Z</time>
      </trkpt>
      <trkpt lat="43.1000880" lon="-7.8652450">
        <ele>444.6</ele>
        <time>2021-07-25T07:31:31Z</time>
      </trkpt>
      <trkpt lat="43.1000580" lon="-7.8653180">
        <ele>444.6</ele>
        <time>2021-07-25T07:31:33Z</time>
      </trkpt>
      <trkpt lat="43.0999810" lon="-7.8656200">
        <ele>444.6</ele>
        <time>2021-07-25T07:31:40Z</time>
      </trkpt>
      <trkpt lat="43.0999570" lon="-7.8657360">
        <ele>444.6</ele>
        <time>2021-07-25T07:31:44Z</time>
      </trkpt>
      <trkpt lat="43.0998990" lon="-7.8659410">
        <ele>444.6</ele>
        <time>2021-07-25T07:31:50Z</time>
      </trkpt>
      <trkpt lat="43.0998560" lon="-7.8661100">
        <ele>444.6</ele>
        <time>2021-07-25T07:31:55Z</time>
      </trkpt>
      <trkpt lat="43.0997780" lon="-7.8663140">
        <ele>444.6</ele>
        <time>2021-07-25T07:32:01Z</time>
      </trkpt>
      <trkpt lat="43.0997000" lon="-7.8665620">
        <ele>444.6</ele>
        <time>2021-07-25T07:32:07Z</time>
      </trkpt>
      <trkpt lat="43.0995920" lon="-7.8667620">
        <ele>444.6</ele>
        <time>2021-07-25T07:32:12Z</time>
      </trkpt>
      <trkpt lat="43.0995660" lon="-7.8667990">
        <ele>444.6</ele>
        <time>2021-07-25T07:32:13Z</time>
      </trkpt>
      <trkpt lat="43.0994670" lon="-7.8669610">
        <ele>444.6</ele>
        <time>2021-07-25T07:32:17Z</time>
      </trkpt>
      <trkpt lat="43.0993800" lon="-7.8671090">
        <ele>444.6</ele>
        <time>2021-07-25T07:32:21Z</time>
      </trkpt>
      <trkpt lat="43.0993300" lon="-7.8672160">
        <ele>444.6</ele>
        <time>2021-07-25T07:32:24Z</time>
      </trkpt>
      <trkpt lat="43.0993000" lon="-7.8672790">
        <ele>444.6</ele>
        <time>2021-07-25T07:32:26Z</time>
      </trkpt>
      <trkpt lat="43.0991760" lon="-7.8675190">
        <ele>444.6</ele>
        <time>2021-07-25T07:32:33Z</time>
      </trkpt>
      <trkpt lat="43.0989930" lon="-7.8677240">
        <ele>444.6</ele>
        <time>2021-07-25T07:32:39Z</time>
      </trkpt>
      <trkpt lat="43.0988570" lon="-7.8678540">
        <ele>444.6</ele>
        <time>2021-07-25T07:32:44Z</time>
      </trkpt>
      <trkpt lat="43.0988340" lon="-7.8678690">
        <ele>444.6</ele>
        <time>2021-07-25T07:32:45Z</time>
      </trkpt>
      <trkpt lat="43.0987370" lon="-7.8679740">
        <ele>444.6</ele>
        <time>2021-07-25T07:32:49Z</time>
      </trkpt>
      <trkpt lat="43.0986620" lon="-7.8680530">
        <ele>444.6</ele>
        <time>2021-07-25T07:32:52Z</time>
      </trkpt>
      <trkpt lat="43.0985370" lon="-7.8681480">
        <ele>444.6</ele>
        <time>2021-07-25T07:32:56Z</time>
      </trkpt>
      <trkpt lat="43.0983890" lon="-7.8682270">
        <ele>445.2</ele>
        <time>2021-07-25T07:33:00Z</time>
      </trkpt>
      <trkpt lat="43.0983550" lon="-7.8682500">
        <ele>445.6</ele>
        <time>2021-07-25T07:33:01Z</time>
      </trkpt>
      <trkpt lat="43.0983250" lon="-7.8682840">
        <ele>446.0</ele>
        <time>2021-07-25T07:33:02Z</time>
      </trkpt>
      <trkpt lat="43.0983010" lon="-7.8683140">
        <ele>446.8</ele>
        <time>2021-07-25T07:33:03Z</time>
      </trkpt>
      <trkpt lat="43.0982310" lon="-7.8684320">
        <ele>446.8</ele>
        <time>2021-07-25T07:33:07Z</time>
      </trkpt>
      <trkpt lat="43.0981970" lon="-7.8685390">
        <ele>446.8</ele>
        <time>2021-07-25T07:33:12Z</time>
      </trkpt>
      <trkpt lat="43.0981930" lon="-7.8686450">
        <ele>447.2</ele>
        <time>2021-07-25T07:33:16Z</time>
      </trkpt>
      <trkpt lat="43.0981870" lon="-7.8686730">
        <ele>447.6</ele>
        <time>2021-07-25T07:33:17Z</time>
      </trkpt>
      <trkpt lat="43.0981850" lon="-7.8687000">
        <ele>448.0</ele>
        <time>2021-07-25T07:33:18Z</time>
      </trkpt>
      <trkpt lat="43.0981850" lon="-7.8687260">
        <ele>448.4</ele>
        <time>2021-07-25T07:33:19Z</time>
      </trkpt>
      <trkpt lat="43.0981880" lon="-7.8687530">
        <ele>449.0</ele>
        <time>2021-07-25T07:33:20Z</time>
      </trkpt>
      <trkpt lat="43.0981960" lon="-7.8688590">
        <ele>449.0</ele>
        <time>2021-07-25T07:33:23Z</time>
      </trkpt>
      <trkpt lat="43.0982040" lon="-7.8689960">
        <ele>449.0</ele>
        <time>2021-07-25T07:33:27Z</time>
      </trkpt>
      <trkpt lat="43.0982010" lon="-7.8690600">
        <ele>449.0</ele>
        <time>2021-07-25T07:33:29Z</time>
      </trkpt>
      <trkpt lat="43.0982040" lon="-7.8692090">
        <ele>449.4</ele>
        <time>2021-07-25T07:33:34Z</time>
      </trkpt>
      <trkpt lat="43.0982030" lon="-7.8692380">
        <ele>449.8</ele>
        <time>2021-07-25T07:33:35Z</time>
      </trkpt>
      <trkpt lat="43.0982010" lon="-7.8692670">
        <ele>450.2</ele>
        <time>2021-07-25T07:33:36Z</time>
      </trkpt>
      <trkpt lat="43.0981970" lon="-7.8693000">
        <ele>450.6</ele>
        <time>2021-07-25T07:33:37Z</time>
      </trkpt>
      <trkpt lat="43.0981880" lon="-7.8693320">
        <ele>451.0</ele>
        <time>2021-07-25T07:33:38Z</time>
      </trkpt>
      <trkpt lat="43.0981640" lon="-7.8693830">
        <ele>451.0</ele>
        <time>2021-07-25T07:33:40Z</time>
      </trkpt>
      <trkpt lat="43.0980870" lon="-7.8695510">
        <ele>451.0</ele>
        <time>2021-07-25T07:33:46Z</time>
      </trkpt>
      <trkpt lat="43.0980350" lon="-7.8697890">
        <ele>451.0</ele>
        <time>2021-07-25T07:33:53Z</time>
      </trkpt>
      <trkpt lat="43.0979670" lon="-7.8701110">
        <ele>451.0</ele>
        <time>2021-07-25T07:34:01Z</time>
      </trkpt>
      <trkpt lat="43.0979410" lon="-7.8701970">
        <ele>451.0</ele>
        <time>2021-07-25T07:34:04Z</time>
      </trkpt>
      <trkpt lat="43.0979240" lon="-7.8702390">
        <ele>451.4</ele>
        <time>2021-07-25T07:34:06Z</time>
      </trkpt>
      <trkpt lat="43.0979170" lon="-7.8702610">
        <ele>451.8</ele>
        <time>2021-07-25T07:34:07Z</time>
      </trkpt>
      <trkpt lat="43.0979130" lon="-7.8702850">
        <ele>452.2</ele>
        <time>2021-07-25T07:34:08Z</time>
      </trkpt>
      <trkpt lat="43.0979090" lon="-7.8703130">
        <ele>452.6</ele>
        <time>2021-07-25T07:34:09Z</time>
      </trkpt>
      <trkpt lat="43.0979030" lon="-7.8703460">
        <ele>453.0</ele>
        <time>2021-07-25T07:34:10Z</time>
      </trkpt>
      <trkpt lat="43.0978950" lon="-7.8704710">
        <ele>453.0</ele>
        <time>2021-07-25T07:34:14Z</time>
      </trkpt>
      <trkpt lat="43.0978450" lon="-7.8706690">
        <ele>453.0</ele>
        <time>2021-07-25T07:34:20Z</time>
      </trkpt>
      <trkpt lat="43.0978210" lon="-7.8707350">
        <ele>453.4</ele>
        <time>2021-07-25T07:34:23Z</time>
      </trkpt>
      <trkpt lat="43.0978160" lon="-7.8707620">
        <ele>453.8</ele>
        <time>2021-07-25T07:34:24Z</time>
      </trkpt>
      <trkpt lat="43.0978120" lon="-7.8707910">
        <ele>454.2</ele>
        <time>2021-07-25T07:34:25Z</time>
      </trkpt>
      <trkpt lat="43.0978130" lon="-7.8708270">
        <ele>454.6</ele>
        <time>2021-07-25T07:34:26Z</time>
      </trkpt>
      <trkpt lat="43.0978160" lon="-7.8708640">
        <ele>455.0</ele>
        <time>2021-07-25T07:34:27Z</time>
      </trkpt>
      <trkpt lat="43.0978260" lon="-7.8710480">
        <ele>455.0</ele>
        <time>2021-07-25T07:34:32Z</time>
      </trkpt>
      <trkpt lat="43.0978140" lon="-7.8712320">
        <ele>455.6</ele>
        <time>2021-07-25T07:34:38Z</time>
      </trkpt>
      <trkpt lat="43.0978060" lon="-7.8712610">
        <ele>456.0</ele>
        <time>2021-07-25T07:34:39Z</time>
      </trkpt>
      <trkpt lat="43.0977990" lon="-7.8712880">
        <ele>456.4</ele>
        <time>2021-07-25T07:34:40Z</time>
      </trkpt>
      <trkpt lat="43.0977930" lon="-7.8713140">
        <ele>457.0</ele>
        <time>2021-07-25T07:34:41Z</time>
      </trkpt>
      <trkpt lat="43.0977880" lon="-7.8713390">
        <ele>457.4</ele>
        <time>2021-07-25T07:34:42Z</time>
      </trkpt>
      <trkpt lat="43.0977650" lon="-7.8713830">
        <ele>457.4</ele>
        <time>2021-07-25T07:34:44Z</time>
      </trkpt>
      <trkpt lat="43.0976390" lon="-7.8714990">
        <ele>457.4</ele>
        <time>2021-07-25T07:34:49Z</time>
      </trkpt>
      <trkpt lat="43.0974710" lon="-7.8716200">
        <ele>457.4</ele>
        <time>2021-07-25T07:34:55Z</time>
      </trkpt>
      <trkpt lat="43.0973880" lon="-7.8717350">
        <ele>457.4</ele>
        <time>2021-07-25T07:34:59Z</time>
      </trkpt>
      <trkpt lat="43.0973500" lon="-7.8717980">
        <ele>457.4</ele>
        <time>2021-07-25T07:35:01Z</time>
      </trkpt>
      <trkpt lat="43.0972820" lon="-7.8719310">
        <ele>457.8</ele>
        <time>2021-07-25T07:35:06Z</time>
      </trkpt>
      <trkpt lat="43.0972740" lon="-7.8719600">
        <ele>458.6</ele>
        <time>2021-07-25T07:35:07Z</time>
      </trkpt>
      <trkpt lat="43.0972630" lon="-7.8719850">
        <ele>459.0</ele>
        <time>2021-07-25T07:35:08Z</time>
      </trkpt>
      <trkpt lat="43.0972540" lon="-7.8720060">
        <ele>459.4</ele>
        <time>2021-07-25T07:35:09Z</time>
      </trkpt>
      <trkpt lat="43.0972220" lon="-7.8721010">
        <ele>459.4</ele>
        <time>2021-07-25T07:35:13Z</time>
      </trkpt>
      <trkpt lat="43.0971550" lon="-7.8722130">
        <ele>459.8</ele>
        <time>2021-07-25T07:35:18Z</time>
      </trkpt>
      <trkpt lat="43.0971420" lon="-7.8722330">
        <ele>460.4</ele>
        <time>2021-07-25T07:35:19Z</time>
      </trkpt>
      <trkpt lat="43.0971320" lon="-7.8722520">
        <ele>460.8</ele>
        <time>2021-07-25T07:35:20Z</time>
      </trkpt>
      <trkpt lat="43.0971210" lon="-7.8722720">
        <ele>461.2</ele>
        <time>2021-07-25T07:35:21Z</time>
      </trkpt>
      <trkpt lat="43.0971080" lon="-7.8722890">
        <ele>461.6</ele>
        <time>2021-07-25T07:35:22Z</time>
      </trkpt>
      <trkpt lat="43.0970460" lon="-7.8723830">
        <ele>461.6</ele>
        <time>2021-07-25T07:35:26Z</time>
      </trkpt>
      <trkpt lat="43.0969790" lon="-7.8725820">
        <ele>461.6</ele>
        <time>2021-07-25T07:35:32Z</time>
      </trkpt>
      <trkpt lat="43.0969060" lon="-7.8728410">
        <ele>461.6</ele>
        <time>2021-07-25T07:35:39Z</time>
      </trkpt>
      <trkpt lat="43.0968790" lon="-7.8730130">
        <ele>461.6</ele>
        <time>2021-07-25T07:35:43Z</time>
      </trkpt>
      <trkpt lat="43.0968640" lon="-7.8731420">
        <ele>461.6</ele>
        <time>2021-07-25T07:35:46Z</time>
      </trkpt>
      <trkpt lat="43.0968440" lon="-7.8733230">
        <ele>462.0</ele>
        <time>2021-07-25T07:35:50Z</time>
      </trkpt>
      <trkpt lat="43.0968410" lon="-7.8733690">
        <ele>462.4</ele>
        <time>2021-07-25T07:35:51Z</time>
      </trkpt>
      <trkpt lat="43.0968400" lon="-7.8734180">
        <ele>462.8</ele>
        <time>2021-07-25T07:35:52Z</time>
      </trkpt>
      <trkpt lat="43.0968410" lon="-7.8734640">
        <ele>463.4</ele>
        <time>2021-07-25T07:35:53Z</time>
      </trkpt>
      <trkpt lat="43.0968390" lon="-7.8735050">
        <ele>463.8</ele>
        <time>2021-07-25T07:35:54Z</time>
      </trkpt>
      <trkpt lat="43.0968340" lon="-7.8736760">
        <ele>463.8</ele>
        <time>2021-07-25T07:35:59Z</time>
      </trkpt>
      <trkpt lat="43.0968050" lon="-7.8737920">
        <ele>463.8</ele>
        <time>2021-07-25T07:36:03Z</time>
      </trkpt>
      <trkpt lat="43.0967690" lon="-7.8738880">
        <ele>463.8</ele>
        <time>2021-07-25T07:36:06Z</time>
      </trkpt>
      <trkpt lat="43.0966990" lon="-7.8741250">
        <ele>463.8</ele>
        <time>2021-07-25T07:36:12Z</time>
      </trkpt>
      <trkpt lat="43.0967220" lon="-7.8742060">
        <ele>464.2</ele>
        <time>2021-07-25T07:36:15Z</time>
      </trkpt>
      <trkpt lat="43.0967320" lon="-7.8742330">
        <ele>464.6</ele>
        <time>2021-07-25T07:36:16Z</time>
      </trkpt>
      <trkpt lat="43.0967400" lon="-7.8742620">
        <ele>465.0</ele>
        <time>2021-07-25T07:36:17Z</time>
      </trkpt>
      <trkpt lat="43.0967480" lon="-7.8742890">
        <ele>465.4</ele>
        <time>2021-07-25T07:36:18Z</time>
      </trkpt>
      <trkpt lat="43.0967550" lon="-7.8743180">
        <ele>465.8</ele>
        <time>2021-07-25T07:36:19Z</time>
      </trkpt>
      <trkpt lat="43.0967620" lon="-7.8744490">
        <ele>465.8</ele>
        <time>2021-07-25T07:36:23Z</time>
      </trkpt>
      <trkpt lat="43.0967600" lon="-7.8744810">
        <ele>465.8</ele>
        <time>2021-07-25T07:36:24Z</time>
      </trkpt>
      <trkpt lat="43.0967580" lon="-7.8745120">
        <ele>466.2</ele>
        <time>2021-07-25T07:36:25Z</time>
      </trkpt>
      <trkpt lat="43.0967540" lon="-7.8745390">
        <ele>466.6</ele>
        <time>2021-07-25T07:36:26Z</time>
      </trkpt>
      <trkpt lat="43.0967480" lon="-7.8745660">
        <ele>467.0</ele>
        <time>2021-07-25T07:36:27Z</time>
      </trkpt>
      <trkpt lat="43.0967390" lon="-7.8745910">
        <ele>467.4</ele>
        <time>2021-07-25T07:36:28Z</time>
      </trkpt>
      <trkpt lat="43.0967300" lon="-7.8746150">
        <ele>468.0</ele>
        <time>2021-07-25T07:36:29Z</time>
      </trkpt>
      <trkpt lat="43.0967130" lon="-7.8746650">
        <ele>468.0</ele>
        <time>2021-07-25T07:36:31Z</time>
      </trkpt>
      <trkpt lat="43.0966680" lon="-7.8747840">
        <ele>468.0</ele>
        <time>2021-07-25T07:36:36Z</time>
      </trkpt>
      <trkpt lat="43.0966430" lon="-7.8748590">
        <ele>468.0</ele>
        <time>2021-07-25T07:36:39Z</time>
      </trkpt>
      <trkpt lat="43.0966340" lon="-7.8749040">
        <ele>468.4</ele>
        <time>2021-07-25T07:36:41Z</time>
      </trkpt>
      <trkpt lat="43.0966290" lon="-7.8749270">
        <ele>468.8</ele>
        <time>2021-07-25T07:36:42Z</time>
      </trkpt>
      <trkpt lat="43.0966270" lon="-7.8749510">
        <ele>469.2</ele>
        <time>2021-07-25T07:36:43Z</time>
      </trkpt>
      <trkpt lat="43.0966230" lon="-7.8749750">
        <ele>469.6</ele>
        <time>2021-07-25T07:36:44Z</time>
      </trkpt>
      <trkpt lat="43.0966230" lon="-7.8749990">
        <ele>470.2</ele>
        <time>2021-07-25T07:36:45Z</time>
      </trkpt>
      <trkpt lat="43.0966260" lon="-7.8750730">
        <ele>470.2</ele>
        <time>2021-07-25T07:36:48Z</time>
      </trkpt>
      <trkpt lat="43.0966230" lon="-7.8752170">
        <ele>470.6</ele>
        <time>2021-07-25T07:36:54Z</time>
      </trkpt>
      <trkpt lat="43.0966230" lon="-7.8752420">
        <ele>471.0</ele>
        <time>2021-07-25T07:36:55Z</time>
      </trkpt>
      <trkpt lat="43.0966240" lon="-7.8752650">
        <ele>471.4</ele>
        <time>2021-07-25T07:36:56Z</time>
      </trkpt>
      <trkpt lat="43.0966250" lon="-7.8752910">
        <ele>471.8</ele>
        <time>2021-07-25T07:36:57Z</time>
      </trkpt>
      <trkpt lat="43.0966260" lon="-7.8753160">
        <ele>472.2</ele>
        <time>2021-07-25T07:36:58Z</time>
      </trkpt>
      <trkpt lat="43.0966480" lon="-7.8755010">
        <ele>472.8</ele>
        <time>2021-07-25T07:37:06Z</time>
      </trkpt>
      <trkpt lat="43.0966490" lon="-7.8755260">
        <ele>473.2</ele>
        <time>2021-07-25T07:37:07Z</time>
      </trkpt>
      <trkpt lat="43.0966510" lon="-7.8755500">
        <ele>473.6</ele>
        <time>2021-07-25T07:37:08Z</time>
      </trkpt>
      <trkpt lat="43.0966570" lon="-7.8755730">
        <ele>474.0</ele>
        <time>2021-07-25T07:37:09Z</time>
      </trkpt>
      <trkpt lat="43.0966590" lon="-7.8755970">
        <ele>474.4</ele>
        <time>2021-07-25T07:37:10Z</time>
      </trkpt>
      <trkpt lat="43.0966570" lon="-7.8756470">
        <ele>474.4</ele>
        <time>2021-07-25T07:37:12Z</time>
      </trkpt>
      <trkpt lat="43.0966280" lon="-7.8757920">
        <ele>474.4</ele>
        <time>2021-07-25T07:37:18Z</time>
      </trkpt>
      <trkpt lat="43.0966150" lon="-7.8758360">
        <ele>474.8</ele>
        <time>2021-07-25T07:37:20Z</time>
      </trkpt>
      <trkpt lat="43.0966070" lon="-7.8758590">
        <ele>475.2</ele>
        <time>2021-07-25T07:37:21Z</time>
      </trkpt>
      <trkpt lat="43.0965970" lon="-7.8758790">
        <ele>475.6</ele>
        <time>2021-07-25T07:37:22Z</time>
      </trkpt>
      <trkpt lat="43.0965870" lon="-7.8758990">
        <ele>476.0</ele>
        <time>2021-07-25T07:37:23Z</time>
      </trkpt>
      <trkpt lat="43.0965770" lon="-7.8759170">
        <ele>476.6</ele>
        <time>2021-07-25T07:37:24Z</time>
      </trkpt>
      <trkpt lat="43.0964980" lon="-7.8760710">
        <ele>476.6</ele>
        <time>2021-07-25T07:37:32Z</time>
      </trkpt>
      <trkpt lat="43.0964810" lon="-7.8761430">
        <ele>477.0</ele>
        <time>2021-07-25T07:37:35Z</time>
      </trkpt>
      <trkpt lat="43.0964790" lon="-7.8761660">
        <ele>477.4</ele>
        <time>2021-07-25T07:37:36Z</time>
      </trkpt>
      <trkpt lat="43.0964750" lon="-7.8761870">
        <ele>477.8</ele>
        <time>2021-07-25T07:37:37Z</time>
      </trkpt>
      <trkpt lat="43.0964700" lon="-7.8762070">
        <ele>478.2</ele>
        <time>2021-07-25T07:37:38Z</time>
      </trkpt>
      <trkpt lat="43.0964650" lon="-7.8762230">
        <ele>478.6</ele>
        <time>2021-07-25T07:37:39Z</time>
      </trkpt>
      <trkpt lat="43.0964260" lon="-7.8763870">
        <ele>478.6</ele>
        <time>2021-07-25T07:37:47Z</time>
      </trkpt>
      <trkpt lat="43.0964190" lon="-7.8764460">
        <ele>479.0</ele>
        <time>2021-07-25T07:37:50Z</time>
      </trkpt>
      <trkpt lat="43.0964160" lon="-7.8764620">
        <ele>479.4</ele>
        <time>2021-07-25T07:37:51Z</time>
      </trkpt>
      <trkpt lat="43.0964140" lon="-7.8764790">
        <ele>479.8</ele>
        <time>2021-07-25T07:37:52Z</time>
      </trkpt>
      <trkpt lat="43.0964100" lon="-7.8764980">
        <ele>480.2</ele>
        <time>2021-07-25T07:37:53Z</time>
      </trkpt>
      <trkpt lat="43.0964060" lon="-7.8765160">
        <ele>480.6</ele>
        <time>2021-07-25T07:37:54Z</time>
      </trkpt>
      <trkpt lat="43.0964030" lon="-7.8765350">
        <ele>480.6</ele>
        <time>2021-07-25T07:37:55Z</time>
      </trkpt>
      <trkpt lat="43.0963810" lon="-7.8766710">
        <ele>481.0</ele>
        <time>2021-07-25T07:38:02Z</time>
      </trkpt>
      <trkpt lat="43.0963760" lon="-7.8766870">
        <ele>481.4</ele>
        <time>2021-07-25T07:38:03Z</time>
      </trkpt>
      <trkpt lat="43.0963690" lon="-7.8767070">
        <ele>481.8</ele>
        <time>2021-07-25T07:38:04Z</time>
      </trkpt>
      <trkpt lat="43.0963630" lon="-7.8767250">
        <ele>482.2</ele>
        <time>2021-07-25T07:38:05Z</time>
      </trkpt>
      <trkpt lat="43.0963570" lon="-7.8767450">
        <ele>482.6</ele>
        <time>2021-07-25T07:38:06Z</time>
      </trkpt>
      <trkpt lat="43.0963150" lon="-7.8769170">
        <ele>482.6</ele>
        <time>2021-07-25T07:38:14Z</time>
      </trkpt>
      <trkpt lat="43.0962650" lon="-7.8770840">
        <ele>482.6</ele>
        <time>2021-07-25T07:38:21Z</time>
      </trkpt>
      <trkpt lat="43.0962610" lon="-7.8771090">
        <ele>483.0</ele>
        <time>2021-07-25T07:38:22Z</time>
      </trkpt>
      <trkpt lat="43.0962560" lon="-7.8771370">
        <ele>483.4</ele>
        <time>2021-07-25T07:38:23Z</time>
      </trkpt>
      <trkpt lat="43.0962490" lon="-7.8771610">
        <ele>484.2</ele>
        <time>2021-07-25T07:38:24Z</time>
      </trkpt>
      <trkpt lat="43.0962450" lon="-7.8771850">
        <ele>484.6</ele>
        <time>2021-07-25T07:38:25Z</time>
      </trkpt>
      <trkpt lat="43.0962250" lon="-7.8772560">
        <ele>484.6</ele>
        <time>2021-07-25T07:38:28Z</time>
      </trkpt>
      <trkpt lat="43.0961840" lon="-7.8774090">
        <ele>484.6</ele>
        <time>2021-07-25T07:38:34Z</time>
      </trkpt>
      <trkpt lat="43.0961760" lon="-7.8774330">
        <ele>484.6</ele>
        <time>2021-07-25T07:38:35Z</time>
      </trkpt>
      <trkpt lat="43.0961580" lon="-7.8774750">
        <ele>485.0</ele>
        <time>2021-07-25T07:38:37Z</time>
      </trkpt>
      <trkpt lat="43.0961470" lon="-7.8774970">
        <ele>485.4</ele>
        <time>2021-07-25T07:38:38Z</time>
      </trkpt>
      <trkpt lat="43.0961380" lon="-7.8775200">
        <ele>485.8</ele>
        <time>2021-07-25T07:38:39Z</time>
      </trkpt>
      <trkpt lat="43.0961300" lon="-7.8775410">
        <ele>486.4</ele>
        <time>2021-07-25T07:38:40Z</time>
      </trkpt>
      <trkpt lat="43.0961200" lon="-7.8775600">
        <ele>486.8</ele>
        <time>2021-07-25T07:38:41Z</time>
      </trkpt>
      <trkpt lat="43.0961090" lon="-7.8775830">
        <ele>486.8</ele>
        <time>2021-07-25T07:38:42Z</time>
      </trkpt>
      <trkpt lat="43.0960320" lon="-7.8777580">
        <ele>486.8</ele>
        <time>2021-07-25T07:38:49Z</time>
      </trkpt>
      <trkpt lat="43.0959830" lon="-7.8779710">
        <ele>486.8</ele>
        <time>2021-07-25T07:38:57Z</time>
      </trkpt>
      <trkpt lat="43.0959790" lon="-7.8779980">
        <ele>487.2</ele>
        <time>2021-07-25T07:38:58Z</time>
      </trkpt>
      <trkpt lat="43.0959750" lon="-7.8780250">
        <ele>487.6</ele>
        <time>2021-07-25T07:38:59Z</time>
      </trkpt>
      <trkpt lat="43.0959710" lon="-7.8780560">
        <ele>488.0</ele>
        <time>2021-07-25T07:39:00Z</time>
      </trkpt>
      <trkpt lat="43.0959670" lon="-7.8780880">
        <ele>488.4</ele>
        <time>2021-07-25T07:39:01Z</time>
      </trkpt>
      <trkpt lat="43.0959620" lon="-7.8781240">
        <ele>488.8</ele>
        <time>2021-07-25T07:39:02Z</time>
      </trkpt>
      <trkpt lat="43.0959410" lon="-7.8782400">
        <ele>488.8</ele>
        <time>2021-07-25T07:39:05Z</time>
      </trkpt>
      <trkpt lat="43.0958930" lon="-7.8785320">
        <ele>488.8</ele>
        <time>2021-07-25T07:39:13Z</time>
      </trkpt>
      <trkpt lat="43.0958480" lon="-7.8787320">
        <ele>489.2</ele>
        <time>2021-07-25T07:39:20Z</time>
      </trkpt>
      <trkpt lat="43.0958410" lon="-7.8787580">
        <ele>489.6</ele>
        <time>2021-07-25T07:39:21Z</time>
      </trkpt>
      <trkpt lat="43.0958340" lon="-7.8787860">
        <ele>490.2</ele>
        <time>2021-07-25T07:39:22Z</time>
      </trkpt>
      <trkpt lat="43.0958270" lon="-7.8788120">
        <ele>490.6</ele>
        <time>2021-07-25T07:39:23Z</time>
      </trkpt>
      <trkpt lat="43.0958190" lon="-7.8788360">
        <ele>491.0</ele>
        <time>2021-07-25T07:39:24Z</time>
      </trkpt>
      <trkpt lat="43.0957900" lon="-7.8789350">
        <ele>491.0</ele>
        <time>2021-07-25T07:39:28Z</time>
      </trkpt>
      <trkpt lat="43.0957580" lon="-7.8791400">
        <ele>491.0</ele>
        <time>2021-07-25T07:39:34Z</time>
      </trkpt>
      <trkpt lat="43.0957570" lon="-7.8791770">
        <ele>491.0</ele>
        <time>2021-07-25T07:39:35Z</time>
      </trkpt>
      <trkpt lat="43.0957510" lon="-7.8792870">
        <ele>491.4</ele>
        <time>2021-07-25T07:39:38Z</time>
      </trkpt>
      <trkpt lat="43.0957470" lon="-7.8793230">
        <ele>491.8</ele>
        <time>2021-07-25T07:39:39Z</time>
      </trkpt>
      <trkpt lat="43.0957480" lon="-7.8793600">
        <ele>492.2</ele>
        <time>2021-07-25T07:39:40Z</time>
      </trkpt>
      <trkpt lat="43.0957520" lon="-7.8793970">
        <ele>492.6</ele>
        <time>2021-07-25T07:39:41Z</time>
      </trkpt>
      <trkpt lat="43.0957570" lon="-7.8794330">
        <ele>493.0</ele>
        <time>2021-07-25T07:39:42Z</time>
      </trkpt>
      <trkpt lat="43.0958000" lon="-7.8796830">
        <ele>493.0</ele>
        <time>2021-07-25T07:39:50Z</time>
      </trkpt>
      <trkpt lat="43.0958530" lon="-7.8798190">
        <ele>493.4</ele>
        <time>2021-07-25T07:39:55Z</time>
      </trkpt>
      <trkpt lat="43.0958650" lon="-7.8798450">
        <ele>493.8</ele>
        <time>2021-07-25T07:39:56Z</time>
      </trkpt>
      <trkpt lat="43.0958770" lon="-7.8798710">
        <ele>494.2</ele>
        <time>2021-07-25T07:39:57Z</time>
      </trkpt>
      <trkpt lat="43.0958890" lon="-7.8798980">
        <ele>494.6</ele>
        <time>2021-07-25T07:39:58Z</time>
      </trkpt>
      <trkpt lat="43.0959000" lon="-7.8799260">
        <ele>495.0</ele>
        <time>2021-07-25T07:39:59Z</time>
      </trkpt>
      <trkpt lat="43.0959970" lon="-7.8800710">
        <ele>495.0</ele>
        <time>2021-07-25T07:40:05Z</time>
      </trkpt>
      <trkpt lat="43.0960780" lon="-7.8801630">
        <ele>495.4</ele>
        <time>2021-07-25T07:40:10Z</time>
      </trkpt>
      <trkpt lat="43.0960920" lon="-7.8801800">
        <ele>495.8</ele>
        <time>2021-07-25T07:40:11Z</time>
      </trkpt>
      <trkpt lat="43.0961040" lon="-7.8802000">
        <ele>496.2</ele>
        <time>2021-07-25T07:40:12Z</time>
      </trkpt>
      <trkpt lat="43.0961180" lon="-7.8802200">
        <ele>496.6</ele>
        <time>2021-07-25T07:40:13Z</time>
      </trkpt>
      <trkpt lat="43.0961340" lon="-7.8802410">
        <ele>497.0</ele>
        <time>2021-07-25T07:40:14Z</time>
      </trkpt>
      <trkpt lat="43.0961990" lon="-7.8803290">
        <ele>497.0</ele>
        <time>2021-07-25T07:40:18Z</time>
      </trkpt>
      <trkpt lat="43.0962810" lon="-7.8804740">
        <ele>497.0</ele>
        <time>2021-07-25T07:40:24Z</time>
      </trkpt>
      <trkpt lat="43.0962960" lon="-7.8805000">
        <ele>497.0</ele>
        <time>2021-07-25T07:40:25Z</time>
      </trkpt>
      <trkpt lat="43.0963110" lon="-7.8805210">
        <ele>497.4</ele>
        <time>2021-07-25T07:40:26Z</time>
      </trkpt>
      <trkpt lat="43.0963230" lon="-7.8805430">
        <ele>498.0</ele>
        <time>2021-07-25T07:40:27Z</time>
      </trkpt>
      <trkpt lat="43.0963360" lon="-7.8805700">
        <ele>498.8</ele>
        <time>2021-07-25T07:40:28Z</time>
      </trkpt>
      <trkpt lat="43.0963510" lon="-7.8805920">
        <ele>499.2</ele>
        <time>2021-07-25T07:40:29Z</time>
      </trkpt>
      <trkpt lat="43.0963780" lon="-7.8806470">
        <ele>499.2</ele>
        <time>2021-07-25T07:40:31Z</time>
      </trkpt>
      <trkpt lat="43.0964600" lon="-7.8808430">
        <ele>499.2</ele>
        <time>2021-07-25T07:40:37Z</time>
      </trkpt>
      <trkpt lat="43.0964980" lon="-7.8811370">
        <ele>499.2</ele>
        <time>2021-07-25T07:40:44Z</time>
      </trkpt>
      <trkpt lat="43.0965420" lon="-7.8814020">
        <ele>499.6</ele>
        <time>2021-07-25T07:40:51Z</time>
      </trkpt>
      <trkpt lat="43.0965470" lon="-7.8814390">
        <ele>500.0</ele>
        <time>2021-07-25T07:40:52Z</time>
      </trkpt>
      <trkpt lat="43.0965570" lon="-7.8814740">
        <ele>500.4</ele>
        <time>2021-07-25T07:40:53Z</time>
      </trkpt>
      <trkpt lat="43.0965640" lon="-7.8815110">
        <ele>501.0</ele>
        <time>2021-07-25T07:40:54Z</time>
      </trkpt>
      <trkpt lat="43.0965730" lon="-7.8815480">
        <ele>501.4</ele>
        <time>2021-07-25T07:40:55Z</time>
      </trkpt>
      <trkpt lat="43.0966250" lon="-7.8817550">
        <ele>501.4</ele>
        <time>2021-07-25T07:41:01Z</time>
      </trkpt>
      <trkpt lat="43.0966590" lon="-7.8819500">
        <ele>501.8</ele>
        <time>2021-07-25T07:41:08Z</time>
      </trkpt>
      <trkpt lat="43.0966610" lon="-7.8819770">
        <ele>502.2</ele>
        <time>2021-07-25T07:41:09Z</time>
      </trkpt>
      <trkpt lat="43.0966610" lon="-7.8820040">
        <ele>502.6</ele>
        <time>2021-07-25T07:41:10Z</time>
      </trkpt>
      <trkpt lat="43.0966600" lon="-7.8820310">
        <ele>503.0</ele>
        <time>2021-07-25T07:41:11Z</time>
      </trkpt>
      <trkpt lat="43.0966590" lon="-7.8820590">
        <ele>503.6</ele>
        <time>2021-07-25T07:41:12Z</time>
      </trkpt>
      <trkpt lat="43.0966560" lon="-7.8821870">
        <ele>503.6</ele>
        <time>2021-07-25T07:41:16Z</time>
      </trkpt>
      <trkpt lat="43.0966500" lon="-7.8823150">
        <ele>503.6</ele>
        <time>2021-07-25T07:41:20Z</time>
      </trkpt>
      <trkpt lat="43.0966520" lon="-7.8823760">
        <ele>503.6</ele>
        <time>2021-07-25T07:41:22Z</time>
      </trkpt>
      <trkpt lat="43.0966440" lon="-7.8825190">
        <ele>503.6</ele>
        <time>2021-07-25T07:41:26Z</time>
      </trkpt>
      <trkpt lat="43.0966220" lon="-7.8825810">
        <ele>503.6</ele>
        <time>2021-07-25T07:41:28Z</time>
      </trkpt>
      <trkpt lat="43.0965040" lon="-7.8827430">
        <ele>503.6</ele>
        <time>2021-07-25T07:41:34Z</time>
      </trkpt>
      <trkpt lat="43.0964810" lon="-7.8827700">
        <ele>503.6</ele>
        <time>2021-07-25T07:41:35Z</time>
      </trkpt>
      <trkpt lat="43.0964020" lon="-7.8828620">
        <ele>503.6</ele>
        <time>2021-07-25T07:41:38Z</time>
      </trkpt>
      <trkpt lat="43.0962650" lon="-7.8830010">
        <ele>503.6</ele>
        <time>2021-07-25T07:41:42Z</time>
      </trkpt>
      <trkpt lat="43.0961360" lon="-7.8831180">
        <ele>503.6</ele>
        <time>2021-07-25T07:41:45Z</time>
      </trkpt>
      <trkpt lat="43.0960090" lon="-7.8832390">
        <ele>503.2</ele>
        <time>2021-07-25T07:41:48Z</time>
      </trkpt>
      <trkpt lat="43.0959670" lon="-7.8832850">
        <ele>502.8</ele>
        <time>2021-07-25T07:41:49Z</time>
      </trkpt>
      <trkpt lat="43.0959250" lon="-7.8833320">
        <ele>502.4</ele>
        <time>2021-07-25T07:41:50Z</time>
      </trkpt>
      <trkpt lat="43.0958800" lon="-7.8833780">
        <ele>502.0</ele>
        <time>2021-07-25T07:41:51Z</time>
      </trkpt>
      <trkpt lat="43.0958360" lon="-7.8834230">
        <ele>501.6</ele>
        <time>2021-07-25T07:41:52Z</time>
      </trkpt>
      <trkpt lat="43.0957480" lon="-7.8835120">
        <ele>501.6</ele>
        <time>2021-07-25T07:41:54Z</time>
      </trkpt>
      <trkpt lat="43.0957010" lon="-7.8835530">
        <ele>501.6</ele>
        <time>2021-07-25T07:41:55Z</time>
      </trkpt>
      <trkpt lat="43.0955140" lon="-7.8837030">
        <ele>501.6</ele>
        <time>2021-07-25T07:42:00Z</time>
      </trkpt>
      <trkpt lat="43.0953170" lon="-7.8837990">
        <ele>501.6</ele>
        <time>2021-07-25T07:42:07Z</time>
      </trkpt>
      <trkpt lat="43.0951880" lon="-7.8838320">
        <ele>501.2</ele>
        <time>2021-07-25T07:42:11Z</time>
      </trkpt>
      <trkpt lat="43.0951510" lon="-7.8838420">
        <ele>500.8</ele>
        <time>2021-07-25T07:42:12Z</time>
      </trkpt>
      <trkpt lat="43.0951140" lon="-7.8838550">
        <ele>500.2</ele>
        <time>2021-07-25T07:42:13Z</time>
      </trkpt>
      <trkpt lat="43.0950770" lon="-7.8838700">
        <ele>499.8</ele>
        <time>2021-07-25T07:42:14Z</time>
      </trkpt>
      <trkpt lat="43.0950380" lon="-7.8838810">
        <ele>499.4</ele>
        <time>2021-07-25T07:42:15Z</time>
      </trkpt>
      <trkpt lat="43.0949580" lon="-7.8839050">
        <ele>499.4</ele>
        <time>2021-07-25T07:42:17Z</time>
      </trkpt>
      <trkpt lat="43.0948240" lon="-7.8839340">
        <ele>499.4</ele>
        <time>2021-07-25T07:42:20Z</time>
      </trkpt>
      <trkpt lat="43.0945050" lon="-7.8839920">
        <ele>499.4</ele>
        <time>2021-07-25T07:42:27Z</time>
      </trkpt>
      <trkpt lat="43.0944130" lon="-7.8839960">
        <ele>499.0</ele>
        <time>2021-07-25T07:42:29Z</time>
      </trkpt>
      <trkpt lat="43.0943650" lon="-7.8839930">
        <ele>498.2</ele>
        <time>2021-07-25T07:42:30Z</time>
      </trkpt>
      <trkpt lat="43.0943170" lon="-7.8839850">
        <ele>497.8</ele>
        <time>2021-07-25T07:42:31Z</time>
      </trkpt>
      <trkpt lat="43.0942690" lon="-7.8839760">
        <ele>497.4</ele>
        <time>2021-07-25T07:42:32Z</time>
      </trkpt>
      <trkpt lat="43.0942210" lon="-7.8839630">
        <ele>497.4</ele>
        <time>2021-07-25T07:42:33Z</time>
      </trkpt>
      <trkpt lat="43.0940230" lon="-7.8838570">
        <ele>497.4</ele>
        <time>2021-07-25T07:42:37Z</time>
      </trkpt>
      <trkpt lat="43.0939370" lon="-7.8837960">
        <ele>497.4</ele>
        <time>2021-07-25T07:42:39Z</time>
      </trkpt>
      <trkpt lat="43.0937400" lon="-7.8836760">
        <ele>497.4</ele>
        <time>2021-07-25T07:42:44Z</time>
      </trkpt>
      <trkpt lat="43.0937070" lon="-7.8836560">
        <ele>497.4</ele>
        <time>2021-07-25T07:42:45Z</time>
      </trkpt>
      <trkpt lat="43.0936220" lon="-7.8836070">
        <ele>497.0</ele>
        <time>2021-07-25T07:42:48Z</time>
      </trkpt>
      <trkpt lat="43.0935950" lon="-7.8835870">
        <ele>496.6</ele>
        <time>2021-07-25T07:42:49Z</time>
      </trkpt>
      <trkpt lat="43.0935650" lon="-7.8835690">
        <ele>496.2</ele>
        <time>2021-07-25T07:42:50Z</time>
      </trkpt>
      <trkpt lat="43.0935390" lon="-7.8835530">
        <ele>495.8</ele>
        <time>2021-07-25T07:42:51Z</time>
      </trkpt>
      <trkpt lat="43.0935160" lon="-7.8835420">
        <ele>495.4</ele>
        <time>2021-07-25T07:42:52Z</time>
      </trkpt>
      <trkpt lat="43.0934650" lon="-7.8835160">
        <ele>495.4</ele>
        <time>2021-07-25T07:42:54Z</time>
      </trkpt>
      <trkpt lat="43.0933310" lon="-7.8834460">
        <ele>495.4</ele>
        <time>2021-07-25T07:42:58Z</time>
      </trkpt>
      <trkpt lat="43.0930980" lon="-7.8833540">
        <ele>495.4</ele>
        <time>2021-07-25T07:43:03Z</time>
      </trkpt>
      <trkpt lat="43.0928230" lon="-7.8833240">
        <ele>495.4</ele>
        <time>2021-07-25T07:43:09Z</time>
      </trkpt>
      <trkpt lat="43.0927460" lon="-7.8833320">
        <ele>495.4</ele>
        <time>2021-07-25T07:43:11Z</time>
      </trkpt>
      <trkpt lat="43.0926770" lon="-7.8833420">
        <ele>495.4</ele>
        <time>2021-07-25T07:43:13Z</time>
      </trkpt>
      <trkpt lat="43.0926160" lon="-7.8833600">
        <ele>495.4</ele>
        <time>2021-07-25T07:43:15Z</time>
      </trkpt>
      <trkpt lat="43.0925870" lon="-7.8833700">
        <ele>495.4</ele>
        <time>2021-07-25T07:43:16Z</time>
      </trkpt>
      <trkpt lat="43.0924810" lon="-7.8834140">
        <ele>495.4</ele>
        <time>2021-07-25T07:43:20Z</time>
      </trkpt>
      <trkpt lat="43.0924570" lon="-7.8834240">
        <ele>495.4</ele>
        <time>2021-07-25T07:43:21Z</time>
      </trkpt>
      <trkpt lat="43.0923840" lon="-7.8834520">
        <ele>495.4</ele>
        <time>2021-07-25T07:43:24Z</time>
      </trkpt>
      <trkpt lat="43.0923050" lon="-7.8834750">
        <ele>495.4</ele>
        <time>2021-07-25T07:43:27Z</time>
      </trkpt>
      <trkpt lat="43.0922810" lon="-7.8834850">
        <ele>495.4</ele>
        <time>2021-07-25T07:43:28Z</time>
      </trkpt>
      <trkpt lat="43.0922320" lon="-7.8834990">
        <ele>495.4</ele>
        <time>2021-07-25T07:43:30Z</time>
      </trkpt>
      <trkpt lat="43.0920650" lon="-7.8835520">
        <ele>495.4</ele>
        <time>2021-07-25T07:43:37Z</time>
      </trkpt>
      <trkpt lat="43.0920020" lon="-7.8835640">
        <ele>495.8</ele>
        <time>2021-07-25T07:43:40Z</time>
      </trkpt>
      <trkpt lat="43.0919820" lon="-7.8835610">
        <ele>496.2</ele>
        <time>2021-07-25T07:43:41Z</time>
      </trkpt>
      <trkpt lat="43.0919610" lon="-7.8835610">
        <ele>496.8</ele>
        <time>2021-07-25T07:43:42Z</time>
      </trkpt>
      <trkpt lat="43.0919440" lon="-7.8835610">
        <ele>497.2</ele>
        <time>2021-07-25T07:43:43Z</time>
      </trkpt>
      <trkpt lat="43.0919240" lon="-7.8835580">
        <ele>497.6</ele>
        <time>2021-07-25T07:43:44Z</time>
      </trkpt>
      <trkpt lat="43.0918450" lon="-7.8835530">
        <ele>497.6</ele>
        <time>2021-07-25T07:43:49Z</time>
      </trkpt>
      <trkpt lat="43.0918270" lon="-7.8835490">
        <ele>497.6</ele>
        <time>2021-07-25T07:43:50Z</time>
      </trkpt>
      <trkpt lat="43.0917910" lon="-7.8835310">
        <ele>498.0</ele>
        <time>2021-07-25T07:43:52Z</time>
      </trkpt>
      <trkpt lat="43.0917720" lon="-7.8835220">
        <ele>498.4</ele>
        <time>2021-07-25T07:43:53Z</time>
      </trkpt>
      <trkpt lat="43.0917470" lon="-7.8835130">
        <ele>498.8</ele>
        <time>2021-07-25T07:43:54Z</time>
      </trkpt>
      <trkpt lat="43.0917220" lon="-7.8835060">
        <ele>499.2</ele>
        <time>2021-07-25T07:43:55Z</time>
      </trkpt>
      <trkpt lat="43.0917010" lon="-7.8834950">
        <ele>499.6</ele>
        <time>2021-07-25T07:43:56Z</time>
      </trkpt>
      <trkpt lat="43.0916620" lon="-7.8834770">
        <ele>499.6</ele>
        <time>2021-07-25T07:43:58Z</time>
      </trkpt>
      <trkpt lat="43.0915400" lon="-7.8834250">
        <ele>500.0</ele>
        <time>2021-07-25T07:44:05Z</time>
      </trkpt>
      <trkpt lat="43.0915250" lon="-7.8834210">
        <ele>500.4</ele>
        <time>2021-07-25T07:44:06Z</time>
      </trkpt>
      <trkpt lat="43.0915110" lon="-7.8834180">
        <ele>500.8</ele>
        <time>2021-07-25T07:44:07Z</time>
      </trkpt>
      <trkpt lat="43.0914960" lon="-7.8834150">
        <ele>501.2</ele>
        <time>2021-07-25T07:44:08Z</time>
      </trkpt>
      <trkpt lat="43.0914810" lon="-7.8834100">
        <ele>501.6</ele>
        <time>2021-07-25T07:44:09Z</time>
      </trkpt>
      <trkpt lat="43.0914260" lon="-7.8833590">
        <ele>501.6</ele>
        <time>2021-07-25T07:44:13Z</time>
      </trkpt>
      <trkpt lat="43.0914060" lon="-7.8833440">
        <ele>501.6</ele>
        <time>2021-07-25T07:44:14Z</time>
      </trkpt>
      <trkpt lat="43.0912520" lon="-7.8832240">
        <ele>502.0</ele>
        <time>2021-07-25T07:44:20Z</time>
      </trkpt>
      <trkpt lat="43.0912260" lon="-7.8831930">
        <ele>502.4</ele>
        <time>2021-07-25T07:44:21Z</time>
      </trkpt>
      <trkpt lat="43.0912050" lon="-7.8831640">
        <ele>503.0</ele>
        <time>2021-07-25T07:44:22Z</time>
      </trkpt>
      <trkpt lat="43.0911880" lon="-7.8831350">
        <ele>503.4</ele>
        <time>2021-07-25T07:44:23Z</time>
      </trkpt>
      <trkpt lat="43.0911750" lon="-7.8831110">
        <ele>503.8</ele>
        <time>2021-07-25T07:44:24Z</time>
      </trkpt>
      <trkpt lat="43.0911050" lon="-7.8830070">
        <ele>503.8</ele>
        <time>2021-07-25T07:44:29Z</time>
      </trkpt>
      <trkpt lat="43.0909800" lon="-7.8828460">
        <ele>503.8</ele>
        <time>2021-07-25T07:44:37Z</time>
      </trkpt>
      <trkpt lat="43.0909000" lon="-7.8827240">
        <ele>503.8</ele>
        <time>2021-07-25T07:44:42Z</time>
      </trkpt>
      <trkpt lat="43.0907650" lon="-7.8826100">
        <ele>503.8</ele>
        <time>2021-07-25T07:44:46Z</time>
      </trkpt>
      <trkpt lat="43.0907330" lon="-7.8825830">
        <ele>503.8</ele>
        <time>2021-07-25T07:44:47Z</time>
      </trkpt>
      <trkpt lat="43.0906560" lon="-7.8825040">
        <ele>503.8</ele>
        <time>2021-07-25T07:44:50Z</time>
      </trkpt>
      <trkpt lat="43.0906180" lon="-7.8824660">
        <ele>503.8</ele>
        <time>2021-07-25T07:44:52Z</time>
      </trkpt>
      <trkpt lat="43.0906020" lon="-7.8824470">
        <ele>503.8</ele>
        <time>2021-07-25T07:44:53Z</time>
      </trkpt>
      <trkpt lat="43.0905710" lon="-7.8824070">
        <ele>503.8</ele>
        <time>2021-07-25T07:44:55Z</time>
      </trkpt>
      <trkpt lat="43.0905510" lon="-7.8823870">
        <ele>503.8</ele>
        <time>2021-07-25T07:44:56Z</time>
      </trkpt>
      <trkpt lat="43.0904800" lon="-7.8823070">
        <ele>503.8</ele>
        <time>2021-07-25T07:44:59Z</time>
      </trkpt>
      <trkpt lat="43.0903920" lon="-7.8822180">
        <ele>503.8</ele>
        <time>2021-07-25T07:45:02Z</time>
      </trkpt>
      <trkpt lat="43.0901380" lon="-7.8819870">
        <ele>503.8</ele>
        <time>2021-07-25T07:45:08Z</time>
      </trkpt>
      <trkpt lat="43.0898440" lon="-7.8817140">
        <ele>503.8</ele>
        <time>2021-07-25T07:45:13Z</time>
      </trkpt>
      <trkpt lat="43.0897180" lon="-7.8816100">
        <ele>503.8</ele>
        <time>2021-07-25T07:45:15Z</time>
      </trkpt>
      <trkpt lat="43.0896560" lon="-7.8815640">
        <ele>503.4</ele>
        <time>2021-07-25T07:45:16Z</time>
      </trkpt>
      <trkpt lat="43.0895920" lon="-7.8815200">
        <ele>503.0</ele>
        <time>2021-07-25T07:45:17Z</time>
      </trkpt>
      <trkpt lat="43.0895280" lon="-7.8814730">
        <ele>502.4</ele>
        <time>2021-07-25T07:45:18Z</time>
      </trkpt>
      <trkpt lat="43.0894610" lon="-7.8814220">
        <ele>502.0</ele>
        <time>2021-07-25T07:45:19Z</time>
      </trkpt>
      <trkpt lat="43.0893970" lon="-7.8813750">
        <ele>501.6</ele>
        <time>2021-07-25T07:45:20Z</time>
      </trkpt>
      <trkpt lat="43.0893320" lon="-7.8813340">
        <ele>501.6</ele>
        <time>2021-07-25T07:45:21Z</time>
      </trkpt>
      <trkpt lat="43.0891360" lon="-7.8812430">
        <ele>501.6</ele>
        <time>2021-07-25T07:45:24Z</time>
      </trkpt>
      <trkpt lat="43.0890050" lon="-7.8812030">
        <ele>501.6</ele>
        <time>2021-07-25T07:45:26Z</time>
      </trkpt>
      <trkpt lat="43.0889360" lon="-7.8811880">
        <ele>501.2</ele>
        <time>2021-07-25T07:45:27Z</time>
      </trkpt>
      <trkpt lat="43.0888730" lon="-7.8811730">
        <ele>500.8</ele>
        <time>2021-07-25T07:45:28Z</time>
      </trkpt>
      <trkpt lat="43.0888100" lon="-7.8811620">
        <ele>500.4</ele>
        <time>2021-07-25T07:45:29Z</time>
      </trkpt>
      <trkpt lat="43.0887480" lon="-7.8811510">
        <ele>500.0</ele>
        <time>2021-07-25T07:45:30Z</time>
      </trkpt>
      <trkpt lat="43.0886900" lon="-7.8811350">
        <ele>499.6</ele>
        <time>2021-07-25T07:45:31Z</time>
      </trkpt>
      <trkpt lat="43.0885750" lon="-7.8811040">
        <ele>499.6</ele>
        <time>2021-07-25T07:45:33Z</time>
      </trkpt>
      <trkpt lat="43.0883050" lon="-7.8810360">
        <ele>499.6</ele>
        <time>2021-07-25T07:45:38Z</time>
      </trkpt>
      <trkpt lat="43.0882050" lon="-7.8810190">
        <ele>499.6</ele>
        <time>2021-07-25T07:45:40Z</time>
      </trkpt>
      <trkpt lat="43.0881630" lon="-7.8810110">
        <ele>499.2</ele>
        <time>2021-07-25T07:45:41Z</time>
      </trkpt>
      <trkpt lat="43.0881230" lon="-7.8809980">
        <ele>498.8</ele>
        <time>2021-07-25T07:45:42Z</time>
      </trkpt>
      <trkpt lat="43.0880910" lon="-7.8809850">
        <ele>498.4</ele>
        <time>2021-07-25T07:45:43Z</time>
      </trkpt>
      <trkpt lat="43.0880600" lon="-7.8809790">
        <ele>498.0</ele>
        <time>2021-07-25T07:45:44Z</time>
      </trkpt>
      <trkpt lat="43.0880340" lon="-7.8809710">
        <ele>497.6</ele>
        <time>2021-07-25T07:45:45Z</time>
      </trkpt>
      <trkpt lat="43.0879640" lon="-7.8809590">
        <ele>497.6</ele>
        <time>2021-07-25T07:45:48Z</time>
      </trkpt>
      <trkpt lat="43.0879270" lon="-7.8809570">
        <ele>497.6</ele>
        <time>2021-07-25T07:45:50Z</time>
      </trkpt>
      <trkpt lat="43.0879090" lon="-7.8809560">
        <ele>497.6</ele>
        <time>2021-07-25T07:45:51Z</time>
      </trkpt>
      <trkpt lat="43.0878930" lon="-7.8809570">
        <ele>497.6</ele>
        <time>2021-07-25T07:45:52Z</time>
      </trkpt>
      <trkpt lat="43.0878610" lon="-7.8809610">
        <ele>497.6</ele>
        <time>2021-07-25T07:45:54Z</time>
      </trkpt>
      <trkpt lat="43.0878110" lon="-7.8809660">
        <ele>497.6</ele>
        <time>2021-07-25T07:45:57Z</time>
      </trkpt>
      <trkpt lat="43.0877610" lon="-7.8809880">
        <ele>498.0</ele>
        <time>2021-07-25T07:46:00Z</time>
      </trkpt>
      <trkpt lat="43.0877450" lon="-7.8809940">
        <ele>498.4</ele>
        <time>2021-07-25T07:46:01Z</time>
      </trkpt>
      <trkpt lat="43.0877300" lon="-7.8809970">
        <ele>498.8</ele>
        <time>2021-07-25T07:46:02Z</time>
      </trkpt>
      <trkpt lat="43.0877150" lon="-7.8810000">
        <ele>499.2</ele>
        <time>2021-07-25T07:46:03Z</time>
      </trkpt>
      <trkpt lat="43.0876980" lon="-7.8810000">
        <ele>499.6</ele>
        <time>2021-07-25T07:46:04Z</time>
      </trkpt>
      <trkpt lat="43.0876520" lon="-7.8810210">
        <ele>499.6</ele>
        <time>2021-07-25T07:46:07Z</time>
      </trkpt>
      <trkpt lat="43.0876360" lon="-7.8810250">
        <ele>499.6</ele>
        <time>2021-07-25T07:46:08Z</time>
      </trkpt>
      <trkpt lat="43.0875910" lon="-7.8810350">
        <ele>500.0</ele>
        <time>2021-07-25T07:46:11Z</time>
      </trkpt>
      <trkpt lat="43.0875740" lon="-7.8810370">
        <ele>500.4</ele>
        <time>2021-07-25T07:46:12Z</time>
      </trkpt>
      <trkpt lat="43.0875590" lon="-7.8810430">
        <ele>501.2</ele>
        <time>2021-07-25T07:46:13Z</time>
      </trkpt>
      <trkpt lat="43.0875430" lon="-7.8810490">
        <ele>501.6</ele>
        <time>2021-07-25T07:46:14Z</time>
      </trkpt>
      <trkpt lat="43.0874730" lon="-7.8810820">
        <ele>501.6</ele>
        <time>2021-07-25T07:46:19Z</time>
      </trkpt>
      <trkpt lat="43.0874280" lon="-7.8810960">
        <ele>502.0</ele>
        <time>2021-07-25T07:46:22Z</time>
      </trkpt>
      <trkpt lat="43.0874140" lon="-7.8811000">
        <ele>502.4</ele>
        <time>2021-07-25T07:46:23Z</time>
      </trkpt>
      <trkpt lat="43.0874040" lon="-7.8811080">
        <ele>502.8</ele>
        <time>2021-07-25T07:46:24Z</time>
      </trkpt>
      <trkpt lat="43.0873940" lon="-7.8811180">
        <ele>503.2</ele>
        <time>2021-07-25T07:46:25Z</time>
      </trkpt>
      <trkpt lat="43.0873820" lon="-7.8811280">
        <ele>503.6</ele>
        <time>2021-07-25T07:46:26Z</time>
      </trkpt>
      <trkpt lat="43.0873210" lon="-7.8811440">
        <ele>503.6</ele>
        <time>2021-07-25T07:46:30Z</time>
      </trkpt>
      <trkpt lat="43.0872520" lon="-7.8811790">
        <ele>504.0</ele>
        <time>2021-07-25T07:46:35Z</time>
      </trkpt>
      <trkpt lat="43.0872360" lon="-7.8811830">
        <ele>504.4</ele>
        <time>2021-07-25T07:46:36Z</time>
      </trkpt>
      <trkpt lat="43.0872210" lon="-7.8811830">
        <ele>505.4</ele>
        <time>2021-07-25T07:46:37Z</time>
      </trkpt>
      <trkpt lat="43.0872080" lon="-7.8811870">
        <ele>505.8</ele>
        <time>2021-07-25T07:46:38Z</time>
      </trkpt>
      <trkpt lat="43.0871950" lon="-7.8811860">
        <ele>505.8</ele>
        <time>2021-07-25T07:46:39Z</time>
      </trkpt>
      <trkpt lat="43.0870700" lon="-7.8811740">
        <ele>505.8</ele>
        <time>2021-07-25T07:46:49Z</time>
      </trkpt>
      <trkpt lat="43.0870470" lon="-7.8811610">
        <ele>506.2</ele>
        <time>2021-07-25T07:46:51Z</time>
      </trkpt>
      <trkpt lat="43.0870360" lon="-7.8811520">
        <ele>506.6</ele>
        <time>2021-07-25T07:46:52Z</time>
      </trkpt>
      <trkpt lat="43.0870250" lon="-7.8811430">
        <ele>507.0</ele>
        <time>2021-07-25T07:46:53Z</time>
      </trkpt>
      <trkpt lat="43.0870140" lon="-7.8811380">
        <ele>507.4</ele>
        <time>2021-07-25T07:46:54Z</time>
      </trkpt>
      <trkpt lat="43.0870020" lon="-7.8811290">
        <ele>507.8</ele>
        <time>2021-07-25T07:46:55Z</time>
      </trkpt>
      <trkpt lat="43.0869620" lon="-7.8811060">
        <ele>507.8</ele>
        <time>2021-07-25T07:46:58Z</time>
      </trkpt>
      <trkpt lat="43.0868670" lon="-7.8810380">
        <ele>507.8</ele>
        <time>2021-07-25T07:47:05Z</time>
      </trkpt>
      <trkpt lat="43.0868320" lon="-7.8810270">
        <ele>508.2</ele>
        <time>2021-07-25T07:47:07Z</time>
      </trkpt>
      <trkpt lat="43.0868170" lon="-7.8810210">
        <ele>508.6</ele>
        <time>2021-07-25T07:47:08Z</time>
      </trkpt>
      <trkpt lat="43.0868000" lon="-7.8810130">
        <ele>509.0</ele>
        <time>2021-07-25T07:47:09Z</time>
      </trkpt>
      <trkpt lat="43.0867800" lon="-7.8810070">
        <ele>509.4</ele>
        <time>2021-07-25T07:47:10Z</time>
      </trkpt>
      <trkpt lat="43.0867620" lon="-7.8810000">
        <ele>509.8</ele>
        <time>2021-07-25T07:47:11Z</time>
      </trkpt>
      <trkpt lat="43.0867450" lon="-7.8809880">
        <ele>509.8</ele>
        <time>2021-07-25T07:47:12Z</time>
      </trkpt>
      <trkpt lat="43.0866500" lon="-7.8809220">
        <ele>509.8</ele>
        <time>2021-07-25T07:47:19Z</time>
      </trkpt>
      <trkpt lat="43.0865870" lon="-7.8808750">
        <ele>509.8</ele>
        <time>2021-07-25T07:47:23Z</time>
      </trkpt>
      <trkpt lat="43.0865320" lon="-7.8808390">
        <ele>509.8</ele>
        <time>2021-07-25T07:47:27Z</time>
      </trkpt>
      <trkpt lat="43.0865180" lon="-7.8808310">
        <ele>510.8</ele>
        <time>2021-07-25T07:47:28Z</time>
      </trkpt>
      <trkpt lat="43.0865050" lon="-7.8808200">
        <ele>511.2</ele>
        <time>2021-07-25T07:47:29Z</time>
      </trkpt>
      <trkpt lat="43.0864890" lon="-7.8808120">
        <ele>511.6</ele>
        <time>2021-07-25T07:47:30Z</time>
      </trkpt>
      <trkpt lat="43.0864700" lon="-7.8808120">
        <ele>512.0</ele>
        <time>2021-07-25T07:47:31Z</time>
      </trkpt>
      <trkpt lat="43.0864160" lon="-7.8807870">
        <ele>512.0</ele>
        <time>2021-07-25T07:47:34Z</time>
      </trkpt>
      <trkpt lat="43.0862640" lon="-7.8807090">
        <ele>512.0</ele>
        <time>2021-07-25T07:47:42Z</time>
      </trkpt>
      <trkpt lat="43.0861000" lon="-7.8806420">
        <ele>512.4</ele>
        <time>2021-07-25T07:47:49Z</time>
      </trkpt>
      <trkpt lat="43.0860740" lon="-7.8806330">
        <ele>512.8</ele>
        <time>2021-07-25T07:47:50Z</time>
      </trkpt>
      <trkpt lat="43.0860470" lon="-7.8806240">
        <ele>513.2</ele>
        <time>2021-07-25T07:47:51Z</time>
      </trkpt>
      <trkpt lat="43.0860220" lon="-7.8806100">
        <ele>514.0</ele>
        <time>2021-07-25T07:47:52Z</time>
      </trkpt>
      <trkpt lat="43.0859080" lon="-7.8805490">
        <ele>514.0</ele>
        <time>2021-07-25T07:47:57Z</time>
      </trkpt>
      <trkpt lat="43.0857270" lon="-7.8804560">
        <ele>514.0</ele>
        <time>2021-07-25T07:48:05Z</time>
      </trkpt>
      <trkpt lat="43.0855700" lon="-7.8803590">
        <ele>514.0</ele>
        <time>2021-07-25T07:48:12Z</time>
      </trkpt>
      <trkpt lat="43.0854660" lon="-7.8803040">
        <ele>514.0</ele>
        <time>2021-07-25T07:48:17Z</time>
      </trkpt>
      <trkpt lat="43.0853960" lon="-7.8802620">
        <ele>514.4</ele>
        <time>2021-07-25T07:48:20Z</time>
      </trkpt>
      <trkpt lat="43.0853720" lon="-7.8802510">
        <ele>514.8</ele>
        <time>2021-07-25T07:48:21Z</time>
      </trkpt>
      <trkpt lat="43.0853490" lon="-7.8802410">
        <ele>515.2</ele>
        <time>2021-07-25T07:48:22Z</time>
      </trkpt>
      <trkpt lat="43.0853240" lon="-7.8802300">
        <ele>515.6</ele>
        <time>2021-07-25T07:48:23Z</time>
      </trkpt>
      <trkpt lat="43.0853030" lon="-7.8802210">
        <ele>516.0</ele>
        <time>2021-07-25T07:48:24Z</time>
      </trkpt>
      <trkpt lat="43.0852210" lon="-7.8801900">
        <ele>516.0</ele>
        <time>2021-07-25T07:48:28Z</time>
      </trkpt>
      <trkpt lat="43.0850650" lon="-7.8801570">
        <ele>516.0</ele>
        <time>2021-07-25T07:48:35Z</time>
      </trkpt>
      <trkpt lat="43.0850470" lon="-7.8801530">
        <ele>516.4</ele>
        <time>2021-07-25T07:48:36Z</time>
      </trkpt>
      <trkpt lat="43.0850280" lon="-7.8801520">
        <ele>516.8</ele>
        <time>2021-07-25T07:48:37Z</time>
      </trkpt>
      <trkpt lat="43.0850080" lon="-7.8801480">
        <ele>517.2</ele>
        <time>2021-07-25T07:48:38Z</time>
      </trkpt>
      <trkpt lat="43.0849880" lon="-7.8801440">
        <ele>517.6</ele>
        <time>2021-07-25T07:48:39Z</time>
      </trkpt>
      <trkpt lat="43.0849700" lon="-7.8801360">
        <ele>518.2</ele>
        <time>2021-07-25T07:48:40Z</time>
      </trkpt>
      <trkpt lat="43.0849100" lon="-7.8801210">
        <ele>518.2</ele>
        <time>2021-07-25T07:48:43Z</time>
      </trkpt>
      <trkpt lat="43.0848060" lon="-7.8800810">
        <ele>518.6</ele>
        <time>2021-07-25T07:48:49Z</time>
      </trkpt>
      <trkpt lat="43.0847870" lon="-7.8800760">
        <ele>519.0</ele>
        <time>2021-07-25T07:48:50Z</time>
      </trkpt>
      <trkpt lat="43.0847650" lon="-7.8800700">
        <ele>519.4</ele>
        <time>2021-07-25T07:48:51Z</time>
      </trkpt>
      <trkpt lat="43.0847430" lon="-7.8800630">
        <ele>519.8</ele>
        <time>2021-07-25T07:48:52Z</time>
      </trkpt>
      <trkpt lat="43.0847220" lon="-7.8800590">
        <ele>520.2</ele>
        <time>2021-07-25T07:48:53Z</time>
      </trkpt>
      <trkpt lat="43.0846460" lon="-7.8800300">
        <ele>520.2</ele>
        <time>2021-07-25T07:48:57Z</time>
      </trkpt>
      <trkpt lat="43.0845320" lon="-7.8800050">
        <ele>520.6</ele>
        <time>2021-07-25T07:49:03Z</time>
      </trkpt>
      <trkpt lat="43.0845140" lon="-7.8799960">
        <ele>521.0</ele>
        <time>2021-07-25T07:49:04Z</time>
      </trkpt>
      <trkpt lat="43.0844940" lon="-7.8799880">
        <ele>521.4</ele>
        <time>2021-07-25T07:49:05Z</time>
      </trkpt>
      <trkpt lat="43.0844750" lon="-7.8799840">
        <ele>522.2</ele>
        <time>2021-07-25T07:49:06Z</time>
      </trkpt>
      <trkpt lat="43.0843420" lon="-7.8799480">
        <ele>522.2</ele>
        <time>2021-07-25T07:49:13Z</time>
      </trkpt>
      <trkpt lat="43.0842570" lon="-7.8799090">
        <ele>522.6</ele>
        <time>2021-07-25T07:49:17Z</time>
      </trkpt>
      <trkpt lat="43.0842380" lon="-7.8799040">
        <ele>523.0</ele>
        <time>2021-07-25T07:49:18Z</time>
      </trkpt>
      <trkpt lat="43.0842190" lon="-7.8798950">
        <ele>523.4</ele>
        <time>2021-07-25T07:49:19Z</time>
      </trkpt>
      <trkpt lat="43.0842010" lon="-7.8798860">
        <ele>523.8</ele>
        <time>2021-07-25T07:49:20Z</time>
      </trkpt>
      <trkpt lat="43.0841810" lon="-7.8798760">
        <ele>524.2</ele>
        <time>2021-07-25T07:49:21Z</time>
      </trkpt>
      <trkpt lat="43.0841630" lon="-7.8798670">
        <ele>524.2</ele>
        <time>2021-07-25T07:49:22Z</time>
      </trkpt>
      <trkpt lat="43.0839710" lon="-7.8797580">
        <ele>524.2</ele>
        <time>2021-07-25T07:49:32Z</time>
      </trkpt>
      <trkpt lat="43.0839200" lon="-7.8797200">
        <ele>524.6</ele>
        <time>2021-07-25T07:49:35Z</time>
      </trkpt>
      <trkpt lat="43.0839020" lon="-7.8797080">
        <ele>525.0</ele>
        <time>2021-07-25T07:49:36Z</time>
      </trkpt>
      <trkpt lat="43.0838830" lon="-7.8796940">
        <ele>525.6</ele>
        <time>2021-07-25T07:49:37Z</time>
      </trkpt>
      <trkpt lat="43.0838640" lon="-7.8796790">
        <ele>526.0</ele>
        <time>2021-07-25T07:49:38Z</time>
      </trkpt>
      <trkpt lat="43.0838460" lon="-7.8796700">
        <ele>526.4</ele>
        <time>2021-07-25T07:49:39Z</time>
      </trkpt>
      <trkpt lat="43.0838130" lon="-7.8796520">
        <ele>526.4</ele>
        <time>2021-07-25T07:49:41Z</time>
      </trkpt>
      <trkpt lat="43.0836530" lon="-7.8795400">
        <ele>526.4</ele>
        <time>2021-07-25T07:49:50Z</time>
      </trkpt>
      <trkpt lat="43.0836380" lon="-7.8795240">
        <ele>526.4</ele>
        <time>2021-07-25T07:49:51Z</time>
      </trkpt>
      <trkpt lat="43.0835640" lon="-7.8794690">
        <ele>527.2</ele>
        <time>2021-07-25T07:49:55Z</time>
      </trkpt>
      <trkpt lat="43.0835430" lon="-7.8794570">
        <ele>527.6</ele>
        <time>2021-07-25T07:49:56Z</time>
      </trkpt>
      <trkpt lat="43.0835240" lon="-7.8794450">
        <ele>528.0</ele>
        <time>2021-07-25T07:49:57Z</time>
      </trkpt>
      <trkpt lat="43.0835070" lon="-7.8794360">
        <ele>528.4</ele>
        <time>2021-07-25T07:49:58Z</time>
      </trkpt>
      <trkpt lat="43.0834760" lon="-7.8794080">
        <ele>528.4</ele>
        <time>2021-07-25T07:50:00Z</time>
      </trkpt>
      <trkpt lat="43.0833130" lon="-7.8792920">
        <ele>528.4</ele>
        <time>2021-07-25T07:50:09Z</time>
      </trkpt>
      <trkpt lat="43.0831690" lon="-7.8791990">
        <ele>528.4</ele>
        <time>2021-07-25T07:50:17Z</time>
      </trkpt>
      <trkpt lat="43.0831520" lon="-7.8791860">
        <ele>529.0</ele>
        <time>2021-07-25T07:50:18Z</time>
      </trkpt>
      <trkpt lat="43.0831340" lon="-7.8791720">
        <ele>529.4</ele>
        <time>2021-07-25T07:50:19Z</time>
      </trkpt>
      <trkpt lat="43.0831180" lon="-7.8791620">
        <ele>530.2</ele>
        <time>2021-07-25T07:50:20Z</time>
      </trkpt>
      <trkpt lat="43.0831010" lon="-7.8791510">
        <ele>530.6</ele>
        <time>2021-07-25T07:50:21Z</time>
      </trkpt>
      <trkpt lat="43.0830140" lon="-7.8790850">
        <ele>530.6</ele>
        <time>2021-07-25T07:50:26Z</time>
      </trkpt>
      <trkpt lat="43.0828590" lon="-7.8789850">
        <ele>530.6</ele>
        <time>2021-07-25T07:50:35Z</time>
      </trkpt>
      <trkpt lat="43.0827710" lon="-7.8789190">
        <ele>531.0</ele>
        <time>2021-07-25T07:50:40Z</time>
      </trkpt>
      <trkpt lat="43.0827540" lon="-7.8789060">
        <ele>531.4</ele>
        <time>2021-07-25T07:50:41Z</time>
      </trkpt>
      <trkpt lat="43.0827360" lon="-7.8788970">
        <ele>531.8</ele>
        <time>2021-07-25T07:50:42Z</time>
      </trkpt>
      <trkpt lat="43.0827200" lon="-7.8788850">
        <ele>532.2</ele>
        <time>2021-07-25T07:50:43Z</time>
      </trkpt>
      <trkpt lat="43.0827020" lon="-7.8788720">
        <ele>532.6</ele>
        <time>2021-07-25T07:50:44Z</time>
      </trkpt>
      <trkpt lat="43.0825590" lon="-7.8787710">
        <ele>532.6</ele>
        <time>2021-07-25T07:50:52Z</time>
      </trkpt>
      <trkpt lat="43.0824010" lon="-7.8786940">
        <ele>533.0</ele>
        <time>2021-07-25T07:51:01Z</time>
      </trkpt>
      <trkpt lat="43.0823820" lon="-7.8786860">
        <ele>533.4</ele>
        <time>2021-07-25T07:51:02Z</time>
      </trkpt>
      <trkpt lat="43.0823640" lon="-7.8786790">
        <ele>533.8</ele>
        <time>2021-07-25T07:51:03Z</time>
      </trkpt>
      <trkpt lat="43.0823460" lon="-7.8786750">
        <ele>534.2</ele>
        <time>2021-07-25T07:51:04Z</time>
      </trkpt>
      <trkpt lat="43.0823290" lon="-7.8786690">
        <ele>534.6</ele>
        <time>2021-07-25T07:51:05Z</time>
      </trkpt>
      <trkpt lat="43.0821950" lon="-7.8786500">
        <ele>534.6</ele>
        <time>2021-07-25T07:51:12Z</time>
      </trkpt>
      <trkpt lat="43.0820470" lon="-7.8786220">
        <ele>534.6</ele>
        <time>2021-07-25T07:51:20Z</time>
      </trkpt>
      <trkpt lat="43.0820120" lon="-7.8786140">
        <ele>535.0</ele>
        <time>2021-07-25T07:51:22Z</time>
      </trkpt>
      <trkpt lat="43.0819960" lon="-7.8786090">
        <ele>535.4</ele>
        <time>2021-07-25T07:51:23Z</time>
      </trkpt>
      <trkpt lat="43.0819790" lon="-7.8786080">
        <ele>535.8</ele>
        <time>2021-07-25T07:51:24Z</time>
      </trkpt>
      <trkpt lat="43.0819620" lon="-7.8786040">
        <ele>536.2</ele>
        <time>2021-07-25T07:51:25Z</time>
      </trkpt>
      <trkpt lat="43.0819410" lon="-7.8786020">
        <ele>536.6</ele>
        <time>2021-07-25T07:51:26Z</time>
      </trkpt>
      <trkpt lat="43.0819040" lon="-7.8785950">
        <ele>536.6</ele>
        <time>2021-07-25T07:51:28Z</time>
      </trkpt>
      <trkpt lat="43.0816880" lon="-7.8785570">
        <ele>537.0</ele>
        <time>2021-07-25T07:51:39Z</time>
      </trkpt>
      <trkpt lat="43.0816700" lon="-7.8785520">
        <ele>537.4</ele>
        <time>2021-07-25T07:51:40Z</time>
      </trkpt>
      <trkpt lat="43.0816510" lon="-7.8785480">
        <ele>537.8</ele>
        <time>2021-07-25T07:51:41Z</time>
      </trkpt>
      <trkpt lat="43.0816310" lon="-7.8785490">
        <ele>538.2</ele>
        <time>2021-07-25T07:51:42Z</time>
      </trkpt>
      <trkpt lat="43.0816130" lon="-7.8785480">
        <ele>538.6</ele>
        <time>2021-07-25T07:51:43Z</time>
      </trkpt>
      <trkpt lat="43.0815250" lon="-7.8785310">
        <ele>538.6</ele>
        <time>2021-07-25T07:51:48Z</time>
      </trkpt>
      <trkpt lat="43.0814130" lon="-7.8785220">
        <ele>538.6</ele>
        <time>2021-07-25T07:51:54Z</time>
      </trkpt>
      <trkpt lat="43.0813800" lon="-7.8785200">
        <ele>539.2</ele>
        <time>2021-07-25T07:51:56Z</time>
      </trkpt>
      <trkpt lat="43.0813600" lon="-7.8785170">
        <ele>539.6</ele>
        <time>2021-07-25T07:51:57Z</time>
      </trkpt>
      <trkpt lat="43.0813420" lon="-7.8785160">
        <ele>540.0</ele>
        <time>2021-07-25T07:51:58Z</time>
      </trkpt>
      <trkpt lat="43.0813230" lon="-7.8785160">
        <ele>540.6</ele>
        <time>2021-07-25T07:51:59Z</time>
      </trkpt>
      <trkpt lat="43.0813060" lon="-7.8785140">
        <ele>541.0</ele>
        <time>2021-07-25T07:52:00Z</time>
      </trkpt>
      <trkpt lat="43.0812300" lon="-7.8785020">
        <ele>541.0</ele>
        <time>2021-07-25T07:52:04Z</time>
      </trkpt>
      <trkpt lat="43.0810580" lon="-7.8784860">
        <ele>541.0</ele>
        <time>2021-07-25T07:52:13Z</time>
      </trkpt>
      <trkpt lat="43.0810060" lon="-7.8784770">
        <ele>541.4</ele>
        <time>2021-07-25T07:52:16Z</time>
      </trkpt>
      <trkpt lat="43.0809870" lon="-7.8784750">
        <ele>541.8</ele>
        <time>2021-07-25T07:52:17Z</time>
      </trkpt>
      <trkpt lat="43.0809680" lon="-7.8784710">
        <ele>542.2</ele>
        <time>2021-07-25T07:52:18Z</time>
      </trkpt>
      <trkpt lat="43.0809490" lon="-7.8784660">
        <ele>542.6</ele>
        <time>2021-07-25T07:52:19Z</time>
      </trkpt>
      <trkpt lat="43.0809290" lon="-7.8784620">
        <ele>543.0</ele>
        <time>2021-07-25T07:52:20Z</time>
      </trkpt>
      <trkpt lat="43.0808700" lon="-7.8784440">
        <ele>543.0</ele>
        <time>2021-07-25T07:52:23Z</time>
      </trkpt>
      <trkpt lat="43.0807070" lon="-7.8783880">
        <ele>543.0</ele>
        <time>2021-07-25T07:52:31Z</time>
      </trkpt>
      <trkpt lat="43.0805880" lon="-7.8782680">
        <ele>543.0</ele>
        <time>2021-07-25T07:52:38Z</time>
      </trkpt>
      <trkpt lat="43.0804840" lon="-7.8781800">
        <ele>543.0</ele>
        <time>2021-07-25T07:52:43Z</time>
      </trkpt>
      <trkpt lat="43.0804680" lon="-7.8781600">
        <ele>543.4</ele>
        <time>2021-07-25T07:52:44Z</time>
      </trkpt>
      <trkpt lat="43.0804520" lon="-7.8781400">
        <ele>543.8</ele>
        <time>2021-07-25T07:52:45Z</time>
      </trkpt>
      <trkpt lat="43.0804360" lon="-7.8781200">
        <ele>544.2</ele>
        <time>2021-07-25T07:52:46Z</time>
      </trkpt>
      <trkpt lat="43.0804190" lon="-7.8781020">
        <ele>544.6</ele>
        <time>2021-07-25T07:52:47Z</time>
      </trkpt>
      <trkpt lat="43.0803980" lon="-7.8780890">
        <ele>545.0</ele>
        <time>2021-07-25T07:52:48Z</time>
      </trkpt>
      <trkpt lat="43.0803620" lon="-7.8780700">
        <ele>545.0</ele>
        <time>2021-07-25T07:52:50Z</time>
      </trkpt>
      <trkpt lat="43.0803350" lon="-7.8780780">
        <ele>545.0</ele>
        <time>2021-07-25T07:52:52Z</time>
      </trkpt>
      <trkpt lat="43.0803350" lon="-7.8780910">
        <ele>545.0</ele>
        <time>2021-07-25T07:52:54Z</time>
      </trkpt>
      <trkpt lat="43.0803130" lon="-7.8780680">
        <ele>545.0</ele>
        <time>2021-07-25T07:53:35Z</time>
      </trkpt>
      <trkpt lat="43.0803000" lon="-7.8780540">
        <ele>545.0</ele>
        <time>2021-07-25T07:53:36Z</time>
      </trkpt>
      <trkpt lat="43.0802880" lon="-7.8780410">
        <ele>545.0</ele>
        <time>2021-07-25T07:53:37Z</time>
      </trkpt>
      <trkpt lat="43.0802750" lon="-7.8780310">
        <ele>545.0</ele>
        <time>2021-07-25T07:53:38Z</time>
      </trkpt>
      <trkpt lat="43.0802630" lon="-7.8780240">
        <ele>545.0</ele>
        <time>2021-07-25T07:53:39Z</time>
      </trkpt>
      <trkpt lat="43.0802520" lon="-7.8780230">
        <ele>545.0</ele>
        <time>2021-07-25T07:53:40Z</time>
      </trkpt>
      <trkpt lat="43.0802420" lon="-7.8780220">
        <ele>545.0</ele>
        <time>2021-07-25T07:53:41Z</time>
      </trkpt>
      <trkpt lat="43.0802300" lon="-7.8780320">
        <ele>545.0</ele>
        <time>2021-07-25T07:53:42Z</time>
      </trkpt>
      <trkpt lat="43.0802180" lon="-7.8780590">
        <ele>545.0</ele>
        <time>2021-07-25T07:53:44Z</time>
      </trkpt>
      <trkpt lat="43.0802190" lon="-7.8780620">
        <ele>545.0</ele>
        <time>2021-07-25T07:53:45Z</time>
      </trkpt>
      <trkpt lat="43.0801470" lon="-7.8782190">
        <ele>545.0</ele>
        <time>2021-07-25T07:55:53Z</time>
      </trkpt>
      <trkpt lat="43.0801200" lon="-7.8782680">
        <ele>545.0</ele>
        <time>2021-07-25T07:55:55Z</time>
      </trkpt>
      <trkpt lat="43.0800420" lon="-7.8784200">
        <ele>545.0</ele>
        <time>2021-07-25T07:56:00Z</time>
      </trkpt>
      <trkpt lat="43.0800040" lon="-7.8784920">
        <ele>545.0</ele>
        <time>2021-07-25T07:56:02Z</time>
      </trkpt>
      <trkpt lat="43.0799660" lon="-7.8785630">
        <ele>545.0</ele>
        <time>2021-07-25T07:56:04Z</time>
      </trkpt>
      <trkpt lat="43.0798540" lon="-7.8788010">
        <ele>545.0</ele>
        <time>2021-07-25T07:56:10Z</time>
      </trkpt>
      <trkpt lat="43.0796990" lon="-7.8791320">
        <ele>545.0</ele>
        <time>2021-07-25T07:56:18Z</time>
      </trkpt>
      <trkpt lat="43.0795500" lon="-7.8794440">
        <ele>545.0</ele>
        <time>2021-07-25T07:56:25Z</time>
      </trkpt>
      <trkpt lat="43.0794140" lon="-7.8797060">
        <ele>545.0</ele>
        <time>2021-07-25T07:56:31Z</time>
      </trkpt>
      <trkpt lat="43.0793910" lon="-7.8797460">
        <ele>545.0</ele>
        <time>2021-07-25T07:56:32Z</time>
      </trkpt>
      <trkpt lat="43.0792390" lon="-7.8799970">
        <ele>545.0</ele>
        <time>2021-07-25T07:56:38Z</time>
      </trkpt>
      <trkpt lat="43.0791850" lon="-7.8800810">
        <ele>545.0</ele>
        <time>2021-07-25T07:56:40Z</time>
      </trkpt>
      <trkpt lat="43.0791550" lon="-7.8801200">
        <ele>545.0</ele>
        <time>2021-07-25T07:56:41Z</time>
      </trkpt>
      <trkpt lat="43.0790990" lon="-7.8802000">
        <ele>545.0</ele>
        <time>2021-07-25T07:56:43Z</time>
      </trkpt>
      <trkpt lat="43.0790220" lon="-7.8803210">
        <ele>545.0</ele>
        <time>2021-07-25T07:56:46Z</time>
      </trkpt>
      <trkpt lat="43.0789110" lon="-7.8804810">
        <ele>545.0</ele>
        <time>2021-07-25T07:56:50Z</time>
      </trkpt>
      <trkpt lat="43.0786800" lon="-7.8808130">
        <ele>545.0</ele>
        <time>2021-07-25T07:56:58Z</time>
      </trkpt>
      <trkpt lat="43.0784520" lon="-7.8811600">
        <ele>545.0</ele>
        <time>2021-07-25T07:57:07Z</time>
      </trkpt>
      <trkpt lat="43.0782640" lon="-7.8814360">
        <ele>545.0</ele>
        <time>2021-07-25T07:57:15Z</time>
      </trkpt>
      <trkpt lat="43.0780660" lon="-7.8817300">
        <ele>545.0</ele>
        <time>2021-07-25T07:57:23Z</time>
      </trkpt>
      <trkpt lat="43.0779780" lon="-7.8818510">
        <ele>545.0</ele>
        <time>2021-07-25T07:57:26Z</time>
      </trkpt>
      <trkpt lat="43.0779160" lon="-7.8819280">
        <ele>545.0</ele>
        <time>2021-07-25T07:57:28Z</time>
      </trkpt>
      <trkpt lat="43.0778280" lon="-7.8820320">
        <ele>545.0</ele>
        <time>2021-07-25T07:57:31Z</time>
      </trkpt>
      <trkpt lat="43.0777760" lon="-7.8820990">
        <ele>545.0</ele>
        <time>2021-07-25T07:57:33Z</time>
      </trkpt>
      <trkpt lat="43.0776410" lon="-7.8822270">
        <ele>545.0</ele>
        <time>2021-07-25T07:57:38Z</time>
      </trkpt>
      <trkpt lat="43.0774870" lon="-7.8823680">
        <ele>545.0</ele>
        <time>2021-07-25T07:57:44Z</time>
      </trkpt>
      <trkpt lat="43.0773890" lon="-7.8824820">
        <ele>545.0</ele>
        <time>2021-07-25T07:57:48Z</time>
      </trkpt>
      <trkpt lat="43.0773360" lon="-7.8825380">
        <ele>545.0</ele>
        <time>2021-07-25T07:57:50Z</time>
      </trkpt>
      <trkpt lat="43.0773100" lon="-7.8825680">
        <ele>545.0</ele>
        <time>2021-07-25T07:57:51Z</time>
      </trkpt>
      <trkpt lat="43.0772560" lon="-7.8826260">
        <ele>545.0</ele>
        <time>2021-07-25T07:57:53Z</time>
      </trkpt>
      <trkpt lat="43.0771420" lon="-7.8827310">
        <ele>545.0</ele>
        <time>2021-07-25T07:57:57Z</time>
      </trkpt>
      <trkpt lat="43.0770330" lon="-7.8828330">
        <ele>545.0</ele>
        <time>2021-07-25T07:58:01Z</time>
      </trkpt>
      <trkpt lat="43.0769850" lon="-7.8828940">
        <ele>545.0</ele>
        <time>2021-07-25T07:58:03Z</time>
      </trkpt>
      <trkpt lat="43.0768770" lon="-7.8830050">
        <ele>545.0</ele>
        <time>2021-07-25T07:58:07Z</time>
      </trkpt>
      <trkpt lat="43.0768240" lon="-7.8830490">
        <ele>545.8</ele>
        <time>2021-07-25T07:58:09Z</time>
      </trkpt>
      <trkpt lat="43.0767910" lon="-7.8830710">
        <ele>546.2</ele>
        <time>2021-07-25T07:58:10Z</time>
      </trkpt>
      <trkpt lat="43.0767580" lon="-7.8830960">
        <ele>546.6</ele>
        <time>2021-07-25T07:58:11Z</time>
      </trkpt>
      <trkpt lat="43.0767320" lon="-7.8831170">
        <ele>547.2</ele>
        <time>2021-07-25T07:58:12Z</time>
      </trkpt>
      <trkpt lat="43.0765910" lon="-7.8832480">
        <ele>547.2</ele>
        <time>2021-07-25T07:58:17Z</time>
      </trkpt>
      <trkpt lat="43.0764680" lon="-7.8834190">
        <ele>547.2</ele>
        <time>2021-07-25T07:58:24Z</time>
      </trkpt>
      <trkpt lat="43.0764530" lon="-7.8834480">
        <ele>547.6</ele>
        <time>2021-07-25T07:58:25Z</time>
      </trkpt>
      <trkpt lat="43.0764430" lon="-7.8834750">
        <ele>548.0</ele>
        <time>2021-07-25T07:58:26Z</time>
      </trkpt>
      <trkpt lat="43.0764310" lon="-7.8835030">
        <ele>548.4</ele>
        <time>2021-07-25T07:58:27Z</time>
      </trkpt>
      <trkpt lat="43.0764220" lon="-7.8835350">
        <ele>548.8</ele>
        <time>2021-07-25T07:58:28Z</time>
      </trkpt>
      <trkpt lat="43.0764100" lon="-7.8835620">
        <ele>549.2</ele>
        <time>2021-07-25T07:58:29Z</time>
      </trkpt>
      <trkpt lat="43.0763980" lon="-7.8836220">
        <ele>549.2</ele>
        <time>2021-07-25T07:58:31Z</time>
      </trkpt>
      <trkpt lat="43.0763740" lon="-7.8837790">
        <ele>549.2</ele>
        <time>2021-07-25T07:58:37Z</time>
      </trkpt>
      <trkpt lat="43.0763540" lon="-7.8838690">
        <ele>549.6</ele>
        <time>2021-07-25T07:58:41Z</time>
      </trkpt>
      <trkpt lat="43.0763470" lon="-7.8838930">
        <ele>550.0</ele>
        <time>2021-07-25T07:58:42Z</time>
      </trkpt>
      <trkpt lat="43.0763390" lon="-7.8839130">
        <ele>550.4</ele>
        <time>2021-07-25T07:58:43Z</time>
      </trkpt>
      <trkpt lat="43.0763360" lon="-7.8839380">
        <ele>550.8</ele>
        <time>2021-07-25T07:58:44Z</time>
      </trkpt>
      <trkpt lat="43.0763290" lon="-7.8839650">
        <ele>551.2</ele>
        <time>2021-07-25T07:58:45Z</time>
      </trkpt>
      <trkpt lat="43.0763120" lon="-7.8840880">
        <ele>551.2</ele>
        <time>2021-07-25T07:58:50Z</time>
      </trkpt>
      <trkpt lat="43.0762610" lon="-7.8841830">
        <ele>551.2</ele>
        <time>2021-07-25T07:58:55Z</time>
      </trkpt>
      <trkpt lat="43.0762490" lon="-7.8842060">
        <ele>551.6</ele>
        <time>2021-07-25T07:58:56Z</time>
      </trkpt>
      <trkpt lat="43.0762390" lon="-7.8842300">
        <ele>552.0</ele>
        <time>2021-07-25T07:58:57Z</time>
      </trkpt>
      <trkpt lat="43.0762320" lon="-7.8842550">
        <ele>552.8</ele>
        <time>2021-07-25T07:58:58Z</time>
      </trkpt>
      <trkpt lat="43.0762230" lon="-7.8842810">
        <ele>553.2</ele>
        <time>2021-07-25T07:58:59Z</time>
      </trkpt>
      <trkpt lat="43.0762070" lon="-7.8843280">
        <ele>553.2</ele>
        <time>2021-07-25T07:59:01Z</time>
      </trkpt>
      <trkpt lat="43.0761250" lon="-7.8844740">
        <ele>553.2</ele>
        <time>2021-07-25T07:59:07Z</time>
      </trkpt>
      <trkpt lat="43.0760280" lon="-7.8846610">
        <ele>553.6</ele>
        <time>2021-07-25T07:59:14Z</time>
      </trkpt>
      <trkpt lat="43.0760090" lon="-7.8846850">
        <ele>554.0</ele>
        <time>2021-07-25T07:59:15Z</time>
      </trkpt>
      <trkpt lat="43.0759900" lon="-7.8847100">
        <ele>554.6</ele>
        <time>2021-07-25T07:59:16Z</time>
      </trkpt>
      <trkpt lat="43.0759720" lon="-7.8847360">
        <ele>555.0</ele>
        <time>2021-07-25T07:59:17Z</time>
      </trkpt>
      <trkpt lat="43.0759560" lon="-7.8847590">
        <ele>555.4</ele>
        <time>2021-07-25T07:59:18Z</time>
      </trkpt>
      <trkpt lat="43.0758810" lon="-7.8848850">
        <ele>555.4</ele>
        <time>2021-07-25T07:59:23Z</time>
      </trkpt>
      <trkpt lat="43.0757450" lon="-7.8850860">
        <ele>555.4</ele>
        <time>2021-07-25T07:59:31Z</time>
      </trkpt>
      <trkpt lat="43.0756540" lon="-7.8852200">
        <ele>555.4</ele>
        <time>2021-07-25T07:59:37Z</time>
      </trkpt>
      <trkpt lat="43.0756410" lon="-7.8852410">
        <ele>555.8</ele>
        <time>2021-07-25T07:59:38Z</time>
      </trkpt>
      <trkpt lat="43.0756230" lon="-7.8852570">
        <ele>556.2</ele>
        <time>2021-07-25T07:59:39Z</time>
      </trkpt>
      <trkpt lat="43.0756050" lon="-7.8852750">
        <ele>556.6</ele>
        <time>2021-07-25T07:59:40Z</time>
      </trkpt>
      <trkpt lat="43.0755840" lon="-7.8852900">
        <ele>557.0</ele>
        <time>2021-07-25T07:59:41Z</time>
      </trkpt>
      <trkpt lat="43.0755640" lon="-7.8853100">
        <ele>557.4</ele>
        <time>2021-07-25T07:59:42Z</time>
      </trkpt>
      <trkpt lat="43.0755240" lon="-7.8853460">
        <ele>557.4</ele>
        <time>2021-07-25T07:59:44Z</time>
      </trkpt>
      <trkpt lat="43.0753480" lon="-7.8854050">
        <ele>557.4</ele>
        <time>2021-07-25T07:59:51Z</time>
      </trkpt>
      <trkpt lat="43.0751820" lon="-7.8854840">
        <ele>557.4</ele>
        <time>2021-07-25T07:59:59Z</time>
      </trkpt>
      <trkpt lat="43.0751430" lon="-7.8855170">
        <ele>557.8</ele>
        <time>2021-07-25T08:00:01Z</time>
      </trkpt>
      <trkpt lat="43.0751270" lon="-7.8855360">
        <ele>558.2</ele>
        <time>2021-07-25T08:00:02Z</time>
      </trkpt>
      <trkpt lat="43.0751080" lon="-7.8855530">
        <ele>558.6</ele>
        <time>2021-07-25T08:00:03Z</time>
      </trkpt>
      <trkpt lat="43.0750940" lon="-7.8855750">
        <ele>559.0</ele>
        <time>2021-07-25T08:00:04Z</time>
      </trkpt>
      <trkpt lat="43.0750730" lon="-7.8855980">
        <ele>559.6</ele>
        <time>2021-07-25T08:00:05Z</time>
      </trkpt>
      <trkpt lat="43.0750530" lon="-7.8856250">
        <ele>559.6</ele>
        <time>2021-07-25T08:00:06Z</time>
      </trkpt>
      <trkpt lat="43.0749350" lon="-7.8857870">
        <ele>559.6</ele>
        <time>2021-07-25T08:00:12Z</time>
      </trkpt>
      <trkpt lat="43.0748040" lon="-7.8859740">
        <ele>559.6</ele>
        <time>2021-07-25T08:00:19Z</time>
      </trkpt>
      <trkpt lat="43.0747310" lon="-7.8860920">
        <ele>559.6</ele>
        <time>2021-07-25T08:00:23Z</time>
      </trkpt>
      <trkpt lat="43.0746930" lon="-7.8861670">
        <ele>559.6</ele>
        <time>2021-07-25T08:00:26Z</time>
      </trkpt>
      <trkpt lat="43.0745800" lon="-7.8864070">
        <ele>559.6</ele>
        <time>2021-07-25T08:00:33Z</time>
      </trkpt>
      <trkpt lat="43.0744680" lon="-7.8866160">
        <ele>560.0</ele>
        <time>2021-07-25T08:00:39Z</time>
      </trkpt>
      <trkpt lat="43.0744480" lon="-7.8866510">
        <ele>560.4</ele>
        <time>2021-07-25T08:00:40Z</time>
      </trkpt>
      <trkpt lat="43.0744290" lon="-7.8866900">
        <ele>560.8</ele>
        <time>2021-07-25T08:00:41Z</time>
      </trkpt>
      <trkpt lat="43.0744080" lon="-7.8867230">
        <ele>561.2</ele>
        <time>2021-07-25T08:00:42Z</time>
      </trkpt>
      <trkpt lat="43.0743860" lon="-7.8867610">
        <ele>561.6</ele>
        <time>2021-07-25T08:00:43Z</time>
      </trkpt>
      <trkpt lat="43.0742480" lon="-7.8870260">
        <ele>561.6</ele>
        <time>2021-07-25T08:00:50Z</time>
      </trkpt>
      <trkpt lat="43.0740950" lon="-7.8873240">
        <ele>561.6</ele>
        <time>2021-07-25T08:00:58Z</time>
      </trkpt>
      <trkpt lat="43.0739950" lon="-7.8875110">
        <ele>562.0</ele>
        <time>2021-07-25T08:01:03Z</time>
      </trkpt>
      <trkpt lat="43.0739780" lon="-7.8875460">
        <ele>562.4</ele>
        <time>2021-07-25T08:01:04Z</time>
      </trkpt>
      <trkpt lat="43.0739590" lon="-7.8875790">
        <ele>562.8</ele>
        <time>2021-07-25T08:01:05Z</time>
      </trkpt>
      <trkpt lat="43.0739410" lon="-7.8876170">
        <ele>563.2</ele>
        <time>2021-07-25T08:01:06Z</time>
      </trkpt>
      <trkpt lat="43.0739220" lon="-7.8876570">
        <ele>563.6</ele>
        <time>2021-07-25T08:01:07Z</time>
      </trkpt>
      <trkpt lat="43.0738090" lon="-7.8879180">
        <ele>563.6</ele>
        <time>2021-07-25T08:01:14Z</time>
      </trkpt>
      <trkpt lat="43.0736670" lon="-7.8882780">
        <ele>563.6</ele>
        <time>2021-07-25T08:01:23Z</time>
      </trkpt>
      <trkpt lat="43.0735290" lon="-7.8886370">
        <ele>563.6</ele>
        <time>2021-07-25T08:01:31Z</time>
      </trkpt>
      <trkpt lat="43.0734140" lon="-7.8889190">
        <ele>563.6</ele>
        <time>2021-07-25T08:01:37Z</time>
      </trkpt>
      <trkpt lat="43.0733960" lon="-7.8889610">
        <ele>563.6</ele>
        <time>2021-07-25T08:01:38Z</time>
      </trkpt>
      <trkpt lat="43.0733350" lon="-7.8890930">
        <ele>563.6</ele>
        <time>2021-07-25T08:01:41Z</time>
      </trkpt>
      <trkpt lat="43.0732620" lon="-7.8893040">
        <ele>563.6</ele>
        <time>2021-07-25T08:01:45Z</time>
      </trkpt>
      <trkpt lat="43.0732040" lon="-7.8894900">
        <ele>563.6</ele>
        <time>2021-07-25T08:01:49Z</time>
      </trkpt>
      <trkpt lat="43.0731780" lon="-7.8895780">
        <ele>563.6</ele>
        <time>2021-07-25T08:01:51Z</time>
      </trkpt>
      <trkpt lat="43.0731540" lon="-7.8897290">
        <ele>563.6</ele>
        <time>2021-07-25T08:01:54Z</time>
      </trkpt>
      <trkpt lat="43.0731060" lon="-7.8900620">
        <ele>563.6</ele>
        <time>2021-07-25T08:02:00Z</time>
      </trkpt>
      <trkpt lat="43.0730770" lon="-7.8902120">
        <ele>563.6</ele>
        <time>2021-07-25T08:02:03Z</time>
      </trkpt>
      <trkpt lat="43.0730530" lon="-7.8904110">
        <ele>563.6</ele>
        <time>2021-07-25T08:02:07Z</time>
      </trkpt>
      <trkpt lat="43.0730410" lon="-7.8905080">
        <ele>563.6</ele>
        <time>2021-07-25T08:02:09Z</time>
      </trkpt>
      <trkpt lat="43.0730180" lon="-7.8906600">
        <ele>563.6</ele>
        <time>2021-07-25T08:02:12Z</time>
      </trkpt>
      <trkpt lat="43.0730030" lon="-7.8907780">
        <ele>563.6</ele>
        <time>2021-07-25T08:02:14Z</time>
      </trkpt>
      <trkpt lat="43.0729840" lon="-7.8908910">
        <ele>563.6</ele>
        <time>2021-07-25T08:02:16Z</time>
      </trkpt>
      <trkpt lat="43.0729730" lon="-7.8910050">
        <ele>563.6</ele>
        <time>2021-07-25T08:02:18Z</time>
      </trkpt>
      <trkpt lat="43.0729360" lon="-7.8913120">
        <ele>563.6</ele>
        <time>2021-07-25T08:02:23Z</time>
      </trkpt>
      <trkpt lat="43.0729150" lon="-7.8914320">
        <ele>563.6</ele>
        <time>2021-07-25T08:02:25Z</time>
      </trkpt>
      <trkpt lat="43.0728860" lon="-7.8916870">
        <ele>563.6</ele>
        <time>2021-07-25T08:02:30Z</time>
      </trkpt>
      <trkpt lat="43.0728740" lon="-7.8917770">
        <ele>563.6</ele>
        <time>2021-07-25T08:02:32Z</time>
      </trkpt>
      <trkpt lat="43.0728350" lon="-7.8921340">
        <ele>563.6</ele>
        <time>2021-07-25T08:02:39Z</time>
      </trkpt>
      <trkpt lat="43.0728580" lon="-7.8925070">
        <ele>563.6</ele>
        <time>2021-07-25T08:02:46Z</time>
      </trkpt>
      <trkpt lat="43.0728660" lon="-7.8925690">
        <ele>563.6</ele>
        <time>2021-07-25T08:02:47Z</time>
      </trkpt>
      <trkpt lat="43.0728890" lon="-7.8926950">
        <ele>563.6</ele>
        <time>2021-07-25T08:02:49Z</time>
      </trkpt>
      <trkpt lat="43.0729530" lon="-7.8928930">
        <ele>563.6</ele>
        <time>2021-07-25T08:02:52Z</time>
      </trkpt>
      <trkpt lat="43.0730340" lon="-7.8931030">
        <ele>563.6</ele>
        <time>2021-07-25T08:02:55Z</time>
      </trkpt>
      <trkpt lat="43.0730640" lon="-7.8931800">
        <ele>563.2</ele>
        <time>2021-07-25T08:02:56Z</time>
      </trkpt>
      <trkpt lat="43.0730950" lon="-7.8932610">
        <ele>562.8</ele>
        <time>2021-07-25T08:02:57Z</time>
      </trkpt>
      <trkpt lat="43.0731280" lon="-7.8933440">
        <ele>562.4</ele>
        <time>2021-07-25T08:02:58Z</time>
      </trkpt>
      <trkpt lat="43.0731610" lon="-7.8934260">
        <ele>562.0</ele>
        <time>2021-07-25T08:02:59Z</time>
      </trkpt>
      <trkpt lat="43.0731980" lon="-7.8935110">
        <ele>561.6</ele>
        <time>2021-07-25T08:03:00Z</time>
      </trkpt>
      <trkpt lat="43.0732620" lon="-7.8936720">
        <ele>561.2</ele>
        <time>2021-07-25T08:03:02Z</time>
      </trkpt>
      <trkpt lat="43.0732960" lon="-7.8937490">
        <ele>560.8</ele>
        <time>2021-07-25T08:03:03Z</time>
      </trkpt>
      <trkpt lat="43.0733210" lon="-7.8938280">
        <ele>560.2</ele>
        <time>2021-07-25T08:03:04Z</time>
      </trkpt>
      <trkpt lat="43.0733460" lon="-7.8939050">
        <ele>559.8</ele>
        <time>2021-07-25T08:03:05Z</time>
      </trkpt>
      <trkpt lat="43.0733700" lon="-7.8939850">
        <ele>559.2</ele>
        <time>2021-07-25T08:03:06Z</time>
      </trkpt>
      <trkpt lat="43.0733870" lon="-7.8940530">
        <ele>558.8</ele>
        <time>2021-07-25T08:03:07Z</time>
      </trkpt>
      <trkpt lat="43.0734040" lon="-7.8941210">
        <ele>558.2</ele>
        <time>2021-07-25T08:03:08Z</time>
      </trkpt>
      <trkpt lat="43.0734220" lon="-7.8941880">
        <ele>557.8</ele>
        <time>2021-07-25T08:03:09Z</time>
      </trkpt>
      <trkpt lat="43.0734380" lon="-7.8942550">
        <ele>557.2</ele>
        <time>2021-07-25T08:03:10Z</time>
      </trkpt>
      <trkpt lat="43.0734550" lon="-7.8943260">
        <ele>556.8</ele>
        <time>2021-07-25T08:03:11Z</time>
      </trkpt>
      <trkpt lat="43.0734720" lon="-7.8943940">
        <ele>556.2</ele>
        <time>2021-07-25T08:03:12Z</time>
      </trkpt>
      <trkpt lat="43.0734850" lon="-7.8944560">
        <ele>555.6</ele>
        <time>2021-07-25T08:03:13Z</time>
      </trkpt>
      <trkpt lat="43.0734980" lon="-7.8945110">
        <ele>555.0</ele>
        <time>2021-07-25T08:03:14Z</time>
      </trkpt>
      <trkpt lat="43.0735110" lon="-7.8945670">
        <ele>554.6</ele>
        <time>2021-07-25T08:03:15Z</time>
      </trkpt>
      <trkpt lat="43.0735240" lon="-7.8946180">
        <ele>554.0</ele>
        <time>2021-07-25T08:03:16Z</time>
      </trkpt>
      <trkpt lat="43.0735380" lon="-7.8946700">
        <ele>553.6</ele>
        <time>2021-07-25T08:03:17Z</time>
      </trkpt>
      <trkpt lat="43.0735580" lon="-7.8947240">
        <ele>553.0</ele>
        <time>2021-07-25T08:03:18Z</time>
      </trkpt>
      <trkpt lat="43.0735720" lon="-7.8947800">
        <ele>552.4</ele>
        <time>2021-07-25T08:03:19Z</time>
      </trkpt>
      <trkpt lat="43.0735950" lon="-7.8948620">
        <ele>552.0</ele>
        <time>2021-07-25T08:03:21Z</time>
      </trkpt>
      <trkpt lat="43.0736030" lon="-7.8948930">
        <ele>551.6</ele>
        <time>2021-07-25T08:03:22Z</time>
      </trkpt>
      <trkpt lat="43.0736100" lon="-7.8949140">
        <ele>551.0</ele>
        <time>2021-07-25T08:03:23Z</time>
      </trkpt>
      <trkpt lat="43.0736170" lon="-7.8949420">
        <ele>550.6</ele>
        <time>2021-07-25T08:03:24Z</time>
      </trkpt>
      <trkpt lat="43.0736250" lon="-7.8949690">
        <ele>550.2</ele>
        <time>2021-07-25T08:03:25Z</time>
      </trkpt>
      <trkpt lat="43.0736430" lon="-7.8950350">
        <ele>550.2</ele>
        <time>2021-07-25T08:03:28Z</time>
      </trkpt>
      <trkpt lat="43.0736490" lon="-7.8950590">
        <ele>549.8</ele>
        <time>2021-07-25T08:03:29Z</time>
      </trkpt>
      <trkpt lat="43.0736540" lon="-7.8950920">
        <ele>548.8</ele>
        <time>2021-07-25T08:03:30Z</time>
      </trkpt>
      <trkpt lat="43.0736640" lon="-7.8951290">
        <ele>548.4</ele>
        <time>2021-07-25T08:03:31Z</time>
      </trkpt>
      <trkpt lat="43.0736720" lon="-7.8951720">
        <ele>548.0</ele>
        <time>2021-07-25T08:03:32Z</time>
      </trkpt>
      <trkpt lat="43.0736830" lon="-7.8952190">
        <ele>548.0</ele>
        <time>2021-07-25T08:03:33Z</time>
      </trkpt>
      <trkpt lat="43.0737070" lon="-7.8953370">
        <ele>548.0</ele>
        <time>2021-07-25T08:03:35Z</time>
      </trkpt>
      <trkpt lat="43.0737300" lon="-7.8953970">
        <ele>548.0</ele>
        <time>2021-07-25T08:03:36Z</time>
      </trkpt>
      <trkpt lat="43.0737520" lon="-7.8954740">
        <ele>548.0</ele>
        <time>2021-07-25T08:03:37Z</time>
      </trkpt>
      <trkpt lat="43.0738090" lon="-7.8956440">
        <ele>547.6</ele>
        <time>2021-07-25T08:03:40Z</time>
      </trkpt>
      <trkpt lat="43.0738260" lon="-7.8956880">
        <ele>547.2</ele>
        <time>2021-07-25T08:03:41Z</time>
      </trkpt>
      <trkpt lat="43.0738430" lon="-7.8957380">
        <ele>546.8</ele>
        <time>2021-07-25T08:03:42Z</time>
      </trkpt>
      <trkpt lat="43.0738630" lon="-7.8958020">
        <ele>546.4</ele>
        <time>2021-07-25T08:03:43Z</time>
      </trkpt>
      <trkpt lat="43.0738790" lon="-7.8958600">
        <ele>546.0</ele>
        <time>2021-07-25T08:03:44Z</time>
      </trkpt>
      <trkpt lat="43.0739120" lon="-7.8959840">
        <ele>545.6</ele>
        <time>2021-07-25T08:03:46Z</time>
      </trkpt>
      <trkpt lat="43.0739250" lon="-7.8960400">
        <ele>545.2</ele>
        <time>2021-07-25T08:03:47Z</time>
      </trkpt>
      <trkpt lat="43.0739380" lon="-7.8960970">
        <ele>544.6</ele>
        <time>2021-07-25T08:03:48Z</time>
      </trkpt>
      <trkpt lat="43.0739500" lon="-7.8961570">
        <ele>544.2</ele>
        <time>2021-07-25T08:03:49Z</time>
      </trkpt>
      <trkpt lat="43.0739570" lon="-7.8962190">
        <ele>543.8</ele>
        <time>2021-07-25T08:03:50Z</time>
      </trkpt>
      <trkpt lat="43.0739640" lon="-7.8962840">
        <ele>543.4</ele>
        <time>2021-07-25T08:03:51Z</time>
      </trkpt>
      <trkpt lat="43.0739620" lon="-7.8963600">
        <ele>543.0</ele>
        <time>2021-07-25T08:03:52Z</time>
      </trkpt>
      <trkpt lat="43.0739550" lon="-7.8964430">
        <ele>542.6</ele>
        <time>2021-07-25T08:03:53Z</time>
      </trkpt>
      <trkpt lat="43.0739420" lon="-7.8965230">
        <ele>542.2</ele>
        <time>2021-07-25T08:03:54Z</time>
      </trkpt>
      <trkpt lat="43.0739230" lon="-7.8966000">
        <ele>541.6</ele>
        <time>2021-07-25T08:03:55Z</time>
      </trkpt>
      <trkpt lat="43.0738990" lon="-7.8966790">
        <ele>541.2</ele>
        <time>2021-07-25T08:03:56Z</time>
      </trkpt>
      <trkpt lat="43.0738700" lon="-7.8967530">
        <ele>540.8</ele>
        <time>2021-07-25T08:03:57Z</time>
      </trkpt>
      <trkpt lat="43.0738350" lon="-7.8968260">
        <ele>540.4</ele>
        <time>2021-07-25T08:03:58Z</time>
      </trkpt>
      <trkpt lat="43.0738040" lon="-7.8968930">
        <ele>540.0</ele>
        <time>2021-07-25T08:03:59Z</time>
      </trkpt>
      <trkpt lat="43.0737720" lon="-7.8969630">
        <ele>539.4</ele>
        <time>2021-07-25T08:04:00Z</time>
      </trkpt>
      <trkpt lat="43.0737400" lon="-7.8970360">
        <ele>538.8</ele>
        <time>2021-07-25T08:04:01Z</time>
      </trkpt>
      <trkpt lat="43.0737010" lon="-7.8971130">
        <ele>538.2</ele>
        <time>2021-07-25T08:04:02Z</time>
      </trkpt>
      <trkpt lat="43.0736630" lon="-7.8971880">
        <ele>537.6</ele>
        <time>2021-07-25T08:04:03Z</time>
      </trkpt>
      <trkpt lat="43.0736250" lon="-7.8972620">
        <ele>537.0</ele>
        <time>2021-07-25T08:04:04Z</time>
      </trkpt>
      <trkpt lat="43.0735520" lon="-7.8973940">
        <ele>537.0</ele>
        <time>2021-07-25T08:04:06Z</time>
      </trkpt>
      <trkpt lat="43.0735230" lon="-7.8974410">
        <ele>536.6</ele>
        <time>2021-07-25T08:04:07Z</time>
      </trkpt>
      <trkpt lat="43.0735030" lon="-7.8974750">
        <ele>536.2</ele>
        <time>2021-07-25T08:04:08Z</time>
      </trkpt>
      <trkpt lat="43.0734850" lon="-7.8975040">
        <ele>535.8</ele>
        <time>2021-07-25T08:04:09Z</time>
      </trkpt>
      <trkpt lat="43.0734710" lon="-7.8975290">
        <ele>535.4</ele>
        <time>2021-07-25T08:04:10Z</time>
      </trkpt>
      <trkpt lat="43.0734560" lon="-7.8975480">
        <ele>535.0</ele>
        <time>2021-07-25T08:04:11Z</time>
      </trkpt>
      <trkpt lat="43.0734460" lon="-7.8975710">
        <ele>535.0</ele>
        <time>2021-07-25T08:04:12Z</time>
      </trkpt>
      <trkpt lat="43.0734240" lon="-7.8976140">
        <ele>535.0</ele>
        <time>2021-07-25T08:04:14Z</time>
      </trkpt>
      <trkpt lat="43.0734050" lon="-7.8976560">
        <ele>535.0</ele>
        <time>2021-07-25T08:04:16Z</time>
      </trkpt>
      <trkpt lat="43.0733860" lon="-7.8977000">
        <ele>535.0</ele>
        <time>2021-07-25T08:04:18Z</time>
      </trkpt>
      <trkpt lat="43.0733690" lon="-7.8977520">
        <ele>535.8</ele>
        <time>2021-07-25T08:04:20Z</time>
      </trkpt>
      <trkpt lat="43.0733600" lon="-7.8977730">
        <ele>536.2</ele>
        <time>2021-07-25T08:04:21Z</time>
      </trkpt>
      <trkpt lat="43.0733490" lon="-7.8977960">
        <ele>536.6</ele>
        <time>2021-07-25T08:04:22Z</time>
      </trkpt>
      <trkpt lat="43.0733430" lon="-7.8978160">
        <ele>537.0</ele>
        <time>2021-07-25T08:04:23Z</time>
      </trkpt>
      <trkpt lat="43.0733310" lon="-7.8978370">
        <ele>537.0</ele>
        <time>2021-07-25T08:04:24Z</time>
      </trkpt>
      <trkpt lat="43.0733150" lon="-7.8978800">
        <ele>537.0</ele>
        <time>2021-07-25T08:04:26Z</time>
      </trkpt>
      <trkpt lat="43.0732940" lon="-7.8979320">
        <ele>537.0</ele>
        <time>2021-07-25T08:04:28Z</time>
      </trkpt>
      <trkpt lat="43.0732810" lon="-7.8979820">
        <ele>537.0</ele>
        <time>2021-07-25T08:04:30Z</time>
      </trkpt>
      <trkpt lat="43.0732740" lon="-7.8980050">
        <ele>537.4</ele>
        <time>2021-07-25T08:04:31Z</time>
      </trkpt>
      <trkpt lat="43.0732660" lon="-7.8980270">
        <ele>537.8</ele>
        <time>2021-07-25T08:04:32Z</time>
      </trkpt>
      <trkpt lat="43.0732620" lon="-7.8980540">
        <ele>538.2</ele>
        <time>2021-07-25T08:04:33Z</time>
      </trkpt>
      <trkpt lat="43.0732540" lon="-7.8980790">
        <ele>538.6</ele>
        <time>2021-07-25T08:04:34Z</time>
      </trkpt>
      <trkpt lat="43.0732490" lon="-7.8981040">
        <ele>539.0</ele>
        <time>2021-07-25T08:04:35Z</time>
      </trkpt>
      <trkpt lat="43.0732380" lon="-7.8981730">
        <ele>539.0</ele>
        <time>2021-07-25T08:04:38Z</time>
      </trkpt>
      <trkpt lat="43.0732220" lon="-7.8983020">
        <ele>539.0</ele>
        <time>2021-07-25T08:04:43Z</time>
      </trkpt>
      <trkpt lat="43.0732040" lon="-7.8983790">
        <ele>539.4</ele>
        <time>2021-07-25T08:04:46Z</time>
      </trkpt>
      <trkpt lat="43.0731980" lon="-7.8984020">
        <ele>539.8</ele>
        <time>2021-07-25T08:04:47Z</time>
      </trkpt>
      <trkpt lat="43.0731950" lon="-7.8984250">
        <ele>540.2</ele>
        <time>2021-07-25T08:04:48Z</time>
      </trkpt>
      <trkpt lat="43.0731950" lon="-7.8984550">
        <ele>540.8</ele>
        <time>2021-07-25T08:04:49Z</time>
      </trkpt>
      <trkpt lat="43.0731940" lon="-7.8984830">
        <ele>541.2</ele>
        <time>2021-07-25T08:04:50Z</time>
      </trkpt>
      <trkpt lat="43.0731860" lon="-7.8985690">
        <ele>541.2</ele>
        <time>2021-07-25T08:04:53Z</time>
      </trkpt>
      <trkpt lat="43.0731180" lon="-7.8987880">
        <ele>541.2</ele>
        <time>2021-07-25T08:05:01Z</time>
      </trkpt>
      <trkpt lat="43.0730770" lon="-7.8988640">
        <ele>541.6</ele>
        <time>2021-07-25T08:05:04Z</time>
      </trkpt>
      <trkpt lat="43.0730640" lon="-7.8988860">
        <ele>542.0</ele>
        <time>2021-07-25T08:05:05Z</time>
      </trkpt>
      <trkpt lat="43.0730500" lon="-7.8989070">
        <ele>542.4</ele>
        <time>2021-07-25T08:05:06Z</time>
      </trkpt>
      <trkpt lat="43.0730380" lon="-7.8989260">
        <ele>542.8</ele>
        <time>2021-07-25T08:05:07Z</time>
      </trkpt>
      <trkpt lat="43.0730220" lon="-7.8989460">
        <ele>543.2</ele>
        <time>2021-07-25T08:05:08Z</time>
      </trkpt>
      <trkpt lat="43.0730040" lon="-7.8989630">
        <ele>543.2</ele>
        <time>2021-07-25T08:05:09Z</time>
      </trkpt>
      <trkpt lat="43.0728380" lon="-7.8990770">
        <ele>543.2</ele>
        <time>2021-07-25T08:05:17Z</time>
      </trkpt>
      <trkpt lat="43.0726730" lon="-7.8992020">
        <ele>543.2</ele>
        <time>2021-07-25T08:05:24Z</time>
      </trkpt>
      <trkpt lat="43.0725340" lon="-7.8993110">
        <ele>543.2</ele>
        <time>2021-07-25T08:05:30Z</time>
      </trkpt>
      <trkpt lat="43.0724080" lon="-7.8994040">
        <ele>543.6</ele>
        <time>2021-07-25T08:05:35Z</time>
      </trkpt>
      <trkpt lat="43.0723840" lon="-7.8994220">
        <ele>544.0</ele>
        <time>2021-07-25T08:05:36Z</time>
      </trkpt>
      <trkpt lat="43.0723600" lon="-7.8994390">
        <ele>544.4</ele>
        <time>2021-07-25T08:05:37Z</time>
      </trkpt>
      <trkpt lat="43.0723310" lon="-7.8994550">
        <ele>544.8</ele>
        <time>2021-07-25T08:05:38Z</time>
      </trkpt>
      <trkpt lat="43.0723030" lon="-7.8994710">
        <ele>545.2</ele>
        <time>2021-07-25T08:05:39Z</time>
      </trkpt>
      <trkpt lat="43.0721410" lon="-7.8995740">
        <ele>545.2</ele>
        <time>2021-07-25T08:05:44Z</time>
      </trkpt>
      <trkpt lat="43.0719770" lon="-7.8996340">
        <ele>545.2</ele>
        <time>2021-07-25T08:05:50Z</time>
      </trkpt>
      <trkpt lat="43.0718100" lon="-7.8995970">
        <ele>545.2</ele>
        <time>2021-07-25T08:05:56Z</time>
      </trkpt>
      <trkpt lat="43.0717280" lon="-7.8995770">
        <ele>545.6</ele>
        <time>2021-07-25T08:05:59Z</time>
      </trkpt>
      <trkpt lat="43.0717050" lon="-7.8995710">
        <ele>546.0</ele>
        <time>2021-07-25T08:06:00Z</time>
      </trkpt>
      <trkpt lat="43.0716810" lon="-7.8995610">
        <ele>546.6</ele>
        <time>2021-07-25T08:06:01Z</time>
      </trkpt>
      <trkpt lat="43.0716560" lon="-7.8995480">
        <ele>547.0</ele>
        <time>2021-07-25T08:06:02Z</time>
      </trkpt>
      <trkpt lat="43.0716300" lon="-7.8995380">
        <ele>547.4</ele>
        <time>2021-07-25T08:06:03Z</time>
      </trkpt>
      <trkpt lat="43.0715770" lon="-7.8995110">
        <ele>547.4</ele>
        <time>2021-07-25T08:06:05Z</time>
      </trkpt>
      <trkpt lat="43.0713590" lon="-7.8994280">
        <ele>547.4</ele>
        <time>2021-07-25T08:06:13Z</time>
      </trkpt>
      <trkpt lat="43.0711970" lon="-7.8993670">
        <ele>547.4</ele>
        <time>2021-07-25T08:06:19Z</time>
      </trkpt>
      <trkpt lat="43.0711690" lon="-7.8993570">
        <ele>547.8</ele>
        <time>2021-07-25T08:06:20Z</time>
      </trkpt>
      <trkpt lat="43.0711440" lon="-7.8993470">
        <ele>548.2</ele>
        <time>2021-07-25T08:06:21Z</time>
      </trkpt>
      <trkpt lat="43.0711170" lon="-7.8993380">
        <ele>548.8</ele>
        <time>2021-07-25T08:06:22Z</time>
      </trkpt>
      <trkpt lat="43.0710900" lon="-7.8993210">
        <ele>549.2</ele>
        <time>2021-07-25T08:06:23Z</time>
      </trkpt>
      <trkpt lat="43.0710620" lon="-7.8993080">
        <ele>549.6</ele>
        <time>2021-07-25T08:06:24Z</time>
      </trkpt>
      <trkpt lat="43.0710330" lon="-7.8992960">
        <ele>549.6</ele>
        <time>2021-07-25T08:06:25Z</time>
      </trkpt>
      <trkpt lat="43.0708560" lon="-7.8992190">
        <ele>549.6</ele>
        <time>2021-07-25T08:06:32Z</time>
      </trkpt>
      <trkpt lat="43.0707360" lon="-7.8991650">
        <ele>549.6</ele>
        <time>2021-07-25T08:06:36Z</time>
      </trkpt>
      <trkpt lat="43.0706770" lon="-7.8991430">
        <ele>549.6</ele>
        <time>2021-07-25T08:06:38Z</time>
      </trkpt>
      <trkpt lat="43.0705290" lon="-7.8990760">
        <ele>549.6</ele>
        <time>2021-07-25T08:06:43Z</time>
      </trkpt>
      <trkpt lat="43.0704960" lon="-7.8990620">
        <ele>549.6</ele>
        <time>2021-07-25T08:06:44Z</time>
      </trkpt>
      <trkpt lat="43.0703560" lon="-7.8990140">
        <ele>549.6</ele>
        <time>2021-07-25T08:06:48Z</time>
      </trkpt>
      <trkpt lat="43.0703160" lon="-7.8990130">
        <ele>549.6</ele>
        <time>2021-07-25T08:06:49Z</time>
      </trkpt>
      <trkpt lat="43.0702220" lon="-7.8990270">
        <ele>549.6</ele>
        <time>2021-07-25T08:06:51Z</time>
      </trkpt>
      <trkpt lat="43.0701310" lon="-7.8990820">
        <ele>549.6</ele>
        <time>2021-07-25T08:06:53Z</time>
      </trkpt>
      <trkpt lat="43.0699970" lon="-7.8992000">
        <ele>549.6</ele>
        <time>2021-07-25T08:06:56Z</time>
      </trkpt>
      <trkpt lat="43.0699220" lon="-7.8992920">
        <ele>549.6</ele>
        <time>2021-07-25T08:06:58Z</time>
      </trkpt>
      <trkpt lat="43.0698810" lon="-7.8993380">
        <ele>549.6</ele>
        <time>2021-07-25T08:06:59Z</time>
      </trkpt>
      <trkpt lat="43.0698460" lon="-7.8993900">
        <ele>549.6</ele>
        <time>2021-07-25T08:07:00Z</time>
      </trkpt>
      <trkpt lat="43.0697700" lon="-7.8995550">
        <ele>549.6</ele>
        <time>2021-07-25T08:07:03Z</time>
      </trkpt>
      <trkpt lat="43.0696820" lon="-7.8997790">
        <ele>549.6</ele>
        <time>2021-07-25T08:07:07Z</time>
      </trkpt>
      <trkpt lat="43.0696070" lon="-7.8999860">
        <ele>549.6</ele>
        <time>2021-07-25T08:07:11Z</time>
      </trkpt>
      <trkpt lat="43.0695740" lon="-7.9000690">
        <ele>549.2</ele>
        <time>2021-07-25T08:07:13Z</time>
      </trkpt>
      <trkpt lat="43.0695600" lon="-7.9001050">
        <ele>548.6</ele>
        <time>2021-07-25T08:07:14Z</time>
      </trkpt>
      <trkpt lat="43.0695490" lon="-7.9001380">
        <ele>548.2</ele>
        <time>2021-07-25T08:07:15Z</time>
      </trkpt>
      <trkpt lat="43.0695410" lon="-7.9001670">
        <ele>547.8</ele>
        <time>2021-07-25T08:07:16Z</time>
      </trkpt>
      <trkpt lat="43.0695320" lon="-7.9001880">
        <ele>547.4</ele>
        <time>2021-07-25T08:07:17Z</time>
      </trkpt>
      <trkpt lat="43.0695190" lon="-7.9002040">
        <ele>547.4</ele>
        <time>2021-07-25T08:07:20Z</time>
      </trkpt>
      <trkpt lat="43.0695160" lon="-7.9002180">
        <ele>547.4</ele>
        <time>2021-07-25T08:07:27Z</time>
      </trkpt>
      <trkpt lat="43.0695120" lon="-7.9002390">
        <ele>547.4</ele>
        <time>2021-07-25T08:07:28Z</time>
      </trkpt>
      <trkpt lat="43.0695030" lon="-7.9002990">
        <ele>547.4</ele>
        <time>2021-07-25T08:07:30Z</time>
      </trkpt>
      <trkpt lat="43.0694810" lon="-7.9004430">
        <ele>547.4</ele>
        <time>2021-07-25T08:07:34Z</time>
      </trkpt>
      <trkpt lat="43.0694260" lon="-7.9006880">
        <ele>547.4</ele>
        <time>2021-07-25T08:07:39Z</time>
      </trkpt>
      <trkpt lat="43.0694060" lon="-7.9007350">
        <ele>547.4</ele>
        <time>2021-07-25T08:07:40Z</time>
      </trkpt>
      <trkpt lat="43.0692340" lon="-7.9010220">
        <ele>547.4</ele>
        <time>2021-07-25T08:07:47Z</time>
      </trkpt>
      <trkpt lat="43.0691340" lon="-7.9010930">
        <ele>547.0</ele>
        <time>2021-07-25T08:07:50Z</time>
      </trkpt>
      <trkpt lat="43.0690940" lon="-7.9011060">
        <ele>546.6</ele>
        <time>2021-07-25T08:07:51Z</time>
      </trkpt>
      <trkpt lat="43.0690470" lon="-7.9011120">
        <ele>546.2</ele>
        <time>2021-07-25T08:07:52Z</time>
      </trkpt>
      <trkpt lat="43.0689950" lon="-7.9011200">
        <ele>545.8</ele>
        <time>2021-07-25T08:07:53Z</time>
      </trkpt>
      <trkpt lat="43.0689390" lon="-7.9011280">
        <ele>545.4</ele>
        <time>2021-07-25T08:07:54Z</time>
      </trkpt>
      <trkpt lat="43.0687000" lon="-7.9011550">
        <ele>545.4</ele>
        <time>2021-07-25T08:07:57Z</time>
      </trkpt>
      <trkpt lat="43.0683740" lon="-7.9011630">
        <ele>545.0</ele>
        <time>2021-07-25T08:08:01Z</time>
      </trkpt>
      <trkpt lat="43.0682840" lon="-7.9011720">
        <ele>544.6</ele>
        <time>2021-07-25T08:08:02Z</time>
      </trkpt>
      <trkpt lat="43.0681830" lon="-7.9011840">
        <ele>543.6</ele>
        <time>2021-07-25T08:08:03Z</time>
      </trkpt>
      <trkpt lat="43.0680780" lon="-7.9011940">
        <ele>543.2</ele>
        <time>2021-07-25T08:08:04Z</time>
      </trkpt>
      <trkpt lat="43.0679050" lon="-7.9012170">
        <ele>542.6</ele>
        <time>2021-07-25T08:08:06Z</time>
      </trkpt>
      <trkpt lat="43.0678230" lon="-7.9012270">
        <ele>542.2</ele>
        <time>2021-07-25T08:08:07Z</time>
      </trkpt>
      <trkpt lat="43.0677430" lon="-7.9012310">
        <ele>541.6</ele>
        <time>2021-07-25T08:08:08Z</time>
      </trkpt>
      <trkpt lat="43.0676660" lon="-7.9012380">
        <ele>541.2</ele>
        <time>2021-07-25T08:08:09Z</time>
      </trkpt>
      <trkpt lat="43.0675900" lon="-7.9012470">
        <ele>540.6</ele>
        <time>2021-07-25T08:08:10Z</time>
      </trkpt>
      <trkpt lat="43.0675170" lon="-7.9012580">
        <ele>540.2</ele>
        <time>2021-07-25T08:08:11Z</time>
      </trkpt>
      <trkpt lat="43.0674460" lon="-7.9012620">
        <ele>539.6</ele>
        <time>2021-07-25T08:08:12Z</time>
      </trkpt>
      <trkpt lat="43.0673760" lon="-7.9012620">
        <ele>539.2</ele>
        <time>2021-07-25T08:08:13Z</time>
      </trkpt>
      <trkpt lat="43.0673080" lon="-7.9012590">
        <ele>538.8</ele>
        <time>2021-07-25T08:08:14Z</time>
      </trkpt>
      <trkpt lat="43.0672400" lon="-7.9012520">
        <ele>538.2</ele>
        <time>2021-07-25T08:08:15Z</time>
      </trkpt>
      <trkpt lat="43.0671100" lon="-7.9012310">
        <ele>537.8</ele>
        <time>2021-07-25T08:08:17Z</time>
      </trkpt>
      <trkpt lat="43.0670490" lon="-7.9012200">
        <ele>537.4</ele>
        <time>2021-07-25T08:08:18Z</time>
      </trkpt>
      <trkpt lat="43.0669880" lon="-7.9012110">
        <ele>537.0</ele>
        <time>2021-07-25T08:08:19Z</time>
      </trkpt>
      <trkpt lat="43.0669260" lon="-7.9012000">
        <ele>536.4</ele>
        <time>2021-07-25T08:08:20Z</time>
      </trkpt>
      <trkpt lat="43.0668600" lon="-7.9011970">
        <ele>536.0</ele>
        <time>2021-07-25T08:08:21Z</time>
      </trkpt>
      <trkpt lat="43.0667970" lon="-7.9012130">
        <ele>536.0</ele>
        <time>2021-07-25T08:08:22Z</time>
      </trkpt>
      <trkpt lat="43.0667350" lon="-7.9012290">
        <ele>535.6</ele>
        <time>2021-07-25T08:08:23Z</time>
      </trkpt>
      <trkpt lat="43.0666800" lon="-7.9012600">
        <ele>535.2</ele>
        <time>2021-07-25T08:08:24Z</time>
      </trkpt>
      <trkpt lat="43.0666260" lon="-7.9013080">
        <ele>534.8</ele>
        <time>2021-07-25T08:08:25Z</time>
      </trkpt>
      <trkpt lat="43.0665810" lon="-7.9013560">
        <ele>534.4</ele>
        <time>2021-07-25T08:08:26Z</time>
      </trkpt>
      <trkpt lat="43.0665410" lon="-7.9013930">
        <ele>533.8</ele>
        <time>2021-07-25T08:08:27Z</time>
      </trkpt>
      <trkpt lat="43.0665070" lon="-7.9014290">
        <ele>533.4</ele>
        <time>2021-07-25T08:08:28Z</time>
      </trkpt>
      <trkpt lat="43.0664810" lon="-7.9014590">
        <ele>533.0</ele>
        <time>2021-07-25T08:08:29Z</time>
      </trkpt>
      <trkpt lat="43.0664620" lon="-7.9014850">
        <ele>532.4</ele>
        <time>2021-07-25T08:08:30Z</time>
      </trkpt>
      <trkpt lat="43.0664460" lon="-7.9015060">
        <ele>532.0</ele>
        <time>2021-07-25T08:08:31Z</time>
      </trkpt>
      <trkpt lat="43.0664350" lon="-7.9015190">
        <ele>531.6</ele>
        <time>2021-07-25T08:08:32Z</time>
      </trkpt>
      <trkpt lat="43.0664310" lon="-7.9015320">
        <ele>531.6</ele>
        <time>2021-07-25T08:08:34Z</time>
      </trkpt>
      <trkpt lat="43.0664690" lon="-7.9016150">
        <ele>533.6</ele>
        <time>2021-07-25T08:34:54Z</time>
      </trkpt>
      <trkpt lat="43.0664330" lon="-7.9016840">
        <ele>533.6</ele>
        <time>2021-07-25T08:34:57Z</time>
      </trkpt>
      <trkpt lat="43.0663390" lon="-7.9019180">
        <ele>533.6</ele>
        <time>2021-07-25T08:35:05Z</time>
      </trkpt>
      <trkpt lat="43.0662960" lon="-7.9020630">
        <ele>534.0</ele>
        <time>2021-07-25T08:35:09Z</time>
      </trkpt>
      <trkpt lat="43.0662830" lon="-7.9021030">
        <ele>534.4</ele>
        <time>2021-07-25T08:35:10Z</time>
      </trkpt>
      <trkpt lat="43.0662780" lon="-7.9021410">
        <ele>534.8</ele>
        <time>2021-07-25T08:35:11Z</time>
      </trkpt>
      <trkpt lat="43.0662710" lon="-7.9021850">
        <ele>535.2</ele>
        <time>2021-07-25T08:35:12Z</time>
      </trkpt>
      <trkpt lat="43.0662630" lon="-7.9022270">
        <ele>535.6</ele>
        <time>2021-07-25T08:35:13Z</time>
      </trkpt>
      <trkpt lat="43.0662500" lon="-7.9023150">
        <ele>535.6</ele>
        <time>2021-07-25T08:35:15Z</time>
      </trkpt>
      <trkpt lat="43.0662360" lon="-7.9024530">
        <ele>535.6</ele>
        <time>2021-07-25T08:35:18Z</time>
      </trkpt>
      <trkpt lat="43.0662220" lon="-7.9025850">
        <ele>535.6</ele>
        <time>2021-07-25T08:35:21Z</time>
      </trkpt>
      <trkpt lat="43.0662200" lon="-7.9026260">
        <ele>535.6</ele>
        <time>2021-07-25T08:35:22Z</time>
      </trkpt>
      <trkpt lat="43.0662240" lon="-7.9027430">
        <ele>535.6</ele>
        <time>2021-07-25T08:35:25Z</time>
      </trkpt>
      <trkpt lat="43.0662270" lon="-7.9028250">
        <ele>535.6</ele>
        <time>2021-07-25T08:35:27Z</time>
      </trkpt>
      <trkpt lat="43.0662310" lon="-7.9029260">
        <ele>535.6</ele>
        <time>2021-07-25T08:35:29Z</time>
      </trkpt>
      <trkpt lat="43.0662510" lon="-7.9032760">
        <ele>535.6</ele>
        <time>2021-07-25T08:35:36Z</time>
      </trkpt>
      <trkpt lat="43.0662600" lon="-7.9033700">
        <ele>535.6</ele>
        <time>2021-07-25T08:35:38Z</time>
      </trkpt>
      <trkpt lat="43.0662910" lon="-7.9037350">
        <ele>535.6</ele>
        <time>2021-07-25T08:35:44Z</time>
      </trkpt>
      <trkpt lat="43.0663280" lon="-7.9040200">
        <ele>535.6</ele>
        <time>2021-07-25T08:35:49Z</time>
      </trkpt>
      <trkpt lat="43.0663520" lon="-7.9041350">
        <ele>535.6</ele>
        <time>2021-07-25T08:35:51Z</time>
      </trkpt>
      <trkpt lat="43.0663790" lon="-7.9042520">
        <ele>535.6</ele>
        <time>2021-07-25T08:35:53Z</time>
      </trkpt>
      <trkpt lat="43.0664360" lon="-7.9045040">
        <ele>535.6</ele>
        <time>2021-07-25T08:35:57Z</time>
      </trkpt>
      <trkpt lat="43.0664510" lon="-7.9045640">
        <ele>535.6</ele>
        <time>2021-07-25T08:35:58Z</time>
      </trkpt>
      <trkpt lat="43.0665770" lon="-7.9049990">
        <ele>535.6</ele>
        <time>2021-07-25T08:36:05Z</time>
      </trkpt>
      <trkpt lat="43.0666220" lon="-7.9051050">
        <ele>535.6</ele>
        <time>2021-07-25T08:36:07Z</time>
      </trkpt>
      <trkpt lat="43.0666620" lon="-7.9052110">
        <ele>535.6</ele>
        <time>2021-07-25T08:36:09Z</time>
      </trkpt>
      <trkpt lat="43.0667390" lon="-7.9054220">
        <ele>535.6</ele>
        <time>2021-07-25T08:36:13Z</time>
      </trkpt>
      <trkpt lat="43.0667600" lon="-7.9055330">
        <ele>535.6</ele>
        <time>2021-07-25T08:36:15Z</time>
      </trkpt>
      <trkpt lat="43.0667680" lon="-7.9055880">
        <ele>535.6</ele>
        <time>2021-07-25T08:36:16Z</time>
      </trkpt>
      <trkpt lat="43.0667730" lon="-7.9057600">
        <ele>535.6</ele>
        <time>2021-07-25T08:36:19Z</time>
      </trkpt>
      <trkpt lat="43.0667600" lon="-7.9058820">
        <ele>535.6</ele>
        <time>2021-07-25T08:36:21Z</time>
      </trkpt>
      <trkpt lat="43.0667480" lon="-7.9059470">
        <ele>535.6</ele>
        <time>2021-07-25T08:36:22Z</time>
      </trkpt>
      <trkpt lat="43.0667300" lon="-7.9060150">
        <ele>535.6</ele>
        <time>2021-07-25T08:36:23Z</time>
      </trkpt>
      <trkpt lat="43.0666860" lon="-7.9062100">
        <ele>535.6</ele>
        <time>2021-07-25T08:36:26Z</time>
      </trkpt>
      <trkpt lat="43.0666700" lon="-7.9062750">
        <ele>535.6</ele>
        <time>2021-07-25T08:36:27Z</time>
      </trkpt>
      <trkpt lat="43.0666520" lon="-7.9063380">
        <ele>535.6</ele>
        <time>2021-07-25T08:36:28Z</time>
      </trkpt>
      <trkpt lat="43.0665620" lon="-7.9066310">
        <ele>535.6</ele>
        <time>2021-07-25T08:36:33Z</time>
      </trkpt>
      <trkpt lat="43.0665310" lon="-7.9067440">
        <ele>535.6</ele>
        <time>2021-07-25T08:36:35Z</time>
      </trkpt>
      <trkpt lat="43.0665030" lon="-7.9068630">
        <ele>535.6</ele>
        <time>2021-07-25T08:36:37Z</time>
      </trkpt>
      <trkpt lat="43.0664530" lon="-7.9070300">
        <ele>535.6</ele>
        <time>2021-07-25T08:36:40Z</time>
      </trkpt>
      <trkpt lat="43.0664240" lon="-7.9071300">
        <ele>535.6</ele>
        <time>2021-07-25T08:36:42Z</time>
      </trkpt>
      <trkpt lat="43.0663370" lon="-7.9074400">
        <ele>535.6</ele>
        <time>2021-07-25T08:36:47Z</time>
      </trkpt>
      <trkpt lat="43.0663190" lon="-7.9075160">
        <ele>535.6</ele>
        <time>2021-07-25T08:36:48Z</time>
      </trkpt>
      <trkpt lat="43.0662900" lon="-7.9076720">
        <ele>535.6</ele>
        <time>2021-07-25T08:36:50Z</time>
      </trkpt>
      <trkpt lat="43.0662700" lon="-7.9078150">
        <ele>535.6</ele>
        <time>2021-07-25T08:36:52Z</time>
      </trkpt>
      <trkpt lat="43.0662680" lon="-7.9078760">
        <ele>535.6</ele>
        <time>2021-07-25T08:36:53Z</time>
      </trkpt>
      <trkpt lat="43.0663030" lon="-7.9080780">
        <ele>535.6</ele>
        <time>2021-07-25T08:36:57Z</time>
      </trkpt>
      <trkpt lat="43.0663170" lon="-7.9081200">
        <ele>535.6</ele>
        <time>2021-07-25T08:36:58Z</time>
      </trkpt>
      <trkpt lat="43.0663480" lon="-7.9082000">
        <ele>535.6</ele>
        <time>2021-07-25T08:37:00Z</time>
      </trkpt>
      <trkpt lat="43.0663840" lon="-7.9082740">
        <ele>535.6</ele>
        <time>2021-07-25T08:37:02Z</time>
      </trkpt>
      <trkpt lat="43.0664170" lon="-7.9083460">
        <ele>535.6</ele>
        <time>2021-07-25T08:37:04Z</time>
      </trkpt>
      <trkpt lat="43.0664510" lon="-7.9084160">
        <ele>535.6</ele>
        <time>2021-07-25T08:37:06Z</time>
      </trkpt>
      <trkpt lat="43.0665140" lon="-7.9085190">
        <ele>535.6</ele>
        <time>2021-07-25T08:37:09Z</time>
      </trkpt>
      <trkpt lat="43.0665620" lon="-7.9086360">
        <ele>535.6</ele>
        <time>2021-07-25T08:37:12Z</time>
      </trkpt>
      <trkpt lat="43.0665770" lon="-7.9086750">
        <ele>535.6</ele>
        <time>2021-07-25T08:37:13Z</time>
      </trkpt>
      <trkpt lat="43.0666200" lon="-7.9087680">
        <ele>536.4</ele>
        <time>2021-07-25T08:37:16Z</time>
      </trkpt>
      <trkpt lat="43.0666330" lon="-7.9087960">
        <ele>536.8</ele>
        <time>2021-07-25T08:37:17Z</time>
      </trkpt>
      <trkpt lat="43.0666470" lon="-7.9088270">
        <ele>537.2</ele>
        <time>2021-07-25T08:37:18Z</time>
      </trkpt>
      <trkpt lat="43.0666640" lon="-7.9088600">
        <ele>537.6</ele>
        <time>2021-07-25T08:37:19Z</time>
      </trkpt>
      <trkpt lat="43.0667760" lon="-7.9090940">
        <ele>537.6</ele>
        <time>2021-07-25T08:37:26Z</time>
      </trkpt>
      <trkpt lat="43.0667930" lon="-7.9091260">
        <ele>537.6</ele>
        <time>2021-07-25T08:37:27Z</time>
      </trkpt>
      <trkpt lat="43.0669040" lon="-7.9093420">
        <ele>538.0</ele>
        <time>2021-07-25T08:37:34Z</time>
      </trkpt>
      <trkpt lat="43.0669160" lon="-7.9093710">
        <ele>538.4</ele>
        <time>2021-07-25T08:37:35Z</time>
      </trkpt>
      <trkpt lat="43.0669280" lon="-7.9093990">
        <ele>539.0</ele>
        <time>2021-07-25T08:37:36Z</time>
      </trkpt>
      <trkpt lat="43.0669410" lon="-7.9094270">
        <ele>539.4</ele>
        <time>2021-07-25T08:37:37Z</time>
      </trkpt>
      <trkpt lat="43.0669540" lon="-7.9094530">
        <ele>539.8</ele>
        <time>2021-07-25T08:37:38Z</time>
      </trkpt>
      <trkpt lat="43.0669780" lon="-7.9095110">
        <ele>539.8</ele>
        <time>2021-07-25T08:37:40Z</time>
      </trkpt>
      <trkpt lat="43.0670020" lon="-7.9095620">
        <ele>539.8</ele>
        <time>2021-07-25T08:37:42Z</time>
      </trkpt>
      <trkpt lat="43.0670620" lon="-7.9096870">
        <ele>540.2</ele>
        <time>2021-07-25T08:37:47Z</time>
      </trkpt>
      <trkpt lat="43.0670750" lon="-7.9097130">
        <ele>540.6</ele>
        <time>2021-07-25T08:37:48Z</time>
      </trkpt>
      <trkpt lat="43.0670870" lon="-7.9097390">
        <ele>541.0</ele>
        <time>2021-07-25T08:37:49Z</time>
      </trkpt>
      <trkpt lat="43.0671000" lon="-7.9097650">
        <ele>541.4</ele>
        <time>2021-07-25T08:37:50Z</time>
      </trkpt>
      <trkpt lat="43.0671130" lon="-7.9097890">
        <ele>541.8</ele>
        <time>2021-07-25T08:37:51Z</time>
      </trkpt>
      <trkpt lat="43.0671830" lon="-7.9099440">
        <ele>541.8</ele>
        <time>2021-07-25T08:37:57Z</time>
      </trkpt>
      <trkpt lat="43.0672160" lon="-7.9100770">
        <ele>542.2</ele>
        <time>2021-07-25T08:38:02Z</time>
      </trkpt>
      <trkpt lat="43.0672190" lon="-7.9101050">
        <ele>542.6</ele>
        <time>2021-07-25T08:38:03Z</time>
      </trkpt>
      <trkpt lat="43.0672230" lon="-7.9101350">
        <ele>543.0</ele>
        <time>2021-07-25T08:38:04Z</time>
      </trkpt>
      <trkpt lat="43.0672270" lon="-7.9101640">
        <ele>543.4</ele>
        <time>2021-07-25T08:38:05Z</time>
      </trkpt>
      <trkpt lat="43.0672310" lon="-7.9101900">
        <ele>544.0</ele>
        <time>2021-07-25T08:38:06Z</time>
      </trkpt>
      <trkpt lat="43.0672450" lon="-7.9103820">
        <ele>544.0</ele>
        <time>2021-07-25T08:38:13Z</time>
      </trkpt>
      <trkpt lat="43.0672340" lon="-7.9104730">
        <ele>544.4</ele>
        <time>2021-07-25T08:38:17Z</time>
      </trkpt>
      <trkpt lat="43.0672290" lon="-7.9104990">
        <ele>544.8</ele>
        <time>2021-07-25T08:38:18Z</time>
      </trkpt>
      <trkpt lat="43.0672230" lon="-7.9105260">
        <ele>545.2</ele>
        <time>2021-07-25T08:38:19Z</time>
      </trkpt>
      <trkpt lat="43.0672180" lon="-7.9105560">
        <ele>545.6</ele>
        <time>2021-07-25T08:38:20Z</time>
      </trkpt>
      <trkpt lat="43.0672160" lon="-7.9105830">
        <ele>546.0</ele>
        <time>2021-07-25T08:38:21Z</time>
      </trkpt>
      <trkpt lat="43.0671910" lon="-7.9107310">
        <ele>546.0</ele>
        <time>2021-07-25T08:38:27Z</time>
      </trkpt>
      <trkpt lat="43.0671500" lon="-7.9108970">
        <ele>546.4</ele>
        <time>2021-07-25T08:38:34Z</time>
      </trkpt>
      <trkpt lat="43.0671430" lon="-7.9109190">
        <ele>547.0</ele>
        <time>2021-07-25T08:38:35Z</time>
      </trkpt>
      <trkpt lat="43.0671360" lon="-7.9109420">
        <ele>547.4</ele>
        <time>2021-07-25T08:38:36Z</time>
      </trkpt>
      <trkpt lat="43.0671300" lon="-7.9109650">
        <ele>547.8</ele>
        <time>2021-07-25T08:38:37Z</time>
      </trkpt>
      <trkpt lat="43.0671220" lon="-7.9109910">
        <ele>548.2</ele>
        <time>2021-07-25T08:38:38Z</time>
      </trkpt>
      <trkpt lat="43.0670810" lon="-7.9111420">
        <ele>548.2</ele>
        <time>2021-07-25T08:38:44Z</time>
      </trkpt>
      <trkpt lat="43.0670280" lon="-7.9112900">
        <ele>548.2</ele>
        <time>2021-07-25T08:38:50Z</time>
      </trkpt>
      <trkpt lat="43.0669570" lon="-7.9114300">
        <ele>548.6</ele>
        <time>2021-07-25T08:38:56Z</time>
      </trkpt>
      <trkpt lat="43.0669460" lon="-7.9114540">
        <ele>549.0</ele>
        <time>2021-07-25T08:38:57Z</time>
      </trkpt>
      <trkpt lat="43.0669330" lon="-7.9114770">
        <ele>549.4</ele>
        <time>2021-07-25T08:38:58Z</time>
      </trkpt>
      <trkpt lat="43.0669210" lon="-7.9114990">
        <ele>549.8</ele>
        <time>2021-07-25T08:38:59Z</time>
      </trkpt>
      <trkpt lat="43.0669090" lon="-7.9115180">
        <ele>550.2</ele>
        <time>2021-07-25T08:39:00Z</time>
      </trkpt>
      <trkpt lat="43.0668590" lon="-7.9116000">
        <ele>550.2</ele>
        <time>2021-07-25T08:39:04Z</time>
      </trkpt>
      <trkpt lat="43.0667580" lon="-7.9117640">
        <ele>550.6</ele>
        <time>2021-07-25T08:39:12Z</time>
      </trkpt>
      <trkpt lat="43.0667420" lon="-7.9117810">
        <ele>551.2</ele>
        <time>2021-07-25T08:39:13Z</time>
      </trkpt>
      <trkpt lat="43.0667290" lon="-7.9117950">
        <ele>551.6</ele>
        <time>2021-07-25T08:39:14Z</time>
      </trkpt>
      <trkpt lat="43.0667140" lon="-7.9118120">
        <ele>552.0</ele>
        <time>2021-07-25T08:39:15Z</time>
      </trkpt>
      <trkpt lat="43.0667000" lon="-7.9118350">
        <ele>552.4</ele>
        <time>2021-07-25T08:39:16Z</time>
      </trkpt>
      <trkpt lat="43.0666330" lon="-7.9119450">
        <ele>552.4</ele>
        <time>2021-07-25T08:39:21Z</time>
      </trkpt>
      <trkpt lat="43.0665330" lon="-7.9120700">
        <ele>552.4</ele>
        <time>2021-07-25T08:39:29Z</time>
      </trkpt>
      <trkpt lat="43.0664450" lon="-7.9121640">
        <ele>552.8</ele>
        <time>2021-07-25T08:39:36Z</time>
      </trkpt>
      <trkpt lat="43.0664350" lon="-7.9121690">
        <ele>553.2</ele>
        <time>2021-07-25T08:39:37Z</time>
      </trkpt>
      <trkpt lat="43.0664320" lon="-7.9121710">
        <ele>553.6</ele>
        <time>2021-07-25T08:39:38Z</time>
      </trkpt>
      <trkpt lat="43.0663900" lon="-7.9122800">
        <ele>554.4</ele>
        <time>2021-07-25T08:40:08Z</time>
      </trkpt>
      <trkpt lat="43.0663880" lon="-7.9123040">
        <ele>554.4</ele>
        <time>2021-07-25T08:40:09Z</time>
      </trkpt>
      <trkpt lat="43.0663560" lon="-7.9123720">
        <ele>554.4</ele>
        <time>2021-07-25T08:40:12Z</time>
      </trkpt>
      <trkpt lat="43.0663290" lon="-7.9124200">
        <ele>554.4</ele>
        <time>2021-07-25T08:40:14Z</time>
      </trkpt>
      <trkpt lat="43.0663160" lon="-7.9124460">
        <ele>554.4</ele>
        <time>2021-07-25T08:40:15Z</time>
      </trkpt>
      <trkpt lat="43.0662250" lon="-7.9125870">
        <ele>554.4</ele>
        <time>2021-07-25T08:40:22Z</time>
      </trkpt>
      <trkpt lat="43.0661900" lon="-7.9126680">
        <ele>554.8</ele>
        <time>2021-07-25T08:40:25Z</time>
      </trkpt>
      <trkpt lat="43.0661740" lon="-7.9127000">
        <ele>555.2</ele>
        <time>2021-07-25T08:40:26Z</time>
      </trkpt>
      <trkpt lat="43.0661570" lon="-7.9127310">
        <ele>555.6</ele>
        <time>2021-07-25T08:40:27Z</time>
      </trkpt>
      <trkpt lat="43.0661420" lon="-7.9127620">
        <ele>556.0</ele>
        <time>2021-07-25T08:40:28Z</time>
      </trkpt>
      <trkpt lat="43.0661280" lon="-7.9127930">
        <ele>556.4</ele>
        <time>2021-07-25T08:40:29Z</time>
      </trkpt>
      <trkpt lat="43.0660430" lon="-7.9129650">
        <ele>556.4</ele>
        <time>2021-07-25T08:40:34Z</time>
      </trkpt>
      <trkpt lat="43.0659320" lon="-7.9132040">
        <ele>556.4</ele>
        <time>2021-07-25T08:40:41Z</time>
      </trkpt>
      <trkpt lat="43.0658810" lon="-7.9133060">
        <ele>556.4</ele>
        <time>2021-07-25T08:40:44Z</time>
      </trkpt>
      <trkpt lat="43.0658450" lon="-7.9133760">
        <ele>556.4</ele>
        <time>2021-07-25T08:40:46Z</time>
      </trkpt>
      <trkpt lat="43.0657880" lon="-7.9134900">
        <ele>556.4</ele>
        <time>2021-07-25T08:40:49Z</time>
      </trkpt>
      <trkpt lat="43.0656450" lon="-7.9137710">
        <ele>556.4</ele>
        <time>2021-07-25T08:40:56Z</time>
      </trkpt>
      <trkpt lat="43.0654660" lon="-7.9141430">
        <ele>556.4</ele>
        <time>2021-07-25T08:41:04Z</time>
      </trkpt>
      <trkpt lat="43.0654240" lon="-7.9142990">
        <ele>556.4</ele>
        <time>2021-07-25T08:41:07Z</time>
      </trkpt>
      <trkpt lat="43.0654150" lon="-7.9143520">
        <ele>556.4</ele>
        <time>2021-07-25T08:41:08Z</time>
      </trkpt>
      <trkpt lat="43.0653690" lon="-7.9146060">
        <ele>556.4</ele>
        <time>2021-07-25T08:41:12Z</time>
      </trkpt>
      <trkpt lat="43.0653620" lon="-7.9146740">
        <ele>556.0</ele>
        <time>2021-07-25T08:41:13Z</time>
      </trkpt>
      <trkpt lat="43.0653550" lon="-7.9147440">
        <ele>555.6</ele>
        <time>2021-07-25T08:41:14Z</time>
      </trkpt>
      <trkpt lat="43.0653470" lon="-7.9148190">
        <ele>555.2</ele>
        <time>2021-07-25T08:41:15Z</time>
      </trkpt>
      <trkpt lat="43.0653380" lon="-7.9148930">
        <ele>554.8</ele>
        <time>2021-07-25T08:41:16Z</time>
      </trkpt>
      <trkpt lat="43.0653290" lon="-7.9149730">
        <ele>554.2</ele>
        <time>2021-07-25T08:41:17Z</time>
      </trkpt>
      <trkpt lat="43.0653070" lon="-7.9152270">
        <ele>554.2</ele>
        <time>2021-07-25T08:41:20Z</time>
      </trkpt>
      <trkpt lat="43.0652850" lon="-7.9155010">
        <ele>554.2</ele>
        <time>2021-07-25T08:41:23Z</time>
      </trkpt>
      <trkpt lat="43.0652680" lon="-7.9157030">
        <ele>553.8</ele>
        <time>2021-07-25T08:41:25Z</time>
      </trkpt>
      <trkpt lat="43.0652570" lon="-7.9158100">
        <ele>553.4</ele>
        <time>2021-07-25T08:41:26Z</time>
      </trkpt>
      <trkpt lat="43.0652470" lon="-7.9159220">
        <ele>553.0</ele>
        <time>2021-07-25T08:41:27Z</time>
      </trkpt>
      <trkpt lat="43.0652350" lon="-7.9160370">
        <ele>552.6</ele>
        <time>2021-07-25T08:41:28Z</time>
      </trkpt>
      <trkpt lat="43.0652220" lon="-7.9161540">
        <ele>552.2</ele>
        <time>2021-07-25T08:41:29Z</time>
      </trkpt>
      <trkpt lat="43.0651990" lon="-7.9163890">
        <ele>551.6</ele>
        <time>2021-07-25T08:41:31Z</time>
      </trkpt>
      <trkpt lat="43.0651860" lon="-7.9165090">
        <ele>551.2</ele>
        <time>2021-07-25T08:41:32Z</time>
      </trkpt>
      <trkpt lat="43.0651750" lon="-7.9166320">
        <ele>550.6</ele>
        <time>2021-07-25T08:41:33Z</time>
      </trkpt>
      <trkpt lat="43.0651670" lon="-7.9167510">
        <ele>550.0</ele>
        <time>2021-07-25T08:41:34Z</time>
      </trkpt>
      <trkpt lat="43.0651590" lon="-7.9168710">
        <ele>549.6</ele>
        <time>2021-07-25T08:41:35Z</time>
      </trkpt>
      <trkpt lat="43.0651510" lon="-7.9169930">
        <ele>549.0</ele>
        <time>2021-07-25T08:41:36Z</time>
      </trkpt>
      <trkpt lat="43.0651430" lon="-7.9171140">
        <ele>548.4</ele>
        <time>2021-07-25T08:41:37Z</time>
      </trkpt>
      <trkpt lat="43.0651390" lon="-7.9172320">
        <ele>548.0</ele>
        <time>2021-07-25T08:41:38Z</time>
      </trkpt>
      <trkpt lat="43.0651350" lon="-7.9173420">
        <ele>547.4</ele>
        <time>2021-07-25T08:41:39Z</time>
      </trkpt>
      <trkpt lat="43.0651340" lon="-7.9174480">
        <ele>547.0</ele>
        <time>2021-07-25T08:41:40Z</time>
      </trkpt>
      <trkpt lat="43.0651360" lon="-7.9175350">
        <ele>546.6</ele>
        <time>2021-07-25T08:41:41Z</time>
      </trkpt>
      <trkpt lat="43.0651370" lon="-7.9176200">
        <ele>546.0</ele>
        <time>2021-07-25T08:41:42Z</time>
      </trkpt>
      <trkpt lat="43.0651370" lon="-7.9176920">
        <ele>545.6</ele>
        <time>2021-07-25T08:41:43Z</time>
      </trkpt>
      <trkpt lat="43.0651360" lon="-7.9177600">
        <ele>545.2</ele>
        <time>2021-07-25T08:41:44Z</time>
      </trkpt>
      <trkpt lat="43.0651280" lon="-7.9179710">
        <ele>545.2</ele>
        <time>2021-07-25T08:41:48Z</time>
      </trkpt>
      <trkpt lat="43.0651280" lon="-7.9180610">
        <ele>545.2</ele>
        <time>2021-07-25T08:41:50Z</time>
      </trkpt>
      <trkpt lat="43.0651260" lon="-7.9181050">
        <ele>545.2</ele>
        <time>2021-07-25T08:41:51Z</time>
      </trkpt>
      <trkpt lat="43.0651270" lon="-7.9181900">
        <ele>545.2</ele>
        <time>2021-07-25T08:41:53Z</time>
      </trkpt>
      <trkpt lat="43.0651240" lon="-7.9182790">
        <ele>545.2</ele>
        <time>2021-07-25T08:41:55Z</time>
      </trkpt>
      <trkpt lat="43.0651210" lon="-7.9184320">
        <ele>545.2</ele>
        <time>2021-07-25T08:41:59Z</time>
      </trkpt>
      <trkpt lat="43.0651190" lon="-7.9185120">
        <ele>545.2</ele>
        <time>2021-07-25T08:42:01Z</time>
      </trkpt>
      <trkpt lat="43.0651130" lon="-7.9186300">
        <ele>545.6</ele>
        <time>2021-07-25T08:42:04Z</time>
      </trkpt>
      <trkpt lat="43.0651100" lon="-7.9186690">
        <ele>546.0</ele>
        <time>2021-07-25T08:42:05Z</time>
      </trkpt>
      <trkpt lat="43.0651090" lon="-7.9187060">
        <ele>546.4</ele>
        <time>2021-07-25T08:42:06Z</time>
      </trkpt>
      <trkpt lat="43.0651090" lon="-7.9187420">
        <ele>546.8</ele>
        <time>2021-07-25T08:42:07Z</time>
      </trkpt>
      <trkpt lat="43.0651080" lon="-7.9187740">
        <ele>547.4</ele>
        <time>2021-07-25T08:42:08Z</time>
      </trkpt>
      <trkpt lat="43.0650990" lon="-7.9188880">
        <ele>547.4</ele>
        <time>2021-07-25T08:42:12Z</time>
      </trkpt>
      <trkpt lat="43.0650850" lon="-7.9190480">
        <ele>547.4</ele>
        <time>2021-07-25T08:42:20Z</time>
      </trkpt>
      <trkpt lat="43.0650110" lon="-7.9191300">
        <ele>547.4</ele>
        <time>2021-07-25T08:42:25Z</time>
      </trkpt>
      <trkpt lat="43.0648310" lon="-7.9192760">
        <ele>547.8</ele>
        <time>2021-07-25T08:42:32Z</time>
      </trkpt>
      <trkpt lat="43.0647970" lon="-7.9192950">
        <ele>548.2</ele>
        <time>2021-07-25T08:42:33Z</time>
      </trkpt>
      <trkpt lat="43.0647630" lon="-7.9193110">
        <ele>548.6</ele>
        <time>2021-07-25T08:42:34Z</time>
      </trkpt>
      <trkpt lat="43.0647290" lon="-7.9193270">
        <ele>549.0</ele>
        <time>2021-07-25T08:42:35Z</time>
      </trkpt>
      <trkpt lat="43.0646960" lon="-7.9193430">
        <ele>549.4</ele>
        <time>2021-07-25T08:42:36Z</time>
      </trkpt>
      <trkpt lat="43.0645920" lon="-7.9193890">
        <ele>549.4</ele>
        <time>2021-07-25T08:42:39Z</time>
      </trkpt>
      <trkpt lat="43.0644780" lon="-7.9194430">
        <ele>549.4</ele>
        <time>2021-07-25T08:42:42Z</time>
      </trkpt>
      <trkpt lat="43.0643510" lon="-7.9194860">
        <ele>549.4</ele>
        <time>2021-07-25T08:42:45Z</time>
      </trkpt>
      <trkpt lat="43.0643090" lon="-7.9194940">
        <ele>549.4</ele>
        <time>2021-07-25T08:42:46Z</time>
      </trkpt>
      <trkpt lat="43.0642670" lon="-7.9194950">
        <ele>549.4</ele>
        <time>2021-07-25T08:42:47Z</time>
      </trkpt>
      <trkpt lat="43.0641930" lon="-7.9194860">
        <ele>549.4</ele>
        <time>2021-07-25T08:42:49Z</time>
      </trkpt>
      <trkpt lat="43.0641210" lon="-7.9194640">
        <ele>548.8</ele>
        <time>2021-07-25T08:42:51Z</time>
      </trkpt>
      <trkpt lat="43.0640960" lon="-7.9194550">
        <ele>548.4</ele>
        <time>2021-07-25T08:42:52Z</time>
      </trkpt>
      <trkpt lat="43.0640780" lon="-7.9194540">
        <ele>548.0</ele>
        <time>2021-07-25T08:42:53Z</time>
      </trkpt>
      <trkpt lat="43.0640640" lon="-7.9194580">
        <ele>547.6</ele>
        <time>2021-07-25T08:42:54Z</time>
      </trkpt>
      <trkpt lat="43.0640520" lon="-7.9194630">
        <ele>547.2</ele>
        <time>2021-07-25T08:42:55Z</time>
      </trkpt>
      <trkpt lat="43.0640380" lon="-7.9194760">
        <ele>547.2</ele>
        <time>2021-07-25T08:42:57Z</time>
      </trkpt>
      <trkpt lat="43.0640290" lon="-7.9194600">
        <ele>547.2</ele>
        <time>2021-07-25T08:43:12Z</time>
      </trkpt>
      <trkpt lat="43.0640050" lon="-7.9194290">
        <ele>547.2</ele>
        <time>2021-07-25T08:43:14Z</time>
      </trkpt>
      <trkpt lat="43.0639740" lon="-7.9193960">
        <ele>547.2</ele>
        <time>2021-07-25T08:43:16Z</time>
      </trkpt>
      <trkpt lat="43.0639310" lon="-7.9193590">
        <ele>547.2</ele>
        <time>2021-07-25T08:43:18Z</time>
      </trkpt>
      <trkpt lat="43.0639060" lon="-7.9193420">
        <ele>547.2</ele>
        <time>2021-07-25T08:43:19Z</time>
      </trkpt>
      <trkpt lat="43.0637960" lon="-7.9192560">
        <ele>547.2</ele>
        <time>2021-07-25T08:43:24Z</time>
      </trkpt>
      <trkpt lat="43.0637560" lon="-7.9192220">
        <ele>547.2</ele>
        <time>2021-07-25T08:43:26Z</time>
      </trkpt>
      <trkpt lat="43.0636830" lon="-7.9191650">
        <ele>547.2</ele>
        <time>2021-07-25T08:43:31Z</time>
      </trkpt>
      <trkpt lat="43.0636670" lon="-7.9191550">
        <ele>547.2</ele>
        <time>2021-07-25T08:43:32Z</time>
      </trkpt>
      <trkpt lat="43.0636200" lon="-7.9191240">
        <ele>547.2</ele>
        <time>2021-07-25T08:43:35Z</time>
      </trkpt>
      <trkpt lat="43.0635830" lon="-7.9190870">
        <ele>547.2</ele>
        <time>2021-07-25T08:43:38Z</time>
      </trkpt>
      <trkpt lat="43.0635700" lon="-7.9190740">
        <ele>547.2</ele>
        <time>2021-07-25T08:43:39Z</time>
      </trkpt>
      <trkpt lat="43.0635580" lon="-7.9190630">
        <ele>547.6</ele>
        <time>2021-07-25T08:43:40Z</time>
      </trkpt>
      <trkpt lat="43.0635450" lon="-7.9190540">
        <ele>548.0</ele>
        <time>2021-07-25T08:43:41Z</time>
      </trkpt>
      <trkpt lat="43.0635320" lon="-7.9190430">
        <ele>548.4</ele>
        <time>2021-07-25T08:43:42Z</time>
      </trkpt>
      <trkpt lat="43.0635200" lon="-7.9190320">
        <ele>548.8</ele>
        <time>2021-07-25T08:43:43Z</time>
      </trkpt>
      <trkpt lat="43.0635080" lon="-7.9190230">
        <ele>549.2</ele>
        <time>2021-07-25T08:43:44Z</time>
      </trkpt>
      <trkpt lat="43.0634600" lon="-7.9189830">
        <ele>549.2</ele>
        <time>2021-07-25T08:43:48Z</time>
      </trkpt>
      <trkpt lat="43.0633930" lon="-7.9189240">
        <ele>549.6</ele>
        <time>2021-07-25T08:43:54Z</time>
      </trkpt>
      <trkpt lat="43.0633800" lon="-7.9189180">
        <ele>550.0</ele>
        <time>2021-07-25T08:43:55Z</time>
      </trkpt>
      <trkpt lat="43.0633650" lon="-7.9189120">
        <ele>550.4</ele>
        <time>2021-07-25T08:43:56Z</time>
      </trkpt>
      <trkpt lat="43.0633510" lon="-7.9189080">
        <ele>550.8</ele>
        <time>2021-07-25T08:43:57Z</time>
      </trkpt>
      <trkpt lat="43.0633380" lon="-7.9189020">
        <ele>551.2</ele>
        <time>2021-07-25T08:43:58Z</time>
      </trkpt>
      <trkpt lat="43.0633100" lon="-7.9189050">
        <ele>551.2</ele>
        <time>2021-07-25T08:44:00Z</time>
      </trkpt>
      <trkpt lat="43.0632890" lon="-7.9189360">
        <ele>551.2</ele>
        <time>2021-07-25T08:44:02Z</time>
      </trkpt>
      <trkpt lat="43.0632600" lon="-7.9190260">
        <ele>551.6</ele>
        <time>2021-07-25T08:44:06Z</time>
      </trkpt>
      <trkpt lat="43.0632510" lon="-7.9190440">
        <ele>552.2</ele>
        <time>2021-07-25T08:44:07Z</time>
      </trkpt>
      <trkpt lat="43.0632410" lon="-7.9190620">
        <ele>552.6</ele>
        <time>2021-07-25T08:44:08Z</time>
      </trkpt>
      <trkpt lat="43.0632350" lon="-7.9190840">
        <ele>553.0</ele>
        <time>2021-07-25T08:44:09Z</time>
      </trkpt>
      <trkpt lat="43.0632310" lon="-7.9191040">
        <ele>553.4</ele>
        <time>2021-07-25T08:44:10Z</time>
      </trkpt>
      <trkpt lat="43.0632180" lon="-7.9191440">
        <ele>553.8</ele>
        <time>2021-07-25T08:44:12Z</time>
      </trkpt>
      <trkpt lat="43.0632100" lon="-7.9191600">
        <ele>554.2</ele>
        <time>2021-07-25T08:44:13Z</time>
      </trkpt>
      <trkpt lat="43.0632000" lon="-7.9191760">
        <ele>554.6</ele>
        <time>2021-07-25T08:44:14Z</time>
      </trkpt>
      <trkpt lat="43.0631920" lon="-7.9191910">
        <ele>555.0</ele>
        <time>2021-07-25T08:44:15Z</time>
      </trkpt>
      <trkpt lat="43.0631870" lon="-7.9192090">
        <ele>555.4</ele>
        <time>2021-07-25T08:44:16Z</time>
      </trkpt>
      <trkpt lat="43.0631850" lon="-7.9192230">
        <ele>555.4</ele>
        <time>2021-07-25T08:44:18Z</time>
      </trkpt>
      <trkpt lat="43.0627600" lon="-7.9192210">
        <ele>561.6</ele>
        <time>2021-07-25T08:45:10Z</time>
      </trkpt>
      <trkpt lat="43.0627470" lon="-7.9192190">
        <ele>561.6</ele>
        <time>2021-07-25T08:45:11Z</time>
      </trkpt>
      <trkpt lat="43.0626820" lon="-7.9191870">
        <ele>561.6</ele>
        <time>2021-07-25T08:45:18Z</time>
      </trkpt>
      <trkpt lat="43.0626660" lon="-7.9191770">
        <ele>562.0</ele>
        <time>2021-07-25T08:45:20Z</time>
      </trkpt>
      <trkpt lat="43.0626570" lon="-7.9191680">
        <ele>562.4</ele>
        <time>2021-07-25T08:45:21Z</time>
      </trkpt>
      <trkpt lat="43.0626490" lon="-7.9191600">
        <ele>562.8</ele>
        <time>2021-07-25T08:45:22Z</time>
      </trkpt>
      <trkpt lat="43.0626400" lon="-7.9191500">
        <ele>563.2</ele>
        <time>2021-07-25T08:45:23Z</time>
      </trkpt>
      <trkpt lat="43.0626300" lon="-7.9191420">
        <ele>563.6</ele>
        <time>2021-07-25T08:45:24Z</time>
      </trkpt>
      <trkpt lat="43.0625920" lon="-7.9191250">
        <ele>563.6</ele>
        <time>2021-07-25T08:45:28Z</time>
      </trkpt>
      <trkpt lat="43.0625230" lon="-7.9190810">
        <ele>564.0</ele>
        <time>2021-07-25T08:45:35Z</time>
      </trkpt>
      <trkpt lat="43.0625140" lon="-7.9190740">
        <ele>564.4</ele>
        <time>2021-07-25T08:45:36Z</time>
      </trkpt>
      <trkpt lat="43.0625060" lon="-7.9190690">
        <ele>565.0</ele>
        <time>2021-07-25T08:45:37Z</time>
      </trkpt>
      <trkpt lat="43.0624970" lon="-7.9190630">
        <ele>565.4</ele>
        <time>2021-07-25T08:45:38Z</time>
      </trkpt>
      <trkpt lat="43.0624870" lon="-7.9190580">
        <ele>565.8</ele>
        <time>2021-07-25T08:45:39Z</time>
      </trkpt>
      <trkpt lat="43.0624040" lon="-7.9190020">
        <ele>565.8</ele>
        <time>2021-07-25T08:45:48Z</time>
      </trkpt>
      <trkpt lat="43.0623730" lon="-7.9189790">
        <ele>566.2</ele>
        <time>2021-07-25T08:45:53Z</time>
      </trkpt>
      <trkpt lat="43.0623650" lon="-7.9189750">
        <ele>566.6</ele>
        <time>2021-07-25T08:45:54Z</time>
      </trkpt>
      <trkpt lat="43.0623560" lon="-7.9189660">
        <ele>567.0</ele>
        <time>2021-07-25T08:45:55Z</time>
      </trkpt>
      <trkpt lat="43.0623480" lon="-7.9189590">
        <ele>567.8</ele>
        <time>2021-07-25T08:45:56Z</time>
      </trkpt>
      <trkpt lat="43.0622690" lon="-7.9189050">
        <ele>567.8</ele>
        <time>2021-07-25T08:46:05Z</time>
      </trkpt>
      <trkpt lat="43.0622370" lon="-7.9188910">
        <ele>568.2</ele>
        <time>2021-07-25T08:46:08Z</time>
      </trkpt>
      <trkpt lat="43.0622240" lon="-7.9188900">
        <ele>568.8</ele>
        <time>2021-07-25T08:46:09Z</time>
      </trkpt>
      <trkpt lat="43.0622110" lon="-7.9188850">
        <ele>569.2</ele>
        <time>2021-07-25T08:46:10Z</time>
      </trkpt>
      <trkpt lat="43.0621990" lon="-7.9188800">
        <ele>569.6</ele>
        <time>2021-07-25T08:46:11Z</time>
      </trkpt>
      <trkpt lat="43.0621860" lon="-7.9188760">
        <ele>570.0</ele>
        <time>2021-07-25T08:46:12Z</time>
      </trkpt>
      <trkpt lat="43.0621690" lon="-7.9188770">
        <ele>570.0</ele>
        <time>2021-07-25T08:46:13Z</time>
      </trkpt>
      <trkpt lat="43.0620720" lon="-7.9188590">
        <ele>570.0</ele>
        <time>2021-07-25T08:46:22Z</time>
      </trkpt>
      <trkpt lat="43.0620620" lon="-7.9188570">
        <ele>570.4</ele>
        <time>2021-07-25T08:46:23Z</time>
      </trkpt>
      <trkpt lat="43.0620540" lon="-7.9188530">
        <ele>570.8</ele>
        <time>2021-07-25T08:46:24Z</time>
      </trkpt>
      <trkpt lat="43.0620440" lon="-7.9188510">
        <ele>571.4</ele>
        <time>2021-07-25T08:46:25Z</time>
      </trkpt>
      <trkpt lat="43.0620340" lon="-7.9188500">
        <ele>571.8</ele>
        <time>2021-07-25T08:46:26Z</time>
      </trkpt>
      <trkpt lat="43.0620230" lon="-7.9188530">
        <ele>572.2</ele>
        <time>2021-07-25T08:46:27Z</time>
      </trkpt>
      <trkpt lat="43.0619970" lon="-7.9188530">
        <ele>572.2</ele>
        <time>2021-07-25T08:46:30Z</time>
      </trkpt>
      <trkpt lat="43.0619330" lon="-7.9188880">
        <ele>572.2</ele>
        <time>2021-07-25T08:46:38Z</time>
      </trkpt>
      <trkpt lat="43.0619260" lon="-7.9188940">
        <ele>572.6</ele>
        <time>2021-07-25T08:46:39Z</time>
      </trkpt>
      <trkpt lat="43.0619170" lon="-7.9188990">
        <ele>573.0</ele>
        <time>2021-07-25T08:46:40Z</time>
      </trkpt>
      <trkpt lat="43.0619090" lon="-7.9189020">
        <ele>573.4</ele>
        <time>2021-07-25T08:46:41Z</time>
      </trkpt>
      <trkpt lat="43.0618960" lon="-7.9189030">
        <ele>573.8</ele>
        <time>2021-07-25T08:46:42Z</time>
      </trkpt>
      <trkpt lat="43.0618850" lon="-7.9189060">
        <ele>574.2</ele>
        <time>2021-07-25T08:46:43Z</time>
      </trkpt>
      <trkpt lat="43.0618560" lon="-7.9189170">
        <ele>574.2</ele>
        <time>2021-07-25T08:46:46Z</time>
      </trkpt>
      <trkpt lat="43.0617800" lon="-7.9189730">
        <ele>574.6</ele>
        <time>2021-07-25T08:46:54Z</time>
      </trkpt>
      <trkpt lat="43.0617720" lon="-7.9189770">
        <ele>575.0</ele>
        <time>2021-07-25T08:46:55Z</time>
      </trkpt>
      <trkpt lat="43.0617630" lon="-7.9189810">
        <ele>575.4</ele>
        <time>2021-07-25T08:46:56Z</time>
      </trkpt>
      <trkpt lat="43.0617540" lon="-7.9189840">
        <ele>575.8</ele>
        <time>2021-07-25T08:46:57Z</time>
      </trkpt>
      <trkpt lat="43.0617440" lon="-7.9189900">
        <ele>576.4</ele>
        <time>2021-07-25T08:46:58Z</time>
      </trkpt>
      <trkpt lat="43.0617030" lon="-7.9190240">
        <ele>576.4</ele>
        <time>2021-07-25T08:47:03Z</time>
      </trkpt>
      <trkpt lat="43.0616590" lon="-7.9190400">
        <ele>576.4</ele>
        <time>2021-07-25T08:47:08Z</time>
      </trkpt>
      <trkpt lat="43.0616140" lon="-7.9190670">
        <ele>577.6</ele>
        <time>2021-07-25T08:47:17Z</time>
      </trkpt>
      <trkpt lat="43.0616030" lon="-7.9190710">
        <ele>578.0</ele>
        <time>2021-07-25T08:47:18Z</time>
      </trkpt>
      <trkpt lat="43.0615910" lon="-7.9190750">
        <ele>578.4</ele>
        <time>2021-07-25T08:47:19Z</time>
      </trkpt>
      <trkpt lat="43.0615070" lon="-7.9191220">
        <ele>578.4</ele>
        <time>2021-07-25T08:47:27Z</time>
      </trkpt>
      <trkpt lat="43.0614540" lon="-7.9191440">
        <ele>578.8</ele>
        <time>2021-07-25T08:47:32Z</time>
      </trkpt>
      <trkpt lat="43.0614420" lon="-7.9191500">
        <ele>579.2</ele>
        <time>2021-07-25T08:47:33Z</time>
      </trkpt>
      <trkpt lat="43.0614320" lon="-7.9191560">
        <ele>579.6</ele>
        <time>2021-07-25T08:47:34Z</time>
      </trkpt>
      <trkpt lat="43.0614220" lon="-7.9191630">
        <ele>580.4</ele>
        <time>2021-07-25T08:47:35Z</time>
      </trkpt>
      <trkpt lat="43.0614130" lon="-7.9191700">
        <ele>580.4</ele>
        <time>2021-07-25T08:47:36Z</time>
      </trkpt>
      <trkpt lat="43.0613050" lon="-7.9192050">
        <ele>580.4</ele>
        <time>2021-07-25T08:47:46Z</time>
      </trkpt>
      <trkpt lat="43.0612820" lon="-7.9192210">
        <ele>580.8</ele>
        <time>2021-07-25T08:47:48Z</time>
      </trkpt>
      <trkpt lat="43.0612720" lon="-7.9192240">
        <ele>581.2</ele>
        <time>2021-07-25T08:47:49Z</time>
      </trkpt>
      <trkpt lat="43.0612620" lon="-7.9192250">
        <ele>581.6</ele>
        <time>2021-07-25T08:47:50Z</time>
      </trkpt>
      <trkpt lat="43.0612490" lon="-7.9192250">
        <ele>582.0</ele>
        <time>2021-07-25T08:47:51Z</time>
      </trkpt>
      <trkpt lat="43.0612370" lon="-7.9192260">
        <ele>582.4</ele>
        <time>2021-07-25T08:47:52Z</time>
      </trkpt>
      <trkpt lat="43.0612060" lon="-7.9192270">
        <ele>582.4</ele>
        <time>2021-07-25T08:47:55Z</time>
      </trkpt>
      <trkpt lat="43.0611010" lon="-7.9192280">
        <ele>582.4</ele>
        <time>2021-07-25T08:48:04Z</time>
      </trkpt>
      <trkpt lat="43.0610640" lon="-7.9192230">
        <ele>582.8</ele>
        <time>2021-07-25T08:48:07Z</time>
      </trkpt>
      <trkpt lat="43.0610500" lon="-7.9192250">
        <ele>583.2</ele>
        <time>2021-07-25T08:48:08Z</time>
      </trkpt>
      <trkpt lat="43.0610390" lon="-7.9192240">
        <ele>583.6</ele>
        <time>2021-07-25T08:48:09Z</time>
      </trkpt>
      <trkpt lat="43.0610260" lon="-7.9192280">
        <ele>584.0</ele>
        <time>2021-07-25T08:48:10Z</time>
      </trkpt>
      <trkpt lat="43.0610150" lon="-7.9192320">
        <ele>584.4</ele>
        <time>2021-07-25T08:48:11Z</time>
      </trkpt>
      <trkpt lat="43.0609390" lon="-7.9192300">
        <ele>584.4</ele>
        <time>2021-07-25T08:48:18Z</time>
      </trkpt>
      <trkpt lat="43.0608630" lon="-7.9192390">
        <ele>584.4</ele>
        <time>2021-07-25T08:48:24Z</time>
      </trkpt>
      <trkpt lat="43.0608360" lon="-7.9192300">
        <ele>584.4</ele>
        <time>2021-07-25T08:48:27Z</time>
      </trkpt>
      <trkpt lat="43.0608300" lon="-7.9192300">
        <ele>584.4</ele>
        <time>2021-07-25T08:48:29Z</time>
      </trkpt>
      <trkpt lat="43.0607690" lon="-7.9192260">
        <ele>585.4</ele>
        <time>2021-07-25T08:48:39Z</time>
      </trkpt>
      <trkpt lat="43.0607550" lon="-7.9192290">
        <ele>585.8</ele>
        <time>2021-07-25T08:48:40Z</time>
      </trkpt>
      <trkpt lat="43.0607360" lon="-7.9192310">
        <ele>586.2</ele>
        <time>2021-07-25T08:48:41Z</time>
      </trkpt>
      <trkpt lat="43.0607140" lon="-7.9192330">
        <ele>586.6</ele>
        <time>2021-07-25T08:48:42Z</time>
      </trkpt>
      <trkpt lat="43.0605620" lon="-7.9192350">
        <ele>586.6</ele>
        <time>2021-07-25T08:48:50Z</time>
      </trkpt>
      <trkpt lat="43.0604460" lon="-7.9192490">
        <ele>586.6</ele>
        <time>2021-07-25T08:48:56Z</time>
      </trkpt>
      <trkpt lat="43.0603670" lon="-7.9192610">
        <ele>587.0</ele>
        <time>2021-07-25T08:49:00Z</time>
      </trkpt>
      <trkpt lat="43.0603440" lon="-7.9192670">
        <ele>587.4</ele>
        <time>2021-07-25T08:49:01Z</time>
      </trkpt>
      <trkpt lat="43.0603260" lon="-7.9192700">
        <ele>587.8</ele>
        <time>2021-07-25T08:49:02Z</time>
      </trkpt>
      <trkpt lat="43.0603060" lon="-7.9192730">
        <ele>588.2</ele>
        <time>2021-07-25T08:49:03Z</time>
      </trkpt>
      <trkpt lat="43.0602850" lon="-7.9192730">
        <ele>588.6</ele>
        <time>2021-07-25T08:49:04Z</time>
      </trkpt>
      <trkpt lat="43.0601980" lon="-7.9192830">
        <ele>588.6</ele>
        <time>2021-07-25T08:49:09Z</time>
      </trkpt>
      <trkpt lat="43.0601810" lon="-7.9192850">
        <ele>588.6</ele>
        <time>2021-07-25T08:49:10Z</time>
      </trkpt>
      <trkpt lat="43.0600370" lon="-7.9193070">
        <ele>588.6</ele>
        <time>2021-07-25T08:49:17Z</time>
      </trkpt>
      <trkpt lat="43.0599960" lon="-7.9193090">
        <ele>589.0</ele>
        <time>2021-07-25T08:49:19Z</time>
      </trkpt>
      <trkpt lat="43.0599820" lon="-7.9193090">
        <ele>589.4</ele>
        <time>2021-07-25T08:49:20Z</time>
      </trkpt>
      <trkpt lat="43.0599680" lon="-7.9193060">
        <ele>589.8</ele>
        <time>2021-07-25T08:49:21Z</time>
      </trkpt>
      <trkpt lat="43.0599540" lon="-7.9193040">
        <ele>590.2</ele>
        <time>2021-07-25T08:49:22Z</time>
      </trkpt>
      <trkpt lat="43.0599360" lon="-7.9193040">
        <ele>590.6</ele>
        <time>2021-07-25T08:49:23Z</time>
      </trkpt>
      <trkpt lat="43.0599160" lon="-7.9193050">
        <ele>590.6</ele>
        <time>2021-07-25T08:49:24Z</time>
      </trkpt>
      <trkpt lat="43.0597650" lon="-7.9193240">
        <ele>590.6</ele>
        <time>2021-07-25T08:49:32Z</time>
      </trkpt>
      <trkpt lat="43.0596730" lon="-7.9193390">
        <ele>591.0</ele>
        <time>2021-07-25T08:49:37Z</time>
      </trkpt>
      <trkpt lat="43.0596590" lon="-7.9193410">
        <ele>591.8</ele>
        <time>2021-07-25T08:49:38Z</time>
      </trkpt>
      <trkpt lat="43.0596410" lon="-7.9193460">
        <ele>592.2</ele>
        <time>2021-07-25T08:49:39Z</time>
      </trkpt>
      <trkpt lat="43.0596260" lon="-7.9193450">
        <ele>592.8</ele>
        <time>2021-07-25T08:49:40Z</time>
      </trkpt>
      <trkpt lat="43.0595410" lon="-7.9193420">
        <ele>592.8</ele>
        <time>2021-07-25T08:49:45Z</time>
      </trkpt>
      <trkpt lat="43.0594040" lon="-7.9193500">
        <ele>593.2</ele>
        <time>2021-07-25T08:49:53Z</time>
      </trkpt>
      <trkpt lat="43.0593840" lon="-7.9193530">
        <ele>593.6</ele>
        <time>2021-07-25T08:49:54Z</time>
      </trkpt>
      <trkpt lat="43.0593680" lon="-7.9193570">
        <ele>594.0</ele>
        <time>2021-07-25T08:49:55Z</time>
      </trkpt>
      <trkpt lat="43.0593510" lon="-7.9193560">
        <ele>594.4</ele>
        <time>2021-07-25T08:49:56Z</time>
      </trkpt>
      <trkpt lat="43.0593350" lon="-7.9193570">
        <ele>594.8</ele>
        <time>2021-07-25T08:49:57Z</time>
      </trkpt>
      <trkpt lat="43.0592950" lon="-7.9193700">
        <ele>594.8</ele>
        <time>2021-07-25T08:50:00Z</time>
      </trkpt>
      <trkpt lat="43.0591880" lon="-7.9193760">
        <ele>594.8</ele>
        <time>2021-07-25T08:50:07Z</time>
      </trkpt>
      <trkpt lat="43.0591360" lon="-7.9193810">
        <ele>595.2</ele>
        <time>2021-07-25T08:50:11Z</time>
      </trkpt>
      <trkpt lat="43.0591230" lon="-7.9193820">
        <ele>595.6</ele>
        <time>2021-07-25T08:50:12Z</time>
      </trkpt>
      <trkpt lat="43.0591100" lon="-7.9193800">
        <ele>596.0</ele>
        <time>2021-07-25T08:50:13Z</time>
      </trkpt>
      <trkpt lat="43.0590950" lon="-7.9193810">
        <ele>596.4</ele>
        <time>2021-07-25T08:50:14Z</time>
      </trkpt>
      <trkpt lat="43.0590810" lon="-7.9193830">
        <ele>596.8</ele>
        <time>2021-07-25T08:50:15Z</time>
      </trkpt>
      <trkpt lat="43.0589690" lon="-7.9193970">
        <ele>596.8</ele>
        <time>2021-07-25T08:50:23Z</time>
      </trkpt>
      <trkpt lat="43.0588990" lon="-7.9193960">
        <ele>597.6</ele>
        <time>2021-07-25T08:50:28Z</time>
      </trkpt>
      <trkpt lat="43.0588840" lon="-7.9193980">
        <ele>598.0</ele>
        <time>2021-07-25T08:50:29Z</time>
      </trkpt>
      <trkpt lat="43.0588720" lon="-7.9193980">
        <ele>598.4</ele>
        <time>2021-07-25T08:50:30Z</time>
      </trkpt>
      <trkpt lat="43.0588580" lon="-7.9193980">
        <ele>598.8</ele>
        <time>2021-07-25T08:50:31Z</time>
      </trkpt>
      <trkpt lat="43.0588330" lon="-7.9193990">
        <ele>598.8</ele>
        <time>2021-07-25T08:50:33Z</time>
      </trkpt>
      <trkpt lat="43.0587200" lon="-7.9194050">
        <ele>598.8</ele>
        <time>2021-07-25T08:50:41Z</time>
      </trkpt>
      <trkpt lat="43.0586660" lon="-7.9194110">
        <ele>599.4</ele>
        <time>2021-07-25T08:50:45Z</time>
      </trkpt>
      <trkpt lat="43.0586520" lon="-7.9194140">
        <ele>599.8</ele>
        <time>2021-07-25T08:50:46Z</time>
      </trkpt>
      <trkpt lat="43.0586390" lon="-7.9194190">
        <ele>600.2</ele>
        <time>2021-07-25T08:50:47Z</time>
      </trkpt>
      <trkpt lat="43.0586250" lon="-7.9194210">
        <ele>600.6</ele>
        <time>2021-07-25T08:50:48Z</time>
      </trkpt>
      <trkpt lat="43.0586100" lon="-7.9194240">
        <ele>601.0</ele>
        <time>2021-07-25T08:50:49Z</time>
      </trkpt>
      <trkpt lat="43.0585320" lon="-7.9194320">
        <ele>601.0</ele>
        <time>2021-07-25T08:50:55Z</time>
      </trkpt>
      <trkpt lat="43.0584510" lon="-7.9194370">
        <ele>601.0</ele>
        <time>2021-07-25T08:51:01Z</time>
      </trkpt>
      <trkpt lat="43.0584290" lon="-7.9194270">
        <ele>601.4</ele>
        <time>2021-07-25T08:51:03Z</time>
      </trkpt>
      <trkpt lat="43.0584170" lon="-7.9194240">
        <ele>601.8</ele>
        <time>2021-07-25T08:51:04Z</time>
      </trkpt>
      <trkpt lat="43.0584050" lon="-7.9194210">
        <ele>602.2</ele>
        <time>2021-07-25T08:51:05Z</time>
      </trkpt>
      <trkpt lat="43.0583950" lon="-7.9194190">
        <ele>602.6</ele>
        <time>2021-07-25T08:51:06Z</time>
      </trkpt>
      <trkpt lat="43.0583840" lon="-7.9194170">
        <ele>603.0</ele>
        <time>2021-07-25T08:51:07Z</time>
      </trkpt>
      <trkpt lat="43.0583570" lon="-7.9194060">
        <ele>603.0</ele>
        <time>2021-07-25T08:51:09Z</time>
      </trkpt>
      <trkpt lat="43.0583260" lon="-7.9194010">
        <ele>603.0</ele>
        <time>2021-07-25T08:51:12Z</time>
      </trkpt>
      <trkpt lat="43.0582810" lon="-7.9194040">
        <ele>603.0</ele>
        <time>2021-07-25T08:51:16Z</time>
      </trkpt>
      <trkpt lat="43.0582700" lon="-7.9194080">
        <ele>603.4</ele>
        <time>2021-07-25T08:51:17Z</time>
      </trkpt>
      <trkpt lat="43.0582550" lon="-7.9194140">
        <ele>603.8</ele>
        <time>2021-07-25T08:51:18Z</time>
      </trkpt>
      <trkpt lat="43.0582390" lon="-7.9194200">
        <ele>604.4</ele>
        <time>2021-07-25T08:51:19Z</time>
      </trkpt>
      <trkpt lat="43.0582240" lon="-7.9194280">
        <ele>604.8</ele>
        <time>2021-07-25T08:51:20Z</time>
      </trkpt>
      <trkpt lat="43.0582090" lon="-7.9194360">
        <ele>605.2</ele>
        <time>2021-07-25T08:51:21Z</time>
      </trkpt>
      <trkpt lat="43.0581700" lon="-7.9194560">
        <ele>605.2</ele>
        <time>2021-07-25T08:51:24Z</time>
      </trkpt>
      <trkpt lat="43.0580710" lon="-7.9194970">
        <ele>605.6</ele>
        <time>2021-07-25T08:51:31Z</time>
      </trkpt>
      <trkpt lat="43.0580570" lon="-7.9195010">
        <ele>606.0</ele>
        <time>2021-07-25T08:51:32Z</time>
      </trkpt>
      <trkpt lat="43.0580430" lon="-7.9195050">
        <ele>606.4</ele>
        <time>2021-07-25T08:51:33Z</time>
      </trkpt>
      <trkpt lat="43.0580280" lon="-7.9195080">
        <ele>606.8</ele>
        <time>2021-07-25T08:51:34Z</time>
      </trkpt>
      <trkpt lat="43.0580130" lon="-7.9195080">
        <ele>607.2</ele>
        <time>2021-07-25T08:51:35Z</time>
      </trkpt>
      <trkpt lat="43.0579740" lon="-7.9195190">
        <ele>607.2</ele>
        <time>2021-07-25T08:51:38Z</time>
      </trkpt>
      <trkpt lat="43.0578840" lon="-7.9195400">
        <ele>607.8</ele>
        <time>2021-07-25T08:51:45Z</time>
      </trkpt>
      <trkpt lat="43.0578680" lon="-7.9195420">
        <ele>608.2</ele>
        <time>2021-07-25T08:51:46Z</time>
      </trkpt>
      <trkpt lat="43.0578520" lon="-7.9195430">
        <ele>608.6</ele>
        <time>2021-07-25T08:51:47Z</time>
      </trkpt>
      <trkpt lat="43.0578360" lon="-7.9195440">
        <ele>609.0</ele>
        <time>2021-07-25T08:51:48Z</time>
      </trkpt>
      <trkpt lat="43.0578180" lon="-7.9195480">
        <ele>609.4</ele>
        <time>2021-07-25T08:51:49Z</time>
      </trkpt>
      <trkpt lat="43.0577510" lon="-7.9195580">
        <ele>609.4</ele>
        <time>2021-07-25T08:51:53Z</time>
      </trkpt>
      <trkpt lat="43.0576930" lon="-7.9195680">
        <ele>609.8</ele>
        <time>2021-07-25T08:51:57Z</time>
      </trkpt>
      <trkpt lat="43.0576780" lon="-7.9195670">
        <ele>610.2</ele>
        <time>2021-07-25T08:51:58Z</time>
      </trkpt>
      <trkpt lat="43.0576640" lon="-7.9195660">
        <ele>610.6</ele>
        <time>2021-07-25T08:51:59Z</time>
      </trkpt>
      <trkpt lat="43.0576480" lon="-7.9195680">
        <ele>611.0</ele>
        <time>2021-07-25T08:52:00Z</time>
      </trkpt>
      <trkpt lat="43.0576320" lon="-7.9195700">
        <ele>611.4</ele>
        <time>2021-07-25T08:52:01Z</time>
      </trkpt>
      <trkpt lat="43.0575160" lon="-7.9195850">
        <ele>611.4</ele>
        <time>2021-07-25T08:52:08Z</time>
      </trkpt>
      <trkpt lat="43.0574370" lon="-7.9195830">
        <ele>611.8</ele>
        <time>2021-07-25T08:52:13Z</time>
      </trkpt>
      <trkpt lat="43.0574210" lon="-7.9195860">
        <ele>612.2</ele>
        <time>2021-07-25T08:52:14Z</time>
      </trkpt>
      <trkpt lat="43.0574050" lon="-7.9195840">
        <ele>612.6</ele>
        <time>2021-07-25T08:52:15Z</time>
      </trkpt>
      <trkpt lat="43.0573880" lon="-7.9195840">
        <ele>613.0</ele>
        <time>2021-07-25T08:52:16Z</time>
      </trkpt>
      <trkpt lat="43.0573720" lon="-7.9195830">
        <ele>613.4</ele>
        <time>2021-07-25T08:52:17Z</time>
      </trkpt>
      <trkpt lat="43.0572270" lon="-7.9195940">
        <ele>613.4</ele>
        <time>2021-07-25T08:52:26Z</time>
      </trkpt>
      <trkpt lat="43.0571040" lon="-7.9196110">
        <ele>614.0</ele>
        <time>2021-07-25T08:52:34Z</time>
      </trkpt>
      <trkpt lat="43.0570840" lon="-7.9196120">
        <ele>614.4</ele>
        <time>2021-07-25T08:52:35Z</time>
      </trkpt>
      <trkpt lat="43.0570660" lon="-7.9196110">
        <ele>614.8</ele>
        <time>2021-07-25T08:52:36Z</time>
      </trkpt>
      <trkpt lat="43.0570500" lon="-7.9196110">
        <ele>615.2</ele>
        <time>2021-07-25T08:52:37Z</time>
      </trkpt>
      <trkpt lat="43.0570320" lon="-7.9196120">
        <ele>615.6</ele>
        <time>2021-07-25T08:52:38Z</time>
      </trkpt>
      <trkpt lat="43.0569210" lon="-7.9196140">
        <ele>615.6</ele>
        <time>2021-07-25T08:52:44Z</time>
      </trkpt>
      <trkpt lat="43.0567740" lon="-7.9196060">
        <ele>615.6</ele>
        <time>2021-07-25T08:52:52Z</time>
      </trkpt>
      <trkpt lat="43.0567550" lon="-7.9196040">
        <ele>616.0</ele>
        <time>2021-07-25T08:52:53Z</time>
      </trkpt>
      <trkpt lat="43.0567370" lon="-7.9196050">
        <ele>616.4</ele>
        <time>2021-07-25T08:52:54Z</time>
      </trkpt>
      <trkpt lat="43.0567170" lon="-7.9196070">
        <ele>616.8</ele>
        <time>2021-07-25T08:52:55Z</time>
      </trkpt>
      <trkpt lat="43.0566990" lon="-7.9196100">
        <ele>617.2</ele>
        <time>2021-07-25T08:52:56Z</time>
      </trkpt>
      <trkpt lat="43.0566790" lon="-7.9196130">
        <ele>617.6</ele>
        <time>2021-07-25T08:52:57Z</time>
      </trkpt>
      <trkpt lat="43.0565760" lon="-7.9196150">
        <ele>617.6</ele>
        <time>2021-07-25T08:53:02Z</time>
      </trkpt>
      <trkpt lat="43.0563950" lon="-7.9196210">
        <ele>617.6</ele>
        <time>2021-07-25T08:53:09Z</time>
      </trkpt>
      <trkpt lat="43.0561900" lon="-7.9195610">
        <ele>617.6</ele>
        <time>2021-07-25T08:53:17Z</time>
      </trkpt>
      <trkpt lat="43.0560590" lon="-7.9195020">
        <ele>618.0</ele>
        <time>2021-07-25T08:53:23Z</time>
      </trkpt>
      <trkpt lat="43.0560350" lon="-7.9194950">
        <ele>618.4</ele>
        <time>2021-07-25T08:53:24Z</time>
      </trkpt>
      <trkpt lat="43.0560120" lon="-7.9194890">
        <ele>619.0</ele>
        <time>2021-07-25T08:53:25Z</time>
      </trkpt>
      <trkpt lat="43.0559880" lon="-7.9194800">
        <ele>619.4</ele>
        <time>2021-07-25T08:53:26Z</time>
      </trkpt>
      <trkpt lat="43.0559620" lon="-7.9194700">
        <ele>619.8</ele>
        <time>2021-07-25T08:53:27Z</time>
      </trkpt>
      <trkpt lat="43.0558710" lon="-7.9194390">
        <ele>619.8</ele>
        <time>2021-07-25T08:53:31Z</time>
      </trkpt>
      <trkpt lat="43.0556580" lon="-7.9193130">
        <ele>619.8</ele>
        <time>2021-07-25T08:53:41Z</time>
      </trkpt>
      <trkpt lat="43.0555840" lon="-7.9192730">
        <ele>619.8</ele>
        <time>2021-07-25T08:53:45Z</time>
      </trkpt>
      <trkpt lat="43.0555630" lon="-7.9192620">
        <ele>620.2</ele>
        <time>2021-07-25T08:53:46Z</time>
      </trkpt>
      <trkpt lat="43.0555450" lon="-7.9192470">
        <ele>620.6</ele>
        <time>2021-07-25T08:53:47Z</time>
      </trkpt>
      <trkpt lat="43.0555260" lon="-7.9192310">
        <ele>621.0</ele>
        <time>2021-07-25T08:53:48Z</time>
      </trkpt>
      <trkpt lat="43.0555090" lon="-7.9192120">
        <ele>621.4</ele>
        <time>2021-07-25T08:53:49Z</time>
      </trkpt>
      <trkpt lat="43.0554910" lon="-7.9191950">
        <ele>621.8</ele>
        <time>2021-07-25T08:53:50Z</time>
      </trkpt>
      <trkpt lat="43.0553720" lon="-7.9191210">
        <ele>621.8</ele>
        <time>2021-07-25T08:53:56Z</time>
      </trkpt>
      <trkpt lat="43.0552210" lon="-7.9190050">
        <ele>621.8</ele>
        <time>2021-07-25T08:54:05Z</time>
      </trkpt>
      <trkpt lat="43.0552050" lon="-7.9189910">
        <ele>622.2</ele>
        <time>2021-07-25T08:54:06Z</time>
      </trkpt>
      <trkpt lat="43.0551890" lon="-7.9189740">
        <ele>622.6</ele>
        <time>2021-07-25T08:54:07Z</time>
      </trkpt>
      <trkpt lat="43.0551730" lon="-7.9189560">
        <ele>623.0</ele>
        <time>2021-07-25T08:54:08Z</time>
      </trkpt>
      <trkpt lat="43.0551580" lon="-7.9189360">
        <ele>623.6</ele>
        <time>2021-07-25T08:54:09Z</time>
      </trkpt>
      <trkpt lat="43.0551420" lon="-7.9189220">
        <ele>624.0</ele>
        <time>2021-07-25T08:54:10Z</time>
      </trkpt>
      <trkpt lat="43.0550940" lon="-7.9188830">
        <ele>624.0</ele>
        <time>2021-07-25T08:54:13Z</time>
      </trkpt>
      <trkpt lat="43.0549690" lon="-7.9187570">
        <ele>624.0</ele>
        <time>2021-07-25T08:54:22Z</time>
      </trkpt>
      <trkpt lat="43.0549240" lon="-7.9187060">
        <ele>624.4</ele>
        <time>2021-07-25T08:54:25Z</time>
      </trkpt>
      <trkpt lat="43.0549120" lon="-7.9186860">
        <ele>624.8</ele>
        <time>2021-07-25T08:54:26Z</time>
      </trkpt>
      <trkpt lat="43.0548980" lon="-7.9186710">
        <ele>625.2</ele>
        <time>2021-07-25T08:54:27Z</time>
      </trkpt>
      <trkpt lat="43.0548800" lon="-7.9186570">
        <ele>625.6</ele>
        <time>2021-07-25T08:54:28Z</time>
      </trkpt>
      <trkpt lat="43.0548660" lon="-7.9186420">
        <ele>626.0</ele>
        <time>2021-07-25T08:54:29Z</time>
      </trkpt>
      <trkpt lat="43.0547740" lon="-7.9185430">
        <ele>626.0</ele>
        <time>2021-07-25T08:54:35Z</time>
      </trkpt>
      <trkpt lat="43.0546360" lon="-7.9183930">
        <ele>626.0</ele>
        <time>2021-07-25T08:54:43Z</time>
      </trkpt>
      <trkpt lat="43.0544910" lon="-7.9182730">
        <ele>626.0</ele>
        <time>2021-07-25T08:54:49Z</time>
      </trkpt>
      <trkpt lat="43.0543240" lon="-7.9181080">
        <ele>626.0</ele>
        <time>2021-07-25T08:54:56Z</time>
      </trkpt>
      <trkpt lat="43.0543030" lon="-7.9180850">
        <ele>626.0</ele>
        <time>2021-07-25T08:54:57Z</time>
      </trkpt>
      <trkpt lat="43.0542020" lon="-7.9179930">
        <ele>626.0</ele>
        <time>2021-07-25T08:55:01Z</time>
      </trkpt>
      <trkpt lat="43.0541200" lon="-7.9179440">
        <ele>626.0</ele>
        <time>2021-07-25T08:55:04Z</time>
      </trkpt>
      <trkpt lat="43.0540190" lon="-7.9178860">
        <ele>626.0</ele>
        <time>2021-07-25T08:55:07Z</time>
      </trkpt>
      <trkpt lat="43.0539330" lon="-7.9177930">
        <ele>626.0</ele>
        <time>2021-07-25T08:55:10Z</time>
      </trkpt>
      <trkpt lat="43.0537860" lon="-7.9176680">
        <ele>626.0</ele>
        <time>2021-07-25T08:55:14Z</time>
      </trkpt>
      <trkpt lat="43.0537520" lon="-7.9176270">
        <ele>626.0</ele>
        <time>2021-07-25T08:55:15Z</time>
      </trkpt>
      <trkpt lat="43.0536880" lon="-7.9175420">
        <ele>626.0</ele>
        <time>2021-07-25T08:55:17Z</time>
      </trkpt>
      <trkpt lat="43.0535060" lon="-7.9171890">
        <ele>626.0</ele>
        <time>2021-07-25T08:55:25Z</time>
      </trkpt>
      <trkpt lat="43.0533960" lon="-7.9169430">
        <ele>626.0</ele>
        <time>2021-07-25T08:55:30Z</time>
      </trkpt>
      <trkpt lat="43.0533490" lon="-7.9168400">
        <ele>626.0</ele>
        <time>2021-07-25T08:55:32Z</time>
      </trkpt>
      <trkpt lat="43.0532540" lon="-7.9165810">
        <ele>626.0</ele>
        <time>2021-07-25T08:55:37Z</time>
      </trkpt>
      <trkpt lat="43.0531980" lon="-7.9164450">
        <ele>626.0</ele>
        <time>2021-07-25T08:55:40Z</time>
      </trkpt>
      <trkpt lat="43.0530550" lon="-7.9161460">
        <ele>626.0</ele>
        <time>2021-07-25T08:55:47Z</time>
      </trkpt>
      <trkpt lat="43.0530300" lon="-7.9161040">
        <ele>626.0</ele>
        <time>2021-07-25T08:55:48Z</time>
      </trkpt>
      <trkpt lat="43.0528170" lon="-7.9158140">
        <ele>626.0</ele>
        <time>2021-07-25T08:55:55Z</time>
      </trkpt>
      <trkpt lat="43.0526440" lon="-7.9156290">
        <ele>626.0</ele>
        <time>2021-07-25T08:56:00Z</time>
      </trkpt>
      <trkpt lat="43.0525810" lon="-7.9155560">
        <ele>626.0</ele>
        <time>2021-07-25T08:56:02Z</time>
      </trkpt>
      <trkpt lat="43.0525490" lon="-7.9155240">
        <ele>626.0</ele>
        <time>2021-07-25T08:56:03Z</time>
      </trkpt>
      <trkpt lat="43.0523880" lon="-7.9153640">
        <ele>625.6</ele>
        <time>2021-07-25T08:56:08Z</time>
      </trkpt>
      <trkpt lat="43.0523590" lon="-7.9153310">
        <ele>625.2</ele>
        <time>2021-07-25T08:56:09Z</time>
      </trkpt>
      <trkpt lat="43.0523300" lon="-7.9153010">
        <ele>624.8</ele>
        <time>2021-07-25T08:56:10Z</time>
      </trkpt>
      <trkpt lat="43.0523020" lon="-7.9152680">
        <ele>624.4</ele>
        <time>2021-07-25T08:56:11Z</time>
      </trkpt>
      <trkpt lat="43.0522730" lon="-7.9152370">
        <ele>624.0</ele>
        <time>2021-07-25T08:56:12Z</time>
      </trkpt>
      <trkpt lat="43.0519540" lon="-7.9148950">
        <ele>624.0</ele>
        <time>2021-07-25T08:56:23Z</time>
      </trkpt>
      <trkpt lat="43.0518990" lon="-7.9148280">
        <ele>624.0</ele>
        <time>2021-07-25T08:56:25Z</time>
      </trkpt>
      <trkpt lat="43.0516970" lon="-7.9146210">
        <ele>624.0</ele>
        <time>2021-07-25T08:56:31Z</time>
      </trkpt>
      <trkpt lat="43.0515270" lon="-7.9144840">
        <ele>623.4</ele>
        <time>2021-07-25T08:56:35Z</time>
      </trkpt>
      <trkpt lat="43.0514800" lon="-7.9144500">
        <ele>623.0</ele>
        <time>2021-07-25T08:56:36Z</time>
      </trkpt>
      <trkpt lat="43.0514320" lon="-7.9144180">
        <ele>622.6</ele>
        <time>2021-07-25T08:56:37Z</time>
      </trkpt>
      <trkpt lat="43.0513750" lon="-7.9143860">
        <ele>622.2</ele>
        <time>2021-07-25T08:56:38Z</time>
      </trkpt>
      <trkpt lat="43.0513240" lon="-7.9143510">
        <ele>621.8</ele>
        <time>2021-07-25T08:56:39Z</time>
      </trkpt>
      <trkpt lat="43.0511630" lon="-7.9142540">
        <ele>621.8</ele>
        <time>2021-07-25T08:56:42Z</time>
      </trkpt>
      <trkpt lat="43.0510580" lon="-7.9141880">
        <ele>621.8</ele>
        <time>2021-07-25T08:56:44Z</time>
      </trkpt>
      <trkpt lat="43.0508460" lon="-7.9140750">
        <ele>621.8</ele>
        <time>2021-07-25T08:56:48Z</time>
      </trkpt>
      <trkpt lat="43.0506920" lon="-7.9139890">
        <ele>621.8</ele>
        <time>2021-07-25T08:56:51Z</time>
      </trkpt>
      <trkpt lat="43.0504830" lon="-7.9138520">
        <ele>621.2</ele>
        <time>2021-07-25T08:56:55Z</time>
      </trkpt>
      <trkpt lat="43.0504350" lon="-7.9138150">
        <ele>620.8</ele>
        <time>2021-07-25T08:56:56Z</time>
      </trkpt>
      <trkpt lat="43.0503860" lon="-7.9137790">
        <ele>620.4</ele>
        <time>2021-07-25T08:56:57Z</time>
      </trkpt>
      <trkpt lat="43.0503390" lon="-7.9137420">
        <ele>620.0</ele>
        <time>2021-07-25T08:56:58Z</time>
      </trkpt>
      <trkpt lat="43.0502900" lon="-7.9137080">
        <ele>619.6</ele>
        <time>2021-07-25T08:56:59Z</time>
      </trkpt>
      <trkpt lat="43.0502410" lon="-7.9136760">
        <ele>619.6</ele>
        <time>2021-07-25T08:57:00Z</time>
      </trkpt>
      <trkpt lat="43.0499600" lon="-7.9134430">
        <ele>619.6</ele>
        <time>2021-07-25T08:57:06Z</time>
      </trkpt>
      <trkpt lat="43.0497060" lon="-7.9131990">
        <ele>619.2</ele>
        <time>2021-07-25T08:57:11Z</time>
      </trkpt>
      <trkpt lat="43.0496540" lon="-7.9131480">
        <ele>618.6</ele>
        <time>2021-07-25T08:57:12Z</time>
      </trkpt>
      <trkpt lat="43.0496020" lon="-7.9130930">
        <ele>618.2</ele>
        <time>2021-07-25T08:57:13Z</time>
      </trkpt>
      <trkpt lat="43.0495470" lon="-7.9130390">
        <ele>617.8</ele>
        <time>2021-07-25T08:57:14Z</time>
      </trkpt>
      <trkpt lat="43.0494870" lon="-7.9129820">
        <ele>617.4</ele>
        <time>2021-07-25T08:57:15Z</time>
      </trkpt>
      <trkpt lat="43.0491960" lon="-7.9127010">
        <ele>617.0</ele>
        <time>2021-07-25T08:57:20Z</time>
      </trkpt>
      <trkpt lat="43.0491380" lon="-7.9126450">
        <ele>616.6</ele>
        <time>2021-07-25T08:57:21Z</time>
      </trkpt>
      <trkpt lat="43.0490800" lon="-7.9125860">
        <ele>616.0</ele>
        <time>2021-07-25T08:57:22Z</time>
      </trkpt>
      <trkpt lat="43.0490180" lon="-7.9125240">
        <ele>615.6</ele>
        <time>2021-07-25T08:57:23Z</time>
      </trkpt>
      <trkpt lat="43.0489590" lon="-7.9124670">
        <ele>615.2</ele>
        <time>2021-07-25T08:57:24Z</time>
      </trkpt>
      <trkpt lat="43.0486450" lon="-7.9121720">
        <ele>614.4</ele>
        <time>2021-07-25T08:57:29Z</time>
      </trkpt>
      <trkpt lat="43.0485790" lon="-7.9121030">
        <ele>613.8</ele>
        <time>2021-07-25T08:57:30Z</time>
      </trkpt>
      <trkpt lat="43.0485140" lon="-7.9120420">
        <ele>613.4</ele>
        <time>2021-07-25T08:57:31Z</time>
      </trkpt>
      <trkpt lat="43.0484470" lon="-7.9119820">
        <ele>613.0</ele>
        <time>2021-07-25T08:57:32Z</time>
      </trkpt>
      <trkpt lat="43.0481770" lon="-7.9117290">
        <ele>612.6</ele>
        <time>2021-07-25T08:57:36Z</time>
      </trkpt>
      <trkpt lat="43.0481100" lon="-7.9116650">
        <ele>612.2</ele>
        <time>2021-07-25T08:57:37Z</time>
      </trkpt>
      <trkpt lat="43.0480400" lon="-7.9115990">
        <ele>611.6</ele>
        <time>2021-07-25T08:57:38Z</time>
      </trkpt>
      <trkpt lat="43.0479730" lon="-7.9115410">
        <ele>611.2</ele>
        <time>2021-07-25T08:57:39Z</time>
      </trkpt>
      <trkpt lat="43.0479060" lon="-7.9114770">
        <ele>610.8</ele>
        <time>2021-07-25T08:57:40Z</time>
      </trkpt>
      <trkpt lat="43.0478400" lon="-7.9114140">
        <ele>610.4</ele>
        <time>2021-07-25T08:57:41Z</time>
      </trkpt>
      <trkpt lat="43.0477730" lon="-7.9113500">
        <ele>610.0</ele>
        <time>2021-07-25T08:57:42Z</time>
      </trkpt>
      <trkpt lat="43.0477030" lon="-7.9112900">
        <ele>609.6</ele>
        <time>2021-07-25T08:57:43Z</time>
      </trkpt>
      <trkpt lat="43.0476340" lon="-7.9112260">
        <ele>609.2</ele>
        <time>2021-07-25T08:57:44Z</time>
      </trkpt>
      <trkpt lat="43.0475610" lon="-7.9111570">
        <ele>608.8</ele>
        <time>2021-07-25T08:57:45Z</time>
      </trkpt>
      <trkpt lat="43.0474920" lon="-7.9110900">
        <ele>608.4</ele>
        <time>2021-07-25T08:57:46Z</time>
      </trkpt>
      <trkpt lat="43.0474220" lon="-7.9110220">
        <ele>608.0</ele>
        <time>2021-07-25T08:57:47Z</time>
      </trkpt>
      <trkpt lat="43.0473530" lon="-7.9109540">
        <ele>607.4</ele>
        <time>2021-07-25T08:57:48Z</time>
      </trkpt>
      <trkpt lat="43.0472830" lon="-7.9108890">
        <ele>607.0</ele>
        <time>2021-07-25T08:57:49Z</time>
      </trkpt>
      <trkpt lat="43.0472110" lon="-7.9108220">
        <ele>606.6</ele>
        <time>2021-07-25T08:57:50Z</time>
      </trkpt>
      <trkpt lat="43.0469930" lon="-7.9106170">
        <ele>606.2</ele>
        <time>2021-07-25T08:57:53Z</time>
      </trkpt>
      <trkpt lat="43.0469270" lon="-7.9105550">
        <ele>605.8</ele>
        <time>2021-07-25T08:57:54Z</time>
      </trkpt>
      <trkpt lat="43.0468620" lon="-7.9104930">
        <ele>605.2</ele>
        <time>2021-07-25T08:57:55Z</time>
      </trkpt>
      <trkpt lat="43.0467950" lon="-7.9104300">
        <ele>604.6</ele>
        <time>2021-07-25T08:57:56Z</time>
      </trkpt>
      <trkpt lat="43.0467270" lon="-7.9103670">
        <ele>603.8</ele>
        <time>2021-07-25T08:57:57Z</time>
      </trkpt>
      <trkpt lat="43.0466590" lon="-7.9103050">
        <ele>603.2</ele>
        <time>2021-07-25T08:57:58Z</time>
      </trkpt>
      <trkpt lat="43.0465920" lon="-7.9102440">
        <ele>602.6</ele>
        <time>2021-07-25T08:57:59Z</time>
      </trkpt>
      <trkpt lat="43.0465260" lon="-7.9101820">
        <ele>602.0</ele>
        <time>2021-07-25T08:58:00Z</time>
      </trkpt>
      <trkpt lat="43.0464620" lon="-7.9101210">
        <ele>601.4</ele>
        <time>2021-07-25T08:58:01Z</time>
      </trkpt>
      <trkpt lat="43.0464000" lon="-7.9100610">
        <ele>600.8</ele>
        <time>2021-07-25T08:58:02Z</time>
      </trkpt>
      <trkpt lat="43.0463390" lon="-7.9100050">
        <ele>600.2</ele>
        <time>2021-07-25T08:58:03Z</time>
      </trkpt>
      <trkpt lat="43.0462790" lon="-7.9099480">
        <ele>599.6</ele>
        <time>2021-07-25T08:58:04Z</time>
      </trkpt>
      <trkpt lat="43.0462200" lon="-7.9098940">
        <ele>599.0</ele>
        <time>2021-07-25T08:58:05Z</time>
      </trkpt>
      <trkpt lat="43.0461630" lon="-7.9098420">
        <ele>598.4</ele>
        <time>2021-07-25T08:58:06Z</time>
      </trkpt>
      <trkpt lat="43.0461020" lon="-7.9097900">
        <ele>597.8</ele>
        <time>2021-07-25T08:58:07Z</time>
      </trkpt>
      <trkpt lat="43.0460450" lon="-7.9097420">
        <ele>597.0</ele>
        <time>2021-07-25T08:58:08Z</time>
      </trkpt>
      <trkpt lat="43.0459860" lon="-7.9096970">
        <ele>596.4</ele>
        <time>2021-07-25T08:58:09Z</time>
      </trkpt>
      <trkpt lat="43.0459270" lon="-7.9096530">
        <ele>595.8</ele>
        <time>2021-07-25T08:58:10Z</time>
      </trkpt>
      <trkpt lat="43.0458630" lon="-7.9096050">
        <ele>595.2</ele>
        <time>2021-07-25T08:58:11Z</time>
      </trkpt>
      <trkpt lat="43.0457960" lon="-7.9095570">
        <ele>594.6</ele>
        <time>2021-07-25T08:58:12Z</time>
      </trkpt>
      <trkpt lat="43.0457240" lon="-7.9095080">
        <ele>594.0</ele>
        <time>2021-07-25T08:58:13Z</time>
      </trkpt>
      <trkpt lat="43.0456500" lon="-7.9094590">
        <ele>593.4</ele>
        <time>2021-07-25T08:58:14Z</time>
      </trkpt>
      <trkpt lat="43.0455730" lon="-7.9094110">
        <ele>593.0</ele>
        <time>2021-07-25T08:58:15Z</time>
      </trkpt>
      <trkpt lat="43.0454190" lon="-7.9093070">
        <ele>592.4</ele>
        <time>2021-07-25T08:58:17Z</time>
      </trkpt>
      <trkpt lat="43.0453370" lon="-7.9092540">
        <ele>591.6</ele>
        <time>2021-07-25T08:58:18Z</time>
      </trkpt>
      <trkpt lat="43.0452570" lon="-7.9092000">
        <ele>591.2</ele>
        <time>2021-07-25T08:58:19Z</time>
      </trkpt>
      <trkpt lat="43.0451790" lon="-7.9091480">
        <ele>590.6</ele>
        <time>2021-07-25T08:58:20Z</time>
      </trkpt>
      <trkpt lat="43.0451010" lon="-7.9090940">
        <ele>590.2</ele>
        <time>2021-07-25T08:58:21Z</time>
      </trkpt>
      <trkpt lat="43.0450250" lon="-7.9090390">
        <ele>589.6</ele>
        <time>2021-07-25T08:58:22Z</time>
      </trkpt>
      <trkpt lat="43.0449450" lon="-7.9089840">
        <ele>588.8</ele>
        <time>2021-07-25T08:58:23Z</time>
      </trkpt>
      <trkpt lat="43.0448700" lon="-7.9089320">
        <ele>588.2</ele>
        <time>2021-07-25T08:58:24Z</time>
      </trkpt>
      <trkpt lat="43.0447950" lon="-7.9088790">
        <ele>587.4</ele>
        <time>2021-07-25T08:58:25Z</time>
      </trkpt>
      <trkpt lat="43.0447150" lon="-7.9088260">
        <ele>586.6</ele>
        <time>2021-07-25T08:58:26Z</time>
      </trkpt>
      <trkpt lat="43.0446310" lon="-7.9087780">
        <ele>586.0</ele>
        <time>2021-07-25T08:58:27Z</time>
      </trkpt>
      <trkpt lat="43.0445480" lon="-7.9087290">
        <ele>585.2</ele>
        <time>2021-07-25T08:58:28Z</time>
      </trkpt>
      <trkpt lat="43.0444660" lon="-7.9086850">
        <ele>584.6</ele>
        <time>2021-07-25T08:58:29Z</time>
      </trkpt>
      <trkpt lat="43.0443830" lon="-7.9086400">
        <ele>584.0</ele>
        <time>2021-07-25T08:58:30Z</time>
      </trkpt>
      <trkpt lat="43.0443050" lon="-7.9086010">
        <ele>583.4</ele>
        <time>2021-07-25T08:58:31Z</time>
      </trkpt>
      <trkpt lat="43.0442250" lon="-7.9085610">
        <ele>582.8</ele>
        <time>2021-07-25T08:58:32Z</time>
      </trkpt>
      <trkpt lat="43.0441450" lon="-7.9085230">
        <ele>582.4</ele>
        <time>2021-07-25T08:58:33Z</time>
      </trkpt>
      <trkpt lat="43.0440660" lon="-7.9084870">
        <ele>582.0</ele>
        <time>2021-07-25T08:58:34Z</time>
      </trkpt>
      <trkpt lat="43.0439870" lon="-7.9084490">
        <ele>581.4</ele>
        <time>2021-07-25T08:58:35Z</time>
      </trkpt>
      <trkpt lat="43.0439130" lon="-7.9084150">
        <ele>580.6</ele>
        <time>2021-07-25T08:58:36Z</time>
      </trkpt>
      <trkpt lat="43.0438380" lon="-7.9083820">
        <ele>580.0</ele>
        <time>2021-07-25T08:58:37Z</time>
      </trkpt>
      <trkpt lat="43.0437630" lon="-7.9083500">
        <ele>579.4</ele>
        <time>2021-07-25T08:58:38Z</time>
      </trkpt>
      <trkpt lat="43.0436900" lon="-7.9083250">
        <ele>578.8</ele>
        <time>2021-07-25T08:58:39Z</time>
      </trkpt>
      <trkpt lat="43.0436170" lon="-7.9083030">
        <ele>578.4</ele>
        <time>2021-07-25T08:58:40Z</time>
      </trkpt>
      <trkpt lat="43.0435410" lon="-7.9082860">
        <ele>578.0</ele>
        <time>2021-07-25T08:58:41Z</time>
      </trkpt>
      <trkpt lat="43.0434670" lon="-7.9082700">
        <ele>577.4</ele>
        <time>2021-07-25T08:58:42Z</time>
      </trkpt>
      <trkpt lat="43.0433910" lon="-7.9082600">
        <ele>576.6</ele>
        <time>2021-07-25T08:58:43Z</time>
      </trkpt>
      <trkpt lat="43.0433210" lon="-7.9082510">
        <ele>576.2</ele>
        <time>2021-07-25T08:58:44Z</time>
      </trkpt>
      <trkpt lat="43.0432550" lon="-7.9082440">
        <ele>575.8</ele>
        <time>2021-07-25T08:58:45Z</time>
      </trkpt>
      <trkpt lat="43.0431910" lon="-7.9082400">
        <ele>575.2</ele>
        <time>2021-07-25T08:58:46Z</time>
      </trkpt>
      <trkpt lat="43.0431270" lon="-7.9082350">
        <ele>574.8</ele>
        <time>2021-07-25T08:58:47Z</time>
      </trkpt>
      <trkpt lat="43.0430640" lon="-7.9082280">
        <ele>574.4</ele>
        <time>2021-07-25T08:58:48Z</time>
      </trkpt>
      <trkpt lat="43.0430030" lon="-7.9082270">
        <ele>573.8</ele>
        <time>2021-07-25T08:58:49Z</time>
      </trkpt>
      <trkpt lat="43.0429400" lon="-7.9082320">
        <ele>573.4</ele>
        <time>2021-07-25T08:58:50Z</time>
      </trkpt>
      <trkpt lat="43.0428750" lon="-7.9082450">
        <ele>573.0</ele>
        <time>2021-07-25T08:58:51Z</time>
      </trkpt>
      <trkpt lat="43.0428090" lon="-7.9082700">
        <ele>572.4</ele>
        <time>2021-07-25T08:58:52Z</time>
      </trkpt>
      <trkpt lat="43.0427440" lon="-7.9083050">
        <ele>572.0</ele>
        <time>2021-07-25T08:58:53Z</time>
      </trkpt>
      <trkpt lat="43.0425120" lon="-7.9084700">
        <ele>571.4</ele>
        <time>2021-07-25T08:58:57Z</time>
      </trkpt>
      <trkpt lat="43.0424510" lon="-7.9085130">
        <ele>571.0</ele>
        <time>2021-07-25T08:58:58Z</time>
      </trkpt>
      <trkpt lat="43.0423860" lon="-7.9085570">
        <ele>570.4</ele>
        <time>2021-07-25T08:58:59Z</time>
      </trkpt>
      <trkpt lat="43.0423170" lon="-7.9086020">
        <ele>570.0</ele>
        <time>2021-07-25T08:59:00Z</time>
      </trkpt>
      <trkpt lat="43.0422470" lon="-7.9086470">
        <ele>569.6</ele>
        <time>2021-07-25T08:59:01Z</time>
      </trkpt>
      <trkpt lat="43.0421120" lon="-7.9087390">
        <ele>569.0</ele>
        <time>2021-07-25T08:59:03Z</time>
      </trkpt>
      <trkpt lat="43.0420450" lon="-7.9087850">
        <ele>568.6</ele>
        <time>2021-07-25T08:59:04Z</time>
      </trkpt>
      <trkpt lat="43.0419760" lon="-7.9088350">
        <ele>568.0</ele>
        <time>2021-07-25T08:59:05Z</time>
      </trkpt>
      <trkpt lat="43.0419050" lon="-7.9088870">
        <ele>567.4</ele>
        <time>2021-07-25T08:59:06Z</time>
      </trkpt>
      <trkpt lat="43.0418290" lon="-7.9089420">
        <ele>566.0</ele>
        <time>2021-07-25T08:59:07Z</time>
      </trkpt>
      <trkpt lat="43.0417600" lon="-7.9089870">
        <ele>565.2</ele>
        <time>2021-07-25T08:59:08Z</time>
      </trkpt>
      <trkpt lat="43.0416900" lon="-7.9090290">
        <ele>564.6</ele>
        <time>2021-07-25T08:59:09Z</time>
      </trkpt>
      <trkpt lat="43.0416200" lon="-7.9090750">
        <ele>564.0</ele>
        <time>2021-07-25T08:59:10Z</time>
      </trkpt>
      <trkpt lat="43.0415550" lon="-7.9091160">
        <ele>563.4</ele>
        <time>2021-07-25T08:59:11Z</time>
      </trkpt>
      <trkpt lat="43.0414910" lon="-7.9091610">
        <ele>562.8</ele>
        <time>2021-07-25T08:59:12Z</time>
      </trkpt>
      <trkpt lat="43.0414270" lon="-7.9092090">
        <ele>562.0</ele>
        <time>2021-07-25T08:59:13Z</time>
      </trkpt>
      <trkpt lat="43.0412380" lon="-7.9093290">
        <ele>561.6</ele>
        <time>2021-07-25T08:59:16Z</time>
      </trkpt>
      <trkpt lat="43.0411780" lon="-7.9093480">
        <ele>561.2</ele>
        <time>2021-07-25T08:59:17Z</time>
      </trkpt>
      <trkpt lat="43.0411200" lon="-7.9093630">
        <ele>560.8</ele>
        <time>2021-07-25T08:59:18Z</time>
      </trkpt>
      <trkpt lat="43.0410660" lon="-7.9093720">
        <ele>560.4</ele>
        <time>2021-07-25T08:59:19Z</time>
      </trkpt>
      <trkpt lat="43.0410140" lon="-7.9093820">
        <ele>559.8</ele>
        <time>2021-07-25T08:59:20Z</time>
      </trkpt>
      <trkpt lat="43.0409730" lon="-7.9093810">
        <ele>559.8</ele>
        <time>2021-07-25T08:59:21Z</time>
      </trkpt>
      <trkpt lat="43.0408990" lon="-7.9093770">
        <ele>559.8</ele>
        <time>2021-07-25T08:59:23Z</time>
      </trkpt>
      <trkpt lat="43.0408280" lon="-7.9093670">
        <ele>559.8</ele>
        <time>2021-07-25T08:59:26Z</time>
      </trkpt>
      <trkpt lat="43.0408010" lon="-7.9093520">
        <ele>559.8</ele>
        <time>2021-07-25T08:59:28Z</time>
      </trkpt>
      <trkpt lat="43.0407720" lon="-7.9093430">
        <ele>559.8</ele>
        <time>2021-07-25T08:59:30Z</time>
      </trkpt>
      <trkpt lat="43.0407420" lon="-7.9093400">
        <ele>559.8</ele>
        <time>2021-07-25T08:59:32Z</time>
      </trkpt>
      <trkpt lat="43.0407140" lon="-7.9093260">
        <ele>559.8</ele>
        <time>2021-07-25T08:59:34Z</time>
      </trkpt>
      <trkpt lat="43.0406830" lon="-7.9093070">
        <ele>559.8</ele>
        <time>2021-07-25T08:59:36Z</time>
      </trkpt>
      <trkpt lat="43.0406440" lon="-7.9092710">
        <ele>559.8</ele>
        <time>2021-07-25T08:59:39Z</time>
      </trkpt>
      <trkpt lat="43.0405780" lon="-7.9092370">
        <ele>559.8</ele>
        <time>2021-07-25T08:59:43Z</time>
      </trkpt>
      <trkpt lat="43.0405110" lon="-7.9092990">
        <ele>559.8</ele>
        <time>2021-07-25T08:59:47Z</time>
      </trkpt>
      <trkpt lat="43.0404940" lon="-7.9093250">
        <ele>559.8</ele>
        <time>2021-07-25T08:59:48Z</time>
      </trkpt>
      <trkpt lat="43.0404170" lon="-7.9094760">
        <ele>559.8</ele>
        <time>2021-07-25T08:59:53Z</time>
      </trkpt>
      <trkpt lat="43.0403990" lon="-7.9095040">
        <ele>560.2</ele>
        <time>2021-07-25T08:59:54Z</time>
      </trkpt>
      <trkpt lat="43.0403820" lon="-7.9095330">
        <ele>560.6</ele>
        <time>2021-07-25T08:59:55Z</time>
      </trkpt>
      <trkpt lat="43.0403660" lon="-7.9095570">
        <ele>561.2</ele>
        <time>2021-07-25T08:59:56Z</time>
      </trkpt>
      <trkpt lat="43.0403550" lon="-7.9095820">
        <ele>562.0</ele>
        <time>2021-07-25T08:59:57Z</time>
      </trkpt>
      <trkpt lat="43.0402950" lon="-7.9096840">
        <ele>562.0</ele>
        <time>2021-07-25T09:00:01Z</time>
      </trkpt>
      <trkpt lat="43.0402500" lon="-7.9097490">
        <ele>562.0</ele>
        <time>2021-07-25T09:00:04Z</time>
      </trkpt>
      <trkpt lat="43.0401970" lon="-7.9098190">
        <ele>562.0</ele>
        <time>2021-07-25T09:00:07Z</time>
      </trkpt>
      <trkpt lat="43.0401040" lon="-7.9100370">
        <ele>562.0</ele>
        <time>2021-07-25T09:00:14Z</time>
      </trkpt>
      <trkpt lat="43.0400730" lon="-7.9101180">
        <ele>562.0</ele>
        <time>2021-07-25T09:00:17Z</time>
      </trkpt>
      <trkpt lat="43.0400430" lon="-7.9101870">
        <ele>562.0</ele>
        <time>2021-07-25T09:00:20Z</time>
      </trkpt>
      <trkpt lat="43.0399610" lon="-7.9103330">
        <ele>562.0</ele>
        <time>2021-07-25T09:00:26Z</time>
      </trkpt>
      <trkpt lat="43.0399390" lon="-7.9103840">
        <ele>562.4</ele>
        <time>2021-07-25T09:00:28Z</time>
      </trkpt>
      <trkpt lat="43.0399280" lon="-7.9104040">
        <ele>562.8</ele>
        <time>2021-07-25T09:00:29Z</time>
      </trkpt>
      <trkpt lat="43.0399160" lon="-7.9104300">
        <ele>563.2</ele>
        <time>2021-07-25T09:00:30Z</time>
      </trkpt>
      <trkpt lat="43.0399080" lon="-7.9104420">
        <ele>563.6</ele>
        <time>2021-07-25T09:00:31Z</time>
      </trkpt>
      <trkpt lat="43.0398990" lon="-7.9104570">
        <ele>564.0</ele>
        <time>2021-07-25T09:00:32Z</time>
      </trkpt>
      <trkpt lat="43.0398890" lon="-7.9104720">
        <ele>564.0</ele>
        <time>2021-07-25T09:00:33Z</time>
      </trkpt>
      <trkpt lat="43.0398750" lon="-7.9104890">
        <ele>564.0</ele>
        <time>2021-07-25T09:00:34Z</time>
      </trkpt>
      <trkpt lat="43.0398330" lon="-7.9105780">
        <ele>564.0</ele>
        <time>2021-07-25T09:00:39Z</time>
      </trkpt>
      <trkpt lat="43.0398020" lon="-7.9106610">
        <ele>564.4</ele>
        <time>2021-07-25T09:00:43Z</time>
      </trkpt>
      <trkpt lat="43.0397920" lon="-7.9106880">
        <ele>564.8</ele>
        <time>2021-07-25T09:00:44Z</time>
      </trkpt>
      <trkpt lat="43.0397830" lon="-7.9107080">
        <ele>565.2</ele>
        <time>2021-07-25T09:00:45Z</time>
      </trkpt>
      <trkpt lat="43.0397780" lon="-7.9107300">
        <ele>566.0</ele>
        <time>2021-07-25T09:00:46Z</time>
      </trkpt>
      <trkpt lat="43.0397760" lon="-7.9108590">
        <ele>566.0</ele>
        <time>2021-07-25T09:00:52Z</time>
      </trkpt>
      <trkpt lat="43.0397820" lon="-7.9108800">
        <ele>566.4</ele>
        <time>2021-07-25T09:00:53Z</time>
      </trkpt>
      <trkpt lat="43.0397900" lon="-7.9108960">
        <ele>566.8</ele>
        <time>2021-07-25T09:00:54Z</time>
      </trkpt>
      <trkpt lat="43.0397950" lon="-7.9109120">
        <ele>567.2</ele>
        <time>2021-07-25T09:00:55Z</time>
      </trkpt>
      <trkpt lat="43.0398030" lon="-7.9109290">
        <ele>567.6</ele>
        <time>2021-07-25T09:00:56Z</time>
      </trkpt>
      <trkpt lat="43.0398120" lon="-7.9109420">
        <ele>568.0</ele>
        <time>2021-07-25T09:00:57Z</time>
      </trkpt>
      <trkpt lat="43.0398280" lon="-7.9109740">
        <ele>568.0</ele>
        <time>2021-07-25T09:00:59Z</time>
      </trkpt>
      <trkpt lat="43.0398880" lon="-7.9110660">
        <ele>568.6</ele>
        <time>2021-07-25T09:01:05Z</time>
      </trkpt>
      <trkpt lat="43.0398980" lon="-7.9110840">
        <ele>569.0</ele>
        <time>2021-07-25T09:01:06Z</time>
      </trkpt>
      <trkpt lat="43.0399100" lon="-7.9111030">
        <ele>569.4</ele>
        <time>2021-07-25T09:01:07Z</time>
      </trkpt>
      <trkpt lat="43.0399220" lon="-7.9111180">
        <ele>569.8</ele>
        <time>2021-07-25T09:01:08Z</time>
      </trkpt>
      <trkpt lat="43.0399290" lon="-7.9111310">
        <ele>570.2</ele>
        <time>2021-07-25T09:01:09Z</time>
      </trkpt>
      <trkpt lat="43.0399640" lon="-7.9112170">
        <ele>570.2</ele>
        <time>2021-07-25T09:01:15Z</time>
      </trkpt>
      <trkpt lat="43.0399540" lon="-7.9112320">
        <ele>570.6</ele>
        <time>2021-07-25T09:01:16Z</time>
      </trkpt>
      <trkpt lat="43.0399400" lon="-7.9112390">
        <ele>571.0</ele>
        <time>2021-07-25T09:01:17Z</time>
      </trkpt>
      <trkpt lat="43.0399270" lon="-7.9112390">
        <ele>571.4</ele>
        <time>2021-07-25T09:01:18Z</time>
      </trkpt>
      <trkpt lat="43.0399130" lon="-7.9112380">
        <ele>572.0</ele>
        <time>2021-07-25T09:01:19Z</time>
      </trkpt>
      <trkpt lat="43.0399010" lon="-7.9112310">
        <ele>572.4</ele>
        <time>2021-07-25T09:01:20Z</time>
      </trkpt>
      <trkpt lat="43.0398910" lon="-7.9112160">
        <ele>572.4</ele>
        <time>2021-07-25T09:01:21Z</time>
      </trkpt>
      <trkpt lat="43.0398700" lon="-7.9111850">
        <ele>572.4</ele>
        <time>2021-07-25T09:01:23Z</time>
      </trkpt>
      <trkpt lat="43.0397920" lon="-7.9111130">
        <ele>572.4</ele>
        <time>2021-07-25T09:01:29Z</time>
      </trkpt>
      <trkpt lat="43.0396300" lon="-7.9111000">
        <ele>572.4</ele>
        <time>2021-07-25T09:01:36Z</time>
      </trkpt>
      <trkpt lat="43.0394780" lon="-7.9111000">
        <ele>572.8</ele>
        <time>2021-07-25T09:01:42Z</time>
      </trkpt>
      <trkpt lat="43.0394460" lon="-7.9111020">
        <ele>573.2</ele>
        <time>2021-07-25T09:01:43Z</time>
      </trkpt>
      <trkpt lat="43.0394160" lon="-7.9111070">
        <ele>573.6</ele>
        <time>2021-07-25T09:01:44Z</time>
      </trkpt>
      <trkpt lat="43.0393850" lon="-7.9111070">
        <ele>574.0</ele>
        <time>2021-07-25T09:01:45Z</time>
      </trkpt>
      <trkpt lat="43.0393570" lon="-7.9111200">
        <ele>574.4</ele>
        <time>2021-07-25T09:01:46Z</time>
      </trkpt>
      <trkpt lat="43.0392950" lon="-7.9111510">
        <ele>574.4</ele>
        <time>2021-07-25T09:01:49Z</time>
      </trkpt>
      <trkpt lat="43.0392140" lon="-7.9111730">
        <ele>574.4</ele>
        <time>2021-07-25T09:01:53Z</time>
      </trkpt>
      <trkpt lat="43.0391770" lon="-7.9111780">
        <ele>574.4</ele>
        <time>2021-07-25T09:01:55Z</time>
      </trkpt>
      <trkpt lat="43.0391030" lon="-7.9112020">
        <ele>574.4</ele>
        <time>2021-07-25T09:01:59Z</time>
      </trkpt>
      <trkpt lat="43.0390710" lon="-7.9112160">
        <ele>574.4</ele>
        <time>2021-07-25T09:02:01Z</time>
      </trkpt>
      <trkpt lat="43.0390000" lon="-7.9112280">
        <ele>574.8</ele>
        <time>2021-07-25T09:02:04Z</time>
      </trkpt>
      <trkpt lat="43.0389780" lon="-7.9112340">
        <ele>575.2</ele>
        <time>2021-07-25T09:02:05Z</time>
      </trkpt>
      <trkpt lat="43.0389590" lon="-7.9112460">
        <ele>575.8</ele>
        <time>2021-07-25T09:02:06Z</time>
      </trkpt>
      <trkpt lat="43.0389420" lon="-7.9112540">
        <ele>576.2</ele>
        <time>2021-07-25T09:02:07Z</time>
      </trkpt>
      <trkpt lat="43.0389230" lon="-7.9112630">
        <ele>576.6</ele>
        <time>2021-07-25T09:02:08Z</time>
      </trkpt>
      <trkpt lat="43.0388430" lon="-7.9113920">
        <ele>576.6</ele>
        <time>2021-07-25T09:02:13Z</time>
      </trkpt>
      <trkpt lat="43.0388300" lon="-7.9115180">
        <ele>577.0</ele>
        <time>2021-07-25T09:02:18Z</time>
      </trkpt>
      <trkpt lat="43.0388190" lon="-7.9115310">
        <ele>577.4</ele>
        <time>2021-07-25T09:02:19Z</time>
      </trkpt>
      <trkpt lat="43.0388100" lon="-7.9115490">
        <ele>577.8</ele>
        <time>2021-07-25T09:02:20Z</time>
      </trkpt>
      <trkpt lat="43.0388030" lon="-7.9115640">
        <ele>578.2</ele>
        <time>2021-07-25T09:02:21Z</time>
      </trkpt>
      <trkpt lat="43.0387940" lon="-7.9115760">
        <ele>578.6</ele>
        <time>2021-07-25T09:02:22Z</time>
      </trkpt>
      <trkpt lat="43.0387660" lon="-7.9116420">
        <ele>578.6</ele>
        <time>2021-07-25T09:02:25Z</time>
      </trkpt>
      <trkpt lat="43.0387320" lon="-7.9117310">
        <ele>579.0</ele>
        <time>2021-07-25T09:02:29Z</time>
      </trkpt>
      <trkpt lat="43.0387220" lon="-7.9117530">
        <ele>579.4</ele>
        <time>2021-07-25T09:02:30Z</time>
      </trkpt>
      <trkpt lat="43.0387160" lon="-7.9117780">
        <ele>579.8</ele>
        <time>2021-07-25T09:02:31Z</time>
      </trkpt>
      <trkpt lat="43.0387150" lon="-7.9118010">
        <ele>580.2</ele>
        <time>2021-07-25T09:02:32Z</time>
      </trkpt>
      <trkpt lat="43.0387130" lon="-7.9118230">
        <ele>580.6</ele>
        <time>2021-07-25T09:02:33Z</time>
      </trkpt>
      <trkpt lat="43.0387110" lon="-7.9119270">
        <ele>580.6</ele>
        <time>2021-07-25T09:02:37Z</time>
      </trkpt>
      <trkpt lat="43.0386890" lon="-7.9120990">
        <ele>580.6</ele>
        <time>2021-07-25T09:02:43Z</time>
      </trkpt>
      <trkpt lat="43.0386680" lon="-7.9122030">
        <ele>581.0</ele>
        <time>2021-07-25T09:02:47Z</time>
      </trkpt>
      <trkpt lat="43.0386650" lon="-7.9122370">
        <ele>581.4</ele>
        <time>2021-07-25T09:02:48Z</time>
      </trkpt>
      <trkpt lat="43.0386630" lon="-7.9122630">
        <ele>581.8</ele>
        <time>2021-07-25T09:02:49Z</time>
      </trkpt>
      <trkpt lat="43.0386650" lon="-7.9122870">
        <ele>582.6</ele>
        <time>2021-07-25T09:02:50Z</time>
      </trkpt>
      <trkpt lat="43.0386530" lon="-7.9124520">
        <ele>582.6</ele>
        <time>2021-07-25T09:02:55Z</time>
      </trkpt>
      <trkpt lat="43.0386550" lon="-7.9127400">
        <ele>582.6</ele>
        <time>2021-07-25T09:03:02Z</time>
      </trkpt>
      <trkpt lat="43.0386800" lon="-7.9128550">
        <ele>582.6</ele>
        <time>2021-07-25T09:03:05Z</time>
      </trkpt>
      <trkpt lat="43.0386980" lon="-7.9129740">
        <ele>582.6</ele>
        <time>2021-07-25T09:03:08Z</time>
      </trkpt>
      <trkpt lat="43.0387310" lon="-7.9130940">
        <ele>582.6</ele>
        <time>2021-07-25T09:03:11Z</time>
      </trkpt>
      <trkpt lat="43.0387640" lon="-7.9132370">
        <ele>582.6</ele>
        <time>2021-07-25T09:03:14Z</time>
      </trkpt>
      <trkpt lat="43.0387730" lon="-7.9132960">
        <ele>582.6</ele>
        <time>2021-07-25T09:03:15Z</time>
      </trkpt>
      <trkpt lat="43.0387830" lon="-7.9134220">
        <ele>582.6</ele>
        <time>2021-07-25T09:03:17Z</time>
      </trkpt>
      <trkpt lat="43.0387840" lon="-7.9134830">
        <ele>582.6</ele>
        <time>2021-07-25T09:03:18Z</time>
      </trkpt>
      <trkpt lat="43.0387750" lon="-7.9136120">
        <ele>582.6</ele>
        <time>2021-07-25T09:03:20Z</time>
      </trkpt>
      <trkpt lat="43.0387630" lon="-7.9136760">
        <ele>582.6</ele>
        <time>2021-07-25T09:03:21Z</time>
      </trkpt>
      <trkpt lat="43.0387250" lon="-7.9138020">
        <ele>582.2</ele>
        <time>2021-07-25T09:03:23Z</time>
      </trkpt>
      <trkpt lat="43.0387040" lon="-7.9138570">
        <ele>581.8</ele>
        <time>2021-07-25T09:03:24Z</time>
      </trkpt>
      <trkpt lat="43.0386830" lon="-7.9139010">
        <ele>581.4</ele>
        <time>2021-07-25T09:03:25Z</time>
      </trkpt>
      <trkpt lat="43.0386550" lon="-7.9139460">
        <ele>581.0</ele>
        <time>2021-07-25T09:03:26Z</time>
      </trkpt>
      <trkpt lat="43.0386310" lon="-7.9139930">
        <ele>580.6</ele>
        <time>2021-07-25T09:03:27Z</time>
      </trkpt>
      <trkpt lat="43.0385950" lon="-7.9140870">
        <ele>580.6</ele>
        <time>2021-07-25T09:03:29Z</time>
      </trkpt>
      <trkpt lat="43.0385460" lon="-7.9142100">
        <ele>580.6</ele>
        <time>2021-07-25T09:03:31Z</time>
      </trkpt>
      <trkpt lat="43.0384500" lon="-7.9143570">
        <ele>580.6</ele>
        <time>2021-07-25T09:03:35Z</time>
      </trkpt>
      <trkpt lat="43.0384280" lon="-7.9143620">
        <ele>580.6</ele>
        <time>2021-07-25T09:03:36Z</time>
      </trkpt>
      <trkpt lat="43.0383720" lon="-7.9143780">
        <ele>580.6</ele>
        <time>2021-07-25T09:03:39Z</time>
      </trkpt>
      <trkpt lat="43.0383530" lon="-7.9143820">
        <ele>580.6</ele>
        <time>2021-07-25T09:03:40Z</time>
      </trkpt>
      <trkpt lat="43.0382990" lon="-7.9143920">
        <ele>580.6</ele>
        <time>2021-07-25T09:03:42Z</time>
      </trkpt>
      <trkpt lat="43.0382460" lon="-7.9143940">
        <ele>580.6</ele>
        <time>2021-07-25T09:03:44Z</time>
      </trkpt>
      <trkpt lat="43.0381990" lon="-7.9143930">
        <ele>580.6</ele>
        <time>2021-07-25T09:03:46Z</time>
      </trkpt>
      <trkpt lat="43.0381480" lon="-7.9143870">
        <ele>580.6</ele>
        <time>2021-07-25T09:03:48Z</time>
      </trkpt>
      <trkpt lat="43.0380680" lon="-7.9143480">
        <ele>580.6</ele>
        <time>2021-07-25T09:03:51Z</time>
      </trkpt>
      <trkpt lat="43.0380110" lon="-7.9143140">
        <ele>580.6</ele>
        <time>2021-07-25T09:03:53Z</time>
      </trkpt>
      <trkpt lat="43.0379290" lon="-7.9142460">
        <ele>580.6</ele>
        <time>2021-07-25T09:03:56Z</time>
      </trkpt>
      <trkpt lat="43.0378170" lon="-7.9141740">
        <ele>580.6</ele>
        <time>2021-07-25T09:04:00Z</time>
      </trkpt>
      <trkpt lat="43.0377030" lon="-7.9140780">
        <ele>580.6</ele>
        <time>2021-07-25T09:04:06Z</time>
      </trkpt>
      <trkpt lat="43.0375800" lon="-7.9139730">
        <ele>580.6</ele>
        <time>2021-07-25T09:04:13Z</time>
      </trkpt>
      <trkpt lat="43.0375380" lon="-7.9139010">
        <ele>581.0</ele>
        <time>2021-07-25T09:04:17Z</time>
      </trkpt>
      <trkpt lat="43.0375260" lon="-7.9138840">
        <ele>581.4</ele>
        <time>2021-07-25T09:04:18Z</time>
      </trkpt>
      <trkpt lat="43.0375140" lon="-7.9138630">
        <ele>581.8</ele>
        <time>2021-07-25T09:04:19Z</time>
      </trkpt>
      <trkpt lat="43.0374900" lon="-7.9138420">
        <ele>582.2</ele>
        <time>2021-07-25T09:04:20Z</time>
      </trkpt>
      <trkpt lat="43.0374710" lon="-7.9138280">
        <ele>582.6</ele>
        <time>2021-07-25T09:04:21Z</time>
      </trkpt>
      <trkpt lat="43.0373800" lon="-7.9137060">
        <ele>582.6</ele>
        <time>2021-07-25T09:04:27Z</time>
      </trkpt>
      <trkpt lat="43.0373480" lon="-7.9136330">
        <ele>583.0</ele>
        <time>2021-07-25T09:04:30Z</time>
      </trkpt>
      <trkpt lat="43.0373310" lon="-7.9136110">
        <ele>583.4</ele>
        <time>2021-07-25T09:04:31Z</time>
      </trkpt>
      <trkpt lat="43.0373230" lon="-7.9135890">
        <ele>583.8</ele>
        <time>2021-07-25T09:04:32Z</time>
      </trkpt>
      <trkpt lat="43.0373150" lon="-7.9135580">
        <ele>584.2</ele>
        <time>2021-07-25T09:04:33Z</time>
      </trkpt>
      <trkpt lat="43.0373040" lon="-7.9135270">
        <ele>584.6</ele>
        <time>2021-07-25T09:04:34Z</time>
      </trkpt>
      <trkpt lat="43.0372510" lon="-7.9133650">
        <ele>584.6</ele>
        <time>2021-07-25T09:04:40Z</time>
      </trkpt>
      <trkpt lat="43.0371960" lon="-7.9131510">
        <ele>584.6</ele>
        <time>2021-07-25T09:04:47Z</time>
      </trkpt>
      <trkpt lat="43.0371390" lon="-7.9129260">
        <ele>584.6</ele>
        <time>2021-07-25T09:04:54Z</time>
      </trkpt>
      <trkpt lat="43.0371100" lon="-7.9127890">
        <ele>585.0</ele>
        <time>2021-07-25T09:04:58Z</time>
      </trkpt>
      <trkpt lat="43.0371080" lon="-7.9127570">
        <ele>585.4</ele>
        <time>2021-07-25T09:04:59Z</time>
      </trkpt>
      <trkpt lat="43.0370990" lon="-7.9127190">
        <ele>585.8</ele>
        <time>2021-07-25T09:05:00Z</time>
      </trkpt>
      <trkpt lat="43.0370920" lon="-7.9126890">
        <ele>586.2</ele>
        <time>2021-07-25T09:05:01Z</time>
      </trkpt>
      <trkpt lat="43.0370800" lon="-7.9126500">
        <ele>586.6</ele>
        <time>2021-07-25T09:05:02Z</time>
      </trkpt>
      <trkpt lat="43.0369840" lon="-7.9124800">
        <ele>586.6</ele>
        <time>2021-07-25T09:05:08Z</time>
      </trkpt>
      <trkpt lat="43.0368210" lon="-7.9123650">
        <ele>586.6</ele>
        <time>2021-07-25T09:05:15Z</time>
      </trkpt>
      <trkpt lat="43.0366790" lon="-7.9122270">
        <ele>586.6</ele>
        <time>2021-07-25T09:05:22Z</time>
      </trkpt>
      <trkpt lat="43.0366440" lon="-7.9121840">
        <ele>587.0</ele>
        <time>2021-07-25T09:05:24Z</time>
      </trkpt>
      <trkpt lat="43.0366270" lon="-7.9121600">
        <ele>587.4</ele>
        <time>2021-07-25T09:05:25Z</time>
      </trkpt>
      <trkpt lat="43.0366080" lon="-7.9121350">
        <ele>587.8</ele>
        <time>2021-07-25T09:05:26Z</time>
      </trkpt>
      <trkpt lat="43.0365910" lon="-7.9121100">
        <ele>588.4</ele>
        <time>2021-07-25T09:05:27Z</time>
      </trkpt>
      <trkpt lat="43.0365790" lon="-7.9120810">
        <ele>588.8</ele>
        <time>2021-07-25T09:05:28Z</time>
      </trkpt>
      <trkpt lat="43.0365630" lon="-7.9120560">
        <ele>588.8</ele>
        <time>2021-07-25T09:05:29Z</time>
      </trkpt>
      <trkpt lat="43.0364460" lon="-7.9119330">
        <ele>588.8</ele>
        <time>2021-07-25T09:05:35Z</time>
      </trkpt>
      <trkpt lat="43.0363810" lon="-7.9117690">
        <ele>588.8</ele>
        <time>2021-07-25T09:05:40Z</time>
      </trkpt>
      <trkpt lat="43.0362830" lon="-7.9115900">
        <ele>588.8</ele>
        <time>2021-07-25T09:05:46Z</time>
      </trkpt>
      <trkpt lat="43.0362080" lon="-7.9115040">
        <ele>588.8</ele>
        <time>2021-07-25T09:05:50Z</time>
      </trkpt>
      <trkpt lat="43.0361520" lon="-7.9114000">
        <ele>588.8</ele>
        <time>2021-07-25T09:05:53Z</time>
      </trkpt>
      <trkpt lat="43.0360780" lon="-7.9112890">
        <ele>588.8</ele>
        <time>2021-07-25T09:05:57Z</time>
      </trkpt>
      <trkpt lat="43.0360660" lon="-7.9112300">
        <ele>588.8</ele>
        <time>2021-07-25T09:05:59Z</time>
      </trkpt>
      <trkpt lat="43.0360470" lon="-7.9111950">
        <ele>589.2</ele>
        <time>2021-07-25T09:06:01Z</time>
      </trkpt>
      <trkpt lat="43.0360370" lon="-7.9111810">
        <ele>589.6</ele>
        <time>2021-07-25T09:06:02Z</time>
      </trkpt>
      <trkpt lat="43.0360280" lon="-7.9111640">
        <ele>590.0</ele>
        <time>2021-07-25T09:06:03Z</time>
      </trkpt>
      <trkpt lat="43.0360190" lon="-7.9111450">
        <ele>590.4</ele>
        <time>2021-07-25T09:06:04Z</time>
      </trkpt>
      <trkpt lat="43.0360110" lon="-7.9111290">
        <ele>590.8</ele>
        <time>2021-07-25T09:06:05Z</time>
      </trkpt>
      <trkpt lat="43.0359360" lon="-7.9110200">
        <ele>591.2</ele>
        <time>2021-07-25T09:06:13Z</time>
      </trkpt>
      <trkpt lat="43.0359260" lon="-7.9110070">
        <ele>591.6</ele>
        <time>2021-07-25T09:06:14Z</time>
      </trkpt>
      <trkpt lat="43.0359170" lon="-7.9109910">
        <ele>592.0</ele>
        <time>2021-07-25T09:06:15Z</time>
      </trkpt>
      <trkpt lat="43.0359070" lon="-7.9109770">
        <ele>592.4</ele>
        <time>2021-07-25T09:06:16Z</time>
      </trkpt>
      <trkpt lat="43.0358960" lon="-7.9109620">
        <ele>592.8</ele>
        <time>2021-07-25T09:06:17Z</time>
      </trkpt>
      <trkpt lat="43.0358550" lon="-7.9108890">
        <ele>592.8</ele>
        <time>2021-07-25T09:06:22Z</time>
      </trkpt>
      <trkpt lat="43.0358150" lon="-7.9108380">
        <ele>593.2</ele>
        <time>2021-07-25T09:06:26Z</time>
      </trkpt>
      <trkpt lat="43.0358080" lon="-7.9108250">
        <ele>593.6</ele>
        <time>2021-07-25T09:06:27Z</time>
      </trkpt>
      <trkpt lat="43.0358010" lon="-7.9108110">
        <ele>594.0</ele>
        <time>2021-07-25T09:06:28Z</time>
      </trkpt>
      <trkpt lat="43.0357930" lon="-7.9107980">
        <ele>594.4</ele>
        <time>2021-07-25T09:06:29Z</time>
      </trkpt>
      <trkpt lat="43.0357860" lon="-7.9107830">
        <ele>594.8</ele>
        <time>2021-07-25T09:06:30Z</time>
      </trkpt>
      <trkpt lat="43.0357770" lon="-7.9107670">
        <ele>594.8</ele>
        <time>2021-07-25T09:06:31Z</time>
      </trkpt>
      <trkpt lat="43.0357260" lon="-7.9106830">
        <ele>595.2</ele>
        <time>2021-07-25T09:06:37Z</time>
      </trkpt>
      <trkpt lat="43.0357150" lon="-7.9106700">
        <ele>595.6</ele>
        <time>2021-07-25T09:06:38Z</time>
      </trkpt>
      <trkpt lat="43.0357060" lon="-7.9106550">
        <ele>596.0</ele>
        <time>2021-07-25T09:06:39Z</time>
      </trkpt>
      <trkpt lat="43.0356970" lon="-7.9106420">
        <ele>596.4</ele>
        <time>2021-07-25T09:06:40Z</time>
      </trkpt>
      <trkpt lat="43.0356880" lon="-7.9106270">
        <ele>596.8</ele>
        <time>2021-07-25T09:06:41Z</time>
      </trkpt>
      <trkpt lat="43.0356570" lon="-7.9105900">
        <ele>596.8</ele>
        <time>2021-07-25T09:06:45Z</time>
      </trkpt>
      <trkpt lat="43.0356480" lon="-7.9105850">
        <ele>596.8</ele>
        <time>2021-07-25T09:06:46Z</time>
      </trkpt>
      <trkpt lat="43.0355940" lon="-7.9105510">
        <ele>597.2</ele>
        <time>2021-07-25T09:06:50Z</time>
      </trkpt>
      <trkpt lat="43.0355850" lon="-7.9105430">
        <ele>597.6</ele>
        <time>2021-07-25T09:06:51Z</time>
      </trkpt>
      <trkpt lat="43.0355760" lon="-7.9105300">
        <ele>598.0</ele>
        <time>2021-07-25T09:06:52Z</time>
      </trkpt>
      <trkpt lat="43.0355690" lon="-7.9105260">
        <ele>598.4</ele>
        <time>2021-07-25T09:06:53Z</time>
      </trkpt>
      <trkpt lat="43.0355570" lon="-7.9105170">
        <ele>599.0</ele>
        <time>2021-07-25T09:06:54Z</time>
      </trkpt>
      <trkpt lat="43.0355270" lon="-7.9105130">
        <ele>599.0</ele>
        <time>2021-07-25T09:06:56Z</time>
      </trkpt>
      <trkpt lat="43.0354890" lon="-7.9105140">
        <ele>599.4</ele>
        <time>2021-07-25T09:06:59Z</time>
      </trkpt>
      <trkpt lat="43.0354710" lon="-7.9105190">
        <ele>599.8</ele>
        <time>2021-07-25T09:07:00Z</time>
      </trkpt>
      <trkpt lat="43.0354560" lon="-7.9105260">
        <ele>600.2</ele>
        <time>2021-07-25T09:07:01Z</time>
      </trkpt>
      <trkpt lat="43.0354430" lon="-7.9105320">
        <ele>600.6</ele>
        <time>2021-07-25T09:07:02Z</time>
      </trkpt>
      <trkpt lat="43.0354300" lon="-7.9105340">
        <ele>601.0</ele>
        <time>2021-07-25T09:07:03Z</time>
      </trkpt>
      <trkpt lat="43.0353590" lon="-7.9105610">
        <ele>601.0</ele>
        <time>2021-07-25T09:07:08Z</time>
      </trkpt>
      <trkpt lat="43.0352520" lon="-7.9105930">
        <ele>601.0</ele>
        <time>2021-07-25T09:07:15Z</time>
      </trkpt>
      <trkpt lat="43.0351250" lon="-7.9106190">
        <ele>601.0</ele>
        <time>2021-07-25T09:07:22Z</time>
      </trkpt>
      <trkpt lat="43.0351080" lon="-7.9106200">
        <ele>601.4</ele>
        <time>2021-07-25T09:07:23Z</time>
      </trkpt>
      <trkpt lat="43.0350940" lon="-7.9106280">
        <ele>601.8</ele>
        <time>2021-07-25T09:07:24Z</time>
      </trkpt>
      <trkpt lat="43.0350800" lon="-7.9106350">
        <ele>602.2</ele>
        <time>2021-07-25T09:07:25Z</time>
      </trkpt>
      <trkpt lat="43.0350660" lon="-7.9106420">
        <ele>602.6</ele>
        <time>2021-07-25T09:07:26Z</time>
      </trkpt>
      <trkpt lat="43.0350500" lon="-7.9106460">
        <ele>603.0</ele>
        <time>2021-07-25T09:07:27Z</time>
      </trkpt>
      <trkpt lat="43.0349880" lon="-7.9106590">
        <ele>603.0</ele>
        <time>2021-07-25T09:07:31Z</time>
      </trkpt>
      <trkpt lat="43.0348960" lon="-7.9106810">
        <ele>603.4</ele>
        <time>2021-07-25T09:07:37Z</time>
      </trkpt>
      <trkpt lat="43.0348830" lon="-7.9106790">
        <ele>603.8</ele>
        <time>2021-07-25T09:07:38Z</time>
      </trkpt>
      <trkpt lat="43.0348700" lon="-7.9106840">
        <ele>604.2</ele>
        <time>2021-07-25T09:07:39Z</time>
      </trkpt>
      <trkpt lat="43.0348540" lon="-7.9106900">
        <ele>604.6</ele>
        <time>2021-07-25T09:07:40Z</time>
      </trkpt>
      <trkpt lat="43.0348410" lon="-7.9106940">
        <ele>605.0</ele>
        <time>2021-07-25T09:07:41Z</time>
      </trkpt>
      <trkpt lat="43.0347940" lon="-7.9107050">
        <ele>605.0</ele>
        <time>2021-07-25T09:07:44Z</time>
      </trkpt>
      <trkpt lat="43.0347280" lon="-7.9107330">
        <ele>605.0</ele>
        <time>2021-07-25T09:07:49Z</time>
      </trkpt>
      <trkpt lat="43.0347160" lon="-7.9107380">
        <ele>605.0</ele>
        <time>2021-07-25T09:07:50Z</time>
      </trkpt>
      <trkpt lat="43.0346280" lon="-7.9107530">
        <ele>605.0</ele>
        <time>2021-07-25T09:07:56Z</time>
      </trkpt>
      <trkpt lat="43.0346110" lon="-7.9107530">
        <ele>605.4</ele>
        <time>2021-07-25T09:07:57Z</time>
      </trkpt>
      <trkpt lat="43.0345960" lon="-7.9107550">
        <ele>605.8</ele>
        <time>2021-07-25T09:07:58Z</time>
      </trkpt>
      <trkpt lat="43.0345780" lon="-7.9107550">
        <ele>606.2</ele>
        <time>2021-07-25T09:07:59Z</time>
      </trkpt>
      <trkpt lat="43.0345660" lon="-7.9107580">
        <ele>606.6</ele>
        <time>2021-07-25T09:08:00Z</time>
      </trkpt>
      <trkpt lat="43.0345540" lon="-7.9107600">
        <ele>607.0</ele>
        <time>2021-07-25T09:08:01Z</time>
      </trkpt>
      <trkpt lat="43.0345010" lon="-7.9107850">
        <ele>607.0</ele>
        <time>2021-07-25T09:08:04Z</time>
      </trkpt>
      <trkpt lat="43.0343440" lon="-7.9108230">
        <ele>607.0</ele>
        <time>2021-07-25T09:08:12Z</time>
      </trkpt>
      <trkpt lat="43.0342110" lon="-7.9108400">
        <ele>607.0</ele>
        <time>2021-07-25T09:08:18Z</time>
      </trkpt>
      <trkpt lat="43.0340470" lon="-7.9108770">
        <ele>607.0</ele>
        <time>2021-07-25T09:08:26Z</time>
      </trkpt>
      <trkpt lat="43.0339560" lon="-7.9108860">
        <ele>607.6</ele>
        <time>2021-07-25T09:08:31Z</time>
      </trkpt>
      <trkpt lat="43.0339430" lon="-7.9108870">
        <ele>608.0</ele>
        <time>2021-07-25T09:08:32Z</time>
      </trkpt>
      <trkpt lat="43.0339270" lon="-7.9108890">
        <ele>608.4</ele>
        <time>2021-07-25T09:08:33Z</time>
      </trkpt>
      <trkpt lat="43.0339150" lon="-7.9108950">
        <ele>608.8</ele>
        <time>2021-07-25T09:08:34Z</time>
      </trkpt>
      <trkpt lat="43.0339040" lon="-7.9108960">
        <ele>609.2</ele>
        <time>2021-07-25T09:08:35Z</time>
      </trkpt>
      <trkpt lat="43.0338150" lon="-7.9109560">
        <ele>609.2</ele>
        <time>2021-07-25T09:08:40Z</time>
      </trkpt>
      <trkpt lat="43.0337750" lon="-7.9109980">
        <ele>609.2</ele>
        <time>2021-07-25T09:08:43Z</time>
      </trkpt>
      <trkpt lat="43.0337660" lon="-7.9110130">
        <ele>609.6</ele>
        <time>2021-07-25T09:08:44Z</time>
      </trkpt>
      <trkpt lat="43.0337560" lon="-7.9110210">
        <ele>610.0</ele>
        <time>2021-07-25T09:08:45Z</time>
      </trkpt>
      <trkpt lat="43.0337420" lon="-7.9110310">
        <ele>610.4</ele>
        <time>2021-07-25T09:08:46Z</time>
      </trkpt>
      <trkpt lat="43.0337260" lon="-7.9110480">
        <ele>611.0</ele>
        <time>2021-07-25T09:08:47Z</time>
      </trkpt>
      <trkpt lat="43.0337150" lon="-7.9110580">
        <ele>611.4</ele>
        <time>2021-07-25T09:08:48Z</time>
      </trkpt>
      <trkpt lat="43.0336620" lon="-7.9111220">
        <ele>611.4</ele>
        <time>2021-07-25T09:08:52Z</time>
      </trkpt>
      <trkpt lat="43.0336070" lon="-7.9112010">
        <ele>611.8</ele>
        <time>2021-07-25T09:08:57Z</time>
      </trkpt>
      <trkpt lat="43.0335970" lon="-7.9112160">
        <ele>612.2</ele>
        <time>2021-07-25T09:08:58Z</time>
      </trkpt>
      <trkpt lat="43.0335860" lon="-7.9112290">
        <ele>612.6</ele>
        <time>2021-07-25T09:08:59Z</time>
      </trkpt>
      <trkpt lat="43.0335810" lon="-7.9112450">
        <ele>613.0</ele>
        <time>2021-07-25T09:09:00Z</time>
      </trkpt>
      <trkpt lat="43.0335740" lon="-7.9112540">
        <ele>613.4</ele>
        <time>2021-07-25T09:09:01Z</time>
      </trkpt>
      <trkpt lat="43.0335570" lon="-7.9112780">
        <ele>613.4</ele>
        <time>2021-07-25T09:09:05Z</time>
      </trkpt>
      <trkpt lat="43.0335040" lon="-7.9112900">
        <ele>613.4</ele>
        <time>2021-07-25T09:09:09Z</time>
      </trkpt>
      <trkpt lat="43.0334950" lon="-7.9112920">
        <ele>613.8</ele>
        <time>2021-07-25T09:09:10Z</time>
      </trkpt>
      <trkpt lat="43.0334830" lon="-7.9112930">
        <ele>614.2</ele>
        <time>2021-07-25T09:09:11Z</time>
      </trkpt>
      <trkpt lat="43.0334690" lon="-7.9112950">
        <ele>614.8</ele>
        <time>2021-07-25T09:09:12Z</time>
      </trkpt>
      <trkpt lat="43.0334550" lon="-7.9112970">
        <ele>615.2</ele>
        <time>2021-07-25T09:09:13Z</time>
      </trkpt>
      <trkpt lat="43.0334430" lon="-7.9113030">
        <ele>615.6</ele>
        <time>2021-07-25T09:09:14Z</time>
      </trkpt>
      <trkpt lat="43.0334300" lon="-7.9113170">
        <ele>615.6</ele>
        <time>2021-07-25T09:09:15Z</time>
      </trkpt>
      <trkpt lat="43.0333920" lon="-7.9113890">
        <ele>615.6</ele>
        <time>2021-07-25T09:09:19Z</time>
      </trkpt>
      <trkpt lat="43.0333050" lon="-7.9115820">
        <ele>615.6</ele>
        <time>2021-07-25T09:09:27Z</time>
      </trkpt>
      <trkpt lat="43.0332390" lon="-7.9116200">
        <ele>616.0</ele>
        <time>2021-07-25T09:09:32Z</time>
      </trkpt>
      <trkpt lat="43.0332240" lon="-7.9116230">
        <ele>616.4</ele>
        <time>2021-07-25T09:09:33Z</time>
      </trkpt>
      <trkpt lat="43.0332090" lon="-7.9116270">
        <ele>617.0</ele>
        <time>2021-07-25T09:09:34Z</time>
      </trkpt>
      <trkpt lat="43.0331950" lon="-7.9116300">
        <ele>617.4</ele>
        <time>2021-07-25T09:09:35Z</time>
      </trkpt>
      <trkpt lat="43.0331850" lon="-7.9116390">
        <ele>617.8</ele>
        <time>2021-07-25T09:09:36Z</time>
      </trkpt>
      <trkpt lat="43.0331310" lon="-7.9116690">
        <ele>617.8</ele>
        <time>2021-07-25T09:09:41Z</time>
      </trkpt>
      <trkpt lat="43.0331010" lon="-7.9117040">
        <ele>618.2</ele>
        <time>2021-07-25T09:09:53Z</time>
      </trkpt>
      <trkpt lat="43.0330980" lon="-7.9117310">
        <ele>618.6</ele>
        <time>2021-07-25T09:09:54Z</time>
      </trkpt>
      <trkpt lat="43.0330970" lon="-7.9117470">
        <ele>619.0</ele>
        <time>2021-07-25T09:09:55Z</time>
      </trkpt>
      <trkpt lat="43.0330920" lon="-7.9117690">
        <ele>619.4</ele>
        <time>2021-07-25T09:09:56Z</time>
      </trkpt>
      <trkpt lat="43.0330870" lon="-7.9117940">
        <ele>619.8</ele>
        <time>2021-07-25T09:09:57Z</time>
      </trkpt>
      <trkpt lat="43.0330840" lon="-7.9118190">
        <ele>619.8</ele>
        <time>2021-07-25T09:09:58Z</time>
      </trkpt>
      <trkpt lat="43.0330590" lon="-7.9119390">
        <ele>619.8</ele>
        <time>2021-07-25T09:10:02Z</time>
      </trkpt>
      <trkpt lat="43.0330180" lon="-7.9120890">
        <ele>619.8</ele>
        <time>2021-07-25T09:10:06Z</time>
      </trkpt>
      <trkpt lat="43.0329720" lon="-7.9122730">
        <ele>619.8</ele>
        <time>2021-07-25T09:10:11Z</time>
      </trkpt>
      <trkpt lat="43.0329630" lon="-7.9123410">
        <ele>619.8</ele>
        <time>2021-07-25T09:10:13Z</time>
      </trkpt>
      <trkpt lat="43.0329580" lon="-7.9123520">
        <ele>619.8</ele>
        <time>2021-07-25T09:10:14Z</time>
      </trkpt>
      <trkpt lat="43.0329350" lon="-7.9123440">
        <ele>619.8</ele>
        <time>2021-07-25T09:10:35Z</time>
      </trkpt>
      <trkpt lat="43.0329300" lon="-7.9123180">
        <ele>619.8</ele>
        <time>2021-07-25T09:10:36Z</time>
      </trkpt>
      <trkpt lat="43.0329490" lon="-7.9121600">
        <ele>619.8</ele>
        <time>2021-07-25T09:10:40Z</time>
      </trkpt>
      <trkpt lat="43.0330190" lon="-7.9118910">
        <ele>619.8</ele>
        <time>2021-07-25T09:10:46Z</time>
      </trkpt>
      <trkpt lat="43.0330280" lon="-7.9118480">
        <ele>619.8</ele>
        <time>2021-07-25T09:10:47Z</time>
      </trkpt>
      <trkpt lat="43.0330460" lon="-7.9117330">
        <ele>619.8</ele>
        <time>2021-07-25T09:10:50Z</time>
      </trkpt>
      <trkpt lat="43.0330370" lon="-7.9116920">
        <ele>619.8</ele>
        <time>2021-07-25T09:10:52Z</time>
      </trkpt>
      <trkpt lat="43.0330350" lon="-7.9116900">
        <ele>619.8</ele>
        <time>2021-07-25T09:10:53Z</time>
      </trkpt>
      <trkpt lat="43.0330210" lon="-7.9117540">
        <ele>619.8</ele>
        <time>2021-07-25T09:10:56Z</time>
      </trkpt>
      <trkpt lat="43.0330090" lon="-7.9117920">
        <ele>619.8</ele>
        <time>2021-07-25T09:10:57Z</time>
      </trkpt>
      <trkpt lat="43.0329390" lon="-7.9121000">
        <ele>619.8</ele>
        <time>2021-07-25T09:11:04Z</time>
      </trkpt>
      <trkpt lat="43.0328840" lon="-7.9123740">
        <ele>619.8</ele>
        <time>2021-07-25T09:11:10Z</time>
      </trkpt>
      <trkpt lat="43.0328550" lon="-7.9124960">
        <ele>619.8</ele>
        <time>2021-07-25T09:11:13Z</time>
      </trkpt>
      <trkpt lat="43.0328300" lon="-7.9126240">
        <ele>619.8</ele>
        <time>2021-07-25T09:11:16Z</time>
      </trkpt>
      <trkpt lat="43.0327850" lon="-7.9128380">
        <ele>619.8</ele>
        <time>2021-07-25T09:11:21Z</time>
      </trkpt>
      <trkpt lat="43.0327150" lon="-7.9131500">
        <ele>619.8</ele>
        <time>2021-07-25T09:11:28Z</time>
      </trkpt>
      <trkpt lat="43.0327050" lon="-7.9131930">
        <ele>619.8</ele>
        <time>2021-07-25T09:11:29Z</time>
      </trkpt>
      <trkpt lat="43.0326820" lon="-7.9132830">
        <ele>620.2</ele>
        <time>2021-07-25T09:11:31Z</time>
      </trkpt>
      <trkpt lat="43.0326710" lon="-7.9133270">
        <ele>620.6</ele>
        <time>2021-07-25T09:11:32Z</time>
      </trkpt>
      <trkpt lat="43.0326610" lon="-7.9133710">
        <ele>621.0</ele>
        <time>2021-07-25T09:11:33Z</time>
      </trkpt>
      <trkpt lat="43.0326520" lon="-7.9134140">
        <ele>621.4</ele>
        <time>2021-07-25T09:11:34Z</time>
      </trkpt>
      <trkpt lat="43.0326430" lon="-7.9134560">
        <ele>621.8</ele>
        <time>2021-07-25T09:11:35Z</time>
      </trkpt>
      <trkpt lat="43.0326240" lon="-7.9135370">
        <ele>621.8</ele>
        <time>2021-07-25T09:11:37Z</time>
      </trkpt>
      <trkpt lat="43.0325700" lon="-7.9137930">
        <ele>621.8</ele>
        <time>2021-07-25T09:11:44Z</time>
      </trkpt>
      <trkpt lat="43.0325270" lon="-7.9140170">
        <ele>621.8</ele>
        <time>2021-07-25T09:11:51Z</time>
      </trkpt>
      <trkpt lat="43.0324980" lon="-7.9141230">
        <ele>622.8</ele>
        <time>2021-07-25T09:11:54Z</time>
      </trkpt>
      <trkpt lat="43.0324900" lon="-7.9141560">
        <ele>623.2</ele>
        <time>2021-07-25T09:11:55Z</time>
      </trkpt>
      <trkpt lat="43.0324830" lon="-7.9141850">
        <ele>623.6</ele>
        <time>2021-07-25T09:11:56Z</time>
      </trkpt>
      <trkpt lat="43.0324770" lon="-7.9142140">
        <ele>624.0</ele>
        <time>2021-07-25T09:11:57Z</time>
      </trkpt>
      <trkpt lat="43.0324720" lon="-7.9142480">
        <ele>624.0</ele>
        <time>2021-07-25T09:11:58Z</time>
      </trkpt>
      <trkpt lat="43.0324390" lon="-7.9144320">
        <ele>624.0</ele>
        <time>2021-07-25T09:12:05Z</time>
      </trkpt>
      <trkpt lat="43.0323960" lon="-7.9146000">
        <ele>624.4</ele>
        <time>2021-07-25T09:12:11Z</time>
      </trkpt>
      <trkpt lat="43.0323870" lon="-7.9146260">
        <ele>624.8</ele>
        <time>2021-07-25T09:12:12Z</time>
      </trkpt>
      <trkpt lat="43.0323780" lon="-7.9146510">
        <ele>625.2</ele>
        <time>2021-07-25T09:12:13Z</time>
      </trkpt>
      <trkpt lat="43.0323680" lon="-7.9146750">
        <ele>625.6</ele>
        <time>2021-07-25T09:12:14Z</time>
      </trkpt>
      <trkpt lat="43.0323590" lon="-7.9146990">
        <ele>626.0</ele>
        <time>2021-07-25T09:12:15Z</time>
      </trkpt>
      <trkpt lat="43.0323270" lon="-7.9147950">
        <ele>626.0</ele>
        <time>2021-07-25T09:12:19Z</time>
      </trkpt>
      <trkpt lat="43.0322660" lon="-7.9149630">
        <ele>626.4</ele>
        <time>2021-07-25T09:12:26Z</time>
      </trkpt>
      <trkpt lat="43.0322600" lon="-7.9149890">
        <ele>626.8</ele>
        <time>2021-07-25T09:12:27Z</time>
      </trkpt>
      <trkpt lat="43.0322500" lon="-7.9150110">
        <ele>627.2</ele>
        <time>2021-07-25T09:12:28Z</time>
      </trkpt>
      <trkpt lat="43.0322440" lon="-7.9150330">
        <ele>627.6</ele>
        <time>2021-07-25T09:12:29Z</time>
      </trkpt>
      <trkpt lat="43.0322380" lon="-7.9150580">
        <ele>628.0</ele>
        <time>2021-07-25T09:12:30Z</time>
      </trkpt>
      <trkpt lat="43.0322270" lon="-7.9151040">
        <ele>628.0</ele>
        <time>2021-07-25T09:12:32Z</time>
      </trkpt>
      <trkpt lat="43.0321690" lon="-7.9152740">
        <ele>628.0</ele>
        <time>2021-07-25T09:12:40Z</time>
      </trkpt>
      <trkpt lat="43.0321540" lon="-7.9153270">
        <ele>628.8</ele>
        <time>2021-07-25T09:12:43Z</time>
      </trkpt>
      <trkpt lat="43.0321500" lon="-7.9153450">
        <ele>629.2</ele>
        <time>2021-07-25T09:12:44Z</time>
      </trkpt>
      <trkpt lat="43.0321450" lon="-7.9153630">
        <ele>629.6</ele>
        <time>2021-07-25T09:12:45Z</time>
      </trkpt>
      <trkpt lat="43.0321370" lon="-7.9153810">
        <ele>630.0</ele>
        <time>2021-07-25T09:12:46Z</time>
      </trkpt>
      <trkpt lat="43.0321160" lon="-7.9154430">
        <ele>630.0</ele>
        <time>2021-07-25T09:12:49Z</time>
      </trkpt>
      <trkpt lat="43.0320710" lon="-7.9156180">
        <ele>630.0</ele>
        <time>2021-07-25T09:12:57Z</time>
      </trkpt>
      <trkpt lat="43.0320580" lon="-7.9156630">
        <ele>630.4</ele>
        <time>2021-07-25T09:12:59Z</time>
      </trkpt>
      <trkpt lat="43.0320550" lon="-7.9156850">
        <ele>630.8</ele>
        <time>2021-07-25T09:13:00Z</time>
      </trkpt>
      <trkpt lat="43.0320510" lon="-7.9157070">
        <ele>631.4</ele>
        <time>2021-07-25T09:13:01Z</time>
      </trkpt>
      <trkpt lat="43.0320460" lon="-7.9157280">
        <ele>631.8</ele>
        <time>2021-07-25T09:13:02Z</time>
      </trkpt>
      <trkpt lat="43.0320420" lon="-7.9157520">
        <ele>632.2</ele>
        <time>2021-07-25T09:13:03Z</time>
      </trkpt>
      <trkpt lat="43.0320370" lon="-7.9157780">
        <ele>632.2</ele>
        <time>2021-07-25T09:13:04Z</time>
      </trkpt>
      <trkpt lat="43.0320070" lon="-7.9159670">
        <ele>632.2</ele>
        <time>2021-07-25T09:13:12Z</time>
      </trkpt>
      <trkpt lat="43.0320110" lon="-7.9160880">
        <ele>632.6</ele>
        <time>2021-07-25T09:13:18Z</time>
      </trkpt>
      <trkpt lat="43.0320130" lon="-7.9161130">
        <ele>633.0</ele>
        <time>2021-07-25T09:13:19Z</time>
      </trkpt>
      <trkpt lat="43.0320110" lon="-7.9161360">
        <ele>633.4</ele>
        <time>2021-07-25T09:13:20Z</time>
      </trkpt>
      <trkpt lat="43.0320140" lon="-7.9161590">
        <ele>633.8</ele>
        <time>2021-07-25T09:13:21Z</time>
      </trkpt>
      <trkpt lat="43.0320170" lon="-7.9161810">
        <ele>634.2</ele>
        <time>2021-07-25T09:13:22Z</time>
      </trkpt>
      <trkpt lat="43.0320290" lon="-7.9162970">
        <ele>634.2</ele>
        <time>2021-07-25T09:13:27Z</time>
      </trkpt>
      <trkpt lat="43.0320600" lon="-7.9164570">
        <ele>634.2</ele>
        <time>2021-07-25T09:13:34Z</time>
      </trkpt>
      <trkpt lat="43.0320850" lon="-7.9165480">
        <ele>634.6</ele>
        <time>2021-07-25T09:13:38Z</time>
      </trkpt>
      <trkpt lat="43.0320930" lon="-7.9165750">
        <ele>635.0</ele>
        <time>2021-07-25T09:13:39Z</time>
      </trkpt>
      <trkpt lat="43.0321030" lon="-7.9166010">
        <ele>635.4</ele>
        <time>2021-07-25T09:13:40Z</time>
      </trkpt>
      <trkpt lat="43.0321130" lon="-7.9166300">
        <ele>635.8</ele>
        <time>2021-07-25T09:13:41Z</time>
      </trkpt>
      <trkpt lat="43.0321200" lon="-7.9166580">
        <ele>636.2</ele>
        <time>2021-07-25T09:13:42Z</time>
      </trkpt>
      <trkpt lat="43.0321790" lon="-7.9168380">
        <ele>636.2</ele>
        <time>2021-07-25T09:13:49Z</time>
      </trkpt>
      <trkpt lat="43.0322340" lon="-7.9169950">
        <ele>636.2</ele>
        <time>2021-07-25T09:13:55Z</time>
      </trkpt>
      <trkpt lat="43.0323050" lon="-7.9172160">
        <ele>636.2</ele>
        <time>2021-07-25T09:14:03Z</time>
      </trkpt>
      <trkpt lat="43.0323250" lon="-7.9172730">
        <ele>636.6</ele>
        <time>2021-07-25T09:14:05Z</time>
      </trkpt>
      <trkpt lat="43.0323330" lon="-7.9173010">
        <ele>637.0</ele>
        <time>2021-07-25T09:14:06Z</time>
      </trkpt>
      <trkpt lat="43.0323420" lon="-7.9173300">
        <ele>637.4</ele>
        <time>2021-07-25T09:14:07Z</time>
      </trkpt>
      <trkpt lat="43.0323490" lon="-7.9173590">
        <ele>637.8</ele>
        <time>2021-07-25T09:14:08Z</time>
      </trkpt>
      <trkpt lat="43.0323570" lon="-7.9173910">
        <ele>638.4</ele>
        <time>2021-07-25T09:14:09Z</time>
      </trkpt>
      <trkpt lat="43.0323810" lon="-7.9174760">
        <ele>638.4</ele>
        <time>2021-07-25T09:14:12Z</time>
      </trkpt>
      <trkpt lat="43.0324410" lon="-7.9176960">
        <ele>638.4</ele>
        <time>2021-07-25T09:14:19Z</time>
      </trkpt>
      <trkpt lat="43.0324800" lon="-7.9178840">
        <ele>638.4</ele>
        <time>2021-07-25T09:14:25Z</time>
      </trkpt>
      <trkpt lat="43.0324980" lon="-7.9180610">
        <ele>638.4</ele>
        <time>2021-07-25T09:14:30Z</time>
      </trkpt>
      <trkpt lat="43.0325030" lon="-7.9181680">
        <ele>638.4</ele>
        <time>2021-07-25T09:14:33Z</time>
      </trkpt>
      <trkpt lat="43.0325100" lon="-7.9182820">
        <ele>638.4</ele>
        <time>2021-07-25T09:14:36Z</time>
      </trkpt>
      <trkpt lat="43.0325140" lon="-7.9183660">
        <ele>638.4</ele>
        <time>2021-07-25T09:14:38Z</time>
      </trkpt>
      <trkpt lat="43.0325160" lon="-7.9185090">
        <ele>638.4</ele>
        <time>2021-07-25T09:14:41Z</time>
      </trkpt>
      <trkpt lat="43.0325180" lon="-7.9186720">
        <ele>638.4</ele>
        <time>2021-07-25T09:14:44Z</time>
      </trkpt>
      <trkpt lat="43.0325280" lon="-7.9189140">
        <ele>638.4</ele>
        <time>2021-07-25T09:14:48Z</time>
      </trkpt>
      <trkpt lat="43.0325210" lon="-7.9191920">
        <ele>638.4</ele>
        <time>2021-07-25T09:14:52Z</time>
      </trkpt>
      <trkpt lat="43.0325210" lon="-7.9193450">
        <ele>638.4</ele>
        <time>2021-07-25T09:14:54Z</time>
      </trkpt>
      <trkpt lat="43.0325190" lon="-7.9195740">
        <ele>638.4</ele>
        <time>2021-07-25T09:14:57Z</time>
      </trkpt>
      <trkpt lat="43.0325190" lon="-7.9197890">
        <ele>638.4</ele>
        <time>2021-07-25T09:15:00Z</time>
      </trkpt>
      <trkpt lat="43.0325160" lon="-7.9199210">
        <ele>638.4</ele>
        <time>2021-07-25T09:15:02Z</time>
      </trkpt>
      <trkpt lat="43.0325180" lon="-7.9201510">
        <ele>637.8</ele>
        <time>2021-07-25T09:15:06Z</time>
      </trkpt>
      <trkpt lat="43.0325190" lon="-7.9202000">
        <ele>637.4</ele>
        <time>2021-07-25T09:15:07Z</time>
      </trkpt>
      <trkpt lat="43.0325210" lon="-7.9202480">
        <ele>637.0</ele>
        <time>2021-07-25T09:15:08Z</time>
      </trkpt>
      <trkpt lat="43.0325230" lon="-7.9203000">
        <ele>636.6</ele>
        <time>2021-07-25T09:15:09Z</time>
      </trkpt>
      <trkpt lat="43.0325230" lon="-7.9203540">
        <ele>636.2</ele>
        <time>2021-07-25T09:15:10Z</time>
      </trkpt>
      <trkpt lat="43.0325200" lon="-7.9204670">
        <ele>636.2</ele>
        <time>2021-07-25T09:15:12Z</time>
      </trkpt>
      <trkpt lat="43.0325210" lon="-7.9205240">
        <ele>636.2</ele>
        <time>2021-07-25T09:15:13Z</time>
      </trkpt>
      <trkpt lat="43.0325240" lon="-7.9206350">
        <ele>636.2</ele>
        <time>2021-07-25T09:15:15Z</time>
      </trkpt>
      <trkpt lat="43.0325210" lon="-7.9209470">
        <ele>636.2</ele>
        <time>2021-07-25T09:15:21Z</time>
      </trkpt>
      <trkpt lat="43.0325220" lon="-7.9210500">
        <ele>636.2</ele>
        <time>2021-07-25T09:15:23Z</time>
      </trkpt>
      <trkpt lat="43.0325170" lon="-7.9212630">
        <ele>636.2</ele>
        <time>2021-07-25T09:15:27Z</time>
      </trkpt>
      <trkpt lat="43.0325180" lon="-7.9214250">
        <ele>636.2</ele>
        <time>2021-07-25T09:15:30Z</time>
      </trkpt>
      <trkpt lat="43.0325130" lon="-7.9216510">
        <ele>636.2</ele>
        <time>2021-07-25T09:15:34Z</time>
      </trkpt>
      <trkpt lat="43.0325200" lon="-7.9218220">
        <ele>636.2</ele>
        <time>2021-07-25T09:15:37Z</time>
      </trkpt>
      <trkpt lat="43.0325150" lon="-7.9222230">
        <ele>636.2</ele>
        <time>2021-07-25T09:15:44Z</time>
      </trkpt>
      <trkpt lat="43.0325120" lon="-7.9225930">
        <ele>636.2</ele>
        <time>2021-07-25T09:15:51Z</time>
      </trkpt>
      <trkpt lat="43.0325000" lon="-7.9230020">
        <ele>636.2</ele>
        <time>2021-07-25T09:15:58Z</time>
      </trkpt>
      <trkpt lat="43.0324950" lon="-7.9231660">
        <ele>636.2</ele>
        <time>2021-07-25T09:16:01Z</time>
      </trkpt>
      <trkpt lat="43.0324890" lon="-7.9233270">
        <ele>636.2</ele>
        <time>2021-07-25T09:16:04Z</time>
      </trkpt>
      <trkpt lat="43.0324850" lon="-7.9234310">
        <ele>636.2</ele>
        <time>2021-07-25T09:16:06Z</time>
      </trkpt>
      <trkpt lat="43.0324810" lon="-7.9234810">
        <ele>636.2</ele>
        <time>2021-07-25T09:16:07Z</time>
      </trkpt>
      <trkpt lat="43.0324780" lon="-7.9235800">
        <ele>636.2</ele>
        <time>2021-07-25T09:16:09Z</time>
      </trkpt>
      <trkpt lat="43.0324620" lon="-7.9238190">
        <ele>636.2</ele>
        <time>2021-07-25T09:16:14Z</time>
      </trkpt>
      <trkpt lat="43.0324600" lon="-7.9239120">
        <ele>636.2</ele>
        <time>2021-07-25T09:16:16Z</time>
      </trkpt>
      <trkpt lat="43.0324520" lon="-7.9241180">
        <ele>636.2</ele>
        <time>2021-07-25T09:16:21Z</time>
      </trkpt>
      <trkpt lat="43.0324470" lon="-7.9242010">
        <ele>635.8</ele>
        <time>2021-07-25T09:16:24Z</time>
      </trkpt>
      <trkpt lat="43.0324430" lon="-7.9242240">
        <ele>635.0</ele>
        <time>2021-07-25T09:16:25Z</time>
      </trkpt>
      <trkpt lat="43.0324380" lon="-7.9242460">
        <ele>634.6</ele>
        <time>2021-07-25T09:16:26Z</time>
      </trkpt>
      <trkpt lat="43.0324360" lon="-7.9242660">
        <ele>634.0</ele>
        <time>2021-07-25T09:16:27Z</time>
      </trkpt>
      <trkpt lat="43.0324340" lon="-7.9243790">
        <ele>634.0</ele>
        <time>2021-07-25T09:16:33Z</time>
      </trkpt>
      <trkpt lat="43.0324450" lon="-7.9244780">
        <ele>634.0</ele>
        <time>2021-07-25T09:16:37Z</time>
      </trkpt>
      <trkpt lat="43.0324430" lon="-7.9245170">
        <ele>634.0</ele>
        <time>2021-07-25T09:16:38Z</time>
      </trkpt>
      <trkpt lat="43.0324330" lon="-7.9246060">
        <ele>634.0</ele>
        <time>2021-07-25T09:16:40Z</time>
      </trkpt>
      <trkpt lat="43.0324240" lon="-7.9247120">
        <ele>634.0</ele>
        <time>2021-07-25T09:16:42Z</time>
      </trkpt>
      <trkpt lat="43.0324220" lon="-7.9247690">
        <ele>634.0</ele>
        <time>2021-07-25T09:16:43Z</time>
      </trkpt>
      <trkpt lat="43.0324190" lon="-7.9248850">
        <ele>634.0</ele>
        <time>2021-07-25T09:16:45Z</time>
      </trkpt>
      <trkpt lat="43.0324160" lon="-7.9249390">
        <ele>634.0</ele>
        <time>2021-07-25T09:16:46Z</time>
      </trkpt>
      <trkpt lat="43.0324100" lon="-7.9251490">
        <ele>634.0</ele>
        <time>2021-07-25T09:16:50Z</time>
      </trkpt>
      <trkpt lat="43.0324070" lon="-7.9255190">
        <ele>634.0</ele>
        <time>2021-07-25T09:16:57Z</time>
      </trkpt>
      <trkpt lat="43.0324030" lon="-7.9257370">
        <ele>634.0</ele>
        <time>2021-07-25T09:17:01Z</time>
      </trkpt>
      <trkpt lat="43.0324000" lon="-7.9258400">
        <ele>634.0</ele>
        <time>2021-07-25T09:17:03Z</time>
      </trkpt>
      <trkpt lat="43.0323900" lon="-7.9261770">
        <ele>634.0</ele>
        <time>2021-07-25T09:17:09Z</time>
      </trkpt>
      <trkpt lat="43.0323820" lon="-7.9265290">
        <ele>634.0</ele>
        <time>2021-07-25T09:17:16Z</time>
      </trkpt>
      <trkpt lat="43.0323760" lon="-7.9266620">
        <ele>634.0</ele>
        <time>2021-07-25T09:17:20Z</time>
      </trkpt>
      <trkpt lat="43.0323740" lon="-7.9267100">
        <ele>634.0</ele>
        <time>2021-07-25T09:17:22Z</time>
      </trkpt>
      <trkpt lat="43.0323690" lon="-7.9268600">
        <ele>634.0</ele>
        <time>2021-07-25T09:17:26Z</time>
      </trkpt>
      <trkpt lat="43.0323720" lon="-7.9269620">
        <ele>634.0</ele>
        <time>2021-07-25T09:17:28Z</time>
      </trkpt>
      <trkpt lat="43.0323720" lon="-7.9271110">
        <ele>634.0</ele>
        <time>2021-07-25T09:17:31Z</time>
      </trkpt>
      <trkpt lat="43.0323730" lon="-7.9271610">
        <ele>634.0</ele>
        <time>2021-07-25T09:17:32Z</time>
      </trkpt>
      <trkpt lat="43.0323610" lon="-7.9272730">
        <ele>634.0</ele>
        <time>2021-07-25T09:17:34Z</time>
      </trkpt>
      <trkpt lat="43.0323480" lon="-7.9273320">
        <ele>634.0</ele>
        <time>2021-07-25T09:17:35Z</time>
      </trkpt>
      <trkpt lat="43.0323200" lon="-7.9274450">
        <ele>634.0</ele>
        <time>2021-07-25T09:17:37Z</time>
      </trkpt>
      <trkpt lat="43.0323020" lon="-7.9276280">
        <ele>634.0</ele>
        <time>2021-07-25T09:17:40Z</time>
      </trkpt>
      <trkpt lat="43.0322990" lon="-7.9278610">
        <ele>634.0</ele>
        <time>2021-07-25T09:17:44Z</time>
      </trkpt>
      <trkpt lat="43.0323000" lon="-7.9281510">
        <ele>634.0</ele>
        <time>2021-07-25T09:17:49Z</time>
      </trkpt>
      <trkpt lat="43.0322980" lon="-7.9282090">
        <ele>634.0</ele>
        <time>2021-07-25T09:17:50Z</time>
      </trkpt>
      <trkpt lat="43.0322950" lon="-7.9285230">
        <ele>634.0</ele>
        <time>2021-07-25T09:17:56Z</time>
      </trkpt>
      <trkpt lat="43.0322950" lon="-7.9285640">
        <ele>634.0</ele>
        <time>2021-07-25T09:17:57Z</time>
      </trkpt>
      <trkpt lat="43.0322930" lon="-7.9288570">
        <ele>634.6</ele>
        <time>2021-07-25T09:18:04Z</time>
      </trkpt>
      <trkpt lat="43.0322910" lon="-7.9288920">
        <ele>635.0</ele>
        <time>2021-07-25T09:18:05Z</time>
      </trkpt>
      <trkpt lat="43.0322900" lon="-7.9289260">
        <ele>635.4</ele>
        <time>2021-07-25T09:18:06Z</time>
      </trkpt>
      <trkpt lat="43.0322900" lon="-7.9289570">
        <ele>635.8</ele>
        <time>2021-07-25T09:18:07Z</time>
      </trkpt>
      <trkpt lat="43.0322910" lon="-7.9289860">
        <ele>636.2</ele>
        <time>2021-07-25T09:18:08Z</time>
      </trkpt>
      <trkpt lat="43.0323000" lon="-7.9290910">
        <ele>636.2</ele>
        <time>2021-07-25T09:18:12Z</time>
      </trkpt>
      <trkpt lat="43.0323110" lon="-7.9291430">
        <ele>636.2</ele>
        <time>2021-07-25T09:18:16Z</time>
      </trkpt>
      <trkpt lat="43.0322930" lon="-7.9291950">
        <ele>636.2</ele>
        <time>2021-07-25T09:20:03Z</time>
      </trkpt>
      <trkpt lat="43.0322900" lon="-7.9292210">
        <ele>636.2</ele>
        <time>2021-07-25T09:20:04Z</time>
      </trkpt>
      <trkpt lat="43.0322870" lon="-7.9292870">
        <ele>636.2</ele>
        <time>2021-07-25T09:20:06Z</time>
      </trkpt>
      <trkpt lat="43.0322870" lon="-7.9293700">
        <ele>636.2</ele>
        <time>2021-07-25T09:20:08Z</time>
      </trkpt>
      <trkpt lat="43.0322790" lon="-7.9294720">
        <ele>636.2</ele>
        <time>2021-07-25T09:20:10Z</time>
      </trkpt>
      <trkpt lat="43.0322760" lon="-7.9296240">
        <ele>636.2</ele>
        <time>2021-07-25T09:20:13Z</time>
      </trkpt>
      <trkpt lat="43.0322660" lon="-7.9297330">
        <ele>636.2</ele>
        <time>2021-07-25T09:20:15Z</time>
      </trkpt>
      <trkpt lat="43.0322640" lon="-7.9297890">
        <ele>636.2</ele>
        <time>2021-07-25T09:20:16Z</time>
      </trkpt>
      <trkpt lat="43.0322550" lon="-7.9300700">
        <ele>636.2</ele>
        <time>2021-07-25T09:20:21Z</time>
      </trkpt>
      <trkpt lat="43.0322510" lon="-7.9302380">
        <ele>636.2</ele>
        <time>2021-07-25T09:20:24Z</time>
      </trkpt>
      <trkpt lat="43.0322490" lon="-7.9303470">
        <ele>636.2</ele>
        <time>2021-07-25T09:20:26Z</time>
      </trkpt>
      <trkpt lat="43.0322410" lon="-7.9304560">
        <ele>636.2</ele>
        <time>2021-07-25T09:20:28Z</time>
      </trkpt>
      <trkpt lat="43.0322250" lon="-7.9306240">
        <ele>636.2</ele>
        <time>2021-07-25T09:20:31Z</time>
      </trkpt>
      <trkpt lat="43.0322170" lon="-7.9307610">
        <ele>636.2</ele>
        <time>2021-07-25T09:20:34Z</time>
      </trkpt>
      <trkpt lat="43.0322190" lon="-7.9308090">
        <ele>635.8</ele>
        <time>2021-07-25T09:20:36Z</time>
      </trkpt>
      <trkpt lat="43.0322240" lon="-7.9308330">
        <ele>635.2</ele>
        <time>2021-07-25T09:20:37Z</time>
      </trkpt>
      <trkpt lat="43.0322270" lon="-7.9308660">
        <ele>634.8</ele>
        <time>2021-07-25T09:20:38Z</time>
      </trkpt>
      <trkpt lat="43.0322270" lon="-7.9309090">
        <ele>634.2</ele>
        <time>2021-07-25T09:20:39Z</time>
      </trkpt>
      <trkpt lat="43.0322270" lon="-7.9309570">
        <ele>633.8</ele>
        <time>2021-07-25T09:20:40Z</time>
      </trkpt>
      <trkpt lat="43.0322260" lon="-7.9310650">
        <ele>633.8</ele>
        <time>2021-07-25T09:20:42Z</time>
      </trkpt>
      <trkpt lat="43.0322120" lon="-7.9314470">
        <ele>633.8</ele>
        <time>2021-07-25T09:20:47Z</time>
      </trkpt>
      <trkpt lat="43.0322090" lon="-7.9316410">
        <ele>633.8</ele>
        <time>2021-07-25T09:20:49Z</time>
      </trkpt>
      <trkpt lat="43.0322060" lon="-7.9317450">
        <ele>633.4</ele>
        <time>2021-07-25T09:20:50Z</time>
      </trkpt>
      <trkpt lat="43.0322060" lon="-7.9318490">
        <ele>633.0</ele>
        <time>2021-07-25T09:20:51Z</time>
      </trkpt>
      <trkpt lat="43.0322050" lon="-7.9319540">
        <ele>632.6</ele>
        <time>2021-07-25T09:20:52Z</time>
      </trkpt>
      <trkpt lat="43.0322020" lon="-7.9320610">
        <ele>632.0</ele>
        <time>2021-07-25T09:20:53Z</time>
      </trkpt>
      <trkpt lat="43.0322000" lon="-7.9321720">
        <ele>631.6</ele>
        <time>2021-07-25T09:20:54Z</time>
      </trkpt>
      <trkpt lat="43.0321930" lon="-7.9324770">
        <ele>631.2</ele>
        <time>2021-07-25T09:20:57Z</time>
      </trkpt>
      <trkpt lat="43.0321910" lon="-7.9325770">
        <ele>630.8</ele>
        <time>2021-07-25T09:20:58Z</time>
      </trkpt>
      <trkpt lat="43.0321900" lon="-7.9326730">
        <ele>630.4</ele>
        <time>2021-07-25T09:20:59Z</time>
      </trkpt>
      <trkpt lat="43.0321890" lon="-7.9327640">
        <ele>630.0</ele>
        <time>2021-07-25T09:21:00Z</time>
      </trkpt>
      <trkpt lat="43.0321830" lon="-7.9328490">
        <ele>629.6</ele>
        <time>2021-07-25T09:21:01Z</time>
      </trkpt>
      <trkpt lat="43.0321640" lon="-7.9329950">
        <ele>629.6</ele>
        <time>2021-07-25T09:21:03Z</time>
      </trkpt>
      <trkpt lat="43.0321660" lon="-7.9330570">
        <ele>629.6</ele>
        <time>2021-07-25T09:21:04Z</time>
      </trkpt>
      <trkpt lat="43.0321690" lon="-7.9331100">
        <ele>629.6</ele>
        <time>2021-07-25T09:21:05Z</time>
      </trkpt>
      <trkpt lat="43.0321720" lon="-7.9333280">
        <ele>629.6</ele>
        <time>2021-07-25T09:21:10Z</time>
      </trkpt>
      <trkpt lat="43.0321740" lon="-7.9333770">
        <ele>629.2</ele>
        <time>2021-07-25T09:21:12Z</time>
      </trkpt>
      <trkpt lat="43.0321740" lon="-7.9334080">
        <ele>628.6</ele>
        <time>2021-07-25T09:21:13Z</time>
      </trkpt>
      <trkpt lat="43.0321730" lon="-7.9334350">
        <ele>628.2</ele>
        <time>2021-07-25T09:21:14Z</time>
      </trkpt>
      <trkpt lat="43.0321720" lon="-7.9334580">
        <ele>627.8</ele>
        <time>2021-07-25T09:21:15Z</time>
      </trkpt>
      <trkpt lat="43.0321710" lon="-7.9334820">
        <ele>627.4</ele>
        <time>2021-07-25T09:21:16Z</time>
      </trkpt>
      <trkpt lat="43.0321690" lon="-7.9336000">
        <ele>627.4</ele>
        <time>2021-07-25T09:21:21Z</time>
      </trkpt>
      <trkpt lat="43.0321710" lon="-7.9336240">
        <ele>627.0</ele>
        <time>2021-07-25T09:21:22Z</time>
      </trkpt>
      <trkpt lat="43.0321720" lon="-7.9336570">
        <ele>626.6</ele>
        <time>2021-07-25T09:21:23Z</time>
      </trkpt>
      <trkpt lat="43.0321740" lon="-7.9336950">
        <ele>626.2</ele>
        <time>2021-07-25T09:21:24Z</time>
      </trkpt>
      <trkpt lat="43.0321740" lon="-7.9337330">
        <ele>625.8</ele>
        <time>2021-07-25T09:21:25Z</time>
      </trkpt>
      <trkpt lat="43.0321750" lon="-7.9337590">
        <ele>625.4</ele>
        <time>2021-07-25T09:21:26Z</time>
      </trkpt>
      <trkpt lat="43.0321830" lon="-7.9338460">
        <ele>625.4</ele>
        <time>2021-07-25T09:21:29Z</time>
      </trkpt>
      <trkpt lat="43.0321900" lon="-7.9339820">
        <ele>625.4</ele>
        <time>2021-07-25T09:21:32Z</time>
      </trkpt>
      <trkpt lat="43.0321930" lon="-7.9340500">
        <ele>625.4</ele>
        <time>2021-07-25T09:21:33Z</time>
      </trkpt>
      <trkpt lat="43.0322040" lon="-7.9342000">
        <ele>625.4</ele>
        <time>2021-07-25T09:21:35Z</time>
      </trkpt>
      <trkpt lat="43.0322130" lon="-7.9342810">
        <ele>625.4</ele>
        <time>2021-07-25T09:21:36Z</time>
      </trkpt>
      <trkpt lat="43.0322430" lon="-7.9344420">
        <ele>625.4</ele>
        <time>2021-07-25T09:21:38Z</time>
      </trkpt>
      <trkpt lat="43.0322820" lon="-7.9346010">
        <ele>625.0</ele>
        <time>2021-07-25T09:21:40Z</time>
      </trkpt>
      <trkpt lat="43.0323010" lon="-7.9346810">
        <ele>624.6</ele>
        <time>2021-07-25T09:21:41Z</time>
      </trkpt>
      <trkpt lat="43.0323200" lon="-7.9347630">
        <ele>624.2</ele>
        <time>2021-07-25T09:21:42Z</time>
      </trkpt>
      <trkpt lat="43.0323410" lon="-7.9348450">
        <ele>623.8</ele>
        <time>2021-07-25T09:21:43Z</time>
      </trkpt>
      <trkpt lat="43.0323640" lon="-7.9349280">
        <ele>623.4</ele>
        <time>2021-07-25T09:21:44Z</time>
      </trkpt>
      <trkpt lat="43.0324320" lon="-7.9351840">
        <ele>622.8</ele>
        <time>2021-07-25T09:21:47Z</time>
      </trkpt>
      <trkpt lat="43.0324510" lon="-7.9352580">
        <ele>622.4</ele>
        <time>2021-07-25T09:21:48Z</time>
      </trkpt>
      <trkpt lat="43.0324700" lon="-7.9353230">
        <ele>621.8</ele>
        <time>2021-07-25T09:21:49Z</time>
      </trkpt>
      <trkpt lat="43.0324860" lon="-7.9353810">
        <ele>621.4</ele>
        <time>2021-07-25T09:21:50Z</time>
      </trkpt>
      <trkpt lat="43.0324980" lon="-7.9354290">
        <ele>620.8</ele>
        <time>2021-07-25T09:21:51Z</time>
      </trkpt>
      <trkpt lat="43.0325080" lon="-7.9354660">
        <ele>620.2</ele>
        <time>2021-07-25T09:21:52Z</time>
      </trkpt>
      <trkpt lat="43.0325180" lon="-7.9354950">
        <ele>619.6</ele>
        <time>2021-07-25T09:21:53Z</time>
      </trkpt>
      <trkpt lat="43.0325280" lon="-7.9355190">
        <ele>619.0</ele>
        <time>2021-07-25T09:21:54Z</time>
      </trkpt>
      <trkpt lat="43.0325340" lon="-7.9355430">
        <ele>618.4</ele>
        <time>2021-07-25T09:21:55Z</time>
      </trkpt>
      <trkpt lat="43.0325390" lon="-7.9355650">
        <ele>618.4</ele>
        <time>2021-07-25T09:21:56Z</time>
      </trkpt>
      <trkpt lat="43.0325460" lon="-7.9355930">
        <ele>617.8</ele>
        <time>2021-07-25T09:21:57Z</time>
      </trkpt>
      <trkpt lat="43.0325610" lon="-7.9356380">
        <ele>617.4</ele>
        <time>2021-07-25T09:21:58Z</time>
      </trkpt>
      <trkpt lat="43.0325830" lon="-7.9356970">
        <ele>617.0</ele>
        <time>2021-07-25T09:21:59Z</time>
      </trkpt>
      <trkpt lat="43.0326070" lon="-7.9357690">
        <ele>616.6</ele>
        <time>2021-07-25T09:22:00Z</time>
      </trkpt>
      <trkpt lat="43.0326320" lon="-7.9358490">
        <ele>616.2</ele>
        <time>2021-07-25T09:22:01Z</time>
      </trkpt>
      <trkpt lat="43.0326810" lon="-7.9360200">
        <ele>616.2</ele>
        <time>2021-07-25T09:22:03Z</time>
      </trkpt>
      <trkpt lat="43.0327090" lon="-7.9361060">
        <ele>616.2</ele>
        <time>2021-07-25T09:22:04Z</time>
      </trkpt>
      <trkpt lat="43.0327730" lon="-7.9362800">
        <ele>616.2</ele>
        <time>2021-07-25T09:22:06Z</time>
      </trkpt>
      <trkpt lat="43.0328530" lon="-7.9364380">
        <ele>616.2</ele>
        <time>2021-07-25T09:22:08Z</time>
      </trkpt>
      <trkpt lat="43.0330070" lon="-7.9366410">
        <ele>615.2</ele>
        <time>2021-07-25T09:22:11Z</time>
      </trkpt>
      <trkpt lat="43.0330640" lon="-7.9366920">
        <ele>614.8</ele>
        <time>2021-07-25T09:22:12Z</time>
      </trkpt>
      <trkpt lat="43.0331210" lon="-7.9367360">
        <ele>614.4</ele>
        <time>2021-07-25T09:22:13Z</time>
      </trkpt>
      <trkpt lat="43.0331780" lon="-7.9367830">
        <ele>613.8</ele>
        <time>2021-07-25T09:22:14Z</time>
      </trkpt>
      <trkpt lat="43.0332960" lon="-7.9368840">
        <ele>613.8</ele>
        <time>2021-07-25T09:22:16Z</time>
      </trkpt>
      <trkpt lat="43.0335530" lon="-7.9370960">
        <ele>613.4</ele>
        <time>2021-07-25T09:22:20Z</time>
      </trkpt>
      <trkpt lat="43.0336120" lon="-7.9371430">
        <ele>612.8</ele>
        <time>2021-07-25T09:22:21Z</time>
      </trkpt>
      <trkpt lat="43.0336680" lon="-7.9371890">
        <ele>612.4</ele>
        <time>2021-07-25T09:22:22Z</time>
      </trkpt>
      <trkpt lat="43.0337240" lon="-7.9372360">
        <ele>611.8</ele>
        <time>2021-07-25T09:22:23Z</time>
      </trkpt>
      <trkpt lat="43.0337790" lon="-7.9372840">
        <ele>611.2</ele>
        <time>2021-07-25T09:22:24Z</time>
      </trkpt>
      <trkpt lat="43.0338350" lon="-7.9373400">
        <ele>610.4</ele>
        <time>2021-07-25T09:22:25Z</time>
      </trkpt>
      <trkpt lat="43.0338890" lon="-7.9374030">
        <ele>609.8</ele>
        <time>2021-07-25T09:22:26Z</time>
      </trkpt>
      <trkpt lat="43.0339430" lon="-7.9374720">
        <ele>609.2</ele>
        <time>2021-07-25T09:22:27Z</time>
      </trkpt>
      <trkpt lat="43.0339950" lon="-7.9375480">
        <ele>609.2</ele>
        <time>2021-07-25T09:22:28Z</time>
      </trkpt>
      <trkpt lat="43.0342080" lon="-7.9380000">
        <ele>608.8</ele>
        <time>2021-07-25T09:22:33Z</time>
      </trkpt>
      <trkpt lat="43.0342390" lon="-7.9381000">
        <ele>608.2</ele>
        <time>2021-07-25T09:22:34Z</time>
      </trkpt>
      <trkpt lat="43.0342660" lon="-7.9381970">
        <ele>607.8</ele>
        <time>2021-07-25T09:22:35Z</time>
      </trkpt>
      <trkpt lat="43.0342890" lon="-7.9382910">
        <ele>606.6</ele>
        <time>2021-07-25T09:22:36Z</time>
      </trkpt>
      <trkpt lat="43.0343050" lon="-7.9383900">
        <ele>606.0</ele>
        <time>2021-07-25T09:22:37Z</time>
      </trkpt>
      <trkpt lat="43.0343150" lon="-7.9384930">
        <ele>605.4</ele>
        <time>2021-07-25T09:22:38Z</time>
      </trkpt>
      <trkpt lat="43.0343210" lon="-7.9385940">
        <ele>604.8</ele>
        <time>2021-07-25T09:22:39Z</time>
      </trkpt>
      <trkpt lat="43.0343250" lon="-7.9387590">
        <ele>604.2</ele>
        <time>2021-07-25T09:22:41Z</time>
      </trkpt>
      <trkpt lat="43.0343170" lon="-7.9388300">
        <ele>603.8</ele>
        <time>2021-07-25T09:22:42Z</time>
      </trkpt>
      <trkpt lat="43.0343050" lon="-7.9388970">
        <ele>603.4</ele>
        <time>2021-07-25T09:22:43Z</time>
      </trkpt>
      <trkpt lat="43.0342910" lon="-7.9389640">
        <ele>602.8</ele>
        <time>2021-07-25T09:22:44Z</time>
      </trkpt>
      <trkpt lat="43.0342760" lon="-7.9390270">
        <ele>602.2</ele>
        <time>2021-07-25T09:22:45Z</time>
      </trkpt>
      <trkpt lat="43.0342530" lon="-7.9390870">
        <ele>601.6</ele>
        <time>2021-07-25T09:22:46Z</time>
      </trkpt>
      <trkpt lat="43.0342310" lon="-7.9391460">
        <ele>601.0</ele>
        <time>2021-07-25T09:22:47Z</time>
      </trkpt>
      <trkpt lat="43.0342140" lon="-7.9392000">
        <ele>600.4</ele>
        <time>2021-07-25T09:22:48Z</time>
      </trkpt>
      <trkpt lat="43.0342040" lon="-7.9392530">
        <ele>600.4</ele>
        <time>2021-07-25T09:22:49Z</time>
      </trkpt>
      <trkpt lat="43.0342050" lon="-7.9394020">
        <ele>600.4</ele>
        <time>2021-07-25T09:22:52Z</time>
      </trkpt>
      <trkpt lat="43.0342230" lon="-7.9395110">
        <ele>600.4</ele>
        <time>2021-07-25T09:22:54Z</time>
      </trkpt>
      <trkpt lat="43.0342310" lon="-7.9396720">
        <ele>600.4</ele>
        <time>2021-07-25T09:22:56Z</time>
      </trkpt>
      <trkpt lat="43.0342270" lon="-7.9397600">
        <ele>600.4</ele>
        <time>2021-07-25T09:22:57Z</time>
      </trkpt>
      <trkpt lat="43.0342090" lon="-7.9399440">
        <ele>599.8</ele>
        <time>2021-07-25T09:22:59Z</time>
      </trkpt>
      <trkpt lat="43.0342020" lon="-7.9400350">
        <ele>599.4</ele>
        <time>2021-07-25T09:23:00Z</time>
      </trkpt>
      <trkpt lat="43.0341970" lon="-7.9401270">
        <ele>598.6</ele>
        <time>2021-07-25T09:23:01Z</time>
      </trkpt>
      <trkpt lat="43.0341940" lon="-7.9402200">
        <ele>598.0</ele>
        <time>2021-07-25T09:23:02Z</time>
      </trkpt>
      <trkpt lat="43.0341950" lon="-7.9404060">
        <ele>598.0</ele>
        <time>2021-07-25T09:23:04Z</time>
      </trkpt>
      <trkpt lat="43.0342070" lon="-7.9405800">
        <ele>597.6</ele>
        <time>2021-07-25T09:23:06Z</time>
      </trkpt>
      <trkpt lat="43.0342150" lon="-7.9406680">
        <ele>597.2</ele>
        <time>2021-07-25T09:23:07Z</time>
      </trkpt>
      <trkpt lat="43.0342260" lon="-7.9407520">
        <ele>596.8</ele>
        <time>2021-07-25T09:23:08Z</time>
      </trkpt>
      <trkpt lat="43.0342410" lon="-7.9408360">
        <ele>596.4</ele>
        <time>2021-07-25T09:23:09Z</time>
      </trkpt>
      <trkpt lat="43.0342620" lon="-7.9409270">
        <ele>596.0</ele>
        <time>2021-07-25T09:23:10Z</time>
      </trkpt>
      <trkpt lat="43.0343440" lon="-7.9411700">
        <ele>596.0</ele>
        <time>2021-07-25T09:23:13Z</time>
      </trkpt>
      <trkpt lat="43.0343790" lon="-7.9412490">
        <ele>595.6</ele>
        <time>2021-07-25T09:23:14Z</time>
      </trkpt>
      <trkpt lat="43.0344180" lon="-7.9413320">
        <ele>595.2</ele>
        <time>2021-07-25T09:23:15Z</time>
      </trkpt>
      <trkpt lat="43.0344610" lon="-7.9414180">
        <ele>594.8</ele>
        <time>2021-07-25T09:23:16Z</time>
      </trkpt>
      <trkpt lat="43.0345060" lon="-7.9415030">
        <ele>594.4</ele>
        <time>2021-07-25T09:23:17Z</time>
      </trkpt>
      <trkpt lat="43.0345520" lon="-7.9415930">
        <ele>594.0</ele>
        <time>2021-07-25T09:23:18Z</time>
      </trkpt>
      <trkpt lat="43.0346320" lon="-7.9417550">
        <ele>593.6</ele>
        <time>2021-07-25T09:23:20Z</time>
      </trkpt>
      <trkpt lat="43.0346720" lon="-7.9418290">
        <ele>593.2</ele>
        <time>2021-07-25T09:23:21Z</time>
      </trkpt>
      <trkpt lat="43.0347080" lon="-7.9418960">
        <ele>592.8</ele>
        <time>2021-07-25T09:23:22Z</time>
      </trkpt>
      <trkpt lat="43.0347420" lon="-7.9419580">
        <ele>592.4</ele>
        <time>2021-07-25T09:23:23Z</time>
      </trkpt>
      <trkpt lat="43.0347720" lon="-7.9420180">
        <ele>592.0</ele>
        <time>2021-07-25T09:23:24Z</time>
      </trkpt>
      <trkpt lat="43.0348270" lon="-7.9421300">
        <ele>592.0</ele>
        <time>2021-07-25T09:23:26Z</time>
      </trkpt>
      <trkpt lat="43.0349860" lon="-7.9424420">
        <ele>592.0</ele>
        <time>2021-07-25T09:23:32Z</time>
      </trkpt>
      <trkpt lat="43.0351890" lon="-7.9427750">
        <ele>592.0</ele>
        <time>2021-07-25T09:23:37Z</time>
      </trkpt>
      <trkpt lat="43.0352390" lon="-7.9428410">
        <ele>592.0</ele>
        <time>2021-07-25T09:23:38Z</time>
      </trkpt>
      <trkpt lat="43.0352930" lon="-7.9429090">
        <ele>591.4</ele>
        <time>2021-07-25T09:23:39Z</time>
      </trkpt>
      <trkpt lat="43.0353530" lon="-7.9429760">
        <ele>591.0</ele>
        <time>2021-07-25T09:23:40Z</time>
      </trkpt>
      <trkpt lat="43.0354120" lon="-7.9430400">
        <ele>590.4</ele>
        <time>2021-07-25T09:23:41Z</time>
      </trkpt>
      <trkpt lat="43.0354750" lon="-7.9431030">
        <ele>590.0</ele>
        <time>2021-07-25T09:23:42Z</time>
      </trkpt>
      <trkpt lat="43.0355380" lon="-7.9431640">
        <ele>589.6</ele>
        <time>2021-07-25T09:23:43Z</time>
      </trkpt>
      <trkpt lat="43.0357390" lon="-7.9433690">
        <ele>589.0</ele>
        <time>2021-07-25T09:23:46Z</time>
      </trkpt>
      <trkpt lat="43.0358100" lon="-7.9434440">
        <ele>588.6</ele>
        <time>2021-07-25T09:23:47Z</time>
      </trkpt>
      <trkpt lat="43.0358880" lon="-7.9435260">
        <ele>588.2</ele>
        <time>2021-07-25T09:23:48Z</time>
      </trkpt>
      <trkpt lat="43.0359630" lon="-7.9436050">
        <ele>587.8</ele>
        <time>2021-07-25T09:23:49Z</time>
      </trkpt>
      <trkpt lat="43.0360360" lon="-7.9436850">
        <ele>587.2</ele>
        <time>2021-07-25T09:23:50Z</time>
      </trkpt>
      <trkpt lat="43.0361040" lon="-7.9437630">
        <ele>586.0</ele>
        <time>2021-07-25T09:23:51Z</time>
      </trkpt>
      <trkpt lat="43.0361730" lon="-7.9438370">
        <ele>585.4</ele>
        <time>2021-07-25T09:23:52Z</time>
      </trkpt>
      <trkpt lat="43.0362400" lon="-7.9439080">
        <ele>584.8</ele>
        <time>2021-07-25T09:23:53Z</time>
      </trkpt>
      <trkpt lat="43.0363030" lon="-7.9439840">
        <ele>584.2</ele>
        <time>2021-07-25T09:23:54Z</time>
      </trkpt>
      <trkpt lat="43.0363620" lon="-7.9440650">
        <ele>583.6</ele>
        <time>2021-07-25T09:23:55Z</time>
      </trkpt>
      <trkpt lat="43.0364200" lon="-7.9441520">
        <ele>583.0</ele>
        <time>2021-07-25T09:23:56Z</time>
      </trkpt>
      <trkpt lat="43.0364700" lon="-7.9442410">
        <ele>582.4</ele>
        <time>2021-07-25T09:23:57Z</time>
      </trkpt>
      <trkpt lat="43.0365580" lon="-7.9444330">
        <ele>582.4</ele>
        <time>2021-07-25T09:23:59Z</time>
      </trkpt>
      <trkpt lat="43.0366000" lon="-7.9445330">
        <ele>581.8</ele>
        <time>2021-07-25T09:24:00Z</time>
      </trkpt>
      <trkpt lat="43.0366410" lon="-7.9446350">
        <ele>581.4</ele>
        <time>2021-07-25T09:24:01Z</time>
      </trkpt>
      <trkpt lat="43.0366830" lon="-7.9447410">
        <ele>580.8</ele>
        <time>2021-07-25T09:24:02Z</time>
      </trkpt>
      <trkpt lat="43.0367260" lon="-7.9448450">
        <ele>580.2</ele>
        <time>2021-07-25T09:24:03Z</time>
      </trkpt>
      <trkpt lat="43.0367650" lon="-7.9449400">
        <ele>579.8</ele>
        <time>2021-07-25T09:24:04Z</time>
      </trkpt>
      <trkpt lat="43.0368050" lon="-7.9450290">
        <ele>579.2</ele>
        <time>2021-07-25T09:24:05Z</time>
      </trkpt>
      <trkpt lat="43.0368470" lon="-7.9451150">
        <ele>578.8</ele>
        <time>2021-07-25T09:24:06Z</time>
      </trkpt>
      <trkpt lat="43.0368890" lon="-7.9451920">
        <ele>578.2</ele>
        <time>2021-07-25T09:24:07Z</time>
      </trkpt>
      <trkpt lat="43.0369350" lon="-7.9452640">
        <ele>577.6</ele>
        <time>2021-07-25T09:24:08Z</time>
      </trkpt>
      <trkpt lat="43.0370370" lon="-7.9453860">
        <ele>577.6</ele>
        <time>2021-07-25T09:24:10Z</time>
      </trkpt>
      <trkpt lat="43.0370980" lon="-7.9454490">
        <ele>577.6</ele>
        <time>2021-07-25T09:24:11Z</time>
      </trkpt>
      <trkpt lat="43.0372240" lon="-7.9455740">
        <ele>577.2</ele>
        <time>2021-07-25T09:24:13Z</time>
      </trkpt>
      <trkpt lat="43.0372930" lon="-7.9456340">
        <ele>576.8</ele>
        <time>2021-07-25T09:24:14Z</time>
      </trkpt>
      <trkpt lat="43.0373630" lon="-7.9456960">
        <ele>575.8</ele>
        <time>2021-07-25T09:24:15Z</time>
      </trkpt>
      <trkpt lat="43.0374360" lon="-7.9457620">
        <ele>575.4</ele>
        <time>2021-07-25T09:24:16Z</time>
      </trkpt>
      <trkpt lat="43.0375080" lon="-7.9458260">
        <ele>575.0</ele>
        <time>2021-07-25T09:24:17Z</time>
      </trkpt>
      <trkpt lat="43.0375820" lon="-7.9458930">
        <ele>574.4</ele>
        <time>2021-07-25T09:24:18Z</time>
      </trkpt>
      <trkpt lat="43.0376600" lon="-7.9459640">
        <ele>573.8</ele>
        <time>2021-07-25T09:24:19Z</time>
      </trkpt>
      <trkpt lat="43.0377330" lon="-7.9460310">
        <ele>573.4</ele>
        <time>2021-07-25T09:24:20Z</time>
      </trkpt>
      <trkpt lat="43.0378060" lon="-7.9460980">
        <ele>572.8</ele>
        <time>2021-07-25T09:24:21Z</time>
      </trkpt>
      <trkpt lat="43.0380200" lon="-7.9462930">
        <ele>572.4</ele>
        <time>2021-07-25T09:24:24Z</time>
      </trkpt>
      <trkpt lat="43.0380890" lon="-7.9463530">
        <ele>571.8</ele>
        <time>2021-07-25T09:24:25Z</time>
      </trkpt>
      <trkpt lat="43.0381590" lon="-7.9464170">
        <ele>571.2</ele>
        <time>2021-07-25T09:24:26Z</time>
      </trkpt>
      <trkpt lat="43.0382260" lon="-7.9464770">
        <ele>570.6</ele>
        <time>2021-07-25T09:24:27Z</time>
      </trkpt>
      <trkpt lat="43.0382940" lon="-7.9465360">
        <ele>570.0</ele>
        <time>2021-07-25T09:24:28Z</time>
      </trkpt>
      <trkpt lat="43.0383590" lon="-7.9465960">
        <ele>569.4</ele>
        <time>2021-07-25T09:24:29Z</time>
      </trkpt>
      <trkpt lat="43.0384230" lon="-7.9466530">
        <ele>568.6</ele>
        <time>2021-07-25T09:24:30Z</time>
      </trkpt>
      <trkpt lat="43.0384870" lon="-7.9467100">
        <ele>568.0</ele>
        <time>2021-07-25T09:24:31Z</time>
      </trkpt>
      <trkpt lat="43.0385500" lon="-7.9467670">
        <ele>567.4</ele>
        <time>2021-07-25T09:24:32Z</time>
      </trkpt>
      <trkpt lat="43.0386120" lon="-7.9468270">
        <ele>566.6</ele>
        <time>2021-07-25T09:24:33Z</time>
      </trkpt>
      <trkpt lat="43.0386720" lon="-7.9468810">
        <ele>566.0</ele>
        <time>2021-07-25T09:24:34Z</time>
      </trkpt>
      <trkpt lat="43.0387270" lon="-7.9469310">
        <ele>566.0</ele>
        <time>2021-07-25T09:24:35Z</time>
      </trkpt>
      <trkpt lat="43.0387820" lon="-7.9469810">
        <ele>565.4</ele>
        <time>2021-07-25T09:24:36Z</time>
      </trkpt>
      <trkpt lat="43.0388370" lon="-7.9470300">
        <ele>565.0</ele>
        <time>2021-07-25T09:24:37Z</time>
      </trkpt>
      <trkpt lat="43.0388900" lon="-7.9470770">
        <ele>564.6</ele>
        <time>2021-07-25T09:24:38Z</time>
      </trkpt>
      <trkpt lat="43.0389470" lon="-7.9471280">
        <ele>564.0</ele>
        <time>2021-07-25T09:24:39Z</time>
      </trkpt>
      <trkpt lat="43.0390060" lon="-7.9471840">
        <ele>563.6</ele>
        <time>2021-07-25T09:24:40Z</time>
      </trkpt>
      <trkpt lat="43.0390680" lon="-7.9472450">
        <ele>563.0</ele>
        <time>2021-07-25T09:24:41Z</time>
      </trkpt>
      <trkpt lat="43.0391300" lon="-7.9473120">
        <ele>562.6</ele>
        <time>2021-07-25T09:24:42Z</time>
      </trkpt>
      <trkpt lat="43.0391920" lon="-7.9473820">
        <ele>562.2</ele>
        <time>2021-07-25T09:24:43Z</time>
      </trkpt>
      <trkpt lat="43.0392500" lon="-7.9474590">
        <ele>561.8</ele>
        <time>2021-07-25T09:24:44Z</time>
      </trkpt>
      <trkpt lat="43.0393070" lon="-7.9475460">
        <ele>561.4</ele>
        <time>2021-07-25T09:24:45Z</time>
      </trkpt>
      <trkpt lat="43.0393610" lon="-7.9476330">
        <ele>560.8</ele>
        <time>2021-07-25T09:24:46Z</time>
      </trkpt>
      <trkpt lat="43.0394070" lon="-7.9477220">
        <ele>560.4</ele>
        <time>2021-07-25T09:24:47Z</time>
      </trkpt>
      <trkpt lat="43.0394500" lon="-7.9478120">
        <ele>559.8</ele>
        <time>2021-07-25T09:24:48Z</time>
      </trkpt>
      <trkpt lat="43.0394850" lon="-7.9478950">
        <ele>559.4</ele>
        <time>2021-07-25T09:24:49Z</time>
      </trkpt>
      <trkpt lat="43.0395140" lon="-7.9479740">
        <ele>558.8</ele>
        <time>2021-07-25T09:24:50Z</time>
      </trkpt>
      <trkpt lat="43.0395370" lon="-7.9480470">
        <ele>558.8</ele>
        <time>2021-07-25T09:24:51Z</time>
      </trkpt>
      <trkpt lat="43.0395870" lon="-7.9482350">
        <ele>558.8</ele>
        <time>2021-07-25T09:24:54Z</time>
      </trkpt>
      <trkpt lat="43.0396220" lon="-7.9483400">
        <ele>558.8</ele>
        <time>2021-07-25T09:24:56Z</time>
      </trkpt>
      <trkpt lat="43.0397400" lon="-7.9486350">
        <ele>558.8</ele>
        <time>2021-07-25T09:25:01Z</time>
      </trkpt>
      <trkpt lat="43.0397930" lon="-7.9487990">
        <ele>558.4</ele>
        <time>2021-07-25T09:25:03Z</time>
      </trkpt>
      <trkpt lat="43.0398110" lon="-7.9488960">
        <ele>558.0</ele>
        <time>2021-07-25T09:25:04Z</time>
      </trkpt>
      <trkpt lat="43.0398230" lon="-7.9489920">
        <ele>556.6</ele>
        <time>2021-07-25T09:25:05Z</time>
      </trkpt>
      <trkpt lat="43.0398290" lon="-7.9490850">
        <ele>555.6</ele>
        <time>2021-07-25T09:25:06Z</time>
      </trkpt>
      <trkpt lat="43.0398360" lon="-7.9491780">
        <ele>554.8</ele>
        <time>2021-07-25T09:25:07Z</time>
      </trkpt>
      <trkpt lat="43.0398370" lon="-7.9492690">
        <ele>554.0</ele>
        <time>2021-07-25T09:25:08Z</time>
      </trkpt>
      <trkpt lat="43.0398360" lon="-7.9493590">
        <ele>553.2</ele>
        <time>2021-07-25T09:25:09Z</time>
      </trkpt>
      <trkpt lat="43.0398310" lon="-7.9494490">
        <ele>552.4</ele>
        <time>2021-07-25T09:25:10Z</time>
      </trkpt>
      <trkpt lat="43.0398220" lon="-7.9495380">
        <ele>551.6</ele>
        <time>2021-07-25T09:25:11Z</time>
      </trkpt>
      <trkpt lat="43.0398060" lon="-7.9496320">
        <ele>550.8</ele>
        <time>2021-07-25T09:25:12Z</time>
      </trkpt>
      <trkpt lat="43.0397820" lon="-7.9497220">
        <ele>550.2</ele>
        <time>2021-07-25T09:25:13Z</time>
      </trkpt>
      <trkpt lat="43.0397280" lon="-7.9499030">
        <ele>550.2</ele>
        <time>2021-07-25T09:25:15Z</time>
      </trkpt>
      <trkpt lat="43.0396960" lon="-7.9499920">
        <ele>549.6</ele>
        <time>2021-07-25T09:25:16Z</time>
      </trkpt>
      <trkpt lat="43.0396620" lon="-7.9500770">
        <ele>549.2</ele>
        <time>2021-07-25T09:25:17Z</time>
      </trkpt>
      <trkpt lat="43.0396230" lon="-7.9501600">
        <ele>548.6</ele>
        <time>2021-07-25T09:25:18Z</time>
      </trkpt>
      <trkpt lat="43.0395760" lon="-7.9502440">
        <ele>548.2</ele>
        <time>2021-07-25T09:25:19Z</time>
      </trkpt>
      <trkpt lat="43.0395290" lon="-7.9503200">
        <ele>547.6</ele>
        <time>2021-07-25T09:25:20Z</time>
      </trkpt>
      <trkpt lat="43.0394280" lon="-7.9504640">
        <ele>547.2</ele>
        <time>2021-07-25T09:25:22Z</time>
      </trkpt>
      <trkpt lat="43.0393760" lon="-7.9505360">
        <ele>546.8</ele>
        <time>2021-07-25T09:25:23Z</time>
      </trkpt>
      <trkpt lat="43.0393220" lon="-7.9506120">
        <ele>546.2</ele>
        <time>2021-07-25T09:25:24Z</time>
      </trkpt>
      <trkpt lat="43.0392680" lon="-7.9506880">
        <ele>545.8</ele>
        <time>2021-07-25T09:25:25Z</time>
      </trkpt>
      <trkpt lat="43.0392120" lon="-7.9507680">
        <ele>545.4</ele>
        <time>2021-07-25T09:25:26Z</time>
      </trkpt>
      <trkpt lat="43.0391060" lon="-7.9509210">
        <ele>545.0</ele>
        <time>2021-07-25T09:25:28Z</time>
      </trkpt>
      <trkpt lat="43.0390530" lon="-7.9509970">
        <ele>544.0</ele>
        <time>2021-07-25T09:25:29Z</time>
      </trkpt>
      <trkpt lat="43.0390030" lon="-7.9510670">
        <ele>543.6</ele>
        <time>2021-07-25T09:25:30Z</time>
      </trkpt>
      <trkpt lat="43.0389580" lon="-7.9511350">
        <ele>543.2</ele>
        <time>2021-07-25T09:25:31Z</time>
      </trkpt>
      <trkpt lat="43.0389170" lon="-7.9511950">
        <ele>542.8</ele>
        <time>2021-07-25T09:25:32Z</time>
      </trkpt>
      <trkpt lat="43.0388810" lon="-7.9512510">
        <ele>542.2</ele>
        <time>2021-07-25T09:25:33Z</time>
      </trkpt>
      <trkpt lat="43.0388460" lon="-7.9513030">
        <ele>541.8</ele>
        <time>2021-07-25T09:25:34Z</time>
      </trkpt>
      <trkpt lat="43.0388170" lon="-7.9513470">
        <ele>541.4</ele>
        <time>2021-07-25T09:25:35Z</time>
      </trkpt>
      <trkpt lat="43.0387860" lon="-7.9513860">
        <ele>541.0</ele>
        <time>2021-07-25T09:25:36Z</time>
      </trkpt>
      <trkpt lat="43.0387290" lon="-7.9514380">
        <ele>541.0</ele>
        <time>2021-07-25T09:25:38Z</time>
      </trkpt>
      <trkpt lat="43.0386830" lon="-7.9514760">
        <ele>541.0</ele>
        <time>2021-07-25T09:25:40Z</time>
      </trkpt>
      <trkpt lat="43.0386400" lon="-7.9515070">
        <ele>541.0</ele>
        <time>2021-07-25T09:25:42Z</time>
      </trkpt>
      <trkpt lat="43.0386290" lon="-7.9515220">
        <ele>541.0</ele>
        <time>2021-07-25T09:25:43Z</time>
      </trkpt>
      <trkpt lat="43.0386220" lon="-7.9515390">
        <ele>541.0</ele>
        <time>2021-07-25T09:25:45Z</time>
      </trkpt>
      <trkpt lat="43.0386260" lon="-7.9515850">
        <ele>539.0</ele>
        <time>2021-07-25T09:27:28Z</time>
      </trkpt>
      <trkpt lat="43.0386270" lon="-7.9516060">
        <ele>539.0</ele>
        <time>2021-07-25T09:27:29Z</time>
      </trkpt>
      <trkpt lat="43.0386150" lon="-7.9517290">
        <ele>539.0</ele>
        <time>2021-07-25T09:27:33Z</time>
      </trkpt>
      <trkpt lat="43.0386110" lon="-7.9518050">
        <ele>539.0</ele>
        <time>2021-07-25T09:27:35Z</time>
      </trkpt>
      <trkpt lat="43.0386010" lon="-7.9520440">
        <ele>539.0</ele>
        <time>2021-07-25T09:27:40Z</time>
      </trkpt>
      <trkpt lat="43.0385940" lon="-7.9521370">
        <ele>539.0</ele>
        <time>2021-07-25T09:27:42Z</time>
      </trkpt>
      <trkpt lat="43.0385800" lon="-7.9524430">
        <ele>539.0</ele>
        <time>2021-07-25T09:27:49Z</time>
      </trkpt>
      <trkpt lat="43.0385740" lon="-7.9526280">
        <ele>539.0</ele>
        <time>2021-07-25T09:27:53Z</time>
      </trkpt>
      <trkpt lat="43.0385730" lon="-7.9527150">
        <ele>539.0</ele>
        <time>2021-07-25T09:27:55Z</time>
      </trkpt>
      <trkpt lat="43.0385750" lon="-7.9528040">
        <ele>539.0</ele>
        <time>2021-07-25T09:27:57Z</time>
      </trkpt>
      <trkpt lat="43.0385660" lon="-7.9530210">
        <ele>539.0</ele>
        <time>2021-07-25T09:28:01Z</time>
      </trkpt>
      <trkpt lat="43.0385630" lon="-7.9531250">
        <ele>539.0</ele>
        <time>2021-07-25T09:28:03Z</time>
      </trkpt>
      <trkpt lat="43.0385740" lon="-7.9533130">
        <ele>539.0</ele>
        <time>2021-07-25T09:28:08Z</time>
      </trkpt>
      <trkpt lat="43.0385850" lon="-7.9533890">
        <ele>539.4</ele>
        <time>2021-07-25T09:28:12Z</time>
      </trkpt>
      <trkpt lat="43.0385810" lon="-7.9534090">
        <ele>539.8</ele>
        <time>2021-07-25T09:28:13Z</time>
      </trkpt>
      <trkpt lat="43.0385760" lon="-7.9534310">
        <ele>540.2</ele>
        <time>2021-07-25T09:28:14Z</time>
      </trkpt>
      <trkpt lat="43.0385750" lon="-7.9534560">
        <ele>540.6</ele>
        <time>2021-07-25T09:28:15Z</time>
      </trkpt>
      <trkpt lat="43.0385740" lon="-7.9534810">
        <ele>541.0</ele>
        <time>2021-07-25T09:28:16Z</time>
      </trkpt>
      <trkpt lat="43.0385980" lon="-7.9535520">
        <ele>541.4</ele>
        <time>2021-07-25T09:28:20Z</time>
      </trkpt>
      <trkpt lat="43.0386020" lon="-7.9535730">
        <ele>541.8</ele>
        <time>2021-07-25T09:28:21Z</time>
      </trkpt>
      <trkpt lat="43.0386020" lon="-7.9535930">
        <ele>542.4</ele>
        <time>2021-07-25T09:28:22Z</time>
      </trkpt>
      <trkpt lat="43.0386030" lon="-7.9536180">
        <ele>543.2</ele>
        <time>2021-07-25T09:28:23Z</time>
      </trkpt>
      <trkpt lat="43.0386190" lon="-7.9537530">
        <ele>543.2</ele>
        <time>2021-07-25T09:28:29Z</time>
      </trkpt>
      <trkpt lat="43.0386240" lon="-7.9537770">
        <ele>543.6</ele>
        <time>2021-07-25T09:28:30Z</time>
      </trkpt>
      <trkpt lat="43.0386250" lon="-7.9537990">
        <ele>544.0</ele>
        <time>2021-07-25T09:28:31Z</time>
      </trkpt>
      <trkpt lat="43.0386290" lon="-7.9538230">
        <ele>544.4</ele>
        <time>2021-07-25T09:28:32Z</time>
      </trkpt>
      <trkpt lat="43.0386340" lon="-7.9538480">
        <ele>544.8</ele>
        <time>2021-07-25T09:28:33Z</time>
      </trkpt>
      <trkpt lat="43.0386380" lon="-7.9538730">
        <ele>545.2</ele>
        <time>2021-07-25T09:28:34Z</time>
      </trkpt>
      <trkpt lat="43.0386420" lon="-7.9539520">
        <ele>545.2</ele>
        <time>2021-07-25T09:28:37Z</time>
      </trkpt>
      <trkpt lat="43.0386440" lon="-7.9541630">
        <ele>545.2</ele>
        <time>2021-07-25T09:28:44Z</time>
      </trkpt>
      <trkpt lat="43.0386260" lon="-7.9544290">
        <ele>545.2</ele>
        <time>2021-07-25T09:28:52Z</time>
      </trkpt>
      <trkpt lat="43.0386160" lon="-7.9545870">
        <ele>545.6</ele>
        <time>2021-07-25T09:28:57Z</time>
      </trkpt>
      <trkpt lat="43.0386130" lon="-7.9546190">
        <ele>546.0</ele>
        <time>2021-07-25T09:28:58Z</time>
      </trkpt>
      <trkpt lat="43.0386110" lon="-7.9546530">
        <ele>546.4</ele>
        <time>2021-07-25T09:28:59Z</time>
      </trkpt>
      <trkpt lat="43.0386080" lon="-7.9546870">
        <ele>546.8</ele>
        <time>2021-07-25T09:29:00Z</time>
      </trkpt>
      <trkpt lat="43.0386070" lon="-7.9547180">
        <ele>547.2</ele>
        <time>2021-07-25T09:29:01Z</time>
      </trkpt>
      <trkpt lat="43.0385810" lon="-7.9548610">
        <ele>547.2</ele>
        <time>2021-07-25T09:29:06Z</time>
      </trkpt>
      <trkpt lat="43.0385550" lon="-7.9550160">
        <ele>547.6</ele>
        <time>2021-07-25T09:29:12Z</time>
      </trkpt>
      <trkpt lat="43.0385480" lon="-7.9550400">
        <ele>548.6</ele>
        <time>2021-07-25T09:29:13Z</time>
      </trkpt>
      <trkpt lat="43.0385420" lon="-7.9550640">
        <ele>549.0</ele>
        <time>2021-07-25T09:29:14Z</time>
      </trkpt>
      <trkpt lat="43.0385360" lon="-7.9550900">
        <ele>549.4</ele>
        <time>2021-07-25T09:29:15Z</time>
      </trkpt>
      <trkpt lat="43.0385050" lon="-7.9552390">
        <ele>549.4</ele>
        <time>2021-07-25T09:29:21Z</time>
      </trkpt>
      <trkpt lat="43.0384220" lon="-7.9554090">
        <ele>549.8</ele>
        <time>2021-07-25T09:29:28Z</time>
      </trkpt>
      <trkpt lat="43.0384090" lon="-7.9554350">
        <ele>550.2</ele>
        <time>2021-07-25T09:29:29Z</time>
      </trkpt>
      <trkpt lat="43.0383960" lon="-7.9554590">
        <ele>550.6</ele>
        <time>2021-07-25T09:29:30Z</time>
      </trkpt>
      <trkpt lat="43.0383860" lon="-7.9554820">
        <ele>551.0</ele>
        <time>2021-07-25T09:29:31Z</time>
      </trkpt>
      <trkpt lat="43.0383750" lon="-7.9555060">
        <ele>551.4</ele>
        <time>2021-07-25T09:29:32Z</time>
      </trkpt>
      <trkpt lat="43.0383310" lon="-7.9556050">
        <ele>551.4</ele>
        <time>2021-07-25T09:29:36Z</time>
      </trkpt>
      <trkpt lat="43.0382700" lon="-7.9557810">
        <ele>551.4</ele>
        <time>2021-07-25T09:29:43Z</time>
      </trkpt>
      <trkpt lat="43.0382680" lon="-7.9558060">
        <ele>551.8</ele>
        <time>2021-07-25T09:29:44Z</time>
      </trkpt>
      <trkpt lat="43.0382620" lon="-7.9558300">
        <ele>552.2</ele>
        <time>2021-07-25T09:29:45Z</time>
      </trkpt>
      <trkpt lat="43.0382550" lon="-7.9558570">
        <ele>552.6</ele>
        <time>2021-07-25T09:29:46Z</time>
      </trkpt>
      <trkpt lat="43.0382500" lon="-7.9558810">
        <ele>553.0</ele>
        <time>2021-07-25T09:29:47Z</time>
      </trkpt>
      <trkpt lat="43.0382440" lon="-7.9559080">
        <ele>553.4</ele>
        <time>2021-07-25T09:29:48Z</time>
      </trkpt>
      <trkpt lat="43.0382380" lon="-7.9559560">
        <ele>553.4</ele>
        <time>2021-07-25T09:29:50Z</time>
      </trkpt>
      <trkpt lat="43.0382200" lon="-7.9561600">
        <ele>553.4</ele>
        <time>2021-07-25T09:29:58Z</time>
      </trkpt>
      <trkpt lat="43.0382200" lon="-7.9561880">
        <ele>553.8</ele>
        <time>2021-07-25T09:29:59Z</time>
      </trkpt>
      <trkpt lat="43.0382190" lon="-7.9562130">
        <ele>554.2</ele>
        <time>2021-07-25T09:30:00Z</time>
      </trkpt>
      <trkpt lat="43.0382190" lon="-7.9562420">
        <ele>555.0</ele>
        <time>2021-07-25T09:30:01Z</time>
      </trkpt>
      <trkpt lat="43.0382190" lon="-7.9562690">
        <ele>555.6</ele>
        <time>2021-07-25T09:30:02Z</time>
      </trkpt>
      <trkpt lat="43.0382190" lon="-7.9563450">
        <ele>555.6</ele>
        <time>2021-07-25T09:30:05Z</time>
      </trkpt>
      <trkpt lat="43.0381960" lon="-7.9565470">
        <ele>556.0</ele>
        <time>2021-07-25T09:30:13Z</time>
      </trkpt>
      <trkpt lat="43.0381920" lon="-7.9565720">
        <ele>556.4</ele>
        <time>2021-07-25T09:30:14Z</time>
      </trkpt>
      <trkpt lat="43.0381900" lon="-7.9565990">
        <ele>556.8</ele>
        <time>2021-07-25T09:30:15Z</time>
      </trkpt>
      <trkpt lat="43.0381850" lon="-7.9566250">
        <ele>557.2</ele>
        <time>2021-07-25T09:30:16Z</time>
      </trkpt>
      <trkpt lat="43.0381780" lon="-7.9566510">
        <ele>557.6</ele>
        <time>2021-07-25T09:30:17Z</time>
      </trkpt>
      <trkpt lat="43.0381640" lon="-7.9567600">
        <ele>557.6</ele>
        <time>2021-07-25T09:30:21Z</time>
      </trkpt>
      <trkpt lat="43.0381380" lon="-7.9569150">
        <ele>557.6</ele>
        <time>2021-07-25T09:30:27Z</time>
      </trkpt>
      <trkpt lat="43.0380860" lon="-7.9570790">
        <ele>558.0</ele>
        <time>2021-07-25T09:30:34Z</time>
      </trkpt>
      <trkpt lat="43.0380780" lon="-7.9570980">
        <ele>558.4</ele>
        <time>2021-07-25T09:30:35Z</time>
      </trkpt>
      <trkpt lat="43.0380660" lon="-7.9571160">
        <ele>558.8</ele>
        <time>2021-07-25T09:30:36Z</time>
      </trkpt>
      <trkpt lat="43.0380570" lon="-7.9571350">
        <ele>559.2</ele>
        <time>2021-07-25T09:30:37Z</time>
      </trkpt>
      <trkpt lat="43.0380510" lon="-7.9571530">
        <ele>559.8</ele>
        <time>2021-07-25T09:30:38Z</time>
      </trkpt>
      <trkpt lat="43.0380350" lon="-7.9571880">
        <ele>559.8</ele>
        <time>2021-07-25T09:30:40Z</time>
      </trkpt>
      <trkpt lat="43.0380260" lon="-7.9572040">
        <ele>560.2</ele>
        <time>2021-07-25T09:30:41Z</time>
      </trkpt>
      <trkpt lat="43.0380140" lon="-7.9572210">
        <ele>560.6</ele>
        <time>2021-07-25T09:30:42Z</time>
      </trkpt>
      <trkpt lat="43.0380070" lon="-7.9572400">
        <ele>561.0</ele>
        <time>2021-07-25T09:30:43Z</time>
      </trkpt>
      <trkpt lat="43.0380030" lon="-7.9572540">
        <ele>561.4</ele>
        <time>2021-07-25T09:30:44Z</time>
      </trkpt>
      <trkpt lat="43.0379960" lon="-7.9572730">
        <ele>561.8</ele>
        <time>2021-07-25T09:30:45Z</time>
      </trkpt>
      <trkpt lat="43.0379780" lon="-7.9573140">
        <ele>561.8</ele>
        <time>2021-07-25T09:30:47Z</time>
      </trkpt>
      <trkpt lat="43.0379410" lon="-7.9573750">
        <ele>562.2</ele>
        <time>2021-07-25T09:30:50Z</time>
      </trkpt>
      <trkpt lat="43.0379290" lon="-7.9573960">
        <ele>562.6</ele>
        <time>2021-07-25T09:30:51Z</time>
      </trkpt>
      <trkpt lat="43.0379170" lon="-7.9574180">
        <ele>563.0</ele>
        <time>2021-07-25T09:30:52Z</time>
      </trkpt>
      <trkpt lat="43.0379080" lon="-7.9574420">
        <ele>563.4</ele>
        <time>2021-07-25T09:30:53Z</time>
      </trkpt>
      <trkpt lat="43.0378970" lon="-7.9574630">
        <ele>563.8</ele>
        <time>2021-07-25T09:30:54Z</time>
      </trkpt>
      <trkpt lat="43.0378230" lon="-7.9576040">
        <ele>563.8</ele>
        <time>2021-07-25T09:31:00Z</time>
      </trkpt>
      <trkpt lat="43.0378090" lon="-7.9576260">
        <ele>563.8</ele>
        <time>2021-07-25T09:31:01Z</time>
      </trkpt>
      <trkpt lat="43.0377090" lon="-7.9578260">
        <ele>563.8</ele>
        <time>2021-07-25T09:31:10Z</time>
      </trkpt>
      <trkpt lat="43.0376830" lon="-7.9579380">
        <ele>564.2</ele>
        <time>2021-07-25T09:31:14Z</time>
      </trkpt>
      <trkpt lat="43.0376750" lon="-7.9579630">
        <ele>565.2</ele>
        <time>2021-07-25T09:31:15Z</time>
      </trkpt>
      <trkpt lat="43.0376640" lon="-7.9579860">
        <ele>565.6</ele>
        <time>2021-07-25T09:31:16Z</time>
      </trkpt>
      <trkpt lat="43.0376540" lon="-7.9580150">
        <ele>566.0</ele>
        <time>2021-07-25T09:31:17Z</time>
      </trkpt>
      <trkpt lat="43.0375270" lon="-7.9582910">
        <ele>566.0</ele>
        <time>2021-07-25T09:31:26Z</time>
      </trkpt>
      <trkpt lat="43.0374610" lon="-7.9584530">
        <ele>566.0</ele>
        <time>2021-07-25T09:31:31Z</time>
      </trkpt>
      <trkpt lat="43.0374160" lon="-7.9585920">
        <ele>566.0</ele>
        <time>2021-07-25T09:31:35Z</time>
      </trkpt>
      <trkpt lat="43.0373920" lon="-7.9586900">
        <ele>566.4</ele>
        <time>2021-07-25T09:31:38Z</time>
      </trkpt>
      <trkpt lat="43.0373840" lon="-7.9587240">
        <ele>567.0</ele>
        <time>2021-07-25T09:31:39Z</time>
      </trkpt>
      <trkpt lat="43.0373780" lon="-7.9587590">
        <ele>568.0</ele>
        <time>2021-07-25T09:31:40Z</time>
      </trkpt>
      <trkpt lat="43.0373690" lon="-7.9587970">
        <ele>568.6</ele>
        <time>2021-07-25T09:31:41Z</time>
      </trkpt>
      <trkpt lat="43.0373490" lon="-7.9589090">
        <ele>568.6</ele>
        <time>2021-07-25T09:31:44Z</time>
      </trkpt>
      <trkpt lat="43.0373150" lon="-7.9591980">
        <ele>568.6</ele>
        <time>2021-07-25T09:31:51Z</time>
      </trkpt>
      <trkpt lat="43.0373240" lon="-7.9595570">
        <ele>568.6</ele>
        <time>2021-07-25T09:31:59Z</time>
      </trkpt>
      <trkpt lat="43.0373340" lon="-7.9597810">
        <ele>568.6</ele>
        <time>2021-07-25T09:32:04Z</time>
      </trkpt>
      <trkpt lat="43.0373410" lon="-7.9598980">
        <ele>568.6</ele>
        <time>2021-07-25T09:32:07Z</time>
      </trkpt>
      <trkpt lat="43.0373700" lon="-7.9601930">
        <ele>568.6</ele>
        <time>2021-07-25T09:32:14Z</time>
      </trkpt>
      <trkpt lat="43.0373950" lon="-7.9604890">
        <ele>568.6</ele>
        <time>2021-07-25T09:32:21Z</time>
      </trkpt>
      <trkpt lat="43.0374080" lon="-7.9608090">
        <ele>568.6</ele>
        <time>2021-07-25T09:32:28Z</time>
      </trkpt>
      <trkpt lat="43.0374280" lon="-7.9611220">
        <ele>568.6</ele>
        <time>2021-07-25T09:32:35Z</time>
      </trkpt>
      <trkpt lat="43.0374520" lon="-7.9613070">
        <ele>568.6</ele>
        <time>2021-07-25T09:32:39Z</time>
      </trkpt>
      <trkpt lat="43.0374600" lon="-7.9614000">
        <ele>568.6</ele>
        <time>2021-07-25T09:32:41Z</time>
      </trkpt>
      <trkpt lat="43.0374590" lon="-7.9615230">
        <ele>568.6</ele>
        <time>2021-07-25T09:32:45Z</time>
      </trkpt>
      <trkpt lat="43.0374520" lon="-7.9615580">
        <ele>568.6</ele>
        <time>2021-07-25T09:32:46Z</time>
      </trkpt>
      <trkpt lat="43.0374760" lon="-7.9617870">
        <ele>568.6</ele>
        <time>2021-07-25T09:32:51Z</time>
      </trkpt>
      <trkpt lat="43.0374960" lon="-7.9619760">
        <ele>568.6</ele>
        <time>2021-07-25T09:32:55Z</time>
      </trkpt>
      <trkpt lat="43.0374970" lon="-7.9620740">
        <ele>568.6</ele>
        <time>2021-07-25T09:32:57Z</time>
      </trkpt>
      <trkpt lat="43.0375070" lon="-7.9622330">
        <ele>568.6</ele>
        <time>2021-07-25T09:33:00Z</time>
      </trkpt>
      <trkpt lat="43.0375160" lon="-7.9623500">
        <ele>568.6</ele>
        <time>2021-07-25T09:33:02Z</time>
      </trkpt>
      <trkpt lat="43.0375250" lon="-7.9625190">
        <ele>568.6</ele>
        <time>2021-07-25T09:33:05Z</time>
      </trkpt>
      <trkpt lat="43.0375540" lon="-7.9628230">
        <ele>568.6</ele>
        <time>2021-07-25T09:33:11Z</time>
      </trkpt>
      <trkpt lat="43.0375670" lon="-7.9628680">
        <ele>568.6</ele>
        <time>2021-07-25T09:33:12Z</time>
      </trkpt>
      <trkpt lat="43.0376230" lon="-7.9630660">
        <ele>568.6</ele>
        <time>2021-07-25T09:33:16Z</time>
      </trkpt>
      <trkpt lat="43.0376260" lon="-7.9631230">
        <ele>568.6</ele>
        <time>2021-07-25T09:33:17Z</time>
      </trkpt>
      <trkpt lat="43.0376430" lon="-7.9634320">
        <ele>568.6</ele>
        <time>2021-07-25T09:33:23Z</time>
      </trkpt>
      <trkpt lat="43.0376680" lon="-7.9638720">
        <ele>568.6</ele>
        <time>2021-07-25T09:33:31Z</time>
      </trkpt>
      <trkpt lat="43.0376770" lon="-7.9640210">
        <ele>568.6</ele>
        <time>2021-07-25T09:33:34Z</time>
      </trkpt>
      <trkpt lat="43.0377330" lon="-7.9641820">
        <ele>568.6</ele>
        <time>2021-07-25T09:33:38Z</time>
      </trkpt>
      <trkpt lat="43.0378130" lon="-7.9642560">
        <ele>568.6</ele>
        <time>2021-07-25T09:33:41Z</time>
      </trkpt>
      <trkpt lat="43.0379090" lon="-7.9643290">
        <ele>568.6</ele>
        <time>2021-07-25T09:33:44Z</time>
      </trkpt>
      <trkpt lat="43.0379790" lon="-7.9643950">
        <ele>568.6</ele>
        <time>2021-07-25T09:33:46Z</time>
      </trkpt>
      <trkpt lat="43.0380520" lon="-7.9644780">
        <ele>568.6</ele>
        <time>2021-07-25T09:33:48Z</time>
      </trkpt>
      <trkpt lat="43.0381240" lon="-7.9645580">
        <ele>568.6</ele>
        <time>2021-07-25T09:33:50Z</time>
      </trkpt>
      <trkpt lat="43.0381590" lon="-7.9645980">
        <ele>568.6</ele>
        <time>2021-07-25T09:33:51Z</time>
      </trkpt>
      <trkpt lat="43.0382260" lon="-7.9646730">
        <ele>568.2</ele>
        <time>2021-07-25T09:33:53Z</time>
      </trkpt>
      <trkpt lat="43.0382640" lon="-7.9647050">
        <ele>567.6</ele>
        <time>2021-07-25T09:33:54Z</time>
      </trkpt>
      <trkpt lat="43.0383000" lon="-7.9647310">
        <ele>567.2</ele>
        <time>2021-07-25T09:33:55Z</time>
      </trkpt>
      <trkpt lat="43.0383380" lon="-7.9647590">
        <ele>566.8</ele>
        <time>2021-07-25T09:33:56Z</time>
      </trkpt>
      <trkpt lat="43.0383780" lon="-7.9647900">
        <ele>566.4</ele>
        <time>2021-07-25T09:33:57Z</time>
      </trkpt>
      <trkpt lat="43.0384170" lon="-7.9648220">
        <ele>566.4</ele>
        <time>2021-07-25T09:33:58Z</time>
      </trkpt>
      <trkpt lat="43.0384990" lon="-7.9648740">
        <ele>566.4</ele>
        <time>2021-07-25T09:34:00Z</time>
      </trkpt>
      <trkpt lat="43.0385830" lon="-7.9649320">
        <ele>566.4</ele>
        <time>2021-07-25T09:34:02Z</time>
      </trkpt>
      <trkpt lat="43.0386580" lon="-7.9649870">
        <ele>566.4</ele>
        <time>2021-07-25T09:34:04Z</time>
      </trkpt>
      <trkpt lat="43.0389350" lon="-7.9652390">
        <ele>566.4</ele>
        <time>2021-07-25T09:34:12Z</time>
      </trkpt>
      <trkpt lat="43.0391170" lon="-7.9654390">
        <ele>566.4</ele>
        <time>2021-07-25T09:34:18Z</time>
      </trkpt>
      <trkpt lat="43.0391440" lon="-7.9654700">
        <ele>566.4</ele>
        <time>2021-07-25T09:34:19Z</time>
      </trkpt>
      <trkpt lat="43.0392900" lon="-7.9656380">
        <ele>566.8</ele>
        <time>2021-07-25T09:34:24Z</time>
      </trkpt>
      <trkpt lat="43.0393170" lon="-7.9656710">
        <ele>567.2</ele>
        <time>2021-07-25T09:34:25Z</time>
      </trkpt>
      <trkpt lat="43.0393450" lon="-7.9657020">
        <ele>567.6</ele>
        <time>2021-07-25T09:34:26Z</time>
      </trkpt>
      <trkpt lat="43.0393690" lon="-7.9657370">
        <ele>568.0</ele>
        <time>2021-07-25T09:34:27Z</time>
      </trkpt>
      <trkpt lat="43.0393940" lon="-7.9657700">
        <ele>568.4</ele>
        <time>2021-07-25T09:34:28Z</time>
      </trkpt>
      <trkpt lat="43.0395250" lon="-7.9659860">
        <ele>568.4</ele>
        <time>2021-07-25T09:34:34Z</time>
      </trkpt>
      <trkpt lat="43.0396930" lon="-7.9662800">
        <ele>568.4</ele>
        <time>2021-07-25T09:34:42Z</time>
      </trkpt>
      <trkpt lat="43.0398220" lon="-7.9665130">
        <ele>568.8</ele>
        <time>2021-07-25T09:34:49Z</time>
      </trkpt>
      <trkpt lat="43.0398380" lon="-7.9665460">
        <ele>569.2</ele>
        <time>2021-07-25T09:34:50Z</time>
      </trkpt>
      <trkpt lat="43.0398580" lon="-7.9665780">
        <ele>569.6</ele>
        <time>2021-07-25T09:34:51Z</time>
      </trkpt>
      <trkpt lat="43.0398780" lon="-7.9666070">
        <ele>570.0</ele>
        <time>2021-07-25T09:34:52Z</time>
      </trkpt>
      <trkpt lat="43.0398990" lon="-7.9666410">
        <ele>570.4</ele>
        <time>2021-07-25T09:34:53Z</time>
      </trkpt>
      <trkpt lat="43.0399620" lon="-7.9667350">
        <ele>570.4</ele>
        <time>2021-07-25T09:34:56Z</time>
      </trkpt>
      <trkpt lat="43.0400210" lon="-7.9668050">
        <ele>571.0</ele>
        <time>2021-07-25T09:34:59Z</time>
      </trkpt>
      <trkpt lat="43.0400420" lon="-7.9668280">
        <ele>571.4</ele>
        <time>2021-07-25T09:35:00Z</time>
      </trkpt>
      <trkpt lat="43.0400650" lon="-7.9668490">
        <ele>571.8</ele>
        <time>2021-07-25T09:35:01Z</time>
      </trkpt>
      <trkpt lat="43.0400900" lon="-7.9668690">
        <ele>572.2</ele>
        <time>2021-07-25T09:35:02Z</time>
      </trkpt>
      <trkpt lat="43.0401130" lon="-7.9668920">
        <ele>572.6</ele>
        <time>2021-07-25T09:35:03Z</time>
      </trkpt>
      <trkpt lat="43.0402960" lon="-7.9670980">
        <ele>572.6</ele>
        <time>2021-07-25T09:35:11Z</time>
      </trkpt>
      <trkpt lat="43.0404330" lon="-7.9672700">
        <ele>572.6</ele>
        <time>2021-07-25T09:35:18Z</time>
      </trkpt>
      <trkpt lat="43.0405030" lon="-7.9674230">
        <ele>572.6</ele>
        <time>2021-07-25T09:35:23Z</time>
      </trkpt>
      <trkpt lat="43.0405770" lon="-7.9676460">
        <ele>572.6</ele>
        <time>2021-07-25T09:35:29Z</time>
      </trkpt>
      <trkpt lat="43.0406400" lon="-7.9678410">
        <ele>572.6</ele>
        <time>2021-07-25T09:35:34Z</time>
      </trkpt>
      <trkpt lat="43.0406930" lon="-7.9679890">
        <ele>572.6</ele>
        <time>2021-07-25T09:35:38Z</time>
      </trkpt>
      <trkpt lat="43.0407320" lon="-7.9680670">
        <ele>573.0</ele>
        <time>2021-07-25T09:35:41Z</time>
      </trkpt>
      <trkpt lat="43.0407430" lon="-7.9680940">
        <ele>573.4</ele>
        <time>2021-07-25T09:35:42Z</time>
      </trkpt>
      <trkpt lat="43.0407570" lon="-7.9681180">
        <ele>573.8</ele>
        <time>2021-07-25T09:35:43Z</time>
      </trkpt>
      <trkpt lat="43.0407700" lon="-7.9681410">
        <ele>574.4</ele>
        <time>2021-07-25T09:35:44Z</time>
      </trkpt>
      <trkpt lat="43.0407870" lon="-7.9681610">
        <ele>574.8</ele>
        <time>2021-07-25T09:35:45Z</time>
      </trkpt>
      <trkpt lat="43.0408630" lon="-7.9682730">
        <ele>574.8</ele>
        <time>2021-07-25T09:35:49Z</time>
      </trkpt>
      <trkpt lat="43.0408920" lon="-7.9683370">
        <ele>574.8</ele>
        <time>2021-07-25T09:35:51Z</time>
      </trkpt>
      <trkpt lat="43.0409450" lon="-7.9684160">
        <ele>575.2</ele>
        <time>2021-07-25T09:35:54Z</time>
      </trkpt>
      <trkpt lat="43.0409550" lon="-7.9684510">
        <ele>575.6</ele>
        <time>2021-07-25T09:35:55Z</time>
      </trkpt>
      <trkpt lat="43.0409700" lon="-7.9684830">
        <ele>576.0</ele>
        <time>2021-07-25T09:35:56Z</time>
      </trkpt>
      <trkpt lat="43.0409900" lon="-7.9685150">
        <ele>576.4</ele>
        <time>2021-07-25T09:35:57Z</time>
      </trkpt>
      <trkpt lat="43.0410080" lon="-7.9685490">
        <ele>576.8</ele>
        <time>2021-07-25T09:35:58Z</time>
      </trkpt>
      <trkpt lat="43.0411330" lon="-7.9687830">
        <ele>576.8</ele>
        <time>2021-07-25T09:36:05Z</time>
      </trkpt>
      <trkpt lat="43.0412130" lon="-7.9689310">
        <ele>576.8</ele>
        <time>2021-07-25T09:36:09Z</time>
      </trkpt>
      <trkpt lat="43.0412540" lon="-7.9690040">
        <ele>576.8</ele>
        <time>2021-07-25T09:36:11Z</time>
      </trkpt>
      <trkpt lat="43.0413740" lon="-7.9692360">
        <ele>576.8</ele>
        <time>2021-07-25T09:36:17Z</time>
      </trkpt>
      <trkpt lat="43.0414090" lon="-7.9693190">
        <ele>576.8</ele>
        <time>2021-07-25T09:36:19Z</time>
      </trkpt>
      <trkpt lat="43.0414480" lon="-7.9694060">
        <ele>576.8</ele>
        <time>2021-07-25T09:36:21Z</time>
      </trkpt>
      <trkpt lat="43.0414970" lon="-7.9695430">
        <ele>576.8</ele>
        <time>2021-07-25T09:36:24Z</time>
      </trkpt>
      <trkpt lat="43.0415300" lon="-7.9696380">
        <ele>576.8</ele>
        <time>2021-07-25T09:36:26Z</time>
      </trkpt>
      <trkpt lat="43.0416440" lon="-7.9699660">
        <ele>576.8</ele>
        <time>2021-07-25T09:36:33Z</time>
      </trkpt>
      <trkpt lat="43.0416800" lon="-7.9700730">
        <ele>576.8</ele>
        <time>2021-07-25T09:36:35Z</time>
      </trkpt>
      <trkpt lat="43.0417520" lon="-7.9703050">
        <ele>576.8</ele>
        <time>2021-07-25T09:36:40Z</time>
      </trkpt>
      <trkpt lat="43.0418250" lon="-7.9705930">
        <ele>576.8</ele>
        <time>2021-07-25T09:36:47Z</time>
      </trkpt>
      <trkpt lat="43.0417940" lon="-7.9706610">
        <ele>576.8</ele>
        <time>2021-07-25T09:36:51Z</time>
      </trkpt>
      <trkpt lat="43.0417940" lon="-7.9706670">
        <ele>576.8</ele>
        <time>2021-07-25T09:36:53Z</time>
      </trkpt>
      <trkpt lat="43.0417790" lon="-7.9706950">
        <ele>576.8</ele>
        <time>2021-07-25T09:37:10Z</time>
      </trkpt>
      <trkpt lat="43.0417730" lon="-7.9707120">
        <ele>576.8</ele>
        <time>2021-07-25T09:37:11Z</time>
      </trkpt>
      <trkpt lat="43.0417830" lon="-7.9708390">
        <ele>576.8</ele>
        <time>2021-07-25T09:37:15Z</time>
      </trkpt>
      <trkpt lat="43.0417960" lon="-7.9708790">
        <ele>576.8</ele>
        <time>2021-07-25T09:37:16Z</time>
      </trkpt>
      <trkpt lat="43.0418080" lon="-7.9709190">
        <ele>576.8</ele>
        <time>2021-07-25T09:37:17Z</time>
      </trkpt>
      <trkpt lat="43.0418420" lon="-7.9710480">
        <ele>576.8</ele>
        <time>2021-07-25T09:37:20Z</time>
      </trkpt>
      <trkpt lat="43.0418790" lon="-7.9712160">
        <ele>576.8</ele>
        <time>2021-07-25T09:37:24Z</time>
      </trkpt>
      <trkpt lat="43.0419120" lon="-7.9714150">
        <ele>577.2</ele>
        <time>2021-07-25T09:37:29Z</time>
      </trkpt>
      <trkpt lat="43.0419140" lon="-7.9714610">
        <ele>577.6</ele>
        <time>2021-07-25T09:37:30Z</time>
      </trkpt>
      <trkpt lat="43.0419140" lon="-7.9715060">
        <ele>578.2</ele>
        <time>2021-07-25T09:37:31Z</time>
      </trkpt>
      <trkpt lat="43.0419120" lon="-7.9715480">
        <ele>578.6</ele>
        <time>2021-07-25T09:37:32Z</time>
      </trkpt>
      <trkpt lat="43.0419080" lon="-7.9715910">
        <ele>579.0</ele>
        <time>2021-07-25T09:37:33Z</time>
      </trkpt>
      <trkpt lat="43.0419170" lon="-7.9717920">
        <ele>579.0</ele>
        <time>2021-07-25T09:37:38Z</time>
      </trkpt>
      <trkpt lat="43.0419040" lon="-7.9720040">
        <ele>579.0</ele>
        <time>2021-07-25T09:37:43Z</time>
      </trkpt>
      <trkpt lat="43.0418810" lon="-7.9723110">
        <ele>579.0</ele>
        <time>2021-07-25T09:37:51Z</time>
      </trkpt>
      <trkpt lat="43.0419470" lon="-7.9724600">
        <ele>579.0</ele>
        <time>2021-07-25T09:37:56Z</time>
      </trkpt>
      <trkpt lat="43.0420330" lon="-7.9725860">
        <ele>579.0</ele>
        <time>2021-07-25T09:38:00Z</time>
      </trkpt>
      <trkpt lat="43.0420530" lon="-7.9726220">
        <ele>579.0</ele>
        <time>2021-07-25T09:38:01Z</time>
      </trkpt>
      <trkpt lat="43.0421350" lon="-7.9727600">
        <ele>579.0</ele>
        <time>2021-07-25T09:38:05Z</time>
      </trkpt>
      <trkpt lat="43.0421530" lon="-7.9728040">
        <ele>579.0</ele>
        <time>2021-07-25T09:38:06Z</time>
      </trkpt>
      <trkpt lat="43.0422190" lon="-7.9730100">
        <ele>579.0</ele>
        <time>2021-07-25T09:38:11Z</time>
      </trkpt>
      <trkpt lat="43.0422290" lon="-7.9730430">
        <ele>579.0</ele>
        <time>2021-07-25T09:38:12Z</time>
      </trkpt>
      <trkpt lat="43.0422970" lon="-7.9732140">
        <ele>579.0</ele>
        <time>2021-07-25T09:38:17Z</time>
      </trkpt>
      <trkpt lat="43.0423590" lon="-7.9733490">
        <ele>579.0</ele>
        <time>2021-07-25T09:38:24Z</time>
      </trkpt>
      <trkpt lat="43.0424420" lon="-7.9737230">
        <ele>581.0</ele>
        <time>2021-07-25T09:38:58Z</time>
      </trkpt>
      <trkpt lat="43.0424530" lon="-7.9737510">
        <ele>581.0</ele>
        <time>2021-07-25T09:38:59Z</time>
      </trkpt>
      <trkpt lat="43.0424610" lon="-7.9737870">
        <ele>581.0</ele>
        <time>2021-07-25T09:39:00Z</time>
      </trkpt>
      <trkpt lat="43.0424910" lon="-7.9740260">
        <ele>581.0</ele>
        <time>2021-07-25T09:39:06Z</time>
      </trkpt>
      <trkpt lat="43.0424760" lon="-7.9740610">
        <ele>581.0</ele>
        <time>2021-07-25T09:39:07Z</time>
      </trkpt>
      <trkpt lat="43.0424290" lon="-7.9741120">
        <ele>581.0</ele>
        <time>2021-07-25T09:39:09Z</time>
      </trkpt>
      <trkpt lat="43.0424060" lon="-7.9741390">
        <ele>581.0</ele>
        <time>2021-07-25T09:39:10Z</time>
      </trkpt>
      <trkpt lat="43.0423620" lon="-7.9741890">
        <ele>581.0</ele>
        <time>2021-07-25T09:39:12Z</time>
      </trkpt>
      <trkpt lat="43.0422970" lon="-7.9742640">
        <ele>581.0</ele>
        <time>2021-07-25T09:39:15Z</time>
      </trkpt>
      <trkpt lat="43.0422650" lon="-7.9742970">
        <ele>580.6</ele>
        <time>2021-07-25T09:39:17Z</time>
      </trkpt>
      <trkpt lat="43.0422440" lon="-7.9743180">
        <ele>580.2</ele>
        <time>2021-07-25T09:39:18Z</time>
      </trkpt>
      <trkpt lat="43.0422240" lon="-7.9743500">
        <ele>579.8</ele>
        <time>2021-07-25T09:39:19Z</time>
      </trkpt>
      <trkpt lat="43.0422010" lon="-7.9743810">
        <ele>579.4</ele>
        <time>2021-07-25T09:39:20Z</time>
      </trkpt>
      <trkpt lat="43.0421820" lon="-7.9744060">
        <ele>579.0</ele>
        <time>2021-07-25T09:39:21Z</time>
      </trkpt>
      <trkpt lat="43.0421090" lon="-7.9744650">
        <ele>579.0</ele>
        <time>2021-07-25T09:39:25Z</time>
      </trkpt>
      <trkpt lat="43.0420980" lon="-7.9744790">
        <ele>579.0</ele>
        <time>2021-07-25T09:39:26Z</time>
      </trkpt>
      <trkpt lat="43.0420810" lon="-7.9744880">
        <ele>579.0</ele>
        <time>2021-07-25T09:39:28Z</time>
      </trkpt>
      <trkpt lat="43.0420810" lon="-7.9744920">
        <ele>579.0</ele>
        <time>2021-07-25T09:39:29Z</time>
      </trkpt>
      <trkpt lat="43.0419420" lon="-7.9747140">
        <ele>574.8</ele>
        <time>2021-07-25T09:39:53Z</time>
      </trkpt>
      <trkpt lat="43.0419270" lon="-7.9747250">
        <ele>574.8</ele>
        <time>2021-07-25T09:39:54Z</time>
      </trkpt>
      <trkpt lat="43.0418710" lon="-7.9747900">
        <ele>574.4</ele>
        <time>2021-07-25T09:39:58Z</time>
      </trkpt>
      <trkpt lat="43.0418580" lon="-7.9747970">
        <ele>574.0</ele>
        <time>2021-07-25T09:39:59Z</time>
      </trkpt>
      <trkpt lat="43.0418440" lon="-7.9748140">
        <ele>573.6</ele>
        <time>2021-07-25T09:40:00Z</time>
      </trkpt>
      <trkpt lat="43.0418380" lon="-7.9748230">
        <ele>573.2</ele>
        <time>2021-07-25T09:40:01Z</time>
      </trkpt>
      <trkpt lat="43.0418370" lon="-7.9748220">
        <ele>572.6</ele>
        <time>2021-07-25T09:40:02Z</time>
      </trkpt>
      <trkpt lat="43.0418020" lon="-7.9748800">
        <ele>572.6</ele>
        <time>2021-07-25T09:40:07Z</time>
      </trkpt>
      <trkpt lat="43.0417740" lon="-7.9749060">
        <ele>572.6</ele>
        <time>2021-07-25T09:40:08Z</time>
      </trkpt>
      <trkpt lat="43.0417000" lon="-7.9749320">
        <ele>572.2</ele>
        <time>2021-07-25T09:40:10Z</time>
      </trkpt>
      <trkpt lat="43.0416450" lon="-7.9749410">
        <ele>571.8</ele>
        <time>2021-07-25T09:40:11Z</time>
      </trkpt>
      <trkpt lat="43.0415910" lon="-7.9749460">
        <ele>571.4</ele>
        <time>2021-07-25T09:40:12Z</time>
      </trkpt>
      <trkpt lat="43.0415410" lon="-7.9749520">
        <ele>571.0</ele>
        <time>2021-07-25T09:40:13Z</time>
      </trkpt>
      <trkpt lat="43.0414940" lon="-7.9749600">
        <ele>570.4</ele>
        <time>2021-07-25T09:40:14Z</time>
      </trkpt>
      <trkpt lat="43.0414100" lon="-7.9749870">
        <ele>570.4</ele>
        <time>2021-07-25T09:40:16Z</time>
      </trkpt>
      <trkpt lat="43.0413550" lon="-7.9750350">
        <ele>570.4</ele>
        <time>2021-07-25T09:40:18Z</time>
      </trkpt>
      <trkpt lat="43.0413420" lon="-7.9750770">
        <ele>570.0</ele>
        <time>2021-07-25T09:40:19Z</time>
      </trkpt>
      <trkpt lat="43.0413370" lon="-7.9751300">
        <ele>569.6</ele>
        <time>2021-07-25T09:40:20Z</time>
      </trkpt>
      <trkpt lat="43.0413430" lon="-7.9751870">
        <ele>569.2</ele>
        <time>2021-07-25T09:40:21Z</time>
      </trkpt>
      <trkpt lat="43.0413440" lon="-7.9752520">
        <ele>568.8</ele>
        <time>2021-07-25T09:40:22Z</time>
      </trkpt>
      <trkpt lat="43.0413410" lon="-7.9753250">
        <ele>568.4</ele>
        <time>2021-07-25T09:40:23Z</time>
      </trkpt>
      <trkpt lat="43.0413290" lon="-7.9753940">
        <ele>568.4</ele>
        <time>2021-07-25T09:40:24Z</time>
      </trkpt>
      <trkpt lat="43.0412820" lon="-7.9755100">
        <ele>568.4</ele>
        <time>2021-07-25T09:40:26Z</time>
      </trkpt>
      <trkpt lat="43.0412550" lon="-7.9755610">
        <ele>568.0</ele>
        <time>2021-07-25T09:40:27Z</time>
      </trkpt>
      <trkpt lat="43.0412270" lon="-7.9756100">
        <ele>567.6</ele>
        <time>2021-07-25T09:40:28Z</time>
      </trkpt>
      <trkpt lat="43.0412010" lon="-7.9756580">
        <ele>567.2</ele>
        <time>2021-07-25T09:40:29Z</time>
      </trkpt>
      <trkpt lat="43.0411750" lon="-7.9757060">
        <ele>566.6</ele>
        <time>2021-07-25T09:40:30Z</time>
      </trkpt>
      <trkpt lat="43.0411490" lon="-7.9757520">
        <ele>566.2</ele>
        <time>2021-07-25T09:40:31Z</time>
      </trkpt>
      <trkpt lat="43.0411060" lon="-7.9758440">
        <ele>566.2</ele>
        <time>2021-07-25T09:40:33Z</time>
      </trkpt>
      <trkpt lat="43.0410230" lon="-7.9760150">
        <ele>566.2</ele>
        <time>2021-07-25T09:40:38Z</time>
      </trkpt>
      <trkpt lat="43.0410080" lon="-7.9760500">
        <ele>566.2</ele>
        <time>2021-07-25T09:40:39Z</time>
      </trkpt>
      <trkpt lat="43.0409430" lon="-7.9761720">
        <ele>566.2</ele>
        <time>2021-07-25T09:40:43Z</time>
      </trkpt>
      <trkpt lat="43.0409130" lon="-7.9762230">
        <ele>566.2</ele>
        <time>2021-07-25T09:40:46Z</time>
      </trkpt>
      <trkpt lat="43.0409150" lon="-7.9762210">
        <ele>566.2</ele>
        <time>2021-07-25T09:40:47Z</time>
      </trkpt>
      <trkpt lat="43.0409090" lon="-7.9762520">
        <ele>566.2</ele>
        <time>2021-07-25T09:40:50Z</time>
      </trkpt>
      <trkpt lat="43.0408750" lon="-7.9762860">
        <ele>566.2</ele>
        <time>2021-07-25T09:40:52Z</time>
      </trkpt>
      <trkpt lat="43.0407860" lon="-7.9764500">
        <ele>566.2</ele>
        <time>2021-07-25T09:40:57Z</time>
      </trkpt>
      <trkpt lat="43.0407120" lon="-7.9765910">
        <ele>566.2</ele>
        <time>2021-07-25T09:41:00Z</time>
      </trkpt>
      <trkpt lat="43.0406770" lon="-7.9766390">
        <ele>565.8</ele>
        <time>2021-07-25T09:41:01Z</time>
      </trkpt>
      <trkpt lat="43.0406400" lon="-7.9766890">
        <ele>565.4</ele>
        <time>2021-07-25T09:41:02Z</time>
      </trkpt>
      <trkpt lat="43.0406030" lon="-7.9767440">
        <ele>565.0</ele>
        <time>2021-07-25T09:41:03Z</time>
      </trkpt>
      <trkpt lat="43.0405610" lon="-7.9767920">
        <ele>564.6</ele>
        <time>2021-07-25T09:41:04Z</time>
      </trkpt>
      <trkpt lat="43.0405210" lon="-7.9768430">
        <ele>564.2</ele>
        <time>2021-07-25T09:41:05Z</time>
      </trkpt>
      <trkpt lat="43.0404080" lon="-7.9770190">
        <ele>564.2</ele>
        <time>2021-07-25T09:41:08Z</time>
      </trkpt>
      <trkpt lat="43.0403360" lon="-7.9771180">
        <ele>563.8</ele>
        <time>2021-07-25T09:41:10Z</time>
      </trkpt>
      <trkpt lat="43.0403060" lon="-7.9771580">
        <ele>563.4</ele>
        <time>2021-07-25T09:41:11Z</time>
      </trkpt>
      <trkpt lat="43.0402750" lon="-7.9772060">
        <ele>563.0</ele>
        <time>2021-07-25T09:41:12Z</time>
      </trkpt>
      <trkpt lat="43.0402350" lon="-7.9772510">
        <ele>562.6</ele>
        <time>2021-07-25T09:41:13Z</time>
      </trkpt>
      <trkpt lat="43.0402010" lon="-7.9772920">
        <ele>562.2</ele>
        <time>2021-07-25T09:41:14Z</time>
      </trkpt>
      <trkpt lat="43.0401200" lon="-7.9773850">
        <ele>562.2</ele>
        <time>2021-07-25T09:41:18Z</time>
      </trkpt>
      <trkpt lat="43.0400730" lon="-7.9774380">
        <ele>562.2</ele>
        <time>2021-07-25T09:41:20Z</time>
      </trkpt>
      <trkpt lat="43.0400360" lon="-7.9774840">
        <ele>562.2</ele>
        <time>2021-07-25T09:41:22Z</time>
      </trkpt>
      <trkpt lat="43.0399890" lon="-7.9775230">
        <ele>562.2</ele>
        <time>2021-07-25T09:41:24Z</time>
      </trkpt>
      <trkpt lat="43.0399440" lon="-7.9775780">
        <ele>562.2</ele>
        <time>2021-07-25T09:41:26Z</time>
      </trkpt>
      <trkpt lat="43.0398310" lon="-7.9777330">
        <ele>562.2</ele>
        <time>2021-07-25T09:41:31Z</time>
      </trkpt>
      <trkpt lat="43.0397100" lon="-7.9779340">
        <ele>561.6</ele>
        <time>2021-07-25T09:41:36Z</time>
      </trkpt>
      <trkpt lat="43.0396880" lon="-7.9779670">
        <ele>561.2</ele>
        <time>2021-07-25T09:41:37Z</time>
      </trkpt>
      <trkpt lat="43.0396670" lon="-7.9780060">
        <ele>560.8</ele>
        <time>2021-07-25T09:41:38Z</time>
      </trkpt>
      <trkpt lat="43.0396500" lon="-7.9780450">
        <ele>560.2</ele>
        <time>2021-07-25T09:41:39Z</time>
      </trkpt>
      <trkpt lat="43.0396320" lon="-7.9780880">
        <ele>559.8</ele>
        <time>2021-07-25T09:41:40Z</time>
      </trkpt>
      <trkpt lat="43.0395980" lon="-7.9782170">
        <ele>559.4</ele>
        <time>2021-07-25T09:41:43Z</time>
      </trkpt>
      <trkpt lat="43.0395830" lon="-7.9782800">
        <ele>559.0</ele>
        <time>2021-07-25T09:41:44Z</time>
      </trkpt>
      <trkpt lat="43.0395610" lon="-7.9783500">
        <ele>558.6</ele>
        <time>2021-07-25T09:41:45Z</time>
      </trkpt>
      <trkpt lat="43.0395490" lon="-7.9784040">
        <ele>558.0</ele>
        <time>2021-07-25T09:41:46Z</time>
      </trkpt>
      <trkpt lat="43.0395440" lon="-7.9784690">
        <ele>557.6</ele>
        <time>2021-07-25T09:41:47Z</time>
      </trkpt>
      <trkpt lat="43.0395440" lon="-7.9785350">
        <ele>557.2</ele>
        <time>2021-07-25T09:41:48Z</time>
      </trkpt>
      <trkpt lat="43.0395470" lon="-7.9786080">
        <ele>556.8</ele>
        <time>2021-07-25T09:41:49Z</time>
      </trkpt>
      <trkpt lat="43.0395530" lon="-7.9786820">
        <ele>556.4</ele>
        <time>2021-07-25T09:41:50Z</time>
      </trkpt>
      <trkpt lat="43.0395630" lon="-7.9787540">
        <ele>555.8</ele>
        <time>2021-07-25T09:41:51Z</time>
      </trkpt>
      <trkpt lat="43.0395750" lon="-7.9788240">
        <ele>555.4</ele>
        <time>2021-07-25T09:41:52Z</time>
      </trkpt>
      <trkpt lat="43.0395780" lon="-7.9789050">
        <ele>555.4</ele>
        <time>2021-07-25T09:41:53Z</time>
      </trkpt>
      <trkpt lat="43.0395850" lon="-7.9790650">
        <ele>555.4</ele>
        <time>2021-07-25T09:41:55Z</time>
      </trkpt>
      <trkpt lat="43.0395870" lon="-7.9792060">
        <ele>555.4</ele>
        <time>2021-07-25T09:41:57Z</time>
      </trkpt>
      <trkpt lat="43.0395840" lon="-7.9792740">
        <ele>555.0</ele>
        <time>2021-07-25T09:41:58Z</time>
      </trkpt>
      <trkpt lat="43.0395870" lon="-7.9793510">
        <ele>554.6</ele>
        <time>2021-07-25T09:41:59Z</time>
      </trkpt>
      <trkpt lat="43.0395900" lon="-7.9794250">
        <ele>554.2</ele>
        <time>2021-07-25T09:42:00Z</time>
      </trkpt>
      <trkpt lat="43.0395890" lon="-7.9794900">
        <ele>553.8</ele>
        <time>2021-07-25T09:42:01Z</time>
      </trkpt>
      <trkpt lat="43.0395900" lon="-7.9795550">
        <ele>553.4</ele>
        <time>2021-07-25T09:42:02Z</time>
      </trkpt>
      <trkpt lat="43.0395940" lon="-7.9796190">
        <ele>553.4</ele>
        <time>2021-07-25T09:42:03Z</time>
      </trkpt>
      <trkpt lat="43.0396120" lon="-7.9797430">
        <ele>553.4</ele>
        <time>2021-07-25T09:42:05Z</time>
      </trkpt>
      <trkpt lat="43.0396360" lon="-7.9800690">
        <ele>553.4</ele>
        <time>2021-07-25T09:42:10Z</time>
      </trkpt>
      <trkpt lat="43.0396560" lon="-7.9801840">
        <ele>553.0</ele>
        <time>2021-07-25T09:42:12Z</time>
      </trkpt>
      <trkpt lat="43.0396660" lon="-7.9802430">
        <ele>552.4</ele>
        <time>2021-07-25T09:42:13Z</time>
      </trkpt>
      <trkpt lat="43.0396810" lon="-7.9803030">
        <ele>552.0</ele>
        <time>2021-07-25T09:42:14Z</time>
      </trkpt>
      <trkpt lat="43.0396910" lon="-7.9803660">
        <ele>551.6</ele>
        <time>2021-07-25T09:42:15Z</time>
      </trkpt>
      <trkpt lat="43.0396970" lon="-7.9804240">
        <ele>551.2</ele>
        <time>2021-07-25T09:42:16Z</time>
      </trkpt>
      <trkpt lat="43.0397020" lon="-7.9804810">
        <ele>551.2</ele>
        <time>2021-07-25T09:42:17Z</time>
      </trkpt>
      <trkpt lat="43.0396830" lon="-7.9807730">
        <ele>551.2</ele>
        <time>2021-07-25T09:42:23Z</time>
      </trkpt>
      <trkpt lat="43.0395940" lon="-7.9809830">
        <ele>551.2</ele>
        <time>2021-07-25T09:42:29Z</time>
      </trkpt>
      <trkpt lat="43.0395420" lon="-7.9810590">
        <ele>551.2</ele>
        <time>2021-07-25T09:42:31Z</time>
      </trkpt>
      <trkpt lat="43.0394930" lon="-7.9811210">
        <ele>551.2</ele>
        <time>2021-07-25T09:42:33Z</time>
      </trkpt>
      <trkpt lat="43.0394270" lon="-7.9812080">
        <ele>551.2</ele>
        <time>2021-07-25T09:42:36Z</time>
      </trkpt>
      <trkpt lat="43.0392770" lon="-7.9813180">
        <ele>551.2</ele>
        <time>2021-07-25T09:42:41Z</time>
      </trkpt>
      <trkpt lat="43.0391740" lon="-7.9813560">
        <ele>551.2</ele>
        <time>2021-07-25T09:42:44Z</time>
      </trkpt>
      <trkpt lat="43.0390570" lon="-7.9813770">
        <ele>551.2</ele>
        <time>2021-07-25T09:42:47Z</time>
      </trkpt>
      <trkpt lat="43.0389490" lon="-7.9814030">
        <ele>551.2</ele>
        <time>2021-07-25T09:42:50Z</time>
      </trkpt>
      <trkpt lat="43.0388390" lon="-7.9814140">
        <ele>551.2</ele>
        <time>2021-07-25T09:42:53Z</time>
      </trkpt>
      <trkpt lat="43.0386570" lon="-7.9814620">
        <ele>551.2</ele>
        <time>2021-07-25T09:42:57Z</time>
      </trkpt>
      <trkpt lat="43.0386060" lon="-7.9814870">
        <ele>551.2</ele>
        <time>2021-07-25T09:42:58Z</time>
      </trkpt>
      <trkpt lat="43.0383920" lon="-7.9815980">
        <ele>550.8</ele>
        <time>2021-07-25T09:43:02Z</time>
      </trkpt>
      <trkpt lat="43.0383480" lon="-7.9816180">
        <ele>550.4</ele>
        <time>2021-07-25T09:43:03Z</time>
      </trkpt>
      <trkpt lat="43.0383070" lon="-7.9816460">
        <ele>550.0</ele>
        <time>2021-07-25T09:43:04Z</time>
      </trkpt>
      <trkpt lat="43.0382700" lon="-7.9816650">
        <ele>549.6</ele>
        <time>2021-07-25T09:43:05Z</time>
      </trkpt>
      <trkpt lat="43.0382350" lon="-7.9816910">
        <ele>549.2</ele>
        <time>2021-07-25T09:43:06Z</time>
      </trkpt>
      <trkpt lat="43.0381430" lon="-7.9817860">
        <ele>549.2</ele>
        <time>2021-07-25T09:43:09Z</time>
      </trkpt>
      <trkpt lat="43.0381240" lon="-7.9818230">
        <ele>549.2</ele>
        <time>2021-07-25T09:43:10Z</time>
      </trkpt>
      <trkpt lat="43.0380530" lon="-7.9819720">
        <ele>549.2</ele>
        <time>2021-07-25T09:43:14Z</time>
      </trkpt>
      <trkpt lat="43.0380250" lon="-7.9820490">
        <ele>549.2</ele>
        <time>2021-07-25T09:43:16Z</time>
      </trkpt>
      <trkpt lat="43.0380040" lon="-7.9820840">
        <ele>549.2</ele>
        <time>2021-07-25T09:43:17Z</time>
      </trkpt>
      <trkpt lat="43.0379720" lon="-7.9821680">
        <ele>549.2</ele>
        <time>2021-07-25T09:43:19Z</time>
      </trkpt>
      <trkpt lat="43.0379540" lon="-7.9822120">
        <ele>548.8</ele>
        <time>2021-07-25T09:43:20Z</time>
      </trkpt>
      <trkpt lat="43.0379320" lon="-7.9822490">
        <ele>548.4</ele>
        <time>2021-07-25T09:43:21Z</time>
      </trkpt>
      <trkpt lat="43.0379120" lon="-7.9822920">
        <ele>548.0</ele>
        <time>2021-07-25T09:43:22Z</time>
      </trkpt>
      <trkpt lat="43.0378990" lon="-7.9823180">
        <ele>547.6</ele>
        <time>2021-07-25T09:43:23Z</time>
      </trkpt>
      <trkpt lat="43.0378790" lon="-7.9823400">
        <ele>547.2</ele>
        <time>2021-07-25T09:43:24Z</time>
      </trkpt>
      <trkpt lat="43.0377660" lon="-7.9824720">
        <ele>547.2</ele>
        <time>2021-07-25T09:43:28Z</time>
      </trkpt>
      <trkpt lat="43.0375580" lon="-7.9826810">
        <ele>547.2</ele>
        <time>2021-07-25T09:43:35Z</time>
      </trkpt>
      <trkpt lat="43.0375330" lon="-7.9828540">
        <ele>547.2</ele>
        <time>2021-07-25T09:43:39Z</time>
      </trkpt>
      <trkpt lat="43.0376270" lon="-7.9830020">
        <ele>547.2</ele>
        <time>2021-07-25T09:43:43Z</time>
      </trkpt>
      <trkpt lat="43.0376570" lon="-7.9830120">
        <ele>546.6</ele>
        <time>2021-07-25T09:43:44Z</time>
      </trkpt>
      <trkpt lat="43.0376830" lon="-7.9830290">
        <ele>546.2</ele>
        <time>2021-07-25T09:43:45Z</time>
      </trkpt>
      <trkpt lat="43.0377000" lon="-7.9830440">
        <ele>545.8</ele>
        <time>2021-07-25T09:43:46Z</time>
      </trkpt>
      <trkpt lat="43.0377160" lon="-7.9830780">
        <ele>545.4</ele>
        <time>2021-07-25T09:43:47Z</time>
      </trkpt>
      <trkpt lat="43.0377180" lon="-7.9831100">
        <ele>545.0</ele>
        <time>2021-07-25T09:43:48Z</time>
      </trkpt>
      <trkpt lat="43.0376960" lon="-7.9831530">
        <ele>545.0</ele>
        <time>2021-07-25T09:43:50Z</time>
      </trkpt>
      <trkpt lat="43.0376860" lon="-7.9831750">
        <ele>545.0</ele>
        <time>2021-07-25T09:43:51Z</time>
      </trkpt>
      <trkpt lat="43.0376620" lon="-7.9832580">
        <ele>544.4</ele>
        <time>2021-07-25T09:43:54Z</time>
      </trkpt>
      <trkpt lat="43.0376560" lon="-7.9832930">
        <ele>544.0</ele>
        <time>2021-07-25T09:43:55Z</time>
      </trkpt>
      <trkpt lat="43.0376530" lon="-7.9833220">
        <ele>543.6</ele>
        <time>2021-07-25T09:43:56Z</time>
      </trkpt>
      <trkpt lat="43.0376430" lon="-7.9833520">
        <ele>543.2</ele>
        <time>2021-07-25T09:43:57Z</time>
      </trkpt>
      <trkpt lat="43.0376400" lon="-7.9833890">
        <ele>542.8</ele>
        <time>2021-07-25T09:43:58Z</time>
      </trkpt>
      <trkpt lat="43.0376370" lon="-7.9834450">
        <ele>542.2</ele>
        <time>2021-07-25T09:44:00Z</time>
      </trkpt>
      <trkpt lat="43.0376390" lon="-7.9834810">
        <ele>541.8</ele>
        <time>2021-07-25T09:44:01Z</time>
      </trkpt>
      <trkpt lat="43.0376410" lon="-7.9835130">
        <ele>541.4</ele>
        <time>2021-07-25T09:44:02Z</time>
      </trkpt>
      <trkpt lat="43.0376470" lon="-7.9835470">
        <ele>541.0</ele>
        <time>2021-07-25T09:44:03Z</time>
      </trkpt>
      <trkpt lat="43.0376540" lon="-7.9835840">
        <ele>540.6</ele>
        <time>2021-07-25T09:44:04Z</time>
      </trkpt>
      <trkpt lat="43.0376930" lon="-7.9837460">
        <ele>540.6</ele>
        <time>2021-07-25T09:44:07Z</time>
      </trkpt>
      <trkpt lat="43.0377500" lon="-7.9839120">
        <ele>540.2</ele>
        <time>2021-07-25T09:44:10Z</time>
      </trkpt>
      <trkpt lat="43.0377640" lon="-7.9839650">
        <ele>539.6</ele>
        <time>2021-07-25T09:44:11Z</time>
      </trkpt>
      <trkpt lat="43.0377710" lon="-7.9840190">
        <ele>539.2</ele>
        <time>2021-07-25T09:44:12Z</time>
      </trkpt>
      <trkpt lat="43.0377850" lon="-7.9840680">
        <ele>538.8</ele>
        <time>2021-07-25T09:44:13Z</time>
      </trkpt>
      <trkpt lat="43.0378010" lon="-7.9841210">
        <ele>538.4</ele>
        <time>2021-07-25T09:44:14Z</time>
      </trkpt>
      <trkpt lat="43.0378790" lon="-7.9844090">
        <ele>538.0</ele>
        <time>2021-07-25T09:44:20Z</time>
      </trkpt>
      <trkpt lat="43.0378860" lon="-7.9844370">
        <ele>537.6</ele>
        <time>2021-07-25T09:44:21Z</time>
      </trkpt>
      <trkpt lat="43.0378850" lon="-7.9844600">
        <ele>537.0</ele>
        <time>2021-07-25T09:44:22Z</time>
      </trkpt>
      <trkpt lat="43.0378870" lon="-7.9844790">
        <ele>536.2</ele>
        <time>2021-07-25T09:44:23Z</time>
      </trkpt>
      <trkpt lat="43.0378880" lon="-7.9845140">
        <ele>536.2</ele>
        <time>2021-07-25T09:44:25Z</time>
      </trkpt>
      <trkpt lat="43.0378950" lon="-7.9846130">
        <ele>536.2</ele>
        <time>2021-07-25T09:44:29Z</time>
      </trkpt>
      <trkpt lat="43.0379080" lon="-7.9846660">
        <ele>536.2</ele>
        <time>2021-07-25T09:44:32Z</time>
      </trkpt>
      <trkpt lat="43.0379020" lon="-7.9847470">
        <ele>535.8</ele>
        <time>2021-07-25T09:44:36Z</time>
      </trkpt>
      <trkpt lat="43.0378920" lon="-7.9847840">
        <ele>535.4</ele>
        <time>2021-07-25T09:44:37Z</time>
      </trkpt>
      <trkpt lat="43.0378870" lon="-7.9848160">
        <ele>535.0</ele>
        <time>2021-07-25T09:44:38Z</time>
      </trkpt>
      <trkpt lat="43.0378850" lon="-7.9848460">
        <ele>534.4</ele>
        <time>2021-07-25T09:44:39Z</time>
      </trkpt>
      <trkpt lat="43.0378800" lon="-7.9848790">
        <ele>534.0</ele>
        <time>2021-07-25T09:44:40Z</time>
      </trkpt>
      <trkpt lat="43.0378710" lon="-7.9851300">
        <ele>534.0</ele>
        <time>2021-07-25T09:44:46Z</time>
      </trkpt>
      <trkpt lat="43.0378540" lon="-7.9852770">
        <ele>533.6</ele>
        <time>2021-07-25T09:44:50Z</time>
      </trkpt>
      <trkpt lat="43.0378470" lon="-7.9853160">
        <ele>533.2</ele>
        <time>2021-07-25T09:44:51Z</time>
      </trkpt>
      <trkpt lat="43.0378390" lon="-7.9853620">
        <ele>532.8</ele>
        <time>2021-07-25T09:44:52Z</time>
      </trkpt>
      <trkpt lat="43.0378320" lon="-7.9854070">
        <ele>532.4</ele>
        <time>2021-07-25T09:44:53Z</time>
      </trkpt>
      <trkpt lat="43.0378270" lon="-7.9854520">
        <ele>532.0</ele>
        <time>2021-07-25T09:44:54Z</time>
      </trkpt>
      <trkpt lat="43.0378140" lon="-7.9856880">
        <ele>532.0</ele>
        <time>2021-07-25T09:45:00Z</time>
      </trkpt>
      <trkpt lat="43.0377900" lon="-7.9858690">
        <ele>532.0</ele>
        <time>2021-07-25T09:45:04Z</time>
      </trkpt>
      <trkpt lat="43.0377840" lon="-7.9859170">
        <ele>532.0</ele>
        <time>2021-07-25T09:45:05Z</time>
      </trkpt>
      <trkpt lat="43.0377350" lon="-7.9861990">
        <ele>532.0</ele>
        <time>2021-07-25T09:45:11Z</time>
      </trkpt>
      <trkpt lat="43.0376760" lon="-7.9863920">
        <ele>532.0</ele>
        <time>2021-07-25T09:45:16Z</time>
      </trkpt>
      <trkpt lat="43.0376520" lon="-7.9865040">
        <ele>532.0</ele>
        <time>2021-07-25T09:45:19Z</time>
      </trkpt>
      <trkpt lat="43.0376680" lon="-7.9866210">
        <ele>532.0</ele>
        <time>2021-07-25T09:45:22Z</time>
      </trkpt>
      <trkpt lat="43.0376770" lon="-7.9867260">
        <ele>532.0</ele>
        <time>2021-07-25T09:45:24Z</time>
      </trkpt>
      <trkpt lat="43.0376790" lon="-7.9867810">
        <ele>532.0</ele>
        <time>2021-07-25T09:45:25Z</time>
      </trkpt>
      <trkpt lat="43.0376680" lon="-7.9868710">
        <ele>532.0</ele>
        <time>2021-07-25T09:45:27Z</time>
      </trkpt>
      <trkpt lat="43.0376460" lon="-7.9869870">
        <ele>532.0</ele>
        <time>2021-07-25T09:45:30Z</time>
      </trkpt>
      <trkpt lat="43.0376410" lon="-7.9870150">
        <ele>532.0</ele>
        <time>2021-07-25T09:45:31Z</time>
      </trkpt>
      <trkpt lat="43.0376260" lon="-7.9871490">
        <ele>532.0</ele>
        <time>2021-07-25T09:45:38Z</time>
      </trkpt>
      <trkpt lat="43.0376260" lon="-7.9872770">
        <ele>532.0</ele>
        <time>2021-07-25T09:45:45Z</time>
      </trkpt>
      <trkpt lat="43.0376130" lon="-7.9874700">
        <ele>532.0</ele>
        <time>2021-07-25T09:45:51Z</time>
      </trkpt>
      <trkpt lat="43.0376140" lon="-7.9876380">
        <ele>532.0</ele>
        <time>2021-07-25T09:45:55Z</time>
      </trkpt>
      <trkpt lat="43.0376090" lon="-7.9878430">
        <ele>532.0</ele>
        <time>2021-07-25T09:46:00Z</time>
      </trkpt>
      <trkpt lat="43.0375940" lon="-7.9879630">
        <ele>532.0</ele>
        <time>2021-07-25T09:46:04Z</time>
      </trkpt>
      <trkpt lat="43.0375820" lon="-7.9880430">
        <ele>532.0</ele>
        <time>2021-07-25T09:46:06Z</time>
      </trkpt>
      <trkpt lat="43.0375150" lon="-7.9883130">
        <ele>532.0</ele>
        <time>2021-07-25T09:46:12Z</time>
      </trkpt>
      <trkpt lat="43.0374910" lon="-7.9883950">
        <ele>532.0</ele>
        <time>2021-07-25T09:46:14Z</time>
      </trkpt>
      <trkpt lat="43.0374550" lon="-7.9885190">
        <ele>532.0</ele>
        <time>2021-07-25T09:46:17Z</time>
      </trkpt>
      <trkpt lat="43.0373940" lon="-7.9888340">
        <ele>532.0</ele>
        <time>2021-07-25T09:46:23Z</time>
      </trkpt>
      <trkpt lat="43.0373590" lon="-7.9889850">
        <ele>531.0</ele>
        <time>2021-07-25T09:46:26Z</time>
      </trkpt>
      <trkpt lat="43.0373480" lon="-7.9890350">
        <ele>530.6</ele>
        <time>2021-07-25T09:46:27Z</time>
      </trkpt>
      <trkpt lat="43.0373360" lon="-7.9890830">
        <ele>530.2</ele>
        <time>2021-07-25T09:46:28Z</time>
      </trkpt>
      <trkpt lat="43.0373240" lon="-7.9891340">
        <ele>529.8</ele>
        <time>2021-07-25T09:46:29Z</time>
      </trkpt>
      <trkpt lat="43.0373110" lon="-7.9892270">
        <ele>529.8</ele>
        <time>2021-07-25T09:46:31Z</time>
      </trkpt>
      <trkpt lat="43.0373060" lon="-7.9892690">
        <ele>529.2</ele>
        <time>2021-07-25T09:46:32Z</time>
      </trkpt>
      <trkpt lat="43.0372990" lon="-7.9893070">
        <ele>528.8</ele>
        <time>2021-07-25T09:46:33Z</time>
      </trkpt>
      <trkpt lat="43.0372930" lon="-7.9893440">
        <ele>528.4</ele>
        <time>2021-07-25T09:46:34Z</time>
      </trkpt>
      <trkpt lat="43.0372890" lon="-7.9893740">
        <ele>528.0</ele>
        <time>2021-07-25T09:46:35Z</time>
      </trkpt>
      <trkpt lat="43.0372850" lon="-7.9894000">
        <ele>527.6</ele>
        <time>2021-07-25T09:46:36Z</time>
      </trkpt>
      <trkpt lat="43.0372530" lon="-7.9895050">
        <ele>527.2</ele>
        <time>2021-07-25T09:46:39Z</time>
      </trkpt>
      <trkpt lat="43.0372510" lon="-7.9895320">
        <ele>526.8</ele>
        <time>2021-07-25T09:46:40Z</time>
      </trkpt>
      <trkpt lat="43.0372470" lon="-7.9895580">
        <ele>526.4</ele>
        <time>2021-07-25T09:46:41Z</time>
      </trkpt>
      <trkpt lat="43.0372400" lon="-7.9895830">
        <ele>526.0</ele>
        <time>2021-07-25T09:46:42Z</time>
      </trkpt>
      <trkpt lat="43.0372330" lon="-7.9896040">
        <ele>525.6</ele>
        <time>2021-07-25T09:46:43Z</time>
      </trkpt>
      <trkpt lat="43.0372150" lon="-7.9896670">
        <ele>525.2</ele>
        <time>2021-07-25T09:46:46Z</time>
      </trkpt>
      <trkpt lat="43.0372090" lon="-7.9896890">
        <ele>524.8</ele>
        <time>2021-07-25T09:46:47Z</time>
      </trkpt>
      <trkpt lat="43.0372000" lon="-7.9897160">
        <ele>524.4</ele>
        <time>2021-07-25T09:46:48Z</time>
      </trkpt>
      <trkpt lat="43.0371890" lon="-7.9897520">
        <ele>524.0</ele>
        <time>2021-07-25T09:46:49Z</time>
      </trkpt>
      <trkpt lat="43.0371790" lon="-7.9897910">
        <ele>523.6</ele>
        <time>2021-07-25T09:46:50Z</time>
      </trkpt>
      <trkpt lat="43.0371670" lon="-7.9898300">
        <ele>523.6</ele>
        <time>2021-07-25T09:46:51Z</time>
      </trkpt>
      <trkpt lat="43.0371000" lon="-7.9899780">
        <ele>523.0</ele>
        <time>2021-07-25T09:46:55Z</time>
      </trkpt>
      <trkpt lat="43.0370880" lon="-7.9900100">
        <ele>522.6</ele>
        <time>2021-07-25T09:46:56Z</time>
      </trkpt>
      <trkpt lat="43.0370800" lon="-7.9900410">
        <ele>522.2</ele>
        <time>2021-07-25T09:46:57Z</time>
      </trkpt>
      <trkpt lat="43.0370720" lon="-7.9900710">
        <ele>521.8</ele>
        <time>2021-07-25T09:46:58Z</time>
      </trkpt>
      <trkpt lat="43.0370650" lon="-7.9901080">
        <ele>521.4</ele>
        <time>2021-07-25T09:46:59Z</time>
      </trkpt>
      <trkpt lat="43.0370580" lon="-7.9902800">
        <ele>521.0</ele>
        <time>2021-07-25T09:47:03Z</time>
      </trkpt>
      <trkpt lat="43.0370550" lon="-7.9903210">
        <ele>520.6</ele>
        <time>2021-07-25T09:47:04Z</time>
      </trkpt>
      <trkpt lat="43.0370570" lon="-7.9903640">
        <ele>520.2</ele>
        <time>2021-07-25T09:47:05Z</time>
      </trkpt>
      <trkpt lat="43.0370580" lon="-7.9904040">
        <ele>519.8</ele>
        <time>2021-07-25T09:47:06Z</time>
      </trkpt>
      <trkpt lat="43.0370580" lon="-7.9904440">
        <ele>519.4</ele>
        <time>2021-07-25T09:47:07Z</time>
      </trkpt>
      <trkpt lat="43.0370620" lon="-7.9905250">
        <ele>519.4</ele>
        <time>2021-07-25T09:47:09Z</time>
      </trkpt>
      <trkpt lat="43.0370810" lon="-7.9907390">
        <ele>518.8</ele>
        <time>2021-07-25T09:47:14Z</time>
      </trkpt>
      <trkpt lat="43.0370760" lon="-7.9907880">
        <ele>518.4</ele>
        <time>2021-07-25T09:47:15Z</time>
      </trkpt>
      <trkpt lat="43.0370740" lon="-7.9908300">
        <ele>517.6</ele>
        <time>2021-07-25T09:47:16Z</time>
      </trkpt>
      <trkpt lat="43.0370760" lon="-7.9908700">
        <ele>517.2</ele>
        <time>2021-07-25T09:47:17Z</time>
      </trkpt>
      <trkpt lat="43.0370770" lon="-7.9909090">
        <ele>517.2</ele>
        <time>2021-07-25T09:47:18Z</time>
      </trkpt>
      <trkpt lat="43.0370710" lon="-7.9910440">
        <ele>516.8</ele>
        <time>2021-07-25T09:47:21Z</time>
      </trkpt>
      <trkpt lat="43.0370710" lon="-7.9910890">
        <ele>516.4</ele>
        <time>2021-07-25T09:47:22Z</time>
      </trkpt>
      <trkpt lat="43.0370700" lon="-7.9911370">
        <ele>516.0</ele>
        <time>2021-07-25T09:47:23Z</time>
      </trkpt>
      <trkpt lat="43.0370680" lon="-7.9911840">
        <ele>515.6</ele>
        <time>2021-07-25T09:47:24Z</time>
      </trkpt>
      <trkpt lat="43.0370670" lon="-7.9912300">
        <ele>515.2</ele>
        <time>2021-07-25T09:47:25Z</time>
      </trkpt>
      <trkpt lat="43.0370660" lon="-7.9914070">
        <ele>515.2</ele>
        <time>2021-07-25T09:47:29Z</time>
      </trkpt>
      <trkpt lat="43.0370810" lon="-7.9916360">
        <ele>514.6</ele>
        <time>2021-07-25T09:47:34Z</time>
      </trkpt>
      <trkpt lat="43.0370820" lon="-7.9916730">
        <ele>514.2</ele>
        <time>2021-07-25T09:47:35Z</time>
      </trkpt>
      <trkpt lat="43.0370850" lon="-7.9917100">
        <ele>513.8</ele>
        <time>2021-07-25T09:47:36Z</time>
      </trkpt>
      <trkpt lat="43.0370900" lon="-7.9917480">
        <ele>513.4</ele>
        <time>2021-07-25T09:47:37Z</time>
      </trkpt>
      <trkpt lat="43.0370910" lon="-7.9917940">
        <ele>513.0</ele>
        <time>2021-07-25T09:47:38Z</time>
      </trkpt>
      <trkpt lat="43.0371030" lon="-7.9919320">
        <ele>513.0</ele>
        <time>2021-07-25T09:47:41Z</time>
      </trkpt>
      <trkpt lat="43.0371270" lon="-7.9921560">
        <ele>512.6</ele>
        <time>2021-07-25T09:47:46Z</time>
      </trkpt>
      <trkpt lat="43.0371300" lon="-7.9922100">
        <ele>512.2</ele>
        <time>2021-07-25T09:47:47Z</time>
      </trkpt>
      <trkpt lat="43.0371300" lon="-7.9922640">
        <ele>511.8</ele>
        <time>2021-07-25T09:47:48Z</time>
      </trkpt>
      <trkpt lat="43.0371270" lon="-7.9923150">
        <ele>511.4</ele>
        <time>2021-07-25T09:47:49Z</time>
      </trkpt>
      <trkpt lat="43.0371250" lon="-7.9923750">
        <ele>511.0</ele>
        <time>2021-07-25T09:47:50Z</time>
      </trkpt>
      <trkpt lat="43.0371220" lon="-7.9925140">
        <ele>510.6</ele>
        <time>2021-07-25T09:47:53Z</time>
      </trkpt>
      <trkpt lat="43.0371230" lon="-7.9925490">
        <ele>510.2</ele>
        <time>2021-07-25T09:47:54Z</time>
      </trkpt>
      <trkpt lat="43.0371230" lon="-7.9925840">
        <ele>509.8</ele>
        <time>2021-07-25T09:47:55Z</time>
      </trkpt>
      <trkpt lat="43.0371230" lon="-7.9926180">
        <ele>509.4</ele>
        <time>2021-07-25T09:47:56Z</time>
      </trkpt>
      <trkpt lat="43.0371220" lon="-7.9926520">
        <ele>508.8</ele>
        <time>2021-07-25T09:47:57Z</time>
      </trkpt>
      <trkpt lat="43.0371140" lon="-7.9928500">
        <ele>508.8</ele>
        <time>2021-07-25T09:48:02Z</time>
      </trkpt>
      <trkpt lat="43.0371150" lon="-7.9928860">
        <ele>508.4</ele>
        <time>2021-07-25T09:48:03Z</time>
      </trkpt>
      <trkpt lat="43.0371170" lon="-7.9929210">
        <ele>508.0</ele>
        <time>2021-07-25T09:48:04Z</time>
      </trkpt>
      <trkpt lat="43.0371200" lon="-7.9929540">
        <ele>507.2</ele>
        <time>2021-07-25T09:48:05Z</time>
      </trkpt>
      <trkpt lat="43.0371220" lon="-7.9929860">
        <ele>506.8</ele>
        <time>2021-07-25T09:48:06Z</time>
      </trkpt>
      <trkpt lat="43.0371310" lon="-7.9930690">
        <ele>506.8</ele>
        <time>2021-07-25T09:48:09Z</time>
      </trkpt>
      <trkpt lat="43.0371340" lon="-7.9930940">
        <ele>506.4</ele>
        <time>2021-07-25T09:48:10Z</time>
      </trkpt>
      <trkpt lat="43.0371360" lon="-7.9931240">
        <ele>506.0</ele>
        <time>2021-07-25T09:48:11Z</time>
      </trkpt>
      <trkpt lat="43.0371370" lon="-7.9931630">
        <ele>505.6</ele>
        <time>2021-07-25T09:48:12Z</time>
      </trkpt>
      <trkpt lat="43.0371380" lon="-7.9931920">
        <ele>505.2</ele>
        <time>2021-07-25T09:48:13Z</time>
      </trkpt>
      <trkpt lat="43.0371390" lon="-7.9932160">
        <ele>504.8</ele>
        <time>2021-07-25T09:48:14Z</time>
      </trkpt>
      <trkpt lat="43.0371440" lon="-7.9932360">
        <ele>504.8</ele>
        <time>2021-07-25T09:48:15Z</time>
      </trkpt>
      <trkpt lat="43.0371500" lon="-7.9932520">
        <ele>504.2</ele>
        <time>2021-07-25T09:48:16Z</time>
      </trkpt>
      <trkpt lat="43.0371520" lon="-7.9932750">
        <ele>503.8</ele>
        <time>2021-07-25T09:48:17Z</time>
      </trkpt>
      <trkpt lat="43.0371620" lon="-7.9933010">
        <ele>503.4</ele>
        <time>2021-07-25T09:48:18Z</time>
      </trkpt>
      <trkpt lat="43.0371680" lon="-7.9933290">
        <ele>502.8</ele>
        <time>2021-07-25T09:48:19Z</time>
      </trkpt>
      <trkpt lat="43.0371710" lon="-7.9933560">
        <ele>502.4</ele>
        <time>2021-07-25T09:48:20Z</time>
      </trkpt>
      <trkpt lat="43.0371740" lon="-7.9933800">
        <ele>502.4</ele>
        <time>2021-07-25T09:48:21Z</time>
      </trkpt>
      <trkpt lat="43.0371760" lon="-7.9934050">
        <ele>502.0</ele>
        <time>2021-07-25T09:48:22Z</time>
      </trkpt>
      <trkpt lat="43.0371830" lon="-7.9934480">
        <ele>501.6</ele>
        <time>2021-07-25T09:48:23Z</time>
      </trkpt>
      <trkpt lat="43.0371900" lon="-7.9934960">
        <ele>501.2</ele>
        <time>2021-07-25T09:48:24Z</time>
      </trkpt>
      <trkpt lat="43.0372020" lon="-7.9935560">
        <ele>500.8</ele>
        <time>2021-07-25T09:48:25Z</time>
      </trkpt>
      <trkpt lat="43.0372130" lon="-7.9936070">
        <ele>500.4</ele>
        <time>2021-07-25T09:48:26Z</time>
      </trkpt>
      <trkpt lat="43.0372490" lon="-7.9937800">
        <ele>500.0</ele>
        <time>2021-07-25T09:48:30Z</time>
      </trkpt>
      <trkpt lat="43.0372590" lon="-7.9938290">
        <ele>499.6</ele>
        <time>2021-07-25T09:48:31Z</time>
      </trkpt>
      <trkpt lat="43.0372690" lon="-7.9938740">
        <ele>499.0</ele>
        <time>2021-07-25T09:48:32Z</time>
      </trkpt>
      <trkpt lat="43.0372770" lon="-7.9939200">
        <ele>498.6</ele>
        <time>2021-07-25T09:48:33Z</time>
      </trkpt>
      <trkpt lat="43.0372870" lon="-7.9939700">
        <ele>498.2</ele>
        <time>2021-07-25T09:48:34Z</time>
      </trkpt>
      <trkpt lat="43.0372960" lon="-7.9940220">
        <ele>497.8</ele>
        <time>2021-07-25T09:48:35Z</time>
      </trkpt>
      <trkpt lat="43.0373020" lon="-7.9940730">
        <ele>497.4</ele>
        <time>2021-07-25T09:48:36Z</time>
      </trkpt>
      <trkpt lat="43.0373120" lon="-7.9941200">
        <ele>496.8</ele>
        <time>2021-07-25T09:48:37Z</time>
      </trkpt>
      <trkpt lat="43.0373210" lon="-7.9941700">
        <ele>496.4</ele>
        <time>2021-07-25T09:48:38Z</time>
      </trkpt>
      <trkpt lat="43.0373310" lon="-7.9942180">
        <ele>496.0</ele>
        <time>2021-07-25T09:48:39Z</time>
      </trkpt>
      <trkpt lat="43.0373430" lon="-7.9942660">
        <ele>495.6</ele>
        <time>2021-07-25T09:48:40Z</time>
      </trkpt>
      <trkpt lat="43.0373540" lon="-7.9943160">
        <ele>495.2</ele>
        <time>2021-07-25T09:48:41Z</time>
      </trkpt>
      <trkpt lat="43.0373650" lon="-7.9943650">
        <ele>494.8</ele>
        <time>2021-07-25T09:48:42Z</time>
      </trkpt>
      <trkpt lat="43.0373780" lon="-7.9944120">
        <ele>494.4</ele>
        <time>2021-07-25T09:48:43Z</time>
      </trkpt>
      <trkpt lat="43.0373900" lon="-7.9944580">
        <ele>494.0</ele>
        <time>2021-07-25T09:48:44Z</time>
      </trkpt>
      <trkpt lat="43.0374090" lon="-7.9945530">
        <ele>494.0</ele>
        <time>2021-07-25T09:48:46Z</time>
      </trkpt>
      <trkpt lat="43.0374180" lon="-7.9946270">
        <ele>493.6</ele>
        <time>2021-07-25T09:48:48Z</time>
      </trkpt>
      <trkpt lat="43.0374210" lon="-7.9946580">
        <ele>493.2</ele>
        <time>2021-07-25T09:48:49Z</time>
      </trkpt>
      <trkpt lat="43.0374260" lon="-7.9946850">
        <ele>492.8</ele>
        <time>2021-07-25T09:48:50Z</time>
      </trkpt>
      <trkpt lat="43.0374350" lon="-7.9947090">
        <ele>492.4</ele>
        <time>2021-07-25T09:48:51Z</time>
      </trkpt>
      <trkpt lat="43.0374460" lon="-7.9947340">
        <ele>492.0</ele>
        <time>2021-07-25T09:48:52Z</time>
      </trkpt>
      <trkpt lat="43.0374810" lon="-7.9948270">
        <ele>492.0</ele>
        <time>2021-07-25T09:48:55Z</time>
      </trkpt>
      <trkpt lat="43.0375080" lon="-7.9949130">
        <ele>492.0</ele>
        <time>2021-07-25T09:48:57Z</time>
      </trkpt>
      <trkpt lat="43.0375620" lon="-7.9950560">
        <ele>492.0</ele>
        <time>2021-07-25T09:49:00Z</time>
      </trkpt>
      <trkpt lat="43.0375930" lon="-7.9951240">
        <ele>492.0</ele>
        <time>2021-07-25T09:49:02Z</time>
      </trkpt>
      <trkpt lat="43.0375970" lon="-7.9951440">
        <ele>491.4</ele>
        <time>2021-07-25T09:49:03Z</time>
      </trkpt>
      <trkpt lat="43.0375990" lon="-7.9951520">
        <ele>491.0</ele>
        <time>2021-07-25T09:49:04Z</time>
      </trkpt>
      <trkpt lat="43.0375990" lon="-7.9951570">
        <ele>490.6</ele>
        <time>2021-07-25T09:49:05Z</time>
      </trkpt>
      <trkpt lat="43.0375990" lon="-7.9951600">
        <ele>489.8</ele>
        <time>2021-07-25T09:49:50Z</time>
      </trkpt>
      <trkpt lat="43.0376000" lon="-7.9951810">
        <ele>489.8</ele>
        <time>2021-07-25T09:49:51Z</time>
      </trkpt>
      <trkpt lat="43.0376030" lon="-7.9952440">
        <ele>489.8</ele>
        <time>2021-07-25T09:49:53Z</time>
      </trkpt>
      <trkpt lat="43.0376110" lon="-7.9953300">
        <ele>489.8</ele>
        <time>2021-07-25T09:49:55Z</time>
      </trkpt>
      <trkpt lat="43.0376210" lon="-7.9955390">
        <ele>489.8</ele>
        <time>2021-07-25T09:49:59Z</time>
      </trkpt>
      <trkpt lat="43.0376170" lon="-7.9955960">
        <ele>489.8</ele>
        <time>2021-07-25T09:50:00Z</time>
      </trkpt>
      <trkpt lat="43.0375840" lon="-7.9959610">
        <ele>489.8</ele>
        <time>2021-07-25T09:50:06Z</time>
      </trkpt>
      <trkpt lat="43.0375730" lon="-7.9960250">
        <ele>489.8</ele>
        <time>2021-07-25T09:50:07Z</time>
      </trkpt>
      <trkpt lat="43.0375210" lon="-7.9962650">
        <ele>489.8</ele>
        <time>2021-07-25T09:50:11Z</time>
      </trkpt>
      <trkpt lat="43.0375050" lon="-7.9963820">
        <ele>489.8</ele>
        <time>2021-07-25T09:50:13Z</time>
      </trkpt>
      <trkpt lat="43.0374680" lon="-7.9966060">
        <ele>489.8</ele>
        <time>2021-07-25T09:50:17Z</time>
      </trkpt>
      <trkpt lat="43.0374400" lon="-7.9967840">
        <ele>489.8</ele>
        <time>2021-07-25T09:50:20Z</time>
      </trkpt>
      <trkpt lat="43.0374120" lon="-7.9969590">
        <ele>489.8</ele>
        <time>2021-07-25T09:50:23Z</time>
      </trkpt>
      <trkpt lat="43.0373610" lon="-7.9972450">
        <ele>489.8</ele>
        <time>2021-07-25T09:50:28Z</time>
      </trkpt>
      <trkpt lat="43.0372980" lon="-7.9976040">
        <ele>489.8</ele>
        <time>2021-07-25T09:50:35Z</time>
      </trkpt>
      <trkpt lat="43.0372830" lon="-7.9977140">
        <ele>490.4</ele>
        <time>2021-07-25T09:50:37Z</time>
      </trkpt>
      <trkpt lat="43.0372740" lon="-7.9977690">
        <ele>490.8</ele>
        <time>2021-07-25T09:50:38Z</time>
      </trkpt>
      <trkpt lat="43.0372630" lon="-7.9978240">
        <ele>491.2</ele>
        <time>2021-07-25T09:50:39Z</time>
      </trkpt>
      <trkpt lat="43.0372520" lon="-7.9978800">
        <ele>491.6</ele>
        <time>2021-07-25T09:50:40Z</time>
      </trkpt>
      <trkpt lat="43.0372410" lon="-7.9979360">
        <ele>492.0</ele>
        <time>2021-07-25T09:50:41Z</time>
      </trkpt>
      <trkpt lat="43.0372160" lon="-7.9980490">
        <ele>492.0</ele>
        <time>2021-07-25T09:50:43Z</time>
      </trkpt>
      <trkpt lat="43.0371580" lon="-7.9983560">
        <ele>492.0</ele>
        <time>2021-07-25T09:50:49Z</time>
      </trkpt>
      <trkpt lat="43.0371380" lon="-7.9984630">
        <ele>492.0</ele>
        <time>2021-07-25T09:50:51Z</time>
      </trkpt>
      <trkpt lat="43.0371050" lon="-7.9986440">
        <ele>491.6</ele>
        <time>2021-07-25T09:50:54Z</time>
      </trkpt>
      <trkpt lat="43.0370950" lon="-7.9987080">
        <ele>491.2</ele>
        <time>2021-07-25T09:50:55Z</time>
      </trkpt>
      <trkpt lat="43.0370830" lon="-7.9987750">
        <ele>490.8</ele>
        <time>2021-07-25T09:50:56Z</time>
      </trkpt>
      <trkpt lat="43.0370690" lon="-7.9988470">
        <ele>490.4</ele>
        <time>2021-07-25T09:50:57Z</time>
      </trkpt>
      <trkpt lat="43.0370550" lon="-7.9989180">
        <ele>490.0</ele>
        <time>2021-07-25T09:50:58Z</time>
      </trkpt>
      <trkpt lat="43.0369820" lon="-7.9993280">
        <ele>490.0</ele>
        <time>2021-07-25T09:51:03Z</time>
      </trkpt>
      <trkpt lat="43.0369660" lon="-7.9994180">
        <ele>490.0</ele>
        <time>2021-07-25T09:51:04Z</time>
      </trkpt>
      <trkpt lat="43.0369510" lon="-7.9995140">
        <ele>489.4</ele>
        <time>2021-07-25T09:51:05Z</time>
      </trkpt>
      <trkpt lat="43.0369390" lon="-7.9996030">
        <ele>489.0</ele>
        <time>2021-07-25T09:51:06Z</time>
      </trkpt>
      <trkpt lat="43.0369230" lon="-7.9996940">
        <ele>488.6</ele>
        <time>2021-07-25T09:51:07Z</time>
      </trkpt>
      <trkpt lat="43.0369060" lon="-7.9997830">
        <ele>488.2</ele>
        <time>2021-07-25T09:51:08Z</time>
      </trkpt>
      <trkpt lat="43.0368880" lon="-7.9998750">
        <ele>487.8</ele>
        <time>2021-07-25T09:51:09Z</time>
      </trkpt>
      <trkpt lat="43.0368500" lon="-8.0000490">
        <ele>487.8</ele>
        <time>2021-07-25T09:51:11Z</time>
      </trkpt>
      <trkpt lat="43.0368350" lon="-8.0001350">
        <ele>487.4</ele>
        <time>2021-07-25T09:51:12Z</time>
      </trkpt>
      <trkpt lat="43.0368210" lon="-8.0002130">
        <ele>487.0</ele>
        <time>2021-07-25T09:51:13Z</time>
      </trkpt>
      <trkpt lat="43.0368090" lon="-8.0002950">
        <ele>486.6</ele>
        <time>2021-07-25T09:51:14Z</time>
      </trkpt>
      <trkpt lat="43.0367960" lon="-8.0003780">
        <ele>486.2</ele>
        <time>2021-07-25T09:51:15Z</time>
      </trkpt>
      <trkpt lat="43.0367810" lon="-8.0004620">
        <ele>485.8</ele>
        <time>2021-07-25T09:51:16Z</time>
      </trkpt>
      <trkpt lat="43.0367530" lon="-8.0006370">
        <ele>485.2</ele>
        <time>2021-07-25T09:51:18Z</time>
      </trkpt>
      <trkpt lat="43.0367400" lon="-8.0007330">
        <ele>484.8</ele>
        <time>2021-07-25T09:51:19Z</time>
      </trkpt>
      <trkpt lat="43.0367270" lon="-8.0008340">
        <ele>484.4</ele>
        <time>2021-07-25T09:51:20Z</time>
      </trkpt>
      <trkpt lat="43.0367120" lon="-8.0009330">
        <ele>484.0</ele>
        <time>2021-07-25T09:51:21Z</time>
      </trkpt>
      <trkpt lat="43.0366950" lon="-8.0010350">
        <ele>483.6</ele>
        <time>2021-07-25T09:51:22Z</time>
      </trkpt>
      <trkpt lat="43.0366010" lon="-8.0015590">
        <ele>483.6</ele>
        <time>2021-07-25T09:51:27Z</time>
      </trkpt>
      <trkpt lat="43.0365840" lon="-8.0016630">
        <ele>483.0</ele>
        <time>2021-07-25T09:51:28Z</time>
      </trkpt>
      <trkpt lat="43.0365690" lon="-8.0017670">
        <ele>482.6</ele>
        <time>2021-07-25T09:51:29Z</time>
      </trkpt>
      <trkpt lat="43.0365580" lon="-8.0018720">
        <ele>482.2</ele>
        <time>2021-07-25T09:51:30Z</time>
      </trkpt>
      <trkpt lat="43.0365470" lon="-8.0019780">
        <ele>481.8</ele>
        <time>2021-07-25T09:51:31Z</time>
      </trkpt>
      <trkpt lat="43.0365360" lon="-8.0020850">
        <ele>481.4</ele>
        <time>2021-07-25T09:51:32Z</time>
      </trkpt>
      <trkpt lat="43.0365260" lon="-8.0021940">
        <ele>481.4</ele>
        <time>2021-07-25T09:51:33Z</time>
      </trkpt>
      <trkpt lat="43.0365160" lon="-8.0023050">
        <ele>481.4</ele>
        <time>2021-07-25T09:51:34Z</time>
      </trkpt>
      <trkpt lat="43.0365000" lon="-8.0025330">
        <ele>480.8</ele>
        <time>2021-07-25T09:51:36Z</time>
      </trkpt>
      <trkpt lat="43.0364940" lon="-8.0026470">
        <ele>480.4</ele>
        <time>2021-07-25T09:51:37Z</time>
      </trkpt>
      <trkpt lat="43.0364870" lon="-8.0027630">
        <ele>480.0</ele>
        <time>2021-07-25T09:51:38Z</time>
      </trkpt>
      <trkpt lat="43.0364780" lon="-8.0028800">
        <ele>479.6</ele>
        <time>2021-07-25T09:51:39Z</time>
      </trkpt>
      <trkpt lat="43.0364700" lon="-8.0029990">
        <ele>479.0</ele>
        <time>2021-07-25T09:51:40Z</time>
      </trkpt>
      <trkpt lat="43.0364640" lon="-8.0031190">
        <ele>478.6</ele>
        <time>2021-07-25T09:51:41Z</time>
      </trkpt>
      <trkpt lat="43.0364610" lon="-8.0032430">
        <ele>478.0</ele>
        <time>2021-07-25T09:51:42Z</time>
      </trkpt>
      <trkpt lat="43.0364620" lon="-8.0033590">
        <ele>477.4</ele>
        <time>2021-07-25T09:51:43Z</time>
      </trkpt>
      <trkpt lat="43.0364670" lon="-8.0034720">
        <ele>477.0</ele>
        <time>2021-07-25T09:51:44Z</time>
      </trkpt>
      <trkpt lat="43.0364780" lon="-8.0035820">
        <ele>476.4</ele>
        <time>2021-07-25T09:51:45Z</time>
      </trkpt>
      <trkpt lat="43.0364920" lon="-8.0036940">
        <ele>475.8</ele>
        <time>2021-07-25T09:51:46Z</time>
      </trkpt>
      <trkpt lat="43.0365100" lon="-8.0038040">
        <ele>474.8</ele>
        <time>2021-07-25T09:51:47Z</time>
      </trkpt>
      <trkpt lat="43.0365430" lon="-8.0040260">
        <ele>474.2</ele>
        <time>2021-07-25T09:51:49Z</time>
      </trkpt>
      <trkpt lat="43.0365590" lon="-8.0041370">
        <ele>473.8</ele>
        <time>2021-07-25T09:51:50Z</time>
      </trkpt>
      <trkpt lat="43.0365730" lon="-8.0042400">
        <ele>473.4</ele>
        <time>2021-07-25T09:51:51Z</time>
      </trkpt>
      <trkpt lat="43.0365830" lon="-8.0043430">
        <ele>473.0</ele>
        <time>2021-07-25T09:51:52Z</time>
      </trkpt>
      <trkpt lat="43.0365910" lon="-8.0044390">
        <ele>472.6</ele>
        <time>2021-07-25T09:51:53Z</time>
      </trkpt>
      <trkpt lat="43.0365960" lon="-8.0046170">
        <ele>472.2</ele>
        <time>2021-07-25T09:51:55Z</time>
      </trkpt>
      <trkpt lat="43.0365940" lon="-8.0046990">
        <ele>471.6</ele>
        <time>2021-07-25T09:51:56Z</time>
      </trkpt>
      <trkpt lat="43.0365900" lon="-8.0047720">
        <ele>471.2</ele>
        <time>2021-07-25T09:51:57Z</time>
      </trkpt>
      <trkpt lat="43.0365840" lon="-8.0048410">
        <ele>470.4</ele>
        <time>2021-07-25T09:51:58Z</time>
      </trkpt>
      <trkpt lat="43.0365800" lon="-8.0048990">
        <ele>469.6</ele>
        <time>2021-07-25T09:51:59Z</time>
      </trkpt>
      <trkpt lat="43.0365740" lon="-8.0049490">
        <ele>469.0</ele>
        <time>2021-07-25T09:52:00Z</time>
      </trkpt>
      <trkpt lat="43.0365690" lon="-8.0049920">
        <ele>468.2</ele>
        <time>2021-07-25T09:52:01Z</time>
      </trkpt>
      <trkpt lat="43.0365630" lon="-8.0050360">
        <ele>467.6</ele>
        <time>2021-07-25T09:52:02Z</time>
      </trkpt>
      <trkpt lat="43.0365570" lon="-8.0050800">
        <ele>466.8</ele>
        <time>2021-07-25T09:52:03Z</time>
      </trkpt>
      <trkpt lat="43.0365530" lon="-8.0051290">
        <ele>466.2</ele>
        <time>2021-07-25T09:52:04Z</time>
      </trkpt>
      <trkpt lat="43.0365510" lon="-8.0051770">
        <ele>465.4</ele>
        <time>2021-07-25T09:52:05Z</time>
      </trkpt>
      <trkpt lat="43.0365490" lon="-8.0052200">
        <ele>465.0</ele>
        <time>2021-07-25T09:52:06Z</time>
      </trkpt>
      <trkpt lat="43.0365430" lon="-8.0052670">
        <ele>464.6</ele>
        <time>2021-07-25T09:52:07Z</time>
      </trkpt>
      <trkpt lat="43.0365330" lon="-8.0053120">
        <ele>464.2</ele>
        <time>2021-07-25T09:52:08Z</time>
      </trkpt>
      <trkpt lat="43.0365250" lon="-8.0053530">
        <ele>463.6</ele>
        <time>2021-07-25T09:52:09Z</time>
      </trkpt>
      <trkpt lat="43.0365150" lon="-8.0053920">
        <ele>463.2</ele>
        <time>2021-07-25T09:52:10Z</time>
      </trkpt>
      <trkpt lat="43.0365060" lon="-8.0054340">
        <ele>462.8</ele>
        <time>2021-07-25T09:52:11Z</time>
      </trkpt>
      <trkpt lat="43.0364990" lon="-8.0054780">
        <ele>462.2</ele>
        <time>2021-07-25T09:52:12Z</time>
      </trkpt>
      <trkpt lat="43.0364960" lon="-8.0055220">
        <ele>461.8</ele>
        <time>2021-07-25T09:52:13Z</time>
      </trkpt>
      <trkpt lat="43.0364920" lon="-8.0055680">
        <ele>461.4</ele>
        <time>2021-07-25T09:52:14Z</time>
      </trkpt>
      <trkpt lat="43.0364870" lon="-8.0056200">
        <ele>460.8</ele>
        <time>2021-07-25T09:52:15Z</time>
      </trkpt>
      <trkpt lat="43.0364830" lon="-8.0056760">
        <ele>460.4</ele>
        <time>2021-07-25T09:52:16Z</time>
      </trkpt>
      <trkpt lat="43.0364860" lon="-8.0057330">
        <ele>460.0</ele>
        <time>2021-07-25T09:52:17Z</time>
      </trkpt>
      <trkpt lat="43.0364970" lon="-8.0057920">
        <ele>459.6</ele>
        <time>2021-07-25T09:52:18Z</time>
      </trkpt>
      <trkpt lat="43.0365120" lon="-8.0058440">
        <ele>459.2</ele>
        <time>2021-07-25T09:52:19Z</time>
      </trkpt>
      <trkpt lat="43.0365290" lon="-8.0058890">
        <ele>458.8</ele>
        <time>2021-07-25T09:52:20Z</time>
      </trkpt>
      <trkpt lat="43.0365470" lon="-8.0059370">
        <ele>458.4</ele>
        <time>2021-07-25T09:52:21Z</time>
      </trkpt>
      <trkpt lat="43.0365540" lon="-8.0059860">
        <ele>457.8</ele>
        <time>2021-07-25T09:52:22Z</time>
      </trkpt>
      <trkpt lat="43.0365630" lon="-8.0060340">
        <ele>457.4</ele>
        <time>2021-07-25T09:52:23Z</time>
      </trkpt>
      <trkpt lat="43.0365660" lon="-8.0060850">
        <ele>457.0</ele>
        <time>2021-07-25T09:52:24Z</time>
      </trkpt>
      <trkpt lat="43.0365670" lon="-8.0061340">
        <ele>456.6</ele>
        <time>2021-07-25T09:52:25Z</time>
      </trkpt>
      <trkpt lat="43.0365640" lon="-8.0062810">
        <ele>456.6</ele>
        <time>2021-07-25T09:52:28Z</time>
      </trkpt>
      <trkpt lat="43.0365350" lon="-8.0066040">
        <ele>456.0</ele>
        <time>2021-07-25T09:52:34Z</time>
      </trkpt>
      <trkpt lat="43.0365280" lon="-8.0066670">
        <ele>455.6</ele>
        <time>2021-07-25T09:52:35Z</time>
      </trkpt>
      <trkpt lat="43.0365160" lon="-8.0067370">
        <ele>454.8</ele>
        <time>2021-07-25T09:52:36Z</time>
      </trkpt>
      <trkpt lat="43.0365030" lon="-8.0067980">
        <ele>454.4</ele>
        <time>2021-07-25T09:52:37Z</time>
      </trkpt>
      <trkpt lat="43.0364410" lon="-8.0070560">
        <ele>454.0</ele>
        <time>2021-07-25T09:52:41Z</time>
      </trkpt>
      <trkpt lat="43.0364230" lon="-8.0071210">
        <ele>453.6</ele>
        <time>2021-07-25T09:52:42Z</time>
      </trkpt>
      <trkpt lat="43.0364070" lon="-8.0071740">
        <ele>453.2</ele>
        <time>2021-07-25T09:52:43Z</time>
      </trkpt>
      <trkpt lat="43.0363920" lon="-8.0072260">
        <ele>452.6</ele>
        <time>2021-07-25T09:52:44Z</time>
      </trkpt>
      <trkpt lat="43.0363850" lon="-8.0072770">
        <ele>452.2</ele>
        <time>2021-07-25T09:52:45Z</time>
      </trkpt>
      <trkpt lat="43.0363820" lon="-8.0073270">
        <ele>452.2</ele>
        <time>2021-07-25T09:52:46Z</time>
      </trkpt>
      <trkpt lat="43.0363870" lon="-8.0074370">
        <ele>451.8</ele>
        <time>2021-07-25T09:52:48Z</time>
      </trkpt>
      <trkpt lat="43.0363940" lon="-8.0075070">
        <ele>451.4</ele>
        <time>2021-07-25T09:52:49Z</time>
      </trkpt>
      <trkpt lat="43.0364120" lon="-8.0075760">
        <ele>451.0</ele>
        <time>2021-07-25T09:52:50Z</time>
      </trkpt>
      <trkpt lat="43.0364350" lon="-8.0076490">
        <ele>450.6</ele>
        <time>2021-07-25T09:52:51Z</time>
      </trkpt>
      <trkpt lat="43.0364570" lon="-8.0077150">
        <ele>450.2</ele>
        <time>2021-07-25T09:52:52Z</time>
      </trkpt>
      <trkpt lat="43.0365190" lon="-8.0079640">
        <ele>450.2</ele>
        <time>2021-07-25T09:52:56Z</time>
      </trkpt>
      <trkpt lat="43.0365330" lon="-8.0080070">
        <ele>449.8</ele>
        <time>2021-07-25T09:52:57Z</time>
      </trkpt>
      <trkpt lat="43.0365510" lon="-8.0080380">
        <ele>449.2</ele>
        <time>2021-07-25T09:52:58Z</time>
      </trkpt>
      <trkpt lat="43.0365710" lon="-8.0080660">
        <ele>448.8</ele>
        <time>2021-07-25T09:52:59Z</time>
      </trkpt>
      <trkpt lat="43.0365910" lon="-8.0080990">
        <ele>448.4</ele>
        <time>2021-07-25T09:53:00Z</time>
      </trkpt>
      <trkpt lat="43.0366100" lon="-8.0081430">
        <ele>448.0</ele>
        <time>2021-07-25T09:53:01Z</time>
      </trkpt>
      <trkpt lat="43.0366360" lon="-8.0082420">
        <ele>447.6</ele>
        <time>2021-07-25T09:53:03Z</time>
      </trkpt>
      <trkpt lat="43.0366410" lon="-8.0082950">
        <ele>447.2</ele>
        <time>2021-07-25T09:53:04Z</time>
      </trkpt>
      <trkpt lat="43.0366440" lon="-8.0083470">
        <ele>446.8</ele>
        <time>2021-07-25T09:53:05Z</time>
      </trkpt>
      <trkpt lat="43.0366460" lon="-8.0084020">
        <ele>446.2</ele>
        <time>2021-07-25T09:53:06Z</time>
      </trkpt>
      <trkpt lat="43.0366500" lon="-8.0084620">
        <ele>445.8</ele>
        <time>2021-07-25T09:53:07Z</time>
      </trkpt>
      <trkpt lat="43.0366620" lon="-8.0086320">
        <ele>445.8</ele>
        <time>2021-07-25T09:53:10Z</time>
      </trkpt>
      <trkpt lat="43.0366720" lon="-8.0086900">
        <ele>445.8</ele>
        <time>2021-07-25T09:53:11Z</time>
      </trkpt>
      <trkpt lat="43.0367090" lon="-8.0089200">
        <ele>445.8</ele>
        <time>2021-07-25T09:53:15Z</time>
      </trkpt>
      <trkpt lat="43.0367130" lon="-8.0089780">
        <ele>445.8</ele>
        <time>2021-07-25T09:53:16Z</time>
      </trkpt>
      <trkpt lat="43.0367140" lon="-8.0090370">
        <ele>445.8</ele>
        <time>2021-07-25T09:53:17Z</time>
      </trkpt>
      <trkpt lat="43.0367080" lon="-8.0091370">
        <ele>445.4</ele>
        <time>2021-07-25T09:53:19Z</time>
      </trkpt>
      <trkpt lat="43.0367070" lon="-8.0091780">
        <ele>445.0</ele>
        <time>2021-07-25T09:53:20Z</time>
      </trkpt>
      <trkpt lat="43.0367070" lon="-8.0092120">
        <ele>444.6</ele>
        <time>2021-07-25T09:53:21Z</time>
      </trkpt>
      <trkpt lat="43.0367040" lon="-8.0092540">
        <ele>443.8</ele>
        <time>2021-07-25T09:53:23Z</time>
      </trkpt>
      <trkpt lat="43.0366780" lon="-8.0093580">
        <ele>443.8</ele>
        <time>2021-07-25T09:53:26Z</time>
      </trkpt>
      <trkpt lat="43.0366630" lon="-8.0094550">
        <ele>443.8</ele>
        <time>2021-07-25T09:53:29Z</time>
      </trkpt>
      <trkpt lat="43.0366580" lon="-8.0095630">
        <ele>443.8</ele>
        <time>2021-07-25T09:53:32Z</time>
      </trkpt>
      <trkpt lat="43.0366870" lon="-8.0095970">
        <ele>443.8</ele>
        <time>2021-07-25T09:53:35Z</time>
      </trkpt>
      <trkpt lat="43.0366950" lon="-8.0096050">
        <ele>443.8</ele>
        <time>2021-07-25T09:53:36Z</time>
      </trkpt>
      <trkpt lat="43.0366960" lon="-8.0096130">
        <ele>443.8</ele>
        <time>2021-07-25T09:53:37Z</time>
      </trkpt>
      <trkpt lat="43.0366440" lon="-8.0099120">
        <ele>441.8</ele>
        <time>2021-07-25T10:03:21Z</time>
      </trkpt>
      <trkpt lat="43.0366460" lon="-8.0099520">
        <ele>441.8</ele>
        <time>2021-07-25T10:03:23Z</time>
      </trkpt>
      <trkpt lat="43.0366720" lon="-8.0100310">
        <ele>441.8</ele>
        <time>2021-07-25T10:03:26Z</time>
      </trkpt>
      <trkpt lat="43.0366890" lon="-8.0100690">
        <ele>441.8</ele>
        <time>2021-07-25T10:03:27Z</time>
      </trkpt>
      <trkpt lat="43.0367300" lon="-8.0101440">
        <ele>441.8</ele>
        <time>2021-07-25T10:03:29Z</time>
      </trkpt>
      <trkpt lat="43.0368650" lon="-8.0103150">
        <ele>441.8</ele>
        <time>2021-07-25T10:03:35Z</time>
      </trkpt>
      <trkpt lat="43.0370130" lon="-8.0104880">
        <ele>441.8</ele>
        <time>2021-07-25T10:03:40Z</time>
      </trkpt>
      <trkpt lat="43.0370420" lon="-8.0105200">
        <ele>441.8</ele>
        <time>2021-07-25T10:03:41Z</time>
      </trkpt>
      <trkpt lat="43.0370990" lon="-8.0105850">
        <ele>441.8</ele>
        <time>2021-07-25T10:03:43Z</time>
      </trkpt>
      <trkpt lat="43.0372880" lon="-8.0107800">
        <ele>441.8</ele>
        <time>2021-07-25T10:03:49Z</time>
      </trkpt>
      <trkpt lat="43.0373960" lon="-8.0108960">
        <ele>441.8</ele>
        <time>2021-07-25T10:03:53Z</time>
      </trkpt>
      <trkpt lat="43.0374850" lon="-8.0110070">
        <ele>441.8</ele>
        <time>2021-07-25T10:03:56Z</time>
      </trkpt>
      <trkpt lat="43.0376240" lon="-8.0112370">
        <ele>441.8</ele>
        <time>2021-07-25T10:04:01Z</time>
      </trkpt>
      <trkpt lat="43.0376680" lon="-8.0113280">
        <ele>441.8</ele>
        <time>2021-07-25T10:04:03Z</time>
      </trkpt>
      <trkpt lat="43.0377000" lon="-8.0114090">
        <ele>441.8</ele>
        <time>2021-07-25T10:04:05Z</time>
      </trkpt>
      <trkpt lat="43.0377230" lon="-8.0114960">
        <ele>441.8</ele>
        <time>2021-07-25T10:04:07Z</time>
      </trkpt>
      <trkpt lat="43.0377510" lon="-8.0116300">
        <ele>441.8</ele>
        <time>2021-07-25T10:04:10Z</time>
      </trkpt>
      <trkpt lat="43.0377680" lon="-8.0117920">
        <ele>441.8</ele>
        <time>2021-07-25T10:04:13Z</time>
      </trkpt>
      <trkpt lat="43.0377770" lon="-8.0119520">
        <ele>441.8</ele>
        <time>2021-07-25T10:04:16Z</time>
      </trkpt>
      <trkpt lat="43.0377780" lon="-8.0121080">
        <ele>441.8</ele>
        <time>2021-07-25T10:04:19Z</time>
      </trkpt>
      <trkpt lat="43.0377950" lon="-8.0122060">
        <ele>441.8</ele>
        <time>2021-07-25T10:04:21Z</time>
      </trkpt>
      <trkpt lat="43.0378180" lon="-8.0123160">
        <ele>441.8</ele>
        <time>2021-07-25T10:04:23Z</time>
      </trkpt>
      <trkpt lat="43.0378490" lon="-8.0124880">
        <ele>441.8</ele>
        <time>2021-07-25T10:04:26Z</time>
      </trkpt>
      <trkpt lat="43.0378820" lon="-8.0126780">
        <ele>441.8</ele>
        <time>2021-07-25T10:04:30Z</time>
      </trkpt>
      <trkpt lat="43.0379240" lon="-8.0128390">
        <ele>441.8</ele>
        <time>2021-07-25T10:04:33Z</time>
      </trkpt>
      <trkpt lat="43.0379520" lon="-8.0129580">
        <ele>442.2</ele>
        <time>2021-07-25T10:04:35Z</time>
      </trkpt>
      <trkpt lat="43.0379670" lon="-8.0130190">
        <ele>442.6</ele>
        <time>2021-07-25T10:04:36Z</time>
      </trkpt>
      <trkpt lat="43.0379820" lon="-8.0130760">
        <ele>443.0</ele>
        <time>2021-07-25T10:04:37Z</time>
      </trkpt>
      <trkpt lat="43.0379970" lon="-8.0131410">
        <ele>443.6</ele>
        <time>2021-07-25T10:04:38Z</time>
      </trkpt>
      <trkpt lat="43.0380160" lon="-8.0132020">
        <ele>444.0</ele>
        <time>2021-07-25T10:04:39Z</time>
      </trkpt>
      <trkpt lat="43.0380420" lon="-8.0133160">
        <ele>444.0</ele>
        <time>2021-07-25T10:04:41Z</time>
      </trkpt>
      <trkpt lat="43.0380540" lon="-8.0133740">
        <ele>444.0</ele>
        <time>2021-07-25T10:04:42Z</time>
      </trkpt>
      <trkpt lat="43.0381750" lon="-8.0138250">
        <ele>444.0</ele>
        <time>2021-07-25T10:04:50Z</time>
      </trkpt>
      <trkpt lat="43.0382730" lon="-8.0141900">
        <ele>444.0</ele>
        <time>2021-07-25T10:04:57Z</time>
      </trkpt>
      <trkpt lat="43.0383150" lon="-8.0143430">
        <ele>444.0</ele>
        <time>2021-07-25T10:05:00Z</time>
      </trkpt>
      <trkpt lat="43.0383750" lon="-8.0145460">
        <ele>444.0</ele>
        <time>2021-07-25T10:05:04Z</time>
      </trkpt>
      <trkpt lat="43.0384360" lon="-8.0148200">
        <ele>444.0</ele>
        <time>2021-07-25T10:05:09Z</time>
      </trkpt>
      <trkpt lat="43.0384660" lon="-8.0149500">
        <ele>444.0</ele>
        <time>2021-07-25T10:05:12Z</time>
      </trkpt>
      <trkpt lat="43.0384600" lon="-8.0150840">
        <ele>444.0</ele>
        <time>2021-07-25T10:05:15Z</time>
      </trkpt>
      <trkpt lat="43.0384520" lon="-8.0151810">
        <ele>444.0</ele>
        <time>2021-07-25T10:05:17Z</time>
      </trkpt>
      <trkpt lat="43.0384410" lon="-8.0155150">
        <ele>444.0</ele>
        <time>2021-07-25T10:05:23Z</time>
      </trkpt>
      <trkpt lat="43.0384490" lon="-8.0155750">
        <ele>444.0</ele>
        <time>2021-07-25T10:05:24Z</time>
      </trkpt>
      <trkpt lat="43.0384710" lon="-8.0157950">
        <ele>444.0</ele>
        <time>2021-07-25T10:05:28Z</time>
      </trkpt>
      <trkpt lat="43.0385020" lon="-8.0160510">
        <ele>444.0</ele>
        <time>2021-07-25T10:05:33Z</time>
      </trkpt>
      <trkpt lat="43.0385030" lon="-8.0160970">
        <ele>444.4</ele>
        <time>2021-07-25T10:05:34Z</time>
      </trkpt>
      <trkpt lat="43.0385040" lon="-8.0161400">
        <ele>444.8</ele>
        <time>2021-07-25T10:05:35Z</time>
      </trkpt>
      <trkpt lat="43.0385090" lon="-8.0161830">
        <ele>445.2</ele>
        <time>2021-07-25T10:05:36Z</time>
      </trkpt>
      <trkpt lat="43.0385200" lon="-8.0162250">
        <ele>445.6</ele>
        <time>2021-07-25T10:05:37Z</time>
      </trkpt>
      <trkpt lat="43.0385270" lon="-8.0162690">
        <ele>446.0</ele>
        <time>2021-07-25T10:05:38Z</time>
      </trkpt>
      <trkpt lat="43.0385310" lon="-8.0163130">
        <ele>446.0</ele>
        <time>2021-07-25T10:05:39Z</time>
      </trkpt>
      <trkpt lat="43.0385480" lon="-8.0166020">
        <ele>446.0</ele>
        <time>2021-07-25T10:05:44Z</time>
      </trkpt>
      <trkpt lat="43.0386030" lon="-8.0168770">
        <ele>446.0</ele>
        <time>2021-07-25T10:05:48Z</time>
      </trkpt>
      <trkpt lat="43.0386200" lon="-8.0169510">
        <ele>446.0</ele>
        <time>2021-07-25T10:05:49Z</time>
      </trkpt>
      <trkpt lat="43.0386640" lon="-8.0170950">
        <ele>446.0</ele>
        <time>2021-07-25T10:05:51Z</time>
      </trkpt>
      <trkpt lat="43.0387270" lon="-8.0172400">
        <ele>446.0</ele>
        <time>2021-07-25T10:05:53Z</time>
      </trkpt>
      <trkpt lat="43.0387930" lon="-8.0173830">
        <ele>446.0</ele>
        <time>2021-07-25T10:05:55Z</time>
      </trkpt>
      <trkpt lat="43.0388460" lon="-8.0175330">
        <ele>446.0</ele>
        <time>2021-07-25T10:05:57Z</time>
      </trkpt>
      <trkpt lat="43.0388710" lon="-8.0176080">
        <ele>445.6</ele>
        <time>2021-07-25T10:05:58Z</time>
      </trkpt>
      <trkpt lat="43.0388930" lon="-8.0176800">
        <ele>445.2</ele>
        <time>2021-07-25T10:05:59Z</time>
      </trkpt>
      <trkpt lat="43.0389080" lon="-8.0177500">
        <ele>444.8</ele>
        <time>2021-07-25T10:06:00Z</time>
      </trkpt>
      <trkpt lat="43.0389170" lon="-8.0178230">
        <ele>444.4</ele>
        <time>2021-07-25T10:06:01Z</time>
      </trkpt>
      <trkpt lat="43.0389140" lon="-8.0178940">
        <ele>443.8</ele>
        <time>2021-07-25T10:06:02Z</time>
      </trkpt>
      <trkpt lat="43.0388860" lon="-8.0180280">
        <ele>443.8</ele>
        <time>2021-07-25T10:06:04Z</time>
      </trkpt>
      <trkpt lat="43.0388690" lon="-8.0180930">
        <ele>443.8</ele>
        <time>2021-07-25T10:06:05Z</time>
      </trkpt>
      <trkpt lat="43.0388390" lon="-8.0182200">
        <ele>443.8</ele>
        <time>2021-07-25T10:06:07Z</time>
      </trkpt>
      <trkpt lat="43.0388340" lon="-8.0182840">
        <ele>443.8</ele>
        <time>2021-07-25T10:06:08Z</time>
      </trkpt>
      <trkpt lat="43.0388350" lon="-8.0184050">
        <ele>443.8</ele>
        <time>2021-07-25T10:06:10Z</time>
      </trkpt>
      <trkpt lat="43.0388400" lon="-8.0184620">
        <ele>443.8</ele>
        <time>2021-07-25T10:06:11Z</time>
      </trkpt>
      <trkpt lat="43.0388550" lon="-8.0186360">
        <ele>443.8</ele>
        <time>2021-07-25T10:06:14Z</time>
      </trkpt>
      <trkpt lat="43.0388850" lon="-8.0188480">
        <ele>443.8</ele>
        <time>2021-07-25T10:06:18Z</time>
      </trkpt>
      <trkpt lat="43.0388920" lon="-8.0189370">
        <ele>443.8</ele>
        <time>2021-07-25T10:06:20Z</time>
      </trkpt>
      <trkpt lat="43.0389240" lon="-8.0192380">
        <ele>443.8</ele>
        <time>2021-07-25T10:06:26Z</time>
      </trkpt>
      <trkpt lat="43.0389220" lon="-8.0195250">
        <ele>443.8</ele>
        <time>2021-07-25T10:06:32Z</time>
      </trkpt>
      <trkpt lat="43.0389180" lon="-8.0195710">
        <ele>443.8</ele>
        <time>2021-07-25T10:06:33Z</time>
      </trkpt>
      <trkpt lat="43.0389170" lon="-8.0196700">
        <ele>443.8</ele>
        <time>2021-07-25T10:06:35Z</time>
      </trkpt>
      <trkpt lat="43.0389170" lon="-8.0197710">
        <ele>443.8</ele>
        <time>2021-07-25T10:06:37Z</time>
      </trkpt>
      <trkpt lat="43.0389200" lon="-8.0198800">
        <ele>443.8</ele>
        <time>2021-07-25T10:06:39Z</time>
      </trkpt>
      <trkpt lat="43.0389270" lon="-8.0199320">
        <ele>443.8</ele>
        <time>2021-07-25T10:06:40Z</time>
      </trkpt>
      <trkpt lat="43.0389630" lon="-8.0200760">
        <ele>443.8</ele>
        <time>2021-07-25T10:06:43Z</time>
      </trkpt>
      <trkpt lat="43.0390010" lon="-8.0202110">
        <ele>443.8</ele>
        <time>2021-07-25T10:06:46Z</time>
      </trkpt>
      <trkpt lat="43.0390140" lon="-8.0202530">
        <ele>443.8</ele>
        <time>2021-07-25T10:06:47Z</time>
      </trkpt>
      <trkpt lat="43.0390350" lon="-8.0203410">
        <ele>443.8</ele>
        <time>2021-07-25T10:06:49Z</time>
      </trkpt>
      <trkpt lat="43.0390620" lon="-8.0204610">
        <ele>443.8</ele>
        <time>2021-07-25T10:06:52Z</time>
      </trkpt>
      <trkpt lat="43.0390820" lon="-8.0205370">
        <ele>443.8</ele>
        <time>2021-07-25T10:06:54Z</time>
      </trkpt>
      <trkpt lat="43.0391050" lon="-8.0206070">
        <ele>443.8</ele>
        <time>2021-07-25T10:06:56Z</time>
      </trkpt>
      <trkpt lat="43.0391160" lon="-8.0206400">
        <ele>444.8</ele>
        <time>2021-07-25T10:06:57Z</time>
      </trkpt>
      <trkpt lat="43.0391280" lon="-8.0206700">
        <ele>445.2</ele>
        <time>2021-07-25T10:06:58Z</time>
      </trkpt>
      <trkpt lat="43.0391390" lon="-8.0207000">
        <ele>445.6</ele>
        <time>2021-07-25T10:06:59Z</time>
      </trkpt>
      <trkpt lat="43.0391520" lon="-8.0207300">
        <ele>446.0</ele>
        <time>2021-07-25T10:07:00Z</time>
      </trkpt>
      <trkpt lat="43.0392040" lon="-8.0208530">
        <ele>446.0</ele>
        <time>2021-07-25T10:07:04Z</time>
      </trkpt>
      <trkpt lat="43.0392900" lon="-8.0210870">
        <ele>446.0</ele>
        <time>2021-07-25T10:07:11Z</time>
      </trkpt>
      <trkpt lat="43.0393670" lon="-8.0212550">
        <ele>446.0</ele>
        <time>2021-07-25T10:07:18Z</time>
      </trkpt>
      <trkpt lat="43.0394780" lon="-8.0213870">
        <ele>446.4</ele>
        <time>2021-07-25T10:07:23Z</time>
      </trkpt>
      <trkpt lat="43.0394990" lon="-8.0214150">
        <ele>446.8</ele>
        <time>2021-07-25T10:07:24Z</time>
      </trkpt>
      <trkpt lat="43.0395190" lon="-8.0214390">
        <ele>447.2</ele>
        <time>2021-07-25T10:07:25Z</time>
      </trkpt>
      <trkpt lat="43.0395410" lon="-8.0214620">
        <ele>447.6</ele>
        <time>2021-07-25T10:07:26Z</time>
      </trkpt>
      <trkpt lat="43.0395640" lon="-8.0214820">
        <ele>448.0</ele>
        <time>2021-07-25T10:07:27Z</time>
      </trkpt>
      <trkpt lat="43.0396470" lon="-8.0216120">
        <ele>448.0</ele>
        <time>2021-07-25T10:07:32Z</time>
      </trkpt>
      <trkpt lat="43.0396770" lon="-8.0216720">
        <ele>448.0</ele>
        <time>2021-07-25T10:07:34Z</time>
      </trkpt>
      <trkpt lat="43.0396920" lon="-8.0216960">
        <ele>448.0</ele>
        <time>2021-07-25T10:07:35Z</time>
      </trkpt>
      <trkpt lat="43.0397400" lon="-8.0217640">
        <ele>448.0</ele>
        <time>2021-07-25T10:07:38Z</time>
      </trkpt>
      <trkpt lat="43.0397530" lon="-8.0217980">
        <ele>448.0</ele>
        <time>2021-07-25T10:07:39Z</time>
      </trkpt>
      <trkpt lat="43.0397830" lon="-8.0218640">
        <ele>448.0</ele>
        <time>2021-07-25T10:07:41Z</time>
      </trkpt>
      <trkpt lat="43.0398270" lon="-8.0219100">
        <ele>448.0</ele>
        <time>2021-07-25T10:07:43Z</time>
      </trkpt>
      <trkpt lat="43.0398800" lon="-8.0219500">
        <ele>447.6</ele>
        <time>2021-07-25T10:07:45Z</time>
      </trkpt>
      <trkpt lat="43.0399120" lon="-8.0219680">
        <ele>446.4</ele>
        <time>2021-07-25T10:07:46Z</time>
      </trkpt>
      <trkpt lat="43.0399420" lon="-8.0219890">
        <ele>446.0</ele>
        <time>2021-07-25T10:07:47Z</time>
      </trkpt>
      <trkpt lat="43.0399720" lon="-8.0220060">
        <ele>445.4</ele>
        <time>2021-07-25T10:07:48Z</time>
      </trkpt>
      <trkpt lat="43.0399970" lon="-8.0220270">
        <ele>444.8</ele>
        <time>2021-07-25T10:07:49Z</time>
      </trkpt>
      <trkpt lat="43.0400240" lon="-8.0220420">
        <ele>444.2</ele>
        <time>2021-07-25T10:07:50Z</time>
      </trkpt>
      <trkpt lat="43.0400520" lon="-8.0220620">
        <ele>443.6</ele>
        <time>2021-07-25T10:07:51Z</time>
      </trkpt>
      <trkpt lat="43.0400730" lon="-8.0220920">
        <ele>443.0</ele>
        <time>2021-07-25T10:07:52Z</time>
      </trkpt>
      <trkpt lat="43.0400930" lon="-8.0221190">
        <ele>442.6</ele>
        <time>2021-07-25T10:07:53Z</time>
      </trkpt>
      <trkpt lat="43.0401220" lon="-8.0221510">
        <ele>442.0</ele>
        <time>2021-07-25T10:07:54Z</time>
      </trkpt>
      <trkpt lat="43.0401560" lon="-8.0221720">
        <ele>441.4</ele>
        <time>2021-07-25T10:07:55Z</time>
      </trkpt>
      <trkpt lat="43.0401940" lon="-8.0221850">
        <ele>441.0</ele>
        <time>2021-07-25T10:07:56Z</time>
      </trkpt>
      <trkpt lat="43.0402230" lon="-8.0221920">
        <ele>441.0</ele>
        <time>2021-07-25T10:07:57Z</time>
      </trkpt>
      <trkpt lat="43.0402560" lon="-8.0221950">
        <ele>440.4</ele>
        <time>2021-07-25T10:07:58Z</time>
      </trkpt>
      <trkpt lat="43.0402820" lon="-8.0221990">
        <ele>440.0</ele>
        <time>2021-07-25T10:07:59Z</time>
      </trkpt>
      <trkpt lat="43.0403060" lon="-8.0221990">
        <ele>439.6</ele>
        <time>2021-07-25T10:08:00Z</time>
      </trkpt>
      <trkpt lat="43.0403330" lon="-8.0222010">
        <ele>439.2</ele>
        <time>2021-07-25T10:08:01Z</time>
      </trkpt>
      <trkpt lat="43.0403430" lon="-8.0222070">
        <ele>438.6</ele>
        <time>2021-07-25T10:08:02Z</time>
      </trkpt>
      <trkpt lat="43.0403460" lon="-8.0222080">
        <ele>438.6</ele>
        <time>2021-07-25T10:08:03Z</time>
      </trkpt>
      <trkpt lat="43.0403470" lon="-8.0222050">
        <ele>438.6</ele>
        <time>2021-07-25T10:08:04Z</time>
      </trkpt>
      <trkpt lat="43.0403250" lon="-8.0221940">
        <ele>438.6</ele>
        <time>2021-07-25T10:08:09Z</time>
      </trkpt>
      <trkpt lat="43.0402960" lon="-8.0221770">
        <ele>438.6</ele>
        <time>2021-07-25T10:08:11Z</time>
      </trkpt>
      <trkpt lat="43.0402420" lon="-8.0221720">
        <ele>438.6</ele>
        <time>2021-07-25T10:08:14Z</time>
      </trkpt>
      <trkpt lat="43.0401580" lon="-8.0221630">
        <ele>438.6</ele>
        <time>2021-07-25T10:08:18Z</time>
      </trkpt>
      <trkpt lat="43.0401370" lon="-8.0221370">
        <ele>438.6</ele>
        <time>2021-07-25T10:08:20Z</time>
      </trkpt>
      <trkpt lat="43.0401360" lon="-8.0221350">
        <ele>438.6</ele>
        <time>2021-07-25T10:08:22Z</time>
      </trkpt>
      <trkpt lat="43.0401860" lon="-8.0221630">
        <ele>438.6</ele>
        <time>2021-07-25T10:08:33Z</time>
      </trkpt>
      <trkpt lat="43.0402270" lon="-8.0221720">
        <ele>438.6</ele>
        <time>2021-07-25T10:08:35Z</time>
      </trkpt>
      <trkpt lat="43.0404080" lon="-8.0222080">
        <ele>438.6</ele>
        <time>2021-07-25T10:08:44Z</time>
      </trkpt>
      <trkpt lat="43.0405930" lon="-8.0222550">
        <ele>438.6</ele>
        <time>2021-07-25T10:08:52Z</time>
      </trkpt>
      <trkpt lat="43.0406390" lon="-8.0222550">
        <ele>438.6</ele>
        <time>2021-07-25T10:08:55Z</time>
      </trkpt>
      <trkpt lat="43.0406450" lon="-8.0222550">
        <ele>438.6</ele>
        <time>2021-07-25T10:08:56Z</time>
      </trkpt>
      <trkpt lat="43.0406480" lon="-8.0222720">
        <ele>438.6</ele>
        <time>2021-07-25T10:09:22Z</time>
      </trkpt>
      <trkpt lat="43.0405990" lon="-8.0223460">
        <ele>438.6</ele>
        <time>2021-07-25T10:09:26Z</time>
      </trkpt>
      <trkpt lat="43.0405310" lon="-8.0224940">
        <ele>438.6</ele>
        <time>2021-07-25T10:09:31Z</time>
      </trkpt>
      <trkpt lat="43.0404940" lon="-8.0225940">
        <ele>438.2</ele>
        <time>2021-07-25T10:09:35Z</time>
      </trkpt>
      <trkpt lat="43.0404760" lon="-8.0226080">
        <ele>437.8</ele>
        <time>2021-07-25T10:09:36Z</time>
      </trkpt>
      <trkpt lat="43.0404630" lon="-8.0226100">
        <ele>437.4</ele>
        <time>2021-07-25T10:09:37Z</time>
      </trkpt>
      <trkpt lat="43.0404500" lon="-8.0226050">
        <ele>437.0</ele>
        <time>2021-07-25T10:09:38Z</time>
      </trkpt>
      <trkpt lat="43.0404330" lon="-8.0226020">
        <ele>436.6</ele>
        <time>2021-07-25T10:09:39Z</time>
      </trkpt>
      <trkpt lat="43.0403980" lon="-8.0226070">
        <ele>436.6</ele>
        <time>2021-07-25T10:09:41Z</time>
      </trkpt>
      <trkpt lat="43.0403880" lon="-8.0226120">
        <ele>436.6</ele>
        <time>2021-07-25T10:09:42Z</time>
      </trkpt>
      <trkpt lat="43.0403850" lon="-8.0226140">
        <ele>436.6</ele>
        <time>2021-07-25T10:09:43Z</time>
      </trkpt>
      <trkpt lat="43.0403700" lon="-8.0226180">
        <ele>436.6</ele>
        <time>2021-07-25T10:09:45Z</time>
      </trkpt>
      <trkpt lat="43.0403350" lon="-8.0226240">
        <ele>436.6</ele>
        <time>2021-07-25T10:09:47Z</time>
      </trkpt>
      <trkpt lat="43.0402840" lon="-8.0225990">
        <ele>436.6</ele>
        <time>2021-07-25T10:09:50Z</time>
      </trkpt>
      <trkpt lat="43.0402510" lon="-8.0225850">
        <ele>436.6</ele>
        <time>2021-07-25T10:09:52Z</time>
      </trkpt>
      <trkpt lat="43.0402320" lon="-8.0225790">
        <ele>436.6</ele>
        <time>2021-07-25T10:09:53Z</time>
      </trkpt>
      <trkpt lat="43.0401390" lon="-8.0225600">
        <ele>436.6</ele>
        <time>2021-07-25T10:09:57Z</time>
      </trkpt>
      <trkpt lat="43.0401190" lon="-8.0225670">
        <ele>436.6</ele>
        <time>2021-07-25T10:09:58Z</time>
      </trkpt>
      <trkpt lat="43.0398710" lon="-8.0227040">
        <ele>436.6</ele>
        <time>2021-07-25T10:10:09Z</time>
      </trkpt>
      <trkpt lat="43.0397470" lon="-8.0227600">
        <ele>436.6</ele>
        <time>2021-07-25T10:10:13Z</time>
      </trkpt>
      <trkpt lat="43.0396900" lon="-8.0228000">
        <ele>436.6</ele>
        <time>2021-07-25T10:10:15Z</time>
      </trkpt>
      <trkpt lat="43.0395000" lon="-8.0229990">
        <ele>436.6</ele>
        <time>2021-07-25T10:10:22Z</time>
      </trkpt>
      <trkpt lat="43.0393240" lon="-8.0232740">
        <ele>436.6</ele>
        <time>2021-07-25T10:10:30Z</time>
      </trkpt>
      <trkpt lat="43.0392240" lon="-8.0233630">
        <ele>436.6</ele>
        <time>2021-07-25T10:10:34Z</time>
      </trkpt>
      <trkpt lat="43.0391420" lon="-8.0234070">
        <ele>436.6</ele>
        <time>2021-07-25T10:10:38Z</time>
      </trkpt>
      <trkpt lat="43.0391120" lon="-8.0234000">
        <ele>436.6</ele>
        <time>2021-07-25T10:10:40Z</time>
      </trkpt>
      <trkpt lat="43.0390710" lon="-8.0234110">
        <ele>436.6</ele>
        <time>2021-07-25T10:10:43Z</time>
      </trkpt>
      <trkpt lat="43.0390610" lon="-8.0234020">
        <ele>436.6</ele>
        <time>2021-07-25T10:10:44Z</time>
      </trkpt>
      <trkpt lat="43.0390450" lon="-8.0233780">
        <ele>436.6</ele>
        <time>2021-07-25T10:10:47Z</time>
      </trkpt>
      <trkpt lat="43.0390420" lon="-8.0233740">
        <ele>436.6</ele>
        <time>2021-07-25T10:10:48Z</time>
      </trkpt>
      <trkpt lat="43.0390000" lon="-8.0233690">
        <ele>436.6</ele>
        <time>2021-07-25T10:11:48Z</time>
      </trkpt>
      <trkpt lat="43.0389950" lon="-8.0233520">
        <ele>436.6</ele>
        <time>2021-07-25T10:11:49Z</time>
      </trkpt>
      <trkpt lat="43.0389980" lon="-8.0233380">
        <ele>436.6</ele>
        <time>2021-07-25T10:11:50Z</time>
      </trkpt>
      <trkpt lat="43.0390160" lon="-8.0233460">
        <ele>436.6</ele>
        <time>2021-07-25T10:11:53Z</time>
      </trkpt>
      <trkpt lat="43.0390190" lon="-8.0233490">
        <ele>436.6</ele>
        <time>2021-07-25T10:11:54Z</time>
      </trkpt>
      <trkpt lat="43.0390230" lon="-8.0233490">
        <ele>436.6</ele>
        <time>2021-07-25T10:11:55Z</time>
      </trkpt>
      <trkpt lat="43.0389810" lon="-8.0232150">
        <ele>436.6</ele>
        <time>2021-07-25T10:15:04Z</time>
      </trkpt>
      <trkpt lat="43.0389760" lon="-8.0232110">
        <ele>436.6</ele>
        <time>2021-07-25T10:15:05Z</time>
      </trkpt>
      <trkpt lat="43.0389710" lon="-8.0232070">
        <ele>436.6</ele>
        <time>2021-07-25T10:15:06Z</time>
      </trkpt>
      <trkpt lat="43.0389530" lon="-8.0232030">
        <ele>436.6</ele>
        <time>2021-07-25T10:15:10Z</time>
      </trkpt>
      <trkpt lat="43.0389920" lon="-8.0230800">
        <ele>434.4</ele>
        <time>2021-07-25T10:19:29Z</time>
      </trkpt>
      <trkpt lat="43.0390290" lon="-8.0230530">
        <ele>434.4</ele>
        <time>2021-07-25T10:19:31Z</time>
      </trkpt>
      <trkpt lat="43.0391430" lon="-8.0229800">
        <ele>434.4</ele>
        <time>2021-07-25T10:19:36Z</time>
      </trkpt>
      <trkpt lat="43.0392910" lon="-8.0229110">
        <ele>434.4</ele>
        <time>2021-07-25T10:19:42Z</time>
      </trkpt>
      <trkpt lat="43.0394750" lon="-8.0228540">
        <ele>434.4</ele>
        <time>2021-07-25T10:19:49Z</time>
      </trkpt>
      <trkpt lat="43.0396200" lon="-8.0228060">
        <ele>434.4</ele>
        <time>2021-07-25T10:19:54Z</time>
      </trkpt>
      <trkpt lat="43.0396720" lon="-8.0227900">
        <ele>434.4</ele>
        <time>2021-07-25T10:19:56Z</time>
      </trkpt>
      <trkpt lat="43.0398530" lon="-8.0226950">
        <ele>434.4</ele>
        <time>2021-07-25T10:20:03Z</time>
      </trkpt>
      <trkpt lat="43.0400100" lon="-8.0226400">
        <ele>434.4</ele>
        <time>2021-07-25T10:20:10Z</time>
      </trkpt>
      <trkpt lat="43.0401180" lon="-8.0225960">
        <ele>434.4</ele>
        <time>2021-07-25T10:20:15Z</time>
      </trkpt>
      <trkpt lat="43.0401700" lon="-8.0225830">
        <ele>434.4</ele>
        <time>2021-07-25T10:20:17Z</time>
      </trkpt>
      <trkpt lat="43.0401940" lon="-8.0225940">
        <ele>434.4</ele>
        <time>2021-07-25T10:20:18Z</time>
      </trkpt>
      <trkpt lat="43.0402630" lon="-8.0226290">
        <ele>434.4</ele>
        <time>2021-07-25T10:20:21Z</time>
      </trkpt>
      <trkpt lat="43.0402880" lon="-8.0226410">
        <ele>434.4</ele>
        <time>2021-07-25T10:20:22Z</time>
      </trkpt>
      <trkpt lat="43.0404490" lon="-8.0227010">
        <ele>434.4</ele>
        <time>2021-07-25T10:20:29Z</time>
      </trkpt>
      <trkpt lat="43.0405290" lon="-8.0226010">
        <ele>434.4</ele>
        <time>2021-07-25T10:20:34Z</time>
      </trkpt>
      <trkpt lat="43.0405560" lon="-8.0225200">
        <ele>434.4</ele>
        <time>2021-07-25T10:20:37Z</time>
      </trkpt>
      <trkpt lat="43.0405720" lon="-8.0224700">
        <ele>434.4</ele>
        <time>2021-07-25T10:20:39Z</time>
      </trkpt>
      <trkpt lat="43.0405820" lon="-8.0224430">
        <ele>434.4</ele>
        <time>2021-07-25T10:20:40Z</time>
      </trkpt>
      <trkpt lat="43.0406050" lon="-8.0223940">
        <ele>434.4</ele>
        <time>2021-07-25T10:20:42Z</time>
      </trkpt>
      <trkpt lat="43.0406430" lon="-8.0222980">
        <ele>434.8</ele>
        <time>2021-07-25T10:20:46Z</time>
      </trkpt>
      <trkpt lat="43.0406540" lon="-8.0222730">
        <ele>435.4</ele>
        <time>2021-07-25T10:20:47Z</time>
      </trkpt>
      <trkpt lat="43.0406620" lon="-8.0222460">
        <ele>435.8</ele>
        <time>2021-07-25T10:20:48Z</time>
      </trkpt>
      <trkpt lat="43.0406700" lon="-8.0222190">
        <ele>436.2</ele>
        <time>2021-07-25T10:20:49Z</time>
      </trkpt>
      <trkpt lat="43.0406790" lon="-8.0221950">
        <ele>436.6</ele>
        <time>2021-07-25T10:20:50Z</time>
      </trkpt>
      <trkpt lat="43.0406900" lon="-8.0221120">
        <ele>436.6</ele>
        <time>2021-07-25T10:20:54Z</time>
      </trkpt>
      <trkpt lat="43.0406830" lon="-8.0221010">
        <ele>436.6</ele>
        <time>2021-07-25T10:20:55Z</time>
      </trkpt>
      <trkpt lat="43.0406680" lon="-8.0221460">
        <ele>436.6</ele>
        <time>2021-07-25T10:20:59Z</time>
      </trkpt>
      <trkpt lat="43.0406640" lon="-8.0221530">
        <ele>436.6</ele>
        <time>2021-07-25T10:21:01Z</time>
      </trkpt>
      <trkpt lat="43.0406730" lon="-8.0221800">
        <ele>436.6</ele>
        <time>2021-07-25T10:21:04Z</time>
      </trkpt>
      <trkpt lat="43.0406800" lon="-8.0222100">
        <ele>436.6</ele>
        <time>2021-07-25T10:21:05Z</time>
      </trkpt>
      <trkpt lat="43.0406430" lon="-8.0223980">
        <ele>436.6</ele>
        <time>2021-07-25T10:21:09Z</time>
      </trkpt>
      <trkpt lat="43.0406030" lon="-8.0225090">
        <ele>436.6</ele>
        <time>2021-07-25T10:21:11Z</time>
      </trkpt>
      <trkpt lat="43.0405350" lon="-8.0227240">
        <ele>436.6</ele>
        <time>2021-07-25T10:21:15Z</time>
      </trkpt>
      <trkpt lat="43.0405030" lon="-8.0228320">
        <ele>436.6</ele>
        <time>2021-07-25T10:21:17Z</time>
      </trkpt>
      <trkpt lat="43.0404500" lon="-8.0230170">
        <ele>436.6</ele>
        <time>2021-07-25T10:21:20Z</time>
      </trkpt>
      <trkpt lat="43.0403920" lon="-8.0232690">
        <ele>436.0</ele>
        <time>2021-07-25T10:21:24Z</time>
      </trkpt>
      <trkpt lat="43.0403810" lon="-8.0233280">
        <ele>435.6</ele>
        <time>2021-07-25T10:21:25Z</time>
      </trkpt>
      <trkpt lat="43.0403680" lon="-8.0233840">
        <ele>435.0</ele>
        <time>2021-07-25T10:21:26Z</time>
      </trkpt>
      <trkpt lat="43.0403560" lon="-8.0234340">
        <ele>434.6</ele>
        <time>2021-07-25T10:21:27Z</time>
      </trkpt>
      <trkpt lat="43.0403450" lon="-8.0234830">
        <ele>434.0</ele>
        <time>2021-07-25T10:21:28Z</time>
      </trkpt>
      <trkpt lat="43.0403320" lon="-8.0235770">
        <ele>434.0</ele>
        <time>2021-07-25T10:21:30Z</time>
      </trkpt>
      <trkpt lat="43.0402870" lon="-8.0238490">
        <ele>434.0</ele>
        <time>2021-07-25T10:21:36Z</time>
      </trkpt>
      <trkpt lat="43.0402590" lon="-8.0240260">
        <ele>434.0</ele>
        <time>2021-07-25T10:21:40Z</time>
      </trkpt>
      <trkpt lat="43.0402250" lon="-8.0242110">
        <ele>434.0</ele>
        <time>2021-07-25T10:21:44Z</time>
      </trkpt>
      <trkpt lat="43.0401820" lon="-8.0244810">
        <ele>434.0</ele>
        <time>2021-07-25T10:21:50Z</time>
      </trkpt>
      <trkpt lat="43.0401700" lon="-8.0245670">
        <ele>434.0</ele>
        <time>2021-07-25T10:21:52Z</time>
      </trkpt>
      <trkpt lat="43.0401590" lon="-8.0246910">
        <ele>434.0</ele>
        <time>2021-07-25T10:21:55Z</time>
      </trkpt>
      <trkpt lat="43.0401210" lon="-8.0248960">
        <ele>434.0</ele>
        <time>2021-07-25T10:22:00Z</time>
      </trkpt>
      <trkpt lat="43.0400910" lon="-8.0250330">
        <ele>434.0</ele>
        <time>2021-07-25T10:22:03Z</time>
      </trkpt>
      <trkpt lat="43.0400950" lon="-8.0251580">
        <ele>434.0</ele>
        <time>2021-07-25T10:22:06Z</time>
      </trkpt>
      <trkpt lat="43.0401350" lon="-8.0252720">
        <ele>434.0</ele>
        <time>2021-07-25T10:22:10Z</time>
      </trkpt>
      <trkpt lat="43.0401440" lon="-8.0253030">
        <ele>434.0</ele>
        <time>2021-07-25T10:22:11Z</time>
      </trkpt>
      <trkpt lat="43.0401610" lon="-8.0253760">
        <ele>434.0</ele>
        <time>2021-07-25T10:22:13Z</time>
      </trkpt>
      <trkpt lat="43.0401620" lon="-8.0254160">
        <ele>434.0</ele>
        <time>2021-07-25T10:22:14Z</time>
      </trkpt>
      <trkpt lat="43.0401680" lon="-8.0254920">
        <ele>434.0</ele>
        <time>2021-07-25T10:22:16Z</time>
      </trkpt>
      <trkpt lat="43.0401720" lon="-8.0255610">
        <ele>434.0</ele>
        <time>2021-07-25T10:22:18Z</time>
      </trkpt>
      <trkpt lat="43.0401790" lon="-8.0256310">
        <ele>434.0</ele>
        <time>2021-07-25T10:22:20Z</time>
      </trkpt>
      <trkpt lat="43.0401870" lon="-8.0257340">
        <ele>434.4</ele>
        <time>2021-07-25T10:22:23Z</time>
      </trkpt>
      <trkpt lat="43.0401910" lon="-8.0257660">
        <ele>435.0</ele>
        <time>2021-07-25T10:22:24Z</time>
      </trkpt>
      <trkpt lat="43.0401910" lon="-8.0257990">
        <ele>435.4</ele>
        <time>2021-07-25T10:22:25Z</time>
      </trkpt>
      <trkpt lat="43.0401920" lon="-8.0258280">
        <ele>435.8</ele>
        <time>2021-07-25T10:22:26Z</time>
      </trkpt>
      <trkpt lat="43.0401950" lon="-8.0258540">
        <ele>436.2</ele>
        <time>2021-07-25T10:22:27Z</time>
      </trkpt>
      <trkpt lat="43.0402200" lon="-8.0259210">
        <ele>436.2</ele>
        <time>2021-07-25T10:22:31Z</time>
      </trkpt>
      <trkpt lat="43.0402190" lon="-8.0259220">
        <ele>436.2</ele>
        <time>2021-07-25T10:22:32Z</time>
      </trkpt>
      <trkpt lat="43.0402340" lon="-8.0259950">
        <ele>436.2</ele>
        <time>2021-07-25T10:23:00Z</time>
      </trkpt>
      <trkpt lat="43.0402380" lon="-8.0260210">
        <ele>436.2</ele>
        <time>2021-07-25T10:23:01Z</time>
      </trkpt>
      <trkpt lat="43.0402430" lon="-8.0260440">
        <ele>436.2</ele>
        <time>2021-07-25T10:23:02Z</time>
      </trkpt>
      <trkpt lat="43.0402630" lon="-8.0261350">
        <ele>436.2</ele>
        <time>2021-07-25T10:23:05Z</time>
      </trkpt>
      <trkpt lat="43.0402860" lon="-8.0262370">
        <ele>436.2</ele>
        <time>2021-07-25T10:23:08Z</time>
      </trkpt>
      <trkpt lat="43.0403130" lon="-8.0263830">
        <ele>436.6</ele>
        <time>2021-07-25T10:23:12Z</time>
      </trkpt>
      <trkpt lat="43.0403240" lon="-8.0264190">
        <ele>437.0</ele>
        <time>2021-07-25T10:23:13Z</time>
      </trkpt>
      <trkpt lat="43.0403280" lon="-8.0264570">
        <ele>437.4</ele>
        <time>2021-07-25T10:23:14Z</time>
      </trkpt>
      <trkpt lat="43.0403300" lon="-8.0264980">
        <ele>437.8</ele>
        <time>2021-07-25T10:23:15Z</time>
      </trkpt>
      <trkpt lat="43.0403290" lon="-8.0265400">
        <ele>438.2</ele>
        <time>2021-07-25T10:23:16Z</time>
      </trkpt>
      <trkpt lat="43.0402560" lon="-8.0267940">
        <ele>438.2</ele>
        <time>2021-07-25T10:23:22Z</time>
      </trkpt>
      <trkpt lat="43.0401630" lon="-8.0270130">
        <ele>438.2</ele>
        <time>2021-07-25T10:23:28Z</time>
      </trkpt>
      <trkpt lat="43.0400610" lon="-8.0272430">
        <ele>438.2</ele>
        <time>2021-07-25T10:23:34Z</time>
      </trkpt>
      <trkpt lat="43.0400490" lon="-8.0272810">
        <ele>438.2</ele>
        <time>2021-07-25T10:23:35Z</time>
      </trkpt>
      <trkpt lat="43.0399630" lon="-8.0275320">
        <ele>438.2</ele>
        <time>2021-07-25T10:23:41Z</time>
      </trkpt>
      <trkpt lat="43.0399010" lon="-8.0277180">
        <ele>438.2</ele>
        <time>2021-07-25T10:23:46Z</time>
      </trkpt>
      <trkpt lat="43.0398710" lon="-8.0277910">
        <ele>438.2</ele>
        <time>2021-07-25T10:23:48Z</time>
      </trkpt>
      <trkpt lat="43.0397580" lon="-8.0280170">
        <ele>438.2</ele>
        <time>2021-07-25T10:23:55Z</time>
      </trkpt>
      <trkpt lat="43.0396250" lon="-8.0281870">
        <ele>438.6</ele>
        <time>2021-07-25T10:24:00Z</time>
      </trkpt>
      <trkpt lat="43.0395940" lon="-8.0282280">
        <ele>439.0</ele>
        <time>2021-07-25T10:24:01Z</time>
      </trkpt>
      <trkpt lat="43.0395630" lon="-8.0282670">
        <ele>439.4</ele>
        <time>2021-07-25T10:24:02Z</time>
      </trkpt>
      <trkpt lat="43.0395300" lon="-8.0283050">
        <ele>439.8</ele>
        <time>2021-07-25T10:24:03Z</time>
      </trkpt>
      <trkpt lat="43.0394980" lon="-8.0283390">
        <ele>440.2</ele>
        <time>2021-07-25T10:24:04Z</time>
      </trkpt>
      <trkpt lat="43.0393780" lon="-8.0284810">
        <ele>440.2</ele>
        <time>2021-07-25T10:24:08Z</time>
      </trkpt>
      <trkpt lat="43.0392860" lon="-8.0285860">
        <ele>440.2</ele>
        <time>2021-07-25T10:24:11Z</time>
      </trkpt>
      <trkpt lat="43.0391850" lon="-8.0286850">
        <ele>440.2</ele>
        <time>2021-07-25T10:24:14Z</time>
      </trkpt>
      <trkpt lat="43.0391140" lon="-8.0287480">
        <ele>440.2</ele>
        <time>2021-07-25T10:24:16Z</time>
      </trkpt>
      <trkpt lat="43.0390390" lon="-8.0288060">
        <ele>439.8</ele>
        <time>2021-07-25T10:24:18Z</time>
      </trkpt>
      <trkpt lat="43.0390010" lon="-8.0288320">
        <ele>439.4</ele>
        <time>2021-07-25T10:24:19Z</time>
      </trkpt>
      <trkpt lat="43.0389650" lon="-8.0288550">
        <ele>439.0</ele>
        <time>2021-07-25T10:24:20Z</time>
      </trkpt>
      <trkpt lat="43.0389270" lon="-8.0288760">
        <ele>438.6</ele>
        <time>2021-07-25T10:24:21Z</time>
      </trkpt>
      <trkpt lat="43.0388920" lon="-8.0288980">
        <ele>438.0</ele>
        <time>2021-07-25T10:24:22Z</time>
      </trkpt>
      <trkpt lat="43.0388210" lon="-8.0289370">
        <ele>438.0</ele>
        <time>2021-07-25T10:24:24Z</time>
      </trkpt>
      <trkpt lat="43.0387240" lon="-8.0290020">
        <ele>438.0</ele>
        <time>2021-07-25T10:24:27Z</time>
      </trkpt>
      <trkpt lat="43.0386470" lon="-8.0290430">
        <ele>438.0</ele>
        <time>2021-07-25T10:24:29Z</time>
      </trkpt>
      <trkpt lat="43.0386090" lon="-8.0290680">
        <ele>438.0</ele>
        <time>2021-07-25T10:24:30Z</time>
      </trkpt>
      <trkpt lat="43.0383860" lon="-8.0292020">
        <ele>438.0</ele>
        <time>2021-07-25T10:24:37Z</time>
      </trkpt>
      <trkpt lat="43.0382780" lon="-8.0292660">
        <ele>438.0</ele>
        <time>2021-07-25T10:24:41Z</time>
      </trkpt>
      <trkpt lat="43.0381860" lon="-8.0293070">
        <ele>438.0</ele>
        <time>2021-07-25T10:24:44Z</time>
      </trkpt>
      <trkpt lat="43.0380440" lon="-8.0292730">
        <ele>438.0</ele>
        <time>2021-07-25T10:24:48Z</time>
      </trkpt>
      <trkpt lat="43.0378770" lon="-8.0291960">
        <ele>438.0</ele>
        <time>2021-07-25T10:24:52Z</time>
      </trkpt>
      <trkpt lat="43.0377610" lon="-8.0291350">
        <ele>438.0</ele>
        <time>2021-07-25T10:24:55Z</time>
      </trkpt>
      <trkpt lat="43.0375740" lon="-8.0290470">
        <ele>438.0</ele>
        <time>2021-07-25T10:25:00Z</time>
      </trkpt>
      <trkpt lat="43.0374490" lon="-8.0290050">
        <ele>438.0</ele>
        <time>2021-07-25T10:25:03Z</time>
      </trkpt>
      <trkpt lat="43.0374060" lon="-8.0289870">
        <ele>438.0</ele>
        <time>2021-07-25T10:25:04Z</time>
      </trkpt>
      <trkpt lat="43.0371790" lon="-8.0288840">
        <ele>438.0</ele>
        <time>2021-07-25T10:25:09Z</time>
      </trkpt>
      <trkpt lat="43.0371300" lon="-8.0288570">
        <ele>438.0</ele>
        <time>2021-07-25T10:25:10Z</time>
      </trkpt>
      <trkpt lat="43.0370210" lon="-8.0287950">
        <ele>437.6</ele>
        <time>2021-07-25T10:25:12Z</time>
      </trkpt>
      <trkpt lat="43.0369650" lon="-8.0287810">
        <ele>437.2</ele>
        <time>2021-07-25T10:25:13Z</time>
      </trkpt>
      <trkpt lat="43.0369060" lon="-8.0287760">
        <ele>436.8</ele>
        <time>2021-07-25T10:25:14Z</time>
      </trkpt>
      <trkpt lat="43.0368500" lon="-8.0287760">
        <ele>436.2</ele>
        <time>2021-07-25T10:25:15Z</time>
      </trkpt>
      <trkpt lat="43.0367950" lon="-8.0287770">
        <ele>435.8</ele>
        <time>2021-07-25T10:25:16Z</time>
      </trkpt>
      <trkpt lat="43.0367480" lon="-8.0287710">
        <ele>435.8</ele>
        <time>2021-07-25T10:25:17Z</time>
      </trkpt>
      <trkpt lat="43.0366720" lon="-8.0287610">
        <ele>435.2</ele>
        <time>2021-07-25T10:25:19Z</time>
      </trkpt>
      <trkpt lat="43.0366400" lon="-8.0287460">
        <ele>434.6</ele>
        <time>2021-07-25T10:25:20Z</time>
      </trkpt>
      <trkpt lat="43.0366130" lon="-8.0287280">
        <ele>434.2</ele>
        <time>2021-07-25T10:25:21Z</time>
      </trkpt>
      <trkpt lat="43.0365800" lon="-8.0286960">
        <ele>433.6</ele>
        <time>2021-07-25T10:25:22Z</time>
      </trkpt>
      <trkpt lat="43.0365570" lon="-8.0286610">
        <ele>432.6</ele>
        <time>2021-07-25T10:25:23Z</time>
      </trkpt>
      <trkpt lat="43.0365350" lon="-8.0286270">
        <ele>432.0</ele>
        <time>2021-07-25T10:25:24Z</time>
      </trkpt>
      <trkpt lat="43.0365150" lon="-8.0285940">
        <ele>431.6</ele>
        <time>2021-07-25T10:25:25Z</time>
      </trkpt>
      <trkpt lat="43.0364960" lon="-8.0285660">
        <ele>431.0</ele>
        <time>2021-07-25T10:25:26Z</time>
      </trkpt>
      <trkpt lat="43.0364780" lon="-8.0285350">
        <ele>430.6</ele>
        <time>2021-07-25T10:25:27Z</time>
      </trkpt>
      <trkpt lat="43.0364620" lon="-8.0285060">
        <ele>430.0</ele>
        <time>2021-07-25T10:25:28Z</time>
      </trkpt>
      <trkpt lat="43.0364470" lon="-8.0284750">
        <ele>429.6</ele>
        <time>2021-07-25T10:25:29Z</time>
      </trkpt>
      <trkpt lat="43.0364340" lon="-8.0284440">
        <ele>429.0</ele>
        <time>2021-07-25T10:25:30Z</time>
      </trkpt>
      <trkpt lat="43.0364200" lon="-8.0284220">
        <ele>428.6</ele>
        <time>2021-07-25T10:25:31Z</time>
      </trkpt>
      <trkpt lat="43.0364030" lon="-8.0284040">
        <ele>428.2</ele>
        <time>2021-07-25T10:25:32Z</time>
      </trkpt>
      <trkpt lat="43.0363810" lon="-8.0283980">
        <ele>427.8</ele>
        <time>2021-07-25T10:25:33Z</time>
      </trkpt>
      <trkpt lat="43.0363620" lon="-8.0284070">
        <ele>427.4</ele>
        <time>2021-07-25T10:25:34Z</time>
      </trkpt>
      <trkpt lat="43.0363450" lon="-8.0284280">
        <ele>427.0</ele>
        <time>2021-07-25T10:25:35Z</time>
      </trkpt>
      <trkpt lat="43.0363300" lon="-8.0284530">
        <ele>426.6</ele>
        <time>2021-07-25T10:25:36Z</time>
      </trkpt>
      <trkpt lat="43.0363110" lon="-8.0284830">
        <ele>426.6</ele>
        <time>2021-07-25T10:25:37Z</time>
      </trkpt>
      <trkpt lat="43.0362920" lon="-8.0285210">
        <ele>426.6</ele>
        <time>2021-07-25T10:25:38Z</time>
      </trkpt>
      <trkpt lat="43.0362600" lon="-8.0286040">
        <ele>426.6</ele>
        <time>2021-07-25T10:25:40Z</time>
      </trkpt>
      <trkpt lat="43.0362130" lon="-8.0288590">
        <ele>426.6</ele>
        <time>2021-07-25T10:25:47Z</time>
      </trkpt>
      <trkpt lat="43.0362110" lon="-8.0289100">
        <ele>426.6</ele>
        <time>2021-07-25T10:25:51Z</time>
      </trkpt>
      <trkpt lat="43.0361970" lon="-8.0289360">
        <ele>426.6</ele>
        <time>2021-07-25T10:25:55Z</time>
      </trkpt>
      <trkpt lat="43.0361190" lon="-8.0291050">
        <ele>426.6</ele>
        <time>2021-07-25T10:26:00Z</time>
      </trkpt>
      <trkpt lat="43.0359910" lon="-8.0292780">
        <ele>426.6</ele>
        <time>2021-07-25T10:26:05Z</time>
      </trkpt>
      <trkpt lat="43.0359620" lon="-8.0293150">
        <ele>426.6</ele>
        <time>2021-07-25T10:26:06Z</time>
      </trkpt>
      <trkpt lat="43.0359160" lon="-8.0293810">
        <ele>426.0</ele>
        <time>2021-07-25T10:26:08Z</time>
      </trkpt>
      <trkpt lat="43.0359060" lon="-8.0293900">
        <ele>425.6</ele>
        <time>2021-07-25T10:26:09Z</time>
      </trkpt>
      <trkpt lat="43.0358980" lon="-8.0294010">
        <ele>425.2</ele>
        <time>2021-07-25T10:26:10Z</time>
      </trkpt>
      <trkpt lat="43.0358880" lon="-8.0294130">
        <ele>424.8</ele>
        <time>2021-07-25T10:26:11Z</time>
      </trkpt>
      <trkpt lat="43.0358750" lon="-8.0294240">
        <ele>424.4</ele>
        <time>2021-07-25T10:26:12Z</time>
      </trkpt>
      <trkpt lat="43.0358600" lon="-8.0294350">
        <ele>424.4</ele>
        <time>2021-07-25T10:26:15Z</time>
      </trkpt>
      <trkpt lat="43.0358440" lon="-8.0294600">
        <ele>424.4</ele>
        <time>2021-07-25T10:28:24Z</time>
      </trkpt>
      <trkpt lat="43.0358270" lon="-8.0294780">
        <ele>424.4</ele>
        <time>2021-07-25T10:28:25Z</time>
      </trkpt>
      <trkpt lat="43.0357390" lon="-8.0295930">
        <ele>424.4</ele>
        <time>2021-07-25T10:28:29Z</time>
      </trkpt>
      <trkpt lat="43.0356030" lon="-8.0297540">
        <ele>424.0</ele>
        <time>2021-07-25T10:28:33Z</time>
      </trkpt>
      <trkpt lat="43.0355650" lon="-8.0297990">
        <ele>423.6</ele>
        <time>2021-07-25T10:28:34Z</time>
      </trkpt>
      <trkpt lat="43.0355300" lon="-8.0298480">
        <ele>423.2</ele>
        <time>2021-07-25T10:28:35Z</time>
      </trkpt>
      <trkpt lat="43.0354910" lon="-8.0298970">
        <ele>422.6</ele>
        <time>2021-07-25T10:28:36Z</time>
      </trkpt>
      <trkpt lat="43.0354520" lon="-8.0299500">
        <ele>422.2</ele>
        <time>2021-07-25T10:28:37Z</time>
      </trkpt>
      <trkpt lat="43.0352840" lon="-8.0301620">
        <ele>422.2</ele>
        <time>2021-07-25T10:28:41Z</time>
      </trkpt>
      <trkpt lat="43.0352380" lon="-8.0302160">
        <ele>422.2</ele>
        <time>2021-07-25T10:28:42Z</time>
      </trkpt>
      <trkpt lat="43.0351000" lon="-8.0303900">
        <ele>422.2</ele>
        <time>2021-07-25T10:28:45Z</time>
      </trkpt>
      <trkpt lat="43.0350050" lon="-8.0305050">
        <ele>421.8</ele>
        <time>2021-07-25T10:28:47Z</time>
      </trkpt>
      <trkpt lat="43.0349630" lon="-8.0305550">
        <ele>421.4</ele>
        <time>2021-07-25T10:28:48Z</time>
      </trkpt>
      <trkpt lat="43.0349210" lon="-8.0306020">
        <ele>421.0</ele>
        <time>2021-07-25T10:28:49Z</time>
      </trkpt>
      <trkpt lat="43.0348820" lon="-8.0306450">
        <ele>420.4</ele>
        <time>2021-07-25T10:28:50Z</time>
      </trkpt>
      <trkpt lat="43.0348430" lon="-8.0306860">
        <ele>420.0</ele>
        <time>2021-07-25T10:28:51Z</time>
      </trkpt>
      <trkpt lat="43.0347260" lon="-8.0308020">
        <ele>419.6</ele>
        <time>2021-07-25T10:28:54Z</time>
      </trkpt>
      <trkpt lat="43.0346900" lon="-8.0308350">
        <ele>419.2</ele>
        <time>2021-07-25T10:28:55Z</time>
      </trkpt>
      <trkpt lat="43.0346570" lon="-8.0308720">
        <ele>418.6</ele>
        <time>2021-07-25T10:28:56Z</time>
      </trkpt>
      <trkpt lat="43.0346230" lon="-8.0309080">
        <ele>418.2</ele>
        <time>2021-07-25T10:28:57Z</time>
      </trkpt>
      <trkpt lat="43.0345940" lon="-8.0309370">
        <ele>417.8</ele>
        <time>2021-07-25T10:28:58Z</time>
      </trkpt>
      <trkpt lat="43.0345370" lon="-8.0310330">
        <ele>417.8</ele>
        <time>2021-07-25T10:29:01Z</time>
      </trkpt>
      <trkpt lat="43.0345120" lon="-8.0310790">
        <ele>417.4</ele>
        <time>2021-07-25T10:29:05Z</time>
      </trkpt>
      <trkpt lat="43.0345030" lon="-8.0310820">
        <ele>416.4</ele>
        <time>2021-07-25T10:29:07Z</time>
      </trkpt>
      <trkpt lat="43.0344810" lon="-8.0310870">
        <ele>415.8</ele>
        <time>2021-07-25T10:29:08Z</time>
      </trkpt>
      <trkpt lat="43.0344630" lon="-8.0310920">
        <ele>415.4</ele>
        <time>2021-07-25T10:29:09Z</time>
      </trkpt>
      <trkpt lat="43.0344410" lon="-8.0310970">
        <ele>415.4</ele>
        <time>2021-07-25T10:29:10Z</time>
      </trkpt>
      <trkpt lat="43.0342610" lon="-8.0311180">
        <ele>415.4</ele>
        <time>2021-07-25T10:29:15Z</time>
      </trkpt>
      <trkpt lat="43.0342090" lon="-8.0311420">
        <ele>415.4</ele>
        <time>2021-07-25T10:29:16Z</time>
      </trkpt>
      <trkpt lat="43.0340900" lon="-8.0312090">
        <ele>415.0</ele>
        <time>2021-07-25T10:29:19Z</time>
      </trkpt>
      <trkpt lat="43.0340560" lon="-8.0312480">
        <ele>414.6</ele>
        <time>2021-07-25T10:29:20Z</time>
      </trkpt>
      <trkpt lat="43.0340230" lon="-8.0312940">
        <ele>414.2</ele>
        <time>2021-07-25T10:29:21Z</time>
      </trkpt>
      <trkpt lat="43.0339880" lon="-8.0313400">
        <ele>413.8</ele>
        <time>2021-07-25T10:29:22Z</time>
      </trkpt>
      <trkpt lat="43.0339480" lon="-8.0313850">
        <ele>413.4</ele>
        <time>2021-07-25T10:29:23Z</time>
      </trkpt>
      <trkpt lat="43.0336760" lon="-8.0316480">
        <ele>413.4</ele>
        <time>2021-07-25T10:29:30Z</time>
      </trkpt>
      <trkpt lat="43.0334720" lon="-8.0319010">
        <ele>413.4</ele>
        <time>2021-07-25T10:29:36Z</time>
      </trkpt>
      <trkpt lat="43.0334450" lon="-8.0319510">
        <ele>413.4</ele>
        <time>2021-07-25T10:29:37Z</time>
      </trkpt>
      <trkpt lat="43.0334100" lon="-8.0320070">
        <ele>413.4</ele>
        <time>2021-07-25T10:29:38Z</time>
      </trkpt>
      <trkpt lat="43.0333410" lon="-8.0321220">
        <ele>413.4</ele>
        <time>2021-07-25T10:29:40Z</time>
      </trkpt>
      <trkpt lat="43.0332970" lon="-8.0321770">
        <ele>413.4</ele>
        <time>2021-07-25T10:29:41Z</time>
      </trkpt>
      <trkpt lat="43.0332260" lon="-8.0322850">
        <ele>413.4</ele>
        <time>2021-07-25T10:29:43Z</time>
      </trkpt>
      <trkpt lat="43.0331890" lon="-8.0323420">
        <ele>413.4</ele>
        <time>2021-07-25T10:29:44Z</time>
      </trkpt>
      <trkpt lat="43.0331110" lon="-8.0324350">
        <ele>413.4</ele>
        <time>2021-07-25T10:29:46Z</time>
      </trkpt>
      <trkpt lat="43.0330350" lon="-8.0325250">
        <ele>413.4</ele>
        <time>2021-07-25T10:29:48Z</time>
      </trkpt>
      <trkpt lat="43.0329620" lon="-8.0326100">
        <ele>413.4</ele>
        <time>2021-07-25T10:29:50Z</time>
      </trkpt>
      <trkpt lat="43.0328560" lon="-8.0327350">
        <ele>413.4</ele>
        <time>2021-07-25T10:29:53Z</time>
      </trkpt>
      <trkpt lat="43.0327560" lon="-8.0328380">
        <ele>413.4</ele>
        <time>2021-07-25T10:29:56Z</time>
      </trkpt>
      <trkpt lat="43.0326840" lon="-8.0329070">
        <ele>413.4</ele>
        <time>2021-07-25T10:29:58Z</time>
      </trkpt>
      <trkpt lat="43.0325510" lon="-8.0330930">
        <ele>413.4</ele>
        <time>2021-07-25T10:30:02Z</time>
      </trkpt>
      <trkpt lat="43.0324970" lon="-8.0332120">
        <ele>413.4</ele>
        <time>2021-07-25T10:30:04Z</time>
      </trkpt>
      <trkpt lat="43.0324440" lon="-8.0333380">
        <ele>413.4</ele>
        <time>2021-07-25T10:30:06Z</time>
      </trkpt>
      <trkpt lat="43.0323610" lon="-8.0335290">
        <ele>413.4</ele>
        <time>2021-07-25T10:30:09Z</time>
      </trkpt>
      <trkpt lat="43.0322690" lon="-8.0337490">
        <ele>414.2</ele>
        <time>2021-07-25T10:30:11Z</time>
      </trkpt>
      <trkpt lat="43.0322450" lon="-8.0338010">
        <ele>414.8</ele>
        <time>2021-07-25T10:30:15Z</time>
      </trkpt>
      <trkpt lat="43.0322200" lon="-8.0338560">
        <ele>415.2</ele>
        <time>2021-07-25T10:30:16Z</time>
      </trkpt>
      <trkpt lat="43.0321970" lon="-8.0339080">
        <ele>415.6</ele>
        <time>2021-07-25T10:30:17Z</time>
      </trkpt>
      <trkpt lat="43.0320880" lon="-8.0341470">
        <ele>415.6</ele>
        <time>2021-07-25T10:30:22Z</time>
      </trkpt>
      <trkpt lat="43.0319090" lon="-8.0344620">
        <ele>415.6</ele>
        <time>2021-07-25T10:30:30Z</time>
      </trkpt>
      <trkpt lat="43.0318710" lon="-8.0345320">
        <ele>416.0</ele>
        <time>2021-07-25T10:30:32Z</time>
      </trkpt>
      <trkpt lat="43.0318530" lon="-8.0345730">
        <ele>416.4</ele>
        <time>2021-07-25T10:30:33Z</time>
      </trkpt>
      <trkpt lat="43.0318360" lon="-8.0346110">
        <ele>416.8</ele>
        <time>2021-07-25T10:30:34Z</time>
      </trkpt>
      <trkpt lat="43.0318150" lon="-8.0346510">
        <ele>417.2</ele>
        <time>2021-07-25T10:30:35Z</time>
      </trkpt>
      <trkpt lat="43.0317980" lon="-8.0346930">
        <ele>417.6</ele>
        <time>2021-07-25T10:30:36Z</time>
      </trkpt>
      <trkpt lat="43.0317550" lon="-8.0347710">
        <ele>417.6</ele>
        <time>2021-07-25T10:30:38Z</time>
      </trkpt>
      <trkpt lat="43.0316310" lon="-8.0350000">
        <ele>417.6</ele>
        <time>2021-07-25T10:30:44Z</time>
      </trkpt>
      <trkpt lat="43.0315120" lon="-8.0351850">
        <ele>417.6</ele>
        <time>2021-07-25T10:30:49Z</time>
      </trkpt>
      <trkpt lat="43.0314630" lon="-8.0352670">
        <ele>418.2</ele>
        <time>2021-07-25T10:30:51Z</time>
      </trkpt>
      <trkpt lat="43.0314410" lon="-8.0353050">
        <ele>418.6</ele>
        <time>2021-07-25T10:30:52Z</time>
      </trkpt>
      <trkpt lat="43.0314170" lon="-8.0353410">
        <ele>419.0</ele>
        <time>2021-07-25T10:30:53Z</time>
      </trkpt>
      <trkpt lat="43.0313960" lon="-8.0353800">
        <ele>419.6</ele>
        <time>2021-07-25T10:30:54Z</time>
      </trkpt>
      <trkpt lat="43.0313750" lon="-8.0354160">
        <ele>420.0</ele>
        <time>2021-07-25T10:30:55Z</time>
      </trkpt>
      <trkpt lat="43.0313540" lon="-8.0354550">
        <ele>420.0</ele>
        <time>2021-07-25T10:30:56Z</time>
      </trkpt>
      <trkpt lat="43.0312380" lon="-8.0357060">
        <ele>420.0</ele>
        <time>2021-07-25T10:31:02Z</time>
      </trkpt>
      <trkpt lat="43.0310150" lon="-8.0361250">
        <ele>420.0</ele>
        <time>2021-07-25T10:31:11Z</time>
      </trkpt>
      <trkpt lat="43.0308220" lon="-8.0364780">
        <ele>420.0</ele>
        <time>2021-07-25T10:31:19Z</time>
      </trkpt>
      <trkpt lat="43.0307960" lon="-8.0365270">
        <ele>420.0</ele>
        <time>2021-07-25T10:31:20Z</time>
      </trkpt>
      <trkpt lat="43.0307200" lon="-8.0366670">
        <ele>420.0</ele>
        <time>2021-07-25T10:31:23Z</time>
      </trkpt>
      <trkpt lat="43.0305760" lon="-8.0369640">
        <ele>420.0</ele>
        <time>2021-07-25T10:31:29Z</time>
      </trkpt>
      <trkpt lat="43.0304310" lon="-8.0372720">
        <ele>420.4</ele>
        <time>2021-07-25T10:31:35Z</time>
      </trkpt>
      <trkpt lat="43.0304080" lon="-8.0373190">
        <ele>420.8</ele>
        <time>2021-07-25T10:31:36Z</time>
      </trkpt>
      <trkpt lat="43.0303880" lon="-8.0373660">
        <ele>421.2</ele>
        <time>2021-07-25T10:31:37Z</time>
      </trkpt>
      <trkpt lat="43.0303670" lon="-8.0374100">
        <ele>421.6</ele>
        <time>2021-07-25T10:31:38Z</time>
      </trkpt>
      <trkpt lat="43.0303460" lon="-8.0374540">
        <ele>422.0</ele>
        <time>2021-07-25T10:31:39Z</time>
      </trkpt>
      <trkpt lat="43.0302250" lon="-8.0376680">
        <ele>422.0</ele>
        <time>2021-07-25T10:31:45Z</time>
      </trkpt>
      <trkpt lat="43.0301420" lon="-8.0378320">
        <ele>422.4</ele>
        <time>2021-07-25T10:31:50Z</time>
      </trkpt>
      <trkpt lat="43.0301180" lon="-8.0378700">
        <ele>422.8</ele>
        <time>2021-07-25T10:31:51Z</time>
      </trkpt>
      <trkpt lat="43.0301000" lon="-8.0379070">
        <ele>423.2</ele>
        <time>2021-07-25T10:31:52Z</time>
      </trkpt>
      <trkpt lat="43.0300800" lon="-8.0379420">
        <ele>423.6</ele>
        <time>2021-07-25T10:31:53Z</time>
      </trkpt>
      <trkpt lat="43.0300590" lon="-8.0379780">
        <ele>424.0</ele>
        <time>2021-07-25T10:31:54Z</time>
      </trkpt>
      <trkpt lat="43.0299750" lon="-8.0380750">
        <ele>424.0</ele>
        <time>2021-07-25T10:31:58Z</time>
      </trkpt>
      <trkpt lat="43.0298130" lon="-8.0382840">
        <ele>424.0</ele>
        <time>2021-07-25T10:32:04Z</time>
      </trkpt>
      <trkpt lat="43.0296270" lon="-8.0385290">
        <ele>424.0</ele>
        <time>2021-07-25T10:32:11Z</time>
      </trkpt>
      <trkpt lat="43.0295710" lon="-8.0385920">
        <ele>424.0</ele>
        <time>2021-07-25T10:32:13Z</time>
      </trkpt>
      <trkpt lat="43.0294810" lon="-8.0386980">
        <ele>424.0</ele>
        <time>2021-07-25T10:32:16Z</time>
      </trkpt>
      <trkpt lat="43.0294190" lon="-8.0387540">
        <ele>424.0</ele>
        <time>2021-07-25T10:32:18Z</time>
      </trkpt>
      <trkpt lat="43.0293560" lon="-8.0388020">
        <ele>424.0</ele>
        <time>2021-07-25T10:32:20Z</time>
      </trkpt>
      <trkpt lat="43.0293230" lon="-8.0388370">
        <ele>424.0</ele>
        <time>2021-07-25T10:32:21Z</time>
      </trkpt>
      <trkpt lat="43.0292230" lon="-8.0389630">
        <ele>424.0</ele>
        <time>2021-07-25T10:32:25Z</time>
      </trkpt>
      <trkpt lat="43.0291930" lon="-8.0390030">
        <ele>423.6</ele>
        <time>2021-07-25T10:32:26Z</time>
      </trkpt>
      <trkpt lat="43.0291560" lon="-8.0390430">
        <ele>423.2</ele>
        <time>2021-07-25T10:32:27Z</time>
      </trkpt>
      <trkpt lat="43.0291140" lon="-8.0390910">
        <ele>422.8</ele>
        <time>2021-07-25T10:32:28Z</time>
      </trkpt>
      <trkpt lat="43.0290730" lon="-8.0391460">
        <ele>422.4</ele>
        <time>2021-07-25T10:32:29Z</time>
      </trkpt>
      <trkpt lat="43.0290310" lon="-8.0392140">
        <ele>422.0</ele>
        <time>2021-07-25T10:32:30Z</time>
      </trkpt>
      <trkpt lat="43.0288460" lon="-8.0394760">
        <ele>422.0</ele>
        <time>2021-07-25T10:32:34Z</time>
      </trkpt>
      <trkpt lat="43.0288010" lon="-8.0395390">
        <ele>421.6</ele>
        <time>2021-07-25T10:32:35Z</time>
      </trkpt>
      <trkpt lat="43.0287570" lon="-8.0396100">
        <ele>421.2</ele>
        <time>2021-07-25T10:32:36Z</time>
      </trkpt>
      <trkpt lat="43.0287090" lon="-8.0396730">
        <ele>420.8</ele>
        <time>2021-07-25T10:32:37Z</time>
      </trkpt>
      <trkpt lat="43.0286590" lon="-8.0397360">
        <ele>420.4</ele>
        <time>2021-07-25T10:32:38Z</time>
      </trkpt>
      <trkpt lat="43.0286130" lon="-8.0397950">
        <ele>420.0</ele>
        <time>2021-07-25T10:32:39Z</time>
      </trkpt>
      <trkpt lat="43.0285270" lon="-8.0399130">
        <ele>420.0</ele>
        <time>2021-07-25T10:32:41Z</time>
      </trkpt>
      <trkpt lat="43.0284910" lon="-8.0399650">
        <ele>419.4</ele>
        <time>2021-07-25T10:32:42Z</time>
      </trkpt>
      <trkpt lat="43.0284600" lon="-8.0400130">
        <ele>419.0</ele>
        <time>2021-07-25T10:32:43Z</time>
      </trkpt>
      <trkpt lat="43.0284270" lon="-8.0400590">
        <ele>418.6</ele>
        <time>2021-07-25T10:32:44Z</time>
      </trkpt>
      <trkpt lat="43.0283960" lon="-8.0401020">
        <ele>418.2</ele>
        <time>2021-07-25T10:32:45Z</time>
      </trkpt>
      <trkpt lat="43.0283700" lon="-8.0401440">
        <ele>417.6</ele>
        <time>2021-07-25T10:32:46Z</time>
      </trkpt>
      <trkpt lat="43.0282300" lon="-8.0404040">
        <ele>417.6</ele>
        <time>2021-07-25T10:32:52Z</time>
      </trkpt>
      <trkpt lat="43.0281600" lon="-8.0405490">
        <ele>417.6</ele>
        <time>2021-07-25T10:32:55Z</time>
      </trkpt>
      <trkpt lat="43.0281080" lon="-8.0406370">
        <ele>417.6</ele>
        <time>2021-07-25T10:32:57Z</time>
      </trkpt>
      <trkpt lat="43.0280820" lon="-8.0406790">
        <ele>417.6</ele>
        <time>2021-07-25T10:32:58Z</time>
      </trkpt>
      <trkpt lat="43.0280310" lon="-8.0407590">
        <ele>417.6</ele>
        <time>2021-07-25T10:33:00Z</time>
      </trkpt>
      <trkpt lat="43.0279450" lon="-8.0409420">
        <ele>417.6</ele>
        <time>2021-07-25T10:33:05Z</time>
      </trkpt>
      <trkpt lat="43.0278420" lon="-8.0411480">
        <ele>417.6</ele>
        <time>2021-07-25T10:33:10Z</time>
      </trkpt>
      <trkpt lat="43.0277400" lon="-8.0413410">
        <ele>417.2</ele>
        <time>2021-07-25T10:33:14Z</time>
      </trkpt>
      <trkpt lat="43.0277070" lon="-8.0413890">
        <ele>416.8</ele>
        <time>2021-07-25T10:33:15Z</time>
      </trkpt>
      <trkpt lat="43.0276740" lon="-8.0414360">
        <ele>416.4</ele>
        <time>2021-07-25T10:33:16Z</time>
      </trkpt>
      <trkpt lat="43.0276360" lon="-8.0414780">
        <ele>416.0</ele>
        <time>2021-07-25T10:33:17Z</time>
      </trkpt>
      <trkpt lat="43.0275990" lon="-8.0415190">
        <ele>415.6</ele>
        <time>2021-07-25T10:33:18Z</time>
      </trkpt>
      <trkpt lat="43.0274290" lon="-8.0416800">
        <ele>415.6</ele>
        <time>2021-07-25T10:33:22Z</time>
      </trkpt>
      <trkpt lat="43.0273140" lon="-8.0417990">
        <ele>415.6</ele>
        <time>2021-07-25T10:33:25Z</time>
      </trkpt>
      <trkpt lat="43.0272500" lon="-8.0418860">
        <ele>415.6</ele>
        <time>2021-07-25T10:33:27Z</time>
      </trkpt>
      <trkpt lat="43.0271740" lon="-8.0420380">
        <ele>415.6</ele>
        <time>2021-07-25T10:33:30Z</time>
      </trkpt>
      <trkpt lat="43.0271340" lon="-8.0420890">
        <ele>415.6</ele>
        <time>2021-07-25T10:33:31Z</time>
      </trkpt>
      <trkpt lat="43.0270950" lon="-8.0421350">
        <ele>415.6</ele>
        <time>2021-07-25T10:33:32Z</time>
      </trkpt>
      <trkpt lat="43.0270190" lon="-8.0422120">
        <ele>415.6</ele>
        <time>2021-07-25T10:33:34Z</time>
      </trkpt>
      <trkpt lat="43.0269080" lon="-8.0423350">
        <ele>415.6</ele>
        <time>2021-07-25T10:33:37Z</time>
      </trkpt>
      <trkpt lat="43.0268750" lon="-8.0423650">
        <ele>415.6</ele>
        <time>2021-07-25T10:33:38Z</time>
      </trkpt>
      <trkpt lat="43.0268080" lon="-8.0424890">
        <ele>415.6</ele>
        <time>2021-07-25T10:33:41Z</time>
      </trkpt>
      <trkpt lat="43.0267780" lon="-8.0425280">
        <ele>415.6</ele>
        <time>2021-07-25T10:33:42Z</time>
      </trkpt>
      <trkpt lat="43.0266150" lon="-8.0427120">
        <ele>415.6</ele>
        <time>2021-07-25T10:33:47Z</time>
      </trkpt>
      <trkpt lat="43.0265630" lon="-8.0427710">
        <ele>415.6</ele>
        <time>2021-07-25T10:33:49Z</time>
      </trkpt>
      <trkpt lat="43.0264840" lon="-8.0428230">
        <ele>415.6</ele>
        <time>2021-07-25T10:33:52Z</time>
      </trkpt>
      <trkpt lat="43.0264630" lon="-8.0428430">
        <ele>415.6</ele>
        <time>2021-07-25T10:33:54Z</time>
      </trkpt>
      <trkpt lat="43.0264330" lon="-8.0428700">
        <ele>415.6</ele>
        <time>2021-07-25T10:33:56Z</time>
      </trkpt>
      <trkpt lat="43.0263990" lon="-8.0429050">
        <ele>415.6</ele>
        <time>2021-07-25T10:33:58Z</time>
      </trkpt>
      <trkpt lat="43.0263810" lon="-8.0429070">
        <ele>415.6</ele>
        <time>2021-07-25T10:33:59Z</time>
      </trkpt>
      <trkpt lat="43.0263480" lon="-8.0429410">
        <ele>415.6</ele>
        <time>2021-07-25T10:34:01Z</time>
      </trkpt>
      <trkpt lat="43.0263340" lon="-8.0429600">
        <ele>416.0</ele>
        <time>2021-07-25T10:34:02Z</time>
      </trkpt>
      <trkpt lat="43.0263190" lon="-8.0429730">
        <ele>416.8</ele>
        <time>2021-07-25T10:34:03Z</time>
      </trkpt>
      <trkpt lat="43.0263030" lon="-8.0429900">
        <ele>417.2</ele>
        <time>2021-07-25T10:34:04Z</time>
      </trkpt>
      <trkpt lat="43.0262880" lon="-8.0430110">
        <ele>417.6</ele>
        <time>2021-07-25T10:34:05Z</time>
      </trkpt>
      <trkpt lat="43.0262410" lon="-8.0430560">
        <ele>417.6</ele>
        <time>2021-07-25T10:34:08Z</time>
      </trkpt>
      <trkpt lat="43.0262230" lon="-8.0430750">
        <ele>418.0</ele>
        <time>2021-07-25T10:34:09Z</time>
      </trkpt>
      <trkpt lat="43.0262030" lon="-8.0430940">
        <ele>418.4</ele>
        <time>2021-07-25T10:34:10Z</time>
      </trkpt>
      <trkpt lat="43.0261860" lon="-8.0431090">
        <ele>418.8</ele>
        <time>2021-07-25T10:34:11Z</time>
      </trkpt>
      <trkpt lat="43.0261730" lon="-8.0431210">
        <ele>419.2</ele>
        <time>2021-07-25T10:34:12Z</time>
      </trkpt>
      <trkpt lat="43.0261620" lon="-8.0431430">
        <ele>419.6</ele>
        <time>2021-07-25T10:34:13Z</time>
      </trkpt>
      <trkpt lat="43.0261520" lon="-8.0431650">
        <ele>419.6</ele>
        <time>2021-07-25T10:34:14Z</time>
      </trkpt>
      <trkpt lat="43.0261120" lon="-8.0432200">
        <ele>419.6</ele>
        <time>2021-07-25T10:34:17Z</time>
      </trkpt>
      <trkpt lat="43.0261000" lon="-8.0432440">
        <ele>420.0</ele>
        <time>2021-07-25T10:34:18Z</time>
      </trkpt>
      <trkpt lat="43.0260940" lon="-8.0432640">
        <ele>420.4</ele>
        <time>2021-07-25T10:34:19Z</time>
      </trkpt>
      <trkpt lat="43.0260870" lon="-8.0432750">
        <ele>420.8</ele>
        <time>2021-07-25T10:34:20Z</time>
      </trkpt>
      <trkpt lat="43.0260670" lon="-8.0432930">
        <ele>421.2</ele>
        <time>2021-07-25T10:34:21Z</time>
      </trkpt>
      <trkpt lat="43.0260550" lon="-8.0433210">
        <ele>421.8</ele>
        <time>2021-07-25T10:34:22Z</time>
      </trkpt>
      <trkpt lat="43.0260200" lon="-8.0433800">
        <ele>421.8</ele>
        <time>2021-07-25T10:34:25Z</time>
      </trkpt>
      <trkpt lat="43.0259590" lon="-8.0434780">
        <ele>422.2</ele>
        <time>2021-07-25T10:34:30Z</time>
      </trkpt>
      <trkpt lat="43.0259470" lon="-8.0434950">
        <ele>422.6</ele>
        <time>2021-07-25T10:34:31Z</time>
      </trkpt>
      <trkpt lat="43.0259350" lon="-8.0435110">
        <ele>423.0</ele>
        <time>2021-07-25T10:34:32Z</time>
      </trkpt>
      <trkpt lat="43.0259260" lon="-8.0435340">
        <ele>423.4</ele>
        <time>2021-07-25T10:34:33Z</time>
      </trkpt>
      <trkpt lat="43.0259170" lon="-8.0435530">
        <ele>423.8</ele>
        <time>2021-07-25T10:34:34Z</time>
      </trkpt>
      <trkpt lat="43.0258770" lon="-8.0436480">
        <ele>423.8</ele>
        <time>2021-07-25T10:34:39Z</time>
      </trkpt>
      <trkpt lat="43.0258140" lon="-8.0438180">
        <ele>423.8</ele>
        <time>2021-07-25T10:34:46Z</time>
      </trkpt>
      <trkpt lat="43.0258030" lon="-8.0438420">
        <ele>424.2</ele>
        <time>2021-07-25T10:34:47Z</time>
      </trkpt>
      <trkpt lat="43.0257930" lon="-8.0438710">
        <ele>424.6</ele>
        <time>2021-07-25T10:34:48Z</time>
      </trkpt>
      <trkpt lat="43.0257820" lon="-8.0438960">
        <ele>425.0</ele>
        <time>2021-07-25T10:34:49Z</time>
      </trkpt>
      <trkpt lat="43.0257750" lon="-8.0439200">
        <ele>425.4</ele>
        <time>2021-07-25T10:34:50Z</time>
      </trkpt>
      <trkpt lat="43.0257610" lon="-8.0439390">
        <ele>425.8</ele>
        <time>2021-07-25T10:34:51Z</time>
      </trkpt>
      <trkpt lat="43.0257260" lon="-8.0440040">
        <ele>425.8</ele>
        <time>2021-07-25T10:34:54Z</time>
      </trkpt>
      <trkpt lat="43.0256620" lon="-8.0441310">
        <ele>425.8</ele>
        <time>2021-07-25T10:35:01Z</time>
      </trkpt>
      <trkpt lat="43.0256430" lon="-8.0441470">
        <ele>426.2</ele>
        <time>2021-07-25T10:35:02Z</time>
      </trkpt>
      <trkpt lat="43.0256280" lon="-8.0441660">
        <ele>426.6</ele>
        <time>2021-07-25T10:35:03Z</time>
      </trkpt>
      <trkpt lat="43.0256170" lon="-8.0441820">
        <ele>427.2</ele>
        <time>2021-07-25T10:35:04Z</time>
      </trkpt>
      <trkpt lat="43.0256030" lon="-8.0441980">
        <ele>427.6</ele>
        <time>2021-07-25T10:35:05Z</time>
      </trkpt>
      <trkpt lat="43.0255940" lon="-8.0442180">
        <ele>428.0</ele>
        <time>2021-07-25T10:35:06Z</time>
      </trkpt>
      <trkpt lat="43.0255820" lon="-8.0442390">
        <ele>428.0</ele>
        <time>2021-07-25T10:35:07Z</time>
      </trkpt>
      <trkpt lat="43.0254950" lon="-8.0443860">
        <ele>428.0</ele>
        <time>2021-07-25T10:35:15Z</time>
      </trkpt>
      <trkpt lat="43.0254880" lon="-8.0444040">
        <ele>428.4</ele>
        <time>2021-07-25T10:35:16Z</time>
      </trkpt>
      <trkpt lat="43.0254780" lon="-8.0444230">
        <ele>428.8</ele>
        <time>2021-07-25T10:35:17Z</time>
      </trkpt>
      <trkpt lat="43.0254670" lon="-8.0444400">
        <ele>429.2</ele>
        <time>2021-07-25T10:35:18Z</time>
      </trkpt>
      <trkpt lat="43.0254600" lon="-8.0444600">
        <ele>429.6</ele>
        <time>2021-07-25T10:35:19Z</time>
      </trkpt>
      <trkpt lat="43.0254470" lon="-8.0444830">
        <ele>430.0</ele>
        <time>2021-07-25T10:35:20Z</time>
      </trkpt>
      <trkpt lat="43.0254200" lon="-8.0445190">
        <ele>430.0</ele>
        <time>2021-07-25T10:35:22Z</time>
      </trkpt>
      <trkpt lat="43.0253490" lon="-8.0446390">
        <ele>430.0</ele>
        <time>2021-07-25T10:35:28Z</time>
      </trkpt>
      <trkpt lat="43.0252810" lon="-8.0447160">
        <ele>430.0</ele>
        <time>2021-07-25T10:35:33Z</time>
      </trkpt>
      <trkpt lat="43.0252690" lon="-8.0447340">
        <ele>430.4</ele>
        <time>2021-07-25T10:35:34Z</time>
      </trkpt>
      <trkpt lat="43.0252540" lon="-8.0447580">
        <ele>431.0</ele>
        <time>2021-07-25T10:35:35Z</time>
      </trkpt>
      <trkpt lat="43.0252440" lon="-8.0447810">
        <ele>431.4</ele>
        <time>2021-07-25T10:35:36Z</time>
      </trkpt>
      <trkpt lat="43.0252280" lon="-8.0448040">
        <ele>431.8</ele>
        <time>2021-07-25T10:35:37Z</time>
      </trkpt>
      <trkpt lat="43.0252180" lon="-8.0448210">
        <ele>432.2</ele>
        <time>2021-07-25T10:35:38Z</time>
      </trkpt>
      <trkpt lat="43.0251600" lon="-8.0449150">
        <ele>432.2</ele>
        <time>2021-07-25T10:35:43Z</time>
      </trkpt>
      <trkpt lat="43.0251370" lon="-8.0449590">
        <ele>432.2</ele>
        <time>2021-07-25T10:35:45Z</time>
      </trkpt>
      <trkpt lat="43.0251140" lon="-8.0450190">
        <ele>432.6</ele>
        <time>2021-07-25T10:35:48Z</time>
      </trkpt>
      <trkpt lat="43.0251020" lon="-8.0450390">
        <ele>433.0</ele>
        <time>2021-07-25T10:35:49Z</time>
      </trkpt>
      <trkpt lat="43.0250940" lon="-8.0450570">
        <ele>433.4</ele>
        <time>2021-07-25T10:35:50Z</time>
      </trkpt>
      <trkpt lat="43.0250850" lon="-8.0450700">
        <ele>433.8</ele>
        <time>2021-07-25T10:35:51Z</time>
      </trkpt>
      <trkpt lat="43.0250760" lon="-8.0450870">
        <ele>434.2</ele>
        <time>2021-07-25T10:35:52Z</time>
      </trkpt>
      <trkpt lat="43.0250460" lon="-8.0451760">
        <ele>434.2</ele>
        <time>2021-07-25T10:35:57Z</time>
      </trkpt>
      <trkpt lat="43.0249990" lon="-8.0452500">
        <ele>434.6</ele>
        <time>2021-07-25T10:36:01Z</time>
      </trkpt>
      <trkpt lat="43.0249870" lon="-8.0452600">
        <ele>435.0</ele>
        <time>2021-07-25T10:36:02Z</time>
      </trkpt>
      <trkpt lat="43.0249810" lon="-8.0452730">
        <ele>435.4</ele>
        <time>2021-07-25T10:36:03Z</time>
      </trkpt>
      <trkpt lat="43.0249710" lon="-8.0452950">
        <ele>435.8</ele>
        <time>2021-07-25T10:36:04Z</time>
      </trkpt>
      <trkpt lat="43.0249630" lon="-8.0453080">
        <ele>436.2</ele>
        <time>2021-07-25T10:36:05Z</time>
      </trkpt>
      <trkpt lat="43.0249480" lon="-8.0453390">
        <ele>436.2</ele>
        <time>2021-07-25T10:36:07Z</time>
      </trkpt>
      <trkpt lat="43.0249280" lon="-8.0453790">
        <ele>436.2</ele>
        <time>2021-07-25T10:36:09Z</time>
      </trkpt>
      <trkpt lat="43.0249130" lon="-8.0454440">
        <ele>436.2</ele>
        <time>2021-07-25T10:36:12Z</time>
      </trkpt>
      <trkpt lat="43.0249050" lon="-8.0455010">
        <ele>436.8</ele>
        <time>2021-07-25T10:36:15Z</time>
      </trkpt>
      <trkpt lat="43.0249020" lon="-8.0455330">
        <ele>437.2</ele>
        <time>2021-07-25T10:36:16Z</time>
      </trkpt>
      <trkpt lat="43.0248970" lon="-8.0455550">
        <ele>437.6</ele>
        <time>2021-07-25T10:36:17Z</time>
      </trkpt>
      <trkpt lat="43.0248930" lon="-8.0455760">
        <ele>438.0</ele>
        <time>2021-07-25T10:36:18Z</time>
      </trkpt>
      <trkpt lat="43.0248880" lon="-8.0455960">
        <ele>438.4</ele>
        <time>2021-07-25T10:36:19Z</time>
      </trkpt>
      <trkpt lat="43.0248750" lon="-8.0456480">
        <ele>438.4</ele>
        <time>2021-07-25T10:36:22Z</time>
      </trkpt>
      <trkpt lat="43.0248230" lon="-8.0457310">
        <ele>438.8</ele>
        <time>2021-07-25T10:36:29Z</time>
      </trkpt>
      <trkpt lat="43.0248170" lon="-8.0457510">
        <ele>439.8</ele>
        <time>2021-07-25T10:36:30Z</time>
      </trkpt>
      <trkpt lat="43.0248060" lon="-8.0457740">
        <ele>440.2</ele>
        <time>2021-07-25T10:36:31Z</time>
      </trkpt>
      <trkpt lat="43.0247970" lon="-8.0457890">
        <ele>440.6</ele>
        <time>2021-07-25T10:36:32Z</time>
      </trkpt>
      <trkpt lat="43.0247430" lon="-8.0458720">
        <ele>440.6</ele>
        <time>2021-07-25T10:36:39Z</time>
      </trkpt>
      <trkpt lat="43.0247260" lon="-8.0459030">
        <ele>441.0</ele>
        <time>2021-07-25T10:36:41Z</time>
      </trkpt>
      <trkpt lat="43.0247180" lon="-8.0459190">
        <ele>441.4</ele>
        <time>2021-07-25T10:36:42Z</time>
      </trkpt>
      <trkpt lat="43.0247100" lon="-8.0459310">
        <ele>441.8</ele>
        <time>2021-07-25T10:36:43Z</time>
      </trkpt>
      <trkpt lat="43.0247100" lon="-8.0459310">
        <ele>442.2</ele>
        <time>2021-07-25T10:36:44Z</time>
      </trkpt>
      <trkpt lat="43.0246990" lon="-8.0459600">
        <ele>442.8</ele>
        <time>2021-07-25T10:36:45Z</time>
      </trkpt>
      <trkpt lat="43.0246910" lon="-8.0460030">
        <ele>442.8</ele>
        <time>2021-07-25T10:36:47Z</time>
      </trkpt>
      <trkpt lat="43.0246610" lon="-8.0460680">
        <ele>443.2</ele>
        <time>2021-07-25T10:36:52Z</time>
      </trkpt>
      <trkpt lat="43.0246580" lon="-8.0460840">
        <ele>443.6</ele>
        <time>2021-07-25T10:36:53Z</time>
      </trkpt>
      <trkpt lat="43.0246540" lon="-8.0461040">
        <ele>444.0</ele>
        <time>2021-07-25T10:36:54Z</time>
      </trkpt>
      <trkpt lat="43.0246530" lon="-8.0461150">
        <ele>444.4</ele>
        <time>2021-07-25T10:36:55Z</time>
      </trkpt>
      <trkpt lat="43.0243570" lon="-8.0477020">
        <ele>459.4</ele>
        <time>2021-07-25T10:39:04Z</time>
      </trkpt>
      <trkpt lat="43.0243560" lon="-8.0477190">
        <ele>459.4</ele>
        <time>2021-07-25T10:39:05Z</time>
      </trkpt>
      <trkpt lat="43.0243560" lon="-8.0477340">
        <ele>459.4</ele>
        <time>2021-07-25T10:39:06Z</time>
      </trkpt>
      <trkpt lat="43.0243560" lon="-8.0477510">
        <ele>459.8</ele>
        <time>2021-07-25T10:39:07Z</time>
      </trkpt>
      <trkpt lat="43.0243560" lon="-8.0477680">
        <ele>460.2</ele>
        <time>2021-07-25T10:39:08Z</time>
      </trkpt>
      <trkpt lat="43.0243560" lon="-8.0477860">
        <ele>460.6</ele>
        <time>2021-07-25T10:39:09Z</time>
      </trkpt>
      <trkpt lat="43.0243570" lon="-8.0478010">
        <ele>461.2</ele>
        <time>2021-07-25T10:39:10Z</time>
      </trkpt>
      <trkpt lat="43.0243550" lon="-8.0478180">
        <ele>461.6</ele>
        <time>2021-07-25T10:39:11Z</time>
      </trkpt>
      <trkpt lat="43.0243530" lon="-8.0478550">
        <ele>461.6</ele>
        <time>2021-07-25T10:39:13Z</time>
      </trkpt>
      <trkpt lat="43.0243390" lon="-8.0479570">
        <ele>461.6</ele>
        <time>2021-07-25T10:39:20Z</time>
      </trkpt>
      <trkpt lat="43.0243360" lon="-8.0480510">
        <ele>462.0</ele>
        <time>2021-07-25T10:39:25Z</time>
      </trkpt>
      <trkpt lat="43.0243340" lon="-8.0480650">
        <ele>462.4</ele>
        <time>2021-07-25T10:39:26Z</time>
      </trkpt>
      <trkpt lat="43.0243310" lon="-8.0480840">
        <ele>462.8</ele>
        <time>2021-07-25T10:39:27Z</time>
      </trkpt>
      <trkpt lat="43.0243290" lon="-8.0481000">
        <ele>463.2</ele>
        <time>2021-07-25T10:39:28Z</time>
      </trkpt>
      <trkpt lat="43.0243260" lon="-8.0481170">
        <ele>463.6</ele>
        <time>2021-07-25T10:39:29Z</time>
      </trkpt>
      <trkpt lat="43.0243160" lon="-8.0482330">
        <ele>463.6</ele>
        <time>2021-07-25T10:39:35Z</time>
      </trkpt>
      <trkpt lat="43.0242910" lon="-8.0483630">
        <ele>463.6</ele>
        <time>2021-07-25T10:39:42Z</time>
      </trkpt>
      <trkpt lat="43.0242840" lon="-8.0483760">
        <ele>463.6</ele>
        <time>2021-07-25T10:39:44Z</time>
      </trkpt>
      <trkpt lat="43.0242770" lon="-8.0483940">
        <ele>463.6</ele>
        <time>2021-07-25T10:39:53Z</time>
      </trkpt>
      <trkpt lat="43.0242520" lon="-8.0484520">
        <ele>463.6</ele>
        <time>2021-07-25T10:39:56Z</time>
      </trkpt>
      <trkpt lat="43.0242060" lon="-8.0485510">
        <ele>464.0</ele>
        <time>2021-07-25T10:40:00Z</time>
      </trkpt>
      <trkpt lat="43.0241920" lon="-8.0485790">
        <ele>464.4</ele>
        <time>2021-07-25T10:40:01Z</time>
      </trkpt>
      <trkpt lat="43.0241780" lon="-8.0486090">
        <ele>465.0</ele>
        <time>2021-07-25T10:40:02Z</time>
      </trkpt>
      <trkpt lat="43.0241630" lon="-8.0486360">
        <ele>465.4</ele>
        <time>2021-07-25T10:40:03Z</time>
      </trkpt>
      <trkpt lat="43.0241470" lon="-8.0486650">
        <ele>465.8</ele>
        <time>2021-07-25T10:40:04Z</time>
      </trkpt>
      <trkpt lat="43.0240670" lon="-8.0488370">
        <ele>465.8</ele>
        <time>2021-07-25T10:40:09Z</time>
      </trkpt>
      <trkpt lat="43.0240300" lon="-8.0489110">
        <ele>465.8</ele>
        <time>2021-07-25T10:40:11Z</time>
      </trkpt>
      <trkpt lat="43.0239310" lon="-8.0490710">
        <ele>465.8</ele>
        <time>2021-07-25T10:40:16Z</time>
      </trkpt>
      <trkpt lat="43.0237740" lon="-8.0492470">
        <ele>465.8</ele>
        <time>2021-07-25T10:40:23Z</time>
      </trkpt>
      <trkpt lat="43.0236890" lon="-8.0493620">
        <ele>465.8</ele>
        <time>2021-07-25T10:40:27Z</time>
      </trkpt>
      <trkpt lat="43.0235360" lon="-8.0495170">
        <ele>466.2</ele>
        <time>2021-07-25T10:40:33Z</time>
      </trkpt>
      <trkpt lat="43.0235080" lon="-8.0495370">
        <ele>466.6</ele>
        <time>2021-07-25T10:40:34Z</time>
      </trkpt>
      <trkpt lat="43.0234790" lon="-8.0495610">
        <ele>467.0</ele>
        <time>2021-07-25T10:40:35Z</time>
      </trkpt>
      <trkpt lat="43.0234520" lon="-8.0495870">
        <ele>467.4</ele>
        <time>2021-07-25T10:40:36Z</time>
      </trkpt>
      <trkpt lat="43.0234280" lon="-8.0496150">
        <ele>467.8</ele>
        <time>2021-07-25T10:40:37Z</time>
      </trkpt>
      <trkpt lat="43.0233810" lon="-8.0496840">
        <ele>467.8</ele>
        <time>2021-07-25T10:40:39Z</time>
      </trkpt>
      <trkpt lat="43.0232320" lon="-8.0499000">
        <ele>467.8</ele>
        <time>2021-07-25T10:40:45Z</time>
      </trkpt>
      <trkpt lat="43.0230570" lon="-8.0501410">
        <ele>467.8</ele>
        <time>2021-07-25T10:40:52Z</time>
      </trkpt>
      <trkpt lat="43.0229100" lon="-8.0503520">
        <ele>467.8</ele>
        <time>2021-07-25T10:40:59Z</time>
      </trkpt>
      <trkpt lat="43.0227940" lon="-8.0504830">
        <ele>468.4</ele>
        <time>2021-07-25T10:41:05Z</time>
      </trkpt>
      <trkpt lat="43.0227780" lon="-8.0505020">
        <ele>468.8</ele>
        <time>2021-07-25T10:41:06Z</time>
      </trkpt>
      <trkpt lat="43.0227640" lon="-8.0505190">
        <ele>469.2</ele>
        <time>2021-07-25T10:41:07Z</time>
      </trkpt>
      <trkpt lat="43.0227520" lon="-8.0505390">
        <ele>469.6</ele>
        <time>2021-07-25T10:41:08Z</time>
      </trkpt>
      <trkpt lat="43.0227380" lon="-8.0505550">
        <ele>470.0</ele>
        <time>2021-07-25T10:41:09Z</time>
      </trkpt>
      <trkpt lat="43.0226770" lon="-8.0506330">
        <ele>470.0</ele>
        <time>2021-07-25T10:41:14Z</time>
      </trkpt>
      <trkpt lat="43.0226420" lon="-8.0506730">
        <ele>470.4</ele>
        <time>2021-07-25T10:41:17Z</time>
      </trkpt>
      <trkpt lat="43.0226340" lon="-8.0506890">
        <ele>470.8</ele>
        <time>2021-07-25T10:41:18Z</time>
      </trkpt>
      <trkpt lat="43.0226270" lon="-8.0507060">
        <ele>471.2</ele>
        <time>2021-07-25T10:41:19Z</time>
      </trkpt>
      <trkpt lat="43.0226200" lon="-8.0507210">
        <ele>471.6</ele>
        <time>2021-07-25T10:41:20Z</time>
      </trkpt>
      <trkpt lat="43.0226130" lon="-8.0507330">
        <ele>472.2</ele>
        <time>2021-07-25T10:41:21Z</time>
      </trkpt>
      <trkpt lat="43.0225550" lon="-8.0508120">
        <ele>472.6</ele>
        <time>2021-07-25T10:41:27Z</time>
      </trkpt>
      <trkpt lat="43.0225450" lon="-8.0508280">
        <ele>473.4</ele>
        <time>2021-07-25T10:41:28Z</time>
      </trkpt>
      <trkpt lat="43.0225350" lon="-8.0508440">
        <ele>473.8</ele>
        <time>2021-07-25T10:41:29Z</time>
      </trkpt>
      <trkpt lat="43.0225260" lon="-8.0508570">
        <ele>474.2</ele>
        <time>2021-07-25T10:41:30Z</time>
      </trkpt>
      <trkpt lat="43.0224840" lon="-8.0509120">
        <ele>474.2</ele>
        <time>2021-07-25T10:41:35Z</time>
      </trkpt>
      <trkpt lat="43.0224580" lon="-8.0509540">
        <ele>474.6</ele>
        <time>2021-07-25T10:41:38Z</time>
      </trkpt>
      <trkpt lat="43.0224500" lon="-8.0509660">
        <ele>475.0</ele>
        <time>2021-07-25T10:41:39Z</time>
      </trkpt>
      <trkpt lat="43.0224440" lon="-8.0509790">
        <ele>475.4</ele>
        <time>2021-07-25T10:41:40Z</time>
      </trkpt>
      <trkpt lat="43.0224350" lon="-8.0509910">
        <ele>475.8</ele>
        <time>2021-07-25T10:41:41Z</time>
      </trkpt>
      <trkpt lat="43.0224250" lon="-8.0510070">
        <ele>476.2</ele>
        <time>2021-07-25T10:41:42Z</time>
      </trkpt>
      <trkpt lat="43.0224130" lon="-8.0510250">
        <ele>476.2</ele>
        <time>2021-07-25T10:41:43Z</time>
      </trkpt>
      <trkpt lat="43.0223360" lon="-8.0511390">
        <ele>476.6</ele>
        <time>2021-07-25T10:41:51Z</time>
      </trkpt>
      <trkpt lat="43.0223270" lon="-8.0511530">
        <ele>477.6</ele>
        <time>2021-07-25T10:41:52Z</time>
      </trkpt>
      <trkpt lat="43.0223190" lon="-8.0511680">
        <ele>478.0</ele>
        <time>2021-07-25T10:41:53Z</time>
      </trkpt>
      <trkpt lat="43.0223130" lon="-8.0511870">
        <ele>478.4</ele>
        <time>2021-07-25T10:41:54Z</time>
      </trkpt>
      <trkpt lat="43.0222720" lon="-8.0512780">
        <ele>478.4</ele>
        <time>2021-07-25T10:42:00Z</time>
      </trkpt>
      <trkpt lat="43.0222520" lon="-8.0513200">
        <ele>478.8</ele>
        <time>2021-07-25T10:42:03Z</time>
      </trkpt>
      <trkpt lat="43.0222450" lon="-8.0513320">
        <ele>479.2</ele>
        <time>2021-07-25T10:42:04Z</time>
      </trkpt>
      <trkpt lat="43.0222390" lon="-8.0513440">
        <ele>479.6</ele>
        <time>2021-07-25T10:42:05Z</time>
      </trkpt>
      <trkpt lat="43.0222350" lon="-8.0513590">
        <ele>480.0</ele>
        <time>2021-07-25T10:42:06Z</time>
      </trkpt>
      <trkpt lat="43.0222270" lon="-8.0513740">
        <ele>480.4</ele>
        <time>2021-07-25T10:42:07Z</time>
      </trkpt>
      <trkpt lat="43.0221980" lon="-8.0514140">
        <ele>480.4</ele>
        <time>2021-07-25T10:42:10Z</time>
      </trkpt>
      <trkpt lat="43.0221400" lon="-8.0515200">
        <ele>480.8</ele>
        <time>2021-07-25T10:42:17Z</time>
      </trkpt>
      <trkpt lat="43.0221310" lon="-8.0515410">
        <ele>481.2</ele>
        <time>2021-07-25T10:42:18Z</time>
      </trkpt>
      <trkpt lat="43.0221220" lon="-8.0515610">
        <ele>481.8</ele>
        <time>2021-07-25T10:42:19Z</time>
      </trkpt>
      <trkpt lat="43.0221110" lon="-8.0515810">
        <ele>482.2</ele>
        <time>2021-07-25T10:42:20Z</time>
      </trkpt>
      <trkpt lat="43.0221040" lon="-8.0516020">
        <ele>482.6</ele>
        <time>2021-07-25T10:42:21Z</time>
      </trkpt>
      <trkpt lat="43.0220310" lon="-8.0517520">
        <ele>482.6</ele>
        <time>2021-07-25T10:42:29Z</time>
      </trkpt>
      <trkpt lat="43.0219790" lon="-8.0518310">
        <ele>482.6</ele>
        <time>2021-07-25T10:42:34Z</time>
      </trkpt>
      <trkpt lat="43.0219500" lon="-8.0518890">
        <ele>483.0</ele>
        <time>2021-07-25T10:42:37Z</time>
      </trkpt>
      <trkpt lat="43.0219380" lon="-8.0519060">
        <ele>483.4</ele>
        <time>2021-07-25T10:42:38Z</time>
      </trkpt>
      <trkpt lat="43.0219260" lon="-8.0519190">
        <ele>483.8</ele>
        <time>2021-07-25T10:42:39Z</time>
      </trkpt>
      <trkpt lat="43.0219100" lon="-8.0519330">
        <ele>484.2</ele>
        <time>2021-07-25T10:42:40Z</time>
      </trkpt>
      <trkpt lat="43.0218940" lon="-8.0519480">
        <ele>484.6</ele>
        <time>2021-07-25T10:42:41Z</time>
      </trkpt>
      <trkpt lat="43.0218540" lon="-8.0520110">
        <ele>484.6</ele>
        <time>2021-07-25T10:42:44Z</time>
      </trkpt>
      <trkpt lat="43.0217890" lon="-8.0521470">
        <ele>484.6</ele>
        <time>2021-07-25T10:42:50Z</time>
      </trkpt>
      <trkpt lat="43.0216760" lon="-8.0523470">
        <ele>485.0</ele>
        <time>2021-07-25T10:42:57Z</time>
      </trkpt>
      <trkpt lat="43.0216580" lon="-8.0523730">
        <ele>485.4</ele>
        <time>2021-07-25T10:42:58Z</time>
      </trkpt>
      <trkpt lat="43.0216420" lon="-8.0524030">
        <ele>486.0</ele>
        <time>2021-07-25T10:42:59Z</time>
      </trkpt>
      <trkpt lat="43.0216270" lon="-8.0524340">
        <ele>486.4</ele>
        <time>2021-07-25T10:43:00Z</time>
      </trkpt>
      <trkpt lat="43.0216110" lon="-8.0524680">
        <ele>486.8</ele>
        <time>2021-07-25T10:43:01Z</time>
      </trkpt>
      <trkpt lat="43.0215460" lon="-8.0525940">
        <ele>486.8</ele>
        <time>2021-07-25T10:43:05Z</time>
      </trkpt>
      <trkpt lat="43.0214280" lon="-8.0528630">
        <ele>486.8</ele>
        <time>2021-07-25T10:43:13Z</time>
      </trkpt>
      <trkpt lat="43.0214140" lon="-8.0528980">
        <ele>486.8</ele>
        <time>2021-07-25T10:43:14Z</time>
      </trkpt>
      <trkpt lat="43.0213450" lon="-8.0530400">
        <ele>486.8</ele>
        <time>2021-07-25T10:43:18Z</time>
      </trkpt>
      <trkpt lat="43.0212890" lon="-8.0531320">
        <ele>486.8</ele>
        <time>2021-07-25T10:43:21Z</time>
      </trkpt>
      <trkpt lat="43.0212340" lon="-8.0532140">
        <ele>486.8</ele>
        <time>2021-07-25T10:43:24Z</time>
      </trkpt>
      <trkpt lat="43.0211810" lon="-8.0533190">
        <ele>486.8</ele>
        <time>2021-07-25T10:43:27Z</time>
      </trkpt>
      <trkpt lat="43.0211350" lon="-8.0534060">
        <ele>486.8</ele>
        <time>2021-07-25T10:43:29Z</time>
      </trkpt>
      <trkpt lat="43.0210730" lon="-8.0535100">
        <ele>486.8</ele>
        <time>2021-07-25T10:43:31Z</time>
      </trkpt>
      <trkpt lat="43.0210380" lon="-8.0535650">
        <ele>486.8</ele>
        <time>2021-07-25T10:43:32Z</time>
      </trkpt>
      <trkpt lat="43.0209300" lon="-8.0537330">
        <ele>486.2</ele>
        <time>2021-07-25T10:43:35Z</time>
      </trkpt>
      <trkpt lat="43.0208950" lon="-8.0537870">
        <ele>485.8</ele>
        <time>2021-07-25T10:43:36Z</time>
      </trkpt>
      <trkpt lat="43.0208610" lon="-8.0538400">
        <ele>485.4</ele>
        <time>2021-07-25T10:43:37Z</time>
      </trkpt>
      <trkpt lat="43.0208290" lon="-8.0538910">
        <ele>485.0</ele>
        <time>2021-07-25T10:43:38Z</time>
      </trkpt>
      <trkpt lat="43.0207980" lon="-8.0539370">
        <ele>484.6</ele>
        <time>2021-07-25T10:43:39Z</time>
      </trkpt>
      <trkpt lat="43.0207690" lon="-8.0539790">
        <ele>484.2</ele>
        <time>2021-07-25T10:43:40Z</time>
      </trkpt>
      <trkpt lat="43.0207410" lon="-8.0540200">
        <ele>483.6</ele>
        <time>2021-07-25T10:43:41Z</time>
      </trkpt>
      <trkpt lat="43.0207160" lon="-8.0540580">
        <ele>483.2</ele>
        <time>2021-07-25T10:43:42Z</time>
      </trkpt>
      <trkpt lat="43.0206910" lon="-8.0540920">
        <ele>482.8</ele>
        <time>2021-07-25T10:43:43Z</time>
      </trkpt>
      <trkpt lat="43.0206630" lon="-8.0541210">
        <ele>482.4</ele>
        <time>2021-07-25T10:43:44Z</time>
      </trkpt>
      <trkpt lat="43.0206320" lon="-8.0541470">
        <ele>481.8</ele>
        <time>2021-07-25T10:43:45Z</time>
      </trkpt>
      <trkpt lat="43.0205990" lon="-8.0541700">
        <ele>481.4</ele>
        <time>2021-07-25T10:43:46Z</time>
      </trkpt>
      <trkpt lat="43.0205660" lon="-8.0541930">
        <ele>481.0</ele>
        <time>2021-07-25T10:43:47Z</time>
      </trkpt>
      <trkpt lat="43.0205340" lon="-8.0542290">
        <ele>480.4</ele>
        <time>2021-07-25T10:43:48Z</time>
      </trkpt>
      <trkpt lat="43.0205020" lon="-8.0542790">
        <ele>480.0</ele>
        <time>2021-07-25T10:43:49Z</time>
      </trkpt>
      <trkpt lat="43.0204730" lon="-8.0543350">
        <ele>479.6</ele>
        <time>2021-07-25T10:43:50Z</time>
      </trkpt>
      <trkpt lat="43.0204470" lon="-8.0543970">
        <ele>479.2</ele>
        <time>2021-07-25T10:43:51Z</time>
      </trkpt>
      <trkpt lat="43.0204220" lon="-8.0544600">
        <ele>478.6</ele>
        <time>2021-07-25T10:43:52Z</time>
      </trkpt>
      <trkpt lat="43.0203990" lon="-8.0545170">
        <ele>478.2</ele>
        <time>2021-07-25T10:43:53Z</time>
      </trkpt>
      <trkpt lat="43.0203790" lon="-8.0545760">
        <ele>477.8</ele>
        <time>2021-07-25T10:43:54Z</time>
      </trkpt>
      <trkpt lat="43.0203600" lon="-8.0546400">
        <ele>477.8</ele>
        <time>2021-07-25T10:43:55Z</time>
      </trkpt>
      <trkpt lat="43.0203420" lon="-8.0547130">
        <ele>477.4</ele>
        <time>2021-07-25T10:43:56Z</time>
      </trkpt>
      <trkpt lat="43.0203290" lon="-8.0547890">
        <ele>477.0</ele>
        <time>2021-07-25T10:43:57Z</time>
      </trkpt>
      <trkpt lat="43.0203180" lon="-8.0548700">
        <ele>476.6</ele>
        <time>2021-07-25T10:43:58Z</time>
      </trkpt>
      <trkpt lat="43.0203060" lon="-8.0549540">
        <ele>476.2</ele>
        <time>2021-07-25T10:43:59Z</time>
      </trkpt>
      <trkpt lat="43.0202980" lon="-8.0550370">
        <ele>475.8</ele>
        <time>2021-07-25T10:44:00Z</time>
      </trkpt>
      <trkpt lat="43.0202900" lon="-8.0551140">
        <ele>475.2</ele>
        <time>2021-07-25T10:44:01Z</time>
      </trkpt>
      <trkpt lat="43.0202830" lon="-8.0551830">
        <ele>474.8</ele>
        <time>2021-07-25T10:44:02Z</time>
      </trkpt>
      <trkpt lat="43.0202770" lon="-8.0552490">
        <ele>474.2</ele>
        <time>2021-07-25T10:44:03Z</time>
      </trkpt>
      <trkpt lat="43.0202730" lon="-8.0553110">
        <ele>473.8</ele>
        <time>2021-07-25T10:44:04Z</time>
      </trkpt>
      <trkpt lat="43.0202660" lon="-8.0553650">
        <ele>473.2</ele>
        <time>2021-07-25T10:44:05Z</time>
      </trkpt>
      <trkpt lat="43.0202580" lon="-8.0554130">
        <ele>472.8</ele>
        <time>2021-07-25T10:44:06Z</time>
      </trkpt>
      <trkpt lat="43.0202480" lon="-8.0554610">
        <ele>472.4</ele>
        <time>2021-07-25T10:44:07Z</time>
      </trkpt>
      <trkpt lat="43.0202410" lon="-8.0555060">
        <ele>472.0</ele>
        <time>2021-07-25T10:44:08Z</time>
      </trkpt>
      <trkpt lat="43.0202340" lon="-8.0555520">
        <ele>471.6</ele>
        <time>2021-07-25T10:44:09Z</time>
      </trkpt>
      <trkpt lat="43.0202280" lon="-8.0556000">
        <ele>471.2</ele>
        <time>2021-07-25T10:44:10Z</time>
      </trkpt>
      <trkpt lat="43.0201900" lon="-8.0557120">
        <ele>471.2</ele>
        <time>2021-07-25T10:44:13Z</time>
      </trkpt>
      <trkpt lat="43.0200690" lon="-8.0559120">
        <ele>471.2</ele>
        <time>2021-07-25T10:44:19Z</time>
      </trkpt>
      <trkpt lat="43.0200050" lon="-8.0560520">
        <ele>470.8</ele>
        <time>2021-07-25T10:44:22Z</time>
      </trkpt>
      <trkpt lat="43.0199800" lon="-8.0560960">
        <ele>470.4</ele>
        <time>2021-07-25T10:44:23Z</time>
      </trkpt>
      <trkpt lat="43.0199520" lon="-8.0561360">
        <ele>470.0</ele>
        <time>2021-07-25T10:44:24Z</time>
      </trkpt>
      <trkpt lat="43.0199210" lon="-8.0561730">
        <ele>469.6</ele>
        <time>2021-07-25T10:44:25Z</time>
      </trkpt>
      <trkpt lat="43.0198910" lon="-8.0562080">
        <ele>469.2</ele>
        <time>2021-07-25T10:44:26Z</time>
      </trkpt>
      <trkpt lat="43.0197740" lon="-8.0563360">
        <ele>469.2</ele>
        <time>2021-07-25T10:44:30Z</time>
      </trkpt>
      <trkpt lat="43.0197200" lon="-8.0563940">
        <ele>469.2</ele>
        <time>2021-07-25T10:44:32Z</time>
      </trkpt>
      <trkpt lat="43.0195550" lon="-8.0566300">
        <ele>469.2</ele>
        <time>2021-07-25T10:44:39Z</time>
      </trkpt>
      <trkpt lat="43.0194750" lon="-8.0567380">
        <ele>469.2</ele>
        <time>2021-07-25T10:44:44Z</time>
      </trkpt>
      <trkpt lat="43.0193510" lon="-8.0568820">
        <ele>469.2</ele>
        <time>2021-07-25T10:44:50Z</time>
      </trkpt>
      <trkpt lat="43.0192410" lon="-8.0570520">
        <ele>469.2</ele>
        <time>2021-07-25T10:44:54Z</time>
      </trkpt>
      <trkpt lat="43.0191650" lon="-8.0571420">
        <ele>469.2</ele>
        <time>2021-07-25T10:44:56Z</time>
      </trkpt>
      <trkpt lat="43.0190550" lon="-8.0572810">
        <ele>468.6</ele>
        <time>2021-07-25T10:44:59Z</time>
      </trkpt>
      <trkpt lat="43.0190160" lon="-8.0573300">
        <ele>468.2</ele>
        <time>2021-07-25T10:45:00Z</time>
      </trkpt>
      <trkpt lat="43.0189770" lon="-8.0573790">
        <ele>467.8</ele>
        <time>2021-07-25T10:45:01Z</time>
      </trkpt>
      <trkpt lat="43.0189370" lon="-8.0574290">
        <ele>467.4</ele>
        <time>2021-07-25T10:45:02Z</time>
      </trkpt>
      <trkpt lat="43.0188960" lon="-8.0574800">
        <ele>467.0</ele>
        <time>2021-07-25T10:45:03Z</time>
      </trkpt>
      <trkpt lat="43.0188160" lon="-8.0575770">
        <ele>467.0</ele>
        <time>2021-07-25T10:45:05Z</time>
      </trkpt>
      <trkpt lat="43.0187360" lon="-8.0576760">
        <ele>467.0</ele>
        <time>2021-07-25T10:45:07Z</time>
      </trkpt>
      <trkpt lat="43.0185850" lon="-8.0578600">
        <ele>467.0</ele>
        <time>2021-07-25T10:45:11Z</time>
      </trkpt>
      <trkpt lat="43.0184760" lon="-8.0579990">
        <ele>467.0</ele>
        <time>2021-07-25T10:45:14Z</time>
      </trkpt>
      <trkpt lat="43.0182400" lon="-8.0582900">
        <ele>467.0</ele>
        <time>2021-07-25T10:45:21Z</time>
      </trkpt>
      <trkpt lat="43.0181750" lon="-8.0583700">
        <ele>467.0</ele>
        <time>2021-07-25T10:45:23Z</time>
      </trkpt>
      <trkpt lat="43.0181060" lon="-8.0584530">
        <ele>467.0</ele>
        <time>2021-07-25T10:45:25Z</time>
      </trkpt>
      <trkpt lat="43.0179240" lon="-8.0586880">
        <ele>467.0</ele>
        <time>2021-07-25T10:45:31Z</time>
      </trkpt>
      <trkpt lat="43.0178200" lon="-8.0588130">
        <ele>467.0</ele>
        <time>2021-07-25T10:45:35Z</time>
      </trkpt>
      <trkpt lat="43.0177810" lon="-8.0588680">
        <ele>466.6</ele>
        <time>2021-07-25T10:45:37Z</time>
      </trkpt>
      <trkpt lat="43.0177690" lon="-8.0588970">
        <ele>466.2</ele>
        <time>2021-07-25T10:45:38Z</time>
      </trkpt>
      <trkpt lat="43.0177640" lon="-8.0589280">
        <ele>465.6</ele>
        <time>2021-07-25T10:45:39Z</time>
      </trkpt>
      <trkpt lat="43.0177730" lon="-8.0589550">
        <ele>465.2</ele>
        <time>2021-07-25T10:45:40Z</time>
      </trkpt>
      <trkpt lat="43.0177840" lon="-8.0589760">
        <ele>464.8</ele>
        <time>2021-07-25T10:45:41Z</time>
      </trkpt>
      <trkpt lat="43.0178290" lon="-8.0590410">
        <ele>464.8</ele>
        <time>2021-07-25T10:45:44Z</time>
      </trkpt>
      <trkpt lat="43.0178410" lon="-8.0590720">
        <ele>464.8</ele>
        <time>2021-07-25T10:45:45Z</time>
      </trkpt>
      <trkpt lat="43.0178470" lon="-8.0591120">
        <ele>464.8</ele>
        <time>2021-07-25T10:45:46Z</time>
      </trkpt>
      <trkpt lat="43.0178490" lon="-8.0591540">
        <ele>464.8</ele>
        <time>2021-07-25T10:45:47Z</time>
      </trkpt>
      <trkpt lat="43.0178460" lon="-8.0592330">
        <ele>464.8</ele>
        <time>2021-07-25T10:45:49Z</time>
      </trkpt>
      <trkpt lat="43.0178400" lon="-8.0592740">
        <ele>464.8</ele>
        <time>2021-07-25T10:45:50Z</time>
      </trkpt>
      <trkpt lat="43.0178310" lon="-8.0593180">
        <ele>464.8</ele>
        <time>2021-07-25T10:45:51Z</time>
      </trkpt>
      <trkpt lat="43.0178080" lon="-8.0594030">
        <ele>464.8</ele>
        <time>2021-07-25T10:45:53Z</time>
      </trkpt>
      <trkpt lat="43.0177540" lon="-8.0595210">
        <ele>464.8</ele>
        <time>2021-07-25T10:45:57Z</time>
      </trkpt>
      <trkpt lat="43.0176620" lon="-8.0597240">
        <ele>464.8</ele>
        <time>2021-07-25T10:46:03Z</time>
      </trkpt>
      <trkpt lat="43.0176430" lon="-8.0597570">
        <ele>464.8</ele>
        <time>2021-07-25T10:46:04Z</time>
      </trkpt>
      <trkpt lat="43.0175610" lon="-8.0599190">
        <ele>464.8</ele>
        <time>2021-07-25T10:46:09Z</time>
      </trkpt>
      <trkpt lat="43.0175520" lon="-8.0600160">
        <ele>464.8</ele>
        <time>2021-07-25T10:46:11Z</time>
      </trkpt>
      <trkpt lat="43.0175510" lon="-8.0600510">
        <ele>465.2</ele>
        <time>2021-07-25T10:46:12Z</time>
      </trkpt>
      <trkpt lat="43.0175470" lon="-8.0600840">
        <ele>465.8</ele>
        <time>2021-07-25T10:46:13Z</time>
      </trkpt>
      <trkpt lat="43.0175430" lon="-8.0601170">
        <ele>466.2</ele>
        <time>2021-07-25T10:46:14Z</time>
      </trkpt>
      <trkpt lat="43.0175360" lon="-8.0601490">
        <ele>466.6</ele>
        <time>2021-07-25T10:46:15Z</time>
      </trkpt>
      <trkpt lat="43.0175290" lon="-8.0601920">
        <ele>467.0</ele>
        <time>2021-07-25T10:46:16Z</time>
      </trkpt>
      <trkpt lat="43.0175210" lon="-8.0602320">
        <ele>467.0</ele>
        <time>2021-07-25T10:46:17Z</time>
      </trkpt>
      <trkpt lat="43.0174760" lon="-8.0604340">
        <ele>467.4</ele>
        <time>2021-07-25T10:46:23Z</time>
      </trkpt>
      <trkpt lat="43.0174680" lon="-8.0604670">
        <ele>467.8</ele>
        <time>2021-07-25T10:46:24Z</time>
      </trkpt>
      <trkpt lat="43.0174610" lon="-8.0605000">
        <ele>468.6</ele>
        <time>2021-07-25T10:46:25Z</time>
      </trkpt>
      <trkpt lat="43.0174570" lon="-8.0605350">
        <ele>469.0</ele>
        <time>2021-07-25T10:46:26Z</time>
      </trkpt>
      <trkpt lat="43.0174370" lon="-8.0606340">
        <ele>469.0</ele>
        <time>2021-07-25T10:46:29Z</time>
      </trkpt>
      <trkpt lat="43.0173540" lon="-8.0608620">
        <ele>469.0</ele>
        <time>2021-07-25T10:46:36Z</time>
      </trkpt>
      <trkpt lat="43.0173090" lon="-8.0610660">
        <ele>469.0</ele>
        <time>2021-07-25T10:46:43Z</time>
      </trkpt>
      <trkpt lat="43.0173160" lon="-8.0611460">
        <ele>469.4</ele>
        <time>2021-07-25T10:46:47Z</time>
      </trkpt>
      <trkpt lat="43.0173190" lon="-8.0611650">
        <ele>469.8</ele>
        <time>2021-07-25T10:46:48Z</time>
      </trkpt>
      <trkpt lat="43.0173250" lon="-8.0611900">
        <ele>470.4</ele>
        <time>2021-07-25T10:46:49Z</time>
      </trkpt>
      <trkpt lat="43.0173320" lon="-8.0612120">
        <ele>471.2</ele>
        <time>2021-07-25T10:46:50Z</time>
      </trkpt>
      <trkpt lat="43.0173760" lon="-8.0613300">
        <ele>471.2</ele>
        <time>2021-07-25T10:46:56Z</time>
      </trkpt>
      <trkpt lat="43.0174130" lon="-8.0614480">
        <ele>471.6</ele>
        <time>2021-07-25T10:47:02Z</time>
      </trkpt>
      <trkpt lat="43.0174150" lon="-8.0614670">
        <ele>472.0</ele>
        <time>2021-07-25T10:47:03Z</time>
      </trkpt>
      <trkpt lat="43.0174210" lon="-8.0614790">
        <ele>472.4</ele>
        <time>2021-07-25T10:47:04Z</time>
      </trkpt>
      <trkpt lat="43.0174270" lon="-8.0614700">
        <ele>472.8</ele>
        <time>2021-07-25T10:47:05Z</time>
      </trkpt>
      <trkpt lat="43.0174280" lon="-8.0614570">
        <ele>473.2</ele>
        <time>2021-07-25T10:47:06Z</time>
      </trkpt>
      <trkpt lat="43.0174220" lon="-8.0614430">
        <ele>473.2</ele>
        <time>2021-07-25T10:47:07Z</time>
      </trkpt>
      <trkpt lat="43.0173780" lon="-8.0613570">
        <ele>473.2</ele>
        <time>2021-07-25T10:47:11Z</time>
      </trkpt>
      <trkpt lat="43.0173540" lon="-8.0613110">
        <ele>473.2</ele>
        <time>2021-07-25T10:47:13Z</time>
      </trkpt>
      <trkpt lat="43.0173080" lon="-8.0611750">
        <ele>473.2</ele>
        <time>2021-07-25T10:47:18Z</time>
      </trkpt>
      <trkpt lat="43.0172980" lon="-8.0611050">
        <ele>472.8</ele>
        <time>2021-07-25T10:47:21Z</time>
      </trkpt>
      <trkpt lat="43.0173010" lon="-8.0610810">
        <ele>472.4</ele>
        <time>2021-07-25T10:47:22Z</time>
      </trkpt>
      <trkpt lat="43.0173010" lon="-8.0610590">
        <ele>472.0</ele>
        <time>2021-07-25T10:47:23Z</time>
      </trkpt>
      <trkpt lat="43.0173050" lon="-8.0610330">
        <ele>471.6</ele>
        <time>2021-07-25T10:47:24Z</time>
      </trkpt>
      <trkpt lat="43.0173080" lon="-8.0610120">
        <ele>471.2</ele>
        <time>2021-07-25T10:47:25Z</time>
      </trkpt>
      <trkpt lat="43.0173060" lon="-8.0609960">
        <ele>471.2</ele>
        <time>2021-07-25T10:47:26Z</time>
      </trkpt>
      <trkpt lat="43.0172890" lon="-8.0609920">
        <ele>471.2</ele>
        <time>2021-07-25T10:47:28Z</time>
      </trkpt>
      <trkpt lat="43.0172760" lon="-8.0610190">
        <ele>471.2</ele>
        <time>2021-07-25T10:47:30Z</time>
      </trkpt>
      <trkpt lat="43.0172750" lon="-8.0610360">
        <ele>471.2</ele>
        <time>2021-07-25T10:47:31Z</time>
      </trkpt>
      <trkpt lat="43.0172820" lon="-8.0610720">
        <ele>471.2</ele>
        <time>2021-07-25T10:47:33Z</time>
      </trkpt>
      <trkpt lat="43.0173460" lon="-8.0612120">
        <ele>471.2</ele>
        <time>2021-07-25T10:47:41Z</time>
      </trkpt>
      <trkpt lat="43.0173790" lon="-8.0612570">
        <ele>471.2</ele>
        <time>2021-07-25T10:47:43Z</time>
      </trkpt>
      <trkpt lat="43.0174130" lon="-8.0612970">
        <ele>471.6</ele>
        <time>2021-07-25T10:47:45Z</time>
      </trkpt>
      <trkpt lat="43.0174280" lon="-8.0613190">
        <ele>472.0</ele>
        <time>2021-07-25T10:47:46Z</time>
      </trkpt>
      <trkpt lat="43.0174430" lon="-8.0613370">
        <ele>472.4</ele>
        <time>2021-07-25T10:47:47Z</time>
      </trkpt>
      <trkpt lat="43.0174560" lon="-8.0613500">
        <ele>472.8</ele>
        <time>2021-07-25T10:47:48Z</time>
      </trkpt>
      <trkpt lat="43.0174680" lon="-8.0613580">
        <ele>473.4</ele>
        <time>2021-07-25T10:47:49Z</time>
      </trkpt>
      <trkpt lat="43.0174900" lon="-8.0613630">
        <ele>473.8</ele>
        <time>2021-07-25T10:47:51Z</time>
      </trkpt>
      <trkpt lat="43.0175030" lon="-8.0613580">
        <ele>474.2</ele>
        <time>2021-07-25T10:47:52Z</time>
      </trkpt>
      <trkpt lat="43.0175140" lon="-8.0613510">
        <ele>474.6</ele>
        <time>2021-07-25T10:47:53Z</time>
      </trkpt>
      <trkpt lat="43.0175260" lon="-8.0613440">
        <ele>475.2</ele>
        <time>2021-07-25T10:47:54Z</time>
      </trkpt>
      <trkpt lat="43.0175350" lon="-8.0613360">
        <ele>475.6</ele>
        <time>2021-07-25T10:47:55Z</time>
      </trkpt>
      <trkpt lat="43.0175510" lon="-8.0613020">
        <ele>475.6</ele>
        <time>2021-07-25T10:47:58Z</time>
      </trkpt>
      <trkpt lat="43.0175480" lon="-8.0612830">
        <ele>475.6</ele>
        <time>2021-07-25T10:48:00Z</time>
      </trkpt>
      <trkpt lat="43.0175710" lon="-8.0613150">
        <ele>475.6</ele>
        <time>2021-07-25T10:48:52Z</time>
      </trkpt>
      <trkpt lat="43.0175800" lon="-8.0613370">
        <ele>475.6</ele>
        <time>2021-07-25T10:48:53Z</time>
      </trkpt>
      <trkpt lat="43.0175850" lon="-8.0613610">
        <ele>475.6</ele>
        <time>2021-07-25T10:48:54Z</time>
      </trkpt>
      <trkpt lat="43.0176310" lon="-8.0614450">
        <ele>476.0</ele>
        <time>2021-07-25T10:48:58Z</time>
      </trkpt>
      <trkpt lat="43.0176470" lon="-8.0614600">
        <ele>476.4</ele>
        <time>2021-07-25T10:48:59Z</time>
      </trkpt>
      <trkpt lat="43.0176590" lon="-8.0614790">
        <ele>476.8</ele>
        <time>2021-07-25T10:49:00Z</time>
      </trkpt>
      <trkpt lat="43.0176660" lon="-8.0615020">
        <ele>477.2</ele>
        <time>2021-07-25T10:49:01Z</time>
      </trkpt>
      <trkpt lat="43.0176760" lon="-8.0615240">
        <ele>477.6</ele>
        <time>2021-07-25T10:49:02Z</time>
      </trkpt>
      <trkpt lat="43.0176920" lon="-8.0615950">
        <ele>477.6</ele>
        <time>2021-07-25T10:49:05Z</time>
      </trkpt>
      <trkpt lat="43.0176900" lon="-8.0616430">
        <ele>477.6</ele>
        <time>2021-07-25T10:49:07Z</time>
      </trkpt>
      <trkpt lat="43.0177040" lon="-8.0617680">
        <ele>477.6</ele>
        <time>2021-07-25T10:49:11Z</time>
      </trkpt>
      <trkpt lat="43.0177600" lon="-8.0619280">
        <ele>477.6</ele>
        <time>2021-07-25T10:49:16Z</time>
      </trkpt>
      <trkpt lat="43.0177750" lon="-8.0619600">
        <ele>477.6</ele>
        <time>2021-07-25T10:49:17Z</time>
      </trkpt>
      <trkpt lat="43.0178530" lon="-8.0621460">
        <ele>477.6</ele>
        <time>2021-07-25T10:49:23Z</time>
      </trkpt>
      <trkpt lat="43.0179290" lon="-8.0623570">
        <ele>477.6</ele>
        <time>2021-07-25T10:49:28Z</time>
      </trkpt>
      <trkpt lat="43.0179670" lon="-8.0624350">
        <ele>477.6</ele>
        <time>2021-07-25T10:49:30Z</time>
      </trkpt>
      <trkpt lat="43.0180330" lon="-8.0625800">
        <ele>477.6</ele>
        <time>2021-07-25T10:49:34Z</time>
      </trkpt>
      <trkpt lat="43.0180770" lon="-8.0627010">
        <ele>478.0</ele>
        <time>2021-07-25T10:49:37Z</time>
      </trkpt>
      <trkpt lat="43.0180860" lon="-8.0627410">
        <ele>478.6</ele>
        <time>2021-07-25T10:49:38Z</time>
      </trkpt>
      <trkpt lat="43.0180900" lon="-8.0627790">
        <ele>479.0</ele>
        <time>2021-07-25T10:49:39Z</time>
      </trkpt>
      <trkpt lat="43.0180960" lon="-8.0628180">
        <ele>479.4</ele>
        <time>2021-07-25T10:49:40Z</time>
      </trkpt>
      <trkpt lat="43.0181040" lon="-8.0628570">
        <ele>479.8</ele>
        <time>2021-07-25T10:49:41Z</time>
      </trkpt>
      <trkpt lat="43.0181130" lon="-8.0628990">
        <ele>479.8</ele>
        <time>2021-07-25T10:49:42Z</time>
      </trkpt>
      <trkpt lat="43.0181590" lon="-8.0631980">
        <ele>479.8</ele>
        <time>2021-07-25T10:49:49Z</time>
      </trkpt>
      <trkpt lat="43.0181940" lon="-8.0635760">
        <ele>479.8</ele>
        <time>2021-07-25T10:49:58Z</time>
      </trkpt>
      <trkpt lat="43.0182700" lon="-8.0637710">
        <ele>479.8</ele>
        <time>2021-07-25T10:50:03Z</time>
      </trkpt>
      <trkpt lat="43.0183650" lon="-8.0639470">
        <ele>479.8</ele>
        <time>2021-07-25T10:50:09Z</time>
      </trkpt>
      <trkpt lat="43.0184550" lon="-8.0641970">
        <ele>479.8</ele>
        <time>2021-07-25T10:50:16Z</time>
      </trkpt>
      <trkpt lat="43.0184540" lon="-8.0642580">
        <ele>479.8</ele>
        <time>2021-07-25T10:50:17Z</time>
      </trkpt>
      <trkpt lat="43.0184280" lon="-8.0643670">
        <ele>479.8</ele>
        <time>2021-07-25T10:50:19Z</time>
      </trkpt>
      <trkpt lat="43.0183330" lon="-8.0644990">
        <ele>479.8</ele>
        <time>2021-07-25T10:50:22Z</time>
      </trkpt>
      <trkpt lat="43.0182900" lon="-8.0645470">
        <ele>479.8</ele>
        <time>2021-07-25T10:50:23Z</time>
      </trkpt>
      <trkpt lat="43.0182400" lon="-8.0645880">
        <ele>479.8</ele>
        <time>2021-07-25T10:50:24Z</time>
      </trkpt>
      <trkpt lat="43.0181100" lon="-8.0647190">
        <ele>479.8</ele>
        <time>2021-07-25T10:50:27Z</time>
      </trkpt>
      <trkpt lat="43.0180820" lon="-8.0647760">
        <ele>479.4</ele>
        <time>2021-07-25T10:50:28Z</time>
      </trkpt>
      <trkpt lat="43.0180610" lon="-8.0648400">
        <ele>479.0</ele>
        <time>2021-07-25T10:50:29Z</time>
      </trkpt>
      <trkpt lat="43.0180510" lon="-8.0649150">
        <ele>478.6</ele>
        <time>2021-07-25T10:50:30Z</time>
      </trkpt>
      <trkpt lat="43.0180500" lon="-8.0649940">
        <ele>478.0</ele>
        <time>2021-07-25T10:50:31Z</time>
      </trkpt>
      <trkpt lat="43.0180500" lon="-8.0650700">
        <ele>476.8</ele>
        <time>2021-07-25T10:50:32Z</time>
      </trkpt>
      <trkpt lat="43.0180490" lon="-8.0651400">
        <ele>476.2</ele>
        <time>2021-07-25T10:50:33Z</time>
      </trkpt>
      <trkpt lat="43.0180490" lon="-8.0652020">
        <ele>475.6</ele>
        <time>2021-07-25T10:50:34Z</time>
      </trkpt>
      <trkpt lat="43.0180480" lon="-8.0652510">
        <ele>475.0</ele>
        <time>2021-07-25T10:50:35Z</time>
      </trkpt>
      <trkpt lat="43.0180480" lon="-8.0652910">
        <ele>474.4</ele>
        <time>2021-07-25T10:50:36Z</time>
      </trkpt>
      <trkpt lat="43.0180520" lon="-8.0653310">
        <ele>473.8</ele>
        <time>2021-07-25T10:50:37Z</time>
      </trkpt>
      <trkpt lat="43.0180620" lon="-8.0653750">
        <ele>473.2</ele>
        <time>2021-07-25T10:50:38Z</time>
      </trkpt>
      <trkpt lat="43.0180960" lon="-8.0654530">
        <ele>472.8</ele>
        <time>2021-07-25T10:50:40Z</time>
      </trkpt>
      <trkpt lat="43.0181160" lon="-8.0654910">
        <ele>472.4</ele>
        <time>2021-07-25T10:50:41Z</time>
      </trkpt>
      <trkpt lat="43.0181340" lon="-8.0655300">
        <ele>472.0</ele>
        <time>2021-07-25T10:50:42Z</time>
      </trkpt>
      <trkpt lat="43.0181510" lon="-8.0655700">
        <ele>471.6</ele>
        <time>2021-07-25T10:50:43Z</time>
      </trkpt>
      <trkpt lat="43.0181660" lon="-8.0656120">
        <ele>471.2</ele>
        <time>2021-07-25T10:50:44Z</time>
      </trkpt>
      <trkpt lat="43.0182090" lon="-8.0657640">
        <ele>471.2</ele>
        <time>2021-07-25T10:50:47Z</time>
      </trkpt>
      <trkpt lat="43.0182270" lon="-8.0658240">
        <ele>471.2</ele>
        <time>2021-07-25T10:50:48Z</time>
      </trkpt>
      <trkpt lat="43.0183150" lon="-8.0661900">
        <ele>471.2</ele>
        <time>2021-07-25T10:50:54Z</time>
      </trkpt>
      <trkpt lat="43.0183440" lon="-8.0663690">
        <ele>471.2</ele>
        <time>2021-07-25T10:50:59Z</time>
      </trkpt>
      <trkpt lat="43.0183560" lon="-8.0664500">
        <ele>471.2</ele>
        <time>2021-07-25T10:51:02Z</time>
      </trkpt>
      <trkpt lat="43.0183650" lon="-8.0665300">
        <ele>471.2</ele>
        <time>2021-07-25T10:51:05Z</time>
      </trkpt>
      <trkpt lat="43.0183730" lon="-8.0665840">
        <ele>471.2</ele>
        <time>2021-07-25T10:51:07Z</time>
      </trkpt>
      <trkpt lat="43.0183780" lon="-8.0666320">
        <ele>471.2</ele>
        <time>2021-07-25T10:51:09Z</time>
      </trkpt>
      <trkpt lat="43.0183820" lon="-8.0666550">
        <ele>471.6</ele>
        <time>2021-07-25T10:51:10Z</time>
      </trkpt>
      <trkpt lat="43.0183840" lon="-8.0666770">
        <ele>472.0</ele>
        <time>2021-07-25T10:51:11Z</time>
      </trkpt>
      <trkpt lat="43.0183840" lon="-8.0667000">
        <ele>472.4</ele>
        <time>2021-07-25T10:51:12Z</time>
      </trkpt>
      <trkpt lat="43.0183840" lon="-8.0667230">
        <ele>472.8</ele>
        <time>2021-07-25T10:51:13Z</time>
      </trkpt>
      <trkpt lat="43.0183850" lon="-8.0667440">
        <ele>473.2</ele>
        <time>2021-07-25T10:51:14Z</time>
      </trkpt>
      <trkpt lat="43.0183790" lon="-8.0667860">
        <ele>473.2</ele>
        <time>2021-07-25T10:51:16Z</time>
      </trkpt>
      <trkpt lat="43.0183740" lon="-8.0668280">
        <ele>473.2</ele>
        <time>2021-07-25T10:51:18Z</time>
      </trkpt>
      <trkpt lat="43.0183750" lon="-8.0668890">
        <ele>473.2</ele>
        <time>2021-07-25T10:51:21Z</time>
      </trkpt>
      <trkpt lat="43.0183750" lon="-8.0669090">
        <ele>473.6</ele>
        <time>2021-07-25T10:51:22Z</time>
      </trkpt>
      <trkpt lat="43.0183780" lon="-8.0669310">
        <ele>474.0</ele>
        <time>2021-07-25T10:51:23Z</time>
      </trkpt>
      <trkpt lat="43.0183800" lon="-8.0669560">
        <ele>474.4</ele>
        <time>2021-07-25T10:51:24Z</time>
      </trkpt>
      <trkpt lat="43.0183830" lon="-8.0669740">
        <ele>475.0</ele>
        <time>2021-07-25T10:51:25Z</time>
      </trkpt>
      <trkpt lat="43.0183860" lon="-8.0669880">
        <ele>475.4</ele>
        <time>2021-07-25T10:51:26Z</time>
      </trkpt>
      <trkpt lat="43.0183970" lon="-8.0670370">
        <ele>475.4</ele>
        <time>2021-07-25T10:51:29Z</time>
      </trkpt>
      <trkpt lat="43.0183990" lon="-8.0670530">
        <ele>475.8</ele>
        <time>2021-07-25T10:51:30Z</time>
      </trkpt>
      <trkpt lat="43.0184000" lon="-8.0670700">
        <ele>476.2</ele>
        <time>2021-07-25T10:51:31Z</time>
      </trkpt>
      <trkpt lat="43.0184010" lon="-8.0670900">
        <ele>476.8</ele>
        <time>2021-07-25T10:51:32Z</time>
      </trkpt>
      <trkpt lat="43.0184000" lon="-8.0671080">
        <ele>477.2</ele>
        <time>2021-07-25T10:51:33Z</time>
      </trkpt>
      <trkpt lat="43.0184000" lon="-8.0671280">
        <ele>477.6</ele>
        <time>2021-07-25T10:51:34Z</time>
      </trkpt>
      <trkpt lat="43.0183890" lon="-8.0672030">
        <ele>477.6</ele>
        <time>2021-07-25T10:51:38Z</time>
      </trkpt>
      <trkpt lat="43.0183960" lon="-8.0672750">
        <ele>478.0</ele>
        <time>2021-07-25T10:51:42Z</time>
      </trkpt>
      <trkpt lat="43.0183960" lon="-8.0672900">
        <ele>478.4</ele>
        <time>2021-07-25T10:51:43Z</time>
      </trkpt>
      <trkpt lat="43.0183940" lon="-8.0673090">
        <ele>479.0</ele>
        <time>2021-07-25T10:51:44Z</time>
      </trkpt>
      <trkpt lat="43.0183920" lon="-8.0673270">
        <ele>479.4</ele>
        <time>2021-07-25T10:51:45Z</time>
      </trkpt>
      <trkpt lat="43.0183940" lon="-8.0673440">
        <ele>479.8</ele>
        <time>2021-07-25T10:51:46Z</time>
      </trkpt>
      <trkpt lat="43.0183970" lon="-8.0673600">
        <ele>479.8</ele>
        <time>2021-07-25T10:51:47Z</time>
      </trkpt>
      <trkpt lat="43.0184060" lon="-8.0674240">
        <ele>479.8</ele>
        <time>2021-07-25T10:51:51Z</time>
      </trkpt>
      <trkpt lat="43.0184210" lon="-8.0675230">
        <ele>480.2</ele>
        <time>2021-07-25T10:51:56Z</time>
      </trkpt>
      <trkpt lat="43.0184200" lon="-8.0675430">
        <ele>480.6</ele>
        <time>2021-07-25T10:51:57Z</time>
      </trkpt>
      <trkpt lat="43.0184210" lon="-8.0675630">
        <ele>481.0</ele>
        <time>2021-07-25T10:51:58Z</time>
      </trkpt>
      <trkpt lat="43.0184200" lon="-8.0675870">
        <ele>481.4</ele>
        <time>2021-07-25T10:51:59Z</time>
      </trkpt>
      <trkpt lat="43.0184220" lon="-8.0676130">
        <ele>482.0</ele>
        <time>2021-07-25T10:52:00Z</time>
      </trkpt>
      <trkpt lat="43.0184330" lon="-8.0678000">
        <ele>482.0</ele>
        <time>2021-07-25T10:52:06Z</time>
      </trkpt>
      <trkpt lat="43.0184240" lon="-8.0679280">
        <ele>482.0</ele>
        <time>2021-07-25T10:52:12Z</time>
      </trkpt>
      <trkpt lat="43.0184210" lon="-8.0679810">
        <ele>482.0</ele>
        <time>2021-07-25T10:52:16Z</time>
      </trkpt>
      <trkpt lat="43.0184010" lon="-8.0678780">
        <ele>482.0</ele>
        <time>2021-07-25T10:57:14Z</time>
      </trkpt>
      <trkpt lat="43.0184040" lon="-8.0678520">
        <ele>482.0</ele>
        <time>2021-07-25T10:57:15Z</time>
      </trkpt>
      <trkpt lat="43.0184290" lon="-8.0675970">
        <ele>482.0</ele>
        <time>2021-07-25T10:57:22Z</time>
      </trkpt>
      <trkpt lat="43.0184100" lon="-8.0674740">
        <ele>481.4</ele>
        <time>2021-07-25T10:57:26Z</time>
      </trkpt>
      <trkpt lat="43.0183990" lon="-8.0674700">
        <ele>481.0</ele>
        <time>2021-07-25T10:57:27Z</time>
      </trkpt>
      <trkpt lat="43.0183990" lon="-8.0674650">
        <ele>480.6</ele>
        <time>2021-07-25T10:57:28Z</time>
      </trkpt>
      <trkpt lat="43.0183890" lon="-8.0674620">
        <ele>480.2</ele>
        <time>2021-07-25T10:57:29Z</time>
      </trkpt>
      <trkpt lat="43.0183810" lon="-8.0674640">
        <ele>479.8</ele>
        <time>2021-07-25T10:57:30Z</time>
      </trkpt>
      <trkpt lat="43.0183850" lon="-8.0675220">
        <ele>479.8</ele>
        <time>2021-07-25T10:57:34Z</time>
      </trkpt>
      <trkpt lat="43.0183890" lon="-8.0675490">
        <ele>479.8</ele>
        <time>2021-07-25T10:57:35Z</time>
      </trkpt>
      <trkpt lat="43.0183950" lon="-8.0676070">
        <ele>479.8</ele>
        <time>2021-07-25T10:57:37Z</time>
      </trkpt>
      <trkpt lat="43.0183960" lon="-8.0676380">
        <ele>479.8</ele>
        <time>2021-07-25T10:57:38Z</time>
      </trkpt>
      <trkpt lat="43.0183980" lon="-8.0677060">
        <ele>479.8</ele>
        <time>2021-07-25T10:57:40Z</time>
      </trkpt>
      <trkpt lat="43.0183970" lon="-8.0677970">
        <ele>479.8</ele>
        <time>2021-07-25T10:57:43Z</time>
      </trkpt>
      <trkpt lat="43.0184010" lon="-8.0679050">
        <ele>479.8</ele>
        <time>2021-07-25T10:57:47Z</time>
      </trkpt>
      <trkpt lat="43.0184040" lon="-8.0679140">
        <ele>479.8</ele>
        <time>2021-07-25T10:57:49Z</time>
      </trkpt>
      <trkpt lat="43.0183830" lon="-8.0680330">
        <ele>479.8</ele>
        <time>2021-07-25T10:58:29Z</time>
      </trkpt>
      <trkpt lat="43.0183820" lon="-8.0680600">
        <ele>479.8</ele>
        <time>2021-07-25T10:58:30Z</time>
      </trkpt>
      <trkpt lat="43.0183800" lon="-8.0680940">
        <ele>479.8</ele>
        <time>2021-07-25T10:58:31Z</time>
      </trkpt>
      <trkpt lat="43.0183480" lon="-8.0682170">
        <ele>480.2</ele>
        <time>2021-07-25T10:58:34Z</time>
      </trkpt>
      <trkpt lat="43.0183380" lon="-8.0682600">
        <ele>480.6</ele>
        <time>2021-07-25T10:58:35Z</time>
      </trkpt>
      <trkpt lat="43.0183330" lon="-8.0682980">
        <ele>481.0</ele>
        <time>2021-07-25T10:58:36Z</time>
      </trkpt>
      <trkpt lat="43.0183270" lon="-8.0683320">
        <ele>481.4</ele>
        <time>2021-07-25T10:58:37Z</time>
      </trkpt>
      <trkpt lat="43.0183270" lon="-8.0683690">
        <ele>481.8</ele>
        <time>2021-07-25T10:58:38Z</time>
      </trkpt>
      <trkpt lat="43.0183330" lon="-8.0685420">
        <ele>481.8</ele>
        <time>2021-07-25T10:58:43Z</time>
      </trkpt>
      <trkpt lat="43.0183190" lon="-8.0688900">
        <ele>481.8</ele>
        <time>2021-07-25T10:58:50Z</time>
      </trkpt>
      <trkpt lat="43.0183080" lon="-8.0690610">
        <ele>481.8</ele>
        <time>2021-07-25T10:58:54Z</time>
      </trkpt>
      <trkpt lat="43.0182930" lon="-8.0691310">
        <ele>481.8</ele>
        <time>2021-07-25T10:58:56Z</time>
      </trkpt>
      <trkpt lat="43.0182800" lon="-8.0691680">
        <ele>481.8</ele>
        <time>2021-07-25T10:58:57Z</time>
      </trkpt>
      <trkpt lat="43.0182350" lon="-8.0694770">
        <ele>481.8</ele>
        <time>2021-07-25T10:59:04Z</time>
      </trkpt>
      <trkpt lat="43.0182280" lon="-8.0696500">
        <ele>481.8</ele>
        <time>2021-07-25T10:59:07Z</time>
      </trkpt>
      <trkpt lat="43.0181970" lon="-8.0698260">
        <ele>481.8</ele>
        <time>2021-07-25T10:59:10Z</time>
      </trkpt>
      <trkpt lat="43.0181610" lon="-8.0701410">
        <ele>481.8</ele>
        <time>2021-07-25T10:59:15Z</time>
      </trkpt>
      <trkpt lat="43.0181480" lon="-8.0702900">
        <ele>481.8</ele>
        <time>2021-07-25T10:59:17Z</time>
      </trkpt>
      <trkpt lat="43.0181210" lon="-8.0704410">
        <ele>481.8</ele>
        <time>2021-07-25T10:59:19Z</time>
      </trkpt>
      <trkpt lat="43.0180840" lon="-8.0705850">
        <ele>481.4</ele>
        <time>2021-07-25T10:59:21Z</time>
      </trkpt>
      <trkpt lat="43.0180660" lon="-8.0706540">
        <ele>481.0</ele>
        <time>2021-07-25T10:59:22Z</time>
      </trkpt>
      <trkpt lat="43.0180460" lon="-8.0707210">
        <ele>480.6</ele>
        <time>2021-07-25T10:59:23Z</time>
      </trkpt>
      <trkpt lat="43.0180240" lon="-8.0707810">
        <ele>480.2</ele>
        <time>2021-07-25T10:59:24Z</time>
      </trkpt>
      <trkpt lat="43.0180000" lon="-8.0708450">
        <ele>479.8</ele>
        <time>2021-07-25T10:59:25Z</time>
      </trkpt>
      <trkpt lat="43.0179520" lon="-8.0709640">
        <ele>479.8</ele>
        <time>2021-07-25T10:59:27Z</time>
      </trkpt>
      <trkpt lat="43.0179120" lon="-8.0710740">
        <ele>479.8</ele>
        <time>2021-07-25T10:59:29Z</time>
      </trkpt>
      <trkpt lat="43.0178850" lon="-8.0711760">
        <ele>479.8</ele>
        <time>2021-07-25T10:59:31Z</time>
      </trkpt>
      <trkpt lat="43.0178700" lon="-8.0712170">
        <ele>479.8</ele>
        <time>2021-07-25T10:59:32Z</time>
      </trkpt>
      <trkpt lat="43.0178310" lon="-8.0712910">
        <ele>479.8</ele>
        <time>2021-07-25T10:59:34Z</time>
      </trkpt>
      <trkpt lat="43.0177780" lon="-8.0713620">
        <ele>479.2</ele>
        <time>2021-07-25T10:59:36Z</time>
      </trkpt>
      <trkpt lat="43.0177510" lon="-8.0713960">
        <ele>478.8</ele>
        <time>2021-07-25T10:59:37Z</time>
      </trkpt>
      <trkpt lat="43.0177070" lon="-8.0714280">
        <ele>478.4</ele>
        <time>2021-07-25T10:59:38Z</time>
      </trkpt>
      <trkpt lat="43.0176700" lon="-8.0714590">
        <ele>478.0</ele>
        <time>2021-07-25T10:59:39Z</time>
      </trkpt>
      <trkpt lat="43.0176150" lon="-8.0714960">
        <ele>477.6</ele>
        <time>2021-07-25T10:59:40Z</time>
      </trkpt>
      <trkpt lat="43.0175650" lon="-8.0715200">
        <ele>477.6</ele>
        <time>2021-07-25T10:59:41Z</time>
      </trkpt>
      <trkpt lat="43.0174500" lon="-8.0715740">
        <ele>477.6</ele>
        <time>2021-07-25T10:59:43Z</time>
      </trkpt>
      <trkpt lat="43.0173950" lon="-8.0715990">
        <ele>477.2</ele>
        <time>2021-07-25T10:59:44Z</time>
      </trkpt>
      <trkpt lat="43.0173420" lon="-8.0716290">
        <ele>476.6</ele>
        <time>2021-07-25T10:59:45Z</time>
      </trkpt>
      <trkpt lat="43.0172920" lon="-8.0716560">
        <ele>476.2</ele>
        <time>2021-07-25T10:59:46Z</time>
      </trkpt>
      <trkpt lat="43.0172420" lon="-8.0716890">
        <ele>475.8</ele>
        <time>2021-07-25T10:59:47Z</time>
      </trkpt>
      <trkpt lat="43.0171990" lon="-8.0717240">
        <ele>475.4</ele>
        <time>2021-07-25T10:59:48Z</time>
      </trkpt>
      <trkpt lat="43.0171580" lon="-8.0717550">
        <ele>475.4</ele>
        <time>2021-07-25T10:59:49Z</time>
      </trkpt>
      <trkpt lat="43.0171160" lon="-8.0717880">
        <ele>475.0</ele>
        <time>2021-07-25T10:59:50Z</time>
      </trkpt>
      <trkpt lat="43.0170770" lon="-8.0718180">
        <ele>474.6</ele>
        <time>2021-07-25T10:59:51Z</time>
      </trkpt>
      <trkpt lat="43.0170280" lon="-8.0718610">
        <ele>474.2</ele>
        <time>2021-07-25T10:59:52Z</time>
      </trkpt>
      <trkpt lat="43.0169780" lon="-8.0719040">
        <ele>473.6</ele>
        <time>2021-07-25T10:59:53Z</time>
      </trkpt>
      <trkpt lat="43.0169200" lon="-8.0719480">
        <ele>473.2</ele>
        <time>2021-07-25T10:59:54Z</time>
      </trkpt>
      <trkpt lat="43.0168600" lon="-8.0719850">
        <ele>473.2</ele>
        <time>2021-07-25T10:59:55Z</time>
      </trkpt>
      <trkpt lat="43.0168050" lon="-8.0720300">
        <ele>472.8</ele>
        <time>2021-07-25T10:59:56Z</time>
      </trkpt>
      <trkpt lat="43.0167580" lon="-8.0720860">
        <ele>472.4</ele>
        <time>2021-07-25T10:59:57Z</time>
      </trkpt>
      <trkpt lat="43.0167100" lon="-8.0721490">
        <ele>472.0</ele>
        <time>2021-07-25T10:59:58Z</time>
      </trkpt>
      <trkpt lat="43.0166650" lon="-8.0722260">
        <ele>471.6</ele>
        <time>2021-07-25T10:59:59Z</time>
      </trkpt>
      <trkpt lat="43.0166260" lon="-8.0723090">
        <ele>470.4</ele>
        <time>2021-07-25T11:00:00Z</time>
      </trkpt>
      <trkpt lat="43.0165930" lon="-8.0724030">
        <ele>470.0</ele>
        <time>2021-07-25T11:00:01Z</time>
      </trkpt>
      <trkpt lat="43.0165690" lon="-8.0725040">
        <ele>469.4</ele>
        <time>2021-07-25T11:00:02Z</time>
      </trkpt>
      <trkpt lat="43.0165500" lon="-8.0725970">
        <ele>468.8</ele>
        <time>2021-07-25T11:00:03Z</time>
      </trkpt>
      <trkpt lat="43.0165400" lon="-8.0726940">
        <ele>468.8</ele>
        <time>2021-07-25T11:00:04Z</time>
      </trkpt>
      <trkpt lat="43.0165280" lon="-8.0727860">
        <ele>468.4</ele>
        <time>2021-07-25T11:00:05Z</time>
      </trkpt>
      <trkpt lat="43.0165110" lon="-8.0728820">
        <ele>467.8</ele>
        <time>2021-07-25T11:00:06Z</time>
      </trkpt>
      <trkpt lat="43.0164930" lon="-8.0729800">
        <ele>467.4</ele>
        <time>2021-07-25T11:00:07Z</time>
      </trkpt>
      <trkpt lat="43.0164770" lon="-8.0730820">
        <ele>466.8</ele>
        <time>2021-07-25T11:00:08Z</time>
      </trkpt>
      <trkpt lat="43.0164570" lon="-8.0731950">
        <ele>466.2</ele>
        <time>2021-07-25T11:00:09Z</time>
      </trkpt>
      <trkpt lat="43.0164330" lon="-8.0733050">
        <ele>465.6</ele>
        <time>2021-07-25T11:00:10Z</time>
      </trkpt>
      <trkpt lat="43.0164150" lon="-8.0734100">
        <ele>465.2</ele>
        <time>2021-07-25T11:00:11Z</time>
      </trkpt>
      <trkpt lat="43.0164000" lon="-8.0735230">
        <ele>464.6</ele>
        <time>2021-07-25T11:00:12Z</time>
      </trkpt>
      <trkpt lat="43.0163820" lon="-8.0736290">
        <ele>464.0</ele>
        <time>2021-07-25T11:00:13Z</time>
      </trkpt>
      <trkpt lat="43.0163640" lon="-8.0737310">
        <ele>463.6</ele>
        <time>2021-07-25T11:00:14Z</time>
      </trkpt>
      <trkpt lat="43.0163450" lon="-8.0738300">
        <ele>463.0</ele>
        <time>2021-07-25T11:00:15Z</time>
      </trkpt>
      <trkpt lat="43.0163280" lon="-8.0739290">
        <ele>462.6</ele>
        <time>2021-07-25T11:00:16Z</time>
      </trkpt>
      <trkpt lat="43.0163140" lon="-8.0740160">
        <ele>462.2</ele>
        <time>2021-07-25T11:00:17Z</time>
      </trkpt>
      <trkpt lat="43.0162980" lon="-8.0740950">
        <ele>461.6</ele>
        <time>2021-07-25T11:00:18Z</time>
      </trkpt>
      <trkpt lat="43.0162830" lon="-8.0741660">
        <ele>461.0</ele>
        <time>2021-07-25T11:00:19Z</time>
      </trkpt>
      <trkpt lat="43.0162680" lon="-8.0742360">
        <ele>460.4</ele>
        <time>2021-07-25T11:00:20Z</time>
      </trkpt>
      <trkpt lat="43.0162600" lon="-8.0743110">
        <ele>459.8</ele>
        <time>2021-07-25T11:00:21Z</time>
      </trkpt>
      <trkpt lat="43.0162490" lon="-8.0743920">
        <ele>459.2</ele>
        <time>2021-07-25T11:00:22Z</time>
      </trkpt>
      <trkpt lat="43.0162340" lon="-8.0744780">
        <ele>458.8</ele>
        <time>2021-07-25T11:00:23Z</time>
      </trkpt>
      <trkpt lat="43.0162190" lon="-8.0745660">
        <ele>457.6</ele>
        <time>2021-07-25T11:00:24Z</time>
      </trkpt>
      <trkpt lat="43.0162020" lon="-8.0746520">
        <ele>457.0</ele>
        <time>2021-07-25T11:00:25Z</time>
      </trkpt>
      <trkpt lat="43.0161890" lon="-8.0747340">
        <ele>456.6</ele>
        <time>2021-07-25T11:00:26Z</time>
      </trkpt>
      <trkpt lat="43.0161750" lon="-8.0748120">
        <ele>456.0</ele>
        <time>2021-07-25T11:00:27Z</time>
      </trkpt>
      <trkpt lat="43.0161620" lon="-8.0748840">
        <ele>455.6</ele>
        <time>2021-07-25T11:00:28Z</time>
      </trkpt>
      <trkpt lat="43.0161540" lon="-8.0749440">
        <ele>455.2</ele>
        <time>2021-07-25T11:00:29Z</time>
      </trkpt>
      <trkpt lat="43.0161490" lon="-8.0749970">
        <ele>454.6</ele>
        <time>2021-07-25T11:00:30Z</time>
      </trkpt>
      <trkpt lat="43.0161460" lon="-8.0750470">
        <ele>454.0</ele>
        <time>2021-07-25T11:00:31Z</time>
      </trkpt>
      <trkpt lat="43.0161510" lon="-8.0751040">
        <ele>453.4</ele>
        <time>2021-07-25T11:00:32Z</time>
      </trkpt>
      <trkpt lat="43.0161560" lon="-8.0751610">
        <ele>452.8</ele>
        <time>2021-07-25T11:00:33Z</time>
      </trkpt>
      <trkpt lat="43.0161610" lon="-8.0752200">
        <ele>452.2</ele>
        <time>2021-07-25T11:00:34Z</time>
      </trkpt>
      <trkpt lat="43.0161680" lon="-8.0752780">
        <ele>451.6</ele>
        <time>2021-07-25T11:00:35Z</time>
      </trkpt>
      <trkpt lat="43.0161770" lon="-8.0753430">
        <ele>451.2</ele>
        <time>2021-07-25T11:00:36Z</time>
      </trkpt>
      <trkpt lat="43.0161880" lon="-8.0754100">
        <ele>450.8</ele>
        <time>2021-07-25T11:00:37Z</time>
      </trkpt>
      <trkpt lat="43.0162070" lon="-8.0754760">
        <ele>450.4</ele>
        <time>2021-07-25T11:00:38Z</time>
      </trkpt>
      <trkpt lat="43.0162290" lon="-8.0755430">
        <ele>449.8</ele>
        <time>2021-07-25T11:00:39Z</time>
      </trkpt>
      <trkpt lat="43.0162590" lon="-8.0756610">
        <ele>449.4</ele>
        <time>2021-07-25T11:00:41Z</time>
      </trkpt>
      <trkpt lat="43.0162700" lon="-8.0757140">
        <ele>448.8</ele>
        <time>2021-07-25T11:00:42Z</time>
      </trkpt>
      <trkpt lat="43.0162840" lon="-8.0757700">
        <ele>448.4</ele>
        <time>2021-07-25T11:00:43Z</time>
      </trkpt>
      <trkpt lat="43.0162970" lon="-8.0758240">
        <ele>447.8</ele>
        <time>2021-07-25T11:00:44Z</time>
      </trkpt>
      <trkpt lat="43.0163070" lon="-8.0758800">
        <ele>447.4</ele>
        <time>2021-07-25T11:00:45Z</time>
      </trkpt>
      <trkpt lat="43.0163140" lon="-8.0759390">
        <ele>447.0</ele>
        <time>2021-07-25T11:00:46Z</time>
      </trkpt>
      <trkpt lat="43.0163240" lon="-8.0760000">
        <ele>446.6</ele>
        <time>2021-07-25T11:00:47Z</time>
      </trkpt>
      <trkpt lat="43.0163290" lon="-8.0760620">
        <ele>446.0</ele>
        <time>2021-07-25T11:00:48Z</time>
      </trkpt>
      <trkpt lat="43.0163340" lon="-8.0761160">
        <ele>445.2</ele>
        <time>2021-07-25T11:00:49Z</time>
      </trkpt>
      <trkpt lat="43.0163250" lon="-8.0762100">
        <ele>444.8</ele>
        <time>2021-07-25T11:00:51Z</time>
      </trkpt>
      <trkpt lat="43.0163170" lon="-8.0762600">
        <ele>444.2</ele>
        <time>2021-07-25T11:00:52Z</time>
      </trkpt>
      <trkpt lat="43.0163070" lon="-8.0763150">
        <ele>443.8</ele>
        <time>2021-07-25T11:00:53Z</time>
      </trkpt>
      <trkpt lat="43.0162950" lon="-8.0763740">
        <ele>443.2</ele>
        <time>2021-07-25T11:00:54Z</time>
      </trkpt>
      <trkpt lat="43.0162850" lon="-8.0764270">
        <ele>442.8</ele>
        <time>2021-07-25T11:00:55Z</time>
      </trkpt>
      <trkpt lat="43.0162730" lon="-8.0764740">
        <ele>442.4</ele>
        <time>2021-07-25T11:00:56Z</time>
      </trkpt>
      <trkpt lat="43.0162650" lon="-8.0765210">
        <ele>442.0</ele>
        <time>2021-07-25T11:00:57Z</time>
      </trkpt>
      <trkpt lat="43.0162650" lon="-8.0765670">
        <ele>441.6</ele>
        <time>2021-07-25T11:00:58Z</time>
      </trkpt>
      <trkpt lat="43.0162680" lon="-8.0766060">
        <ele>441.2</ele>
        <time>2021-07-25T11:00:59Z</time>
      </trkpt>
      <trkpt lat="43.0162720" lon="-8.0766520">
        <ele>440.8</ele>
        <time>2021-07-25T11:01:00Z</time>
      </trkpt>
      <trkpt lat="43.0162810" lon="-8.0768370">
        <ele>440.4</ele>
        <time>2021-07-25T11:01:03Z</time>
      </trkpt>
      <trkpt lat="43.0162890" lon="-8.0768910">
        <ele>439.8</ele>
        <time>2021-07-25T11:01:04Z</time>
      </trkpt>
      <trkpt lat="43.0163010" lon="-8.0769440">
        <ele>439.4</ele>
        <time>2021-07-25T11:01:05Z</time>
      </trkpt>
      <trkpt lat="43.0163200" lon="-8.0769990">
        <ele>439.0</ele>
        <time>2021-07-25T11:01:06Z</time>
      </trkpt>
      <trkpt lat="43.0163480" lon="-8.0770420">
        <ele>438.4</ele>
        <time>2021-07-25T11:01:07Z</time>
      </trkpt>
      <trkpt lat="43.0163830" lon="-8.0770750">
        <ele>438.0</ele>
        <time>2021-07-25T11:01:08Z</time>
      </trkpt>
      <trkpt lat="43.0164300" lon="-8.0771060">
        <ele>437.6</ele>
        <time>2021-07-25T11:01:09Z</time>
      </trkpt>
      <trkpt lat="43.0164760" lon="-8.0771300">
        <ele>437.2</ele>
        <time>2021-07-25T11:01:10Z</time>
      </trkpt>
      <trkpt lat="43.0165240" lon="-8.0771570">
        <ele>436.8</ele>
        <time>2021-07-25T11:01:11Z</time>
      </trkpt>
      <trkpt lat="43.0165690" lon="-8.0771840">
        <ele>436.4</ele>
        <time>2021-07-25T11:01:12Z</time>
      </trkpt>
      <trkpt lat="43.0166100" lon="-8.0772170">
        <ele>436.4</ele>
        <time>2021-07-25T11:01:13Z</time>
      </trkpt>
      <trkpt lat="43.0167610" lon="-8.0773740">
        <ele>436.4</ele>
        <time>2021-07-25T11:01:17Z</time>
      </trkpt>
      <trkpt lat="43.0168760" lon="-8.0776010">
        <ele>436.4</ele>
        <time>2021-07-25T11:01:21Z</time>
      </trkpt>
      <trkpt lat="43.0168900" lon="-8.0776760">
        <ele>436.4</ele>
        <time>2021-07-25T11:01:22Z</time>
      </trkpt>
      <trkpt lat="43.0169040" lon="-8.0779290">
        <ele>436.0</ele>
        <time>2021-07-25T11:01:25Z</time>
      </trkpt>
      <trkpt lat="43.0169030" lon="-8.0780110">
        <ele>435.4</ele>
        <time>2021-07-25T11:01:26Z</time>
      </trkpt>
      <trkpt lat="43.0169050" lon="-8.0780890">
        <ele>435.0</ele>
        <time>2021-07-25T11:01:27Z</time>
      </trkpt>
      <trkpt lat="43.0169070" lon="-8.0781650">
        <ele>434.4</ele>
        <time>2021-07-25T11:01:28Z</time>
      </trkpt>
      <trkpt lat="43.0169100" lon="-8.0782390">
        <ele>434.0</ele>
        <time>2021-07-25T11:01:29Z</time>
      </trkpt>
      <trkpt lat="43.0169210" lon="-8.0784340">
        <ele>434.0</ele>
        <time>2021-07-25T11:01:32Z</time>
      </trkpt>
      <trkpt lat="43.0169070" lon="-8.0787300">
        <ele>434.0</ele>
        <time>2021-07-25T11:01:38Z</time>
      </trkpt>
      <trkpt lat="43.0168890" lon="-8.0788270">
        <ele>434.0</ele>
        <time>2021-07-25T11:01:40Z</time>
      </trkpt>
      <trkpt lat="43.0168720" lon="-8.0789150">
        <ele>434.0</ele>
        <time>2021-07-25T11:01:42Z</time>
      </trkpt>
      <trkpt lat="43.0168390" lon="-8.0790450">
        <ele>434.0</ele>
        <time>2021-07-25T11:01:45Z</time>
      </trkpt>
      <trkpt lat="43.0167280" lon="-8.0792510">
        <ele>434.0</ele>
        <time>2021-07-25T11:01:51Z</time>
      </trkpt>
      <trkpt lat="43.0166450" lon="-8.0792690">
        <ele>433.6</ele>
        <time>2021-07-25T11:01:53Z</time>
      </trkpt>
      <trkpt lat="43.0166030" lon="-8.0792770">
        <ele>433.2</ele>
        <time>2021-07-25T11:01:54Z</time>
      </trkpt>
      <trkpt lat="43.0165610" lon="-8.0792940">
        <ele>432.8</ele>
        <time>2021-07-25T11:01:55Z</time>
      </trkpt>
      <trkpt lat="43.0165200" lon="-8.0793130">
        <ele>432.4</ele>
        <time>2021-07-25T11:01:56Z</time>
      </trkpt>
      <trkpt lat="43.0164780" lon="-8.0793350">
        <ele>432.0</ele>
        <time>2021-07-25T11:01:57Z</time>
      </trkpt>
      <trkpt lat="43.0163890" lon="-8.0793760">
        <ele>432.0</ele>
        <time>2021-07-25T11:01:59Z</time>
      </trkpt>
      <trkpt lat="43.0163440" lon="-8.0793890">
        <ele>432.0</ele>
        <time>2021-07-25T11:02:00Z</time>
      </trkpt>
      <trkpt lat="43.0162530" lon="-8.0794160">
        <ele>432.0</ele>
        <time>2021-07-25T11:02:02Z</time>
      </trkpt>
      <trkpt lat="43.0161720" lon="-8.0794630">
        <ele>432.0</ele>
        <time>2021-07-25T11:02:04Z</time>
      </trkpt>
      <trkpt lat="43.0161040" lon="-8.0795370">
        <ele>431.4</ele>
        <time>2021-07-25T11:02:06Z</time>
      </trkpt>
      <trkpt lat="43.0160740" lon="-8.0795640">
        <ele>431.0</ele>
        <time>2021-07-25T11:02:07Z</time>
      </trkpt>
      <trkpt lat="43.0160490" lon="-8.0795900">
        <ele>430.6</ele>
        <time>2021-07-25T11:02:08Z</time>
      </trkpt>
      <trkpt lat="43.0160250" lon="-8.0796140">
        <ele>430.2</ele>
        <time>2021-07-25T11:02:09Z</time>
      </trkpt>
      <trkpt lat="43.0160010" lon="-8.0796430">
        <ele>429.6</ele>
        <time>2021-07-25T11:02:10Z</time>
      </trkpt>
      <trkpt lat="43.0159880" lon="-8.0796820">
        <ele>429.2</ele>
        <time>2021-07-25T11:02:11Z</time>
      </trkpt>
      <trkpt lat="43.0159760" lon="-8.0797230">
        <ele>428.8</ele>
        <time>2021-07-25T11:02:12Z</time>
      </trkpt>
      <trkpt lat="43.0159710" lon="-8.0797730">
        <ele>428.4</ele>
        <time>2021-07-25T11:02:13Z</time>
      </trkpt>
      <trkpt lat="43.0159700" lon="-8.0798320">
        <ele>428.0</ele>
        <time>2021-07-25T11:02:14Z</time>
      </trkpt>
      <trkpt lat="43.0159700" lon="-8.0798930">
        <ele>427.6</ele>
        <time>2021-07-25T11:02:15Z</time>
      </trkpt>
      <trkpt lat="43.0159720" lon="-8.0799590">
        <ele>427.6</ele>
        <time>2021-07-25T11:02:16Z</time>
      </trkpt>
      <trkpt lat="43.0159820" lon="-8.0802280">
        <ele>427.0</ele>
        <time>2021-07-25T11:02:20Z</time>
      </trkpt>
      <trkpt lat="43.0159980" lon="-8.0802940">
        <ele>426.6</ele>
        <time>2021-07-25T11:02:21Z</time>
      </trkpt>
      <trkpt lat="43.0160230" lon="-8.0803630">
        <ele>426.2</ele>
        <time>2021-07-25T11:02:22Z</time>
      </trkpt>
      <trkpt lat="43.0160550" lon="-8.0804350">
        <ele>425.8</ele>
        <time>2021-07-25T11:02:23Z</time>
      </trkpt>
      <trkpt lat="43.0160850" lon="-8.0804980">
        <ele>425.2</ele>
        <time>2021-07-25T11:02:24Z</time>
      </trkpt>
      <trkpt lat="43.0161510" lon="-8.0806190">
        <ele>424.8</ele>
        <time>2021-07-25T11:02:26Z</time>
      </trkpt>
      <trkpt lat="43.0161830" lon="-8.0806800">
        <ele>424.4</ele>
        <time>2021-07-25T11:02:27Z</time>
      </trkpt>
      <trkpt lat="43.0162080" lon="-8.0807400">
        <ele>423.6</ele>
        <time>2021-07-25T11:02:28Z</time>
      </trkpt>
      <trkpt lat="43.0162320" lon="-8.0808050">
        <ele>423.2</ele>
        <time>2021-07-25T11:02:29Z</time>
      </trkpt>
      <trkpt lat="43.0163250" lon="-8.0810800">
        <ele>423.2</ele>
        <time>2021-07-25T11:02:33Z</time>
      </trkpt>
      <trkpt lat="43.0163550" lon="-8.0812250">
        <ele>422.8</ele>
        <time>2021-07-25T11:02:35Z</time>
      </trkpt>
      <trkpt lat="43.0163670" lon="-8.0812940">
        <ele>422.4</ele>
        <time>2021-07-25T11:02:36Z</time>
      </trkpt>
      <trkpt lat="43.0163800" lon="-8.0813560">
        <ele>422.0</ele>
        <time>2021-07-25T11:02:37Z</time>
      </trkpt>
      <trkpt lat="43.0163870" lon="-8.0814060">
        <ele>421.6</ele>
        <time>2021-07-25T11:02:38Z</time>
      </trkpt>
      <trkpt lat="43.0163910" lon="-8.0814430">
        <ele>421.2</ele>
        <time>2021-07-25T11:02:39Z</time>
      </trkpt>
      <trkpt lat="43.0163990" lon="-8.0814600">
        <ele>421.2</ele>
        <time>2021-07-25T11:02:40Z</time>
      </trkpt>
      <trkpt lat="43.0164040" lon="-8.0814770">
        <ele>420.8</ele>
        <time>2021-07-25T11:02:41Z</time>
      </trkpt>
      <trkpt lat="43.0164130" lon="-8.0814950">
        <ele>420.4</ele>
        <time>2021-07-25T11:02:42Z</time>
      </trkpt>
      <trkpt lat="43.0164220" lon="-8.0815220">
        <ele>420.0</ele>
        <time>2021-07-25T11:02:43Z</time>
      </trkpt>
      <trkpt lat="43.0164330" lon="-8.0815490">
        <ele>419.4</ele>
        <time>2021-07-25T11:02:44Z</time>
      </trkpt>
      <trkpt lat="43.0164430" lon="-8.0815810">
        <ele>419.0</ele>
        <time>2021-07-25T11:02:45Z</time>
      </trkpt>
      <trkpt lat="43.0164570" lon="-8.0816210">
        <ele>419.0</ele>
        <time>2021-07-25T11:02:46Z</time>
      </trkpt>
      <trkpt lat="43.0164850" lon="-8.0817240">
        <ele>419.0</ele>
        <time>2021-07-25T11:02:48Z</time>
      </trkpt>
      <trkpt lat="43.0165170" lon="-8.0819010">
        <ele>419.0</ele>
        <time>2021-07-25T11:02:51Z</time>
      </trkpt>
      <trkpt lat="43.0165410" lon="-8.0820420">
        <ele>419.0</ele>
        <time>2021-07-25T11:02:53Z</time>
      </trkpt>
      <trkpt lat="43.0165560" lon="-8.0822620">
        <ele>419.0</ele>
        <time>2021-07-25T11:02:56Z</time>
      </trkpt>
      <trkpt lat="43.0165540" lon="-8.0823370">
        <ele>419.0</ele>
        <time>2021-07-25T11:02:57Z</time>
      </trkpt>
      <trkpt lat="43.0165520" lon="-8.0823990">
        <ele>418.6</ele>
        <time>2021-07-25T11:02:58Z</time>
      </trkpt>
      <trkpt lat="43.0165480" lon="-8.0824380">
        <ele>418.2</ele>
        <time>2021-07-25T11:02:59Z</time>
      </trkpt>
      <trkpt lat="43.0165430" lon="-8.0824820">
        <ele>417.8</ele>
        <time>2021-07-25T11:03:00Z</time>
      </trkpt>
      <trkpt lat="43.0165320" lon="-8.0825200">
        <ele>417.2</ele>
        <time>2021-07-25T11:03:01Z</time>
      </trkpt>
      <trkpt lat="43.0165260" lon="-8.0825620">
        <ele>416.8</ele>
        <time>2021-07-25T11:03:02Z</time>
      </trkpt>
      <trkpt lat="43.0165030" lon="-8.0826510">
        <ele>416.8</ele>
        <time>2021-07-25T11:03:04Z</time>
      </trkpt>
      <trkpt lat="43.0164790" lon="-8.0827330">
        <ele>416.8</ele>
        <time>2021-07-25T11:03:06Z</time>
      </trkpt>
      <trkpt lat="43.0164710" lon="-8.0827760">
        <ele>416.8</ele>
        <time>2021-07-25T11:03:07Z</time>
      </trkpt>
      <trkpt lat="43.0164710" lon="-8.0828270">
        <ele>416.8</ele>
        <time>2021-07-25T11:03:09Z</time>
      </trkpt>
      <trkpt lat="43.0164690" lon="-8.0828720">
        <ele>416.8</ele>
        <time>2021-07-25T11:03:11Z</time>
      </trkpt>
      <trkpt lat="43.0164480" lon="-8.0829770">
        <ele>416.8</ele>
        <time>2021-07-25T11:03:18Z</time>
      </trkpt>
      <trkpt lat="43.0164440" lon="-8.0830270">
        <ele>416.8</ele>
        <time>2021-07-25T11:03:20Z</time>
      </trkpt>
      <trkpt lat="43.0164450" lon="-8.0830870">
        <ele>416.8</ele>
        <time>2021-07-25T11:03:22Z</time>
      </trkpt>
      <trkpt lat="43.0164480" lon="-8.0831510">
        <ele>416.8</ele>
        <time>2021-07-25T11:03:24Z</time>
      </trkpt>
      <trkpt lat="43.0164360" lon="-8.0832310">
        <ele>416.8</ele>
        <time>2021-07-25T11:03:26Z</time>
      </trkpt>
      <trkpt lat="43.0164280" lon="-8.0833180">
        <ele>416.8</ele>
        <time>2021-07-25T11:03:28Z</time>
      </trkpt>
      <trkpt lat="43.0164150" lon="-8.0834420">
        <ele>416.8</ele>
        <time>2021-07-25T11:03:31Z</time>
      </trkpt>
      <trkpt lat="43.0164140" lon="-8.0835100">
        <ele>416.8</ele>
        <time>2021-07-25T11:03:32Z</time>
      </trkpt>
      <trkpt lat="43.0164200" lon="-8.0837050">
        <ele>416.8</ele>
        <time>2021-07-25T11:03:35Z</time>
      </trkpt>
      <trkpt lat="43.0164490" lon="-8.0838770">
        <ele>416.8</ele>
        <time>2021-07-25T11:03:39Z</time>
      </trkpt>
      <trkpt lat="43.0164540" lon="-8.0839100">
        <ele>416.8</ele>
        <time>2021-07-25T11:03:40Z</time>
      </trkpt>
      <trkpt lat="43.0164620" lon="-8.0839430">
        <ele>417.2</ele>
        <time>2021-07-25T11:03:41Z</time>
      </trkpt>
      <trkpt lat="43.0164670" lon="-8.0839760">
        <ele>417.6</ele>
        <time>2021-07-25T11:03:42Z</time>
      </trkpt>
      <trkpt lat="43.0164770" lon="-8.0840110">
        <ele>418.0</ele>
        <time>2021-07-25T11:03:43Z</time>
      </trkpt>
      <trkpt lat="43.0164820" lon="-8.0840350">
        <ele>418.6</ele>
        <time>2021-07-25T11:03:44Z</time>
      </trkpt>
      <trkpt lat="43.0164860" lon="-8.0840740">
        <ele>419.0</ele>
        <time>2021-07-25T11:03:45Z</time>
      </trkpt>
      <trkpt lat="43.0164810" lon="-8.0841460">
        <ele>419.0</ele>
        <time>2021-07-25T11:03:47Z</time>
      </trkpt>
      <trkpt lat="43.0164310" lon="-8.0843630">
        <ele>419.0</ele>
        <time>2021-07-25T11:03:53Z</time>
      </trkpt>
      <trkpt lat="43.0163620" lon="-8.0846910">
        <ele>419.0</ele>
        <time>2021-07-25T11:04:00Z</time>
      </trkpt>
      <trkpt lat="43.0162820" lon="-8.0849120">
        <ele>419.0</ele>
        <time>2021-07-25T11:04:05Z</time>
      </trkpt>
      <trkpt lat="43.0162650" lon="-8.0849570">
        <ele>419.0</ele>
        <time>2021-07-25T11:04:06Z</time>
      </trkpt>
      <trkpt lat="43.0162460" lon="-8.0850830">
        <ele>419.0</ele>
        <time>2021-07-25T11:04:09Z</time>
      </trkpt>
      <trkpt lat="43.0162470" lon="-8.0851200">
        <ele>418.6</ele>
        <time>2021-07-25T11:04:10Z</time>
      </trkpt>
      <trkpt lat="43.0162460" lon="-8.0851660">
        <ele>418.2</ele>
        <time>2021-07-25T11:04:11Z</time>
      </trkpt>
      <trkpt lat="43.0162500" lon="-8.0852220">
        <ele>417.6</ele>
        <time>2021-07-25T11:04:12Z</time>
      </trkpt>
      <trkpt lat="43.0162510" lon="-8.0852770">
        <ele>417.2</ele>
        <time>2021-07-25T11:04:13Z</time>
      </trkpt>
      <trkpt lat="43.0162500" lon="-8.0853290">
        <ele>416.8</ele>
        <time>2021-07-25T11:04:14Z</time>
      </trkpt>
      <trkpt lat="43.0162520" lon="-8.0854310">
        <ele>416.8</ele>
        <time>2021-07-25T11:04:16Z</time>
      </trkpt>
      <trkpt lat="43.0162530" lon="-8.0854830">
        <ele>416.4</ele>
        <time>2021-07-25T11:04:17Z</time>
      </trkpt>
      <trkpt lat="43.0162550" lon="-8.0855260">
        <ele>416.0</ele>
        <time>2021-07-25T11:04:18Z</time>
      </trkpt>
      <trkpt lat="43.0162560" lon="-8.0855800">
        <ele>415.6</ele>
        <time>2021-07-25T11:04:19Z</time>
      </trkpt>
      <trkpt lat="43.0162580" lon="-8.0856400">
        <ele>415.0</ele>
        <time>2021-07-25T11:04:20Z</time>
      </trkpt>
      <trkpt lat="43.0162640" lon="-8.0856970">
        <ele>414.6</ele>
        <time>2021-07-25T11:04:21Z</time>
      </trkpt>
      <trkpt lat="43.0162720" lon="-8.0857440">
        <ele>414.2</ele>
        <time>2021-07-25T11:04:22Z</time>
      </trkpt>
      <trkpt lat="43.0162780" lon="-8.0857930">
        <ele>413.8</ele>
        <time>2021-07-25T11:04:23Z</time>
      </trkpt>
      <trkpt lat="43.0162860" lon="-8.0858420">
        <ele>413.4</ele>
        <time>2021-07-25T11:04:24Z</time>
      </trkpt>
      <trkpt lat="43.0163000" lon="-8.0858950">
        <ele>413.0</ele>
        <time>2021-07-25T11:04:25Z</time>
      </trkpt>
      <trkpt lat="43.0163170" lon="-8.0859390">
        <ele>412.4</ele>
        <time>2021-07-25T11:04:26Z</time>
      </trkpt>
      <trkpt lat="43.0163560" lon="-8.0860370">
        <ele>412.0</ele>
        <time>2021-07-25T11:04:28Z</time>
      </trkpt>
      <trkpt lat="43.0163730" lon="-8.0860820">
        <ele>411.6</ele>
        <time>2021-07-25T11:04:29Z</time>
      </trkpt>
      <trkpt lat="43.0163920" lon="-8.0861170">
        <ele>410.8</ele>
        <time>2021-07-25T11:04:30Z</time>
      </trkpt>
      <trkpt lat="43.0164110" lon="-8.0861630">
        <ele>410.4</ele>
        <time>2021-07-25T11:04:31Z</time>
      </trkpt>
      <trkpt lat="43.0164300" lon="-8.0862170">
        <ele>410.0</ele>
        <time>2021-07-25T11:04:32Z</time>
      </trkpt>
      <trkpt lat="43.0164440" lon="-8.0862780">
        <ele>409.6</ele>
        <time>2021-07-25T11:04:33Z</time>
      </trkpt>
      <trkpt lat="43.0164600" lon="-8.0863470">
        <ele>409.2</ele>
        <time>2021-07-25T11:04:34Z</time>
      </trkpt>
      <trkpt lat="43.0164780" lon="-8.0864230">
        <ele>408.8</ele>
        <time>2021-07-25T11:04:35Z</time>
      </trkpt>
      <trkpt lat="43.0164940" lon="-8.0864940">
        <ele>408.4</ele>
        <time>2021-07-25T11:04:36Z</time>
      </trkpt>
      <trkpt lat="43.0165390" lon="-8.0866370">
        <ele>407.8</ele>
        <time>2021-07-25T11:04:38Z</time>
      </trkpt>
      <trkpt lat="43.0165610" lon="-8.0867090">
        <ele>407.4</ele>
        <time>2021-07-25T11:04:39Z</time>
      </trkpt>
      <trkpt lat="43.0165780" lon="-8.0867840">
        <ele>407.0</ele>
        <time>2021-07-25T11:04:40Z</time>
      </trkpt>
      <trkpt lat="43.0165920" lon="-8.0868610">
        <ele>406.6</ele>
        <time>2021-07-25T11:04:41Z</time>
      </trkpt>
      <trkpt lat="43.0166060" lon="-8.0869400">
        <ele>406.2</ele>
        <time>2021-07-25T11:04:42Z</time>
      </trkpt>
      <trkpt lat="43.0166200" lon="-8.0871210">
        <ele>406.2</ele>
        <time>2021-07-25T11:04:44Z</time>
      </trkpt>
      <trkpt lat="43.0166520" lon="-8.0874040">
        <ele>406.2</ele>
        <time>2021-07-25T11:04:47Z</time>
      </trkpt>
      <trkpt lat="43.0166600" lon="-8.0875000">
        <ele>405.8</ele>
        <time>2021-07-25T11:04:48Z</time>
      </trkpt>
      <trkpt lat="43.0166690" lon="-8.0875980">
        <ele>405.4</ele>
        <time>2021-07-25T11:04:49Z</time>
      </trkpt>
      <trkpt lat="43.0166780" lon="-8.0876910">
        <ele>404.8</ele>
        <time>2021-07-25T11:04:50Z</time>
      </trkpt>
      <trkpt lat="43.0166850" lon="-8.0877870">
        <ele>404.4</ele>
        <time>2021-07-25T11:04:51Z</time>
      </trkpt>
      <trkpt lat="43.0166940" lon="-8.0878870">
        <ele>403.8</ele>
        <time>2021-07-25T11:04:52Z</time>
      </trkpt>
      <trkpt lat="43.0167040" lon="-8.0879860">
        <ele>403.0</ele>
        <time>2021-07-25T11:04:53Z</time>
      </trkpt>
      <trkpt lat="43.0167150" lon="-8.0880800">
        <ele>402.4</ele>
        <time>2021-07-25T11:04:54Z</time>
      </trkpt>
      <trkpt lat="43.0167270" lon="-8.0881680">
        <ele>402.0</ele>
        <time>2021-07-25T11:04:55Z</time>
      </trkpt>
      <trkpt lat="43.0167370" lon="-8.0882510">
        <ele>401.2</ele>
        <time>2021-07-25T11:04:56Z</time>
      </trkpt>
      <trkpt lat="43.0167460" lon="-8.0883340">
        <ele>400.6</ele>
        <time>2021-07-25T11:04:57Z</time>
      </trkpt>
      <trkpt lat="43.0167570" lon="-8.0884130">
        <ele>400.0</ele>
        <time>2021-07-25T11:04:58Z</time>
      </trkpt>
      <trkpt lat="43.0167710" lon="-8.0884880">
        <ele>399.2</ele>
        <time>2021-07-25T11:04:59Z</time>
      </trkpt>
      <trkpt lat="43.0167760" lon="-8.0885660">
        <ele>398.6</ele>
        <time>2021-07-25T11:05:00Z</time>
      </trkpt>
      <trkpt lat="43.0167820" lon="-8.0886490">
        <ele>398.0</ele>
        <time>2021-07-25T11:05:01Z</time>
      </trkpt>
      <trkpt lat="43.0167850" lon="-8.0887330">
        <ele>397.2</ele>
        <time>2021-07-25T11:05:02Z</time>
      </trkpt>
      <trkpt lat="43.0167910" lon="-8.0888200">
        <ele>396.6</ele>
        <time>2021-07-25T11:05:03Z</time>
      </trkpt>
      <trkpt lat="43.0167930" lon="-8.0889100">
        <ele>396.6</ele>
        <time>2021-07-25T11:05:04Z</time>
      </trkpt>
      <trkpt lat="43.0168120" lon="-8.0891620">
        <ele>396.2</ele>
        <time>2021-07-25T11:05:07Z</time>
      </trkpt>
      <trkpt lat="43.0168150" lon="-8.0892410">
        <ele>395.8</ele>
        <time>2021-07-25T11:05:08Z</time>
      </trkpt>
      <trkpt lat="43.0168210" lon="-8.0893250">
        <ele>395.2</ele>
        <time>2021-07-25T11:05:09Z</time>
      </trkpt>
      <trkpt lat="43.0168290" lon="-8.0894040">
        <ele>394.8</ele>
        <time>2021-07-25T11:05:10Z</time>
      </trkpt>
      <trkpt lat="43.0168320" lon="-8.0894770">
        <ele>394.4</ele>
        <time>2021-07-25T11:05:11Z</time>
      </trkpt>
      <trkpt lat="43.0168380" lon="-8.0895540">
        <ele>394.4</ele>
        <time>2021-07-25T11:05:12Z</time>
      </trkpt>
      <trkpt lat="43.0168590" lon="-8.0898420">
        <ele>394.4</ele>
        <time>2021-07-25T11:05:16Z</time>
      </trkpt>
      <trkpt lat="43.0168810" lon="-8.0900380">
        <ele>394.4</ele>
        <time>2021-07-25T11:05:19Z</time>
      </trkpt>
      <trkpt lat="43.0168960" lon="-8.0901620">
        <ele>394.0</ele>
        <time>2021-07-25T11:05:21Z</time>
      </trkpt>
      <trkpt lat="43.0169040" lon="-8.0902200">
        <ele>393.6</ele>
        <time>2021-07-25T11:05:22Z</time>
      </trkpt>
      <trkpt lat="43.0169120" lon="-8.0902800">
        <ele>393.2</ele>
        <time>2021-07-25T11:05:23Z</time>
      </trkpt>
      <trkpt lat="43.0169210" lon="-8.0903320">
        <ele>392.8</ele>
        <time>2021-07-25T11:05:24Z</time>
      </trkpt>
      <trkpt lat="43.0169270" lon="-8.0903850">
        <ele>392.4</ele>
        <time>2021-07-25T11:05:25Z</time>
      </trkpt>
      <trkpt lat="43.0169240" lon="-8.0904810">
        <ele>392.4</ele>
        <time>2021-07-25T11:05:27Z</time>
      </trkpt>
      <trkpt lat="43.0169000" lon="-8.0905110">
        <ele>392.4</ele>
        <time>2021-07-25T11:05:28Z</time>
      </trkpt>
      <trkpt lat="43.0168340" lon="-8.0905430">
        <ele>392.4</ele>
        <time>2021-07-25T11:05:30Z</time>
      </trkpt>
      <trkpt lat="43.0168000" lon="-8.0905580">
        <ele>392.4</ele>
        <time>2021-07-25T11:05:31Z</time>
      </trkpt>
      <trkpt lat="43.0166100" lon="-8.0905810">
        <ele>392.4</ele>
        <time>2021-07-25T11:05:36Z</time>
      </trkpt>
      <trkpt lat="43.0163150" lon="-8.0906240">
        <ele>392.4</ele>
        <time>2021-07-25T11:05:44Z</time>
      </trkpt>
      <trkpt lat="43.0161480" lon="-8.0906490">
        <ele>392.4</ele>
        <time>2021-07-25T11:05:49Z</time>
      </trkpt>
      <trkpt lat="43.0160680" lon="-8.0906610">
        <ele>392.4</ele>
        <time>2021-07-25T11:05:51Z</time>
      </trkpt>
      <trkpt lat="43.0159890" lon="-8.0906700">
        <ele>392.4</ele>
        <time>2021-07-25T11:05:53Z</time>
      </trkpt>
      <trkpt lat="43.0159160" lon="-8.0906830">
        <ele>392.4</ele>
        <time>2021-07-25T11:05:55Z</time>
      </trkpt>
      <trkpt lat="43.0158520" lon="-8.0907000">
        <ele>391.8</ele>
        <time>2021-07-25T11:05:57Z</time>
      </trkpt>
      <trkpt lat="43.0158210" lon="-8.0907070">
        <ele>391.4</ele>
        <time>2021-07-25T11:05:58Z</time>
      </trkpt>
      <trkpt lat="43.0157900" lon="-8.0907140">
        <ele>391.0</ele>
        <time>2021-07-25T11:05:59Z</time>
      </trkpt>
      <trkpt lat="43.0157540" lon="-8.0907190">
        <ele>390.6</ele>
        <time>2021-07-25T11:06:00Z</time>
      </trkpt>
      <trkpt lat="43.0157220" lon="-8.0907260">
        <ele>390.2</ele>
        <time>2021-07-25T11:06:01Z</time>
      </trkpt>
      <trkpt lat="43.0156480" lon="-8.0907350">
        <ele>390.2</ele>
        <time>2021-07-25T11:06:03Z</time>
      </trkpt>
      <trkpt lat="43.0155650" lon="-8.0907520">
        <ele>390.2</ele>
        <time>2021-07-25T11:06:06Z</time>
      </trkpt>
      <trkpt lat="43.0154160" lon="-8.0907980">
        <ele>390.2</ele>
        <time>2021-07-25T11:06:11Z</time>
      </trkpt>
      <trkpt lat="43.0152540" lon="-8.0908160">
        <ele>390.2</ele>
        <time>2021-07-25T11:06:15Z</time>
      </trkpt>
      <trkpt lat="43.0152150" lon="-8.0908220">
        <ele>390.2</ele>
        <time>2021-07-25T11:06:16Z</time>
      </trkpt>
      <trkpt lat="43.0151370" lon="-8.0908290">
        <ele>390.2</ele>
        <time>2021-07-25T11:06:18Z</time>
      </trkpt>
      <trkpt lat="43.0150350" lon="-8.0908620">
        <ele>390.2</ele>
        <time>2021-07-25T11:06:21Z</time>
      </trkpt>
      <trkpt lat="43.0149790" lon="-8.0908840">
        <ele>390.2</ele>
        <time>2021-07-25T11:06:23Z</time>
      </trkpt>
      <trkpt lat="43.0148610" lon="-8.0909000">
        <ele>390.2</ele>
        <time>2021-07-25T11:06:27Z</time>
      </trkpt>
      <trkpt lat="43.0148300" lon="-8.0909080">
        <ele>390.6</ele>
        <time>2021-07-25T11:06:28Z</time>
      </trkpt>
      <trkpt lat="43.0147970" lon="-8.0909160">
        <ele>391.0</ele>
        <time>2021-07-25T11:06:29Z</time>
      </trkpt>
      <trkpt lat="43.0147620" lon="-8.0909200">
        <ele>391.4</ele>
        <time>2021-07-25T11:06:30Z</time>
      </trkpt>
      <trkpt lat="43.0147270" lon="-8.0909220">
        <ele>391.8</ele>
        <time>2021-07-25T11:06:31Z</time>
      </trkpt>
      <trkpt lat="43.0146930" lon="-8.0909220">
        <ele>392.2</ele>
        <time>2021-07-25T11:06:32Z</time>
      </trkpt>
      <trkpt lat="43.0145330" lon="-8.0909510">
        <ele>392.2</ele>
        <time>2021-07-25T11:06:37Z</time>
      </trkpt>
      <trkpt lat="43.0143220" lon="-8.0910110">
        <ele>392.2</ele>
        <time>2021-07-25T11:06:44Z</time>
      </trkpt>
      <trkpt lat="43.0141320" lon="-8.0910460">
        <ele>392.2</ele>
        <time>2021-07-25T11:06:50Z</time>
      </trkpt>
      <trkpt lat="43.0140660" lon="-8.0911110">
        <ele>392.2</ele>
        <time>2021-07-25T11:06:53Z</time>
      </trkpt>
      <trkpt lat="43.0140600" lon="-8.0911650">
        <ele>392.2</ele>
        <time>2021-07-25T11:06:55Z</time>
      </trkpt>
      <trkpt lat="43.0140550" lon="-8.0912280">
        <ele>392.2</ele>
        <time>2021-07-25T11:06:57Z</time>
      </trkpt>
      <trkpt lat="43.0140780" lon="-8.0914270">
        <ele>392.2</ele>
        <time>2021-07-25T11:07:01Z</time>
      </trkpt>
      <trkpt lat="43.0141280" lon="-8.0918090">
        <ele>392.2</ele>
        <time>2021-07-25T11:07:07Z</time>
      </trkpt>
      <trkpt lat="43.0141570" lon="-8.0920020">
        <ele>392.2</ele>
        <time>2021-07-25T11:07:10Z</time>
      </trkpt>
      <trkpt lat="43.0141740" lon="-8.0921290">
        <ele>392.2</ele>
        <time>2021-07-25T11:07:12Z</time>
      </trkpt>
      <trkpt lat="43.0141870" lon="-8.0922550">
        <ele>392.2</ele>
        <time>2021-07-25T11:07:14Z</time>
      </trkpt>
      <trkpt lat="43.0141960" lon="-8.0923180">
        <ele>392.2</ele>
        <time>2021-07-25T11:07:15Z</time>
      </trkpt>
      <trkpt lat="43.0142100" lon="-8.0924470">
        <ele>392.2</ele>
        <time>2021-07-25T11:07:17Z</time>
      </trkpt>
      <trkpt lat="43.0142600" lon="-8.0928350">
        <ele>392.2</ele>
        <time>2021-07-25T11:07:23Z</time>
      </trkpt>
      <trkpt lat="43.0143140" lon="-8.0932560">
        <ele>392.2</ele>
        <time>2021-07-25T11:07:30Z</time>
      </trkpt>
      <trkpt lat="43.0143300" lon="-8.0934500">
        <ele>392.2</ele>
        <time>2021-07-25T11:07:33Z</time>
      </trkpt>
      <trkpt lat="43.0143510" lon="-8.0936450">
        <ele>392.2</ele>
        <time>2021-07-25T11:07:36Z</time>
      </trkpt>
      <trkpt lat="43.0143650" lon="-8.0937800">
        <ele>392.2</ele>
        <time>2021-07-25T11:07:38Z</time>
      </trkpt>
      <trkpt lat="43.0143960" lon="-8.0940510">
        <ele>392.2</ele>
        <time>2021-07-25T11:07:42Z</time>
      </trkpt>
      <trkpt lat="43.0144390" lon="-8.0944460">
        <ele>392.2</ele>
        <time>2021-07-25T11:07:48Z</time>
      </trkpt>
      <trkpt lat="43.0145000" lon="-8.0950090">
        <ele>392.2</ele>
        <time>2021-07-25T11:07:56Z</time>
      </trkpt>
      <trkpt lat="43.0145440" lon="-8.0953580">
        <ele>392.2</ele>
        <time>2021-07-25T11:08:01Z</time>
      </trkpt>
      <trkpt lat="43.0145780" lon="-8.0955660">
        <ele>392.2</ele>
        <time>2021-07-25T11:08:04Z</time>
      </trkpt>
      <trkpt lat="43.0145870" lon="-8.0956360">
        <ele>392.2</ele>
        <time>2021-07-25T11:08:05Z</time>
      </trkpt>
      <trkpt lat="43.0146020" lon="-8.0957780">
        <ele>392.2</ele>
        <time>2021-07-25T11:08:07Z</time>
      </trkpt>
      <trkpt lat="43.0146220" lon="-8.0960390">
        <ele>392.2</ele>
        <time>2021-07-25T11:08:11Z</time>
      </trkpt>
      <trkpt lat="43.0146300" lon="-8.0961030">
        <ele>392.2</ele>
        <time>2021-07-25T11:08:12Z</time>
      </trkpt>
      <trkpt lat="43.0146500" lon="-8.0962940">
        <ele>391.8</ele>
        <time>2021-07-25T11:08:15Z</time>
      </trkpt>
      <trkpt lat="43.0146570" lon="-8.0963600">
        <ele>391.4</ele>
        <time>2021-07-25T11:08:16Z</time>
      </trkpt>
      <trkpt lat="43.0146630" lon="-8.0964300">
        <ele>391.0</ele>
        <time>2021-07-25T11:08:17Z</time>
      </trkpt>
      <trkpt lat="43.0146690" lon="-8.0964970">
        <ele>390.6</ele>
        <time>2021-07-25T11:08:18Z</time>
      </trkpt>
      <trkpt lat="43.0146750" lon="-8.0965670">
        <ele>390.2</ele>
        <time>2021-07-25T11:08:19Z</time>
      </trkpt>
      <trkpt lat="43.0146820" lon="-8.0966400">
        <ele>390.2</ele>
        <time>2021-07-25T11:08:20Z</time>
      </trkpt>
      <trkpt lat="43.0146880" lon="-8.0967210">
        <ele>390.2</ele>
        <time>2021-07-25T11:08:21Z</time>
      </trkpt>
      <trkpt lat="43.0147040" lon="-8.0968760">
        <ele>390.2</ele>
        <time>2021-07-25T11:08:23Z</time>
      </trkpt>
      <trkpt lat="43.0147490" lon="-8.0972050">
        <ele>390.2</ele>
        <time>2021-07-25T11:08:27Z</time>
      </trkpt>
      <trkpt lat="43.0148320" lon="-8.0978680">
        <ele>390.2</ele>
        <time>2021-07-25T11:08:35Z</time>
      </trkpt>
      <trkpt lat="43.0148390" lon="-8.0979450">
        <ele>390.2</ele>
        <time>2021-07-25T11:08:36Z</time>
      </trkpt>
      <trkpt lat="43.0149040" lon="-8.0984730">
        <ele>390.2</ele>
        <time>2021-07-25T11:08:43Z</time>
      </trkpt>
      <trkpt lat="43.0149510" lon="-8.0987880">
        <ele>390.2</ele>
        <time>2021-07-25T11:08:48Z</time>
      </trkpt>
      <trkpt lat="43.0149640" lon="-8.0988910">
        <ele>390.2</ele>
        <time>2021-07-25T11:08:50Z</time>
      </trkpt>
      <trkpt lat="43.0149940" lon="-8.0990810">
        <ele>390.2</ele>
        <time>2021-07-25T11:08:54Z</time>
      </trkpt>
      <trkpt lat="43.0150110" lon="-8.0992720">
        <ele>390.2</ele>
        <time>2021-07-25T11:08:58Z</time>
      </trkpt>
      <trkpt lat="43.0150250" lon="-8.0995970">
        <ele>390.6</ele>
        <time>2021-07-25T11:09:04Z</time>
      </trkpt>
      <trkpt lat="43.0150320" lon="-8.0996510">
        <ele>391.0</ele>
        <time>2021-07-25T11:09:05Z</time>
      </trkpt>
      <trkpt lat="43.0150420" lon="-8.0997080">
        <ele>391.4</ele>
        <time>2021-07-25T11:09:06Z</time>
      </trkpt>
      <trkpt lat="43.0150470" lon="-8.0997730">
        <ele>391.8</ele>
        <time>2021-07-25T11:09:07Z</time>
      </trkpt>
      <trkpt lat="43.0150550" lon="-8.0998340">
        <ele>392.2</ele>
        <time>2021-07-25T11:09:08Z</time>
      </trkpt>
      <trkpt lat="43.0150760" lon="-8.1000260">
        <ele>392.2</ele>
        <time>2021-07-25T11:09:11Z</time>
      </trkpt>
      <trkpt lat="43.0151330" lon="-8.1004430">
        <ele>392.2</ele>
        <time>2021-07-25T11:09:17Z</time>
      </trkpt>
      <trkpt lat="43.0151920" lon="-8.1008890">
        <ele>392.2</ele>
        <time>2021-07-25T11:09:25Z</time>
      </trkpt>
      <trkpt lat="43.0152220" lon="-8.1011090">
        <ele>392.6</ele>
        <time>2021-07-25T11:09:30Z</time>
      </trkpt>
      <trkpt lat="43.0152250" lon="-8.1011500">
        <ele>393.0</ele>
        <time>2021-07-25T11:09:31Z</time>
      </trkpt>
      <trkpt lat="43.0152280" lon="-8.1011900">
        <ele>393.4</ele>
        <time>2021-07-25T11:09:32Z</time>
      </trkpt>
      <trkpt lat="43.0152320" lon="-8.1012230">
        <ele>393.8</ele>
        <time>2021-07-25T11:09:33Z</time>
      </trkpt>
      <trkpt lat="43.0152380" lon="-8.1012600">
        <ele>394.2</ele>
        <time>2021-07-25T11:09:34Z</time>
      </trkpt>
      <trkpt lat="43.0152670" lon="-8.1014720">
        <ele>394.2</ele>
        <time>2021-07-25T11:09:39Z</time>
      </trkpt>
      <trkpt lat="43.0152930" lon="-8.1016510">
        <ele>394.6</ele>
        <time>2021-07-25T11:09:44Z</time>
      </trkpt>
      <trkpt lat="43.0152990" lon="-8.1016900">
        <ele>395.0</ele>
        <time>2021-07-25T11:09:45Z</time>
      </trkpt>
      <trkpt lat="43.0153030" lon="-8.1017290">
        <ele>395.4</ele>
        <time>2021-07-25T11:09:46Z</time>
      </trkpt>
      <trkpt lat="43.0153080" lon="-8.1017660">
        <ele>395.8</ele>
        <time>2021-07-25T11:09:47Z</time>
      </trkpt>
      <trkpt lat="43.0153090" lon="-8.1018050">
        <ele>396.2</ele>
        <time>2021-07-25T11:09:48Z</time>
      </trkpt>
      <trkpt lat="43.0153230" lon="-8.1021020">
        <ele>396.2</ele>
        <time>2021-07-25T11:09:55Z</time>
      </trkpt>
      <trkpt lat="43.0153520" lon="-8.1024730">
        <ele>396.2</ele>
        <time>2021-07-25T11:10:01Z</time>
      </trkpt>
      <trkpt lat="43.0153850" lon="-8.1027620">
        <ele>396.2</ele>
        <time>2021-07-25T11:10:05Z</time>
      </trkpt>
      <trkpt lat="43.0154080" lon="-8.1029230">
        <ele>396.2</ele>
        <time>2021-07-25T11:10:07Z</time>
      </trkpt>
      <trkpt lat="43.0154400" lon="-8.1031640">
        <ele>396.2</ele>
        <time>2021-07-25T11:10:10Z</time>
      </trkpt>
      <trkpt lat="43.0154610" lon="-8.1033330">
        <ele>396.2</ele>
        <time>2021-07-25T11:10:12Z</time>
      </trkpt>
      <trkpt lat="43.0154810" lon="-8.1035070">
        <ele>396.2</ele>
        <time>2021-07-25T11:10:14Z</time>
      </trkpt>
      <trkpt lat="43.0154960" lon="-8.1035980">
        <ele>396.2</ele>
        <time>2021-07-25T11:10:15Z</time>
      </trkpt>
      <trkpt lat="43.0155160" lon="-8.1037800">
        <ele>396.2</ele>
        <time>2021-07-25T11:10:17Z</time>
      </trkpt>
      <trkpt lat="43.0155240" lon="-8.1038720">
        <ele>395.8</ele>
        <time>2021-07-25T11:10:18Z</time>
      </trkpt>
      <trkpt lat="43.0155360" lon="-8.1039590">
        <ele>395.4</ele>
        <time>2021-07-25T11:10:19Z</time>
      </trkpt>
      <trkpt lat="43.0155500" lon="-8.1040440">
        <ele>395.0</ele>
        <time>2021-07-25T11:10:20Z</time>
      </trkpt>
      <trkpt lat="43.0155630" lon="-8.1041330">
        <ele>394.6</ele>
        <time>2021-07-25T11:10:21Z</time>
      </trkpt>
      <trkpt lat="43.0155730" lon="-8.1042220">
        <ele>394.2</ele>
        <time>2021-07-25T11:10:22Z</time>
      </trkpt>
      <trkpt lat="43.0156150" lon="-8.1047550">
        <ele>394.2</ele>
        <time>2021-07-25T11:10:29Z</time>
      </trkpt>
      <trkpt lat="43.0156230" lon="-8.1049160">
        <ele>394.2</ele>
        <time>2021-07-25T11:10:32Z</time>
      </trkpt>
      <trkpt lat="43.0156240" lon="-8.1050040">
        <ele>394.2</ele>
        <time>2021-07-25T11:10:34Z</time>
      </trkpt>
      <trkpt lat="43.0156170" lon="-8.1053170">
        <ele>394.2</ele>
        <time>2021-07-25T11:10:41Z</time>
      </trkpt>
      <trkpt lat="43.0156260" lon="-8.1055170">
        <ele>394.2</ele>
        <time>2021-07-25T11:10:47Z</time>
      </trkpt>
      <trkpt lat="43.0156350" lon="-8.1055280">
        <ele>394.2</ele>
        <time>2021-07-25T11:10:48Z</time>
      </trkpt>
      <trkpt lat="43.0156290" lon="-8.1055240">
        <ele>394.2</ele>
        <time>2021-07-25T11:10:50Z</time>
      </trkpt>
      <trkpt lat="43.0156420" lon="-8.1055400">
        <ele>394.2</ele>
        <time>2021-07-25T11:11:01Z</time>
      </trkpt>
      <trkpt lat="43.0156580" lon="-8.1055550">
        <ele>394.2</ele>
        <time>2021-07-25T11:11:02Z</time>
      </trkpt>
      <trkpt lat="43.0157350" lon="-8.1055680">
        <ele>394.2</ele>
        <time>2021-07-25T11:11:05Z</time>
      </trkpt>
      <trkpt lat="43.0157710" lon="-8.1055650">
        <ele>394.2</ele>
        <time>2021-07-25T11:11:06Z</time>
      </trkpt>
      <trkpt lat="43.0158860" lon="-8.1055440">
        <ele>394.2</ele>
        <time>2021-07-25T11:11:09Z</time>
      </trkpt>
      <trkpt lat="43.0160090" lon="-8.1055240">
        <ele>394.2</ele>
        <time>2021-07-25T11:11:12Z</time>
      </trkpt>
      <trkpt lat="43.0160550" lon="-8.1055170">
        <ele>394.2</ele>
        <time>2021-07-25T11:11:13Z</time>
      </trkpt>
      <trkpt lat="43.0163270" lon="-8.1054400">
        <ele>394.2</ele>
        <time>2021-07-25T11:11:20Z</time>
      </trkpt>
      <trkpt lat="43.0163660" lon="-8.1054310">
        <ele>394.2</ele>
        <time>2021-07-25T11:11:21Z</time>
      </trkpt>
      <trkpt lat="43.0164880" lon="-8.1054220">
        <ele>394.2</ele>
        <time>2021-07-25T11:11:24Z</time>
      </trkpt>
      <trkpt lat="43.0165990" lon="-8.1054000">
        <ele>394.2</ele>
        <time>2021-07-25T11:11:27Z</time>
      </trkpt>
      <trkpt lat="43.0167020" lon="-8.1053710">
        <ele>394.2</ele>
        <time>2021-07-25T11:11:30Z</time>
      </trkpt>
      <trkpt lat="43.0168470" lon="-8.1053730">
        <ele>394.2</ele>
        <time>2021-07-25T11:11:34Z</time>
      </trkpt>
      <trkpt lat="43.0169250" lon="-8.1055400">
        <ele>394.2</ele>
        <time>2021-07-25T11:11:38Z</time>
      </trkpt>
      <trkpt lat="43.0168820" lon="-8.1056210">
        <ele>394.2</ele>
        <time>2021-07-25T11:11:41Z</time>
      </trkpt>
      <trkpt lat="43.0168580" lon="-8.1056330">
        <ele>394.2</ele>
        <time>2021-07-25T11:11:42Z</time>
      </trkpt>
      <trkpt lat="43.0167850" lon="-8.1056800">
        <ele>394.2</ele>
        <time>2021-07-25T11:11:46Z</time>
      </trkpt>
      <trkpt lat="43.0167520" lon="-8.1056660">
        <ele>394.2</ele>
        <time>2021-07-25T11:16:12Z</time>
      </trkpt>
      <trkpt lat="43.0167330" lon="-8.1056530">
        <ele>394.2</ele>
        <time>2021-07-25T11:16:13Z</time>
      </trkpt>
      <trkpt lat="43.0166700" lon="-8.1055850">
        <ele>394.2</ele>
        <time>2021-07-25T11:16:16Z</time>
      </trkpt>
      <trkpt lat="43.0165290" lon="-8.1055070">
        <ele>394.2</ele>
        <time>2021-07-25T11:16:20Z</time>
      </trkpt>
      <trkpt lat="43.0164970" lon="-8.1055100">
        <ele>394.2</ele>
        <time>2021-07-25T11:16:21Z</time>
      </trkpt>
      <trkpt lat="43.0164040" lon="-8.1055330">
        <ele>394.2</ele>
        <time>2021-07-25T11:16:24Z</time>
      </trkpt>
      <trkpt lat="43.0162690" lon="-8.1055720">
        <ele>394.2</ele>
        <time>2021-07-25T11:16:28Z</time>
      </trkpt>
      <trkpt lat="43.0161330" lon="-8.1055970">
        <ele>394.2</ele>
        <time>2021-07-25T11:16:32Z</time>
      </trkpt>
      <trkpt lat="43.0160350" lon="-8.1056110">
        <ele>394.2</ele>
        <time>2021-07-25T11:16:35Z</time>
      </trkpt>
      <trkpt lat="43.0159380" lon="-8.1056330">
        <ele>394.2</ele>
        <time>2021-07-25T11:16:38Z</time>
      </trkpt>
      <trkpt lat="43.0158170" lon="-8.1056510">
        <ele>394.2</ele>
        <time>2021-07-25T11:16:42Z</time>
      </trkpt>
      <trkpt lat="43.0157030" lon="-8.1056580">
        <ele>394.2</ele>
        <time>2021-07-25T11:16:47Z</time>
      </trkpt>
      <trkpt lat="43.0156510" lon="-8.1056750">
        <ele>394.2</ele>
        <time>2021-07-25T11:16:49Z</time>
      </trkpt>
      <trkpt lat="43.0155720" lon="-8.1057830">
        <ele>394.2</ele>
        <time>2021-07-25T11:16:53Z</time>
      </trkpt>
      <trkpt lat="43.0155650" lon="-8.1058220">
        <ele>394.2</ele>
        <time>2021-07-25T11:16:54Z</time>
      </trkpt>
      <trkpt lat="43.0155540" lon="-8.1060220">
        <ele>394.2</ele>
        <time>2021-07-25T11:16:59Z</time>
      </trkpt>
      <trkpt lat="43.0155540" lon="-8.1060960">
        <ele>394.2</ele>
        <time>2021-07-25T11:17:01Z</time>
      </trkpt>
      <trkpt lat="43.0155690" lon="-8.1063060">
        <ele>394.2</ele>
        <time>2021-07-25T11:17:06Z</time>
      </trkpt>
      <trkpt lat="43.0155890" lon="-8.1063950">
        <ele>394.2</ele>
        <time>2021-07-25T11:17:08Z</time>
      </trkpt>
      <trkpt lat="43.0157150" lon="-8.1067200">
        <ele>394.2</ele>
        <time>2021-07-25T11:17:15Z</time>
      </trkpt>
      <trkpt lat="43.0158390" lon="-8.1069320">
        <ele>394.2</ele>
        <time>2021-07-25T11:17:20Z</time>
      </trkpt>
      <trkpt lat="43.0159100" lon="-8.1070660">
        <ele>394.2</ele>
        <time>2021-07-25T11:17:23Z</time>
      </trkpt>
      <trkpt lat="43.0160080" lon="-8.1072810">
        <ele>394.2</ele>
        <time>2021-07-25T11:17:27Z</time>
      </trkpt>
      <trkpt lat="43.0160540" lon="-8.1074080">
        <ele>394.2</ele>
        <time>2021-07-25T11:17:29Z</time>
      </trkpt>
      <trkpt lat="43.0160750" lon="-8.1074740">
        <ele>394.2</ele>
        <time>2021-07-25T11:17:30Z</time>
      </trkpt>
      <trkpt lat="43.0161210" lon="-8.1076860">
        <ele>394.2</ele>
        <time>2021-07-25T11:17:33Z</time>
      </trkpt>
      <trkpt lat="43.0161430" lon="-8.1078260">
        <ele>394.2</ele>
        <time>2021-07-25T11:17:35Z</time>
      </trkpt>
      <trkpt lat="43.0161740" lon="-8.1081750">
        <ele>394.2</ele>
        <time>2021-07-25T11:17:40Z</time>
      </trkpt>
      <trkpt lat="43.0161800" lon="-8.1082410">
        <ele>394.2</ele>
        <time>2021-07-25T11:17:41Z</time>
      </trkpt>
      <trkpt lat="43.0161910" lon="-8.1084340">
        <ele>394.2</ele>
        <time>2021-07-25T11:17:44Z</time>
      </trkpt>
      <trkpt lat="43.0162070" lon="-8.1086770">
        <ele>394.2</ele>
        <time>2021-07-25T11:17:48Z</time>
      </trkpt>
      <trkpt lat="43.0162100" lon="-8.1087350">
        <ele>394.2</ele>
        <time>2021-07-25T11:17:49Z</time>
      </trkpt>
      <trkpt lat="43.0162200" lon="-8.1089060">
        <ele>394.2</ele>
        <time>2021-07-25T11:17:52Z</time>
      </trkpt>
      <trkpt lat="43.0162310" lon="-8.1091890">
        <ele>394.2</ele>
        <time>2021-07-25T11:17:57Z</time>
      </trkpt>
      <trkpt lat="43.0162350" lon="-8.1092430">
        <ele>394.2</ele>
        <time>2021-07-25T11:17:58Z</time>
      </trkpt>
      <trkpt lat="43.0162520" lon="-8.1095150">
        <ele>394.2</ele>
        <time>2021-07-25T11:18:03Z</time>
      </trkpt>
      <trkpt lat="43.0162630" lon="-8.1097370">
        <ele>394.6</ele>
        <time>2021-07-25T11:18:07Z</time>
      </trkpt>
      <trkpt lat="43.0162650" lon="-8.1097920">
        <ele>395.0</ele>
        <time>2021-07-25T11:18:08Z</time>
      </trkpt>
      <trkpt lat="43.0162680" lon="-8.1098480">
        <ele>395.4</ele>
        <time>2021-07-25T11:18:09Z</time>
      </trkpt>
      <trkpt lat="43.0162720" lon="-8.1099060">
        <ele>395.8</ele>
        <time>2021-07-25T11:18:10Z</time>
      </trkpt>
      <trkpt lat="43.0162760" lon="-8.1099630">
        <ele>396.2</ele>
        <time>2021-07-25T11:18:11Z</time>
      </trkpt>
      <trkpt lat="43.0163000" lon="-8.1103840">
        <ele>396.2</ele>
        <time>2021-07-25T11:18:18Z</time>
      </trkpt>
      <trkpt lat="43.0163290" lon="-8.1109180">
        <ele>396.2</ele>
        <time>2021-07-25T11:18:26Z</time>
      </trkpt>
      <trkpt lat="43.0163590" lon="-8.1114460">
        <ele>396.2</ele>
        <time>2021-07-25T11:18:34Z</time>
      </trkpt>
      <trkpt lat="43.0163910" lon="-8.1119710">
        <ele>396.8</ele>
        <time>2021-07-25T11:18:43Z</time>
      </trkpt>
      <trkpt lat="43.0163930" lon="-8.1120250">
        <ele>397.2</ele>
        <time>2021-07-25T11:18:44Z</time>
      </trkpt>
      <trkpt lat="43.0163960" lon="-8.1120780">
        <ele>397.6</ele>
        <time>2021-07-25T11:18:45Z</time>
      </trkpt>
      <trkpt lat="43.0164010" lon="-8.1121330">
        <ele>398.0</ele>
        <time>2021-07-25T11:18:46Z</time>
      </trkpt>
      <trkpt lat="43.0164040" lon="-8.1121880">
        <ele>398.6</ele>
        <time>2021-07-25T11:18:47Z</time>
      </trkpt>
      <trkpt lat="43.0164240" lon="-8.1125310">
        <ele>398.6</ele>
        <time>2021-07-25T11:18:53Z</time>
      </trkpt>
      <trkpt lat="43.0164560" lon="-8.1131440">
        <ele>398.6</ele>
        <time>2021-07-25T11:19:03Z</time>
      </trkpt>
      <trkpt lat="43.0164610" lon="-8.1133220">
        <ele>398.6</ele>
        <time>2021-07-25T11:19:06Z</time>
      </trkpt>
      <trkpt lat="43.0164620" lon="-8.1134980">
        <ele>398.6</ele>
        <time>2021-07-25T11:19:09Z</time>
      </trkpt>
      <trkpt lat="43.0164630" lon="-8.1136790">
        <ele>398.6</ele>
        <time>2021-07-25T11:19:12Z</time>
      </trkpt>
      <trkpt lat="43.0164650" lon="-8.1137410">
        <ele>398.6</ele>
        <time>2021-07-25T11:19:13Z</time>
      </trkpt>
      <trkpt lat="43.0164700" lon="-8.1138670">
        <ele>398.6</ele>
        <time>2021-07-25T11:19:15Z</time>
      </trkpt>
      <trkpt lat="43.0164780" lon="-8.1140020">
        <ele>398.6</ele>
        <time>2021-07-25T11:19:17Z</time>
      </trkpt>
      <trkpt lat="43.0164900" lon="-8.1142250">
        <ele>398.6</ele>
        <time>2021-07-25T11:19:20Z</time>
      </trkpt>
      <trkpt lat="43.0165110" lon="-8.1143820">
        <ele>398.0</ele>
        <time>2021-07-25T11:19:22Z</time>
      </trkpt>
      <trkpt lat="43.0165220" lon="-8.1144580">
        <ele>397.6</ele>
        <time>2021-07-25T11:19:23Z</time>
      </trkpt>
      <trkpt lat="43.0165310" lon="-8.1145340">
        <ele>397.2</ele>
        <time>2021-07-25T11:19:24Z</time>
      </trkpt>
      <trkpt lat="43.0165370" lon="-8.1146080">
        <ele>396.8</ele>
        <time>2021-07-25T11:19:25Z</time>
      </trkpt>
      <trkpt lat="43.0165440" lon="-8.1146810">
        <ele>396.4</ele>
        <time>2021-07-25T11:19:26Z</time>
      </trkpt>
      <trkpt lat="43.0165940" lon="-8.1150740">
        <ele>396.4</ele>
        <time>2021-07-25T11:19:32Z</time>
      </trkpt>
      <trkpt lat="43.0165980" lon="-8.1151350">
        <ele>396.4</ele>
        <time>2021-07-25T11:19:33Z</time>
      </trkpt>
      <trkpt lat="43.0166050" lon="-8.1153100">
        <ele>396.4</ele>
        <time>2021-07-25T11:19:36Z</time>
      </trkpt>
      <trkpt lat="43.0166000" lon="-8.1155110">
        <ele>396.4</ele>
        <time>2021-07-25T11:19:40Z</time>
      </trkpt>
      <trkpt lat="43.0166030" lon="-8.1156080">
        <ele>396.4</ele>
        <time>2021-07-25T11:19:42Z</time>
      </trkpt>
      <trkpt lat="43.0166090" lon="-8.1157450">
        <ele>396.4</ele>
        <time>2021-07-25T11:19:45Z</time>
      </trkpt>
      <trkpt lat="43.0166050" lon="-8.1158820">
        <ele>396.4</ele>
        <time>2021-07-25T11:19:48Z</time>
      </trkpt>
      <trkpt lat="43.0166210" lon="-8.1161280">
        <ele>396.4</ele>
        <time>2021-07-25T11:19:53Z</time>
      </trkpt>
      <trkpt lat="43.0166210" lon="-8.1162250">
        <ele>396.4</ele>
        <time>2021-07-25T11:19:55Z</time>
      </trkpt>
      <trkpt lat="43.0166280" lon="-8.1165250">
        <ele>396.4</ele>
        <time>2021-07-25T11:20:01Z</time>
      </trkpt>
      <trkpt lat="43.0166320" lon="-8.1166230">
        <ele>396.8</ele>
        <time>2021-07-25T11:20:03Z</time>
      </trkpt>
      <trkpt lat="43.0166380" lon="-8.1166730">
        <ele>397.2</ele>
        <time>2021-07-25T11:20:04Z</time>
      </trkpt>
      <trkpt lat="43.0166430" lon="-8.1167210">
        <ele>397.6</ele>
        <time>2021-07-25T11:20:05Z</time>
      </trkpt>
      <trkpt lat="43.0166450" lon="-8.1167690">
        <ele>398.0</ele>
        <time>2021-07-25T11:20:06Z</time>
      </trkpt>
      <trkpt lat="43.0166470" lon="-8.1168190">
        <ele>398.4</ele>
        <time>2021-07-25T11:20:07Z</time>
      </trkpt>
      <trkpt lat="43.0166650" lon="-8.1170600">
        <ele>398.4</ele>
        <time>2021-07-25T11:20:12Z</time>
      </trkpt>
      <trkpt lat="43.0166950" lon="-8.1175010">
        <ele>398.4</ele>
        <time>2021-07-25T11:20:21Z</time>
      </trkpt>
      <trkpt lat="43.0167110" lon="-8.1176650">
        <ele>398.8</ele>
        <time>2021-07-25T11:20:25Z</time>
      </trkpt>
      <trkpt lat="43.0167180" lon="-8.1177050">
        <ele>399.2</ele>
        <time>2021-07-25T11:20:26Z</time>
      </trkpt>
      <trkpt lat="43.0167260" lon="-8.1177440">
        <ele>399.6</ele>
        <time>2021-07-25T11:20:27Z</time>
      </trkpt>
      <trkpt lat="43.0167320" lon="-8.1177820">
        <ele>400.0</ele>
        <time>2021-07-25T11:20:28Z</time>
      </trkpt>
      <trkpt lat="43.0167350" lon="-8.1178240">
        <ele>400.4</ele>
        <time>2021-07-25T11:20:29Z</time>
      </trkpt>
      <trkpt lat="43.0167090" lon="-8.1180260">
        <ele>400.4</ele>
        <time>2021-07-25T11:20:34Z</time>
      </trkpt>
      <trkpt lat="43.0166120" lon="-8.1182470">
        <ele>400.4</ele>
        <time>2021-07-25T11:20:41Z</time>
      </trkpt>
      <trkpt lat="43.0165070" lon="-8.1183490">
        <ele>401.0</ele>
        <time>2021-07-25T11:20:46Z</time>
      </trkpt>
      <trkpt lat="43.0164840" lon="-8.1183660">
        <ele>401.4</ele>
        <time>2021-07-25T11:20:47Z</time>
      </trkpt>
      <trkpt lat="43.0164620" lon="-8.1183820">
        <ele>401.8</ele>
        <time>2021-07-25T11:20:48Z</time>
      </trkpt>
      <trkpt lat="43.0164370" lon="-8.1183990">
        <ele>402.2</ele>
        <time>2021-07-25T11:20:49Z</time>
      </trkpt>
      <trkpt lat="43.0164140" lon="-8.1184130">
        <ele>402.8</ele>
        <time>2021-07-25T11:20:50Z</time>
      </trkpt>
      <trkpt lat="43.0162500" lon="-8.1185290">
        <ele>402.8</ele>
        <time>2021-07-25T11:20:57Z</time>
      </trkpt>
      <trkpt lat="43.0160830" lon="-8.1186400">
        <ele>402.8</ele>
        <time>2021-07-25T11:21:05Z</time>
      </trkpt>
      <trkpt lat="43.0160300" lon="-8.1186630">
        <ele>403.2</ele>
        <time>2021-07-25T11:21:08Z</time>
      </trkpt>
      <trkpt lat="43.0160150" lon="-8.1186620">
        <ele>403.6</ele>
        <time>2021-07-25T11:21:09Z</time>
      </trkpt>
      <trkpt lat="43.0160020" lon="-8.1186620">
        <ele>404.0</ele>
        <time>2021-07-25T11:21:10Z</time>
      </trkpt>
      <trkpt lat="43.0159960" lon="-8.1186600">
        <ele>404.4</ele>
        <time>2021-07-25T11:21:11Z</time>
      </trkpt>
      <trkpt lat="43.0159930" lon="-8.1186590">
        <ele>404.8</ele>
        <time>2021-07-25T11:21:12Z</time>
      </trkpt>
      <trkpt lat="43.0159930" lon="-8.1186440">
        <ele>404.8</ele>
        <time>2021-07-25T11:22:45Z</time>
      </trkpt>
      <trkpt lat="43.0159860" lon="-8.1186570">
        <ele>404.8</ele>
        <time>2021-07-25T11:22:46Z</time>
      </trkpt>
      <trkpt lat="43.0159780" lon="-8.1186700">
        <ele>404.8</ele>
        <time>2021-07-25T11:22:47Z</time>
      </trkpt>
      <trkpt lat="43.0159530" lon="-8.1187330">
        <ele>404.8</ele>
        <time>2021-07-25T11:22:51Z</time>
      </trkpt>
      <trkpt lat="43.0159390" lon="-8.1187650">
        <ele>404.8</ele>
        <time>2021-07-25T11:22:53Z</time>
      </trkpt>
      <trkpt lat="43.0159170" lon="-8.1187890">
        <ele>404.8</ele>
        <time>2021-07-25T11:22:55Z</time>
      </trkpt>
      <trkpt lat="43.0158960" lon="-8.1188070">
        <ele>404.8</ele>
        <time>2021-07-25T11:22:58Z</time>
      </trkpt>
      <trkpt lat="43.0158920" lon="-8.1188100">
        <ele>404.8</ele>
        <time>2021-07-25T11:23:03Z</time>
      </trkpt>
      <trkpt lat="43.0158740" lon="-8.1188190">
        <ele>404.8</ele>
        <time>2021-07-25T11:23:04Z</time>
      </trkpt>
      <trkpt lat="43.0158390" lon="-8.1188470">
        <ele>404.8</ele>
        <time>2021-07-25T11:23:06Z</time>
      </trkpt>
      <trkpt lat="43.0157780" lon="-8.1188920">
        <ele>404.8</ele>
        <time>2021-07-25T11:23:09Z</time>
      </trkpt>
      <trkpt lat="43.0157120" lon="-8.1189770">
        <ele>404.8</ele>
        <time>2021-07-25T11:23:12Z</time>
      </trkpt>
      <trkpt lat="43.0156890" lon="-8.1190120">
        <ele>404.8</ele>
        <time>2021-07-25T11:23:13Z</time>
      </trkpt>
      <trkpt lat="43.0156210" lon="-8.1191040">
        <ele>404.8</ele>
        <time>2021-07-25T11:23:16Z</time>
      </trkpt>
      <trkpt lat="43.0155620" lon="-8.1192040">
        <ele>404.8</ele>
        <time>2021-07-25T11:23:19Z</time>
      </trkpt>
      <trkpt lat="43.0154490" lon="-8.1194170">
        <ele>404.8</ele>
        <time>2021-07-25T11:23:24Z</time>
      </trkpt>
      <trkpt lat="43.0154210" lon="-8.1194720">
        <ele>404.8</ele>
        <time>2021-07-25T11:23:25Z</time>
      </trkpt>
      <trkpt lat="43.0153560" lon="-8.1195940">
        <ele>404.8</ele>
        <time>2021-07-25T11:23:27Z</time>
      </trkpt>
      <trkpt lat="43.0152940" lon="-8.1197220">
        <ele>404.8</ele>
        <time>2021-07-25T11:23:29Z</time>
      </trkpt>
      <trkpt lat="43.0152430" lon="-8.1198330">
        <ele>404.8</ele>
        <time>2021-07-25T11:23:31Z</time>
      </trkpt>
      <trkpt lat="43.0151800" lon="-8.1199840">
        <ele>404.8</ele>
        <time>2021-07-25T11:23:34Z</time>
      </trkpt>
      <trkpt lat="43.0151150" lon="-8.1201190">
        <ele>404.8</ele>
        <time>2021-07-25T11:23:37Z</time>
      </trkpt>
      <trkpt lat="43.0150940" lon="-8.1201650">
        <ele>404.8</ele>
        <time>2021-07-25T11:23:38Z</time>
      </trkpt>
      <trkpt lat="43.0150170" lon="-8.1203470">
        <ele>404.8</ele>
        <time>2021-07-25T11:23:42Z</time>
      </trkpt>
      <trkpt lat="43.0149370" lon="-8.1205340">
        <ele>404.8</ele>
        <time>2021-07-25T11:23:46Z</time>
      </trkpt>
      <trkpt lat="43.0148590" lon="-8.1207100">
        <ele>404.8</ele>
        <time>2021-07-25T11:23:50Z</time>
      </trkpt>
      <trkpt lat="43.0148220" lon="-8.1207880">
        <ele>404.8</ele>
        <time>2021-07-25T11:23:52Z</time>
      </trkpt>
      <trkpt lat="43.0147860" lon="-8.1208660">
        <ele>404.8</ele>
        <time>2021-07-25T11:23:54Z</time>
      </trkpt>
      <trkpt lat="43.0147690" lon="-8.1209030">
        <ele>404.8</ele>
        <time>2021-07-25T11:23:55Z</time>
      </trkpt>
      <trkpt lat="43.0146150" lon="-8.1212360">
        <ele>404.8</ele>
        <time>2021-07-25T11:24:03Z</time>
      </trkpt>
      <trkpt lat="43.0145650" lon="-8.1213320">
        <ele>404.8</ele>
        <time>2021-07-25T11:24:05Z</time>
      </trkpt>
      <trkpt lat="43.0144600" lon="-8.1215300">
        <ele>404.8</ele>
        <time>2021-07-25T11:24:09Z</time>
      </trkpt>
      <trkpt lat="43.0143810" lon="-8.1216710">
        <ele>404.8</ele>
        <time>2021-07-25T11:24:12Z</time>
      </trkpt>
      <trkpt lat="43.0142100" lon="-8.1219670">
        <ele>404.8</ele>
        <time>2021-07-25T11:24:19Z</time>
      </trkpt>
      <trkpt lat="43.0140750" lon="-8.1221800">
        <ele>404.8</ele>
        <time>2021-07-25T11:24:24Z</time>
      </trkpt>
      <trkpt lat="43.0139870" lon="-8.1223200">
        <ele>404.8</ele>
        <time>2021-07-25T11:24:27Z</time>
      </trkpt>
      <trkpt lat="43.0138140" lon="-8.1225930">
        <ele>404.8</ele>
        <time>2021-07-25T11:24:33Z</time>
      </trkpt>
      <trkpt lat="43.0137310" lon="-8.1227230">
        <ele>404.8</ele>
        <time>2021-07-25T11:24:36Z</time>
      </trkpt>
      <trkpt lat="43.0136080" lon="-8.1229260">
        <ele>404.8</ele>
        <time>2021-07-25T11:24:41Z</time>
      </trkpt>
      <trkpt lat="43.0135540" lon="-8.1230090">
        <ele>404.8</ele>
        <time>2021-07-25T11:24:43Z</time>
      </trkpt>
      <trkpt lat="43.0135070" lon="-8.1230960">
        <ele>404.8</ele>
        <time>2021-07-25T11:24:45Z</time>
      </trkpt>
      <trkpt lat="43.0134220" lon="-8.1232300">
        <ele>404.8</ele>
        <time>2021-07-25T11:24:48Z</time>
      </trkpt>
      <trkpt lat="43.0132680" lon="-8.1234580">
        <ele>404.8</ele>
        <time>2021-07-25T11:24:53Z</time>
      </trkpt>
      <trkpt lat="43.0131350" lon="-8.1236320">
        <ele>404.8</ele>
        <time>2021-07-25T11:24:57Z</time>
      </trkpt>
      <trkpt lat="43.0130350" lon="-8.1237610">
        <ele>404.8</ele>
        <time>2021-07-25T11:25:00Z</time>
      </trkpt>
      <trkpt lat="43.0130000" lon="-8.1238010">
        <ele>404.8</ele>
        <time>2021-07-25T11:25:01Z</time>
      </trkpt>
      <trkpt lat="43.0126690" lon="-8.1241140">
        <ele>404.8</ele>
        <time>2021-07-25T11:25:09Z</time>
      </trkpt>
      <trkpt lat="43.0123310" lon="-8.1244010">
        <ele>404.8</ele>
        <time>2021-07-25T11:25:17Z</time>
      </trkpt>
      <trkpt lat="43.0121810" lon="-8.1245210">
        <ele>404.8</ele>
        <time>2021-07-25T11:25:21Z</time>
      </trkpt>
      <trkpt lat="43.0120240" lon="-8.1246260">
        <ele>404.8</ele>
        <time>2021-07-25T11:25:25Z</time>
      </trkpt>
      <trkpt lat="43.0119290" lon="-8.1247060">
        <ele>404.8</ele>
        <time>2021-07-25T11:25:29Z</time>
      </trkpt>
      <trkpt lat="43.0119240" lon="-8.1247150">
        <ele>404.8</ele>
        <time>2021-07-25T11:25:31Z</time>
      </trkpt>
      <trkpt lat="43.0119020" lon="-8.1247210">
        <ele>404.8</ele>
        <time>2021-07-25T11:25:54Z</time>
      </trkpt>
      <trkpt lat="43.0118830" lon="-8.1247210">
        <ele>404.8</ele>
        <time>2021-07-25T11:25:55Z</time>
      </trkpt>
      <trkpt lat="43.0118650" lon="-8.1247270">
        <ele>404.8</ele>
        <time>2021-07-25T11:25:56Z</time>
      </trkpt>
      <trkpt lat="43.0118420" lon="-8.1247340">
        <ele>404.8</ele>
        <time>2021-07-25T11:25:57Z</time>
      </trkpt>
      <trkpt lat="43.0117840" lon="-8.1247600">
        <ele>404.8</ele>
        <time>2021-07-25T11:25:59Z</time>
      </trkpt>
      <trkpt lat="43.0117490" lon="-8.1247750">
        <ele>404.8</ele>
        <time>2021-07-25T11:26:00Z</time>
      </trkpt>
      <trkpt lat="43.0115860" lon="-8.1248440">
        <ele>404.8</ele>
        <time>2021-07-25T11:26:04Z</time>
      </trkpt>
      <trkpt lat="43.0114460" lon="-8.1248920">
        <ele>404.8</ele>
        <time>2021-07-25T11:26:07Z</time>
      </trkpt>
      <trkpt lat="43.0112120" lon="-8.1249790">
        <ele>404.8</ele>
        <time>2021-07-25T11:26:12Z</time>
      </trkpt>
      <trkpt lat="43.0110640" lon="-8.1250320">
        <ele>404.8</ele>
        <time>2021-07-25T11:26:15Z</time>
      </trkpt>
      <trkpt lat="43.0110150" lon="-8.1250520">
        <ele>404.8</ele>
        <time>2021-07-25T11:26:16Z</time>
      </trkpt>
      <trkpt lat="43.0108700" lon="-8.1251120">
        <ele>404.8</ele>
        <time>2021-07-25T11:26:19Z</time>
      </trkpt>
      <trkpt lat="43.0107250" lon="-8.1251700">
        <ele>404.8</ele>
        <time>2021-07-25T11:26:22Z</time>
      </trkpt>
      <trkpt lat="43.0105320" lon="-8.1252510">
        <ele>404.8</ele>
        <time>2021-07-25T11:26:26Z</time>
      </trkpt>
      <trkpt lat="43.0104400" lon="-8.1252900">
        <ele>404.8</ele>
        <time>2021-07-25T11:26:28Z</time>
      </trkpt>
      <trkpt lat="43.0102210" lon="-8.1253760">
        <ele>404.8</ele>
        <time>2021-07-25T11:26:33Z</time>
      </trkpt>
      <trkpt lat="43.0100600" lon="-8.1254320">
        <ele>404.8</ele>
        <time>2021-07-25T11:26:37Z</time>
      </trkpt>
      <trkpt lat="43.0098410" lon="-8.1255230">
        <ele>405.2</ele>
        <time>2021-07-25T11:26:43Z</time>
      </trkpt>
      <trkpt lat="43.0098040" lon="-8.1255390">
        <ele>405.6</ele>
        <time>2021-07-25T11:26:44Z</time>
      </trkpt>
      <trkpt lat="43.0097670" lon="-8.1255500">
        <ele>406.0</ele>
        <time>2021-07-25T11:26:45Z</time>
      </trkpt>
      <trkpt lat="43.0097300" lon="-8.1255610">
        <ele>406.6</ele>
        <time>2021-07-25T11:26:46Z</time>
      </trkpt>
      <trkpt lat="43.0096930" lon="-8.1255740">
        <ele>407.0</ele>
        <time>2021-07-25T11:26:47Z</time>
      </trkpt>
      <trkpt lat="43.0095900" lon="-8.1256220">
        <ele>407.0</ele>
        <time>2021-07-25T11:26:50Z</time>
      </trkpt>
      <trkpt lat="43.0092840" lon="-8.1257390">
        <ele>407.0</ele>
        <time>2021-07-25T11:26:59Z</time>
      </trkpt>
      <trkpt lat="43.0092150" lon="-8.1257590">
        <ele>407.4</ele>
        <time>2021-07-25T11:27:01Z</time>
      </trkpt>
      <trkpt lat="43.0091830" lon="-8.1257740">
        <ele>407.8</ele>
        <time>2021-07-25T11:27:02Z</time>
      </trkpt>
      <trkpt lat="43.0091520" lon="-8.1257920">
        <ele>408.2</ele>
        <time>2021-07-25T11:27:03Z</time>
      </trkpt>
      <trkpt lat="43.0091200" lon="-8.1258090">
        <ele>408.6</ele>
        <time>2021-07-25T11:27:04Z</time>
      </trkpt>
      <trkpt lat="43.0090870" lon="-8.1258230">
        <ele>409.2</ele>
        <time>2021-07-25T11:27:05Z</time>
      </trkpt>
      <trkpt lat="43.0090530" lon="-8.1258380">
        <ele>409.2</ele>
        <time>2021-07-25T11:27:06Z</time>
      </trkpt>
      <trkpt lat="43.0087500" lon="-8.1259630">
        <ele>409.2</ele>
        <time>2021-07-25T11:27:15Z</time>
      </trkpt>
      <trkpt lat="43.0085820" lon="-8.1260310">
        <ele>409.6</ele>
        <time>2021-07-25T11:27:20Z</time>
      </trkpt>
      <trkpt lat="43.0085500" lon="-8.1260460">
        <ele>410.0</ele>
        <time>2021-07-25T11:27:21Z</time>
      </trkpt>
      <trkpt lat="43.0085170" lon="-8.1260620">
        <ele>410.4</ele>
        <time>2021-07-25T11:27:22Z</time>
      </trkpt>
      <trkpt lat="43.0084870" lon="-8.1260800">
        <ele>410.8</ele>
        <time>2021-07-25T11:27:23Z</time>
      </trkpt>
      <trkpt lat="43.0084550" lon="-8.1260980">
        <ele>411.4</ele>
        <time>2021-07-25T11:27:24Z</time>
      </trkpt>
      <trkpt lat="43.0082370" lon="-8.1262800">
        <ele>411.4</ele>
        <time>2021-07-25T11:27:31Z</time>
      </trkpt>
      <trkpt lat="43.0080080" lon="-8.1265050">
        <ele>411.4</ele>
        <time>2021-07-25T11:27:39Z</time>
      </trkpt>
      <trkpt lat="43.0079400" lon="-8.1265700">
        <ele>411.4</ele>
        <time>2021-07-25T11:27:42Z</time>
      </trkpt>
      <trkpt lat="43.0078980" lon="-8.1266040">
        <ele>411.4</ele>
        <time>2021-07-25T11:27:44Z</time>
      </trkpt>
      <trkpt lat="43.0078310" lon="-8.1266690">
        <ele>411.4</ele>
        <time>2021-07-25T11:27:48Z</time>
      </trkpt>
      <trkpt lat="43.0077570" lon="-8.1266960">
        <ele>411.4</ele>
        <time>2021-07-25T11:27:51Z</time>
      </trkpt>
      <trkpt lat="43.0076980" lon="-8.1267180">
        <ele>411.4</ele>
        <time>2021-07-25T11:27:54Z</time>
      </trkpt>
      <trkpt lat="43.0076810" lon="-8.1267330">
        <ele>411.4</ele>
        <time>2021-07-25T11:27:56Z</time>
      </trkpt>
      <trkpt lat="43.0076790" lon="-8.1267330">
        <ele>411.4</ele>
        <time>2021-07-25T11:27:57Z</time>
      </trkpt>
      <trkpt lat="43.0076510" lon="-8.1267470">
        <ele>413.4</ele>
        <time>2021-07-25T11:40:34Z</time>
      </trkpt>
      <trkpt lat="43.0076420" lon="-8.1267520">
        <ele>413.4</ele>
        <time>2021-07-25T11:40:35Z</time>
      </trkpt>
      <trkpt lat="43.0076330" lon="-8.1267770">
        <ele>413.4</ele>
        <time>2021-07-25T11:40:36Z</time>
      </trkpt>
      <trkpt lat="43.0076220" lon="-8.1268010">
        <ele>413.4</ele>
        <time>2021-07-25T11:40:37Z</time>
      </trkpt>
      <trkpt lat="43.0075620" lon="-8.1268860">
        <ele>413.4</ele>
        <time>2021-07-25T11:40:41Z</time>
      </trkpt>
      <trkpt lat="43.0075110" lon="-8.1269620">
        <ele>413.4</ele>
        <time>2021-07-25T11:40:44Z</time>
      </trkpt>
      <trkpt lat="43.0074240" lon="-8.1270430">
        <ele>413.4</ele>
        <time>2021-07-25T11:40:48Z</time>
      </trkpt>
      <trkpt lat="43.0073840" lon="-8.1270800">
        <ele>413.4</ele>
        <time>2021-07-25T11:40:50Z</time>
      </trkpt>
      <trkpt lat="43.0073220" lon="-8.1271480">
        <ele>413.8</ele>
        <time>2021-07-25T11:40:53Z</time>
      </trkpt>
      <trkpt lat="43.0073030" lon="-8.1271690">
        <ele>414.2</ele>
        <time>2021-07-25T11:40:54Z</time>
      </trkpt>
      <trkpt lat="43.0072840" lon="-8.1271880">
        <ele>414.6</ele>
        <time>2021-07-25T11:40:55Z</time>
      </trkpt>
      <trkpt lat="43.0072670" lon="-8.1272080">
        <ele>415.0</ele>
        <time>2021-07-25T11:40:56Z</time>
      </trkpt>
      <trkpt lat="43.0072500" lon="-8.1272270">
        <ele>415.4</ele>
        <time>2021-07-25T11:40:57Z</time>
      </trkpt>
      <trkpt lat="43.0071620" lon="-8.1273020">
        <ele>415.4</ele>
        <time>2021-07-25T11:41:01Z</time>
      </trkpt>
      <trkpt lat="43.0071430" lon="-8.1273130">
        <ele>415.4</ele>
        <time>2021-07-25T11:41:02Z</time>
      </trkpt>
      <trkpt lat="43.0070410" lon="-8.1274050">
        <ele>415.4</ele>
        <time>2021-07-25T11:41:06Z</time>
      </trkpt>
      <trkpt lat="43.0070150" lon="-8.1274290">
        <ele>415.4</ele>
        <time>2021-07-25T11:41:07Z</time>
      </trkpt>
      <trkpt lat="43.0068380" lon="-8.1276040">
        <ele>415.4</ele>
        <time>2021-07-25T11:41:13Z</time>
      </trkpt>
      <trkpt lat="43.0065880" lon="-8.1278670">
        <ele>415.4</ele>
        <time>2021-07-25T11:41:20Z</time>
      </trkpt>
      <trkpt lat="43.0063430" lon="-8.1281080">
        <ele>415.4</ele>
        <time>2021-07-25T11:41:26Z</time>
      </trkpt>
      <trkpt lat="43.0062650" lon="-8.1281840">
        <ele>415.4</ele>
        <time>2021-07-25T11:41:28Z</time>
      </trkpt>
      <trkpt lat="43.0062300" lon="-8.1282200">
        <ele>415.4</ele>
        <time>2021-07-25T11:41:29Z</time>
      </trkpt>
      <trkpt lat="43.0061600" lon="-8.1282830">
        <ele>415.4</ele>
        <time>2021-07-25T11:41:31Z</time>
      </trkpt>
      <trkpt lat="43.0060900" lon="-8.1283470">
        <ele>415.4</ele>
        <time>2021-07-25T11:41:33Z</time>
      </trkpt>
      <trkpt lat="43.0060210" lon="-8.1284090">
        <ele>415.4</ele>
        <time>2021-07-25T11:41:35Z</time>
      </trkpt>
      <trkpt lat="43.0059830" lon="-8.1284380">
        <ele>415.4</ele>
        <time>2021-07-25T11:41:36Z</time>
      </trkpt>
      <trkpt lat="43.0058370" lon="-8.1285720">
        <ele>415.4</ele>
        <time>2021-07-25T11:41:40Z</time>
      </trkpt>
      <trkpt lat="43.0057310" lon="-8.1286780">
        <ele>415.4</ele>
        <time>2021-07-25T11:41:43Z</time>
      </trkpt>
      <trkpt lat="43.0056210" lon="-8.1287830">
        <ele>415.4</ele>
        <time>2021-07-25T11:41:46Z</time>
      </trkpt>
      <trkpt lat="43.0053510" lon="-8.1290300">
        <ele>415.4</ele>
        <time>2021-07-25T11:41:53Z</time>
      </trkpt>
      <trkpt lat="43.0052810" lon="-8.1290850">
        <ele>415.4</ele>
        <time>2021-07-25T11:41:55Z</time>
      </trkpt>
      <trkpt lat="43.0050940" lon="-8.1292580">
        <ele>415.4</ele>
        <time>2021-07-25T11:42:00Z</time>
      </trkpt>
      <trkpt lat="43.0050550" lon="-8.1292910">
        <ele>415.4</ele>
        <time>2021-07-25T11:42:01Z</time>
      </trkpt>
      <trkpt lat="43.0047390" lon="-8.1295680">
        <ele>415.4</ele>
        <time>2021-07-25T11:42:09Z</time>
      </trkpt>
      <trkpt lat="43.0044350" lon="-8.1298830">
        <ele>415.4</ele>
        <time>2021-07-25T11:42:17Z</time>
      </trkpt>
      <trkpt lat="43.0043590" lon="-8.1299670">
        <ele>415.4</ele>
        <time>2021-07-25T11:42:19Z</time>
      </trkpt>
      <trkpt lat="43.0042860" lon="-8.1300540">
        <ele>415.4</ele>
        <time>2021-07-25T11:42:21Z</time>
      </trkpt>
      <trkpt lat="43.0042130" lon="-8.1301430">
        <ele>415.4</ele>
        <time>2021-07-25T11:42:23Z</time>
      </trkpt>
      <trkpt lat="43.0041400" lon="-8.1302310">
        <ele>415.0</ele>
        <time>2021-07-25T11:42:25Z</time>
      </trkpt>
      <trkpt lat="43.0041040" lon="-8.1302770">
        <ele>414.6</ele>
        <time>2021-07-25T11:42:26Z</time>
      </trkpt>
      <trkpt lat="43.0040670" lon="-8.1303230">
        <ele>414.0</ele>
        <time>2021-07-25T11:42:27Z</time>
      </trkpt>
      <trkpt lat="43.0040330" lon="-8.1303690">
        <ele>413.6</ele>
        <time>2021-07-25T11:42:28Z</time>
      </trkpt>
      <trkpt lat="43.0039990" lon="-8.1304130">
        <ele>413.2</ele>
        <time>2021-07-25T11:42:29Z</time>
      </trkpt>
      <trkpt lat="43.0038570" lon="-8.1305960">
        <ele>413.2</ele>
        <time>2021-07-25T11:42:33Z</time>
      </trkpt>
      <trkpt lat="43.0036280" lon="-8.1308640">
        <ele>413.2</ele>
        <time>2021-07-25T11:42:39Z</time>
      </trkpt>
      <trkpt lat="43.0034400" lon="-8.1310960">
        <ele>412.8</ele>
        <time>2021-07-25T11:42:44Z</time>
      </trkpt>
      <trkpt lat="43.0034020" lon="-8.1311390">
        <ele>412.4</ele>
        <time>2021-07-25T11:42:45Z</time>
      </trkpt>
      <trkpt lat="43.0033630" lon="-8.1311810">
        <ele>411.6</ele>
        <time>2021-07-25T11:42:46Z</time>
      </trkpt>
      <trkpt lat="43.0033230" lon="-8.1312250">
        <ele>411.2</ele>
        <time>2021-07-25T11:42:47Z</time>
      </trkpt>
      <trkpt lat="43.0032470" lon="-8.1313220">
        <ele>411.2</ele>
        <time>2021-07-25T11:42:49Z</time>
      </trkpt>
      <trkpt lat="43.0030810" lon="-8.1315400">
        <ele>411.2</ele>
        <time>2021-07-25T11:42:54Z</time>
      </trkpt>
      <trkpt lat="43.0030190" lon="-8.1316310">
        <ele>411.2</ele>
        <time>2021-07-25T11:42:56Z</time>
      </trkpt>
      <trkpt lat="43.0029820" lon="-8.1316800">
        <ele>411.2</ele>
        <time>2021-07-25T11:42:57Z</time>
      </trkpt>
      <trkpt lat="43.0029090" lon="-8.1317680">
        <ele>411.2</ele>
        <time>2021-07-25T11:42:59Z</time>
      </trkpt>
      <trkpt lat="43.0028730" lon="-8.1318130">
        <ele>411.2</ele>
        <time>2021-07-25T11:43:00Z</time>
      </trkpt>
      <trkpt lat="43.0028010" lon="-8.1319040">
        <ele>411.2</ele>
        <time>2021-07-25T11:43:02Z</time>
      </trkpt>
      <trkpt lat="43.0027270" lon="-8.1319960">
        <ele>411.2</ele>
        <time>2021-07-25T11:43:04Z</time>
      </trkpt>
      <trkpt lat="43.0026570" lon="-8.1320810">
        <ele>411.2</ele>
        <time>2021-07-25T11:43:06Z</time>
      </trkpt>
      <trkpt lat="43.0025550" lon="-8.1322050">
        <ele>411.2</ele>
        <time>2021-07-25T11:43:09Z</time>
      </trkpt>
      <trkpt lat="43.0024570" lon="-8.1323150">
        <ele>411.2</ele>
        <time>2021-07-25T11:43:12Z</time>
      </trkpt>
      <trkpt lat="43.0023970" lon="-8.1323840">
        <ele>411.2</ele>
        <time>2021-07-25T11:43:14Z</time>
      </trkpt>
      <trkpt lat="43.0023710" lon="-8.1324130">
        <ele>411.2</ele>
        <time>2021-07-25T11:43:15Z</time>
      </trkpt>
      <trkpt lat="43.0023130" lon="-8.1325080">
        <ele>411.2</ele>
        <time>2021-07-25T11:43:18Z</time>
      </trkpt>
      <trkpt lat="43.0022880" lon="-8.1325820">
        <ele>411.2</ele>
        <time>2021-07-25T11:43:20Z</time>
      </trkpt>
      <trkpt lat="43.0022580" lon="-8.1326970">
        <ele>411.6</ele>
        <time>2021-07-25T11:43:23Z</time>
      </trkpt>
      <trkpt lat="43.0022560" lon="-8.1327310">
        <ele>412.0</ele>
        <time>2021-07-25T11:43:24Z</time>
      </trkpt>
      <trkpt lat="43.0022420" lon="-8.1327640">
        <ele>412.6</ele>
        <time>2021-07-25T11:43:25Z</time>
      </trkpt>
      <trkpt lat="43.0022270" lon="-8.1327930">
        <ele>413.0</ele>
        <time>2021-07-25T11:43:26Z</time>
      </trkpt>
      <trkpt lat="43.0022100" lon="-8.1328290">
        <ele>413.4</ele>
        <time>2021-07-25T11:43:27Z</time>
      </trkpt>
      <trkpt lat="43.0021760" lon="-8.1329890">
        <ele>413.4</ele>
        <time>2021-07-25T11:43:31Z</time>
      </trkpt>
      <trkpt lat="43.0021500" lon="-8.1330640">
        <ele>413.8</ele>
        <time>2021-07-25T11:43:33Z</time>
      </trkpt>
      <trkpt lat="43.0021380" lon="-8.1331030">
        <ele>414.6</ele>
        <time>2021-07-25T11:43:34Z</time>
      </trkpt>
      <trkpt lat="43.0021250" lon="-8.1331400">
        <ele>415.0</ele>
        <time>2021-07-25T11:43:35Z</time>
      </trkpt>
      <trkpt lat="43.0021090" lon="-8.1331750">
        <ele>415.6</ele>
        <time>2021-07-25T11:43:36Z</time>
      </trkpt>
      <trkpt lat="43.0020890" lon="-8.1332070">
        <ele>415.6</ele>
        <time>2021-07-25T11:43:37Z</time>
      </trkpt>
      <trkpt lat="43.0018990" lon="-8.1334420">
        <ele>415.6</ele>
        <time>2021-07-25T11:43:45Z</time>
      </trkpt>
      <trkpt lat="43.0015890" lon="-8.1336240">
        <ele>415.6</ele>
        <time>2021-07-25T11:43:54Z</time>
      </trkpt>
      <trkpt lat="43.0014750" lon="-8.1336880">
        <ele>415.6</ele>
        <time>2021-07-25T11:43:57Z</time>
      </trkpt>
      <trkpt lat="43.0013950" lon="-8.1337390">
        <ele>415.6</ele>
        <time>2021-07-25T11:43:59Z</time>
      </trkpt>
      <trkpt lat="43.0013030" lon="-8.1337910">
        <ele>415.6</ele>
        <time>2021-07-25T11:44:01Z</time>
      </trkpt>
      <trkpt lat="43.0011620" lon="-8.1338700">
        <ele>415.6</ele>
        <time>2021-07-25T11:44:04Z</time>
      </trkpt>
      <trkpt lat="43.0011150" lon="-8.1338940">
        <ele>415.0</ele>
        <time>2021-07-25T11:44:05Z</time>
      </trkpt>
      <trkpt lat="43.0010640" lon="-8.1339180">
        <ele>414.6</ele>
        <time>2021-07-25T11:44:06Z</time>
      </trkpt>
      <trkpt lat="43.0010130" lon="-8.1339480">
        <ele>414.2</ele>
        <time>2021-07-25T11:44:07Z</time>
      </trkpt>
      <trkpt lat="43.0009610" lon="-8.1339780">
        <ele>413.8</ele>
        <time>2021-07-25T11:44:08Z</time>
      </trkpt>
      <trkpt lat="43.0009010" lon="-8.1340100">
        <ele>413.4</ele>
        <time>2021-07-25T11:44:09Z</time>
      </trkpt>
      <trkpt lat="43.0007140" lon="-8.1340990">
        <ele>413.0</ele>
        <time>2021-07-25T11:44:12Z</time>
      </trkpt>
      <trkpt lat="43.0006500" lon="-8.1341280">
        <ele>412.6</ele>
        <time>2021-07-25T11:44:13Z</time>
      </trkpt>
      <trkpt lat="43.0005880" lon="-8.1341610">
        <ele>412.2</ele>
        <time>2021-07-25T11:44:14Z</time>
      </trkpt>
      <trkpt lat="43.0005220" lon="-8.1341860">
        <ele>411.8</ele>
        <time>2021-07-25T11:44:15Z</time>
      </trkpt>
      <trkpt lat="43.0004710" lon="-8.1342320">
        <ele>411.4</ele>
        <time>2021-07-25T11:44:16Z</time>
      </trkpt>
      <trkpt lat="43.0004180" lon="-8.1342640">
        <ele>410.8</ele>
        <time>2021-07-25T11:44:17Z</time>
      </trkpt>
      <trkpt lat="43.0003650" lon="-8.1342910">
        <ele>410.4</ele>
        <time>2021-07-25T11:44:18Z</time>
      </trkpt>
      <trkpt lat="43.0003100" lon="-8.1343220">
        <ele>409.8</ele>
        <time>2021-07-25T11:44:19Z</time>
      </trkpt>
      <trkpt lat="43.0002590" lon="-8.1343480">
        <ele>409.4</ele>
        <time>2021-07-25T11:44:20Z</time>
      </trkpt>
      <trkpt lat="43.0002100" lon="-8.1343750">
        <ele>408.8</ele>
        <time>2021-07-25T11:44:21Z</time>
      </trkpt>
      <trkpt lat="43.0001590" lon="-8.1344080">
        <ele>408.4</ele>
        <time>2021-07-25T11:44:22Z</time>
      </trkpt>
      <trkpt lat="43.0001070" lon="-8.1344420">
        <ele>407.6</ele>
        <time>2021-07-25T11:44:23Z</time>
      </trkpt>
      <trkpt lat="43.0000540" lon="-8.1344760">
        <ele>407.2</ele>
        <time>2021-07-25T11:44:24Z</time>
      </trkpt>
      <trkpt lat="43.0000010" lon="-8.1345130">
        <ele>406.6</ele>
        <time>2021-07-25T11:44:25Z</time>
      </trkpt>
      <trkpt lat="42.9999450" lon="-8.1345550">
        <ele>406.2</ele>
        <time>2021-07-25T11:44:26Z</time>
      </trkpt>
      <trkpt lat="42.9998920" lon="-8.1346000">
        <ele>405.8</ele>
        <time>2021-07-25T11:44:27Z</time>
      </trkpt>
      <trkpt lat="42.9998370" lon="-8.1346460">
        <ele>405.4</ele>
        <time>2021-07-25T11:44:28Z</time>
      </trkpt>
      <trkpt lat="42.9997830" lon="-8.1346900">
        <ele>405.0</ele>
        <time>2021-07-25T11:44:29Z</time>
      </trkpt>
      <trkpt lat="42.9997300" lon="-8.1347310">
        <ele>404.6</ele>
        <time>2021-07-25T11:44:30Z</time>
      </trkpt>
      <trkpt lat="42.9995860" lon="-8.1348410">
        <ele>404.2</ele>
        <time>2021-07-25T11:44:33Z</time>
      </trkpt>
      <trkpt lat="42.9995420" lon="-8.1348710">
        <ele>403.8</ele>
        <time>2021-07-25T11:44:34Z</time>
      </trkpt>
      <trkpt lat="42.9994980" lon="-8.1348950">
        <ele>403.4</ele>
        <time>2021-07-25T11:44:35Z</time>
      </trkpt>
      <trkpt lat="42.9994580" lon="-8.1349130">
        <ele>403.0</ele>
        <time>2021-07-25T11:44:36Z</time>
      </trkpt>
      <trkpt lat="42.9994180" lon="-8.1349270">
        <ele>402.6</ele>
        <time>2021-07-25T11:44:37Z</time>
      </trkpt>
      <trkpt lat="42.9993600" lon="-8.1349990">
        <ele>402.2</ele>
        <time>2021-07-25T11:44:39Z</time>
      </trkpt>
      <trkpt lat="42.9993400" lon="-8.1350540">
        <ele>401.8</ele>
        <time>2021-07-25T11:44:40Z</time>
      </trkpt>
      <trkpt lat="42.9993160" lon="-8.1351110">
        <ele>401.4</ele>
        <time>2021-07-25T11:44:41Z</time>
      </trkpt>
      <trkpt lat="42.9992900" lon="-8.1351670">
        <ele>401.0</ele>
        <time>2021-07-25T11:44:42Z</time>
      </trkpt>
      <trkpt lat="42.9992610" lon="-8.1352250">
        <ele>400.4</ele>
        <time>2021-07-25T11:44:43Z</time>
      </trkpt>
      <trkpt lat="42.9991720" lon="-8.1354120">
        <ele>400.4</ele>
        <time>2021-07-25T11:44:46Z</time>
      </trkpt>
      <trkpt lat="42.9991090" lon="-8.1355640">
        <ele>400.4</ele>
        <time>2021-07-25T11:44:48Z</time>
      </trkpt>
      <trkpt lat="42.9990110" lon="-8.1357780">
        <ele>400.4</ele>
        <time>2021-07-25T11:44:50Z</time>
      </trkpt>
      <trkpt lat="42.9988480" lon="-8.1360950">
        <ele>400.0</ele>
        <time>2021-07-25T11:44:56Z</time>
      </trkpt>
      <trkpt lat="42.9988230" lon="-8.1361430">
        <ele>399.6</ele>
        <time>2021-07-25T11:44:57Z</time>
      </trkpt>
      <trkpt lat="42.9988000" lon="-8.1361900">
        <ele>399.2</ele>
        <time>2021-07-25T11:44:58Z</time>
      </trkpt>
      <trkpt lat="42.9987790" lon="-8.1362370">
        <ele>398.8</ele>
        <time>2021-07-25T11:44:59Z</time>
      </trkpt>
      <trkpt lat="42.9987640" lon="-8.1362860">
        <ele>398.4</ele>
        <time>2021-07-25T11:45:00Z</time>
      </trkpt>
      <trkpt lat="42.9987280" lon="-8.1364470">
        <ele>398.4</ele>
        <time>2021-07-25T11:45:03Z</time>
      </trkpt>
      <trkpt lat="42.9987230" lon="-8.1365100">
        <ele>398.4</ele>
        <time>2021-07-25T11:45:04Z</time>
      </trkpt>
      <trkpt lat="42.9987290" lon="-8.1366240">
        <ele>398.4</ele>
        <time>2021-07-25T11:45:06Z</time>
      </trkpt>
      <trkpt lat="42.9987380" lon="-8.1366790">
        <ele>398.4</ele>
        <time>2021-07-25T11:45:07Z</time>
      </trkpt>
      <trkpt lat="42.9987510" lon="-8.1367330">
        <ele>398.4</ele>
        <time>2021-07-25T11:45:08Z</time>
      </trkpt>
      <trkpt lat="42.9987660" lon="-8.1367820">
        <ele>398.4</ele>
        <time>2021-07-25T11:45:09Z</time>
      </trkpt>
      <trkpt lat="42.9988110" lon="-8.1369160">
        <ele>398.4</ele>
        <time>2021-07-25T11:45:12Z</time>
      </trkpt>
      <trkpt lat="42.9988240" lon="-8.1369560">
        <ele>398.4</ele>
        <time>2021-07-25T11:45:13Z</time>
      </trkpt>
      <trkpt lat="42.9988610" lon="-8.1370810">
        <ele>398.4</ele>
        <time>2021-07-25T11:45:16Z</time>
      </trkpt>
      <trkpt lat="42.9988900" lon="-8.1372070">
        <ele>398.4</ele>
        <time>2021-07-25T11:45:19Z</time>
      </trkpt>
      <trkpt lat="42.9989040" lon="-8.1372890">
        <ele>398.4</ele>
        <time>2021-07-25T11:45:21Z</time>
      </trkpt>
      <trkpt lat="42.9989230" lon="-8.1374040">
        <ele>398.4</ele>
        <time>2021-07-25T11:45:24Z</time>
      </trkpt>
      <trkpt lat="42.9989390" lon="-8.1374750">
        <ele>398.4</ele>
        <time>2021-07-25T11:45:26Z</time>
      </trkpt>
      <trkpt lat="42.9989610" lon="-8.1375810">
        <ele>398.4</ele>
        <time>2021-07-25T11:45:29Z</time>
      </trkpt>
      <trkpt lat="42.9989660" lon="-8.1376160">
        <ele>398.4</ele>
        <time>2021-07-25T11:45:30Z</time>
      </trkpt>
      <trkpt lat="42.9989840" lon="-8.1377230">
        <ele>398.4</ele>
        <time>2021-07-25T11:45:33Z</time>
      </trkpt>
      <trkpt lat="42.9989920" lon="-8.1377580">
        <ele>399.0</ele>
        <time>2021-07-25T11:45:34Z</time>
      </trkpt>
      <trkpt lat="42.9989990" lon="-8.1377940">
        <ele>399.4</ele>
        <time>2021-07-25T11:45:35Z</time>
      </trkpt>
      <trkpt lat="42.9990030" lon="-8.1378300">
        <ele>399.8</ele>
        <time>2021-07-25T11:45:36Z</time>
      </trkpt>
      <trkpt lat="42.9990080" lon="-8.1378670">
        <ele>400.6</ele>
        <time>2021-07-25T11:45:37Z</time>
      </trkpt>
      <trkpt lat="42.9990220" lon="-8.1379370">
        <ele>400.6</ele>
        <time>2021-07-25T11:45:39Z</time>
      </trkpt>
      <trkpt lat="42.9990480" lon="-8.1380420">
        <ele>400.6</ele>
        <time>2021-07-25T11:45:42Z</time>
      </trkpt>
      <trkpt lat="42.9991090" lon="-8.1382080">
        <ele>400.6</ele>
        <time>2021-07-25T11:45:47Z</time>
      </trkpt>
      <trkpt lat="42.9991540" lon="-8.1383030">
        <ele>401.0</ele>
        <time>2021-07-25T11:45:50Z</time>
      </trkpt>
      <trkpt lat="42.9991690" lon="-8.1383330">
        <ele>401.4</ele>
        <time>2021-07-25T11:45:51Z</time>
      </trkpt>
      <trkpt lat="42.9991830" lon="-8.1383630">
        <ele>401.8</ele>
        <time>2021-07-25T11:45:52Z</time>
      </trkpt>
      <trkpt lat="42.9991980" lon="-8.1383930">
        <ele>402.2</ele>
        <time>2021-07-25T11:45:53Z</time>
      </trkpt>
      <trkpt lat="42.9992110" lon="-8.1384220">
        <ele>402.6</ele>
        <time>2021-07-25T11:45:54Z</time>
      </trkpt>
      <trkpt lat="42.9992540" lon="-8.1385150">
        <ele>402.6</ele>
        <time>2021-07-25T11:45:57Z</time>
      </trkpt>
      <trkpt lat="42.9993460" lon="-8.1387540">
        <ele>402.6</ele>
        <time>2021-07-25T11:46:04Z</time>
      </trkpt>
      <trkpt lat="42.9994100" lon="-8.1389190">
        <ele>402.6</ele>
        <time>2021-07-25T11:46:09Z</time>
      </trkpt>
      <trkpt lat="42.9994200" lon="-8.1389560">
        <ele>402.6</ele>
        <time>2021-07-25T11:46:10Z</time>
      </trkpt>
      <trkpt lat="42.9994570" lon="-8.1390750">
        <ele>402.6</ele>
        <time>2021-07-25T11:46:13Z</time>
      </trkpt>
      <trkpt lat="42.9994920" lon="-8.1391960">
        <ele>402.6</ele>
        <time>2021-07-25T11:46:16Z</time>
      </trkpt>
      <trkpt lat="42.9995150" lon="-8.1392770">
        <ele>402.6</ele>
        <time>2021-07-25T11:46:18Z</time>
      </trkpt>
      <trkpt lat="42.9995510" lon="-8.1393980">
        <ele>402.6</ele>
        <time>2021-07-25T11:46:21Z</time>
      </trkpt>
      <trkpt lat="42.9995690" lon="-8.1394820">
        <ele>402.6</ele>
        <time>2021-07-25T11:46:23Z</time>
      </trkpt>
      <trkpt lat="42.9995800" lon="-8.1395240">
        <ele>402.6</ele>
        <time>2021-07-25T11:46:24Z</time>
      </trkpt>
      <trkpt lat="42.9996020" lon="-8.1395950">
        <ele>402.6</ele>
        <time>2021-07-25T11:46:26Z</time>
      </trkpt>
      <trkpt lat="42.9996200" lon="-8.1396300">
        <ele>402.6</ele>
        <time>2021-07-25T11:46:29Z</time>
      </trkpt>
      <trkpt lat="42.9995990" lon="-8.1395960">
        <ele>402.6</ele>
        <time>2021-07-25T11:47:58Z</time>
      </trkpt>
      <trkpt lat="42.9995870" lon="-8.1395850">
        <ele>402.6</ele>
        <time>2021-07-25T11:47:59Z</time>
      </trkpt>
      <trkpt lat="42.9995600" lon="-8.1395520">
        <ele>402.6</ele>
        <time>2021-07-25T11:48:01Z</time>
      </trkpt>
      <trkpt lat="42.9995220" lon="-8.1394980">
        <ele>402.6</ele>
        <time>2021-07-25T11:48:03Z</time>
      </trkpt>
      <trkpt lat="42.9995040" lon="-8.1394580">
        <ele>402.6</ele>
        <time>2021-07-25T11:48:04Z</time>
      </trkpt>
      <trkpt lat="42.9994700" lon="-8.1393680">
        <ele>402.6</ele>
        <time>2021-07-25T11:48:06Z</time>
      </trkpt>
      <trkpt lat="42.9994320" lon="-8.1392300">
        <ele>402.6</ele>
        <time>2021-07-25T11:48:09Z</time>
      </trkpt>
      <trkpt lat="42.9994020" lon="-8.1391350">
        <ele>402.6</ele>
        <time>2021-07-25T11:48:11Z</time>
      </trkpt>
      <trkpt lat="42.9993050" lon="-8.1388130">
        <ele>402.6</ele>
        <time>2021-07-25T11:48:18Z</time>
      </trkpt>
      <trkpt lat="42.9992210" lon="-8.1385910">
        <ele>402.6</ele>
        <time>2021-07-25T11:48:23Z</time>
      </trkpt>
      <trkpt lat="42.9991770" lon="-8.1384950">
        <ele>402.6</ele>
        <time>2021-07-25T11:48:25Z</time>
      </trkpt>
      <trkpt lat="42.9990020" lon="-8.1380800">
        <ele>402.6</ele>
        <time>2021-07-25T11:48:32Z</time>
      </trkpt>
      <trkpt lat="42.9989800" lon="-8.1380080">
        <ele>402.6</ele>
        <time>2021-07-25T11:48:33Z</time>
      </trkpt>
      <trkpt lat="42.9989500" lon="-8.1378480">
        <ele>402.6</ele>
        <time>2021-07-25T11:48:35Z</time>
      </trkpt>
      <trkpt lat="42.9989240" lon="-8.1376680">
        <ele>402.6</ele>
        <time>2021-07-25T11:48:37Z</time>
      </trkpt>
      <trkpt lat="42.9988950" lon="-8.1374810">
        <ele>402.6</ele>
        <time>2021-07-25T11:48:39Z</time>
      </trkpt>
      <trkpt lat="42.9988610" lon="-8.1372840">
        <ele>402.6</ele>
        <time>2021-07-25T11:48:41Z</time>
      </trkpt>
      <trkpt lat="42.9988170" lon="-8.1370800">
        <ele>402.6</ele>
        <time>2021-07-25T11:48:43Z</time>
      </trkpt>
      <trkpt lat="42.9987880" lon="-8.1369830">
        <ele>402.2</ele>
        <time>2021-07-25T11:48:44Z</time>
      </trkpt>
      <trkpt lat="42.9987590" lon="-8.1368880">
        <ele>401.8</ele>
        <time>2021-07-25T11:48:45Z</time>
      </trkpt>
      <trkpt lat="42.9987310" lon="-8.1367970">
        <ele>401.4</ele>
        <time>2021-07-25T11:48:46Z</time>
      </trkpt>
      <trkpt lat="42.9987060" lon="-8.1367090">
        <ele>401.0</ele>
        <time>2021-07-25T11:48:47Z</time>
      </trkpt>
      <trkpt lat="42.9986870" lon="-8.1366210">
        <ele>400.6</ele>
        <time>2021-07-25T11:48:48Z</time>
      </trkpt>
      <trkpt lat="42.9986780" lon="-8.1365320">
        <ele>400.6</ele>
        <time>2021-07-25T11:48:49Z</time>
      </trkpt>
      <trkpt lat="42.9987080" lon="-8.1362800">
        <ele>400.6</ele>
        <time>2021-07-25T11:48:52Z</time>
      </trkpt>
      <trkpt lat="42.9987310" lon="-8.1362150">
        <ele>400.2</ele>
        <time>2021-07-25T11:48:53Z</time>
      </trkpt>
      <trkpt lat="42.9987540" lon="-8.1361600">
        <ele>399.6</ele>
        <time>2021-07-25T11:48:54Z</time>
      </trkpt>
      <trkpt lat="42.9987730" lon="-8.1361180">
        <ele>398.8</ele>
        <time>2021-07-25T11:48:55Z</time>
      </trkpt>
      <trkpt lat="42.9987890" lon="-8.1360840">
        <ele>398.4</ele>
        <time>2021-07-25T11:48:56Z</time>
      </trkpt>
      <trkpt lat="42.9988010" lon="-8.1360520">
        <ele>398.4</ele>
        <time>2021-07-25T11:48:57Z</time>
      </trkpt>
      <trkpt lat="42.9988440" lon="-8.1358940">
        <ele>398.4</ele>
        <time>2021-07-25T11:49:03Z</time>
      </trkpt>
      <trkpt lat="42.9988460" lon="-8.1358840">
        <ele>397.8</ele>
        <time>2021-07-25T11:49:04Z</time>
      </trkpt>
      <trkpt lat="42.9988470" lon="-8.1358770">
        <ele>397.4</ele>
        <time>2021-07-25T11:49:05Z</time>
      </trkpt>
      <trkpt lat="42.9988470" lon="-8.1358700">
        <ele>397.0</ele>
        <time>2021-07-25T11:49:06Z</time>
      </trkpt>
      <trkpt lat="42.9988470" lon="-8.1358670">
        <ele>396.6</ele>
        <time>2021-07-25T11:49:07Z</time>
      </trkpt>
      <trkpt lat="42.9988190" lon="-8.1358950">
        <ele>396.2</ele>
        <time>2021-07-25T11:49:41Z</time>
      </trkpt>
      <trkpt lat="42.9988020" lon="-8.1359120">
        <ele>396.2</ele>
        <time>2021-07-25T11:49:42Z</time>
      </trkpt>
      <trkpt lat="42.9986690" lon="-8.1359780">
        <ele>396.2</ele>
        <time>2021-07-25T11:49:47Z</time>
      </trkpt>
      <trkpt lat="42.9984820" lon="-8.1360210">
        <ele>396.2</ele>
        <time>2021-07-25T11:49:52Z</time>
      </trkpt>
      <trkpt lat="42.9984400" lon="-8.1360350">
        <ele>396.2</ele>
        <time>2021-07-25T11:49:53Z</time>
      </trkpt>
      <trkpt lat="42.9982520" lon="-8.1361510">
        <ele>395.8</ele>
        <time>2021-07-25T11:49:58Z</time>
      </trkpt>
      <trkpt lat="42.9982120" lon="-8.1361670">
        <ele>395.4</ele>
        <time>2021-07-25T11:49:59Z</time>
      </trkpt>
      <trkpt lat="42.9981700" lon="-8.1361780">
        <ele>395.0</ele>
        <time>2021-07-25T11:50:00Z</time>
      </trkpt>
      <trkpt lat="42.9981260" lon="-8.1361880">
        <ele>394.6</ele>
        <time>2021-07-25T11:50:01Z</time>
      </trkpt>
      <trkpt lat="42.9980820" lon="-8.1362000">
        <ele>394.0</ele>
        <time>2021-07-25T11:50:02Z</time>
      </trkpt>
      <trkpt lat="42.9979870" lon="-8.1362220">
        <ele>394.0</ele>
        <time>2021-07-25T11:50:04Z</time>
      </trkpt>
      <trkpt lat="42.9975920" lon="-8.1362910">
        <ele>394.0</ele>
        <time>2021-07-25T11:50:12Z</time>
      </trkpt>
      <trkpt lat="42.9972790" lon="-8.1363570">
        <ele>394.0</ele>
        <time>2021-07-25T11:50:18Z</time>
      </trkpt>
      <trkpt lat="42.9971660" lon="-8.1363740">
        <ele>394.0</ele>
        <time>2021-07-25T11:50:20Z</time>
      </trkpt>
      <trkpt lat="42.9968870" lon="-8.1364220">
        <ele>393.6</ele>
        <time>2021-07-25T11:50:25Z</time>
      </trkpt>
      <trkpt lat="42.9968330" lon="-8.1364280">
        <ele>393.2</ele>
        <time>2021-07-25T11:50:26Z</time>
      </trkpt>
      <trkpt lat="42.9967800" lon="-8.1364360">
        <ele>392.8</ele>
        <time>2021-07-25T11:50:27Z</time>
      </trkpt>
      <trkpt lat="42.9967250" lon="-8.1364480">
        <ele>392.4</ele>
        <time>2021-07-25T11:50:28Z</time>
      </trkpt>
      <trkpt lat="42.9966700" lon="-8.1364600">
        <ele>392.0</ele>
        <time>2021-07-25T11:50:29Z</time>
      </trkpt>
      <trkpt lat="42.9964470" lon="-8.1365080">
        <ele>392.0</ele>
        <time>2021-07-25T11:50:33Z</time>
      </trkpt>
      <trkpt lat="42.9961680" lon="-8.1365590">
        <ele>391.6</ele>
        <time>2021-07-25T11:50:38Z</time>
      </trkpt>
      <trkpt lat="42.9961120" lon="-8.1365680">
        <ele>391.2</ele>
        <time>2021-07-25T11:50:39Z</time>
      </trkpt>
      <trkpt lat="42.9960580" lon="-8.1365790">
        <ele>390.8</ele>
        <time>2021-07-25T11:50:40Z</time>
      </trkpt>
      <trkpt lat="42.9960030" lon="-8.1365900">
        <ele>390.4</ele>
        <time>2021-07-25T11:50:41Z</time>
      </trkpt>
      <trkpt lat="42.9959490" lon="-8.1366010">
        <ele>390.0</ele>
        <time>2021-07-25T11:50:42Z</time>
      </trkpt>
      <trkpt lat="42.9955720" lon="-8.1366660">
        <ele>390.0</ele>
        <time>2021-07-25T11:50:49Z</time>
      </trkpt>
      <trkpt lat="42.9952290" lon="-8.1367350">
        <ele>390.0</ele>
        <time>2021-07-25T11:50:55Z</time>
      </trkpt>
      <trkpt lat="42.9951670" lon="-8.1367450">
        <ele>390.0</ele>
        <time>2021-07-25T11:50:56Z</time>
      </trkpt>
      <trkpt lat="42.9949310" lon="-8.1367970">
        <ele>390.0</ele>
        <time>2021-07-25T11:51:00Z</time>
      </trkpt>
      <trkpt lat="42.9947700" lon="-8.1368380">
        <ele>390.0</ele>
        <time>2021-07-25T11:51:03Z</time>
      </trkpt>
      <trkpt lat="42.9943460" lon="-8.1369790">
        <ele>390.0</ele>
        <time>2021-07-25T11:51:11Z</time>
      </trkpt>
      <trkpt lat="42.9941830" lon="-8.1370410">
        <ele>390.0</ele>
        <time>2021-07-25T11:51:14Z</time>
      </trkpt>
      <trkpt lat="42.9940110" lon="-8.1371110">
        <ele>390.0</ele>
        <time>2021-07-25T11:51:17Z</time>
      </trkpt>
      <trkpt lat="42.9938970" lon="-8.1371640">
        <ele>390.0</ele>
        <time>2021-07-25T11:51:19Z</time>
      </trkpt>
      <trkpt lat="42.9937950" lon="-8.1372210">
        <ele>389.6</ele>
        <time>2021-07-25T11:51:21Z</time>
      </trkpt>
      <trkpt lat="42.9937460" lon="-8.1372550">
        <ele>388.8</ele>
        <time>2021-07-25T11:51:22Z</time>
      </trkpt>
      <trkpt lat="42.9937000" lon="-8.1372860">
        <ele>388.4</ele>
        <time>2021-07-25T11:51:23Z</time>
      </trkpt>
      <trkpt lat="42.9936540" lon="-8.1373170">
        <ele>387.8</ele>
        <time>2021-07-25T11:51:24Z</time>
      </trkpt>
      <trkpt lat="42.9936120" lon="-8.1373530">
        <ele>387.8</ele>
        <time>2021-07-25T11:51:25Z</time>
      </trkpt>
      <trkpt lat="42.9934980" lon="-8.1374740">
        <ele>387.8</ele>
        <time>2021-07-25T11:51:28Z</time>
      </trkpt>
      <trkpt lat="42.9934230" lon="-8.1375590">
        <ele>387.8</ele>
        <time>2021-07-25T11:51:30Z</time>
      </trkpt>
      <trkpt lat="42.9933860" lon="-8.1376040">
        <ele>387.8</ele>
        <time>2021-07-25T11:51:31Z</time>
      </trkpt>
      <trkpt lat="42.9932710" lon="-8.1378100">
        <ele>387.8</ele>
        <time>2021-07-25T11:51:35Z</time>
      </trkpt>
      <trkpt lat="42.9932500" lon="-8.1378730">
        <ele>387.8</ele>
        <time>2021-07-25T11:51:36Z</time>
      </trkpt>
      <trkpt lat="42.9931820" lon="-8.1380710">
        <ele>387.8</ele>
        <time>2021-07-25T11:51:39Z</time>
      </trkpt>
      <trkpt lat="42.9931100" lon="-8.1382870">
        <ele>387.8</ele>
        <time>2021-07-25T11:51:42Z</time>
      </trkpt>
      <trkpt lat="42.9930040" lon="-8.1386110">
        <ele>387.4</ele>
        <time>2021-07-25T11:51:46Z</time>
      </trkpt>
      <trkpt lat="42.9929770" lon="-8.1386970">
        <ele>386.6</ele>
        <time>2021-07-25T11:51:47Z</time>
      </trkpt>
      <trkpt lat="42.9929480" lon="-8.1387810">
        <ele>386.2</ele>
        <time>2021-07-25T11:51:48Z</time>
      </trkpt>
      <trkpt lat="42.9929200" lon="-8.1388640">
        <ele>385.8</ele>
        <time>2021-07-25T11:51:49Z</time>
      </trkpt>
      <trkpt lat="42.9928920" lon="-8.1389490">
        <ele>385.8</ele>
        <time>2021-07-25T11:51:50Z</time>
      </trkpt>
      <trkpt lat="42.9927200" lon="-8.1394620">
        <ele>385.4</ele>
        <time>2021-07-25T11:51:56Z</time>
      </trkpt>
      <trkpt lat="42.9926900" lon="-8.1395530">
        <ele>384.8</ele>
        <time>2021-07-25T11:51:57Z</time>
      </trkpt>
      <trkpt lat="42.9926580" lon="-8.1396440">
        <ele>384.4</ele>
        <time>2021-07-25T11:51:58Z</time>
      </trkpt>
      <trkpt lat="42.9926280" lon="-8.1397340">
        <ele>384.0</ele>
        <time>2021-07-25T11:51:59Z</time>
      </trkpt>
      <trkpt lat="42.9925960" lon="-8.1398280">
        <ele>383.6</ele>
        <time>2021-07-25T11:52:00Z</time>
      </trkpt>
      <trkpt lat="42.9924700" lon="-8.1401860">
        <ele>383.0</ele>
        <time>2021-07-25T11:52:04Z</time>
      </trkpt>
      <trkpt lat="42.9924410" lon="-8.1402790">
        <ele>382.6</ele>
        <time>2021-07-25T11:52:05Z</time>
      </trkpt>
      <trkpt lat="42.9924100" lon="-8.1403730">
        <ele>382.2</ele>
        <time>2021-07-25T11:52:06Z</time>
      </trkpt>
      <trkpt lat="42.9923790" lon="-8.1404750">
        <ele>381.8</ele>
        <time>2021-07-25T11:52:07Z</time>
      </trkpt>
      <trkpt lat="42.9923470" lon="-8.1405700">
        <ele>381.2</ele>
        <time>2021-07-25T11:52:08Z</time>
      </trkpt>
      <trkpt lat="42.9923140" lon="-8.1406650">
        <ele>380.8</ele>
        <time>2021-07-25T11:52:09Z</time>
      </trkpt>
      <trkpt lat="42.9922810" lon="-8.1407600">
        <ele>380.4</ele>
        <time>2021-07-25T11:52:10Z</time>
      </trkpt>
      <trkpt lat="42.9922500" lon="-8.1408600">
        <ele>379.6</ele>
        <time>2021-07-25T11:52:11Z</time>
      </trkpt>
      <trkpt lat="42.9922160" lon="-8.1409610">
        <ele>379.2</ele>
        <time>2021-07-25T11:52:12Z</time>
      </trkpt>
      <trkpt lat="42.9921450" lon="-8.1411720">
        <ele>378.6</ele>
        <time>2021-07-25T11:52:14Z</time>
      </trkpt>
      <trkpt lat="42.9921080" lon="-8.1412840">
        <ele>378.2</ele>
        <time>2021-07-25T11:52:15Z</time>
      </trkpt>
      <trkpt lat="42.9920740" lon="-8.1413880">
        <ele>377.8</ele>
        <time>2021-07-25T11:52:16Z</time>
      </trkpt>
      <trkpt lat="42.9920380" lon="-8.1414890">
        <ele>377.4</ele>
        <time>2021-07-25T11:52:17Z</time>
      </trkpt>
      <trkpt lat="42.9920020" lon="-8.1415890">
        <ele>376.8</ele>
        <time>2021-07-25T11:52:18Z</time>
      </trkpt>
      <trkpt lat="42.9919670" lon="-8.1416880">
        <ele>376.2</ele>
        <time>2021-07-25T11:52:19Z</time>
      </trkpt>
      <trkpt lat="42.9919340" lon="-8.1417800">
        <ele>375.6</ele>
        <time>2021-07-25T11:52:20Z</time>
      </trkpt>
      <trkpt lat="42.9919040" lon="-8.1418660">
        <ele>375.0</ele>
        <time>2021-07-25T11:52:21Z</time>
      </trkpt>
      <trkpt lat="42.9918750" lon="-8.1419500">
        <ele>374.2</ele>
        <time>2021-07-25T11:52:22Z</time>
      </trkpt>
      <trkpt lat="42.9918430" lon="-8.1420410">
        <ele>373.4</ele>
        <time>2021-07-25T11:52:23Z</time>
      </trkpt>
      <trkpt lat="42.9918150" lon="-8.1421290">
        <ele>372.4</ele>
        <time>2021-07-25T11:52:24Z</time>
      </trkpt>
      <trkpt lat="42.9917850" lon="-8.1422230">
        <ele>371.6</ele>
        <time>2021-07-25T11:52:25Z</time>
      </trkpt>
      <trkpt lat="42.9917530" lon="-8.1423180">
        <ele>370.6</ele>
        <time>2021-07-25T11:52:26Z</time>
      </trkpt>
      <trkpt lat="42.9917190" lon="-8.1424150">
        <ele>370.0</ele>
        <time>2021-07-25T11:52:27Z</time>
      </trkpt>
      <trkpt lat="42.9916840" lon="-8.1425130">
        <ele>369.2</ele>
        <time>2021-07-25T11:52:28Z</time>
      </trkpt>
      <trkpt lat="42.9916520" lon="-8.1426110">
        <ele>368.6</ele>
        <time>2021-07-25T11:52:29Z</time>
      </trkpt>
      <trkpt lat="42.9916200" lon="-8.1427100">
        <ele>368.0</ele>
        <time>2021-07-25T11:52:30Z</time>
      </trkpt>
      <trkpt lat="42.9915910" lon="-8.1428030">
        <ele>367.4</ele>
        <time>2021-07-25T11:52:31Z</time>
      </trkpt>
      <trkpt lat="42.9915610" lon="-8.1428960">
        <ele>366.8</ele>
        <time>2021-07-25T11:52:32Z</time>
      </trkpt>
      <trkpt lat="42.9915310" lon="-8.1429870">
        <ele>366.0</ele>
        <time>2021-07-25T11:52:33Z</time>
      </trkpt>
      <trkpt lat="42.9915010" lon="-8.1430800">
        <ele>365.4</ele>
        <time>2021-07-25T11:52:34Z</time>
      </trkpt>
      <trkpt lat="42.9914710" lon="-8.1431700">
        <ele>364.6</ele>
        <time>2021-07-25T11:52:35Z</time>
      </trkpt>
      <trkpt lat="42.9914400" lon="-8.1432560">
        <ele>363.2</ele>
        <time>2021-07-25T11:52:36Z</time>
      </trkpt>
      <trkpt lat="42.9914090" lon="-8.1433390">
        <ele>362.6</ele>
        <time>2021-07-25T11:52:37Z</time>
      </trkpt>
      <trkpt lat="42.9913770" lon="-8.1434260">
        <ele>361.8</ele>
        <time>2021-07-25T11:52:38Z</time>
      </trkpt>
      <trkpt lat="42.9913480" lon="-8.1435120">
        <ele>361.2</ele>
        <time>2021-07-25T11:52:39Z</time>
      </trkpt>
      <trkpt lat="42.9913180" lon="-8.1436000">
        <ele>360.6</ele>
        <time>2021-07-25T11:52:40Z</time>
      </trkpt>
      <trkpt lat="42.9912900" lon="-8.1436870">
        <ele>360.0</ele>
        <time>2021-07-25T11:52:41Z</time>
      </trkpt>
      <trkpt lat="42.9912620" lon="-8.1437710">
        <ele>359.4</ele>
        <time>2021-07-25T11:52:42Z</time>
      </trkpt>
      <trkpt lat="42.9912310" lon="-8.1438580">
        <ele>358.8</ele>
        <time>2021-07-25T11:52:43Z</time>
      </trkpt>
      <trkpt lat="42.9911940" lon="-8.1439460">
        <ele>358.2</ele>
        <time>2021-07-25T11:52:44Z</time>
      </trkpt>
      <trkpt lat="42.9911460" lon="-8.1440330">
        <ele>357.6</ele>
        <time>2021-07-25T11:52:45Z</time>
      </trkpt>
      <trkpt lat="42.9910920" lon="-8.1441130">
        <ele>357.0</ele>
        <time>2021-07-25T11:52:46Z</time>
      </trkpt>
      <trkpt lat="42.9910350" lon="-8.1441930">
        <ele>356.4</ele>
        <time>2021-07-25T11:52:47Z</time>
      </trkpt>
      <trkpt lat="42.9909720" lon="-8.1442730">
        <ele>355.8</ele>
        <time>2021-07-25T11:52:48Z</time>
      </trkpt>
      <trkpt lat="42.9909010" lon="-8.1443520">
        <ele>355.2</ele>
        <time>2021-07-25T11:52:49Z</time>
      </trkpt>
      <trkpt lat="42.9908250" lon="-8.1444280">
        <ele>354.8</ele>
        <time>2021-07-25T11:52:50Z</time>
      </trkpt>
      <trkpt lat="42.9907490" lon="-8.1445050">
        <ele>354.2</ele>
        <time>2021-07-25T11:52:51Z</time>
      </trkpt>
      <trkpt lat="42.9906710" lon="-8.1445800">
        <ele>353.6</ele>
        <time>2021-07-25T11:52:52Z</time>
      </trkpt>
      <trkpt lat="42.9905920" lon="-8.1446560">
        <ele>353.2</ele>
        <time>2021-07-25T11:52:53Z</time>
      </trkpt>
      <trkpt lat="42.9905130" lon="-8.1447260">
        <ele>352.6</ele>
        <time>2021-07-25T11:52:54Z</time>
      </trkpt>
      <trkpt lat="42.9904370" lon="-8.1447950">
        <ele>352.0</ele>
        <time>2021-07-25T11:52:55Z</time>
      </trkpt>
      <trkpt lat="42.9903610" lon="-8.1448660">
        <ele>351.4</ele>
        <time>2021-07-25T11:52:56Z</time>
      </trkpt>
      <trkpt lat="42.9902830" lon="-8.1449370">
        <ele>350.8</ele>
        <time>2021-07-25T11:52:57Z</time>
      </trkpt>
      <trkpt lat="42.9902130" lon="-8.1450000">
        <ele>350.0</ele>
        <time>2021-07-25T11:52:58Z</time>
      </trkpt>
      <trkpt lat="42.9901440" lon="-8.1450580">
        <ele>348.8</ele>
        <time>2021-07-25T11:52:59Z</time>
      </trkpt>
      <trkpt lat="42.9900750" lon="-8.1451170">
        <ele>348.2</ele>
        <time>2021-07-25T11:53:00Z</time>
      </trkpt>
      <trkpt lat="42.9900080" lon="-8.1451790">
        <ele>347.4</ele>
        <time>2021-07-25T11:53:01Z</time>
      </trkpt>
      <trkpt lat="42.9899390" lon="-8.1452430">
        <ele>346.8</ele>
        <time>2021-07-25T11:53:02Z</time>
      </trkpt>
      <trkpt lat="42.9898670" lon="-8.1453080">
        <ele>346.0</ele>
        <time>2021-07-25T11:53:03Z</time>
      </trkpt>
      <trkpt lat="42.9897940" lon="-8.1453760">
        <ele>345.4</ele>
        <time>2021-07-25T11:53:04Z</time>
      </trkpt>
      <trkpt lat="42.9897180" lon="-8.1454420">
        <ele>344.8</ele>
        <time>2021-07-25T11:53:05Z</time>
      </trkpt>
      <trkpt lat="42.9896400" lon="-8.1455080">
        <ele>344.2</ele>
        <time>2021-07-25T11:53:06Z</time>
      </trkpt>
      <trkpt lat="42.9895610" lon="-8.1455760">
        <ele>343.6</ele>
        <time>2021-07-25T11:53:07Z</time>
      </trkpt>
      <trkpt lat="42.9894800" lon="-8.1456490">
        <ele>343.0</ele>
        <time>2021-07-25T11:53:08Z</time>
      </trkpt>
      <trkpt lat="42.9894040" lon="-8.1457230">
        <ele>342.4</ele>
        <time>2021-07-25T11:53:09Z</time>
      </trkpt>
      <trkpt lat="42.9893280" lon="-8.1457950">
        <ele>341.8</ele>
        <time>2021-07-25T11:53:10Z</time>
      </trkpt>
      <trkpt lat="42.9892550" lon="-8.1458660">
        <ele>341.2</ele>
        <time>2021-07-25T11:53:11Z</time>
      </trkpt>
      <trkpt lat="42.9891820" lon="-8.1459360">
        <ele>340.6</ele>
        <time>2021-07-25T11:53:12Z</time>
      </trkpt>
      <trkpt lat="42.9891090" lon="-8.1460030">
        <ele>340.2</ele>
        <time>2021-07-25T11:53:13Z</time>
      </trkpt>
      <trkpt lat="42.9890380" lon="-8.1460710">
        <ele>339.6</ele>
        <time>2021-07-25T11:53:14Z</time>
      </trkpt>
      <trkpt lat="42.9889690" lon="-8.1461390">
        <ele>339.0</ele>
        <time>2021-07-25T11:53:15Z</time>
      </trkpt>
      <trkpt lat="42.9888950" lon="-8.1462090">
        <ele>338.2</ele>
        <time>2021-07-25T11:53:16Z</time>
      </trkpt>
      <trkpt lat="42.9888230" lon="-8.1462740">
        <ele>337.6</ele>
        <time>2021-07-25T11:53:17Z</time>
      </trkpt>
      <trkpt lat="42.9887510" lon="-8.1463380">
        <ele>336.8</ele>
        <time>2021-07-25T11:53:18Z</time>
      </trkpt>
      <trkpt lat="42.9886810" lon="-8.1464040">
        <ele>336.2</ele>
        <time>2021-07-25T11:53:19Z</time>
      </trkpt>
      <trkpt lat="42.9886130" lon="-8.1464720">
        <ele>335.4</ele>
        <time>2021-07-25T11:53:20Z</time>
      </trkpt>
      <trkpt lat="42.9885450" lon="-8.1465390">
        <ele>334.8</ele>
        <time>2021-07-25T11:53:21Z</time>
      </trkpt>
      <trkpt lat="42.9884780" lon="-8.1466050">
        <ele>334.0</ele>
        <time>2021-07-25T11:53:22Z</time>
      </trkpt>
      <trkpt lat="42.9884060" lon="-8.1466730">
        <ele>333.2</ele>
        <time>2021-07-25T11:53:23Z</time>
      </trkpt>
      <trkpt lat="42.9883380" lon="-8.1467370">
        <ele>331.8</ele>
        <time>2021-07-25T11:53:24Z</time>
      </trkpt>
      <trkpt lat="42.9882690" lon="-8.1468000">
        <ele>331.2</ele>
        <time>2021-07-25T11:53:25Z</time>
      </trkpt>
      <trkpt lat="42.9881990" lon="-8.1468600">
        <ele>330.6</ele>
        <time>2021-07-25T11:53:26Z</time>
      </trkpt>
      <trkpt lat="42.9881290" lon="-8.1469160">
        <ele>330.2</ele>
        <time>2021-07-25T11:53:27Z</time>
      </trkpt>
      <trkpt lat="42.9880580" lon="-8.1469680">
        <ele>329.6</ele>
        <time>2021-07-25T11:53:28Z</time>
      </trkpt>
      <trkpt lat="42.9879920" lon="-8.1470170">
        <ele>329.0</ele>
        <time>2021-07-25T11:53:29Z</time>
      </trkpt>
      <trkpt lat="42.9879280" lon="-8.1470670">
        <ele>328.4</ele>
        <time>2021-07-25T11:53:30Z</time>
      </trkpt>
      <trkpt lat="42.9878600" lon="-8.1471120">
        <ele>327.6</ele>
        <time>2021-07-25T11:53:31Z</time>
      </trkpt>
      <trkpt lat="42.9877970" lon="-8.1471550">
        <ele>327.0</ele>
        <time>2021-07-25T11:53:32Z</time>
      </trkpt>
      <trkpt lat="42.9877360" lon="-8.1471970">
        <ele>326.4</ele>
        <time>2021-07-25T11:53:33Z</time>
      </trkpt>
      <trkpt lat="42.9876710" lon="-8.1472390">
        <ele>325.8</ele>
        <time>2021-07-25T11:53:34Z</time>
      </trkpt>
      <trkpt lat="42.9876050" lon="-8.1472800">
        <ele>325.4</ele>
        <time>2021-07-25T11:53:35Z</time>
      </trkpt>
      <trkpt lat="42.9875410" lon="-8.1473200">
        <ele>324.8</ele>
        <time>2021-07-25T11:53:36Z</time>
      </trkpt>
      <trkpt lat="42.9874760" lon="-8.1473600">
        <ele>324.4</ele>
        <time>2021-07-25T11:53:37Z</time>
      </trkpt>
      <trkpt lat="42.9874070" lon="-8.1474040">
        <ele>323.8</ele>
        <time>2021-07-25T11:53:38Z</time>
      </trkpt>
      <trkpt lat="42.9873420" lon="-8.1474430">
        <ele>323.0</ele>
        <time>2021-07-25T11:53:39Z</time>
      </trkpt>
      <trkpt lat="42.9872800" lon="-8.1474810">
        <ele>322.4</ele>
        <time>2021-07-25T11:53:40Z</time>
      </trkpt>
      <trkpt lat="42.9872220" lon="-8.1475240">
        <ele>321.8</ele>
        <time>2021-07-25T11:53:41Z</time>
      </trkpt>
      <trkpt lat="42.9871730" lon="-8.1475690">
        <ele>321.0</ele>
        <time>2021-07-25T11:53:42Z</time>
      </trkpt>
      <trkpt lat="42.9871270" lon="-8.1476220">
        <ele>320.2</ele>
        <time>2021-07-25T11:53:43Z</time>
      </trkpt>
      <trkpt lat="42.9870820" lon="-8.1476820">
        <ele>319.6</ele>
        <time>2021-07-25T11:53:44Z</time>
      </trkpt>
      <trkpt lat="42.9870340" lon="-8.1477450">
        <ele>319.0</ele>
        <time>2021-07-25T11:53:45Z</time>
      </trkpt>
      <trkpt lat="42.9869830" lon="-8.1478100">
        <ele>318.4</ele>
        <time>2021-07-25T11:53:46Z</time>
      </trkpt>
      <trkpt lat="42.9869330" lon="-8.1478710">
        <ele>317.8</ele>
        <time>2021-07-25T11:53:47Z</time>
      </trkpt>
      <trkpt lat="42.9868850" lon="-8.1479350">
        <ele>317.2</ele>
        <time>2021-07-25T11:53:48Z</time>
      </trkpt>
      <trkpt lat="42.9868390" lon="-8.1480010">
        <ele>316.2</ele>
        <time>2021-07-25T11:53:49Z</time>
      </trkpt>
      <trkpt lat="42.9867940" lon="-8.1480670">
        <ele>315.6</ele>
        <time>2021-07-25T11:53:50Z</time>
      </trkpt>
      <trkpt lat="42.9867470" lon="-8.1481290">
        <ele>315.2</ele>
        <time>2021-07-25T11:53:51Z</time>
      </trkpt>
      <trkpt lat="42.9867050" lon="-8.1481920">
        <ele>314.6</ele>
        <time>2021-07-25T11:53:52Z</time>
      </trkpt>
      <trkpt lat="42.9866640" lon="-8.1482540">
        <ele>314.2</ele>
        <time>2021-07-25T11:53:53Z</time>
      </trkpt>
      <trkpt lat="42.9866230" lon="-8.1483220">
        <ele>313.6</ele>
        <time>2021-07-25T11:53:54Z</time>
      </trkpt>
      <trkpt lat="42.9865850" lon="-8.1483940">
        <ele>313.2</ele>
        <time>2021-07-25T11:53:55Z</time>
      </trkpt>
      <trkpt lat="42.9865510" lon="-8.1484750">
        <ele>312.6</ele>
        <time>2021-07-25T11:53:56Z</time>
      </trkpt>
      <trkpt lat="42.9865220" lon="-8.1485620">
        <ele>311.8</ele>
        <time>2021-07-25T11:53:57Z</time>
      </trkpt>
      <trkpt lat="42.9864980" lon="-8.1486470">
        <ele>311.2</ele>
        <time>2021-07-25T11:53:58Z</time>
      </trkpt>
      <trkpt lat="42.9864920" lon="-8.1487570">
        <ele>310.6</ele>
        <time>2021-07-25T11:53:59Z</time>
      </trkpt>
      <trkpt lat="42.9864990" lon="-8.1488750">
        <ele>310.0</ele>
        <time>2021-07-25T11:54:00Z</time>
      </trkpt>
      <trkpt lat="42.9865020" lon="-8.1489730">
        <ele>310.0</ele>
        <time>2021-07-25T11:54:01Z</time>
      </trkpt>
      <trkpt lat="42.9865200" lon="-8.1492960">
        <ele>310.0</ele>
        <time>2021-07-25T11:54:05Z</time>
      </trkpt>
      <trkpt lat="42.9865290" lon="-8.1493930">
        <ele>310.0</ele>
        <time>2021-07-25T11:54:07Z</time>
      </trkpt>
      <trkpt lat="42.9865300" lon="-8.1494300">
        <ele>310.0</ele>
        <time>2021-07-25T11:54:08Z</time>
      </trkpt>
      <trkpt lat="42.9865320" lon="-8.1494980">
        <ele>310.0</ele>
        <time>2021-07-25T11:54:10Z</time>
      </trkpt>
      <trkpt lat="42.9865330" lon="-8.1495300">
        <ele>310.0</ele>
        <time>2021-07-25T11:54:11Z</time>
      </trkpt>
      <trkpt lat="42.9865340" lon="-8.1495610">
        <ele>310.0</ele>
        <time>2021-07-25T11:54:12Z</time>
      </trkpt>
      <trkpt lat="42.9865340" lon="-8.1495930">
        <ele>310.0</ele>
        <time>2021-07-25T11:54:13Z</time>
      </trkpt>
      <trkpt lat="42.9865340" lon="-8.1496510">
        <ele>310.0</ele>
        <time>2021-07-25T11:54:15Z</time>
      </trkpt>
      <trkpt lat="42.9865310" lon="-8.1497180">
        <ele>310.0</ele>
        <time>2021-07-25T11:54:17Z</time>
      </trkpt>
      <trkpt lat="42.9865300" lon="-8.1497540">
        <ele>310.0</ele>
        <time>2021-07-25T11:54:18Z</time>
      </trkpt>
      <trkpt lat="42.9865270" lon="-8.1498200">
        <ele>310.0</ele>
        <time>2021-07-25T11:54:20Z</time>
      </trkpt>
      <trkpt lat="42.9865230" lon="-8.1498490">
        <ele>310.4</ele>
        <time>2021-07-25T11:54:21Z</time>
      </trkpt>
      <trkpt lat="42.9865190" lon="-8.1498820">
        <ele>310.8</ele>
        <time>2021-07-25T11:54:22Z</time>
      </trkpt>
      <trkpt lat="42.9865170" lon="-8.1499190">
        <ele>311.2</ele>
        <time>2021-07-25T11:54:23Z</time>
      </trkpt>
      <trkpt lat="42.9865160" lon="-8.1499550">
        <ele>311.6</ele>
        <time>2021-07-25T11:54:24Z</time>
      </trkpt>
      <trkpt lat="42.9865170" lon="-8.1499870">
        <ele>312.0</ele>
        <time>2021-07-25T11:54:25Z</time>
      </trkpt>
      <trkpt lat="42.9865140" lon="-8.1500570">
        <ele>312.0</ele>
        <time>2021-07-25T11:54:27Z</time>
      </trkpt>
      <trkpt lat="42.9865160" lon="-8.1501220">
        <ele>312.0</ele>
        <time>2021-07-25T11:54:29Z</time>
      </trkpt>
      <trkpt lat="42.9865160" lon="-8.1502160">
        <ele>312.4</ele>
        <time>2021-07-25T11:54:32Z</time>
      </trkpt>
      <trkpt lat="42.9865140" lon="-8.1502530">
        <ele>312.8</ele>
        <time>2021-07-25T11:54:33Z</time>
      </trkpt>
      <trkpt lat="42.9865090" lon="-8.1502870">
        <ele>313.2</ele>
        <time>2021-07-25T11:54:34Z</time>
      </trkpt>
      <trkpt lat="42.9865050" lon="-8.1503210">
        <ele>313.8</ele>
        <time>2021-07-25T11:54:35Z</time>
      </trkpt>
      <trkpt lat="42.9865020" lon="-8.1503500">
        <ele>314.2</ele>
        <time>2021-07-25T11:54:36Z</time>
      </trkpt>
      <trkpt lat="42.9865030" lon="-8.1504380">
        <ele>314.2</ele>
        <time>2021-07-25T11:54:39Z</time>
      </trkpt>
      <trkpt lat="42.9865050" lon="-8.1504700">
        <ele>314.2</ele>
        <time>2021-07-25T11:54:40Z</time>
      </trkpt>
      <trkpt lat="42.9865080" lon="-8.1505390">
        <ele>314.6</ele>
        <time>2021-07-25T11:54:42Z</time>
      </trkpt>
      <trkpt lat="42.9865110" lon="-8.1505790">
        <ele>315.0</ele>
        <time>2021-07-25T11:54:43Z</time>
      </trkpt>
      <trkpt lat="42.9865120" lon="-8.1506180">
        <ele>315.6</ele>
        <time>2021-07-25T11:54:44Z</time>
      </trkpt>
      <trkpt lat="42.9865120" lon="-8.1506530">
        <ele>316.0</ele>
        <time>2021-07-25T11:54:45Z</time>
      </trkpt>
      <trkpt lat="42.9865110" lon="-8.1506910">
        <ele>316.6</ele>
        <time>2021-07-25T11:54:46Z</time>
      </trkpt>
      <trkpt lat="42.9865100" lon="-8.1507540">
        <ele>316.6</ele>
        <time>2021-07-25T11:54:48Z</time>
      </trkpt>
      <trkpt lat="42.9864990" lon="-8.1509580">
        <ele>316.6</ele>
        <time>2021-07-25T11:54:54Z</time>
      </trkpt>
      <trkpt lat="42.9864970" lon="-8.1510610">
        <ele>316.6</ele>
        <time>2021-07-25T11:54:57Z</time>
      </trkpt>
      <trkpt lat="42.9864920" lon="-8.1512770">
        <ele>317.0</ele>
        <time>2021-07-25T11:55:03Z</time>
      </trkpt>
      <trkpt lat="42.9864900" lon="-8.1513150">
        <ele>317.4</ele>
        <time>2021-07-25T11:55:04Z</time>
      </trkpt>
      <trkpt lat="42.9864860" lon="-8.1513520">
        <ele>317.8</ele>
        <time>2021-07-25T11:55:05Z</time>
      </trkpt>
      <trkpt lat="42.9864790" lon="-8.1513880">
        <ele>318.4</ele>
        <time>2021-07-25T11:55:06Z</time>
      </trkpt>
      <trkpt lat="42.9864770" lon="-8.1514250">
        <ele>318.8</ele>
        <time>2021-07-25T11:55:07Z</time>
      </trkpt>
      <trkpt lat="42.9864760" lon="-8.1516090">
        <ele>318.8</ele>
        <time>2021-07-25T11:55:12Z</time>
      </trkpt>
      <trkpt lat="42.9864670" lon="-8.1518850">
        <ele>318.8</ele>
        <time>2021-07-25T11:55:19Z</time>
      </trkpt>
      <trkpt lat="42.9863920" lon="-8.1522350">
        <ele>318.8</ele>
        <time>2021-07-25T11:55:27Z</time>
      </trkpt>
      <trkpt lat="42.9863270" lon="-8.1524040">
        <ele>318.8</ele>
        <time>2021-07-25T11:55:31Z</time>
      </trkpt>
      <trkpt lat="42.9862660" lon="-8.1525220">
        <ele>318.8</ele>
        <time>2021-07-25T11:55:34Z</time>
      </trkpt>
      <trkpt lat="42.9862200" lon="-8.1525960">
        <ele>318.8</ele>
        <time>2021-07-25T11:55:36Z</time>
      </trkpt>
      <trkpt lat="42.9861750" lon="-8.1526700">
        <ele>318.8</ele>
        <time>2021-07-25T11:55:38Z</time>
      </trkpt>
      <trkpt lat="42.9861290" lon="-8.1527370">
        <ele>318.8</ele>
        <time>2021-07-25T11:55:40Z</time>
      </trkpt>
      <trkpt lat="42.9861030" lon="-8.1527680">
        <ele>318.8</ele>
        <time>2021-07-25T11:55:41Z</time>
      </trkpt>
      <trkpt lat="42.9860800" lon="-8.1528020">
        <ele>318.8</ele>
        <time>2021-07-25T11:55:42Z</time>
      </trkpt>
      <trkpt lat="42.9858940" lon="-8.1530470">
        <ele>318.8</ele>
        <time>2021-07-25T11:55:48Z</time>
      </trkpt>
      <trkpt lat="42.9856370" lon="-8.1533710">
        <ele>318.8</ele>
        <time>2021-07-25T11:55:55Z</time>
      </trkpt>
      <trkpt lat="42.9855090" lon="-8.1535100">
        <ele>318.8</ele>
        <time>2021-07-25T11:55:58Z</time>
      </trkpt>
      <trkpt lat="42.9853880" lon="-8.1536260">
        <ele>318.2</ele>
        <time>2021-07-25T11:56:01Z</time>
      </trkpt>
      <trkpt lat="42.9853510" lon="-8.1536640">
        <ele>317.8</ele>
        <time>2021-07-25T11:56:02Z</time>
      </trkpt>
      <trkpt lat="42.9853140" lon="-8.1537020">
        <ele>317.4</ele>
        <time>2021-07-25T11:56:03Z</time>
      </trkpt>
      <trkpt lat="42.9852770" lon="-8.1537410">
        <ele>317.0</ele>
        <time>2021-07-25T11:56:04Z</time>
      </trkpt>
      <trkpt lat="42.9852420" lon="-8.1537830">
        <ele>316.4</ele>
        <time>2021-07-25T11:56:05Z</time>
      </trkpt>
      <trkpt lat="42.9852080" lon="-8.1538300">
        <ele>316.0</ele>
        <time>2021-07-25T11:56:06Z</time>
      </trkpt>
      <trkpt lat="42.9851780" lon="-8.1538830">
        <ele>315.6</ele>
        <time>2021-07-25T11:56:07Z</time>
      </trkpt>
      <trkpt lat="42.9851500" lon="-8.1539440">
        <ele>315.2</ele>
        <time>2021-07-25T11:56:08Z</time>
      </trkpt>
      <trkpt lat="42.9851270" lon="-8.1540060">
        <ele>314.8</ele>
        <time>2021-07-25T11:56:09Z</time>
      </trkpt>
      <trkpt lat="42.9851070" lon="-8.1540700">
        <ele>314.2</ele>
        <time>2021-07-25T11:56:10Z</time>
      </trkpt>
      <trkpt lat="42.9850910" lon="-8.1541360">
        <ele>313.8</ele>
        <time>2021-07-25T11:56:11Z</time>
      </trkpt>
      <trkpt lat="42.9850790" lon="-8.1542040">
        <ele>313.4</ele>
        <time>2021-07-25T11:56:12Z</time>
      </trkpt>
      <trkpt lat="42.9850710" lon="-8.1542730">
        <ele>313.0</ele>
        <time>2021-07-25T11:56:13Z</time>
      </trkpt>
      <trkpt lat="42.9850690" lon="-8.1543440">
        <ele>312.6</ele>
        <time>2021-07-25T11:56:14Z</time>
      </trkpt>
      <trkpt lat="42.9850670" lon="-8.1544190">
        <ele>312.2</ele>
        <time>2021-07-25T11:56:15Z</time>
      </trkpt>
      <trkpt lat="42.9850580" lon="-8.1545610">
        <ele>311.8</ele>
        <time>2021-07-25T11:56:17Z</time>
      </trkpt>
      <trkpt lat="42.9850530" lon="-8.1546300">
        <ele>311.2</ele>
        <time>2021-07-25T11:56:18Z</time>
      </trkpt>
      <trkpt lat="42.9850520" lon="-8.1546960">
        <ele>310.8</ele>
        <time>2021-07-25T11:56:19Z</time>
      </trkpt>
      <trkpt lat="42.9850490" lon="-8.1547640">
        <ele>310.4</ele>
        <time>2021-07-25T11:56:20Z</time>
      </trkpt>
      <trkpt lat="42.9850450" lon="-8.1548330">
        <ele>309.8</ele>
        <time>2021-07-25T11:56:21Z</time>
      </trkpt>
      <trkpt lat="42.9850390" lon="-8.1549000">
        <ele>309.8</ele>
        <time>2021-07-25T11:56:22Z</time>
      </trkpt>
      <trkpt lat="42.9850330" lon="-8.1549660">
        <ele>309.4</ele>
        <time>2021-07-25T11:56:23Z</time>
      </trkpt>
      <trkpt lat="42.9850270" lon="-8.1550260">
        <ele>309.0</ele>
        <time>2021-07-25T11:56:24Z</time>
      </trkpt>
      <trkpt lat="42.9850180" lon="-8.1550820">
        <ele>308.4</ele>
        <time>2021-07-25T11:56:25Z</time>
      </trkpt>
      <trkpt lat="42.9850070" lon="-8.1551400">
        <ele>308.0</ele>
        <time>2021-07-25T11:56:26Z</time>
      </trkpt>
      <trkpt lat="42.9849900" lon="-8.1551990">
        <ele>307.6</ele>
        <time>2021-07-25T11:56:27Z</time>
      </trkpt>
      <trkpt lat="42.9849350" lon="-8.1553250">
        <ele>307.2</ele>
        <time>2021-07-25T11:56:29Z</time>
      </trkpt>
      <trkpt lat="42.9848990" lon="-8.1553880">
        <ele>306.8</ele>
        <time>2021-07-25T11:56:30Z</time>
      </trkpt>
      <trkpt lat="42.9848560" lon="-8.1554570">
        <ele>306.4</ele>
        <time>2021-07-25T11:56:31Z</time>
      </trkpt>
      <trkpt lat="42.9848090" lon="-8.1555250">
        <ele>306.0</ele>
        <time>2021-07-25T11:56:32Z</time>
      </trkpt>
      <trkpt lat="42.9847570" lon="-8.1555940">
        <ele>305.6</ele>
        <time>2021-07-25T11:56:33Z</time>
      </trkpt>
      <trkpt lat="42.9845850" lon="-8.1558170">
        <ele>305.2</ele>
        <time>2021-07-25T11:56:36Z</time>
      </trkpt>
      <trkpt lat="42.9845230" lon="-8.1558950">
        <ele>304.8</ele>
        <time>2021-07-25T11:56:37Z</time>
      </trkpt>
      <trkpt lat="42.9844590" lon="-8.1559750">
        <ele>304.4</ele>
        <time>2021-07-25T11:56:38Z</time>
      </trkpt>
      <trkpt lat="42.9843940" lon="-8.1560560">
        <ele>303.8</ele>
        <time>2021-07-25T11:56:39Z</time>
      </trkpt>
      <trkpt lat="42.9843330" lon="-8.1561320">
        <ele>303.4</ele>
        <time>2021-07-25T11:56:40Z</time>
      </trkpt>
      <trkpt lat="42.9842180" lon="-8.1562780">
        <ele>302.6</ele>
        <time>2021-07-25T11:56:42Z</time>
      </trkpt>
      <trkpt lat="42.9841640" lon="-8.1563460">
        <ele>302.2</ele>
        <time>2021-07-25T11:56:43Z</time>
      </trkpt>
      <trkpt lat="42.9841140" lon="-8.1564120">
        <ele>301.8</ele>
        <time>2021-07-25T11:56:44Z</time>
      </trkpt>
      <trkpt lat="42.9840650" lon="-8.1564740">
        <ele>301.4</ele>
        <time>2021-07-25T11:56:45Z</time>
      </trkpt>
      <trkpt lat="42.9839760" lon="-8.1565860">
        <ele>301.4</ele>
        <time>2021-07-25T11:56:47Z</time>
      </trkpt>
      <trkpt lat="42.9838710" lon="-8.1567070">
        <ele>301.4</ele>
        <time>2021-07-25T11:56:50Z</time>
      </trkpt>
      <trkpt lat="42.9838230" lon="-8.1567550">
        <ele>301.4</ele>
        <time>2021-07-25T11:56:52Z</time>
      </trkpt>
      <trkpt lat="42.9837780" lon="-8.1567930">
        <ele>301.4</ele>
        <time>2021-07-25T11:56:54Z</time>
      </trkpt>
      <trkpt lat="42.9837400" lon="-8.1568230">
        <ele>301.4</ele>
        <time>2021-07-25T11:56:56Z</time>
      </trkpt>
      <trkpt lat="42.9836940" lon="-8.1568550">
        <ele>301.4</ele>
        <time>2021-07-25T11:56:58Z</time>
      </trkpt>
      <trkpt lat="42.9836470" lon="-8.1568810">
        <ele>301.4</ele>
        <time>2021-07-25T11:57:00Z</time>
      </trkpt>
      <trkpt lat="42.9835970" lon="-8.1568990">
        <ele>301.4</ele>
        <time>2021-07-25T11:57:02Z</time>
      </trkpt>
      <trkpt lat="42.9835470" lon="-8.1569140">
        <ele>301.4</ele>
        <time>2021-07-25T11:57:04Z</time>
      </trkpt>
      <trkpt lat="42.9834950" lon="-8.1569350">
        <ele>301.8</ele>
        <time>2021-07-25T11:57:06Z</time>
      </trkpt>
      <trkpt lat="42.9834700" lon="-8.1569440">
        <ele>302.8</ele>
        <time>2021-07-25T11:57:07Z</time>
      </trkpt>
      <trkpt lat="42.9834480" lon="-8.1569520">
        <ele>303.2</ele>
        <time>2021-07-25T11:57:08Z</time>
      </trkpt>
      <trkpt lat="42.9834270" lon="-8.1569620">
        <ele>303.6</ele>
        <time>2021-07-25T11:57:09Z</time>
      </trkpt>
      <trkpt lat="42.9833910" lon="-8.1569800">
        <ele>303.6</ele>
        <time>2021-07-25T11:57:11Z</time>
      </trkpt>
      <trkpt lat="42.9833550" lon="-8.1569870">
        <ele>303.6</ele>
        <time>2021-07-25T11:57:13Z</time>
      </trkpt>
      <trkpt lat="42.9832980" lon="-8.1570010">
        <ele>303.6</ele>
        <time>2021-07-25T11:57:16Z</time>
      </trkpt>
      <trkpt lat="42.9832760" lon="-8.1570080">
        <ele>304.0</ele>
        <time>2021-07-25T11:57:17Z</time>
      </trkpt>
      <trkpt lat="42.9832560" lon="-8.1570200">
        <ele>304.4</ele>
        <time>2021-07-25T11:57:18Z</time>
      </trkpt>
      <trkpt lat="42.9832360" lon="-8.1570270">
        <ele>304.8</ele>
        <time>2021-07-25T11:57:19Z</time>
      </trkpt>
      <trkpt lat="42.9832150" lon="-8.1570330">
        <ele>305.2</ele>
        <time>2021-07-25T11:57:20Z</time>
      </trkpt>
      <trkpt lat="42.9831930" lon="-8.1570390">
        <ele>305.6</ele>
        <time>2021-07-25T11:57:21Z</time>
      </trkpt>
      <trkpt lat="42.9831730" lon="-8.1570470">
        <ele>305.6</ele>
        <time>2021-07-25T11:57:22Z</time>
      </trkpt>
      <trkpt lat="42.9830540" lon="-8.1570880">
        <ele>305.6</ele>
        <time>2021-07-25T11:57:28Z</time>
      </trkpt>
      <trkpt lat="42.9830180" lon="-8.1571010">
        <ele>306.0</ele>
        <time>2021-07-25T11:57:30Z</time>
      </trkpt>
      <trkpt lat="42.9829980" lon="-8.1571080">
        <ele>306.4</ele>
        <time>2021-07-25T11:57:31Z</time>
      </trkpt>
      <trkpt lat="42.9829770" lon="-8.1571190">
        <ele>307.2</ele>
        <time>2021-07-25T11:57:32Z</time>
      </trkpt>
      <trkpt lat="42.9829560" lon="-8.1571290">
        <ele>307.6</ele>
        <time>2021-07-25T11:57:33Z</time>
      </trkpt>
      <trkpt lat="42.9829110" lon="-8.1571480">
        <ele>307.6</ele>
        <time>2021-07-25T11:57:35Z</time>
      </trkpt>
      <trkpt lat="42.9826930" lon="-8.1572110">
        <ele>307.6</ele>
        <time>2021-07-25T11:57:44Z</time>
      </trkpt>
      <trkpt lat="42.9824860" lon="-8.1572920">
        <ele>307.6</ele>
        <time>2021-07-25T11:57:51Z</time>
      </trkpt>
      <trkpt lat="42.9823100" lon="-8.1573330">
        <ele>308.6</ele>
        <time>2021-07-25T11:57:56Z</time>
      </trkpt>
      <trkpt lat="42.9822720" lon="-8.1573390">
        <ele>309.0</ele>
        <time>2021-07-25T11:57:57Z</time>
      </trkpt>
      <trkpt lat="42.9822330" lon="-8.1573430">
        <ele>309.4</ele>
        <time>2021-07-25T11:57:58Z</time>
      </trkpt>
      <trkpt lat="42.9821970" lon="-8.1573430">
        <ele>309.8</ele>
        <time>2021-07-25T11:57:59Z</time>
      </trkpt>
      <trkpt lat="42.9820930" lon="-8.1573430">
        <ele>309.8</ele>
        <time>2021-07-25T11:58:02Z</time>
      </trkpt>
      <trkpt lat="42.9819860" lon="-8.1573440">
        <ele>309.8</ele>
        <time>2021-07-25T11:58:05Z</time>
      </trkpt>
      <trkpt lat="42.9819110" lon="-8.1573470">
        <ele>309.8</ele>
        <time>2021-07-25T11:58:07Z</time>
      </trkpt>
      <trkpt lat="42.9817190" lon="-8.1573730">
        <ele>309.8</ele>
        <time>2021-07-25T11:58:12Z</time>
      </trkpt>
      <trkpt lat="42.9816470" lon="-8.1573940">
        <ele>309.8</ele>
        <time>2021-07-25T11:58:14Z</time>
      </trkpt>
      <trkpt lat="42.9815440" lon="-8.1574220">
        <ele>309.8</ele>
        <time>2021-07-25T11:58:17Z</time>
      </trkpt>
      <trkpt lat="42.9814050" lon="-8.1574990">
        <ele>309.8</ele>
        <time>2021-07-25T11:58:21Z</time>
      </trkpt>
      <trkpt lat="42.9810580" lon="-8.1577050">
        <ele>309.8</ele>
        <time>2021-07-25T11:58:31Z</time>
      </trkpt>
      <trkpt lat="42.9809080" lon="-8.1577980">
        <ele>309.8</ele>
        <time>2021-07-25T11:58:35Z</time>
      </trkpt>
      <trkpt lat="42.9807610" lon="-8.1578890">
        <ele>309.8</ele>
        <time>2021-07-25T11:58:39Z</time>
      </trkpt>
      <trkpt lat="42.9805130" lon="-8.1580490">
        <ele>309.8</ele>
        <time>2021-07-25T11:58:46Z</time>
      </trkpt>
      <trkpt lat="42.9803190" lon="-8.1581900">
        <ele>309.8</ele>
        <time>2021-07-25T11:58:52Z</time>
      </trkpt>
      <trkpt lat="42.9802630" lon="-8.1582460">
        <ele>309.8</ele>
        <time>2021-07-25T11:58:54Z</time>
      </trkpt>
      <trkpt lat="42.9802310" lon="-8.1582730">
        <ele>309.8</ele>
        <time>2021-07-25T11:58:55Z</time>
      </trkpt>
      <trkpt lat="42.9801510" lon="-8.1583560">
        <ele>309.8</ele>
        <time>2021-07-25T11:58:58Z</time>
      </trkpt>
      <trkpt lat="42.9800490" lon="-8.1584800">
        <ele>309.8</ele>
        <time>2021-07-25T11:59:02Z</time>
      </trkpt>
      <trkpt lat="42.9800240" lon="-8.1585120">
        <ele>310.2</ele>
        <time>2021-07-25T11:59:03Z</time>
      </trkpt>
      <trkpt lat="42.9799980" lon="-8.1585430">
        <ele>310.6</ele>
        <time>2021-07-25T11:59:04Z</time>
      </trkpt>
      <trkpt lat="42.9799710" lon="-8.1585740">
        <ele>311.0</ele>
        <time>2021-07-25T11:59:05Z</time>
      </trkpt>
      <trkpt lat="42.9799460" lon="-8.1586070">
        <ele>311.4</ele>
        <time>2021-07-25T11:59:06Z</time>
      </trkpt>
      <trkpt lat="42.9799200" lon="-8.1586370">
        <ele>311.8</ele>
        <time>2021-07-25T11:59:07Z</time>
      </trkpt>
      <trkpt lat="42.9797940" lon="-8.1587850">
        <ele>311.8</ele>
        <time>2021-07-25T11:59:12Z</time>
      </trkpt>
      <trkpt lat="42.9796450" lon="-8.1589640">
        <ele>311.8</ele>
        <time>2021-07-25T11:59:18Z</time>
      </trkpt>
      <trkpt lat="42.9796200" lon="-8.1589970">
        <ele>312.2</ele>
        <time>2021-07-25T11:59:19Z</time>
      </trkpt>
      <trkpt lat="42.9795960" lon="-8.1590310">
        <ele>312.6</ele>
        <time>2021-07-25T11:59:20Z</time>
      </trkpt>
      <trkpt lat="42.9795700" lon="-8.1590640">
        <ele>313.0</ele>
        <time>2021-07-25T11:59:21Z</time>
      </trkpt>
      <trkpt lat="42.9795460" lon="-8.1590960">
        <ele>313.4</ele>
        <time>2021-07-25T11:59:22Z</time>
      </trkpt>
      <trkpt lat="42.9795210" lon="-8.1591260">
        <ele>314.0</ele>
        <time>2021-07-25T11:59:23Z</time>
      </trkpt>
      <trkpt lat="42.9793670" lon="-8.1593090">
        <ele>314.0</ele>
        <time>2021-07-25T11:59:29Z</time>
      </trkpt>
      <trkpt lat="42.9791970" lon="-8.1595110">
        <ele>314.0</ele>
        <time>2021-07-25T11:59:36Z</time>
      </trkpt>
      <trkpt lat="42.9789950" lon="-8.1597590">
        <ele>314.0</ele>
        <time>2021-07-25T11:59:45Z</time>
      </trkpt>
      <trkpt lat="42.9789710" lon="-8.1597760">
        <ele>314.4</ele>
        <time>2021-07-25T11:59:46Z</time>
      </trkpt>
      <trkpt lat="42.9789430" lon="-8.1597860">
        <ele>314.8</ele>
        <time>2021-07-25T11:59:47Z</time>
      </trkpt>
      <trkpt lat="42.9789120" lon="-8.1597890">
        <ele>315.2</ele>
        <time>2021-07-25T11:59:48Z</time>
      </trkpt>
      <trkpt lat="42.9788780" lon="-8.1597890">
        <ele>315.6</ele>
        <time>2021-07-25T11:59:49Z</time>
      </trkpt>
      <trkpt lat="42.9788450" lon="-8.1597810">
        <ele>316.0</ele>
        <time>2021-07-25T11:59:50Z</time>
      </trkpt>
      <trkpt lat="42.9787760" lon="-8.1597340">
        <ele>316.0</ele>
        <time>2021-07-25T11:59:52Z</time>
      </trkpt>
      <trkpt lat="42.9786940" lon="-8.1596670">
        <ele>316.0</ele>
        <time>2021-07-25T11:59:54Z</time>
      </trkpt>
      <trkpt lat="42.9785020" lon="-8.1594940">
        <ele>316.0</ele>
        <time>2021-07-25T11:59:58Z</time>
      </trkpt>
      <trkpt lat="42.9784510" lon="-8.1594470">
        <ele>316.0</ele>
        <time>2021-07-25T11:59:59Z</time>
      </trkpt>
      <trkpt lat="42.9783470" lon="-8.1593450">
        <ele>316.0</ele>
        <time>2021-07-25T12:00:01Z</time>
      </trkpt>
      <trkpt lat="42.9782930" lon="-8.1592930">
        <ele>315.6</ele>
        <time>2021-07-25T12:00:02Z</time>
      </trkpt>
      <trkpt lat="42.9782400" lon="-8.1592430">
        <ele>315.2</ele>
        <time>2021-07-25T12:00:03Z</time>
      </trkpt>
      <trkpt lat="42.9781820" lon="-8.1591930">
        <ele>314.8</ele>
        <time>2021-07-25T12:00:04Z</time>
      </trkpt>
      <trkpt lat="42.9781260" lon="-8.1591440">
        <ele>314.4</ele>
        <time>2021-07-25T12:00:05Z</time>
      </trkpt>
      <trkpt lat="42.9780700" lon="-8.1590930">
        <ele>313.8</ele>
        <time>2021-07-25T12:00:06Z</time>
      </trkpt>
      <trkpt lat="42.9780140" lon="-8.1590390">
        <ele>313.8</ele>
        <time>2021-07-25T12:00:07Z</time>
      </trkpt>
      <trkpt lat="42.9778400" lon="-8.1588860">
        <ele>313.8</ele>
        <time>2021-07-25T12:00:10Z</time>
      </trkpt>
      <trkpt lat="42.9777110" lon="-8.1588070">
        <ele>313.8</ele>
        <time>2021-07-25T12:00:12Z</time>
      </trkpt>
      <trkpt lat="42.9776480" lon="-8.1587810">
        <ele>313.8</ele>
        <time>2021-07-25T12:00:13Z</time>
      </trkpt>
      <trkpt lat="42.9775200" lon="-8.1587570">
        <ele>313.8</ele>
        <time>2021-07-25T12:00:15Z</time>
      </trkpt>
      <trkpt lat="42.9774570" lon="-8.1587520">
        <ele>313.4</ele>
        <time>2021-07-25T12:00:16Z</time>
      </trkpt>
      <trkpt lat="42.9773950" lon="-8.1587500">
        <ele>313.0</ele>
        <time>2021-07-25T12:00:17Z</time>
      </trkpt>
      <trkpt lat="42.9773340" lon="-8.1587470">
        <ele>312.6</ele>
        <time>2021-07-25T12:00:18Z</time>
      </trkpt>
      <trkpt lat="42.9772720" lon="-8.1587420">
        <ele>312.2</ele>
        <time>2021-07-25T12:00:19Z</time>
      </trkpt>
      <trkpt lat="42.9772080" lon="-8.1587370">
        <ele>311.6</ele>
        <time>2021-07-25T12:00:20Z</time>
      </trkpt>
      <trkpt lat="42.9768950" lon="-8.1587220">
        <ele>311.6</ele>
        <time>2021-07-25T12:00:25Z</time>
      </trkpt>
      <trkpt lat="42.9766290" lon="-8.1587160">
        <ele>311.6</ele>
        <time>2021-07-25T12:00:29Z</time>
      </trkpt>
      <trkpt lat="42.9764950" lon="-8.1587010">
        <ele>311.2</ele>
        <time>2021-07-25T12:00:31Z</time>
      </trkpt>
      <trkpt lat="42.9764280" lon="-8.1586880">
        <ele>310.8</ele>
        <time>2021-07-25T12:00:32Z</time>
      </trkpt>
      <trkpt lat="42.9763630" lon="-8.1586750">
        <ele>310.4</ele>
        <time>2021-07-25T12:00:33Z</time>
      </trkpt>
      <trkpt lat="42.9762930" lon="-8.1586610">
        <ele>310.0</ele>
        <time>2021-07-25T12:00:34Z</time>
      </trkpt>
      <trkpt lat="42.9762270" lon="-8.1586470">
        <ele>309.6</ele>
        <time>2021-07-25T12:00:35Z</time>
      </trkpt>
      <trkpt lat="42.9761010" lon="-8.1586100">
        <ele>309.6</ele>
        <time>2021-07-25T12:00:37Z</time>
      </trkpt>
      <trkpt lat="42.9759320" lon="-8.1585260">
        <ele>309.6</ele>
        <time>2021-07-25T12:00:40Z</time>
      </trkpt>
      <trkpt lat="42.9756510" lon="-8.1582840">
        <ele>309.6</ele>
        <time>2021-07-25T12:00:46Z</time>
      </trkpt>
      <trkpt lat="42.9754610" lon="-8.1580760">
        <ele>309.6</ele>
        <time>2021-07-25T12:00:51Z</time>
      </trkpt>
      <trkpt lat="42.9754300" lon="-8.1580290">
        <ele>309.6</ele>
        <time>2021-07-25T12:00:52Z</time>
      </trkpt>
      <trkpt lat="42.9753510" lon="-8.1578910">
        <ele>309.2</ele>
        <time>2021-07-25T12:00:55Z</time>
      </trkpt>
      <trkpt lat="42.9753240" lon="-8.1578470">
        <ele>308.8</ele>
        <time>2021-07-25T12:00:56Z</time>
      </trkpt>
      <trkpt lat="42.9752970" lon="-8.1578050">
        <ele>308.4</ele>
        <time>2021-07-25T12:00:57Z</time>
      </trkpt>
      <trkpt lat="42.9752690" lon="-8.1577590">
        <ele>308.0</ele>
        <time>2021-07-25T12:00:58Z</time>
      </trkpt>
      <trkpt lat="42.9752460" lon="-8.1577160">
        <ele>307.6</ele>
        <time>2021-07-25T12:00:59Z</time>
      </trkpt>
      <trkpt lat="42.9751570" lon="-8.1575920">
        <ele>307.6</ele>
        <time>2021-07-25T12:01:02Z</time>
      </trkpt>
      <trkpt lat="42.9750820" lon="-8.1575160">
        <ele>307.6</ele>
        <time>2021-07-25T12:01:04Z</time>
      </trkpt>
      <trkpt lat="42.9749120" lon="-8.1574940">
        <ele>307.6</ele>
        <time>2021-07-25T12:01:08Z</time>
      </trkpt>
      <trkpt lat="42.9748740" lon="-8.1575080">
        <ele>307.6</ele>
        <time>2021-07-25T12:01:09Z</time>
      </trkpt>
      <trkpt lat="42.9748360" lon="-8.1575230">
        <ele>307.6</ele>
        <time>2021-07-25T12:01:10Z</time>
      </trkpt>
      <trkpt lat="42.9747710" lon="-8.1575620">
        <ele>307.6</ele>
        <time>2021-07-25T12:01:12Z</time>
      </trkpt>
      <trkpt lat="42.9747370" lon="-8.1575860">
        <ele>307.6</ele>
        <time>2021-07-25T12:01:13Z</time>
      </trkpt>
      <trkpt lat="42.9746790" lon="-8.1576320">
        <ele>307.6</ele>
        <time>2021-07-25T12:01:15Z</time>
      </trkpt>
      <trkpt lat="42.9745430" lon="-8.1577610">
        <ele>307.6</ele>
        <time>2021-07-25T12:01:21Z</time>
      </trkpt>
      <trkpt lat="42.9744870" lon="-8.1578160">
        <ele>307.6</ele>
        <time>2021-07-25T12:01:23Z</time>
      </trkpt>
      <trkpt lat="42.9744610" lon="-8.1578450">
        <ele>307.6</ele>
        <time>2021-07-25T12:01:24Z</time>
      </trkpt>
      <trkpt lat="42.9743790" lon="-8.1579280">
        <ele>307.6</ele>
        <time>2021-07-25T12:01:27Z</time>
      </trkpt>
      <trkpt lat="42.9742330" lon="-8.1580870">
        <ele>307.6</ele>
        <time>2021-07-25T12:01:32Z</time>
      </trkpt>
      <trkpt lat="42.9740440" lon="-8.1582080">
        <ele>307.6</ele>
        <time>2021-07-25T12:01:38Z</time>
      </trkpt>
      <trkpt lat="42.9738380" lon="-8.1581880">
        <ele>307.6</ele>
        <time>2021-07-25T12:01:43Z</time>
      </trkpt>
      <trkpt lat="42.9736140" lon="-8.1581740">
        <ele>307.6</ele>
        <time>2021-07-25T12:01:49Z</time>
      </trkpt>
      <trkpt lat="42.9735310" lon="-8.1581620">
        <ele>307.6</ele>
        <time>2021-07-25T12:01:51Z</time>
      </trkpt>
      <trkpt lat="42.9732230" lon="-8.1581170">
        <ele>307.6</ele>
        <time>2021-07-25T12:01:59Z</time>
      </trkpt>
      <trkpt lat="42.9731000" lon="-8.1580980">
        <ele>307.6</ele>
        <time>2021-07-25T12:02:02Z</time>
      </trkpt>
      <trkpt lat="42.9729430" lon="-8.1580840">
        <ele>307.6</ele>
        <time>2021-07-25T12:02:06Z</time>
      </trkpt>
      <trkpt lat="42.9728340" lon="-8.1580770">
        <ele>307.6</ele>
        <time>2021-07-25T12:02:09Z</time>
      </trkpt>
      <trkpt lat="42.9726790" lon="-8.1580980">
        <ele>307.6</ele>
        <time>2021-07-25T12:02:13Z</time>
      </trkpt>
      <trkpt lat="42.9725370" lon="-8.1581680">
        <ele>307.6</ele>
        <time>2021-07-25T12:02:17Z</time>
      </trkpt>
      <trkpt lat="42.9724620" lon="-8.1582070">
        <ele>307.6</ele>
        <time>2021-07-25T12:02:19Z</time>
      </trkpt>
      <trkpt lat="42.9723400" lon="-8.1582700">
        <ele>307.6</ele>
        <time>2021-07-25T12:02:22Z</time>
      </trkpt>
      <trkpt lat="42.9722250" lon="-8.1583050">
        <ele>307.6</ele>
        <time>2021-07-25T12:02:25Z</time>
      </trkpt>
      <trkpt lat="42.9721840" lon="-8.1583010">
        <ele>307.6</ele>
        <time>2021-07-25T12:02:26Z</time>
      </trkpt>
      <trkpt lat="42.9720030" lon="-8.1581830">
        <ele>307.6</ele>
        <time>2021-07-25T12:02:31Z</time>
      </trkpt>
      <trkpt lat="42.9719730" lon="-8.1581430">
        <ele>307.6</ele>
        <time>2021-07-25T12:02:32Z</time>
      </trkpt>
      <trkpt lat="42.9718850" lon="-8.1579640">
        <ele>307.6</ele>
        <time>2021-07-25T12:02:36Z</time>
      </trkpt>
      <trkpt lat="42.9718350" lon="-8.1578830">
        <ele>307.6</ele>
        <time>2021-07-25T12:02:38Z</time>
      </trkpt>
      <trkpt lat="42.9716950" lon="-8.1577710">
        <ele>307.6</ele>
        <time>2021-07-25T12:02:42Z</time>
      </trkpt>
      <trkpt lat="42.9714240" lon="-8.1576480">
        <ele>307.6</ele>
        <time>2021-07-25T12:02:48Z</time>
      </trkpt>
      <trkpt lat="42.9712760" lon="-8.1575810">
        <ele>307.6</ele>
        <time>2021-07-25T12:02:51Z</time>
      </trkpt>
      <trkpt lat="42.9711250" lon="-8.1575310">
        <ele>307.6</ele>
        <time>2021-07-25T12:02:54Z</time>
      </trkpt>
      <trkpt lat="42.9710760" lon="-8.1575130">
        <ele>307.6</ele>
        <time>2021-07-25T12:02:55Z</time>
      </trkpt>
      <trkpt lat="42.9709770" lon="-8.1574750">
        <ele>307.6</ele>
        <time>2021-07-25T12:02:57Z</time>
      </trkpt>
      <trkpt lat="42.9708220" lon="-8.1574160">
        <ele>307.6</ele>
        <time>2021-07-25T12:03:00Z</time>
      </trkpt>
      <trkpt lat="42.9707160" lon="-8.1573810">
        <ele>307.2</ele>
        <time>2021-07-25T12:03:02Z</time>
      </trkpt>
      <trkpt lat="42.9706630" lon="-8.1573610">
        <ele>306.8</ele>
        <time>2021-07-25T12:03:03Z</time>
      </trkpt>
      <trkpt lat="42.9706110" lon="-8.1573390">
        <ele>306.4</ele>
        <time>2021-07-25T12:03:04Z</time>
      </trkpt>
      <trkpt lat="42.9705550" lon="-8.1573170">
        <ele>306.0</ele>
        <time>2021-07-25T12:03:05Z</time>
      </trkpt>
      <trkpt lat="42.9705010" lon="-8.1572940">
        <ele>305.6</ele>
        <time>2021-07-25T12:03:06Z</time>
      </trkpt>
      <trkpt lat="42.9701360" lon="-8.1571360">
        <ele>305.6</ele>
        <time>2021-07-25T12:03:12Z</time>
      </trkpt>
      <trkpt lat="42.9700740" lon="-8.1571130">
        <ele>305.2</ele>
        <time>2021-07-25T12:03:13Z</time>
      </trkpt>
      <trkpt lat="42.9700100" lon="-8.1570910">
        <ele>304.8</ele>
        <time>2021-07-25T12:03:14Z</time>
      </trkpt>
      <trkpt lat="42.9699410" lon="-8.1570660">
        <ele>304.4</ele>
        <time>2021-07-25T12:03:15Z</time>
      </trkpt>
      <trkpt lat="42.9698760" lon="-8.1570410">
        <ele>304.0</ele>
        <time>2021-07-25T12:03:16Z</time>
      </trkpt>
      <trkpt lat="42.9698090" lon="-8.1570120">
        <ele>303.6</ele>
        <time>2021-07-25T12:03:17Z</time>
      </trkpt>
      <trkpt lat="42.9695400" lon="-8.1568970">
        <ele>303.6</ele>
        <time>2021-07-25T12:03:21Z</time>
      </trkpt>
      <trkpt lat="42.9694710" lon="-8.1568710">
        <ele>303.2</ele>
        <time>2021-07-25T12:03:22Z</time>
      </trkpt>
      <trkpt lat="42.9694020" lon="-8.1568460">
        <ele>302.6</ele>
        <time>2021-07-25T12:03:23Z</time>
      </trkpt>
      <trkpt lat="42.9693320" lon="-8.1568170">
        <ele>302.2</ele>
        <time>2021-07-25T12:03:24Z</time>
      </trkpt>
      <trkpt lat="42.9692630" lon="-8.1567900">
        <ele>301.8</ele>
        <time>2021-07-25T12:03:25Z</time>
      </trkpt>
      <trkpt lat="42.9691920" lon="-8.1567650">
        <ele>301.4</ele>
        <time>2021-07-25T12:03:26Z</time>
      </trkpt>
      <trkpt lat="42.9688900" lon="-8.1566720">
        <ele>301.0</ele>
        <time>2021-07-25T12:03:30Z</time>
      </trkpt>
      <trkpt lat="42.9688130" lon="-8.1566520">
        <ele>300.6</ele>
        <time>2021-07-25T12:03:31Z</time>
      </trkpt>
      <trkpt lat="42.9687380" lon="-8.1566320">
        <ele>300.2</ele>
        <time>2021-07-25T12:03:32Z</time>
      </trkpt>
      <trkpt lat="42.9686570" lon="-8.1566160">
        <ele>299.8</ele>
        <time>2021-07-25T12:03:33Z</time>
      </trkpt>
      <trkpt lat="42.9685740" lon="-8.1565990">
        <ele>299.4</ele>
        <time>2021-07-25T12:03:34Z</time>
      </trkpt>
      <trkpt lat="42.9683210" lon="-8.1565350">
        <ele>299.4</ele>
        <time>2021-07-25T12:03:37Z</time>
      </trkpt>
      <trkpt lat="42.9680770" lon="-8.1564490">
        <ele>298.8</ele>
        <time>2021-07-25T12:03:40Z</time>
      </trkpt>
      <trkpt lat="42.9679990" lon="-8.1564170">
        <ele>298.4</ele>
        <time>2021-07-25T12:03:41Z</time>
      </trkpt>
      <trkpt lat="42.9679230" lon="-8.1563840">
        <ele>298.0</ele>
        <time>2021-07-25T12:03:42Z</time>
      </trkpt>
      <trkpt lat="42.9678470" lon="-8.1563510">
        <ele>297.2</ele>
        <time>2021-07-25T12:03:43Z</time>
      </trkpt>
      <trkpt lat="42.9677720" lon="-8.1563200">
        <ele>297.2</ele>
        <time>2021-07-25T12:03:44Z</time>
      </trkpt>
      <trkpt lat="42.9674130" lon="-8.1561760">
        <ele>296.8</ele>
        <time>2021-07-25T12:03:49Z</time>
      </trkpt>
      <trkpt lat="42.9673450" lon="-8.1561480">
        <ele>296.4</ele>
        <time>2021-07-25T12:03:50Z</time>
      </trkpt>
      <trkpt lat="42.9672750" lon="-8.1561190">
        <ele>296.0</ele>
        <time>2021-07-25T12:03:51Z</time>
      </trkpt>
      <trkpt lat="42.9672070" lon="-8.1560920">
        <ele>295.6</ele>
        <time>2021-07-25T12:03:52Z</time>
      </trkpt>
      <trkpt lat="42.9671400" lon="-8.1560660">
        <ele>295.2</ele>
        <time>2021-07-25T12:03:53Z</time>
      </trkpt>
      <trkpt lat="42.9670110" lon="-8.1560130">
        <ele>295.2</ele>
        <time>2021-07-25T12:03:55Z</time>
      </trkpt>
      <trkpt lat="42.9666570" lon="-8.1558410">
        <ele>295.2</ele>
        <time>2021-07-25T12:04:01Z</time>
      </trkpt>
      <trkpt lat="42.9663260" lon="-8.1555920">
        <ele>294.8</ele>
        <time>2021-07-25T12:04:07Z</time>
      </trkpt>
      <trkpt lat="42.9662680" lon="-8.1555500">
        <ele>294.0</ele>
        <time>2021-07-25T12:04:08Z</time>
      </trkpt>
      <trkpt lat="42.9662120" lon="-8.1555060">
        <ele>293.6</ele>
        <time>2021-07-25T12:04:09Z</time>
      </trkpt>
      <trkpt lat="42.9661570" lon="-8.1554610">
        <ele>293.2</ele>
        <time>2021-07-25T12:04:10Z</time>
      </trkpt>
      <trkpt lat="42.9658590" lon="-8.1552340">
        <ele>292.8</ele>
        <time>2021-07-25T12:04:15Z</time>
      </trkpt>
      <trkpt lat="42.9657970" lon="-8.1551890">
        <ele>292.4</ele>
        <time>2021-07-25T12:04:16Z</time>
      </trkpt>
      <trkpt lat="42.9657350" lon="-8.1551420">
        <ele>291.8</ele>
        <time>2021-07-25T12:04:17Z</time>
      </trkpt>
      <trkpt lat="42.9656750" lon="-8.1550930">
        <ele>291.4</ele>
        <time>2021-07-25T12:04:18Z</time>
      </trkpt>
      <trkpt lat="42.9656110" lon="-8.1550450">
        <ele>291.0</ele>
        <time>2021-07-25T12:04:19Z</time>
      </trkpt>
      <trkpt lat="42.9650920" lon="-8.1546440">
        <ele>291.0</ele>
        <time>2021-07-25T12:04:27Z</time>
      </trkpt>
      <trkpt lat="42.9650260" lon="-8.1545920">
        <ele>290.6</ele>
        <time>2021-07-25T12:04:28Z</time>
      </trkpt>
      <trkpt lat="42.9649600" lon="-8.1545390">
        <ele>290.2</ele>
        <time>2021-07-25T12:04:29Z</time>
      </trkpt>
      <trkpt lat="42.9648910" lon="-8.1544860">
        <ele>289.6</ele>
        <time>2021-07-25T12:04:30Z</time>
      </trkpt>
      <trkpt lat="42.9648250" lon="-8.1544360">
        <ele>289.2</ele>
        <time>2021-07-25T12:04:31Z</time>
      </trkpt>
      <trkpt lat="42.9647620" lon="-8.1543860">
        <ele>288.8</ele>
        <time>2021-07-25T12:04:32Z</time>
      </trkpt>
      <trkpt lat="42.9644540" lon="-8.1541500">
        <ele>288.8</ele>
        <time>2021-07-25T12:04:37Z</time>
      </trkpt>
      <trkpt lat="42.9642470" lon="-8.1539540">
        <ele>288.2</ele>
        <time>2021-07-25T12:04:41Z</time>
      </trkpt>
      <trkpt lat="42.9642050" lon="-8.1538960">
        <ele>287.8</ele>
        <time>2021-07-25T12:04:42Z</time>
      </trkpt>
      <trkpt lat="42.9641660" lon="-8.1538330">
        <ele>287.4</ele>
        <time>2021-07-25T12:04:43Z</time>
      </trkpt>
      <trkpt lat="42.9641330" lon="-8.1537700">
        <ele>287.0</ele>
        <time>2021-07-25T12:04:44Z</time>
      </trkpt>
      <trkpt lat="42.9641040" lon="-8.1537030">
        <ele>286.6</ele>
        <time>2021-07-25T12:04:45Z</time>
      </trkpt>
      <trkpt lat="42.9640220" lon="-8.1535000">
        <ele>286.6</ele>
        <time>2021-07-25T12:04:48Z</time>
      </trkpt>
      <trkpt lat="42.9639700" lon="-8.1533660">
        <ele>286.6</ele>
        <time>2021-07-25T12:04:50Z</time>
      </trkpt>
      <trkpt lat="42.9638930" lon="-8.1531770">
        <ele>286.6</ele>
        <time>2021-07-25T12:04:53Z</time>
      </trkpt>
      <trkpt lat="42.9638230" lon="-8.1529870">
        <ele>286.6</ele>
        <time>2021-07-25T12:04:56Z</time>
      </trkpt>
      <trkpt lat="42.9637080" lon="-8.1526930">
        <ele>286.6</ele>
        <time>2021-07-25T12:05:01Z</time>
      </trkpt>
      <trkpt lat="42.9636810" lon="-8.1526390">
        <ele>286.6</ele>
        <time>2021-07-25T12:05:02Z</time>
      </trkpt>
      <trkpt lat="42.9635530" lon="-8.1524040">
        <ele>286.2</ele>
        <time>2021-07-25T12:05:06Z</time>
      </trkpt>
      <trkpt lat="42.9635120" lon="-8.1523440">
        <ele>285.8</ele>
        <time>2021-07-25T12:05:07Z</time>
      </trkpt>
      <trkpt lat="42.9634680" lon="-8.1522870">
        <ele>285.4</ele>
        <time>2021-07-25T12:05:08Z</time>
      </trkpt>
      <trkpt lat="42.9634210" lon="-8.1522250">
        <ele>284.8</ele>
        <time>2021-07-25T12:05:09Z</time>
      </trkpt>
      <trkpt lat="42.9633720" lon="-8.1521620">
        <ele>284.4</ele>
        <time>2021-07-25T12:05:10Z</time>
      </trkpt>
      <trkpt lat="42.9631760" lon="-8.1519020">
        <ele>284.0</ele>
        <time>2021-07-25T12:05:14Z</time>
      </trkpt>
      <trkpt lat="42.9631280" lon="-8.1518340">
        <ele>283.6</ele>
        <time>2021-07-25T12:05:15Z</time>
      </trkpt>
      <trkpt lat="42.9630760" lon="-8.1517640">
        <ele>283.2</ele>
        <time>2021-07-25T12:05:16Z</time>
      </trkpt>
      <trkpt lat="42.9630260" lon="-8.1516930">
        <ele>282.8</ele>
        <time>2021-07-25T12:05:17Z</time>
      </trkpt>
      <trkpt lat="42.9629760" lon="-8.1516220">
        <ele>282.2</ele>
        <time>2021-07-25T12:05:18Z</time>
      </trkpt>
      <trkpt lat="42.9628770" lon="-8.1514870">
        <ele>281.8</ele>
        <time>2021-07-25T12:05:20Z</time>
      </trkpt>
      <trkpt lat="42.9628280" lon="-8.1514220">
        <ele>281.4</ele>
        <time>2021-07-25T12:05:21Z</time>
      </trkpt>
      <trkpt lat="42.9627800" lon="-8.1513530">
        <ele>280.4</ele>
        <time>2021-07-25T12:05:22Z</time>
      </trkpt>
      <trkpt lat="42.9627290" lon="-8.1512850">
        <ele>280.0</ele>
        <time>2021-07-25T12:05:23Z</time>
      </trkpt>
      <trkpt lat="42.9626780" lon="-8.1512210">
        <ele>279.6</ele>
        <time>2021-07-25T12:05:24Z</time>
      </trkpt>
      <trkpt lat="42.9626250" lon="-8.1511570">
        <ele>279.2</ele>
        <time>2021-07-25T12:05:25Z</time>
      </trkpt>
      <trkpt lat="42.9625740" lon="-8.1510940">
        <ele>278.6</ele>
        <time>2021-07-25T12:05:26Z</time>
      </trkpt>
      <trkpt lat="42.9625240" lon="-8.1510320">
        <ele>278.2</ele>
        <time>2021-07-25T12:05:27Z</time>
      </trkpt>
      <trkpt lat="42.9624770" lon="-8.1509720">
        <ele>277.8</ele>
        <time>2021-07-25T12:05:28Z</time>
      </trkpt>
      <trkpt lat="42.9623870" lon="-8.1508560">
        <ele>277.4</ele>
        <time>2021-07-25T12:05:30Z</time>
      </trkpt>
      <trkpt lat="42.9623470" lon="-8.1508000">
        <ele>276.8</ele>
        <time>2021-07-25T12:05:31Z</time>
      </trkpt>
      <trkpt lat="42.9623050" lon="-8.1507490">
        <ele>276.4</ele>
        <time>2021-07-25T12:05:32Z</time>
      </trkpt>
      <trkpt lat="42.9622630" lon="-8.1506980">
        <ele>276.0</ele>
        <time>2021-07-25T12:05:33Z</time>
      </trkpt>
      <trkpt lat="42.9622240" lon="-8.1506480">
        <ele>275.6</ele>
        <time>2021-07-25T12:05:34Z</time>
      </trkpt>
      <trkpt lat="42.9621500" lon="-8.1505560">
        <ele>275.2</ele>
        <time>2021-07-25T12:05:36Z</time>
      </trkpt>
      <trkpt lat="42.9621060" lon="-8.1505160">
        <ele>274.6</ele>
        <time>2021-07-25T12:05:37Z</time>
      </trkpt>
      <trkpt lat="42.9620530" lon="-8.1504860">
        <ele>274.2</ele>
        <time>2021-07-25T12:05:38Z</time>
      </trkpt>
      <trkpt lat="42.9619990" lon="-8.1504710">
        <ele>273.8</ele>
        <time>2021-07-25T12:05:39Z</time>
      </trkpt>
      <trkpt lat="42.9619390" lon="-8.1504680">
        <ele>273.4</ele>
        <time>2021-07-25T12:05:40Z</time>
      </trkpt>
      <trkpt lat="42.9617370" lon="-8.1505100">
        <ele>273.0</ele>
        <time>2021-07-25T12:05:43Z</time>
      </trkpt>
      <trkpt lat="42.9616640" lon="-8.1505310">
        <ele>272.6</ele>
        <time>2021-07-25T12:05:44Z</time>
      </trkpt>
      <trkpt lat="42.9615900" lon="-8.1505520">
        <ele>272.2</ele>
        <time>2021-07-25T12:05:45Z</time>
      </trkpt>
      <trkpt lat="42.9615110" lon="-8.1505770">
        <ele>271.4</ele>
        <time>2021-07-25T12:05:46Z</time>
      </trkpt>
      <trkpt lat="42.9612110" lon="-8.1506730">
        <ele>270.8</ele>
        <time>2021-07-25T12:05:50Z</time>
      </trkpt>
      <trkpt lat="42.9611300" lon="-8.1506940">
        <ele>270.4</ele>
        <time>2021-07-25T12:05:51Z</time>
      </trkpt>
      <trkpt lat="42.9610540" lon="-8.1507140">
        <ele>270.0</ele>
        <time>2021-07-25T12:05:52Z</time>
      </trkpt>
      <trkpt lat="42.9609820" lon="-8.1507290">
        <ele>269.4</ele>
        <time>2021-07-25T12:05:53Z</time>
      </trkpt>
      <trkpt lat="42.9609040" lon="-8.1507510">
        <ele>269.0</ele>
        <time>2021-07-25T12:05:54Z</time>
      </trkpt>
      <trkpt lat="42.9606730" lon="-8.1507900">
        <ele>268.6</ele>
        <time>2021-07-25T12:05:57Z</time>
      </trkpt>
      <trkpt lat="42.9606010" lon="-8.1507880">
        <ele>268.2</ele>
        <time>2021-07-25T12:05:58Z</time>
      </trkpt>
      <trkpt lat="42.9605300" lon="-8.1507790">
        <ele>267.6</ele>
        <time>2021-07-25T12:05:59Z</time>
      </trkpt>
      <trkpt lat="42.9604650" lon="-8.1507640">
        <ele>267.2</ele>
        <time>2021-07-25T12:06:00Z</time>
      </trkpt>
      <trkpt lat="42.9604030" lon="-8.1507360">
        <ele>266.8</ele>
        <time>2021-07-25T12:06:01Z</time>
      </trkpt>
      <trkpt lat="42.9603540" lon="-8.1506980">
        <ele>266.8</ele>
        <time>2021-07-25T12:06:02Z</time>
      </trkpt>
      <trkpt lat="42.9602710" lon="-8.1506010">
        <ele>266.8</ele>
        <time>2021-07-25T12:06:05Z</time>
      </trkpt>
      <trkpt lat="42.9602410" lon="-8.1505420">
        <ele>266.8</ele>
        <time>2021-07-25T12:06:07Z</time>
      </trkpt>
      <trkpt lat="42.9602130" lon="-8.1504840">
        <ele>266.8</ele>
        <time>2021-07-25T12:06:09Z</time>
      </trkpt>
      <trkpt lat="42.9601820" lon="-8.1504420">
        <ele>266.8</ele>
        <time>2021-07-25T12:06:11Z</time>
      </trkpt>
      <trkpt lat="42.9601540" lon="-8.1503980">
        <ele>266.8</ele>
        <time>2021-07-25T12:06:13Z</time>
      </trkpt>
      <trkpt lat="42.9601230" lon="-8.1503500">
        <ele>266.8</ele>
        <time>2021-07-25T12:06:15Z</time>
      </trkpt>
      <trkpt lat="42.9601050" lon="-8.1503050">
        <ele>267.2</ele>
        <time>2021-07-25T12:06:17Z</time>
      </trkpt>
      <trkpt lat="42.9600970" lon="-8.1502850">
        <ele>267.6</ele>
        <time>2021-07-25T12:06:18Z</time>
      </trkpt>
      <trkpt lat="42.9600860" lon="-8.1502650">
        <ele>268.0</ele>
        <time>2021-07-25T12:06:19Z</time>
      </trkpt>
      <trkpt lat="42.9600770" lon="-8.1502450">
        <ele>268.4</ele>
        <time>2021-07-25T12:06:20Z</time>
      </trkpt>
      <trkpt lat="42.9600680" lon="-8.1502230">
        <ele>268.8</ele>
        <time>2021-07-25T12:06:21Z</time>
      </trkpt>
      <trkpt lat="42.9600540" lon="-8.1501830">
        <ele>268.8</ele>
        <time>2021-07-25T12:06:23Z</time>
      </trkpt>
      <trkpt lat="42.9600430" lon="-8.1501270">
        <ele>268.8</ele>
        <time>2021-07-25T12:06:25Z</time>
      </trkpt>
      <trkpt lat="42.9600360" lon="-8.1501020">
        <ele>268.8</ele>
        <time>2021-07-25T12:06:26Z</time>
      </trkpt>
      <trkpt lat="42.9600250" lon="-8.1500260">
        <ele>269.2</ele>
        <time>2021-07-25T12:06:29Z</time>
      </trkpt>
      <trkpt lat="42.9600160" lon="-8.1499980">
        <ele>269.6</ele>
        <time>2021-07-25T12:06:30Z</time>
      </trkpt>
      <trkpt lat="42.9600120" lon="-8.1499720">
        <ele>270.0</ele>
        <time>2021-07-25T12:06:31Z</time>
      </trkpt>
      <trkpt lat="42.9600050" lon="-8.1499460">
        <ele>270.4</ele>
        <time>2021-07-25T12:06:32Z</time>
      </trkpt>
      <trkpt lat="42.9599970" lon="-8.1499220">
        <ele>270.8</ele>
        <time>2021-07-25T12:06:33Z</time>
      </trkpt>
      <trkpt lat="42.9599740" lon="-8.1498810">
        <ele>270.8</ele>
        <time>2021-07-25T12:06:35Z</time>
      </trkpt>
      <trkpt lat="42.9599590" lon="-8.1498700">
        <ele>271.2</ele>
        <time>2021-07-25T12:06:36Z</time>
      </trkpt>
      <trkpt lat="42.9599410" lon="-8.1498640">
        <ele>271.6</ele>
        <time>2021-07-25T12:06:37Z</time>
      </trkpt>
      <trkpt lat="42.9599200" lon="-8.1498650">
        <ele>272.2</ele>
        <time>2021-07-25T12:06:38Z</time>
      </trkpt>
      <trkpt lat="42.9599030" lon="-8.1498720">
        <ele>272.6</ele>
        <time>2021-07-25T12:06:39Z</time>
      </trkpt>
      <trkpt lat="42.9598880" lon="-8.1498900">
        <ele>273.0</ele>
        <time>2021-07-25T12:06:40Z</time>
      </trkpt>
      <trkpt lat="42.9598450" lon="-8.1499390">
        <ele>273.0</ele>
        <time>2021-07-25T12:06:43Z</time>
      </trkpt>
      <trkpt lat="42.9596870" lon="-8.1500580">
        <ele>273.0</ele>
        <time>2021-07-25T12:06:52Z</time>
      </trkpt>
      <trkpt lat="42.9595840" lon="-8.1501000">
        <ele>273.4</ele>
        <time>2021-07-25T12:06:57Z</time>
      </trkpt>
      <trkpt lat="42.9595640" lon="-8.1500990">
        <ele>273.8</ele>
        <time>2021-07-25T12:06:58Z</time>
      </trkpt>
      <trkpt lat="42.9595450" lon="-8.1500920">
        <ele>274.2</ele>
        <time>2021-07-25T12:06:59Z</time>
      </trkpt>
      <trkpt lat="42.9595280" lon="-8.1500850">
        <ele>274.6</ele>
        <time>2021-07-25T12:07:00Z</time>
      </trkpt>
      <trkpt lat="42.9595100" lon="-8.1500700">
        <ele>275.0</ele>
        <time>2021-07-25T12:07:01Z</time>
      </trkpt>
      <trkpt lat="42.9594310" lon="-8.1499860">
        <ele>275.0</ele>
        <time>2021-07-25T12:07:05Z</time>
      </trkpt>
      <trkpt lat="42.9592910" lon="-8.1498620">
        <ele>275.0</ele>
        <time>2021-07-25T12:07:13Z</time>
      </trkpt>
      <trkpt lat="42.9592390" lon="-8.1498320">
        <ele>275.4</ele>
        <time>2021-07-25T12:07:16Z</time>
      </trkpt>
      <trkpt lat="42.9592200" lon="-8.1498150">
        <ele>275.8</ele>
        <time>2021-07-25T12:07:17Z</time>
      </trkpt>
      <trkpt lat="42.9592000" lon="-8.1498030">
        <ele>276.2</ele>
        <time>2021-07-25T12:07:18Z</time>
      </trkpt>
      <trkpt lat="42.9591840" lon="-8.1497870">
        <ele>277.0</ele>
        <time>2021-07-25T12:07:19Z</time>
      </trkpt>
      <trkpt lat="42.9590560" lon="-8.1496930">
        <ele>277.0</ele>
        <time>2021-07-25T12:07:26Z</time>
      </trkpt>
      <trkpt lat="42.9589630" lon="-8.1496140">
        <ele>277.0</ele>
        <time>2021-07-25T12:07:31Z</time>
      </trkpt>
      <trkpt lat="42.9589080" lon="-8.1495760">
        <ele>277.0</ele>
        <time>2021-07-25T12:07:34Z</time>
      </trkpt>
      <trkpt lat="42.9587880" lon="-8.1494780">
        <ele>277.0</ele>
        <time>2021-07-25T12:07:39Z</time>
      </trkpt>
      <trkpt lat="42.9587250" lon="-8.1494190">
        <ele>277.0</ele>
        <time>2021-07-25T12:07:42Z</time>
      </trkpt>
      <trkpt lat="42.9586500" lon="-8.1493520">
        <ele>277.0</ele>
        <time>2021-07-25T12:07:45Z</time>
      </trkpt>
      <trkpt lat="42.9585830" lon="-8.1493060">
        <ele>277.0</ele>
        <time>2021-07-25T12:07:47Z</time>
      </trkpt>
      <trkpt lat="42.9585480" lon="-8.1492740">
        <ele>277.0</ele>
        <time>2021-07-25T12:07:48Z</time>
      </trkpt>
      <trkpt lat="42.9582940" lon="-8.1490640">
        <ele>277.0</ele>
        <time>2021-07-25T12:07:55Z</time>
      </trkpt>
      <trkpt lat="42.9581330" lon="-8.1489450">
        <ele>276.6</ele>
        <time>2021-07-25T12:07:59Z</time>
      </trkpt>
      <trkpt lat="42.9580880" lon="-8.1489210">
        <ele>276.2</ele>
        <time>2021-07-25T12:08:00Z</time>
      </trkpt>
      <trkpt lat="42.9580360" lon="-8.1489120">
        <ele>275.8</ele>
        <time>2021-07-25T12:08:01Z</time>
      </trkpt>
      <trkpt lat="42.9579880" lon="-8.1489050">
        <ele>275.4</ele>
        <time>2021-07-25T12:08:02Z</time>
      </trkpt>
      <trkpt lat="42.9579330" lon="-8.1489020">
        <ele>275.0</ele>
        <time>2021-07-25T12:08:03Z</time>
      </trkpt>
      <trkpt lat="42.9577910" lon="-8.1489580">
        <ele>275.0</ele>
        <time>2021-07-25T12:08:05Z</time>
      </trkpt>
      <trkpt lat="42.9577210" lon="-8.1489970">
        <ele>274.4</ele>
        <time>2021-07-25T12:08:06Z</time>
      </trkpt>
      <trkpt lat="42.9576470" lon="-8.1490390">
        <ele>274.0</ele>
        <time>2021-07-25T12:08:07Z</time>
      </trkpt>
      <trkpt lat="42.9575740" lon="-8.1490850">
        <ele>273.0</ele>
        <time>2021-07-25T12:08:08Z</time>
      </trkpt>
      <trkpt lat="42.9575020" lon="-8.1491270">
        <ele>272.6</ele>
        <time>2021-07-25T12:08:09Z</time>
      </trkpt>
      <trkpt lat="42.9574280" lon="-8.1491720">
        <ele>272.6</ele>
        <time>2021-07-25T12:08:10Z</time>
      </trkpt>
      <trkpt lat="42.9573490" lon="-8.1492170">
        <ele>272.2</ele>
        <time>2021-07-25T12:08:11Z</time>
      </trkpt>
      <trkpt lat="42.9572740" lon="-8.1492600">
        <ele>271.8</ele>
        <time>2021-07-25T12:08:12Z</time>
      </trkpt>
      <trkpt lat="42.9572020" lon="-8.1492990">
        <ele>271.4</ele>
        <time>2021-07-25T12:08:13Z</time>
      </trkpt>
      <trkpt lat="42.9571300" lon="-8.1493370">
        <ele>271.0</ele>
        <time>2021-07-25T12:08:14Z</time>
      </trkpt>
      <trkpt lat="42.9570610" lon="-8.1493740">
        <ele>270.6</ele>
        <time>2021-07-25T12:08:15Z</time>
      </trkpt>
      <trkpt lat="42.9569270" lon="-8.1494500">
        <ele>270.6</ele>
        <time>2021-07-25T12:08:17Z</time>
      </trkpt>
      <trkpt lat="42.9567970" lon="-8.1495190">
        <ele>270.6</ele>
        <time>2021-07-25T12:08:19Z</time>
      </trkpt>
      <trkpt lat="42.9565640" lon="-8.1496470">
        <ele>270.6</ele>
        <time>2021-07-25T12:08:24Z</time>
      </trkpt>
      <trkpt lat="42.9564580" lon="-8.1497110">
        <ele>270.6</ele>
        <time>2021-07-25T12:08:28Z</time>
      </trkpt>
      <trkpt lat="42.9564360" lon="-8.1497260">
        <ele>270.6</ele>
        <time>2021-07-25T12:08:29Z</time>
      </trkpt>
      <trkpt lat="42.9564110" lon="-8.1497350">
        <ele>270.6</ele>
        <time>2021-07-25T12:08:30Z</time>
      </trkpt>
      <trkpt lat="42.9563660" lon="-8.1497600">
        <ele>270.6</ele>
        <time>2021-07-25T12:08:32Z</time>
      </trkpt>
      <trkpt lat="42.9562790" lon="-8.1498120">
        <ele>270.6</ele>
        <time>2021-07-25T12:08:36Z</time>
      </trkpt>
      <trkpt lat="42.9562110" lon="-8.1498660">
        <ele>270.6</ele>
        <time>2021-07-25T12:08:39Z</time>
      </trkpt>
      <trkpt lat="42.9561600" lon="-8.1498870">
        <ele>270.6</ele>
        <time>2021-07-25T12:08:41Z</time>
      </trkpt>
      <trkpt lat="42.9561130" lon="-8.1499130">
        <ele>270.6</ele>
        <time>2021-07-25T12:08:43Z</time>
      </trkpt>
      <trkpt lat="42.9560890" lon="-8.1499240">
        <ele>270.6</ele>
        <time>2021-07-25T12:08:44Z</time>
      </trkpt>
      <trkpt lat="42.9560190" lon="-8.1499630">
        <ele>270.6</ele>
        <time>2021-07-25T12:08:47Z</time>
      </trkpt>
      <trkpt lat="42.9559720" lon="-8.1499870">
        <ele>270.6</ele>
        <time>2021-07-25T12:08:49Z</time>
      </trkpt>
      <trkpt lat="42.9558610" lon="-8.1500510">
        <ele>270.6</ele>
        <time>2021-07-25T12:08:54Z</time>
      </trkpt>
      <trkpt lat="42.9557930" lon="-8.1500820">
        <ele>271.0</ele>
        <time>2021-07-25T12:08:57Z</time>
      </trkpt>
      <trkpt lat="42.9557720" lon="-8.1500970">
        <ele>271.8</ele>
        <time>2021-07-25T12:08:58Z</time>
      </trkpt>
      <trkpt lat="42.9557510" lon="-8.1501090">
        <ele>272.4</ele>
        <time>2021-07-25T12:08:59Z</time>
      </trkpt>
      <trkpt lat="42.9557300" lon="-8.1501180">
        <ele>272.8</ele>
        <time>2021-07-25T12:09:00Z</time>
      </trkpt>
      <trkpt lat="42.9557060" lon="-8.1501270">
        <ele>272.8</ele>
        <time>2021-07-25T12:09:01Z</time>
      </trkpt>
      <trkpt lat="42.9555460" lon="-8.1501860">
        <ele>272.8</ele>
        <time>2021-07-25T12:09:08Z</time>
      </trkpt>
      <trkpt lat="42.9554520" lon="-8.1502200">
        <ele>273.2</ele>
        <time>2021-07-25T12:09:12Z</time>
      </trkpt>
      <trkpt lat="42.9554300" lon="-8.1502330">
        <ele>273.6</ele>
        <time>2021-07-25T12:09:13Z</time>
      </trkpt>
      <trkpt lat="42.9554060" lon="-8.1502390">
        <ele>274.0</ele>
        <time>2021-07-25T12:09:14Z</time>
      </trkpt>
      <trkpt lat="42.9553820" lon="-8.1502450">
        <ele>274.4</ele>
        <time>2021-07-25T12:09:15Z</time>
      </trkpt>
      <trkpt lat="42.9553590" lon="-8.1502470">
        <ele>274.8</ele>
        <time>2021-07-25T12:09:16Z</time>
      </trkpt>
      <trkpt lat="42.9551130" lon="-8.1502930">
        <ele>274.8</ele>
        <time>2021-07-25T12:09:26Z</time>
      </trkpt>
      <trkpt lat="42.9548620" lon="-8.1503210">
        <ele>274.8</ele>
        <time>2021-07-25T12:09:34Z</time>
      </trkpt>
      <trkpt lat="42.9548020" lon="-8.1503300">
        <ele>274.8</ele>
        <time>2021-07-25T12:09:36Z</time>
      </trkpt>
      <trkpt lat="42.9547100" lon="-8.1503420">
        <ele>274.8</ele>
        <time>2021-07-25T12:09:39Z</time>
      </trkpt>
      <trkpt lat="42.9546480" lon="-8.1503410">
        <ele>274.8</ele>
        <time>2021-07-25T12:09:41Z</time>
      </trkpt>
      <trkpt lat="42.9545850" lon="-8.1503540">
        <ele>274.8</ele>
        <time>2021-07-25T12:09:43Z</time>
      </trkpt>
      <trkpt lat="42.9545250" lon="-8.1503630">
        <ele>274.8</ele>
        <time>2021-07-25T12:09:45Z</time>
      </trkpt>
      <trkpt lat="42.9544940" lon="-8.1503680">
        <ele>274.8</ele>
        <time>2021-07-25T12:09:46Z</time>
      </trkpt>
      <trkpt lat="42.9543990" lon="-8.1503710">
        <ele>274.8</ele>
        <time>2021-07-25T12:09:49Z</time>
      </trkpt>
      <trkpt lat="42.9542740" lon="-8.1503930">
        <ele>274.8</ele>
        <time>2021-07-25T12:09:53Z</time>
      </trkpt>
      <trkpt lat="42.9541810" lon="-8.1503970">
        <ele>274.8</ele>
        <time>2021-07-25T12:09:56Z</time>
      </trkpt>
      <trkpt lat="42.9541520" lon="-8.1503950">
        <ele>274.8</ele>
        <time>2021-07-25T12:09:57Z</time>
      </trkpt>
      <trkpt lat="42.9540370" lon="-8.1504100">
        <ele>274.8</ele>
        <time>2021-07-25T12:10:01Z</time>
      </trkpt>
      <trkpt lat="42.9540080" lon="-8.1504110">
        <ele>274.8</ele>
        <time>2021-07-25T12:10:02Z</time>
      </trkpt>
      <trkpt lat="42.9539240" lon="-8.1504170">
        <ele>274.8</ele>
        <time>2021-07-25T12:10:05Z</time>
      </trkpt>
      <trkpt lat="42.9538600" lon="-8.1504350">
        <ele>274.8</ele>
        <time>2021-07-25T12:10:08Z</time>
      </trkpt>
      <trkpt lat="42.9537950" lon="-8.1504260">
        <ele>274.8</ele>
        <time>2021-07-25T12:10:10Z</time>
      </trkpt>
      <trkpt lat="42.9537140" lon="-8.1504170">
        <ele>274.8</ele>
        <time>2021-07-25T12:10:12Z</time>
      </trkpt>
      <trkpt lat="42.9536220" lon="-8.1504170">
        <ele>274.8</ele>
        <time>2021-07-25T12:10:14Z</time>
      </trkpt>
      <trkpt lat="42.9535400" lon="-8.1504340">
        <ele>274.8</ele>
        <time>2021-07-25T12:10:16Z</time>
      </trkpt>
      <trkpt lat="42.9532530" lon="-8.1504730">
        <ele>274.8</ele>
        <time>2021-07-25T12:10:23Z</time>
      </trkpt>
      <trkpt lat="42.9529670" lon="-8.1505290">
        <ele>274.8</ele>
        <time>2021-07-25T12:10:30Z</time>
      </trkpt>
      <trkpt lat="42.9529330" lon="-8.1505370">
        <ele>274.8</ele>
        <time>2021-07-25T12:10:31Z</time>
      </trkpt>
      <trkpt lat="42.9528190" lon="-8.1505740">
        <ele>274.8</ele>
        <time>2021-07-25T12:10:34Z</time>
      </trkpt>
      <trkpt lat="42.9526660" lon="-8.1506330">
        <ele>274.8</ele>
        <time>2021-07-25T12:10:38Z</time>
      </trkpt>
      <trkpt lat="42.9525940" lon="-8.1506680">
        <ele>274.8</ele>
        <time>2021-07-25T12:10:40Z</time>
      </trkpt>
      <trkpt lat="42.9524930" lon="-8.1507190">
        <ele>274.8</ele>
        <time>2021-07-25T12:10:43Z</time>
      </trkpt>
      <trkpt lat="42.9523510" lon="-8.1507770">
        <ele>274.8</ele>
        <time>2021-07-25T12:10:47Z</time>
      </trkpt>
      <trkpt lat="42.9521170" lon="-8.1508910">
        <ele>274.8</ele>
        <time>2021-07-25T12:10:53Z</time>
      </trkpt>
      <trkpt lat="42.9519500" lon="-8.1509740">
        <ele>274.8</ele>
        <time>2021-07-25T12:10:57Z</time>
      </trkpt>
      <trkpt lat="42.9519080" lon="-8.1509970">
        <ele>274.4</ele>
        <time>2021-07-25T12:10:58Z</time>
      </trkpt>
      <trkpt lat="42.9518620" lon="-8.1510180">
        <ele>274.0</ele>
        <time>2021-07-25T12:10:59Z</time>
      </trkpt>
      <trkpt lat="42.9518170" lon="-8.1510390">
        <ele>273.6</ele>
        <time>2021-07-25T12:11:00Z</time>
      </trkpt>
      <trkpt lat="42.9517710" lon="-8.1510600">
        <ele>273.2</ele>
        <time>2021-07-25T12:11:01Z</time>
      </trkpt>
      <trkpt lat="42.9517210" lon="-8.1510840">
        <ele>272.8</ele>
        <time>2021-07-25T12:11:02Z</time>
      </trkpt>
      <trkpt lat="42.9515750" lon="-8.1511600">
        <ele>272.8</ele>
        <time>2021-07-25T12:11:05Z</time>
      </trkpt>
      <trkpt lat="42.9513620" lon="-8.1512470">
        <ele>272.8</ele>
        <time>2021-07-25T12:11:09Z</time>
      </trkpt>
      <trkpt lat="42.9512480" lon="-8.1512760">
        <ele>272.8</ele>
        <time>2021-07-25T12:11:11Z</time>
      </trkpt>
      <trkpt lat="42.9511330" lon="-8.1513050">
        <ele>272.8</ele>
        <time>2021-07-25T12:11:13Z</time>
      </trkpt>
      <trkpt lat="42.9510780" lon="-8.1513240">
        <ele>272.4</ele>
        <time>2021-07-25T12:11:14Z</time>
      </trkpt>
      <trkpt lat="42.9510200" lon="-8.1513430">
        <ele>272.0</ele>
        <time>2021-07-25T12:11:15Z</time>
      </trkpt>
      <trkpt lat="42.9509600" lon="-8.1513580">
        <ele>271.6</ele>
        <time>2021-07-25T12:11:16Z</time>
      </trkpt>
      <trkpt lat="42.9508940" lon="-8.1513750">
        <ele>271.2</ele>
        <time>2021-07-25T12:11:17Z</time>
      </trkpt>
      <trkpt lat="42.9508290" lon="-8.1513900">
        <ele>270.8</ele>
        <time>2021-07-25T12:11:18Z</time>
      </trkpt>
      <trkpt lat="42.9506950" lon="-8.1514220">
        <ele>270.8</ele>
        <time>2021-07-25T12:11:20Z</time>
      </trkpt>
      <trkpt lat="42.9504980" lon="-8.1514670">
        <ele>270.8</ele>
        <time>2021-07-25T12:11:23Z</time>
      </trkpt>
      <trkpt lat="42.9504320" lon="-8.1514800">
        <ele>270.2</ele>
        <time>2021-07-25T12:11:24Z</time>
      </trkpt>
      <trkpt lat="42.9503690" lon="-8.1514950">
        <ele>269.8</ele>
        <time>2021-07-25T12:11:25Z</time>
      </trkpt>
      <trkpt lat="42.9503060" lon="-8.1515110">
        <ele>269.4</ele>
        <time>2021-07-25T12:11:26Z</time>
      </trkpt>
      <trkpt lat="42.9502420" lon="-8.1515310">
        <ele>268.6</ele>
        <time>2021-07-25T12:11:27Z</time>
      </trkpt>
      <trkpt lat="42.9501790" lon="-8.1515510">
        <ele>268.6</ele>
        <time>2021-07-25T12:11:28Z</time>
      </trkpt>
      <trkpt lat="42.9501090" lon="-8.1515700">
        <ele>268.2</ele>
        <time>2021-07-25T12:11:29Z</time>
      </trkpt>
      <trkpt lat="42.9500380" lon="-8.1515910">
        <ele>267.8</ele>
        <time>2021-07-25T12:11:30Z</time>
      </trkpt>
      <trkpt lat="42.9499660" lon="-8.1516050">
        <ele>267.4</ele>
        <time>2021-07-25T12:11:31Z</time>
      </trkpt>
      <trkpt lat="42.9498960" lon="-8.1516200">
        <ele>266.8</ele>
        <time>2021-07-25T12:11:32Z</time>
      </trkpt>
      <trkpt lat="42.9498160" lon="-8.1516360">
        <ele>266.4</ele>
        <time>2021-07-25T12:11:33Z</time>
      </trkpt>
      <trkpt lat="42.9497320" lon="-8.1516560">
        <ele>265.8</ele>
        <time>2021-07-25T12:11:34Z</time>
      </trkpt>
      <trkpt lat="42.9496440" lon="-8.1516780">
        <ele>265.4</ele>
        <time>2021-07-25T12:11:35Z</time>
      </trkpt>
      <trkpt lat="42.9495550" lon="-8.1517000">
        <ele>264.8</ele>
        <time>2021-07-25T12:11:36Z</time>
      </trkpt>
      <trkpt lat="42.9494640" lon="-8.1517160">
        <ele>264.2</ele>
        <time>2021-07-25T12:11:37Z</time>
      </trkpt>
      <trkpt lat="42.9493710" lon="-8.1517310">
        <ele>263.6</ele>
        <time>2021-07-25T12:11:38Z</time>
      </trkpt>
      <trkpt lat="42.9492770" lon="-8.1517460">
        <ele>263.0</ele>
        <time>2021-07-25T12:11:39Z</time>
      </trkpt>
      <trkpt lat="42.9491820" lon="-8.1517700">
        <ele>262.4</ele>
        <time>2021-07-25T12:11:40Z</time>
      </trkpt>
      <trkpt lat="42.9490920" lon="-8.1517920">
        <ele>261.8</ele>
        <time>2021-07-25T12:11:41Z</time>
      </trkpt>
      <trkpt lat="42.9490060" lon="-8.1518130">
        <ele>261.2</ele>
        <time>2021-07-25T12:11:42Z</time>
      </trkpt>
      <trkpt lat="42.9489180" lon="-8.1518350">
        <ele>260.6</ele>
        <time>2021-07-25T12:11:43Z</time>
      </trkpt>
      <trkpt lat="42.9488330" lon="-8.1518600">
        <ele>260.0</ele>
        <time>2021-07-25T12:11:44Z</time>
      </trkpt>
      <trkpt lat="42.9487510" lon="-8.1518830">
        <ele>259.4</ele>
        <time>2021-07-25T12:11:45Z</time>
      </trkpt>
      <trkpt lat="42.9485930" lon="-8.1519250">
        <ele>259.4</ele>
        <time>2021-07-25T12:11:47Z</time>
      </trkpt>
      <trkpt lat="42.9484380" lon="-8.1519760">
        <ele>259.0</ele>
        <time>2021-07-25T12:11:49Z</time>
      </trkpt>
      <trkpt lat="42.9483660" lon="-8.1520000">
        <ele>258.6</ele>
        <time>2021-07-25T12:11:50Z</time>
      </trkpt>
      <trkpt lat="42.9482980" lon="-8.1520220">
        <ele>258.2</ele>
        <time>2021-07-25T12:11:51Z</time>
      </trkpt>
      <trkpt lat="42.9482330" lon="-8.1520420">
        <ele>257.4</ele>
        <time>2021-07-25T12:11:52Z</time>
      </trkpt>
      <trkpt lat="42.9478300" lon="-8.1521540">
        <ele>257.4</ele>
        <time>2021-07-25T12:11:59Z</time>
      </trkpt>
      <trkpt lat="42.9476490" lon="-8.1522020">
        <ele>257.4</ele>
        <time>2021-07-25T12:12:03Z</time>
      </trkpt>
      <trkpt lat="42.9475550" lon="-8.1522200">
        <ele>257.4</ele>
        <time>2021-07-25T12:12:05Z</time>
      </trkpt>
      <trkpt lat="42.9474640" lon="-8.1522390">
        <ele>257.4</ele>
        <time>2021-07-25T12:12:07Z</time>
      </trkpt>
      <trkpt lat="42.9473380" lon="-8.1522720">
        <ele>257.4</ele>
        <time>2021-07-25T12:12:10Z</time>
      </trkpt>
      <trkpt lat="42.9472180" lon="-8.1523010">
        <ele>257.4</ele>
        <time>2021-07-25T12:12:13Z</time>
      </trkpt>
      <trkpt lat="42.9471790" lon="-8.1523090">
        <ele>257.4</ele>
        <time>2021-07-25T12:12:14Z</time>
      </trkpt>
      <trkpt lat="42.9470540" lon="-8.1523400">
        <ele>257.4</ele>
        <time>2021-07-25T12:12:17Z</time>
      </trkpt>
      <trkpt lat="42.9469740" lon="-8.1523640">
        <ele>257.4</ele>
        <time>2021-07-25T12:12:19Z</time>
      </trkpt>
      <trkpt lat="42.9468960" lon="-8.1523820">
        <ele>257.4</ele>
        <time>2021-07-25T12:12:21Z</time>
      </trkpt>
      <trkpt lat="42.9467440" lon="-8.1524250">
        <ele>257.4</ele>
        <time>2021-07-25T12:12:25Z</time>
      </trkpt>
      <trkpt lat="42.9466690" lon="-8.1524450">
        <ele>257.4</ele>
        <time>2021-07-25T12:12:27Z</time>
      </trkpt>
      <trkpt lat="42.9465950" lon="-8.1524550">
        <ele>257.4</ele>
        <time>2021-07-25T12:12:29Z</time>
      </trkpt>
      <trkpt lat="42.9463180" lon="-8.1525040">
        <ele>257.4</ele>
        <time>2021-07-25T12:12:37Z</time>
      </trkpt>
      <trkpt lat="42.9462020" lon="-8.1525130">
        <ele>257.4</ele>
        <time>2021-07-25T12:12:40Z</time>
      </trkpt>
      <trkpt lat="42.9460580" lon="-8.1525260">
        <ele>257.4</ele>
        <time>2021-07-25T12:12:43Z</time>
      </trkpt>
      <trkpt lat="42.9459470" lon="-8.1525310">
        <ele>257.4</ele>
        <time>2021-07-25T12:12:45Z</time>
      </trkpt>
      <trkpt lat="42.9458190" lon="-8.1525350">
        <ele>257.4</ele>
        <time>2021-07-25T12:12:47Z</time>
      </trkpt>
      <trkpt lat="42.9456740" lon="-8.1525450">
        <ele>257.4</ele>
        <time>2021-07-25T12:12:49Z</time>
      </trkpt>
      <trkpt lat="42.9455290" lon="-8.1525650">
        <ele>257.4</ele>
        <time>2021-07-25T12:12:51Z</time>
      </trkpt>
      <trkpt lat="42.9453910" lon="-8.1525830">
        <ele>257.0</ele>
        <time>2021-07-25T12:12:53Z</time>
      </trkpt>
      <trkpt lat="42.9453230" lon="-8.1525930">
        <ele>256.6</ele>
        <time>2021-07-25T12:12:54Z</time>
      </trkpt>
      <trkpt lat="42.9452530" lon="-8.1526040">
        <ele>256.2</ele>
        <time>2021-07-25T12:12:55Z</time>
      </trkpt>
      <trkpt lat="42.9451830" lon="-8.1526140">
        <ele>255.8</ele>
        <time>2021-07-25T12:12:56Z</time>
      </trkpt>
      <trkpt lat="42.9451140" lon="-8.1526250">
        <ele>255.4</ele>
        <time>2021-07-25T12:12:57Z</time>
      </trkpt>
      <trkpt lat="42.9449860" lon="-8.1526360">
        <ele>255.4</ele>
        <time>2021-07-25T12:12:59Z</time>
      </trkpt>
      <trkpt lat="42.9448070" lon="-8.1526510">
        <ele>255.4</ele>
        <time>2021-07-25T12:13:02Z</time>
      </trkpt>
      <trkpt lat="42.9445580" lon="-8.1526980">
        <ele>255.4</ele>
        <time>2021-07-25T12:13:07Z</time>
      </trkpt>
      <trkpt lat="42.9445110" lon="-8.1527040">
        <ele>255.4</ele>
        <time>2021-07-25T12:13:08Z</time>
      </trkpt>
      <trkpt lat="42.9441320" lon="-8.1527280">
        <ele>255.4</ele>
        <time>2021-07-25T12:13:16Z</time>
      </trkpt>
      <trkpt lat="42.9440920" lon="-8.1527270">
        <ele>255.4</ele>
        <time>2021-07-25T12:13:17Z</time>
      </trkpt>
      <trkpt lat="42.9440100" lon="-8.1527250">
        <ele>255.4</ele>
        <time>2021-07-25T12:13:19Z</time>
      </trkpt>
      <trkpt lat="42.9439320" lon="-8.1527310">
        <ele>255.4</ele>
        <time>2021-07-25T12:13:21Z</time>
      </trkpt>
      <trkpt lat="42.9438500" lon="-8.1527340">
        <ele>255.4</ele>
        <time>2021-07-25T12:13:23Z</time>
      </trkpt>
      <trkpt lat="42.9438120" lon="-8.1527390">
        <ele>255.4</ele>
        <time>2021-07-25T12:13:24Z</time>
      </trkpt>
      <trkpt lat="42.9437380" lon="-8.1527420">
        <ele>255.4</ele>
        <time>2021-07-25T12:13:26Z</time>
      </trkpt>
      <trkpt lat="42.9436280" lon="-8.1527410">
        <ele>255.4</ele>
        <time>2021-07-25T12:13:29Z</time>
      </trkpt>
      <trkpt lat="42.9435610" lon="-8.1527440">
        <ele>255.4</ele>
        <time>2021-07-25T12:13:31Z</time>
      </trkpt>
      <trkpt lat="42.9434610" lon="-8.1527490">
        <ele>255.4</ele>
        <time>2021-07-25T12:13:34Z</time>
      </trkpt>
      <trkpt lat="42.9434000" lon="-8.1527570">
        <ele>255.4</ele>
        <time>2021-07-25T12:13:36Z</time>
      </trkpt>
      <trkpt lat="42.9433020" lon="-8.1527580">
        <ele>255.4</ele>
        <time>2021-07-25T12:13:39Z</time>
      </trkpt>
      <trkpt lat="42.9432070" lon="-8.1527620">
        <ele>255.4</ele>
        <time>2021-07-25T12:13:42Z</time>
      </trkpt>
      <trkpt lat="42.9431210" lon="-8.1527610">
        <ele>255.8</ele>
        <time>2021-07-25T12:13:45Z</time>
      </trkpt>
      <trkpt lat="42.9430960" lon="-8.1527640">
        <ele>256.2</ele>
        <time>2021-07-25T12:13:46Z</time>
      </trkpt>
      <trkpt lat="42.9430700" lon="-8.1527660">
        <ele>256.6</ele>
        <time>2021-07-25T12:13:47Z</time>
      </trkpt>
      <trkpt lat="42.9430440" lon="-8.1527700">
        <ele>257.0</ele>
        <time>2021-07-25T12:13:48Z</time>
      </trkpt>
      <trkpt lat="42.9430160" lon="-8.1527710">
        <ele>257.4</ele>
        <time>2021-07-25T12:13:49Z</time>
      </trkpt>
      <trkpt lat="42.9428880" lon="-8.1527800">
        <ele>257.4</ele>
        <time>2021-07-25T12:13:54Z</time>
      </trkpt>
      <trkpt lat="42.9427530" lon="-8.1527950">
        <ele>257.8</ele>
        <time>2021-07-25T12:14:00Z</time>
      </trkpt>
      <trkpt lat="42.9427250" lon="-8.1527950">
        <ele>258.2</ele>
        <time>2021-07-25T12:14:01Z</time>
      </trkpt>
      <trkpt lat="42.9427000" lon="-8.1527970">
        <ele>258.6</ele>
        <time>2021-07-25T12:14:02Z</time>
      </trkpt>
      <trkpt lat="42.9426780" lon="-8.1527990">
        <ele>259.0</ele>
        <time>2021-07-25T12:14:03Z</time>
      </trkpt>
      <trkpt lat="42.9426570" lon="-8.1528020">
        <ele>259.4</ele>
        <time>2021-07-25T12:14:04Z</time>
      </trkpt>
      <trkpt lat="42.9425880" lon="-8.1528110">
        <ele>259.4</ele>
        <time>2021-07-25T12:14:07Z</time>
      </trkpt>
      <trkpt lat="42.9425240" lon="-8.1528270">
        <ele>260.0</ele>
        <time>2021-07-25T12:14:10Z</time>
      </trkpt>
      <trkpt lat="42.9424990" lon="-8.1528240">
        <ele>260.4</ele>
        <time>2021-07-25T12:14:11Z</time>
      </trkpt>
      <trkpt lat="42.9424750" lon="-8.1528230">
        <ele>260.8</ele>
        <time>2021-07-25T12:14:12Z</time>
      </trkpt>
      <trkpt lat="42.9424530" lon="-8.1528240">
        <ele>261.2</ele>
        <time>2021-07-25T12:14:13Z</time>
      </trkpt>
      <trkpt lat="42.9424320" lon="-8.1528270">
        <ele>261.6</ele>
        <time>2021-07-25T12:14:14Z</time>
      </trkpt>
      <trkpt lat="42.9423400" lon="-8.1528580">
        <ele>261.6</ele>
        <time>2021-07-25T12:14:19Z</time>
      </trkpt>
      <trkpt lat="42.9423220" lon="-8.1528630">
        <ele>262.0</ele>
        <time>2021-07-25T12:14:20Z</time>
      </trkpt>
      <trkpt lat="42.9423050" lon="-8.1528650">
        <ele>262.4</ele>
        <time>2021-07-25T12:14:21Z</time>
      </trkpt>
      <trkpt lat="42.9422900" lon="-8.1528650">
        <ele>262.8</ele>
        <time>2021-07-25T12:14:22Z</time>
      </trkpt>
      <trkpt lat="42.9422760" lon="-8.1528610">
        <ele>263.2</ele>
        <time>2021-07-25T12:14:23Z</time>
      </trkpt>
      <trkpt lat="42.9422690" lon="-8.1528570">
        <ele>263.6</ele>
        <time>2021-07-25T12:14:24Z</time>
      </trkpt>
      <trkpt lat="42.9422670" lon="-8.1528540">
        <ele>263.6</ele>
        <time>2021-07-25T12:14:25Z</time>
      </trkpt>
      <trkpt lat="42.9422440" lon="-8.1528470">
        <ele>263.6</ele>
        <time>2021-07-25T12:15:29Z</time>
      </trkpt>
      <trkpt lat="42.9422300" lon="-8.1528450">
        <ele>263.6</ele>
        <time>2021-07-25T12:15:30Z</time>
      </trkpt>
      <trkpt lat="42.9422170" lon="-8.1528430">
        <ele>263.6</ele>
        <time>2021-07-25T12:15:31Z</time>
      </trkpt>
      <trkpt lat="42.9421780" lon="-8.1528470">
        <ele>263.6</ele>
        <time>2021-07-25T12:15:33Z</time>
      </trkpt>
      <trkpt lat="42.9421310" lon="-8.1528530">
        <ele>263.6</ele>
        <time>2021-07-25T12:15:35Z</time>
      </trkpt>
      <trkpt lat="42.9421050" lon="-8.1528540">
        <ele>263.6</ele>
        <time>2021-07-25T12:15:36Z</time>
      </trkpt>
      <trkpt lat="42.9419260" lon="-8.1528710">
        <ele>263.6</ele>
        <time>2021-07-25T12:15:43Z</time>
      </trkpt>
      <trkpt lat="42.9418210" lon="-8.1528760">
        <ele>263.6</ele>
        <time>2021-07-25T12:15:47Z</time>
      </trkpt>
      <trkpt lat="42.9417950" lon="-8.1528770">
        <ele>263.6</ele>
        <time>2021-07-25T12:15:48Z</time>
      </trkpt>
      <trkpt lat="42.9417020" lon="-8.1528880">
        <ele>263.6</ele>
        <time>2021-07-25T12:15:51Z</time>
      </trkpt>
      <trkpt lat="42.9415280" lon="-8.1528940">
        <ele>263.6</ele>
        <time>2021-07-25T12:15:55Z</time>
      </trkpt>
      <trkpt lat="42.9414810" lon="-8.1529020">
        <ele>263.6</ele>
        <time>2021-07-25T12:15:56Z</time>
      </trkpt>
      <trkpt lat="42.9413590" lon="-8.1529140">
        <ele>263.6</ele>
        <time>2021-07-25T12:15:59Z</time>
      </trkpt>
      <trkpt lat="42.9413090" lon="-8.1529210">
        <ele>263.6</ele>
        <time>2021-07-25T12:16:01Z</time>
      </trkpt>
      <trkpt lat="42.9412900" lon="-8.1529240">
        <ele>263.6</ele>
        <time>2021-07-25T12:16:02Z</time>
      </trkpt>
      <trkpt lat="42.9412540" lon="-8.1529300">
        <ele>263.6</ele>
        <time>2021-07-25T12:16:04Z</time>
      </trkpt>
      <trkpt lat="42.9411980" lon="-8.1529290">
        <ele>263.6</ele>
        <time>2021-07-25T12:16:07Z</time>
      </trkpt>
      <trkpt lat="42.9411780" lon="-8.1529340">
        <ele>263.6</ele>
        <time>2021-07-25T12:16:08Z</time>
      </trkpt>
      <trkpt lat="42.9411390" lon="-8.1529340">
        <ele>263.6</ele>
        <time>2021-07-25T12:16:10Z</time>
      </trkpt>
      <trkpt lat="42.9410770" lon="-8.1529440">
        <ele>264.0</ele>
        <time>2021-07-25T12:16:13Z</time>
      </trkpt>
      <trkpt lat="42.9410570" lon="-8.1529470">
        <ele>264.4</ele>
        <time>2021-07-25T12:16:14Z</time>
      </trkpt>
      <trkpt lat="42.9410370" lon="-8.1529480">
        <ele>264.8</ele>
        <time>2021-07-25T12:16:15Z</time>
      </trkpt>
      <trkpt lat="42.9410180" lon="-8.1529480">
        <ele>265.2</ele>
        <time>2021-07-25T12:16:16Z</time>
      </trkpt>
      <trkpt lat="42.9409980" lon="-8.1529490">
        <ele>265.6</ele>
        <time>2021-07-25T12:16:17Z</time>
      </trkpt>
      <trkpt lat="42.9409540" lon="-8.1529510">
        <ele>265.6</ele>
        <time>2021-07-25T12:16:19Z</time>
      </trkpt>
      <trkpt lat="42.9409100" lon="-8.1529530">
        <ele>266.2</ele>
        <time>2021-07-25T12:16:21Z</time>
      </trkpt>
      <trkpt lat="42.9408900" lon="-8.1529550">
        <ele>266.6</ele>
        <time>2021-07-25T12:16:22Z</time>
      </trkpt>
      <trkpt lat="42.9408700" lon="-8.1529570">
        <ele>267.4</ele>
        <time>2021-07-25T12:16:23Z</time>
      </trkpt>
      <trkpt lat="42.9408490" lon="-8.1529580">
        <ele>267.8</ele>
        <time>2021-07-25T12:16:24Z</time>
      </trkpt>
      <trkpt lat="42.9407760" lon="-8.1529630">
        <ele>267.8</ele>
        <time>2021-07-25T12:16:27Z</time>
      </trkpt>
      <trkpt lat="42.9407070" lon="-8.1529640">
        <ele>267.8</ele>
        <time>2021-07-25T12:16:30Z</time>
      </trkpt>
      <trkpt lat="42.9406420" lon="-8.1529720">
        <ele>267.8</ele>
        <time>2021-07-25T12:16:33Z</time>
      </trkpt>
      <trkpt lat="42.9405670" lon="-8.1529810">
        <ele>268.2</ele>
        <time>2021-07-25T12:16:36Z</time>
      </trkpt>
      <trkpt lat="42.9405430" lon="-8.1529860">
        <ele>268.6</ele>
        <time>2021-07-25T12:16:37Z</time>
      </trkpt>
      <trkpt lat="42.9405180" lon="-8.1529910">
        <ele>269.0</ele>
        <time>2021-07-25T12:16:38Z</time>
      </trkpt>
      <trkpt lat="42.9404920" lon="-8.1529950">
        <ele>269.4</ele>
        <time>2021-07-25T12:16:39Z</time>
      </trkpt>
      <trkpt lat="42.9404640" lon="-8.1529970">
        <ele>269.8</ele>
        <time>2021-07-25T12:16:40Z</time>
      </trkpt>
      <trkpt lat="42.9403240" lon="-8.1529980">
        <ele>269.8</ele>
        <time>2021-07-25T12:16:45Z</time>
      </trkpt>
      <trkpt lat="42.9400580" lon="-8.1530250">
        <ele>269.8</ele>
        <time>2021-07-25T12:16:53Z</time>
      </trkpt>
      <trkpt lat="42.9398840" lon="-8.1530290">
        <ele>269.8</ele>
        <time>2021-07-25T12:16:59Z</time>
      </trkpt>
      <trkpt lat="42.9397860" lon="-8.1530370">
        <ele>270.2</ele>
        <time>2021-07-25T12:17:03Z</time>
      </trkpt>
      <trkpt lat="42.9397660" lon="-8.1530390">
        <ele>270.6</ele>
        <time>2021-07-25T12:17:04Z</time>
      </trkpt>
      <trkpt lat="42.9397440" lon="-8.1530440">
        <ele>271.0</ele>
        <time>2021-07-25T12:17:05Z</time>
      </trkpt>
      <trkpt lat="42.9397200" lon="-8.1530480">
        <ele>271.4</ele>
        <time>2021-07-25T12:17:06Z</time>
      </trkpt>
      <trkpt lat="42.9396980" lon="-8.1530520">
        <ele>271.8</ele>
        <time>2021-07-25T12:17:07Z</time>
      </trkpt>
      <trkpt lat="42.9395440" lon="-8.1530700">
        <ele>272.4</ele>
        <time>2021-07-25T12:17:14Z</time>
      </trkpt>
      <trkpt lat="42.9395210" lon="-8.1530730">
        <ele>272.8</ele>
        <time>2021-07-25T12:17:15Z</time>
      </trkpt>
      <trkpt lat="42.9394970" lon="-8.1530770">
        <ele>273.2</ele>
        <time>2021-07-25T12:17:16Z</time>
      </trkpt>
      <trkpt lat="42.9394730" lon="-8.1530800">
        <ele>273.6</ele>
        <time>2021-07-25T12:17:17Z</time>
      </trkpt>
      <trkpt lat="42.9394500" lon="-8.1530800">
        <ele>274.2</ele>
        <time>2021-07-25T12:17:18Z</time>
      </trkpt>
      <trkpt lat="42.9393250" lon="-8.1530800">
        <ele>274.2</ele>
        <time>2021-07-25T12:17:23Z</time>
      </trkpt>
      <trkpt lat="42.9392040" lon="-8.1531000">
        <ele>274.6</ele>
        <time>2021-07-25T12:17:28Z</time>
      </trkpt>
      <trkpt lat="42.9391790" lon="-8.1531060">
        <ele>275.0</ele>
        <time>2021-07-25T12:17:29Z</time>
      </trkpt>
      <trkpt lat="42.9391540" lon="-8.1531100">
        <ele>275.4</ele>
        <time>2021-07-25T12:17:30Z</time>
      </trkpt>
      <trkpt lat="42.9391280" lon="-8.1531120">
        <ele>275.8</ele>
        <time>2021-07-25T12:17:31Z</time>
      </trkpt>
      <trkpt lat="42.9391040" lon="-8.1531100">
        <ele>276.2</ele>
        <time>2021-07-25T12:17:32Z</time>
      </trkpt>
      <trkpt lat="42.9389610" lon="-8.1531110">
        <ele>276.2</ele>
        <time>2021-07-25T12:17:38Z</time>
      </trkpt>
      <trkpt lat="42.9387540" lon="-8.1531110">
        <ele>276.2</ele>
        <time>2021-07-25T12:17:46Z</time>
      </trkpt>
      <trkpt lat="42.9386320" lon="-8.1531020">
        <ele>276.6</ele>
        <time>2021-07-25T12:17:50Z</time>
      </trkpt>
      <trkpt lat="42.9385970" lon="-8.1530960">
        <ele>277.0</ele>
        <time>2021-07-25T12:17:51Z</time>
      </trkpt>
      <trkpt lat="42.9385650" lon="-8.1530910">
        <ele>277.4</ele>
        <time>2021-07-25T12:17:52Z</time>
      </trkpt>
      <trkpt lat="42.9385340" lon="-8.1530850">
        <ele>277.8</ele>
        <time>2021-07-25T12:17:53Z</time>
      </trkpt>
      <trkpt lat="42.9385040" lon="-8.1530830">
        <ele>278.2</ele>
        <time>2021-07-25T12:17:54Z</time>
      </trkpt>
      <trkpt lat="42.9384000" lon="-8.1530840">
        <ele>278.2</ele>
        <time>2021-07-25T12:17:57Z</time>
      </trkpt>
      <trkpt lat="42.9383190" lon="-8.1530830">
        <ele>278.2</ele>
        <time>2021-07-25T12:17:59Z</time>
      </trkpt>
      <trkpt lat="42.9381370" lon="-8.1531230">
        <ele>278.2</ele>
        <time>2021-07-25T12:18:04Z</time>
      </trkpt>
      <trkpt lat="42.9381080" lon="-8.1531340">
        <ele>278.2</ele>
        <time>2021-07-25T12:18:05Z</time>
      </trkpt>
      <trkpt lat="42.9380500" lon="-8.1531590">
        <ele>278.2</ele>
        <time>2021-07-25T12:18:07Z</time>
      </trkpt>
      <trkpt lat="42.9379030" lon="-8.1532310">
        <ele>278.2</ele>
        <time>2021-07-25T12:18:12Z</time>
      </trkpt>
      <trkpt lat="42.9377900" lon="-8.1532930">
        <ele>278.2</ele>
        <time>2021-07-25T12:18:16Z</time>
      </trkpt>
      <trkpt lat="42.9377500" lon="-8.1533320">
        <ele>278.2</ele>
        <time>2021-07-25T12:18:18Z</time>
      </trkpt>
      <trkpt lat="42.9377050" lon="-8.1533930">
        <ele>278.2</ele>
        <time>2021-07-25T12:18:21Z</time>
      </trkpt>
      <trkpt lat="42.9376590" lon="-8.1534680">
        <ele>278.2</ele>
        <time>2021-07-25T12:18:24Z</time>
      </trkpt>
      <trkpt lat="42.9376470" lon="-8.1534910">
        <ele>278.2</ele>
        <time>2021-07-25T12:18:25Z</time>
      </trkpt>
      <trkpt lat="42.9376200" lon="-8.1535360">
        <ele>279.0</ele>
        <time>2021-07-25T12:18:27Z</time>
      </trkpt>
      <trkpt lat="42.9376020" lon="-8.1535620">
        <ele>279.4</ele>
        <time>2021-07-25T12:18:28Z</time>
      </trkpt>
      <trkpt lat="42.9375830" lon="-8.1535920">
        <ele>280.0</ele>
        <time>2021-07-25T12:18:29Z</time>
      </trkpt>
      <trkpt lat="42.9375640" lon="-8.1536170">
        <ele>280.4</ele>
        <time>2021-07-25T12:18:30Z</time>
      </trkpt>
      <trkpt lat="42.9375290" lon="-8.1536570">
        <ele>280.4</ele>
        <time>2021-07-25T12:18:32Z</time>
      </trkpt>
      <trkpt lat="42.9374420" lon="-8.1536630">
        <ele>280.4</ele>
        <time>2021-07-25T12:18:38Z</time>
      </trkpt>
      <trkpt lat="42.9374080" lon="-8.1536440">
        <ele>280.4</ele>
        <time>2021-07-25T12:18:41Z</time>
      </trkpt>
      <trkpt lat="42.9373500" lon="-8.1536040">
        <ele>280.8</ele>
        <time>2021-07-25T12:18:45Z</time>
      </trkpt>
      <trkpt lat="42.9373320" lon="-8.1535890">
        <ele>281.2</ele>
        <time>2021-07-25T12:18:46Z</time>
      </trkpt>
      <trkpt lat="42.9373130" lon="-8.1535720">
        <ele>281.6</ele>
        <time>2021-07-25T12:18:47Z</time>
      </trkpt>
      <trkpt lat="42.9372920" lon="-8.1535540">
        <ele>282.0</ele>
        <time>2021-07-25T12:18:48Z</time>
      </trkpt>
      <trkpt lat="42.9372780" lon="-8.1535400">
        <ele>282.4</ele>
        <time>2021-07-25T12:18:49Z</time>
      </trkpt>
      <trkpt lat="42.9372440" lon="-8.1535020">
        <ele>282.4</ele>
        <time>2021-07-25T12:18:51Z</time>
      </trkpt>
      <trkpt lat="42.9371960" lon="-8.1534540">
        <ele>282.8</ele>
        <time>2021-07-25T12:18:54Z</time>
      </trkpt>
      <trkpt lat="42.9371770" lon="-8.1534310">
        <ele>283.2</ele>
        <time>2021-07-25T12:18:55Z</time>
      </trkpt>
      <trkpt lat="42.9371590" lon="-8.1534090">
        <ele>283.6</ele>
        <time>2021-07-25T12:18:56Z</time>
      </trkpt>
      <trkpt lat="42.9371420" lon="-8.1533880">
        <ele>284.0</ele>
        <time>2021-07-25T12:18:57Z</time>
      </trkpt>
      <trkpt lat="42.9371240" lon="-8.1533690">
        <ele>284.4</ele>
        <time>2021-07-25T12:18:58Z</time>
      </trkpt>
      <trkpt lat="42.9371050" lon="-8.1533470">
        <ele>284.4</ele>
        <time>2021-07-25T12:18:59Z</time>
      </trkpt>
      <trkpt lat="42.9370120" lon="-8.1532670">
        <ele>284.4</ele>
        <time>2021-07-25T12:19:04Z</time>
      </trkpt>
      <trkpt lat="42.9369790" lon="-8.1532510">
        <ele>284.4</ele>
        <time>2021-07-25T12:19:06Z</time>
      </trkpt>
      <trkpt lat="42.9369650" lon="-8.1532440">
        <ele>285.0</ele>
        <time>2021-07-25T12:19:07Z</time>
      </trkpt>
      <trkpt lat="42.9369490" lon="-8.1532380">
        <ele>285.4</ele>
        <time>2021-07-25T12:19:08Z</time>
      </trkpt>
      <trkpt lat="42.9369350" lon="-8.1532340">
        <ele>285.8</ele>
        <time>2021-07-25T12:19:09Z</time>
      </trkpt>
      <trkpt lat="42.9369170" lon="-8.1532300">
        <ele>286.2</ele>
        <time>2021-07-25T12:19:10Z</time>
      </trkpt>
      <trkpt lat="42.9368990" lon="-8.1532260">
        <ele>286.6</ele>
        <time>2021-07-25T12:19:11Z</time>
      </trkpt>
      <trkpt lat="42.9368820" lon="-8.1532250">
        <ele>286.6</ele>
        <time>2021-07-25T12:19:12Z</time>
      </trkpt>
      <trkpt lat="42.9368430" lon="-8.1532210">
        <ele>286.6</ele>
        <time>2021-07-25T12:19:14Z</time>
      </trkpt>
      <trkpt lat="42.9367930" lon="-8.1532110">
        <ele>287.2</ele>
        <time>2021-07-25T12:19:17Z</time>
      </trkpt>
      <trkpt lat="42.9367770" lon="-8.1532060">
        <ele>287.6</ele>
        <time>2021-07-25T12:19:18Z</time>
      </trkpt>
      <trkpt lat="42.9367640" lon="-8.1532050">
        <ele>288.0</ele>
        <time>2021-07-25T12:19:19Z</time>
      </trkpt>
      <trkpt lat="42.9367490" lon="-8.1532090">
        <ele>288.4</ele>
        <time>2021-07-25T12:19:20Z</time>
      </trkpt>
      <trkpt lat="42.9367350" lon="-8.1532100">
        <ele>288.8</ele>
        <time>2021-07-25T12:19:21Z</time>
      </trkpt>
      <trkpt lat="42.9366560" lon="-8.1532090">
        <ele>289.2</ele>
        <time>2021-07-25T12:19:26Z</time>
      </trkpt>
      <trkpt lat="42.9366410" lon="-8.1532100">
        <ele>289.6</ele>
        <time>2021-07-25T12:19:27Z</time>
      </trkpt>
      <trkpt lat="42.9366260" lon="-8.1532090">
        <ele>290.0</ele>
        <time>2021-07-25T12:19:28Z</time>
      </trkpt>
      <trkpt lat="42.9366100" lon="-8.1532060">
        <ele>290.4</ele>
        <time>2021-07-25T12:19:29Z</time>
      </trkpt>
      <trkpt lat="42.9365920" lon="-8.1532030">
        <ele>290.8</ele>
        <time>2021-07-25T12:19:30Z</time>
      </trkpt>
      <trkpt lat="42.9364970" lon="-8.1531930">
        <ele>290.8</ele>
        <time>2021-07-25T12:19:35Z</time>
      </trkpt>
      <trkpt lat="42.9364200" lon="-8.1531610">
        <ele>291.2</ele>
        <time>2021-07-25T12:19:40Z</time>
      </trkpt>
      <trkpt lat="42.9364050" lon="-8.1531560">
        <ele>292.0</ele>
        <time>2021-07-25T12:19:41Z</time>
      </trkpt>
      <trkpt lat="42.9363900" lon="-8.1531520">
        <ele>292.4</ele>
        <time>2021-07-25T12:19:42Z</time>
      </trkpt>
      <trkpt lat="42.9363740" lon="-8.1531500">
        <ele>292.8</ele>
        <time>2021-07-25T12:19:43Z</time>
      </trkpt>
      <trkpt lat="42.9362850" lon="-8.1531480">
        <ele>293.2</ele>
        <time>2021-07-25T12:19:49Z</time>
      </trkpt>
      <trkpt lat="42.9362690" lon="-8.1531480">
        <ele>293.8</ele>
        <time>2021-07-25T12:19:50Z</time>
      </trkpt>
      <trkpt lat="42.9362540" lon="-8.1531520">
        <ele>294.2</ele>
        <time>2021-07-25T12:19:51Z</time>
      </trkpt>
      <trkpt lat="42.9362360" lon="-8.1531600">
        <ele>294.6</ele>
        <time>2021-07-25T12:19:52Z</time>
      </trkpt>
      <trkpt lat="42.9362200" lon="-8.1531700">
        <ele>295.0</ele>
        <time>2021-07-25T12:19:53Z</time>
      </trkpt>
      <trkpt lat="42.9361570" lon="-8.1532180">
        <ele>295.0</ele>
        <time>2021-07-25T12:19:57Z</time>
      </trkpt>
      <trkpt lat="42.9361410" lon="-8.1532300">
        <ele>295.4</ele>
        <time>2021-07-25T12:19:58Z</time>
      </trkpt>
      <trkpt lat="42.9361260" lon="-8.1532430">
        <ele>295.8</ele>
        <time>2021-07-25T12:19:59Z</time>
      </trkpt>
      <trkpt lat="42.9361140" lon="-8.1532570">
        <ele>296.2</ele>
        <time>2021-07-25T12:20:00Z</time>
      </trkpt>
      <trkpt lat="42.9361050" lon="-8.1532750">
        <ele>296.6</ele>
        <time>2021-07-25T12:20:01Z</time>
      </trkpt>
      <trkpt lat="42.9360970" lon="-8.1532930">
        <ele>297.0</ele>
        <time>2021-07-25T12:20:02Z</time>
      </trkpt>
      <trkpt lat="42.9360860" lon="-8.1533320">
        <ele>297.0</ele>
        <time>2021-07-25T12:20:04Z</time>
      </trkpt>
      <trkpt lat="42.9360430" lon="-8.1533990">
        <ele>297.4</ele>
        <time>2021-07-25T12:20:08Z</time>
      </trkpt>
      <trkpt lat="42.9360300" lon="-8.1534140">
        <ele>297.8</ele>
        <time>2021-07-25T12:20:09Z</time>
      </trkpt>
      <trkpt lat="42.9360150" lon="-8.1534260">
        <ele>298.2</ele>
        <time>2021-07-25T12:20:10Z</time>
      </trkpt>
      <trkpt lat="42.9360020" lon="-8.1534410">
        <ele>298.8</ele>
        <time>2021-07-25T12:20:11Z</time>
      </trkpt>
      <trkpt lat="42.9359890" lon="-8.1534570">
        <ele>299.2</ele>
        <time>2021-07-25T12:20:12Z</time>
      </trkpt>
      <trkpt lat="42.9359290" lon="-8.1535330">
        <ele>299.2</ele>
        <time>2021-07-25T12:20:17Z</time>
      </trkpt>
      <trkpt lat="42.9358440" lon="-8.1536120">
        <ele>299.6</ele>
        <time>2021-07-25T12:20:24Z</time>
      </trkpt>
      <trkpt lat="42.9358300" lon="-8.1536220">
        <ele>300.0</ele>
        <time>2021-07-25T12:20:25Z</time>
      </trkpt>
      <trkpt lat="42.9358170" lon="-8.1536300">
        <ele>300.4</ele>
        <time>2021-07-25T12:20:26Z</time>
      </trkpt>
      <trkpt lat="42.9358070" lon="-8.1536410">
        <ele>301.0</ele>
        <time>2021-07-25T12:20:27Z</time>
      </trkpt>
      <trkpt lat="42.9357980" lon="-8.1536530">
        <ele>301.4</ele>
        <time>2021-07-25T12:20:28Z</time>
      </trkpt>
      <trkpt lat="42.9357400" lon="-8.1536800">
        <ele>301.4</ele>
        <time>2021-07-25T12:20:32Z</time>
      </trkpt>
      <trkpt lat="42.9356190" lon="-8.1537390">
        <ele>301.4</ele>
        <time>2021-07-25T12:20:40Z</time>
      </trkpt>
      <trkpt lat="42.9356030" lon="-8.1537510">
        <ele>301.8</ele>
        <time>2021-07-25T12:20:41Z</time>
      </trkpt>
      <trkpt lat="42.9355920" lon="-8.1537620">
        <ele>302.2</ele>
        <time>2021-07-25T12:20:42Z</time>
      </trkpt>
      <trkpt lat="42.9355810" lon="-8.1537670">
        <ele>302.6</ele>
        <time>2021-07-25T12:20:43Z</time>
      </trkpt>
      <trkpt lat="42.9355670" lon="-8.1537720">
        <ele>303.0</ele>
        <time>2021-07-25T12:20:44Z</time>
      </trkpt>
      <trkpt lat="42.9355500" lon="-8.1537780">
        <ele>303.4</ele>
        <time>2021-07-25T12:20:45Z</time>
      </trkpt>
      <trkpt lat="42.9355220" lon="-8.1537960">
        <ele>303.4</ele>
        <time>2021-07-25T12:20:47Z</time>
      </trkpt>
      <trkpt lat="42.9354340" lon="-8.1538340">
        <ele>303.4</ele>
        <time>2021-07-25T12:20:54Z</time>
      </trkpt>
      <trkpt lat="42.9354230" lon="-8.1538400">
        <ele>304.2</ele>
        <time>2021-07-25T12:20:55Z</time>
      </trkpt>
      <trkpt lat="42.9354100" lon="-8.1538460">
        <ele>304.8</ele>
        <time>2021-07-25T12:20:56Z</time>
      </trkpt>
      <trkpt lat="42.9353960" lon="-8.1538490">
        <ele>305.2</ele>
        <time>2021-07-25T12:20:57Z</time>
      </trkpt>
      <trkpt lat="42.9353810" lon="-8.1538550">
        <ele>305.6</ele>
        <time>2021-07-25T12:20:58Z</time>
      </trkpt>
      <trkpt lat="42.9353420" lon="-8.1538730">
        <ele>305.6</ele>
        <time>2021-07-25T12:21:01Z</time>
      </trkpt>
      <trkpt lat="42.9352620" lon="-8.1539180">
        <ele>306.0</ele>
        <time>2021-07-25T12:21:06Z</time>
      </trkpt>
      <trkpt lat="42.9352480" lon="-8.1539210">
        <ele>306.4</ele>
        <time>2021-07-25T12:21:07Z</time>
      </trkpt>
      <trkpt lat="42.9352320" lon="-8.1539270">
        <ele>307.0</ele>
        <time>2021-07-25T12:21:08Z</time>
      </trkpt>
      <trkpt lat="42.9352150" lon="-8.1539350">
        <ele>307.4</ele>
        <time>2021-07-25T12:21:09Z</time>
      </trkpt>
      <trkpt lat="42.9351990" lon="-8.1539420">
        <ele>307.8</ele>
        <time>2021-07-25T12:21:10Z</time>
      </trkpt>
      <trkpt lat="42.9351850" lon="-8.1539500">
        <ele>307.8</ele>
        <time>2021-07-25T12:21:11Z</time>
      </trkpt>
      <trkpt lat="42.9350990" lon="-8.1540030">
        <ele>307.8</ele>
        <time>2021-07-25T12:21:17Z</time>
      </trkpt>
      <trkpt lat="42.9350850" lon="-8.1540130">
        <ele>308.2</ele>
        <time>2021-07-25T12:21:18Z</time>
      </trkpt>
      <trkpt lat="42.9350700" lon="-8.1540180">
        <ele>308.6</ele>
        <time>2021-07-25T12:21:19Z</time>
      </trkpt>
      <trkpt lat="42.9350510" lon="-8.1540210">
        <ele>309.4</ele>
        <time>2021-07-25T12:21:20Z</time>
      </trkpt>
      <trkpt lat="42.9350360" lon="-8.1540240">
        <ele>309.8</ele>
        <time>2021-07-25T12:21:21Z</time>
      </trkpt>
      <trkpt lat="42.9350120" lon="-8.1540310">
        <ele>309.8</ele>
        <time>2021-07-25T12:21:23Z</time>
      </trkpt>
      <trkpt lat="42.9349330" lon="-8.1540500">
        <ele>310.2</ele>
        <time>2021-07-25T12:21:28Z</time>
      </trkpt>
      <trkpt lat="42.9349160" lon="-8.1540570">
        <ele>310.6</ele>
        <time>2021-07-25T12:21:29Z</time>
      </trkpt>
      <trkpt lat="42.9349020" lon="-8.1540610">
        <ele>311.0</ele>
        <time>2021-07-25T12:21:30Z</time>
      </trkpt>
      <trkpt lat="42.9348890" lon="-8.1540650">
        <ele>311.6</ele>
        <time>2021-07-25T12:21:31Z</time>
      </trkpt>
      <trkpt lat="42.9348750" lon="-8.1540710">
        <ele>312.0</ele>
        <time>2021-07-25T12:21:32Z</time>
      </trkpt>
      <trkpt lat="42.9348570" lon="-8.1540750">
        <ele>312.0</ele>
        <time>2021-07-25T12:21:33Z</time>
      </trkpt>
      <trkpt lat="42.9347980" lon="-8.1540910">
        <ele>312.0</ele>
        <time>2021-07-25T12:21:37Z</time>
      </trkpt>
      <trkpt lat="42.9347530" lon="-8.1541160">
        <ele>312.4</ele>
        <time>2021-07-25T12:21:41Z</time>
      </trkpt>
      <trkpt lat="42.9347360" lon="-8.1541260">
        <ele>312.8</ele>
        <time>2021-07-25T12:21:42Z</time>
      </trkpt>
      <trkpt lat="42.9347210" lon="-8.1541330">
        <ele>313.2</ele>
        <time>2021-07-25T12:21:43Z</time>
      </trkpt>
      <trkpt lat="42.9347060" lon="-8.1541380">
        <ele>313.6</ele>
        <time>2021-07-25T12:21:44Z</time>
      </trkpt>
      <trkpt lat="42.9346920" lon="-8.1541430">
        <ele>314.0</ele>
        <time>2021-07-25T12:21:45Z</time>
      </trkpt>
      <trkpt lat="42.9346240" lon="-8.1541710">
        <ele>314.4</ele>
        <time>2021-07-25T12:21:50Z</time>
      </trkpt>
      <trkpt lat="42.9346100" lon="-8.1541770">
        <ele>314.8</ele>
        <time>2021-07-25T12:21:51Z</time>
      </trkpt>
      <trkpt lat="42.9345970" lon="-8.1541800">
        <ele>315.2</ele>
        <time>2021-07-25T12:21:52Z</time>
      </trkpt>
      <trkpt lat="42.9345830" lon="-8.1541850">
        <ele>315.6</ele>
        <time>2021-07-25T12:21:53Z</time>
      </trkpt>
      <trkpt lat="42.9345690" lon="-8.1541890">
        <ele>316.0</ele>
        <time>2021-07-25T12:21:54Z</time>
      </trkpt>
      <trkpt lat="42.9345190" lon="-8.1542020">
        <ele>316.0</ele>
        <time>2021-07-25T12:21:58Z</time>
      </trkpt>
      <trkpt lat="42.9344730" lon="-8.1542100">
        <ele>316.0</ele>
        <time>2021-07-25T12:22:01Z</time>
      </trkpt>
      <trkpt lat="42.9344630" lon="-8.1542170">
        <ele>316.6</ele>
        <time>2021-07-25T12:22:02Z</time>
      </trkpt>
      <trkpt lat="42.9344520" lon="-8.1542220">
        <ele>317.2</ele>
        <time>2021-07-25T12:22:03Z</time>
      </trkpt>
      <trkpt lat="42.9344410" lon="-8.1542250">
        <ele>317.6</ele>
        <time>2021-07-25T12:22:04Z</time>
      </trkpt>
      <trkpt lat="42.9344290" lon="-8.1542300">
        <ele>318.2</ele>
        <time>2021-07-25T12:22:05Z</time>
      </trkpt>
      <trkpt lat="42.9344170" lon="-8.1542360">
        <ele>318.6</ele>
        <time>2021-07-25T12:22:06Z</time>
      </trkpt>
      <trkpt lat="42.9343180" lon="-8.1542690">
        <ele>318.6</ele>
        <time>2021-07-25T12:22:13Z</time>
      </trkpt>
      <trkpt lat="42.9342890" lon="-8.1542720">
        <ele>319.0</ele>
        <time>2021-07-25T12:22:15Z</time>
      </trkpt>
      <trkpt lat="42.9342720" lon="-8.1542710">
        <ele>319.4</ele>
        <time>2021-07-25T12:22:16Z</time>
      </trkpt>
      <trkpt lat="42.9342560" lon="-8.1542730">
        <ele>320.0</ele>
        <time>2021-07-25T12:22:17Z</time>
      </trkpt>
      <trkpt lat="42.9342410" lon="-8.1542750">
        <ele>320.4</ele>
        <time>2021-07-25T12:22:18Z</time>
      </trkpt>
      <trkpt lat="42.9342260" lon="-8.1542830">
        <ele>320.8</ele>
        <time>2021-07-25T12:22:19Z</time>
      </trkpt>
      <trkpt lat="42.9341900" lon="-8.1542940">
        <ele>320.8</ele>
        <time>2021-07-25T12:22:21Z</time>
      </trkpt>
      <trkpt lat="42.9340760" lon="-8.1543310">
        <ele>320.8</ele>
        <time>2021-07-25T12:22:28Z</time>
      </trkpt>
      <trkpt lat="42.9340590" lon="-8.1543380">
        <ele>321.2</ele>
        <time>2021-07-25T12:22:29Z</time>
      </trkpt>
      <trkpt lat="42.9340420" lon="-8.1543440">
        <ele>321.6</ele>
        <time>2021-07-25T12:22:30Z</time>
      </trkpt>
      <trkpt lat="42.9340250" lon="-8.1543490">
        <ele>322.0</ele>
        <time>2021-07-25T12:22:31Z</time>
      </trkpt>
      <trkpt lat="42.9340100" lon="-8.1543530">
        <ele>322.4</ele>
        <time>2021-07-25T12:22:32Z</time>
      </trkpt>
      <trkpt lat="42.9339970" lon="-8.1543580">
        <ele>322.8</ele>
        <time>2021-07-25T12:22:33Z</time>
      </trkpt>
      <trkpt lat="42.9339610" lon="-8.1543690">
        <ele>322.8</ele>
        <time>2021-07-25T12:22:36Z</time>
      </trkpt>
      <trkpt lat="42.9338700" lon="-8.1543960">
        <ele>323.2</ele>
        <time>2021-07-25T12:22:41Z</time>
      </trkpt>
      <trkpt lat="42.9338480" lon="-8.1544010">
        <ele>323.6</ele>
        <time>2021-07-25T12:22:42Z</time>
      </trkpt>
      <trkpt lat="42.9338250" lon="-8.1544100">
        <ele>324.0</ele>
        <time>2021-07-25T12:22:43Z</time>
      </trkpt>
      <trkpt lat="42.9338020" lon="-8.1544200">
        <ele>324.4</ele>
        <time>2021-07-25T12:22:44Z</time>
      </trkpt>
      <trkpt lat="42.9337820" lon="-8.1544340">
        <ele>324.8</ele>
        <time>2021-07-25T12:22:45Z</time>
      </trkpt>
      <trkpt lat="42.9336320" lon="-8.1545070">
        <ele>324.8</ele>
        <time>2021-07-25T12:22:53Z</time>
      </trkpt>
      <trkpt lat="42.9336130" lon="-8.1545150">
        <ele>325.2</ele>
        <time>2021-07-25T12:22:54Z</time>
      </trkpt>
      <trkpt lat="42.9335980" lon="-8.1545260">
        <ele>325.6</ele>
        <time>2021-07-25T12:22:55Z</time>
      </trkpt>
      <trkpt lat="42.9335800" lon="-8.1545390">
        <ele>326.0</ele>
        <time>2021-07-25T12:22:56Z</time>
      </trkpt>
      <trkpt lat="42.9335620" lon="-8.1545490">
        <ele>326.4</ele>
        <time>2021-07-25T12:22:57Z</time>
      </trkpt>
      <trkpt lat="42.9335460" lon="-8.1545620">
        <ele>326.8</ele>
        <time>2021-07-25T12:22:58Z</time>
      </trkpt>
      <trkpt lat="42.9335120" lon="-8.1545870">
        <ele>326.8</ele>
        <time>2021-07-25T12:23:00Z</time>
      </trkpt>
      <trkpt lat="42.9333920" lon="-8.1546670">
        <ele>327.2</ele>
        <time>2021-07-25T12:23:08Z</time>
      </trkpt>
      <trkpt lat="42.9333750" lon="-8.1546760">
        <ele>327.8</ele>
        <time>2021-07-25T12:23:09Z</time>
      </trkpt>
      <trkpt lat="42.9333600" lon="-8.1546890">
        <ele>328.2</ele>
        <time>2021-07-25T12:23:10Z</time>
      </trkpt>
      <trkpt lat="42.9333440" lon="-8.1547030">
        <ele>328.6</ele>
        <time>2021-07-25T12:23:11Z</time>
      </trkpt>
      <trkpt lat="42.9333270" lon="-8.1547130">
        <ele>329.0</ele>
        <time>2021-07-25T12:23:12Z</time>
      </trkpt>
      <trkpt lat="42.9333120" lon="-8.1547270">
        <ele>329.0</ele>
        <time>2021-07-25T12:23:13Z</time>
      </trkpt>
      <trkpt lat="42.9332610" lon="-8.1547610">
        <ele>329.0</ele>
        <time>2021-07-25T12:23:16Z</time>
      </trkpt>
      <trkpt lat="42.9332260" lon="-8.1547830">
        <ele>329.0</ele>
        <time>2021-07-25T12:23:18Z</time>
      </trkpt>
      <trkpt lat="42.9331420" lon="-8.1548510">
        <ele>329.4</ele>
        <time>2021-07-25T12:23:24Z</time>
      </trkpt>
      <trkpt lat="42.9331270" lon="-8.1548620">
        <ele>329.8</ele>
        <time>2021-07-25T12:23:25Z</time>
      </trkpt>
      <trkpt lat="42.9331110" lon="-8.1548770">
        <ele>330.2</ele>
        <time>2021-07-25T12:23:26Z</time>
      </trkpt>
      <trkpt lat="42.9330970" lon="-8.1548920">
        <ele>330.6</ele>
        <time>2021-07-25T12:23:27Z</time>
      </trkpt>
      <trkpt lat="42.9330830" lon="-8.1549080">
        <ele>331.0</ele>
        <time>2021-07-25T12:23:28Z</time>
      </trkpt>
      <trkpt lat="42.9330290" lon="-8.1549750">
        <ele>331.0</ele>
        <time>2021-07-25T12:23:32Z</time>
      </trkpt>
      <trkpt lat="42.9329610" lon="-8.1550760">
        <ele>331.0</ele>
        <time>2021-07-25T12:23:38Z</time>
      </trkpt>
      <trkpt lat="42.9328570" lon="-8.1551640">
        <ele>331.4</ele>
        <time>2021-07-25T12:23:44Z</time>
      </trkpt>
      <trkpt lat="42.9328370" lon="-8.1551740">
        <ele>331.8</ele>
        <time>2021-07-25T12:23:45Z</time>
      </trkpt>
      <trkpt lat="42.9328180" lon="-8.1551840">
        <ele>332.2</ele>
        <time>2021-07-25T12:23:46Z</time>
      </trkpt>
      <trkpt lat="42.9328010" lon="-8.1551960">
        <ele>332.6</ele>
        <time>2021-07-25T12:23:47Z</time>
      </trkpt>
      <trkpt lat="42.9327800" lon="-8.1552120">
        <ele>333.0</ele>
        <time>2021-07-25T12:23:48Z</time>
      </trkpt>
      <trkpt lat="42.9327340" lon="-8.1552530">
        <ele>333.0</ele>
        <time>2021-07-25T12:23:50Z</time>
      </trkpt>
      <trkpt lat="42.9326200" lon="-8.1553690">
        <ele>333.0</ele>
        <time>2021-07-25T12:23:56Z</time>
      </trkpt>
      <trkpt lat="42.9325830" lon="-8.1554010">
        <ele>333.4</ele>
        <time>2021-07-25T12:23:58Z</time>
      </trkpt>
      <trkpt lat="42.9325620" lon="-8.1554130">
        <ele>333.8</ele>
        <time>2021-07-25T12:23:59Z</time>
      </trkpt>
      <trkpt lat="42.9325430" lon="-8.1554290">
        <ele>334.2</ele>
        <time>2021-07-25T12:24:00Z</time>
      </trkpt>
      <trkpt lat="42.9325240" lon="-8.1554500">
        <ele>334.6</ele>
        <time>2021-07-25T12:24:01Z</time>
      </trkpt>
      <trkpt lat="42.9325060" lon="-8.1554730">
        <ele>335.2</ele>
        <time>2021-07-25T12:24:02Z</time>
      </trkpt>
      <trkpt lat="42.9324630" lon="-8.1555180">
        <ele>335.2</ele>
        <time>2021-07-25T12:24:04Z</time>
      </trkpt>
      <trkpt lat="42.9323290" lon="-8.1556530">
        <ele>335.2</ele>
        <time>2021-07-25T12:24:11Z</time>
      </trkpt>
      <trkpt lat="42.9322760" lon="-8.1557150">
        <ele>335.6</ele>
        <time>2021-07-25T12:24:14Z</time>
      </trkpt>
      <trkpt lat="42.9322570" lon="-8.1557350">
        <ele>336.0</ele>
        <time>2021-07-25T12:24:15Z</time>
      </trkpt>
      <trkpt lat="42.9322390" lon="-8.1557550">
        <ele>336.4</ele>
        <time>2021-07-25T12:24:16Z</time>
      </trkpt>
      <trkpt lat="42.9322210" lon="-8.1557750">
        <ele>336.8</ele>
        <time>2021-07-25T12:24:17Z</time>
      </trkpt>
      <trkpt lat="42.9322030" lon="-8.1557960">
        <ele>337.2</ele>
        <time>2021-07-25T12:24:18Z</time>
      </trkpt>
      <trkpt lat="42.9321660" lon="-8.1558350">
        <ele>337.2</ele>
        <time>2021-07-25T12:24:20Z</time>
      </trkpt>
      <trkpt lat="42.9319780" lon="-8.1560450">
        <ele>337.2</ele>
        <time>2021-07-25T12:24:30Z</time>
      </trkpt>
      <trkpt lat="42.9319480" lon="-8.1561060">
        <ele>337.6</ele>
        <time>2021-07-25T12:24:32Z</time>
      </trkpt>
      <trkpt lat="42.9319270" lon="-8.1561310">
        <ele>338.0</ele>
        <time>2021-07-25T12:24:33Z</time>
      </trkpt>
      <trkpt lat="42.9319060" lon="-8.1561590">
        <ele>338.4</ele>
        <time>2021-07-25T12:24:34Z</time>
      </trkpt>
      <trkpt lat="42.9318860" lon="-8.1561880">
        <ele>338.8</ele>
        <time>2021-07-25T12:24:35Z</time>
      </trkpt>
      <trkpt lat="42.9318670" lon="-8.1562190">
        <ele>339.2</ele>
        <time>2021-07-25T12:24:36Z</time>
      </trkpt>
      <trkpt lat="42.9318470" lon="-8.1562500">
        <ele>339.2</ele>
        <time>2021-07-25T12:24:37Z</time>
      </trkpt>
      <trkpt lat="42.9317590" lon="-8.1564200">
        <ele>339.2</ele>
        <time>2021-07-25T12:24:42Z</time>
      </trkpt>
      <trkpt lat="42.9317280" lon="-8.1564870">
        <ele>339.2</ele>
        <time>2021-07-25T12:24:44Z</time>
      </trkpt>
      <trkpt lat="42.9316600" lon="-8.1566750">
        <ele>339.2</ele>
        <time>2021-07-25T12:24:49Z</time>
      </trkpt>
      <trkpt lat="42.9315790" lon="-8.1568750">
        <ele>339.2</ele>
        <time>2021-07-25T12:24:54Z</time>
      </trkpt>
      <trkpt lat="42.9315660" lon="-8.1569120">
        <ele>339.2</ele>
        <time>2021-07-25T12:24:55Z</time>
      </trkpt>
      <trkpt lat="42.9315210" lon="-8.1570080">
        <ele>339.2</ele>
        <time>2021-07-25T12:24:58Z</time>
      </trkpt>
      <trkpt lat="42.9314630" lon="-8.1571360">
        <ele>339.2</ele>
        <time>2021-07-25T12:25:02Z</time>
      </trkpt>
      <trkpt lat="42.9313800" lon="-8.1573100">
        <ele>339.2</ele>
        <time>2021-07-25T12:25:07Z</time>
      </trkpt>
      <trkpt lat="42.9313440" lon="-8.1573830">
        <ele>339.2</ele>
        <time>2021-07-25T12:25:09Z</time>
      </trkpt>
      <trkpt lat="42.9313240" lon="-8.1574210">
        <ele>339.2</ele>
        <time>2021-07-25T12:25:10Z</time>
      </trkpt>
      <trkpt lat="42.9312370" lon="-8.1575790">
        <ele>339.2</ele>
        <time>2021-07-25T12:25:14Z</time>
      </trkpt>
      <trkpt lat="42.9311610" lon="-8.1577110">
        <ele>339.2</ele>
        <time>2021-07-25T12:25:17Z</time>
      </trkpt>
      <trkpt lat="42.9310010" lon="-8.1579810">
        <ele>339.2</ele>
        <time>2021-07-25T12:25:22Z</time>
      </trkpt>
      <trkpt lat="42.9309300" lon="-8.1580880">
        <ele>339.2</ele>
        <time>2021-07-25T12:25:24Z</time>
      </trkpt>
      <trkpt lat="42.9308260" lon="-8.1582570">
        <ele>339.2</ele>
        <time>2021-07-25T12:25:27Z</time>
      </trkpt>
      <trkpt lat="42.9307900" lon="-8.1583200">
        <ele>338.4</ele>
        <time>2021-07-25T12:25:28Z</time>
      </trkpt>
      <trkpt lat="42.9307530" lon="-8.1583750">
        <ele>338.0</ele>
        <time>2021-07-25T12:25:29Z</time>
      </trkpt>
      <trkpt lat="42.9307140" lon="-8.1584290">
        <ele>337.6</ele>
        <time>2021-07-25T12:25:30Z</time>
      </trkpt>
      <trkpt lat="42.9306760" lon="-8.1584860">
        <ele>337.2</ele>
        <time>2021-07-25T12:25:31Z</time>
      </trkpt>
      <trkpt lat="42.9306380" lon="-8.1585440">
        <ele>337.2</ele>
        <time>2021-07-25T12:25:32Z</time>
      </trkpt>
      <trkpt lat="42.9303460" lon="-8.1589860">
        <ele>337.2</ele>
        <time>2021-07-25T12:25:39Z</time>
      </trkpt>
      <trkpt lat="42.9302970" lon="-8.1590400">
        <ele>337.2</ele>
        <time>2021-07-25T12:25:40Z</time>
      </trkpt>
      <trkpt lat="42.9302440" lon="-8.1590910">
        <ele>336.8</ele>
        <time>2021-07-25T12:25:41Z</time>
      </trkpt>
      <trkpt lat="42.9301940" lon="-8.1591410">
        <ele>336.2</ele>
        <time>2021-07-25T12:25:42Z</time>
      </trkpt>
      <trkpt lat="42.9301400" lon="-8.1591980">
        <ele>335.6</ele>
        <time>2021-07-25T12:25:43Z</time>
      </trkpt>
      <trkpt lat="42.9300890" lon="-8.1592520">
        <ele>334.8</ele>
        <time>2021-07-25T12:25:44Z</time>
      </trkpt>
      <trkpt lat="42.9300380" lon="-8.1593060">
        <ele>334.0</ele>
        <time>2021-07-25T12:25:45Z</time>
      </trkpt>
      <trkpt lat="42.9299860" lon="-8.1593610">
        <ele>333.2</ele>
        <time>2021-07-25T12:25:46Z</time>
      </trkpt>
      <trkpt lat="42.9299330" lon="-8.1594130">
        <ele>332.6</ele>
        <time>2021-07-25T12:25:47Z</time>
      </trkpt>
      <trkpt lat="42.9297810" lon="-8.1595710">
        <ele>332.6</ele>
        <time>2021-07-25T12:25:50Z</time>
      </trkpt>
      <trkpt lat="42.9296840" lon="-8.1596700">
        <ele>332.6</ele>
        <time>2021-07-25T12:25:52Z</time>
      </trkpt>
      <trkpt lat="42.9294900" lon="-8.1598680">
        <ele>332.2</ele>
        <time>2021-07-25T12:25:56Z</time>
      </trkpt>
      <trkpt lat="42.9294440" lon="-8.1599140">
        <ele>331.6</ele>
        <time>2021-07-25T12:25:57Z</time>
      </trkpt>
      <trkpt lat="42.9293940" lon="-8.1599660">
        <ele>331.2</ele>
        <time>2021-07-25T12:25:58Z</time>
      </trkpt>
      <trkpt lat="42.9293500" lon="-8.1600140">
        <ele>330.8</ele>
        <time>2021-07-25T12:25:59Z</time>
      </trkpt>
      <trkpt lat="42.9293060" lon="-8.1600610">
        <ele>330.4</ele>
        <time>2021-07-25T12:26:00Z</time>
      </trkpt>
      <trkpt lat="42.9290160" lon="-8.1603520">
        <ele>330.4</ele>
        <time>2021-07-25T12:26:07Z</time>
      </trkpt>
      <trkpt lat="42.9289360" lon="-8.1604360">
        <ele>330.0</ele>
        <time>2021-07-25T12:26:09Z</time>
      </trkpt>
      <trkpt lat="42.9288980" lon="-8.1604760">
        <ele>329.6</ele>
        <time>2021-07-25T12:26:10Z</time>
      </trkpt>
      <trkpt lat="42.9288610" lon="-8.1605180">
        <ele>329.2</ele>
        <time>2021-07-25T12:26:11Z</time>
      </trkpt>
      <trkpt lat="42.9288250" lon="-8.1605580">
        <ele>328.6</ele>
        <time>2021-07-25T12:26:12Z</time>
      </trkpt>
      <trkpt lat="42.9287920" lon="-8.1605940">
        <ele>328.2</ele>
        <time>2021-07-25T12:26:13Z</time>
      </trkpt>
      <trkpt lat="42.9287580" lon="-8.1606250">
        <ele>328.2</ele>
        <time>2021-07-25T12:26:14Z</time>
      </trkpt>
      <trkpt lat="42.9286770" lon="-8.1606790">
        <ele>327.8</ele>
        <time>2021-07-25T12:26:17Z</time>
      </trkpt>
      <trkpt lat="42.9286600" lon="-8.1606890">
        <ele>327.4</ele>
        <time>2021-07-25T12:26:18Z</time>
      </trkpt>
      <trkpt lat="42.9286490" lon="-8.1607010">
        <ele>327.0</ele>
        <time>2021-07-25T12:26:19Z</time>
      </trkpt>
      <trkpt lat="42.9286480" lon="-8.1607180">
        <ele>326.6</ele>
        <time>2021-07-25T12:26:20Z</time>
      </trkpt>
      <trkpt lat="42.9286540" lon="-8.1607460">
        <ele>326.2</ele>
        <time>2021-07-25T12:26:21Z</time>
      </trkpt>
      <trkpt lat="42.9286590" lon="-8.1607760">
        <ele>326.2</ele>
        <time>2021-07-25T12:26:22Z</time>
      </trkpt>
      <trkpt lat="42.9286750" lon="-8.1609140">
        <ele>326.2</ele>
        <time>2021-07-25T12:26:26Z</time>
      </trkpt>
      <trkpt lat="42.9286860" lon="-8.1610480">
        <ele>326.2</ele>
        <time>2021-07-25T12:26:29Z</time>
      </trkpt>
      <trkpt lat="42.9286910" lon="-8.1611900">
        <ele>326.2</ele>
        <time>2021-07-25T12:26:32Z</time>
      </trkpt>
      <trkpt lat="42.9287150" lon="-8.1613270">
        <ele>326.2</ele>
        <time>2021-07-25T12:26:36Z</time>
      </trkpt>
      <trkpt lat="42.9287080" lon="-8.1613780">
        <ele>326.2</ele>
        <time>2021-07-25T12:26:39Z</time>
      </trkpt>
      <trkpt lat="42.9286910" lon="-8.1613550">
        <ele>326.2</ele>
        <time>2021-07-25T12:26:55Z</time>
      </trkpt>
      <trkpt lat="42.9286900" lon="-8.1613030">
        <ele>326.2</ele>
        <time>2021-07-25T12:26:57Z</time>
      </trkpt>
      <trkpt lat="42.9286940" lon="-8.1612270">
        <ele>326.2</ele>
        <time>2021-07-25T12:26:59Z</time>
      </trkpt>
      <trkpt lat="42.9286950" lon="-8.1611800">
        <ele>326.2</ele>
        <time>2021-07-25T12:27:00Z</time>
      </trkpt>
      <trkpt lat="42.9286880" lon="-8.1610860">
        <ele>326.2</ele>
        <time>2021-07-25T12:27:02Z</time>
      </trkpt>
      <trkpt lat="42.9286770" lon="-8.1609940">
        <ele>326.2</ele>
        <time>2021-07-25T12:27:04Z</time>
      </trkpt>
      <trkpt lat="42.9286610" lon="-8.1608370">
        <ele>326.2</ele>
        <time>2021-07-25T12:27:08Z</time>
      </trkpt>
      <trkpt lat="42.9285900" lon="-8.1608240">
        <ele>326.2</ele>
        <time>2021-07-25T12:27:11Z</time>
      </trkpt>
      <trkpt lat="42.9285330" lon="-8.1608280">
        <ele>326.2</ele>
        <time>2021-07-25T12:27:13Z</time>
      </trkpt>
      <trkpt lat="42.9284060" lon="-8.1608390">
        <ele>326.2</ele>
        <time>2021-07-25T12:27:17Z</time>
      </trkpt>
      <trkpt lat="42.9283290" lon="-8.1608510">
        <ele>325.8</ele>
        <time>2021-07-25T12:27:19Z</time>
      </trkpt>
      <trkpt lat="42.9282990" lon="-8.1608570">
        <ele>325.4</ele>
        <time>2021-07-25T12:27:20Z</time>
      </trkpt>
      <trkpt lat="42.9282760" lon="-8.1608580">
        <ele>325.0</ele>
        <time>2021-07-25T12:27:21Z</time>
      </trkpt>
      <trkpt lat="42.9282560" lon="-8.1608630">
        <ele>324.4</ele>
        <time>2021-07-25T12:27:22Z</time>
      </trkpt>
      <trkpt lat="42.9282290" lon="-8.1608670">
        <ele>324.0</ele>
        <time>2021-07-25T12:27:23Z</time>
      </trkpt>
      <trkpt lat="42.9281110" lon="-8.1608660">
        <ele>324.0</ele>
        <time>2021-07-25T12:27:26Z</time>
      </trkpt>
      <trkpt lat="42.9279450" lon="-8.1608620">
        <ele>323.6</ele>
        <time>2021-07-25T12:27:30Z</time>
      </trkpt>
      <trkpt lat="42.9279030" lon="-8.1608640">
        <ele>322.8</ele>
        <time>2021-07-25T12:27:31Z</time>
      </trkpt>
      <trkpt lat="42.9278670" lon="-8.1608640">
        <ele>322.4</ele>
        <time>2021-07-25T12:27:32Z</time>
      </trkpt>
      <trkpt lat="42.9278350" lon="-8.1608640">
        <ele>322.0</ele>
        <time>2021-07-25T12:27:33Z</time>
      </trkpt>
      <trkpt lat="42.9278060" lon="-8.1608640">
        <ele>322.0</ele>
        <time>2021-07-25T12:27:34Z</time>
      </trkpt>
      <trkpt lat="42.9277620" lon="-8.1608530">
        <ele>321.6</ele>
        <time>2021-07-25T12:27:36Z</time>
      </trkpt>
      <trkpt lat="42.9277490" lon="-8.1608380">
        <ele>321.0</ele>
        <time>2021-07-25T12:27:37Z</time>
      </trkpt>
      <trkpt lat="42.9277410" lon="-8.1608170">
        <ele>320.6</ele>
        <time>2021-07-25T12:27:38Z</time>
      </trkpt>
      <trkpt lat="42.9277330" lon="-8.1607920">
        <ele>320.2</ele>
        <time>2021-07-25T12:27:39Z</time>
      </trkpt>
      <trkpt lat="42.9277220" lon="-8.1607670">
        <ele>319.8</ele>
        <time>2021-07-25T12:27:40Z</time>
      </trkpt>
      <trkpt lat="42.9276910" lon="-8.1607270">
        <ele>319.8</ele>
        <time>2021-07-25T12:27:42Z</time>
      </trkpt>
      <trkpt lat="42.9276420" lon="-8.1607070">
        <ele>319.8</ele>
        <time>2021-07-25T12:27:44Z</time>
      </trkpt>
      <trkpt lat="42.9275900" lon="-8.1606930">
        <ele>319.8</ele>
        <time>2021-07-25T12:27:46Z</time>
      </trkpt>
      <trkpt lat="42.9275180" lon="-8.1606590">
        <ele>319.4</ele>
        <time>2021-07-25T12:27:49Z</time>
      </trkpt>
      <trkpt lat="42.9274920" lon="-8.1606450">
        <ele>319.0</ele>
        <time>2021-07-25T12:27:50Z</time>
      </trkpt>
      <trkpt lat="42.9274670" lon="-8.1606310">
        <ele>318.4</ele>
        <time>2021-07-25T12:27:51Z</time>
      </trkpt>
      <trkpt lat="42.9274410" lon="-8.1606180">
        <ele>318.0</ele>
        <time>2021-07-25T12:27:52Z</time>
      </trkpt>
      <trkpt lat="42.9274190" lon="-8.1606070">
        <ele>317.6</ele>
        <time>2021-07-25T12:27:53Z</time>
      </trkpt>
      <trkpt lat="42.9273720" lon="-8.1605970">
        <ele>317.2</ele>
        <time>2021-07-25T12:27:55Z</time>
      </trkpt>
      <trkpt lat="42.9273540" lon="-8.1605930">
        <ele>316.4</ele>
        <time>2021-07-25T12:27:56Z</time>
      </trkpt>
      <trkpt lat="42.9273430" lon="-8.1605880">
        <ele>316.0</ele>
        <time>2021-07-25T12:27:57Z</time>
      </trkpt>
      <trkpt lat="42.9273390" lon="-8.1605850">
        <ele>315.6</ele>
        <time>2021-07-25T12:27:58Z</time>
      </trkpt>
      <trkpt lat="42.9273350" lon="-8.1605800">
        <ele>315.6</ele>
        <time>2021-07-25T12:27:59Z</time>
      </trkpt>
      <trkpt lat="42.9273110" lon="-8.1605680">
        <ele>315.6</ele>
        <time>2021-07-25T12:28:12Z</time>
      </trkpt>
      <trkpt lat="42.9272830" lon="-8.1605420">
        <ele>315.6</ele>
        <time>2021-07-25T12:28:14Z</time>
      </trkpt>
      <trkpt lat="42.9272070" lon="-8.1604410">
        <ele>315.6</ele>
        <time>2021-07-25T12:28:18Z</time>
      </trkpt>
      <trkpt lat="42.9271900" lon="-8.1604380">
        <ele>315.6</ele>
        <time>2021-07-25T12:28:19Z</time>
      </trkpt>
      <trkpt lat="42.9271850" lon="-8.1604350">
        <ele>315.6</ele>
        <time>2021-07-25T12:28:20Z</time>
      </trkpt>
      <trkpt lat="42.9271640" lon="-8.1604680">
        <ele>315.6</ele>
        <time>2021-07-25T12:28:26Z</time>
      </trkpt>
      <trkpt lat="42.9271570" lon="-8.1604870">
        <ele>315.6</ele>
        <time>2021-07-25T12:28:27Z</time>
      </trkpt>
      <trkpt lat="42.9271520" lon="-8.1605090">
        <ele>315.2</ele>
        <time>2021-07-25T12:28:28Z</time>
      </trkpt>
      <trkpt lat="42.9271490" lon="-8.1605340">
        <ele>314.6</ele>
        <time>2021-07-25T12:28:29Z</time>
      </trkpt>
      <trkpt lat="42.9271440" lon="-8.1605610">
        <ele>314.2</ele>
        <time>2021-07-25T12:28:30Z</time>
      </trkpt>
      <trkpt lat="42.9271420" lon="-8.1605880">
        <ele>313.8</ele>
        <time>2021-07-25T12:28:31Z</time>
      </trkpt>
      <trkpt lat="42.9271370" lon="-8.1606130">
        <ele>313.4</ele>
        <time>2021-07-25T12:28:32Z</time>
      </trkpt>
      <trkpt lat="42.9271140" lon="-8.1606470">
        <ele>313.4</ele>
        <time>2021-07-25T12:28:33Z</time>
      </trkpt>
      <trkpt lat="42.9270510" lon="-8.1607660">
        <ele>313.0</ele>
        <time>2021-07-25T12:28:35Z</time>
      </trkpt>
      <trkpt lat="42.9270250" lon="-8.1608260">
        <ele>312.6</ele>
        <time>2021-07-25T12:28:36Z</time>
      </trkpt>
      <trkpt lat="42.9270020" lon="-8.1608810">
        <ele>312.2</ele>
        <time>2021-07-25T12:28:37Z</time>
      </trkpt>
      <trkpt lat="42.9269800" lon="-8.1609260">
        <ele>311.8</ele>
        <time>2021-07-25T12:28:38Z</time>
      </trkpt>
      <trkpt lat="42.9269590" lon="-8.1609820">
        <ele>311.4</ele>
        <time>2021-07-25T12:28:39Z</time>
      </trkpt>
      <trkpt lat="42.9269220" lon="-8.1610880">
        <ele>311.4</ele>
        <time>2021-07-25T12:28:41Z</time>
      </trkpt>
      <trkpt lat="42.9268500" lon="-8.1612240">
        <ele>311.4</ele>
        <time>2021-07-25T12:28:44Z</time>
      </trkpt>
      <trkpt lat="42.9267910" lon="-8.1613320">
        <ele>311.4</ele>
        <time>2021-07-25T12:28:47Z</time>
      </trkpt>
      <trkpt lat="42.9267530" lon="-8.1614310">
        <ele>311.4</ele>
        <time>2021-07-25T12:28:50Z</time>
      </trkpt>
      <trkpt lat="42.9267110" lon="-8.1615220">
        <ele>311.4</ele>
        <time>2021-07-25T12:28:53Z</time>
      </trkpt>
      <trkpt lat="42.9266500" lon="-8.1617120">
        <ele>311.4</ele>
        <time>2021-07-25T12:28:59Z</time>
      </trkpt>
      <trkpt lat="42.9266220" lon="-8.1618090">
        <ele>311.4</ele>
        <time>2021-07-25T12:29:02Z</time>
      </trkpt>
      <trkpt lat="42.9265850" lon="-8.1619090">
        <ele>311.4</ele>
        <time>2021-07-25T12:29:05Z</time>
      </trkpt>
      <trkpt lat="42.9265370" lon="-8.1620170">
        <ele>311.4</ele>
        <time>2021-07-25T12:29:08Z</time>
      </trkpt>
      <trkpt lat="42.9264820" lon="-8.1621500">
        <ele>311.4</ele>
        <time>2021-07-25T12:29:12Z</time>
      </trkpt>
      <trkpt lat="42.9264280" lon="-8.1623510">
        <ele>311.4</ele>
        <time>2021-07-25T12:29:18Z</time>
      </trkpt>
      <trkpt lat="42.9264090" lon="-8.1624610">
        <ele>311.4</ele>
        <time>2021-07-25T12:29:22Z</time>
      </trkpt>
      <trkpt lat="42.9264010" lon="-8.1625600">
        <ele>311.4</ele>
        <time>2021-07-25T12:29:26Z</time>
      </trkpt>
      <trkpt lat="42.9263710" lon="-8.1626560">
        <ele>311.4</ele>
        <time>2021-07-25T12:29:29Z</time>
      </trkpt>
      <trkpt lat="42.9263520" lon="-8.1627170">
        <ele>311.4</ele>
        <time>2021-07-25T12:29:31Z</time>
      </trkpt>
      <trkpt lat="42.9263140" lon="-8.1629480">
        <ele>311.4</ele>
        <time>2021-07-25T12:29:38Z</time>
      </trkpt>
      <trkpt lat="42.9263030" lon="-8.1629930">
        <ele>311.4</ele>
        <time>2021-07-25T12:29:40Z</time>
      </trkpt>
      <trkpt lat="42.9262920" lon="-8.1630560">
        <ele>311.4</ele>
        <time>2021-07-25T12:29:43Z</time>
      </trkpt>
      <trkpt lat="42.9262880" lon="-8.1630730">
        <ele>311.4</ele>
        <time>2021-07-25T12:29:44Z</time>
      </trkpt>
      <trkpt lat="42.9262780" lon="-8.1631430">
        <ele>311.4</ele>
        <time>2021-07-25T12:29:49Z</time>
      </trkpt>
      <trkpt lat="42.9262730" lon="-8.1632160">
        <ele>311.4</ele>
        <time>2021-07-25T12:30:23Z</time>
      </trkpt>
      <trkpt lat="42.9262640" lon="-8.1632410">
        <ele>311.4</ele>
        <time>2021-07-25T12:30:24Z</time>
      </trkpt>
      <trkpt lat="42.9262650" lon="-8.1632900">
        <ele>311.4</ele>
        <time>2021-07-25T12:30:26Z</time>
      </trkpt>
      <trkpt lat="42.9262520" lon="-8.1633960">
        <ele>311.4</ele>
        <time>2021-07-25T12:30:30Z</time>
      </trkpt>
      <trkpt lat="42.9262450" lon="-8.1634420">
        <ele>311.4</ele>
        <time>2021-07-25T12:30:32Z</time>
      </trkpt>
      <trkpt lat="42.9262360" lon="-8.1634820">
        <ele>311.4</ele>
        <time>2021-07-25T12:30:35Z</time>
      </trkpt>
      <trkpt lat="42.9271900" lon="-8.1606320">
        <ele>402.0</ele>
        <time>2021-07-26T06:32:13Z</time>
      </trkpt>
      <trkpt lat="42.9271900" lon="-8.1606320">
        <ele>402.0</ele>
        <time>2021-07-26T06:32:14Z</time>
      </trkpt>
      <trkpt lat="42.9271550" lon="-8.1606570">
        <ele>404.4</ele>
        <time>2021-07-26T06:32:40Z</time>
      </trkpt>
      <trkpt lat="42.9271350" lon="-8.1606800">
        <ele>404.4</ele>
        <time>2021-07-26T06:32:41Z</time>
      </trkpt>
      <trkpt lat="42.9271140" lon="-8.1607060">
        <ele>404.4</ele>
        <time>2021-07-26T06:32:42Z</time>
      </trkpt>
      <trkpt lat="42.9269890" lon="-8.1608790">
        <ele>404.4</ele>
        <time>2021-07-26T06:32:47Z</time>
      </trkpt>
      <trkpt lat="42.9269780" lon="-8.1609270">
        <ele>404.4</ele>
        <time>2021-07-26T06:32:48Z</time>
      </trkpt>
      <trkpt lat="42.9269320" lon="-8.1610310">
        <ele>404.4</ele>
        <time>2021-07-26T06:32:50Z</time>
      </trkpt>
      <trkpt lat="42.9268470" lon="-8.1611580">
        <ele>404.4</ele>
        <time>2021-07-26T06:32:53Z</time>
      </trkpt>
      <trkpt lat="42.9267860" lon="-8.1612800">
        <ele>404.4</ele>
        <time>2021-07-26T06:32:56Z</time>
      </trkpt>
      <trkpt lat="42.9267100" lon="-8.1614600">
        <ele>404.4</ele>
        <time>2021-07-26T06:33:00Z</time>
      </trkpt>
      <trkpt lat="42.9266780" lon="-8.1615400">
        <ele>404.4</ele>
        <time>2021-07-26T06:33:02Z</time>
      </trkpt>
      <trkpt lat="42.9266310" lon="-8.1616650">
        <ele>404.4</ele>
        <time>2021-07-26T06:33:05Z</time>
      </trkpt>
      <trkpt lat="42.9266090" lon="-8.1617520">
        <ele>404.4</ele>
        <time>2021-07-26T06:33:07Z</time>
      </trkpt>
      <trkpt lat="42.9265940" lon="-8.1618390">
        <ele>404.4</ele>
        <time>2021-07-26T06:33:09Z</time>
      </trkpt>
      <trkpt lat="42.9265120" lon="-8.1620020">
        <ele>404.4</ele>
        <time>2021-07-26T06:33:13Z</time>
      </trkpt>
      <trkpt lat="42.9264450" lon="-8.1621640">
        <ele>404.4</ele>
        <time>2021-07-26T06:33:17Z</time>
      </trkpt>
      <trkpt lat="42.9264180" lon="-8.1622490">
        <ele>404.4</ele>
        <time>2021-07-26T06:33:19Z</time>
      </trkpt>
      <trkpt lat="42.9263580" lon="-8.1625140">
        <ele>404.4</ele>
        <time>2021-07-26T06:33:25Z</time>
      </trkpt>
      <trkpt lat="42.9263410" lon="-8.1625960">
        <ele>404.4</ele>
        <time>2021-07-26T06:33:27Z</time>
      </trkpt>
      <trkpt lat="42.9263050" lon="-8.1627580">
        <ele>404.4</ele>
        <time>2021-07-26T06:33:31Z</time>
      </trkpt>
      <trkpt lat="42.9262880" lon="-8.1628370">
        <ele>404.4</ele>
        <time>2021-07-26T06:33:33Z</time>
      </trkpt>
      <trkpt lat="42.9262630" lon="-8.1629490">
        <ele>404.4</ele>
        <time>2021-07-26T06:33:36Z</time>
      </trkpt>
      <trkpt lat="42.9262410" lon="-8.1631240">
        <ele>404.4</ele>
        <time>2021-07-26T06:33:41Z</time>
      </trkpt>
      <trkpt lat="42.9262400" lon="-8.1631880">
        <ele>404.4</ele>
        <time>2021-07-26T06:33:43Z</time>
      </trkpt>
      <trkpt lat="42.9262400" lon="-8.1632540">
        <ele>404.4</ele>
        <time>2021-07-26T06:33:45Z</time>
      </trkpt>
      <trkpt lat="42.9262350" lon="-8.1633520">
        <ele>404.4</ele>
        <time>2021-07-26T06:33:48Z</time>
      </trkpt>
      <trkpt lat="42.9262240" lon="-8.1634500">
        <ele>404.4</ele>
        <time>2021-07-26T06:33:51Z</time>
      </trkpt>
      <trkpt lat="42.9262090" lon="-8.1635060">
        <ele>404.4</ele>
        <time>2021-07-26T06:33:53Z</time>
      </trkpt>
      <trkpt lat="42.9262100" lon="-8.1635150">
        <ele>404.4</ele>
        <time>2021-07-26T06:33:57Z</time>
      </trkpt>
      <trkpt lat="42.9262390" lon="-8.1635610">
        <ele>402.6</ele>
        <time>2021-07-26T06:34:25Z</time>
      </trkpt>
      <trkpt lat="42.9262430" lon="-8.1635850">
        <ele>401.8</ele>
        <time>2021-07-26T06:34:26Z</time>
      </trkpt>
      <trkpt lat="42.9262510" lon="-8.1636110">
        <ele>400.8</ele>
        <time>2021-07-26T06:34:27Z</time>
      </trkpt>
      <trkpt lat="42.9262550" lon="-8.1636460">
        <ele>400.0</ele>
        <time>2021-07-26T06:34:28Z</time>
      </trkpt>
      <trkpt lat="42.9262510" lon="-8.1637340">
        <ele>400.0</ele>
        <time>2021-07-26T06:34:31Z</time>
      </trkpt>
      <trkpt lat="42.9262250" lon="-8.1639070">
        <ele>400.0</ele>
        <time>2021-07-26T06:34:38Z</time>
      </trkpt>
      <trkpt lat="42.9262260" lon="-8.1640640">
        <ele>399.6</ele>
        <time>2021-07-26T06:34:42Z</time>
      </trkpt>
      <trkpt lat="42.9262300" lon="-8.1641100">
        <ele>398.8</ele>
        <time>2021-07-26T06:34:43Z</time>
      </trkpt>
      <trkpt lat="42.9262320" lon="-8.1641600">
        <ele>398.2</ele>
        <time>2021-07-26T06:34:44Z</time>
      </trkpt>
      <trkpt lat="42.9262340" lon="-8.1642150">
        <ele>397.8</ele>
        <time>2021-07-26T06:34:45Z</time>
      </trkpt>
      <trkpt lat="42.9262660" lon="-8.1645860">
        <ele>397.4</ele>
        <time>2021-07-26T06:34:51Z</time>
      </trkpt>
      <trkpt lat="42.9262780" lon="-8.1646290">
        <ele>397.0</ele>
        <time>2021-07-26T06:34:52Z</time>
      </trkpt>
      <trkpt lat="42.9262970" lon="-8.1646690">
        <ele>396.4</ele>
        <time>2021-07-26T06:34:53Z</time>
      </trkpt>
      <trkpt lat="42.9263160" lon="-8.1647080">
        <ele>396.0</ele>
        <time>2021-07-26T06:34:54Z</time>
      </trkpt>
      <trkpt lat="42.9263410" lon="-8.1647470">
        <ele>395.6</ele>
        <time>2021-07-26T06:34:55Z</time>
      </trkpt>
      <trkpt lat="42.9263540" lon="-8.1647830">
        <ele>395.6</ele>
        <time>2021-07-26T06:34:56Z</time>
      </trkpt>
      <trkpt lat="42.9263790" lon="-8.1649450">
        <ele>395.2</ele>
        <time>2021-07-26T06:34:59Z</time>
      </trkpt>
      <trkpt lat="42.9263790" lon="-8.1649880">
        <ele>394.8</ele>
        <time>2021-07-26T06:35:00Z</time>
      </trkpt>
      <trkpt lat="42.9263760" lon="-8.1650330">
        <ele>394.4</ele>
        <time>2021-07-26T06:35:01Z</time>
      </trkpt>
      <trkpt lat="42.9263680" lon="-8.1650740">
        <ele>394.0</ele>
        <time>2021-07-26T06:35:02Z</time>
      </trkpt>
      <trkpt lat="42.9263610" lon="-8.1651080">
        <ele>393.6</ele>
        <time>2021-07-26T06:35:03Z</time>
      </trkpt>
      <trkpt lat="42.9263500" lon="-8.1652430">
        <ele>393.0</ele>
        <time>2021-07-26T06:35:07Z</time>
      </trkpt>
      <trkpt lat="42.9263480" lon="-8.1652860">
        <ele>392.6</ele>
        <time>2021-07-26T06:35:08Z</time>
      </trkpt>
      <trkpt lat="42.9263500" lon="-8.1653240">
        <ele>392.2</ele>
        <time>2021-07-26T06:35:09Z</time>
      </trkpt>
      <trkpt lat="42.9263480" lon="-8.1653600">
        <ele>391.8</ele>
        <time>2021-07-26T06:35:10Z</time>
      </trkpt>
      <trkpt lat="42.9263440" lon="-8.1653930">
        <ele>391.4</ele>
        <time>2021-07-26T06:35:11Z</time>
      </trkpt>
      <trkpt lat="42.9263100" lon="-8.1654930">
        <ele>391.4</ele>
        <time>2021-07-26T06:35:15Z</time>
      </trkpt>
      <trkpt lat="42.9262920" lon="-8.1655300">
        <ele>391.4</ele>
        <time>2021-07-26T06:35:19Z</time>
      </trkpt>
      <trkpt lat="42.9262850" lon="-8.1655320">
        <ele>389.2</ele>
        <time>2021-07-26T06:37:10Z</time>
      </trkpt>
      <trkpt lat="42.9263570" lon="-8.1656340">
        <ele>389.2</ele>
        <time>2021-07-26T06:37:13Z</time>
      </trkpt>
      <trkpt lat="42.9263650" lon="-8.1656730">
        <ele>388.8</ele>
        <time>2021-07-26T06:37:14Z</time>
      </trkpt>
      <trkpt lat="42.9263790" lon="-8.1657120">
        <ele>388.4</ele>
        <time>2021-07-26T06:37:15Z</time>
      </trkpt>
      <trkpt lat="42.9263960" lon="-8.1657500">
        <ele>388.0</ele>
        <time>2021-07-26T06:37:16Z</time>
      </trkpt>
      <trkpt lat="42.9264170" lon="-8.1658020">
        <ele>387.6</ele>
        <time>2021-07-26T06:37:17Z</time>
      </trkpt>
      <trkpt lat="42.9264350" lon="-8.1658500">
        <ele>387.2</ele>
        <time>2021-07-26T06:37:18Z</time>
      </trkpt>
      <trkpt lat="42.9264490" lon="-8.1658880">
        <ele>386.8</ele>
        <time>2021-07-26T06:37:19Z</time>
      </trkpt>
      <trkpt lat="42.9264670" lon="-8.1659320">
        <ele>386.2</ele>
        <time>2021-07-26T06:37:20Z</time>
      </trkpt>
      <trkpt lat="42.9264850" lon="-8.1659720">
        <ele>385.8</ele>
        <time>2021-07-26T06:37:21Z</time>
      </trkpt>
      <trkpt lat="42.9265030" lon="-8.1660030">
        <ele>385.4</ele>
        <time>2021-07-26T06:37:22Z</time>
      </trkpt>
      <trkpt lat="42.9265200" lon="-8.1660380">
        <ele>385.0</ele>
        <time>2021-07-26T06:37:23Z</time>
      </trkpt>
      <trkpt lat="42.9265420" lon="-8.1660630">
        <ele>385.0</ele>
        <time>2021-07-26T06:37:24Z</time>
      </trkpt>
      <trkpt lat="42.9265680" lon="-8.1661170">
        <ele>384.4</ele>
        <time>2021-07-26T06:37:26Z</time>
      </trkpt>
      <trkpt lat="42.9265770" lon="-8.1661420">
        <ele>384.0</ele>
        <time>2021-07-26T06:37:27Z</time>
      </trkpt>
      <trkpt lat="42.9265900" lon="-8.1661620">
        <ele>383.6</ele>
        <time>2021-07-26T06:37:28Z</time>
      </trkpt>
      <trkpt lat="42.9266010" lon="-8.1661820">
        <ele>383.2</ele>
        <time>2021-07-26T06:37:29Z</time>
      </trkpt>
      <trkpt lat="42.9266080" lon="-8.1661990">
        <ele>382.6</ele>
        <time>2021-07-26T06:37:30Z</time>
      </trkpt>
      <trkpt lat="42.9266820" lon="-8.1664080">
        <ele>382.2</ele>
        <time>2021-07-26T06:37:37Z</time>
      </trkpt>
      <trkpt lat="42.9267030" lon="-8.1664690">
        <ele>381.8</ele>
        <time>2021-07-26T06:37:38Z</time>
      </trkpt>
      <trkpt lat="42.9267200" lon="-8.1665320">
        <ele>381.4</ele>
        <time>2021-07-26T06:37:39Z</time>
      </trkpt>
      <trkpt lat="42.9267360" lon="-8.1665890">
        <ele>381.0</ele>
        <time>2021-07-26T06:37:40Z</time>
      </trkpt>
      <trkpt lat="42.9267470" lon="-8.1666480">
        <ele>380.6</ele>
        <time>2021-07-26T06:37:41Z</time>
      </trkpt>
      <trkpt lat="42.9267730" lon="-8.1667660">
        <ele>380.2</ele>
        <time>2021-07-26T06:37:43Z</time>
      </trkpt>
      <trkpt lat="42.9267840" lon="-8.1668240">
        <ele>379.8</ele>
        <time>2021-07-26T06:37:44Z</time>
      </trkpt>
      <trkpt lat="42.9267930" lon="-8.1668840">
        <ele>379.4</ele>
        <time>2021-07-26T06:37:45Z</time>
      </trkpt>
      <trkpt lat="42.9267970" lon="-8.1669440">
        <ele>379.0</ele>
        <time>2021-07-26T06:37:46Z</time>
      </trkpt>
      <trkpt lat="42.9267980" lon="-8.1670090">
        <ele>378.4</ele>
        <time>2021-07-26T06:37:47Z</time>
      </trkpt>
      <trkpt lat="42.9268090" lon="-8.1671300">
        <ele>378.4</ele>
        <time>2021-07-26T06:37:49Z</time>
      </trkpt>
      <trkpt lat="42.9268070" lon="-8.1671870">
        <ele>378.0</ele>
        <time>2021-07-26T06:37:50Z</time>
      </trkpt>
      <trkpt lat="42.9268030" lon="-8.1672450">
        <ele>377.6</ele>
        <time>2021-07-26T06:37:51Z</time>
      </trkpt>
      <trkpt lat="42.9268010" lon="-8.1672990">
        <ele>377.2</ele>
        <time>2021-07-26T06:37:52Z</time>
      </trkpt>
      <trkpt lat="42.9268000" lon="-8.1673670">
        <ele>376.6</ele>
        <time>2021-07-26T06:37:53Z</time>
      </trkpt>
      <trkpt lat="42.9268000" lon="-8.1674240">
        <ele>376.2</ele>
        <time>2021-07-26T06:37:54Z</time>
      </trkpt>
      <trkpt lat="42.9267920" lon="-8.1674780">
        <ele>375.8</ele>
        <time>2021-07-26T06:37:55Z</time>
      </trkpt>
      <trkpt lat="42.9267930" lon="-8.1675320">
        <ele>375.4</ele>
        <time>2021-07-26T06:37:56Z</time>
      </trkpt>
      <trkpt lat="42.9267950" lon="-8.1675780">
        <ele>375.0</ele>
        <time>2021-07-26T06:37:57Z</time>
      </trkpt>
      <trkpt lat="42.9267930" lon="-8.1676270">
        <ele>374.4</ele>
        <time>2021-07-26T06:37:58Z</time>
      </trkpt>
      <trkpt lat="42.9267940" lon="-8.1676800">
        <ele>374.0</ele>
        <time>2021-07-26T06:37:59Z</time>
      </trkpt>
      <trkpt lat="42.9267910" lon="-8.1677430">
        <ele>373.2</ele>
        <time>2021-07-26T06:38:00Z</time>
      </trkpt>
      <trkpt lat="42.9267910" lon="-8.1677980">
        <ele>372.8</ele>
        <time>2021-07-26T06:38:01Z</time>
      </trkpt>
      <trkpt lat="42.9267930" lon="-8.1678510">
        <ele>372.4</ele>
        <time>2021-07-26T06:38:02Z</time>
      </trkpt>
      <trkpt lat="42.9267950" lon="-8.1679110">
        <ele>372.0</ele>
        <time>2021-07-26T06:38:03Z</time>
      </trkpt>
      <trkpt lat="42.9267970" lon="-8.1679710">
        <ele>371.4</ele>
        <time>2021-07-26T06:38:04Z</time>
      </trkpt>
      <trkpt lat="42.9268010" lon="-8.1680390">
        <ele>371.0</ele>
        <time>2021-07-26T06:38:05Z</time>
      </trkpt>
      <trkpt lat="42.9268090" lon="-8.1681060">
        <ele>370.4</ele>
        <time>2021-07-26T06:38:06Z</time>
      </trkpt>
      <trkpt lat="42.9268210" lon="-8.1681740">
        <ele>370.0</ele>
        <time>2021-07-26T06:38:07Z</time>
      </trkpt>
      <trkpt lat="42.9268320" lon="-8.1682410">
        <ele>369.4</ele>
        <time>2021-07-26T06:38:08Z</time>
      </trkpt>
      <trkpt lat="42.9268460" lon="-8.1683090">
        <ele>368.8</ele>
        <time>2021-07-26T06:38:09Z</time>
      </trkpt>
      <trkpt lat="42.9268650" lon="-8.1683750">
        <ele>368.4</ele>
        <time>2021-07-26T06:38:10Z</time>
      </trkpt>
      <trkpt lat="42.9268830" lon="-8.1684410">
        <ele>367.8</ele>
        <time>2021-07-26T06:38:11Z</time>
      </trkpt>
      <trkpt lat="42.9268960" lon="-8.1685100">
        <ele>367.0</ele>
        <time>2021-07-26T06:38:12Z</time>
      </trkpt>
      <trkpt lat="42.9269070" lon="-8.1685800">
        <ele>366.4</ele>
        <time>2021-07-26T06:38:13Z</time>
      </trkpt>
      <trkpt lat="42.9269200" lon="-8.1686490">
        <ele>365.8</ele>
        <time>2021-07-26T06:38:14Z</time>
      </trkpt>
      <trkpt lat="42.9269350" lon="-8.1687200">
        <ele>365.2</ele>
        <time>2021-07-26T06:38:15Z</time>
      </trkpt>
      <trkpt lat="42.9269470" lon="-8.1687860">
        <ele>364.6</ele>
        <time>2021-07-26T06:38:16Z</time>
      </trkpt>
      <trkpt lat="42.9269620" lon="-8.1688580">
        <ele>364.0</ele>
        <time>2021-07-26T06:38:17Z</time>
      </trkpt>
      <trkpt lat="42.9269750" lon="-8.1689270">
        <ele>363.4</ele>
        <time>2021-07-26T06:38:18Z</time>
      </trkpt>
      <trkpt lat="42.9269880" lon="-8.1690000">
        <ele>362.8</ele>
        <time>2021-07-26T06:38:19Z</time>
      </trkpt>
      <trkpt lat="42.9270010" lon="-8.1690730">
        <ele>362.0</ele>
        <time>2021-07-26T06:38:20Z</time>
      </trkpt>
      <trkpt lat="42.9270160" lon="-8.1691460">
        <ele>361.4</ele>
        <time>2021-07-26T06:38:21Z</time>
      </trkpt>
      <trkpt lat="42.9270290" lon="-8.1692170">
        <ele>360.8</ele>
        <time>2021-07-26T06:38:22Z</time>
      </trkpt>
      <trkpt lat="42.9270410" lon="-8.1692800">
        <ele>360.2</ele>
        <time>2021-07-26T06:38:23Z</time>
      </trkpt>
      <trkpt lat="42.9270520" lon="-8.1693250">
        <ele>359.6</ele>
        <time>2021-07-26T06:38:24Z</time>
      </trkpt>
      <trkpt lat="42.9270650" lon="-8.1693790">
        <ele>358.2</ele>
        <time>2021-07-26T06:38:25Z</time>
      </trkpt>
      <trkpt lat="42.9270710" lon="-8.1694310">
        <ele>357.4</ele>
        <time>2021-07-26T06:38:26Z</time>
      </trkpt>
      <trkpt lat="42.9270810" lon="-8.1694900">
        <ele>356.6</ele>
        <time>2021-07-26T06:38:27Z</time>
      </trkpt>
      <trkpt lat="42.9270930" lon="-8.1695470">
        <ele>355.8</ele>
        <time>2021-07-26T06:38:28Z</time>
      </trkpt>
      <trkpt lat="42.9271040" lon="-8.1695990">
        <ele>355.4</ele>
        <time>2021-07-26T06:38:29Z</time>
      </trkpt>
      <trkpt lat="42.9271150" lon="-8.1696480">
        <ele>355.0</ele>
        <time>2021-07-26T06:38:30Z</time>
      </trkpt>
      <trkpt lat="42.9271210" lon="-8.1696930">
        <ele>354.6</ele>
        <time>2021-07-26T06:38:31Z</time>
      </trkpt>
      <trkpt lat="42.9271270" lon="-8.1697340">
        <ele>354.2</ele>
        <time>2021-07-26T06:38:32Z</time>
      </trkpt>
      <trkpt lat="42.9271330" lon="-8.1697720">
        <ele>353.8</ele>
        <time>2021-07-26T06:38:33Z</time>
      </trkpt>
      <trkpt lat="42.9271380" lon="-8.1698130">
        <ele>353.4</ele>
        <time>2021-07-26T06:38:34Z</time>
      </trkpt>
      <trkpt lat="42.9271410" lon="-8.1698640">
        <ele>353.0</ele>
        <time>2021-07-26T06:38:35Z</time>
      </trkpt>
      <trkpt lat="42.9271440" lon="-8.1699120">
        <ele>352.6</ele>
        <time>2021-07-26T06:38:36Z</time>
      </trkpt>
      <trkpt lat="42.9271490" lon="-8.1699550">
        <ele>352.2</ele>
        <time>2021-07-26T06:38:37Z</time>
      </trkpt>
      <trkpt lat="42.9271500" lon="-8.1699870">
        <ele>351.8</ele>
        <time>2021-07-26T06:38:38Z</time>
      </trkpt>
      <trkpt lat="42.9271500" lon="-8.1700250">
        <ele>351.8</ele>
        <time>2021-07-26T06:38:39Z</time>
      </trkpt>
      <trkpt lat="42.9271200" lon="-8.1702170">
        <ele>351.4</ele>
        <time>2021-07-26T06:38:43Z</time>
      </trkpt>
      <trkpt lat="42.9271110" lon="-8.1702700">
        <ele>351.0</ele>
        <time>2021-07-26T06:38:44Z</time>
      </trkpt>
      <trkpt lat="42.9271000" lon="-8.1703240">
        <ele>350.6</ele>
        <time>2021-07-26T06:38:45Z</time>
      </trkpt>
      <trkpt lat="42.9270920" lon="-8.1703800">
        <ele>350.0</ele>
        <time>2021-07-26T06:38:46Z</time>
      </trkpt>
      <trkpt lat="42.9270850" lon="-8.1704360">
        <ele>349.6</ele>
        <time>2021-07-26T06:38:47Z</time>
      </trkpt>
      <trkpt lat="42.9270530" lon="-8.1706980">
        <ele>349.6</ele>
        <time>2021-07-26T06:38:51Z</time>
      </trkpt>
      <trkpt lat="42.9270460" lon="-8.1707630">
        <ele>349.6</ele>
        <time>2021-07-26T06:38:52Z</time>
      </trkpt>
      <trkpt lat="42.9270500" lon="-8.1709100">
        <ele>349.6</ele>
        <time>2021-07-26T06:38:55Z</time>
      </trkpt>
      <trkpt lat="42.9270620" lon="-8.1710030">
        <ele>349.6</ele>
        <time>2021-07-26T06:38:57Z</time>
      </trkpt>
      <trkpt lat="42.9270650" lon="-8.1710490">
        <ele>349.6</ele>
        <time>2021-07-26T06:38:58Z</time>
      </trkpt>
      <trkpt lat="42.9270700" lon="-8.1711340">
        <ele>349.6</ele>
        <time>2021-07-26T06:39:00Z</time>
      </trkpt>
      <trkpt lat="42.9270670" lon="-8.1712040">
        <ele>349.6</ele>
        <time>2021-07-26T06:39:02Z</time>
      </trkpt>
      <trkpt lat="42.9270670" lon="-8.1712370">
        <ele>349.6</ele>
        <time>2021-07-26T06:39:03Z</time>
      </trkpt>
      <trkpt lat="42.9270630" lon="-8.1713100">
        <ele>349.6</ele>
        <time>2021-07-26T06:39:05Z</time>
      </trkpt>
      <trkpt lat="42.9270610" lon="-8.1713920">
        <ele>349.6</ele>
        <time>2021-07-26T06:39:07Z</time>
      </trkpt>
      <trkpt lat="42.9270490" lon="-8.1714990">
        <ele>349.6</ele>
        <time>2021-07-26T06:39:10Z</time>
      </trkpt>
      <trkpt lat="42.9270410" lon="-8.1715220">
        <ele>349.6</ele>
        <time>2021-07-26T06:39:11Z</time>
      </trkpt>
      <trkpt lat="42.9270400" lon="-8.1716100">
        <ele>350.4</ele>
        <time>2021-07-26T06:39:14Z</time>
      </trkpt>
      <trkpt lat="42.9270420" lon="-8.1716350">
        <ele>350.8</ele>
        <time>2021-07-26T06:39:15Z</time>
      </trkpt>
      <trkpt lat="42.9270450" lon="-8.1716570">
        <ele>351.2</ele>
        <time>2021-07-26T06:39:16Z</time>
      </trkpt>
      <trkpt lat="42.9270520" lon="-8.1716780">
        <ele>351.8</ele>
        <time>2021-07-26T06:39:17Z</time>
      </trkpt>
      <trkpt lat="42.9270490" lon="-8.1717590">
        <ele>351.8</ele>
        <time>2021-07-26T06:39:21Z</time>
      </trkpt>
      <trkpt lat="42.9270510" lon="-8.1718000">
        <ele>352.2</ele>
        <time>2021-07-26T06:39:24Z</time>
      </trkpt>
      <trkpt lat="42.9270550" lon="-8.1718200">
        <ele>352.6</ele>
        <time>2021-07-26T06:39:25Z</time>
      </trkpt>
      <trkpt lat="42.9270520" lon="-8.1718520">
        <ele>353.0</ele>
        <time>2021-07-26T06:39:26Z</time>
      </trkpt>
      <trkpt lat="42.9270560" lon="-8.1718780">
        <ele>353.6</ele>
        <time>2021-07-26T06:39:27Z</time>
      </trkpt>
      <trkpt lat="42.9270640" lon="-8.1719000">
        <ele>354.0</ele>
        <time>2021-07-26T06:39:28Z</time>
      </trkpt>
      <trkpt lat="42.9270870" lon="-8.1719660">
        <ele>354.0</ele>
        <time>2021-07-26T06:39:30Z</time>
      </trkpt>
      <trkpt lat="42.9270960" lon="-8.1720150">
        <ele>354.4</ele>
        <time>2021-07-26T06:39:33Z</time>
      </trkpt>
      <trkpt lat="42.9271040" lon="-8.1720310">
        <ele>354.8</ele>
        <time>2021-07-26T06:39:34Z</time>
      </trkpt>
      <trkpt lat="42.9271060" lon="-8.1720450">
        <ele>355.2</ele>
        <time>2021-07-26T06:39:35Z</time>
      </trkpt>
      <trkpt lat="42.9271030" lon="-8.1720630">
        <ele>355.6</ele>
        <time>2021-07-26T06:39:36Z</time>
      </trkpt>
      <trkpt lat="42.9271050" lon="-8.1720840">
        <ele>356.0</ele>
        <time>2021-07-26T06:39:37Z</time>
      </trkpt>
      <trkpt lat="42.9271090" lon="-8.1721070">
        <ele>356.0</ele>
        <time>2021-07-26T06:39:38Z</time>
      </trkpt>
      <trkpt lat="42.9271340" lon="-8.1721810">
        <ele>356.4</ele>
        <time>2021-07-26T06:39:42Z</time>
      </trkpt>
      <trkpt lat="42.9271440" lon="-8.1722100">
        <ele>356.8</ele>
        <time>2021-07-26T06:39:43Z</time>
      </trkpt>
      <trkpt lat="42.9271680" lon="-8.1722340">
        <ele>357.2</ele>
        <time>2021-07-26T06:39:44Z</time>
      </trkpt>
      <trkpt lat="42.9271830" lon="-8.1722600">
        <ele>357.6</ele>
        <time>2021-07-26T06:39:45Z</time>
      </trkpt>
      <trkpt lat="42.9271940" lon="-8.1722830">
        <ele>358.0</ele>
        <time>2021-07-26T06:39:46Z</time>
      </trkpt>
      <trkpt lat="42.9272500" lon="-8.1724880">
        <ele>358.0</ele>
        <time>2021-07-26T06:39:53Z</time>
      </trkpt>
      <trkpt lat="42.9272540" lon="-8.1725140">
        <ele>358.0</ele>
        <time>2021-07-26T06:39:54Z</time>
      </trkpt>
      <trkpt lat="42.9272640" lon="-8.1725470">
        <ele>358.4</ele>
        <time>2021-07-26T06:39:56Z</time>
      </trkpt>
      <trkpt lat="42.9272680" lon="-8.1725680">
        <ele>359.0</ele>
        <time>2021-07-26T06:39:57Z</time>
      </trkpt>
      <trkpt lat="42.9272700" lon="-8.1725850">
        <ele>359.4</ele>
        <time>2021-07-26T06:39:58Z</time>
      </trkpt>
      <trkpt lat="42.9272740" lon="-8.1726070">
        <ele>359.8</ele>
        <time>2021-07-26T06:39:59Z</time>
      </trkpt>
      <trkpt lat="42.9272800" lon="-8.1726390">
        <ele>360.2</ele>
        <time>2021-07-26T06:40:00Z</time>
      </trkpt>
      <trkpt lat="42.9272960" lon="-8.1726950">
        <ele>360.2</ele>
        <time>2021-07-26T06:40:02Z</time>
      </trkpt>
      <trkpt lat="42.9273140" lon="-8.1727730">
        <ele>360.2</ele>
        <time>2021-07-26T06:40:05Z</time>
      </trkpt>
      <trkpt lat="42.9273420" lon="-8.1729020">
        <ele>360.2</ele>
        <time>2021-07-26T06:40:10Z</time>
      </trkpt>
      <trkpt lat="42.9273540" lon="-8.1729440">
        <ele>360.6</ele>
        <time>2021-07-26T06:40:12Z</time>
      </trkpt>
      <trkpt lat="42.9273570" lon="-8.1729560">
        <ele>361.0</ele>
        <time>2021-07-26T06:40:13Z</time>
      </trkpt>
      <trkpt lat="42.9273580" lon="-8.1729670">
        <ele>361.4</ele>
        <time>2021-07-26T06:40:14Z</time>
      </trkpt>
      <trkpt lat="42.9273750" lon="-8.1730160">
        <ele>361.8</ele>
        <time>2021-07-26T06:40:15Z</time>
      </trkpt>
      <trkpt lat="42.9273890" lon="-8.1730450">
        <ele>362.2</ele>
        <time>2021-07-26T06:40:16Z</time>
      </trkpt>
      <trkpt lat="42.9274490" lon="-8.1732180">
        <ele>362.2</ele>
        <time>2021-07-26T06:40:24Z</time>
      </trkpt>
      <trkpt lat="42.9274950" lon="-8.1733340">
        <ele>362.6</ele>
        <time>2021-07-26T06:40:28Z</time>
      </trkpt>
      <trkpt lat="42.9275110" lon="-8.1733670">
        <ele>363.0</ele>
        <time>2021-07-26T06:40:29Z</time>
      </trkpt>
      <trkpt lat="42.9275220" lon="-8.1734000">
        <ele>363.4</ele>
        <time>2021-07-26T06:40:30Z</time>
      </trkpt>
      <trkpt lat="42.9275280" lon="-8.1734330">
        <ele>363.8</ele>
        <time>2021-07-26T06:40:31Z</time>
      </trkpt>
      <trkpt lat="42.9275290" lon="-8.1734650">
        <ele>364.2</ele>
        <time>2021-07-26T06:40:32Z</time>
      </trkpt>
      <trkpt lat="42.9275080" lon="-8.1735250">
        <ele>364.2</ele>
        <time>2021-07-26T06:40:35Z</time>
      </trkpt>
      <trkpt lat="42.9274900" lon="-8.1735570">
        <ele>364.2</ele>
        <time>2021-07-26T06:40:36Z</time>
      </trkpt>
      <trkpt lat="42.9274270" lon="-8.1737000">
        <ele>364.2</ele>
        <time>2021-07-26T06:40:41Z</time>
      </trkpt>
      <trkpt lat="42.9273950" lon="-8.1737590">
        <ele>364.2</ele>
        <time>2021-07-26T06:40:43Z</time>
      </trkpt>
      <trkpt lat="42.9273020" lon="-8.1738960">
        <ele>364.2</ele>
        <time>2021-07-26T06:40:47Z</time>
      </trkpt>
      <trkpt lat="42.9272170" lon="-8.1739910">
        <ele>364.2</ele>
        <time>2021-07-26T06:40:50Z</time>
      </trkpt>
      <trkpt lat="42.9271450" lon="-8.1740340">
        <ele>364.2</ele>
        <time>2021-07-26T06:40:52Z</time>
      </trkpt>
      <trkpt lat="42.9270400" lon="-8.1740810">
        <ele>364.2</ele>
        <time>2021-07-26T06:40:54Z</time>
      </trkpt>
      <trkpt lat="42.9269990" lon="-8.1740930">
        <ele>364.2</ele>
        <time>2021-07-26T06:40:55Z</time>
      </trkpt>
      <trkpt lat="42.9269060" lon="-8.1741130">
        <ele>364.2</ele>
        <time>2021-07-26T06:40:57Z</time>
      </trkpt>
      <trkpt lat="42.9268720" lon="-8.1741210">
        <ele>363.8</ele>
        <time>2021-07-26T06:40:58Z</time>
      </trkpt>
      <trkpt lat="42.9268250" lon="-8.1741150">
        <ele>363.4</ele>
        <time>2021-07-26T06:40:59Z</time>
      </trkpt>
      <trkpt lat="42.9267880" lon="-8.1741190">
        <ele>363.0</ele>
        <time>2021-07-26T06:41:00Z</time>
      </trkpt>
      <trkpt lat="42.9267540" lon="-8.1741290">
        <ele>362.6</ele>
        <time>2021-07-26T06:41:01Z</time>
      </trkpt>
      <trkpt lat="42.9267150" lon="-8.1741390">
        <ele>362.2</ele>
        <time>2021-07-26T06:41:02Z</time>
      </trkpt>
      <trkpt lat="42.9266760" lon="-8.1741510">
        <ele>362.2</ele>
        <time>2021-07-26T06:41:03Z</time>
      </trkpt>
      <trkpt lat="42.9264480" lon="-8.1742860">
        <ele>362.2</ele>
        <time>2021-07-26T06:41:09Z</time>
      </trkpt>
      <trkpt lat="42.9263240" lon="-8.1745130">
        <ele>362.2</ele>
        <time>2021-07-26T06:41:15Z</time>
      </trkpt>
      <trkpt lat="42.9262540" lon="-8.1747150">
        <ele>362.2</ele>
        <time>2021-07-26T06:41:21Z</time>
      </trkpt>
      <trkpt lat="42.9262450" lon="-8.1747750">
        <ele>362.2</ele>
        <time>2021-07-26T06:41:23Z</time>
      </trkpt>
      <trkpt lat="42.9262260" lon="-8.1749030">
        <ele>361.8</ele>
        <time>2021-07-26T06:41:27Z</time>
      </trkpt>
      <trkpt lat="42.9262130" lon="-8.1749450">
        <ele>361.4</ele>
        <time>2021-07-26T06:41:28Z</time>
      </trkpt>
      <trkpt lat="42.9261970" lon="-8.1749930">
        <ele>361.0</ele>
        <time>2021-07-26T06:41:29Z</time>
      </trkpt>
      <trkpt lat="42.9261790" lon="-8.1750460">
        <ele>360.6</ele>
        <time>2021-07-26T06:41:30Z</time>
      </trkpt>
      <trkpt lat="42.9261620" lon="-8.1750960">
        <ele>360.2</ele>
        <time>2021-07-26T06:41:31Z</time>
      </trkpt>
      <trkpt lat="42.9261450" lon="-8.1751480">
        <ele>360.2</ele>
        <time>2021-07-26T06:41:32Z</time>
      </trkpt>
      <trkpt lat="42.9260470" lon="-8.1754260">
        <ele>360.2</ele>
        <time>2021-07-26T06:41:37Z</time>
      </trkpt>
      <trkpt lat="42.9260280" lon="-8.1754810">
        <ele>360.2</ele>
        <time>2021-07-26T06:41:38Z</time>
      </trkpt>
      <trkpt lat="42.9259640" lon="-8.1756390">
        <ele>360.2</ele>
        <time>2021-07-26T06:41:41Z</time>
      </trkpt>
      <trkpt lat="42.9259360" lon="-8.1756980">
        <ele>359.8</ele>
        <time>2021-07-26T06:41:42Z</time>
      </trkpt>
      <trkpt lat="42.9259020" lon="-8.1757690">
        <ele>359.4</ele>
        <time>2021-07-26T06:41:43Z</time>
      </trkpt>
      <trkpt lat="42.9258670" lon="-8.1758380">
        <ele>358.6</ele>
        <time>2021-07-26T06:41:44Z</time>
      </trkpt>
      <trkpt lat="42.9258360" lon="-8.1759210">
        <ele>358.0</ele>
        <time>2021-07-26T06:41:45Z</time>
      </trkpt>
      <trkpt lat="42.9257600" lon="-8.1761630">
        <ele>357.6</ele>
        <time>2021-07-26T06:41:48Z</time>
      </trkpt>
      <trkpt lat="42.9257360" lon="-8.1762360">
        <ele>357.2</ele>
        <time>2021-07-26T06:41:49Z</time>
      </trkpt>
      <trkpt lat="42.9257160" lon="-8.1763050">
        <ele>356.8</ele>
        <time>2021-07-26T06:41:50Z</time>
      </trkpt>
      <trkpt lat="42.9256950" lon="-8.1763710">
        <ele>356.2</ele>
        <time>2021-07-26T06:41:51Z</time>
      </trkpt>
      <trkpt lat="42.9256720" lon="-8.1764300">
        <ele>355.8</ele>
        <time>2021-07-26T06:41:52Z</time>
      </trkpt>
      <trkpt lat="42.9256500" lon="-8.1764820">
        <ele>355.2</ele>
        <time>2021-07-26T06:41:53Z</time>
      </trkpt>
      <trkpt lat="42.9256270" lon="-8.1765320">
        <ele>354.6</ele>
        <time>2021-07-26T06:41:54Z</time>
      </trkpt>
      <trkpt lat="42.9256040" lon="-8.1765850">
        <ele>354.2</ele>
        <time>2021-07-26T06:41:55Z</time>
      </trkpt>
      <trkpt lat="42.9255810" lon="-8.1766410">
        <ele>353.6</ele>
        <time>2021-07-26T06:41:56Z</time>
      </trkpt>
      <trkpt lat="42.9255550" lon="-8.1767500">
        <ele>353.2</ele>
        <time>2021-07-26T06:41:58Z</time>
      </trkpt>
      <trkpt lat="42.9255460" lon="-8.1767960">
        <ele>352.8</ele>
        <time>2021-07-26T06:41:59Z</time>
      </trkpt>
      <trkpt lat="42.9255360" lon="-8.1768410">
        <ele>352.2</ele>
        <time>2021-07-26T06:42:00Z</time>
      </trkpt>
      <trkpt lat="42.9255260" lon="-8.1768810">
        <ele>351.8</ele>
        <time>2021-07-26T06:42:01Z</time>
      </trkpt>
      <trkpt lat="42.9255130" lon="-8.1769210">
        <ele>351.4</ele>
        <time>2021-07-26T06:42:02Z</time>
      </trkpt>
      <trkpt lat="42.9254530" lon="-8.1771020">
        <ele>351.0</ele>
        <time>2021-07-26T06:42:06Z</time>
      </trkpt>
      <trkpt lat="42.9254350" lon="-8.1771490">
        <ele>350.6</ele>
        <time>2021-07-26T06:42:07Z</time>
      </trkpt>
      <trkpt lat="42.9254210" lon="-8.1771890">
        <ele>350.2</ele>
        <time>2021-07-26T06:42:08Z</time>
      </trkpt>
      <trkpt lat="42.9254060" lon="-8.1772290">
        <ele>349.4</ele>
        <time>2021-07-26T06:42:09Z</time>
      </trkpt>
      <trkpt lat="42.9253370" lon="-8.1774450">
        <ele>349.4</ele>
        <time>2021-07-26T06:42:14Z</time>
      </trkpt>
      <trkpt lat="42.9253280" lon="-8.1775040">
        <ele>349.0</ele>
        <time>2021-07-26T06:42:15Z</time>
      </trkpt>
      <trkpt lat="42.9253180" lon="-8.1775620">
        <ele>348.4</ele>
        <time>2021-07-26T06:42:16Z</time>
      </trkpt>
      <trkpt lat="42.9253080" lon="-8.1776190">
        <ele>348.0</ele>
        <time>2021-07-26T06:42:17Z</time>
      </trkpt>
      <trkpt lat="42.9252960" lon="-8.1776780">
        <ele>347.6</ele>
        <time>2021-07-26T06:42:18Z</time>
      </trkpt>
      <trkpt lat="42.9252850" lon="-8.1777440">
        <ele>347.2</ele>
        <time>2021-07-26T06:42:19Z</time>
      </trkpt>
      <trkpt lat="42.9252750" lon="-8.1778210">
        <ele>346.8</ele>
        <time>2021-07-26T06:42:20Z</time>
      </trkpt>
      <trkpt lat="42.9252670" lon="-8.1779040">
        <ele>346.2</ele>
        <time>2021-07-26T06:42:21Z</time>
      </trkpt>
      <trkpt lat="42.9252670" lon="-8.1779940">
        <ele>345.8</ele>
        <time>2021-07-26T06:42:22Z</time>
      </trkpt>
      <trkpt lat="42.9252650" lon="-8.1780820">
        <ele>345.2</ele>
        <time>2021-07-26T06:42:23Z</time>
      </trkpt>
      <trkpt lat="42.9252660" lon="-8.1781630">
        <ele>344.6</ele>
        <time>2021-07-26T06:42:24Z</time>
      </trkpt>
      <trkpt lat="42.9252680" lon="-8.1782480">
        <ele>344.0</ele>
        <time>2021-07-26T06:42:25Z</time>
      </trkpt>
      <trkpt lat="42.9252670" lon="-8.1783340">
        <ele>343.4</ele>
        <time>2021-07-26T06:42:26Z</time>
      </trkpt>
      <trkpt lat="42.9252650" lon="-8.1784250">
        <ele>342.8</ele>
        <time>2021-07-26T06:42:27Z</time>
      </trkpt>
      <trkpt lat="42.9252740" lon="-8.1785370">
        <ele>342.2</ele>
        <time>2021-07-26T06:42:28Z</time>
      </trkpt>
      <trkpt lat="42.9252850" lon="-8.1786520">
        <ele>341.4</ele>
        <time>2021-07-26T06:42:29Z</time>
      </trkpt>
      <trkpt lat="42.9252920" lon="-8.1787610">
        <ele>340.8</ele>
        <time>2021-07-26T06:42:30Z</time>
      </trkpt>
      <trkpt lat="42.9252980" lon="-8.1788630">
        <ele>340.0</ele>
        <time>2021-07-26T06:42:31Z</time>
      </trkpt>
      <trkpt lat="42.9253060" lon="-8.1789650">
        <ele>339.4</ele>
        <time>2021-07-26T06:42:32Z</time>
      </trkpt>
      <trkpt lat="42.9253170" lon="-8.1790630">
        <ele>338.0</ele>
        <time>2021-07-26T06:42:33Z</time>
      </trkpt>
      <trkpt lat="42.9253320" lon="-8.1791520">
        <ele>337.4</ele>
        <time>2021-07-26T06:42:34Z</time>
      </trkpt>
      <trkpt lat="42.9253500" lon="-8.1792360">
        <ele>336.8</ele>
        <time>2021-07-26T06:42:35Z</time>
      </trkpt>
      <trkpt lat="42.9253680" lon="-8.1793140">
        <ele>336.0</ele>
        <time>2021-07-26T06:42:36Z</time>
      </trkpt>
      <trkpt lat="42.9253900" lon="-8.1793970">
        <ele>335.4</ele>
        <time>2021-07-26T06:42:37Z</time>
      </trkpt>
      <trkpt lat="42.9254140" lon="-8.1794780">
        <ele>334.8</ele>
        <time>2021-07-26T06:42:38Z</time>
      </trkpt>
      <trkpt lat="42.9254420" lon="-8.1795580">
        <ele>334.0</ele>
        <time>2021-07-26T06:42:39Z</time>
      </trkpt>
      <trkpt lat="42.9254710" lon="-8.1796380">
        <ele>333.4</ele>
        <time>2021-07-26T06:42:40Z</time>
      </trkpt>
      <trkpt lat="42.9254970" lon="-8.1797170">
        <ele>333.0</ele>
        <time>2021-07-26T06:42:41Z</time>
      </trkpt>
      <trkpt lat="42.9255250" lon="-8.1797970">
        <ele>332.4</ele>
        <time>2021-07-26T06:42:42Z</time>
      </trkpt>
      <trkpt lat="42.9255530" lon="-8.1798710">
        <ele>332.0</ele>
        <time>2021-07-26T06:42:43Z</time>
      </trkpt>
      <trkpt lat="42.9255810" lon="-8.1799440">
        <ele>331.4</ele>
        <time>2021-07-26T06:42:44Z</time>
      </trkpt>
      <trkpt lat="42.9256100" lon="-8.1800190">
        <ele>330.8</ele>
        <time>2021-07-26T06:42:45Z</time>
      </trkpt>
      <trkpt lat="42.9256310" lon="-8.1800910">
        <ele>330.2</ele>
        <time>2021-07-26T06:42:46Z</time>
      </trkpt>
      <trkpt lat="42.9256430" lon="-8.1801580">
        <ele>329.6</ele>
        <time>2021-07-26T06:42:47Z</time>
      </trkpt>
      <trkpt lat="42.9256440" lon="-8.1802190">
        <ele>329.0</ele>
        <time>2021-07-26T06:42:48Z</time>
      </trkpt>
      <trkpt lat="42.9256350" lon="-8.1802700">
        <ele>328.4</ele>
        <time>2021-07-26T06:42:49Z</time>
      </trkpt>
      <trkpt lat="42.9256180" lon="-8.1803140">
        <ele>327.8</ele>
        <time>2021-07-26T06:42:50Z</time>
      </trkpt>
      <trkpt lat="42.9255980" lon="-8.1803540">
        <ele>327.2</ele>
        <time>2021-07-26T06:42:51Z</time>
      </trkpt>
      <trkpt lat="42.9255750" lon="-8.1803850">
        <ele>326.4</ele>
        <time>2021-07-26T06:42:52Z</time>
      </trkpt>
      <trkpt lat="42.9255450" lon="-8.1804070">
        <ele>325.8</ele>
        <time>2021-07-26T06:42:53Z</time>
      </trkpt>
      <trkpt lat="42.9255100" lon="-8.1804230">
        <ele>325.8</ele>
        <time>2021-07-26T06:42:54Z</time>
      </trkpt>
      <trkpt lat="42.9254720" lon="-8.1804340">
        <ele>325.8</ele>
        <time>2021-07-26T06:42:55Z</time>
      </trkpt>
      <trkpt lat="42.9253440" lon="-8.1804510">
        <ele>325.0</ele>
        <time>2021-07-26T06:42:58Z</time>
      </trkpt>
      <trkpt lat="42.9252970" lon="-8.1804550">
        <ele>324.6</ele>
        <time>2021-07-26T06:42:59Z</time>
      </trkpt>
      <trkpt lat="42.9252520" lon="-8.1804580">
        <ele>324.2</ele>
        <time>2021-07-26T06:43:00Z</time>
      </trkpt>
      <trkpt lat="42.9252040" lon="-8.1804600">
        <ele>323.8</ele>
        <time>2021-07-26T06:43:01Z</time>
      </trkpt>
      <trkpt lat="42.9251550" lon="-8.1804620">
        <ele>323.8</ele>
        <time>2021-07-26T06:43:02Z</time>
      </trkpt>
      <trkpt lat="42.9251050" lon="-8.1804690">
        <ele>323.8</ele>
        <time>2021-07-26T06:43:03Z</time>
      </trkpt>
      <trkpt lat="42.9250110" lon="-8.1805000">
        <ele>323.8</ele>
        <time>2021-07-26T06:43:05Z</time>
      </trkpt>
      <trkpt lat="42.9249260" lon="-8.1805740">
        <ele>323.4</ele>
        <time>2021-07-26T06:43:07Z</time>
      </trkpt>
      <trkpt lat="42.9248980" lon="-8.1806130">
        <ele>323.0</ele>
        <time>2021-07-26T06:43:08Z</time>
      </trkpt>
      <trkpt lat="42.9248770" lon="-8.1806560">
        <ele>322.6</ele>
        <time>2021-07-26T06:43:09Z</time>
      </trkpt>
      <trkpt lat="42.9248600" lon="-8.1806970">
        <ele>322.2</ele>
        <time>2021-07-26T06:43:10Z</time>
      </trkpt>
      <trkpt lat="42.9248470" lon="-8.1807380">
        <ele>321.6</ele>
        <time>2021-07-26T06:43:11Z</time>
      </trkpt>
      <trkpt lat="42.9248150" lon="-8.1808200">
        <ele>321.6</ele>
        <time>2021-07-26T06:43:13Z</time>
      </trkpt>
      <trkpt lat="42.9247970" lon="-8.1809090">
        <ele>321.6</ele>
        <time>2021-07-26T06:43:15Z</time>
      </trkpt>
      <trkpt lat="42.9247930" lon="-8.1809510">
        <ele>321.6</ele>
        <time>2021-07-26T06:43:16Z</time>
      </trkpt>
      <trkpt lat="42.9247520" lon="-8.1812240">
        <ele>321.6</ele>
        <time>2021-07-26T06:43:21Z</time>
      </trkpt>
      <trkpt lat="42.9247330" lon="-8.1814340">
        <ele>321.6</ele>
        <time>2021-07-26T06:43:25Z</time>
      </trkpt>
      <trkpt lat="42.9247270" lon="-8.1814890">
        <ele>321.6</ele>
        <time>2021-07-26T06:43:26Z</time>
      </trkpt>
      <trkpt lat="42.9247220" lon="-8.1815430">
        <ele>321.6</ele>
        <time>2021-07-26T06:43:27Z</time>
      </trkpt>
      <trkpt lat="42.9247130" lon="-8.1815990">
        <ele>321.6</ele>
        <time>2021-07-26T06:43:28Z</time>
      </trkpt>
      <trkpt lat="42.9246940" lon="-8.1816970">
        <ele>321.6</ele>
        <time>2021-07-26T06:43:30Z</time>
      </trkpt>
      <trkpt lat="42.9246880" lon="-8.1817470">
        <ele>321.6</ele>
        <time>2021-07-26T06:43:31Z</time>
      </trkpt>
      <trkpt lat="42.9246740" lon="-8.1818390">
        <ele>321.6</ele>
        <time>2021-07-26T06:43:33Z</time>
      </trkpt>
      <trkpt lat="42.9246560" lon="-8.1819130">
        <ele>321.6</ele>
        <time>2021-07-26T06:43:35Z</time>
      </trkpt>
      <trkpt lat="42.9246460" lon="-8.1820200">
        <ele>321.6</ele>
        <time>2021-07-26T06:43:38Z</time>
      </trkpt>
      <trkpt lat="42.9246280" lon="-8.1821770">
        <ele>321.6</ele>
        <time>2021-07-26T06:43:43Z</time>
      </trkpt>
      <trkpt lat="42.9246110" lon="-8.1822630">
        <ele>321.6</ele>
        <time>2021-07-26T06:43:46Z</time>
      </trkpt>
      <trkpt lat="42.9245690" lon="-8.1823890">
        <ele>322.2</ele>
        <time>2021-07-26T06:43:50Z</time>
      </trkpt>
      <trkpt lat="42.9245630" lon="-8.1824180">
        <ele>322.6</ele>
        <time>2021-07-26T06:43:51Z</time>
      </trkpt>
      <trkpt lat="42.9245550" lon="-8.1824490">
        <ele>323.0</ele>
        <time>2021-07-26T06:43:52Z</time>
      </trkpt>
      <trkpt lat="42.9245490" lon="-8.1824810">
        <ele>323.4</ele>
        <time>2021-07-26T06:43:53Z</time>
      </trkpt>
      <trkpt lat="42.9245440" lon="-8.1825060">
        <ele>323.8</ele>
        <time>2021-07-26T06:43:54Z</time>
      </trkpt>
      <trkpt lat="42.9245360" lon="-8.1825660">
        <ele>323.8</ele>
        <time>2021-07-26T06:43:57Z</time>
      </trkpt>
      <trkpt lat="42.9245360" lon="-8.1825990">
        <ele>324.2</ele>
        <time>2021-07-26T06:43:59Z</time>
      </trkpt>
      <trkpt lat="42.9245370" lon="-8.1826170">
        <ele>324.6</ele>
        <time>2021-07-26T06:44:00Z</time>
      </trkpt>
      <trkpt lat="42.9245370" lon="-8.1826320">
        <ele>325.0</ele>
        <time>2021-07-26T06:44:01Z</time>
      </trkpt>
      <trkpt lat="42.9245370" lon="-8.1826500">
        <ele>325.4</ele>
        <time>2021-07-26T06:44:02Z</time>
      </trkpt>
      <trkpt lat="42.9245340" lon="-8.1826710">
        <ele>325.8</ele>
        <time>2021-07-26T06:44:03Z</time>
      </trkpt>
      <trkpt lat="42.9244990" lon="-8.1827900">
        <ele>325.8</ele>
        <time>2021-07-26T06:44:08Z</time>
      </trkpt>
      <trkpt lat="42.9244410" lon="-8.1828940">
        <ele>326.2</ele>
        <time>2021-07-26T06:44:12Z</time>
      </trkpt>
      <trkpt lat="42.9244270" lon="-8.1829150">
        <ele>326.8</ele>
        <time>2021-07-26T06:44:13Z</time>
      </trkpt>
      <trkpt lat="42.9244170" lon="-8.1829330">
        <ele>327.2</ele>
        <time>2021-07-26T06:44:14Z</time>
      </trkpt>
      <trkpt lat="42.9244090" lon="-8.1829520">
        <ele>327.6</ele>
        <time>2021-07-26T06:44:15Z</time>
      </trkpt>
      <trkpt lat="42.9244000" lon="-8.1829700">
        <ele>328.0</ele>
        <time>2021-07-26T06:44:16Z</time>
      </trkpt>
      <trkpt lat="42.9243600" lon="-8.1830860">
        <ele>328.0</ele>
        <time>2021-07-26T06:44:21Z</time>
      </trkpt>
      <trkpt lat="42.9243450" lon="-8.1831230">
        <ele>328.4</ele>
        <time>2021-07-26T06:44:23Z</time>
      </trkpt>
      <trkpt lat="42.9243390" lon="-8.1831400">
        <ele>329.0</ele>
        <time>2021-07-26T06:44:24Z</time>
      </trkpt>
      <trkpt lat="42.9243310" lon="-8.1831560">
        <ele>329.4</ele>
        <time>2021-07-26T06:44:25Z</time>
      </trkpt>
      <trkpt lat="42.9243250" lon="-8.1831700">
        <ele>329.8</ele>
        <time>2021-07-26T06:44:26Z</time>
      </trkpt>
      <trkpt lat="42.9243170" lon="-8.1831860">
        <ele>330.2</ele>
        <time>2021-07-26T06:44:27Z</time>
      </trkpt>
      <trkpt lat="42.9243100" lon="-8.1832020">
        <ele>330.2</ele>
        <time>2021-07-26T06:44:28Z</time>
      </trkpt>
      <trkpt lat="42.9242940" lon="-8.1832590">
        <ele>330.6</ele>
        <time>2021-07-26T06:44:31Z</time>
      </trkpt>
      <trkpt lat="42.9242820" lon="-8.1832780">
        <ele>331.2</ele>
        <time>2021-07-26T06:44:32Z</time>
      </trkpt>
      <trkpt lat="42.9242710" lon="-8.1832950">
        <ele>331.6</ele>
        <time>2021-07-26T06:44:33Z</time>
      </trkpt>
      <trkpt lat="42.9242620" lon="-8.1833140">
        <ele>332.0</ele>
        <time>2021-07-26T06:44:34Z</time>
      </trkpt>
      <trkpt lat="42.9242520" lon="-8.1833350">
        <ele>332.4</ele>
        <time>2021-07-26T06:44:35Z</time>
      </trkpt>
      <trkpt lat="42.9242360" lon="-8.1834070">
        <ele>332.4</ele>
        <time>2021-07-26T06:44:39Z</time>
      </trkpt>
      <trkpt lat="42.9242340" lon="-8.1834260">
        <ele>332.8</ele>
        <time>2021-07-26T06:44:40Z</time>
      </trkpt>
      <trkpt lat="42.9242320" lon="-8.1834400">
        <ele>333.2</ele>
        <time>2021-07-26T06:44:41Z</time>
      </trkpt>
      <trkpt lat="42.9242310" lon="-8.1834570">
        <ele>333.6</ele>
        <time>2021-07-26T06:44:42Z</time>
      </trkpt>
      <trkpt lat="42.9242300" lon="-8.1834720">
        <ele>334.2</ele>
        <time>2021-07-26T06:44:43Z</time>
      </trkpt>
      <trkpt lat="42.9242280" lon="-8.1834940">
        <ele>334.6</ele>
        <time>2021-07-26T06:44:44Z</time>
      </trkpt>
      <trkpt lat="42.9242180" lon="-8.1836340">
        <ele>334.6</ele>
        <time>2021-07-26T06:44:51Z</time>
      </trkpt>
      <trkpt lat="42.9242140" lon="-8.1836550">
        <ele>335.0</ele>
        <time>2021-07-26T06:44:52Z</time>
      </trkpt>
      <trkpt lat="42.9242100" lon="-8.1836770">
        <ele>335.4</ele>
        <time>2021-07-26T06:44:53Z</time>
      </trkpt>
      <trkpt lat="42.9242080" lon="-8.1836970">
        <ele>335.8</ele>
        <time>2021-07-26T06:44:54Z</time>
      </trkpt>
      <trkpt lat="42.9242060" lon="-8.1837190">
        <ele>336.2</ele>
        <time>2021-07-26T06:44:55Z</time>
      </trkpt>
      <trkpt lat="42.9242060" lon="-8.1837370">
        <ele>336.6</ele>
        <time>2021-07-26T06:44:56Z</time>
      </trkpt>
      <trkpt lat="42.9242100" lon="-8.1837760">
        <ele>336.6</ele>
        <time>2021-07-26T06:44:58Z</time>
      </trkpt>
      <trkpt lat="42.9242250" lon="-8.1838930">
        <ele>337.2</ele>
        <time>2021-07-26T06:45:03Z</time>
      </trkpt>
      <trkpt lat="42.9242270" lon="-8.1839150">
        <ele>337.6</ele>
        <time>2021-07-26T06:45:04Z</time>
      </trkpt>
      <trkpt lat="42.9242250" lon="-8.1839390">
        <ele>338.0</ele>
        <time>2021-07-26T06:45:05Z</time>
      </trkpt>
      <trkpt lat="42.9242220" lon="-8.1839620">
        <ele>338.4</ele>
        <time>2021-07-26T06:45:06Z</time>
      </trkpt>
      <trkpt lat="42.9242200" lon="-8.1839810">
        <ele>338.8</ele>
        <time>2021-07-26T06:45:07Z</time>
      </trkpt>
      <trkpt lat="42.9242050" lon="-8.1840580">
        <ele>338.8</ele>
        <time>2021-07-26T06:45:12Z</time>
      </trkpt>
      <trkpt lat="42.9242080" lon="-8.1841060">
        <ele>339.2</ele>
        <time>2021-07-26T06:45:15Z</time>
      </trkpt>
      <trkpt lat="42.9242090" lon="-8.1841270">
        <ele>339.6</ele>
        <time>2021-07-26T06:45:16Z</time>
      </trkpt>
      <trkpt lat="42.9242100" lon="-8.1841490">
        <ele>340.2</ele>
        <time>2021-07-26T06:45:17Z</time>
      </trkpt>
      <trkpt lat="42.9242090" lon="-8.1841650">
        <ele>340.6</ele>
        <time>2021-07-26T06:45:18Z</time>
      </trkpt>
      <trkpt lat="42.9242050" lon="-8.1841850">
        <ele>341.0</ele>
        <time>2021-07-26T06:45:19Z</time>
      </trkpt>
      <trkpt lat="42.9241820" lon="-8.1843490">
        <ele>341.4</ele>
        <time>2021-07-26T06:45:27Z</time>
      </trkpt>
      <trkpt lat="42.9241810" lon="-8.1843770">
        <ele>341.8</ele>
        <time>2021-07-26T06:45:28Z</time>
      </trkpt>
      <trkpt lat="42.9241760" lon="-8.1843960">
        <ele>342.2</ele>
        <time>2021-07-26T06:45:29Z</time>
      </trkpt>
      <trkpt lat="42.9241690" lon="-8.1844160">
        <ele>342.6</ele>
        <time>2021-07-26T06:45:30Z</time>
      </trkpt>
      <trkpt lat="42.9241580" lon="-8.1844300">
        <ele>343.0</ele>
        <time>2021-07-26T06:45:31Z</time>
      </trkpt>
      <trkpt lat="42.9241320" lon="-8.1844500">
        <ele>343.0</ele>
        <time>2021-07-26T06:45:33Z</time>
      </trkpt>
      <trkpt lat="42.9241180" lon="-8.1844620">
        <ele>343.0</ele>
        <time>2021-07-26T06:45:34Z</time>
      </trkpt>
      <trkpt lat="42.9240550" lon="-8.1845560">
        <ele>343.0</ele>
        <time>2021-07-26T06:45:40Z</time>
      </trkpt>
      <trkpt lat="42.9240500" lon="-8.1845830">
        <ele>343.0</ele>
        <time>2021-07-26T06:45:41Z</time>
      </trkpt>
      <trkpt lat="42.9240170" lon="-8.1846380">
        <ele>343.0</ele>
        <time>2021-07-26T06:45:43Z</time>
      </trkpt>
      <trkpt lat="42.9239320" lon="-8.1846930">
        <ele>343.0</ele>
        <time>2021-07-26T06:45:46Z</time>
      </trkpt>
      <trkpt lat="42.9237720" lon="-8.1847750">
        <ele>343.0</ele>
        <time>2021-07-26T06:45:51Z</time>
      </trkpt>
      <trkpt lat="42.9236860" lon="-8.1848070">
        <ele>343.0</ele>
        <time>2021-07-26T06:45:54Z</time>
      </trkpt>
      <trkpt lat="42.9235700" lon="-8.1848540">
        <ele>343.0</ele>
        <time>2021-07-26T06:45:58Z</time>
      </trkpt>
      <trkpt lat="42.9234820" lon="-8.1848870">
        <ele>343.0</ele>
        <time>2021-07-26T06:46:01Z</time>
      </trkpt>
      <trkpt lat="42.9234560" lon="-8.1849000">
        <ele>343.0</ele>
        <time>2021-07-26T06:46:02Z</time>
      </trkpt>
      <trkpt lat="42.9232740" lon="-8.1849530">
        <ele>343.0</ele>
        <time>2021-07-26T06:46:08Z</time>
      </trkpt>
      <trkpt lat="42.9232040" lon="-8.1849730">
        <ele>343.0</ele>
        <time>2021-07-26T06:46:10Z</time>
      </trkpt>
      <trkpt lat="42.9231340" lon="-8.1849980">
        <ele>343.0</ele>
        <time>2021-07-26T06:46:12Z</time>
      </trkpt>
      <trkpt lat="42.9230660" lon="-8.1850230">
        <ele>343.0</ele>
        <time>2021-07-26T06:46:14Z</time>
      </trkpt>
      <trkpt lat="42.9230290" lon="-8.1850370">
        <ele>343.0</ele>
        <time>2021-07-26T06:46:15Z</time>
      </trkpt>
      <trkpt lat="42.9229330" lon="-8.1851060">
        <ele>343.0</ele>
        <time>2021-07-26T06:46:18Z</time>
      </trkpt>
      <trkpt lat="42.9228320" lon="-8.1851890">
        <ele>343.0</ele>
        <time>2021-07-26T06:46:21Z</time>
      </trkpt>
      <trkpt lat="42.9227310" lon="-8.1853360">
        <ele>343.0</ele>
        <time>2021-07-26T06:46:25Z</time>
      </trkpt>
      <trkpt lat="42.9226290" lon="-8.1856390">
        <ele>343.0</ele>
        <time>2021-07-26T06:46:32Z</time>
      </trkpt>
      <trkpt lat="42.9226540" lon="-8.1858690">
        <ele>343.0</ele>
        <time>2021-07-26T06:46:37Z</time>
      </trkpt>
      <trkpt lat="42.9226600" lon="-8.1859120">
        <ele>343.0</ele>
        <time>2021-07-26T06:46:38Z</time>
      </trkpt>
      <trkpt lat="42.9226790" lon="-8.1860280">
        <ele>343.8</ele>
        <time>2021-07-26T06:46:41Z</time>
      </trkpt>
      <trkpt lat="42.9226810" lon="-8.1860640">
        <ele>344.4</ele>
        <time>2021-07-26T06:46:42Z</time>
      </trkpt>
      <trkpt lat="42.9226860" lon="-8.1860980">
        <ele>344.8</ele>
        <time>2021-07-26T06:46:43Z</time>
      </trkpt>
      <trkpt lat="42.9226910" lon="-8.1861300">
        <ele>345.2</ele>
        <time>2021-07-26T06:46:44Z</time>
      </trkpt>
      <trkpt lat="42.9226950" lon="-8.1862910">
        <ele>345.2</ele>
        <time>2021-07-26T06:46:49Z</time>
      </trkpt>
      <trkpt lat="42.9226850" lon="-8.1863550">
        <ele>345.2</ele>
        <time>2021-07-26T06:46:51Z</time>
      </trkpt>
      <trkpt lat="42.9226560" lon="-8.1864840">
        <ele>345.6</ele>
        <time>2021-07-26T06:46:55Z</time>
      </trkpt>
      <trkpt lat="42.9226500" lon="-8.1865150">
        <ele>346.0</ele>
        <time>2021-07-26T06:46:56Z</time>
      </trkpt>
      <trkpt lat="42.9226440" lon="-8.1865450">
        <ele>346.4</ele>
        <time>2021-07-26T06:46:57Z</time>
      </trkpt>
      <trkpt lat="42.9226370" lon="-8.1865720">
        <ele>346.8</ele>
        <time>2021-07-26T06:46:58Z</time>
      </trkpt>
      <trkpt lat="42.9226320" lon="-8.1866000">
        <ele>347.4</ele>
        <time>2021-07-26T06:46:59Z</time>
      </trkpt>
      <trkpt lat="42.9226080" lon="-8.1867530">
        <ele>347.4</ele>
        <time>2021-07-26T06:47:05Z</time>
      </trkpt>
      <trkpt lat="42.9226040" lon="-8.1867740">
        <ele>347.8</ele>
        <time>2021-07-26T06:47:06Z</time>
      </trkpt>
      <trkpt lat="42.9226040" lon="-8.1867980">
        <ele>348.2</ele>
        <time>2021-07-26T06:47:07Z</time>
      </trkpt>
      <trkpt lat="42.9226050" lon="-8.1868210">
        <ele>348.6</ele>
        <time>2021-07-26T06:47:08Z</time>
      </trkpt>
      <trkpt lat="42.9226060" lon="-8.1868440">
        <ele>349.0</ele>
        <time>2021-07-26T06:47:09Z</time>
      </trkpt>
      <trkpt lat="42.9226070" lon="-8.1868690">
        <ele>349.4</ele>
        <time>2021-07-26T06:47:10Z</time>
      </trkpt>
      <trkpt lat="42.9226110" lon="-8.1869200">
        <ele>349.4</ele>
        <time>2021-07-26T06:47:12Z</time>
      </trkpt>
      <trkpt lat="42.9226590" lon="-8.1870380">
        <ele>349.8</ele>
        <time>2021-07-26T06:47:18Z</time>
      </trkpt>
      <trkpt lat="42.9226720" lon="-8.1870610">
        <ele>350.2</ele>
        <time>2021-07-26T06:47:19Z</time>
      </trkpt>
      <trkpt lat="42.9226850" lon="-8.1870840">
        <ele>350.6</ele>
        <time>2021-07-26T06:47:20Z</time>
      </trkpt>
      <trkpt lat="42.9226960" lon="-8.1871090">
        <ele>351.0</ele>
        <time>2021-07-26T06:47:21Z</time>
      </trkpt>
      <trkpt lat="42.9227070" lon="-8.1871360">
        <ele>351.4</ele>
        <time>2021-07-26T06:47:22Z</time>
      </trkpt>
      <trkpt lat="42.9227390" lon="-8.1872170">
        <ele>351.4</ele>
        <time>2021-07-26T06:47:25Z</time>
      </trkpt>
      <trkpt lat="42.9227660" lon="-8.1874020">
        <ele>351.4</ele>
        <time>2021-07-26T06:47:32Z</time>
      </trkpt>
      <trkpt lat="42.9227700" lon="-8.1875090">
        <ele>351.8</ele>
        <time>2021-07-26T06:47:37Z</time>
      </trkpt>
      <trkpt lat="42.9227700" lon="-8.1875320">
        <ele>352.2</ele>
        <time>2021-07-26T06:47:38Z</time>
      </trkpt>
      <trkpt lat="42.9227710" lon="-8.1875550">
        <ele>352.8</ele>
        <time>2021-07-26T06:47:39Z</time>
      </trkpt>
      <trkpt lat="42.9227730" lon="-8.1875780">
        <ele>353.2</ele>
        <time>2021-07-26T06:47:40Z</time>
      </trkpt>
      <trkpt lat="42.9227740" lon="-8.1876000">
        <ele>353.6</ele>
        <time>2021-07-26T06:47:41Z</time>
      </trkpt>
      <trkpt lat="42.9227930" lon="-8.1877460">
        <ele>354.0</ele>
        <time>2021-07-26T06:47:48Z</time>
      </trkpt>
      <trkpt lat="42.9227970" lon="-8.1877640">
        <ele>354.4</ele>
        <time>2021-07-26T06:47:49Z</time>
      </trkpt>
      <trkpt lat="42.9228020" lon="-8.1877810">
        <ele>354.8</ele>
        <time>2021-07-26T06:47:50Z</time>
      </trkpt>
      <trkpt lat="42.9228100" lon="-8.1877990">
        <ele>355.4</ele>
        <time>2021-07-26T06:47:51Z</time>
      </trkpt>
      <trkpt lat="42.9228170" lon="-8.1878170">
        <ele>355.8</ele>
        <time>2021-07-26T06:47:52Z</time>
      </trkpt>
      <trkpt lat="42.9228280" lon="-8.1878310">
        <ele>355.8</ele>
        <time>2021-07-26T06:47:53Z</time>
      </trkpt>
      <trkpt lat="42.9228790" lon="-8.1878790">
        <ele>356.2</ele>
        <time>2021-07-26T06:47:57Z</time>
      </trkpt>
      <trkpt lat="42.9228920" lon="-8.1878900">
        <ele>356.6</ele>
        <time>2021-07-26T06:47:58Z</time>
      </trkpt>
      <trkpt lat="42.9229100" lon="-8.1879000">
        <ele>357.0</ele>
        <time>2021-07-26T06:47:59Z</time>
      </trkpt>
      <trkpt lat="42.9229500" lon="-8.1879420">
        <ele>357.4</ele>
        <time>2021-07-26T06:48:00Z</time>
      </trkpt>
      <trkpt lat="42.9229730" lon="-8.1879770">
        <ele>357.8</ele>
        <time>2021-07-26T06:48:01Z</time>
      </trkpt>
      <trkpt lat="42.9229970" lon="-8.1880120">
        <ele>357.8</ele>
        <time>2021-07-26T06:48:05Z</time>
      </trkpt>
      <trkpt lat="42.9230200" lon="-8.1880470">
        <ele>357.8</ele>
        <time>2021-07-26T06:48:14Z</time>
      </trkpt>
      <trkpt lat="42.9230440" lon="-8.1880820">
        <ele>357.8</ele>
        <time>2021-07-26T06:48:19Z</time>
      </trkpt>
      <trkpt lat="42.9230670" lon="-8.1881170">
        <ele>358.2</ele>
        <time>2021-07-26T06:48:21Z</time>
      </trkpt>
      <trkpt lat="42.9230910" lon="-8.1881520">
        <ele>358.8</ele>
        <time>2021-07-26T06:48:22Z</time>
      </trkpt>
      <trkpt lat="42.9231140" lon="-8.1881870">
        <ele>359.2</ele>
        <time>2021-07-26T06:48:23Z</time>
      </trkpt>
      <trkpt lat="42.9231240" lon="-8.1883060">
        <ele>359.6</ele>
        <time>2021-07-26T06:48:24Z</time>
      </trkpt>
      <trkpt lat="42.9231280" lon="-8.1883140">
        <ele>360.0</ele>
        <time>2021-07-26T06:48:25Z</time>
      </trkpt>
      <trkpt lat="42.9231430" lon="-8.1883290">
        <ele>360.0</ele>
        <time>2021-07-26T06:48:29Z</time>
      </trkpt>
      <trkpt lat="42.9233340" lon="-8.1887240">
        <ele>368.2</ele>
        <time>2021-07-26T06:49:29Z</time>
      </trkpt>
      <trkpt lat="42.9233660" lon="-8.1887420">
        <ele>368.2</ele>
        <time>2021-07-26T06:49:32Z</time>
      </trkpt>
      <trkpt lat="42.9233900" lon="-8.1887500">
        <ele>368.6</ele>
        <time>2021-07-26T06:49:34Z</time>
      </trkpt>
      <trkpt lat="42.9234010" lon="-8.1887530">
        <ele>369.4</ele>
        <time>2021-07-26T06:49:35Z</time>
      </trkpt>
      <trkpt lat="42.9234120" lon="-8.1887570">
        <ele>369.8</ele>
        <time>2021-07-26T06:49:36Z</time>
      </trkpt>
      <trkpt lat="42.9234170" lon="-8.1887580">
        <ele>370.2</ele>
        <time>2021-07-26T06:49:37Z</time>
      </trkpt>
      <trkpt lat="42.9234430" lon="-8.1887710">
        <ele>370.2</ele>
        <time>2021-07-26T06:49:46Z</time>
      </trkpt>
      <trkpt lat="42.9234600" lon="-8.1887750">
        <ele>370.2</ele>
        <time>2021-07-26T06:49:47Z</time>
      </trkpt>
      <trkpt lat="42.9235620" lon="-8.1888190">
        <ele>370.2</ele>
        <time>2021-07-26T06:49:52Z</time>
      </trkpt>
      <trkpt lat="42.9236170" lon="-8.1888450">
        <ele>370.2</ele>
        <time>2021-07-26T06:49:54Z</time>
      </trkpt>
      <trkpt lat="42.9238160" lon="-8.1889470">
        <ele>370.2</ele>
        <time>2021-07-26T06:50:01Z</time>
      </trkpt>
      <trkpt lat="42.9240380" lon="-8.1890570">
        <ele>370.2</ele>
        <time>2021-07-26T06:50:08Z</time>
      </trkpt>
      <trkpt lat="42.9242080" lon="-8.1891290">
        <ele>370.2</ele>
        <time>2021-07-26T06:50:13Z</time>
      </trkpt>
      <trkpt lat="42.9244250" lon="-8.1892340">
        <ele>370.2</ele>
        <time>2021-07-26T06:50:20Z</time>
      </trkpt>
      <trkpt lat="42.9245400" lon="-8.1892780">
        <ele>371.2</ele>
        <time>2021-07-26T06:50:24Z</time>
      </trkpt>
      <trkpt lat="42.9245680" lon="-8.1892910">
        <ele>371.6</ele>
        <time>2021-07-26T06:50:25Z</time>
      </trkpt>
      <trkpt lat="42.9245960" lon="-8.1893000">
        <ele>372.0</ele>
        <time>2021-07-26T06:50:26Z</time>
      </trkpt>
      <trkpt lat="42.9246240" lon="-8.1893100">
        <ele>372.4</ele>
        <time>2021-07-26T06:50:27Z</time>
      </trkpt>
      <trkpt lat="42.9247970" lon="-8.1894000">
        <ele>372.4</ele>
        <time>2021-07-26T06:50:33Z</time>
      </trkpt>
      <trkpt lat="42.9249980" lon="-8.1894760">
        <ele>372.4</ele>
        <time>2021-07-26T06:50:40Z</time>
      </trkpt>
      <trkpt lat="42.9250260" lon="-8.1894880">
        <ele>372.4</ele>
        <time>2021-07-26T06:50:41Z</time>
      </trkpt>
      <trkpt lat="42.9251720" lon="-8.1895420">
        <ele>372.4</ele>
        <time>2021-07-26T06:50:47Z</time>
      </trkpt>
      <trkpt lat="42.9251980" lon="-8.1895590">
        <ele>372.4</ele>
        <time>2021-07-26T06:50:48Z</time>
      </trkpt>
      <trkpt lat="42.9252260" lon="-8.1895750">
        <ele>372.8</ele>
        <time>2021-07-26T06:50:49Z</time>
      </trkpt>
      <trkpt lat="42.9252580" lon="-8.1895880">
        <ele>373.2</ele>
        <time>2021-07-26T06:50:50Z</time>
      </trkpt>
      <trkpt lat="42.9252900" lon="-8.1896020">
        <ele>373.6</ele>
        <time>2021-07-26T06:50:51Z</time>
      </trkpt>
      <trkpt lat="42.9253230" lon="-8.1896180">
        <ele>374.0</ele>
        <time>2021-07-26T06:50:52Z</time>
      </trkpt>
      <trkpt lat="42.9253540" lon="-8.1896330">
        <ele>374.4</ele>
        <time>2021-07-26T06:50:53Z</time>
      </trkpt>
      <trkpt lat="42.9254200" lon="-8.1896680">
        <ele>374.4</ele>
        <time>2021-07-26T06:50:55Z</time>
      </trkpt>
      <trkpt lat="42.9255780" lon="-8.1897370">
        <ele>374.4</ele>
        <time>2021-07-26T06:51:00Z</time>
      </trkpt>
      <trkpt lat="42.9257040" lon="-8.1897930">
        <ele>374.4</ele>
        <time>2021-07-26T06:51:04Z</time>
      </trkpt>
      <trkpt lat="42.9259610" lon="-8.1899180">
        <ele>374.4</ele>
        <time>2021-07-26T06:51:13Z</time>
      </trkpt>
      <trkpt lat="42.9260180" lon="-8.1899540">
        <ele>374.8</ele>
        <time>2021-07-26T06:51:15Z</time>
      </trkpt>
      <trkpt lat="42.9260430" lon="-8.1899720">
        <ele>375.4</ele>
        <time>2021-07-26T06:51:16Z</time>
      </trkpt>
      <trkpt lat="42.9260680" lon="-8.1899920">
        <ele>375.8</ele>
        <time>2021-07-26T06:51:17Z</time>
      </trkpt>
      <trkpt lat="42.9260920" lon="-8.1900150">
        <ele>376.2</ele>
        <time>2021-07-26T06:51:18Z</time>
      </trkpt>
      <trkpt lat="42.9261130" lon="-8.1900450">
        <ele>376.6</ele>
        <time>2021-07-26T06:51:19Z</time>
      </trkpt>
      <trkpt lat="42.9261780" lon="-8.1902510">
        <ele>376.6</ele>
        <time>2021-07-26T06:51:24Z</time>
      </trkpt>
      <trkpt lat="42.9261830" lon="-8.1905230">
        <ele>376.6</ele>
        <time>2021-07-26T06:51:31Z</time>
      </trkpt>
      <trkpt lat="42.9261780" lon="-8.1907350">
        <ele>377.0</ele>
        <time>2021-07-26T06:51:37Z</time>
      </trkpt>
      <trkpt lat="42.9261760" lon="-8.1907700">
        <ele>377.8</ele>
        <time>2021-07-26T06:51:38Z</time>
      </trkpt>
      <trkpt lat="42.9261750" lon="-8.1908060">
        <ele>378.2</ele>
        <time>2021-07-26T06:51:39Z</time>
      </trkpt>
      <trkpt lat="42.9261740" lon="-8.1908400">
        <ele>378.6</ele>
        <time>2021-07-26T06:51:40Z</time>
      </trkpt>
      <trkpt lat="42.9261730" lon="-8.1908750">
        <ele>378.6</ele>
        <time>2021-07-26T06:51:41Z</time>
      </trkpt>
      <trkpt lat="42.9261830" lon="-8.1911180">
        <ele>378.6</ele>
        <time>2021-07-26T06:51:48Z</time>
      </trkpt>
      <trkpt lat="42.9261820" lon="-8.1911530">
        <ele>378.6</ele>
        <time>2021-07-26T06:51:49Z</time>
      </trkpt>
      <trkpt lat="42.9261810" lon="-8.1913130">
        <ele>379.0</ele>
        <time>2021-07-26T06:51:54Z</time>
      </trkpt>
      <trkpt lat="42.9261800" lon="-8.1913420">
        <ele>379.6</ele>
        <time>2021-07-26T06:51:55Z</time>
      </trkpt>
      <trkpt lat="42.9261760" lon="-8.1913710">
        <ele>380.0</ele>
        <time>2021-07-26T06:51:56Z</time>
      </trkpt>
      <trkpt lat="42.9261740" lon="-8.1914020">
        <ele>380.4</ele>
        <time>2021-07-26T06:51:57Z</time>
      </trkpt>
      <trkpt lat="42.9261750" lon="-8.1914320">
        <ele>380.8</ele>
        <time>2021-07-26T06:51:58Z</time>
      </trkpt>
      <trkpt lat="42.9261870" lon="-8.1915840">
        <ele>380.8</ele>
        <time>2021-07-26T06:52:03Z</time>
      </trkpt>
      <trkpt lat="42.9261900" lon="-8.1917090">
        <ele>380.8</ele>
        <time>2021-07-26T06:52:09Z</time>
      </trkpt>
      <trkpt lat="42.9261920" lon="-8.1917270">
        <ele>380.8</ele>
        <time>2021-07-26T06:52:10Z</time>
      </trkpt>
      <trkpt lat="42.9261910" lon="-8.1917460">
        <ele>380.8</ele>
        <time>2021-07-26T06:52:11Z</time>
      </trkpt>
      <trkpt lat="42.9261880" lon="-8.1918010">
        <ele>380.8</ele>
        <time>2021-07-26T06:52:14Z</time>
      </trkpt>
      <trkpt lat="42.9261820" lon="-8.1918540">
        <ele>380.8</ele>
        <time>2021-07-26T06:52:17Z</time>
      </trkpt>
      <trkpt lat="42.9261690" lon="-8.1919580">
        <ele>380.8</ele>
        <time>2021-07-26T06:52:22Z</time>
      </trkpt>
      <trkpt lat="42.9261660" lon="-8.1919910">
        <ele>381.2</ele>
        <time>2021-07-26T06:52:23Z</time>
      </trkpt>
      <trkpt lat="42.9261660" lon="-8.1920260">
        <ele>381.6</ele>
        <time>2021-07-26T06:52:24Z</time>
      </trkpt>
      <trkpt lat="42.9261660" lon="-8.1920690">
        <ele>382.0</ele>
        <time>2021-07-26T06:52:25Z</time>
      </trkpt>
      <trkpt lat="42.9261680" lon="-8.1921130">
        <ele>382.4</ele>
        <time>2021-07-26T06:52:26Z</time>
      </trkpt>
      <trkpt lat="42.9261630" lon="-8.1921550">
        <ele>382.8</ele>
        <time>2021-07-26T06:52:27Z</time>
      </trkpt>
      <trkpt lat="42.9261510" lon="-8.1922380">
        <ele>382.8</ele>
        <time>2021-07-26T06:52:29Z</time>
      </trkpt>
      <trkpt lat="42.9261540" lon="-8.1924830">
        <ele>382.8</ele>
        <time>2021-07-26T06:52:35Z</time>
      </trkpt>
      <trkpt lat="42.9261490" lon="-8.1926030">
        <ele>382.8</ele>
        <time>2021-07-26T06:52:38Z</time>
      </trkpt>
      <trkpt lat="42.9261470" lon="-8.1927230">
        <ele>383.2</ele>
        <time>2021-07-26T06:52:41Z</time>
      </trkpt>
      <trkpt lat="42.9261490" lon="-8.1927590">
        <ele>383.6</ele>
        <time>2021-07-26T06:52:42Z</time>
      </trkpt>
      <trkpt lat="42.9261510" lon="-8.1927950">
        <ele>384.0</ele>
        <time>2021-07-26T06:52:43Z</time>
      </trkpt>
      <trkpt lat="42.9261520" lon="-8.1928270">
        <ele>384.4</ele>
        <time>2021-07-26T06:52:44Z</time>
      </trkpt>
      <trkpt lat="42.9261520" lon="-8.1928550">
        <ele>384.8</ele>
        <time>2021-07-26T06:52:45Z</time>
      </trkpt>
      <trkpt lat="42.9261560" lon="-8.1929160">
        <ele>384.8</ele>
        <time>2021-07-26T06:52:47Z</time>
      </trkpt>
      <trkpt lat="42.9262070" lon="-8.1931550">
        <ele>384.8</ele>
        <time>2021-07-26T06:52:54Z</time>
      </trkpt>
      <trkpt lat="42.9262690" lon="-8.1933220">
        <ele>385.2</ele>
        <time>2021-07-26T06:52:59Z</time>
      </trkpt>
      <trkpt lat="42.9262770" lon="-8.1933540">
        <ele>385.6</ele>
        <time>2021-07-26T06:53:00Z</time>
      </trkpt>
      <trkpt lat="42.9262870" lon="-8.1933890">
        <ele>386.0</ele>
        <time>2021-07-26T06:53:01Z</time>
      </trkpt>
      <trkpt lat="42.9262970" lon="-8.1934240">
        <ele>386.4</ele>
        <time>2021-07-26T06:53:02Z</time>
      </trkpt>
      <trkpt lat="42.9263060" lon="-8.1934610">
        <ele>386.8</ele>
        <time>2021-07-26T06:53:03Z</time>
      </trkpt>
      <trkpt lat="42.9263510" lon="-8.1936380">
        <ele>386.8</ele>
        <time>2021-07-26T06:53:08Z</time>
      </trkpt>
      <trkpt lat="42.9264520" lon="-8.1939850">
        <ele>386.8</ele>
        <time>2021-07-26T06:53:17Z</time>
      </trkpt>
      <trkpt lat="42.9264630" lon="-8.1940210">
        <ele>387.2</ele>
        <time>2021-07-26T06:53:18Z</time>
      </trkpt>
      <trkpt lat="42.9264720" lon="-8.1940590">
        <ele>387.6</ele>
        <time>2021-07-26T06:53:19Z</time>
      </trkpt>
      <trkpt lat="42.9264810" lon="-8.1940970">
        <ele>388.0</ele>
        <time>2021-07-26T06:53:20Z</time>
      </trkpt>
      <trkpt lat="42.9264880" lon="-8.1941360">
        <ele>388.4</ele>
        <time>2021-07-26T06:53:21Z</time>
      </trkpt>
      <trkpt lat="42.9264950" lon="-8.1941750">
        <ele>388.8</ele>
        <time>2021-07-26T06:53:22Z</time>
      </trkpt>
      <trkpt lat="42.9265170" lon="-8.1942910">
        <ele>388.8</ele>
        <time>2021-07-26T06:53:25Z</time>
      </trkpt>
      <trkpt lat="42.9265650" lon="-8.1946540">
        <ele>388.8</ele>
        <time>2021-07-26T06:53:34Z</time>
      </trkpt>
      <trkpt lat="42.9266140" lon="-8.1948880">
        <ele>388.8</ele>
        <time>2021-07-26T06:53:40Z</time>
      </trkpt>
      <trkpt lat="42.9266840" lon="-8.1950960">
        <ele>388.8</ele>
        <time>2021-07-26T06:53:46Z</time>
      </trkpt>
      <trkpt lat="42.9266840" lon="-8.1951350">
        <ele>389.2</ele>
        <time>2021-07-26T06:53:47Z</time>
      </trkpt>
      <trkpt lat="42.9266780" lon="-8.1951700">
        <ele>389.6</ele>
        <time>2021-07-26T06:53:48Z</time>
      </trkpt>
      <trkpt lat="42.9266700" lon="-8.1952000">
        <ele>390.0</ele>
        <time>2021-07-26T06:53:49Z</time>
      </trkpt>
      <trkpt lat="42.9266660" lon="-8.1952290">
        <ele>390.4</ele>
        <time>2021-07-26T06:53:50Z</time>
      </trkpt>
      <trkpt lat="42.9266630" lon="-8.1952560">
        <ele>390.8</ele>
        <time>2021-07-26T06:53:51Z</time>
      </trkpt>
      <trkpt lat="42.9266580" lon="-8.1953960">
        <ele>390.8</ele>
        <time>2021-07-26T06:53:56Z</time>
      </trkpt>
      <trkpt lat="42.9266080" lon="-8.1956540">
        <ele>390.8</ele>
        <time>2021-07-26T06:54:03Z</time>
      </trkpt>
      <trkpt lat="42.9266040" lon="-8.1957320">
        <ele>390.8</ele>
        <time>2021-07-26T06:54:05Z</time>
      </trkpt>
      <trkpt lat="42.9266150" lon="-8.1958700">
        <ele>390.8</ele>
        <time>2021-07-26T06:54:09Z</time>
      </trkpt>
      <trkpt lat="42.9266150" lon="-8.1959440">
        <ele>390.8</ele>
        <time>2021-07-26T06:54:11Z</time>
      </trkpt>
      <trkpt lat="42.9265940" lon="-8.1959980">
        <ele>390.8</ele>
        <time>2021-07-26T06:54:13Z</time>
      </trkpt>
      <trkpt lat="42.9265460" lon="-8.1960920">
        <ele>390.8</ele>
        <time>2021-07-26T06:54:16Z</time>
      </trkpt>
      <trkpt lat="42.9264860" lon="-8.1961950">
        <ele>390.8</ele>
        <time>2021-07-26T06:54:19Z</time>
      </trkpt>
      <trkpt lat="42.9264310" lon="-8.1962780">
        <ele>390.8</ele>
        <time>2021-07-26T06:54:22Z</time>
      </trkpt>
      <trkpt lat="42.9264190" lon="-8.1963090">
        <ele>390.8</ele>
        <time>2021-07-26T06:54:23Z</time>
      </trkpt>
      <trkpt lat="42.9263620" lon="-8.1964230">
        <ele>390.8</ele>
        <time>2021-07-26T06:54:27Z</time>
      </trkpt>
      <trkpt lat="42.9263460" lon="-8.1964540">
        <ele>390.4</ele>
        <time>2021-07-26T06:54:28Z</time>
      </trkpt>
      <trkpt lat="42.9263280" lon="-8.1964860">
        <ele>390.0</ele>
        <time>2021-07-26T06:54:29Z</time>
      </trkpt>
      <trkpt lat="42.9263100" lon="-8.1965210">
        <ele>389.6</ele>
        <time>2021-07-26T06:54:30Z</time>
      </trkpt>
      <trkpt lat="42.9262940" lon="-8.1965520">
        <ele>388.6</ele>
        <time>2021-07-26T06:54:31Z</time>
      </trkpt>
      <trkpt lat="42.9261930" lon="-8.1967680">
        <ele>388.6</ele>
        <time>2021-07-26T06:54:36Z</time>
      </trkpt>
      <trkpt lat="42.9261390" lon="-8.1969050">
        <ele>388.6</ele>
        <time>2021-07-26T06:54:39Z</time>
      </trkpt>
      <trkpt lat="42.9261210" lon="-8.1969460">
        <ele>388.2</ele>
        <time>2021-07-26T06:54:40Z</time>
      </trkpt>
      <trkpt lat="42.9261060" lon="-8.1969890">
        <ele>387.8</ele>
        <time>2021-07-26T06:54:41Z</time>
      </trkpt>
      <trkpt lat="42.9260960" lon="-8.1970230">
        <ele>387.4</ele>
        <time>2021-07-26T06:54:42Z</time>
      </trkpt>
      <trkpt lat="42.9260850" lon="-8.1970460">
        <ele>386.8</ele>
        <time>2021-07-26T06:54:43Z</time>
      </trkpt>
      <trkpt lat="42.9260760" lon="-8.1970680">
        <ele>386.4</ele>
        <time>2021-07-26T06:54:44Z</time>
      </trkpt>
      <trkpt lat="42.9260580" lon="-8.1971250">
        <ele>386.4</ele>
        <time>2021-07-26T06:54:47Z</time>
      </trkpt>
      <trkpt lat="42.9260540" lon="-8.1971430">
        <ele>386.0</ele>
        <time>2021-07-26T06:54:48Z</time>
      </trkpt>
      <trkpt lat="42.9260520" lon="-8.1971640">
        <ele>385.6</ele>
        <time>2021-07-26T06:54:49Z</time>
      </trkpt>
      <trkpt lat="42.9260470" lon="-8.1971830">
        <ele>385.2</ele>
        <time>2021-07-26T06:54:50Z</time>
      </trkpt>
      <trkpt lat="42.9260240" lon="-8.1972220">
        <ele>384.2</ele>
        <time>2021-07-26T06:54:52Z</time>
      </trkpt>
      <trkpt lat="42.9259970" lon="-8.1972770">
        <ele>384.2</ele>
        <time>2021-07-26T06:54:54Z</time>
      </trkpt>
      <trkpt lat="42.9259340" lon="-8.1974650">
        <ele>384.2</ele>
        <time>2021-07-26T06:54:58Z</time>
      </trkpt>
      <trkpt lat="42.9259210" lon="-8.1975180">
        <ele>383.8</ele>
        <time>2021-07-26T06:54:59Z</time>
      </trkpt>
      <trkpt lat="42.9259080" lon="-8.1975680">
        <ele>383.4</ele>
        <time>2021-07-26T06:55:00Z</time>
      </trkpt>
      <trkpt lat="42.9258980" lon="-8.1976080">
        <ele>383.0</ele>
        <time>2021-07-26T06:55:01Z</time>
      </trkpt>
      <trkpt lat="42.9258870" lon="-8.1976500">
        <ele>382.6</ele>
        <time>2021-07-26T06:55:02Z</time>
      </trkpt>
      <trkpt lat="42.9258740" lon="-8.1976940">
        <ele>382.2</ele>
        <time>2021-07-26T06:55:03Z</time>
      </trkpt>
      <trkpt lat="42.9258660" lon="-8.1977240">
        <ele>382.2</ele>
        <time>2021-07-26T06:55:04Z</time>
      </trkpt>
      <trkpt lat="42.9258590" lon="-8.1977500">
        <ele>381.8</ele>
        <time>2021-07-26T06:55:05Z</time>
      </trkpt>
      <trkpt lat="42.9258530" lon="-8.1977770">
        <ele>381.4</ele>
        <time>2021-07-26T06:55:06Z</time>
      </trkpt>
      <trkpt lat="42.9258520" lon="-8.1978000">
        <ele>381.0</ele>
        <time>2021-07-26T06:55:07Z</time>
      </trkpt>
      <trkpt lat="42.9258520" lon="-8.1978270">
        <ele>380.6</ele>
        <time>2021-07-26T06:55:08Z</time>
      </trkpt>
      <trkpt lat="42.9258610" lon="-8.1978500">
        <ele>380.0</ele>
        <time>2021-07-26T06:55:09Z</time>
      </trkpt>
      <trkpt lat="42.9258720" lon="-8.1978720">
        <ele>380.0</ele>
        <time>2021-07-26T06:55:10Z</time>
      </trkpt>
      <trkpt lat="42.9258970" lon="-8.1979040">
        <ele>379.6</ele>
        <time>2021-07-26T06:55:12Z</time>
      </trkpt>
      <trkpt lat="42.9259130" lon="-8.1979220">
        <ele>379.2</ele>
        <time>2021-07-26T06:55:13Z</time>
      </trkpt>
      <trkpt lat="42.9259290" lon="-8.1979460">
        <ele>378.8</ele>
        <time>2021-07-26T06:55:14Z</time>
      </trkpt>
      <trkpt lat="42.9259460" lon="-8.1979740">
        <ele>378.4</ele>
        <time>2021-07-26T06:55:15Z</time>
      </trkpt>
      <trkpt lat="42.9259690" lon="-8.1980000">
        <ele>378.0</ele>
        <time>2021-07-26T06:55:16Z</time>
      </trkpt>
      <trkpt lat="42.9259930" lon="-8.1980220">
        <ele>378.0</ele>
        <time>2021-07-26T06:55:17Z</time>
      </trkpt>
      <trkpt lat="42.9260480" lon="-8.1980710">
        <ele>377.6</ele>
        <time>2021-07-26T06:55:19Z</time>
      </trkpt>
      <trkpt lat="42.9260750" lon="-8.1980990">
        <ele>376.8</ele>
        <time>2021-07-26T06:55:20Z</time>
      </trkpt>
      <trkpt lat="42.9260980" lon="-8.1981270">
        <ele>376.4</ele>
        <time>2021-07-26T06:55:21Z</time>
      </trkpt>
      <trkpt lat="42.9261200" lon="-8.1981590">
        <ele>376.0</ele>
        <time>2021-07-26T06:55:22Z</time>
      </trkpt>
      <trkpt lat="42.9261640" lon="-8.1982160">
        <ele>376.0</ele>
        <time>2021-07-26T06:55:24Z</time>
      </trkpt>
      <trkpt lat="42.9261850" lon="-8.1982480">
        <ele>375.6</ele>
        <time>2021-07-26T06:55:25Z</time>
      </trkpt>
      <trkpt lat="42.9261980" lon="-8.1982780">
        <ele>375.0</ele>
        <time>2021-07-26T06:55:26Z</time>
      </trkpt>
      <trkpt lat="42.9262120" lon="-8.1983050">
        <ele>374.6</ele>
        <time>2021-07-26T06:55:27Z</time>
      </trkpt>
      <trkpt lat="42.9262290" lon="-8.1983280">
        <ele>374.2</ele>
        <time>2021-07-26T06:55:28Z</time>
      </trkpt>
      <trkpt lat="42.9262510" lon="-8.1983510">
        <ele>373.8</ele>
        <time>2021-07-26T06:55:29Z</time>
      </trkpt>
      <trkpt lat="42.9262720" lon="-8.1983800">
        <ele>373.4</ele>
        <time>2021-07-26T06:55:30Z</time>
      </trkpt>
      <trkpt lat="42.9262890" lon="-8.1984100">
        <ele>373.0</ele>
        <time>2021-07-26T06:55:31Z</time>
      </trkpt>
      <trkpt lat="42.9263020" lon="-8.1984380">
        <ele>372.6</ele>
        <time>2021-07-26T06:55:32Z</time>
      </trkpt>
      <trkpt lat="42.9263150" lon="-8.1984610">
        <ele>372.2</ele>
        <time>2021-07-26T06:55:33Z</time>
      </trkpt>
      <trkpt lat="42.9263250" lon="-8.1984880">
        <ele>371.8</ele>
        <time>2021-07-26T06:55:34Z</time>
      </trkpt>
      <trkpt lat="42.9263330" lon="-8.1985080">
        <ele>371.8</ele>
        <time>2021-07-26T06:55:35Z</time>
      </trkpt>
      <trkpt lat="42.9263750" lon="-8.1985780">
        <ele>371.2</ele>
        <time>2021-07-26T06:55:38Z</time>
      </trkpt>
      <trkpt lat="42.9263910" lon="-8.1986010">
        <ele>370.8</ele>
        <time>2021-07-26T06:55:39Z</time>
      </trkpt>
      <trkpt lat="42.9264090" lon="-8.1986300">
        <ele>370.4</ele>
        <time>2021-07-26T06:55:40Z</time>
      </trkpt>
      <trkpt lat="42.9264290" lon="-8.1986590">
        <ele>369.8</ele>
        <time>2021-07-26T06:55:41Z</time>
      </trkpt>
      <trkpt lat="42.9264460" lon="-8.1986870">
        <ele>369.4</ele>
        <time>2021-07-26T06:55:42Z</time>
      </trkpt>
      <trkpt lat="42.9264960" lon="-8.1987570">
        <ele>368.6</ele>
        <time>2021-07-26T06:55:45Z</time>
      </trkpt>
      <trkpt lat="42.9265170" lon="-8.1987760">
        <ele>368.0</ele>
        <time>2021-07-26T06:55:46Z</time>
      </trkpt>
      <trkpt lat="42.9265400" lon="-8.1987970">
        <ele>367.6</ele>
        <time>2021-07-26T06:55:47Z</time>
      </trkpt>
      <trkpt lat="42.9265650" lon="-8.1988150">
        <ele>367.2</ele>
        <time>2021-07-26T06:55:48Z</time>
      </trkpt>
      <trkpt lat="42.9266150" lon="-8.1988620">
        <ele>366.8</ele>
        <time>2021-07-26T06:55:50Z</time>
      </trkpt>
      <trkpt lat="42.9266420" lon="-8.1988880">
        <ele>366.4</ele>
        <time>2021-07-26T06:55:51Z</time>
      </trkpt>
      <trkpt lat="42.9266750" lon="-8.1989140">
        <ele>366.0</ele>
        <time>2021-07-26T06:55:52Z</time>
      </trkpt>
      <trkpt lat="42.9267060" lon="-8.1989400">
        <ele>365.6</ele>
        <time>2021-07-26T06:55:53Z</time>
      </trkpt>
      <trkpt lat="42.9267420" lon="-8.1989680">
        <ele>365.0</ele>
        <time>2021-07-26T06:55:54Z</time>
      </trkpt>
      <trkpt lat="42.9268450" lon="-8.1990900">
        <ele>364.6</ele>
        <time>2021-07-26T06:55:57Z</time>
      </trkpt>
      <trkpt lat="42.9268790" lon="-8.1991300">
        <ele>364.2</ele>
        <time>2021-07-26T06:55:58Z</time>
      </trkpt>
      <trkpt lat="42.9269110" lon="-8.1991680">
        <ele>363.8</ele>
        <time>2021-07-26T06:55:59Z</time>
      </trkpt>
      <trkpt lat="42.9269460" lon="-8.1992170">
        <ele>363.4</ele>
        <time>2021-07-26T06:56:00Z</time>
      </trkpt>
      <trkpt lat="42.9269780" lon="-8.1992650">
        <ele>363.0</ele>
        <time>2021-07-26T06:56:01Z</time>
      </trkpt>
      <trkpt lat="42.9270070" lon="-8.1993200">
        <ele>362.6</ele>
        <time>2021-07-26T06:56:02Z</time>
      </trkpt>
      <trkpt lat="42.9270270" lon="-8.1993650">
        <ele>362.0</ele>
        <time>2021-07-26T06:56:03Z</time>
      </trkpt>
      <trkpt lat="42.9270480" lon="-8.1994020">
        <ele>361.6</ele>
        <time>2021-07-26T06:56:04Z</time>
      </trkpt>
      <trkpt lat="42.9270720" lon="-8.1994400">
        <ele>361.2</ele>
        <time>2021-07-26T06:56:05Z</time>
      </trkpt>
      <trkpt lat="42.9270940" lon="-8.1994740">
        <ele>360.8</ele>
        <time>2021-07-26T06:56:06Z</time>
      </trkpt>
      <trkpt lat="42.9271140" lon="-8.1995130">
        <ele>360.4</ele>
        <time>2021-07-26T06:56:07Z</time>
      </trkpt>
      <trkpt lat="42.9271280" lon="-8.1995480">
        <ele>360.0</ele>
        <time>2021-07-26T06:56:08Z</time>
      </trkpt>
      <trkpt lat="42.9271390" lon="-8.1995860">
        <ele>359.2</ele>
        <time>2021-07-26T06:56:09Z</time>
      </trkpt>
      <trkpt lat="42.9271540" lon="-8.1996240">
        <ele>358.8</ele>
        <time>2021-07-26T06:56:10Z</time>
      </trkpt>
      <trkpt lat="42.9271890" lon="-8.1996890">
        <ele>358.8</ele>
        <time>2021-07-26T06:56:12Z</time>
      </trkpt>
      <trkpt lat="42.9272390" lon="-8.1997880">
        <ele>358.8</ele>
        <time>2021-07-26T06:56:15Z</time>
      </trkpt>
      <trkpt lat="42.9272780" lon="-8.1998820">
        <ele>358.8</ele>
        <time>2021-07-26T06:56:17Z</time>
      </trkpt>
      <trkpt lat="42.9273180" lon="-8.1999930">
        <ele>358.4</ele>
        <time>2021-07-26T06:56:19Z</time>
      </trkpt>
      <trkpt lat="42.9273360" lon="-8.2000500">
        <ele>358.0</ele>
        <time>2021-07-26T06:56:20Z</time>
      </trkpt>
      <trkpt lat="42.9273560" lon="-8.2001060">
        <ele>357.6</ele>
        <time>2021-07-26T06:56:21Z</time>
      </trkpt>
      <trkpt lat="42.9273800" lon="-8.2001600">
        <ele>357.2</ele>
        <time>2021-07-26T06:56:22Z</time>
      </trkpt>
      <trkpt lat="42.9274010" lon="-8.2002070">
        <ele>356.6</ele>
        <time>2021-07-26T06:56:23Z</time>
      </trkpt>
      <trkpt lat="42.9274780" lon="-8.2003980">
        <ele>356.6</ele>
        <time>2021-07-26T06:56:28Z</time>
      </trkpt>
      <trkpt lat="42.9275540" lon="-8.2005980">
        <ele>355.8</ele>
        <time>2021-07-26T06:56:34Z</time>
      </trkpt>
      <trkpt lat="42.9275640" lon="-8.2006270">
        <ele>355.4</ele>
        <time>2021-07-26T06:56:35Z</time>
      </trkpt>
      <trkpt lat="42.9275730" lon="-8.2006540">
        <ele>355.0</ele>
        <time>2021-07-26T06:56:36Z</time>
      </trkpt>
      <trkpt lat="42.9275850" lon="-8.2006820">
        <ele>354.6</ele>
        <time>2021-07-26T06:56:37Z</time>
      </trkpt>
      <trkpt lat="42.9276380" lon="-8.2007870">
        <ele>354.6</ele>
        <time>2021-07-26T06:56:41Z</time>
      </trkpt>
      <trkpt lat="42.9276660" lon="-8.2008930">
        <ele>354.6</ele>
        <time>2021-07-26T06:56:44Z</time>
      </trkpt>
      <trkpt lat="42.9276710" lon="-8.2009570">
        <ele>354.6</ele>
        <time>2021-07-26T06:56:46Z</time>
      </trkpt>
      <trkpt lat="42.9276670" lon="-8.2010040">
        <ele>354.6</ele>
        <time>2021-07-26T06:56:48Z</time>
      </trkpt>
      <trkpt lat="42.9276670" lon="-8.2010490">
        <ele>354.6</ele>
        <time>2021-07-26T06:56:50Z</time>
      </trkpt>
      <trkpt lat="42.9276580" lon="-8.2010890">
        <ele>354.6</ele>
        <time>2021-07-26T06:56:52Z</time>
      </trkpt>
      <trkpt lat="42.9276550" lon="-8.2011290">
        <ele>354.6</ele>
        <time>2021-07-26T06:56:54Z</time>
      </trkpt>
      <trkpt lat="42.9276510" lon="-8.2011890">
        <ele>354.6</ele>
        <time>2021-07-26T06:56:57Z</time>
      </trkpt>
      <trkpt lat="42.9276410" lon="-8.2012320">
        <ele>354.6</ele>
        <time>2021-07-26T06:56:59Z</time>
      </trkpt>
      <trkpt lat="42.9276360" lon="-8.2012600">
        <ele>355.0</ele>
        <time>2021-07-26T06:57:00Z</time>
      </trkpt>
      <trkpt lat="42.9276250" lon="-8.2012930">
        <ele>355.6</ele>
        <time>2021-07-26T06:57:01Z</time>
      </trkpt>
      <trkpt lat="42.9276230" lon="-8.2013180">
        <ele>356.0</ele>
        <time>2021-07-26T06:57:02Z</time>
      </trkpt>
      <trkpt lat="42.9276200" lon="-8.2013450">
        <ele>356.4</ele>
        <time>2021-07-26T06:57:03Z</time>
      </trkpt>
      <trkpt lat="42.9276290" lon="-8.2013660">
        <ele>356.8</ele>
        <time>2021-07-26T06:57:04Z</time>
      </trkpt>
      <trkpt lat="42.9276410" lon="-8.2014090">
        <ele>356.8</ele>
        <time>2021-07-26T06:57:06Z</time>
      </trkpt>
      <trkpt lat="42.9276630" lon="-8.2015240">
        <ele>356.8</ele>
        <time>2021-07-26T06:57:11Z</time>
      </trkpt>
      <trkpt lat="42.9276710" lon="-8.2015570">
        <ele>357.2</ele>
        <time>2021-07-26T06:57:13Z</time>
      </trkpt>
      <trkpt lat="42.9276710" lon="-8.2015760">
        <ele>357.8</ele>
        <time>2021-07-26T06:57:14Z</time>
      </trkpt>
      <trkpt lat="42.9276790" lon="-8.2015930">
        <ele>358.2</ele>
        <time>2021-07-26T06:57:15Z</time>
      </trkpt>
      <trkpt lat="42.9276880" lon="-8.2016190">
        <ele>358.6</ele>
        <time>2021-07-26T06:57:16Z</time>
      </trkpt>
      <trkpt lat="42.9277000" lon="-8.2016470">
        <ele>359.0</ele>
        <time>2021-07-26T06:57:17Z</time>
      </trkpt>
      <trkpt lat="42.9277070" lon="-8.2017030">
        <ele>359.0</ele>
        <time>2021-07-26T06:57:20Z</time>
      </trkpt>
      <trkpt lat="42.9277140" lon="-8.2017300">
        <ele>359.0</ele>
        <time>2021-07-26T06:57:21Z</time>
      </trkpt>
      <trkpt lat="42.9277190" lon="-8.2017520">
        <ele>359.4</ele>
        <time>2021-07-26T06:57:22Z</time>
      </trkpt>
      <trkpt lat="42.9277220" lon="-8.2017740">
        <ele>359.8</ele>
        <time>2021-07-26T06:57:23Z</time>
      </trkpt>
      <trkpt lat="42.9277250" lon="-8.2018000">
        <ele>360.2</ele>
        <time>2021-07-26T06:57:24Z</time>
      </trkpt>
      <trkpt lat="42.9277280" lon="-8.2018260">
        <ele>360.6</ele>
        <time>2021-07-26T06:57:25Z</time>
      </trkpt>
      <trkpt lat="42.9277310" lon="-8.2018480">
        <ele>361.0</ele>
        <time>2021-07-26T06:57:26Z</time>
      </trkpt>
      <trkpt lat="42.9277390" lon="-8.2019040">
        <ele>361.0</ele>
        <time>2021-07-26T06:57:29Z</time>
      </trkpt>
      <trkpt lat="42.9277610" lon="-8.2019850">
        <ele>361.4</ele>
        <time>2021-07-26T06:57:33Z</time>
      </trkpt>
      <trkpt lat="42.9277650" lon="-8.2020020">
        <ele>362.0</ele>
        <time>2021-07-26T06:57:34Z</time>
      </trkpt>
      <trkpt lat="42.9277660" lon="-8.2020210">
        <ele>362.4</ele>
        <time>2021-07-26T06:57:35Z</time>
      </trkpt>
      <trkpt lat="42.9277660" lon="-8.2020390">
        <ele>362.8</ele>
        <time>2021-07-26T06:57:36Z</time>
      </trkpt>
      <trkpt lat="42.9277650" lon="-8.2020700">
        <ele>363.2</ele>
        <time>2021-07-26T06:57:37Z</time>
      </trkpt>
      <trkpt lat="42.9277710" lon="-8.2021980">
        <ele>363.2</ele>
        <time>2021-07-26T06:57:43Z</time>
      </trkpt>
      <trkpt lat="42.9277700" lon="-8.2022150">
        <ele>363.6</ele>
        <time>2021-07-26T06:57:44Z</time>
      </trkpt>
      <trkpt lat="42.9277720" lon="-8.2022310">
        <ele>364.0</ele>
        <time>2021-07-26T06:57:45Z</time>
      </trkpt>
      <trkpt lat="42.9277760" lon="-8.2022500">
        <ele>364.4</ele>
        <time>2021-07-26T06:57:46Z</time>
      </trkpt>
      <trkpt lat="42.9277810" lon="-8.2022670">
        <ele>365.2</ele>
        <time>2021-07-26T06:57:47Z</time>
      </trkpt>
      <trkpt lat="42.9277920" lon="-8.2023170">
        <ele>365.2</ele>
        <time>2021-07-26T06:57:51Z</time>
      </trkpt>
      <trkpt lat="42.9277670" lon="-8.2024010">
        <ele>365.2</ele>
        <time>2021-07-26T06:57:55Z</time>
      </trkpt>
      <trkpt lat="42.9277640" lon="-8.2024520">
        <ele>365.6</ele>
        <time>2021-07-26T06:57:57Z</time>
      </trkpt>
      <trkpt lat="42.9277620" lon="-8.2024750">
        <ele>366.2</ele>
        <time>2021-07-26T06:57:58Z</time>
      </trkpt>
      <trkpt lat="42.9277590" lon="-8.2024940">
        <ele>366.6</ele>
        <time>2021-07-26T06:57:59Z</time>
      </trkpt>
      <trkpt lat="42.9277580" lon="-8.2025110">
        <ele>367.0</ele>
        <time>2021-07-26T06:58:00Z</time>
      </trkpt>
      <trkpt lat="42.9277560" lon="-8.2025330">
        <ele>367.4</ele>
        <time>2021-07-26T06:58:01Z</time>
      </trkpt>
      <trkpt lat="42.9277390" lon="-8.2026020">
        <ele>367.4</ele>
        <time>2021-07-26T06:58:05Z</time>
      </trkpt>
      <trkpt lat="42.9277270" lon="-8.2027100">
        <ele>367.8</ele>
        <time>2021-07-26T06:58:11Z</time>
      </trkpt>
      <trkpt lat="42.9277280" lon="-8.2027160">
        <ele>368.8</ele>
        <time>2021-07-26T06:58:12Z</time>
      </trkpt>
      <trkpt lat="42.9277320" lon="-8.2027340">
        <ele>369.2</ele>
        <time>2021-07-26T06:58:13Z</time>
      </trkpt>
      <trkpt lat="42.9277320" lon="-8.2027420">
        <ele>369.6</ele>
        <time>2021-07-26T06:58:14Z</time>
      </trkpt>
      <trkpt lat="42.9277270" lon="-8.2028050">
        <ele>369.6</ele>
        <time>2021-07-26T06:58:18Z</time>
      </trkpt>
      <trkpt lat="42.9276830" lon="-8.2030180">
        <ele>370.0</ele>
        <time>2021-07-26T06:58:28Z</time>
      </trkpt>
      <trkpt lat="42.9276810" lon="-8.2030440">
        <ele>370.6</ele>
        <time>2021-07-26T06:58:29Z</time>
      </trkpt>
      <trkpt lat="42.9276760" lon="-8.2030710">
        <ele>371.0</ele>
        <time>2021-07-26T06:58:30Z</time>
      </trkpt>
      <trkpt lat="42.9276700" lon="-8.2030900">
        <ele>371.4</ele>
        <time>2021-07-26T06:58:31Z</time>
      </trkpt>
      <trkpt lat="42.9276650" lon="-8.2031040">
        <ele>371.8</ele>
        <time>2021-07-26T06:58:32Z</time>
      </trkpt>
      <trkpt lat="42.9276550" lon="-8.2031800">
        <ele>371.8</ele>
        <time>2021-07-26T06:58:36Z</time>
      </trkpt>
      <trkpt lat="42.9276390" lon="-8.2033260">
        <ele>372.2</ele>
        <time>2021-07-26T06:58:43Z</time>
      </trkpt>
      <trkpt lat="42.9276370" lon="-8.2033450">
        <ele>372.6</ele>
        <time>2021-07-26T06:58:44Z</time>
      </trkpt>
      <trkpt lat="42.9276310" lon="-8.2033660">
        <ele>373.2</ele>
        <time>2021-07-26T06:58:45Z</time>
      </trkpt>
      <trkpt lat="42.9276260" lon="-8.2033880">
        <ele>373.6</ele>
        <time>2021-07-26T06:58:46Z</time>
      </trkpt>
      <trkpt lat="42.9276210" lon="-8.2034070">
        <ele>374.0</ele>
        <time>2021-07-26T06:58:47Z</time>
      </trkpt>
      <trkpt lat="42.9275920" lon="-8.2035240">
        <ele>374.0</ele>
        <time>2021-07-26T06:58:52Z</time>
      </trkpt>
      <trkpt lat="42.9275400" lon="-8.2037070">
        <ele>374.0</ele>
        <time>2021-07-26T06:59:01Z</time>
      </trkpt>
      <trkpt lat="42.9275290" lon="-8.2037300">
        <ele>374.4</ele>
        <time>2021-07-26T06:59:03Z</time>
      </trkpt>
      <trkpt lat="42.9275260" lon="-8.2037380">
        <ele>374.8</ele>
        <time>2021-07-26T06:59:04Z</time>
      </trkpt>
      <trkpt lat="42.9275230" lon="-8.2037560">
        <ele>375.2</ele>
        <time>2021-07-26T06:59:05Z</time>
      </trkpt>
      <trkpt lat="42.9275180" lon="-8.2037750">
        <ele>375.6</ele>
        <time>2021-07-26T06:59:06Z</time>
      </trkpt>
      <trkpt lat="42.9275130" lon="-8.2037990">
        <ele>376.0</ele>
        <time>2021-07-26T06:59:07Z</time>
      </trkpt>
      <trkpt lat="42.9275000" lon="-8.2038850">
        <ele>376.0</ele>
        <time>2021-07-26T06:59:11Z</time>
      </trkpt>
      <trkpt lat="42.9274910" lon="-8.2039700">
        <ele>376.0</ele>
        <time>2021-07-26T06:59:15Z</time>
      </trkpt>
      <trkpt lat="42.9274830" lon="-8.2040540">
        <ele>376.4</ele>
        <time>2021-07-26T06:59:19Z</time>
      </trkpt>
      <trkpt lat="42.9274790" lon="-8.2040740">
        <ele>376.8</ele>
        <time>2021-07-26T06:59:20Z</time>
      </trkpt>
      <trkpt lat="42.9274800" lon="-8.2040930">
        <ele>377.2</ele>
        <time>2021-07-26T06:59:21Z</time>
      </trkpt>
      <trkpt lat="42.9274800" lon="-8.2041100">
        <ele>377.6</ele>
        <time>2021-07-26T06:59:22Z</time>
      </trkpt>
      <trkpt lat="42.9274830" lon="-8.2041260">
        <ele>378.0</ele>
        <time>2021-07-26T06:59:23Z</time>
      </trkpt>
      <trkpt lat="42.9274770" lon="-8.2042510">
        <ele>378.0</ele>
        <time>2021-07-26T06:59:30Z</time>
      </trkpt>
      <trkpt lat="42.9274550" lon="-8.2044130">
        <ele>378.0</ele>
        <time>2021-07-26T06:59:36Z</time>
      </trkpt>
      <trkpt lat="42.9274540" lon="-8.2044400">
        <ele>378.4</ele>
        <time>2021-07-26T06:59:37Z</time>
      </trkpt>
      <trkpt lat="42.9274480" lon="-8.2044590">
        <ele>378.8</ele>
        <time>2021-07-26T06:59:38Z</time>
      </trkpt>
      <trkpt lat="42.9274450" lon="-8.2044760">
        <ele>379.4</ele>
        <time>2021-07-26T06:59:39Z</time>
      </trkpt>
      <trkpt lat="42.9274430" lon="-8.2044950">
        <ele>379.8</ele>
        <time>2021-07-26T06:59:40Z</time>
      </trkpt>
      <trkpt lat="42.9274440" lon="-8.2045140">
        <ele>380.2</ele>
        <time>2021-07-26T06:59:41Z</time>
      </trkpt>
      <trkpt lat="42.9274450" lon="-8.2045350">
        <ele>380.2</ele>
        <time>2021-07-26T06:59:42Z</time>
      </trkpt>
      <trkpt lat="42.9274400" lon="-8.2047240">
        <ele>380.2</ele>
        <time>2021-07-26T06:59:50Z</time>
      </trkpt>
      <trkpt lat="42.9274320" lon="-8.2048200">
        <ele>380.6</ele>
        <time>2021-07-26T06:59:53Z</time>
      </trkpt>
      <trkpt lat="42.9274300" lon="-8.2048490">
        <ele>381.0</ele>
        <time>2021-07-26T06:59:54Z</time>
      </trkpt>
      <trkpt lat="42.9274290" lon="-8.2048710">
        <ele>381.4</ele>
        <time>2021-07-26T06:59:55Z</time>
      </trkpt>
      <trkpt lat="42.9274300" lon="-8.2048910">
        <ele>381.8</ele>
        <time>2021-07-26T06:59:56Z</time>
      </trkpt>
      <trkpt lat="42.9274320" lon="-8.2049140">
        <ele>382.2</ele>
        <time>2021-07-26T06:59:57Z</time>
      </trkpt>
      <trkpt lat="42.9274360" lon="-8.2050630">
        <ele>382.2</ele>
        <time>2021-07-26T07:00:02Z</time>
      </trkpt>
      <trkpt lat="42.9274450" lon="-8.2052050">
        <ele>382.8</ele>
        <time>2021-07-26T07:00:07Z</time>
      </trkpt>
      <trkpt lat="42.9274400" lon="-8.2052380">
        <ele>383.2</ele>
        <time>2021-07-26T07:00:08Z</time>
      </trkpt>
      <trkpt lat="42.9274360" lon="-8.2052740">
        <ele>383.6</ele>
        <time>2021-07-26T07:00:09Z</time>
      </trkpt>
      <trkpt lat="42.9274360" lon="-8.2053110">
        <ele>384.0</ele>
        <time>2021-07-26T07:00:10Z</time>
      </trkpt>
      <trkpt lat="42.9274330" lon="-8.2053460">
        <ele>384.4</ele>
        <time>2021-07-26T07:00:11Z</time>
      </trkpt>
      <trkpt lat="42.9274310" lon="-8.2054100">
        <ele>384.4</ele>
        <time>2021-07-26T07:00:13Z</time>
      </trkpt>
      <trkpt lat="42.9274200" lon="-8.2055440">
        <ele>384.4</ele>
        <time>2021-07-26T07:00:19Z</time>
      </trkpt>
      <trkpt lat="42.9274320" lon="-8.2057040">
        <ele>384.8</ele>
        <time>2021-07-26T07:00:24Z</time>
      </trkpt>
      <trkpt lat="42.9274340" lon="-8.2057370">
        <ele>385.2</ele>
        <time>2021-07-26T07:00:25Z</time>
      </trkpt>
      <trkpt lat="42.9274340" lon="-8.2057710">
        <ele>385.8</ele>
        <time>2021-07-26T07:00:26Z</time>
      </trkpt>
      <trkpt lat="42.9274380" lon="-8.2057990">
        <ele>386.2</ele>
        <time>2021-07-26T07:00:27Z</time>
      </trkpt>
      <trkpt lat="42.9274430" lon="-8.2058240">
        <ele>386.6</ele>
        <time>2021-07-26T07:00:28Z</time>
      </trkpt>
      <trkpt lat="42.9274570" lon="-8.2059230">
        <ele>386.6</ele>
        <time>2021-07-26T07:00:32Z</time>
      </trkpt>
      <trkpt lat="42.9274540" lon="-8.2060650">
        <ele>386.6</ele>
        <time>2021-07-26T07:00:38Z</time>
      </trkpt>
      <trkpt lat="42.9274630" lon="-8.2061730">
        <ele>387.0</ele>
        <time>2021-07-26T07:00:42Z</time>
      </trkpt>
      <trkpt lat="42.9274640" lon="-8.2062020">
        <ele>387.4</ele>
        <time>2021-07-26T07:00:43Z</time>
      </trkpt>
      <trkpt lat="42.9274630" lon="-8.2062350">
        <ele>387.8</ele>
        <time>2021-07-26T07:00:44Z</time>
      </trkpt>
      <trkpt lat="42.9274630" lon="-8.2062610">
        <ele>388.2</ele>
        <time>2021-07-26T07:00:45Z</time>
      </trkpt>
      <trkpt lat="42.9274650" lon="-8.2062840">
        <ele>388.6</ele>
        <time>2021-07-26T07:00:46Z</time>
      </trkpt>
      <trkpt lat="42.9274640" lon="-8.2064200">
        <ele>388.6</ele>
        <time>2021-07-26T07:00:51Z</time>
      </trkpt>
      <trkpt lat="42.9274910" lon="-8.2066290">
        <ele>388.6</ele>
        <time>2021-07-26T07:00:59Z</time>
      </trkpt>
      <trkpt lat="42.9275020" lon="-8.2066770">
        <ele>389.0</ele>
        <time>2021-07-26T07:01:01Z</time>
      </trkpt>
      <trkpt lat="42.9275020" lon="-8.2067100">
        <ele>389.4</ele>
        <time>2021-07-26T07:01:02Z</time>
      </trkpt>
      <trkpt lat="42.9275020" lon="-8.2067380">
        <ele>389.8</ele>
        <time>2021-07-26T07:01:03Z</time>
      </trkpt>
      <trkpt lat="42.9275150" lon="-8.2067860">
        <ele>390.2</ele>
        <time>2021-07-26T07:01:04Z</time>
      </trkpt>
      <trkpt lat="42.9275360" lon="-8.2068470">
        <ele>390.6</ele>
        <time>2021-07-26T07:01:05Z</time>
      </trkpt>
      <trkpt lat="42.9275750" lon="-8.2070650">
        <ele>390.6</ele>
        <time>2021-07-26T07:01:11Z</time>
      </trkpt>
      <trkpt lat="42.9275860" lon="-8.2073280">
        <ele>390.6</ele>
        <time>2021-07-26T07:01:18Z</time>
      </trkpt>
      <trkpt lat="42.9276280" lon="-8.2075610">
        <ele>391.0</ele>
        <time>2021-07-26T07:01:25Z</time>
      </trkpt>
      <trkpt lat="42.9276310" lon="-8.2075940">
        <ele>391.4</ele>
        <time>2021-07-26T07:01:26Z</time>
      </trkpt>
      <trkpt lat="42.9276290" lon="-8.2076210">
        <ele>391.8</ele>
        <time>2021-07-26T07:01:27Z</time>
      </trkpt>
      <trkpt lat="42.9276260" lon="-8.2076430">
        <ele>392.2</ele>
        <time>2021-07-26T07:01:28Z</time>
      </trkpt>
      <trkpt lat="42.9276190" lon="-8.2076610">
        <ele>392.8</ele>
        <time>2021-07-26T07:01:29Z</time>
      </trkpt>
      <trkpt lat="42.9276010" lon="-8.2076990">
        <ele>392.8</ele>
        <time>2021-07-26T07:01:31Z</time>
      </trkpt>
      <trkpt lat="42.9275980" lon="-8.2078070">
        <ele>392.8</ele>
        <time>2021-07-26T07:01:35Z</time>
      </trkpt>
      <trkpt lat="42.9276500" lon="-8.2078940">
        <ele>392.8</ele>
        <time>2021-07-26T07:01:39Z</time>
      </trkpt>
      <trkpt lat="42.9276680" lon="-8.2079270">
        <ele>392.8</ele>
        <time>2021-07-26T07:01:41Z</time>
      </trkpt>
      <trkpt lat="42.9276810" lon="-8.2079680">
        <ele>393.2</ele>
        <time>2021-07-26T07:01:43Z</time>
      </trkpt>
      <trkpt lat="42.9276900" lon="-8.2079880">
        <ele>393.6</ele>
        <time>2021-07-26T07:01:44Z</time>
      </trkpt>
      <trkpt lat="42.9276980" lon="-8.2080160">
        <ele>394.0</ele>
        <time>2021-07-26T07:01:45Z</time>
      </trkpt>
      <trkpt lat="42.9277060" lon="-8.2080440">
        <ele>394.4</ele>
        <time>2021-07-26T07:01:46Z</time>
      </trkpt>
      <trkpt lat="42.9277190" lon="-8.2080780">
        <ele>394.8</ele>
        <time>2021-07-26T07:01:47Z</time>
      </trkpt>
      <trkpt lat="42.9277850" lon="-8.2082880">
        <ele>394.8</ele>
        <time>2021-07-26T07:01:53Z</time>
      </trkpt>
      <trkpt lat="42.9278690" lon="-8.2084930">
        <ele>394.8</ele>
        <time>2021-07-26T07:01:59Z</time>
      </trkpt>
      <trkpt lat="42.9279380" lon="-8.2086380">
        <ele>395.2</ele>
        <time>2021-07-26T07:02:04Z</time>
      </trkpt>
      <trkpt lat="42.9279560" lon="-8.2086740">
        <ele>395.6</ele>
        <time>2021-07-26T07:02:05Z</time>
      </trkpt>
      <trkpt lat="42.9279710" lon="-8.2087060">
        <ele>396.0</ele>
        <time>2021-07-26T07:02:06Z</time>
      </trkpt>
      <trkpt lat="42.9279840" lon="-8.2087260">
        <ele>396.4</ele>
        <time>2021-07-26T07:02:07Z</time>
      </trkpt>
      <trkpt lat="42.9279940" lon="-8.2087480">
        <ele>397.0</ele>
        <time>2021-07-26T07:02:08Z</time>
      </trkpt>
      <trkpt lat="42.9280630" lon="-8.2089120">
        <ele>397.0</ele>
        <time>2021-07-26T07:02:14Z</time>
      </trkpt>
      <trkpt lat="42.9281500" lon="-8.2091020">
        <ele>397.4</ele>
        <time>2021-07-26T07:02:20Z</time>
      </trkpt>
      <trkpt lat="42.9281660" lon="-8.2091230">
        <ele>397.8</ele>
        <time>2021-07-26T07:02:21Z</time>
      </trkpt>
      <trkpt lat="42.9281790" lon="-8.2091570">
        <ele>398.2</ele>
        <time>2021-07-26T07:02:22Z</time>
      </trkpt>
      <trkpt lat="42.9281920" lon="-8.2091840">
        <ele>398.6</ele>
        <time>2021-07-26T07:02:23Z</time>
      </trkpt>
      <trkpt lat="42.9282040" lon="-8.2092080">
        <ele>399.0</ele>
        <time>2021-07-26T07:02:24Z</time>
      </trkpt>
      <trkpt lat="42.9282320" lon="-8.2092840">
        <ele>399.0</ele>
        <time>2021-07-26T07:02:27Z</time>
      </trkpt>
      <trkpt lat="42.9282800" lon="-8.2094590">
        <ele>399.4</ele>
        <time>2021-07-26T07:02:34Z</time>
      </trkpt>
      <trkpt lat="42.9282870" lon="-8.2094810">
        <ele>399.8</ele>
        <time>2021-07-26T07:02:35Z</time>
      </trkpt>
      <trkpt lat="42.9282980" lon="-8.2095030">
        <ele>400.2</ele>
        <time>2021-07-26T07:02:36Z</time>
      </trkpt>
      <trkpt lat="42.9283070" lon="-8.2095250">
        <ele>400.6</ele>
        <time>2021-07-26T07:02:37Z</time>
      </trkpt>
      <trkpt lat="42.9283110" lon="-8.2095480">
        <ele>401.0</ele>
        <time>2021-07-26T07:02:38Z</time>
      </trkpt>
      <trkpt lat="42.9283320" lon="-8.2096420">
        <ele>401.0</ele>
        <time>2021-07-26T07:02:41Z</time>
      </trkpt>
      <trkpt lat="42.9284150" lon="-8.2098680">
        <ele>401.0</ele>
        <time>2021-07-26T07:02:48Z</time>
      </trkpt>
      <trkpt lat="42.9284760" lon="-8.2100710">
        <ele>401.0</ele>
        <time>2021-07-26T07:02:54Z</time>
      </trkpt>
      <trkpt lat="42.9285300" lon="-8.2102850">
        <ele>401.0</ele>
        <time>2021-07-26T07:03:00Z</time>
      </trkpt>
      <trkpt lat="42.9285400" lon="-8.2103210">
        <ele>401.0</ele>
        <time>2021-07-26T07:03:01Z</time>
      </trkpt>
      <trkpt lat="42.9285700" lon="-8.2104710">
        <ele>401.0</ele>
        <time>2021-07-26T07:03:05Z</time>
      </trkpt>
      <trkpt lat="42.9285860" lon="-8.2105600">
        <ele>401.0</ele>
        <time>2021-07-26T07:03:07Z</time>
      </trkpt>
      <trkpt lat="42.9286050" lon="-8.2106730">
        <ele>401.0</ele>
        <time>2021-07-26T07:03:09Z</time>
      </trkpt>
      <trkpt lat="42.9286210" lon="-8.2108560">
        <ele>401.0</ele>
        <time>2021-07-26T07:03:12Z</time>
      </trkpt>
      <trkpt lat="42.9286250" lon="-8.2110660">
        <ele>401.0</ele>
        <time>2021-07-26T07:03:15Z</time>
      </trkpt>
      <trkpt lat="42.9286410" lon="-8.2112190">
        <ele>401.0</ele>
        <time>2021-07-26T07:03:17Z</time>
      </trkpt>
      <trkpt lat="42.9286450" lon="-8.2112950">
        <ele>401.0</ele>
        <time>2021-07-26T07:03:18Z</time>
      </trkpt>
      <trkpt lat="42.9286630" lon="-8.2117240">
        <ele>401.0</ele>
        <time>2021-07-26T07:03:24Z</time>
      </trkpt>
      <trkpt lat="42.9286800" lon="-8.2118670">
        <ele>400.6</ele>
        <time>2021-07-26T07:03:26Z</time>
      </trkpt>
      <trkpt lat="42.9286850" lon="-8.2119360">
        <ele>400.2</ele>
        <time>2021-07-26T07:03:27Z</time>
      </trkpt>
      <trkpt lat="42.9286910" lon="-8.2120000">
        <ele>399.8</ele>
        <time>2021-07-26T07:03:28Z</time>
      </trkpt>
      <trkpt lat="42.9286980" lon="-8.2120610">
        <ele>399.4</ele>
        <time>2021-07-26T07:03:29Z</time>
      </trkpt>
      <trkpt lat="42.9287020" lon="-8.2121210">
        <ele>399.0</ele>
        <time>2021-07-26T07:03:30Z</time>
      </trkpt>
      <trkpt lat="42.9287150" lon="-8.2122400">
        <ele>399.0</ele>
        <time>2021-07-26T07:03:32Z</time>
      </trkpt>
      <trkpt lat="42.9287200" lon="-8.2123480">
        <ele>399.0</ele>
        <time>2021-07-26T07:03:34Z</time>
      </trkpt>
      <trkpt lat="42.9287420" lon="-8.2125360">
        <ele>399.0</ele>
        <time>2021-07-26T07:03:38Z</time>
      </trkpt>
      <trkpt lat="42.9287400" lon="-8.2126270">
        <ele>399.0</ele>
        <time>2021-07-26T07:03:40Z</time>
      </trkpt>
      <trkpt lat="42.9287320" lon="-8.2127750">
        <ele>399.0</ele>
        <time>2021-07-26T07:03:43Z</time>
      </trkpt>
      <trkpt lat="42.9287390" lon="-8.2131930">
        <ele>399.0</ele>
        <time>2021-07-26T07:03:51Z</time>
      </trkpt>
      <trkpt lat="42.9287560" lon="-8.2133930">
        <ele>399.0</ele>
        <time>2021-07-26T07:03:55Z</time>
      </trkpt>
      <trkpt lat="42.9287720" lon="-8.2134940">
        <ele>399.0</ele>
        <time>2021-07-26T07:03:57Z</time>
      </trkpt>
      <trkpt lat="42.9287780" lon="-8.2135460">
        <ele>399.0</ele>
        <time>2021-07-26T07:03:58Z</time>
      </trkpt>
      <trkpt lat="42.9287890" lon="-8.2137770">
        <ele>399.0</ele>
        <time>2021-07-26T07:04:02Z</time>
      </trkpt>
      <trkpt lat="42.9287790" lon="-8.2138700">
        <ele>399.0</ele>
        <time>2021-07-26T07:04:04Z</time>
      </trkpt>
      <trkpt lat="42.9287010" lon="-8.2141570">
        <ele>399.0</ele>
        <time>2021-07-26T07:04:11Z</time>
      </trkpt>
      <trkpt lat="42.9286410" lon="-8.2143230">
        <ele>399.0</ele>
        <time>2021-07-26T07:04:17Z</time>
      </trkpt>
      <trkpt lat="42.9285570" lon="-8.2144880">
        <ele>399.0</ele>
        <time>2021-07-26T07:04:21Z</time>
      </trkpt>
      <trkpt lat="42.9284280" lon="-8.2147670">
        <ele>399.0</ele>
        <time>2021-07-26T07:04:27Z</time>
      </trkpt>
      <trkpt lat="42.9283360" lon="-8.2150220">
        <ele>399.0</ele>
        <time>2021-07-26T07:04:33Z</time>
      </trkpt>
      <trkpt lat="42.9282810" lon="-8.2151760">
        <ele>399.0</ele>
        <time>2021-07-26T07:04:37Z</time>
      </trkpt>
      <trkpt lat="42.9282210" lon="-8.2153080">
        <ele>399.0</ele>
        <time>2021-07-26T07:04:40Z</time>
      </trkpt>
      <trkpt lat="42.9280880" lon="-8.2155840">
        <ele>399.0</ele>
        <time>2021-07-26T07:04:46Z</time>
      </trkpt>
      <trkpt lat="42.9279950" lon="-8.2158020">
        <ele>399.0</ele>
        <time>2021-07-26T07:04:50Z</time>
      </trkpt>
      <trkpt lat="42.9279500" lon="-8.2159220">
        <ele>399.0</ele>
        <time>2021-07-26T07:04:52Z</time>
      </trkpt>
      <trkpt lat="42.9279190" lon="-8.2160460">
        <ele>399.0</ele>
        <time>2021-07-26T07:04:54Z</time>
      </trkpt>
      <trkpt lat="42.9278630" lon="-8.2162330">
        <ele>399.0</ele>
        <time>2021-07-26T07:04:57Z</time>
      </trkpt>
      <trkpt lat="42.9277840" lon="-8.2164260">
        <ele>399.0</ele>
        <time>2021-07-26T07:05:00Z</time>
      </trkpt>
      <trkpt lat="42.9275730" lon="-8.2169740">
        <ele>399.0</ele>
        <time>2021-07-26T07:05:07Z</time>
      </trkpt>
      <trkpt lat="42.9275400" lon="-8.2170610">
        <ele>398.6</ele>
        <time>2021-07-26T07:05:08Z</time>
      </trkpt>
      <trkpt lat="42.9275060" lon="-8.2171480">
        <ele>398.2</ele>
        <time>2021-07-26T07:05:09Z</time>
      </trkpt>
      <trkpt lat="42.9274700" lon="-8.2172350">
        <ele>397.8</ele>
        <time>2021-07-26T07:05:10Z</time>
      </trkpt>
      <trkpt lat="42.9274330" lon="-8.2173260">
        <ele>397.4</ele>
        <time>2021-07-26T07:05:11Z</time>
      </trkpt>
      <trkpt lat="42.9273960" lon="-8.2174200">
        <ele>397.0</ele>
        <time>2021-07-26T07:05:12Z</time>
      </trkpt>
      <trkpt lat="42.9273220" lon="-8.2176000">
        <ele>396.4</ele>
        <time>2021-07-26T07:05:14Z</time>
      </trkpt>
      <trkpt lat="42.9272860" lon="-8.2176820">
        <ele>396.0</ele>
        <time>2021-07-26T07:05:15Z</time>
      </trkpt>
      <trkpt lat="42.9272480" lon="-8.2177670">
        <ele>395.6</ele>
        <time>2021-07-26T07:05:16Z</time>
      </trkpt>
      <trkpt lat="42.9272150" lon="-8.2178370">
        <ele>395.0</ele>
        <time>2021-07-26T07:05:17Z</time>
      </trkpt>
      <trkpt lat="42.9271820" lon="-8.2178970">
        <ele>394.4</ele>
        <time>2021-07-26T07:05:18Z</time>
      </trkpt>
      <trkpt lat="42.9271530" lon="-8.2179480">
        <ele>393.8</ele>
        <time>2021-07-26T07:05:19Z</time>
      </trkpt>
      <trkpt lat="42.9271210" lon="-8.2179880">
        <ele>393.2</ele>
        <time>2021-07-26T07:05:20Z</time>
      </trkpt>
      <trkpt lat="42.9270890" lon="-8.2180210">
        <ele>392.4</ele>
        <time>2021-07-26T07:05:21Z</time>
      </trkpt>
      <trkpt lat="42.9270560" lon="-8.2180430">
        <ele>391.8</ele>
        <time>2021-07-26T07:05:22Z</time>
      </trkpt>
      <trkpt lat="42.9270310" lon="-8.2180580">
        <ele>391.2</ele>
        <time>2021-07-26T07:05:23Z</time>
      </trkpt>
      <trkpt lat="42.9270080" lon="-8.2180780">
        <ele>390.8</ele>
        <time>2021-07-26T07:05:24Z</time>
      </trkpt>
      <trkpt lat="42.9269920" lon="-8.2181110">
        <ele>390.2</ele>
        <time>2021-07-26T07:05:25Z</time>
      </trkpt>
      <trkpt lat="42.9269760" lon="-8.2181450">
        <ele>389.6</ele>
        <time>2021-07-26T07:05:26Z</time>
      </trkpt>
      <trkpt lat="42.9269630" lon="-8.2181910">
        <ele>389.6</ele>
        <time>2021-07-26T07:05:27Z</time>
      </trkpt>
      <trkpt lat="42.9269330" lon="-8.2183020">
        <ele>389.2</ele>
        <time>2021-07-26T07:05:29Z</time>
      </trkpt>
      <trkpt lat="42.9269130" lon="-8.2183560">
        <ele>388.6</ele>
        <time>2021-07-26T07:05:30Z</time>
      </trkpt>
      <trkpt lat="42.9268990" lon="-8.2184070">
        <ele>388.2</ele>
        <time>2021-07-26T07:05:31Z</time>
      </trkpt>
      <trkpt lat="42.9268860" lon="-8.2184610">
        <ele>387.8</ele>
        <time>2021-07-26T07:05:32Z</time>
      </trkpt>
      <trkpt lat="42.9268730" lon="-8.2185110">
        <ele>387.4</ele>
        <time>2021-07-26T07:05:33Z</time>
      </trkpt>
      <trkpt lat="42.9268580" lon="-8.2185540">
        <ele>387.0</ele>
        <time>2021-07-26T07:05:34Z</time>
      </trkpt>
      <trkpt lat="42.9268420" lon="-8.2185920">
        <ele>386.6</ele>
        <time>2021-07-26T07:05:35Z</time>
      </trkpt>
      <trkpt lat="42.9268290" lon="-8.2186240">
        <ele>386.0</ele>
        <time>2021-07-26T07:05:36Z</time>
      </trkpt>
      <trkpt lat="42.9268160" lon="-8.2186560">
        <ele>385.2</ele>
        <time>2021-07-26T07:05:37Z</time>
      </trkpt>
      <trkpt lat="42.9268010" lon="-8.2186840">
        <ele>385.2</ele>
        <time>2021-07-26T07:05:38Z</time>
      </trkpt>
      <trkpt lat="42.9267430" lon="-8.2188240">
        <ele>384.8</ele>
        <time>2021-07-26T07:05:42Z</time>
      </trkpt>
      <trkpt lat="42.9267290" lon="-8.2188620">
        <ele>384.4</ele>
        <time>2021-07-26T07:05:43Z</time>
      </trkpt>
      <trkpt lat="42.9267140" lon="-8.2189040">
        <ele>384.0</ele>
        <time>2021-07-26T07:05:44Z</time>
      </trkpt>
      <trkpt lat="42.9266980" lon="-8.2189470">
        <ele>383.6</ele>
        <time>2021-07-26T07:05:45Z</time>
      </trkpt>
      <trkpt lat="42.9266900" lon="-8.2189920">
        <ele>383.2</ele>
        <time>2021-07-26T07:05:46Z</time>
      </trkpt>
      <trkpt lat="42.9266400" lon="-8.2191950">
        <ele>383.2</ele>
        <time>2021-07-26T07:05:50Z</time>
      </trkpt>
      <trkpt lat="42.9265820" lon="-8.2195430">
        <ele>383.2</ele>
        <time>2021-07-26T07:05:55Z</time>
      </trkpt>
      <trkpt lat="42.9265700" lon="-8.2196140">
        <ele>383.2</ele>
        <time>2021-07-26T07:05:56Z</time>
      </trkpt>
      <trkpt lat="42.9265390" lon="-8.2197570">
        <ele>383.2</ele>
        <time>2021-07-26T07:05:58Z</time>
      </trkpt>
      <trkpt lat="42.9265240" lon="-8.2198170">
        <ele>383.2</ele>
        <time>2021-07-26T07:05:59Z</time>
      </trkpt>
      <trkpt lat="42.9264980" lon="-8.2199260">
        <ele>383.2</ele>
        <time>2021-07-26T07:06:01Z</time>
      </trkpt>
      <trkpt lat="42.9264760" lon="-8.2200280">
        <ele>383.2</ele>
        <time>2021-07-26T07:06:03Z</time>
      </trkpt>
      <trkpt lat="42.9264560" lon="-8.2201260">
        <ele>383.2</ele>
        <time>2021-07-26T07:06:05Z</time>
      </trkpt>
      <trkpt lat="42.9264230" lon="-8.2203230">
        <ele>383.2</ele>
        <time>2021-07-26T07:06:08Z</time>
      </trkpt>
      <trkpt lat="42.9263830" lon="-8.2204530">
        <ele>383.2</ele>
        <time>2021-07-26T07:06:10Z</time>
      </trkpt>
      <trkpt lat="42.9263190" lon="-8.2206560">
        <ele>383.2</ele>
        <time>2021-07-26T07:06:13Z</time>
      </trkpt>
      <trkpt lat="42.9262170" lon="-8.2210090">
        <ele>383.2</ele>
        <time>2021-07-26T07:06:18Z</time>
      </trkpt>
      <trkpt lat="42.9261200" lon="-8.2213660">
        <ele>383.2</ele>
        <time>2021-07-26T07:06:24Z</time>
      </trkpt>
      <trkpt lat="42.9260460" lon="-8.2215800">
        <ele>383.2</ele>
        <time>2021-07-26T07:06:29Z</time>
      </trkpt>
      <trkpt lat="42.9260150" lon="-8.2216520">
        <ele>383.2</ele>
        <time>2021-07-26T07:06:31Z</time>
      </trkpt>
      <trkpt lat="42.9259360" lon="-8.2218940">
        <ele>383.2</ele>
        <time>2021-07-26T07:06:37Z</time>
      </trkpt>
      <trkpt lat="42.9258830" lon="-8.2221330">
        <ele>383.2</ele>
        <time>2021-07-26T07:06:43Z</time>
      </trkpt>
      <trkpt lat="42.9258680" lon="-8.2222540">
        <ele>383.6</ele>
        <time>2021-07-26T07:06:46Z</time>
      </trkpt>
      <trkpt lat="42.9258630" lon="-8.2222910">
        <ele>384.0</ele>
        <time>2021-07-26T07:06:47Z</time>
      </trkpt>
      <trkpt lat="42.9258610" lon="-8.2223280">
        <ele>384.4</ele>
        <time>2021-07-26T07:06:48Z</time>
      </trkpt>
      <trkpt lat="42.9258630" lon="-8.2223630">
        <ele>384.8</ele>
        <time>2021-07-26T07:06:49Z</time>
      </trkpt>
      <trkpt lat="42.9258700" lon="-8.2223980">
        <ele>385.2</ele>
        <time>2021-07-26T07:06:50Z</time>
      </trkpt>
      <trkpt lat="42.9258910" lon="-8.2225840">
        <ele>385.2</ele>
        <time>2021-07-26T07:06:55Z</time>
      </trkpt>
      <trkpt lat="42.9258910" lon="-8.2228640">
        <ele>385.2</ele>
        <time>2021-07-26T07:07:02Z</time>
      </trkpt>
      <trkpt lat="42.9258220" lon="-8.2231240">
        <ele>385.2</ele>
        <time>2021-07-26T07:07:08Z</time>
      </trkpt>
      <trkpt lat="42.9257030" lon="-8.2234710">
        <ele>386.0</ele>
        <time>2021-07-26T07:07:16Z</time>
      </trkpt>
      <trkpt lat="42.9256850" lon="-8.2235110">
        <ele>386.4</ele>
        <time>2021-07-26T07:07:17Z</time>
      </trkpt>
      <trkpt lat="42.9256690" lon="-8.2235530">
        <ele>386.8</ele>
        <time>2021-07-26T07:07:18Z</time>
      </trkpt>
      <trkpt lat="42.9256600" lon="-8.2235960">
        <ele>387.2</ele>
        <time>2021-07-26T07:07:19Z</time>
      </trkpt>
      <trkpt lat="42.9256020" lon="-8.2238000">
        <ele>387.2</ele>
        <time>2021-07-26T07:07:24Z</time>
      </trkpt>
      <trkpt lat="42.9255890" lon="-8.2238410">
        <ele>387.2</ele>
        <time>2021-07-26T07:07:25Z</time>
      </trkpt>
      <trkpt lat="42.9255510" lon="-8.2239620">
        <ele>387.2</ele>
        <time>2021-07-26T07:07:29Z</time>
      </trkpt>
      <trkpt lat="42.9255410" lon="-8.2240130">
        <ele>387.2</ele>
        <time>2021-07-26T07:07:31Z</time>
      </trkpt>
      <trkpt lat="42.9255070" lon="-8.2240930">
        <ele>387.2</ele>
        <time>2021-07-26T07:07:34Z</time>
      </trkpt>
      <trkpt lat="42.9254440" lon="-8.2242110">
        <ele>387.2</ele>
        <time>2021-07-26T07:07:37Z</time>
      </trkpt>
      <trkpt lat="42.9253130" lon="-8.2244350">
        <ele>387.2</ele>
        <time>2021-07-26T07:07:42Z</time>
      </trkpt>
      <trkpt lat="42.9252610" lon="-8.2245260">
        <ele>387.2</ele>
        <time>2021-07-26T07:07:44Z</time>
      </trkpt>
      <trkpt lat="42.9252370" lon="-8.2245740">
        <ele>387.2</ele>
        <time>2021-07-26T07:07:45Z</time>
      </trkpt>
      <trkpt lat="42.9251820" lon="-8.2247310">
        <ele>387.2</ele>
        <time>2021-07-26T07:07:48Z</time>
      </trkpt>
      <trkpt lat="42.9251470" lon="-8.2248260">
        <ele>387.2</ele>
        <time>2021-07-26T07:07:50Z</time>
      </trkpt>
      <trkpt lat="42.9251270" lon="-8.2248730">
        <ele>387.2</ele>
        <time>2021-07-26T07:07:51Z</time>
      </trkpt>
      <trkpt lat="42.9250720" lon="-8.2250240">
        <ele>387.2</ele>
        <time>2021-07-26T07:07:54Z</time>
      </trkpt>
      <trkpt lat="42.9250190" lon="-8.2251700">
        <ele>387.2</ele>
        <time>2021-07-26T07:07:57Z</time>
      </trkpt>
      <trkpt lat="42.9249800" lon="-8.2253170">
        <ele>387.2</ele>
        <time>2021-07-26T07:08:00Z</time>
      </trkpt>
      <trkpt lat="42.9249110" lon="-8.2254910">
        <ele>387.2</ele>
        <time>2021-07-26T07:08:04Z</time>
      </trkpt>
      <trkpt lat="42.9248950" lon="-8.2255240">
        <ele>386.8</ele>
        <time>2021-07-26T07:08:05Z</time>
      </trkpt>
      <trkpt lat="42.9248840" lon="-8.2255510">
        <ele>386.4</ele>
        <time>2021-07-26T07:08:06Z</time>
      </trkpt>
      <trkpt lat="42.9248760" lon="-8.2255790">
        <ele>386.0</ele>
        <time>2021-07-26T07:08:07Z</time>
      </trkpt>
      <trkpt lat="42.9248660" lon="-8.2256030">
        <ele>385.6</ele>
        <time>2021-07-26T07:08:08Z</time>
      </trkpt>
      <trkpt lat="42.9248540" lon="-8.2256330">
        <ele>385.2</ele>
        <time>2021-07-26T07:08:09Z</time>
      </trkpt>
      <trkpt lat="42.9247830" lon="-8.2258030">
        <ele>385.2</ele>
        <time>2021-07-26T07:08:13Z</time>
      </trkpt>
      <trkpt lat="42.9247570" lon="-8.2258530">
        <ele>385.2</ele>
        <time>2021-07-26T07:08:14Z</time>
      </trkpt>
      <trkpt lat="42.9246740" lon="-8.2260560">
        <ele>385.2</ele>
        <time>2021-07-26T07:08:19Z</time>
      </trkpt>
      <trkpt lat="42.9246470" lon="-8.2261220">
        <ele>384.8</ele>
        <time>2021-07-26T07:08:22Z</time>
      </trkpt>
      <trkpt lat="42.9246340" lon="-8.2261510">
        <ele>384.4</ele>
        <time>2021-07-26T07:08:23Z</time>
      </trkpt>
      <trkpt lat="42.9246270" lon="-8.2261740">
        <ele>384.0</ele>
        <time>2021-07-26T07:08:24Z</time>
      </trkpt>
      <trkpt lat="42.9246190" lon="-8.2261940">
        <ele>383.6</ele>
        <time>2021-07-26T07:08:25Z</time>
      </trkpt>
      <trkpt lat="42.9246100" lon="-8.2262140">
        <ele>383.2</ele>
        <time>2021-07-26T07:08:26Z</time>
      </trkpt>
      <trkpt lat="42.9245400" lon="-8.2263480">
        <ele>383.2</ele>
        <time>2021-07-26T07:08:30Z</time>
      </trkpt>
      <trkpt lat="42.9244680" lon="-8.2264280">
        <ele>383.2</ele>
        <time>2021-07-26T07:08:32Z</time>
      </trkpt>
      <trkpt lat="42.9243960" lon="-8.2265030">
        <ele>383.2</ele>
        <time>2021-07-26T07:08:34Z</time>
      </trkpt>
      <trkpt lat="42.9240460" lon="-8.2268770">
        <ele>383.2</ele>
        <time>2021-07-26T07:08:44Z</time>
      </trkpt>
      <trkpt lat="42.9239910" lon="-8.2269370">
        <ele>383.2</ele>
        <time>2021-07-26T07:08:46Z</time>
      </trkpt>
      <trkpt lat="42.9239550" lon="-8.2269830">
        <ele>382.6</ele>
        <time>2021-07-26T07:08:48Z</time>
      </trkpt>
      <trkpt lat="42.9239380" lon="-8.2270130">
        <ele>382.2</ele>
        <time>2021-07-26T07:08:49Z</time>
      </trkpt>
      <trkpt lat="42.9239260" lon="-8.2270490">
        <ele>381.8</ele>
        <time>2021-07-26T07:08:50Z</time>
      </trkpt>
      <trkpt lat="42.9239080" lon="-8.2270910">
        <ele>381.4</ele>
        <time>2021-07-26T07:08:51Z</time>
      </trkpt>
      <trkpt lat="42.9238900" lon="-8.2271360">
        <ele>381.0</ele>
        <time>2021-07-26T07:08:52Z</time>
      </trkpt>
      <trkpt lat="42.9238520" lon="-8.2272390">
        <ele>381.0</ele>
        <time>2021-07-26T07:08:54Z</time>
      </trkpt>
      <trkpt lat="42.9238080" lon="-8.2273400">
        <ele>381.0</ele>
        <time>2021-07-26T07:08:56Z</time>
      </trkpt>
      <trkpt lat="42.9237660" lon="-8.2274360">
        <ele>381.0</ele>
        <time>2021-07-26T07:08:58Z</time>
      </trkpt>
      <trkpt lat="42.9236980" lon="-8.2275510">
        <ele>381.0</ele>
        <time>2021-07-26T07:09:01Z</time>
      </trkpt>
      <trkpt lat="42.9236190" lon="-8.2276880">
        <ele>381.0</ele>
        <time>2021-07-26T07:09:04Z</time>
      </trkpt>
      <trkpt lat="42.9235560" lon="-8.2278220">
        <ele>381.0</ele>
        <time>2021-07-26T07:09:07Z</time>
      </trkpt>
      <trkpt lat="42.9235080" lon="-8.2279450">
        <ele>381.0</ele>
        <time>2021-07-26T07:09:11Z</time>
      </trkpt>
      <trkpt lat="42.9234770" lon="-8.2280240">
        <ele>381.0</ele>
        <time>2021-07-26T07:09:14Z</time>
      </trkpt>
      <trkpt lat="42.9234310" lon="-8.2281230">
        <ele>381.0</ele>
        <time>2021-07-26T07:09:18Z</time>
      </trkpt>
      <trkpt lat="42.9234210" lon="-8.2281420">
        <ele>381.4</ele>
        <time>2021-07-26T07:09:19Z</time>
      </trkpt>
      <trkpt lat="42.9234160" lon="-8.2281560">
        <ele>382.4</ele>
        <time>2021-07-26T07:09:20Z</time>
      </trkpt>
      <trkpt lat="42.9234070" lon="-8.2281740">
        <ele>382.8</ele>
        <time>2021-07-26T07:09:21Z</time>
      </trkpt>
      <trkpt lat="42.9233960" lon="-8.2281930">
        <ele>383.2</ele>
        <time>2021-07-26T07:09:22Z</time>
      </trkpt>
      <trkpt lat="42.9233710" lon="-8.2282510">
        <ele>383.2</ele>
        <time>2021-07-26T07:09:26Z</time>
      </trkpt>
      <trkpt lat="42.9233660" lon="-8.2282660">
        <ele>383.2</ele>
        <time>2021-07-26T07:09:27Z</time>
      </trkpt>
      <trkpt lat="42.9233380" lon="-8.2283130">
        <ele>383.6</ele>
        <time>2021-07-26T07:09:30Z</time>
      </trkpt>
      <trkpt lat="42.9233250" lon="-8.2283270">
        <ele>384.0</ele>
        <time>2021-07-26T07:09:31Z</time>
      </trkpt>
      <trkpt lat="42.9233160" lon="-8.2283450">
        <ele>384.4</ele>
        <time>2021-07-26T07:09:32Z</time>
      </trkpt>
      <trkpt lat="42.9233030" lon="-8.2283630">
        <ele>384.8</ele>
        <time>2021-07-26T07:09:33Z</time>
      </trkpt>
      <trkpt lat="42.9232820" lon="-8.2283850">
        <ele>385.4</ele>
        <time>2021-07-26T07:09:34Z</time>
      </trkpt>
      <trkpt lat="42.9232180" lon="-8.2284690">
        <ele>385.4</ele>
        <time>2021-07-26T07:09:38Z</time>
      </trkpt>
      <trkpt lat="42.9231940" lon="-8.2284990">
        <ele>385.4</ele>
        <time>2021-07-26T07:09:40Z</time>
      </trkpt>
      <trkpt lat="42.9231780" lon="-8.2285160">
        <ele>385.4</ele>
        <time>2021-07-26T07:09:41Z</time>
      </trkpt>
      <trkpt lat="42.9231270" lon="-8.2285670">
        <ele>385.8</ele>
        <time>2021-07-26T07:09:45Z</time>
      </trkpt>
      <trkpt lat="42.9231120" lon="-8.2285840">
        <ele>386.2</ele>
        <time>2021-07-26T07:09:46Z</time>
      </trkpt>
      <trkpt lat="42.9231040" lon="-8.2285980">
        <ele>386.6</ele>
        <time>2021-07-26T07:09:47Z</time>
      </trkpt>
      <trkpt lat="42.9230950" lon="-8.2286140">
        <ele>387.0</ele>
        <time>2021-07-26T07:09:48Z</time>
      </trkpt>
      <trkpt lat="42.9230830" lon="-8.2286330">
        <ele>387.4</ele>
        <time>2021-07-26T07:09:49Z</time>
      </trkpt>
      <trkpt lat="42.9230730" lon="-8.2286510">
        <ele>387.4</ele>
        <time>2021-07-26T07:09:50Z</time>
      </trkpt>
      <trkpt lat="42.9229820" lon="-8.2287740">
        <ele>387.4</ele>
        <time>2021-07-26T07:09:59Z</time>
      </trkpt>
      <trkpt lat="42.9229050" lon="-8.2288960">
        <ele>387.8</ele>
        <time>2021-07-26T07:10:07Z</time>
      </trkpt>
      <trkpt lat="42.9228950" lon="-8.2289170">
        <ele>388.2</ele>
        <time>2021-07-26T07:10:08Z</time>
      </trkpt>
      <trkpt lat="42.9228870" lon="-8.2289380">
        <ele>389.0</ele>
        <time>2021-07-26T07:10:09Z</time>
      </trkpt>
      <trkpt lat="42.9228760" lon="-8.2289610">
        <ele>389.4</ele>
        <time>2021-07-26T07:10:10Z</time>
      </trkpt>
      <trkpt lat="42.9228450" lon="-8.2290380">
        <ele>389.4</ele>
        <time>2021-07-26T07:10:14Z</time>
      </trkpt>
      <trkpt lat="42.9227860" lon="-8.2291990">
        <ele>389.4</ele>
        <time>2021-07-26T07:10:20Z</time>
      </trkpt>
      <trkpt lat="42.9227800" lon="-8.2292260">
        <ele>389.4</ele>
        <time>2021-07-26T07:10:21Z</time>
      </trkpt>
      <trkpt lat="42.9227240" lon="-8.2292970">
        <ele>390.0</ele>
        <time>2021-07-26T07:10:23Z</time>
      </trkpt>
      <trkpt lat="42.9227110" lon="-8.2293230">
        <ele>390.4</ele>
        <time>2021-07-26T07:10:24Z</time>
      </trkpt>
      <trkpt lat="42.9226890" lon="-8.2293550">
        <ele>390.8</ele>
        <time>2021-07-26T07:10:25Z</time>
      </trkpt>
      <trkpt lat="42.9226690" lon="-8.2293910">
        <ele>391.2</ele>
        <time>2021-07-26T07:10:26Z</time>
      </trkpt>
      <trkpt lat="42.9226490" lon="-8.2294300">
        <ele>391.6</ele>
        <time>2021-07-26T07:10:27Z</time>
      </trkpt>
      <trkpt lat="42.9225680" lon="-8.2296250">
        <ele>391.6</ele>
        <time>2021-07-26T07:10:33Z</time>
      </trkpt>
      <trkpt lat="42.9224560" lon="-8.2298890">
        <ele>391.6</ele>
        <time>2021-07-26T07:10:41Z</time>
      </trkpt>
      <trkpt lat="42.9223540" lon="-8.2301530">
        <ele>392.0</ele>
        <time>2021-07-26T07:10:49Z</time>
      </trkpt>
      <trkpt lat="42.9223350" lon="-8.2301900">
        <ele>392.4</ele>
        <time>2021-07-26T07:10:50Z</time>
      </trkpt>
      <trkpt lat="42.9223210" lon="-8.2302220">
        <ele>392.8</ele>
        <time>2021-07-26T07:10:51Z</time>
      </trkpt>
      <trkpt lat="42.9223090" lon="-8.2302550">
        <ele>393.2</ele>
        <time>2021-07-26T07:10:52Z</time>
      </trkpt>
      <trkpt lat="42.9222940" lon="-8.2302920">
        <ele>393.6</ele>
        <time>2021-07-26T07:10:53Z</time>
      </trkpt>
      <trkpt lat="42.9222730" lon="-8.2303690">
        <ele>393.6</ele>
        <time>2021-07-26T07:10:55Z</time>
      </trkpt>
      <trkpt lat="42.9222120" lon="-8.2306390">
        <ele>393.6</ele>
        <time>2021-07-26T07:11:00Z</time>
      </trkpt>
      <trkpt lat="42.9221360" lon="-8.2308600">
        <ele>393.6</ele>
        <time>2021-07-26T07:11:03Z</time>
      </trkpt>
      <trkpt lat="42.9220920" lon="-8.2310270">
        <ele>393.6</ele>
        <time>2021-07-26T07:11:05Z</time>
      </trkpt>
      <trkpt lat="42.9220720" lon="-8.2311080">
        <ele>393.2</ele>
        <time>2021-07-26T07:11:06Z</time>
      </trkpt>
      <trkpt lat="42.9220540" lon="-8.2311850">
        <ele>392.8</ele>
        <time>2021-07-26T07:11:07Z</time>
      </trkpt>
      <trkpt lat="42.9220370" lon="-8.2312590">
        <ele>392.4</ele>
        <time>2021-07-26T07:11:08Z</time>
      </trkpt>
      <trkpt lat="42.9220170" lon="-8.2313300">
        <ele>392.0</ele>
        <time>2021-07-26T07:11:09Z</time>
      </trkpt>
      <trkpt lat="42.9220010" lon="-8.2313940">
        <ele>391.4</ele>
        <time>2021-07-26T07:11:10Z</time>
      </trkpt>
      <trkpt lat="42.9219820" lon="-8.2314600">
        <ele>391.0</ele>
        <time>2021-07-26T07:11:11Z</time>
      </trkpt>
      <trkpt lat="42.9219560" lon="-8.2315260">
        <ele>390.4</ele>
        <time>2021-07-26T07:11:12Z</time>
      </trkpt>
      <trkpt lat="42.9219250" lon="-8.2315910">
        <ele>390.0</ele>
        <time>2021-07-26T07:11:13Z</time>
      </trkpt>
      <trkpt lat="42.9218930" lon="-8.2316520">
        <ele>389.4</ele>
        <time>2021-07-26T07:11:14Z</time>
      </trkpt>
      <trkpt lat="42.9218310" lon="-8.2317930">
        <ele>389.4</ele>
        <time>2021-07-26T07:11:16Z</time>
      </trkpt>
      <trkpt lat="42.9217740" lon="-8.2319410">
        <ele>389.0</ele>
        <time>2021-07-26T07:11:18Z</time>
      </trkpt>
      <trkpt lat="42.9217520" lon="-8.2320100">
        <ele>388.6</ele>
        <time>2021-07-26T07:11:19Z</time>
      </trkpt>
      <trkpt lat="42.9217280" lon="-8.2320700">
        <ele>388.0</ele>
        <time>2021-07-26T07:11:20Z</time>
      </trkpt>
      <trkpt lat="42.9217010" lon="-8.2321270">
        <ele>387.6</ele>
        <time>2021-07-26T07:11:21Z</time>
      </trkpt>
      <trkpt lat="42.9216720" lon="-8.2321770">
        <ele>387.2</ele>
        <time>2021-07-26T07:11:22Z</time>
      </trkpt>
      <trkpt lat="42.9216260" lon="-8.2322770">
        <ele>386.8</ele>
        <time>2021-07-26T07:11:24Z</time>
      </trkpt>
      <trkpt lat="42.9216070" lon="-8.2323240">
        <ele>386.4</ele>
        <time>2021-07-26T07:11:25Z</time>
      </trkpt>
      <trkpt lat="42.9215880" lon="-8.2323690">
        <ele>386.0</ele>
        <time>2021-07-26T07:11:26Z</time>
      </trkpt>
      <trkpt lat="42.9215670" lon="-8.2324140">
        <ele>385.6</ele>
        <time>2021-07-26T07:11:27Z</time>
      </trkpt>
      <trkpt lat="42.9215500" lon="-8.2324560">
        <ele>385.2</ele>
        <time>2021-07-26T07:11:28Z</time>
      </trkpt>
      <trkpt lat="42.9215220" lon="-8.2325240">
        <ele>385.2</ele>
        <time>2021-07-26T07:11:30Z</time>
      </trkpt>
      <trkpt lat="42.9215000" lon="-8.2325830">
        <ele>385.2</ele>
        <time>2021-07-26T07:11:32Z</time>
      </trkpt>
      <trkpt lat="42.9214890" lon="-8.2326610">
        <ele>385.2</ele>
        <time>2021-07-26T07:11:37Z</time>
      </trkpt>
      <trkpt lat="42.9214620" lon="-8.2327140">
        <ele>385.2</ele>
        <time>2021-07-26T07:11:40Z</time>
      </trkpt>
      <trkpt lat="42.9214340" lon="-8.2327590">
        <ele>385.2</ele>
        <time>2021-07-26T07:11:42Z</time>
      </trkpt>
      <trkpt lat="42.9214170" lon="-8.2327870">
        <ele>385.2</ele>
        <time>2021-07-26T07:11:43Z</time>
      </trkpt>
      <trkpt lat="42.9213870" lon="-8.2328460">
        <ele>385.2</ele>
        <time>2021-07-26T07:11:45Z</time>
      </trkpt>
      <trkpt lat="42.9213510" lon="-8.2329340">
        <ele>385.2</ele>
        <time>2021-07-26T07:11:49Z</time>
      </trkpt>
      <trkpt lat="42.9213170" lon="-8.2329990">
        <ele>384.6</ele>
        <time>2021-07-26T07:11:51Z</time>
      </trkpt>
      <trkpt lat="42.9212930" lon="-8.2330410">
        <ele>384.2</ele>
        <time>2021-07-26T07:11:52Z</time>
      </trkpt>
      <trkpt lat="42.9212700" lon="-8.2330860">
        <ele>383.8</ele>
        <time>2021-07-26T07:11:53Z</time>
      </trkpt>
      <trkpt lat="42.9212430" lon="-8.2331280">
        <ele>383.4</ele>
        <time>2021-07-26T07:11:54Z</time>
      </trkpt>
      <trkpt lat="42.9212260" lon="-8.2331600">
        <ele>383.0</ele>
        <time>2021-07-26T07:11:55Z</time>
      </trkpt>
      <trkpt lat="42.9211580" lon="-8.2333130">
        <ele>383.0</ele>
        <time>2021-07-26T07:11:59Z</time>
      </trkpt>
      <trkpt lat="42.9211040" lon="-8.2334020">
        <ele>383.0</ele>
        <time>2021-07-26T07:12:01Z</time>
      </trkpt>
      <trkpt lat="42.9209570" lon="-8.2337800">
        <ele>383.0</ele>
        <time>2021-07-26T07:12:08Z</time>
      </trkpt>
      <trkpt lat="42.9209420" lon="-8.2338470">
        <ele>383.0</ele>
        <time>2021-07-26T07:12:09Z</time>
      </trkpt>
      <trkpt lat="42.9208950" lon="-8.2340740">
        <ele>383.0</ele>
        <time>2021-07-26T07:12:12Z</time>
      </trkpt>
      <trkpt lat="42.9208750" lon="-8.2341480">
        <ele>383.0</ele>
        <time>2021-07-26T07:12:13Z</time>
      </trkpt>
      <trkpt lat="42.9208280" lon="-8.2343570">
        <ele>382.6</ele>
        <time>2021-07-26T07:12:16Z</time>
      </trkpt>
      <trkpt lat="42.9208140" lon="-8.2344280">
        <ele>382.2</ele>
        <time>2021-07-26T07:12:17Z</time>
      </trkpt>
      <trkpt lat="42.9207980" lon="-8.2344940">
        <ele>381.8</ele>
        <time>2021-07-26T07:12:18Z</time>
      </trkpt>
      <trkpt lat="42.9207800" lon="-8.2345530">
        <ele>381.4</ele>
        <time>2021-07-26T07:12:19Z</time>
      </trkpt>
      <trkpt lat="42.9207620" lon="-8.2346090">
        <ele>381.0</ele>
        <time>2021-07-26T07:12:20Z</time>
      </trkpt>
      <trkpt lat="42.9207110" lon="-8.2347840">
        <ele>381.0</ele>
        <time>2021-07-26T07:12:23Z</time>
      </trkpt>
      <trkpt lat="42.9206840" lon="-8.2348840">
        <ele>381.0</ele>
        <time>2021-07-26T07:12:25Z</time>
      </trkpt>
      <trkpt lat="42.9206580" lon="-8.2349740">
        <ele>381.0</ele>
        <time>2021-07-26T07:12:27Z</time>
      </trkpt>
      <trkpt lat="42.9206120" lon="-8.2350950">
        <ele>381.0</ele>
        <time>2021-07-26T07:12:31Z</time>
      </trkpt>
      <trkpt lat="42.9205450" lon="-8.2352430">
        <ele>381.0</ele>
        <time>2021-07-26T07:12:36Z</time>
      </trkpt>
      <trkpt lat="42.9205220" lon="-8.2353080">
        <ele>381.0</ele>
        <time>2021-07-26T07:12:38Z</time>
      </trkpt>
      <trkpt lat="42.9204950" lon="-8.2353610">
        <ele>381.0</ele>
        <time>2021-07-26T07:12:40Z</time>
      </trkpt>
      <trkpt lat="42.9204090" lon="-8.2355220">
        <ele>381.0</ele>
        <time>2021-07-26T07:12:45Z</time>
      </trkpt>
      <trkpt lat="42.9203560" lon="-8.2357750">
        <ele>381.0</ele>
        <time>2021-07-26T07:12:51Z</time>
      </trkpt>
      <trkpt lat="42.9203500" lon="-8.2361370">
        <ele>381.0</ele>
        <time>2021-07-26T07:12:57Z</time>
      </trkpt>
      <trkpt lat="42.9203520" lon="-8.2362590">
        <ele>380.6</ele>
        <time>2021-07-26T07:12:59Z</time>
      </trkpt>
      <trkpt lat="42.9203650" lon="-8.2363270">
        <ele>379.6</ele>
        <time>2021-07-26T07:13:00Z</time>
      </trkpt>
      <trkpt lat="42.9203730" lon="-8.2363930">
        <ele>379.0</ele>
        <time>2021-07-26T07:13:01Z</time>
      </trkpt>
      <trkpt lat="42.9203740" lon="-8.2364550">
        <ele>378.6</ele>
        <time>2021-07-26T07:13:02Z</time>
      </trkpt>
      <trkpt lat="42.9203700" lon="-8.2365100">
        <ele>378.6</ele>
        <time>2021-07-26T07:13:03Z</time>
      </trkpt>
      <trkpt lat="42.9203620" lon="-8.2365540">
        <ele>378.2</ele>
        <time>2021-07-26T07:13:04Z</time>
      </trkpt>
      <trkpt lat="42.9203550" lon="-8.2366000">
        <ele>377.8</ele>
        <time>2021-07-26T07:13:05Z</time>
      </trkpt>
      <trkpt lat="42.9203510" lon="-8.2366690">
        <ele>377.4</ele>
        <time>2021-07-26T07:13:06Z</time>
      </trkpt>
      <trkpt lat="42.9203510" lon="-8.2367140">
        <ele>377.0</ele>
        <time>2021-07-26T07:13:07Z</time>
      </trkpt>
      <trkpt lat="42.9203600" lon="-8.2367660">
        <ele>376.6</ele>
        <time>2021-07-26T07:13:08Z</time>
      </trkpt>
      <trkpt lat="42.9203760" lon="-8.2369330">
        <ele>376.0</ele>
        <time>2021-07-26T07:13:12Z</time>
      </trkpt>
      <trkpt lat="42.9203670" lon="-8.2369600">
        <ele>375.6</ele>
        <time>2021-07-26T07:13:13Z</time>
      </trkpt>
      <trkpt lat="42.9203660" lon="-8.2369900">
        <ele>375.0</ele>
        <time>2021-07-26T07:13:14Z</time>
      </trkpt>
      <trkpt lat="42.9203480" lon="-8.2370270">
        <ele>374.6</ele>
        <time>2021-07-26T07:13:15Z</time>
      </trkpt>
      <trkpt lat="42.9203330" lon="-8.2370530">
        <ele>374.0</ele>
        <time>2021-07-26T07:13:16Z</time>
      </trkpt>
      <trkpt lat="42.9202970" lon="-8.2371070">
        <ele>374.0</ele>
        <time>2021-07-26T07:13:18Z</time>
      </trkpt>
      <trkpt lat="42.9202810" lon="-8.2371430">
        <ele>373.6</ele>
        <time>2021-07-26T07:13:19Z</time>
      </trkpt>
      <trkpt lat="42.9202710" lon="-8.2371800">
        <ele>373.2</ele>
        <time>2021-07-26T07:13:20Z</time>
      </trkpt>
      <trkpt lat="42.9202650" lon="-8.2372180">
        <ele>372.6</ele>
        <time>2021-07-26T07:13:21Z</time>
      </trkpt>
      <trkpt lat="42.9202510" lon="-8.2372490">
        <ele>372.2</ele>
        <time>2021-07-26T07:13:22Z</time>
      </trkpt>
      <trkpt lat="42.9202350" lon="-8.2372740">
        <ele>371.8</ele>
        <time>2021-07-26T07:13:23Z</time>
      </trkpt>
      <trkpt lat="42.9202200" lon="-8.2372910">
        <ele>371.8</ele>
        <time>2021-07-26T07:13:24Z</time>
      </trkpt>
      <trkpt lat="42.9201980" lon="-8.2373130">
        <ele>370.8</ele>
        <time>2021-07-26T07:13:26Z</time>
      </trkpt>
      <trkpt lat="42.9201800" lon="-8.2373180">
        <ele>370.4</ele>
        <time>2021-07-26T07:13:27Z</time>
      </trkpt>
      <trkpt lat="42.9201590" lon="-8.2373280">
        <ele>370.0</ele>
        <time>2021-07-26T07:13:28Z</time>
      </trkpt>
      <trkpt lat="42.9201350" lon="-8.2373460">
        <ele>369.6</ele>
        <time>2021-07-26T07:13:29Z</time>
      </trkpt>
      <trkpt lat="42.9200660" lon="-8.2373830">
        <ele>369.6</ele>
        <time>2021-07-26T07:13:31Z</time>
      </trkpt>
      <trkpt lat="42.9198910" lon="-8.2375020">
        <ele>369.6</ele>
        <time>2021-07-26T07:13:36Z</time>
      </trkpt>
      <trkpt lat="42.9198670" lon="-8.2375290">
        <ele>369.6</ele>
        <time>2021-07-26T07:13:37Z</time>
      </trkpt>
      <trkpt lat="42.9198460" lon="-8.2375700">
        <ele>369.2</ele>
        <time>2021-07-26T07:13:38Z</time>
      </trkpt>
      <trkpt lat="42.9198280" lon="-8.2376100">
        <ele>368.8</ele>
        <time>2021-07-26T07:13:39Z</time>
      </trkpt>
      <trkpt lat="42.9198120" lon="-8.2376590">
        <ele>368.4</ele>
        <time>2021-07-26T07:13:40Z</time>
      </trkpt>
      <trkpt lat="42.9197960" lon="-8.2376930">
        <ele>368.0</ele>
        <time>2021-07-26T07:13:41Z</time>
      </trkpt>
      <trkpt lat="42.9197810" lon="-8.2377410">
        <ele>367.6</ele>
        <time>2021-07-26T07:13:42Z</time>
      </trkpt>
      <trkpt lat="42.9196800" lon="-8.2379810">
        <ele>367.6</ele>
        <time>2021-07-26T07:13:47Z</time>
      </trkpt>
      <trkpt lat="42.9196620" lon="-8.2380230">
        <ele>367.6</ele>
        <time>2021-07-26T07:13:48Z</time>
      </trkpt>
      <trkpt lat="42.9195980" lon="-8.2381860">
        <ele>367.6</ele>
        <time>2021-07-26T07:13:52Z</time>
      </trkpt>
      <trkpt lat="42.9195640" lon="-8.2382830">
        <ele>367.6</ele>
        <time>2021-07-26T07:13:54Z</time>
      </trkpt>
      <trkpt lat="42.9194370" lon="-8.2385580">
        <ele>367.6</ele>
        <time>2021-07-26T07:14:01Z</time>
      </trkpt>
      <trkpt lat="42.9194180" lon="-8.2386010">
        <ele>367.6</ele>
        <time>2021-07-26T07:14:02Z</time>
      </trkpt>
      <trkpt lat="42.9193630" lon="-8.2387170">
        <ele>367.6</ele>
        <time>2021-07-26T07:14:05Z</time>
      </trkpt>
      <trkpt lat="42.9193060" lon="-8.2388800">
        <ele>367.6</ele>
        <time>2021-07-26T07:14:09Z</time>
      </trkpt>
      <trkpt lat="42.9192570" lon="-8.2389940">
        <ele>367.6</ele>
        <time>2021-07-26T07:14:12Z</time>
      </trkpt>
      <trkpt lat="42.9192160" lon="-8.2390840">
        <ele>367.2</ele>
        <time>2021-07-26T07:14:14Z</time>
      </trkpt>
      <trkpt lat="42.9191930" lon="-8.2391350">
        <ele>366.2</ele>
        <time>2021-07-26T07:14:15Z</time>
      </trkpt>
      <trkpt lat="42.9191760" lon="-8.2391750">
        <ele>365.8</ele>
        <time>2021-07-26T07:14:16Z</time>
      </trkpt>
      <trkpt lat="42.9191590" lon="-8.2392130">
        <ele>365.4</ele>
        <time>2021-07-26T07:14:17Z</time>
      </trkpt>
      <trkpt lat="42.9191050" lon="-8.2393160">
        <ele>365.4</ele>
        <time>2021-07-26T07:14:20Z</time>
      </trkpt>
      <trkpt lat="42.9190880" lon="-8.2393430">
        <ele>365.0</ele>
        <time>2021-07-26T07:14:21Z</time>
      </trkpt>
      <trkpt lat="42.9190680" lon="-8.2393790">
        <ele>364.4</ele>
        <time>2021-07-26T07:14:22Z</time>
      </trkpt>
      <trkpt lat="42.9190480" lon="-8.2394150">
        <ele>364.0</ele>
        <time>2021-07-26T07:14:23Z</time>
      </trkpt>
      <trkpt lat="42.9190220" lon="-8.2394590">
        <ele>363.6</ele>
        <time>2021-07-26T07:14:24Z</time>
      </trkpt>
      <trkpt lat="42.9190020" lon="-8.2395010">
        <ele>363.2</ele>
        <time>2021-07-26T07:14:25Z</time>
      </trkpt>
      <trkpt lat="42.9189490" lon="-8.2396430">
        <ele>362.8</ele>
        <time>2021-07-26T07:14:28Z</time>
      </trkpt>
      <trkpt lat="42.9189350" lon="-8.2396750">
        <ele>362.2</ele>
        <time>2021-07-26T07:14:29Z</time>
      </trkpt>
      <trkpt lat="42.9188940" lon="-8.2397300">
        <ele>361.8</ele>
        <time>2021-07-26T07:14:30Z</time>
      </trkpt>
      <trkpt lat="42.9188700" lon="-8.2397720">
        <ele>361.4</ele>
        <time>2021-07-26T07:14:31Z</time>
      </trkpt>
      <trkpt lat="42.9188310" lon="-8.2398190">
        <ele>360.8</ele>
        <time>2021-07-26T07:14:32Z</time>
      </trkpt>
      <trkpt lat="42.9187600" lon="-8.2399080">
        <ele>360.4</ele>
        <time>2021-07-26T07:14:34Z</time>
      </trkpt>
      <trkpt lat="42.9187220" lon="-8.2399470">
        <ele>360.0</ele>
        <time>2021-07-26T07:14:35Z</time>
      </trkpt>
      <trkpt lat="42.9186840" lon="-8.2399880">
        <ele>359.6</ele>
        <time>2021-07-26T07:14:36Z</time>
      </trkpt>
      <trkpt lat="42.9186520" lon="-8.2400230">
        <ele>359.2</ele>
        <time>2021-07-26T07:14:37Z</time>
      </trkpt>
      <trkpt lat="42.9186150" lon="-8.2400710">
        <ele>358.8</ele>
        <time>2021-07-26T07:14:38Z</time>
      </trkpt>
      <trkpt lat="42.9185850" lon="-8.2401060">
        <ele>358.2</ele>
        <time>2021-07-26T07:14:39Z</time>
      </trkpt>
      <trkpt lat="42.9185570" lon="-8.2401370">
        <ele>357.4</ele>
        <time>2021-07-26T07:14:40Z</time>
      </trkpt>
      <trkpt lat="42.9185340" lon="-8.2401660">
        <ele>357.0</ele>
        <time>2021-07-26T07:14:41Z</time>
      </trkpt>
      <trkpt lat="42.9185110" lon="-8.2401940">
        <ele>356.4</ele>
        <time>2021-07-26T07:14:42Z</time>
      </trkpt>
      <trkpt lat="42.9184850" lon="-8.2402230">
        <ele>356.0</ele>
        <time>2021-07-26T07:14:43Z</time>
      </trkpt>
      <trkpt lat="42.9184580" lon="-8.2402460">
        <ele>355.6</ele>
        <time>2021-07-26T07:14:44Z</time>
      </trkpt>
      <trkpt lat="42.9184360" lon="-8.2402680">
        <ele>355.2</ele>
        <time>2021-07-26T07:14:45Z</time>
      </trkpt>
      <trkpt lat="42.9184170" lon="-8.2402850">
        <ele>354.8</ele>
        <time>2021-07-26T07:14:46Z</time>
      </trkpt>
      <trkpt lat="42.9184000" lon="-8.2403000">
        <ele>354.4</ele>
        <time>2021-07-26T07:14:47Z</time>
      </trkpt>
      <trkpt lat="42.9182730" lon="-8.2403800">
        <ele>354.4</ele>
        <time>2021-07-26T07:14:52Z</time>
      </trkpt>
      <trkpt lat="42.9181820" lon="-8.2404700">
        <ele>354.0</ele>
        <time>2021-07-26T07:14:55Z</time>
      </trkpt>
      <trkpt lat="42.9181590" lon="-8.2404980">
        <ele>353.4</ele>
        <time>2021-07-26T07:14:56Z</time>
      </trkpt>
      <trkpt lat="42.9181410" lon="-8.2405240">
        <ele>353.0</ele>
        <time>2021-07-26T07:14:57Z</time>
      </trkpt>
      <trkpt lat="42.9181280" lon="-8.2405450">
        <ele>352.6</ele>
        <time>2021-07-26T07:14:58Z</time>
      </trkpt>
      <trkpt lat="42.9181170" lon="-8.2405670">
        <ele>352.2</ele>
        <time>2021-07-26T07:14:59Z</time>
      </trkpt>
      <trkpt lat="42.9180970" lon="-8.2406300">
        <ele>352.2</ele>
        <time>2021-07-26T07:15:01Z</time>
      </trkpt>
      <trkpt lat="42.9180560" lon="-8.2407470">
        <ele>351.8</ele>
        <time>2021-07-26T07:15:04Z</time>
      </trkpt>
      <trkpt lat="42.9180430" lon="-8.2407870">
        <ele>351.0</ele>
        <time>2021-07-26T07:15:05Z</time>
      </trkpt>
      <trkpt lat="42.9180280" lon="-8.2408260">
        <ele>350.6</ele>
        <time>2021-07-26T07:15:06Z</time>
      </trkpt>
      <trkpt lat="42.9180200" lon="-8.2408560">
        <ele>350.2</ele>
        <time>2021-07-26T07:15:07Z</time>
      </trkpt>
      <trkpt lat="42.9180170" lon="-8.2408900">
        <ele>350.2</ele>
        <time>2021-07-26T07:15:08Z</time>
      </trkpt>
      <trkpt lat="42.9180120" lon="-8.2409630">
        <ele>349.8</ele>
        <time>2021-07-26T07:15:12Z</time>
      </trkpt>
      <trkpt lat="42.9180030" lon="-8.2409920">
        <ele>348.0</ele>
        <time>2021-07-26T07:15:35Z</time>
      </trkpt>
      <trkpt lat="42.9179400" lon="-8.2411250">
        <ele>348.0</ele>
        <time>2021-07-26T07:15:39Z</time>
      </trkpt>
      <trkpt lat="42.9178530" lon="-8.2413140">
        <ele>348.0</ele>
        <time>2021-07-26T07:15:44Z</time>
      </trkpt>
      <trkpt lat="42.9177550" lon="-8.2414890">
        <ele>347.6</ele>
        <time>2021-07-26T07:15:48Z</time>
      </trkpt>
      <trkpt lat="42.9177290" lon="-8.2415270">
        <ele>347.2</ele>
        <time>2021-07-26T07:15:49Z</time>
      </trkpt>
      <trkpt lat="42.9177040" lon="-8.2415670">
        <ele>346.8</ele>
        <time>2021-07-26T07:15:50Z</time>
      </trkpt>
      <trkpt lat="42.9176820" lon="-8.2416060">
        <ele>346.4</ele>
        <time>2021-07-26T07:15:51Z</time>
      </trkpt>
      <trkpt lat="42.9176580" lon="-8.2416430">
        <ele>346.0</ele>
        <time>2021-07-26T07:15:52Z</time>
      </trkpt>
      <trkpt lat="42.9176040" lon="-8.2417040">
        <ele>346.0</ele>
        <time>2021-07-26T07:15:54Z</time>
      </trkpt>
      <trkpt lat="42.9175850" lon="-8.2417160">
        <ele>346.0</ele>
        <time>2021-07-26T07:15:55Z</time>
      </trkpt>
      <trkpt lat="42.9175750" lon="-8.2417310">
        <ele>345.6</ele>
        <time>2021-07-26T07:15:57Z</time>
      </trkpt>
      <trkpt lat="42.9175790" lon="-8.2417350">
        <ele>345.2</ele>
        <time>2021-07-26T07:15:58Z</time>
      </trkpt>
      <trkpt lat="42.9175880" lon="-8.2417370">
        <ele>344.8</ele>
        <time>2021-07-26T07:15:59Z</time>
      </trkpt>
      <trkpt lat="42.9176020" lon="-8.2417370">
        <ele>344.4</ele>
        <time>2021-07-26T07:16:00Z</time>
      </trkpt>
      <trkpt lat="42.9176180" lon="-8.2417360">
        <ele>344.0</ele>
        <time>2021-07-26T07:16:01Z</time>
      </trkpt>
      <trkpt lat="42.9176470" lon="-8.2417470">
        <ele>344.0</ele>
        <time>2021-07-26T07:16:03Z</time>
      </trkpt>
      <trkpt lat="42.9176650" lon="-8.2417580">
        <ele>344.0</ele>
        <time>2021-07-26T07:16:04Z</time>
      </trkpt>
      <trkpt lat="42.9177460" lon="-8.2418690">
        <ele>344.0</ele>
        <time>2021-07-26T07:16:10Z</time>
      </trkpt>
      <trkpt lat="42.9178120" lon="-8.2420070">
        <ele>343.6</ele>
        <time>2021-07-26T07:16:15Z</time>
      </trkpt>
      <trkpt lat="42.9178280" lon="-8.2420390">
        <ele>343.2</ele>
        <time>2021-07-26T07:16:16Z</time>
      </trkpt>
      <trkpt lat="42.9178430" lon="-8.2420730">
        <ele>342.8</ele>
        <time>2021-07-26T07:16:17Z</time>
      </trkpt>
      <trkpt lat="42.9178540" lon="-8.2421040">
        <ele>341.8</ele>
        <time>2021-07-26T07:16:18Z</time>
      </trkpt>
      <trkpt lat="42.9178650" lon="-8.2422320">
        <ele>341.8</ele>
        <time>2021-07-26T07:16:23Z</time>
      </trkpt>
      <trkpt lat="42.9179010" lon="-8.2423240">
        <ele>341.4</ele>
        <time>2021-07-26T07:16:28Z</time>
      </trkpt>
      <trkpt lat="42.9179070" lon="-8.2423400">
        <ele>341.0</ele>
        <time>2021-07-26T07:16:29Z</time>
      </trkpt>
      <trkpt lat="42.9179140" lon="-8.2423580">
        <ele>340.6</ele>
        <time>2021-07-26T07:16:30Z</time>
      </trkpt>
      <trkpt lat="42.9179250" lon="-8.2423830">
        <ele>340.2</ele>
        <time>2021-07-26T07:16:31Z</time>
      </trkpt>
      <trkpt lat="42.9179380" lon="-8.2424090">
        <ele>339.8</ele>
        <time>2021-07-26T07:16:32Z</time>
      </trkpt>
      <trkpt lat="42.9179570" lon="-8.2424550">
        <ele>339.8</ele>
        <time>2021-07-26T07:16:34Z</time>
      </trkpt>
      <trkpt lat="42.9180200" lon="-8.2426260">
        <ele>339.8</ele>
        <time>2021-07-26T07:16:41Z</time>
      </trkpt>
      <trkpt lat="42.9180430" lon="-8.2426940">
        <ele>339.4</ele>
        <time>2021-07-26T07:16:44Z</time>
      </trkpt>
      <trkpt lat="42.9180500" lon="-8.2427190">
        <ele>339.0</ele>
        <time>2021-07-26T07:16:45Z</time>
      </trkpt>
      <trkpt lat="42.9180550" lon="-8.2427530">
        <ele>338.6</ele>
        <time>2021-07-26T07:16:46Z</time>
      </trkpt>
      <trkpt lat="42.9180590" lon="-8.2427880">
        <ele>338.2</ele>
        <time>2021-07-26T07:16:47Z</time>
      </trkpt>
      <trkpt lat="42.9180610" lon="-8.2428200">
        <ele>337.8</ele>
        <time>2021-07-26T07:16:48Z</time>
      </trkpt>
      <trkpt lat="42.9181380" lon="-8.2429970">
        <ele>337.8</ele>
        <time>2021-07-26T07:16:54Z</time>
      </trkpt>
      <trkpt lat="42.9181610" lon="-8.2430360">
        <ele>337.4</ele>
        <time>2021-07-26T07:16:55Z</time>
      </trkpt>
      <trkpt lat="42.9181840" lon="-8.2430740">
        <ele>336.8</ele>
        <time>2021-07-26T07:16:56Z</time>
      </trkpt>
      <trkpt lat="42.9182050" lon="-8.2431120">
        <ele>336.4</ele>
        <time>2021-07-26T07:16:57Z</time>
      </trkpt>
      <trkpt lat="42.9182260" lon="-8.2431540">
        <ele>336.0</ele>
        <time>2021-07-26T07:16:58Z</time>
      </trkpt>
      <trkpt lat="42.9182440" lon="-8.2431930">
        <ele>335.6</ele>
        <time>2021-07-26T07:16:59Z</time>
      </trkpt>
      <trkpt lat="42.9182510" lon="-8.2432270">
        <ele>335.6</ele>
        <time>2021-07-26T07:17:00Z</time>
      </trkpt>
      <trkpt lat="42.9182390" lon="-8.2432870">
        <ele>335.2</ele>
        <time>2021-07-26T07:17:02Z</time>
      </trkpt>
      <trkpt lat="42.9182270" lon="-8.2433150">
        <ele>334.8</ele>
        <time>2021-07-26T07:17:03Z</time>
      </trkpt>
      <trkpt lat="42.9182120" lon="-8.2433370">
        <ele>334.4</ele>
        <time>2021-07-26T07:17:04Z</time>
      </trkpt>
      <trkpt lat="42.9181940" lon="-8.2433530">
        <ele>334.0</ele>
        <time>2021-07-26T07:17:05Z</time>
      </trkpt>
      <trkpt lat="42.9181770" lon="-8.2433650">
        <ele>333.6</ele>
        <time>2021-07-26T07:17:06Z</time>
      </trkpt>
      <trkpt lat="42.9181620" lon="-8.2433730">
        <ele>333.6</ele>
        <time>2021-07-26T07:17:07Z</time>
      </trkpt>
      <trkpt lat="42.9180690" lon="-8.2434130">
        <ele>333.6</ele>
        <time>2021-07-26T07:17:11Z</time>
      </trkpt>
      <trkpt lat="42.9179990" lon="-8.2434370">
        <ele>333.6</ele>
        <time>2021-07-26T07:17:14Z</time>
      </trkpt>
      <trkpt lat="42.9179370" lon="-8.2434610">
        <ele>333.6</ele>
        <time>2021-07-26T07:17:17Z</time>
      </trkpt>
      <trkpt lat="42.9179250" lon="-8.2434750">
        <ele>333.6</ele>
        <time>2021-07-26T07:17:18Z</time>
      </trkpt>
      <trkpt lat="42.9179140" lon="-8.2435130">
        <ele>333.6</ele>
        <time>2021-07-26T07:17:21Z</time>
      </trkpt>
      <trkpt lat="42.9179290" lon="-8.2436130">
        <ele>331.6</ele>
        <time>2021-07-26T07:17:36Z</time>
      </trkpt>
      <trkpt lat="42.9179290" lon="-8.2436310">
        <ele>331.6</ele>
        <time>2021-07-26T07:17:38Z</time>
      </trkpt>
      <trkpt lat="42.9179310" lon="-8.2436540">
        <ele>331.6</ele>
        <time>2021-07-26T07:17:48Z</time>
      </trkpt>
      <trkpt lat="42.9179350" lon="-8.2436810">
        <ele>331.6</ele>
        <time>2021-07-26T07:17:49Z</time>
      </trkpt>
      <trkpt lat="42.9179500" lon="-8.2438370">
        <ele>331.6</ele>
        <time>2021-07-26T07:17:53Z</time>
      </trkpt>
      <trkpt lat="42.9179480" lon="-8.2438800">
        <ele>331.6</ele>
        <time>2021-07-26T07:17:54Z</time>
      </trkpt>
      <trkpt lat="42.9179590" lon="-8.2440470">
        <ele>331.2</ele>
        <time>2021-07-26T07:17:58Z</time>
      </trkpt>
      <trkpt lat="42.9179650" lon="-8.2440830">
        <ele>330.8</ele>
        <time>2021-07-26T07:17:59Z</time>
      </trkpt>
      <trkpt lat="42.9179650" lon="-8.2441190">
        <ele>330.4</ele>
        <time>2021-07-26T07:18:00Z</time>
      </trkpt>
      <trkpt lat="42.9179610" lon="-8.2441600">
        <ele>330.0</ele>
        <time>2021-07-26T07:18:01Z</time>
      </trkpt>
      <trkpt lat="42.9179560" lon="-8.2442040">
        <ele>329.6</ele>
        <time>2021-07-26T07:18:02Z</time>
      </trkpt>
      <trkpt lat="42.9179540" lon="-8.2443550">
        <ele>329.6</ele>
        <time>2021-07-26T07:18:06Z</time>
      </trkpt>
      <trkpt lat="42.9179000" lon="-8.2444720">
        <ele>329.6</ele>
        <time>2021-07-26T07:18:11Z</time>
      </trkpt>
      <trkpt lat="42.9178310" lon="-8.2446620">
        <ele>329.6</ele>
        <time>2021-07-26T07:18:17Z</time>
      </trkpt>
      <trkpt lat="42.9178120" lon="-8.2447340">
        <ele>329.6</ele>
        <time>2021-07-26T07:18:19Z</time>
      </trkpt>
      <trkpt lat="42.9177920" lon="-8.2448730">
        <ele>329.6</ele>
        <time>2021-07-26T07:18:23Z</time>
      </trkpt>
      <trkpt lat="42.9177910" lon="-8.2449040">
        <ele>329.6</ele>
        <time>2021-07-26T07:18:24Z</time>
      </trkpt>
      <trkpt lat="42.9178140" lon="-8.2450390">
        <ele>329.6</ele>
        <time>2021-07-26T07:18:29Z</time>
      </trkpt>
      <trkpt lat="42.9178160" lon="-8.2450690">
        <ele>329.6</ele>
        <time>2021-07-26T07:18:30Z</time>
      </trkpt>
      <trkpt lat="42.9178090" lon="-8.2451360">
        <ele>329.6</ele>
        <time>2021-07-26T07:18:32Z</time>
      </trkpt>
      <trkpt lat="42.9177960" lon="-8.2452010">
        <ele>330.0</ele>
        <time>2021-07-26T07:18:34Z</time>
      </trkpt>
      <trkpt lat="42.9177900" lon="-8.2452360">
        <ele>330.4</ele>
        <time>2021-07-26T07:18:35Z</time>
      </trkpt>
      <trkpt lat="42.9177850" lon="-8.2452720">
        <ele>330.8</ele>
        <time>2021-07-26T07:18:36Z</time>
      </trkpt>
      <trkpt lat="42.9177810" lon="-8.2453080">
        <ele>331.2</ele>
        <time>2021-07-26T07:18:37Z</time>
      </trkpt>
      <trkpt lat="42.9177770" lon="-8.2453420">
        <ele>331.6</ele>
        <time>2021-07-26T07:18:38Z</time>
      </trkpt>
      <trkpt lat="42.9177780" lon="-8.2454830">
        <ele>331.6</ele>
        <time>2021-07-26T07:18:42Z</time>
      </trkpt>
      <trkpt lat="42.9177610" lon="-8.2455710">
        <ele>331.6</ele>
        <time>2021-07-26T07:18:45Z</time>
      </trkpt>
      <trkpt lat="42.9177680" lon="-8.2457540">
        <ele>331.6</ele>
        <time>2021-07-26T07:18:51Z</time>
      </trkpt>
      <trkpt lat="42.9177760" lon="-8.2457860">
        <ele>332.0</ele>
        <time>2021-07-26T07:18:52Z</time>
      </trkpt>
      <trkpt lat="42.9177820" lon="-8.2458190">
        <ele>332.4</ele>
        <time>2021-07-26T07:18:53Z</time>
      </trkpt>
      <trkpt lat="42.9177870" lon="-8.2458500">
        <ele>332.8</ele>
        <time>2021-07-26T07:18:54Z</time>
      </trkpt>
      <trkpt lat="42.9177950" lon="-8.2458820">
        <ele>333.4</ele>
        <time>2021-07-26T07:18:55Z</time>
      </trkpt>
      <trkpt lat="42.9178020" lon="-8.2459150">
        <ele>333.8</ele>
        <time>2021-07-26T07:18:56Z</time>
      </trkpt>
      <trkpt lat="42.9178340" lon="-8.2460110">
        <ele>333.8</ele>
        <time>2021-07-26T07:18:59Z</time>
      </trkpt>
      <trkpt lat="42.9179000" lon="-8.2462080">
        <ele>333.8</ele>
        <time>2021-07-26T07:19:05Z</time>
      </trkpt>
      <trkpt lat="42.9179590" lon="-8.2464680">
        <ele>333.8</ele>
        <time>2021-07-26T07:19:13Z</time>
      </trkpt>
      <trkpt lat="42.9179660" lon="-8.2465330">
        <ele>334.2</ele>
        <time>2021-07-26T07:19:15Z</time>
      </trkpt>
      <trkpt lat="42.9179690" lon="-8.2465640">
        <ele>334.6</ele>
        <time>2021-07-26T07:19:16Z</time>
      </trkpt>
      <trkpt lat="42.9179730" lon="-8.2465990">
        <ele>335.0</ele>
        <time>2021-07-26T07:19:17Z</time>
      </trkpt>
      <trkpt lat="42.9179730" lon="-8.2466300">
        <ele>335.4</ele>
        <time>2021-07-26T07:19:18Z</time>
      </trkpt>
      <trkpt lat="42.9179740" lon="-8.2466650">
        <ele>335.8</ele>
        <time>2021-07-26T07:19:19Z</time>
      </trkpt>
      <trkpt lat="42.9179790" lon="-8.2466980">
        <ele>335.8</ele>
        <time>2021-07-26T07:19:20Z</time>
      </trkpt>
      <trkpt lat="42.9180180" lon="-8.2469470">
        <ele>335.8</ele>
        <time>2021-07-26T07:19:28Z</time>
      </trkpt>
      <trkpt lat="42.9180610" lon="-8.2471730">
        <ele>335.8</ele>
        <time>2021-07-26T07:19:35Z</time>
      </trkpt>
      <trkpt lat="42.9180710" lon="-8.2472790">
        <ele>335.8</ele>
        <time>2021-07-26T07:19:38Z</time>
      </trkpt>
      <trkpt lat="42.9180860" lon="-8.2473810">
        <ele>336.2</ele>
        <time>2021-07-26T07:19:41Z</time>
      </trkpt>
      <trkpt lat="42.9180920" lon="-8.2474140">
        <ele>336.6</ele>
        <time>2021-07-26T07:19:42Z</time>
      </trkpt>
      <trkpt lat="42.9180990" lon="-8.2474410">
        <ele>337.0</ele>
        <time>2021-07-26T07:19:43Z</time>
      </trkpt>
      <trkpt lat="42.9181040" lon="-8.2474700">
        <ele>337.4</ele>
        <time>2021-07-26T07:19:44Z</time>
      </trkpt>
      <trkpt lat="42.9181090" lon="-8.2475060">
        <ele>337.8</ele>
        <time>2021-07-26T07:19:45Z</time>
      </trkpt>
      <trkpt lat="42.9181190" lon="-8.2475660">
        <ele>337.8</ele>
        <time>2021-07-26T07:19:47Z</time>
      </trkpt>
      <trkpt lat="42.9181590" lon="-8.2477840">
        <ele>337.8</ele>
        <time>2021-07-26T07:19:55Z</time>
      </trkpt>
      <trkpt lat="42.9181620" lon="-8.2478050">
        <ele>338.2</ele>
        <time>2021-07-26T07:19:56Z</time>
      </trkpt>
      <trkpt lat="42.9181620" lon="-8.2478300">
        <ele>338.6</ele>
        <time>2021-07-26T07:19:57Z</time>
      </trkpt>
      <trkpt lat="42.9181620" lon="-8.2478530">
        <ele>339.0</ele>
        <time>2021-07-26T07:19:58Z</time>
      </trkpt>
      <trkpt lat="42.9181630" lon="-8.2478800">
        <ele>339.4</ele>
        <time>2021-07-26T07:19:59Z</time>
      </trkpt>
      <trkpt lat="42.9181660" lon="-8.2479040">
        <ele>339.8</ele>
        <time>2021-07-26T07:20:00Z</time>
      </trkpt>
      <trkpt lat="42.9181740" lon="-8.2479530">
        <ele>339.8</ele>
        <time>2021-07-26T07:20:02Z</time>
      </trkpt>
      <trkpt lat="42.9182060" lon="-8.2481000">
        <ele>339.8</ele>
        <time>2021-07-26T07:20:07Z</time>
      </trkpt>
      <trkpt lat="42.9182210" lon="-8.2481610">
        <ele>339.8</ele>
        <time>2021-07-26T07:20:09Z</time>
      </trkpt>
      <trkpt lat="42.9182620" lon="-8.2483340">
        <ele>339.8</ele>
        <time>2021-07-26T07:20:16Z</time>
      </trkpt>
      <trkpt lat="42.9182650" lon="-8.2483550">
        <ele>339.8</ele>
        <time>2021-07-26T07:20:17Z</time>
      </trkpt>
      <trkpt lat="42.9182750" lon="-8.2484100">
        <ele>339.8</ele>
        <time>2021-07-26T07:20:20Z</time>
      </trkpt>
      <trkpt lat="42.9182790" lon="-8.2484260">
        <ele>340.2</ele>
        <time>2021-07-26T07:20:21Z</time>
      </trkpt>
      <trkpt lat="42.9182820" lon="-8.2484420">
        <ele>340.6</ele>
        <time>2021-07-26T07:20:22Z</time>
      </trkpt>
      <trkpt lat="42.9182850" lon="-8.2484620">
        <ele>341.0</ele>
        <time>2021-07-26T07:20:23Z</time>
      </trkpt>
      <trkpt lat="42.9182910" lon="-8.2484820">
        <ele>341.4</ele>
        <time>2021-07-26T07:20:24Z</time>
      </trkpt>
      <trkpt lat="42.9182950" lon="-8.2485010">
        <ele>341.8</ele>
        <time>2021-07-26T07:20:25Z</time>
      </trkpt>
      <trkpt lat="42.9183040" lon="-8.2485380">
        <ele>341.8</ele>
        <time>2021-07-26T07:20:27Z</time>
      </trkpt>
      <trkpt lat="42.9183130" lon="-8.2485760">
        <ele>341.8</ele>
        <time>2021-07-26T07:20:29Z</time>
      </trkpt>
      <trkpt lat="42.9183160" lon="-8.2485930">
        <ele>341.8</ele>
        <time>2021-07-26T07:20:30Z</time>
      </trkpt>
      <trkpt lat="42.9183290" lon="-8.2486510">
        <ele>341.8</ele>
        <time>2021-07-26T07:20:33Z</time>
      </trkpt>
      <trkpt lat="42.9183470" lon="-8.2487020">
        <ele>341.8</ele>
        <time>2021-07-26T07:20:36Z</time>
      </trkpt>
      <trkpt lat="42.9183690" lon="-8.2487940">
        <ele>341.8</ele>
        <time>2021-07-26T07:20:39Z</time>
      </trkpt>
      <trkpt lat="42.9183760" lon="-8.2488550">
        <ele>341.8</ele>
        <time>2021-07-26T07:20:41Z</time>
      </trkpt>
      <trkpt lat="42.9183990" lon="-8.2489670">
        <ele>341.8</ele>
        <time>2021-07-26T07:20:45Z</time>
      </trkpt>
      <trkpt lat="42.9184130" lon="-8.2490240">
        <ele>342.2</ele>
        <time>2021-07-26T07:20:47Z</time>
      </trkpt>
      <trkpt lat="42.9184190" lon="-8.2490550">
        <ele>342.6</ele>
        <time>2021-07-26T07:20:48Z</time>
      </trkpt>
      <trkpt lat="42.9184220" lon="-8.2490840">
        <ele>343.2</ele>
        <time>2021-07-26T07:20:49Z</time>
      </trkpt>
      <trkpt lat="42.9184260" lon="-8.2491120">
        <ele>344.0</ele>
        <time>2021-07-26T07:20:50Z</time>
      </trkpt>
      <trkpt lat="42.9184350" lon="-8.2491670">
        <ele>344.0</ele>
        <time>2021-07-26T07:20:52Z</time>
      </trkpt>
      <trkpt lat="42.9184520" lon="-8.2492580">
        <ele>344.0</ele>
        <time>2021-07-26T07:20:55Z</time>
      </trkpt>
      <trkpt lat="42.9184710" lon="-8.2493760">
        <ele>344.0</ele>
        <time>2021-07-26T07:20:59Z</time>
      </trkpt>
      <trkpt lat="42.9184780" lon="-8.2494340">
        <ele>344.4</ele>
        <time>2021-07-26T07:21:01Z</time>
      </trkpt>
      <trkpt lat="42.9184800" lon="-8.2494610">
        <ele>344.8</ele>
        <time>2021-07-26T07:21:02Z</time>
      </trkpt>
      <trkpt lat="42.9184840" lon="-8.2494900">
        <ele>345.2</ele>
        <time>2021-07-26T07:21:03Z</time>
      </trkpt>
      <trkpt lat="42.9184880" lon="-8.2495210">
        <ele>345.6</ele>
        <time>2021-07-26T07:21:04Z</time>
      </trkpt>
      <trkpt lat="42.9184920" lon="-8.2495550">
        <ele>346.0</ele>
        <time>2021-07-26T07:21:05Z</time>
      </trkpt>
      <trkpt lat="42.9184990" lon="-8.2495910">
        <ele>346.0</ele>
        <time>2021-07-26T07:21:06Z</time>
      </trkpt>
      <trkpt lat="42.9185300" lon="-8.2498190">
        <ele>346.0</ele>
        <time>2021-07-26T07:21:13Z</time>
      </trkpt>
      <trkpt lat="42.9185710" lon="-8.2500380">
        <ele>346.0</ele>
        <time>2021-07-26T07:21:20Z</time>
      </trkpt>
      <trkpt lat="42.9185900" lon="-8.2501300">
        <ele>346.4</ele>
        <time>2021-07-26T07:21:23Z</time>
      </trkpt>
      <trkpt lat="42.9185960" lon="-8.2501580">
        <ele>346.8</ele>
        <time>2021-07-26T07:21:24Z</time>
      </trkpt>
      <trkpt lat="42.9186000" lon="-8.2501830">
        <ele>347.2</ele>
        <time>2021-07-26T07:21:25Z</time>
      </trkpt>
      <trkpt lat="42.9186040" lon="-8.2502050">
        <ele>347.6</ele>
        <time>2021-07-26T07:21:26Z</time>
      </trkpt>
      <trkpt lat="42.9186090" lon="-8.2502280">
        <ele>348.0</ele>
        <time>2021-07-26T07:21:27Z</time>
      </trkpt>
      <trkpt lat="42.9186630" lon="-8.2504100">
        <ele>348.0</ele>
        <time>2021-07-26T07:21:33Z</time>
      </trkpt>
      <trkpt lat="42.9186710" lon="-8.2505210">
        <ele>348.0</ele>
        <time>2021-07-26T07:21:37Z</time>
      </trkpt>
      <trkpt lat="42.9186800" lon="-8.2505780">
        <ele>348.0</ele>
        <time>2021-07-26T07:21:39Z</time>
      </trkpt>
      <trkpt lat="42.9187030" lon="-8.2506890">
        <ele>348.4</ele>
        <time>2021-07-26T07:21:43Z</time>
      </trkpt>
      <trkpt lat="42.9187090" lon="-8.2507150">
        <ele>348.8</ele>
        <time>2021-07-26T07:21:44Z</time>
      </trkpt>
      <trkpt lat="42.9187160" lon="-8.2507380">
        <ele>349.2</ele>
        <time>2021-07-26T07:21:45Z</time>
      </trkpt>
      <trkpt lat="42.9187230" lon="-8.2507600">
        <ele>349.8</ele>
        <time>2021-07-26T07:21:46Z</time>
      </trkpt>
      <trkpt lat="42.9187300" lon="-8.2507800">
        <ele>350.2</ele>
        <time>2021-07-26T07:21:47Z</time>
      </trkpt>
      <trkpt lat="42.9187660" lon="-8.2509230">
        <ele>350.2</ele>
        <time>2021-07-26T07:21:52Z</time>
      </trkpt>
      <trkpt lat="42.9188380" lon="-8.2510690">
        <ele>350.2</ele>
        <time>2021-07-26T07:21:59Z</time>
      </trkpt>
      <trkpt lat="42.9188500" lon="-8.2510910">
        <ele>350.6</ele>
        <time>2021-07-26T07:22:00Z</time>
      </trkpt>
      <trkpt lat="42.9188620" lon="-8.2511100">
        <ele>351.0</ele>
        <time>2021-07-26T07:22:01Z</time>
      </trkpt>
      <trkpt lat="42.9188710" lon="-8.2511300">
        <ele>351.4</ele>
        <time>2021-07-26T07:22:02Z</time>
      </trkpt>
      <trkpt lat="42.9188790" lon="-8.2511470">
        <ele>351.8</ele>
        <time>2021-07-26T07:22:03Z</time>
      </trkpt>
      <trkpt lat="42.9188890" lon="-8.2511750">
        <ele>352.2</ele>
        <time>2021-07-26T07:22:04Z</time>
      </trkpt>
      <trkpt lat="42.9189080" lon="-8.2512290">
        <ele>352.2</ele>
        <time>2021-07-26T07:22:06Z</time>
      </trkpt>
      <trkpt lat="42.9189730" lon="-8.2513620">
        <ele>352.6</ele>
        <time>2021-07-26T07:22:14Z</time>
      </trkpt>
      <trkpt lat="42.9189870" lon="-8.2513820">
        <ele>353.0</ele>
        <time>2021-07-26T07:22:15Z</time>
      </trkpt>
      <trkpt lat="42.9189990" lon="-8.2514200">
        <ele>353.4</ele>
        <time>2021-07-26T07:22:16Z</time>
      </trkpt>
      <trkpt lat="42.9190120" lon="-8.2514520">
        <ele>353.8</ele>
        <time>2021-07-26T07:22:17Z</time>
      </trkpt>
      <trkpt lat="42.9190220" lon="-8.2514780">
        <ele>354.2</ele>
        <time>2021-07-26T07:22:18Z</time>
      </trkpt>
      <trkpt lat="42.9190400" lon="-8.2515110">
        <ele>354.2</ele>
        <time>2021-07-26T07:22:20Z</time>
      </trkpt>
      <trkpt lat="42.9191370" lon="-8.2516920">
        <ele>354.2</ele>
        <time>2021-07-26T07:22:28Z</time>
      </trkpt>
      <trkpt lat="42.9191800" lon="-8.2517580">
        <ele>354.6</ele>
        <time>2021-07-26T07:22:32Z</time>
      </trkpt>
      <trkpt lat="42.9191910" lon="-8.2517750">
        <ele>355.0</ele>
        <time>2021-07-26T07:22:33Z</time>
      </trkpt>
      <trkpt lat="42.9192010" lon="-8.2517940">
        <ele>355.4</ele>
        <time>2021-07-26T07:22:34Z</time>
      </trkpt>
      <trkpt lat="42.9192110" lon="-8.2518130">
        <ele>355.8</ele>
        <time>2021-07-26T07:22:35Z</time>
      </trkpt>
      <trkpt lat="42.9192190" lon="-8.2518330">
        <ele>356.2</ele>
        <time>2021-07-26T07:22:36Z</time>
      </trkpt>
      <trkpt lat="42.9192590" lon="-8.2519170">
        <ele>356.2</ele>
        <time>2021-07-26T07:22:39Z</time>
      </trkpt>
      <trkpt lat="42.9192750" lon="-8.2519460">
        <ele>356.2</ele>
        <time>2021-07-26T07:22:40Z</time>
      </trkpt>
      <trkpt lat="42.9193380" lon="-8.2521010">
        <ele>356.2</ele>
        <time>2021-07-26T07:22:46Z</time>
      </trkpt>
      <trkpt lat="42.9193780" lon="-8.2522370">
        <ele>356.2</ele>
        <time>2021-07-26T07:22:52Z</time>
      </trkpt>
      <trkpt lat="42.9193880" lon="-8.2522590">
        <ele>357.2</ele>
        <time>2021-07-26T07:22:53Z</time>
      </trkpt>
      <trkpt lat="42.9193980" lon="-8.2522770">
        <ele>357.6</ele>
        <time>2021-07-26T07:22:54Z</time>
      </trkpt>
      <trkpt lat="42.9194080" lon="-8.2522910">
        <ele>358.0</ele>
        <time>2021-07-26T07:22:55Z</time>
      </trkpt>
      <trkpt lat="42.9194190" lon="-8.2523080">
        <ele>358.4</ele>
        <time>2021-07-26T07:22:56Z</time>
      </trkpt>
      <trkpt lat="42.9194510" lon="-8.2523650">
        <ele>358.4</ele>
        <time>2021-07-26T07:22:59Z</time>
      </trkpt>
      <trkpt lat="42.9195130" lon="-8.2524890">
        <ele>358.4</ele>
        <time>2021-07-26T07:23:06Z</time>
      </trkpt>
      <trkpt lat="42.9195670" lon="-8.2525760">
        <ele>358.4</ele>
        <time>2021-07-26T07:23:10Z</time>
      </trkpt>
      <trkpt lat="42.9195870" lon="-8.2526170">
        <ele>358.4</ele>
        <time>2021-07-26T07:23:12Z</time>
      </trkpt>
      <trkpt lat="42.9195920" lon="-8.2526380">
        <ele>358.4</ele>
        <time>2021-07-26T07:23:13Z</time>
      </trkpt>
      <trkpt lat="42.9195980" lon="-8.2526580">
        <ele>358.8</ele>
        <time>2021-07-26T07:23:14Z</time>
      </trkpt>
      <trkpt lat="42.9196070" lon="-8.2526750">
        <ele>359.2</ele>
        <time>2021-07-26T07:23:15Z</time>
      </trkpt>
      <trkpt lat="42.9196220" lon="-8.2527030">
        <ele>359.6</ele>
        <time>2021-07-26T07:23:16Z</time>
      </trkpt>
      <trkpt lat="42.9196370" lon="-8.2527280">
        <ele>360.4</ele>
        <time>2021-07-26T07:23:17Z</time>
      </trkpt>
      <trkpt lat="42.9196580" lon="-8.2527730">
        <ele>360.4</ele>
        <time>2021-07-26T07:23:19Z</time>
      </trkpt>
      <trkpt lat="42.9197400" lon="-8.2528420">
        <ele>360.4</ele>
        <time>2021-07-26T07:23:25Z</time>
      </trkpt>
      <trkpt lat="42.9197720" lon="-8.2528660">
        <ele>360.8</ele>
        <time>2021-07-26T07:23:27Z</time>
      </trkpt>
      <trkpt lat="42.9197890" lon="-8.2528790">
        <ele>361.2</ele>
        <time>2021-07-26T07:23:28Z</time>
      </trkpt>
      <trkpt lat="42.9198050" lon="-8.2528920">
        <ele>361.6</ele>
        <time>2021-07-26T07:23:29Z</time>
      </trkpt>
      <trkpt lat="42.9198210" lon="-8.2529020">
        <ele>362.0</ele>
        <time>2021-07-26T07:23:30Z</time>
      </trkpt>
      <trkpt lat="42.9198370" lon="-8.2529110">
        <ele>362.4</ele>
        <time>2021-07-26T07:23:31Z</time>
      </trkpt>
      <trkpt lat="42.9198720" lon="-8.2529250">
        <ele>362.4</ele>
        <time>2021-07-26T07:23:33Z</time>
      </trkpt>
      <trkpt lat="42.9199630" lon="-8.2529930">
        <ele>362.4</ele>
        <time>2021-07-26T07:23:40Z</time>
      </trkpt>
      <trkpt lat="42.9200360" lon="-8.2530420">
        <ele>363.0</ele>
        <time>2021-07-26T07:23:46Z</time>
      </trkpt>
      <trkpt lat="42.9200490" lon="-8.2530470">
        <ele>363.4</ele>
        <time>2021-07-26T07:23:47Z</time>
      </trkpt>
      <trkpt lat="42.9200610" lon="-8.2530530">
        <ele>363.8</ele>
        <time>2021-07-26T07:23:48Z</time>
      </trkpt>
      <trkpt lat="42.9200760" lon="-8.2530590">
        <ele>364.2</ele>
        <time>2021-07-26T07:23:49Z</time>
      </trkpt>
      <trkpt lat="42.9200920" lon="-8.2530680">
        <ele>364.6</ele>
        <time>2021-07-26T07:23:50Z</time>
      </trkpt>
      <trkpt lat="42.9201810" lon="-8.2531320">
        <ele>364.6</ele>
        <time>2021-07-26T07:23:55Z</time>
      </trkpt>
      <trkpt lat="42.9202630" lon="-8.2531660">
        <ele>364.6</ele>
        <time>2021-07-26T07:23:59Z</time>
      </trkpt>
      <trkpt lat="42.9203000" lon="-8.2531920">
        <ele>364.6</ele>
        <time>2021-07-26T07:24:01Z</time>
      </trkpt>
      <trkpt lat="42.9204040" lon="-8.2532510">
        <ele>364.6</ele>
        <time>2021-07-26T07:24:06Z</time>
      </trkpt>
      <trkpt lat="42.9204520" lon="-8.2532670">
        <ele>364.6</ele>
        <time>2021-07-26T07:24:08Z</time>
      </trkpt>
      <trkpt lat="42.9205860" lon="-8.2533990">
        <ele>364.6</ele>
        <time>2021-07-26T07:24:14Z</time>
      </trkpt>
      <trkpt lat="42.9206940" lon="-8.2535700">
        <ele>365.0</ele>
        <time>2021-07-26T07:24:19Z</time>
      </trkpt>
      <trkpt lat="42.9207170" lon="-8.2536070">
        <ele>365.4</ele>
        <time>2021-07-26T07:24:20Z</time>
      </trkpt>
      <trkpt lat="42.9207360" lon="-8.2536400">
        <ele>365.8</ele>
        <time>2021-07-26T07:24:21Z</time>
      </trkpt>
      <trkpt lat="42.9207570" lon="-8.2536660">
        <ele>366.2</ele>
        <time>2021-07-26T07:24:22Z</time>
      </trkpt>
      <trkpt lat="42.9207800" lon="-8.2536880">
        <ele>366.6</ele>
        <time>2021-07-26T07:24:23Z</time>
      </trkpt>
      <trkpt lat="42.9209540" lon="-8.2538140">
        <ele>366.6</ele>
        <time>2021-07-26T07:24:29Z</time>
      </trkpt>
      <trkpt lat="42.9211200" lon="-8.2540210">
        <ele>366.6</ele>
        <time>2021-07-26T07:24:37Z</time>
      </trkpt>
      <trkpt lat="42.9211910" lon="-8.2542170">
        <ele>366.6</ele>
        <time>2021-07-26T07:24:43Z</time>
      </trkpt>
      <trkpt lat="42.9212190" lon="-8.2543070">
        <ele>367.0</ele>
        <time>2021-07-26T07:24:46Z</time>
      </trkpt>
      <trkpt lat="42.9212270" lon="-8.2543350">
        <ele>367.4</ele>
        <time>2021-07-26T07:24:47Z</time>
      </trkpt>
      <trkpt lat="42.9212330" lon="-8.2543610">
        <ele>367.8</ele>
        <time>2021-07-26T07:24:48Z</time>
      </trkpt>
      <trkpt lat="42.9212380" lon="-8.2543860">
        <ele>368.2</ele>
        <time>2021-07-26T07:24:49Z</time>
      </trkpt>
      <trkpt lat="42.9212470" lon="-8.2544090">
        <ele>368.6</ele>
        <time>2021-07-26T07:24:50Z</time>
      </trkpt>
      <trkpt lat="42.9212920" lon="-8.2545470">
        <ele>368.6</ele>
        <time>2021-07-26T07:24:55Z</time>
      </trkpt>
      <trkpt lat="42.9213000" lon="-8.2545690">
        <ele>368.6</ele>
        <time>2021-07-26T07:24:56Z</time>
      </trkpt>
      <trkpt lat="42.9213720" lon="-8.2547290">
        <ele>369.0</ele>
        <time>2021-07-26T07:25:02Z</time>
      </trkpt>
      <trkpt lat="42.9213840" lon="-8.2547570">
        <ele>369.4</ele>
        <time>2021-07-26T07:25:03Z</time>
      </trkpt>
      <trkpt lat="42.9213980" lon="-8.2547850">
        <ele>369.8</ele>
        <time>2021-07-26T07:25:04Z</time>
      </trkpt>
      <trkpt lat="42.9214120" lon="-8.2548180">
        <ele>370.2</ele>
        <time>2021-07-26T07:25:05Z</time>
      </trkpt>
      <trkpt lat="42.9214270" lon="-8.2548480">
        <ele>370.6</ele>
        <time>2021-07-26T07:25:06Z</time>
      </trkpt>
      <trkpt lat="42.9215070" lon="-8.2550320">
        <ele>370.6</ele>
        <time>2021-07-26T07:25:12Z</time>
      </trkpt>
      <trkpt lat="42.9215640" lon="-8.2552140">
        <ele>370.6</ele>
        <time>2021-07-26T07:25:18Z</time>
      </trkpt>
      <trkpt lat="42.9216370" lon="-8.2554690">
        <ele>370.6</ele>
        <time>2021-07-26T07:25:24Z</time>
      </trkpt>
      <trkpt lat="42.9217570" lon="-8.2557460">
        <ele>370.6</ele>
        <time>2021-07-26T07:25:31Z</time>
      </trkpt>
      <trkpt lat="42.9218470" lon="-8.2559580">
        <ele>370.6</ele>
        <time>2021-07-26T07:25:35Z</time>
      </trkpt>
      <trkpt lat="42.9219020" lon="-8.2561020">
        <ele>370.6</ele>
        <time>2021-07-26T07:25:37Z</time>
      </trkpt>
      <trkpt lat="42.9219940" lon="-8.2562870">
        <ele>370.6</ele>
        <time>2021-07-26T07:25:40Z</time>
      </trkpt>
      <trkpt lat="42.9220250" lon="-8.2563470">
        <ele>370.6</ele>
        <time>2021-07-26T07:25:41Z</time>
      </trkpt>
      <trkpt lat="42.9220870" lon="-8.2564650">
        <ele>370.6</ele>
        <time>2021-07-26T07:25:43Z</time>
      </trkpt>
      <trkpt lat="42.9221170" lon="-8.2565200">
        <ele>370.6</ele>
        <time>2021-07-26T07:25:44Z</time>
      </trkpt>
      <trkpt lat="42.9221820" lon="-8.2566320">
        <ele>370.6</ele>
        <time>2021-07-26T07:25:46Z</time>
      </trkpt>
      <trkpt lat="42.9222360" lon="-8.2567520">
        <ele>370.6</ele>
        <time>2021-07-26T07:25:48Z</time>
      </trkpt>
      <trkpt lat="42.9222560" lon="-8.2568140">
        <ele>370.2</ele>
        <time>2021-07-26T07:25:49Z</time>
      </trkpt>
      <trkpt lat="42.9222700" lon="-8.2568800">
        <ele>369.8</ele>
        <time>2021-07-26T07:25:50Z</time>
      </trkpt>
      <trkpt lat="42.9222830" lon="-8.2569540">
        <ele>369.4</ele>
        <time>2021-07-26T07:25:51Z</time>
      </trkpt>
      <trkpt lat="42.9222880" lon="-8.2570200">
        <ele>369.0</ele>
        <time>2021-07-26T07:25:52Z</time>
      </trkpt>
      <trkpt lat="42.9222960" lon="-8.2570860">
        <ele>368.6</ele>
        <time>2021-07-26T07:25:53Z</time>
      </trkpt>
      <trkpt lat="42.9223010" lon="-8.2571400">
        <ele>368.6</ele>
        <time>2021-07-26T07:25:54Z</time>
      </trkpt>
      <trkpt lat="42.9223070" lon="-8.2571950">
        <ele>368.6</ele>
        <time>2021-07-26T07:25:55Z</time>
      </trkpt>
      <trkpt lat="42.9223280" lon="-8.2574150">
        <ele>368.6</ele>
        <time>2021-07-26T07:25:59Z</time>
      </trkpt>
      <trkpt lat="42.9223430" lon="-8.2575680">
        <ele>368.6</ele>
        <time>2021-07-26T07:26:02Z</time>
      </trkpt>
      <trkpt lat="42.9223680" lon="-8.2577860">
        <ele>368.6</ele>
        <time>2021-07-26T07:26:06Z</time>
      </trkpt>
      <trkpt lat="42.9223770" lon="-8.2579300">
        <ele>368.6</ele>
        <time>2021-07-26T07:26:09Z</time>
      </trkpt>
      <trkpt lat="42.9224020" lon="-8.2582030">
        <ele>368.6</ele>
        <time>2021-07-26T07:26:15Z</time>
      </trkpt>
      <trkpt lat="42.9223880" lon="-8.2584600">
        <ele>368.6</ele>
        <time>2021-07-26T07:26:22Z</time>
      </trkpt>
      <trkpt lat="42.9223830" lon="-8.2586300">
        <ele>368.6</ele>
        <time>2021-07-26T07:26:28Z</time>
      </trkpt>
      <trkpt lat="42.9223760" lon="-8.2588150">
        <ele>368.6</ele>
        <time>2021-07-26T07:26:34Z</time>
      </trkpt>
      <trkpt lat="42.9223580" lon="-8.2588320">
        <ele>368.6</ele>
        <time>2021-07-26T07:26:35Z</time>
      </trkpt>
      <trkpt lat="42.9222880" lon="-8.2588910">
        <ele>368.6</ele>
        <time>2021-07-26T07:26:39Z</time>
      </trkpt>
      <trkpt lat="42.9222790" lon="-8.2589150">
        <ele>368.6</ele>
        <time>2021-07-26T07:26:40Z</time>
      </trkpt>
      <trkpt lat="42.9222790" lon="-8.2590200">
        <ele>368.6</ele>
        <time>2021-07-26T07:26:43Z</time>
      </trkpt>
      <trkpt lat="42.9222800" lon="-8.2590580">
        <ele>368.6</ele>
        <time>2021-07-26T07:26:44Z</time>
      </trkpt>
      <trkpt lat="42.9222760" lon="-8.2591690">
        <ele>368.6</ele>
        <time>2021-07-26T07:26:47Z</time>
      </trkpt>
      <trkpt lat="42.9222630" lon="-8.2592790">
        <ele>368.6</ele>
        <time>2021-07-26T07:26:50Z</time>
      </trkpt>
      <trkpt lat="42.9222700" lon="-8.2595000">
        <ele>368.6</ele>
        <time>2021-07-26T07:26:56Z</time>
      </trkpt>
      <trkpt lat="42.9222840" lon="-8.2595750">
        <ele>368.6</ele>
        <time>2021-07-26T07:26:58Z</time>
      </trkpt>
      <trkpt lat="42.9223150" lon="-8.2597230">
        <ele>368.6</ele>
        <time>2021-07-26T07:27:02Z</time>
      </trkpt>
      <trkpt lat="42.9223090" lon="-8.2600010">
        <ele>368.6</ele>
        <time>2021-07-26T07:27:07Z</time>
      </trkpt>
      <trkpt lat="42.9223060" lon="-8.2600700">
        <ele>368.2</ele>
        <time>2021-07-26T07:27:08Z</time>
      </trkpt>
      <trkpt lat="42.9222990" lon="-8.2601370">
        <ele>367.8</ele>
        <time>2021-07-26T07:27:09Z</time>
      </trkpt>
      <trkpt lat="42.9222930" lon="-8.2601970">
        <ele>367.4</ele>
        <time>2021-07-26T07:27:10Z</time>
      </trkpt>
      <trkpt lat="42.9222860" lon="-8.2602580">
        <ele>367.0</ele>
        <time>2021-07-26T07:27:11Z</time>
      </trkpt>
      <trkpt lat="42.9222890" lon="-8.2603210">
        <ele>366.6</ele>
        <time>2021-07-26T07:27:12Z</time>
      </trkpt>
      <trkpt lat="42.9222970" lon="-8.2603790">
        <ele>366.6</ele>
        <time>2021-07-26T07:27:13Z</time>
      </trkpt>
      <trkpt lat="42.9223170" lon="-8.2604880">
        <ele>366.6</ele>
        <time>2021-07-26T07:27:15Z</time>
      </trkpt>
      <trkpt lat="42.9223470" lon="-8.2607140">
        <ele>366.6</ele>
        <time>2021-07-26T07:27:19Z</time>
      </trkpt>
      <trkpt lat="42.9223740" lon="-8.2610790">
        <ele>366.2</ele>
        <time>2021-07-26T07:27:24Z</time>
      </trkpt>
      <trkpt lat="42.9223850" lon="-8.2611490">
        <ele>365.4</ele>
        <time>2021-07-26T07:27:25Z</time>
      </trkpt>
      <trkpt lat="42.9223980" lon="-8.2612170">
        <ele>365.0</ele>
        <time>2021-07-26T07:27:26Z</time>
      </trkpt>
      <trkpt lat="42.9224150" lon="-8.2612810">
        <ele>364.4</ele>
        <time>2021-07-26T07:27:27Z</time>
      </trkpt>
      <trkpt lat="42.9224250" lon="-8.2613550">
        <ele>364.4</ele>
        <time>2021-07-26T07:27:28Z</time>
      </trkpt>
      <trkpt lat="42.9224300" lon="-8.2614230">
        <ele>364.0</ele>
        <time>2021-07-26T07:27:29Z</time>
      </trkpt>
      <trkpt lat="42.9224320" lon="-8.2614890">
        <ele>363.6</ele>
        <time>2021-07-26T07:27:30Z</time>
      </trkpt>
      <trkpt lat="42.9224360" lon="-8.2615540">
        <ele>363.2</ele>
        <time>2021-07-26T07:27:31Z</time>
      </trkpt>
      <trkpt lat="42.9224440" lon="-8.2616160">
        <ele>362.8</ele>
        <time>2021-07-26T07:27:32Z</time>
      </trkpt>
      <trkpt lat="42.9224570" lon="-8.2616840">
        <ele>362.4</ele>
        <time>2021-07-26T07:27:33Z</time>
      </trkpt>
      <trkpt lat="42.9224720" lon="-8.2617440">
        <ele>362.4</ele>
        <time>2021-07-26T07:27:34Z</time>
      </trkpt>
      <trkpt lat="42.9224910" lon="-8.2618020">
        <ele>362.4</ele>
        <time>2021-07-26T07:27:35Z</time>
      </trkpt>
      <trkpt lat="42.9225460" lon="-8.2618920">
        <ele>362.0</ele>
        <time>2021-07-26T07:27:37Z</time>
      </trkpt>
      <trkpt lat="42.9225730" lon="-8.2619200">
        <ele>361.6</ele>
        <time>2021-07-26T07:27:38Z</time>
      </trkpt>
      <trkpt lat="42.9226050" lon="-8.2619450">
        <ele>361.2</ele>
        <time>2021-07-26T07:27:39Z</time>
      </trkpt>
      <trkpt lat="42.9226350" lon="-8.2619750">
        <ele>360.8</ele>
        <time>2021-07-26T07:27:40Z</time>
      </trkpt>
      <trkpt lat="42.9226650" lon="-8.2620090">
        <ele>360.4</ele>
        <time>2021-07-26T07:27:41Z</time>
      </trkpt>
      <trkpt lat="42.9227730" lon="-8.2621990">
        <ele>360.0</ele>
        <time>2021-07-26T07:27:46Z</time>
      </trkpt>
      <trkpt lat="42.9227890" lon="-8.2622470">
        <ele>359.6</ele>
        <time>2021-07-26T07:27:47Z</time>
      </trkpt>
      <trkpt lat="42.9228040" lon="-8.2622970">
        <ele>359.0</ele>
        <time>2021-07-26T07:27:48Z</time>
      </trkpt>
      <trkpt lat="42.9228210" lon="-8.2623570">
        <ele>358.6</ele>
        <time>2021-07-26T07:27:49Z</time>
      </trkpt>
      <trkpt lat="42.9228380" lon="-8.2624130">
        <ele>358.2</ele>
        <time>2021-07-26T07:27:50Z</time>
      </trkpt>
      <trkpt lat="42.9228470" lon="-8.2624500">
        <ele>358.2</ele>
        <time>2021-07-26T07:27:51Z</time>
      </trkpt>
      <trkpt lat="42.9228530" lon="-8.2625220">
        <ele>357.8</ele>
        <time>2021-07-26T07:27:53Z</time>
      </trkpt>
      <trkpt lat="42.9228610" lon="-8.2625560">
        <ele>357.4</ele>
        <time>2021-07-26T07:27:54Z</time>
      </trkpt>
      <trkpt lat="42.9228740" lon="-8.2625970">
        <ele>357.0</ele>
        <time>2021-07-26T07:27:55Z</time>
      </trkpt>
      <trkpt lat="42.9228880" lon="-8.2626360">
        <ele>356.6</ele>
        <time>2021-07-26T07:27:56Z</time>
      </trkpt>
      <trkpt lat="42.9229030" lon="-8.2626760">
        <ele>356.2</ele>
        <time>2021-07-26T07:27:57Z</time>
      </trkpt>
      <trkpt lat="42.9229490" lon="-8.2628020">
        <ele>355.6</ele>
        <time>2021-07-26T07:28:00Z</time>
      </trkpt>
      <trkpt lat="42.9229620" lon="-8.2628620">
        <ele>355.2</ele>
        <time>2021-07-26T07:28:01Z</time>
      </trkpt>
      <trkpt lat="42.9229760" lon="-8.2629250">
        <ele>354.8</ele>
        <time>2021-07-26T07:28:02Z</time>
      </trkpt>
      <trkpt lat="42.9230120" lon="-8.2630430">
        <ele>354.4</ele>
        <time>2021-07-26T07:28:03Z</time>
      </trkpt>
      <trkpt lat="42.9230160" lon="-8.2631180">
        <ele>354.0</ele>
        <time>2021-07-26T07:28:04Z</time>
      </trkpt>
      <trkpt lat="42.9231220" lon="-8.2636440">
        <ele>354.0</ele>
        <time>2021-07-26T07:28:10Z</time>
      </trkpt>
      <trkpt lat="42.9231920" lon="-8.2639100">
        <ele>354.0</ele>
        <time>2021-07-26T07:28:15Z</time>
      </trkpt>
      <trkpt lat="42.9232120" lon="-8.2639580">
        <ele>354.0</ele>
        <time>2021-07-26T07:28:16Z</time>
      </trkpt>
      <trkpt lat="42.9232310" lon="-8.2640250">
        <ele>354.0</ele>
        <time>2021-07-26T07:28:17Z</time>
      </trkpt>
      <trkpt lat="42.9232580" lon="-8.2641450">
        <ele>354.0</ele>
        <time>2021-07-26T07:28:19Z</time>
      </trkpt>
      <trkpt lat="42.9232770" lon="-8.2642450">
        <ele>354.0</ele>
        <time>2021-07-26T07:28:21Z</time>
      </trkpt>
      <trkpt lat="42.9233190" lon="-8.2644050">
        <ele>354.0</ele>
        <time>2021-07-26T07:28:25Z</time>
      </trkpt>
      <trkpt lat="42.9233450" lon="-8.2644820">
        <ele>354.0</ele>
        <time>2021-07-26T07:28:27Z</time>
      </trkpt>
      <trkpt lat="42.9233850" lon="-8.2646030">
        <ele>354.0</ele>
        <time>2021-07-26T07:28:30Z</time>
      </trkpt>
      <trkpt lat="42.9234020" lon="-8.2646850">
        <ele>354.0</ele>
        <time>2021-07-26T07:28:32Z</time>
      </trkpt>
      <trkpt lat="42.9234250" lon="-8.2647640">
        <ele>354.0</ele>
        <time>2021-07-26T07:28:34Z</time>
      </trkpt>
      <trkpt lat="42.9234790" lon="-8.2649420">
        <ele>354.0</ele>
        <time>2021-07-26T07:28:39Z</time>
      </trkpt>
      <trkpt lat="42.9235070" lon="-8.2649980">
        <ele>354.0</ele>
        <time>2021-07-26T07:28:41Z</time>
      </trkpt>
      <trkpt lat="42.9235460" lon="-8.2650880">
        <ele>354.0</ele>
        <time>2021-07-26T07:28:44Z</time>
      </trkpt>
      <trkpt lat="42.9235620" lon="-8.2651770">
        <ele>354.0</ele>
        <time>2021-07-26T07:28:47Z</time>
      </trkpt>
      <trkpt lat="42.9235620" lon="-8.2651850">
        <ele>354.0</ele>
        <time>2021-07-26T07:28:48Z</time>
      </trkpt>
      <trkpt lat="42.9235620" lon="-8.2651860">
        <ele>354.0</ele>
        <time>2021-07-26T07:28:49Z</time>
      </trkpt>
      <trkpt lat="42.9235720" lon="-8.2652460">
        <ele>354.0</ele>
        <time>2021-07-26T07:29:18Z</time>
      </trkpt>
      <trkpt lat="42.9235730" lon="-8.2652740">
        <ele>354.0</ele>
        <time>2021-07-26T07:29:19Z</time>
      </trkpt>
      <trkpt lat="42.9235740" lon="-8.2653070">
        <ele>354.0</ele>
        <time>2021-07-26T07:29:20Z</time>
      </trkpt>
      <trkpt lat="42.9235970" lon="-8.2654820">
        <ele>354.0</ele>
        <time>2021-07-26T07:29:24Z</time>
      </trkpt>
      <trkpt lat="42.9236010" lon="-8.2657690">
        <ele>354.0</ele>
        <time>2021-07-26T07:29:30Z</time>
      </trkpt>
      <trkpt lat="42.9235970" lon="-8.2658300">
        <ele>354.0</ele>
        <time>2021-07-26T07:29:32Z</time>
      </trkpt>
      <trkpt lat="42.9235880" lon="-8.2659010">
        <ele>354.0</ele>
        <time>2021-07-26T07:29:34Z</time>
      </trkpt>
      <trkpt lat="42.9235780" lon="-8.2659610">
        <ele>354.0</ele>
        <time>2021-07-26T07:29:36Z</time>
      </trkpt>
      <trkpt lat="42.9235440" lon="-8.2661730">
        <ele>354.0</ele>
        <time>2021-07-26T07:29:43Z</time>
      </trkpt>
      <trkpt lat="42.9235250" lon="-8.2662980">
        <ele>354.0</ele>
        <time>2021-07-26T07:29:47Z</time>
      </trkpt>
      <trkpt lat="42.9235090" lon="-8.2664130">
        <ele>354.0</ele>
        <time>2021-07-26T07:29:51Z</time>
      </trkpt>
      <trkpt lat="42.9234850" lon="-8.2665320">
        <ele>354.4</ele>
        <time>2021-07-26T07:29:55Z</time>
      </trkpt>
      <trkpt lat="42.9234820" lon="-8.2665520">
        <ele>354.8</ele>
        <time>2021-07-26T07:29:56Z</time>
      </trkpt>
      <trkpt lat="42.9234790" lon="-8.2665850">
        <ele>355.2</ele>
        <time>2021-07-26T07:29:57Z</time>
      </trkpt>
      <trkpt lat="42.9234750" lon="-8.2666130">
        <ele>355.6</ele>
        <time>2021-07-26T07:29:58Z</time>
      </trkpt>
      <trkpt lat="42.9234700" lon="-8.2666340">
        <ele>356.0</ele>
        <time>2021-07-26T07:29:59Z</time>
      </trkpt>
      <trkpt lat="42.9234740" lon="-8.2667400">
        <ele>356.0</ele>
        <time>2021-07-26T07:30:05Z</time>
      </trkpt>
      <trkpt lat="42.9234820" lon="-8.2668690">
        <ele>356.0</ele>
        <time>2021-07-26T07:30:13Z</time>
      </trkpt>
      <trkpt lat="42.9235060" lon="-8.2669210">
        <ele>356.0</ele>
        <time>2021-07-26T07:30:16Z</time>
      </trkpt>
      <trkpt lat="42.9235180" lon="-8.2669840">
        <ele>356.0</ele>
        <time>2021-07-26T07:30:18Z</time>
      </trkpt>
      <trkpt lat="42.9235300" lon="-8.2670960">
        <ele>356.4</ele>
        <time>2021-07-26T07:30:21Z</time>
      </trkpt>
      <trkpt lat="42.9235380" lon="-8.2671390">
        <ele>356.8</ele>
        <time>2021-07-26T07:30:23Z</time>
      </trkpt>
      <trkpt lat="42.9235500" lon="-8.2671880">
        <ele>357.2</ele>
        <time>2021-07-26T07:30:24Z</time>
      </trkpt>
      <trkpt lat="42.9235630" lon="-8.2672280">
        <ele>357.6</ele>
        <time>2021-07-26T07:30:25Z</time>
      </trkpt>
      <trkpt lat="42.9235750" lon="-8.2672590">
        <ele>358.0</ele>
        <time>2021-07-26T07:30:26Z</time>
      </trkpt>
      <trkpt lat="42.9235960" lon="-8.2673240">
        <ele>358.0</ele>
        <time>2021-07-26T07:30:28Z</time>
      </trkpt>
      <trkpt lat="42.9236390" lon="-8.2674270">
        <ele>358.0</ele>
        <time>2021-07-26T07:30:31Z</time>
      </trkpt>
      <trkpt lat="42.9236500" lon="-8.2674540">
        <ele>358.0</ele>
        <time>2021-07-26T07:30:32Z</time>
      </trkpt>
      <trkpt lat="42.9237570" lon="-8.2676460">
        <ele>358.0</ele>
        <time>2021-07-26T07:30:39Z</time>
      </trkpt>
      <trkpt lat="42.9237780" lon="-8.2676730">
        <ele>358.4</ele>
        <time>2021-07-26T07:30:40Z</time>
      </trkpt>
      <trkpt lat="42.9238000" lon="-8.2677010">
        <ele>358.8</ele>
        <time>2021-07-26T07:30:41Z</time>
      </trkpt>
      <trkpt lat="42.9238160" lon="-8.2677260">
        <ele>359.2</ele>
        <time>2021-07-26T07:30:42Z</time>
      </trkpt>
      <trkpt lat="42.9238330" lon="-8.2677500">
        <ele>359.6</ele>
        <time>2021-07-26T07:30:43Z</time>
      </trkpt>
      <trkpt lat="42.9238490" lon="-8.2677740">
        <ele>360.2</ele>
        <time>2021-07-26T07:30:44Z</time>
      </trkpt>
      <trkpt lat="42.9238940" lon="-8.2678270">
        <ele>360.2</ele>
        <time>2021-07-26T07:30:46Z</time>
      </trkpt>
      <trkpt lat="42.9239960" lon="-8.2679980">
        <ele>360.2</ele>
        <time>2021-07-26T07:30:53Z</time>
      </trkpt>
      <trkpt lat="42.9240750" lon="-8.2680890">
        <ele>360.2</ele>
        <time>2021-07-26T07:30:59Z</time>
      </trkpt>
      <trkpt lat="42.9241140" lon="-8.2681440">
        <ele>360.6</ele>
        <time>2021-07-26T07:31:01Z</time>
      </trkpt>
      <trkpt lat="42.9241300" lon="-8.2681680">
        <ele>361.0</ele>
        <time>2021-07-26T07:31:02Z</time>
      </trkpt>
      <trkpt lat="42.9241460" lon="-8.2681910">
        <ele>361.4</ele>
        <time>2021-07-26T07:31:03Z</time>
      </trkpt>
      <trkpt lat="42.9241640" lon="-8.2682150">
        <ele>361.8</ele>
        <time>2021-07-26T07:31:04Z</time>
      </trkpt>
      <trkpt lat="42.9241750" lon="-8.2682320">
        <ele>362.2</ele>
        <time>2021-07-26T07:31:05Z</time>
      </trkpt>
      <trkpt lat="42.9242160" lon="-8.2682780">
        <ele>362.2</ele>
        <time>2021-07-26T07:31:07Z</time>
      </trkpt>
      <trkpt lat="42.9243290" lon="-8.2683800">
        <ele>362.2</ele>
        <time>2021-07-26T07:31:12Z</time>
      </trkpt>
      <trkpt lat="42.9244420" lon="-8.2684330">
        <ele>362.6</ele>
        <time>2021-07-26T07:31:18Z</time>
      </trkpt>
      <trkpt lat="42.9244570" lon="-8.2684420">
        <ele>363.0</ele>
        <time>2021-07-26T07:31:19Z</time>
      </trkpt>
      <trkpt lat="42.9244740" lon="-8.2684550">
        <ele>363.6</ele>
        <time>2021-07-26T07:31:20Z</time>
      </trkpt>
      <trkpt lat="42.9244870" lon="-8.2684730">
        <ele>364.0</ele>
        <time>2021-07-26T07:31:21Z</time>
      </trkpt>
      <trkpt lat="42.9245070" lon="-8.2684890">
        <ele>364.4</ele>
        <time>2021-07-26T07:31:22Z</time>
      </trkpt>
      <trkpt lat="42.9245710" lon="-8.2685430">
        <ele>364.4</ele>
        <time>2021-07-26T07:31:25Z</time>
      </trkpt>
      <trkpt lat="42.9246870" lon="-8.2686670">
        <ele>364.4</ele>
        <time>2021-07-26T07:31:31Z</time>
      </trkpt>
      <trkpt lat="42.9247930" lon="-8.2688530">
        <ele>364.4</ele>
        <time>2021-07-26T07:31:39Z</time>
      </trkpt>
      <trkpt lat="42.9248360" lon="-8.2689550">
        <ele>364.4</ele>
        <time>2021-07-26T07:31:43Z</time>
      </trkpt>
      <trkpt lat="42.9248540" lon="-8.2690060">
        <ele>364.4</ele>
        <time>2021-07-26T07:31:45Z</time>
      </trkpt>
      <trkpt lat="42.9248880" lon="-8.2691040">
        <ele>364.4</ele>
        <time>2021-07-26T07:31:48Z</time>
      </trkpt>
      <trkpt lat="42.9249150" lon="-8.2692310">
        <ele>364.4</ele>
        <time>2021-07-26T07:31:51Z</time>
      </trkpt>
      <trkpt lat="42.9249740" lon="-8.2696030">
        <ele>364.4</ele>
        <time>2021-07-26T07:31:58Z</time>
      </trkpt>
      <trkpt lat="42.9250150" lon="-8.2699250">
        <ele>364.4</ele>
        <time>2021-07-26T07:32:04Z</time>
      </trkpt>
      <trkpt lat="42.9250640" lon="-8.2700840">
        <ele>364.4</ele>
        <time>2021-07-26T07:32:09Z</time>
      </trkpt>
      <trkpt lat="42.9250750" lon="-8.2701310">
        <ele>364.4</ele>
        <time>2021-07-26T07:32:11Z</time>
      </trkpt>
      <trkpt lat="42.9250790" lon="-8.2701890">
        <ele>364.4</ele>
        <time>2021-07-26T07:32:14Z</time>
      </trkpt>
      <trkpt lat="42.9250770" lon="-8.2702120">
        <ele>364.4</ele>
        <time>2021-07-26T07:32:15Z</time>
      </trkpt>
      <trkpt lat="42.9251140" lon="-8.2703780">
        <ele>364.4</ele>
        <time>2021-07-26T07:32:20Z</time>
      </trkpt>
      <trkpt lat="42.9251600" lon="-8.2705220">
        <ele>364.4</ele>
        <time>2021-07-26T07:32:25Z</time>
      </trkpt>
      <trkpt lat="42.9251680" lon="-8.2705660">
        <ele>364.4</ele>
        <time>2021-07-26T07:32:27Z</time>
      </trkpt>
      <trkpt lat="42.9252140" lon="-8.2707950">
        <ele>363.8</ele>
        <time>2021-07-26T07:32:33Z</time>
      </trkpt>
      <trkpt lat="42.9252210" lon="-8.2708370">
        <ele>363.4</ele>
        <time>2021-07-26T07:32:34Z</time>
      </trkpt>
      <trkpt lat="42.9252280" lon="-8.2708810">
        <ele>363.0</ele>
        <time>2021-07-26T07:32:35Z</time>
      </trkpt>
      <trkpt lat="42.9252340" lon="-8.2709250">
        <ele>362.6</ele>
        <time>2021-07-26T07:32:36Z</time>
      </trkpt>
      <trkpt lat="42.9252380" lon="-8.2709660">
        <ele>362.2</ele>
        <time>2021-07-26T07:32:37Z</time>
      </trkpt>
      <trkpt lat="42.9252440" lon="-8.2710770">
        <ele>362.2</ele>
        <time>2021-07-26T07:32:40Z</time>
      </trkpt>
      <trkpt lat="42.9252590" lon="-8.2712470">
        <ele>362.2</ele>
        <time>2021-07-26T07:32:44Z</time>
      </trkpt>
      <trkpt lat="42.9252670" lon="-8.2713280">
        <ele>362.2</ele>
        <time>2021-07-26T07:32:46Z</time>
      </trkpt>
      <trkpt lat="42.9253120" lon="-8.2715440">
        <ele>362.2</ele>
        <time>2021-07-26T07:32:52Z</time>
      </trkpt>
      <trkpt lat="42.9253470" lon="-8.2718590">
        <ele>362.2</ele>
        <time>2021-07-26T07:32:59Z</time>
      </trkpt>
      <trkpt lat="42.9253630" lon="-8.2720830">
        <ele>362.2</ele>
        <time>2021-07-26T07:33:05Z</time>
      </trkpt>
      <trkpt lat="42.9253830" lon="-8.2721870">
        <ele>362.2</ele>
        <time>2021-07-26T07:33:08Z</time>
      </trkpt>
      <trkpt lat="42.9253990" lon="-8.2723220">
        <ele>362.2</ele>
        <time>2021-07-26T07:33:11Z</time>
      </trkpt>
      <trkpt lat="42.9254320" lon="-8.2725270">
        <ele>362.2</ele>
        <time>2021-07-26T07:33:16Z</time>
      </trkpt>
      <trkpt lat="42.9254440" lon="-8.2725680">
        <ele>362.2</ele>
        <time>2021-07-26T07:33:17Z</time>
      </trkpt>
      <trkpt lat="42.9254940" lon="-8.2728090">
        <ele>362.2</ele>
        <time>2021-07-26T07:33:21Z</time>
      </trkpt>
      <trkpt lat="42.9255100" lon="-8.2728680">
        <ele>362.2</ele>
        <time>2021-07-26T07:33:22Z</time>
      </trkpt>
      <trkpt lat="42.9255430" lon="-8.2730730">
        <ele>362.2</ele>
        <time>2021-07-26T07:33:26Z</time>
      </trkpt>
      <trkpt lat="42.9255590" lon="-8.2731240">
        <ele>362.2</ele>
        <time>2021-07-26T07:33:27Z</time>
      </trkpt>
      <trkpt lat="42.9256420" lon="-8.2734510">
        <ele>362.2</ele>
        <time>2021-07-26T07:33:33Z</time>
      </trkpt>
      <trkpt lat="42.9257070" lon="-8.2736470">
        <ele>362.2</ele>
        <time>2021-07-26T07:33:36Z</time>
      </trkpt>
      <trkpt lat="42.9257870" lon="-8.2738370">
        <ele>361.8</ele>
        <time>2021-07-26T07:33:39Z</time>
      </trkpt>
      <trkpt lat="42.9258150" lon="-8.2738980">
        <ele>361.4</ele>
        <time>2021-07-26T07:33:40Z</time>
      </trkpt>
      <trkpt lat="42.9258480" lon="-8.2739690">
        <ele>361.0</ele>
        <time>2021-07-26T07:33:41Z</time>
      </trkpt>
      <trkpt lat="42.9258710" lon="-8.2740120">
        <ele>360.6</ele>
        <time>2021-07-26T07:33:42Z</time>
      </trkpt>
      <trkpt lat="42.9259010" lon="-8.2740640">
        <ele>360.2</ele>
        <time>2021-07-26T07:33:43Z</time>
      </trkpt>
      <trkpt lat="42.9259600" lon="-8.2741650">
        <ele>360.2</ele>
        <time>2021-07-26T07:33:45Z</time>
      </trkpt>
      <trkpt lat="42.9260340" lon="-8.2742410">
        <ele>360.2</ele>
        <time>2021-07-26T07:33:48Z</time>
      </trkpt>
      <trkpt lat="42.9260710" lon="-8.2743060">
        <ele>360.2</ele>
        <time>2021-07-26T07:33:50Z</time>
      </trkpt>
      <trkpt lat="42.9260900" lon="-8.2743760">
        <ele>360.2</ele>
        <time>2021-07-26T07:33:52Z</time>
      </trkpt>
      <trkpt lat="42.9261310" lon="-8.2745200">
        <ele>360.2</ele>
        <time>2021-07-26T07:33:55Z</time>
      </trkpt>
      <trkpt lat="42.9261850" lon="-8.2746720">
        <ele>360.2</ele>
        <time>2021-07-26T07:33:58Z</time>
      </trkpt>
      <trkpt lat="42.9262270" lon="-8.2748200">
        <ele>360.2</ele>
        <time>2021-07-26T07:34:01Z</time>
      </trkpt>
      <trkpt lat="42.9263030" lon="-8.2750720">
        <ele>360.2</ele>
        <time>2021-07-26T07:34:07Z</time>
      </trkpt>
      <trkpt lat="42.9263700" lon="-8.2752250">
        <ele>360.2</ele>
        <time>2021-07-26T07:34:12Z</time>
      </trkpt>
      <trkpt lat="42.9263910" lon="-8.2752860">
        <ele>360.2</ele>
        <time>2021-07-26T07:34:14Z</time>
      </trkpt>
      <trkpt lat="42.9264250" lon="-8.2754680">
        <ele>360.2</ele>
        <time>2021-07-26T07:34:18Z</time>
      </trkpt>
      <trkpt lat="42.9264380" lon="-8.2755690">
        <ele>360.2</ele>
        <time>2021-07-26T07:34:20Z</time>
      </trkpt>
      <trkpt lat="42.9264280" lon="-8.2756700">
        <ele>360.2</ele>
        <time>2021-07-26T07:34:22Z</time>
      </trkpt>
      <trkpt lat="42.9264240" lon="-8.2757710">
        <ele>360.2</ele>
        <time>2021-07-26T07:34:24Z</time>
      </trkpt>
      <trkpt lat="42.9264490" lon="-8.2760600">
        <ele>359.8</ele>
        <time>2021-07-26T07:34:30Z</time>
      </trkpt>
      <trkpt lat="42.9264530" lon="-8.2761050">
        <ele>359.4</ele>
        <time>2021-07-26T07:34:31Z</time>
      </trkpt>
      <trkpt lat="42.9264540" lon="-8.2761530">
        <ele>359.0</ele>
        <time>2021-07-26T07:34:32Z</time>
      </trkpt>
      <trkpt lat="42.9264540" lon="-8.2762020">
        <ele>358.6</ele>
        <time>2021-07-26T07:34:33Z</time>
      </trkpt>
      <trkpt lat="42.9264570" lon="-8.2762430">
        <ele>358.2</ele>
        <time>2021-07-26T07:34:34Z</time>
      </trkpt>
      <trkpt lat="42.9264730" lon="-8.2763690">
        <ele>358.2</ele>
        <time>2021-07-26T07:34:37Z</time>
      </trkpt>
      <trkpt lat="42.9264730" lon="-8.2765050">
        <ele>358.2</ele>
        <time>2021-07-26T07:34:40Z</time>
      </trkpt>
      <trkpt lat="42.9264680" lon="-8.2766510">
        <ele>358.2</ele>
        <time>2021-07-26T07:34:43Z</time>
      </trkpt>
      <trkpt lat="42.9264680" lon="-8.2766950">
        <ele>358.2</ele>
        <time>2021-07-26T07:34:44Z</time>
      </trkpt>
      <trkpt lat="42.9264640" lon="-8.2768560">
        <ele>358.2</ele>
        <time>2021-07-26T07:34:48Z</time>
      </trkpt>
      <trkpt lat="42.9264590" lon="-8.2769120">
        <ele>357.6</ele>
        <time>2021-07-26T07:34:49Z</time>
      </trkpt>
      <trkpt lat="42.9264490" lon="-8.2769660">
        <ele>357.2</ele>
        <time>2021-07-26T07:34:50Z</time>
      </trkpt>
      <trkpt lat="42.9264360" lon="-8.2770230">
        <ele>356.4</ele>
        <time>2021-07-26T07:34:51Z</time>
      </trkpt>
      <trkpt lat="42.9264250" lon="-8.2770790">
        <ele>356.0</ele>
        <time>2021-07-26T07:34:52Z</time>
      </trkpt>
      <trkpt lat="42.9263810" lon="-8.2773100">
        <ele>356.0</ele>
        <time>2021-07-26T07:34:56Z</time>
      </trkpt>
      <trkpt lat="42.9263560" lon="-8.2774660">
        <ele>355.4</ele>
        <time>2021-07-26T07:34:59Z</time>
      </trkpt>
      <trkpt lat="42.9263460" lon="-8.2775140">
        <ele>355.0</ele>
        <time>2021-07-26T07:35:00Z</time>
      </trkpt>
      <trkpt lat="42.9263310" lon="-8.2775520">
        <ele>354.6</ele>
        <time>2021-07-26T07:35:01Z</time>
      </trkpt>
      <trkpt lat="42.9263130" lon="-8.2775770">
        <ele>354.2</ele>
        <time>2021-07-26T07:35:02Z</time>
      </trkpt>
      <trkpt lat="42.9262870" lon="-8.2776000">
        <ele>353.8</ele>
        <time>2021-07-26T07:35:03Z</time>
      </trkpt>
      <trkpt lat="42.9262450" lon="-8.2776610">
        <ele>353.8</ele>
        <time>2021-07-26T07:35:05Z</time>
      </trkpt>
      <trkpt lat="42.9262430" lon="-8.2777060">
        <ele>353.8</ele>
        <time>2021-07-26T07:35:06Z</time>
      </trkpt>
      <trkpt lat="42.9262720" lon="-8.2779600">
        <ele>353.8</ele>
        <time>2021-07-26T07:35:12Z</time>
      </trkpt>
      <trkpt lat="42.9262920" lon="-8.2782150">
        <ele>353.8</ele>
        <time>2021-07-26T07:35:18Z</time>
      </trkpt>
      <trkpt lat="42.9263010" lon="-8.2782750">
        <ele>353.8</ele>
        <time>2021-07-26T07:35:19Z</time>
      </trkpt>
      <trkpt lat="42.9263110" lon="-8.2784650">
        <ele>353.8</ele>
        <time>2021-07-26T07:35:23Z</time>
      </trkpt>
      <trkpt lat="42.9263140" lon="-8.2786470">
        <ele>353.8</ele>
        <time>2021-07-26T07:35:27Z</time>
      </trkpt>
      <trkpt lat="42.9263210" lon="-8.2786910">
        <ele>353.8</ele>
        <time>2021-07-26T07:35:28Z</time>
      </trkpt>
      <trkpt lat="42.9263250" lon="-8.2787330">
        <ele>353.4</ele>
        <time>2021-07-26T07:35:29Z</time>
      </trkpt>
      <trkpt lat="42.9263290" lon="-8.2787740">
        <ele>353.0</ele>
        <time>2021-07-26T07:35:30Z</time>
      </trkpt>
      <trkpt lat="42.9263350" lon="-8.2788160">
        <ele>352.6</ele>
        <time>2021-07-26T07:35:31Z</time>
      </trkpt>
      <trkpt lat="42.9263380" lon="-8.2788580">
        <ele>352.2</ele>
        <time>2021-07-26T07:35:32Z</time>
      </trkpt>
      <trkpt lat="42.9263420" lon="-8.2788980">
        <ele>351.8</ele>
        <time>2021-07-26T07:35:33Z</time>
      </trkpt>
      <trkpt lat="42.9263570" lon="-8.2790250">
        <ele>351.8</ele>
        <time>2021-07-26T07:35:36Z</time>
      </trkpt>
      <trkpt lat="42.9263770" lon="-8.2792050">
        <ele>351.8</ele>
        <time>2021-07-26T07:35:40Z</time>
      </trkpt>
      <trkpt lat="42.9263860" lon="-8.2793030">
        <ele>351.8</ele>
        <time>2021-07-26T07:35:42Z</time>
      </trkpt>
      <trkpt lat="42.9263940" lon="-8.2794880">
        <ele>351.8</ele>
        <time>2021-07-26T07:35:46Z</time>
      </trkpt>
      <trkpt lat="42.9264000" lon="-8.2796460">
        <ele>351.8</ele>
        <time>2021-07-26T07:35:49Z</time>
      </trkpt>
      <trkpt lat="42.9264070" lon="-8.2798040">
        <ele>351.8</ele>
        <time>2021-07-26T07:35:52Z</time>
      </trkpt>
      <trkpt lat="42.9264130" lon="-8.2799530">
        <ele>351.8</ele>
        <time>2021-07-26T07:35:55Z</time>
      </trkpt>
      <trkpt lat="42.9264100" lon="-8.2801580">
        <ele>351.8</ele>
        <time>2021-07-26T07:36:00Z</time>
      </trkpt>
      <trkpt lat="42.9264070" lon="-8.2802000">
        <ele>351.8</ele>
        <time>2021-07-26T07:36:01Z</time>
      </trkpt>
      <trkpt lat="42.9264060" lon="-8.2804570">
        <ele>351.8</ele>
        <time>2021-07-26T07:36:07Z</time>
      </trkpt>
      <trkpt lat="42.9263870" lon="-8.2805500">
        <ele>351.8</ele>
        <time>2021-07-26T07:36:09Z</time>
      </trkpt>
      <trkpt lat="42.9263510" lon="-8.2807310">
        <ele>351.8</ele>
        <time>2021-07-26T07:36:14Z</time>
      </trkpt>
      <trkpt lat="42.9262940" lon="-8.2809730">
        <ele>351.8</ele>
        <time>2021-07-26T07:36:21Z</time>
      </trkpt>
      <trkpt lat="42.9262630" lon="-8.2810890">
        <ele>351.8</ele>
        <time>2021-07-26T07:36:25Z</time>
      </trkpt>
      <trkpt lat="42.9262500" lon="-8.2811550">
        <ele>351.8</ele>
        <time>2021-07-26T07:36:27Z</time>
      </trkpt>
      <trkpt lat="42.9262270" lon="-8.2812360">
        <ele>351.8</ele>
        <time>2021-07-26T07:36:30Z</time>
      </trkpt>
      <trkpt lat="42.9262050" lon="-8.2813410">
        <ele>351.8</ele>
        <time>2021-07-26T07:36:33Z</time>
      </trkpt>
      <trkpt lat="42.9261360" lon="-8.2815870">
        <ele>351.8</ele>
        <time>2021-07-26T07:36:39Z</time>
      </trkpt>
      <trkpt lat="42.9260630" lon="-8.2817700">
        <ele>351.8</ele>
        <time>2021-07-26T07:36:44Z</time>
      </trkpt>
      <trkpt lat="42.9260160" lon="-8.2818890">
        <ele>351.8</ele>
        <time>2021-07-26T07:36:47Z</time>
      </trkpt>
      <trkpt lat="42.9259460" lon="-8.2820660">
        <ele>352.2</ele>
        <time>2021-07-26T07:36:51Z</time>
      </trkpt>
      <trkpt lat="42.9259240" lon="-8.2821080">
        <ele>352.6</ele>
        <time>2021-07-26T07:36:52Z</time>
      </trkpt>
      <trkpt lat="42.9259030" lon="-8.2821520">
        <ele>353.0</ele>
        <time>2021-07-26T07:36:53Z</time>
      </trkpt>
      <trkpt lat="42.9258850" lon="-8.2821860">
        <ele>353.8</ele>
        <time>2021-07-26T07:36:54Z</time>
      </trkpt>
      <trkpt lat="42.9258200" lon="-8.2823210">
        <ele>353.8</ele>
        <time>2021-07-26T07:36:58Z</time>
      </trkpt>
      <trkpt lat="42.9257710" lon="-8.2824150">
        <ele>353.8</ele>
        <time>2021-07-26T07:37:01Z</time>
      </trkpt>
      <trkpt lat="42.9257290" lon="-8.2824760">
        <ele>353.8</ele>
        <time>2021-07-26T07:37:04Z</time>
      </trkpt>
      <trkpt lat="42.9257020" lon="-8.2825270">
        <ele>353.8</ele>
        <time>2021-07-26T07:37:06Z</time>
      </trkpt>
      <trkpt lat="42.9256570" lon="-8.2826870">
        <ele>353.8</ele>
        <time>2021-07-26T07:37:11Z</time>
      </trkpt>
      <trkpt lat="42.9256290" lon="-8.2828200">
        <ele>354.2</ele>
        <time>2021-07-26T07:37:14Z</time>
      </trkpt>
      <trkpt lat="42.9256230" lon="-8.2828600">
        <ele>354.6</ele>
        <time>2021-07-26T07:37:15Z</time>
      </trkpt>
      <trkpt lat="42.9256160" lon="-8.2828950">
        <ele>355.0</ele>
        <time>2021-07-26T07:37:16Z</time>
      </trkpt>
      <trkpt lat="42.9256060" lon="-8.2829310">
        <ele>355.4</ele>
        <time>2021-07-26T07:37:17Z</time>
      </trkpt>
      <trkpt lat="42.9255960" lon="-8.2829630">
        <ele>355.8</ele>
        <time>2021-07-26T07:37:18Z</time>
      </trkpt>
      <trkpt lat="42.9255880" lon="-8.2829890">
        <ele>355.8</ele>
        <time>2021-07-26T07:37:19Z</time>
      </trkpt>
      <trkpt lat="42.9255440" lon="-8.2831550">
        <ele>355.8</ele>
        <time>2021-07-26T07:37:25Z</time>
      </trkpt>
      <trkpt lat="42.9255130" lon="-8.2833120">
        <ele>355.8</ele>
        <time>2021-07-26T07:37:31Z</time>
      </trkpt>
      <trkpt lat="42.9254960" lon="-8.2833630">
        <ele>356.2</ele>
        <time>2021-07-26T07:37:33Z</time>
      </trkpt>
      <trkpt lat="42.9254890" lon="-8.2833890">
        <ele>356.6</ele>
        <time>2021-07-26T07:37:34Z</time>
      </trkpt>
      <trkpt lat="42.9254830" lon="-8.2834140">
        <ele>357.0</ele>
        <time>2021-07-26T07:37:35Z</time>
      </trkpt>
      <trkpt lat="42.9254770" lon="-8.2834420">
        <ele>357.6</ele>
        <time>2021-07-26T07:37:36Z</time>
      </trkpt>
      <trkpt lat="42.9254710" lon="-8.2834710">
        <ele>358.0</ele>
        <time>2021-07-26T07:37:37Z</time>
      </trkpt>
      <trkpt lat="42.9254680" lon="-8.2834990">
        <ele>358.0</ele>
        <time>2021-07-26T07:37:38Z</time>
      </trkpt>
      <trkpt lat="42.9254350" lon="-8.2836660">
        <ele>358.4</ele>
        <time>2021-07-26T07:37:45Z</time>
      </trkpt>
      <trkpt lat="42.9254350" lon="-8.2836890">
        <ele>358.8</ele>
        <time>2021-07-26T07:37:46Z</time>
      </trkpt>
      <trkpt lat="42.9254340" lon="-8.2837080">
        <ele>359.2</ele>
        <time>2021-07-26T07:37:47Z</time>
      </trkpt>
      <trkpt lat="42.9254280" lon="-8.2837310">
        <ele>359.6</ele>
        <time>2021-07-26T07:37:48Z</time>
      </trkpt>
      <trkpt lat="42.9254180" lon="-8.2837530">
        <ele>360.0</ele>
        <time>2021-07-26T07:37:49Z</time>
      </trkpt>
      <trkpt lat="42.9254030" lon="-8.2838000">
        <ele>360.0</ele>
        <time>2021-07-26T07:37:51Z</time>
      </trkpt>
      <trkpt lat="42.9253960" lon="-8.2838680">
        <ele>360.0</ele>
        <time>2021-07-26T07:37:54Z</time>
      </trkpt>
      <trkpt lat="42.9254110" lon="-8.2839620">
        <ele>360.0</ele>
        <time>2021-07-26T07:37:58Z</time>
      </trkpt>
      <trkpt lat="42.9254260" lon="-8.2840270">
        <ele>360.4</ele>
        <time>2021-07-26T07:38:01Z</time>
      </trkpt>
      <trkpt lat="42.9254310" lon="-8.2840470">
        <ele>361.0</ele>
        <time>2021-07-26T07:38:02Z</time>
      </trkpt>
      <trkpt lat="42.9254360" lon="-8.2840670">
        <ele>361.4</ele>
        <time>2021-07-26T07:38:03Z</time>
      </trkpt>
      <trkpt lat="42.9254430" lon="-8.2840880">
        <ele>361.8</ele>
        <time>2021-07-26T07:38:04Z</time>
      </trkpt>
      <trkpt lat="42.9254520" lon="-8.2841110">
        <ele>362.2</ele>
        <time>2021-07-26T07:38:05Z</time>
      </trkpt>
      <trkpt lat="42.9254900" lon="-8.2843090">
        <ele>362.2</ele>
        <time>2021-07-26T07:38:14Z</time>
      </trkpt>
      <trkpt lat="42.9254960" lon="-8.2843340">
        <ele>362.6</ele>
        <time>2021-07-26T07:38:15Z</time>
      </trkpt>
      <trkpt lat="42.9255010" lon="-8.2843550">
        <ele>363.0</ele>
        <time>2021-07-26T07:38:16Z</time>
      </trkpt>
      <trkpt lat="42.9255030" lon="-8.2843800">
        <ele>363.4</ele>
        <time>2021-07-26T07:38:17Z</time>
      </trkpt>
      <trkpt lat="42.9255100" lon="-8.2844040">
        <ele>363.8</ele>
        <time>2021-07-26T07:38:18Z</time>
      </trkpt>
      <trkpt lat="42.9255120" lon="-8.2844270">
        <ele>364.2</ele>
        <time>2021-07-26T07:38:19Z</time>
      </trkpt>
      <trkpt lat="42.9255130" lon="-8.2844540">
        <ele>364.2</ele>
        <time>2021-07-26T07:38:20Z</time>
      </trkpt>
      <trkpt lat="42.9254950" lon="-8.2845410">
        <ele>364.2</ele>
        <time>2021-07-26T07:38:26Z</time>
      </trkpt>
      <trkpt lat="42.9254700" lon="-8.2846340">
        <ele>364.2</ele>
        <time>2021-07-26T07:38:31Z</time>
      </trkpt>
      <trkpt lat="42.9254650" lon="-8.2846990">
        <ele>364.2</ele>
        <time>2021-07-26T07:38:34Z</time>
      </trkpt>
      <trkpt lat="42.9254610" lon="-8.2847370">
        <ele>364.8</ele>
        <time>2021-07-26T07:38:36Z</time>
      </trkpt>
      <trkpt lat="42.9254570" lon="-8.2847530">
        <ele>365.2</ele>
        <time>2021-07-26T07:38:37Z</time>
      </trkpt>
      <trkpt lat="42.9254530" lon="-8.2847660">
        <ele>365.6</ele>
        <time>2021-07-26T07:38:38Z</time>
      </trkpt>
      <trkpt lat="42.9254490" lon="-8.2847830">
        <ele>366.0</ele>
        <time>2021-07-26T07:38:39Z</time>
      </trkpt>
      <trkpt lat="42.9254480" lon="-8.2848000">
        <ele>366.4</ele>
        <time>2021-07-26T07:38:40Z</time>
      </trkpt>
      <trkpt lat="42.9254370" lon="-8.2849450">
        <ele>366.4</ele>
        <time>2021-07-26T07:38:48Z</time>
      </trkpt>
      <trkpt lat="42.9254250" lon="-8.2850470">
        <ele>366.8</ele>
        <time>2021-07-26T07:38:54Z</time>
      </trkpt>
      <trkpt lat="42.9254230" lon="-8.2850620">
        <ele>367.2</ele>
        <time>2021-07-26T07:38:55Z</time>
      </trkpt>
      <trkpt lat="42.9254220" lon="-8.2850770">
        <ele>367.6</ele>
        <time>2021-07-26T07:38:56Z</time>
      </trkpt>
      <trkpt lat="42.9254160" lon="-8.2850900">
        <ele>368.6</ele>
        <time>2021-07-26T07:38:57Z</time>
      </trkpt>
      <trkpt lat="42.9254060" lon="-8.2851070">
        <ele>368.6</ele>
        <time>2021-07-26T07:38:58Z</time>
      </trkpt>
      <trkpt lat="42.9253900" lon="-8.2851570">
        <ele>368.6</ele>
        <time>2021-07-26T07:39:01Z</time>
      </trkpt>
      <trkpt lat="42.9253840" lon="-8.2851750">
        <ele>368.6</ele>
        <time>2021-07-26T07:39:02Z</time>
      </trkpt>
      <trkpt lat="42.9253180" lon="-8.2853180">
        <ele>368.6</ele>
        <time>2021-07-26T07:39:09Z</time>
      </trkpt>
      <trkpt lat="42.9252960" lon="-8.2853720">
        <ele>369.0</ele>
        <time>2021-07-26T07:39:11Z</time>
      </trkpt>
      <trkpt lat="42.9252890" lon="-8.2854060">
        <ele>369.4</ele>
        <time>2021-07-26T07:39:12Z</time>
      </trkpt>
      <trkpt lat="42.9252810" lon="-8.2854320">
        <ele>369.8</ele>
        <time>2021-07-26T07:39:13Z</time>
      </trkpt>
      <trkpt lat="42.9252710" lon="-8.2854620">
        <ele>370.2</ele>
        <time>2021-07-26T07:39:14Z</time>
      </trkpt>
      <trkpt lat="42.9252640" lon="-8.2854980">
        <ele>370.6</ele>
        <time>2021-07-26T07:39:15Z</time>
      </trkpt>
      <trkpt lat="42.9252190" lon="-8.2857950">
        <ele>370.6</ele>
        <time>2021-07-26T07:39:23Z</time>
      </trkpt>
      <trkpt lat="42.9251760" lon="-8.2860130">
        <ele>370.6</ele>
        <time>2021-07-26T07:39:31Z</time>
      </trkpt>
      <trkpt lat="42.9251720" lon="-8.2860390">
        <ele>371.0</ele>
        <time>2021-07-26T07:39:32Z</time>
      </trkpt>
      <trkpt lat="42.9251680" lon="-8.2860660">
        <ele>371.6</ele>
        <time>2021-07-26T07:39:33Z</time>
      </trkpt>
      <trkpt lat="42.9251660" lon="-8.2860940">
        <ele>372.0</ele>
        <time>2021-07-26T07:39:34Z</time>
      </trkpt>
      <trkpt lat="42.9251640" lon="-8.2861260">
        <ele>372.4</ele>
        <time>2021-07-26T07:39:35Z</time>
      </trkpt>
      <trkpt lat="42.9251630" lon="-8.2861510">
        <ele>372.8</ele>
        <time>2021-07-26T07:39:36Z</time>
      </trkpt>
      <trkpt lat="42.9251540" lon="-8.2862360">
        <ele>372.8</ele>
        <time>2021-07-26T07:39:39Z</time>
      </trkpt>
      <trkpt lat="42.9251480" lon="-8.2864650">
        <ele>372.8</ele>
        <time>2021-07-26T07:39:46Z</time>
      </trkpt>
      <trkpt lat="42.9251640" lon="-8.2866610">
        <ele>372.8</ele>
        <time>2021-07-26T07:39:51Z</time>
      </trkpt>
      <trkpt lat="42.9251670" lon="-8.2867380">
        <ele>372.8</ele>
        <time>2021-07-26T07:39:53Z</time>
      </trkpt>
      <trkpt lat="42.9251770" lon="-8.2868570">
        <ele>372.8</ele>
        <time>2021-07-26T07:39:56Z</time>
      </trkpt>
      <trkpt lat="42.9251760" lon="-8.2870070">
        <ele>372.8</ele>
        <time>2021-07-26T07:40:00Z</time>
      </trkpt>
      <trkpt lat="42.9251510" lon="-8.2871340">
        <ele>372.8</ele>
        <time>2021-07-26T07:40:04Z</time>
      </trkpt>
      <trkpt lat="42.9251460" lon="-8.2872000">
        <ele>372.8</ele>
        <time>2021-07-26T07:40:06Z</time>
      </trkpt>
      <trkpt lat="42.9250830" lon="-8.2874610">
        <ele>372.8</ele>
        <time>2021-07-26T07:40:14Z</time>
      </trkpt>
      <trkpt lat="42.9250340" lon="-8.2876500">
        <ele>372.8</ele>
        <time>2021-07-26T07:40:21Z</time>
      </trkpt>
      <trkpt lat="42.9249630" lon="-8.2879900">
        <ele>372.8</ele>
        <time>2021-07-26T07:40:30Z</time>
      </trkpt>
      <trkpt lat="42.9249090" lon="-8.2882120">
        <ele>372.8</ele>
        <time>2021-07-26T07:40:37Z</time>
      </trkpt>
      <trkpt lat="42.9248930" lon="-8.2882400">
        <ele>372.8</ele>
        <time>2021-07-26T07:40:38Z</time>
      </trkpt>
      <trkpt lat="42.9248500" lon="-8.2883650">
        <ele>372.8</ele>
        <time>2021-07-26T07:40:42Z</time>
      </trkpt>
      <trkpt lat="42.9248170" lon="-8.2884780">
        <ele>372.8</ele>
        <time>2021-07-26T07:40:45Z</time>
      </trkpt>
      <trkpt lat="42.9247200" lon="-8.2886560">
        <ele>372.8</ele>
        <time>2021-07-26T07:40:51Z</time>
      </trkpt>
      <trkpt lat="42.9247050" lon="-8.2886740">
        <ele>372.8</ele>
        <time>2021-07-26T07:40:52Z</time>
      </trkpt>
      <trkpt lat="42.9246240" lon="-8.2888220">
        <ele>372.8</ele>
        <time>2021-07-26T07:40:58Z</time>
      </trkpt>
      <trkpt lat="42.9245870" lon="-8.2889160">
        <ele>372.8</ele>
        <time>2021-07-26T07:41:02Z</time>
      </trkpt>
      <trkpt lat="42.9245430" lon="-8.2890040">
        <ele>372.8</ele>
        <time>2021-07-26T07:41:05Z</time>
      </trkpt>
      <trkpt lat="42.9245130" lon="-8.2891190">
        <ele>372.8</ele>
        <time>2021-07-26T07:41:08Z</time>
      </trkpt>
      <trkpt lat="42.9244800" lon="-8.2892420">
        <ele>372.8</ele>
        <time>2021-07-26T07:41:11Z</time>
      </trkpt>
      <trkpt lat="42.9244700" lon="-8.2892860">
        <ele>372.8</ele>
        <time>2021-07-26T07:41:12Z</time>
      </trkpt>
      <trkpt lat="42.9244490" lon="-8.2894260">
        <ele>372.8</ele>
        <time>2021-07-26T07:41:16Z</time>
      </trkpt>
      <trkpt lat="42.9244210" lon="-8.2895160">
        <ele>372.8</ele>
        <time>2021-07-26T07:41:19Z</time>
      </trkpt>
      <trkpt lat="42.9243780" lon="-8.2896840">
        <ele>373.6</ele>
        <time>2021-07-26T07:41:25Z</time>
      </trkpt>
      <trkpt lat="42.9243700" lon="-8.2897120">
        <ele>374.0</ele>
        <time>2021-07-26T07:41:26Z</time>
      </trkpt>
      <trkpt lat="42.9243630" lon="-8.2897430">
        <ele>374.4</ele>
        <time>2021-07-26T07:41:27Z</time>
      </trkpt>
      <trkpt lat="42.9243560" lon="-8.2897780">
        <ele>374.8</ele>
        <time>2021-07-26T07:41:28Z</time>
      </trkpt>
      <trkpt lat="42.9243110" lon="-8.2899380">
        <ele>374.8</ele>
        <time>2021-07-26T07:41:33Z</time>
      </trkpt>
      <trkpt lat="42.9242980" lon="-8.2899660">
        <ele>374.8</ele>
        <time>2021-07-26T07:41:34Z</time>
      </trkpt>
      <trkpt lat="42.9242710" lon="-8.2900530">
        <ele>374.8</ele>
        <time>2021-07-26T07:41:37Z</time>
      </trkpt>
      <trkpt lat="42.9242360" lon="-8.2901700">
        <ele>374.8</ele>
        <time>2021-07-26T07:41:41Z</time>
      </trkpt>
      <trkpt lat="42.9241940" lon="-8.2902860">
        <ele>374.8</ele>
        <time>2021-07-26T07:41:46Z</time>
      </trkpt>
      <trkpt lat="42.9241840" lon="-8.2903100">
        <ele>374.8</ele>
        <time>2021-07-26T07:41:48Z</time>
      </trkpt>
      <trkpt lat="42.9241720" lon="-8.2903200">
        <ele>374.8</ele>
        <time>2021-07-26T07:41:49Z</time>
      </trkpt>
      <trkpt lat="42.9240940" lon="-8.2903810">
        <ele>375.2</ele>
        <time>2021-07-26T07:41:53Z</time>
      </trkpt>
      <trkpt lat="42.9240720" lon="-8.2904010">
        <ele>375.6</ele>
        <time>2021-07-26T07:41:54Z</time>
      </trkpt>
      <trkpt lat="42.9240480" lon="-8.2904180">
        <ele>376.0</ele>
        <time>2021-07-26T07:41:55Z</time>
      </trkpt>
      <trkpt lat="42.9240300" lon="-8.2904330">
        <ele>376.6</ele>
        <time>2021-07-26T07:41:56Z</time>
      </trkpt>
      <trkpt lat="42.9240150" lon="-8.2904540">
        <ele>377.0</ele>
        <time>2021-07-26T07:41:57Z</time>
      </trkpt>
      <trkpt lat="42.9239750" lon="-8.2905070">
        <ele>377.0</ele>
        <time>2021-07-26T07:41:59Z</time>
      </trkpt>
      <trkpt lat="42.9238310" lon="-8.2907360">
        <ele>377.0</ele>
        <time>2021-07-26T07:42:06Z</time>
      </trkpt>
      <trkpt lat="42.9236820" lon="-8.2909620">
        <ele>377.0</ele>
        <time>2021-07-26T07:42:13Z</time>
      </trkpt>
      <trkpt lat="42.9235790" lon="-8.2911570">
        <ele>377.0</ele>
        <time>2021-07-26T07:42:20Z</time>
      </trkpt>
      <trkpt lat="42.9234740" lon="-8.2913610">
        <ele>377.0</ele>
        <time>2021-07-26T07:42:26Z</time>
      </trkpt>
      <trkpt lat="42.9234570" lon="-8.2913910">
        <ele>377.0</ele>
        <time>2021-07-26T07:42:27Z</time>
      </trkpt>
      <trkpt lat="42.9233690" lon="-8.2915390">
        <ele>377.4</ele>
        <time>2021-07-26T07:42:32Z</time>
      </trkpt>
      <trkpt lat="42.9233530" lon="-8.2915620">
        <ele>377.8</ele>
        <time>2021-07-26T07:42:33Z</time>
      </trkpt>
      <trkpt lat="42.9233430" lon="-8.2915850">
        <ele>378.2</ele>
        <time>2021-07-26T07:42:34Z</time>
      </trkpt>
      <trkpt lat="42.9233350" lon="-8.2916030">
        <ele>378.6</ele>
        <time>2021-07-26T07:42:35Z</time>
      </trkpt>
      <trkpt lat="42.9233280" lon="-8.2916290">
        <ele>379.0</ele>
        <time>2021-07-26T07:42:36Z</time>
      </trkpt>
      <trkpt lat="42.9233050" lon="-8.2916930">
        <ele>379.0</ele>
        <time>2021-07-26T07:42:40Z</time>
      </trkpt>
      <trkpt lat="42.9232890" lon="-8.2917300">
        <ele>379.4</ele>
        <time>2021-07-26T07:42:43Z</time>
      </trkpt>
      <trkpt lat="42.9232830" lon="-8.2917300">
        <ele>379.8</ele>
        <time>2021-07-26T07:42:44Z</time>
      </trkpt>
      <trkpt lat="42.9232620" lon="-8.2917480">
        <ele>380.2</ele>
        <time>2021-07-26T07:42:45Z</time>
      </trkpt>
      <trkpt lat="42.9232520" lon="-8.2917620">
        <ele>380.6</ele>
        <time>2021-07-26T07:42:46Z</time>
      </trkpt>
      <trkpt lat="42.9232460" lon="-8.2917740">
        <ele>381.0</ele>
        <time>2021-07-26T07:42:47Z</time>
      </trkpt>
      <trkpt lat="42.9232310" lon="-8.2918260">
        <ele>381.0</ele>
        <time>2021-07-26T07:42:51Z</time>
      </trkpt>
      <trkpt lat="42.9232260" lon="-8.2918550">
        <ele>381.0</ele>
        <time>2021-07-26T07:42:53Z</time>
      </trkpt>
      <trkpt lat="42.9232170" lon="-8.2918990">
        <ele>381.6</ele>
        <time>2021-07-26T07:42:57Z</time>
      </trkpt>
      <trkpt lat="42.9232110" lon="-8.2919120">
        <ele>382.0</ele>
        <time>2021-07-26T07:42:58Z</time>
      </trkpt>
      <trkpt lat="42.9232050" lon="-8.2919240">
        <ele>382.4</ele>
        <time>2021-07-26T07:42:59Z</time>
      </trkpt>
      <trkpt lat="42.9231970" lon="-8.2919340">
        <ele>382.8</ele>
        <time>2021-07-26T07:43:00Z</time>
      </trkpt>
      <trkpt lat="42.9231810" lon="-8.2919520">
        <ele>383.2</ele>
        <time>2021-07-26T07:43:01Z</time>
      </trkpt>
      <trkpt lat="42.9231000" lon="-8.2921260">
        <ele>383.2</ele>
        <time>2021-07-26T07:43:07Z</time>
      </trkpt>
      <trkpt lat="42.9230430" lon="-8.2923370">
        <ele>383.6</ele>
        <time>2021-07-26T07:43:15Z</time>
      </trkpt>
      <trkpt lat="42.9230370" lon="-8.2923670">
        <ele>384.0</ele>
        <time>2021-07-26T07:43:16Z</time>
      </trkpt>
      <trkpt lat="42.9230310" lon="-8.2923930">
        <ele>384.4</ele>
        <time>2021-07-26T07:43:17Z</time>
      </trkpt>
      <trkpt lat="42.9230220" lon="-8.2924190">
        <ele>384.8</ele>
        <time>2021-07-26T07:43:18Z</time>
      </trkpt>
      <trkpt lat="42.9230100" lon="-8.2924420">
        <ele>385.2</ele>
        <time>2021-07-26T07:43:19Z</time>
      </trkpt>
      <trkpt lat="42.9229950" lon="-8.2924990">
        <ele>385.2</ele>
        <time>2021-07-26T07:43:21Z</time>
      </trkpt>
      <trkpt lat="42.9229280" lon="-8.2926680">
        <ele>385.2</ele>
        <time>2021-07-26T07:43:28Z</time>
      </trkpt>
      <trkpt lat="42.9228510" lon="-8.2927900">
        <ele>385.2</ele>
        <time>2021-07-26T07:43:34Z</time>
      </trkpt>
      <trkpt lat="42.9227610" lon="-8.2928980">
        <ele>385.6</ele>
        <time>2021-07-26T07:43:40Z</time>
      </trkpt>
      <trkpt lat="42.9227480" lon="-8.2929140">
        <ele>386.0</ele>
        <time>2021-07-26T07:43:41Z</time>
      </trkpt>
      <trkpt lat="42.9227210" lon="-8.2929390">
        <ele>386.6</ele>
        <time>2021-07-26T07:43:42Z</time>
      </trkpt>
      <trkpt lat="42.9226960" lon="-8.2929640">
        <ele>387.0</ele>
        <time>2021-07-26T07:43:43Z</time>
      </trkpt>
      <trkpt lat="42.9226760" lon="-8.2930030">
        <ele>387.4</ele>
        <time>2021-07-26T07:43:44Z</time>
      </trkpt>
      <trkpt lat="42.9226380" lon="-8.2931700">
        <ele>387.4</ele>
        <time>2021-07-26T07:43:49Z</time>
      </trkpt>
      <trkpt lat="42.9225980" lon="-8.2933160">
        <ele>387.4</ele>
        <time>2021-07-26T07:43:54Z</time>
      </trkpt>
      <trkpt lat="42.9225870" lon="-8.2933460">
        <ele>387.8</ele>
        <time>2021-07-26T07:43:55Z</time>
      </trkpt>
      <trkpt lat="42.9225780" lon="-8.2933760">
        <ele>388.2</ele>
        <time>2021-07-26T07:43:56Z</time>
      </trkpt>
      <trkpt lat="42.9225700" lon="-8.2934140">
        <ele>388.6</ele>
        <time>2021-07-26T07:43:57Z</time>
      </trkpt>
      <trkpt lat="42.9225680" lon="-8.2934550">
        <ele>389.0</ele>
        <time>2021-07-26T07:43:58Z</time>
      </trkpt>
      <trkpt lat="42.9225600" lon="-8.2934980">
        <ele>389.4</ele>
        <time>2021-07-26T07:43:59Z</time>
      </trkpt>
      <trkpt lat="42.9225410" lon="-8.2935990">
        <ele>389.4</ele>
        <time>2021-07-26T07:44:03Z</time>
      </trkpt>
      <trkpt lat="42.9224680" lon="-8.2937740">
        <ele>389.4</ele>
        <time>2021-07-26T07:44:09Z</time>
      </trkpt>
      <trkpt lat="42.9223950" lon="-8.2938960">
        <ele>389.4</ele>
        <time>2021-07-26T07:44:14Z</time>
      </trkpt>
      <trkpt lat="42.9223540" lon="-8.2939510">
        <ele>389.4</ele>
        <time>2021-07-26T07:44:16Z</time>
      </trkpt>
      <trkpt lat="42.9222700" lon="-8.2940800">
        <ele>389.4</ele>
        <time>2021-07-26T07:44:21Z</time>
      </trkpt>
      <trkpt lat="42.9222620" lon="-8.2941170">
        <ele>389.4</ele>
        <time>2021-07-26T07:44:22Z</time>
      </trkpt>
      <trkpt lat="42.9221780" lon="-8.2943310">
        <ele>389.4</ele>
        <time>2021-07-26T07:44:28Z</time>
      </trkpt>
      <trkpt lat="42.9221050" lon="-8.2944930">
        <ele>389.4</ele>
        <time>2021-07-26T07:44:33Z</time>
      </trkpt>
      <trkpt lat="42.9220470" lon="-8.2946360">
        <ele>389.4</ele>
        <time>2021-07-26T07:44:36Z</time>
      </trkpt>
      <trkpt lat="42.9219860" lon="-8.2947330">
        <ele>389.4</ele>
        <time>2021-07-26T07:44:38Z</time>
      </trkpt>
      <trkpt lat="42.9218940" lon="-8.2948840">
        <ele>389.4</ele>
        <time>2021-07-26T07:44:41Z</time>
      </trkpt>
      <trkpt lat="42.9218290" lon="-8.2949830">
        <ele>389.4</ele>
        <time>2021-07-26T07:44:43Z</time>
      </trkpt>
      <trkpt lat="42.9217700" lon="-8.2950870">
        <ele>389.4</ele>
        <time>2021-07-26T07:44:45Z</time>
      </trkpt>
      <trkpt lat="42.9217190" lon="-8.2952010">
        <ele>389.4</ele>
        <time>2021-07-26T07:44:47Z</time>
      </trkpt>
      <trkpt lat="42.9216160" lon="-8.2954350">
        <ele>389.0</ele>
        <time>2021-07-26T07:44:51Z</time>
      </trkpt>
      <trkpt lat="42.9215980" lon="-8.2955080">
        <ele>388.6</ele>
        <time>2021-07-26T07:44:52Z</time>
      </trkpt>
      <trkpt lat="42.9215770" lon="-8.2955760">
        <ele>388.2</ele>
        <time>2021-07-26T07:44:53Z</time>
      </trkpt>
      <trkpt lat="42.9215530" lon="-8.2956420">
        <ele>387.6</ele>
        <time>2021-07-26T07:44:54Z</time>
      </trkpt>
      <trkpt lat="42.9215230" lon="-8.2957070">
        <ele>387.2</ele>
        <time>2021-07-26T07:44:55Z</time>
      </trkpt>
      <trkpt lat="42.9214350" lon="-8.2958940">
        <ele>387.2</ele>
        <time>2021-07-26T07:44:58Z</time>
      </trkpt>
      <trkpt lat="42.9214090" lon="-8.2959600">
        <ele>387.2</ele>
        <time>2021-07-26T07:44:59Z</time>
      </trkpt>
      <trkpt lat="42.9213810" lon="-8.2960140">
        <ele>386.8</ele>
        <time>2021-07-26T07:45:00Z</time>
      </trkpt>
      <trkpt lat="42.9213530" lon="-8.2960630">
        <ele>386.4</ele>
        <time>2021-07-26T07:45:01Z</time>
      </trkpt>
      <trkpt lat="42.9213250" lon="-8.2961080">
        <ele>386.0</ele>
        <time>2021-07-26T07:45:02Z</time>
      </trkpt>
      <trkpt lat="42.9212980" lon="-8.2961510">
        <ele>385.6</ele>
        <time>2021-07-26T07:45:03Z</time>
      </trkpt>
      <trkpt lat="42.9212740" lon="-8.2961900">
        <ele>385.2</ele>
        <time>2021-07-26T07:45:04Z</time>
      </trkpt>
      <trkpt lat="42.9212150" lon="-8.2962800">
        <ele>385.2</ele>
        <time>2021-07-26T07:45:06Z</time>
      </trkpt>
      <trkpt lat="42.9211360" lon="-8.2963620">
        <ele>384.8</ele>
        <time>2021-07-26T07:45:08Z</time>
      </trkpt>
      <trkpt lat="42.9210940" lon="-8.2964100">
        <ele>384.4</ele>
        <time>2021-07-26T07:45:09Z</time>
      </trkpt>
      <trkpt lat="42.9210530" lon="-8.2964540">
        <ele>384.0</ele>
        <time>2021-07-26T07:45:10Z</time>
      </trkpt>
      <trkpt lat="42.9210100" lon="-8.2964980">
        <ele>383.6</ele>
        <time>2021-07-26T07:45:11Z</time>
      </trkpt>
      <trkpt lat="42.9209730" lon="-8.2965440">
        <ele>383.2</ele>
        <time>2021-07-26T07:45:12Z</time>
      </trkpt>
      <trkpt lat="42.9208050" lon="-8.2967260">
        <ele>382.6</ele>
        <time>2021-07-26T07:45:17Z</time>
      </trkpt>
      <trkpt lat="42.9207810" lon="-8.2967570">
        <ele>382.2</ele>
        <time>2021-07-26T07:45:18Z</time>
      </trkpt>
      <trkpt lat="42.9207570" lon="-8.2967890">
        <ele>381.8</ele>
        <time>2021-07-26T07:45:19Z</time>
      </trkpt>
      <trkpt lat="42.9207270" lon="-8.2968270">
        <ele>381.4</ele>
        <time>2021-07-26T07:45:20Z</time>
      </trkpt>
      <trkpt lat="42.9206990" lon="-8.2968680">
        <ele>381.0</ele>
        <time>2021-07-26T07:45:21Z</time>
      </trkpt>
      <trkpt lat="42.9206400" lon="-8.2969570">
        <ele>381.0</ele>
        <time>2021-07-26T07:45:23Z</time>
      </trkpt>
      <trkpt lat="42.9205290" lon="-8.2971360">
        <ele>380.4</ele>
        <time>2021-07-26T07:45:28Z</time>
      </trkpt>
      <trkpt lat="42.9205130" lon="-8.2971640">
        <ele>380.0</ele>
        <time>2021-07-26T07:45:29Z</time>
      </trkpt>
      <trkpt lat="42.9204970" lon="-8.2971900">
        <ele>379.6</ele>
        <time>2021-07-26T07:45:30Z</time>
      </trkpt>
      <trkpt lat="42.9204840" lon="-8.2972190">
        <ele>379.2</ele>
        <time>2021-07-26T07:45:31Z</time>
      </trkpt>
      <trkpt lat="42.9204700" lon="-8.2972460">
        <ele>378.6</ele>
        <time>2021-07-26T07:45:32Z</time>
      </trkpt>
      <trkpt lat="42.9204530" lon="-8.2972720">
        <ele>378.2</ele>
        <time>2021-07-26T07:45:33Z</time>
      </trkpt>
      <trkpt lat="42.9204390" lon="-8.2972980">
        <ele>377.8</ele>
        <time>2021-07-26T07:45:34Z</time>
      </trkpt>
      <trkpt lat="42.9204220" lon="-8.2973290">
        <ele>377.4</ele>
        <time>2021-07-26T07:45:35Z</time>
      </trkpt>
      <trkpt lat="42.9204110" lon="-8.2973690">
        <ele>377.0</ele>
        <time>2021-07-26T07:45:36Z</time>
      </trkpt>
      <trkpt lat="42.9204000" lon="-8.2974040">
        <ele>376.6</ele>
        <time>2021-07-26T07:45:37Z</time>
      </trkpt>
      <trkpt lat="42.9203630" lon="-8.2975650">
        <ele>376.2</ele>
        <time>2021-07-26T07:45:41Z</time>
      </trkpt>
      <trkpt lat="42.9203560" lon="-8.2976000">
        <ele>375.8</ele>
        <time>2021-07-26T07:45:42Z</time>
      </trkpt>
      <trkpt lat="42.9203520" lon="-8.2976440">
        <ele>375.2</ele>
        <time>2021-07-26T07:45:43Z</time>
      </trkpt>
      <trkpt lat="42.9203550" lon="-8.2976800">
        <ele>374.8</ele>
        <time>2021-07-26T07:45:44Z</time>
      </trkpt>
      <trkpt lat="42.9203590" lon="-8.2977090">
        <ele>374.4</ele>
        <time>2021-07-26T07:45:45Z</time>
      </trkpt>
      <trkpt lat="42.9203630" lon="-8.2977380">
        <ele>374.4</ele>
        <time>2021-07-26T07:45:46Z</time>
      </trkpt>
      <trkpt lat="42.9203610" lon="-8.2977700">
        <ele>374.0</ele>
        <time>2021-07-26T07:45:47Z</time>
      </trkpt>
      <trkpt lat="42.9203610" lon="-8.2978030">
        <ele>373.6</ele>
        <time>2021-07-26T07:45:48Z</time>
      </trkpt>
      <trkpt lat="42.9203500" lon="-8.2978450">
        <ele>373.2</ele>
        <time>2021-07-26T07:45:49Z</time>
      </trkpt>
      <trkpt lat="42.9203380" lon="-8.2978940">
        <ele>372.8</ele>
        <time>2021-07-26T07:45:50Z</time>
      </trkpt>
      <trkpt lat="42.9203250" lon="-8.2979370">
        <ele>372.4</ele>
        <time>2021-07-26T07:45:51Z</time>
      </trkpt>
      <trkpt lat="42.9202780" lon="-8.2980690">
        <ele>371.8</ele>
        <time>2021-07-26T07:45:54Z</time>
      </trkpt>
      <trkpt lat="42.9202680" lon="-8.2981080">
        <ele>371.4</ele>
        <time>2021-07-26T07:45:55Z</time>
      </trkpt>
      <trkpt lat="42.9202570" lon="-8.2981340">
        <ele>371.0</ele>
        <time>2021-07-26T07:45:56Z</time>
      </trkpt>
      <trkpt lat="42.9202450" lon="-8.2981640">
        <ele>370.2</ele>
        <time>2021-07-26T07:45:57Z</time>
      </trkpt>
      <trkpt lat="42.9202180" lon="-8.2983120">
        <ele>369.6</ele>
        <time>2021-07-26T07:46:02Z</time>
      </trkpt>
      <trkpt lat="42.9202170" lon="-8.2983470">
        <ele>369.2</ele>
        <time>2021-07-26T07:46:03Z</time>
      </trkpt>
      <trkpt lat="42.9202240" lon="-8.2983840">
        <ele>368.8</ele>
        <time>2021-07-26T07:46:04Z</time>
      </trkpt>
      <trkpt lat="42.9202310" lon="-8.2984200">
        <ele>368.4</ele>
        <time>2021-07-26T07:46:05Z</time>
      </trkpt>
      <trkpt lat="42.9202390" lon="-8.2984610">
        <ele>368.0</ele>
        <time>2021-07-26T07:46:06Z</time>
      </trkpt>
      <trkpt lat="42.9202440" lon="-8.2985000">
        <ele>367.4</ele>
        <time>2021-07-26T07:46:07Z</time>
      </trkpt>
      <trkpt lat="42.9202490" lon="-8.2985490">
        <ele>367.0</ele>
        <time>2021-07-26T07:46:08Z</time>
      </trkpt>
      <trkpt lat="42.9202460" lon="-8.2986140">
        <ele>366.4</ele>
        <time>2021-07-26T07:46:09Z</time>
      </trkpt>
      <trkpt lat="42.9202340" lon="-8.2986800">
        <ele>366.0</ele>
        <time>2021-07-26T07:46:10Z</time>
      </trkpt>
      <trkpt lat="42.9202130" lon="-8.2988000">
        <ele>365.4</ele>
        <time>2021-07-26T07:46:12Z</time>
      </trkpt>
      <trkpt lat="42.9201990" lon="-8.2988430">
        <ele>365.0</ele>
        <time>2021-07-26T07:46:13Z</time>
      </trkpt>
      <trkpt lat="42.9201840" lon="-8.2988710">
        <ele>364.6</ele>
        <time>2021-07-26T07:46:14Z</time>
      </trkpt>
      <trkpt lat="42.9201740" lon="-8.2988970">
        <ele>364.2</ele>
        <time>2021-07-26T07:46:15Z</time>
      </trkpt>
      <trkpt lat="42.9201620" lon="-8.2989260">
        <ele>363.8</ele>
        <time>2021-07-26T07:46:16Z</time>
      </trkpt>
      <trkpt lat="42.9201440" lon="-8.2990460">
        <ele>363.8</ele>
        <time>2021-07-26T07:46:19Z</time>
      </trkpt>
      <trkpt lat="42.9200660" lon="-8.2991130">
        <ele>363.8</ele>
        <time>2021-07-26T07:46:22Z</time>
      </trkpt>
      <trkpt lat="42.9200170" lon="-8.2991490">
        <ele>363.8</ele>
        <time>2021-07-26T07:46:24Z</time>
      </trkpt>
      <trkpt lat="42.9199340" lon="-8.2992300">
        <ele>363.8</ele>
        <time>2021-07-26T07:46:27Z</time>
      </trkpt>
      <trkpt lat="42.9198700" lon="-8.2992800">
        <ele>363.8</ele>
        <time>2021-07-26T07:46:29Z</time>
      </trkpt>
      <trkpt lat="42.9198090" lon="-8.2993260">
        <ele>363.8</ele>
        <time>2021-07-26T07:46:31Z</time>
      </trkpt>
      <trkpt lat="42.9197530" lon="-8.2993780">
        <ele>363.8</ele>
        <time>2021-07-26T07:46:33Z</time>
      </trkpt>
      <trkpt lat="42.9196810" lon="-8.2994380">
        <ele>363.8</ele>
        <time>2021-07-26T07:46:36Z</time>
      </trkpt>
      <trkpt lat="42.9195770" lon="-8.2995430">
        <ele>363.8</ele>
        <time>2021-07-26T07:46:42Z</time>
      </trkpt>
      <trkpt lat="42.9194740" lon="-8.2996580">
        <ele>363.8</ele>
        <time>2021-07-26T07:46:47Z</time>
      </trkpt>
      <trkpt lat="42.9194200" lon="-8.2997420">
        <ele>363.8</ele>
        <time>2021-07-26T07:46:50Z</time>
      </trkpt>
      <trkpt lat="42.9193560" lon="-8.2998440">
        <ele>363.8</ele>
        <time>2021-07-26T07:46:53Z</time>
      </trkpt>
      <trkpt lat="42.9193370" lon="-8.2998790">
        <ele>363.8</ele>
        <time>2021-07-26T07:46:54Z</time>
      </trkpt>
      <trkpt lat="42.9192310" lon="-8.3001430">
        <ele>363.8</ele>
        <time>2021-07-26T07:47:01Z</time>
      </trkpt>
      <trkpt lat="42.9191710" lon="-8.3004420">
        <ele>363.8</ele>
        <time>2021-07-26T07:47:08Z</time>
      </trkpt>
      <trkpt lat="42.9191050" lon="-8.3006840">
        <ele>363.8</ele>
        <time>2021-07-26T07:47:15Z</time>
      </trkpt>
      <trkpt lat="42.9190970" lon="-8.3007140">
        <ele>363.8</ele>
        <time>2021-07-26T07:47:16Z</time>
      </trkpt>
      <trkpt lat="42.9190530" lon="-8.3007950">
        <ele>364.2</ele>
        <time>2021-07-26T07:47:20Z</time>
      </trkpt>
      <trkpt lat="42.9190420" lon="-8.3008150">
        <ele>364.6</ele>
        <time>2021-07-26T07:47:21Z</time>
      </trkpt>
      <trkpt lat="42.9190260" lon="-8.3008410">
        <ele>365.0</ele>
        <time>2021-07-26T07:47:22Z</time>
      </trkpt>
      <trkpt lat="42.9190080" lon="-8.3008700">
        <ele>365.4</ele>
        <time>2021-07-26T07:47:23Z</time>
      </trkpt>
      <trkpt lat="42.9189820" lon="-8.3009070">
        <ele>365.8</ele>
        <time>2021-07-26T07:47:24Z</time>
      </trkpt>
      <trkpt lat="42.9188930" lon="-8.3010170">
        <ele>365.8</ele>
        <time>2021-07-26T07:47:27Z</time>
      </trkpt>
      <trkpt lat="42.9188390" lon="-8.3010890">
        <ele>365.4</ele>
        <time>2021-07-26T07:47:30Z</time>
      </trkpt>
      <trkpt lat="42.9188320" lon="-8.3011150">
        <ele>365.0</ele>
        <time>2021-07-26T07:47:31Z</time>
      </trkpt>
      <trkpt lat="42.9188350" lon="-8.3011460">
        <ele>364.6</ele>
        <time>2021-07-26T07:47:32Z</time>
      </trkpt>
      <trkpt lat="42.9188440" lon="-8.3011770">
        <ele>364.2</ele>
        <time>2021-07-26T07:47:33Z</time>
      </trkpt>
      <trkpt lat="42.9188550" lon="-8.3012110">
        <ele>363.8</ele>
        <time>2021-07-26T07:47:34Z</time>
      </trkpt>
      <trkpt lat="42.9188670" lon="-8.3012460">
        <ele>363.8</ele>
        <time>2021-07-26T07:47:35Z</time>
      </trkpt>
      <trkpt lat="42.9189660" lon="-8.3014590">
        <ele>363.8</ele>
        <time>2021-07-26T07:47:42Z</time>
      </trkpt>
      <trkpt lat="42.9189790" lon="-8.3015810">
        <ele>363.8</ele>
        <time>2021-07-26T07:47:47Z</time>
      </trkpt>
      <trkpt lat="42.9189940" lon="-8.3016080">
        <ele>364.2</ele>
        <time>2021-07-26T07:47:48Z</time>
      </trkpt>
      <trkpt lat="42.9190070" lon="-8.3016330">
        <ele>364.6</ele>
        <time>2021-07-26T07:47:49Z</time>
      </trkpt>
      <trkpt lat="42.9190180" lon="-8.3016520">
        <ele>365.0</ele>
        <time>2021-07-26T07:47:50Z</time>
      </trkpt>
      <trkpt lat="42.9190280" lon="-8.3016700">
        <ele>365.4</ele>
        <time>2021-07-26T07:47:51Z</time>
      </trkpt>
      <trkpt lat="42.9190340" lon="-8.3016930">
        <ele>365.8</ele>
        <time>2021-07-26T07:47:52Z</time>
      </trkpt>
      <trkpt lat="42.9190590" lon="-8.3017590">
        <ele>365.8</ele>
        <time>2021-07-26T07:47:55Z</time>
      </trkpt>
      <trkpt lat="42.9190660" lon="-8.3018230">
        <ele>365.8</ele>
        <time>2021-07-26T07:47:57Z</time>
      </trkpt>
      <trkpt lat="42.9190920" lon="-8.3019630">
        <ele>365.8</ele>
        <time>2021-07-26T07:48:01Z</time>
      </trkpt>
      <trkpt lat="42.9191150" lon="-8.3021510">
        <ele>365.8</ele>
        <time>2021-07-26T07:48:07Z</time>
      </trkpt>
      <trkpt lat="42.9191270" lon="-8.3022240">
        <ele>366.2</ele>
        <time>2021-07-26T07:48:09Z</time>
      </trkpt>
      <trkpt lat="42.9191350" lon="-8.3022620">
        <ele>366.6</ele>
        <time>2021-07-26T07:48:10Z</time>
      </trkpt>
      <trkpt lat="42.9191430" lon="-8.3023030">
        <ele>367.0</ele>
        <time>2021-07-26T07:48:11Z</time>
      </trkpt>
      <trkpt lat="42.9191520" lon="-8.3023460">
        <ele>367.4</ele>
        <time>2021-07-26T07:48:12Z</time>
      </trkpt>
      <trkpt lat="42.9191590" lon="-8.3023900">
        <ele>367.8</ele>
        <time>2021-07-26T07:48:13Z</time>
      </trkpt>
      <trkpt lat="42.9191740" lon="-8.3024640">
        <ele>367.8</ele>
        <time>2021-07-26T07:48:15Z</time>
      </trkpt>
      <trkpt lat="42.9192200" lon="-8.3027310">
        <ele>367.8</ele>
        <time>2021-07-26T07:48:23Z</time>
      </trkpt>
      <trkpt lat="42.9192420" lon="-8.3030250">
        <ele>367.8</ele>
        <time>2021-07-26T07:48:31Z</time>
      </trkpt>
      <trkpt lat="42.9192450" lon="-8.3030580">
        <ele>368.2</ele>
        <time>2021-07-26T07:48:32Z</time>
      </trkpt>
      <trkpt lat="42.9192490" lon="-8.3030910">
        <ele>368.6</ele>
        <time>2021-07-26T07:48:33Z</time>
      </trkpt>
      <trkpt lat="42.9192530" lon="-8.3031260">
        <ele>369.0</ele>
        <time>2021-07-26T07:48:34Z</time>
      </trkpt>
      <trkpt lat="42.9192620" lon="-8.3031610">
        <ele>369.4</ele>
        <time>2021-07-26T07:48:35Z</time>
      </trkpt>
      <trkpt lat="42.9192710" lon="-8.3031970">
        <ele>369.8</ele>
        <time>2021-07-26T07:48:36Z</time>
      </trkpt>
      <trkpt lat="42.9192810" lon="-8.3032700">
        <ele>369.8</ele>
        <time>2021-07-26T07:48:38Z</time>
      </trkpt>
      <trkpt lat="42.9193120" lon="-8.3035070">
        <ele>369.8</ele>
        <time>2021-07-26T07:48:45Z</time>
      </trkpt>
      <trkpt lat="42.9193140" lon="-8.3035390">
        <ele>369.8</ele>
        <time>2021-07-26T07:48:46Z</time>
      </trkpt>
      <trkpt lat="42.9193050" lon="-8.3037080">
        <ele>369.8</ele>
        <time>2021-07-26T07:48:52Z</time>
      </trkpt>
      <trkpt lat="42.9192420" lon="-8.3038280">
        <ele>369.8</ele>
        <time>2021-07-26T07:48:57Z</time>
      </trkpt>
      <trkpt lat="42.9192130" lon="-8.3038640">
        <ele>369.8</ele>
        <time>2021-07-26T07:48:59Z</time>
      </trkpt>
      <trkpt lat="42.9191850" lon="-8.3038790">
        <ele>369.8</ele>
        <time>2021-07-26T07:49:01Z</time>
      </trkpt>
      <trkpt lat="42.9191780" lon="-8.3038780">
        <ele>369.8</ele>
        <time>2021-07-26T07:49:03Z</time>
      </trkpt>
      <trkpt lat="42.9192400" lon="-8.3039060">
        <ele>367.8</ele>
        <time>2021-07-26T08:12:44Z</time>
      </trkpt>
      <trkpt lat="42.9192430" lon="-8.3039270">
        <ele>367.8</ele>
        <time>2021-07-26T08:12:45Z</time>
      </trkpt>
      <trkpt lat="42.9192440" lon="-8.3040270">
        <ele>367.8</ele>
        <time>2021-07-26T08:12:49Z</time>
      </trkpt>
      <trkpt lat="42.9192410" lon="-8.3040860">
        <ele>367.8</ele>
        <time>2021-07-26T08:12:51Z</time>
      </trkpt>
      <trkpt lat="42.9192300" lon="-8.3041690">
        <ele>367.8</ele>
        <time>2021-07-26T08:12:55Z</time>
      </trkpt>
      <trkpt lat="42.9192240" lon="-8.3041890">
        <ele>367.8</ele>
        <time>2021-07-26T08:13:12Z</time>
      </trkpt>
      <trkpt lat="42.9192170" lon="-8.3042190">
        <ele>367.8</ele>
        <time>2021-07-26T08:13:13Z</time>
      </trkpt>
      <trkpt lat="42.9192060" lon="-8.3042790">
        <ele>367.4</ele>
        <time>2021-07-26T08:13:15Z</time>
      </trkpt>
      <trkpt lat="42.9191980" lon="-8.3043120">
        <ele>367.0</ele>
        <time>2021-07-26T08:13:16Z</time>
      </trkpt>
      <trkpt lat="42.9191940" lon="-8.3043470">
        <ele>366.6</ele>
        <time>2021-07-26T08:13:17Z</time>
      </trkpt>
      <trkpt lat="42.9191910" lon="-8.3043820">
        <ele>366.2</ele>
        <time>2021-07-26T08:13:18Z</time>
      </trkpt>
      <trkpt lat="42.9191880" lon="-8.3044180">
        <ele>365.8</ele>
        <time>2021-07-26T08:13:19Z</time>
      </trkpt>
      <trkpt lat="42.9191630" lon="-8.3045440">
        <ele>365.8</ele>
        <time>2021-07-26T08:13:22Z</time>
      </trkpt>
      <trkpt lat="42.9191460" lon="-8.3046860">
        <ele>365.8</ele>
        <time>2021-07-26T08:13:25Z</time>
      </trkpt>
      <trkpt lat="42.9191450" lon="-8.3047760">
        <ele>365.8</ele>
        <time>2021-07-26T08:13:27Z</time>
      </trkpt>
      <trkpt lat="42.9191200" lon="-8.3048950">
        <ele>365.8</ele>
        <time>2021-07-26T08:13:30Z</time>
      </trkpt>
      <trkpt lat="42.9191110" lon="-8.3049330">
        <ele>365.8</ele>
        <time>2021-07-26T08:13:31Z</time>
      </trkpt>
      <trkpt lat="42.9191090" lon="-8.3049750">
        <ele>365.4</ele>
        <time>2021-07-26T08:13:32Z</time>
      </trkpt>
      <trkpt lat="42.9191110" lon="-8.3050180">
        <ele>365.0</ele>
        <time>2021-07-26T08:13:33Z</time>
      </trkpt>
      <trkpt lat="42.9191100" lon="-8.3050560">
        <ele>364.6</ele>
        <time>2021-07-26T08:13:34Z</time>
      </trkpt>
      <trkpt lat="42.9191090" lon="-8.3050880">
        <ele>364.2</ele>
        <time>2021-07-26T08:13:35Z</time>
      </trkpt>
      <trkpt lat="42.9191000" lon="-8.3051150">
        <ele>363.8</ele>
        <time>2021-07-26T08:13:36Z</time>
      </trkpt>
      <trkpt lat="42.9190400" lon="-8.3051670">
        <ele>363.8</ele>
        <time>2021-07-26T08:13:39Z</time>
      </trkpt>
      <trkpt lat="42.9190110" lon="-8.3051800">
        <ele>363.8</ele>
        <time>2021-07-26T08:13:40Z</time>
      </trkpt>
      <trkpt lat="42.9188390" lon="-8.3052680">
        <ele>363.8</ele>
        <time>2021-07-26T08:13:45Z</time>
      </trkpt>
      <trkpt lat="42.9188210" lon="-8.3053020">
        <ele>363.8</ele>
        <time>2021-07-26T08:13:46Z</time>
      </trkpt>
      <trkpt lat="42.9188170" lon="-8.3054050">
        <ele>363.8</ele>
        <time>2021-07-26T08:13:48Z</time>
      </trkpt>
      <trkpt lat="42.9188300" lon="-8.3055550">
        <ele>363.0</ele>
        <time>2021-07-26T08:13:51Z</time>
      </trkpt>
      <trkpt lat="42.9188380" lon="-8.3055970">
        <ele>362.6</ele>
        <time>2021-07-26T08:13:52Z</time>
      </trkpt>
      <trkpt lat="42.9188510" lon="-8.3056220">
        <ele>362.0</ele>
        <time>2021-07-26T08:13:53Z</time>
      </trkpt>
      <trkpt lat="42.9188690" lon="-8.3056390">
        <ele>361.6</ele>
        <time>2021-07-26T08:13:54Z</time>
      </trkpt>
      <trkpt lat="42.9189600" lon="-8.3057520">
        <ele>361.2</ele>
        <time>2021-07-26T08:13:58Z</time>
      </trkpt>
      <trkpt lat="42.9189780" lon="-8.3057840">
        <ele>360.8</ele>
        <time>2021-07-26T08:13:59Z</time>
      </trkpt>
      <trkpt lat="42.9189910" lon="-8.3058220">
        <ele>360.4</ele>
        <time>2021-07-26T08:14:00Z</time>
      </trkpt>
      <trkpt lat="42.9189960" lon="-8.3058590">
        <ele>360.0</ele>
        <time>2021-07-26T08:14:01Z</time>
      </trkpt>
      <trkpt lat="42.9189970" lon="-8.3058960">
        <ele>359.6</ele>
        <time>2021-07-26T08:14:02Z</time>
      </trkpt>
      <trkpt lat="42.9189960" lon="-8.3059340">
        <ele>359.6</ele>
        <time>2021-07-26T08:14:03Z</time>
      </trkpt>
      <trkpt lat="42.9189970" lon="-8.3060250">
        <ele>359.0</ele>
        <time>2021-07-26T08:14:05Z</time>
      </trkpt>
      <trkpt lat="42.9189950" lon="-8.3060780">
        <ele>358.6</ele>
        <time>2021-07-26T08:14:06Z</time>
      </trkpt>
      <trkpt lat="42.9189970" lon="-8.3061340">
        <ele>358.2</ele>
        <time>2021-07-26T08:14:07Z</time>
      </trkpt>
      <trkpt lat="42.9190020" lon="-8.3061860">
        <ele>357.8</ele>
        <time>2021-07-26T08:14:08Z</time>
      </trkpt>
      <trkpt lat="42.9190030" lon="-8.3062350">
        <ele>357.2</ele>
        <time>2021-07-26T08:14:09Z</time>
      </trkpt>
      <trkpt lat="42.9190110" lon="-8.3063980">
        <ele>356.8</ele>
        <time>2021-07-26T08:14:12Z</time>
      </trkpt>
      <trkpt lat="42.9190170" lon="-8.3064650">
        <ele>356.4</ele>
        <time>2021-07-26T08:14:13Z</time>
      </trkpt>
      <trkpt lat="42.9190210" lon="-8.3065380">
        <ele>356.0</ele>
        <time>2021-07-26T08:14:14Z</time>
      </trkpt>
      <trkpt lat="42.9190190" lon="-8.3066090">
        <ele>355.6</ele>
        <time>2021-07-26T08:14:15Z</time>
      </trkpt>
      <trkpt lat="42.9190190" lon="-8.3066750">
        <ele>355.2</ele>
        <time>2021-07-26T08:14:16Z</time>
      </trkpt>
      <trkpt lat="42.9190170" lon="-8.3067340">
        <ele>355.2</ele>
        <time>2021-07-26T08:14:17Z</time>
      </trkpt>
      <trkpt lat="42.9189990" lon="-8.3068420">
        <ele>355.2</ele>
        <time>2021-07-26T08:14:19Z</time>
      </trkpt>
      <trkpt lat="42.9189860" lon="-8.3068920">
        <ele>354.8</ele>
        <time>2021-07-26T08:14:20Z</time>
      </trkpt>
      <trkpt lat="42.9189700" lon="-8.3069400">
        <ele>354.2</ele>
        <time>2021-07-26T08:14:21Z</time>
      </trkpt>
      <trkpt lat="42.9189540" lon="-8.3069850">
        <ele>353.8</ele>
        <time>2021-07-26T08:14:22Z</time>
      </trkpt>
      <trkpt lat="42.9189380" lon="-8.3070300">
        <ele>353.4</ele>
        <time>2021-07-26T08:14:23Z</time>
      </trkpt>
      <trkpt lat="42.9189210" lon="-8.3070720">
        <ele>353.0</ele>
        <time>2021-07-26T08:14:24Z</time>
      </trkpt>
      <trkpt lat="42.9189040" lon="-8.3071140">
        <ele>353.0</ele>
        <time>2021-07-26T08:14:25Z</time>
      </trkpt>
      <trkpt lat="42.9188160" lon="-8.3072860">
        <ele>353.0</ele>
        <time>2021-07-26T08:14:30Z</time>
      </trkpt>
      <trkpt lat="42.9187690" lon="-8.3073870">
        <ele>353.0</ele>
        <time>2021-07-26T08:14:33Z</time>
      </trkpt>
      <trkpt lat="42.9187200" lon="-8.3074820">
        <ele>353.0</ele>
        <time>2021-07-26T08:14:36Z</time>
      </trkpt>
      <trkpt lat="42.9187030" lon="-8.3075200">
        <ele>353.0</ele>
        <time>2021-07-26T08:14:37Z</time>
      </trkpt>
      <trkpt lat="42.9186450" lon="-8.3076320">
        <ele>353.0</ele>
        <time>2021-07-26T08:14:40Z</time>
      </trkpt>
      <trkpt lat="42.9185750" lon="-8.3077870">
        <ele>353.0</ele>
        <time>2021-07-26T08:14:44Z</time>
      </trkpt>
      <trkpt lat="42.9185380" lon="-8.3079540">
        <ele>353.0</ele>
        <time>2021-07-26T08:14:48Z</time>
      </trkpt>
      <trkpt lat="42.9185370" lon="-8.3079920">
        <ele>353.0</ele>
        <time>2021-07-26T08:14:49Z</time>
      </trkpt>
      <trkpt lat="42.9184780" lon="-8.3082510">
        <ele>353.0</ele>
        <time>2021-07-26T08:14:55Z</time>
      </trkpt>
      <trkpt lat="42.9184760" lon="-8.3085710">
        <ele>353.0</ele>
        <time>2021-07-26T08:15:01Z</time>
      </trkpt>
      <trkpt lat="42.9185110" lon="-8.3087580">
        <ele>353.0</ele>
        <time>2021-07-26T08:15:05Z</time>
      </trkpt>
      <trkpt lat="42.9184860" lon="-8.3088950">
        <ele>353.0</ele>
        <time>2021-07-26T08:15:08Z</time>
      </trkpt>
      <trkpt lat="42.9184140" lon="-8.3090490">
        <ele>353.0</ele>
        <time>2021-07-26T08:15:12Z</time>
      </trkpt>
      <trkpt lat="42.9183900" lon="-8.3091290">
        <ele>353.0</ele>
        <time>2021-07-26T08:15:14Z</time>
      </trkpt>
      <trkpt lat="42.9183660" lon="-8.3093090">
        <ele>353.0</ele>
        <time>2021-07-26T08:15:18Z</time>
      </trkpt>
      <trkpt lat="42.9183760" lon="-8.3093910">
        <ele>353.0</ele>
        <time>2021-07-26T08:15:20Z</time>
      </trkpt>
      <trkpt lat="42.9183830" lon="-8.3094740">
        <ele>353.4</ele>
        <time>2021-07-26T08:15:22Z</time>
      </trkpt>
      <trkpt lat="42.9183830" lon="-8.3095150">
        <ele>353.8</ele>
        <time>2021-07-26T08:15:23Z</time>
      </trkpt>
      <trkpt lat="42.9183800" lon="-8.3095590">
        <ele>354.2</ele>
        <time>2021-07-26T08:15:24Z</time>
      </trkpt>
      <trkpt lat="42.9183800" lon="-8.3096000">
        <ele>354.6</ele>
        <time>2021-07-26T08:15:25Z</time>
      </trkpt>
      <trkpt lat="42.9183820" lon="-8.3096400">
        <ele>355.0</ele>
        <time>2021-07-26T08:15:26Z</time>
      </trkpt>
      <trkpt lat="42.9183840" lon="-8.3096790">
        <ele>355.0</ele>
        <time>2021-07-26T08:15:27Z</time>
      </trkpt>
      <trkpt lat="42.9184010" lon="-8.3099550">
        <ele>355.0</ele>
        <time>2021-07-26T08:15:34Z</time>
      </trkpt>
      <trkpt lat="42.9184190" lon="-8.3101360">
        <ele>355.0</ele>
        <time>2021-07-26T08:15:39Z</time>
      </trkpt>
      <trkpt lat="42.9184100" lon="-8.3102680">
        <ele>355.4</ele>
        <time>2021-07-26T08:15:42Z</time>
      </trkpt>
      <trkpt lat="42.9184070" lon="-8.3103090">
        <ele>355.8</ele>
        <time>2021-07-26T08:15:43Z</time>
      </trkpt>
      <trkpt lat="42.9184040" lon="-8.3103510">
        <ele>356.2</ele>
        <time>2021-07-26T08:15:44Z</time>
      </trkpt>
      <trkpt lat="42.9184010" lon="-8.3103970">
        <ele>356.6</ele>
        <time>2021-07-26T08:15:45Z</time>
      </trkpt>
      <trkpt lat="42.9183970" lon="-8.3104410">
        <ele>357.0</ele>
        <time>2021-07-26T08:15:46Z</time>
      </trkpt>
      <trkpt lat="42.9183480" lon="-8.3106450">
        <ele>357.0</ele>
        <time>2021-07-26T08:15:52Z</time>
      </trkpt>
      <trkpt lat="42.9182300" lon="-8.3106760">
        <ele>357.0</ele>
        <time>2021-07-26T08:15:56Z</time>
      </trkpt>
      <trkpt lat="42.9180510" lon="-8.3106440">
        <ele>357.0</ele>
        <time>2021-07-26T08:16:01Z</time>
      </trkpt>
      <trkpt lat="42.9179410" lon="-8.3106080">
        <ele>357.0</ele>
        <time>2021-07-26T08:16:04Z</time>
      </trkpt>
      <trkpt lat="42.9178210" lon="-8.3105790">
        <ele>357.0</ele>
        <time>2021-07-26T08:16:07Z</time>
      </trkpt>
      <trkpt lat="42.9176900" lon="-8.3105260">
        <ele>357.0</ele>
        <time>2021-07-26T08:16:10Z</time>
      </trkpt>
      <trkpt lat="42.9175650" lon="-8.3104760">
        <ele>357.0</ele>
        <time>2021-07-26T08:16:13Z</time>
      </trkpt>
      <trkpt lat="42.9175040" lon="-8.3104750">
        <ele>357.0</ele>
        <time>2021-07-26T08:16:15Z</time>
      </trkpt>
      <trkpt lat="42.9174930" lon="-8.3104940">
        <ele>357.0</ele>
        <time>2021-07-26T08:16:16Z</time>
      </trkpt>
      <trkpt lat="42.9174990" lon="-8.3105640">
        <ele>357.0</ele>
        <time>2021-07-26T08:16:18Z</time>
      </trkpt>
      <trkpt lat="42.9174940" lon="-8.3108360">
        <ele>357.0</ele>
        <time>2021-07-26T08:16:24Z</time>
      </trkpt>
      <trkpt lat="42.9174560" lon="-8.3111250">
        <ele>357.0</ele>
        <time>2021-07-26T08:16:31Z</time>
      </trkpt>
      <trkpt lat="42.9174420" lon="-8.3112560">
        <ele>357.0</ele>
        <time>2021-07-26T08:16:34Z</time>
      </trkpt>
      <trkpt lat="42.9174240" lon="-8.3113950">
        <ele>357.0</ele>
        <time>2021-07-26T08:16:37Z</time>
      </trkpt>
      <trkpt lat="42.9174140" lon="-8.3114800">
        <ele>357.0</ele>
        <time>2021-07-26T08:16:39Z</time>
      </trkpt>
      <trkpt lat="42.9174060" lon="-8.3115990">
        <ele>357.4</ele>
        <time>2021-07-26T08:16:42Z</time>
      </trkpt>
      <trkpt lat="42.9174030" lon="-8.3116420">
        <ele>357.8</ele>
        <time>2021-07-26T08:16:43Z</time>
      </trkpt>
      <trkpt lat="42.9173970" lon="-8.3116840">
        <ele>358.6</ele>
        <time>2021-07-26T08:16:44Z</time>
      </trkpt>
      <trkpt lat="42.9173890" lon="-8.3117260">
        <ele>359.0</ele>
        <time>2021-07-26T08:16:45Z</time>
      </trkpt>
      <trkpt lat="42.9173830" lon="-8.3117710">
        <ele>359.0</ele>
        <time>2021-07-26T08:16:46Z</time>
      </trkpt>
      <trkpt lat="42.9173420" lon="-8.3121030">
        <ele>359.0</ele>
        <time>2021-07-26T08:16:54Z</time>
      </trkpt>
      <trkpt lat="42.9173220" lon="-8.3122630">
        <ele>359.4</ele>
        <time>2021-07-26T08:16:58Z</time>
      </trkpt>
      <trkpt lat="42.9173180" lon="-8.3123040">
        <ele>359.8</ele>
        <time>2021-07-26T08:16:59Z</time>
      </trkpt>
      <trkpt lat="42.9173120" lon="-8.3123450">
        <ele>360.2</ele>
        <time>2021-07-26T08:17:00Z</time>
      </trkpt>
      <trkpt lat="42.9173080" lon="-8.3123860">
        <ele>360.6</ele>
        <time>2021-07-26T08:17:01Z</time>
      </trkpt>
      <trkpt lat="42.9173030" lon="-8.3124210">
        <ele>361.0</ele>
        <time>2021-07-26T08:17:02Z</time>
      </trkpt>
      <trkpt lat="42.9172960" lon="-8.3125750">
        <ele>361.0</ele>
        <time>2021-07-26T08:17:06Z</time>
      </trkpt>
      <trkpt lat="42.9172530" lon="-8.3128970">
        <ele>361.0</ele>
        <time>2021-07-26T08:17:13Z</time>
      </trkpt>
      <trkpt lat="42.9172300" lon="-8.3131100">
        <ele>361.0</ele>
        <time>2021-07-26T08:17:18Z</time>
      </trkpt>
      <trkpt lat="42.9172220" lon="-8.3131910">
        <ele>361.6</ele>
        <time>2021-07-26T08:17:20Z</time>
      </trkpt>
      <trkpt lat="42.9172170" lon="-8.3132330">
        <ele>362.0</ele>
        <time>2021-07-26T08:17:21Z</time>
      </trkpt>
      <trkpt lat="42.9172110" lon="-8.3132750">
        <ele>362.4</ele>
        <time>2021-07-26T08:17:22Z</time>
      </trkpt>
      <trkpt lat="42.9172070" lon="-8.3133190">
        <ele>362.8</ele>
        <time>2021-07-26T08:17:23Z</time>
      </trkpt>
      <trkpt lat="42.9172050" lon="-8.3133670">
        <ele>363.2</ele>
        <time>2021-07-26T08:17:24Z</time>
      </trkpt>
      <trkpt lat="42.9171850" lon="-8.3135430">
        <ele>363.2</ele>
        <time>2021-07-26T08:17:28Z</time>
      </trkpt>
      <trkpt lat="42.9171610" lon="-8.3138190">
        <ele>363.2</ele>
        <time>2021-07-26T08:17:34Z</time>
      </trkpt>
      <trkpt lat="42.9171240" lon="-8.3140950">
        <ele>363.2</ele>
        <time>2021-07-26T08:17:40Z</time>
      </trkpt>
      <trkpt lat="42.9170910" lon="-8.3144500">
        <ele>363.2</ele>
        <time>2021-07-26T08:17:48Z</time>
      </trkpt>
      <trkpt lat="42.9170620" lon="-8.3146950">
        <ele>363.2</ele>
        <time>2021-07-26T08:17:54Z</time>
      </trkpt>
      <trkpt lat="42.9170400" lon="-8.3148640">
        <ele>363.6</ele>
        <time>2021-07-26T08:17:58Z</time>
      </trkpt>
      <trkpt lat="42.9170330" lon="-8.3149060">
        <ele>364.0</ele>
        <time>2021-07-26T08:17:59Z</time>
      </trkpt>
      <trkpt lat="42.9170250" lon="-8.3149480">
        <ele>364.4</ele>
        <time>2021-07-26T08:18:00Z</time>
      </trkpt>
      <trkpt lat="42.9170220" lon="-8.3149940">
        <ele>364.8</ele>
        <time>2021-07-26T08:18:01Z</time>
      </trkpt>
      <trkpt lat="42.9170200" lon="-8.3150390">
        <ele>365.2</ele>
        <time>2021-07-26T08:18:02Z</time>
      </trkpt>
      <trkpt lat="42.9170040" lon="-8.3153180">
        <ele>365.2</ele>
        <time>2021-07-26T08:18:09Z</time>
      </trkpt>
      <trkpt lat="42.9169460" lon="-8.3154800">
        <ele>365.2</ele>
        <time>2021-07-26T08:18:15Z</time>
      </trkpt>
      <trkpt lat="42.9169350" lon="-8.3154950">
        <ele>365.2</ele>
        <time>2021-07-26T08:18:17Z</time>
      </trkpt>
      <trkpt lat="42.9169330" lon="-8.3154990">
        <ele>365.2</ele>
        <time>2021-07-26T08:18:18Z</time>
      </trkpt>
      <trkpt lat="42.9169220" lon="-8.3155020">
        <ele>365.2</ele>
        <time>2021-07-26T08:18:28Z</time>
      </trkpt>
      <trkpt lat="42.9169090" lon="-8.3155040">
        <ele>365.2</ele>
        <time>2021-07-26T08:18:29Z</time>
      </trkpt>
      <trkpt lat="42.9168020" lon="-8.3155850">
        <ele>365.2</ele>
        <time>2021-07-26T08:18:34Z</time>
      </trkpt>
      <trkpt lat="42.9167760" lon="-8.3157590">
        <ele>365.2</ele>
        <time>2021-07-26T08:18:38Z</time>
      </trkpt>
      <trkpt lat="42.9167730" lon="-8.3158040">
        <ele>365.6</ele>
        <time>2021-07-26T08:18:39Z</time>
      </trkpt>
      <trkpt lat="42.9167670" lon="-8.3158480">
        <ele>366.0</ele>
        <time>2021-07-26T08:18:40Z</time>
      </trkpt>
      <trkpt lat="42.9167600" lon="-8.3158960">
        <ele>366.6</ele>
        <time>2021-07-26T08:18:41Z</time>
      </trkpt>
      <trkpt lat="42.9167500" lon="-8.3159450">
        <ele>367.0</ele>
        <time>2021-07-26T08:18:42Z</time>
      </trkpt>
      <trkpt lat="42.9167400" lon="-8.3159940">
        <ele>367.4</ele>
        <time>2021-07-26T08:18:43Z</time>
      </trkpt>
      <trkpt lat="42.9167310" lon="-8.3160440">
        <ele>367.4</ele>
        <time>2021-07-26T08:18:44Z</time>
      </trkpt>
      <trkpt lat="42.9167050" lon="-8.3163100">
        <ele>367.4</ele>
        <time>2021-07-26T08:18:50Z</time>
      </trkpt>
      <trkpt lat="42.9166520" lon="-8.3166140">
        <ele>367.4</ele>
        <time>2021-07-26T08:18:57Z</time>
      </trkpt>
      <trkpt lat="42.9166000" lon="-8.3169080">
        <ele>367.8</ele>
        <time>2021-07-26T08:19:04Z</time>
      </trkpt>
      <trkpt lat="42.9165980" lon="-8.3169500">
        <ele>368.2</ele>
        <time>2021-07-26T08:19:05Z</time>
      </trkpt>
      <trkpt lat="42.9165930" lon="-8.3169910">
        <ele>368.6</ele>
        <time>2021-07-26T08:19:06Z</time>
      </trkpt>
      <trkpt lat="42.9165870" lon="-8.3170340">
        <ele>369.0</ele>
        <time>2021-07-26T08:19:07Z</time>
      </trkpt>
      <trkpt lat="42.9165780" lon="-8.3170710">
        <ele>369.4</ele>
        <time>2021-07-26T08:19:08Z</time>
      </trkpt>
      <trkpt lat="42.9165560" lon="-8.3171460">
        <ele>369.4</ele>
        <time>2021-07-26T08:19:10Z</time>
      </trkpt>
      <trkpt lat="42.9165140" lon="-8.3173860">
        <ele>369.4</ele>
        <time>2021-07-26T08:19:16Z</time>
      </trkpt>
      <trkpt lat="42.9164910" lon="-8.3175820">
        <ele>369.4</ele>
        <time>2021-07-26T08:19:21Z</time>
      </trkpt>
      <trkpt lat="42.9164790" lon="-8.3176660">
        <ele>369.8</ele>
        <time>2021-07-26T08:19:23Z</time>
      </trkpt>
      <trkpt lat="42.9164710" lon="-8.3177080">
        <ele>370.2</ele>
        <time>2021-07-26T08:19:24Z</time>
      </trkpt>
      <trkpt lat="42.9164630" lon="-8.3177430">
        <ele>370.6</ele>
        <time>2021-07-26T08:19:25Z</time>
      </trkpt>
      <trkpt lat="42.9164550" lon="-8.3177770">
        <ele>371.0</ele>
        <time>2021-07-26T08:19:26Z</time>
      </trkpt>
      <trkpt lat="42.9164460" lon="-8.3178120">
        <ele>371.6</ele>
        <time>2021-07-26T08:19:27Z</time>
      </trkpt>
      <trkpt lat="42.9164350" lon="-8.3178480">
        <ele>371.6</ele>
        <time>2021-07-26T08:19:28Z</time>
      </trkpt>
      <trkpt lat="42.9163930" lon="-8.3180640">
        <ele>371.6</ele>
        <time>2021-07-26T08:19:34Z</time>
      </trkpt>
      <trkpt lat="42.9163880" lon="-8.3181270">
        <ele>372.4</ele>
        <time>2021-07-26T08:19:36Z</time>
      </trkpt>
      <trkpt lat="42.9163860" lon="-8.3181590">
        <ele>372.8</ele>
        <time>2021-07-26T08:19:37Z</time>
      </trkpt>
      <trkpt lat="42.9163820" lon="-8.3181910">
        <ele>373.2</ele>
        <time>2021-07-26T08:19:38Z</time>
      </trkpt>
      <trkpt lat="42.9163780" lon="-8.3182210">
        <ele>373.6</ele>
        <time>2021-07-26T08:19:39Z</time>
      </trkpt>
      <trkpt lat="42.9163760" lon="-8.3183390">
        <ele>373.6</ele>
        <time>2021-07-26T08:19:43Z</time>
      </trkpt>
      <trkpt lat="42.9163340" lon="-8.3185270">
        <ele>373.6</ele>
        <time>2021-07-26T08:19:49Z</time>
      </trkpt>
      <trkpt lat="42.9163210" lon="-8.3185620">
        <ele>374.0</ele>
        <time>2021-07-26T08:19:50Z</time>
      </trkpt>
      <trkpt lat="42.9163100" lon="-8.3186000">
        <ele>374.4</ele>
        <time>2021-07-26T08:19:51Z</time>
      </trkpt>
      <trkpt lat="42.9163000" lon="-8.3186310">
        <ele>374.8</ele>
        <time>2021-07-26T08:19:52Z</time>
      </trkpt>
      <trkpt lat="42.9162900" lon="-8.3186620">
        <ele>375.2</ele>
        <time>2021-07-26T08:19:53Z</time>
      </trkpt>
      <trkpt lat="42.9162780" lon="-8.3186890">
        <ele>375.6</ele>
        <time>2021-07-26T08:19:54Z</time>
      </trkpt>
      <trkpt lat="42.9162420" lon="-8.3187460">
        <ele>375.6</ele>
        <time>2021-07-26T08:19:56Z</time>
      </trkpt>
      <trkpt lat="42.9161520" lon="-8.3189540">
        <ele>375.6</ele>
        <time>2021-07-26T08:20:03Z</time>
      </trkpt>
      <trkpt lat="42.9160790" lon="-8.3191150">
        <ele>376.0</ele>
        <time>2021-07-26T08:20:09Z</time>
      </trkpt>
      <trkpt lat="42.9160730" lon="-8.3191460">
        <ele>376.4</ele>
        <time>2021-07-26T08:20:10Z</time>
      </trkpt>
      <trkpt lat="42.9160630" lon="-8.3191760">
        <ele>376.8</ele>
        <time>2021-07-26T08:20:11Z</time>
      </trkpt>
      <trkpt lat="42.9160520" lon="-8.3192080">
        <ele>377.2</ele>
        <time>2021-07-26T08:20:12Z</time>
      </trkpt>
      <trkpt lat="42.9160380" lon="-8.3192370">
        <ele>377.6</ele>
        <time>2021-07-26T08:20:13Z</time>
      </trkpt>
      <trkpt lat="42.9159870" lon="-8.3193410">
        <ele>377.6</ele>
        <time>2021-07-26T08:20:17Z</time>
      </trkpt>
      <trkpt lat="42.9159120" lon="-8.3195370">
        <ele>377.6</ele>
        <time>2021-07-26T08:20:24Z</time>
      </trkpt>
      <trkpt lat="42.9158940" lon="-8.3195850">
        <ele>378.2</ele>
        <time>2021-07-26T08:20:26Z</time>
      </trkpt>
      <trkpt lat="42.9158840" lon="-8.3196090">
        <ele>378.6</ele>
        <time>2021-07-26T08:20:27Z</time>
      </trkpt>
      <trkpt lat="42.9158750" lon="-8.3196350">
        <ele>379.0</ele>
        <time>2021-07-26T08:20:28Z</time>
      </trkpt>
      <trkpt lat="42.9158640" lon="-8.3196630">
        <ele>379.4</ele>
        <time>2021-07-26T08:20:29Z</time>
      </trkpt>
      <trkpt lat="42.9158520" lon="-8.3196910">
        <ele>379.8</ele>
        <time>2021-07-26T08:20:30Z</time>
      </trkpt>
      <trkpt lat="42.9158420" lon="-8.3197220">
        <ele>379.8</ele>
        <time>2021-07-26T08:20:31Z</time>
      </trkpt>
      <trkpt lat="42.9157710" lon="-8.3199160">
        <ele>379.8</ele>
        <time>2021-07-26T08:20:38Z</time>
      </trkpt>
      <trkpt lat="42.9157160" lon="-8.3200930">
        <ele>380.2</ele>
        <time>2021-07-26T08:20:44Z</time>
      </trkpt>
      <trkpt lat="42.9157090" lon="-8.3201210">
        <ele>380.6</ele>
        <time>2021-07-26T08:20:45Z</time>
      </trkpt>
      <trkpt lat="42.9157010" lon="-8.3201430">
        <ele>381.2</ele>
        <time>2021-07-26T08:20:46Z</time>
      </trkpt>
      <trkpt lat="42.9156910" lon="-8.3201650">
        <ele>381.6</ele>
        <time>2021-07-26T08:20:47Z</time>
      </trkpt>
      <trkpt lat="42.9156810" lon="-8.3201880">
        <ele>382.0</ele>
        <time>2021-07-26T08:20:48Z</time>
      </trkpt>
      <trkpt lat="42.9156610" lon="-8.3202500">
        <ele>382.0</ele>
        <time>2021-07-26T08:20:50Z</time>
      </trkpt>
      <trkpt lat="42.9156290" lon="-8.3203430">
        <ele>382.0</ele>
        <time>2021-07-26T08:20:53Z</time>
      </trkpt>
      <trkpt lat="42.9155740" lon="-8.3205240">
        <ele>382.0</ele>
        <time>2021-07-26T08:20:59Z</time>
      </trkpt>
      <trkpt lat="42.9155680" lon="-8.3205510">
        <ele>382.4</ele>
        <time>2021-07-26T08:21:00Z</time>
      </trkpt>
      <trkpt lat="42.9155600" lon="-8.3205780">
        <ele>382.8</ele>
        <time>2021-07-26T08:21:01Z</time>
      </trkpt>
      <trkpt lat="42.9155510" lon="-8.3206080">
        <ele>383.2</ele>
        <time>2021-07-26T08:21:02Z</time>
      </trkpt>
      <trkpt lat="42.9155440" lon="-8.3206410">
        <ele>383.6</ele>
        <time>2021-07-26T08:21:03Z</time>
      </trkpt>
      <trkpt lat="42.9155340" lon="-8.3206760">
        <ele>384.2</ele>
        <time>2021-07-26T08:21:04Z</time>
      </trkpt>
      <trkpt lat="42.9155180" lon="-8.3207310">
        <ele>384.2</ele>
        <time>2021-07-26T08:21:06Z</time>
      </trkpt>
      <trkpt lat="42.9154740" lon="-8.3209360">
        <ele>384.2</ele>
        <time>2021-07-26T08:21:12Z</time>
      </trkpt>
      <trkpt lat="42.9154250" lon="-8.3211950">
        <ele>384.2</ele>
        <time>2021-07-26T08:21:20Z</time>
      </trkpt>
      <trkpt lat="42.9154150" lon="-8.3212670">
        <ele>384.2</ele>
        <time>2021-07-26T08:21:22Z</time>
      </trkpt>
      <trkpt lat="42.9154020" lon="-8.3213750">
        <ele>384.2</ele>
        <time>2021-07-26T08:21:25Z</time>
      </trkpt>
      <trkpt lat="42.9153720" lon="-8.3215390">
        <ele>384.6</ele>
        <time>2021-07-26T08:21:30Z</time>
      </trkpt>
      <trkpt lat="42.9153670" lon="-8.3215730">
        <ele>385.0</ele>
        <time>2021-07-26T08:21:31Z</time>
      </trkpt>
      <trkpt lat="42.9153620" lon="-8.3216100">
        <ele>385.4</ele>
        <time>2021-07-26T08:21:32Z</time>
      </trkpt>
      <trkpt lat="42.9153550" lon="-8.3216480">
        <ele>385.8</ele>
        <time>2021-07-26T08:21:33Z</time>
      </trkpt>
      <trkpt lat="42.9153480" lon="-8.3216840">
        <ele>386.2</ele>
        <time>2021-07-26T08:21:34Z</time>
      </trkpt>
      <trkpt lat="42.9153170" lon="-8.3218350">
        <ele>386.2</ele>
        <time>2021-07-26T08:21:38Z</time>
      </trkpt>
      <trkpt lat="42.9153110" lon="-8.3220560">
        <ele>386.2</ele>
        <time>2021-07-26T08:21:44Z</time>
      </trkpt>
      <trkpt lat="42.9152960" lon="-8.3222470">
        <ele>386.2</ele>
        <time>2021-07-26T08:21:50Z</time>
      </trkpt>
      <trkpt lat="42.9152900" lon="-8.3223340">
        <ele>386.6</ele>
        <time>2021-07-26T08:21:53Z</time>
      </trkpt>
      <trkpt lat="42.9152950" lon="-8.3223640">
        <ele>387.0</ele>
        <time>2021-07-26T08:21:54Z</time>
      </trkpt>
      <trkpt lat="42.9152980" lon="-8.3223950">
        <ele>387.4</ele>
        <time>2021-07-26T08:21:55Z</time>
      </trkpt>
      <trkpt lat="42.9153000" lon="-8.3224260">
        <ele>387.8</ele>
        <time>2021-07-26T08:21:56Z</time>
      </trkpt>
      <trkpt lat="42.9152990" lon="-8.3224580">
        <ele>388.2</ele>
        <time>2021-07-26T08:21:57Z</time>
      </trkpt>
      <trkpt lat="42.9152920" lon="-8.3226730">
        <ele>388.2</ele>
        <time>2021-07-26T08:22:04Z</time>
      </trkpt>
      <trkpt lat="42.9152980" lon="-8.3229210">
        <ele>388.2</ele>
        <time>2021-07-26T08:22:12Z</time>
      </trkpt>
      <trkpt lat="42.9153200" lon="-8.3231710">
        <ele>388.6</ele>
        <time>2021-07-26T08:22:20Z</time>
      </trkpt>
      <trkpt lat="42.9153270" lon="-8.3231960">
        <ele>389.0</ele>
        <time>2021-07-26T08:22:21Z</time>
      </trkpt>
      <trkpt lat="42.9153320" lon="-8.3232210">
        <ele>389.4</ele>
        <time>2021-07-26T08:22:22Z</time>
      </trkpt>
      <trkpt lat="42.9153400" lon="-8.3232460">
        <ele>389.8</ele>
        <time>2021-07-26T08:22:23Z</time>
      </trkpt>
      <trkpt lat="42.9153520" lon="-8.3232710">
        <ele>390.4</ele>
        <time>2021-07-26T08:22:24Z</time>
      </trkpt>
      <trkpt lat="42.9153760" lon="-8.3232910">
        <ele>390.4</ele>
        <time>2021-07-26T08:22:25Z</time>
      </trkpt>
      <trkpt lat="42.9154000" lon="-8.3233120">
        <ele>390.4</ele>
        <time>2021-07-26T08:22:26Z</time>
      </trkpt>
      <trkpt lat="42.9154540" lon="-8.3234500">
        <ele>390.4</ele>
        <time>2021-07-26T08:22:30Z</time>
      </trkpt>
      <trkpt lat="42.9154760" lon="-8.3235820">
        <ele>390.4</ele>
        <time>2021-07-26T08:22:34Z</time>
      </trkpt>
      <trkpt lat="42.9155030" lon="-8.3236360">
        <ele>390.4</ele>
        <time>2021-07-26T08:22:36Z</time>
      </trkpt>
      <trkpt lat="42.9155720" lon="-8.3236840">
        <ele>390.4</ele>
        <time>2021-07-26T08:22:40Z</time>
      </trkpt>
      <trkpt lat="42.9156090" lon="-8.3236620">
        <ele>390.4</ele>
        <time>2021-07-26T08:22:42Z</time>
      </trkpt>
      <trkpt lat="42.9156770" lon="-8.3236080">
        <ele>390.4</ele>
        <time>2021-07-26T08:22:45Z</time>
      </trkpt>
      <trkpt lat="42.9158290" lon="-8.3235120">
        <ele>390.4</ele>
        <time>2021-07-26T08:22:51Z</time>
      </trkpt>
      <trkpt lat="42.9158810" lon="-8.3234800">
        <ele>390.8</ele>
        <time>2021-07-26T08:22:53Z</time>
      </trkpt>
      <trkpt lat="42.9159030" lon="-8.3234680">
        <ele>391.6</ele>
        <time>2021-07-26T08:22:54Z</time>
      </trkpt>
      <trkpt lat="42.9159220" lon="-8.3234610">
        <ele>392.0</ele>
        <time>2021-07-26T08:22:55Z</time>
      </trkpt>
      <trkpt lat="42.9159430" lon="-8.3234510">
        <ele>392.4</ele>
        <time>2021-07-26T08:22:56Z</time>
      </trkpt>
      <trkpt lat="42.9159620" lon="-8.3234410">
        <ele>392.4</ele>
        <time>2021-07-26T08:22:57Z</time>
      </trkpt>
      <trkpt lat="42.9160830" lon="-8.3234340">
        <ele>392.4</ele>
        <time>2021-07-26T08:23:02Z</time>
      </trkpt>
      <trkpt lat="42.9162950" lon="-8.3234350">
        <ele>392.4</ele>
        <time>2021-07-26T08:23:10Z</time>
      </trkpt>
      <trkpt lat="42.9164710" lon="-8.3234230">
        <ele>392.4</ele>
        <time>2021-07-26T08:23:17Z</time>
      </trkpt>
      <trkpt lat="42.9164920" lon="-8.3234220">
        <ele>392.8</ele>
        <time>2021-07-26T08:23:18Z</time>
      </trkpt>
      <trkpt lat="42.9165130" lon="-8.3234250">
        <ele>393.6</ele>
        <time>2021-07-26T08:23:19Z</time>
      </trkpt>
      <trkpt lat="42.9165320" lon="-8.3234310">
        <ele>394.0</ele>
        <time>2021-07-26T08:23:20Z</time>
      </trkpt>
      <trkpt lat="42.9165470" lon="-8.3234410">
        <ele>394.4</ele>
        <time>2021-07-26T08:23:21Z</time>
      </trkpt>
      <trkpt lat="42.9165670" lon="-8.3234820">
        <ele>394.4</ele>
        <time>2021-07-26T08:23:23Z</time>
      </trkpt>
      <trkpt lat="42.9165670" lon="-8.3236110">
        <ele>394.4</ele>
        <time>2021-07-26T08:23:27Z</time>
      </trkpt>
      <trkpt lat="42.9165600" lon="-8.3236490">
        <ele>394.4</ele>
        <time>2021-07-26T08:23:28Z</time>
      </trkpt>
      <trkpt lat="42.9165380" lon="-8.3237860">
        <ele>394.4</ele>
        <time>2021-07-26T08:23:31Z</time>
      </trkpt>
      <trkpt lat="42.9165230" lon="-8.3238840">
        <ele>394.4</ele>
        <time>2021-07-26T08:23:33Z</time>
      </trkpt>
      <trkpt lat="42.9165030" lon="-8.3240960">
        <ele>394.4</ele>
        <time>2021-07-26T08:23:37Z</time>
      </trkpt>
      <trkpt lat="42.9164880" lon="-8.3242190">
        <ele>394.4</ele>
        <time>2021-07-26T08:23:39Z</time>
      </trkpt>
      <trkpt lat="42.9164810" lon="-8.3242820">
        <ele>394.4</ele>
        <time>2021-07-26T08:23:40Z</time>
      </trkpt>
      <trkpt lat="42.9164650" lon="-8.3244060">
        <ele>394.4</ele>
        <time>2021-07-26T08:23:42Z</time>
      </trkpt>
      <trkpt lat="42.9164200" lon="-8.3246450">
        <ele>394.4</ele>
        <time>2021-07-26T08:23:46Z</time>
      </trkpt>
      <trkpt lat="42.9164120" lon="-8.3247040">
        <ele>394.4</ele>
        <time>2021-07-26T08:23:47Z</time>
      </trkpt>
      <trkpt lat="42.9164100" lon="-8.3247640">
        <ele>394.0</ele>
        <time>2021-07-26T08:23:48Z</time>
      </trkpt>
      <trkpt lat="42.9164100" lon="-8.3248230">
        <ele>393.4</ele>
        <time>2021-07-26T08:23:49Z</time>
      </trkpt>
      <trkpt lat="42.9164130" lon="-8.3248780">
        <ele>393.0</ele>
        <time>2021-07-26T08:23:50Z</time>
      </trkpt>
      <trkpt lat="42.9164140" lon="-8.3249370">
        <ele>392.6</ele>
        <time>2021-07-26T08:23:51Z</time>
      </trkpt>
      <trkpt lat="42.9164150" lon="-8.3249960">
        <ele>392.0</ele>
        <time>2021-07-26T08:23:52Z</time>
      </trkpt>
      <trkpt lat="42.9164050" lon="-8.3252470">
        <ele>392.0</ele>
        <time>2021-07-26T08:23:56Z</time>
      </trkpt>
      <trkpt lat="42.9163880" lon="-8.3253640">
        <ele>392.0</ele>
        <time>2021-07-26T08:23:58Z</time>
      </trkpt>
      <trkpt lat="42.9163990" lon="-8.3256080">
        <ele>391.6</ele>
        <time>2021-07-26T08:24:03Z</time>
      </trkpt>
      <trkpt lat="42.9164170" lon="-8.3256530">
        <ele>391.2</ele>
        <time>2021-07-26T08:24:04Z</time>
      </trkpt>
      <trkpt lat="42.9164360" lon="-8.3256920">
        <ele>390.6</ele>
        <time>2021-07-26T08:24:05Z</time>
      </trkpt>
      <trkpt lat="42.9164540" lon="-8.3257290">
        <ele>390.2</ele>
        <time>2021-07-26T08:24:06Z</time>
      </trkpt>
      <trkpt lat="42.9164650" lon="-8.3257670">
        <ele>389.8</ele>
        <time>2021-07-26T08:24:07Z</time>
      </trkpt>
      <trkpt lat="42.9164760" lon="-8.3258060">
        <ele>389.8</ele>
        <time>2021-07-26T08:24:08Z</time>
      </trkpt>
      <trkpt lat="42.9165160" lon="-8.3259550">
        <ele>389.8</ele>
        <time>2021-07-26T08:24:11Z</time>
      </trkpt>
      <trkpt lat="42.9165230" lon="-8.3260710">
        <ele>389.8</ele>
        <time>2021-07-26T08:24:13Z</time>
      </trkpt>
      <trkpt lat="42.9165270" lon="-8.3261290">
        <ele>389.4</ele>
        <time>2021-07-26T08:24:14Z</time>
      </trkpt>
      <trkpt lat="42.9165320" lon="-8.3261910">
        <ele>389.0</ele>
        <time>2021-07-26T08:24:15Z</time>
      </trkpt>
      <trkpt lat="42.9165400" lon="-8.3262570">
        <ele>388.4</ele>
        <time>2021-07-26T08:24:16Z</time>
      </trkpt>
      <trkpt lat="42.9165490" lon="-8.3263220">
        <ele>388.0</ele>
        <time>2021-07-26T08:24:17Z</time>
      </trkpt>
      <trkpt lat="42.9165610" lon="-8.3263840">
        <ele>387.6</ele>
        <time>2021-07-26T08:24:18Z</time>
      </trkpt>
      <trkpt lat="42.9165690" lon="-8.3264480">
        <ele>387.6</ele>
        <time>2021-07-26T08:24:19Z</time>
      </trkpt>
      <trkpt lat="42.9166030" lon="-8.3267440">
        <ele>387.2</ele>
        <time>2021-07-26T08:24:24Z</time>
      </trkpt>
      <trkpt lat="42.9166020" lon="-8.3267910">
        <ele>386.8</ele>
        <time>2021-07-26T08:24:25Z</time>
      </trkpt>
      <trkpt lat="42.9166020" lon="-8.3268310">
        <ele>386.2</ele>
        <time>2021-07-26T08:24:26Z</time>
      </trkpt>
      <trkpt lat="42.9166030" lon="-8.3268690">
        <ele>385.8</ele>
        <time>2021-07-26T08:24:27Z</time>
      </trkpt>
      <trkpt lat="42.9166100" lon="-8.3268990">
        <ele>385.4</ele>
        <time>2021-07-26T08:24:28Z</time>
      </trkpt>
      <trkpt lat="42.9166310" lon="-8.3269700">
        <ele>385.4</ele>
        <time>2021-07-26T08:24:31Z</time>
      </trkpt>
      <trkpt lat="42.9166370" lon="-8.3269890">
        <ele>385.0</ele>
        <time>2021-07-26T08:24:32Z</time>
      </trkpt>
      <trkpt lat="42.9166390" lon="-8.3270050">
        <ele>384.2</ele>
        <time>2021-07-26T08:24:33Z</time>
      </trkpt>
      <trkpt lat="42.9166430" lon="-8.3270280">
        <ele>383.8</ele>
        <time>2021-07-26T08:24:34Z</time>
      </trkpt>
      <trkpt lat="42.9166540" lon="-8.3270510">
        <ele>383.2</ele>
        <time>2021-07-26T08:24:35Z</time>
      </trkpt>
      <trkpt lat="42.9166850" lon="-8.3271150">
        <ele>383.2</ele>
        <time>2021-07-26T08:24:37Z</time>
      </trkpt>
      <trkpt lat="42.9167350" lon="-8.3272750">
        <ele>383.2</ele>
        <time>2021-07-26T08:24:40Z</time>
      </trkpt>
      <trkpt lat="42.9167520" lon="-8.3273350">
        <ele>383.2</ele>
        <time>2021-07-26T08:24:41Z</time>
      </trkpt>
      <trkpt lat="42.9167840" lon="-8.3274790">
        <ele>382.8</ele>
        <time>2021-07-26T08:24:43Z</time>
      </trkpt>
      <trkpt lat="42.9168000" lon="-8.3275460">
        <ele>382.4</ele>
        <time>2021-07-26T08:24:44Z</time>
      </trkpt>
      <trkpt lat="42.9168190" lon="-8.3276120">
        <ele>382.0</ele>
        <time>2021-07-26T08:24:45Z</time>
      </trkpt>
      <trkpt lat="42.9168380" lon="-8.3276750">
        <ele>381.6</ele>
        <time>2021-07-26T08:24:46Z</time>
      </trkpt>
      <trkpt lat="42.9168580" lon="-8.3277420">
        <ele>381.2</ele>
        <time>2021-07-26T08:24:47Z</time>
      </trkpt>
      <trkpt lat="42.9168820" lon="-8.3278040">
        <ele>380.8</ele>
        <time>2021-07-26T08:24:48Z</time>
      </trkpt>
      <trkpt lat="42.9168980" lon="-8.3278680">
        <ele>380.4</ele>
        <time>2021-07-26T08:24:49Z</time>
      </trkpt>
      <trkpt lat="42.9169130" lon="-8.3279290">
        <ele>380.0</ele>
        <time>2021-07-26T08:24:50Z</time>
      </trkpt>
      <trkpt lat="42.9169260" lon="-8.3279880">
        <ele>379.6</ele>
        <time>2021-07-26T08:24:51Z</time>
      </trkpt>
      <trkpt lat="42.9169410" lon="-8.3280420">
        <ele>379.2</ele>
        <time>2021-07-26T08:24:52Z</time>
      </trkpt>
      <trkpt lat="42.9169530" lon="-8.3281000">
        <ele>378.6</ele>
        <time>2021-07-26T08:24:53Z</time>
      </trkpt>
      <trkpt lat="42.9169640" lon="-8.3281560">
        <ele>378.2</ele>
        <time>2021-07-26T08:24:54Z</time>
      </trkpt>
      <trkpt lat="42.9169730" lon="-8.3282250">
        <ele>377.6</ele>
        <time>2021-07-26T08:24:55Z</time>
      </trkpt>
      <trkpt lat="42.9169830" lon="-8.3282950">
        <ele>377.2</ele>
        <time>2021-07-26T08:24:56Z</time>
      </trkpt>
      <trkpt lat="42.9169900" lon="-8.3283710">
        <ele>376.4</ele>
        <time>2021-07-26T08:24:57Z</time>
      </trkpt>
      <trkpt lat="42.9169970" lon="-8.3284490">
        <ele>375.2</ele>
        <time>2021-07-26T08:24:58Z</time>
      </trkpt>
      <trkpt lat="42.9170020" lon="-8.3285250">
        <ele>374.6</ele>
        <time>2021-07-26T08:24:59Z</time>
      </trkpt>
      <trkpt lat="42.9170100" lon="-8.3286030">
        <ele>373.8</ele>
        <time>2021-07-26T08:25:00Z</time>
      </trkpt>
      <trkpt lat="42.9170190" lon="-8.3286770">
        <ele>373.2</ele>
        <time>2021-07-26T08:25:01Z</time>
      </trkpt>
      <trkpt lat="42.9170320" lon="-8.3287480">
        <ele>372.6</ele>
        <time>2021-07-26T08:25:02Z</time>
      </trkpt>
      <trkpt lat="42.9170460" lon="-8.3288260">
        <ele>372.0</ele>
        <time>2021-07-26T08:25:03Z</time>
      </trkpt>
      <trkpt lat="42.9170640" lon="-8.3289040">
        <ele>371.4</ele>
        <time>2021-07-26T08:25:04Z</time>
      </trkpt>
      <trkpt lat="42.9170830" lon="-8.3289810">
        <ele>370.8</ele>
        <time>2021-07-26T08:25:05Z</time>
      </trkpt>
      <trkpt lat="42.9171050" lon="-8.3290570">
        <ele>370.0</ele>
        <time>2021-07-26T08:25:06Z</time>
      </trkpt>
      <trkpt lat="42.9171290" lon="-8.3291360">
        <ele>369.4</ele>
        <time>2021-07-26T08:25:07Z</time>
      </trkpt>
      <trkpt lat="42.9171520" lon="-8.3292250">
        <ele>368.8</ele>
        <time>2021-07-26T08:25:08Z</time>
      </trkpt>
      <trkpt lat="42.9171760" lon="-8.3293120">
        <ele>368.2</ele>
        <time>2021-07-26T08:25:09Z</time>
      </trkpt>
      <trkpt lat="42.9172000" lon="-8.3294010">
        <ele>367.4</ele>
        <time>2021-07-26T08:25:10Z</time>
      </trkpt>
      <trkpt lat="42.9172170" lon="-8.3294850">
        <ele>367.0</ele>
        <time>2021-07-26T08:25:11Z</time>
      </trkpt>
      <trkpt lat="42.9172310" lon="-8.3295650">
        <ele>366.4</ele>
        <time>2021-07-26T08:25:12Z</time>
      </trkpt>
      <trkpt lat="42.9172450" lon="-8.3296360">
        <ele>366.0</ele>
        <time>2021-07-26T08:25:13Z</time>
      </trkpt>
      <trkpt lat="42.9172660" lon="-8.3297030">
        <ele>365.4</ele>
        <time>2021-07-26T08:25:14Z</time>
      </trkpt>
      <trkpt lat="42.9172850" lon="-8.3297670">
        <ele>364.8</ele>
        <time>2021-07-26T08:25:15Z</time>
      </trkpt>
      <trkpt lat="42.9173060" lon="-8.3298270">
        <ele>364.4</ele>
        <time>2021-07-26T08:25:16Z</time>
      </trkpt>
      <trkpt lat="42.9173270" lon="-8.3298810">
        <ele>363.8</ele>
        <time>2021-07-26T08:25:17Z</time>
      </trkpt>
      <trkpt lat="42.9173460" lon="-8.3299370">
        <ele>363.2</ele>
        <time>2021-07-26T08:25:18Z</time>
      </trkpt>
      <trkpt lat="42.9173670" lon="-8.3299890">
        <ele>362.8</ele>
        <time>2021-07-26T08:25:19Z</time>
      </trkpt>
      <trkpt lat="42.9173860" lon="-8.3300410">
        <ele>362.8</ele>
        <time>2021-07-26T08:25:20Z</time>
      </trkpt>
      <trkpt lat="42.9174040" lon="-8.3300870">
        <ele>362.2</ele>
        <time>2021-07-26T08:25:21Z</time>
      </trkpt>
      <trkpt lat="42.9174130" lon="-8.3301240">
        <ele>361.2</ele>
        <time>2021-07-26T08:25:22Z</time>
      </trkpt>
      <trkpt lat="42.9174220" lon="-8.3301580">
        <ele>360.8</ele>
        <time>2021-07-26T08:25:23Z</time>
      </trkpt>
      <trkpt lat="42.9174290" lon="-8.3301940">
        <ele>360.2</ele>
        <time>2021-07-26T08:25:24Z</time>
      </trkpt>
      <trkpt lat="42.9174470" lon="-8.3302700">
        <ele>359.8</ele>
        <time>2021-07-26T08:25:26Z</time>
      </trkpt>
      <trkpt lat="42.9174580" lon="-8.3303110">
        <ele>359.4</ele>
        <time>2021-07-26T08:25:27Z</time>
      </trkpt>
      <trkpt lat="42.9174690" lon="-8.3303480">
        <ele>359.0</ele>
        <time>2021-07-26T08:25:28Z</time>
      </trkpt>
      <trkpt lat="42.9174800" lon="-8.3303800">
        <ele>358.6</ele>
        <time>2021-07-26T08:25:29Z</time>
      </trkpt>
      <trkpt lat="42.9174890" lon="-8.3304070">
        <ele>358.0</ele>
        <time>2021-07-26T08:25:30Z</time>
      </trkpt>
      <trkpt lat="42.9174960" lon="-8.3304270">
        <ele>357.6</ele>
        <time>2021-07-26T08:25:31Z</time>
      </trkpt>
      <trkpt lat="42.9175000" lon="-8.3304450">
        <ele>357.0</ele>
        <time>2021-07-26T08:25:32Z</time>
      </trkpt>
      <trkpt lat="42.9175050" lon="-8.3304620">
        <ele>356.6</ele>
        <time>2021-07-26T08:25:33Z</time>
      </trkpt>
      <trkpt lat="42.9175100" lon="-8.3304760">
        <ele>356.0</ele>
        <time>2021-07-26T08:25:34Z</time>
      </trkpt>
      <trkpt lat="42.9175140" lon="-8.3304910">
        <ele>356.0</ele>
        <time>2021-07-26T08:25:36Z</time>
      </trkpt>
      <trkpt lat="42.9175140" lon="-8.3304960">
        <ele>356.0</ele>
        <time>2021-07-26T08:25:37Z</time>
      </trkpt>
      <trkpt lat="42.9174740" lon="-8.3304980">
        <ele>356.0</ele>
        <time>2021-07-26T08:25:41Z</time>
      </trkpt>
      <trkpt lat="42.9174480" lon="-8.3304860">
        <ele>356.0</ele>
        <time>2021-07-26T08:25:43Z</time>
      </trkpt>
      <trkpt lat="42.9174480" lon="-8.3304860">
        <ele>356.0</ele>
        <time>2021-07-26T08:25:46Z</time>
      </trkpt>
      <trkpt lat="42.9174480" lon="-8.3304860">
        <ele>356.0</ele>
        <time>2021-07-26T08:25:50Z</time>
      </trkpt>
      <trkpt lat="42.9174480" lon="-8.3304860">
        <ele>356.0</ele>
        <time>2021-07-26T08:25:51Z</time>
      </trkpt>
      <trkpt lat="42.9173170" lon="-8.3305110">
        <ele>356.0</ele>
        <time>2021-07-26T08:25:55Z</time>
      </trkpt>
      <trkpt lat="42.9172420" lon="-8.3305970">
        <ele>356.0</ele>
        <time>2021-07-26T08:26:02Z</time>
      </trkpt>
      <trkpt lat="42.9172190" lon="-8.3306480">
        <ele>356.0</ele>
        <time>2021-07-26T08:26:47Z</time>
      </trkpt>
      <trkpt lat="42.9172030" lon="-8.3306770">
        <ele>356.0</ele>
        <time>2021-07-26T08:26:50Z</time>
      </trkpt>
      <trkpt lat="42.9171750" lon="-8.3307130">
        <ele>356.0</ele>
        <time>2021-07-26T08:26:54Z</time>
      </trkpt>
      <trkpt lat="42.9171380" lon="-8.3307440">
        <ele>356.0</ele>
        <time>2021-07-26T08:26:58Z</time>
      </trkpt>
      <trkpt lat="42.9170880" lon="-8.3307830">
        <ele>356.0</ele>
        <time>2021-07-26T08:27:02Z</time>
      </trkpt>
      <trkpt lat="42.9170660" lon="-8.3307990">
        <ele>356.0</ele>
        <time>2021-07-26T08:27:04Z</time>
      </trkpt>
      <trkpt lat="42.9169560" lon="-8.3308320">
        <ele>358.2</ele>
        <time>2021-07-26T08:27:13Z</time>
      </trkpt>
      <trkpt lat="42.9169350" lon="-8.3308370">
        <ele>358.2</ele>
        <time>2021-07-26T08:27:14Z</time>
      </trkpt>
      <trkpt lat="42.9168700" lon="-8.3308840">
        <ele>358.2</ele>
        <time>2021-07-26T08:27:20Z</time>
      </trkpt>
      <trkpt lat="42.9168430" lon="-8.3309230">
        <ele>358.6</ele>
        <time>2021-07-26T08:27:23Z</time>
      </trkpt>
      <trkpt lat="42.9168320" lon="-8.3309410">
        <ele>359.0</ele>
        <time>2021-07-26T08:27:24Z</time>
      </trkpt>
      <trkpt lat="42.9168280" lon="-8.3309610">
        <ele>359.6</ele>
        <time>2021-07-26T08:27:25Z</time>
      </trkpt>
      <trkpt lat="42.9168250" lon="-8.3309760">
        <ele>360.4</ele>
        <time>2021-07-26T08:27:26Z</time>
      </trkpt>
      <trkpt lat="42.9168210" lon="-8.3309890">
        <ele>360.4</ele>
        <time>2021-07-26T08:27:27Z</time>
      </trkpt>
      <trkpt lat="42.9168120" lon="-8.3310300">
        <ele>360.4</ele>
        <time>2021-07-26T08:27:31Z</time>
      </trkpt>
      <trkpt lat="42.9168080" lon="-8.3310600">
        <ele>360.4</ele>
        <time>2021-07-26T08:27:56Z</time>
      </trkpt>
      <trkpt lat="42.9168040" lon="-8.3310910">
        <ele>360.4</ele>
        <time>2021-07-26T08:27:57Z</time>
      </trkpt>
      <trkpt lat="42.9167970" lon="-8.3311910">
        <ele>360.4</ele>
        <time>2021-07-26T08:28:00Z</time>
      </trkpt>
      <trkpt lat="42.9167980" lon="-8.3312890">
        <ele>360.4</ele>
        <time>2021-07-26T08:28:02Z</time>
      </trkpt>
      <trkpt lat="42.9168000" lon="-8.3313420">
        <ele>360.4</ele>
        <time>2021-07-26T08:28:03Z</time>
      </trkpt>
      <trkpt lat="42.9168330" lon="-8.3316410">
        <ele>360.4</ele>
        <time>2021-07-26T08:28:08Z</time>
      </trkpt>
      <trkpt lat="42.9168520" lon="-8.3317670">
        <ele>360.4</ele>
        <time>2021-07-26T08:28:11Z</time>
      </trkpt>
      <trkpt lat="42.9168970" lon="-8.3318890">
        <ele>360.4</ele>
        <time>2021-07-26T08:28:13Z</time>
      </trkpt>
      <trkpt lat="42.9169260" lon="-8.3319530">
        <ele>360.4</ele>
        <time>2021-07-26T08:28:14Z</time>
      </trkpt>
      <trkpt lat="42.9169580" lon="-8.3320170">
        <ele>360.4</ele>
        <time>2021-07-26T08:28:15Z</time>
      </trkpt>
      <trkpt lat="42.9170300" lon="-8.3321500">
        <ele>360.4</ele>
        <time>2021-07-26T08:28:17Z</time>
      </trkpt>
      <trkpt lat="42.9171070" lon="-8.3322890">
        <ele>360.4</ele>
        <time>2021-07-26T08:28:19Z</time>
      </trkpt>
      <trkpt lat="42.9171450" lon="-8.3323550">
        <ele>360.0</ele>
        <time>2021-07-26T08:28:20Z</time>
      </trkpt>
      <trkpt lat="42.9171860" lon="-8.3324210">
        <ele>359.6</ele>
        <time>2021-07-26T08:28:21Z</time>
      </trkpt>
      <trkpt lat="42.9172250" lon="-8.3324870">
        <ele>359.2</ele>
        <time>2021-07-26T08:28:22Z</time>
      </trkpt>
      <trkpt lat="42.9172670" lon="-8.3325550">
        <ele>358.8</ele>
        <time>2021-07-26T08:28:23Z</time>
      </trkpt>
      <trkpt lat="42.9173080" lon="-8.3326300">
        <ele>358.4</ele>
        <time>2021-07-26T08:28:24Z</time>
      </trkpt>
      <trkpt lat="42.9173840" lon="-8.3327740">
        <ele>357.8</ele>
        <time>2021-07-26T08:28:26Z</time>
      </trkpt>
      <trkpt lat="42.9174210" lon="-8.3328440">
        <ele>357.4</ele>
        <time>2021-07-26T08:28:27Z</time>
      </trkpt>
      <trkpt lat="42.9174570" lon="-8.3329100">
        <ele>357.0</ele>
        <time>2021-07-26T08:28:28Z</time>
      </trkpt>
      <trkpt lat="42.9174870" lon="-8.3329670">
        <ele>356.6</ele>
        <time>2021-07-26T08:28:29Z</time>
      </trkpt>
      <trkpt lat="42.9175170" lon="-8.3330160">
        <ele>356.0</ele>
        <time>2021-07-26T08:28:30Z</time>
      </trkpt>
      <trkpt lat="42.9175430" lon="-8.3330590">
        <ele>355.6</ele>
        <time>2021-07-26T08:28:31Z</time>
      </trkpt>
      <trkpt lat="42.9175670" lon="-8.3331020">
        <ele>355.0</ele>
        <time>2021-07-26T08:28:32Z</time>
      </trkpt>
      <trkpt lat="42.9175910" lon="-8.3331350">
        <ele>354.4</ele>
        <time>2021-07-26T08:28:33Z</time>
      </trkpt>
      <trkpt lat="42.9176110" lon="-8.3331660">
        <ele>353.8</ele>
        <time>2021-07-26T08:28:34Z</time>
      </trkpt>
      <trkpt lat="42.9176520" lon="-8.3332350">
        <ele>353.4</ele>
        <time>2021-07-26T08:28:37Z</time>
      </trkpt>
      <trkpt lat="42.9176630" lon="-8.3332430">
        <ele>353.0</ele>
        <time>2021-07-26T08:28:38Z</time>
      </trkpt>
      <trkpt lat="42.9176640" lon="-8.3332450">
        <ele>352.6</ele>
        <time>2021-07-26T08:28:39Z</time>
      </trkpt>
      <trkpt lat="42.9176740" lon="-8.3332590">
        <ele>351.8</ele>
        <time>2021-07-26T08:28:53Z</time>
      </trkpt>
      <trkpt lat="42.9177210" lon="-8.3333250">
        <ele>351.8</ele>
        <time>2021-07-26T08:28:56Z</time>
      </trkpt>
      <trkpt lat="42.9177610" lon="-8.3333790">
        <ele>351.8</ele>
        <time>2021-07-26T08:28:58Z</time>
      </trkpt>
      <trkpt lat="42.9178590" lon="-8.3335990">
        <ele>351.8</ele>
        <time>2021-07-26T08:29:03Z</time>
      </trkpt>
      <trkpt lat="42.9179340" lon="-8.3337910">
        <ele>351.4</ele>
        <time>2021-07-26T08:29:07Z</time>
      </trkpt>
      <trkpt lat="42.9179530" lon="-8.3338360">
        <ele>351.0</ele>
        <time>2021-07-26T08:29:08Z</time>
      </trkpt>
      <trkpt lat="42.9179730" lon="-8.3338840">
        <ele>350.6</ele>
        <time>2021-07-26T08:29:09Z</time>
      </trkpt>
      <trkpt lat="42.9179910" lon="-8.3339280">
        <ele>350.2</ele>
        <time>2021-07-26T08:29:10Z</time>
      </trkpt>
      <trkpt lat="42.9180090" lon="-8.3339720">
        <ele>349.8</ele>
        <time>2021-07-26T08:29:11Z</time>
      </trkpt>
      <trkpt lat="42.9180420" lon="-8.3340650">
        <ele>349.8</ele>
        <time>2021-07-26T08:29:13Z</time>
      </trkpt>
      <trkpt lat="42.9180890" lon="-8.3341920">
        <ele>349.8</ele>
        <time>2021-07-26T08:29:16Z</time>
      </trkpt>
      <trkpt lat="42.9181480" lon="-8.3344010">
        <ele>349.8</ele>
        <time>2021-07-26T08:29:21Z</time>
      </trkpt>
      <trkpt lat="42.9181590" lon="-8.3344430">
        <ele>349.4</ele>
        <time>2021-07-26T08:29:22Z</time>
      </trkpt>
      <trkpt lat="42.9181680" lon="-8.3344840">
        <ele>348.8</ele>
        <time>2021-07-26T08:29:23Z</time>
      </trkpt>
      <trkpt lat="42.9181760" lon="-8.3345220">
        <ele>348.4</ele>
        <time>2021-07-26T08:29:24Z</time>
      </trkpt>
      <trkpt lat="42.9181800" lon="-8.3345580">
        <ele>348.0</ele>
        <time>2021-07-26T08:29:25Z</time>
      </trkpt>
      <trkpt lat="42.9181850" lon="-8.3345970">
        <ele>347.6</ele>
        <time>2021-07-26T08:29:26Z</time>
      </trkpt>
      <trkpt lat="42.9181900" lon="-8.3346340">
        <ele>347.6</ele>
        <time>2021-07-26T08:29:27Z</time>
      </trkpt>
      <trkpt lat="42.9182130" lon="-8.3349330">
        <ele>347.6</ele>
        <time>2021-07-26T08:29:33Z</time>
      </trkpt>
      <trkpt lat="42.9182420" lon="-8.3352370">
        <ele>347.2</ele>
        <time>2021-07-26T08:29:39Z</time>
      </trkpt>
      <trkpt lat="42.9182480" lon="-8.3352890">
        <ele>346.8</ele>
        <time>2021-07-26T08:29:40Z</time>
      </trkpt>
      <trkpt lat="42.9182550" lon="-8.3353420">
        <ele>346.4</ele>
        <time>2021-07-26T08:29:41Z</time>
      </trkpt>
      <trkpt lat="42.9182640" lon="-8.3353910">
        <ele>346.0</ele>
        <time>2021-07-26T08:29:42Z</time>
      </trkpt>
      <trkpt lat="42.9182700" lon="-8.3354370">
        <ele>345.6</ele>
        <time>2021-07-26T08:29:43Z</time>
      </trkpt>
      <trkpt lat="42.9182880" lon="-8.3356040">
        <ele>345.6</ele>
        <time>2021-07-26T08:29:47Z</time>
      </trkpt>
      <trkpt lat="42.9182840" lon="-8.3356860">
        <ele>345.2</ele>
        <time>2021-07-26T08:29:49Z</time>
      </trkpt>
      <trkpt lat="42.9182840" lon="-8.3357400">
        <ele>344.6</ele>
        <time>2021-07-26T08:29:50Z</time>
      </trkpt>
      <trkpt lat="42.9182890" lon="-8.3357900">
        <ele>344.2</ele>
        <time>2021-07-26T08:29:51Z</time>
      </trkpt>
      <trkpt lat="42.9182930" lon="-8.3358320">
        <ele>343.8</ele>
        <time>2021-07-26T08:29:52Z</time>
      </trkpt>
      <trkpt lat="42.9182940" lon="-8.3358670">
        <ele>343.4</ele>
        <time>2021-07-26T08:29:53Z</time>
      </trkpt>
      <trkpt lat="42.9183120" lon="-8.3359470">
        <ele>343.4</ele>
        <time>2021-07-26T08:29:56Z</time>
      </trkpt>
      <trkpt lat="42.9183300" lon="-8.3360710">
        <ele>343.4</ele>
        <time>2021-07-26T08:29:59Z</time>
      </trkpt>
      <trkpt lat="42.9183360" lon="-8.3361740">
        <ele>343.4</ele>
        <time>2021-07-26T08:30:01Z</time>
      </trkpt>
      <trkpt lat="42.9183440" lon="-8.3363010">
        <ele>343.0</ele>
        <time>2021-07-26T08:30:03Z</time>
      </trkpt>
      <trkpt lat="42.9183530" lon="-8.3363650">
        <ele>342.6</ele>
        <time>2021-07-26T08:30:04Z</time>
      </trkpt>
      <trkpt lat="42.9183610" lon="-8.3364250">
        <ele>342.2</ele>
        <time>2021-07-26T08:30:05Z</time>
      </trkpt>
      <trkpt lat="42.9183670" lon="-8.3364850">
        <ele>341.8</ele>
        <time>2021-07-26T08:30:06Z</time>
      </trkpt>
      <trkpt lat="42.9183740" lon="-8.3365480">
        <ele>341.4</ele>
        <time>2021-07-26T08:30:07Z</time>
      </trkpt>
      <trkpt lat="42.9183960" lon="-8.3368160">
        <ele>341.0</ele>
        <time>2021-07-26T08:30:11Z</time>
      </trkpt>
      <trkpt lat="42.9184020" lon="-8.3368810">
        <ele>340.6</ele>
        <time>2021-07-26T08:30:12Z</time>
      </trkpt>
      <trkpt lat="42.9184090" lon="-8.3369450">
        <ele>340.0</ele>
        <time>2021-07-26T08:30:13Z</time>
      </trkpt>
      <trkpt lat="42.9184150" lon="-8.3370100">
        <ele>339.6</ele>
        <time>2021-07-26T08:30:14Z</time>
      </trkpt>
      <trkpt lat="42.9184180" lon="-8.3370750">
        <ele>339.2</ele>
        <time>2021-07-26T08:30:15Z</time>
      </trkpt>
      <trkpt lat="42.9184220" lon="-8.3372700">
        <ele>338.8</ele>
        <time>2021-07-26T08:30:18Z</time>
      </trkpt>
      <trkpt lat="42.9184270" lon="-8.3373370">
        <ele>338.2</ele>
        <time>2021-07-26T08:30:19Z</time>
      </trkpt>
      <trkpt lat="42.9184330" lon="-8.3374050">
        <ele>337.8</ele>
        <time>2021-07-26T08:30:20Z</time>
      </trkpt>
      <trkpt lat="42.9184390" lon="-8.3374710">
        <ele>337.0</ele>
        <time>2021-07-26T08:30:21Z</time>
      </trkpt>
      <trkpt lat="42.9184410" lon="-8.3375400">
        <ele>337.0</ele>
        <time>2021-07-26T08:30:22Z</time>
      </trkpt>
      <trkpt lat="42.9184540" lon="-8.3376920">
        <ele>336.4</ele>
        <time>2021-07-26T08:30:24Z</time>
      </trkpt>
      <trkpt lat="42.9184580" lon="-8.3377710">
        <ele>336.0</ele>
        <time>2021-07-26T08:30:25Z</time>
      </trkpt>
      <trkpt lat="42.9184650" lon="-8.3378550">
        <ele>335.6</ele>
        <time>2021-07-26T08:30:26Z</time>
      </trkpt>
      <trkpt lat="42.9184700" lon="-8.3379320">
        <ele>335.0</ele>
        <time>2021-07-26T08:30:27Z</time>
      </trkpt>
      <trkpt lat="42.9184740" lon="-8.3380090">
        <ele>334.6</ele>
        <time>2021-07-26T08:30:28Z</time>
      </trkpt>
      <trkpt lat="42.9184820" lon="-8.3382520">
        <ele>334.2</ele>
        <time>2021-07-26T08:30:31Z</time>
      </trkpt>
      <trkpt lat="42.9184810" lon="-8.3383290">
        <ele>333.8</ele>
        <time>2021-07-26T08:30:32Z</time>
      </trkpt>
      <trkpt lat="42.9184770" lon="-8.3384060">
        <ele>333.2</ele>
        <time>2021-07-26T08:30:33Z</time>
      </trkpt>
      <trkpt lat="42.9184730" lon="-8.3384800">
        <ele>332.8</ele>
        <time>2021-07-26T08:30:34Z</time>
      </trkpt>
      <trkpt lat="42.9184690" lon="-8.3385490">
        <ele>332.4</ele>
        <time>2021-07-26T08:30:35Z</time>
      </trkpt>
      <trkpt lat="42.9184270" lon="-8.3388300">
        <ele>332.4</ele>
        <time>2021-07-26T08:30:40Z</time>
      </trkpt>
      <trkpt lat="42.9183860" lon="-8.3390700">
        <ele>332.4</ele>
        <time>2021-07-26T08:30:45Z</time>
      </trkpt>
      <trkpt lat="42.9183680" lon="-8.3391310">
        <ele>332.0</ele>
        <time>2021-07-26T08:30:46Z</time>
      </trkpt>
      <trkpt lat="42.9183470" lon="-8.3391900">
        <ele>331.6</ele>
        <time>2021-07-26T08:30:47Z</time>
      </trkpt>
      <trkpt lat="42.9183300" lon="-8.3392500">
        <ele>331.2</ele>
        <time>2021-07-26T08:30:48Z</time>
      </trkpt>
      <trkpt lat="42.9183120" lon="-8.3393120">
        <ele>330.6</ele>
        <time>2021-07-26T08:30:49Z</time>
      </trkpt>
      <trkpt lat="42.9182960" lon="-8.3393770">
        <ele>330.2</ele>
        <time>2021-07-26T08:30:50Z</time>
      </trkpt>
      <trkpt lat="42.9182790" lon="-8.3394470">
        <ele>330.2</ele>
        <time>2021-07-26T08:30:51Z</time>
      </trkpt>
      <trkpt lat="42.9182160" lon="-8.3397470">
        <ele>330.2</ele>
        <time>2021-07-26T08:30:56Z</time>
      </trkpt>
      <trkpt lat="42.9180980" lon="-8.3401930">
        <ele>330.2</ele>
        <time>2021-07-26T08:31:04Z</time>
      </trkpt>
      <trkpt lat="42.9180400" lon="-8.3404210">
        <ele>329.8</ele>
        <time>2021-07-26T08:31:08Z</time>
      </trkpt>
      <trkpt lat="42.9180230" lon="-8.3404770">
        <ele>329.4</ele>
        <time>2021-07-26T08:31:09Z</time>
      </trkpt>
      <trkpt lat="42.9180080" lon="-8.3405300">
        <ele>328.6</ele>
        <time>2021-07-26T08:31:10Z</time>
      </trkpt>
      <trkpt lat="42.9179960" lon="-8.3405800">
        <ele>328.2</ele>
        <time>2021-07-26T08:31:11Z</time>
      </trkpt>
      <trkpt lat="42.9179370" lon="-8.3408190">
        <ele>327.8</ele>
        <time>2021-07-26T08:31:16Z</time>
      </trkpt>
      <trkpt lat="42.9179230" lon="-8.3408620">
        <ele>327.2</ele>
        <time>2021-07-26T08:31:17Z</time>
      </trkpt>
      <trkpt lat="42.9179100" lon="-8.3409130">
        <ele>326.8</ele>
        <time>2021-07-26T08:31:18Z</time>
      </trkpt>
      <trkpt lat="42.9178970" lon="-8.3409560">
        <ele>326.4</ele>
        <time>2021-07-26T08:31:19Z</time>
      </trkpt>
      <trkpt lat="42.9178830" lon="-8.3409970">
        <ele>325.8</ele>
        <time>2021-07-26T08:31:20Z</time>
      </trkpt>
      <trkpt lat="42.9178560" lon="-8.3410600">
        <ele>325.8</ele>
        <time>2021-07-26T08:31:22Z</time>
      </trkpt>
      <trkpt lat="42.9178390" lon="-8.3411000">
        <ele>325.4</ele>
        <time>2021-07-26T08:31:23Z</time>
      </trkpt>
      <trkpt lat="42.9178200" lon="-8.3411450">
        <ele>325.0</ele>
        <time>2021-07-26T08:31:24Z</time>
      </trkpt>
      <trkpt lat="42.9178020" lon="-8.3412000">
        <ele>324.6</ele>
        <time>2021-07-26T08:31:25Z</time>
      </trkpt>
      <trkpt lat="42.9177850" lon="-8.3412590">
        <ele>324.2</ele>
        <time>2021-07-26T08:31:26Z</time>
      </trkpt>
      <trkpt lat="42.9177680" lon="-8.3413230">
        <ele>323.8</ele>
        <time>2021-07-26T08:31:27Z</time>
      </trkpt>
      <trkpt lat="42.9177490" lon="-8.3413860">
        <ele>323.8</ele>
        <time>2021-07-26T08:31:28Z</time>
      </trkpt>
      <trkpt lat="42.9176330" lon="-8.3417270">
        <ele>323.8</ele>
        <time>2021-07-26T08:31:34Z</time>
      </trkpt>
      <trkpt lat="42.9176100" lon="-8.3417850">
        <ele>323.0</ele>
        <time>2021-07-26T08:31:35Z</time>
      </trkpt>
      <trkpt lat="42.9175900" lon="-8.3418450">
        <ele>322.4</ele>
        <time>2021-07-26T08:31:36Z</time>
      </trkpt>
      <trkpt lat="42.9175730" lon="-8.3419040">
        <ele>322.0</ele>
        <time>2021-07-26T08:31:37Z</time>
      </trkpt>
      <trkpt lat="42.9175660" lon="-8.3419530">
        <ele>321.6</ele>
        <time>2021-07-26T08:31:38Z</time>
      </trkpt>
      <trkpt lat="42.9175550" lon="-8.3419970">
        <ele>321.6</ele>
        <time>2021-07-26T08:31:39Z</time>
      </trkpt>
      <trkpt lat="42.9175030" lon="-8.3421770">
        <ele>321.2</ele>
        <time>2021-07-26T08:31:43Z</time>
      </trkpt>
      <trkpt lat="42.9174850" lon="-8.3422230">
        <ele>320.8</ele>
        <time>2021-07-26T08:31:44Z</time>
      </trkpt>
      <trkpt lat="42.9174660" lon="-8.3422770">
        <ele>320.4</ele>
        <time>2021-07-26T08:31:45Z</time>
      </trkpt>
      <trkpt lat="42.9174420" lon="-8.3423290">
        <ele>320.0</ele>
        <time>2021-07-26T08:31:46Z</time>
      </trkpt>
      <trkpt lat="42.9174150" lon="-8.3423860">
        <ele>319.6</ele>
        <time>2021-07-26T08:31:47Z</time>
      </trkpt>
      <trkpt lat="42.9173380" lon="-8.3425650">
        <ele>319.0</ele>
        <time>2021-07-26T08:31:50Z</time>
      </trkpt>
      <trkpt lat="42.9173050" lon="-8.3426270">
        <ele>318.6</ele>
        <time>2021-07-26T08:31:51Z</time>
      </trkpt>
      <trkpt lat="42.9172680" lon="-8.3426970">
        <ele>318.2</ele>
        <time>2021-07-26T08:31:52Z</time>
      </trkpt>
      <trkpt lat="42.9172330" lon="-8.3427710">
        <ele>317.8</ele>
        <time>2021-07-26T08:31:53Z</time>
      </trkpt>
      <trkpt lat="42.9171920" lon="-8.3428480">
        <ele>317.2</ele>
        <time>2021-07-26T08:31:54Z</time>
      </trkpt>
      <trkpt lat="42.9171590" lon="-8.3429080">
        <ele>317.2</ele>
        <time>2021-07-26T08:31:55Z</time>
      </trkpt>
      <trkpt lat="42.9171400" lon="-8.3429660">
        <ele>316.8</ele>
        <time>2021-07-26T08:31:56Z</time>
      </trkpt>
      <trkpt lat="42.9171140" lon="-8.3430360">
        <ele>316.4</ele>
        <time>2021-07-26T08:31:57Z</time>
      </trkpt>
      <trkpt lat="42.9170790" lon="-8.3430890">
        <ele>315.8</ele>
        <time>2021-07-26T08:31:58Z</time>
      </trkpt>
      <trkpt lat="42.9170420" lon="-8.3431300">
        <ele>315.4</ele>
        <time>2021-07-26T08:31:59Z</time>
      </trkpt>
      <trkpt lat="42.9170050" lon="-8.3431600">
        <ele>315.0</ele>
        <time>2021-07-26T08:32:00Z</time>
      </trkpt>
      <trkpt lat="42.9168750" lon="-8.3432060">
        <ele>315.0</ele>
        <time>2021-07-26T08:32:03Z</time>
      </trkpt>
      <trkpt lat="42.9167930" lon="-8.3432160">
        <ele>315.0</ele>
        <time>2021-07-26T08:32:05Z</time>
      </trkpt>
      <trkpt lat="42.9167630" lon="-8.3432110">
        <ele>314.4</ele>
        <time>2021-07-26T08:32:06Z</time>
      </trkpt>
      <trkpt lat="42.9167360" lon="-8.3432090">
        <ele>314.0</ele>
        <time>2021-07-26T08:32:07Z</time>
      </trkpt>
      <trkpt lat="42.9167060" lon="-8.3431950">
        <ele>313.6</ele>
        <time>2021-07-26T08:32:08Z</time>
      </trkpt>
      <trkpt lat="42.9166700" lon="-8.3431750">
        <ele>313.2</ele>
        <time>2021-07-26T08:32:09Z</time>
      </trkpt>
      <trkpt lat="42.9166310" lon="-8.3431620">
        <ele>312.6</ele>
        <time>2021-07-26T08:32:10Z</time>
      </trkpt>
      <trkpt lat="42.9165630" lon="-8.3431670">
        <ele>312.2</ele>
        <time>2021-07-26T08:32:12Z</time>
      </trkpt>
      <trkpt lat="42.9165380" lon="-8.3431910">
        <ele>311.8</ele>
        <time>2021-07-26T08:32:13Z</time>
      </trkpt>
      <trkpt lat="42.9165180" lon="-8.3432200">
        <ele>311.4</ele>
        <time>2021-07-26T08:32:14Z</time>
      </trkpt>
      <trkpt lat="42.9165070" lon="-8.3432570">
        <ele>311.0</ele>
        <time>2021-07-26T08:32:15Z</time>
      </trkpt>
      <trkpt lat="42.9164990" lon="-8.3432990">
        <ele>310.6</ele>
        <time>2021-07-26T08:32:16Z</time>
      </trkpt>
      <trkpt lat="42.9164950" lon="-8.3434050">
        <ele>310.6</ele>
        <time>2021-07-26T08:32:18Z</time>
      </trkpt>
      <trkpt lat="42.9165050" lon="-8.3435620">
        <ele>310.0</ele>
        <time>2021-07-26T08:32:21Z</time>
      </trkpt>
      <trkpt lat="42.9165090" lon="-8.3436180">
        <ele>309.6</ele>
        <time>2021-07-26T08:32:22Z</time>
      </trkpt>
      <trkpt lat="42.9165150" lon="-8.3436670">
        <ele>309.0</ele>
        <time>2021-07-26T08:32:23Z</time>
      </trkpt>
      <trkpt lat="42.9165190" lon="-8.3437080">
        <ele>308.0</ele>
        <time>2021-07-26T08:32:24Z</time>
      </trkpt>
      <trkpt lat="42.9165210" lon="-8.3437410">
        <ele>307.4</ele>
        <time>2021-07-26T08:32:25Z</time>
      </trkpt>
      <trkpt lat="42.9165200" lon="-8.3437750">
        <ele>306.8</ele>
        <time>2021-07-26T08:32:26Z</time>
      </trkpt>
      <trkpt lat="42.9165100" lon="-8.3438060">
        <ele>306.2</ele>
        <time>2021-07-26T08:32:27Z</time>
      </trkpt>
      <trkpt lat="42.9164990" lon="-8.3438340">
        <ele>305.6</ele>
        <time>2021-07-26T08:32:28Z</time>
      </trkpt>
      <trkpt lat="42.9164910" lon="-8.3438580">
        <ele>305.2</ele>
        <time>2021-07-26T08:32:29Z</time>
      </trkpt>
      <trkpt lat="42.9164820" lon="-8.3438820">
        <ele>304.8</ele>
        <time>2021-07-26T08:32:30Z</time>
      </trkpt>
      <trkpt lat="42.9164740" lon="-8.3439060">
        <ele>304.4</ele>
        <time>2021-07-26T08:32:31Z</time>
      </trkpt>
      <trkpt lat="42.9164660" lon="-8.3439320">
        <ele>304.0</ele>
        <time>2021-07-26T08:32:32Z</time>
      </trkpt>
      <trkpt lat="42.9164580" lon="-8.3439570">
        <ele>303.6</ele>
        <time>2021-07-26T08:32:33Z</time>
      </trkpt>
      <trkpt lat="42.9164050" lon="-8.3440260">
        <ele>303.6</ele>
        <time>2021-07-26T08:32:36Z</time>
      </trkpt>
      <trkpt lat="42.9163920" lon="-8.3440510">
        <ele>303.6</ele>
        <time>2021-07-26T08:32:37Z</time>
      </trkpt>
      <trkpt lat="42.9163760" lon="-8.3440750">
        <ele>303.6</ele>
        <time>2021-07-26T08:32:38Z</time>
      </trkpt>
      <trkpt lat="42.9163520" lon="-8.3441200">
        <ele>303.6</ele>
        <time>2021-07-26T08:32:40Z</time>
      </trkpt>
      <trkpt lat="42.9163460" lon="-8.3441800">
        <ele>303.6</ele>
        <time>2021-07-26T08:32:42Z</time>
      </trkpt>
      <trkpt lat="42.9163410" lon="-8.3442070">
        <ele>303.6</ele>
        <time>2021-07-26T08:32:43Z</time>
      </trkpt>
      <trkpt lat="42.9163260" lon="-8.3442630">
        <ele>303.6</ele>
        <time>2021-07-26T08:32:47Z</time>
      </trkpt>
      <trkpt lat="42.9163270" lon="-8.3443140">
        <ele>303.6</ele>
        <time>2021-07-26T08:32:50Z</time>
      </trkpt>
      <trkpt lat="42.9162750" lon="-8.3444670">
        <ele>303.6</ele>
        <time>2021-07-26T08:32:53Z</time>
      </trkpt>
      <trkpt lat="42.9162180" lon="-8.3446760">
        <ele>303.2</ele>
        <time>2021-07-26T08:32:56Z</time>
      </trkpt>
      <trkpt lat="42.9161970" lon="-8.3447590">
        <ele>302.6</ele>
        <time>2021-07-26T08:32:57Z</time>
      </trkpt>
      <trkpt lat="42.9161740" lon="-8.3448390">
        <ele>302.2</ele>
        <time>2021-07-26T08:32:58Z</time>
      </trkpt>
      <trkpt lat="42.9161520" lon="-8.3449140">
        <ele>301.6</ele>
        <time>2021-07-26T08:32:59Z</time>
      </trkpt>
      <trkpt lat="42.9161330" lon="-8.3449860">
        <ele>301.2</ele>
        <time>2021-07-26T08:33:00Z</time>
      </trkpt>
      <trkpt lat="42.9161150" lon="-8.3450620">
        <ele>300.8</ele>
        <time>2021-07-26T08:33:01Z</time>
      </trkpt>
      <trkpt lat="42.9160970" lon="-8.3451400">
        <ele>300.2</ele>
        <time>2021-07-26T08:33:02Z</time>
      </trkpt>
      <trkpt lat="42.9160780" lon="-8.3452210">
        <ele>299.8</ele>
        <time>2021-07-26T08:33:03Z</time>
      </trkpt>
      <trkpt lat="42.9160550" lon="-8.3453000">
        <ele>299.2</ele>
        <time>2021-07-26T08:33:04Z</time>
      </trkpt>
      <trkpt lat="42.9160240" lon="-8.3453750">
        <ele>298.8</ele>
        <time>2021-07-26T08:33:05Z</time>
      </trkpt>
      <trkpt lat="42.9159910" lon="-8.3454500">
        <ele>298.4</ele>
        <time>2021-07-26T08:33:06Z</time>
      </trkpt>
      <trkpt lat="42.9159500" lon="-8.3455210">
        <ele>298.0</ele>
        <time>2021-07-26T08:33:07Z</time>
      </trkpt>
      <trkpt lat="42.9159110" lon="-8.3455860">
        <ele>297.6</ele>
        <time>2021-07-26T08:33:08Z</time>
      </trkpt>
      <trkpt lat="42.9158720" lon="-8.3456520">
        <ele>297.2</ele>
        <time>2021-07-26T08:33:09Z</time>
      </trkpt>
      <trkpt lat="42.9158350" lon="-8.3457160">
        <ele>296.6</ele>
        <time>2021-07-26T08:33:10Z</time>
      </trkpt>
      <trkpt lat="42.9157980" lon="-8.3457700">
        <ele>296.2</ele>
        <time>2021-07-26T08:33:11Z</time>
      </trkpt>
      <trkpt lat="42.9157590" lon="-8.3458270">
        <ele>295.6</ele>
        <time>2021-07-26T08:33:12Z</time>
      </trkpt>
      <trkpt lat="42.9157250" lon="-8.3458810">
        <ele>295.2</ele>
        <time>2021-07-26T08:33:13Z</time>
      </trkpt>
      <trkpt lat="42.9156890" lon="-8.3459450">
        <ele>294.6</ele>
        <time>2021-07-26T08:33:14Z</time>
      </trkpt>
      <trkpt lat="42.9156630" lon="-8.3460200">
        <ele>294.2</ele>
        <time>2021-07-26T08:33:15Z</time>
      </trkpt>
      <trkpt lat="42.9156440" lon="-8.3460950">
        <ele>293.8</ele>
        <time>2021-07-26T08:33:16Z</time>
      </trkpt>
      <trkpt lat="42.9156230" lon="-8.3461670">
        <ele>293.4</ele>
        <time>2021-07-26T08:33:17Z</time>
      </trkpt>
      <trkpt lat="42.9155990" lon="-8.3462390">
        <ele>292.8</ele>
        <time>2021-07-26T08:33:18Z</time>
      </trkpt>
      <trkpt lat="42.9155720" lon="-8.3463020">
        <ele>292.4</ele>
        <time>2021-07-26T08:33:19Z</time>
      </trkpt>
      <trkpt lat="42.9154750" lon="-8.3464840">
        <ele>292.4</ele>
        <time>2021-07-26T08:33:22Z</time>
      </trkpt>
      <trkpt lat="42.9152290" lon="-8.3468630">
        <ele>292.4</ele>
        <time>2021-07-26T08:33:28Z</time>
      </trkpt>
      <trkpt lat="42.9151180" lon="-8.3470490">
        <ele>292.0</ele>
        <time>2021-07-26T08:33:31Z</time>
      </trkpt>
      <trkpt lat="42.9150800" lon="-8.3471080">
        <ele>291.4</ele>
        <time>2021-07-26T08:33:32Z</time>
      </trkpt>
      <trkpt lat="42.9150400" lon="-8.3471700">
        <ele>291.0</ele>
        <time>2021-07-26T08:33:33Z</time>
      </trkpt>
      <trkpt lat="42.9150010" lon="-8.3472250">
        <ele>290.4</ele>
        <time>2021-07-26T08:33:34Z</time>
      </trkpt>
      <trkpt lat="42.9149630" lon="-8.3472830">
        <ele>290.0</ele>
        <time>2021-07-26T08:33:35Z</time>
      </trkpt>
      <trkpt lat="42.9149190" lon="-8.3473380">
        <ele>289.6</ele>
        <time>2021-07-26T08:33:36Z</time>
      </trkpt>
      <trkpt lat="42.9148750" lon="-8.3473930">
        <ele>289.0</ele>
        <time>2021-07-26T08:33:37Z</time>
      </trkpt>
      <trkpt lat="42.9148350" lon="-8.3474570">
        <ele>288.6</ele>
        <time>2021-07-26T08:33:38Z</time>
      </trkpt>
      <trkpt lat="42.9147980" lon="-8.3475170">
        <ele>287.6</ele>
        <time>2021-07-26T08:33:39Z</time>
      </trkpt>
      <trkpt lat="42.9147580" lon="-8.3475840">
        <ele>287.2</ele>
        <time>2021-07-26T08:33:40Z</time>
      </trkpt>
      <trkpt lat="42.9147200" lon="-8.3476570">
        <ele>286.8</ele>
        <time>2021-07-26T08:33:41Z</time>
      </trkpt>
      <trkpt lat="42.9146850" lon="-8.3477350">
        <ele>286.4</ele>
        <time>2021-07-26T08:33:42Z</time>
      </trkpt>
      <trkpt lat="42.9146540" lon="-8.3478100">
        <ele>285.8</ele>
        <time>2021-07-26T08:33:43Z</time>
      </trkpt>
      <trkpt lat="42.9146340" lon="-8.3478900">
        <ele>285.4</ele>
        <time>2021-07-26T08:33:44Z</time>
      </trkpt>
      <trkpt lat="42.9145700" lon="-8.3482030">
        <ele>285.0</ele>
        <time>2021-07-26T08:33:48Z</time>
      </trkpt>
      <trkpt lat="42.9145530" lon="-8.3482780">
        <ele>284.6</ele>
        <time>2021-07-26T08:33:49Z</time>
      </trkpt>
      <trkpt lat="42.9145290" lon="-8.3483510">
        <ele>284.2</ele>
        <time>2021-07-26T08:33:50Z</time>
      </trkpt>
      <trkpt lat="42.9145050" lon="-8.3484170">
        <ele>283.8</ele>
        <time>2021-07-26T08:33:51Z</time>
      </trkpt>
      <trkpt lat="42.9144790" lon="-8.3484840">
        <ele>283.4</ele>
        <time>2021-07-26T08:33:52Z</time>
      </trkpt>
      <trkpt lat="42.9144200" lon="-8.3486580">
        <ele>283.0</ele>
        <time>2021-07-26T08:33:55Z</time>
      </trkpt>
      <trkpt lat="42.9144070" lon="-8.3487080">
        <ele>282.6</ele>
        <time>2021-07-26T08:33:56Z</time>
      </trkpt>
      <trkpt lat="42.9143920" lon="-8.3487590">
        <ele>282.2</ele>
        <time>2021-07-26T08:33:57Z</time>
      </trkpt>
      <trkpt lat="42.9143760" lon="-8.3488070">
        <ele>281.8</ele>
        <time>2021-07-26T08:33:58Z</time>
      </trkpt>
      <trkpt lat="42.9143590" lon="-8.3488570">
        <ele>281.4</ele>
        <time>2021-07-26T08:33:59Z</time>
      </trkpt>
      <trkpt lat="42.9143470" lon="-8.3489160">
        <ele>280.8</ele>
        <time>2021-07-26T08:34:00Z</time>
      </trkpt>
      <trkpt lat="42.9143430" lon="-8.3489780">
        <ele>280.4</ele>
        <time>2021-07-26T08:34:01Z</time>
      </trkpt>
      <trkpt lat="42.9143440" lon="-8.3490410">
        <ele>279.8</ele>
        <time>2021-07-26T08:34:02Z</time>
      </trkpt>
      <trkpt lat="42.9143530" lon="-8.3491020">
        <ele>278.8</ele>
        <time>2021-07-26T08:34:03Z</time>
      </trkpt>
      <trkpt lat="42.9144140" lon="-8.3492460">
        <ele>278.8</ele>
        <time>2021-07-26T08:34:06Z</time>
      </trkpt>
      <trkpt lat="42.9144910" lon="-8.3493090">
        <ele>278.4</ele>
        <time>2021-07-26T08:34:09Z</time>
      </trkpt>
      <trkpt lat="42.9145200" lon="-8.3493330">
        <ele>278.0</ele>
        <time>2021-07-26T08:34:10Z</time>
      </trkpt>
      <trkpt lat="42.9145470" lon="-8.3493590">
        <ele>277.4</ele>
        <time>2021-07-26T08:34:11Z</time>
      </trkpt>
      <trkpt lat="42.9145670" lon="-8.3493810">
        <ele>277.0</ele>
        <time>2021-07-26T08:34:12Z</time>
      </trkpt>
      <trkpt lat="42.9145860" lon="-8.3493960">
        <ele>276.4</ele>
        <time>2021-07-26T08:34:13Z</time>
      </trkpt>
      <trkpt lat="42.9146090" lon="-8.3494100">
        <ele>276.0</ele>
        <time>2021-07-26T08:34:14Z</time>
      </trkpt>
      <trkpt lat="42.9146340" lon="-8.3494250">
        <ele>275.4</ele>
        <time>2021-07-26T08:34:15Z</time>
      </trkpt>
      <trkpt lat="42.9146600" lon="-8.3494420">
        <ele>274.8</ele>
        <time>2021-07-26T08:34:16Z</time>
      </trkpt>
      <trkpt lat="42.9146820" lon="-8.3494680">
        <ele>274.4</ele>
        <time>2021-07-26T08:34:17Z</time>
      </trkpt>
      <trkpt lat="42.9147010" lon="-8.3494980">
        <ele>273.8</ele>
        <time>2021-07-26T08:34:18Z</time>
      </trkpt>
      <trkpt lat="42.9147110" lon="-8.3495390">
        <ele>273.4</ele>
        <time>2021-07-26T08:34:19Z</time>
      </trkpt>
      <trkpt lat="42.9147100" lon="-8.3495890">
        <ele>273.0</ele>
        <time>2021-07-26T08:34:20Z</time>
      </trkpt>
      <trkpt lat="42.9147020" lon="-8.3496380">
        <ele>272.6</ele>
        <time>2021-07-26T08:34:21Z</time>
      </trkpt>
      <trkpt lat="42.9146960" lon="-8.3496840">
        <ele>272.2</ele>
        <time>2021-07-26T08:34:22Z</time>
      </trkpt>
      <trkpt lat="42.9146860" lon="-8.3497780">
        <ele>271.8</ele>
        <time>2021-07-26T08:34:24Z</time>
      </trkpt>
      <trkpt lat="42.9146780" lon="-8.3498290">
        <ele>271.2</ele>
        <time>2021-07-26T08:34:25Z</time>
      </trkpt>
      <trkpt lat="42.9146650" lon="-8.3498820">
        <ele>270.8</ele>
        <time>2021-07-26T08:34:26Z</time>
      </trkpt>
      <trkpt lat="42.9146560" lon="-8.3499260">
        <ele>269.8</ele>
        <time>2021-07-26T08:34:27Z</time>
      </trkpt>
      <trkpt lat="42.9146370" lon="-8.3500100">
        <ele>269.4</ele>
        <time>2021-07-26T08:34:29Z</time>
      </trkpt>
      <trkpt lat="42.9146250" lon="-8.3500450">
        <ele>269.0</ele>
        <time>2021-07-26T08:34:30Z</time>
      </trkpt>
      <trkpt lat="42.9146140" lon="-8.3500770">
        <ele>268.6</ele>
        <time>2021-07-26T08:34:31Z</time>
      </trkpt>
      <trkpt lat="42.9146010" lon="-8.3501140">
        <ele>268.2</ele>
        <time>2021-07-26T08:34:32Z</time>
      </trkpt>
      <trkpt lat="42.9145890" lon="-8.3501600">
        <ele>267.8</ele>
        <time>2021-07-26T08:34:33Z</time>
      </trkpt>
      <trkpt lat="42.9145540" lon="-8.3503170">
        <ele>267.8</ele>
        <time>2021-07-26T08:34:36Z</time>
      </trkpt>
      <trkpt lat="42.9145390" lon="-8.3503920">
        <ele>267.8</ele>
        <time>2021-07-26T08:34:39Z</time>
      </trkpt>
      <trkpt lat="42.9145400" lon="-8.3503950">
        <ele>267.8</ele>
        <time>2021-07-26T08:34:40Z</time>
      </trkpt>
      <trkpt lat="42.9145410" lon="-8.3504000">
        <ele>267.4</ele>
        <time>2021-07-26T08:34:41Z</time>
      </trkpt>
      <trkpt lat="42.9145330" lon="-8.3504220">
        <ele>265.8</ele>
        <time>2021-07-26T08:34:46Z</time>
      </trkpt>
      <trkpt lat="42.9145170" lon="-8.3504660">
        <ele>265.8</ele>
        <time>2021-07-26T08:34:48Z</time>
      </trkpt>
      <trkpt lat="42.9145060" lon="-8.3505340">
        <ele>265.8</ele>
        <time>2021-07-26T08:34:53Z</time>
      </trkpt>
      <trkpt lat="42.9144930" lon="-8.3505730">
        <ele>265.8</ele>
        <time>2021-07-26T08:37:08Z</time>
      </trkpt>
      <trkpt lat="42.9144880" lon="-8.3506380">
        <ele>265.8</ele>
        <time>2021-07-26T08:37:10Z</time>
      </trkpt>
      <trkpt lat="42.9144780" lon="-8.3506700">
        <ele>265.8</ele>
        <time>2021-07-26T08:37:11Z</time>
      </trkpt>
      <trkpt lat="42.9144690" lon="-8.3507010">
        <ele>265.8</ele>
        <time>2021-07-26T08:37:12Z</time>
      </trkpt>
      <trkpt lat="42.9144040" lon="-8.3509320">
        <ele>265.8</ele>
        <time>2021-07-26T08:37:18Z</time>
      </trkpt>
      <trkpt lat="42.9143790" lon="-8.3510120">
        <ele>265.8</ele>
        <time>2021-07-26T08:37:20Z</time>
      </trkpt>
      <trkpt lat="42.9143110" lon="-8.3512380">
        <ele>265.8</ele>
        <time>2021-07-26T08:37:25Z</time>
      </trkpt>
      <trkpt lat="42.9141740" lon="-8.3516630">
        <ele>265.8</ele>
        <time>2021-07-26T08:37:33Z</time>
      </trkpt>
      <trkpt lat="42.9141130" lon="-8.3518320">
        <ele>265.8</ele>
        <time>2021-07-26T08:37:36Z</time>
      </trkpt>
      <trkpt lat="42.9140590" lon="-8.3519320">
        <ele>265.4</ele>
        <time>2021-07-26T08:37:38Z</time>
      </trkpt>
      <trkpt lat="42.9140350" lon="-8.3519880">
        <ele>265.0</ele>
        <time>2021-07-26T08:37:39Z</time>
      </trkpt>
      <trkpt lat="42.9140150" lon="-8.3520430">
        <ele>264.6</ele>
        <time>2021-07-26T08:37:40Z</time>
      </trkpt>
      <trkpt lat="42.9139940" lon="-8.3520990">
        <ele>264.2</ele>
        <time>2021-07-26T08:37:41Z</time>
      </trkpt>
      <trkpt lat="42.9139750" lon="-8.3521560">
        <ele>263.8</ele>
        <time>2021-07-26T08:37:42Z</time>
      </trkpt>
      <trkpt lat="42.9139290" lon="-8.3522790">
        <ele>263.8</ele>
        <time>2021-07-26T08:37:44Z</time>
      </trkpt>
      <trkpt lat="42.9138660" lon="-8.3524400">
        <ele>263.8</ele>
        <time>2021-07-26T08:37:47Z</time>
      </trkpt>
      <trkpt lat="42.9138310" lon="-8.3525400">
        <ele>263.8</ele>
        <time>2021-07-26T08:37:49Z</time>
      </trkpt>
      <trkpt lat="42.9137480" lon="-8.3527300">
        <ele>263.8</ele>
        <time>2021-07-26T08:37:53Z</time>
      </trkpt>
      <trkpt lat="42.9137260" lon="-8.3527630">
        <ele>263.8</ele>
        <time>2021-07-26T08:37:54Z</time>
      </trkpt>
      <trkpt lat="42.9136490" lon="-8.3529640">
        <ele>263.8</ele>
        <time>2021-07-26T08:37:59Z</time>
      </trkpt>
      <trkpt lat="42.9136220" lon="-8.3530010">
        <ele>263.8</ele>
        <time>2021-07-26T08:38:00Z</time>
      </trkpt>
      <trkpt lat="42.9135930" lon="-8.3530430">
        <ele>263.8</ele>
        <time>2021-07-26T08:38:01Z</time>
      </trkpt>
      <trkpt lat="42.9135590" lon="-8.3530810">
        <ele>263.8</ele>
        <time>2021-07-26T08:38:02Z</time>
      </trkpt>
      <trkpt lat="42.9134580" lon="-8.3531870">
        <ele>263.8</ele>
        <time>2021-07-26T08:38:05Z</time>
      </trkpt>
      <trkpt lat="42.9131940" lon="-8.3534600">
        <ele>263.2</ele>
        <time>2021-07-26T08:38:13Z</time>
      </trkpt>
      <trkpt lat="42.9131610" lon="-8.3534950">
        <ele>262.8</ele>
        <time>2021-07-26T08:38:14Z</time>
      </trkpt>
      <trkpt lat="42.9131280" lon="-8.3535290">
        <ele>262.4</ele>
        <time>2021-07-26T08:38:15Z</time>
      </trkpt>
      <trkpt lat="42.9130910" lon="-8.3535700">
        <ele>262.0</ele>
        <time>2021-07-26T08:38:16Z</time>
      </trkpt>
      <trkpt lat="42.9130570" lon="-8.3536160">
        <ele>261.6</ele>
        <time>2021-07-26T08:38:17Z</time>
      </trkpt>
      <trkpt lat="42.9129680" lon="-8.3537610">
        <ele>261.6</ele>
        <time>2021-07-26T08:38:20Z</time>
      </trkpt>
      <trkpt lat="42.9128600" lon="-8.3540860">
        <ele>261.6</ele>
        <time>2021-07-26T08:38:25Z</time>
      </trkpt>
      <trkpt lat="42.9128120" lon="-8.3542420">
        <ele>261.2</ele>
        <time>2021-07-26T08:38:27Z</time>
      </trkpt>
      <trkpt lat="42.9127880" lon="-8.3543280">
        <ele>260.8</ele>
        <time>2021-07-26T08:38:28Z</time>
      </trkpt>
      <trkpt lat="42.9127710" lon="-8.3544070">
        <ele>260.4</ele>
        <time>2021-07-26T08:38:29Z</time>
      </trkpt>
      <trkpt lat="42.9127520" lon="-8.3544880">
        <ele>260.0</ele>
        <time>2021-07-26T08:38:30Z</time>
      </trkpt>
      <trkpt lat="42.9127340" lon="-8.3545670">
        <ele>259.6</ele>
        <time>2021-07-26T08:38:31Z</time>
      </trkpt>
      <trkpt lat="42.9126900" lon="-8.3547230">
        <ele>259.2</ele>
        <time>2021-07-26T08:38:33Z</time>
      </trkpt>
      <trkpt lat="42.9126710" lon="-8.3548000">
        <ele>258.6</ele>
        <time>2021-07-26T08:38:34Z</time>
      </trkpt>
      <trkpt lat="42.9126550" lon="-8.3548810">
        <ele>257.8</ele>
        <time>2021-07-26T08:38:35Z</time>
      </trkpt>
      <trkpt lat="42.9126360" lon="-8.3549620">
        <ele>257.2</ele>
        <time>2021-07-26T08:38:36Z</time>
      </trkpt>
      <trkpt lat="42.9125970" lon="-8.3551140">
        <ele>257.2</ele>
        <time>2021-07-26T08:38:38Z</time>
      </trkpt>
      <trkpt lat="42.9125780" lon="-8.3551850">
        <ele>256.8</ele>
        <time>2021-07-26T08:38:39Z</time>
      </trkpt>
      <trkpt lat="42.9125580" lon="-8.3552580">
        <ele>256.4</ele>
        <time>2021-07-26T08:38:40Z</time>
      </trkpt>
      <trkpt lat="42.9125390" lon="-8.3553280">
        <ele>256.0</ele>
        <time>2021-07-26T08:38:41Z</time>
      </trkpt>
      <trkpt lat="42.9125170" lon="-8.3554040">
        <ele>255.6</ele>
        <time>2021-07-26T08:38:42Z</time>
      </trkpt>
      <trkpt lat="42.9125000" lon="-8.3554910">
        <ele>255.2</ele>
        <time>2021-07-26T08:38:43Z</time>
      </trkpt>
      <trkpt lat="42.9124670" lon="-8.3556810">
        <ele>255.2</ele>
        <time>2021-07-26T08:38:45Z</time>
      </trkpt>
      <trkpt lat="42.9124630" lon="-8.3557930">
        <ele>255.2</ele>
        <time>2021-07-26T08:38:46Z</time>
      </trkpt>
      <trkpt lat="42.9124590" lon="-8.3559030">
        <ele>254.6</ele>
        <time>2021-07-26T08:38:47Z</time>
      </trkpt>
      <trkpt lat="42.9124560" lon="-8.3560160">
        <ele>254.2</ele>
        <time>2021-07-26T08:38:48Z</time>
      </trkpt>
      <trkpt lat="42.9124540" lon="-8.3561330">
        <ele>253.8</ele>
        <time>2021-07-26T08:38:49Z</time>
      </trkpt>
      <trkpt lat="42.9124540" lon="-8.3562550">
        <ele>253.4</ele>
        <time>2021-07-26T08:38:50Z</time>
      </trkpt>
      <trkpt lat="42.9124550" lon="-8.3563750">
        <ele>252.8</ele>
        <time>2021-07-26T08:38:51Z</time>
      </trkpt>
      <trkpt lat="42.9124540" lon="-8.3564920">
        <ele>252.2</ele>
        <time>2021-07-26T08:38:52Z</time>
      </trkpt>
      <trkpt lat="42.9124500" lon="-8.3566100">
        <ele>251.8</ele>
        <time>2021-07-26T08:38:53Z</time>
      </trkpt>
      <trkpt lat="42.9124380" lon="-8.3567270">
        <ele>251.2</ele>
        <time>2021-07-26T08:38:54Z</time>
      </trkpt>
      <trkpt lat="42.9124230" lon="-8.3568380">
        <ele>250.6</ele>
        <time>2021-07-26T08:38:55Z</time>
      </trkpt>
      <trkpt lat="42.9124060" lon="-8.3569420">
        <ele>250.2</ele>
        <time>2021-07-26T08:38:56Z</time>
      </trkpt>
      <trkpt lat="42.9123850" lon="-8.3570410">
        <ele>249.8</ele>
        <time>2021-07-26T08:38:57Z</time>
      </trkpt>
      <trkpt lat="42.9123640" lon="-8.3571310">
        <ele>249.4</ele>
        <time>2021-07-26T08:38:58Z</time>
      </trkpt>
      <trkpt lat="42.9123470" lon="-8.3571990">
        <ele>249.0</ele>
        <time>2021-07-26T08:38:59Z</time>
      </trkpt>
      <trkpt lat="42.9123340" lon="-8.3572570">
        <ele>248.4</ele>
        <time>2021-07-26T08:39:00Z</time>
      </trkpt>
      <trkpt lat="42.9123200" lon="-8.3573290">
        <ele>248.4</ele>
        <time>2021-07-26T08:39:03Z</time>
      </trkpt>
      <trkpt lat="42.9122980" lon="-8.3573580">
        <ele>248.4</ele>
        <time>2021-07-26T08:39:05Z</time>
      </trkpt>
      <trkpt lat="42.9122760" lon="-8.3573880">
        <ele>248.4</ele>
        <time>2021-07-26T08:39:07Z</time>
      </trkpt>
      <trkpt lat="42.9122690" lon="-8.3574040">
        <ele>248.4</ele>
        <time>2021-07-26T08:39:08Z</time>
      </trkpt>
      <trkpt lat="42.9122400" lon="-8.3574420">
        <ele>248.4</ele>
        <time>2021-07-26T08:39:10Z</time>
      </trkpt>
      <trkpt lat="42.9122020" lon="-8.3574730">
        <ele>248.4</ele>
        <time>2021-07-26T08:39:13Z</time>
      </trkpt>
      <trkpt lat="42.9122000" lon="-8.3574800">
        <ele>248.4</ele>
        <time>2021-07-26T08:39:15Z</time>
      </trkpt>
      <trkpt lat="42.9121870" lon="-8.3575120">
        <ele>250.0</ele>
        <time>2021-07-26T08:39:23Z</time>
      </trkpt>
      <trkpt lat="42.9121780" lon="-8.3575310">
        <ele>250.4</ele>
        <time>2021-07-26T08:39:24Z</time>
      </trkpt>
      <trkpt lat="42.9120950" lon="-8.3576050">
        <ele>250.4</ele>
        <time>2021-07-26T08:39:28Z</time>
      </trkpt>
      <trkpt lat="42.9120710" lon="-8.3576260">
        <ele>250.4</ele>
        <time>2021-07-26T08:39:29Z</time>
      </trkpt>
      <trkpt lat="42.9120280" lon="-8.3576760">
        <ele>250.4</ele>
        <time>2021-07-26T08:39:31Z</time>
      </trkpt>
      <trkpt lat="42.9119780" lon="-8.3577520">
        <ele>250.4</ele>
        <time>2021-07-26T08:39:34Z</time>
      </trkpt>
      <trkpt lat="42.9119650" lon="-8.3577780">
        <ele>250.4</ele>
        <time>2021-07-26T08:39:35Z</time>
      </trkpt>
      <trkpt lat="42.9118990" lon="-8.3578830">
        <ele>250.4</ele>
        <time>2021-07-26T08:39:39Z</time>
      </trkpt>
      <trkpt lat="42.9118840" lon="-8.3579070">
        <ele>250.4</ele>
        <time>2021-07-26T08:39:40Z</time>
      </trkpt>
      <trkpt lat="42.9118550" lon="-8.3579520">
        <ele>251.0</ele>
        <time>2021-07-26T08:39:42Z</time>
      </trkpt>
      <trkpt lat="42.9118400" lon="-8.3579780">
        <ele>251.4</ele>
        <time>2021-07-26T08:39:43Z</time>
      </trkpt>
      <trkpt lat="42.9118250" lon="-8.3580020">
        <ele>251.8</ele>
        <time>2021-07-26T08:39:44Z</time>
      </trkpt>
      <trkpt lat="42.9118130" lon="-8.3580280">
        <ele>252.2</ele>
        <time>2021-07-26T08:39:45Z</time>
      </trkpt>
      <trkpt lat="42.9117980" lon="-8.3580540">
        <ele>252.6</ele>
        <time>2021-07-26T08:39:46Z</time>
      </trkpt>
      <trkpt lat="42.9117660" lon="-8.3581020">
        <ele>252.6</ele>
        <time>2021-07-26T08:39:48Z</time>
      </trkpt>
      <trkpt lat="42.9117000" lon="-8.3581940">
        <ele>252.6</ele>
        <time>2021-07-26T08:39:52Z</time>
      </trkpt>
      <trkpt lat="42.9116840" lon="-8.3582150">
        <ele>252.6</ele>
        <time>2021-07-26T08:39:53Z</time>
      </trkpt>
      <trkpt lat="42.9115930" lon="-8.3583490">
        <ele>252.6</ele>
        <time>2021-07-26T08:39:59Z</time>
      </trkpt>
      <trkpt lat="42.9115780" lon="-8.3583720">
        <ele>253.0</ele>
        <time>2021-07-26T08:40:00Z</time>
      </trkpt>
      <trkpt lat="42.9115640" lon="-8.3583970">
        <ele>253.4</ele>
        <time>2021-07-26T08:40:01Z</time>
      </trkpt>
      <trkpt lat="42.9115540" lon="-8.3584250">
        <ele>253.8</ele>
        <time>2021-07-26T08:40:02Z</time>
      </trkpt>
      <trkpt lat="42.9115430" lon="-8.3584530">
        <ele>254.2</ele>
        <time>2021-07-26T08:40:03Z</time>
      </trkpt>
      <trkpt lat="42.9115280" lon="-8.3584810">
        <ele>254.6</ele>
        <time>2021-07-26T08:40:04Z</time>
      </trkpt>
      <trkpt lat="42.9114940" lon="-8.3585300">
        <ele>254.6</ele>
        <time>2021-07-26T08:40:06Z</time>
      </trkpt>
      <trkpt lat="42.9113770" lon="-8.3587110">
        <ele>254.6</ele>
        <time>2021-07-26T08:40:12Z</time>
      </trkpt>
      <trkpt lat="42.9112500" lon="-8.3589100">
        <ele>254.6</ele>
        <time>2021-07-26T08:40:19Z</time>
      </trkpt>
      <trkpt lat="42.9111990" lon="-8.3590290">
        <ele>255.0</ele>
        <time>2021-07-26T08:40:23Z</time>
      </trkpt>
      <trkpt lat="42.9111840" lon="-8.3590580">
        <ele>255.4</ele>
        <time>2021-07-26T08:40:24Z</time>
      </trkpt>
      <trkpt lat="42.9111690" lon="-8.3590830">
        <ele>255.8</ele>
        <time>2021-07-26T08:40:25Z</time>
      </trkpt>
      <trkpt lat="42.9111550" lon="-8.3591070">
        <ele>256.4</ele>
        <time>2021-07-26T08:40:26Z</time>
      </trkpt>
      <trkpt lat="42.9111410" lon="-8.3591310">
        <ele>256.8</ele>
        <time>2021-07-26T08:40:27Z</time>
      </trkpt>
      <trkpt lat="42.9110930" lon="-8.3592390">
        <ele>256.8</ele>
        <time>2021-07-26T08:40:31Z</time>
      </trkpt>
      <trkpt lat="42.9109980" lon="-8.3594010">
        <ele>256.8</ele>
        <time>2021-07-26T08:40:37Z</time>
      </trkpt>
      <trkpt lat="42.9108900" lon="-8.3595740">
        <ele>256.8</ele>
        <time>2021-07-26T08:40:44Z</time>
      </trkpt>
      <trkpt lat="42.9108590" lon="-8.3596300">
        <ele>257.2</ele>
        <time>2021-07-26T08:40:46Z</time>
      </trkpt>
      <trkpt lat="42.9108420" lon="-8.3596580">
        <ele>257.6</ele>
        <time>2021-07-26T08:40:47Z</time>
      </trkpt>
      <trkpt lat="42.9108220" lon="-8.3596850">
        <ele>258.0</ele>
        <time>2021-07-26T08:40:48Z</time>
      </trkpt>
      <trkpt lat="42.9108040" lon="-8.3597130">
        <ele>258.4</ele>
        <time>2021-07-26T08:40:49Z</time>
      </trkpt>
      <trkpt lat="42.9107880" lon="-8.3597380">
        <ele>258.8</ele>
        <time>2021-07-26T08:40:50Z</time>
      </trkpt>
      <trkpt lat="42.9106850" lon="-8.3599080">
        <ele>258.8</ele>
        <time>2021-07-26T08:40:56Z</time>
      </trkpt>
      <trkpt lat="42.9105800" lon="-8.3600670">
        <ele>258.8</ele>
        <time>2021-07-26T08:41:02Z</time>
      </trkpt>
      <trkpt lat="42.9104880" lon="-8.3602660">
        <ele>259.2</ele>
        <time>2021-07-26T08:41:08Z</time>
      </trkpt>
      <trkpt lat="42.9104770" lon="-8.3603010">
        <ele>259.6</ele>
        <time>2021-07-26T08:41:09Z</time>
      </trkpt>
      <trkpt lat="42.9104640" lon="-8.3603350">
        <ele>260.0</ele>
        <time>2021-07-26T08:41:10Z</time>
      </trkpt>
      <trkpt lat="42.9104550" lon="-8.3603630">
        <ele>260.4</ele>
        <time>2021-07-26T08:41:11Z</time>
      </trkpt>
      <trkpt lat="42.9104430" lon="-8.3603950">
        <ele>260.8</ele>
        <time>2021-07-26T08:41:12Z</time>
      </trkpt>
      <trkpt lat="42.9104120" lon="-8.3604980">
        <ele>260.8</ele>
        <time>2021-07-26T08:41:16Z</time>
      </trkpt>
      <trkpt lat="42.9103560" lon="-8.3606690">
        <ele>260.8</ele>
        <time>2021-07-26T08:41:22Z</time>
      </trkpt>
      <trkpt lat="42.9103310" lon="-8.3607100">
        <ele>261.2</ele>
        <time>2021-07-26T08:41:23Z</time>
      </trkpt>
      <trkpt lat="42.9103160" lon="-8.3607450">
        <ele>261.6</ele>
        <time>2021-07-26T08:41:24Z</time>
      </trkpt>
      <trkpt lat="42.9102930" lon="-8.3607860">
        <ele>262.0</ele>
        <time>2021-07-26T08:41:25Z</time>
      </trkpt>
      <trkpt lat="42.9102770" lon="-8.3608200">
        <ele>262.4</ele>
        <time>2021-07-26T08:41:26Z</time>
      </trkpt>
      <trkpt lat="42.9102630" lon="-8.3608500">
        <ele>262.8</ele>
        <time>2021-07-26T08:41:27Z</time>
      </trkpt>
      <trkpt lat="42.9102040" lon="-8.3609500">
        <ele>262.8</ele>
        <time>2021-07-26T08:41:30Z</time>
      </trkpt>
      <trkpt lat="42.9101310" lon="-8.3610890">
        <ele>262.8</ele>
        <time>2021-07-26T08:41:36Z</time>
      </trkpt>
      <trkpt lat="42.9100840" lon="-8.3612090">
        <ele>263.2</ele>
        <time>2021-07-26T08:41:41Z</time>
      </trkpt>
      <trkpt lat="42.9100790" lon="-8.3612330">
        <ele>263.6</ele>
        <time>2021-07-26T08:41:42Z</time>
      </trkpt>
      <trkpt lat="42.9100730" lon="-8.3612550">
        <ele>264.0</ele>
        <time>2021-07-26T08:41:43Z</time>
      </trkpt>
      <trkpt lat="42.9100650" lon="-8.3612790">
        <ele>264.6</ele>
        <time>2021-07-26T08:41:44Z</time>
      </trkpt>
      <trkpt lat="42.9100580" lon="-8.3613030">
        <ele>265.0</ele>
        <time>2021-07-26T08:41:45Z</time>
      </trkpt>
      <trkpt lat="42.9100320" lon="-8.3613940">
        <ele>265.0</ele>
        <time>2021-07-26T08:41:49Z</time>
      </trkpt>
      <trkpt lat="42.9100180" lon="-8.3614510">
        <ele>265.4</ele>
        <time>2021-07-26T08:41:52Z</time>
      </trkpt>
      <trkpt lat="42.9100140" lon="-8.3614710">
        <ele>265.8</ele>
        <time>2021-07-26T08:41:53Z</time>
      </trkpt>
      <trkpt lat="42.9100080" lon="-8.3614930">
        <ele>266.2</ele>
        <time>2021-07-26T08:41:54Z</time>
      </trkpt>
      <trkpt lat="42.9100010" lon="-8.3615150">
        <ele>266.6</ele>
        <time>2021-07-26T08:41:55Z</time>
      </trkpt>
      <trkpt lat="42.9099980" lon="-8.3615360">
        <ele>267.0</ele>
        <time>2021-07-26T08:41:56Z</time>
      </trkpt>
      <trkpt lat="42.9099720" lon="-8.3617190">
        <ele>267.0</ele>
        <time>2021-07-26T08:42:03Z</time>
      </trkpt>
      <trkpt lat="42.9099550" lon="-8.3617840">
        <ele>267.4</ele>
        <time>2021-07-26T08:42:06Z</time>
      </trkpt>
      <trkpt lat="42.9099470" lon="-8.3618040">
        <ele>267.8</ele>
        <time>2021-07-26T08:42:07Z</time>
      </trkpt>
      <trkpt lat="42.9099410" lon="-8.3618180">
        <ele>268.2</ele>
        <time>2021-07-26T08:42:08Z</time>
      </trkpt>
      <trkpt lat="42.9099360" lon="-8.3618350">
        <ele>268.6</ele>
        <time>2021-07-26T08:42:09Z</time>
      </trkpt>
      <trkpt lat="42.9099290" lon="-8.3618510">
        <ele>269.2</ele>
        <time>2021-07-26T08:42:10Z</time>
      </trkpt>
      <trkpt lat="42.9098980" lon="-8.3619470">
        <ele>269.2</ele>
        <time>2021-07-26T08:42:15Z</time>
      </trkpt>
      <trkpt lat="42.9098850" lon="-8.3620720">
        <ele>269.2</ele>
        <time>2021-07-26T08:42:20Z</time>
      </trkpt>
      <trkpt lat="42.9098630" lon="-8.3621310">
        <ele>269.6</ele>
        <time>2021-07-26T08:42:23Z</time>
      </trkpt>
      <trkpt lat="42.9098600" lon="-8.3621540">
        <ele>270.0</ele>
        <time>2021-07-26T08:42:24Z</time>
      </trkpt>
      <trkpt lat="42.9098540" lon="-8.3621690">
        <ele>270.4</ele>
        <time>2021-07-26T08:42:25Z</time>
      </trkpt>
      <trkpt lat="42.9098470" lon="-8.3621870">
        <ele>270.8</ele>
        <time>2021-07-26T08:42:26Z</time>
      </trkpt>
      <trkpt lat="42.9098370" lon="-8.3622080">
        <ele>271.2</ele>
        <time>2021-07-26T08:42:27Z</time>
      </trkpt>
      <trkpt lat="42.9097900" lon="-8.3623750">
        <ele>271.2</ele>
        <time>2021-07-26T08:42:33Z</time>
      </trkpt>
      <trkpt lat="42.9097630" lon="-8.3624620">
        <ele>271.6</ele>
        <time>2021-07-26T08:42:37Z</time>
      </trkpt>
      <trkpt lat="42.9097540" lon="-8.3624840">
        <ele>272.0</ele>
        <time>2021-07-26T08:42:38Z</time>
      </trkpt>
      <trkpt lat="42.9097450" lon="-8.3625090">
        <ele>272.4</ele>
        <time>2021-07-26T08:42:39Z</time>
      </trkpt>
      <trkpt lat="42.9097390" lon="-8.3625280">
        <ele>272.8</ele>
        <time>2021-07-26T08:42:40Z</time>
      </trkpt>
      <trkpt lat="42.9097330" lon="-8.3625460">
        <ele>273.2</ele>
        <time>2021-07-26T08:42:41Z</time>
      </trkpt>
      <trkpt lat="42.9097120" lon="-8.3626240">
        <ele>273.2</ele>
        <time>2021-07-26T08:42:45Z</time>
      </trkpt>
      <trkpt lat="42.9096490" lon="-8.3627690">
        <ele>273.2</ele>
        <time>2021-07-26T08:42:52Z</time>
      </trkpt>
      <trkpt lat="42.9096110" lon="-8.3628720">
        <ele>273.6</ele>
        <time>2021-07-26T08:42:57Z</time>
      </trkpt>
      <trkpt lat="42.9096030" lon="-8.3628930">
        <ele>274.0</ele>
        <time>2021-07-26T08:42:58Z</time>
      </trkpt>
      <trkpt lat="42.9095960" lon="-8.3629160">
        <ele>274.4</ele>
        <time>2021-07-26T08:42:59Z</time>
      </trkpt>
      <trkpt lat="42.9095910" lon="-8.3629370">
        <ele>274.8</ele>
        <time>2021-07-26T08:43:00Z</time>
      </trkpt>
      <trkpt lat="42.9095840" lon="-8.3629540">
        <ele>275.2</ele>
        <time>2021-07-26T08:43:01Z</time>
      </trkpt>
      <trkpt lat="42.9095350" lon="-8.3630430">
        <ele>275.2</ele>
        <time>2021-07-26T08:43:05Z</time>
      </trkpt>
      <trkpt lat="42.9094370" lon="-8.3631930">
        <ele>275.2</ele>
        <time>2021-07-26T08:43:12Z</time>
      </trkpt>
      <trkpt lat="42.9093260" lon="-8.3633270">
        <ele>275.2</ele>
        <time>2021-07-26T08:43:19Z</time>
      </trkpt>
      <trkpt lat="42.9093120" lon="-8.3633450">
        <ele>275.6</ele>
        <time>2021-07-26T08:43:20Z</time>
      </trkpt>
      <trkpt lat="42.9092950" lon="-8.3633640">
        <ele>276.0</ele>
        <time>2021-07-26T08:43:21Z</time>
      </trkpt>
      <trkpt lat="42.9092830" lon="-8.3633810">
        <ele>276.4</ele>
        <time>2021-07-26T08:43:22Z</time>
      </trkpt>
      <trkpt lat="42.9092760" lon="-8.3633990">
        <ele>276.8</ele>
        <time>2021-07-26T08:43:23Z</time>
      </trkpt>
      <trkpt lat="42.9092660" lon="-8.3634240">
        <ele>277.2</ele>
        <time>2021-07-26T08:43:24Z</time>
      </trkpt>
      <trkpt lat="42.9092540" lon="-8.3634580">
        <ele>277.2</ele>
        <time>2021-07-26T08:43:25Z</time>
      </trkpt>
      <trkpt lat="42.9091930" lon="-8.3635530">
        <ele>277.2</ele>
        <time>2021-07-26T08:43:29Z</time>
      </trkpt>
      <trkpt lat="42.9091720" lon="-8.3635640">
        <ele>277.2</ele>
        <time>2021-07-26T08:43:30Z</time>
      </trkpt>
      <trkpt lat="42.9090170" lon="-8.3635700">
        <ele>277.2</ele>
        <time>2021-07-26T08:43:35Z</time>
      </trkpt>
      <trkpt lat="42.9089910" lon="-8.3635610">
        <ele>277.2</ele>
        <time>2021-07-26T08:43:36Z</time>
      </trkpt>
      <trkpt lat="42.9089310" lon="-8.3635230">
        <ele>277.6</ele>
        <time>2021-07-26T08:43:38Z</time>
      </trkpt>
      <trkpt lat="42.9088960" lon="-8.3635120">
        <ele>278.0</ele>
        <time>2021-07-26T08:43:39Z</time>
      </trkpt>
      <trkpt lat="42.9088620" lon="-8.3635120">
        <ele>278.4</ele>
        <time>2021-07-26T08:43:40Z</time>
      </trkpt>
      <trkpt lat="42.9088340" lon="-8.3634950">
        <ele>278.8</ele>
        <time>2021-07-26T08:43:41Z</time>
      </trkpt>
      <trkpt lat="42.9088080" lon="-8.3634800">
        <ele>279.2</ele>
        <time>2021-07-26T08:43:42Z</time>
      </trkpt>
      <trkpt lat="42.9087560" lon="-8.3634150">
        <ele>279.2</ele>
        <time>2021-07-26T08:43:47Z</time>
      </trkpt>
      <trkpt lat="42.9086690" lon="-8.3632700">
        <ele>279.8</ele>
        <time>2021-07-26T08:43:53Z</time>
      </trkpt>
      <trkpt lat="42.9086540" lon="-8.3632520">
        <ele>280.2</ele>
        <time>2021-07-26T08:43:54Z</time>
      </trkpt>
      <trkpt lat="42.9086380" lon="-8.3632460">
        <ele>280.6</ele>
        <time>2021-07-26T08:43:55Z</time>
      </trkpt>
      <trkpt lat="42.9086180" lon="-8.3632400">
        <ele>281.0</ele>
        <time>2021-07-26T08:43:56Z</time>
      </trkpt>
      <trkpt lat="42.9085980" lon="-8.3632410">
        <ele>281.4</ele>
        <time>2021-07-26T08:43:57Z</time>
      </trkpt>
      <trkpt lat="42.9085500" lon="-8.3632520">
        <ele>281.4</ele>
        <time>2021-07-26T08:43:59Z</time>
      </trkpt>
      <trkpt lat="42.9084410" lon="-8.3632770">
        <ele>281.4</ele>
        <time>2021-07-26T08:44:03Z</time>
      </trkpt>
      <trkpt lat="42.9082940" lon="-8.3633290">
        <ele>281.4</ele>
        <time>2021-07-26T08:44:09Z</time>
      </trkpt>
      <trkpt lat="42.9082140" lon="-8.3633460">
        <ele>281.4</ele>
        <time>2021-07-26T08:44:12Z</time>
      </trkpt>
      <trkpt lat="42.9080810" lon="-8.3633960">
        <ele>281.4</ele>
        <time>2021-07-26T08:44:17Z</time>
      </trkpt>
      <trkpt lat="42.9079660" lon="-8.3634370">
        <ele>281.4</ele>
        <time>2021-07-26T08:44:21Z</time>
      </trkpt>
      <trkpt lat="42.9079120" lon="-8.3634600">
        <ele>281.4</ele>
        <time>2021-07-26T08:44:23Z</time>
      </trkpt>
      <trkpt lat="42.9078860" lon="-8.3634740">
        <ele>281.4</ele>
        <time>2021-07-26T08:44:24Z</time>
      </trkpt>
      <trkpt lat="42.9078110" lon="-8.3635060">
        <ele>281.4</ele>
        <time>2021-07-26T08:44:27Z</time>
      </trkpt>
      <trkpt lat="42.9077640" lon="-8.3635280">
        <ele>281.4</ele>
        <time>2021-07-26T08:44:29Z</time>
      </trkpt>
      <trkpt lat="42.9076850" lon="-8.3635750">
        <ele>281.4</ele>
        <time>2021-07-26T08:44:32Z</time>
      </trkpt>
      <trkpt lat="42.9076540" lon="-8.3635930">
        <ele>281.4</ele>
        <time>2021-07-26T08:44:33Z</time>
      </trkpt>
      <trkpt lat="42.9075940" lon="-8.3636340">
        <ele>281.4</ele>
        <time>2021-07-26T08:44:35Z</time>
      </trkpt>
      <trkpt lat="42.9074940" lon="-8.3637180">
        <ele>281.4</ele>
        <time>2021-07-26T08:44:38Z</time>
      </trkpt>
      <trkpt lat="42.9074350" lon="-8.3637880">
        <ele>281.4</ele>
        <time>2021-07-26T08:44:40Z</time>
      </trkpt>
      <trkpt lat="42.9073160" lon="-8.3639430">
        <ele>281.4</ele>
        <time>2021-07-26T08:44:44Z</time>
      </trkpt>
      <trkpt lat="42.9072910" lon="-8.3639770">
        <ele>281.4</ele>
        <time>2021-07-26T08:44:45Z</time>
      </trkpt>
      <trkpt lat="42.9072790" lon="-8.3640110">
        <ele>281.4</ele>
        <time>2021-07-26T08:44:46Z</time>
      </trkpt>
      <trkpt lat="42.9072950" lon="-8.3640630">
        <ele>281.4</ele>
        <time>2021-07-26T08:44:48Z</time>
      </trkpt>
      <trkpt lat="42.9073590" lon="-8.3641320">
        <ele>281.4</ele>
        <time>2021-07-26T08:44:51Z</time>
      </trkpt>
      <trkpt lat="42.9073890" lon="-8.3641650">
        <ele>281.4</ele>
        <time>2021-07-26T08:44:52Z</time>
      </trkpt>
      <trkpt lat="42.9074440" lon="-8.3642330">
        <ele>281.4</ele>
        <time>2021-07-26T08:44:54Z</time>
      </trkpt>
      <trkpt lat="42.9075580" lon="-8.3644130">
        <ele>281.4</ele>
        <time>2021-07-26T08:44:59Z</time>
      </trkpt>
      <trkpt lat="42.9076250" lon="-8.3645110">
        <ele>281.0</ele>
        <time>2021-07-26T08:45:02Z</time>
      </trkpt>
      <trkpt lat="42.9076460" lon="-8.3645440">
        <ele>280.6</ele>
        <time>2021-07-26T08:45:03Z</time>
      </trkpt>
      <trkpt lat="42.9076690" lon="-8.3645790">
        <ele>279.8</ele>
        <time>2021-07-26T08:45:04Z</time>
      </trkpt>
      <trkpt lat="42.9076890" lon="-8.3646160">
        <ele>279.4</ele>
        <time>2021-07-26T08:45:05Z</time>
      </trkpt>
      <trkpt lat="42.9077790" lon="-8.3647650">
        <ele>279.4</ele>
        <time>2021-07-26T08:45:09Z</time>
      </trkpt>
      <trkpt lat="42.9078600" lon="-8.3648790">
        <ele>279.4</ele>
        <time>2021-07-26T08:45:12Z</time>
      </trkpt>
      <trkpt lat="42.9079490" lon="-8.3650040">
        <ele>279.4</ele>
        <time>2021-07-26T08:45:15Z</time>
      </trkpt>
      <trkpt lat="42.9080550" lon="-8.3651640">
        <ele>279.4</ele>
        <time>2021-07-26T08:45:19Z</time>
      </trkpt>
      <trkpt lat="42.9081090" lon="-8.3652410">
        <ele>279.4</ele>
        <time>2021-07-26T08:45:21Z</time>
      </trkpt>
      <trkpt lat="42.9082290" lon="-8.3653720">
        <ele>279.4</ele>
        <time>2021-07-26T08:45:26Z</time>
      </trkpt>
      <trkpt lat="42.9083480" lon="-8.3655160">
        <ele>279.4</ele>
        <time>2021-07-26T08:45:32Z</time>
      </trkpt>
      <trkpt lat="42.9083590" lon="-8.3656940">
        <ele>279.4</ele>
        <time>2021-07-26T08:45:38Z</time>
      </trkpt>
      <trkpt lat="42.9083060" lon="-8.3658330">
        <ele>279.4</ele>
        <time>2021-07-26T08:45:42Z</time>
      </trkpt>
      <trkpt lat="42.9082710" lon="-8.3659110">
        <ele>279.4</ele>
        <time>2021-07-26T08:45:44Z</time>
      </trkpt>
      <trkpt lat="42.9081550" lon="-8.3661670">
        <ele>279.4</ele>
        <time>2021-07-26T08:45:50Z</time>
      </trkpt>
      <trkpt lat="42.9080880" lon="-8.3664840">
        <ele>279.4</ele>
        <time>2021-07-26T08:45:57Z</time>
      </trkpt>
      <trkpt lat="42.9079850" lon="-8.3667560">
        <ele>279.4</ele>
        <time>2021-07-26T08:46:03Z</time>
      </trkpt>
      <trkpt lat="42.9079670" lon="-8.3667970">
        <ele>279.4</ele>
        <time>2021-07-26T08:46:04Z</time>
      </trkpt>
      <trkpt lat="42.9079240" lon="-8.3669050">
        <ele>279.4</ele>
        <time>2021-07-26T08:46:07Z</time>
      </trkpt>
      <trkpt lat="42.9078790" lon="-8.3670140">
        <ele>279.4</ele>
        <time>2021-07-26T08:46:10Z</time>
      </trkpt>
      <trkpt lat="42.9078630" lon="-8.3670450">
        <ele>279.4</ele>
        <time>2021-07-26T08:46:11Z</time>
      </trkpt>
      <trkpt lat="42.9078420" lon="-8.3670930">
        <ele>279.4</ele>
        <time>2021-07-26T08:46:13Z</time>
      </trkpt>
      <trkpt lat="42.9078400" lon="-8.3671180">
        <ele>279.4</ele>
        <time>2021-07-26T08:46:14Z</time>
      </trkpt>
      <trkpt lat="42.9078270" lon="-8.3671790">
        <ele>279.4</ele>
        <time>2021-07-26T08:46:16Z</time>
      </trkpt>
      <trkpt lat="42.9077720" lon="-8.3673020">
        <ele>279.4</ele>
        <time>2021-07-26T08:46:19Z</time>
      </trkpt>
      <trkpt lat="42.9077360" lon="-8.3673860">
        <ele>279.4</ele>
        <time>2021-07-26T08:46:21Z</time>
      </trkpt>
      <trkpt lat="42.9076530" lon="-8.3675970">
        <ele>279.4</ele>
        <time>2021-07-26T08:46:26Z</time>
      </trkpt>
      <trkpt lat="42.9075970" lon="-8.3677280">
        <ele>279.4</ele>
        <time>2021-07-26T08:46:29Z</time>
      </trkpt>
      <trkpt lat="42.9074660" lon="-8.3680290">
        <ele>279.4</ele>
        <time>2021-07-26T08:46:35Z</time>
      </trkpt>
      <trkpt lat="42.9073390" lon="-8.3683590">
        <ele>279.0</ele>
        <time>2021-07-26T08:46:40Z</time>
      </trkpt>
      <trkpt lat="42.9073160" lon="-8.3684270">
        <ele>278.6</ele>
        <time>2021-07-26T08:46:41Z</time>
      </trkpt>
      <trkpt lat="42.9072960" lon="-8.3684980">
        <ele>278.2</ele>
        <time>2021-07-26T08:46:42Z</time>
      </trkpt>
      <trkpt lat="42.9072780" lon="-8.3685680">
        <ele>277.2</ele>
        <time>2021-07-26T08:46:43Z</time>
      </trkpt>
      <trkpt lat="42.9072290" lon="-8.3688180">
        <ele>277.2</ele>
        <time>2021-07-26T08:46:47Z</time>
      </trkpt>
      <trkpt lat="42.9071450" lon="-8.3690900">
        <ele>277.2</ele>
        <time>2021-07-26T08:46:53Z</time>
      </trkpt>
      <trkpt lat="42.9070010" lon="-8.3693370">
        <ele>277.2</ele>
        <time>2021-07-26T08:46:59Z</time>
      </trkpt>
      <trkpt lat="42.9069420" lon="-8.3694950">
        <ele>277.2</ele>
        <time>2021-07-26T08:47:02Z</time>
      </trkpt>
      <trkpt lat="42.9069020" lon="-8.3696230">
        <ele>276.8</ele>
        <time>2021-07-26T08:47:04Z</time>
      </trkpt>
      <trkpt lat="42.9068830" lon="-8.3696840">
        <ele>276.4</ele>
        <time>2021-07-26T08:47:05Z</time>
      </trkpt>
      <trkpt lat="42.9068620" lon="-8.3697350">
        <ele>276.0</ele>
        <time>2021-07-26T08:47:06Z</time>
      </trkpt>
      <trkpt lat="42.9068420" lon="-8.3697870">
        <ele>275.2</ele>
        <time>2021-07-26T08:47:07Z</time>
      </trkpt>
      <trkpt lat="42.9068050" lon="-8.3698940">
        <ele>274.8</ele>
        <time>2021-07-26T08:47:09Z</time>
      </trkpt>
      <trkpt lat="42.9067870" lon="-8.3699390">
        <ele>274.2</ele>
        <time>2021-07-26T08:47:10Z</time>
      </trkpt>
      <trkpt lat="42.9067700" lon="-8.3699820">
        <ele>273.8</ele>
        <time>2021-07-26T08:47:11Z</time>
      </trkpt>
      <trkpt lat="42.9067550" lon="-8.3700230">
        <ele>273.4</ele>
        <time>2021-07-26T08:47:12Z</time>
      </trkpt>
      <trkpt lat="42.9067380" lon="-8.3700640">
        <ele>273.0</ele>
        <time>2021-07-26T08:47:13Z</time>
      </trkpt>
      <trkpt lat="42.9066720" lon="-8.3701760">
        <ele>272.6</ele>
        <time>2021-07-26T08:47:16Z</time>
      </trkpt>
      <trkpt lat="42.9066440" lon="-8.3702070">
        <ele>272.2</ele>
        <time>2021-07-26T08:47:17Z</time>
      </trkpt>
      <trkpt lat="42.9066160" lon="-8.3702270">
        <ele>271.6</ele>
        <time>2021-07-26T08:47:18Z</time>
      </trkpt>
      <trkpt lat="42.9065840" lon="-8.3702380">
        <ele>271.2</ele>
        <time>2021-07-26T08:47:19Z</time>
      </trkpt>
      <trkpt lat="42.9065480" lon="-8.3702580">
        <ele>270.8</ele>
        <time>2021-07-26T08:47:20Z</time>
      </trkpt>
      <trkpt lat="42.9064140" lon="-8.3703410">
        <ele>270.4</ele>
        <time>2021-07-26T08:47:24Z</time>
      </trkpt>
      <trkpt lat="42.9063910" lon="-8.3703900">
        <ele>269.8</ele>
        <time>2021-07-26T08:47:25Z</time>
      </trkpt>
      <trkpt lat="42.9063750" lon="-8.3704600">
        <ele>269.4</ele>
        <time>2021-07-26T08:47:26Z</time>
      </trkpt>
      <trkpt lat="42.9063710" lon="-8.3705220">
        <ele>269.0</ele>
        <time>2021-07-26T08:47:27Z</time>
      </trkpt>
      <trkpt lat="42.9063790" lon="-8.3705820">
        <ele>268.6</ele>
        <time>2021-07-26T08:47:28Z</time>
      </trkpt>
      <trkpt lat="42.9064370" lon="-8.3707340">
        <ele>268.6</ele>
        <time>2021-07-26T08:47:31Z</time>
      </trkpt>
      <trkpt lat="42.9064570" lon="-8.3707840">
        <ele>268.6</ele>
        <time>2021-07-26T08:47:32Z</time>
      </trkpt>
      <trkpt lat="42.9064770" lon="-8.3708230">
        <ele>268.0</ele>
        <time>2021-07-26T08:47:33Z</time>
      </trkpt>
      <trkpt lat="42.9064920" lon="-8.3708620">
        <ele>267.6</ele>
        <time>2021-07-26T08:47:34Z</time>
      </trkpt>
      <trkpt lat="42.9065030" lon="-8.3709030">
        <ele>267.2</ele>
        <time>2021-07-26T08:47:35Z</time>
      </trkpt>
      <trkpt lat="42.9065030" lon="-8.3709480">
        <ele>266.8</ele>
        <time>2021-07-26T08:47:36Z</time>
      </trkpt>
      <trkpt lat="42.9064950" lon="-8.3709930">
        <ele>266.2</ele>
        <time>2021-07-26T08:47:37Z</time>
      </trkpt>
      <trkpt lat="42.9064250" lon="-8.3711210">
        <ele>266.2</ele>
        <time>2021-07-26T08:47:40Z</time>
      </trkpt>
      <trkpt lat="42.9063940" lon="-8.3711550">
        <ele>266.2</ele>
        <time>2021-07-26T08:47:41Z</time>
      </trkpt>
      <trkpt lat="42.9063660" lon="-8.3711850">
        <ele>265.8</ele>
        <time>2021-07-26T08:47:42Z</time>
      </trkpt>
      <trkpt lat="42.9063300" lon="-8.3712160">
        <ele>265.2</ele>
        <time>2021-07-26T08:47:43Z</time>
      </trkpt>
      <trkpt lat="42.9063010" lon="-8.3712450">
        <ele>264.8</ele>
        <time>2021-07-26T08:47:44Z</time>
      </trkpt>
      <trkpt lat="42.9062770" lon="-8.3712670">
        <ele>264.2</ele>
        <time>2021-07-26T08:47:45Z</time>
      </trkpt>
      <trkpt lat="42.9062530" lon="-8.3712860">
        <ele>263.6</ele>
        <time>2021-07-26T08:47:46Z</time>
      </trkpt>
      <trkpt lat="42.9062320" lon="-8.3713000">
        <ele>263.2</ele>
        <time>2021-07-26T08:47:47Z</time>
      </trkpt>
      <trkpt lat="42.9062180" lon="-8.3713130">
        <ele>262.6</ele>
        <time>2021-07-26T08:47:48Z</time>
      </trkpt>
      <trkpt lat="42.9062110" lon="-8.3713250">
        <ele>262.2</ele>
        <time>2021-07-26T08:47:49Z</time>
      </trkpt>
      <trkpt lat="42.9062020" lon="-8.3713400">
        <ele>261.6</ele>
        <time>2021-07-26T08:47:50Z</time>
      </trkpt>
      <trkpt lat="42.9061470" lon="-8.3714610">
        <ele>261.6</ele>
        <time>2021-07-26T08:47:56Z</time>
      </trkpt>
      <trkpt lat="42.9060800" lon="-8.3715420">
        <ele>261.6</ele>
        <time>2021-07-26T08:47:59Z</time>
      </trkpt>
      <trkpt lat="42.9060140" lon="-8.3716090">
        <ele>261.6</ele>
        <time>2021-07-26T08:48:01Z</time>
      </trkpt>
      <trkpt lat="42.9059340" lon="-8.3716770">
        <ele>261.6</ele>
        <time>2021-07-26T08:48:03Z</time>
      </trkpt>
      <trkpt lat="42.9058270" lon="-8.3717750">
        <ele>261.6</ele>
        <time>2021-07-26T08:48:06Z</time>
      </trkpt>
      <trkpt lat="42.9057850" lon="-8.3719520">
        <ele>261.6</ele>
        <time>2021-07-26T08:48:10Z</time>
      </trkpt>
      <trkpt lat="42.9058060" lon="-8.3720350">
        <ele>261.6</ele>
        <time>2021-07-26T08:48:12Z</time>
      </trkpt>
      <trkpt lat="42.9058400" lon="-8.3721010">
        <ele>261.6</ele>
        <time>2021-07-26T08:48:14Z</time>
      </trkpt>
      <trkpt lat="42.9058760" lon="-8.3721790">
        <ele>261.6</ele>
        <time>2021-07-26T08:48:16Z</time>
      </trkpt>
      <trkpt lat="42.9059170" lon="-8.3722580">
        <ele>261.6</ele>
        <time>2021-07-26T08:48:18Z</time>
      </trkpt>
      <trkpt lat="42.9059700" lon="-8.3723280">
        <ele>261.6</ele>
        <time>2021-07-26T08:48:20Z</time>
      </trkpt>
      <trkpt lat="42.9060300" lon="-8.3724000">
        <ele>261.6</ele>
        <time>2021-07-26T08:48:22Z</time>
      </trkpt>
      <trkpt lat="42.9061060" lon="-8.3725580">
        <ele>261.6</ele>
        <time>2021-07-26T08:48:26Z</time>
      </trkpt>
      <trkpt lat="42.9060900" lon="-8.3727210">
        <ele>261.6</ele>
        <time>2021-07-26T08:48:30Z</time>
      </trkpt>
      <trkpt lat="42.9060810" lon="-8.3728230">
        <ele>261.6</ele>
        <time>2021-07-26T08:48:32Z</time>
      </trkpt>
      <trkpt lat="42.9060570" lon="-8.3730490">
        <ele>261.6</ele>
        <time>2021-07-26T08:48:36Z</time>
      </trkpt>
      <trkpt lat="42.9060390" lon="-8.3731040">
        <ele>261.6</ele>
        <time>2021-07-26T08:48:37Z</time>
      </trkpt>
      <trkpt lat="42.9059900" lon="-8.3732400">
        <ele>261.6</ele>
        <time>2021-07-26T08:48:40Z</time>
      </trkpt>
      <trkpt lat="42.9059420" lon="-8.3733590">
        <ele>261.6</ele>
        <time>2021-07-26T08:48:43Z</time>
      </trkpt>
      <trkpt lat="42.9058930" lon="-8.3735540">
        <ele>261.6</ele>
        <time>2021-07-26T08:48:48Z</time>
      </trkpt>
      <trkpt lat="42.9058230" lon="-8.3737280">
        <ele>261.6</ele>
        <time>2021-07-26T08:48:52Z</time>
      </trkpt>
      <trkpt lat="42.9057210" lon="-8.3739560">
        <ele>261.6</ele>
        <time>2021-07-26T08:48:58Z</time>
      </trkpt>
      <trkpt lat="42.9056940" lon="-8.3740200">
        <ele>262.0</ele>
        <time>2021-07-26T08:49:00Z</time>
      </trkpt>
      <trkpt lat="42.9056870" lon="-8.3740640">
        <ele>262.4</ele>
        <time>2021-07-26T08:49:01Z</time>
      </trkpt>
      <trkpt lat="42.9056740" lon="-8.3741120">
        <ele>262.8</ele>
        <time>2021-07-26T08:49:02Z</time>
      </trkpt>
      <trkpt lat="42.9056610" lon="-8.3741540">
        <ele>263.2</ele>
        <time>2021-07-26T08:49:03Z</time>
      </trkpt>
      <trkpt lat="42.9056470" lon="-8.3741960">
        <ele>263.6</ele>
        <time>2021-07-26T08:49:04Z</time>
      </trkpt>
      <trkpt lat="42.9056310" lon="-8.3742360">
        <ele>263.6</ele>
        <time>2021-07-26T08:49:05Z</time>
      </trkpt>
      <trkpt lat="42.9055170" lon="-8.3744460">
        <ele>263.6</ele>
        <time>2021-07-26T08:49:11Z</time>
      </trkpt>
      <trkpt lat="42.9054470" lon="-8.3745250">
        <ele>264.0</ele>
        <time>2021-07-26T08:49:14Z</time>
      </trkpt>
      <trkpt lat="42.9054260" lon="-8.3745510">
        <ele>264.4</ele>
        <time>2021-07-26T08:49:15Z</time>
      </trkpt>
      <trkpt lat="42.9054070" lon="-8.3745740">
        <ele>264.8</ele>
        <time>2021-07-26T08:49:16Z</time>
      </trkpt>
      <trkpt lat="42.9053790" lon="-8.3746070">
        <ele>265.2</ele>
        <time>2021-07-26T08:49:17Z</time>
      </trkpt>
      <trkpt lat="42.9053470" lon="-8.3746420">
        <ele>265.6</ele>
        <time>2021-07-26T08:49:18Z</time>
      </trkpt>
      <trkpt lat="42.9052210" lon="-8.3747740">
        <ele>265.6</ele>
        <time>2021-07-26T08:49:23Z</time>
      </trkpt>
      <trkpt lat="42.9051120" lon="-8.3748480">
        <ele>265.6</ele>
        <time>2021-07-26T08:49:28Z</time>
      </trkpt>
      <trkpt lat="42.9049760" lon="-8.3749790">
        <ele>265.6</ele>
        <time>2021-07-26T08:49:33Z</time>
      </trkpt>
      <trkpt lat="42.9048810" lon="-8.3750640">
        <ele>266.0</ele>
        <time>2021-07-26T08:49:36Z</time>
      </trkpt>
      <trkpt lat="42.9048530" lon="-8.3751010">
        <ele>266.4</ele>
        <time>2021-07-26T08:49:37Z</time>
      </trkpt>
      <trkpt lat="42.9048280" lon="-8.3751390">
        <ele>266.8</ele>
        <time>2021-07-26T08:49:38Z</time>
      </trkpt>
      <trkpt lat="42.9048010" lon="-8.3751710">
        <ele>267.2</ele>
        <time>2021-07-26T08:49:39Z</time>
      </trkpt>
      <trkpt lat="42.9047700" lon="-8.3752050">
        <ele>267.6</ele>
        <time>2021-07-26T08:49:40Z</time>
      </trkpt>
      <trkpt lat="42.9046450" lon="-8.3753670">
        <ele>267.6</ele>
        <time>2021-07-26T08:49:45Z</time>
      </trkpt>
      <trkpt lat="42.9045010" lon="-8.3755850">
        <ele>267.6</ele>
        <time>2021-07-26T08:49:51Z</time>
      </trkpt>
      <trkpt lat="42.9043680" lon="-8.3757710">
        <ele>267.6</ele>
        <time>2021-07-26T08:49:57Z</time>
      </trkpt>
      <trkpt lat="42.9042660" lon="-8.3759350">
        <ele>268.0</ele>
        <time>2021-07-26T08:50:02Z</time>
      </trkpt>
      <trkpt lat="42.9042440" lon="-8.3759700">
        <ele>268.4</ele>
        <time>2021-07-26T08:50:03Z</time>
      </trkpt>
      <trkpt lat="42.9042250" lon="-8.3760080">
        <ele>268.8</ele>
        <time>2021-07-26T08:50:04Z</time>
      </trkpt>
      <trkpt lat="42.9042040" lon="-8.3760430">
        <ele>269.2</ele>
        <time>2021-07-26T08:50:05Z</time>
      </trkpt>
      <trkpt lat="42.9041870" lon="-8.3760810">
        <ele>269.6</ele>
        <time>2021-07-26T08:50:06Z</time>
      </trkpt>
      <trkpt lat="42.9041140" lon="-8.3763110">
        <ele>269.6</ele>
        <time>2021-07-26T08:50:11Z</time>
      </trkpt>
      <trkpt lat="42.9040290" lon="-8.3765550">
        <ele>269.6</ele>
        <time>2021-07-26T08:50:17Z</time>
      </trkpt>
      <trkpt lat="42.9039780" lon="-8.3767340">
        <ele>270.0</ele>
        <time>2021-07-26T08:50:21Z</time>
      </trkpt>
      <trkpt lat="42.9039650" lon="-8.3767680">
        <ele>270.4</ele>
        <time>2021-07-26T08:50:22Z</time>
      </trkpt>
      <trkpt lat="42.9039520" lon="-8.3768040">
        <ele>271.0</ele>
        <time>2021-07-26T08:50:23Z</time>
      </trkpt>
      <trkpt lat="42.9039410" lon="-8.3768520">
        <ele>271.4</ele>
        <time>2021-07-26T08:50:24Z</time>
      </trkpt>
      <trkpt lat="42.9039330" lon="-8.3768880">
        <ele>271.8</ele>
        <time>2021-07-26T08:50:25Z</time>
      </trkpt>
      <trkpt lat="42.9039170" lon="-8.3769480">
        <ele>271.8</ele>
        <time>2021-07-26T08:50:27Z</time>
      </trkpt>
      <trkpt lat="42.9038770" lon="-8.3770760">
        <ele>271.8</ele>
        <time>2021-07-26T08:50:31Z</time>
      </trkpt>
      <trkpt lat="42.9038360" lon="-8.3772160">
        <ele>271.8</ele>
        <time>2021-07-26T08:50:35Z</time>
      </trkpt>
      <trkpt lat="42.9038110" lon="-8.3773540">
        <ele>272.2</ele>
        <time>2021-07-26T08:50:39Z</time>
      </trkpt>
      <trkpt lat="42.9038100" lon="-8.3773820">
        <ele>272.6</ele>
        <time>2021-07-26T08:50:40Z</time>
      </trkpt>
      <trkpt lat="42.9038080" lon="-8.3774120">
        <ele>273.0</ele>
        <time>2021-07-26T08:50:41Z</time>
      </trkpt>
      <trkpt lat="42.9038040" lon="-8.3774520">
        <ele>273.4</ele>
        <time>2021-07-26T08:50:42Z</time>
      </trkpt>
      <trkpt lat="42.9038030" lon="-8.3774890">
        <ele>273.8</ele>
        <time>2021-07-26T08:50:43Z</time>
      </trkpt>
      <trkpt lat="42.9037880" lon="-8.3776840">
        <ele>273.8</ele>
        <time>2021-07-26T08:50:48Z</time>
      </trkpt>
      <trkpt lat="42.9037580" lon="-8.3779290">
        <ele>273.8</ele>
        <time>2021-07-26T08:50:54Z</time>
      </trkpt>
      <trkpt lat="42.9037520" lon="-8.3779740">
        <ele>274.2</ele>
        <time>2021-07-26T08:50:55Z</time>
      </trkpt>
      <trkpt lat="42.9037500" lon="-8.3780200">
        <ele>274.6</ele>
        <time>2021-07-26T08:50:56Z</time>
      </trkpt>
      <trkpt lat="42.9037470" lon="-8.3780490">
        <ele>275.0</ele>
        <time>2021-07-26T08:50:57Z</time>
      </trkpt>
      <trkpt lat="42.9037440" lon="-8.3780870">
        <ele>275.4</ele>
        <time>2021-07-26T08:50:58Z</time>
      </trkpt>
      <trkpt lat="42.9037410" lon="-8.3781150">
        <ele>275.8</ele>
        <time>2021-07-26T08:50:59Z</time>
      </trkpt>
      <trkpt lat="42.9037370" lon="-8.3781970">
        <ele>275.8</ele>
        <time>2021-07-26T08:51:01Z</time>
      </trkpt>
      <trkpt lat="42.9037050" lon="-8.3785490">
        <ele>275.8</ele>
        <time>2021-07-26T08:51:09Z</time>
      </trkpt>
      <trkpt lat="42.9036660" lon="-8.3788490">
        <ele>275.8</ele>
        <time>2021-07-26T08:51:15Z</time>
      </trkpt>
      <trkpt lat="42.9036390" lon="-8.3791620">
        <ele>276.2</ele>
        <time>2021-07-26T08:51:22Z</time>
      </trkpt>
      <trkpt lat="42.9036370" lon="-8.3791890">
        <ele>276.6</ele>
        <time>2021-07-26T08:51:23Z</time>
      </trkpt>
      <trkpt lat="42.9036360" lon="-8.3792190">
        <ele>277.0</ele>
        <time>2021-07-26T08:51:24Z</time>
      </trkpt>
      <trkpt lat="42.9036350" lon="-8.3792550">
        <ele>277.4</ele>
        <time>2021-07-26T08:51:25Z</time>
      </trkpt>
      <trkpt lat="42.9036340" lon="-8.3792970">
        <ele>277.8</ele>
        <time>2021-07-26T08:51:26Z</time>
      </trkpt>
      <trkpt lat="42.9036350" lon="-8.3793650">
        <ele>277.8</ele>
        <time>2021-07-26T08:51:28Z</time>
      </trkpt>
      <trkpt lat="42.9036540" lon="-8.3796570">
        <ele>277.8</ele>
        <time>2021-07-26T08:51:34Z</time>
      </trkpt>
      <trkpt lat="42.9036480" lon="-8.3799240">
        <ele>277.8</ele>
        <time>2021-07-26T08:51:40Z</time>
      </trkpt>
      <trkpt lat="42.9036650" lon="-8.3800270">
        <ele>278.2</ele>
        <time>2021-07-26T08:51:43Z</time>
      </trkpt>
      <trkpt lat="42.9036730" lon="-8.3800780">
        <ele>278.6</ele>
        <time>2021-07-26T08:51:44Z</time>
      </trkpt>
      <trkpt lat="42.9036800" lon="-8.3801230">
        <ele>279.0</ele>
        <time>2021-07-26T08:51:45Z</time>
      </trkpt>
      <trkpt lat="42.9036890" lon="-8.3801670">
        <ele>279.4</ele>
        <time>2021-07-26T08:51:46Z</time>
      </trkpt>
      <trkpt lat="42.9036970" lon="-8.3802110">
        <ele>279.8</ele>
        <time>2021-07-26T08:51:47Z</time>
      </trkpt>
      <trkpt lat="42.9037420" lon="-8.3804840">
        <ele>279.8</ele>
        <time>2021-07-26T08:51:54Z</time>
      </trkpt>
      <trkpt lat="42.9037730" lon="-8.3806630">
        <ele>279.8</ele>
        <time>2021-07-26T08:51:58Z</time>
      </trkpt>
      <trkpt lat="42.9037850" lon="-8.3807730">
        <ele>279.8</ele>
        <time>2021-07-26T08:52:00Z</time>
      </trkpt>
      <trkpt lat="42.9038170" lon="-8.3809470">
        <ele>279.8</ele>
        <time>2021-07-26T08:52:03Z</time>
      </trkpt>
      <trkpt lat="42.9038150" lon="-8.3811300">
        <ele>279.8</ele>
        <time>2021-07-26T08:52:06Z</time>
      </trkpt>
      <trkpt lat="42.9038100" lon="-8.3811760">
        <ele>279.8</ele>
        <time>2021-07-26T08:52:07Z</time>
      </trkpt>
      <trkpt lat="42.9037950" lon="-8.3812510">
        <ele>279.8</ele>
        <time>2021-07-26T08:52:09Z</time>
      </trkpt>
      <trkpt lat="42.9037740" lon="-8.3812840">
        <ele>279.8</ele>
        <time>2021-07-26T08:52:10Z</time>
      </trkpt>
      <trkpt lat="42.9037200" lon="-8.3813440">
        <ele>279.4</ele>
        <time>2021-07-26T08:52:12Z</time>
      </trkpt>
      <trkpt lat="42.9036980" lon="-8.3813740">
        <ele>279.0</ele>
        <time>2021-07-26T08:52:13Z</time>
      </trkpt>
      <trkpt lat="42.9036790" lon="-8.3814230">
        <ele>278.6</ele>
        <time>2021-07-26T08:52:14Z</time>
      </trkpt>
      <trkpt lat="42.9036730" lon="-8.3814780">
        <ele>278.2</ele>
        <time>2021-07-26T08:52:15Z</time>
      </trkpt>
      <trkpt lat="42.9036770" lon="-8.3815350">
        <ele>277.8</ele>
        <time>2021-07-26T08:52:16Z</time>
      </trkpt>
      <trkpt lat="42.9037070" lon="-8.3816810">
        <ele>277.8</ele>
        <time>2021-07-26T08:52:19Z</time>
      </trkpt>
      <trkpt lat="42.9037120" lon="-8.3817300">
        <ele>277.8</ele>
        <time>2021-07-26T08:52:20Z</time>
      </trkpt>
      <trkpt lat="42.9037200" lon="-8.3818270">
        <ele>277.8</ele>
        <time>2021-07-26T08:52:22Z</time>
      </trkpt>
      <trkpt lat="42.9037320" lon="-8.3819160">
        <ele>277.8</ele>
        <time>2021-07-26T08:52:24Z</time>
      </trkpt>
      <trkpt lat="42.9037380" lon="-8.3819600">
        <ele>277.8</ele>
        <time>2021-07-26T08:52:25Z</time>
      </trkpt>
      <trkpt lat="42.9037640" lon="-8.3820890">
        <ele>277.8</ele>
        <time>2021-07-26T08:52:28Z</time>
      </trkpt>
      <trkpt lat="42.9038170" lon="-8.3824660">
        <ele>277.8</ele>
        <time>2021-07-26T08:52:35Z</time>
      </trkpt>
      <trkpt lat="42.9038580" lon="-8.3826940">
        <ele>277.8</ele>
        <time>2021-07-26T08:52:40Z</time>
      </trkpt>
      <trkpt lat="42.9039230" lon="-8.3828770">
        <ele>277.8</ele>
        <time>2021-07-26T08:52:44Z</time>
      </trkpt>
      <trkpt lat="42.9039430" lon="-8.3829560">
        <ele>277.8</ele>
        <time>2021-07-26T08:52:46Z</time>
      </trkpt>
      <trkpt lat="42.9040080" lon="-8.3832480">
        <ele>277.8</ele>
        <time>2021-07-26T08:52:53Z</time>
      </trkpt>
      <trkpt lat="42.9040800" lon="-8.3835560">
        <ele>277.8</ele>
        <time>2021-07-26T08:53:00Z</time>
      </trkpt>
      <trkpt lat="42.9040890" lon="-8.3835950">
        <ele>277.8</ele>
        <time>2021-07-26T08:53:01Z</time>
      </trkpt>
      <trkpt lat="42.9041340" lon="-8.3837260">
        <ele>278.2</ele>
        <time>2021-07-26T08:53:05Z</time>
      </trkpt>
      <trkpt lat="42.9041470" lon="-8.3837550">
        <ele>278.6</ele>
        <time>2021-07-26T08:53:06Z</time>
      </trkpt>
      <trkpt lat="42.9041580" lon="-8.3837850">
        <ele>279.0</ele>
        <time>2021-07-26T08:53:07Z</time>
      </trkpt>
      <trkpt lat="42.9041700" lon="-8.3838160">
        <ele>279.4</ele>
        <time>2021-07-26T08:53:08Z</time>
      </trkpt>
      <trkpt lat="42.9041810" lon="-8.3838500">
        <ele>279.8</ele>
        <time>2021-07-26T08:53:09Z</time>
      </trkpt>
      <trkpt lat="42.9042280" lon="-8.3840330">
        <ele>279.8</ele>
        <time>2021-07-26T08:53:14Z</time>
      </trkpt>
      <trkpt lat="42.9043090" lon="-8.3842350">
        <ele>279.8</ele>
        <time>2021-07-26T08:53:20Z</time>
      </trkpt>
      <trkpt lat="42.9043990" lon="-8.3844960">
        <ele>279.8</ele>
        <time>2021-07-26T08:53:26Z</time>
      </trkpt>
      <trkpt lat="42.9044780" lon="-8.3846510">
        <ele>280.2</ele>
        <time>2021-07-26T08:53:32Z</time>
      </trkpt>
      <trkpt lat="42.9044950" lon="-8.3846770">
        <ele>280.6</ele>
        <time>2021-07-26T08:53:33Z</time>
      </trkpt>
      <trkpt lat="42.9045090" lon="-8.3847080">
        <ele>281.2</ele>
        <time>2021-07-26T08:53:34Z</time>
      </trkpt>
      <trkpt lat="42.9045250" lon="-8.3847390">
        <ele>281.6</ele>
        <time>2021-07-26T08:53:35Z</time>
      </trkpt>
      <trkpt lat="42.9045430" lon="-8.3847820">
        <ele>282.0</ele>
        <time>2021-07-26T08:53:36Z</time>
      </trkpt>
      <trkpt lat="42.9045650" lon="-8.3848980">
        <ele>282.0</ele>
        <time>2021-07-26T08:53:39Z</time>
      </trkpt>
      <trkpt lat="42.9046230" lon="-8.3850990">
        <ele>282.4</ele>
        <time>2021-07-26T08:53:46Z</time>
      </trkpt>
      <trkpt lat="42.9046380" lon="-8.3851220">
        <ele>282.8</ele>
        <time>2021-07-26T08:53:47Z</time>
      </trkpt>
      <trkpt lat="42.9046560" lon="-8.3851450">
        <ele>283.2</ele>
        <time>2021-07-26T08:53:48Z</time>
      </trkpt>
      <trkpt lat="42.9046730" lon="-8.3851700">
        <ele>283.6</ele>
        <time>2021-07-26T08:53:49Z</time>
      </trkpt>
      <trkpt lat="42.9046900" lon="-8.3851990">
        <ele>284.0</ele>
        <time>2021-07-26T08:53:50Z</time>
      </trkpt>
      <trkpt lat="42.9047290" lon="-8.3852780">
        <ele>284.0</ele>
        <time>2021-07-26T08:53:52Z</time>
      </trkpt>
      <trkpt lat="42.9048360" lon="-8.3855620">
        <ele>284.0</ele>
        <time>2021-07-26T08:53:59Z</time>
      </trkpt>
      <trkpt lat="42.9049260" lon="-8.3858180">
        <ele>284.0</ele>
        <time>2021-07-26T08:54:07Z</time>
      </trkpt>
      <trkpt lat="42.9049390" lon="-8.3859610">
        <ele>284.0</ele>
        <time>2021-07-26T08:54:10Z</time>
      </trkpt>
      <trkpt lat="42.9049420" lon="-8.3860850">
        <ele>284.0</ele>
        <time>2021-07-26T08:54:13Z</time>
      </trkpt>
      <trkpt lat="42.9049330" lon="-8.3861250">
        <ele>284.0</ele>
        <time>2021-07-26T08:54:14Z</time>
      </trkpt>
      <trkpt lat="42.9049010" lon="-8.3861710">
        <ele>284.0</ele>
        <time>2021-07-26T08:54:15Z</time>
      </trkpt>
      <trkpt lat="42.9048710" lon="-8.3862130">
        <ele>283.6</ele>
        <time>2021-07-26T08:54:16Z</time>
      </trkpt>
      <trkpt lat="42.9048380" lon="-8.3862570">
        <ele>283.2</ele>
        <time>2021-07-26T08:54:17Z</time>
      </trkpt>
      <trkpt lat="42.9047970" lon="-8.3863110">
        <ele>282.8</ele>
        <time>2021-07-26T08:54:18Z</time>
      </trkpt>
      <trkpt lat="42.9047650" lon="-8.3863530">
        <ele>282.4</ele>
        <time>2021-07-26T08:54:19Z</time>
      </trkpt>
      <trkpt lat="42.9047280" lon="-8.3863920">
        <ele>282.0</ele>
        <time>2021-07-26T08:54:20Z</time>
      </trkpt>
      <trkpt lat="42.9046950" lon="-8.3864230">
        <ele>281.6</ele>
        <time>2021-07-26T08:54:21Z</time>
      </trkpt>
      <trkpt lat="42.9046630" lon="-8.3864540">
        <ele>281.2</ele>
        <time>2021-07-26T08:54:22Z</time>
      </trkpt>
      <trkpt lat="42.9046010" lon="-8.3864770">
        <ele>280.6</ele>
        <time>2021-07-26T08:54:23Z</time>
      </trkpt>
      <trkpt lat="42.9045380" lon="-8.3865000">
        <ele>280.2</ele>
        <time>2021-07-26T08:54:24Z</time>
      </trkpt>
      <trkpt lat="42.9044800" lon="-8.3865280">
        <ele>279.8</ele>
        <time>2021-07-26T08:54:25Z</time>
      </trkpt>
      <trkpt lat="42.9043520" lon="-8.3865900">
        <ele>279.2</ele>
        <time>2021-07-26T08:54:27Z</time>
      </trkpt>
      <trkpt lat="42.9042980" lon="-8.3866150">
        <ele>278.8</ele>
        <time>2021-07-26T08:54:28Z</time>
      </trkpt>
      <trkpt lat="42.9042420" lon="-8.3866360">
        <ele>278.2</ele>
        <time>2021-07-26T08:54:29Z</time>
      </trkpt>
      <trkpt lat="42.9041880" lon="-8.3866540">
        <ele>277.8</ele>
        <time>2021-07-26T08:54:30Z</time>
      </trkpt>
      <trkpt lat="42.9041370" lon="-8.3866750">
        <ele>277.2</ele>
        <time>2021-07-26T08:54:31Z</time>
      </trkpt>
      <trkpt lat="42.9040760" lon="-8.3867040">
        <ele>276.6</ele>
        <time>2021-07-26T08:54:32Z</time>
      </trkpt>
      <trkpt lat="42.9040100" lon="-8.3867320">
        <ele>276.0</ele>
        <time>2021-07-26T08:54:33Z</time>
      </trkpt>
      <trkpt lat="42.9039390" lon="-8.3867610">
        <ele>274.8</ele>
        <time>2021-07-26T08:54:34Z</time>
      </trkpt>
      <trkpt lat="42.9037960" lon="-8.3868210">
        <ele>274.4</ele>
        <time>2021-07-26T08:54:36Z</time>
      </trkpt>
      <trkpt lat="42.9037220" lon="-8.3868540">
        <ele>274.0</ele>
        <time>2021-07-26T08:54:37Z</time>
      </trkpt>
      <trkpt lat="42.9036470" lon="-8.3868900">
        <ele>273.6</ele>
        <time>2021-07-26T08:54:38Z</time>
      </trkpt>
      <trkpt lat="42.9035780" lon="-8.3869250">
        <ele>273.0</ele>
        <time>2021-07-26T08:54:39Z</time>
      </trkpt>
      <trkpt lat="42.9035130" lon="-8.3869550">
        <ele>272.4</ele>
        <time>2021-07-26T08:54:40Z</time>
      </trkpt>
      <trkpt lat="42.9034570" lon="-8.3869810">
        <ele>271.8</ele>
        <time>2021-07-26T08:54:41Z</time>
      </trkpt>
      <trkpt lat="42.9034050" lon="-8.3870000">
        <ele>271.2</ele>
        <time>2021-07-26T08:54:42Z</time>
      </trkpt>
      <trkpt lat="42.9033620" lon="-8.3870250">
        <ele>270.6</ele>
        <time>2021-07-26T08:54:43Z</time>
      </trkpt>
      <trkpt lat="42.9033250" lon="-8.3870590">
        <ele>270.0</ele>
        <time>2021-07-26T08:54:44Z</time>
      </trkpt>
      <trkpt lat="42.9032980" lon="-8.3871080">
        <ele>269.2</ele>
        <time>2021-07-26T08:54:45Z</time>
      </trkpt>
      <trkpt lat="42.9032930" lon="-8.3871710">
        <ele>268.6</ele>
        <time>2021-07-26T08:54:46Z</time>
      </trkpt>
      <trkpt lat="42.9033020" lon="-8.3872410">
        <ele>268.2</ele>
        <time>2021-07-26T08:54:47Z</time>
      </trkpt>
      <trkpt lat="42.9033160" lon="-8.3873030">
        <ele>267.8</ele>
        <time>2021-07-26T08:54:48Z</time>
      </trkpt>
      <trkpt lat="42.9033320" lon="-8.3873640">
        <ele>267.4</ele>
        <time>2021-07-26T08:54:49Z</time>
      </trkpt>
      <trkpt lat="42.9033480" lon="-8.3874240">
        <ele>266.8</ele>
        <time>2021-07-26T08:54:50Z</time>
      </trkpt>
      <trkpt lat="42.9033650" lon="-8.3874840">
        <ele>266.4</ele>
        <time>2021-07-26T08:54:51Z</time>
      </trkpt>
      <trkpt lat="42.9034590" lon="-8.3877800">
        <ele>266.4</ele>
        <time>2021-07-26T08:54:56Z</time>
      </trkpt>
      <trkpt lat="42.9035040" lon="-8.3879740">
        <ele>266.4</ele>
        <time>2021-07-26T08:54:59Z</time>
      </trkpt>
      <trkpt lat="42.9036070" lon="-8.3884040">
        <ele>266.4</ele>
        <time>2021-07-26T08:55:05Z</time>
      </trkpt>
      <trkpt lat="42.9036260" lon="-8.3884820">
        <ele>266.0</ele>
        <time>2021-07-26T08:55:06Z</time>
      </trkpt>
      <trkpt lat="42.9036480" lon="-8.3885630">
        <ele>265.6</ele>
        <time>2021-07-26T08:55:07Z</time>
      </trkpt>
      <trkpt lat="42.9036700" lon="-8.3886400">
        <ele>265.2</ele>
        <time>2021-07-26T08:55:08Z</time>
      </trkpt>
      <trkpt lat="42.9036940" lon="-8.3887140">
        <ele>264.8</ele>
        <time>2021-07-26T08:55:09Z</time>
      </trkpt>
      <trkpt lat="42.9037170" lon="-8.3887870">
        <ele>264.4</ele>
        <time>2021-07-26T08:55:10Z</time>
      </trkpt>
      <trkpt lat="42.9038160" lon="-8.3890690">
        <ele>263.8</ele>
        <time>2021-07-26T08:55:14Z</time>
      </trkpt>
      <trkpt lat="42.9038450" lon="-8.3891340">
        <ele>263.4</ele>
        <time>2021-07-26T08:55:15Z</time>
      </trkpt>
      <trkpt lat="42.9038790" lon="-8.3891950">
        <ele>262.8</ele>
        <time>2021-07-26T08:55:16Z</time>
      </trkpt>
      <trkpt lat="42.9039180" lon="-8.3892550">
        <ele>262.4</ele>
        <time>2021-07-26T08:55:17Z</time>
      </trkpt>
      <trkpt lat="42.9039600" lon="-8.3893160">
        <ele>261.8</ele>
        <time>2021-07-26T08:55:18Z</time>
      </trkpt>
      <trkpt lat="42.9040060" lon="-8.3893760">
        <ele>261.8</ele>
        <time>2021-07-26T08:55:19Z</time>
      </trkpt>
      <trkpt lat="42.9041680" lon="-8.3895520">
        <ele>261.2</ele>
        <time>2021-07-26T08:55:22Z</time>
      </trkpt>
      <trkpt lat="42.9042240" lon="-8.3896180">
        <ele>260.2</ele>
        <time>2021-07-26T08:55:23Z</time>
      </trkpt>
      <trkpt lat="42.9042730" lon="-8.3896870">
        <ele>259.6</ele>
        <time>2021-07-26T08:55:24Z</time>
      </trkpt>
      <trkpt lat="42.9043180" lon="-8.3897610">
        <ele>259.2</ele>
        <time>2021-07-26T08:55:25Z</time>
      </trkpt>
      <trkpt lat="42.9043580" lon="-8.3898420">
        <ele>258.6</ele>
        <time>2021-07-26T08:55:26Z</time>
      </trkpt>
      <trkpt lat="42.9043910" lon="-8.3899310">
        <ele>258.2</ele>
        <time>2021-07-26T08:55:27Z</time>
      </trkpt>
      <trkpt lat="42.9044180" lon="-8.3900210">
        <ele>257.8</ele>
        <time>2021-07-26T08:55:28Z</time>
      </trkpt>
      <trkpt lat="42.9044350" lon="-8.3901110">
        <ele>257.4</ele>
        <time>2021-07-26T08:55:29Z</time>
      </trkpt>
      <trkpt lat="42.9044430" lon="-8.3902040">
        <ele>257.0</ele>
        <time>2021-07-26T08:55:30Z</time>
      </trkpt>
      <trkpt lat="42.9044430" lon="-8.3903020">
        <ele>256.4</ele>
        <time>2021-07-26T08:55:31Z</time>
      </trkpt>
      <trkpt lat="42.9044390" lon="-8.3903880">
        <ele>255.8</ele>
        <time>2021-07-26T08:55:32Z</time>
      </trkpt>
      <trkpt lat="42.9044320" lon="-8.3904700">
        <ele>255.4</ele>
        <time>2021-07-26T08:55:33Z</time>
      </trkpt>
      <trkpt lat="42.9044290" lon="-8.3905470">
        <ele>254.8</ele>
        <time>2021-07-26T08:55:34Z</time>
      </trkpt>
      <trkpt lat="42.9044260" lon="-8.3906190">
        <ele>254.4</ele>
        <time>2021-07-26T08:55:35Z</time>
      </trkpt>
      <trkpt lat="42.9044260" lon="-8.3906870">
        <ele>253.8</ele>
        <time>2021-07-26T08:55:36Z</time>
      </trkpt>
      <trkpt lat="42.9044290" lon="-8.3907520">
        <ele>253.4</ele>
        <time>2021-07-26T08:55:37Z</time>
      </trkpt>
      <trkpt lat="42.9044340" lon="-8.3908110">
        <ele>252.8</ele>
        <time>2021-07-26T08:55:38Z</time>
      </trkpt>
      <trkpt lat="42.9044400" lon="-8.3908690">
        <ele>252.4</ele>
        <time>2021-07-26T08:55:39Z</time>
      </trkpt>
      <trkpt lat="42.9044490" lon="-8.3909200">
        <ele>251.8</ele>
        <time>2021-07-26T08:55:40Z</time>
      </trkpt>
      <trkpt lat="42.9044610" lon="-8.3909730">
        <ele>251.2</ele>
        <time>2021-07-26T08:55:41Z</time>
      </trkpt>
      <trkpt lat="42.9044780" lon="-8.3910250">
        <ele>250.6</ele>
        <time>2021-07-26T08:55:42Z</time>
      </trkpt>
      <trkpt lat="42.9044970" lon="-8.3910760">
        <ele>250.0</ele>
        <time>2021-07-26T08:55:43Z</time>
      </trkpt>
      <trkpt lat="42.9045190" lon="-8.3911230">
        <ele>249.6</ele>
        <time>2021-07-26T08:55:44Z</time>
      </trkpt>
      <trkpt lat="42.9045460" lon="-8.3911600">
        <ele>249.2</ele>
        <time>2021-07-26T08:55:45Z</time>
      </trkpt>
      <trkpt lat="42.9045810" lon="-8.3911860">
        <ele>248.8</ele>
        <time>2021-07-26T08:55:46Z</time>
      </trkpt>
      <trkpt lat="42.9046150" lon="-8.3911970">
        <ele>248.4</ele>
        <time>2021-07-26T08:55:47Z</time>
      </trkpt>
      <trkpt lat="42.9046480" lon="-8.3912070">
        <ele>247.6</ele>
        <time>2021-07-26T08:55:48Z</time>
      </trkpt>
      <trkpt lat="42.9046850" lon="-8.3912210">
        <ele>247.0</ele>
        <time>2021-07-26T08:55:49Z</time>
      </trkpt>
      <trkpt lat="42.9047250" lon="-8.3912380">
        <ele>246.6</ele>
        <time>2021-07-26T08:55:50Z</time>
      </trkpt>
      <trkpt lat="42.9047720" lon="-8.3912580">
        <ele>246.2</ele>
        <time>2021-07-26T08:55:51Z</time>
      </trkpt>
      <trkpt lat="42.9048310" lon="-8.3912840">
        <ele>245.8</ele>
        <time>2021-07-26T08:55:52Z</time>
      </trkpt>
      <trkpt lat="42.9048900" lon="-8.3913180">
        <ele>245.8</ele>
        <time>2021-07-26T08:55:53Z</time>
      </trkpt>
      <trkpt lat="42.9051780" lon="-8.3915460">
        <ele>245.8</ele>
        <time>2021-07-26T08:55:59Z</time>
      </trkpt>
      <trkpt lat="42.9052950" lon="-8.3916620">
        <ele>245.8</ele>
        <time>2021-07-26T08:56:02Z</time>
      </trkpt>
      <trkpt lat="42.9053260" lon="-8.3917110">
        <ele>245.8</ele>
        <time>2021-07-26T08:56:03Z</time>
      </trkpt>
      <trkpt lat="42.9053550" lon="-8.3917640">
        <ele>245.8</ele>
        <time>2021-07-26T08:56:04Z</time>
      </trkpt>
      <trkpt lat="42.9054090" lon="-8.3918820">
        <ele>245.8</ele>
        <time>2021-07-26T08:56:06Z</time>
      </trkpt>
      <trkpt lat="42.9054340" lon="-8.3919390">
        <ele>245.8</ele>
        <time>2021-07-26T08:56:07Z</time>
      </trkpt>
      <trkpt lat="42.9055020" lon="-8.3921080">
        <ele>245.4</ele>
        <time>2021-07-26T08:56:10Z</time>
      </trkpt>
      <trkpt lat="42.9055210" lon="-8.3921650">
        <ele>245.0</ele>
        <time>2021-07-26T08:56:11Z</time>
      </trkpt>
      <trkpt lat="42.9055400" lon="-8.3922200">
        <ele>244.2</ele>
        <time>2021-07-26T08:56:12Z</time>
      </trkpt>
      <trkpt lat="42.9055560" lon="-8.3922760">
        <ele>243.8</ele>
        <time>2021-07-26T08:56:13Z</time>
      </trkpt>
      <trkpt lat="42.9056400" lon="-8.3925110">
        <ele>243.8</ele>
        <time>2021-07-26T08:56:17Z</time>
      </trkpt>
      <trkpt lat="42.9056860" lon="-8.3926210">
        <ele>243.8</ele>
        <time>2021-07-26T08:56:19Z</time>
      </trkpt>
      <trkpt lat="42.9057380" lon="-8.3927860">
        <ele>243.8</ele>
        <time>2021-07-26T08:56:22Z</time>
      </trkpt>
      <trkpt lat="42.9057620" lon="-8.3928940">
        <ele>243.8</ele>
        <time>2021-07-26T08:56:24Z</time>
      </trkpt>
      <trkpt lat="42.9058100" lon="-8.3931100">
        <ele>243.8</ele>
        <time>2021-07-26T08:56:28Z</time>
      </trkpt>
      <trkpt lat="42.9058700" lon="-8.3932530">
        <ele>243.8</ele>
        <time>2021-07-26T08:56:31Z</time>
      </trkpt>
      <trkpt lat="42.9059490" lon="-8.3935370">
        <ele>243.8</ele>
        <time>2021-07-26T08:56:37Z</time>
      </trkpt>
      <trkpt lat="42.9059420" lon="-8.3935660">
        <ele>243.8</ele>
        <time>2021-07-26T08:56:39Z</time>
      </trkpt>
      <trkpt lat="42.9059300" lon="-8.3935620">
        <ele>243.8</ele>
        <time>2021-07-26T08:56:40Z</time>
      </trkpt>
      <trkpt lat="42.9058900" lon="-8.3936520">
        <ele>243.8</ele>
        <time>2021-07-26T08:56:43Z</time>
      </trkpt>
      <trkpt lat="42.9058760" lon="-8.3937700">
        <ele>243.8</ele>
        <time>2021-07-26T08:56:45Z</time>
      </trkpt>
      <trkpt lat="42.9058500" lon="-8.3940180">
        <ele>243.8</ele>
        <time>2021-07-26T08:56:49Z</time>
      </trkpt>
      <trkpt lat="42.9058870" lon="-8.3941010">
        <ele>243.8</ele>
        <time>2021-07-26T08:56:52Z</time>
      </trkpt>
      <trkpt lat="42.9059090" lon="-8.3941640">
        <ele>243.8</ele>
        <time>2021-07-26T08:56:55Z</time>
      </trkpt>
      <trkpt lat="42.9059300" lon="-8.3942430">
        <ele>243.8</ele>
        <time>2021-07-26T08:56:58Z</time>
      </trkpt>
      <trkpt lat="42.9059470" lon="-8.3943100">
        <ele>243.8</ele>
        <time>2021-07-26T08:57:01Z</time>
      </trkpt>
      <trkpt lat="42.9059530" lon="-8.3943260">
        <ele>244.2</ele>
        <time>2021-07-26T08:57:02Z</time>
      </trkpt>
      <trkpt lat="42.9059570" lon="-8.3943490">
        <ele>244.6</ele>
        <time>2021-07-26T08:57:03Z</time>
      </trkpt>
      <trkpt lat="42.9059580" lon="-8.3943740">
        <ele>245.0</ele>
        <time>2021-07-26T08:57:04Z</time>
      </trkpt>
      <trkpt lat="42.9059540" lon="-8.3944020">
        <ele>245.6</ele>
        <time>2021-07-26T08:57:05Z</time>
      </trkpt>
      <trkpt lat="42.9059520" lon="-8.3944330">
        <ele>246.0</ele>
        <time>2021-07-26T08:57:06Z</time>
      </trkpt>
      <trkpt lat="42.9059350" lon="-8.3945300">
        <ele>246.0</ele>
        <time>2021-07-26T08:57:09Z</time>
      </trkpt>
      <trkpt lat="42.9059150" lon="-8.3946100">
        <ele>246.0</ele>
        <time>2021-07-26T08:57:12Z</time>
      </trkpt>
      <trkpt lat="42.9058840" lon="-8.3947120">
        <ele>246.0</ele>
        <time>2021-07-26T08:57:16Z</time>
      </trkpt>
      <trkpt lat="42.9058550" lon="-8.3947630">
        <ele>246.0</ele>
        <time>2021-07-26T08:57:18Z</time>
      </trkpt>
      <trkpt lat="42.9058010" lon="-8.3949360">
        <ele>246.4</ele>
        <time>2021-07-26T08:57:24Z</time>
      </trkpt>
      <trkpt lat="42.9057970" lon="-8.3949680">
        <ele>246.8</ele>
        <time>2021-07-26T08:57:25Z</time>
      </trkpt>
      <trkpt lat="42.9057940" lon="-8.3950000">
        <ele>247.6</ele>
        <time>2021-07-26T08:57:26Z</time>
      </trkpt>
      <trkpt lat="42.9057940" lon="-8.3950290">
        <ele>248.0</ele>
        <time>2021-07-26T08:57:27Z</time>
      </trkpt>
      <trkpt lat="42.9057670" lon="-8.3951910">
        <ele>248.0</ele>
        <time>2021-07-26T08:57:33Z</time>
      </trkpt>
      <trkpt lat="42.9057330" lon="-8.3954090">
        <ele>248.0</ele>
        <time>2021-07-26T08:57:40Z</time>
      </trkpt>
      <trkpt lat="42.9056860" lon="-8.3957410">
        <ele>248.0</ele>
        <time>2021-07-26T08:57:48Z</time>
      </trkpt>
      <trkpt lat="42.9056660" lon="-8.3958190">
        <ele>248.4</ele>
        <time>2021-07-26T08:57:51Z</time>
      </trkpt>
      <trkpt lat="42.9056560" lon="-8.3958420">
        <ele>248.8</ele>
        <time>2021-07-26T08:57:52Z</time>
      </trkpt>
      <trkpt lat="42.9056480" lon="-8.3958610">
        <ele>249.2</ele>
        <time>2021-07-26T08:57:53Z</time>
      </trkpt>
      <trkpt lat="42.9056410" lon="-8.3958780">
        <ele>249.6</ele>
        <time>2021-07-26T08:57:54Z</time>
      </trkpt>
      <trkpt lat="42.9056390" lon="-8.3958980">
        <ele>250.0</ele>
        <time>2021-07-26T08:57:55Z</time>
      </trkpt>
      <trkpt lat="42.9056400" lon="-8.3959140">
        <ele>250.0</ele>
        <time>2021-07-26T08:57:56Z</time>
      </trkpt>
      <trkpt lat="42.9056200" lon="-8.3961330">
        <ele>250.4</ele>
        <time>2021-07-26T08:58:05Z</time>
      </trkpt>
      <trkpt lat="42.9056160" lon="-8.3961610">
        <ele>250.8</ele>
        <time>2021-07-26T08:58:06Z</time>
      </trkpt>
      <trkpt lat="42.9056140" lon="-8.3961910">
        <ele>251.4</ele>
        <time>2021-07-26T08:58:07Z</time>
      </trkpt>
      <trkpt lat="42.9056120" lon="-8.3962180">
        <ele>251.8</ele>
        <time>2021-07-26T08:58:08Z</time>
      </trkpt>
      <trkpt lat="42.9056120" lon="-8.3962500">
        <ele>252.2</ele>
        <time>2021-07-26T08:58:09Z</time>
      </trkpt>
      <trkpt lat="42.9056110" lon="-8.3963390">
        <ele>252.2</ele>
        <time>2021-07-26T08:58:12Z</time>
      </trkpt>
      <trkpt lat="42.9055920" lon="-8.3965000">
        <ele>252.2</ele>
        <time>2021-07-26T08:58:19Z</time>
      </trkpt>
      <trkpt lat="42.9055800" lon="-8.3966550">
        <ele>252.6</ele>
        <time>2021-07-26T08:58:25Z</time>
      </trkpt>
      <trkpt lat="42.9055740" lon="-8.3966780">
        <ele>253.0</ele>
        <time>2021-07-26T08:58:26Z</time>
      </trkpt>
      <trkpt lat="42.9055700" lon="-8.3966990">
        <ele>253.4</ele>
        <time>2021-07-26T08:58:27Z</time>
      </trkpt>
      <trkpt lat="42.9055650" lon="-8.3967210">
        <ele>253.8</ele>
        <time>2021-07-26T08:58:28Z</time>
      </trkpt>
      <trkpt lat="42.9055630" lon="-8.3967410">
        <ele>254.2</ele>
        <time>2021-07-26T08:58:29Z</time>
      </trkpt>
      <trkpt lat="42.9055640" lon="-8.3968300">
        <ele>254.2</ele>
        <time>2021-07-26T08:58:33Z</time>
      </trkpt>
      <trkpt lat="42.9055650" lon="-8.3969830">
        <ele>255.2</ele>
        <time>2021-07-26T08:58:41Z</time>
      </trkpt>
      <trkpt lat="42.9055650" lon="-8.3970040">
        <ele>255.6</ele>
        <time>2021-07-26T08:58:42Z</time>
      </trkpt>
      <trkpt lat="42.9055650" lon="-8.3970310">
        <ele>256.0</ele>
        <time>2021-07-26T08:58:43Z</time>
      </trkpt>
      <trkpt lat="42.9055600" lon="-8.3970590">
        <ele>256.4</ele>
        <time>2021-07-26T08:58:44Z</time>
      </trkpt>
      <trkpt lat="42.9055530" lon="-8.3971910">
        <ele>256.4</ele>
        <time>2021-07-26T08:58:50Z</time>
      </trkpt>
      <trkpt lat="42.9055390" lon="-8.3972680">
        <ele>256.8</ele>
        <time>2021-07-26T08:58:53Z</time>
      </trkpt>
      <trkpt lat="42.9055330" lon="-8.3972950">
        <ele>257.2</ele>
        <time>2021-07-26T08:58:54Z</time>
      </trkpt>
      <trkpt lat="42.9055310" lon="-8.3973160">
        <ele>257.6</ele>
        <time>2021-07-26T08:58:55Z</time>
      </trkpt>
      <trkpt lat="42.9055270" lon="-8.3973360">
        <ele>258.0</ele>
        <time>2021-07-26T08:58:56Z</time>
      </trkpt>
      <trkpt lat="42.9055270" lon="-8.3973580">
        <ele>258.4</ele>
        <time>2021-07-26T08:58:57Z</time>
      </trkpt>
      <trkpt lat="42.9055230" lon="-8.3973800">
        <ele>258.4</ele>
        <time>2021-07-26T08:58:58Z</time>
      </trkpt>
      <trkpt lat="42.9055190" lon="-8.3974510">
        <ele>259.0</ele>
        <time>2021-07-26T08:59:02Z</time>
      </trkpt>
      <trkpt lat="42.9055180" lon="-8.3974740">
        <ele>259.4</ele>
        <time>2021-07-26T08:59:03Z</time>
      </trkpt>
      <trkpt lat="42.9055150" lon="-8.3974980">
        <ele>259.8</ele>
        <time>2021-07-26T08:59:04Z</time>
      </trkpt>
      <trkpt lat="42.9055130" lon="-8.3975230">
        <ele>260.2</ele>
        <time>2021-07-26T08:59:05Z</time>
      </trkpt>
      <trkpt lat="42.9055120" lon="-8.3975410">
        <ele>260.6</ele>
        <time>2021-07-26T08:59:06Z</time>
      </trkpt>
      <trkpt lat="42.9055010" lon="-8.3976040">
        <ele>261.0</ele>
        <time>2021-07-26T08:59:09Z</time>
      </trkpt>
      <trkpt lat="42.9054970" lon="-8.3976250">
        <ele>261.4</ele>
        <time>2021-07-26T08:59:10Z</time>
      </trkpt>
      <trkpt lat="42.9054960" lon="-8.3976460">
        <ele>262.0</ele>
        <time>2021-07-26T08:59:11Z</time>
      </trkpt>
      <trkpt lat="42.9054960" lon="-8.3976720">
        <ele>262.4</ele>
        <time>2021-07-26T08:59:12Z</time>
      </trkpt>
      <trkpt lat="42.9054930" lon="-8.3976980">
        <ele>262.8</ele>
        <time>2021-07-26T08:59:13Z</time>
      </trkpt>
      <trkpt lat="42.9054930" lon="-8.3977360">
        <ele>263.2</ele>
        <time>2021-07-26T08:59:15Z</time>
      </trkpt>
      <trkpt lat="42.9054970" lon="-8.3977590">
        <ele>263.6</ele>
        <time>2021-07-26T08:59:16Z</time>
      </trkpt>
      <trkpt lat="42.9055030" lon="-8.3977810">
        <ele>264.2</ele>
        <time>2021-07-26T08:59:17Z</time>
      </trkpt>
      <trkpt lat="42.9055090" lon="-8.3978050">
        <ele>264.6</ele>
        <time>2021-07-26T08:59:18Z</time>
      </trkpt>
      <trkpt lat="42.9055190" lon="-8.3978300">
        <ele>265.0</ele>
        <time>2021-07-26T08:59:19Z</time>
      </trkpt>
      <trkpt lat="42.9055530" lon="-8.3978880">
        <ele>265.4</ele>
        <time>2021-07-26T08:59:22Z</time>
      </trkpt>
      <trkpt lat="42.9055670" lon="-8.3978980">
        <ele>266.0</ele>
        <time>2021-07-26T08:59:23Z</time>
      </trkpt>
      <trkpt lat="42.9055830" lon="-8.3979140">
        <ele>266.4</ele>
        <time>2021-07-26T08:59:24Z</time>
      </trkpt>
      <trkpt lat="42.9055980" lon="-8.3979270">
        <ele>266.8</ele>
        <time>2021-07-26T08:59:25Z</time>
      </trkpt>
      <trkpt lat="42.9056110" lon="-8.3979320">
        <ele>267.2</ele>
        <time>2021-07-26T08:59:26Z</time>
      </trkpt>
      <trkpt lat="42.9056700" lon="-8.3979790">
        <ele>267.2</ele>
        <time>2021-07-26T08:59:31Z</time>
      </trkpt>
      <trkpt lat="42.9057280" lon="-8.3980380">
        <ele>267.2</ele>
        <time>2021-07-26T08:59:37Z</time>
      </trkpt>
      <trkpt lat="42.9057450" lon="-8.3980480">
        <ele>267.6</ele>
        <time>2021-07-26T08:59:38Z</time>
      </trkpt>
      <trkpt lat="42.9057620" lon="-8.3980590">
        <ele>268.0</ele>
        <time>2021-07-26T08:59:39Z</time>
      </trkpt>
      <trkpt lat="42.9057780" lon="-8.3980760">
        <ele>268.4</ele>
        <time>2021-07-26T08:59:40Z</time>
      </trkpt>
      <trkpt lat="42.9057910" lon="-8.3980850">
        <ele>269.0</ele>
        <time>2021-07-26T08:59:41Z</time>
      </trkpt>
      <trkpt lat="42.9058020" lon="-8.3980980">
        <ele>269.4</ele>
        <time>2021-07-26T08:59:42Z</time>
      </trkpt>
      <trkpt lat="42.9058380" lon="-8.3981270">
        <ele>269.4</ele>
        <time>2021-07-26T08:59:45Z</time>
      </trkpt>
      <trkpt lat="42.9058800" lon="-8.3982220">
        <ele>269.4</ele>
        <time>2021-07-26T08:59:51Z</time>
      </trkpt>
      <trkpt lat="42.9058880" lon="-8.3982410">
        <ele>269.8</ele>
        <time>2021-07-26T08:59:52Z</time>
      </trkpt>
      <trkpt lat="42.9059000" lon="-8.3982560">
        <ele>270.2</ele>
        <time>2021-07-26T08:59:53Z</time>
      </trkpt>
      <trkpt lat="42.9059110" lon="-8.3982760">
        <ele>270.6</ele>
        <time>2021-07-26T08:59:54Z</time>
      </trkpt>
      <trkpt lat="42.9059200" lon="-8.3982910">
        <ele>271.4</ele>
        <time>2021-07-26T08:59:55Z</time>
      </trkpt>
      <trkpt lat="42.9059470" lon="-8.3983590">
        <ele>271.4</ele>
        <time>2021-07-26T08:59:59Z</time>
      </trkpt>
      <trkpt lat="42.9059600" lon="-8.3984200">
        <ele>271.8</ele>
        <time>2021-07-26T09:00:02Z</time>
      </trkpt>
      <trkpt lat="42.9059650" lon="-8.3984320">
        <ele>272.2</ele>
        <time>2021-07-26T09:00:03Z</time>
      </trkpt>
      <trkpt lat="42.9059760" lon="-8.3984480">
        <ele>272.6</ele>
        <time>2021-07-26T09:00:04Z</time>
      </trkpt>
      <trkpt lat="42.9059850" lon="-8.3984610">
        <ele>273.2</ele>
        <time>2021-07-26T09:00:05Z</time>
      </trkpt>
      <trkpt lat="42.9059930" lon="-8.3984720">
        <ele>273.6</ele>
        <time>2021-07-26T09:00:06Z</time>
      </trkpt>
      <trkpt lat="42.9060270" lon="-8.3985570">
        <ele>273.6</ele>
        <time>2021-07-26T09:00:11Z</time>
      </trkpt>
      <trkpt lat="42.9060360" lon="-8.3985720">
        <ele>274.0</ele>
        <time>2021-07-26T09:00:12Z</time>
      </trkpt>
      <trkpt lat="42.9060430" lon="-8.3985850">
        <ele>274.4</ele>
        <time>2021-07-26T09:00:13Z</time>
      </trkpt>
      <trkpt lat="42.9060520" lon="-8.3986060">
        <ele>275.0</ele>
        <time>2021-07-26T09:00:14Z</time>
      </trkpt>
      <trkpt lat="42.9060620" lon="-8.3986280">
        <ele>275.4</ele>
        <time>2021-07-26T09:00:15Z</time>
      </trkpt>
      <trkpt lat="42.9060730" lon="-8.3986420">
        <ele>275.8</ele>
        <time>2021-07-26T09:00:16Z</time>
      </trkpt>
      <trkpt lat="42.9060980" lon="-8.3986850">
        <ele>275.8</ele>
        <time>2021-07-26T09:00:18Z</time>
      </trkpt>
      <trkpt lat="42.9061260" lon="-8.3987620">
        <ele>276.2</ele>
        <time>2021-07-26T09:00:22Z</time>
      </trkpt>
      <trkpt lat="42.9061320" lon="-8.3987910">
        <ele>276.6</ele>
        <time>2021-07-26T09:00:23Z</time>
      </trkpt>
      <trkpt lat="42.9061410" lon="-8.3988180">
        <ele>277.0</ele>
        <time>2021-07-26T09:00:24Z</time>
      </trkpt>
      <trkpt lat="42.9061480" lon="-8.3988410">
        <ele>277.4</ele>
        <time>2021-07-26T09:00:25Z</time>
      </trkpt>
      <trkpt lat="42.9061610" lon="-8.3988630">
        <ele>278.0</ele>
        <time>2021-07-26T09:00:26Z</time>
      </trkpt>
      <trkpt lat="42.9062270" lon="-8.3989820">
        <ele>278.0</ele>
        <time>2021-07-26T09:00:31Z</time>
      </trkpt>
      <trkpt lat="42.9062650" lon="-8.3991480">
        <ele>278.0</ele>
        <time>2021-07-26T09:00:37Z</time>
      </trkpt>
      <trkpt lat="42.9063030" lon="-8.3993000">
        <ele>278.4</ele>
        <time>2021-07-26T09:00:42Z</time>
      </trkpt>
      <trkpt lat="42.9063160" lon="-8.3993230">
        <ele>278.8</ele>
        <time>2021-07-26T09:00:43Z</time>
      </trkpt>
      <trkpt lat="42.9063250" lon="-8.3993460">
        <ele>279.2</ele>
        <time>2021-07-26T09:00:44Z</time>
      </trkpt>
      <trkpt lat="42.9063350" lon="-8.3993730">
        <ele>280.0</ele>
        <time>2021-07-26T09:00:45Z</time>
      </trkpt>
      <trkpt lat="42.9064000" lon="-8.3995590">
        <ele>280.0</ele>
        <time>2021-07-26T09:00:53Z</time>
      </trkpt>
      <trkpt lat="42.9064040" lon="-8.3996490">
        <ele>280.4</ele>
        <time>2021-07-26T09:00:57Z</time>
      </trkpt>
      <trkpt lat="42.9064000" lon="-8.3996760">
        <ele>280.8</ele>
        <time>2021-07-26T09:00:58Z</time>
      </trkpt>
      <trkpt lat="42.9063960" lon="-8.3997040">
        <ele>281.2</ele>
        <time>2021-07-26T09:00:59Z</time>
      </trkpt>
      <trkpt lat="42.9063920" lon="-8.3997310">
        <ele>281.6</ele>
        <time>2021-07-26T09:01:00Z</time>
      </trkpt>
      <trkpt lat="42.9063830" lon="-8.3997540">
        <ele>282.0</ele>
        <time>2021-07-26T09:01:01Z</time>
      </trkpt>
      <trkpt lat="42.9063780" lon="-8.3998560">
        <ele>282.0</ele>
        <time>2021-07-26T09:01:05Z</time>
      </trkpt>
      <trkpt lat="42.9063550" lon="-8.4000010">
        <ele>282.0</ele>
        <time>2021-07-26T09:01:11Z</time>
      </trkpt>
      <trkpt lat="42.9063500" lon="-8.4000290">
        <ele>282.0</ele>
        <time>2021-07-26T09:01:12Z</time>
      </trkpt>
      <trkpt lat="42.9063140" lon="-8.4001660">
        <ele>282.0</ele>
        <time>2021-07-26T09:01:17Z</time>
      </trkpt>
      <trkpt lat="42.9062870" lon="-8.4002520">
        <ele>282.0</ele>
        <time>2021-07-26T09:01:20Z</time>
      </trkpt>
      <trkpt lat="42.9062820" lon="-8.4002850">
        <ele>282.4</ele>
        <time>2021-07-26T09:01:21Z</time>
      </trkpt>
      <trkpt lat="42.9062790" lon="-8.4003180">
        <ele>282.8</ele>
        <time>2021-07-26T09:01:22Z</time>
      </trkpt>
      <trkpt lat="42.9062740" lon="-8.4003500">
        <ele>283.2</ele>
        <time>2021-07-26T09:01:23Z</time>
      </trkpt>
      <trkpt lat="42.9062640" lon="-8.4003840">
        <ele>283.6</ele>
        <time>2021-07-26T09:01:24Z</time>
      </trkpt>
      <trkpt lat="42.9062610" lon="-8.4004090">
        <ele>284.0</ele>
        <time>2021-07-26T09:01:25Z</time>
      </trkpt>
      <trkpt lat="42.9062290" lon="-8.4005460">
        <ele>284.0</ele>
        <time>2021-07-26T09:01:29Z</time>
      </trkpt>
      <trkpt lat="42.9061730" lon="-8.4006900">
        <ele>284.0</ele>
        <time>2021-07-26T09:01:34Z</time>
      </trkpt>
      <trkpt lat="42.9061410" lon="-8.4008440">
        <ele>284.6</ele>
        <time>2021-07-26T09:01:39Z</time>
      </trkpt>
      <trkpt lat="42.9061330" lon="-8.4008710">
        <ele>285.0</ele>
        <time>2021-07-26T09:01:40Z</time>
      </trkpt>
      <trkpt lat="42.9061330" lon="-8.4008950">
        <ele>285.4</ele>
        <time>2021-07-26T09:01:41Z</time>
      </trkpt>
      <trkpt lat="42.9061260" lon="-8.4009190">
        <ele>285.8</ele>
        <time>2021-07-26T09:01:42Z</time>
      </trkpt>
      <trkpt lat="42.9061130" lon="-8.4009420">
        <ele>286.2</ele>
        <time>2021-07-26T09:01:43Z</time>
      </trkpt>
      <trkpt lat="42.9061050" lon="-8.4009670">
        <ele>286.2</ele>
        <time>2021-07-26T09:01:44Z</time>
      </trkpt>
      <trkpt lat="42.9060990" lon="-8.4009920">
        <ele>286.2</ele>
        <time>2021-07-26T09:01:45Z</time>
      </trkpt>
      <trkpt lat="42.9060540" lon="-8.4011590">
        <ele>286.2</ele>
        <time>2021-07-26T09:01:50Z</time>
      </trkpt>
      <trkpt lat="42.9060480" lon="-8.4013770">
        <ele>286.2</ele>
        <time>2021-07-26T09:01:56Z</time>
      </trkpt>
      <trkpt lat="42.9060500" lon="-8.4015950">
        <ele>286.2</ele>
        <time>2021-07-26T09:02:02Z</time>
      </trkpt>
      <trkpt lat="42.9060820" lon="-8.4017500">
        <ele>286.2</ele>
        <time>2021-07-26T09:02:07Z</time>
      </trkpt>
      <trkpt lat="42.9060940" lon="-8.4017830">
        <ele>286.2</ele>
        <time>2021-07-26T09:02:08Z</time>
      </trkpt>
      <trkpt lat="42.9061330" lon="-8.4018860">
        <ele>286.6</ele>
        <time>2021-07-26T09:02:11Z</time>
      </trkpt>
      <trkpt lat="42.9061440" lon="-8.4019160">
        <ele>287.0</ele>
        <time>2021-07-26T09:02:12Z</time>
      </trkpt>
      <trkpt lat="42.9061560" lon="-8.4019450">
        <ele>287.4</ele>
        <time>2021-07-26T09:02:13Z</time>
      </trkpt>
      <trkpt lat="42.9061680" lon="-8.4019810">
        <ele>287.8</ele>
        <time>2021-07-26T09:02:14Z</time>
      </trkpt>
      <trkpt lat="42.9061770" lon="-8.4020130">
        <ele>288.4</ele>
        <time>2021-07-26T09:02:15Z</time>
      </trkpt>
      <trkpt lat="42.9061930" lon="-8.4021440">
        <ele>288.4</ele>
        <time>2021-07-26T09:02:20Z</time>
      </trkpt>
      <trkpt lat="42.9061950" lon="-8.4021710">
        <ele>288.8</ele>
        <time>2021-07-26T09:02:21Z</time>
      </trkpt>
      <trkpt lat="42.9061930" lon="-8.4022020">
        <ele>289.2</ele>
        <time>2021-07-26T09:02:22Z</time>
      </trkpt>
      <trkpt lat="42.9061910" lon="-8.4022330">
        <ele>289.6</ele>
        <time>2021-07-26T09:02:23Z</time>
      </trkpt>
      <trkpt lat="42.9061840" lon="-8.4022600">
        <ele>290.4</ele>
        <time>2021-07-26T09:02:24Z</time>
      </trkpt>
      <trkpt lat="42.9061530" lon="-8.4023170">
        <ele>290.4</ele>
        <time>2021-07-26T09:02:26Z</time>
      </trkpt>
      <trkpt lat="42.9060350" lon="-8.4024640">
        <ele>290.4</ele>
        <time>2021-07-26T09:02:33Z</time>
      </trkpt>
      <trkpt lat="42.9059830" lon="-8.4025590">
        <ele>290.8</ele>
        <time>2021-07-26T09:02:38Z</time>
      </trkpt>
      <trkpt lat="42.9059690" lon="-8.4025780">
        <ele>291.2</ele>
        <time>2021-07-26T09:02:39Z</time>
      </trkpt>
      <trkpt lat="42.9059580" lon="-8.4026010">
        <ele>291.6</ele>
        <time>2021-07-26T09:02:40Z</time>
      </trkpt>
      <trkpt lat="42.9059450" lon="-8.4026280">
        <ele>292.0</ele>
        <time>2021-07-26T09:02:41Z</time>
      </trkpt>
      <trkpt lat="42.9059340" lon="-8.4026490">
        <ele>292.4</ele>
        <time>2021-07-26T09:02:42Z</time>
      </trkpt>
      <trkpt lat="42.9059110" lon="-8.4027480">
        <ele>292.4</ele>
        <time>2021-07-26T09:02:46Z</time>
      </trkpt>
      <trkpt lat="42.9058840" lon="-8.4028120">
        <ele>292.8</ele>
        <time>2021-07-26T09:02:49Z</time>
      </trkpt>
      <trkpt lat="42.9058780" lon="-8.4028300">
        <ele>293.2</ele>
        <time>2021-07-26T09:02:50Z</time>
      </trkpt>
      <trkpt lat="42.9058680" lon="-8.4028490">
        <ele>293.6</ele>
        <time>2021-07-26T09:02:51Z</time>
      </trkpt>
      <trkpt lat="42.9058580" lon="-8.4028740">
        <ele>294.0</ele>
        <time>2021-07-26T09:02:52Z</time>
      </trkpt>
      <trkpt lat="42.9058500" lon="-8.4028990">
        <ele>294.4</ele>
        <time>2021-07-26T09:02:53Z</time>
      </trkpt>
      <trkpt lat="42.9058510" lon="-8.4029210">
        <ele>294.4</ele>
        <time>2021-07-26T09:02:54Z</time>
      </trkpt>
      <trkpt lat="42.9058370" lon="-8.4030080">
        <ele>295.0</ele>
        <time>2021-07-26T09:02:58Z</time>
      </trkpt>
      <trkpt lat="42.9058290" lon="-8.4030310">
        <ele>295.4</ele>
        <time>2021-07-26T09:02:59Z</time>
      </trkpt>
      <trkpt lat="42.9058270" lon="-8.4030560">
        <ele>295.8</ele>
        <time>2021-07-26T09:03:00Z</time>
      </trkpt>
      <trkpt lat="42.9058280" lon="-8.4030830">
        <ele>296.2</ele>
        <time>2021-07-26T09:03:01Z</time>
      </trkpt>
      <trkpt lat="42.9058250" lon="-8.4031110">
        <ele>296.6</ele>
        <time>2021-07-26T09:03:02Z</time>
      </trkpt>
      <trkpt lat="42.9058200" lon="-8.4031920">
        <ele>296.6</ele>
        <time>2021-07-26T09:03:05Z</time>
      </trkpt>
      <trkpt lat="42.9058210" lon="-8.4032440">
        <ele>296.6</ele>
        <time>2021-07-26T09:03:07Z</time>
      </trkpt>
      <trkpt lat="42.9058050" lon="-8.4033140">
        <ele>297.0</ele>
        <time>2021-07-26T09:03:10Z</time>
      </trkpt>
      <trkpt lat="42.9058000" lon="-8.4033380">
        <ele>297.4</ele>
        <time>2021-07-26T09:03:11Z</time>
      </trkpt>
      <trkpt lat="42.9057920" lon="-8.4033560">
        <ele>297.8</ele>
        <time>2021-07-26T09:03:12Z</time>
      </trkpt>
      <trkpt lat="42.9057870" lon="-8.4033820">
        <ele>298.6</ele>
        <time>2021-07-26T09:03:13Z</time>
      </trkpt>
      <trkpt lat="42.9057760" lon="-8.4034870">
        <ele>298.6</ele>
        <time>2021-07-26T09:03:17Z</time>
      </trkpt>
      <trkpt lat="42.9057590" lon="-8.4037070">
        <ele>299.2</ele>
        <time>2021-07-26T09:03:24Z</time>
      </trkpt>
      <trkpt lat="42.9057620" lon="-8.4037310">
        <ele>299.6</ele>
        <time>2021-07-26T09:03:25Z</time>
      </trkpt>
      <trkpt lat="42.9057680" lon="-8.4037480">
        <ele>300.0</ele>
        <time>2021-07-26T09:03:26Z</time>
      </trkpt>
      <trkpt lat="42.9057720" lon="-8.4037610">
        <ele>300.4</ele>
        <time>2021-07-26T09:03:27Z</time>
      </trkpt>
      <trkpt lat="42.9057770" lon="-8.4037790">
        <ele>300.8</ele>
        <time>2021-07-26T09:03:28Z</time>
      </trkpt>
      <trkpt lat="42.9057890" lon="-8.4038210">
        <ele>300.8</ele>
        <time>2021-07-26T09:03:31Z</time>
      </trkpt>
      <trkpt lat="42.9058000" lon="-8.4038500">
        <ele>300.8</ele>
        <time>2021-07-26T09:03:33Z</time>
      </trkpt>
      <trkpt lat="42.9058370" lon="-8.4039200">
        <ele>301.2</ele>
        <time>2021-07-26T09:03:39Z</time>
      </trkpt>
      <trkpt lat="42.9058450" lon="-8.4039320">
        <ele>301.6</ele>
        <time>2021-07-26T09:03:40Z</time>
      </trkpt>
      <trkpt lat="42.9058570" lon="-8.4039480">
        <ele>302.0</ele>
        <time>2021-07-26T09:03:41Z</time>
      </trkpt>
      <trkpt lat="42.9058650" lon="-8.4039730">
        <ele>302.4</ele>
        <time>2021-07-26T09:03:42Z</time>
      </trkpt>
      <trkpt lat="42.9058690" lon="-8.4039950">
        <ele>302.8</ele>
        <time>2021-07-26T09:03:43Z</time>
      </trkpt>
      <trkpt lat="42.9058800" lon="-8.4040470">
        <ele>302.8</ele>
        <time>2021-07-26T09:03:45Z</time>
      </trkpt>
      <trkpt lat="42.9059160" lon="-8.4041380">
        <ele>303.2</ele>
        <time>2021-07-26T09:03:50Z</time>
      </trkpt>
      <trkpt lat="42.9059200" lon="-8.4041630">
        <ele>303.6</ele>
        <time>2021-07-26T09:03:51Z</time>
      </trkpt>
      <trkpt lat="42.9059270" lon="-8.4042000">
        <ele>304.0</ele>
        <time>2021-07-26T09:03:52Z</time>
      </trkpt>
      <trkpt lat="42.9059320" lon="-8.4042310">
        <ele>304.4</ele>
        <time>2021-07-26T09:03:53Z</time>
      </trkpt>
      <trkpt lat="42.9059410" lon="-8.4042650">
        <ele>304.8</ele>
        <time>2021-07-26T09:03:54Z</time>
      </trkpt>
      <trkpt lat="42.9059510" lon="-8.4043940">
        <ele>304.8</ele>
        <time>2021-07-26T09:03:59Z</time>
      </trkpt>
      <trkpt lat="42.9059480" lon="-8.4044770">
        <ele>305.2</ele>
        <time>2021-07-26T09:04:02Z</time>
      </trkpt>
      <trkpt lat="42.9059460" lon="-8.4045050">
        <ele>306.2</ele>
        <time>2021-07-26T09:04:03Z</time>
      </trkpt>
      <trkpt lat="42.9059470" lon="-8.4045320">
        <ele>306.6</ele>
        <time>2021-07-26T09:04:04Z</time>
      </trkpt>
      <trkpt lat="42.9059450" lon="-8.4045760">
        <ele>307.0</ele>
        <time>2021-07-26T09:04:05Z</time>
      </trkpt>
      <trkpt lat="42.9059390" lon="-8.4046460">
        <ele>307.0</ele>
        <time>2021-07-26T09:04:07Z</time>
      </trkpt>
      <trkpt lat="42.9059370" lon="-8.4048460">
        <ele>307.0</ele>
        <time>2021-07-26T09:04:13Z</time>
      </trkpt>
      <trkpt lat="42.9059260" lon="-8.4049670">
        <ele>307.4</ele>
        <time>2021-07-26T09:04:16Z</time>
      </trkpt>
      <trkpt lat="42.9059230" lon="-8.4050010">
        <ele>307.8</ele>
        <time>2021-07-26T09:04:17Z</time>
      </trkpt>
      <trkpt lat="42.9059200" lon="-8.4050340">
        <ele>308.2</ele>
        <time>2021-07-26T09:04:18Z</time>
      </trkpt>
      <trkpt lat="42.9059180" lon="-8.4050620">
        <ele>308.6</ele>
        <time>2021-07-26T09:04:19Z</time>
      </trkpt>
      <trkpt lat="42.9059190" lon="-8.4050890">
        <ele>309.0</ele>
        <time>2021-07-26T09:04:20Z</time>
      </trkpt>
      <trkpt lat="42.9059180" lon="-8.4051390">
        <ele>309.0</ele>
        <time>2021-07-26T09:04:22Z</time>
      </trkpt>
      <trkpt lat="42.9059200" lon="-8.4052150">
        <ele>309.0</ele>
        <time>2021-07-26T09:04:25Z</time>
      </trkpt>
      <trkpt lat="42.9059150" lon="-8.4053820">
        <ele>309.0</ele>
        <time>2021-07-26T09:04:32Z</time>
      </trkpt>
      <trkpt lat="42.9059150" lon="-8.4054040">
        <ele>309.4</ele>
        <time>2021-07-26T09:04:33Z</time>
      </trkpt>
      <trkpt lat="42.9059170" lon="-8.4054200">
        <ele>309.8</ele>
        <time>2021-07-26T09:04:34Z</time>
      </trkpt>
      <trkpt lat="42.9059120" lon="-8.4054390">
        <ele>310.2</ele>
        <time>2021-07-26T09:04:35Z</time>
      </trkpt>
      <trkpt lat="42.9059120" lon="-8.4054590">
        <ele>310.6</ele>
        <time>2021-07-26T09:04:36Z</time>
      </trkpt>
      <trkpt lat="42.9059070" lon="-8.4054860">
        <ele>311.0</ele>
        <time>2021-07-26T09:04:37Z</time>
      </trkpt>
      <trkpt lat="42.9059010" lon="-8.4055100">
        <ele>311.0</ele>
        <time>2021-07-26T09:04:38Z</time>
      </trkpt>
      <trkpt lat="42.9058890" lon="-8.4056600">
        <ele>311.0</ele>
        <time>2021-07-26T09:04:44Z</time>
      </trkpt>
      <trkpt lat="42.9058910" lon="-8.4057120">
        <ele>311.6</ele>
        <time>2021-07-26T09:04:46Z</time>
      </trkpt>
      <trkpt lat="42.9058890" lon="-8.4057340">
        <ele>312.0</ele>
        <time>2021-07-26T09:04:47Z</time>
      </trkpt>
      <trkpt lat="42.9058850" lon="-8.4057610">
        <ele>312.4</ele>
        <time>2021-07-26T09:04:48Z</time>
      </trkpt>
      <trkpt lat="42.9058870" lon="-8.4057850">
        <ele>312.8</ele>
        <time>2021-07-26T09:04:49Z</time>
      </trkpt>
      <trkpt lat="42.9058880" lon="-8.4058090">
        <ele>313.2</ele>
        <time>2021-07-26T09:04:50Z</time>
      </trkpt>
      <trkpt lat="42.9058790" lon="-8.4059530">
        <ele>313.2</ele>
        <time>2021-07-26T09:04:56Z</time>
      </trkpt>
      <trkpt lat="42.9058890" lon="-8.4060780">
        <ele>313.6</ele>
        <time>2021-07-26T09:05:01Z</time>
      </trkpt>
      <trkpt lat="42.9058900" lon="-8.4061110">
        <ele>314.0</ele>
        <time>2021-07-26T09:05:02Z</time>
      </trkpt>
      <trkpt lat="42.9058910" lon="-8.4061290">
        <ele>314.4</ele>
        <time>2021-07-26T09:05:03Z</time>
      </trkpt>
      <trkpt lat="42.9058890" lon="-8.4061520">
        <ele>314.8</ele>
        <time>2021-07-26T09:05:04Z</time>
      </trkpt>
      <trkpt lat="42.9058880" lon="-8.4061690">
        <ele>315.2</ele>
        <time>2021-07-26T09:05:05Z</time>
      </trkpt>
      <trkpt lat="42.9058880" lon="-8.4062180">
        <ele>315.2</ele>
        <time>2021-07-26T09:05:07Z</time>
      </trkpt>
      <trkpt lat="42.9058860" lon="-8.4063690">
        <ele>315.8</ele>
        <time>2021-07-26T09:05:14Z</time>
      </trkpt>
      <trkpt lat="42.9058880" lon="-8.4063860">
        <ele>316.2</ele>
        <time>2021-07-26T09:05:15Z</time>
      </trkpt>
      <trkpt lat="42.9058880" lon="-8.4064070">
        <ele>316.6</ele>
        <time>2021-07-26T09:05:16Z</time>
      </trkpt>
      <trkpt lat="42.9058900" lon="-8.4064280">
        <ele>317.4</ele>
        <time>2021-07-26T09:05:17Z</time>
      </trkpt>
      <trkpt lat="42.9058890" lon="-8.4065480">
        <ele>317.4</ele>
        <time>2021-07-26T09:05:22Z</time>
      </trkpt>
      <trkpt lat="42.9059020" lon="-8.4066200">
        <ele>317.8</ele>
        <time>2021-07-26T09:05:25Z</time>
      </trkpt>
      <trkpt lat="42.9059040" lon="-8.4066420">
        <ele>318.2</ele>
        <time>2021-07-26T09:05:26Z</time>
      </trkpt>
      <trkpt lat="42.9059070" lon="-8.4066640">
        <ele>318.6</ele>
        <time>2021-07-26T09:05:27Z</time>
      </trkpt>
      <trkpt lat="42.9059010" lon="-8.4066890">
        <ele>319.0</ele>
        <time>2021-07-26T09:05:28Z</time>
      </trkpt>
      <trkpt lat="42.9058920" lon="-8.4067110">
        <ele>319.4</ele>
        <time>2021-07-26T09:05:29Z</time>
      </trkpt>
      <trkpt lat="42.9058650" lon="-8.4067800">
        <ele>319.4</ele>
        <time>2021-07-26T09:05:33Z</time>
      </trkpt>
      <trkpt lat="42.9058640" lon="-8.4068210">
        <ele>319.4</ele>
        <time>2021-07-26T09:05:35Z</time>
      </trkpt>
      <trkpt lat="42.9058630" lon="-8.4068460">
        <ele>319.4</ele>
        <time>2021-07-26T09:05:36Z</time>
      </trkpt>
      <trkpt lat="42.9058650" lon="-8.4068920">
        <ele>319.8</ele>
        <time>2021-07-26T09:05:38Z</time>
      </trkpt>
      <trkpt lat="42.9058670" lon="-8.4069120">
        <ele>320.2</ele>
        <time>2021-07-26T09:05:39Z</time>
      </trkpt>
      <trkpt lat="42.9058730" lon="-8.4069330">
        <ele>320.6</ele>
        <time>2021-07-26T09:05:40Z</time>
      </trkpt>
      <trkpt lat="42.9058780" lon="-8.4069460">
        <ele>321.6</ele>
        <time>2021-07-26T09:05:41Z</time>
      </trkpt>
      <trkpt lat="42.9058790" lon="-8.4069620">
        <ele>321.6</ele>
        <time>2021-07-26T09:05:42Z</time>
      </trkpt>
      <trkpt lat="42.9058950" lon="-8.4070750">
        <ele>321.6</ele>
        <time>2021-07-26T09:05:48Z</time>
      </trkpt>
      <trkpt lat="42.9059010" lon="-8.4071170">
        <ele>321.6</ele>
        <time>2021-07-26T09:05:50Z</time>
      </trkpt>
      <trkpt lat="42.9059050" lon="-8.4071360">
        <ele>322.0</ele>
        <time>2021-07-26T09:05:51Z</time>
      </trkpt>
      <trkpt lat="42.9059030" lon="-8.4071560">
        <ele>322.4</ele>
        <time>2021-07-26T09:05:52Z</time>
      </trkpt>
      <trkpt lat="42.9059070" lon="-8.4071750">
        <ele>322.8</ele>
        <time>2021-07-26T09:05:53Z</time>
      </trkpt>
      <trkpt lat="42.9059090" lon="-8.4071950">
        <ele>323.2</ele>
        <time>2021-07-26T09:05:54Z</time>
      </trkpt>
      <trkpt lat="42.9059090" lon="-8.4072030">
        <ele>323.8</ele>
        <time>2021-07-26T09:05:55Z</time>
      </trkpt>
      <trkpt lat="42.9059130" lon="-8.4072670">
        <ele>323.8</ele>
        <time>2021-07-26T09:05:58Z</time>
      </trkpt>
      <trkpt lat="42.9059120" lon="-8.4073520">
        <ele>323.8</ele>
        <time>2021-07-26T09:06:01Z</time>
      </trkpt>
      <trkpt lat="42.9059110" lon="-8.4073770">
        <ele>324.2</ele>
        <time>2021-07-26T09:06:02Z</time>
      </trkpt>
      <trkpt lat="42.9059110" lon="-8.4074040">
        <ele>324.6</ele>
        <time>2021-07-26T09:06:03Z</time>
      </trkpt>
      <trkpt lat="42.9059100" lon="-8.4074240">
        <ele>325.0</ele>
        <time>2021-07-26T09:06:04Z</time>
      </trkpt>
      <trkpt lat="42.9059090" lon="-8.4074540">
        <ele>325.4</ele>
        <time>2021-07-26T09:06:05Z</time>
      </trkpt>
      <trkpt lat="42.9059070" lon="-8.4074780">
        <ele>325.8</ele>
        <time>2021-07-26T09:06:06Z</time>
      </trkpt>
      <trkpt lat="42.9059020" lon="-8.4075020">
        <ele>325.8</ele>
        <time>2021-07-26T09:06:07Z</time>
      </trkpt>
      <trkpt lat="42.9058890" lon="-8.4075490">
        <ele>325.8</ele>
        <time>2021-07-26T09:06:09Z</time>
      </trkpt>
      <trkpt lat="42.9058840" lon="-8.4075930">
        <ele>326.2</ele>
        <time>2021-07-26T09:06:11Z</time>
      </trkpt>
      <trkpt lat="42.9058820" lon="-8.4076160">
        <ele>326.6</ele>
        <time>2021-07-26T09:06:12Z</time>
      </trkpt>
      <trkpt lat="42.9058760" lon="-8.4076410">
        <ele>327.0</ele>
        <time>2021-07-26T09:06:13Z</time>
      </trkpt>
      <trkpt lat="42.9058790" lon="-8.4076650">
        <ele>327.6</ele>
        <time>2021-07-26T09:06:14Z</time>
      </trkpt>
      <trkpt lat="42.9058720" lon="-8.4076920">
        <ele>328.0</ele>
        <time>2021-07-26T09:06:15Z</time>
      </trkpt>
      <trkpt lat="42.9058600" lon="-8.4078170">
        <ele>328.0</ele>
        <time>2021-07-26T09:06:21Z</time>
      </trkpt>
      <trkpt lat="42.9058530" lon="-8.4079200">
        <ele>328.4</ele>
        <time>2021-07-26T09:06:24Z</time>
      </trkpt>
      <trkpt lat="42.9058440" lon="-8.4079540">
        <ele>328.8</ele>
        <time>2021-07-26T09:06:25Z</time>
      </trkpt>
      <trkpt lat="42.9058370" lon="-8.4079780">
        <ele>329.2</ele>
        <time>2021-07-26T09:06:26Z</time>
      </trkpt>
      <trkpt lat="42.9058310" lon="-8.4080030">
        <ele>329.6</ele>
        <time>2021-07-26T09:06:27Z</time>
      </trkpt>
      <trkpt lat="42.9058290" lon="-8.4080340">
        <ele>330.0</ele>
        <time>2021-07-26T09:06:28Z</time>
      </trkpt>
      <trkpt lat="42.9058230" lon="-8.4080550">
        <ele>330.0</ele>
        <time>2021-07-26T09:06:29Z</time>
      </trkpt>
      <trkpt lat="42.9058090" lon="-8.4080980">
        <ele>330.0</ele>
        <time>2021-07-26T09:06:31Z</time>
      </trkpt>
      <trkpt lat="42.9058010" lon="-8.4081160">
        <ele>330.0</ele>
        <time>2021-07-26T09:06:32Z</time>
      </trkpt>
      <trkpt lat="42.9057960" lon="-8.4081750">
        <ele>330.0</ele>
        <time>2021-07-26T09:06:34Z</time>
      </trkpt>
      <trkpt lat="42.9057780" lon="-8.4082750">
        <ele>330.0</ele>
        <time>2021-07-26T09:06:37Z</time>
      </trkpt>
      <trkpt lat="42.9057660" lon="-8.4084420">
        <ele>330.0</ele>
        <time>2021-07-26T09:06:43Z</time>
      </trkpt>
      <trkpt lat="42.9057740" lon="-8.4085070">
        <ele>330.4</ele>
        <time>2021-07-26T09:06:45Z</time>
      </trkpt>
      <trkpt lat="42.9057860" lon="-8.4085370">
        <ele>330.8</ele>
        <time>2021-07-26T09:06:46Z</time>
      </trkpt>
      <trkpt lat="42.9058020" lon="-8.4085640">
        <ele>331.4</ele>
        <time>2021-07-26T09:06:47Z</time>
      </trkpt>
      <trkpt lat="42.9058150" lon="-8.4085920">
        <ele>331.8</ele>
        <time>2021-07-26T09:06:48Z</time>
      </trkpt>
      <trkpt lat="42.9058240" lon="-8.4086210">
        <ele>332.2</ele>
        <time>2021-07-26T09:06:49Z</time>
      </trkpt>
      <trkpt lat="42.9059000" lon="-8.4088160">
        <ele>332.2</ele>
        <time>2021-07-26T09:06:55Z</time>
      </trkpt>
      <trkpt lat="42.9059340" lon="-8.4089440">
        <ele>332.6</ele>
        <time>2021-07-26T09:06:59Z</time>
      </trkpt>
      <trkpt lat="42.9059400" lon="-8.4089710">
        <ele>333.0</ele>
        <time>2021-07-26T09:07:00Z</time>
      </trkpt>
      <trkpt lat="42.9059400" lon="-8.4090080">
        <ele>333.4</ele>
        <time>2021-07-26T09:07:01Z</time>
      </trkpt>
      <trkpt lat="42.9059480" lon="-8.4090360">
        <ele>333.8</ele>
        <time>2021-07-26T09:07:02Z</time>
      </trkpt>
      <trkpt lat="42.9059620" lon="-8.4090620">
        <ele>334.2</ele>
        <time>2021-07-26T09:07:03Z</time>
      </trkpt>
      <trkpt lat="42.9059990" lon="-8.4091910">
        <ele>334.2</ele>
        <time>2021-07-26T09:07:08Z</time>
      </trkpt>
      <trkpt lat="42.9060470" lon="-8.4092750">
        <ele>334.6</ele>
        <time>2021-07-26T09:07:13Z</time>
      </trkpt>
      <trkpt lat="42.9060640" lon="-8.4092960">
        <ele>335.0</ele>
        <time>2021-07-26T09:07:14Z</time>
      </trkpt>
      <trkpt lat="42.9060840" lon="-8.4093160">
        <ele>335.6</ele>
        <time>2021-07-26T09:07:15Z</time>
      </trkpt>
      <trkpt lat="42.9061030" lon="-8.4093350">
        <ele>336.0</ele>
        <time>2021-07-26T09:07:16Z</time>
      </trkpt>
      <trkpt lat="42.9061140" lon="-8.4093570">
        <ele>336.4</ele>
        <time>2021-07-26T09:07:17Z</time>
      </trkpt>
      <trkpt lat="42.9061620" lon="-8.4094680">
        <ele>336.4</ele>
        <time>2021-07-26T09:07:21Z</time>
      </trkpt>
      <trkpt lat="42.9061790" lon="-8.4095770">
        <ele>336.8</ele>
        <time>2021-07-26T09:07:26Z</time>
      </trkpt>
      <trkpt lat="42.9061800" lon="-8.4095980">
        <ele>337.2</ele>
        <time>2021-07-26T09:07:27Z</time>
      </trkpt>
      <trkpt lat="42.9061830" lon="-8.4096150">
        <ele>337.8</ele>
        <time>2021-07-26T09:07:28Z</time>
      </trkpt>
      <trkpt lat="42.9061880" lon="-8.4096340">
        <ele>338.2</ele>
        <time>2021-07-26T09:07:29Z</time>
      </trkpt>
      <trkpt lat="42.9061940" lon="-8.4096510">
        <ele>338.6</ele>
        <time>2021-07-26T09:07:30Z</time>
      </trkpt>
      <trkpt lat="42.9062080" lon="-8.4097000">
        <ele>338.6</ele>
        <time>2021-07-26T09:07:34Z</time>
      </trkpt>
      <trkpt lat="42.9062160" lon="-8.4097210">
        <ele>338.6</ele>
        <time>2021-07-26T09:07:35Z</time>
      </trkpt>
      <trkpt lat="42.9062400" lon="-8.4097760">
        <ele>339.0</ele>
        <time>2021-07-26T09:07:38Z</time>
      </trkpt>
      <trkpt lat="42.9062460" lon="-8.4097850">
        <ele>339.4</ele>
        <time>2021-07-26T09:07:39Z</time>
      </trkpt>
      <trkpt lat="42.9062530" lon="-8.4097920">
        <ele>339.8</ele>
        <time>2021-07-26T09:07:40Z</time>
      </trkpt>
      <trkpt lat="42.9062600" lon="-8.4098030">
        <ele>340.2</ele>
        <time>2021-07-26T09:07:41Z</time>
      </trkpt>
      <trkpt lat="42.9062670" lon="-8.4098180">
        <ele>340.6</ele>
        <time>2021-07-26T09:07:42Z</time>
      </trkpt>
      <trkpt lat="42.9063040" lon="-8.4098890">
        <ele>340.6</ele>
        <time>2021-07-26T09:07:46Z</time>
      </trkpt>
      <trkpt lat="42.9063310" lon="-8.4099420">
        <ele>341.0</ele>
        <time>2021-07-26T09:07:49Z</time>
      </trkpt>
      <trkpt lat="42.9063430" lon="-8.4099610">
        <ele>341.4</ele>
        <time>2021-07-26T09:07:50Z</time>
      </trkpt>
      <trkpt lat="42.9063610" lon="-8.4099840">
        <ele>341.8</ele>
        <time>2021-07-26T09:07:51Z</time>
      </trkpt>
      <trkpt lat="42.9063770" lon="-8.4099990">
        <ele>342.2</ele>
        <time>2021-07-26T09:07:52Z</time>
      </trkpt>
      <trkpt lat="42.9063900" lon="-8.4100180">
        <ele>342.6</ele>
        <time>2021-07-26T09:07:53Z</time>
      </trkpt>
      <trkpt lat="42.9064040" lon="-8.4100320">
        <ele>342.6</ele>
        <time>2021-07-26T09:07:54Z</time>
      </trkpt>
      <trkpt lat="42.9064980" lon="-8.4101900">
        <ele>343.2</ele>
        <time>2021-07-26T09:08:00Z</time>
      </trkpt>
      <trkpt lat="42.9065140" lon="-8.4102240">
        <ele>343.6</ele>
        <time>2021-07-26T09:08:01Z</time>
      </trkpt>
      <trkpt lat="42.9065320" lon="-8.4102630">
        <ele>344.0</ele>
        <time>2021-07-26T09:08:02Z</time>
      </trkpt>
      <trkpt lat="42.9065470" lon="-8.4102950">
        <ele>344.4</ele>
        <time>2021-07-26T09:08:03Z</time>
      </trkpt>
      <trkpt lat="42.9065640" lon="-8.4103210">
        <ele>344.8</ele>
        <time>2021-07-26T09:08:04Z</time>
      </trkpt>
      <trkpt lat="42.9066160" lon="-8.4104030">
        <ele>344.8</ele>
        <time>2021-07-26T09:08:08Z</time>
      </trkpt>
      <trkpt lat="42.9066480" lon="-8.4104650">
        <ele>345.2</ele>
        <time>2021-07-26T09:08:10Z</time>
      </trkpt>
      <trkpt lat="42.9066630" lon="-8.4104980">
        <ele>345.8</ele>
        <time>2021-07-26T09:08:11Z</time>
      </trkpt>
      <trkpt lat="42.9066790" lon="-8.4105190">
        <ele>346.2</ele>
        <time>2021-07-26T09:08:12Z</time>
      </trkpt>
      <trkpt lat="42.9066940" lon="-8.4105380">
        <ele>346.6</ele>
        <time>2021-07-26T09:08:13Z</time>
      </trkpt>
      <trkpt lat="42.9067070" lon="-8.4105510">
        <ele>347.0</ele>
        <time>2021-07-26T09:08:14Z</time>
      </trkpt>
      <trkpt lat="42.9068360" lon="-8.4106770">
        <ele>347.0</ele>
        <time>2021-07-26T09:08:22Z</time>
      </trkpt>
      <trkpt lat="42.9070050" lon="-8.4108180">
        <ele>347.0</ele>
        <time>2021-07-26T09:08:29Z</time>
      </trkpt>
      <trkpt lat="42.9071210" lon="-8.4109410">
        <ele>347.4</ele>
        <time>2021-07-26T09:08:33Z</time>
      </trkpt>
      <trkpt lat="42.9071490" lon="-8.4109620">
        <ele>348.2</ele>
        <time>2021-07-26T09:08:34Z</time>
      </trkpt>
      <trkpt lat="42.9071830" lon="-8.4109820">
        <ele>348.6</ele>
        <time>2021-07-26T09:08:35Z</time>
      </trkpt>
      <trkpt lat="42.9072060" lon="-8.4110260">
        <ele>349.0</ele>
        <time>2021-07-26T09:08:36Z</time>
      </trkpt>
      <trkpt lat="42.9073200" lon="-8.4111690">
        <ele>349.0</ele>
        <time>2021-07-26T09:08:41Z</time>
      </trkpt>
      <trkpt lat="42.9074210" lon="-8.4113460">
        <ele>349.0</ele>
        <time>2021-07-26T09:08:47Z</time>
      </trkpt>
      <trkpt lat="42.9074310" lon="-8.4113660">
        <ele>349.4</ele>
        <time>2021-07-26T09:08:48Z</time>
      </trkpt>
      <trkpt lat="42.9074430" lon="-8.4113910">
        <ele>349.8</ele>
        <time>2021-07-26T09:08:49Z</time>
      </trkpt>
      <trkpt lat="42.9074520" lon="-8.4114180">
        <ele>350.4</ele>
        <time>2021-07-26T09:08:50Z</time>
      </trkpt>
      <trkpt lat="42.9074640" lon="-8.4114410">
        <ele>350.8</ele>
        <time>2021-07-26T09:08:51Z</time>
      </trkpt>
      <trkpt lat="42.9074770" lon="-8.4114710">
        <ele>351.2</ele>
        <time>2021-07-26T09:08:52Z</time>
      </trkpt>
      <trkpt lat="42.9074860" lon="-8.4114950">
        <ele>351.2</ele>
        <time>2021-07-26T09:08:53Z</time>
      </trkpt>
      <trkpt lat="42.9075030" lon="-8.4115430">
        <ele>351.2</ele>
        <time>2021-07-26T09:08:55Z</time>
      </trkpt>
      <trkpt lat="42.9075160" lon="-8.4116400">
        <ele>351.2</ele>
        <time>2021-07-26T09:08:58Z</time>
      </trkpt>
      <trkpt lat="42.9075200" lon="-8.4117260">
        <ele>351.2</ele>
        <time>2021-07-26T09:09:01Z</time>
      </trkpt>
      <trkpt lat="42.9075340" lon="-8.4117780">
        <ele>351.6</ele>
        <time>2021-07-26T09:09:03Z</time>
      </trkpt>
      <trkpt lat="42.9075450" lon="-8.4118040">
        <ele>352.0</ele>
        <time>2021-07-26T09:09:04Z</time>
      </trkpt>
      <trkpt lat="42.9075540" lon="-8.4118300">
        <ele>352.4</ele>
        <time>2021-07-26T09:09:05Z</time>
      </trkpt>
      <trkpt lat="42.9075660" lon="-8.4118520">
        <ele>352.8</ele>
        <time>2021-07-26T09:09:06Z</time>
      </trkpt>
      <trkpt lat="42.9075750" lon="-8.4118770">
        <ele>353.2</ele>
        <time>2021-07-26T09:09:07Z</time>
      </trkpt>
      <trkpt lat="42.9076050" lon="-8.4119660">
        <ele>353.2</ele>
        <time>2021-07-26T09:09:10Z</time>
      </trkpt>
      <trkpt lat="42.9076130" lon="-8.4119940">
        <ele>353.2</ele>
        <time>2021-07-26T09:09:11Z</time>
      </trkpt>
      <trkpt lat="42.9076920" lon="-8.4121670">
        <ele>353.6</ele>
        <time>2021-07-26T09:09:18Z</time>
      </trkpt>
      <trkpt lat="42.9077000" lon="-8.4121850">
        <ele>354.0</ele>
        <time>2021-07-26T09:09:19Z</time>
      </trkpt>
      <trkpt lat="42.9077100" lon="-8.4122090">
        <ele>354.4</ele>
        <time>2021-07-26T09:09:20Z</time>
      </trkpt>
      <trkpt lat="42.9077130" lon="-8.4122380">
        <ele>354.8</ele>
        <time>2021-07-26T09:09:21Z</time>
      </trkpt>
      <trkpt lat="42.9077060" lon="-8.4122810">
        <ele>355.2</ele>
        <time>2021-07-26T09:09:22Z</time>
      </trkpt>
      <trkpt lat="42.9077080" lon="-8.4123090">
        <ele>355.2</ele>
        <time>2021-07-26T09:09:23Z</time>
      </trkpt>
      <trkpt lat="42.9077030" lon="-8.4124580">
        <ele>355.2</ele>
        <time>2021-07-26T09:09:28Z</time>
      </trkpt>
      <trkpt lat="42.9077290" lon="-8.4125350">
        <ele>355.6</ele>
        <time>2021-07-26T09:09:31Z</time>
      </trkpt>
      <trkpt lat="42.9077390" lon="-8.4125650">
        <ele>356.0</ele>
        <time>2021-07-26T09:09:32Z</time>
      </trkpt>
      <trkpt lat="42.9077450" lon="-8.4125940">
        <ele>356.4</ele>
        <time>2021-07-26T09:09:33Z</time>
      </trkpt>
      <trkpt lat="42.9077490" lon="-8.4126170">
        <ele>356.8</ele>
        <time>2021-07-26T09:09:34Z</time>
      </trkpt>
      <trkpt lat="42.9077600" lon="-8.4126330">
        <ele>357.2</ele>
        <time>2021-07-26T09:09:35Z</time>
      </trkpt>
      <trkpt lat="42.9077750" lon="-8.4126940">
        <ele>357.2</ele>
        <time>2021-07-26T09:09:38Z</time>
      </trkpt>
      <trkpt lat="42.9078160" lon="-8.4127900">
        <ele>357.2</ele>
        <time>2021-07-26T09:09:42Z</time>
      </trkpt>
      <trkpt lat="42.9078290" lon="-8.4128380">
        <ele>357.2</ele>
        <time>2021-07-26T09:09:44Z</time>
      </trkpt>
      <trkpt lat="42.9078380" lon="-8.4128650">
        <ele>357.6</ele>
        <time>2021-07-26T09:09:45Z</time>
      </trkpt>
      <trkpt lat="42.9078460" lon="-8.4128940">
        <ele>358.0</ele>
        <time>2021-07-26T09:09:46Z</time>
      </trkpt>
      <trkpt lat="42.9078420" lon="-8.4129210">
        <ele>358.4</ele>
        <time>2021-07-26T09:09:47Z</time>
      </trkpt>
      <trkpt lat="42.9078450" lon="-8.4129430">
        <ele>359.2</ele>
        <time>2021-07-26T09:09:48Z</time>
      </trkpt>
      <trkpt lat="42.9078570" lon="-8.4129950">
        <ele>359.2</ele>
        <time>2021-07-26T09:09:50Z</time>
      </trkpt>
      <trkpt lat="42.9079100" lon="-8.4131960">
        <ele>359.2</ele>
        <time>2021-07-26T09:09:57Z</time>
      </trkpt>
      <trkpt lat="42.9079620" lon="-8.4133890">
        <ele>359.2</ele>
        <time>2021-07-26T09:10:04Z</time>
      </trkpt>
      <trkpt lat="42.9079750" lon="-8.4134190">
        <ele>359.6</ele>
        <time>2021-07-26T09:10:05Z</time>
      </trkpt>
      <trkpt lat="42.9079750" lon="-8.4134490">
        <ele>360.0</ele>
        <time>2021-07-26T09:10:06Z</time>
      </trkpt>
      <trkpt lat="42.9079790" lon="-8.4134720">
        <ele>360.4</ele>
        <time>2021-07-26T09:10:07Z</time>
      </trkpt>
      <trkpt lat="42.9079830" lon="-8.4134980">
        <ele>360.8</ele>
        <time>2021-07-26T09:10:08Z</time>
      </trkpt>
      <trkpt lat="42.9079930" lon="-8.4135300">
        <ele>361.2</ele>
        <time>2021-07-26T09:10:09Z</time>
      </trkpt>
      <trkpt lat="42.9080550" lon="-8.4137330">
        <ele>361.2</ele>
        <time>2021-07-26T09:10:15Z</time>
      </trkpt>
      <trkpt lat="42.9081200" lon="-8.4138700">
        <ele>361.2</ele>
        <time>2021-07-26T09:10:20Z</time>
      </trkpt>
      <trkpt lat="42.9081610" lon="-8.4140700">
        <ele>361.2</ele>
        <time>2021-07-26T09:10:26Z</time>
      </trkpt>
      <trkpt lat="42.9082040" lon="-8.4142760">
        <ele>361.2</ele>
        <time>2021-07-26T09:10:31Z</time>
      </trkpt>
      <trkpt lat="42.9082410" lon="-8.4144480">
        <ele>361.2</ele>
        <time>2021-07-26T09:10:36Z</time>
      </trkpt>
      <trkpt lat="42.9082940" lon="-8.4145830">
        <ele>361.2</ele>
        <time>2021-07-26T09:10:40Z</time>
      </trkpt>
      <trkpt lat="42.9083020" lon="-8.4146210">
        <ele>361.2</ele>
        <time>2021-07-26T09:10:41Z</time>
      </trkpt>
      <trkpt lat="42.9083230" lon="-8.4146720">
        <ele>361.2</ele>
        <time>2021-07-26T09:10:43Z</time>
      </trkpt>
      <trkpt lat="42.9083460" lon="-8.4147090">
        <ele>361.2</ele>
        <time>2021-07-26T09:10:45Z</time>
      </trkpt>
      <trkpt lat="42.9083580" lon="-8.4147370">
        <ele>361.2</ele>
        <time>2021-07-26T09:10:46Z</time>
      </trkpt>
      <trkpt lat="42.9083670" lon="-8.4147870">
        <ele>361.2</ele>
        <time>2021-07-26T09:10:48Z</time>
      </trkpt>
      <trkpt lat="42.9083700" lon="-8.4148000">
        <ele>361.2</ele>
        <time>2021-07-26T09:10:51Z</time>
      </trkpt>
      <trkpt lat="42.9084180" lon="-8.4148130">
        <ele>359.2</ele>
        <time>2021-07-26T09:15:03Z</time>
      </trkpt>
      <trkpt lat="42.9084380" lon="-8.4148120">
        <ele>359.2</ele>
        <time>2021-07-26T09:15:04Z</time>
      </trkpt>
      <trkpt lat="42.9084870" lon="-8.4148160">
        <ele>359.2</ele>
        <time>2021-07-26T09:15:06Z</time>
      </trkpt>
      <trkpt lat="42.9086810" lon="-8.4148260">
        <ele>359.2</ele>
        <time>2021-07-26T09:15:13Z</time>
      </trkpt>
      <trkpt lat="42.9088640" lon="-8.4148100">
        <ele>359.2</ele>
        <time>2021-07-26T09:15:18Z</time>
      </trkpt>
      <trkpt lat="42.9090630" lon="-8.4147730">
        <ele>359.2</ele>
        <time>2021-07-26T09:15:23Z</time>
      </trkpt>
      <trkpt lat="42.9091000" lon="-8.4147580">
        <ele>359.2</ele>
        <time>2021-07-26T09:15:24Z</time>
      </trkpt>
      <trkpt lat="42.9093270" lon="-8.4147100">
        <ele>359.2</ele>
        <time>2021-07-26T09:15:30Z</time>
      </trkpt>
      <trkpt lat="42.9095370" lon="-8.4146490">
        <ele>359.2</ele>
        <time>2021-07-26T09:15:36Z</time>
      </trkpt>
      <trkpt lat="42.9097450" lon="-8.4145760">
        <ele>359.2</ele>
        <time>2021-07-26T09:15:42Z</time>
      </trkpt>
      <trkpt lat="42.9098620" lon="-8.4145560">
        <ele>359.2</ele>
        <time>2021-07-26T09:15:45Z</time>
      </trkpt>
      <trkpt lat="42.9100160" lon="-8.4145390">
        <ele>359.2</ele>
        <time>2021-07-26T09:15:49Z</time>
      </trkpt>
      <trkpt lat="42.9103120" lon="-8.4145210">
        <ele>359.2</ele>
        <time>2021-07-26T09:15:56Z</time>
      </trkpt>
      <trkpt lat="42.9105660" lon="-8.4144890">
        <ele>359.2</ele>
        <time>2021-07-26T09:16:02Z</time>
      </trkpt>
      <trkpt lat="42.9106600" lon="-8.4144840">
        <ele>359.2</ele>
        <time>2021-07-26T09:16:04Z</time>
      </trkpt>
      <trkpt lat="42.9107540" lon="-8.4144750">
        <ele>359.2</ele>
        <time>2021-07-26T09:16:06Z</time>
      </trkpt>
      <trkpt lat="42.9108890" lon="-8.4144510">
        <ele>359.2</ele>
        <time>2021-07-26T09:16:09Z</time>
      </trkpt>
      <trkpt lat="42.9109320" lon="-8.4144440">
        <ele>359.2</ele>
        <time>2021-07-26T09:16:10Z</time>
      </trkpt>
      <trkpt lat="42.9110150" lon="-8.4144320">
        <ele>359.2</ele>
        <time>2021-07-26T09:16:12Z</time>
      </trkpt>
      <trkpt lat="42.9112400" lon="-8.4144010">
        <ele>359.2</ele>
        <time>2021-07-26T09:16:17Z</time>
      </trkpt>
      <trkpt lat="42.9113260" lon="-8.4143930">
        <ele>359.2</ele>
        <time>2021-07-26T09:16:19Z</time>
      </trkpt>
      <trkpt lat="42.9114920" lon="-8.4143480">
        <ele>359.2</ele>
        <time>2021-07-26T09:16:23Z</time>
      </trkpt>
      <trkpt lat="42.9118090" lon="-8.4142820">
        <ele>359.2</ele>
        <time>2021-07-26T09:16:30Z</time>
      </trkpt>
      <trkpt lat="42.9120690" lon="-8.4142300">
        <ele>359.2</ele>
        <time>2021-07-26T09:16:36Z</time>
      </trkpt>
      <trkpt lat="42.9123410" lon="-8.4141810">
        <ele>359.2</ele>
        <time>2021-07-26T09:16:42Z</time>
      </trkpt>
      <trkpt lat="42.9125700" lon="-8.4141780">
        <ele>359.2</ele>
        <time>2021-07-26T09:16:47Z</time>
      </trkpt>
      <trkpt lat="42.9127110" lon="-8.4141610">
        <ele>359.2</ele>
        <time>2021-07-26T09:16:50Z</time>
      </trkpt>
      <trkpt lat="42.9128640" lon="-8.4141460">
        <ele>359.2</ele>
        <time>2021-07-26T09:16:53Z</time>
      </trkpt>
      <trkpt lat="42.9130150" lon="-8.4141320">
        <ele>359.2</ele>
        <time>2021-07-26T09:16:56Z</time>
      </trkpt>
      <trkpt lat="42.9132570" lon="-8.4141290">
        <ele>359.2</ele>
        <time>2021-07-26T09:17:01Z</time>
      </trkpt>
      <trkpt lat="42.9134150" lon="-8.4141010">
        <ele>359.2</ele>
        <time>2021-07-26T09:17:05Z</time>
      </trkpt>
      <trkpt lat="42.9135190" lon="-8.4140870">
        <ele>359.2</ele>
        <time>2021-07-26T09:17:08Z</time>
      </trkpt>
      <trkpt lat="42.9136580" lon="-8.4141250">
        <ele>359.2</ele>
        <time>2021-07-26T09:17:13Z</time>
      </trkpt>
      <trkpt lat="42.9136720" lon="-8.4141490">
        <ele>358.8</ele>
        <time>2021-07-26T09:17:14Z</time>
      </trkpt>
      <trkpt lat="42.9136830" lon="-8.4141830">
        <ele>358.4</ele>
        <time>2021-07-26T09:17:15Z</time>
      </trkpt>
      <trkpt lat="42.9136860" lon="-8.4142180">
        <ele>357.8</ele>
        <time>2021-07-26T09:17:16Z</time>
      </trkpt>
      <trkpt lat="42.9136780" lon="-8.4142540">
        <ele>357.4</ele>
        <time>2021-07-26T09:17:17Z</time>
      </trkpt>
      <trkpt lat="42.9136650" lon="-8.4142980">
        <ele>357.0</ele>
        <time>2021-07-26T09:17:18Z</time>
      </trkpt>
      <trkpt lat="42.9136590" lon="-8.4143520">
        <ele>357.0</ele>
        <time>2021-07-26T09:17:19Z</time>
      </trkpt>
      <trkpt lat="42.9136510" lon="-8.4144570">
        <ele>357.0</ele>
        <time>2021-07-26T09:17:21Z</time>
      </trkpt>
      <trkpt lat="42.9136520" lon="-8.4145640">
        <ele>357.0</ele>
        <time>2021-07-26T09:17:23Z</time>
      </trkpt>
      <trkpt lat="42.9136500" lon="-8.4147290">
        <ele>357.0</ele>
        <time>2021-07-26T09:17:26Z</time>
      </trkpt>
      <trkpt lat="42.9136550" lon="-8.4147840">
        <ele>357.0</ele>
        <time>2021-07-26T09:17:27Z</time>
      </trkpt>
      <trkpt lat="42.9136610" lon="-8.4150420">
        <ele>357.0</ele>
        <time>2021-07-26T09:17:32Z</time>
      </trkpt>
      <trkpt lat="42.9136600" lon="-8.4150890">
        <ele>357.0</ele>
        <time>2021-07-26T09:17:33Z</time>
      </trkpt>
      <trkpt lat="42.9136670" lon="-8.4151840">
        <ele>357.0</ele>
        <time>2021-07-26T09:17:36Z</time>
      </trkpt>
      <trkpt lat="42.9136680" lon="-8.4151960">
        <ele>356.6</ele>
        <time>2021-07-26T09:17:37Z</time>
      </trkpt>
      <trkpt lat="42.9136670" lon="-8.4152000">
        <ele>355.8</ele>
        <time>2021-07-26T09:17:38Z</time>
      </trkpt>
      <trkpt lat="42.9136680" lon="-8.4152160">
        <ele>355.0</ele>
        <time>2021-07-26T09:17:48Z</time>
      </trkpt>
      <trkpt lat="42.9136700" lon="-8.4152690">
        <ele>355.0</ele>
        <time>2021-07-26T09:17:50Z</time>
      </trkpt>
      <trkpt lat="42.9136650" lon="-8.4153970">
        <ele>355.0</ele>
        <time>2021-07-26T09:17:53Z</time>
      </trkpt>
      <trkpt lat="42.9136570" lon="-8.4155320">
        <ele>355.0</ele>
        <time>2021-07-26T09:17:55Z</time>
      </trkpt>
      <trkpt lat="42.9136580" lon="-8.4156030">
        <ele>355.0</ele>
        <time>2021-07-26T09:17:56Z</time>
      </trkpt>
      <trkpt lat="42.9136700" lon="-8.4159270">
        <ele>354.6</ele>
        <time>2021-07-26T09:18:00Z</time>
      </trkpt>
      <trkpt lat="42.9136720" lon="-8.4160160">
        <ele>354.2</ele>
        <time>2021-07-26T09:18:01Z</time>
      </trkpt>
      <trkpt lat="42.9136770" lon="-8.4161040">
        <ele>353.8</ele>
        <time>2021-07-26T09:18:02Z</time>
      </trkpt>
      <trkpt lat="42.9136810" lon="-8.4161950">
        <ele>352.8</ele>
        <time>2021-07-26T09:18:03Z</time>
      </trkpt>
      <trkpt lat="42.9136870" lon="-8.4163900">
        <ele>352.8</ele>
        <time>2021-07-26T09:18:05Z</time>
      </trkpt>
      <trkpt lat="42.9136870" lon="-8.4164920">
        <ele>352.8</ele>
        <time>2021-07-26T09:18:06Z</time>
      </trkpt>
      <trkpt lat="42.9136880" lon="-8.4165960">
        <ele>352.4</ele>
        <time>2021-07-26T09:18:07Z</time>
      </trkpt>
      <trkpt lat="42.9136860" lon="-8.4167050">
        <ele>352.0</ele>
        <time>2021-07-26T09:18:08Z</time>
      </trkpt>
      <trkpt lat="42.9136850" lon="-8.4168230">
        <ele>351.6</ele>
        <time>2021-07-26T09:18:09Z</time>
      </trkpt>
      <trkpt lat="42.9136860" lon="-8.4169390">
        <ele>351.2</ele>
        <time>2021-07-26T09:18:10Z</time>
      </trkpt>
      <trkpt lat="42.9136880" lon="-8.4170600">
        <ele>350.8</ele>
        <time>2021-07-26T09:18:11Z</time>
      </trkpt>
      <trkpt lat="42.9136900" lon="-8.4171860">
        <ele>350.4</ele>
        <time>2021-07-26T09:18:12Z</time>
      </trkpt>
      <trkpt lat="42.9136910" lon="-8.4173130">
        <ele>349.8</ele>
        <time>2021-07-26T09:18:13Z</time>
      </trkpt>
      <trkpt lat="42.9136910" lon="-8.4174430">
        <ele>349.4</ele>
        <time>2021-07-26T09:18:14Z</time>
      </trkpt>
      <trkpt lat="42.9136910" lon="-8.4175750">
        <ele>348.8</ele>
        <time>2021-07-26T09:18:15Z</time>
      </trkpt>
      <trkpt lat="42.9136900" lon="-8.4177150">
        <ele>348.4</ele>
        <time>2021-07-26T09:18:16Z</time>
      </trkpt>
      <trkpt lat="42.9136870" lon="-8.4178500">
        <ele>348.0</ele>
        <time>2021-07-26T09:18:17Z</time>
      </trkpt>
      <trkpt lat="42.9136840" lon="-8.4179600">
        <ele>347.6</ele>
        <time>2021-07-26T09:18:18Z</time>
      </trkpt>
      <trkpt lat="42.9136780" lon="-8.4180680">
        <ele>347.0</ele>
        <time>2021-07-26T09:18:19Z</time>
      </trkpt>
      <trkpt lat="42.9136670" lon="-8.4181620">
        <ele>346.4</ele>
        <time>2021-07-26T09:18:20Z</time>
      </trkpt>
      <trkpt lat="42.9136480" lon="-8.4182420">
        <ele>345.6</ele>
        <time>2021-07-26T09:18:21Z</time>
      </trkpt>
      <trkpt lat="42.9136320" lon="-8.4183130">
        <ele>345.0</ele>
        <time>2021-07-26T09:18:22Z</time>
      </trkpt>
      <trkpt lat="42.9136200" lon="-8.4183750">
        <ele>344.4</ele>
        <time>2021-07-26T09:18:23Z</time>
      </trkpt>
      <trkpt lat="42.9136150" lon="-8.4184280">
        <ele>343.6</ele>
        <time>2021-07-26T09:18:24Z</time>
      </trkpt>
      <trkpt lat="42.9136280" lon="-8.4185270">
        <ele>343.6</ele>
        <time>2021-07-26T09:18:26Z</time>
      </trkpt>
      <trkpt lat="42.9136410" lon="-8.4185800">
        <ele>343.2</ele>
        <time>2021-07-26T09:18:27Z</time>
      </trkpt>
      <trkpt lat="42.9136560" lon="-8.4186380">
        <ele>342.4</ele>
        <time>2021-07-26T09:18:28Z</time>
      </trkpt>
      <trkpt lat="42.9136630" lon="-8.4186990">
        <ele>342.0</ele>
        <time>2021-07-26T09:18:29Z</time>
      </trkpt>
      <trkpt lat="42.9136660" lon="-8.4187660">
        <ele>341.4</ele>
        <time>2021-07-26T09:18:30Z</time>
      </trkpt>
      <trkpt lat="42.9136830" lon="-8.4191590">
        <ele>341.0</ele>
        <time>2021-07-26T09:18:36Z</time>
      </trkpt>
      <trkpt lat="42.9136900" lon="-8.4192190">
        <ele>340.6</ele>
        <time>2021-07-26T09:18:37Z</time>
      </trkpt>
      <trkpt lat="42.9136990" lon="-8.4192800">
        <ele>340.2</ele>
        <time>2021-07-26T09:18:38Z</time>
      </trkpt>
      <trkpt lat="42.9137070" lon="-8.4193410">
        <ele>339.8</ele>
        <time>2021-07-26T09:18:39Z</time>
      </trkpt>
      <trkpt lat="42.9137110" lon="-8.4194020">
        <ele>339.4</ele>
        <time>2021-07-26T09:18:40Z</time>
      </trkpt>
      <trkpt lat="42.9137110" lon="-8.4196480">
        <ele>339.4</ele>
        <time>2021-07-26T09:18:44Z</time>
      </trkpt>
      <trkpt lat="42.9136410" lon="-8.4199730">
        <ele>339.4</ele>
        <time>2021-07-26T09:18:49Z</time>
      </trkpt>
      <trkpt lat="42.9135520" lon="-8.4201030">
        <ele>339.0</ele>
        <time>2021-07-26T09:18:52Z</time>
      </trkpt>
      <trkpt lat="42.9135350" lon="-8.4201310">
        <ele>338.2</ele>
        <time>2021-07-26T09:18:53Z</time>
      </trkpt>
      <trkpt lat="42.9135190" lon="-8.4201570">
        <ele>337.8</ele>
        <time>2021-07-26T09:18:54Z</time>
      </trkpt>
      <trkpt lat="42.9135060" lon="-8.4201800">
        <ele>337.4</ele>
        <time>2021-07-26T09:18:55Z</time>
      </trkpt>
      <trkpt lat="42.9134810" lon="-8.4202850">
        <ele>337.4</ele>
        <time>2021-07-26T09:18:58Z</time>
      </trkpt>
      <trkpt lat="42.9134730" lon="-8.4204630">
        <ele>337.4</ele>
        <time>2021-07-26T09:19:01Z</time>
      </trkpt>
      <trkpt lat="42.9134780" lon="-8.4205250">
        <ele>336.8</ele>
        <time>2021-07-26T09:19:02Z</time>
      </trkpt>
      <trkpt lat="42.9134910" lon="-8.4205840">
        <ele>336.4</ele>
        <time>2021-07-26T09:19:03Z</time>
      </trkpt>
      <trkpt lat="42.9135040" lon="-8.4206440">
        <ele>335.8</ele>
        <time>2021-07-26T09:19:04Z</time>
      </trkpt>
      <trkpt lat="42.9135150" lon="-8.4207140">
        <ele>335.4</ele>
        <time>2021-07-26T09:19:05Z</time>
      </trkpt>
      <trkpt lat="42.9135180" lon="-8.4207960">
        <ele>334.8</ele>
        <time>2021-07-26T09:19:06Z</time>
      </trkpt>
      <trkpt lat="42.9135160" lon="-8.4208790">
        <ele>334.2</ele>
        <time>2021-07-26T09:19:07Z</time>
      </trkpt>
      <trkpt lat="42.9135100" lon="-8.4209550">
        <ele>333.6</ele>
        <time>2021-07-26T09:19:08Z</time>
      </trkpt>
      <trkpt lat="42.9135040" lon="-8.4210290">
        <ele>333.0</ele>
        <time>2021-07-26T09:19:09Z</time>
      </trkpt>
      <trkpt lat="42.9134970" lon="-8.4211000">
        <ele>332.4</ele>
        <time>2021-07-26T09:19:10Z</time>
      </trkpt>
      <trkpt lat="42.9134930" lon="-8.4211590">
        <ele>332.0</ele>
        <time>2021-07-26T09:19:11Z</time>
      </trkpt>
      <trkpt lat="42.9134910" lon="-8.4212170">
        <ele>331.6</ele>
        <time>2021-07-26T09:19:12Z</time>
      </trkpt>
      <trkpt lat="42.9134890" lon="-8.4212730">
        <ele>331.2</ele>
        <time>2021-07-26T09:19:13Z</time>
      </trkpt>
      <trkpt lat="42.9134850" lon="-8.4213270">
        <ele>330.8</ele>
        <time>2021-07-26T09:19:14Z</time>
      </trkpt>
      <trkpt lat="42.9134820" lon="-8.4213750">
        <ele>330.4</ele>
        <time>2021-07-26T09:19:15Z</time>
      </trkpt>
      <trkpt lat="42.9134770" lon="-8.4214120">
        <ele>330.0</ele>
        <time>2021-07-26T09:19:16Z</time>
      </trkpt>
      <trkpt lat="42.9134740" lon="-8.4214370">
        <ele>329.0</ele>
        <time>2021-07-26T09:19:17Z</time>
      </trkpt>
      <trkpt lat="42.9134690" lon="-8.4214640">
        <ele>328.6</ele>
        <time>2021-07-26T09:19:18Z</time>
      </trkpt>
      <trkpt lat="42.9134670" lon="-8.4214940">
        <ele>328.2</ele>
        <time>2021-07-26T09:19:19Z</time>
      </trkpt>
      <trkpt lat="42.9134650" lon="-8.4215310">
        <ele>328.2</ele>
        <time>2021-07-26T09:19:20Z</time>
      </trkpt>
      <trkpt lat="42.9134860" lon="-8.4217680">
        <ele>327.6</ele>
        <time>2021-07-26T09:19:25Z</time>
      </trkpt>
      <trkpt lat="42.9134970" lon="-8.4218130">
        <ele>327.2</ele>
        <time>2021-07-26T09:19:26Z</time>
      </trkpt>
      <trkpt lat="42.9135010" lon="-8.4218510">
        <ele>326.8</ele>
        <time>2021-07-26T09:19:27Z</time>
      </trkpt>
      <trkpt lat="42.9135020" lon="-8.4218910">
        <ele>326.4</ele>
        <time>2021-07-26T09:19:28Z</time>
      </trkpt>
      <trkpt lat="42.9135010" lon="-8.4219300">
        <ele>326.0</ele>
        <time>2021-07-26T09:19:29Z</time>
      </trkpt>
      <trkpt lat="42.9134500" lon="-8.4221400">
        <ele>326.0</ele>
        <time>2021-07-26T09:19:35Z</time>
      </trkpt>
      <trkpt lat="42.9134380" lon="-8.4221850">
        <ele>326.0</ele>
        <time>2021-07-26T09:19:37Z</time>
      </trkpt>
      <trkpt lat="42.9134220" lon="-8.4222550">
        <ele>326.0</ele>
        <time>2021-07-26T09:19:39Z</time>
      </trkpt>
      <trkpt lat="42.9134070" lon="-8.4223230">
        <ele>326.0</ele>
        <time>2021-07-26T09:19:41Z</time>
      </trkpt>
      <trkpt lat="42.9133360" lon="-8.4225000">
        <ele>326.0</ele>
        <time>2021-07-26T09:19:48Z</time>
      </trkpt>
      <trkpt lat="42.9133080" lon="-8.4225570">
        <ele>325.6</ele>
        <time>2021-07-26T09:19:50Z</time>
      </trkpt>
      <trkpt lat="42.9132940" lon="-8.4225860">
        <ele>325.2</ele>
        <time>2021-07-26T09:19:51Z</time>
      </trkpt>
      <trkpt lat="42.9132740" lon="-8.4226200">
        <ele>324.8</ele>
        <time>2021-07-26T09:19:52Z</time>
      </trkpt>
      <trkpt lat="42.9132510" lon="-8.4226560">
        <ele>324.4</ele>
        <time>2021-07-26T09:19:53Z</time>
      </trkpt>
      <trkpt lat="42.9132240" lon="-8.4226950">
        <ele>324.0</ele>
        <time>2021-07-26T09:19:54Z</time>
      </trkpt>
      <trkpt lat="42.9130690" lon="-8.4229670">
        <ele>324.0</ele>
        <time>2021-07-26T09:20:00Z</time>
      </trkpt>
      <trkpt lat="42.9129130" lon="-8.4231840">
        <ele>324.0</ele>
        <time>2021-07-26T09:20:05Z</time>
      </trkpt>
      <trkpt lat="42.9128800" lon="-8.4232280">
        <ele>323.6</ele>
        <time>2021-07-26T09:20:06Z</time>
      </trkpt>
      <trkpt lat="42.9128430" lon="-8.4232790">
        <ele>322.8</ele>
        <time>2021-07-26T09:20:07Z</time>
      </trkpt>
      <trkpt lat="42.9127960" lon="-8.4233330">
        <ele>322.4</ele>
        <time>2021-07-26T09:20:08Z</time>
      </trkpt>
      <trkpt lat="42.9127520" lon="-8.4233800">
        <ele>322.0</ele>
        <time>2021-07-26T09:20:09Z</time>
      </trkpt>
      <trkpt lat="42.9127090" lon="-8.4234230">
        <ele>322.0</ele>
        <time>2021-07-26T09:20:10Z</time>
      </trkpt>
      <trkpt lat="42.9125190" lon="-8.4236180">
        <ele>322.0</ele>
        <time>2021-07-26T09:20:14Z</time>
      </trkpt>
      <trkpt lat="42.9124400" lon="-8.4236780">
        <ele>322.0</ele>
        <time>2021-07-26T09:20:16Z</time>
      </trkpt>
      <trkpt lat="42.9123090" lon="-8.4237870">
        <ele>322.0</ele>
        <time>2021-07-26T09:20:21Z</time>
      </trkpt>
      <trkpt lat="42.9122930" lon="-8.4237990">
        <ele>322.0</ele>
        <time>2021-07-26T09:20:22Z</time>
      </trkpt>
      <trkpt lat="42.9122520" lon="-8.4238160">
        <ele>322.0</ele>
        <time>2021-07-26T09:20:24Z</time>
      </trkpt>
      <trkpt lat="42.9122140" lon="-8.4238420">
        <ele>322.0</ele>
        <time>2021-07-26T09:20:26Z</time>
      </trkpt>
      <trkpt lat="42.9121960" lon="-8.4238510">
        <ele>322.0</ele>
        <time>2021-07-26T09:20:27Z</time>
      </trkpt>
      <trkpt lat="42.9121470" lon="-8.4238690">
        <ele>322.0</ele>
        <time>2021-07-26T09:20:30Z</time>
      </trkpt>
      <trkpt lat="42.9120950" lon="-8.4239100">
        <ele>322.0</ele>
        <time>2021-07-26T09:20:33Z</time>
      </trkpt>
      <trkpt lat="42.9120640" lon="-8.4239330">
        <ele>322.0</ele>
        <time>2021-07-26T09:20:35Z</time>
      </trkpt>
      <trkpt lat="42.9120400" lon="-8.4239550">
        <ele>322.4</ele>
        <time>2021-07-26T09:20:37Z</time>
      </trkpt>
      <trkpt lat="42.9120310" lon="-8.4239640">
        <ele>322.8</ele>
        <time>2021-07-26T09:20:38Z</time>
      </trkpt>
      <trkpt lat="42.9120170" lon="-8.4239730">
        <ele>323.2</ele>
        <time>2021-07-26T09:20:39Z</time>
      </trkpt>
      <trkpt lat="42.9120030" lon="-8.4239850">
        <ele>323.8</ele>
        <time>2021-07-26T09:20:40Z</time>
      </trkpt>
      <trkpt lat="42.9119840" lon="-8.4240010">
        <ele>324.2</ele>
        <time>2021-07-26T09:20:41Z</time>
      </trkpt>
      <trkpt lat="42.9119320" lon="-8.4240350">
        <ele>324.6</ele>
        <time>2021-07-26T09:20:44Z</time>
      </trkpt>
      <trkpt lat="42.9119160" lon="-8.4240440">
        <ele>325.0</ele>
        <time>2021-07-26T09:20:45Z</time>
      </trkpt>
      <trkpt lat="42.9119050" lon="-8.4240540">
        <ele>325.4</ele>
        <time>2021-07-26T09:20:46Z</time>
      </trkpt>
      <trkpt lat="42.9118940" lon="-8.4240600">
        <ele>325.8</ele>
        <time>2021-07-26T09:20:47Z</time>
      </trkpt>
      <trkpt lat="42.9118820" lon="-8.4240700">
        <ele>326.2</ele>
        <time>2021-07-26T09:20:48Z</time>
      </trkpt>
      <trkpt lat="42.9118540" lon="-8.4240860">
        <ele>326.2</ele>
        <time>2021-07-26T09:20:50Z</time>
      </trkpt>
      <trkpt lat="42.9118370" lon="-8.4240970">
        <ele>326.6</ele>
        <time>2021-07-26T09:20:51Z</time>
      </trkpt>
      <trkpt lat="42.9118170" lon="-8.4241110">
        <ele>327.0</ele>
        <time>2021-07-26T09:20:52Z</time>
      </trkpt>
      <trkpt lat="42.9118000" lon="-8.4241230">
        <ele>327.4</ele>
        <time>2021-07-26T09:20:53Z</time>
      </trkpt>
      <trkpt lat="42.9117840" lon="-8.4241350">
        <ele>327.8</ele>
        <time>2021-07-26T09:20:54Z</time>
      </trkpt>
      <trkpt lat="42.9117690" lon="-8.4241470">
        <ele>328.2</ele>
        <time>2021-07-26T09:20:55Z</time>
      </trkpt>
      <trkpt lat="42.9117460" lon="-8.4241570">
        <ele>328.6</ele>
        <time>2021-07-26T09:20:57Z</time>
      </trkpt>
      <trkpt lat="42.9117350" lon="-8.4241600">
        <ele>329.0</ele>
        <time>2021-07-26T09:20:58Z</time>
      </trkpt>
      <trkpt lat="42.9117220" lon="-8.4241650">
        <ele>329.4</ele>
        <time>2021-07-26T09:20:59Z</time>
      </trkpt>
      <trkpt lat="42.9117100" lon="-8.4241680">
        <ele>329.8</ele>
        <time>2021-07-26T09:21:00Z</time>
      </trkpt>
      <trkpt lat="42.9117010" lon="-8.4241720">
        <ele>330.2</ele>
        <time>2021-07-26T09:21:01Z</time>
      </trkpt>
      <trkpt lat="42.9116640" lon="-8.4241740">
        <ele>330.2</ele>
        <time>2021-07-26T09:21:04Z</time>
      </trkpt>
      <trkpt lat="42.9116300" lon="-8.4241760">
        <ele>330.2</ele>
        <time>2021-07-26T09:21:07Z</time>
      </trkpt>
      <trkpt lat="42.9115910" lon="-8.4241840">
        <ele>330.2</ele>
        <time>2021-07-26T09:21:10Z</time>
      </trkpt>
      <trkpt lat="42.9115770" lon="-8.4241850">
        <ele>330.8</ele>
        <time>2021-07-26T09:21:11Z</time>
      </trkpt>
      <trkpt lat="42.9115570" lon="-8.4241870">
        <ele>331.2</ele>
        <time>2021-07-26T09:21:12Z</time>
      </trkpt>
      <trkpt lat="42.9115360" lon="-8.4241860">
        <ele>331.6</ele>
        <time>2021-07-26T09:21:13Z</time>
      </trkpt>
      <trkpt lat="42.9115180" lon="-8.4241840">
        <ele>332.0</ele>
        <time>2021-07-26T09:21:14Z</time>
      </trkpt>
      <trkpt lat="42.9114980" lon="-8.4241830">
        <ele>332.4</ele>
        <time>2021-07-26T09:21:15Z</time>
      </trkpt>
      <trkpt lat="42.9114630" lon="-8.4241770">
        <ele>332.4</ele>
        <time>2021-07-26T09:21:17Z</time>
      </trkpt>
      <trkpt lat="42.9113200" lon="-8.4241550">
        <ele>332.4</ele>
        <time>2021-07-26T09:21:24Z</time>
      </trkpt>
      <trkpt lat="42.9112010" lon="-8.4241450">
        <ele>332.4</ele>
        <time>2021-07-26T09:21:30Z</time>
      </trkpt>
      <trkpt lat="42.9111060" lon="-8.4242080">
        <ele>332.4</ele>
        <time>2021-07-26T09:21:36Z</time>
      </trkpt>
      <trkpt lat="42.9110440" lon="-8.4243340">
        <ele>332.4</ele>
        <time>2021-07-26T09:21:42Z</time>
      </trkpt>
      <trkpt lat="42.9110310" lon="-8.4243570">
        <ele>332.4</ele>
        <time>2021-07-26T09:21:43Z</time>
      </trkpt>
      <trkpt lat="42.9109880" lon="-8.4244050">
        <ele>332.4</ele>
        <time>2021-07-26T09:21:47Z</time>
      </trkpt>
      <trkpt lat="42.9109880" lon="-8.4244020">
        <ele>332.4</ele>
        <time>2021-07-26T09:21:48Z</time>
      </trkpt>
      <trkpt lat="42.9109580" lon="-8.4243990">
        <ele>332.4</ele>
        <time>2021-07-26T09:30:25Z</time>
      </trkpt>
      <trkpt lat="42.9109410" lon="-8.4243960">
        <ele>332.4</ele>
        <time>2021-07-26T09:30:26Z</time>
      </trkpt>
      <trkpt lat="42.9109120" lon="-8.4243800">
        <ele>332.4</ele>
        <time>2021-07-26T09:30:28Z</time>
      </trkpt>
      <trkpt lat="42.9107940" lon="-8.4243480">
        <ele>332.4</ele>
        <time>2021-07-26T09:30:34Z</time>
      </trkpt>
      <trkpt lat="42.9106540" lon="-8.4243100">
        <ele>332.4</ele>
        <time>2021-07-26T09:30:41Z</time>
      </trkpt>
      <trkpt lat="42.9106140" lon="-8.4242860">
        <ele>332.4</ele>
        <time>2021-07-26T09:30:44Z</time>
      </trkpt>
      <trkpt lat="42.9105450" lon="-8.4242540">
        <ele>332.4</ele>
        <time>2021-07-26T09:30:48Z</time>
      </trkpt>
      <trkpt lat="42.9104300" lon="-8.4241950">
        <ele>332.4</ele>
        <time>2021-07-26T09:30:54Z</time>
      </trkpt>
      <trkpt lat="42.9102990" lon="-8.4241710">
        <ele>332.4</ele>
        <time>2021-07-26T09:30:59Z</time>
      </trkpt>
      <trkpt lat="42.9102660" lon="-8.4241630">
        <ele>332.4</ele>
        <time>2021-07-26T09:31:00Z</time>
      </trkpt>
      <trkpt lat="42.9101130" lon="-8.4241100">
        <ele>332.4</ele>
        <time>2021-07-26T09:31:05Z</time>
      </trkpt>
      <trkpt lat="42.9099420" lon="-8.4240360">
        <ele>332.4</ele>
        <time>2021-07-26T09:31:11Z</time>
      </trkpt>
      <trkpt lat="42.9097380" lon="-8.4239620">
        <ele>332.4</ele>
        <time>2021-07-26T09:31:18Z</time>
      </trkpt>
      <trkpt lat="42.9096620" lon="-8.4239410">
        <ele>332.4</ele>
        <time>2021-07-26T09:31:20Z</time>
      </trkpt>
      <trkpt lat="42.9095530" lon="-8.4238940">
        <ele>332.4</ele>
        <time>2021-07-26T09:31:23Z</time>
      </trkpt>
      <trkpt lat="42.9095170" lon="-8.4238780">
        <ele>332.4</ele>
        <time>2021-07-26T09:31:24Z</time>
      </trkpt>
      <trkpt lat="42.9093770" lon="-8.4238110">
        <ele>332.4</ele>
        <time>2021-07-26T09:31:28Z</time>
      </trkpt>
      <trkpt lat="42.9093100" lon="-8.4237910">
        <ele>332.4</ele>
        <time>2021-07-26T09:31:30Z</time>
      </trkpt>
      <trkpt lat="42.9092790" lon="-8.4237860">
        <ele>332.4</ele>
        <time>2021-07-26T09:31:31Z</time>
      </trkpt>
      <trkpt lat="42.9091890" lon="-8.4237350">
        <ele>332.4</ele>
        <time>2021-07-26T09:31:34Z</time>
      </trkpt>
      <trkpt lat="42.9091160" lon="-8.4237030">
        <ele>332.4</ele>
        <time>2021-07-26T09:31:36Z</time>
      </trkpt>
      <trkpt lat="42.9088900" lon="-8.4236410">
        <ele>332.4</ele>
        <time>2021-07-26T09:31:43Z</time>
      </trkpt>
      <trkpt lat="42.9087730" lon="-8.4236700">
        <ele>332.4</ele>
        <time>2021-07-26T09:31:47Z</time>
      </trkpt>
      <trkpt lat="42.9087480" lon="-8.4237080">
        <ele>332.4</ele>
        <time>2021-07-26T09:31:48Z</time>
      </trkpt>
      <trkpt lat="42.9087330" lon="-8.4237580">
        <ele>332.4</ele>
        <time>2021-07-26T09:31:49Z</time>
      </trkpt>
      <trkpt lat="42.9087430" lon="-8.4239350">
        <ele>332.0</ele>
        <time>2021-07-26T09:31:52Z</time>
      </trkpt>
      <trkpt lat="42.9087540" lon="-8.4240080">
        <ele>331.6</ele>
        <time>2021-07-26T09:31:53Z</time>
      </trkpt>
      <trkpt lat="42.9087630" lon="-8.4240810">
        <ele>331.2</ele>
        <time>2021-07-26T09:31:54Z</time>
      </trkpt>
      <trkpt lat="42.9087740" lon="-8.4241650">
        <ele>330.8</ele>
        <time>2021-07-26T09:31:55Z</time>
      </trkpt>
      <trkpt lat="42.9087850" lon="-8.4242480">
        <ele>330.4</ele>
        <time>2021-07-26T09:31:56Z</time>
      </trkpt>
      <trkpt lat="42.9087940" lon="-8.4243450">
        <ele>330.4</ele>
        <time>2021-07-26T09:31:57Z</time>
      </trkpt>
      <trkpt lat="42.9088250" lon="-8.4246410">
        <ele>330.0</ele>
        <time>2021-07-26T09:32:00Z</time>
      </trkpt>
      <trkpt lat="42.9088360" lon="-8.4247370">
        <ele>329.4</ele>
        <time>2021-07-26T09:32:01Z</time>
      </trkpt>
      <trkpt lat="42.9088490" lon="-8.4248360">
        <ele>329.0</ele>
        <time>2021-07-26T09:32:02Z</time>
      </trkpt>
      <trkpt lat="42.9088650" lon="-8.4249410">
        <ele>328.6</ele>
        <time>2021-07-26T09:32:03Z</time>
      </trkpt>
      <trkpt lat="42.9088830" lon="-8.4250390">
        <ele>328.2</ele>
        <time>2021-07-26T09:32:04Z</time>
      </trkpt>
      <trkpt lat="42.9089320" lon="-8.4252230">
        <ele>328.2</ele>
        <time>2021-07-26T09:32:06Z</time>
      </trkpt>
      <trkpt lat="42.9089610" lon="-8.4253070">
        <ele>327.8</ele>
        <time>2021-07-26T09:32:07Z</time>
      </trkpt>
      <trkpt lat="42.9089880" lon="-8.4253860">
        <ele>327.4</ele>
        <time>2021-07-26T09:32:08Z</time>
      </trkpt>
      <trkpt lat="42.9090070" lon="-8.4254740">
        <ele>326.8</ele>
        <time>2021-07-26T09:32:09Z</time>
      </trkpt>
      <trkpt lat="42.9090180" lon="-8.4255640">
        <ele>326.4</ele>
        <time>2021-07-26T09:32:10Z</time>
      </trkpt>
      <trkpt lat="42.9090190" lon="-8.4256590">
        <ele>326.0</ele>
        <time>2021-07-26T09:32:11Z</time>
      </trkpt>
      <trkpt lat="42.9090140" lon="-8.4257460">
        <ele>326.0</ele>
        <time>2021-07-26T09:32:12Z</time>
      </trkpt>
      <trkpt lat="42.9089960" lon="-8.4259000">
        <ele>326.0</ele>
        <time>2021-07-26T09:32:14Z</time>
      </trkpt>
      <trkpt lat="42.9089770" lon="-8.4259620">
        <ele>325.4</ele>
        <time>2021-07-26T09:32:15Z</time>
      </trkpt>
      <trkpt lat="42.9089440" lon="-8.4260230">
        <ele>325.0</ele>
        <time>2021-07-26T09:32:16Z</time>
      </trkpt>
      <trkpt lat="42.9089130" lon="-8.4260760">
        <ele>324.6</ele>
        <time>2021-07-26T09:32:17Z</time>
      </trkpt>
      <trkpt lat="42.9088770" lon="-8.4261250">
        <ele>324.2</ele>
        <time>2021-07-26T09:32:18Z</time>
      </trkpt>
      <trkpt lat="42.9088370" lon="-8.4261610">
        <ele>323.8</ele>
        <time>2021-07-26T09:32:19Z</time>
      </trkpt>
      <trkpt lat="42.9087990" lon="-8.4261870">
        <ele>323.8</ele>
        <time>2021-07-26T09:32:20Z</time>
      </trkpt>
      <trkpt lat="42.9086720" lon="-8.4262150">
        <ele>323.8</ele>
        <time>2021-07-26T09:32:23Z</time>
      </trkpt>
      <trkpt lat="42.9086340" lon="-8.4262230">
        <ele>323.8</ele>
        <time>2021-07-26T09:32:24Z</time>
      </trkpt>
      <trkpt lat="42.9085130" lon="-8.4262770">
        <ele>323.8</ele>
        <time>2021-07-26T09:32:28Z</time>
      </trkpt>
      <trkpt lat="42.9084960" lon="-8.4262830">
        <ele>323.8</ele>
        <time>2021-07-26T09:32:29Z</time>
      </trkpt>
      <trkpt lat="42.9084610" lon="-8.4263060">
        <ele>323.8</ele>
        <time>2021-07-26T09:32:33Z</time>
      </trkpt>
      <trkpt lat="42.9084640" lon="-8.4263310">
        <ele>323.8</ele>
        <time>2021-07-26T09:32:34Z</time>
      </trkpt>
      <trkpt lat="42.9084620" lon="-8.4263950">
        <ele>323.8</ele>
        <time>2021-07-26T09:32:36Z</time>
      </trkpt>
      <trkpt lat="42.9084500" lon="-8.4264700">
        <ele>323.8</ele>
        <time>2021-07-26T09:32:38Z</time>
      </trkpt>
      <trkpt lat="42.9084410" lon="-8.4265030">
        <ele>323.8</ele>
        <time>2021-07-26T09:32:39Z</time>
      </trkpt>
      <trkpt lat="42.9084310" lon="-8.4265320">
        <ele>323.8</ele>
        <time>2021-07-26T09:32:40Z</time>
      </trkpt>
      <trkpt lat="42.9084020" lon="-8.4266050">
        <ele>323.8</ele>
        <time>2021-07-26T09:32:43Z</time>
      </trkpt>
      <trkpt lat="42.9083820" lon="-8.4266510">
        <ele>323.8</ele>
        <time>2021-07-26T09:32:45Z</time>
      </trkpt>
      <trkpt lat="42.9083620" lon="-8.4266890">
        <ele>323.8</ele>
        <time>2021-07-26T09:32:47Z</time>
      </trkpt>
      <trkpt lat="42.9083440" lon="-8.4267190">
        <ele>323.8</ele>
        <time>2021-07-26T09:32:49Z</time>
      </trkpt>
      <trkpt lat="42.9083250" lon="-8.4267500">
        <ele>323.8</ele>
        <time>2021-07-26T09:32:51Z</time>
      </trkpt>
      <trkpt lat="42.9082980" lon="-8.4267930">
        <ele>324.2</ele>
        <time>2021-07-26T09:32:54Z</time>
      </trkpt>
      <trkpt lat="42.9082890" lon="-8.4268100">
        <ele>324.6</ele>
        <time>2021-07-26T09:32:55Z</time>
      </trkpt>
      <trkpt lat="42.9082790" lon="-8.4268270">
        <ele>325.0</ele>
        <time>2021-07-26T09:32:56Z</time>
      </trkpt>
      <trkpt lat="42.9082730" lon="-8.4268390">
        <ele>325.4</ele>
        <time>2021-07-26T09:32:57Z</time>
      </trkpt>
      <trkpt lat="42.9082640" lon="-8.4268530">
        <ele>325.8</ele>
        <time>2021-07-26T09:32:58Z</time>
      </trkpt>
      <trkpt lat="42.9082470" lon="-8.4269010">
        <ele>326.2</ele>
        <time>2021-07-26T09:33:01Z</time>
      </trkpt>
      <trkpt lat="42.9082360" lon="-8.4269140">
        <ele>326.6</ele>
        <time>2021-07-26T09:33:02Z</time>
      </trkpt>
      <trkpt lat="42.9082270" lon="-8.4269260">
        <ele>327.2</ele>
        <time>2021-07-26T09:33:03Z</time>
      </trkpt>
      <trkpt lat="42.9082190" lon="-8.4269370">
        <ele>327.6</ele>
        <time>2021-07-26T09:33:04Z</time>
      </trkpt>
      <trkpt lat="42.9082080" lon="-8.4269480">
        <ele>328.0</ele>
        <time>2021-07-26T09:33:05Z</time>
      </trkpt>
      <trkpt lat="42.9081920" lon="-8.4269710">
        <ele>328.0</ele>
        <time>2021-07-26T09:33:07Z</time>
      </trkpt>
      <trkpt lat="42.9081820" lon="-8.4269830">
        <ele>328.4</ele>
        <time>2021-07-26T09:33:08Z</time>
      </trkpt>
      <trkpt lat="42.9081700" lon="-8.4269980">
        <ele>328.8</ele>
        <time>2021-07-26T09:33:09Z</time>
      </trkpt>
      <trkpt lat="42.9081580" lon="-8.4270030">
        <ele>329.2</ele>
        <time>2021-07-26T09:33:10Z</time>
      </trkpt>
      <trkpt lat="42.9081510" lon="-8.4270100">
        <ele>329.6</ele>
        <time>2021-07-26T09:33:11Z</time>
      </trkpt>
      <trkpt lat="42.9081310" lon="-8.4270150">
        <ele>330.0</ele>
        <time>2021-07-26T09:33:12Z</time>
      </trkpt>
      <trkpt lat="42.9080980" lon="-8.4270540">
        <ele>330.4</ele>
        <time>2021-07-26T09:33:15Z</time>
      </trkpt>
      <trkpt lat="42.9080890" lon="-8.4270670">
        <ele>330.8</ele>
        <time>2021-07-26T09:33:16Z</time>
      </trkpt>
      <trkpt lat="42.9080750" lon="-8.4270760">
        <ele>331.2</ele>
        <time>2021-07-26T09:33:17Z</time>
      </trkpt>
      <trkpt lat="42.9080670" lon="-8.4270910">
        <ele>332.0</ele>
        <time>2021-07-26T09:33:18Z</time>
      </trkpt>
      <trkpt lat="42.9080330" lon="-8.4271430">
        <ele>332.4</ele>
        <time>2021-07-26T09:33:22Z</time>
      </trkpt>
      <trkpt lat="42.9080230" lon="-8.4271570">
        <ele>332.8</ele>
        <time>2021-07-26T09:33:23Z</time>
      </trkpt>
      <trkpt lat="42.9080150" lon="-8.4271690">
        <ele>333.2</ele>
        <time>2021-07-26T09:33:24Z</time>
      </trkpt>
      <trkpt lat="42.9080020" lon="-8.4271800">
        <ele>333.6</ele>
        <time>2021-07-26T09:33:25Z</time>
      </trkpt>
      <trkpt lat="42.9079850" lon="-8.4271960">
        <ele>334.0</ele>
        <time>2021-07-26T09:33:26Z</time>
      </trkpt>
      <trkpt lat="42.9079240" lon="-8.4272640">
        <ele>334.0</ele>
        <time>2021-07-26T09:33:30Z</time>
      </trkpt>
      <trkpt lat="42.9079120" lon="-8.4272750">
        <ele>334.4</ele>
        <time>2021-07-26T09:33:31Z</time>
      </trkpt>
      <trkpt lat="42.9079010" lon="-8.4272810">
        <ele>334.8</ele>
        <time>2021-07-26T09:33:32Z</time>
      </trkpt>
      <trkpt lat="42.9078890" lon="-8.4272850">
        <ele>335.2</ele>
        <time>2021-07-26T09:33:33Z</time>
      </trkpt>
      <trkpt lat="42.9078810" lon="-8.4272940">
        <ele>335.6</ele>
        <time>2021-07-26T09:33:34Z</time>
      </trkpt>
      <trkpt lat="42.9078730" lon="-8.4273000">
        <ele>336.0</ele>
        <time>2021-07-26T09:33:35Z</time>
      </trkpt>
      <trkpt lat="42.9078660" lon="-8.4273110">
        <ele>336.0</ele>
        <time>2021-07-26T09:33:37Z</time>
      </trkpt>
      <trkpt lat="42.9078110" lon="-8.4273500">
        <ele>336.6</ele>
        <time>2021-07-26T09:33:43Z</time>
      </trkpt>
      <trkpt lat="42.9078010" lon="-8.4273580">
        <ele>337.0</ele>
        <time>2021-07-26T09:33:44Z</time>
      </trkpt>
      <trkpt lat="42.9077930" lon="-8.4273680">
        <ele>337.4</ele>
        <time>2021-07-26T09:33:45Z</time>
      </trkpt>
      <trkpt lat="42.9077790" lon="-8.4273750">
        <ele>337.8</ele>
        <time>2021-07-26T09:33:46Z</time>
      </trkpt>
      <trkpt lat="42.9077670" lon="-8.4273840">
        <ele>338.2</ele>
        <time>2021-07-26T09:33:47Z</time>
      </trkpt>
      <trkpt lat="42.9077290" lon="-8.4274240">
        <ele>338.2</ele>
        <time>2021-07-26T09:33:51Z</time>
      </trkpt>
      <trkpt lat="42.9076280" lon="-8.4274980">
        <ele>338.6</ele>
        <time>2021-07-26T09:33:58Z</time>
      </trkpt>
      <trkpt lat="42.9076160" lon="-8.4275100">
        <ele>339.0</ele>
        <time>2021-07-26T09:33:59Z</time>
      </trkpt>
      <trkpt lat="42.9076070" lon="-8.4275250">
        <ele>339.4</ele>
        <time>2021-07-26T09:34:00Z</time>
      </trkpt>
      <trkpt lat="42.9075980" lon="-8.4275360">
        <ele>339.8</ele>
        <time>2021-07-26T09:34:01Z</time>
      </trkpt>
      <trkpt lat="42.9075930" lon="-8.4275420">
        <ele>340.2</ele>
        <time>2021-07-26T09:34:02Z</time>
      </trkpt>
      <trkpt lat="42.9075510" lon="-8.4275880">
        <ele>340.2</ele>
        <time>2021-07-26T09:34:06Z</time>
      </trkpt>
      <trkpt lat="42.9074400" lon="-8.4276920">
        <ele>340.2</ele>
        <time>2021-07-26T09:34:12Z</time>
      </trkpt>
      <trkpt lat="42.9073030" lon="-8.4277810">
        <ele>340.6</ele>
        <time>2021-07-26T09:34:19Z</time>
      </trkpt>
      <trkpt lat="42.9072770" lon="-8.4277940">
        <ele>341.0</ele>
        <time>2021-07-26T09:34:20Z</time>
      </trkpt>
      <trkpt lat="42.9072570" lon="-8.4278140">
        <ele>341.4</ele>
        <time>2021-07-26T09:34:21Z</time>
      </trkpt>
      <trkpt lat="42.9072390" lon="-8.4278340">
        <ele>341.8</ele>
        <time>2021-07-26T09:34:22Z</time>
      </trkpt>
      <trkpt lat="42.9072210" lon="-8.4278550">
        <ele>342.2</ele>
        <time>2021-07-26T09:34:23Z</time>
      </trkpt>
      <trkpt lat="42.9071670" lon="-8.4279140">
        <ele>342.2</ele>
        <time>2021-07-26T09:34:26Z</time>
      </trkpt>
      <trkpt lat="42.9071390" lon="-8.4279700">
        <ele>342.2</ele>
        <time>2021-07-26T09:34:28Z</time>
      </trkpt>
      <trkpt lat="42.9071030" lon="-8.4280670">
        <ele>342.2</ele>
        <time>2021-07-26T09:34:31Z</time>
      </trkpt>
      <trkpt lat="42.9070890" lon="-8.4281050">
        <ele>342.2</ele>
        <time>2021-07-26T09:34:32Z</time>
      </trkpt>
      <trkpt lat="42.9069950" lon="-8.4283740">
        <ele>341.8</ele>
        <time>2021-07-26T09:34:36Z</time>
      </trkpt>
      <trkpt lat="42.9069640" lon="-8.4284580">
        <ele>341.4</ele>
        <time>2021-07-26T09:34:37Z</time>
      </trkpt>
      <trkpt lat="42.9069300" lon="-8.4285480">
        <ele>341.0</ele>
        <time>2021-07-26T09:34:38Z</time>
      </trkpt>
      <trkpt lat="42.9068960" lon="-8.4286380">
        <ele>340.6</ele>
        <time>2021-07-26T09:34:39Z</time>
      </trkpt>
      <trkpt lat="42.9068630" lon="-8.4287250">
        <ele>340.2</ele>
        <time>2021-07-26T09:34:40Z</time>
      </trkpt>
      <trkpt lat="42.9068310" lon="-8.4288030">
        <ele>340.2</ele>
        <time>2021-07-26T09:34:41Z</time>
      </trkpt>
      <trkpt lat="42.9067990" lon="-8.4288860">
        <ele>339.8</ele>
        <time>2021-07-26T09:34:42Z</time>
      </trkpt>
      <trkpt lat="42.9067700" lon="-8.4289590">
        <ele>339.2</ele>
        <time>2021-07-26T09:34:43Z</time>
      </trkpt>
      <trkpt lat="42.9067410" lon="-8.4290220">
        <ele>338.8</ele>
        <time>2021-07-26T09:34:44Z</time>
      </trkpt>
      <trkpt lat="42.9067160" lon="-8.4290840">
        <ele>338.2</ele>
        <time>2021-07-26T09:34:45Z</time>
      </trkpt>
      <trkpt lat="42.9066930" lon="-8.4291430">
        <ele>337.6</ele>
        <time>2021-07-26T09:34:46Z</time>
      </trkpt>
      <trkpt lat="42.9066720" lon="-8.4291990">
        <ele>336.8</ele>
        <time>2021-07-26T09:34:47Z</time>
      </trkpt>
      <trkpt lat="42.9066490" lon="-8.4292640">
        <ele>336.2</ele>
        <time>2021-07-26T09:34:48Z</time>
      </trkpt>
      <trkpt lat="42.9066200" lon="-8.4293300">
        <ele>335.6</ele>
        <time>2021-07-26T09:34:49Z</time>
      </trkpt>
      <trkpt lat="42.9065900" lon="-8.4293910">
        <ele>335.0</ele>
        <time>2021-07-26T09:34:50Z</time>
      </trkpt>
      <trkpt lat="42.9065580" lon="-8.4294530">
        <ele>334.4</ele>
        <time>2021-07-26T09:34:51Z</time>
      </trkpt>
      <trkpt lat="42.9065230" lon="-8.4295080">
        <ele>333.8</ele>
        <time>2021-07-26T09:34:52Z</time>
      </trkpt>
      <trkpt lat="42.9064980" lon="-8.4295510">
        <ele>333.2</ele>
        <time>2021-07-26T09:34:53Z</time>
      </trkpt>
      <trkpt lat="42.9064760" lon="-8.4295840">
        <ele>332.6</ele>
        <time>2021-07-26T09:34:54Z</time>
      </trkpt>
      <trkpt lat="42.9064650" lon="-8.4296170">
        <ele>332.2</ele>
        <time>2021-07-26T09:34:55Z</time>
      </trkpt>
      <trkpt lat="42.9064480" lon="-8.4296500">
        <ele>331.6</ele>
        <time>2021-07-26T09:34:56Z</time>
      </trkpt>
      <trkpt lat="42.9064340" lon="-8.4296810">
        <ele>330.6</ele>
        <time>2021-07-26T09:34:57Z</time>
      </trkpt>
      <trkpt lat="42.9064170" lon="-8.4297170">
        <ele>330.0</ele>
        <time>2021-07-26T09:34:58Z</time>
      </trkpt>
      <trkpt lat="42.9063880" lon="-8.4297400">
        <ele>329.4</ele>
        <time>2021-07-26T09:34:59Z</time>
      </trkpt>
      <trkpt lat="42.9063670" lon="-8.4297640">
        <ele>329.0</ele>
        <time>2021-07-26T09:35:00Z</time>
      </trkpt>
      <trkpt lat="42.9063430" lon="-8.4297870">
        <ele>329.0</ele>
        <time>2021-07-26T09:35:01Z</time>
      </trkpt>
      <trkpt lat="42.9062860" lon="-8.4298220">
        <ele>329.0</ele>
        <time>2021-07-26T09:35:04Z</time>
      </trkpt>
      <trkpt lat="42.9062320" lon="-8.4298520">
        <ele>329.0</ele>
        <time>2021-07-26T09:35:07Z</time>
      </trkpt>
      <trkpt lat="42.9060740" lon="-8.4299810">
        <ele>329.0</ele>
        <time>2021-07-26T09:35:11Z</time>
      </trkpt>
      <trkpt lat="42.9058460" lon="-8.4302080">
        <ele>329.0</ele>
        <time>2021-07-26T09:35:18Z</time>
      </trkpt>
      <trkpt lat="42.9057340" lon="-8.4303870">
        <ele>329.0</ele>
        <time>2021-07-26T09:35:22Z</time>
      </trkpt>
      <trkpt lat="42.9057130" lon="-8.4304310">
        <ele>329.0</ele>
        <time>2021-07-26T09:35:23Z</time>
      </trkpt>
      <trkpt lat="42.9056640" lon="-8.4305080">
        <ele>329.0</ele>
        <time>2021-07-26T09:35:25Z</time>
      </trkpt>
      <trkpt lat="42.9055980" lon="-8.4306220">
        <ele>329.0</ele>
        <time>2021-07-26T09:35:28Z</time>
      </trkpt>
      <trkpt lat="42.9055800" lon="-8.4306600">
        <ele>329.0</ele>
        <time>2021-07-26T09:35:29Z</time>
      </trkpt>
      <trkpt lat="42.9055670" lon="-8.4306970">
        <ele>329.4</ele>
        <time>2021-07-26T09:35:30Z</time>
      </trkpt>
      <trkpt lat="42.9055510" lon="-8.4307380">
        <ele>329.8</ele>
        <time>2021-07-26T09:35:31Z</time>
      </trkpt>
      <trkpt lat="42.9055350" lon="-8.4307740">
        <ele>330.2</ele>
        <time>2021-07-26T09:35:32Z</time>
      </trkpt>
      <trkpt lat="42.9055160" lon="-8.4308120">
        <ele>330.6</ele>
        <time>2021-07-26T09:35:33Z</time>
      </trkpt>
      <trkpt lat="42.9054960" lon="-8.4308470">
        <ele>331.0</ele>
        <time>2021-07-26T09:35:34Z</time>
      </trkpt>
      <trkpt lat="42.9054790" lon="-8.4308850">
        <ele>331.0</ele>
        <time>2021-07-26T09:35:35Z</time>
      </trkpt>
      <trkpt lat="42.9054310" lon="-8.4311150">
        <ele>331.0</ele>
        <time>2021-07-26T09:35:41Z</time>
      </trkpt>
      <trkpt lat="42.9054310" lon="-8.4314160">
        <ele>331.0</ele>
        <time>2021-07-26T09:35:47Z</time>
      </trkpt>
      <trkpt lat="42.9054010" lon="-8.4315660">
        <ele>331.0</ele>
        <time>2021-07-26T09:35:51Z</time>
      </trkpt>
      <trkpt lat="42.9053890" lon="-8.4315890">
        <ele>331.0</ele>
        <time>2021-07-26T09:35:52Z</time>
      </trkpt>
      <trkpt lat="42.9053590" lon="-8.4316770">
        <ele>331.0</ele>
        <time>2021-07-26T09:35:55Z</time>
      </trkpt>
      <trkpt lat="42.9053450" lon="-8.4317410">
        <ele>330.6</ele>
        <time>2021-07-26T09:35:57Z</time>
      </trkpt>
      <trkpt lat="42.9053420" lon="-8.4317770">
        <ele>330.2</ele>
        <time>2021-07-26T09:35:58Z</time>
      </trkpt>
      <trkpt lat="42.9053340" lon="-8.4318160">
        <ele>329.8</ele>
        <time>2021-07-26T09:35:59Z</time>
      </trkpt>
      <trkpt lat="42.9053200" lon="-8.4318440">
        <ele>329.4</ele>
        <time>2021-07-26T09:36:00Z</time>
      </trkpt>
      <trkpt lat="42.9053040" lon="-8.4318790">
        <ele>329.0</ele>
        <time>2021-07-26T09:36:01Z</time>
      </trkpt>
      <trkpt lat="42.9052840" lon="-8.4319570">
        <ele>328.6</ele>
        <time>2021-07-26T09:36:03Z</time>
      </trkpt>
      <trkpt lat="42.9052660" lon="-8.4320140">
        <ele>328.2</ele>
        <time>2021-07-26T09:36:04Z</time>
      </trkpt>
      <trkpt lat="42.9052450" lon="-8.4320670">
        <ele>327.6</ele>
        <time>2021-07-26T09:36:05Z</time>
      </trkpt>
      <trkpt lat="42.9052260" lon="-8.4321180">
        <ele>327.2</ele>
        <time>2021-07-26T09:36:06Z</time>
      </trkpt>
      <trkpt lat="42.9052000" lon="-8.4321730">
        <ele>326.8</ele>
        <time>2021-07-26T09:36:07Z</time>
      </trkpt>
      <trkpt lat="42.9051770" lon="-8.4322300">
        <ele>326.8</ele>
        <time>2021-07-26T09:36:08Z</time>
      </trkpt>
      <trkpt lat="42.9051270" lon="-8.4323440">
        <ele>326.8</ele>
        <time>2021-07-26T09:36:10Z</time>
      </trkpt>
      <trkpt lat="42.9051010" lon="-8.4323980">
        <ele>326.0</ele>
        <time>2021-07-26T09:36:11Z</time>
      </trkpt>
      <trkpt lat="42.9050710" lon="-8.4324430">
        <ele>325.4</ele>
        <time>2021-07-26T09:36:12Z</time>
      </trkpt>
      <trkpt lat="42.9050380" lon="-8.4324900">
        <ele>325.0</ele>
        <time>2021-07-26T09:36:13Z</time>
      </trkpt>
      <trkpt lat="42.9050040" lon="-8.4325340">
        <ele>324.6</ele>
        <time>2021-07-26T09:36:14Z</time>
      </trkpt>
      <trkpt lat="42.9049750" lon="-8.4325820">
        <ele>324.6</ele>
        <time>2021-07-26T09:36:15Z</time>
      </trkpt>
      <trkpt lat="42.9049440" lon="-8.4326250">
        <ele>324.2</ele>
        <time>2021-07-26T09:36:16Z</time>
      </trkpt>
      <trkpt lat="42.9049020" lon="-8.4326610">
        <ele>323.8</ele>
        <time>2021-07-26T09:36:17Z</time>
      </trkpt>
      <trkpt lat="42.9048700" lon="-8.4326930">
        <ele>323.4</ele>
        <time>2021-07-26T09:36:18Z</time>
      </trkpt>
      <trkpt lat="42.9048390" lon="-8.4327320">
        <ele>322.8</ele>
        <time>2021-07-26T09:36:19Z</time>
      </trkpt>
      <trkpt lat="42.9048110" lon="-8.4327660">
        <ele>322.4</ele>
        <time>2021-07-26T09:36:20Z</time>
      </trkpt>
      <trkpt lat="42.9047100" lon="-8.4328670">
        <ele>322.4</ele>
        <time>2021-07-26T09:36:23Z</time>
      </trkpt>
      <trkpt lat="42.9046870" lon="-8.4329030">
        <ele>322.4</ele>
        <time>2021-07-26T09:36:24Z</time>
      </trkpt>
      <trkpt lat="42.9046100" lon="-8.4331350">
        <ele>322.4</ele>
        <time>2021-07-26T09:36:29Z</time>
      </trkpt>
      <trkpt lat="42.9045560" lon="-8.4333080">
        <ele>322.4</ele>
        <time>2021-07-26T09:36:32Z</time>
      </trkpt>
      <trkpt lat="42.9045260" lon="-8.4334050">
        <ele>322.4</ele>
        <time>2021-07-26T09:36:34Z</time>
      </trkpt>
      <trkpt lat="42.9044930" lon="-8.4335430">
        <ele>322.4</ele>
        <time>2021-07-26T09:36:37Z</time>
      </trkpt>
      <trkpt lat="42.9044830" lon="-8.4336430">
        <ele>322.4</ele>
        <time>2021-07-26T09:36:39Z</time>
      </trkpt>
      <trkpt lat="42.9044760" lon="-8.4336950">
        <ele>322.0</ele>
        <time>2021-07-26T09:36:40Z</time>
      </trkpt>
      <trkpt lat="42.9044610" lon="-8.4337390">
        <ele>321.6</ele>
        <time>2021-07-26T09:36:41Z</time>
      </trkpt>
      <trkpt lat="42.9044440" lon="-8.4337840">
        <ele>321.2</ele>
        <time>2021-07-26T09:36:42Z</time>
      </trkpt>
      <trkpt lat="42.9044260" lon="-8.4338320">
        <ele>320.8</ele>
        <time>2021-07-26T09:36:43Z</time>
      </trkpt>
      <trkpt lat="42.9044130" lon="-8.4338810">
        <ele>320.4</ele>
        <time>2021-07-26T09:36:44Z</time>
      </trkpt>
      <trkpt lat="42.9043600" lon="-8.4340960">
        <ele>320.4</ele>
        <time>2021-07-26T09:36:49Z</time>
      </trkpt>
      <trkpt lat="42.9043200" lon="-8.4342650">
        <ele>320.4</ele>
        <time>2021-07-26T09:36:52Z</time>
      </trkpt>
      <trkpt lat="42.9042010" lon="-8.4345700">
        <ele>320.4</ele>
        <time>2021-07-26T09:36:57Z</time>
      </trkpt>
      <trkpt lat="42.9042050" lon="-8.4348070">
        <ele>320.4</ele>
        <time>2021-07-26T09:37:02Z</time>
      </trkpt>
      <trkpt lat="42.9042200" lon="-8.4349390">
        <ele>320.4</ele>
        <time>2021-07-26T09:37:05Z</time>
      </trkpt>
      <trkpt lat="42.9042040" lon="-8.4350860">
        <ele>320.4</ele>
        <time>2021-07-26T09:37:08Z</time>
      </trkpt>
      <trkpt lat="42.9041170" lon="-8.4352230">
        <ele>320.4</ele>
        <time>2021-07-26T09:37:12Z</time>
      </trkpt>
      <trkpt lat="42.9040160" lon="-8.4353920">
        <ele>320.0</ele>
        <time>2021-07-26T09:37:16Z</time>
      </trkpt>
      <trkpt lat="42.9039920" lon="-8.4354260">
        <ele>319.6</ele>
        <time>2021-07-26T09:37:17Z</time>
      </trkpt>
      <trkpt lat="42.9039720" lon="-8.4354610">
        <ele>319.0</ele>
        <time>2021-07-26T09:37:18Z</time>
      </trkpt>
      <trkpt lat="42.9039580" lon="-8.4355010">
        <ele>318.6</ele>
        <time>2021-07-26T09:37:19Z</time>
      </trkpt>
      <trkpt lat="42.9039360" lon="-8.4355300">
        <ele>318.2</ele>
        <time>2021-07-26T09:37:20Z</time>
      </trkpt>
      <trkpt lat="42.9038810" lon="-8.4356380">
        <ele>318.2</ele>
        <time>2021-07-26T09:37:23Z</time>
      </trkpt>
      <trkpt lat="42.9037850" lon="-8.4358480">
        <ele>318.2</ele>
        <time>2021-07-26T09:37:28Z</time>
      </trkpt>
      <trkpt lat="42.9036400" lon="-8.4360510">
        <ele>317.8</ele>
        <time>2021-07-26T09:37:32Z</time>
      </trkpt>
      <trkpt lat="42.9035990" lon="-8.4361040">
        <ele>317.4</ele>
        <time>2021-07-26T09:37:33Z</time>
      </trkpt>
      <trkpt lat="42.9035540" lon="-8.4361570">
        <ele>317.0</ele>
        <time>2021-07-26T09:37:34Z</time>
      </trkpt>
      <trkpt lat="42.9035020" lon="-8.4362150">
        <ele>316.6</ele>
        <time>2021-07-26T09:37:35Z</time>
      </trkpt>
      <trkpt lat="42.9034580" lon="-8.4362700">
        <ele>316.2</ele>
        <time>2021-07-26T09:37:36Z</time>
      </trkpt>
      <trkpt lat="42.9032850" lon="-8.4365160">
        <ele>316.2</ele>
        <time>2021-07-26T09:37:40Z</time>
      </trkpt>
      <trkpt lat="42.9030390" lon="-8.4368590">
        <ele>316.2</ele>
        <time>2021-07-26T09:37:46Z</time>
      </trkpt>
      <trkpt lat="42.9028820" lon="-8.4370960">
        <ele>315.6</ele>
        <time>2021-07-26T09:37:50Z</time>
      </trkpt>
      <trkpt lat="42.9028460" lon="-8.4371570">
        <ele>315.2</ele>
        <time>2021-07-26T09:37:51Z</time>
      </trkpt>
      <trkpt lat="42.9028080" lon="-8.4372190">
        <ele>314.8</ele>
        <time>2021-07-26T09:37:52Z</time>
      </trkpt>
      <trkpt lat="42.9027690" lon="-8.4372850">
        <ele>314.4</ele>
        <time>2021-07-26T09:37:53Z</time>
      </trkpt>
      <trkpt lat="42.9027300" lon="-8.4373430">
        <ele>314.0</ele>
        <time>2021-07-26T09:37:54Z</time>
      </trkpt>
      <trkpt lat="42.9026470" lon="-8.4374740">
        <ele>313.6</ele>
        <time>2021-07-26T09:37:56Z</time>
      </trkpt>
      <trkpt lat="42.9025980" lon="-8.4375440">
        <ele>313.2</ele>
        <time>2021-07-26T09:37:57Z</time>
      </trkpt>
      <trkpt lat="42.9025510" lon="-8.4376020">
        <ele>312.6</ele>
        <time>2021-07-26T09:37:58Z</time>
      </trkpt>
      <trkpt lat="42.9025080" lon="-8.4376610">
        <ele>312.2</ele>
        <time>2021-07-26T09:37:59Z</time>
      </trkpt>
      <trkpt lat="42.9024710" lon="-8.4377140">
        <ele>311.8</ele>
        <time>2021-07-26T09:38:00Z</time>
      </trkpt>
      <trkpt lat="42.9023850" lon="-8.4378400">
        <ele>311.8</ele>
        <time>2021-07-26T09:38:02Z</time>
      </trkpt>
      <trkpt lat="42.9021470" lon="-8.4382720">
        <ele>311.8</ele>
        <time>2021-07-26T09:38:08Z</time>
      </trkpt>
      <trkpt lat="42.9021080" lon="-8.4383360">
        <ele>311.4</ele>
        <time>2021-07-26T09:38:09Z</time>
      </trkpt>
      <trkpt lat="42.9020740" lon="-8.4384020">
        <ele>311.0</ele>
        <time>2021-07-26T09:38:10Z</time>
      </trkpt>
      <trkpt lat="42.9020450" lon="-8.4384680">
        <ele>310.6</ele>
        <time>2021-07-26T09:38:11Z</time>
      </trkpt>
      <trkpt lat="42.9020220" lon="-8.4385330">
        <ele>310.2</ele>
        <time>2021-07-26T09:38:12Z</time>
      </trkpt>
      <trkpt lat="42.9020090" lon="-8.4386000">
        <ele>309.8</ele>
        <time>2021-07-26T09:38:13Z</time>
      </trkpt>
      <trkpt lat="42.9020080" lon="-8.4386650">
        <ele>309.8</ele>
        <time>2021-07-26T09:38:14Z</time>
      </trkpt>
      <trkpt lat="42.9019970" lon="-8.4387930">
        <ele>309.8</ele>
        <time>2021-07-26T09:38:16Z</time>
      </trkpt>
      <trkpt lat="42.9019940" lon="-8.4389220">
        <ele>309.8</ele>
        <time>2021-07-26T09:38:18Z</time>
      </trkpt>
      <trkpt lat="42.9019880" lon="-8.4391150">
        <ele>309.8</ele>
        <time>2021-07-26T09:38:21Z</time>
      </trkpt>
      <trkpt lat="42.9019580" lon="-8.4395500">
        <ele>309.4</ele>
        <time>2021-07-26T09:38:28Z</time>
      </trkpt>
      <trkpt lat="42.9019480" lon="-8.4396060">
        <ele>309.0</ele>
        <time>2021-07-26T09:38:29Z</time>
      </trkpt>
      <trkpt lat="42.9019380" lon="-8.4396610">
        <ele>308.6</ele>
        <time>2021-07-26T09:38:30Z</time>
      </trkpt>
      <trkpt lat="42.9019320" lon="-8.4397140">
        <ele>308.2</ele>
        <time>2021-07-26T09:38:31Z</time>
      </trkpt>
      <trkpt lat="42.9019250" lon="-8.4397700">
        <ele>307.8</ele>
        <time>2021-07-26T09:38:32Z</time>
      </trkpt>
      <trkpt lat="42.9018930" lon="-8.4399660">
        <ele>307.8</ele>
        <time>2021-07-26T09:38:36Z</time>
      </trkpt>
      <trkpt lat="42.9018590" lon="-8.4401720">
        <ele>307.8</ele>
        <time>2021-07-26T09:38:40Z</time>
      </trkpt>
      <trkpt lat="42.9018460" lon="-8.4402870">
        <ele>307.8</ele>
        <time>2021-07-26T09:38:42Z</time>
      </trkpt>
      <trkpt lat="42.9018390" lon="-8.4403410">
        <ele>307.8</ele>
        <time>2021-07-26T09:38:43Z</time>
      </trkpt>
      <trkpt lat="42.9018340" lon="-8.4404480">
        <ele>307.8</ele>
        <time>2021-07-26T09:38:45Z</time>
      </trkpt>
      <trkpt lat="42.9018170" lon="-8.4406640">
        <ele>307.8</ele>
        <time>2021-07-26T09:38:49Z</time>
      </trkpt>
      <trkpt lat="42.9017730" lon="-8.4409980">
        <ele>307.8</ele>
        <time>2021-07-26T09:38:55Z</time>
      </trkpt>
      <trkpt lat="42.9017490" lon="-8.4411570">
        <ele>307.8</ele>
        <time>2021-07-26T09:38:58Z</time>
      </trkpt>
      <trkpt lat="42.9017260" lon="-8.4413230">
        <ele>307.2</ele>
        <time>2021-07-26T09:39:02Z</time>
      </trkpt>
      <trkpt lat="42.9017230" lon="-8.4413560">
        <ele>306.8</ele>
        <time>2021-07-26T09:39:03Z</time>
      </trkpt>
      <trkpt lat="42.9017180" lon="-8.4414000">
        <ele>306.0</ele>
        <time>2021-07-26T09:39:04Z</time>
      </trkpt>
      <trkpt lat="42.9017080" lon="-8.4414530">
        <ele>305.4</ele>
        <time>2021-07-26T09:39:05Z</time>
      </trkpt>
      <trkpt lat="42.9016920" lon="-8.4415810">
        <ele>305.4</ele>
        <time>2021-07-26T09:39:07Z</time>
      </trkpt>
      <trkpt lat="42.9016840" lon="-8.4416500">
        <ele>305.4</ele>
        <time>2021-07-26T09:39:08Z</time>
      </trkpt>
      <trkpt lat="42.9016760" lon="-8.4417160">
        <ele>305.0</ele>
        <time>2021-07-26T09:39:09Z</time>
      </trkpt>
      <trkpt lat="42.9016690" lon="-8.4417960">
        <ele>304.6</ele>
        <time>2021-07-26T09:39:10Z</time>
      </trkpt>
      <trkpt lat="42.9016610" lon="-8.4418750">
        <ele>304.2</ele>
        <time>2021-07-26T09:39:11Z</time>
      </trkpt>
      <trkpt lat="42.9016530" lon="-8.4419510">
        <ele>303.8</ele>
        <time>2021-07-26T09:39:12Z</time>
      </trkpt>
      <trkpt lat="42.9016470" lon="-8.4420280">
        <ele>303.4</ele>
        <time>2021-07-26T09:39:13Z</time>
      </trkpt>
      <trkpt lat="42.9016410" lon="-8.4421090">
        <ele>302.8</ele>
        <time>2021-07-26T09:39:14Z</time>
      </trkpt>
      <trkpt lat="42.9016290" lon="-8.4421870">
        <ele>302.4</ele>
        <time>2021-07-26T09:39:15Z</time>
      </trkpt>
      <trkpt lat="42.9016160" lon="-8.4422690">
        <ele>301.8</ele>
        <time>2021-07-26T09:39:16Z</time>
      </trkpt>
      <trkpt lat="42.9015990" lon="-8.4423460">
        <ele>301.4</ele>
        <time>2021-07-26T09:39:17Z</time>
      </trkpt>
      <trkpt lat="42.9015780" lon="-8.4424290">
        <ele>300.8</ele>
        <time>2021-07-26T09:39:18Z</time>
      </trkpt>
      <trkpt lat="42.9015560" lon="-8.4425040">
        <ele>300.4</ele>
        <time>2021-07-26T09:39:19Z</time>
      </trkpt>
      <trkpt lat="42.9015340" lon="-8.4425800">
        <ele>299.8</ele>
        <time>2021-07-26T09:39:20Z</time>
      </trkpt>
      <trkpt lat="42.9015130" lon="-8.4426550">
        <ele>299.2</ele>
        <time>2021-07-26T09:39:21Z</time>
      </trkpt>
      <trkpt lat="42.9014600" lon="-8.4428050">
        <ele>298.8</ele>
        <time>2021-07-26T09:39:23Z</time>
      </trkpt>
      <trkpt lat="42.9014280" lon="-8.4428700">
        <ele>298.4</ele>
        <time>2021-07-26T09:39:24Z</time>
      </trkpt>
      <trkpt lat="42.9013920" lon="-8.4429370">
        <ele>298.0</ele>
        <time>2021-07-26T09:39:25Z</time>
      </trkpt>
      <trkpt lat="42.9013590" lon="-8.4429940">
        <ele>297.6</ele>
        <time>2021-07-26T09:39:26Z</time>
      </trkpt>
      <trkpt lat="42.9013260" lon="-8.4430500">
        <ele>297.2</ele>
        <time>2021-07-26T09:39:27Z</time>
      </trkpt>
      <trkpt lat="42.9012400" lon="-8.4432220">
        <ele>297.2</ele>
        <time>2021-07-26T09:39:30Z</time>
      </trkpt>
      <trkpt lat="42.9011630" lon="-8.4433920">
        <ele>297.2</ele>
        <time>2021-07-26T09:39:33Z</time>
      </trkpt>
      <trkpt lat="42.9010360" lon="-8.4437750">
        <ele>297.2</ele>
        <time>2021-07-26T09:39:40Z</time>
      </trkpt>
      <trkpt lat="42.9009300" lon="-8.4441280">
        <ele>297.2</ele>
        <time>2021-07-26T09:39:47Z</time>
      </trkpt>
      <trkpt lat="42.9008980" lon="-8.4442350">
        <ele>297.2</ele>
        <time>2021-07-26T09:39:49Z</time>
      </trkpt>
      <trkpt lat="42.9008830" lon="-8.4442840">
        <ele>297.2</ele>
        <time>2021-07-26T09:39:50Z</time>
      </trkpt>
      <trkpt lat="42.9008520" lon="-8.4443810">
        <ele>297.2</ele>
        <time>2021-07-26T09:39:52Z</time>
      </trkpt>
      <trkpt lat="42.9007970" lon="-8.4445610">
        <ele>297.2</ele>
        <time>2021-07-26T09:39:56Z</time>
      </trkpt>
      <trkpt lat="42.9007730" lon="-8.4446940">
        <ele>296.8</ele>
        <time>2021-07-26T09:39:59Z</time>
      </trkpt>
      <trkpt lat="42.9007670" lon="-8.4447410">
        <ele>296.4</ele>
        <time>2021-07-26T09:40:00Z</time>
      </trkpt>
      <trkpt lat="42.9007590" lon="-8.4447880">
        <ele>296.0</ele>
        <time>2021-07-26T09:40:01Z</time>
      </trkpt>
      <trkpt lat="42.9007540" lon="-8.4448330">
        <ele>295.6</ele>
        <time>2021-07-26T09:40:02Z</time>
      </trkpt>
      <trkpt lat="42.9007540" lon="-8.4448670">
        <ele>295.2</ele>
        <time>2021-07-26T09:40:03Z</time>
      </trkpt>
      <trkpt lat="42.9007440" lon="-8.4450490">
        <ele>295.2</ele>
        <time>2021-07-26T09:40:09Z</time>
      </trkpt>
      <trkpt lat="42.9007310" lon="-8.4450730">
        <ele>295.2</ele>
        <time>2021-07-26T09:40:12Z</time>
      </trkpt>
      <trkpt lat="42.9007100" lon="-8.4451320">
        <ele>295.2</ele>
        <time>2021-07-26T09:41:25Z</time>
      </trkpt>
      <trkpt lat="42.9006990" lon="-8.4451600">
        <ele>295.2</ele>
        <time>2021-07-26T09:41:26Z</time>
      </trkpt>
      <trkpt lat="42.9006780" lon="-8.4452940">
        <ele>295.2</ele>
        <time>2021-07-26T09:41:30Z</time>
      </trkpt>
      <trkpt lat="42.9006720" lon="-8.4453360">
        <ele>295.2</ele>
        <time>2021-07-26T09:41:31Z</time>
      </trkpt>
      <trkpt lat="42.9006250" lon="-8.4456750">
        <ele>295.2</ele>
        <time>2021-07-26T09:41:39Z</time>
      </trkpt>
      <trkpt lat="42.9005610" lon="-8.4460070">
        <ele>295.2</ele>
        <time>2021-07-26T09:41:47Z</time>
      </trkpt>
      <trkpt lat="42.9004690" lon="-8.4463490">
        <ele>295.2</ele>
        <time>2021-07-26T09:41:55Z</time>
      </trkpt>
      <trkpt lat="42.9004640" lon="-8.4463930">
        <ele>295.2</ele>
        <time>2021-07-26T09:41:56Z</time>
      </trkpt>
      <trkpt lat="42.9004510" lon="-8.4464360">
        <ele>294.2</ele>
        <time>2021-07-26T09:41:57Z</time>
      </trkpt>
      <trkpt lat="42.9004370" lon="-8.4464830">
        <ele>293.8</ele>
        <time>2021-07-26T09:41:58Z</time>
      </trkpt>
      <trkpt lat="42.9004260" lon="-8.4465340">
        <ele>293.4</ele>
        <time>2021-07-26T09:41:59Z</time>
      </trkpt>
      <trkpt lat="42.9004150" lon="-8.4465830">
        <ele>293.0</ele>
        <time>2021-07-26T09:42:00Z</time>
      </trkpt>
      <trkpt lat="42.9003720" lon="-8.4467170">
        <ele>293.0</ele>
        <time>2021-07-26T09:42:03Z</time>
      </trkpt>
      <trkpt lat="42.9002850" lon="-8.4468220">
        <ele>292.6</ele>
        <time>2021-07-26T09:42:06Z</time>
      </trkpt>
      <trkpt lat="42.9002480" lon="-8.4468520">
        <ele>292.2</ele>
        <time>2021-07-26T09:42:07Z</time>
      </trkpt>
      <trkpt lat="42.9002020" lon="-8.4468720">
        <ele>291.8</ele>
        <time>2021-07-26T09:42:08Z</time>
      </trkpt>
      <trkpt lat="42.9001610" lon="-8.4468840">
        <ele>291.2</ele>
        <time>2021-07-26T09:42:09Z</time>
      </trkpt>
      <trkpt lat="42.9001090" lon="-8.4468940">
        <ele>290.8</ele>
        <time>2021-07-26T09:42:10Z</time>
      </trkpt>
      <trkpt lat="42.8999460" lon="-8.4468830">
        <ele>290.8</ele>
        <time>2021-07-26T09:42:13Z</time>
      </trkpt>
      <trkpt lat="42.8998990" lon="-8.4468740">
        <ele>290.8</ele>
        <time>2021-07-26T09:42:14Z</time>
      </trkpt>
      <trkpt lat="42.8997920" lon="-8.4468730">
        <ele>290.4</ele>
        <time>2021-07-26T09:42:17Z</time>
      </trkpt>
      <trkpt lat="42.8997630" lon="-8.4468910">
        <ele>290.0</ele>
        <time>2021-07-26T09:42:18Z</time>
      </trkpt>
      <trkpt lat="42.8997540" lon="-8.4469010">
        <ele>289.6</ele>
        <time>2021-07-26T09:42:19Z</time>
      </trkpt>
      <trkpt lat="42.8997500" lon="-8.4469000">
        <ele>289.2</ele>
        <time>2021-07-26T09:42:20Z</time>
      </trkpt>
      <trkpt lat="42.8997520" lon="-8.4468980">
        <ele>288.8</ele>
        <time>2021-07-26T09:42:21Z</time>
      </trkpt>
      <trkpt lat="42.8998010" lon="-8.4468570">
        <ele>288.8</ele>
        <time>2021-07-26T09:42:32Z</time>
      </trkpt>
      <trkpt lat="42.8998120" lon="-8.4468260">
        <ele>288.8</ele>
        <time>2021-07-26T09:42:35Z</time>
      </trkpt>
      <trkpt lat="42.8998130" lon="-8.4468180">
        <ele>288.8</ele>
        <time>2021-07-26T09:42:37Z</time>
      </trkpt>
      <trkpt lat="42.8997450" lon="-8.4465940">
        <ele>288.8</ele>
        <time>2021-07-26T09:45:10Z</time>
      </trkpt>
      <trkpt lat="42.8997280" lon="-8.4465900">
        <ele>288.8</ele>
        <time>2021-07-26T09:45:11Z</time>
      </trkpt>
      <trkpt lat="42.8996580" lon="-8.4465630">
        <ele>288.8</ele>
        <time>2021-07-26T09:45:14Z</time>
      </trkpt>
      <trkpt lat="42.8996050" lon="-8.4465370">
        <ele>288.8</ele>
        <time>2021-07-26T09:45:16Z</time>
      </trkpt>
      <trkpt lat="42.8995830" lon="-8.4465200">
        <ele>288.8</ele>
        <time>2021-07-26T09:45:17Z</time>
      </trkpt>
      <trkpt lat="42.8995400" lon="-8.4464110">
        <ele>288.8</ele>
        <time>2021-07-26T09:45:22Z</time>
      </trkpt>
      <trkpt lat="42.8995060" lon="-8.4462970">
        <ele>288.8</ele>
        <time>2021-07-26T09:45:27Z</time>
      </trkpt>
      <trkpt lat="42.8994650" lon="-8.4462410">
        <ele>288.8</ele>
        <time>2021-07-26T09:45:29Z</time>
      </trkpt>
      <trkpt lat="42.8994350" lon="-8.4460980">
        <ele>288.8</ele>
        <time>2021-07-26T09:45:32Z</time>
      </trkpt>
      <trkpt lat="42.8994170" lon="-8.4459870">
        <ele>289.2</ele>
        <time>2021-07-26T09:45:34Z</time>
      </trkpt>
      <trkpt lat="42.8994170" lon="-8.4459260">
        <ele>289.6</ele>
        <time>2021-07-26T09:45:35Z</time>
      </trkpt>
      <trkpt lat="42.8994110" lon="-8.4458730">
        <ele>290.0</ele>
        <time>2021-07-26T09:45:36Z</time>
      </trkpt>
      <trkpt lat="42.8994070" lon="-8.4458240">
        <ele>290.6</ele>
        <time>2021-07-26T09:45:37Z</time>
      </trkpt>
      <trkpt lat="42.8993970" lon="-8.4457730">
        <ele>291.0</ele>
        <time>2021-07-26T09:45:38Z</time>
      </trkpt>
      <trkpt lat="42.8993960" lon="-8.4456750">
        <ele>291.0</ele>
        <time>2021-07-26T09:45:40Z</time>
      </trkpt>
      <trkpt lat="42.8994010" lon="-8.4456330">
        <ele>291.0</ele>
        <time>2021-07-26T09:45:41Z</time>
      </trkpt>
      <trkpt lat="42.8994000" lon="-8.4455440">
        <ele>291.0</ele>
        <time>2021-07-26T09:45:43Z</time>
      </trkpt>
      <trkpt lat="42.8993880" lon="-8.4454680">
        <ele>291.4</ele>
        <time>2021-07-26T09:45:45Z</time>
      </trkpt>
      <trkpt lat="42.8993790" lon="-8.4454280">
        <ele>291.8</ele>
        <time>2021-07-26T09:45:46Z</time>
      </trkpt>
      <trkpt lat="42.8993720" lon="-8.4453880">
        <ele>292.2</ele>
        <time>2021-07-26T09:45:47Z</time>
      </trkpt>
      <trkpt lat="42.8993690" lon="-8.4453510">
        <ele>292.6</ele>
        <time>2021-07-26T09:45:48Z</time>
      </trkpt>
      <trkpt lat="42.8993650" lon="-8.4453080">
        <ele>293.0</ele>
        <time>2021-07-26T09:45:49Z</time>
      </trkpt>
      <trkpt lat="42.8993180" lon="-8.4451270">
        <ele>293.0</ele>
        <time>2021-07-26T09:45:53Z</time>
      </trkpt>
      <trkpt lat="42.8992470" lon="-8.4449300">
        <ele>293.0</ele>
        <time>2021-07-26T09:45:58Z</time>
      </trkpt>
      <trkpt lat="42.8992330" lon="-8.4448210">
        <ele>293.0</ele>
        <time>2021-07-26T09:46:02Z</time>
      </trkpt>
      <trkpt lat="42.8992230" lon="-8.4447930">
        <ele>293.0</ele>
        <time>2021-07-26T09:46:05Z</time>
      </trkpt>
      <trkpt lat="42.8992130" lon="-8.4447850">
        <ele>293.0</ele>
        <time>2021-07-26T09:46:06Z</time>
      </trkpt>
      <trkpt lat="42.8991390" lon="-8.4447520">
        <ele>293.0</ele>
        <time>2021-07-26T09:46:10Z</time>
      </trkpt>
      <trkpt lat="42.8989880" lon="-8.4446920">
        <ele>293.0</ele>
        <time>2021-07-26T09:46:15Z</time>
      </trkpt>
      <trkpt lat="42.8989410" lon="-8.4446820">
        <ele>292.6</ele>
        <time>2021-07-26T09:46:16Z</time>
      </trkpt>
      <trkpt lat="42.8988960" lon="-8.4446730">
        <ele>292.0</ele>
        <time>2021-07-26T09:46:17Z</time>
      </trkpt>
      <trkpt lat="42.8988350" lon="-8.4446570">
        <ele>291.6</ele>
        <time>2021-07-26T09:46:18Z</time>
      </trkpt>
      <trkpt lat="42.8987810" lon="-8.4446360">
        <ele>291.2</ele>
        <time>2021-07-26T09:46:19Z</time>
      </trkpt>
      <trkpt lat="42.8987240" lon="-8.4446170">
        <ele>290.6</ele>
        <time>2021-07-26T09:46:20Z</time>
      </trkpt>
      <trkpt lat="42.8986730" lon="-8.4445990">
        <ele>290.6</ele>
        <time>2021-07-26T09:46:21Z</time>
      </trkpt>
      <trkpt lat="42.8986280" lon="-8.4445730">
        <ele>290.2</ele>
        <time>2021-07-26T09:46:22Z</time>
      </trkpt>
      <trkpt lat="42.8985870" lon="-8.4445360">
        <ele>289.8</ele>
        <time>2021-07-26T09:46:23Z</time>
      </trkpt>
      <trkpt lat="42.8985480" lon="-8.4444930">
        <ele>289.4</ele>
        <time>2021-07-26T09:46:24Z</time>
      </trkpt>
      <trkpt lat="42.8985090" lon="-8.4444500">
        <ele>289.0</ele>
        <time>2021-07-26T09:46:25Z</time>
      </trkpt>
      <trkpt lat="42.8984780" lon="-8.4443920">
        <ele>288.6</ele>
        <time>2021-07-26T09:46:26Z</time>
      </trkpt>
      <trkpt lat="42.8984030" lon="-8.4442760">
        <ele>288.6</ele>
        <time>2021-07-26T09:46:28Z</time>
      </trkpt>
      <trkpt lat="42.8983590" lon="-8.4442300">
        <ele>288.6</ele>
        <time>2021-07-26T09:46:29Z</time>
      </trkpt>
      <trkpt lat="42.8983120" lon="-8.4441990">
        <ele>288.0</ele>
        <time>2021-07-26T09:46:30Z</time>
      </trkpt>
      <trkpt lat="42.8982610" lon="-8.4441730">
        <ele>287.6</ele>
        <time>2021-07-26T09:46:31Z</time>
      </trkpt>
      <trkpt lat="42.8982110" lon="-8.4441510">
        <ele>287.2</ele>
        <time>2021-07-26T09:46:32Z</time>
      </trkpt>
      <trkpt lat="42.8981620" lon="-8.4441350">
        <ele>286.8</ele>
        <time>2021-07-26T09:46:33Z</time>
      </trkpt>
      <trkpt lat="42.8981140" lon="-8.4441310">
        <ele>286.4</ele>
        <time>2021-07-26T09:46:34Z</time>
      </trkpt>
      <trkpt lat="42.8980260" lon="-8.4442160">
        <ele>286.4</ele>
        <time>2021-07-26T09:46:37Z</time>
      </trkpt>
      <trkpt lat="42.8980470" lon="-8.4443700">
        <ele>286.4</ele>
        <time>2021-07-26T09:46:40Z</time>
      </trkpt>
      <trkpt lat="42.8980700" lon="-8.4444200">
        <ele>286.4</ele>
        <time>2021-07-26T09:46:41Z</time>
      </trkpt>
      <trkpt lat="42.8981030" lon="-8.4444650">
        <ele>286.4</ele>
        <time>2021-07-26T09:46:42Z</time>
      </trkpt>
      <trkpt lat="42.8981600" lon="-8.4445630">
        <ele>286.4</ele>
        <time>2021-07-26T09:46:44Z</time>
      </trkpt>
      <trkpt lat="42.8981850" lon="-8.4446650">
        <ele>286.4</ele>
        <time>2021-07-26T09:46:46Z</time>
      </trkpt>
      <trkpt lat="42.8981780" lon="-8.4448140">
        <ele>286.4</ele>
        <time>2021-07-26T09:46:50Z</time>
      </trkpt>
      <trkpt lat="42.8981570" lon="-8.4450100">
        <ele>286.4</ele>
        <time>2021-07-26T09:46:54Z</time>
      </trkpt>
      <trkpt lat="42.8981250" lon="-8.4451320">
        <ele>286.4</ele>
        <time>2021-07-26T09:46:57Z</time>
      </trkpt>
      <trkpt lat="42.8980890" lon="-8.4451850">
        <ele>286.4</ele>
        <time>2021-07-26T09:46:59Z</time>
      </trkpt>
      <trkpt lat="42.8980190" lon="-8.4452820">
        <ele>286.4</ele>
        <time>2021-07-26T09:47:03Z</time>
      </trkpt>
      <trkpt lat="42.8979670" lon="-8.4453470">
        <ele>286.4</ele>
        <time>2021-07-26T09:47:06Z</time>
      </trkpt>
      <trkpt lat="42.8979210" lon="-8.4454090">
        <ele>286.4</ele>
        <time>2021-07-26T09:47:09Z</time>
      </trkpt>
      <trkpt lat="42.8978780" lon="-8.4454740">
        <ele>286.4</ele>
        <time>2021-07-26T09:47:12Z</time>
      </trkpt>
      <trkpt lat="42.8978540" lon="-8.4455130">
        <ele>286.4</ele>
        <time>2021-07-26T09:47:14Z</time>
      </trkpt>
      <trkpt lat="42.8978010" lon="-8.4456070">
        <ele>286.4</ele>
        <time>2021-07-26T09:47:19Z</time>
      </trkpt>
      <trkpt lat="42.8977930" lon="-8.4456270">
        <ele>286.8</ele>
        <time>2021-07-26T09:47:20Z</time>
      </trkpt>
      <trkpt lat="42.8977840" lon="-8.4456490">
        <ele>287.2</ele>
        <time>2021-07-26T09:47:21Z</time>
      </trkpt>
      <trkpt lat="42.8977750" lon="-8.4456710">
        <ele>287.6</ele>
        <time>2021-07-26T09:47:22Z</time>
      </trkpt>
      <trkpt lat="42.8977650" lon="-8.4456920">
        <ele>288.0</ele>
        <time>2021-07-26T09:47:23Z</time>
      </trkpt>
      <trkpt lat="42.8977580" lon="-8.4457130">
        <ele>288.4</ele>
        <time>2021-07-26T09:47:24Z</time>
      </trkpt>
      <trkpt lat="42.8977290" lon="-8.4457720">
        <ele>288.4</ele>
        <time>2021-07-26T09:47:27Z</time>
      </trkpt>
      <trkpt lat="42.8977130" lon="-8.4458130">
        <ele>288.4</ele>
        <time>2021-07-26T09:47:29Z</time>
      </trkpt>
      <trkpt lat="42.8977050" lon="-8.4458350">
        <ele>288.8</ele>
        <time>2021-07-26T09:47:30Z</time>
      </trkpt>
      <trkpt lat="42.8976950" lon="-8.4458570">
        <ele>289.2</ele>
        <time>2021-07-26T09:47:31Z</time>
      </trkpt>
      <trkpt lat="42.8976860" lon="-8.4458770">
        <ele>289.6</ele>
        <time>2021-07-26T09:47:32Z</time>
      </trkpt>
      <trkpt lat="42.8976770" lon="-8.4459000">
        <ele>290.0</ele>
        <time>2021-07-26T09:47:33Z</time>
      </trkpt>
      <trkpt lat="42.8976680" lon="-8.4459250">
        <ele>290.4</ele>
        <time>2021-07-26T09:47:34Z</time>
      </trkpt>
      <trkpt lat="42.8976460" lon="-8.4459930">
        <ele>290.4</ele>
        <time>2021-07-26T09:47:37Z</time>
      </trkpt>
      <trkpt lat="42.8976150" lon="-8.4460760">
        <ele>290.8</ele>
        <time>2021-07-26T09:47:41Z</time>
      </trkpt>
      <trkpt lat="42.8976070" lon="-8.4460980">
        <ele>291.2</ele>
        <time>2021-07-26T09:47:42Z</time>
      </trkpt>
      <trkpt lat="42.8975990" lon="-8.4461200">
        <ele>291.6</ele>
        <time>2021-07-26T09:47:43Z</time>
      </trkpt>
      <trkpt lat="42.8975890" lon="-8.4461410">
        <ele>292.6</ele>
        <time>2021-07-26T09:47:44Z</time>
      </trkpt>
      <trkpt lat="42.8975770" lon="-8.4461640">
        <ele>292.6</ele>
        <time>2021-07-26T09:47:45Z</time>
      </trkpt>
      <trkpt lat="42.8975400" lon="-8.4462630">
        <ele>293.0</ele>
        <time>2021-07-26T09:47:50Z</time>
      </trkpt>
      <trkpt lat="42.8975320" lon="-8.4462820">
        <ele>293.4</ele>
        <time>2021-07-26T09:47:51Z</time>
      </trkpt>
      <trkpt lat="42.8975240" lon="-8.4463020">
        <ele>293.8</ele>
        <time>2021-07-26T09:47:52Z</time>
      </trkpt>
      <trkpt lat="42.8975180" lon="-8.4463210">
        <ele>294.2</ele>
        <time>2021-07-26T09:47:53Z</time>
      </trkpt>
      <trkpt lat="42.8975120" lon="-8.4463390">
        <ele>294.6</ele>
        <time>2021-07-26T09:47:54Z</time>
      </trkpt>
      <trkpt lat="42.8974790" lon="-8.4464390">
        <ele>294.6</ele>
        <time>2021-07-26T09:47:59Z</time>
      </trkpt>
      <trkpt lat="42.8974510" lon="-8.4465120">
        <ele>295.0</ele>
        <time>2021-07-26T09:48:03Z</time>
      </trkpt>
      <trkpt lat="42.8974420" lon="-8.4465300">
        <ele>295.4</ele>
        <time>2021-07-26T09:48:04Z</time>
      </trkpt>
      <trkpt lat="42.8974320" lon="-8.4465490">
        <ele>295.8</ele>
        <time>2021-07-26T09:48:05Z</time>
      </trkpt>
      <trkpt lat="42.8974210" lon="-8.4465660">
        <ele>296.4</ele>
        <time>2021-07-26T09:48:06Z</time>
      </trkpt>
      <trkpt lat="42.8974150" lon="-8.4465810">
        <ele>296.8</ele>
        <time>2021-07-26T09:48:07Z</time>
      </trkpt>
      <trkpt lat="42.8973830" lon="-8.4466550">
        <ele>296.8</ele>
        <time>2021-07-26T09:48:12Z</time>
      </trkpt>
      <trkpt lat="42.8973590" lon="-8.4467040">
        <ele>297.2</ele>
        <time>2021-07-26T09:48:15Z</time>
      </trkpt>
      <trkpt lat="42.8973520" lon="-8.4467240">
        <ele>297.6</ele>
        <time>2021-07-26T09:48:16Z</time>
      </trkpt>
      <trkpt lat="42.8973450" lon="-8.4467470">
        <ele>298.0</ele>
        <time>2021-07-26T09:48:17Z</time>
      </trkpt>
      <trkpt lat="42.8973370" lon="-8.4467720">
        <ele>298.4</ele>
        <time>2021-07-26T09:48:18Z</time>
      </trkpt>
      <trkpt lat="42.8973320" lon="-8.4467980">
        <ele>298.8</ele>
        <time>2021-07-26T09:48:19Z</time>
      </trkpt>
      <trkpt lat="42.8973160" lon="-8.4469180">
        <ele>298.8</ele>
        <time>2021-07-26T09:48:25Z</time>
      </trkpt>
      <trkpt lat="42.8973130" lon="-8.4469390">
        <ele>299.2</ele>
        <time>2021-07-26T09:48:26Z</time>
      </trkpt>
      <trkpt lat="42.8973100" lon="-8.4469610">
        <ele>299.6</ele>
        <time>2021-07-26T09:48:27Z</time>
      </trkpt>
      <trkpt lat="42.8973030" lon="-8.4469850">
        <ele>300.0</ele>
        <time>2021-07-26T09:48:28Z</time>
      </trkpt>
      <trkpt lat="42.8972950" lon="-8.4470120">
        <ele>300.4</ele>
        <time>2021-07-26T09:48:29Z</time>
      </trkpt>
      <trkpt lat="42.8972900" lon="-8.4470350">
        <ele>300.8</ele>
        <time>2021-07-26T09:48:30Z</time>
      </trkpt>
      <trkpt lat="42.8972730" lon="-8.4471090">
        <ele>300.8</ele>
        <time>2021-07-26T09:48:33Z</time>
      </trkpt>
      <trkpt lat="42.8972610" lon="-8.4471550">
        <ele>301.2</ele>
        <time>2021-07-26T09:48:35Z</time>
      </trkpt>
      <trkpt lat="42.8972520" lon="-8.4471790">
        <ele>301.8</ele>
        <time>2021-07-26T09:48:36Z</time>
      </trkpt>
      <trkpt lat="42.8972440" lon="-8.4472010">
        <ele>302.2</ele>
        <time>2021-07-26T09:48:37Z</time>
      </trkpt>
      <trkpt lat="42.8972360" lon="-8.4472180">
        <ele>302.6</ele>
        <time>2021-07-26T09:48:38Z</time>
      </trkpt>
      <trkpt lat="42.8972310" lon="-8.4472370">
        <ele>303.0</ele>
        <time>2021-07-26T09:48:39Z</time>
      </trkpt>
      <trkpt lat="42.8972210" lon="-8.4472740">
        <ele>303.0</ele>
        <time>2021-07-26T09:48:41Z</time>
      </trkpt>
      <trkpt lat="42.8972110" lon="-8.4473190">
        <ele>303.4</ele>
        <time>2021-07-26T09:48:43Z</time>
      </trkpt>
      <trkpt lat="42.8972090" lon="-8.4473450">
        <ele>303.8</ele>
        <time>2021-07-26T09:48:44Z</time>
      </trkpt>
      <trkpt lat="42.8972030" lon="-8.4473700">
        <ele>304.2</ele>
        <time>2021-07-26T09:48:45Z</time>
      </trkpt>
      <trkpt lat="42.8971960" lon="-8.4473920">
        <ele>304.6</ele>
        <time>2021-07-26T09:48:46Z</time>
      </trkpt>
      <trkpt lat="42.8971880" lon="-8.4474130">
        <ele>305.2</ele>
        <time>2021-07-26T09:48:47Z</time>
      </trkpt>
      <trkpt lat="42.8971720" lon="-8.4474520">
        <ele>305.2</ele>
        <time>2021-07-26T09:48:49Z</time>
      </trkpt>
      <trkpt lat="42.8971490" lon="-8.4474850">
        <ele>305.6</ele>
        <time>2021-07-26T09:48:51Z</time>
      </trkpt>
      <trkpt lat="42.8971380" lon="-8.4475000">
        <ele>306.0</ele>
        <time>2021-07-26T09:48:52Z</time>
      </trkpt>
      <trkpt lat="42.8971290" lon="-8.4475140">
        <ele>306.4</ele>
        <time>2021-07-26T09:48:53Z</time>
      </trkpt>
      <trkpt lat="42.8971190" lon="-8.4475290">
        <ele>306.8</ele>
        <time>2021-07-26T09:48:54Z</time>
      </trkpt>
      <trkpt lat="42.8971060" lon="-8.4475420">
        <ele>307.2</ele>
        <time>2021-07-26T09:48:55Z</time>
      </trkpt>
      <trkpt lat="42.8970710" lon="-8.4475680">
        <ele>307.2</ele>
        <time>2021-07-26T09:48:57Z</time>
      </trkpt>
      <trkpt lat="42.8970520" lon="-8.4475730">
        <ele>307.6</ele>
        <time>2021-07-26T09:48:58Z</time>
      </trkpt>
      <trkpt lat="42.8970340" lon="-8.4475750">
        <ele>308.0</ele>
        <time>2021-07-26T09:48:59Z</time>
      </trkpt>
      <trkpt lat="42.8970160" lon="-8.4475780">
        <ele>308.4</ele>
        <time>2021-07-26T09:49:00Z</time>
      </trkpt>
      <trkpt lat="42.8970010" lon="-8.4475780">
        <ele>308.8</ele>
        <time>2021-07-26T09:49:01Z</time>
      </trkpt>
      <trkpt lat="42.8969840" lon="-8.4475780">
        <ele>309.2</ele>
        <time>2021-07-26T09:49:02Z</time>
      </trkpt>
      <trkpt lat="42.8969050" lon="-8.4475920">
        <ele>309.6</ele>
        <time>2021-07-26T09:49:07Z</time>
      </trkpt>
      <trkpt lat="42.8968920" lon="-8.4475930">
        <ele>310.0</ele>
        <time>2021-07-26T09:49:08Z</time>
      </trkpt>
      <trkpt lat="42.8968780" lon="-8.4475950">
        <ele>310.6</ele>
        <time>2021-07-26T09:49:09Z</time>
      </trkpt>
      <trkpt lat="42.8968620" lon="-8.4475960">
        <ele>311.0</ele>
        <time>2021-07-26T09:49:10Z</time>
      </trkpt>
      <trkpt lat="42.8968450" lon="-8.4475980">
        <ele>311.4</ele>
        <time>2021-07-26T09:49:11Z</time>
      </trkpt>
      <trkpt lat="42.8967610" lon="-8.4476090">
        <ele>311.4</ele>
        <time>2021-07-26T09:49:16Z</time>
      </trkpt>
      <trkpt lat="42.8966940" lon="-8.4476160">
        <ele>311.8</ele>
        <time>2021-07-26T09:49:20Z</time>
      </trkpt>
      <trkpt lat="42.8966750" lon="-8.4476200">
        <ele>312.2</ele>
        <time>2021-07-26T09:49:21Z</time>
      </trkpt>
      <trkpt lat="42.8966560" lon="-8.4476230">
        <ele>312.6</ele>
        <time>2021-07-26T09:49:22Z</time>
      </trkpt>
      <trkpt lat="42.8966390" lon="-8.4476250">
        <ele>313.4</ele>
        <time>2021-07-26T09:49:23Z</time>
      </trkpt>
      <trkpt lat="42.8965590" lon="-8.4476190">
        <ele>313.4</ele>
        <time>2021-07-26T09:49:28Z</time>
      </trkpt>
      <trkpt lat="42.8964650" lon="-8.4476030">
        <ele>313.4</ele>
        <time>2021-07-26T09:49:34Z</time>
      </trkpt>
      <trkpt lat="42.8963650" lon="-8.4476010">
        <ele>313.4</ele>
        <time>2021-07-26T09:49:39Z</time>
      </trkpt>
      <trkpt lat="42.8963000" lon="-8.4475870">
        <ele>313.4</ele>
        <time>2021-07-26T09:49:42Z</time>
      </trkpt>
      <trkpt lat="42.8962260" lon="-8.4475580">
        <ele>313.4</ele>
        <time>2021-07-26T09:49:45Z</time>
      </trkpt>
      <trkpt lat="42.8961700" lon="-8.4475460">
        <ele>313.4</ele>
        <time>2021-07-26T09:49:47Z</time>
      </trkpt>
      <trkpt lat="42.8961090" lon="-8.4475370">
        <ele>313.4</ele>
        <time>2021-07-26T09:49:49Z</time>
      </trkpt>
      <trkpt lat="42.8960000" lon="-8.4475570">
        <ele>313.4</ele>
        <time>2021-07-26T09:49:52Z</time>
      </trkpt>
      <trkpt lat="42.8959270" lon="-8.4475860">
        <ele>313.4</ele>
        <time>2021-07-26T09:49:54Z</time>
      </trkpt>
      <trkpt lat="42.8958690" lon="-8.4476230">
        <ele>313.4</ele>
        <time>2021-07-26T09:49:56Z</time>
      </trkpt>
      <trkpt lat="42.8958440" lon="-8.4476490">
        <ele>313.4</ele>
        <time>2021-07-26T09:49:57Z</time>
      </trkpt>
      <trkpt lat="42.8957710" lon="-8.4477230">
        <ele>313.4</ele>
        <time>2021-07-26T09:50:00Z</time>
      </trkpt>
      <trkpt lat="42.8956790" lon="-8.4477760">
        <ele>313.4</ele>
        <time>2021-07-26T09:50:03Z</time>
      </trkpt>
      <trkpt lat="42.8956020" lon="-8.4478000">
        <ele>313.4</ele>
        <time>2021-07-26T09:50:05Z</time>
      </trkpt>
      <trkpt lat="42.8954180" lon="-8.4478200">
        <ele>313.4</ele>
        <time>2021-07-26T09:50:10Z</time>
      </trkpt>
      <trkpt lat="42.8953060" lon="-8.4478200">
        <ele>313.4</ele>
        <time>2021-07-26T09:50:13Z</time>
      </trkpt>
      <trkpt lat="42.8951950" lon="-8.4477990">
        <ele>313.4</ele>
        <time>2021-07-26T09:50:16Z</time>
      </trkpt>
      <trkpt lat="42.8950530" lon="-8.4477420">
        <ele>313.4</ele>
        <time>2021-07-26T09:50:22Z</time>
      </trkpt>
      <trkpt lat="42.8950360" lon="-8.4477300">
        <ele>313.8</ele>
        <time>2021-07-26T09:50:23Z</time>
      </trkpt>
      <trkpt lat="42.8950220" lon="-8.4477160">
        <ele>314.4</ele>
        <time>2021-07-26T09:50:24Z</time>
      </trkpt>
      <trkpt lat="42.8950060" lon="-8.4477020">
        <ele>314.8</ele>
        <time>2021-07-26T09:50:25Z</time>
      </trkpt>
      <trkpt lat="42.8949910" lon="-8.4476850">
        <ele>315.2</ele>
        <time>2021-07-26T09:50:26Z</time>
      </trkpt>
      <trkpt lat="42.8949810" lon="-8.4476640">
        <ele>315.6</ele>
        <time>2021-07-26T09:50:27Z</time>
      </trkpt>
      <trkpt lat="42.8949640" lon="-8.4476200">
        <ele>315.6</ele>
        <time>2021-07-26T09:50:29Z</time>
      </trkpt>
      <trkpt lat="42.8949410" lon="-8.4475440">
        <ele>315.6</ele>
        <time>2021-07-26T09:50:32Z</time>
      </trkpt>
      <trkpt lat="42.8949320" lon="-8.4475270">
        <ele>316.0</ele>
        <time>2021-07-26T09:50:33Z</time>
      </trkpt>
      <trkpt lat="42.8949200" lon="-8.4475110">
        <ele>316.4</ele>
        <time>2021-07-26T09:50:34Z</time>
      </trkpt>
      <trkpt lat="42.8949090" lon="-8.4474920">
        <ele>316.8</ele>
        <time>2021-07-26T09:50:35Z</time>
      </trkpt>
      <trkpt lat="42.8948990" lon="-8.4474710">
        <ele>317.2</ele>
        <time>2021-07-26T09:50:36Z</time>
      </trkpt>
      <trkpt lat="42.8948890" lon="-8.4474520">
        <ele>317.6</ele>
        <time>2021-07-26T09:50:37Z</time>
      </trkpt>
      <trkpt lat="42.8948610" lon="-8.4473890">
        <ele>318.2</ele>
        <time>2021-07-26T09:50:40Z</time>
      </trkpt>
      <trkpt lat="42.8948510" lon="-8.4473670">
        <ele>318.6</ele>
        <time>2021-07-26T09:50:41Z</time>
      </trkpt>
      <trkpt lat="42.8948390" lon="-8.4473430">
        <ele>319.0</ele>
        <time>2021-07-26T09:50:42Z</time>
      </trkpt>
      <trkpt lat="42.8948250" lon="-8.4473150">
        <ele>319.4</ele>
        <time>2021-07-26T09:50:43Z</time>
      </trkpt>
      <trkpt lat="42.8948110" lon="-8.4472900">
        <ele>320.0</ele>
        <time>2021-07-26T09:50:44Z</time>
      </trkpt>
      <trkpt lat="42.8947650" lon="-8.4472120">
        <ele>320.0</ele>
        <time>2021-07-26T09:50:48Z</time>
      </trkpt>
      <trkpt lat="42.8947030" lon="-8.4471620">
        <ele>320.4</ele>
        <time>2021-07-26T09:50:52Z</time>
      </trkpt>
      <trkpt lat="42.8946830" lon="-8.4471530">
        <ele>320.8</ele>
        <time>2021-07-26T09:50:53Z</time>
      </trkpt>
      <trkpt lat="42.8946640" lon="-8.4471450">
        <ele>321.2</ele>
        <time>2021-07-26T09:50:54Z</time>
      </trkpt>
      <trkpt lat="42.8946450" lon="-8.4471400">
        <ele>321.6</ele>
        <time>2021-07-26T09:50:55Z</time>
      </trkpt>
      <trkpt lat="42.8946250" lon="-8.4471380">
        <ele>322.0</ele>
        <time>2021-07-26T09:50:56Z</time>
      </trkpt>
      <trkpt lat="42.8945010" lon="-8.4471770">
        <ele>322.0</ele>
        <time>2021-07-26T09:51:02Z</time>
      </trkpt>
      <trkpt lat="42.8944100" lon="-8.4472490">
        <ele>322.0</ele>
        <time>2021-07-26T09:51:09Z</time>
      </trkpt>
      <trkpt lat="42.8943820" lon="-8.4472730">
        <ele>322.4</ele>
        <time>2021-07-26T09:51:11Z</time>
      </trkpt>
      <trkpt lat="42.8943660" lon="-8.4472860">
        <ele>322.8</ele>
        <time>2021-07-26T09:51:12Z</time>
      </trkpt>
      <trkpt lat="42.8943500" lon="-8.4472970">
        <ele>323.2</ele>
        <time>2021-07-26T09:51:13Z</time>
      </trkpt>
      <trkpt lat="42.8943350" lon="-8.4473090">
        <ele>323.6</ele>
        <time>2021-07-26T09:51:14Z</time>
      </trkpt>
      <trkpt lat="42.8943210" lon="-8.4473270">
        <ele>324.0</ele>
        <time>2021-07-26T09:51:15Z</time>
      </trkpt>
      <trkpt lat="42.8943100" lon="-8.4473430">
        <ele>324.0</ele>
        <time>2021-07-26T09:51:16Z</time>
      </trkpt>
      <trkpt lat="42.8942330" lon="-8.4474590">
        <ele>324.4</ele>
        <time>2021-07-26T09:51:23Z</time>
      </trkpt>
      <trkpt lat="42.8942220" lon="-8.4474730">
        <ele>325.0</ele>
        <time>2021-07-26T09:51:24Z</time>
      </trkpt>
      <trkpt lat="42.8942110" lon="-8.4474900">
        <ele>325.4</ele>
        <time>2021-07-26T09:51:25Z</time>
      </trkpt>
      <trkpt lat="42.8942010" lon="-8.4475110">
        <ele>325.8</ele>
        <time>2021-07-26T09:51:26Z</time>
      </trkpt>
      <trkpt lat="42.8941940" lon="-8.4475310">
        <ele>326.2</ele>
        <time>2021-07-26T09:51:27Z</time>
      </trkpt>
      <trkpt lat="42.8941740" lon="-8.4475710">
        <ele>326.2</ele>
        <time>2021-07-26T09:51:29Z</time>
      </trkpt>
      <trkpt lat="42.8941470" lon="-8.4476300">
        <ele>326.6</ele>
        <time>2021-07-26T09:51:32Z</time>
      </trkpt>
      <trkpt lat="42.8941370" lon="-8.4476470">
        <ele>327.0</ele>
        <time>2021-07-26T09:51:33Z</time>
      </trkpt>
      <trkpt lat="42.8941260" lon="-8.4476620">
        <ele>327.6</ele>
        <time>2021-07-26T09:51:34Z</time>
      </trkpt>
      <trkpt lat="42.8941150" lon="-8.4476770">
        <ele>328.0</ele>
        <time>2021-07-26T09:51:35Z</time>
      </trkpt>
      <trkpt lat="42.8941050" lon="-8.4476930">
        <ele>328.4</ele>
        <time>2021-07-26T09:51:36Z</time>
      </trkpt>
      <trkpt lat="42.8940970" lon="-8.4477050">
        <ele>328.4</ele>
        <time>2021-07-26T09:51:37Z</time>
      </trkpt>
      <trkpt lat="42.8940470" lon="-8.4477630">
        <ele>328.8</ele>
        <time>2021-07-26T09:51:41Z</time>
      </trkpt>
      <trkpt lat="42.8940340" lon="-8.4477820">
        <ele>329.2</ele>
        <time>2021-07-26T09:51:42Z</time>
      </trkpt>
      <trkpt lat="42.8940200" lon="-8.4477950">
        <ele>329.6</ele>
        <time>2021-07-26T09:51:43Z</time>
      </trkpt>
      <trkpt lat="42.8940080" lon="-8.4478040">
        <ele>330.0</ele>
        <time>2021-07-26T09:51:44Z</time>
      </trkpt>
      <trkpt lat="42.8939970" lon="-8.4478160">
        <ele>330.4</ele>
        <time>2021-07-26T09:51:45Z</time>
      </trkpt>
      <trkpt lat="42.8939180" lon="-8.4478760">
        <ele>330.4</ele>
        <time>2021-07-26T09:51:51Z</time>
      </trkpt>
      <trkpt lat="42.8939050" lon="-8.4478800">
        <ele>331.4</ele>
        <time>2021-07-26T09:51:52Z</time>
      </trkpt>
      <trkpt lat="42.8938920" lon="-8.4478850">
        <ele>331.8</ele>
        <time>2021-07-26T09:51:53Z</time>
      </trkpt>
      <trkpt lat="42.8938800" lon="-8.4478930">
        <ele>332.2</ele>
        <time>2021-07-26T09:51:54Z</time>
      </trkpt>
      <trkpt lat="42.8938670" lon="-8.4479010">
        <ele>332.6</ele>
        <time>2021-07-26T09:51:55Z</time>
      </trkpt>
      <trkpt lat="42.8938360" lon="-8.4479200">
        <ele>332.6</ele>
        <time>2021-07-26T09:51:57Z</time>
      </trkpt>
      <trkpt lat="42.8937550" lon="-8.4479630">
        <ele>333.0</ele>
        <time>2021-07-26T09:52:02Z</time>
      </trkpt>
      <trkpt lat="42.8937400" lon="-8.4479720">
        <ele>333.4</ele>
        <time>2021-07-26T09:52:03Z</time>
      </trkpt>
      <trkpt lat="42.8937240" lon="-8.4479770">
        <ele>333.8</ele>
        <time>2021-07-26T09:52:04Z</time>
      </trkpt>
      <trkpt lat="42.8937090" lon="-8.4479810">
        <ele>334.4</ele>
        <time>2021-07-26T09:52:05Z</time>
      </trkpt>
      <trkpt lat="42.8936920" lon="-8.4479870">
        <ele>334.8</ele>
        <time>2021-07-26T09:52:06Z</time>
      </trkpt>
      <trkpt lat="42.8935690" lon="-8.4480500">
        <ele>335.2</ele>
        <time>2021-07-26T09:52:14Z</time>
      </trkpt>
      <trkpt lat="42.8935560" lon="-8.4480540">
        <ele>335.6</ele>
        <time>2021-07-26T09:52:15Z</time>
      </trkpt>
      <trkpt lat="42.8935420" lon="-8.4480570">
        <ele>336.0</ele>
        <time>2021-07-26T09:52:16Z</time>
      </trkpt>
      <trkpt lat="42.8935250" lon="-8.4480590">
        <ele>336.8</ele>
        <time>2021-07-26T09:52:17Z</time>
      </trkpt>
      <trkpt lat="42.8934790" lon="-8.4480870">
        <ele>336.8</ele>
        <time>2021-07-26T09:52:21Z</time>
      </trkpt>
      <trkpt lat="42.8934260" lon="-8.4481390">
        <ele>336.8</ele>
        <time>2021-07-26T09:52:26Z</time>
      </trkpt>
      <trkpt lat="42.8934010" lon="-8.4481860">
        <ele>336.8</ele>
        <time>2021-07-26T09:52:28Z</time>
      </trkpt>
      <trkpt lat="42.8932870" lon="-8.4483000">
        <ele>336.8</ele>
        <time>2021-07-26T09:52:33Z</time>
      </trkpt>
      <trkpt lat="42.8932340" lon="-8.4483490">
        <ele>336.8</ele>
        <time>2021-07-26T09:52:35Z</time>
      </trkpt>
      <trkpt lat="42.8930870" lon="-8.4485280">
        <ele>336.8</ele>
        <time>2021-07-26T09:52:41Z</time>
      </trkpt>
      <trkpt lat="42.8930180" lon="-8.4486030">
        <ele>336.8</ele>
        <time>2021-07-26T09:52:44Z</time>
      </trkpt>
      <trkpt lat="42.8929820" lon="-8.4486490">
        <ele>336.8</ele>
        <time>2021-07-26T09:52:46Z</time>
      </trkpt>
      <trkpt lat="42.8929350" lon="-8.4487080">
        <ele>336.8</ele>
        <time>2021-07-26T09:52:49Z</time>
      </trkpt>
      <trkpt lat="42.8929040" lon="-8.4487330">
        <ele>336.8</ele>
        <time>2021-07-26T09:52:51Z</time>
      </trkpt>
      <trkpt lat="42.8928470" lon="-8.4488090">
        <ele>336.8</ele>
        <time>2021-07-26T09:52:54Z</time>
      </trkpt>
      <trkpt lat="42.8927810" lon="-8.4488970">
        <ele>336.8</ele>
        <time>2021-07-26T09:52:57Z</time>
      </trkpt>
      <trkpt lat="42.8927080" lon="-8.4489870">
        <ele>336.8</ele>
        <time>2021-07-26T09:53:00Z</time>
      </trkpt>
      <trkpt lat="42.8926560" lon="-8.4490530">
        <ele>336.8</ele>
        <time>2021-07-26T09:53:02Z</time>
      </trkpt>
      <trkpt lat="42.8925790" lon="-8.4491640">
        <ele>336.8</ele>
        <time>2021-07-26T09:53:05Z</time>
      </trkpt>
      <trkpt lat="42.8924750" lon="-8.4493400">
        <ele>336.8</ele>
        <time>2021-07-26T09:53:10Z</time>
      </trkpt>
      <trkpt lat="42.8924390" lon="-8.4493990">
        <ele>336.8</ele>
        <time>2021-07-26T09:53:12Z</time>
      </trkpt>
      <trkpt lat="42.8923710" lon="-8.4495010">
        <ele>336.8</ele>
        <time>2021-07-26T09:53:16Z</time>
      </trkpt>
      <trkpt lat="42.8923520" lon="-8.4495340">
        <ele>336.8</ele>
        <time>2021-07-26T09:53:17Z</time>
      </trkpt>
      <trkpt lat="42.8922160" lon="-8.4497750">
        <ele>336.8</ele>
        <time>2021-07-26T09:53:23Z</time>
      </trkpt>
      <trkpt lat="42.8921990" lon="-8.4498040">
        <ele>336.8</ele>
        <time>2021-07-26T09:53:24Z</time>
      </trkpt>
      <trkpt lat="42.8921770" lon="-8.4498310">
        <ele>336.8</ele>
        <time>2021-07-26T09:53:25Z</time>
      </trkpt>
      <trkpt lat="42.8921540" lon="-8.4498490">
        <ele>336.8</ele>
        <time>2021-07-26T09:53:26Z</time>
      </trkpt>
      <trkpt lat="42.8921080" lon="-8.4498640">
        <ele>336.8</ele>
        <time>2021-07-26T09:53:28Z</time>
      </trkpt>
      <trkpt lat="42.8920650" lon="-8.4498600">
        <ele>336.8</ele>
        <time>2021-07-26T09:53:30Z</time>
      </trkpt>
      <trkpt lat="42.8920220" lon="-8.4498540">
        <ele>336.8</ele>
        <time>2021-07-26T09:53:32Z</time>
      </trkpt>
      <trkpt lat="42.8919990" lon="-8.4498480">
        <ele>336.8</ele>
        <time>2021-07-26T09:53:33Z</time>
      </trkpt>
      <trkpt lat="42.8919730" lon="-8.4498440">
        <ele>336.8</ele>
        <time>2021-07-26T09:53:34Z</time>
      </trkpt>
      <trkpt lat="42.8919490" lon="-8.4498380">
        <ele>336.8</ele>
        <time>2021-07-26T09:53:35Z</time>
      </trkpt>
      <trkpt lat="42.8919280" lon="-8.4498340">
        <ele>337.4</ele>
        <time>2021-07-26T09:53:36Z</time>
      </trkpt>
      <trkpt lat="42.8919050" lon="-8.4498290">
        <ele>337.8</ele>
        <time>2021-07-26T09:53:37Z</time>
      </trkpt>
      <trkpt lat="42.8918820" lon="-8.4498210">
        <ele>338.2</ele>
        <time>2021-07-26T09:53:38Z</time>
      </trkpt>
      <trkpt lat="42.8918580" lon="-8.4498120">
        <ele>338.8</ele>
        <time>2021-07-26T09:53:39Z</time>
      </trkpt>
      <trkpt lat="42.8918330" lon="-8.4498070">
        <ele>339.2</ele>
        <time>2021-07-26T09:53:40Z</time>
      </trkpt>
      <trkpt lat="42.8917860" lon="-8.4497980">
        <ele>339.2</ele>
        <time>2021-07-26T09:53:42Z</time>
      </trkpt>
      <trkpt lat="42.8917390" lon="-8.4497740">
        <ele>339.2</ele>
        <time>2021-07-26T09:53:44Z</time>
      </trkpt>
      <trkpt lat="42.8917160" lon="-8.4497590">
        <ele>339.6</ele>
        <time>2021-07-26T09:53:45Z</time>
      </trkpt>
      <trkpt lat="42.8916960" lon="-8.4497430">
        <ele>340.0</ele>
        <time>2021-07-26T09:53:46Z</time>
      </trkpt>
      <trkpt lat="42.8916770" lon="-8.4497270">
        <ele>340.4</ele>
        <time>2021-07-26T09:53:47Z</time>
      </trkpt>
      <trkpt lat="42.8916600" lon="-8.4497090">
        <ele>340.8</ele>
        <time>2021-07-26T09:53:48Z</time>
      </trkpt>
      <trkpt lat="42.8916440" lon="-8.4496970">
        <ele>341.4</ele>
        <time>2021-07-26T09:53:49Z</time>
      </trkpt>
      <trkpt lat="42.8916050" lon="-8.4496810">
        <ele>341.4</ele>
        <time>2021-07-26T09:53:51Z</time>
      </trkpt>
      <trkpt lat="42.8915790" lon="-8.4497110">
        <ele>341.4</ele>
        <time>2021-07-26T09:53:53Z</time>
      </trkpt>
      <trkpt lat="42.8915410" lon="-8.4498650">
        <ele>341.4</ele>
        <time>2021-07-26T09:53:58Z</time>
      </trkpt>
      <trkpt lat="42.8915190" lon="-8.4500850">
        <ele>341.4</ele>
        <time>2021-07-26T09:54:03Z</time>
      </trkpt>
      <trkpt lat="42.8914470" lon="-8.4504280">
        <ele>341.4</ele>
        <time>2021-07-26T09:54:10Z</time>
      </trkpt>
      <trkpt lat="42.8914150" lon="-8.4506250">
        <ele>341.4</ele>
        <time>2021-07-26T09:54:15Z</time>
      </trkpt>
      <trkpt lat="42.8914160" lon="-8.4507010">
        <ele>341.4</ele>
        <time>2021-07-26T09:54:17Z</time>
      </trkpt>
      <trkpt lat="42.8914280" lon="-8.4508170">
        <ele>341.4</ele>
        <time>2021-07-26T09:54:20Z</time>
      </trkpt>
      <trkpt lat="42.8914570" lon="-8.4509900">
        <ele>341.4</ele>
        <time>2021-07-26T09:54:24Z</time>
      </trkpt>
      <trkpt lat="42.8914600" lon="-8.4510890">
        <ele>341.4</ele>
        <time>2021-07-26T09:54:27Z</time>
      </trkpt>
      <trkpt lat="42.8914640" lon="-8.4511440">
        <ele>341.4</ele>
        <time>2021-07-26T09:54:29Z</time>
      </trkpt>
      <trkpt lat="42.8914610" lon="-8.4511990">
        <ele>340.8</ele>
        <time>2021-07-26T09:54:31Z</time>
      </trkpt>
      <trkpt lat="42.8914600" lon="-8.4512220">
        <ele>340.4</ele>
        <time>2021-07-26T09:54:32Z</time>
      </trkpt>
      <trkpt lat="42.8914580" lon="-8.4512440">
        <ele>340.0</ele>
        <time>2021-07-26T09:54:33Z</time>
      </trkpt>
      <trkpt lat="42.8914570" lon="-8.4512650">
        <ele>339.4</ele>
        <time>2021-07-26T09:54:34Z</time>
      </trkpt>
      <trkpt lat="42.8914550" lon="-8.4512740">
        <ele>339.0</ele>
        <time>2021-07-26T09:54:35Z</time>
      </trkpt>
      <trkpt lat="42.8914640" lon="-8.4512780">
        <ele>339.0</ele>
        <time>2021-07-26T09:54:54Z</time>
      </trkpt>
      <trkpt lat="42.8914590" lon="-8.4512950">
        <ele>339.0</ele>
        <time>2021-07-26T09:54:55Z</time>
      </trkpt>
      <trkpt lat="42.8914420" lon="-8.4513590">
        <ele>339.0</ele>
        <time>2021-07-26T09:54:57Z</time>
      </trkpt>
      <trkpt lat="42.8914210" lon="-8.4516010">
        <ele>339.0</ele>
        <time>2021-07-26T09:55:03Z</time>
      </trkpt>
      <trkpt lat="42.8914080" lon="-8.4517300">
        <ele>339.0</ele>
        <time>2021-07-26T09:55:08Z</time>
      </trkpt>
      <trkpt lat="42.8914070" lon="-8.4517520">
        <ele>339.0</ele>
        <time>2021-07-26T09:55:09Z</time>
      </trkpt>
      <trkpt lat="42.8914130" lon="-8.4518510">
        <ele>339.0</ele>
        <time>2021-07-26T09:55:13Z</time>
      </trkpt>
      <trkpt lat="42.8914040" lon="-8.4519320">
        <ele>339.0</ele>
        <time>2021-07-26T09:55:16Z</time>
      </trkpt>
      <trkpt lat="42.8913990" lon="-8.4520080">
        <ele>339.4</ele>
        <time>2021-07-26T09:55:19Z</time>
      </trkpt>
      <trkpt lat="42.8913960" lon="-8.4520310">
        <ele>339.8</ele>
        <time>2021-07-26T09:55:20Z</time>
      </trkpt>
      <trkpt lat="42.8913960" lon="-8.4520550">
        <ele>340.4</ele>
        <time>2021-07-26T09:55:21Z</time>
      </trkpt>
      <trkpt lat="42.8913980" lon="-8.4520780">
        <ele>340.8</ele>
        <time>2021-07-26T09:55:22Z</time>
      </trkpt>
      <trkpt lat="42.8914010" lon="-8.4521000">
        <ele>341.2</ele>
        <time>2021-07-26T09:55:23Z</time>
      </trkpt>
      <trkpt lat="42.8913990" lon="-8.4521680">
        <ele>341.2</ele>
        <time>2021-07-26T09:55:26Z</time>
      </trkpt>
      <trkpt lat="42.8914000" lon="-8.4522520">
        <ele>341.2</ele>
        <time>2021-07-26T09:55:30Z</time>
      </trkpt>
      <trkpt lat="42.8914030" lon="-8.4522730">
        <ele>341.6</ele>
        <time>2021-07-26T09:55:31Z</time>
      </trkpt>
      <trkpt lat="42.8914050" lon="-8.4522950">
        <ele>342.0</ele>
        <time>2021-07-26T09:55:32Z</time>
      </trkpt>
      <trkpt lat="42.8914080" lon="-8.4523180">
        <ele>342.4</ele>
        <time>2021-07-26T09:55:33Z</time>
      </trkpt>
      <trkpt lat="42.8914140" lon="-8.4523390">
        <ele>343.4</ele>
        <time>2021-07-26T09:55:34Z</time>
      </trkpt>
      <trkpt lat="42.8914280" lon="-8.4524030">
        <ele>343.4</ele>
        <time>2021-07-26T09:55:37Z</time>
      </trkpt>
      <trkpt lat="42.8914310" lon="-8.4524650">
        <ele>343.4</ele>
        <time>2021-07-26T09:55:40Z</time>
      </trkpt>
      <trkpt lat="42.8914070" lon="-8.4525470">
        <ele>343.4</ele>
        <time>2021-07-26T09:55:44Z</time>
      </trkpt>
      <trkpt lat="42.8913990" lon="-8.4525680">
        <ele>343.8</ele>
        <time>2021-07-26T09:55:45Z</time>
      </trkpt>
      <trkpt lat="42.8913900" lon="-8.4525870">
        <ele>344.2</ele>
        <time>2021-07-26T09:55:46Z</time>
      </trkpt>
      <trkpt lat="42.8913800" lon="-8.4526030">
        <ele>344.6</ele>
        <time>2021-07-26T09:55:47Z</time>
      </trkpt>
      <trkpt lat="42.8913670" lon="-8.4526200">
        <ele>345.0</ele>
        <time>2021-07-26T09:55:48Z</time>
      </trkpt>
      <trkpt lat="42.8913540" lon="-8.4526350">
        <ele>345.4</ele>
        <time>2021-07-26T09:55:49Z</time>
      </trkpt>
      <trkpt lat="42.8913250" lon="-8.4526640">
        <ele>345.4</ele>
        <time>2021-07-26T09:55:51Z</time>
      </trkpt>
      <trkpt lat="42.8912440" lon="-8.4527670">
        <ele>345.4</ele>
        <time>2021-07-26T09:55:57Z</time>
      </trkpt>
      <trkpt lat="42.8911380" lon="-8.4529020">
        <ele>345.8</ele>
        <time>2021-07-26T09:56:04Z</time>
      </trkpt>
      <trkpt lat="42.8911220" lon="-8.4529190">
        <ele>346.2</ele>
        <time>2021-07-26T09:56:05Z</time>
      </trkpt>
      <trkpt lat="42.8911070" lon="-8.4529360">
        <ele>346.6</ele>
        <time>2021-07-26T09:56:06Z</time>
      </trkpt>
      <trkpt lat="42.8910950" lon="-8.4529570">
        <ele>347.0</ele>
        <time>2021-07-26T09:56:07Z</time>
      </trkpt>
      <trkpt lat="42.8910830" lon="-8.4529820">
        <ele>347.4</ele>
        <time>2021-07-26T09:56:08Z</time>
      </trkpt>
      <trkpt lat="42.8910310" lon="-8.4530760">
        <ele>347.4</ele>
        <time>2021-07-26T09:56:12Z</time>
      </trkpt>
      <trkpt lat="42.8909880" lon="-8.4532560">
        <ele>347.8</ele>
        <time>2021-07-26T09:56:19Z</time>
      </trkpt>
      <trkpt lat="42.8909850" lon="-8.4532810">
        <ele>348.2</ele>
        <time>2021-07-26T09:56:20Z</time>
      </trkpt>
      <trkpt lat="42.8909810" lon="-8.4533070">
        <ele>348.8</ele>
        <time>2021-07-26T09:56:21Z</time>
      </trkpt>
      <trkpt lat="42.8909790" lon="-8.4533330">
        <ele>349.2</ele>
        <time>2021-07-26T09:56:22Z</time>
      </trkpt>
      <trkpt lat="42.8909790" lon="-8.4533610">
        <ele>349.6</ele>
        <time>2021-07-26T09:56:23Z</time>
      </trkpt>
      <trkpt lat="42.8909690" lon="-8.4534680">
        <ele>349.6</ele>
        <time>2021-07-26T09:56:27Z</time>
      </trkpt>
      <trkpt lat="42.8909610" lon="-8.4535760">
        <ele>350.0</ele>
        <time>2021-07-26T09:56:31Z</time>
      </trkpt>
      <trkpt lat="42.8909600" lon="-8.4536050">
        <ele>350.4</ele>
        <time>2021-07-26T09:56:32Z</time>
      </trkpt>
      <trkpt lat="42.8909570" lon="-8.4536380">
        <ele>350.8</ele>
        <time>2021-07-26T09:56:33Z</time>
      </trkpt>
      <trkpt lat="42.8909550" lon="-8.4536700">
        <ele>351.2</ele>
        <time>2021-07-26T09:56:34Z</time>
      </trkpt>
      <trkpt lat="42.8909550" lon="-8.4537010">
        <ele>351.6</ele>
        <time>2021-07-26T09:56:35Z</time>
      </trkpt>
      <trkpt lat="42.8909410" lon="-8.4538800">
        <ele>351.6</ele>
        <time>2021-07-26T09:56:41Z</time>
      </trkpt>
      <trkpt lat="42.8909220" lon="-8.4541280">
        <ele>351.6</ele>
        <time>2021-07-26T09:56:49Z</time>
      </trkpt>
      <trkpt lat="42.8909150" lon="-8.4543280">
        <ele>351.6</ele>
        <time>2021-07-26T09:56:55Z</time>
      </trkpt>
      <trkpt lat="42.8909150" lon="-8.4544910">
        <ele>352.0</ele>
        <time>2021-07-26T09:56:59Z</time>
      </trkpt>
      <trkpt lat="42.8909140" lon="-8.4545330">
        <ele>352.4</ele>
        <time>2021-07-26T09:57:00Z</time>
      </trkpt>
      <trkpt lat="42.8909110" lon="-8.4545760">
        <ele>352.8</ele>
        <time>2021-07-26T09:57:01Z</time>
      </trkpt>
      <trkpt lat="42.8909060" lon="-8.4546180">
        <ele>353.2</ele>
        <time>2021-07-26T09:57:02Z</time>
      </trkpt>
      <trkpt lat="42.8909010" lon="-8.4546540">
        <ele>353.8</ele>
        <time>2021-07-26T09:57:03Z</time>
      </trkpt>
      <trkpt lat="42.8908550" lon="-8.4548410">
        <ele>353.8</ele>
        <time>2021-07-26T09:57:08Z</time>
      </trkpt>
      <trkpt lat="42.8907620" lon="-8.4550010">
        <ele>353.8</ele>
        <time>2021-07-26T09:57:13Z</time>
      </trkpt>
      <trkpt lat="42.8906260" lon="-8.4551910">
        <ele>354.2</ele>
        <time>2021-07-26T09:57:19Z</time>
      </trkpt>
      <trkpt lat="42.8906070" lon="-8.4552290">
        <ele>354.6</ele>
        <time>2021-07-26T09:57:20Z</time>
      </trkpt>
      <trkpt lat="42.8905890" lon="-8.4552630">
        <ele>355.0</ele>
        <time>2021-07-26T09:57:21Z</time>
      </trkpt>
      <trkpt lat="42.8905700" lon="-8.4553000">
        <ele>355.4</ele>
        <time>2021-07-26T09:57:22Z</time>
      </trkpt>
      <trkpt lat="42.8905500" lon="-8.4553390">
        <ele>355.8</ele>
        <time>2021-07-26T09:57:23Z</time>
      </trkpt>
      <trkpt lat="42.8904720" lon="-8.4555070">
        <ele>355.8</ele>
        <time>2021-07-26T09:57:27Z</time>
      </trkpt>
      <trkpt lat="42.8903840" lon="-8.4557050">
        <ele>355.8</ele>
        <time>2021-07-26T09:57:33Z</time>
      </trkpt>
      <trkpt lat="42.8903310" lon="-8.4558780">
        <ele>355.8</ele>
        <time>2021-07-26T09:57:38Z</time>
      </trkpt>
      <trkpt lat="42.8903080" lon="-8.4559440">
        <ele>355.8</ele>
        <time>2021-07-26T09:57:40Z</time>
      </trkpt>
      <trkpt lat="42.8902160" lon="-8.4562400">
        <ele>355.8</ele>
        <time>2021-07-26T09:57:48Z</time>
      </trkpt>
      <trkpt lat="42.8902040" lon="-8.4562800">
        <ele>356.2</ele>
        <time>2021-07-26T09:57:49Z</time>
      </trkpt>
      <trkpt lat="42.8901940" lon="-8.4563200">
        <ele>356.6</ele>
        <time>2021-07-26T09:57:50Z</time>
      </trkpt>
      <trkpt lat="42.8901870" lon="-8.4563620">
        <ele>357.0</ele>
        <time>2021-07-26T09:57:51Z</time>
      </trkpt>
      <trkpt lat="42.8901830" lon="-8.4564010">
        <ele>357.4</ele>
        <time>2021-07-26T09:57:52Z</time>
      </trkpt>
      <trkpt lat="42.8901810" lon="-8.4564390">
        <ele>357.8</ele>
        <time>2021-07-26T09:57:53Z</time>
      </trkpt>
      <trkpt lat="42.8901680" lon="-8.4565610">
        <ele>357.8</ele>
        <time>2021-07-26T09:57:56Z</time>
      </trkpt>
      <trkpt lat="42.8901480" lon="-8.4568940">
        <ele>357.8</ele>
        <time>2021-07-26T09:58:03Z</time>
      </trkpt>
      <trkpt lat="42.8901440" lon="-8.4569930">
        <ele>358.2</ele>
        <time>2021-07-26T09:58:05Z</time>
      </trkpt>
      <trkpt lat="42.8901470" lon="-8.4570460">
        <ele>358.6</ele>
        <time>2021-07-26T09:58:06Z</time>
      </trkpt>
      <trkpt lat="42.8901490" lon="-8.4570980">
        <ele>359.0</ele>
        <time>2021-07-26T09:58:07Z</time>
      </trkpt>
      <trkpt lat="42.8901530" lon="-8.4571500">
        <ele>359.4</ele>
        <time>2021-07-26T09:58:08Z</time>
      </trkpt>
      <trkpt lat="42.8901580" lon="-8.4572000">
        <ele>359.8</ele>
        <time>2021-07-26T09:58:09Z</time>
      </trkpt>
      <trkpt lat="42.8901620" lon="-8.4572430">
        <ele>359.8</ele>
        <time>2021-07-26T09:58:10Z</time>
      </trkpt>
      <trkpt lat="42.8901940" lon="-8.4575740">
        <ele>359.8</ele>
        <time>2021-07-26T09:58:17Z</time>
      </trkpt>
      <trkpt lat="42.8902430" lon="-8.4578580">
        <ele>360.2</ele>
        <time>2021-07-26T09:58:23Z</time>
      </trkpt>
      <trkpt lat="42.8902540" lon="-8.4578960">
        <ele>360.6</ele>
        <time>2021-07-26T09:58:24Z</time>
      </trkpt>
      <trkpt lat="42.8902660" lon="-8.4579360">
        <ele>361.0</ele>
        <time>2021-07-26T09:58:25Z</time>
      </trkpt>
      <trkpt lat="42.8902760" lon="-8.4579720">
        <ele>361.4</ele>
        <time>2021-07-26T09:58:26Z</time>
      </trkpt>
      <trkpt lat="42.8902880" lon="-8.4580070">
        <ele>362.0</ele>
        <time>2021-07-26T09:58:27Z</time>
      </trkpt>
      <trkpt lat="42.8903160" lon="-8.4580810">
        <ele>362.4</ele>
        <time>2021-07-26T09:58:29Z</time>
      </trkpt>
      <trkpt lat="42.8903270" lon="-8.4581180">
        <ele>362.8</ele>
        <time>2021-07-26T09:58:30Z</time>
      </trkpt>
      <trkpt lat="42.8903340" lon="-8.4581560">
        <ele>363.2</ele>
        <time>2021-07-26T09:58:31Z</time>
      </trkpt>
      <trkpt lat="42.8903420" lon="-8.4581890">
        <ele>363.6</ele>
        <time>2021-07-26T09:58:32Z</time>
      </trkpt>
      <trkpt lat="42.8903510" lon="-8.4582210">
        <ele>364.0</ele>
        <time>2021-07-26T09:58:33Z</time>
      </trkpt>
      <trkpt lat="42.8903740" lon="-8.4583610">
        <ele>364.0</ele>
        <time>2021-07-26T09:58:37Z</time>
      </trkpt>
      <trkpt lat="42.8903880" lon="-8.4584350">
        <ele>364.0</ele>
        <time>2021-07-26T09:58:39Z</time>
      </trkpt>
      <trkpt lat="42.8904160" lon="-8.4586490">
        <ele>364.0</ele>
        <time>2021-07-26T09:58:44Z</time>
      </trkpt>
      <trkpt lat="42.8904290" lon="-8.4587870">
        <ele>364.4</ele>
        <time>2021-07-26T09:58:48Z</time>
      </trkpt>
      <trkpt lat="42.8904310" lon="-8.4588220">
        <ele>364.8</ele>
        <time>2021-07-26T09:58:49Z</time>
      </trkpt>
      <trkpt lat="42.8904320" lon="-8.4588570">
        <ele>365.4</ele>
        <time>2021-07-26T09:58:50Z</time>
      </trkpt>
      <trkpt lat="42.8904340" lon="-8.4588940">
        <ele>365.8</ele>
        <time>2021-07-26T09:58:51Z</time>
      </trkpt>
      <trkpt lat="42.8904400" lon="-8.4589300">
        <ele>366.2</ele>
        <time>2021-07-26T09:58:52Z</time>
      </trkpt>
      <trkpt lat="42.8904940" lon="-8.4591770">
        <ele>366.2</ele>
        <time>2021-07-26T09:58:59Z</time>
      </trkpt>
      <trkpt lat="42.8905090" lon="-8.4592500">
        <ele>366.6</ele>
        <time>2021-07-26T09:59:01Z</time>
      </trkpt>
      <trkpt lat="42.8905170" lon="-8.4592870">
        <ele>367.0</ele>
        <time>2021-07-26T09:59:02Z</time>
      </trkpt>
      <trkpt lat="42.8905240" lon="-8.4593260">
        <ele>367.4</ele>
        <time>2021-07-26T09:59:03Z</time>
      </trkpt>
      <trkpt lat="42.8905290" lon="-8.4593670">
        <ele>367.8</ele>
        <time>2021-07-26T09:59:04Z</time>
      </trkpt>
      <trkpt lat="42.8905350" lon="-8.4594100">
        <ele>368.2</ele>
        <time>2021-07-26T09:59:05Z</time>
      </trkpt>
      <trkpt lat="42.8905500" lon="-8.4594870">
        <ele>368.2</ele>
        <time>2021-07-26T09:59:07Z</time>
      </trkpt>
      <trkpt lat="42.8905840" lon="-8.4597400">
        <ele>368.2</ele>
        <time>2021-07-26T09:59:14Z</time>
      </trkpt>
      <trkpt lat="42.8905950" lon="-8.4599450">
        <ele>368.2</ele>
        <time>2021-07-26T09:59:19Z</time>
      </trkpt>
      <trkpt lat="42.8905890" lon="-8.4599850">
        <ele>368.2</ele>
        <time>2021-07-26T09:59:20Z</time>
      </trkpt>
      <trkpt lat="42.8905820" lon="-8.4601670">
        <ele>368.2</ele>
        <time>2021-07-26T09:59:25Z</time>
      </trkpt>
      <trkpt lat="42.8905830" lon="-8.4601980">
        <ele>368.2</ele>
        <time>2021-07-26T09:59:26Z</time>
      </trkpt>
      <trkpt lat="42.8905830" lon="-8.4604070">
        <ele>368.2</ele>
        <time>2021-07-26T09:59:30Z</time>
      </trkpt>
      <trkpt lat="42.8905770" lon="-8.4604640">
        <ele>368.2</ele>
        <time>2021-07-26T09:59:31Z</time>
      </trkpt>
      <trkpt lat="42.8905640" lon="-8.4605580">
        <ele>368.2</ele>
        <time>2021-07-26T09:59:33Z</time>
      </trkpt>
      <trkpt lat="42.8905420" lon="-8.4606390">
        <ele>368.2</ele>
        <time>2021-07-26T09:59:35Z</time>
      </trkpt>
      <trkpt lat="42.8905310" lon="-8.4606850">
        <ele>368.2</ele>
        <time>2021-07-26T09:59:36Z</time>
      </trkpt>
      <trkpt lat="42.8904710" lon="-8.4609600">
        <ele>368.2</ele>
        <time>2021-07-26T09:59:42Z</time>
      </trkpt>
      <trkpt lat="42.8904480" lon="-8.4611050">
        <ele>368.2</ele>
        <time>2021-07-26T09:59:45Z</time>
      </trkpt>
      <trkpt lat="42.8904310" lon="-8.4612310">
        <ele>368.2</ele>
        <time>2021-07-26T09:59:48Z</time>
      </trkpt>
      <trkpt lat="42.8904280" lon="-8.4615210">
        <ele>368.2</ele>
        <time>2021-07-26T09:59:54Z</time>
      </trkpt>
      <trkpt lat="42.8904140" lon="-8.4618630">
        <ele>368.2</ele>
        <time>2021-07-26T10:00:00Z</time>
      </trkpt>
      <trkpt lat="42.8904120" lon="-8.4620920">
        <ele>368.2</ele>
        <time>2021-07-26T10:00:04Z</time>
      </trkpt>
      <trkpt lat="42.8904140" lon="-8.4621890">
        <ele>368.2</ele>
        <time>2021-07-26T10:00:06Z</time>
      </trkpt>
      <trkpt lat="42.8904210" lon="-8.4623270">
        <ele>368.2</ele>
        <time>2021-07-26T10:00:09Z</time>
      </trkpt>
      <trkpt lat="42.8904300" lon="-8.4625250">
        <ele>368.2</ele>
        <time>2021-07-26T10:00:12Z</time>
      </trkpt>
      <trkpt lat="42.8904400" lon="-8.4628410">
        <ele>368.2</ele>
        <time>2021-07-26T10:00:17Z</time>
      </trkpt>
      <trkpt lat="42.8904320" lon="-8.4629640">
        <ele>368.2</ele>
        <time>2021-07-26T10:00:19Z</time>
      </trkpt>
      <trkpt lat="42.8904150" lon="-8.4633400">
        <ele>368.2</ele>
        <time>2021-07-26T10:00:26Z</time>
      </trkpt>
      <trkpt lat="42.8904540" lon="-8.4635820">
        <ele>368.2</ele>
        <time>2021-07-26T10:00:31Z</time>
      </trkpt>
      <trkpt lat="42.8904820" lon="-8.4637700">
        <ele>368.2</ele>
        <time>2021-07-26T10:00:35Z</time>
      </trkpt>
      <trkpt lat="42.8904920" lon="-8.4638650">
        <ele>368.2</ele>
        <time>2021-07-26T10:00:37Z</time>
      </trkpt>
      <trkpt lat="42.8905290" lon="-8.4640900">
        <ele>368.2</ele>
        <time>2021-07-26T10:00:41Z</time>
      </trkpt>
      <trkpt lat="42.8905330" lon="-8.4641570">
        <ele>368.2</ele>
        <time>2021-07-26T10:00:42Z</time>
      </trkpt>
      <trkpt lat="42.8905750" lon="-8.4643930">
        <ele>368.2</ele>
        <time>2021-07-26T10:00:46Z</time>
      </trkpt>
      <trkpt lat="42.8905880" lon="-8.4645060">
        <ele>368.2</ele>
        <time>2021-07-26T10:00:48Z</time>
      </trkpt>
      <trkpt lat="42.8906020" lon="-8.4646140">
        <ele>368.6</ele>
        <time>2021-07-26T10:00:50Z</time>
      </trkpt>
      <trkpt lat="42.8906100" lon="-8.4646690">
        <ele>369.0</ele>
        <time>2021-07-26T10:00:51Z</time>
      </trkpt>
      <trkpt lat="42.8906170" lon="-8.4647280">
        <ele>369.4</ele>
        <time>2021-07-26T10:00:52Z</time>
      </trkpt>
      <trkpt lat="42.8906230" lon="-8.4647860">
        <ele>369.8</ele>
        <time>2021-07-26T10:00:53Z</time>
      </trkpt>
      <trkpt lat="42.8906320" lon="-8.4648460">
        <ele>370.2</ele>
        <time>2021-07-26T10:00:54Z</time>
      </trkpt>
      <trkpt lat="42.8906420" lon="-8.4649030">
        <ele>370.2</ele>
        <time>2021-07-26T10:00:55Z</time>
      </trkpt>
      <trkpt lat="42.8907030" lon="-8.4653370">
        <ele>370.2</ele>
        <time>2021-07-26T10:01:02Z</time>
      </trkpt>
      <trkpt lat="42.8907440" lon="-8.4656430">
        <ele>370.2</ele>
        <time>2021-07-26T10:01:08Z</time>
      </trkpt>
      <trkpt lat="42.8907510" lon="-8.4656930">
        <ele>370.2</ele>
        <time>2021-07-26T10:01:09Z</time>
      </trkpt>
      <trkpt lat="42.8908140" lon="-8.4660970">
        <ele>370.2</ele>
        <time>2021-07-26T10:01:16Z</time>
      </trkpt>
      <trkpt lat="42.8908740" lon="-8.4665520">
        <ele>370.2</ele>
        <time>2021-07-26T10:01:23Z</time>
      </trkpt>
      <trkpt lat="42.8909410" lon="-8.4669820">
        <ele>370.2</ele>
        <time>2021-07-26T10:01:30Z</time>
      </trkpt>
      <trkpt lat="42.8909510" lon="-8.4670460">
        <ele>370.2</ele>
        <time>2021-07-26T10:01:31Z</time>
      </trkpt>
      <trkpt lat="42.8909790" lon="-8.4672970">
        <ele>370.6</ele>
        <time>2021-07-26T10:01:35Z</time>
      </trkpt>
      <trkpt lat="42.8909860" lon="-8.4673550">
        <ele>371.0</ele>
        <time>2021-07-26T10:01:36Z</time>
      </trkpt>
      <trkpt lat="42.8909940" lon="-8.4674120">
        <ele>371.4</ele>
        <time>2021-07-26T10:01:37Z</time>
      </trkpt>
      <trkpt lat="42.8910010" lon="-8.4674690">
        <ele>371.8</ele>
        <time>2021-07-26T10:01:38Z</time>
      </trkpt>
      <trkpt lat="42.8910080" lon="-8.4675290">
        <ele>372.2</ele>
        <time>2021-07-26T10:01:39Z</time>
      </trkpt>
      <trkpt lat="42.8910580" lon="-8.4679130">
        <ele>372.2</ele>
        <time>2021-07-26T10:01:46Z</time>
      </trkpt>
      <trkpt lat="42.8911110" lon="-8.4683830">
        <ele>372.2</ele>
        <time>2021-07-26T10:01:55Z</time>
      </trkpt>
      <trkpt lat="42.8911380" lon="-8.4685380">
        <ele>372.8</ele>
        <time>2021-07-26T10:01:58Z</time>
      </trkpt>
      <trkpt lat="42.8911470" lon="-8.4685870">
        <ele>373.2</ele>
        <time>2021-07-26T10:01:59Z</time>
      </trkpt>
      <trkpt lat="42.8911540" lon="-8.4686380">
        <ele>373.6</ele>
        <time>2021-07-26T10:02:00Z</time>
      </trkpt>
      <trkpt lat="42.8911610" lon="-8.4686900">
        <ele>374.0</ele>
        <time>2021-07-26T10:02:01Z</time>
      </trkpt>
      <trkpt lat="42.8911690" lon="-8.4687420">
        <ele>374.4</ele>
        <time>2021-07-26T10:02:02Z</time>
      </trkpt>
      <trkpt lat="42.8911780" lon="-8.4687970">
        <ele>374.4</ele>
        <time>2021-07-26T10:02:03Z</time>
      </trkpt>
      <trkpt lat="42.8912140" lon="-8.4690150">
        <ele>374.4</ele>
        <time>2021-07-26T10:02:07Z</time>
      </trkpt>
      <trkpt lat="42.8912490" lon="-8.4692230">
        <ele>374.4</ele>
        <time>2021-07-26T10:02:11Z</time>
      </trkpt>
      <trkpt lat="42.8912940" lon="-8.4694950">
        <ele>374.4</ele>
        <time>2021-07-26T10:02:17Z</time>
      </trkpt>
      <trkpt lat="42.8913400" lon="-8.4698230">
        <ele>374.4</ele>
        <time>2021-07-26T10:02:24Z</time>
      </trkpt>
      <trkpt lat="42.8913830" lon="-8.4700520">
        <ele>374.4</ele>
        <time>2021-07-26T10:02:29Z</time>
      </trkpt>
      <trkpt lat="42.8913920" lon="-8.4701490">
        <ele>374.4</ele>
        <time>2021-07-26T10:02:31Z</time>
      </trkpt>
      <trkpt lat="42.8914180" lon="-8.4703310">
        <ele>374.4</ele>
        <time>2021-07-26T10:02:35Z</time>
      </trkpt>
      <trkpt lat="42.8914300" lon="-8.4704270">
        <ele>374.4</ele>
        <time>2021-07-26T10:02:37Z</time>
      </trkpt>
      <trkpt lat="42.8914350" lon="-8.4704800">
        <ele>374.4</ele>
        <time>2021-07-26T10:02:38Z</time>
      </trkpt>
      <trkpt lat="42.8914480" lon="-8.4705860">
        <ele>374.4</ele>
        <time>2021-07-26T10:02:40Z</time>
      </trkpt>
      <trkpt lat="42.8914650" lon="-8.4707020">
        <ele>374.4</ele>
        <time>2021-07-26T10:02:42Z</time>
      </trkpt>
      <trkpt lat="42.8914940" lon="-8.4708810">
        <ele>374.4</ele>
        <time>2021-07-26T10:02:45Z</time>
      </trkpt>
      <trkpt lat="42.8915050" lon="-8.4710080">
        <ele>374.4</ele>
        <time>2021-07-26T10:02:47Z</time>
      </trkpt>
      <trkpt lat="42.8915220" lon="-8.4711450">
        <ele>374.4</ele>
        <time>2021-07-26T10:02:49Z</time>
      </trkpt>
      <trkpt lat="42.8915630" lon="-8.4714570">
        <ele>374.4</ele>
        <time>2021-07-26T10:02:53Z</time>
      </trkpt>
      <trkpt lat="42.8915830" lon="-8.4716200">
        <ele>374.4</ele>
        <time>2021-07-26T10:02:55Z</time>
      </trkpt>
      <trkpt lat="42.8915930" lon="-8.4717030">
        <ele>374.0</ele>
        <time>2021-07-26T10:02:56Z</time>
      </trkpt>
      <trkpt lat="42.8916040" lon="-8.4717880">
        <ele>373.6</ele>
        <time>2021-07-26T10:02:57Z</time>
      </trkpt>
      <trkpt lat="42.8916140" lon="-8.4718770">
        <ele>373.2</ele>
        <time>2021-07-26T10:02:58Z</time>
      </trkpt>
      <trkpt lat="42.8916250" lon="-8.4719640">
        <ele>372.8</ele>
        <time>2021-07-26T10:02:59Z</time>
      </trkpt>
      <trkpt lat="42.8916360" lon="-8.4720560">
        <ele>372.4</ele>
        <time>2021-07-26T10:03:00Z</time>
      </trkpt>
      <trkpt lat="42.8916850" lon="-8.4725050">
        <ele>372.4</ele>
        <time>2021-07-26T10:03:05Z</time>
      </trkpt>
      <trkpt lat="42.8916950" lon="-8.4725940">
        <ele>372.0</ele>
        <time>2021-07-26T10:03:06Z</time>
      </trkpt>
      <trkpt lat="42.8917050" lon="-8.4726820">
        <ele>371.4</ele>
        <time>2021-07-26T10:03:07Z</time>
      </trkpt>
      <trkpt lat="42.8917180" lon="-8.4727720">
        <ele>371.0</ele>
        <time>2021-07-26T10:03:08Z</time>
      </trkpt>
      <trkpt lat="42.8917280" lon="-8.4728600">
        <ele>370.6</ele>
        <time>2021-07-26T10:03:09Z</time>
      </trkpt>
      <trkpt lat="42.8917380" lon="-8.4729450">
        <ele>370.2</ele>
        <time>2021-07-26T10:03:10Z</time>
      </trkpt>
      <trkpt lat="42.8917490" lon="-8.4730280">
        <ele>370.2</ele>
        <time>2021-07-26T10:03:11Z</time>
      </trkpt>
      <trkpt lat="42.8917820" lon="-8.4733520">
        <ele>370.2</ele>
        <time>2021-07-26T10:03:16Z</time>
      </trkpt>
      <trkpt lat="42.8918040" lon="-8.4735040">
        <ele>370.2</ele>
        <time>2021-07-26T10:03:18Z</time>
      </trkpt>
      <trkpt lat="42.8918250" lon="-8.4737180">
        <ele>370.2</ele>
        <time>2021-07-26T10:03:21Z</time>
      </trkpt>
      <trkpt lat="42.8918590" lon="-8.4739790">
        <ele>369.4</ele>
        <time>2021-07-26T10:03:25Z</time>
      </trkpt>
      <trkpt lat="42.8918680" lon="-8.4740380">
        <ele>369.0</ele>
        <time>2021-07-26T10:03:26Z</time>
      </trkpt>
      <trkpt lat="42.8918760" lon="-8.4740980">
        <ele>368.6</ele>
        <time>2021-07-26T10:03:27Z</time>
      </trkpt>
      <trkpt lat="42.8918860" lon="-8.4741540">
        <ele>368.2</ele>
        <time>2021-07-26T10:03:28Z</time>
      </trkpt>
      <trkpt lat="42.8919170" lon="-8.4743940">
        <ele>368.2</ele>
        <time>2021-07-26T10:03:32Z</time>
      </trkpt>
      <trkpt lat="42.8919330" lon="-8.4745240">
        <ele>368.2</ele>
        <time>2021-07-26T10:03:34Z</time>
      </trkpt>
      <trkpt lat="42.8919400" lon="-8.4745910">
        <ele>368.2</ele>
        <time>2021-07-26T10:03:35Z</time>
      </trkpt>
      <trkpt lat="42.8919520" lon="-8.4747260">
        <ele>368.2</ele>
        <time>2021-07-26T10:03:37Z</time>
      </trkpt>
      <trkpt lat="42.8919580" lon="-8.4747890">
        <ele>368.2</ele>
        <time>2021-07-26T10:03:38Z</time>
      </trkpt>
      <trkpt lat="42.8920010" lon="-8.4752220">
        <ele>368.2</ele>
        <time>2021-07-26T10:03:45Z</time>
      </trkpt>
      <trkpt lat="42.8920100" lon="-8.4752780">
        <ele>368.2</ele>
        <time>2021-07-26T10:03:46Z</time>
      </trkpt>
      <trkpt lat="42.8920160" lon="-8.4753390">
        <ele>368.2</ele>
        <time>2021-07-26T10:03:47Z</time>
      </trkpt>
      <trkpt lat="42.8920570" lon="-8.4756030">
        <ele>368.2</ele>
        <time>2021-07-26T10:03:52Z</time>
      </trkpt>
      <trkpt lat="42.8920910" lon="-8.4757920">
        <ele>368.2</ele>
        <time>2021-07-26T10:03:56Z</time>
      </trkpt>
      <trkpt lat="42.8921190" lon="-8.4759840">
        <ele>368.2</ele>
        <time>2021-07-26T10:04:00Z</time>
      </trkpt>
      <trkpt lat="42.8921940" lon="-8.4762850">
        <ele>368.2</ele>
        <time>2021-07-26T10:04:07Z</time>
      </trkpt>
      <trkpt lat="42.8922080" lon="-8.4763170">
        <ele>367.8</ele>
        <time>2021-07-26T10:04:08Z</time>
      </trkpt>
      <trkpt lat="42.8922260" lon="-8.4763430">
        <ele>367.4</ele>
        <time>2021-07-26T10:04:09Z</time>
      </trkpt>
      <trkpt lat="42.8922410" lon="-8.4763690">
        <ele>367.0</ele>
        <time>2021-07-26T10:04:10Z</time>
      </trkpt>
      <trkpt lat="42.8922550" lon="-8.4763960">
        <ele>366.6</ele>
        <time>2021-07-26T10:04:11Z</time>
      </trkpt>
      <trkpt lat="42.8922660" lon="-8.4764230">
        <ele>366.2</ele>
        <time>2021-07-26T10:04:12Z</time>
      </trkpt>
      <trkpt lat="42.8922740" lon="-8.4764490">
        <ele>366.2</ele>
        <time>2021-07-26T10:04:13Z</time>
      </trkpt>
      <trkpt lat="42.8922740" lon="-8.4764980">
        <ele>366.2</ele>
        <time>2021-07-26T10:04:15Z</time>
      </trkpt>
      <trkpt lat="42.8922460" lon="-8.4765700">
        <ele>366.2</ele>
        <time>2021-07-26T10:04:18Z</time>
      </trkpt>
      <trkpt lat="42.8921420" lon="-8.4765820">
        <ele>366.2</ele>
        <time>2021-07-26T10:04:22Z</time>
      </trkpt>
      <trkpt lat="42.8921130" lon="-8.4765790">
        <ele>366.2</ele>
        <time>2021-07-26T10:04:23Z</time>
      </trkpt>
      <trkpt lat="42.8920470" lon="-8.4765670">
        <ele>366.2</ele>
        <time>2021-07-26T10:04:25Z</time>
      </trkpt>
      <trkpt lat="42.8919400" lon="-8.4765340">
        <ele>366.2</ele>
        <time>2021-07-26T10:04:28Z</time>
      </trkpt>
      <trkpt lat="42.8919030" lon="-8.4765240">
        <ele>366.2</ele>
        <time>2021-07-26T10:04:29Z</time>
      </trkpt>
      <trkpt lat="42.8917080" lon="-8.4764770">
        <ele>366.2</ele>
        <time>2021-07-26T10:04:35Z</time>
      </trkpt>
      <trkpt lat="42.8916100" lon="-8.4764470">
        <ele>366.2</ele>
        <time>2021-07-26T10:04:38Z</time>
      </trkpt>
      <trkpt lat="42.8915370" lon="-8.4764230">
        <ele>366.2</ele>
        <time>2021-07-26T10:04:40Z</time>
      </trkpt>
      <trkpt lat="42.8914630" lon="-8.4764030">
        <ele>366.2</ele>
        <time>2021-07-26T10:04:42Z</time>
      </trkpt>
      <trkpt lat="42.8913030" lon="-8.4763610">
        <ele>366.2</ele>
        <time>2021-07-26T10:04:46Z</time>
      </trkpt>
      <trkpt lat="42.8911540" lon="-8.4763250">
        <ele>366.2</ele>
        <time>2021-07-26T10:04:50Z</time>
      </trkpt>
      <trkpt lat="42.8909600" lon="-8.4762780">
        <ele>366.2</ele>
        <time>2021-07-26T10:04:55Z</time>
      </trkpt>
      <trkpt lat="42.8908420" lon="-8.4762550">
        <ele>366.2</ele>
        <time>2021-07-26T10:04:58Z</time>
      </trkpt>
      <trkpt lat="42.8906340" lon="-8.4761920">
        <ele>366.2</ele>
        <time>2021-07-26T10:05:05Z</time>
      </trkpt>
      <trkpt lat="42.8905270" lon="-8.4762410">
        <ele>366.2</ele>
        <time>2021-07-26T10:05:09Z</time>
      </trkpt>
      <trkpt lat="42.8905100" lon="-8.4762910">
        <ele>366.2</ele>
        <time>2021-07-26T10:05:10Z</time>
      </trkpt>
      <trkpt lat="42.8905070" lon="-8.4765000">
        <ele>366.2</ele>
        <time>2021-07-26T10:05:13Z</time>
      </trkpt>
      <trkpt lat="42.8905090" lon="-8.4768050">
        <ele>366.2</ele>
        <time>2021-07-26T10:05:17Z</time>
      </trkpt>
      <trkpt lat="42.8905130" lon="-8.4770580">
        <ele>366.2</ele>
        <time>2021-07-26T10:05:20Z</time>
      </trkpt>
      <trkpt lat="42.8905370" lon="-8.4774180">
        <ele>366.2</ele>
        <time>2021-07-26T10:05:24Z</time>
      </trkpt>
      <trkpt lat="42.8905540" lon="-8.4776910">
        <ele>366.2</ele>
        <time>2021-07-26T10:05:27Z</time>
      </trkpt>
      <trkpt lat="42.8905650" lon="-8.4779110">
        <ele>365.8</ele>
        <time>2021-07-26T10:05:31Z</time>
      </trkpt>
      <trkpt lat="42.8905690" lon="-8.4779610">
        <ele>365.2</ele>
        <time>2021-07-26T10:05:32Z</time>
      </trkpt>
      <trkpt lat="42.8905720" lon="-8.4780110">
        <ele>364.8</ele>
        <time>2021-07-26T10:05:33Z</time>
      </trkpt>
      <trkpt lat="42.8905760" lon="-8.4780630">
        <ele>364.4</ele>
        <time>2021-07-26T10:05:34Z</time>
      </trkpt>
      <trkpt lat="42.8905760" lon="-8.4781190">
        <ele>364.0</ele>
        <time>2021-07-26T10:05:35Z</time>
      </trkpt>
      <trkpt lat="42.8905810" lon="-8.4782530">
        <ele>364.0</ele>
        <time>2021-07-26T10:05:37Z</time>
      </trkpt>
      <trkpt lat="42.8905910" lon="-8.4785450">
        <ele>363.6</ele>
        <time>2021-07-26T10:05:41Z</time>
      </trkpt>
      <trkpt lat="42.8905930" lon="-8.4786090">
        <ele>363.0</ele>
        <time>2021-07-26T10:05:42Z</time>
      </trkpt>
      <trkpt lat="42.8905960" lon="-8.4786640">
        <ele>362.6</ele>
        <time>2021-07-26T10:05:43Z</time>
      </trkpt>
      <trkpt lat="42.8905990" lon="-8.4787070">
        <ele>362.2</ele>
        <time>2021-07-26T10:05:44Z</time>
      </trkpt>
      <trkpt lat="42.8906040" lon="-8.4787400">
        <ele>361.8</ele>
        <time>2021-07-26T10:05:45Z</time>
      </trkpt>
      <trkpt lat="42.8906080" lon="-8.4787690">
        <ele>361.8</ele>
        <time>2021-07-26T10:05:46Z</time>
      </trkpt>
      <trkpt lat="42.8906080" lon="-8.4788510">
        <ele>361.8</ele>
        <time>2021-07-26T10:05:49Z</time>
      </trkpt>
      <trkpt lat="42.8906150" lon="-8.4790050">
        <ele>361.8</ele>
        <time>2021-07-26T10:05:52Z</time>
      </trkpt>
      <trkpt lat="42.8906170" lon="-8.4791470">
        <ele>361.8</ele>
        <time>2021-07-26T10:05:54Z</time>
      </trkpt>
      <trkpt lat="42.8906160" lon="-8.4792230">
        <ele>361.8</ele>
        <time>2021-07-26T10:05:55Z</time>
      </trkpt>
      <trkpt lat="42.8906230" lon="-8.4793820">
        <ele>361.8</ele>
        <time>2021-07-26T10:05:57Z</time>
      </trkpt>
      <trkpt lat="42.8906280" lon="-8.4795350">
        <ele>361.8</ele>
        <time>2021-07-26T10:05:59Z</time>
      </trkpt>
      <trkpt lat="42.8906330" lon="-8.4796750">
        <ele>361.8</ele>
        <time>2021-07-26T10:06:01Z</time>
      </trkpt>
      <trkpt lat="42.8906350" lon="-8.4798080">
        <ele>361.8</ele>
        <time>2021-07-26T10:06:03Z</time>
      </trkpt>
      <trkpt lat="42.8906360" lon="-8.4798700">
        <ele>361.8</ele>
        <time>2021-07-26T10:06:04Z</time>
      </trkpt>
      <trkpt lat="42.8906390" lon="-8.4801000">
        <ele>361.8</ele>
        <time>2021-07-26T10:06:09Z</time>
      </trkpt>
      <trkpt lat="42.8906380" lon="-8.4801350">
        <ele>361.8</ele>
        <time>2021-07-26T10:06:10Z</time>
      </trkpt>
      <trkpt lat="42.8906440" lon="-8.4803030">
        <ele>361.8</ele>
        <time>2021-07-26T10:06:14Z</time>
      </trkpt>
      <trkpt lat="42.8906450" lon="-8.4803480">
        <ele>362.2</ele>
        <time>2021-07-26T10:06:15Z</time>
      </trkpt>
      <trkpt lat="42.8906480" lon="-8.4803950">
        <ele>362.6</ele>
        <time>2021-07-26T10:06:16Z</time>
      </trkpt>
      <trkpt lat="42.8906520" lon="-8.4804450">
        <ele>363.0</ele>
        <time>2021-07-26T10:06:17Z</time>
      </trkpt>
      <trkpt lat="42.8906530" lon="-8.4804920">
        <ele>363.8</ele>
        <time>2021-07-26T10:06:18Z</time>
      </trkpt>
      <trkpt lat="42.8906520" lon="-8.4806210">
        <ele>363.8</ele>
        <time>2021-07-26T10:06:21Z</time>
      </trkpt>
      <trkpt lat="42.8906570" lon="-8.4807080">
        <ele>364.2</ele>
        <time>2021-07-26T10:06:23Z</time>
      </trkpt>
      <trkpt lat="42.8906590" lon="-8.4807500">
        <ele>364.6</ele>
        <time>2021-07-26T10:06:24Z</time>
      </trkpt>
      <trkpt lat="42.8906600" lon="-8.4807910">
        <ele>365.0</ele>
        <time>2021-07-26T10:06:25Z</time>
      </trkpt>
      <trkpt lat="42.8906610" lon="-8.4808330">
        <ele>365.6</ele>
        <time>2021-07-26T10:06:26Z</time>
      </trkpt>
      <trkpt lat="42.8906590" lon="-8.4808760">
        <ele>366.0</ele>
        <time>2021-07-26T10:06:27Z</time>
      </trkpt>
      <trkpt lat="42.8906660" lon="-8.4810290">
        <ele>366.0</ele>
        <time>2021-07-26T10:06:31Z</time>
      </trkpt>
      <trkpt lat="42.8906670" lon="-8.4811520">
        <ele>366.4</ele>
        <time>2021-07-26T10:06:34Z</time>
      </trkpt>
      <trkpt lat="42.8906640" lon="-8.4811960">
        <ele>366.8</ele>
        <time>2021-07-26T10:06:35Z</time>
      </trkpt>
      <trkpt lat="42.8906670" lon="-8.4812360">
        <ele>367.2</ele>
        <time>2021-07-26T10:06:36Z</time>
      </trkpt>
      <trkpt lat="42.8906680" lon="-8.4812770">
        <ele>367.6</ele>
        <time>2021-07-26T10:06:37Z</time>
      </trkpt>
      <trkpt lat="42.8906690" lon="-8.4813170">
        <ele>368.0</ele>
        <time>2021-07-26T10:06:38Z</time>
      </trkpt>
      <trkpt lat="42.8906750" lon="-8.4815910">
        <ele>368.0</ele>
        <time>2021-07-26T10:06:45Z</time>
      </trkpt>
      <trkpt lat="42.8906760" lon="-8.4817580">
        <ele>368.4</ele>
        <time>2021-07-26T10:06:49Z</time>
      </trkpt>
      <trkpt lat="42.8906790" lon="-8.4817960">
        <ele>368.8</ele>
        <time>2021-07-26T10:06:50Z</time>
      </trkpt>
      <trkpt lat="42.8906810" lon="-8.4818350">
        <ele>369.2</ele>
        <time>2021-07-26T10:06:51Z</time>
      </trkpt>
      <trkpt lat="42.8906820" lon="-8.4818770">
        <ele>369.6</ele>
        <time>2021-07-26T10:06:52Z</time>
      </trkpt>
      <trkpt lat="42.8906850" lon="-8.4819170">
        <ele>370.0</ele>
        <time>2021-07-26T10:06:53Z</time>
      </trkpt>
      <trkpt lat="42.8906910" lon="-8.4821670">
        <ele>370.0</ele>
        <time>2021-07-26T10:06:59Z</time>
      </trkpt>
      <trkpt lat="42.8906980" lon="-8.4825080">
        <ele>370.0</ele>
        <time>2021-07-26T10:07:06Z</time>
      </trkpt>
      <trkpt lat="42.8907050" lon="-8.4826920">
        <ele>370.0</ele>
        <time>2021-07-26T10:07:09Z</time>
      </trkpt>
      <trkpt lat="42.8907180" lon="-8.4829040">
        <ele>370.0</ele>
        <time>2021-07-26T10:07:12Z</time>
      </trkpt>
      <trkpt lat="42.8907240" lon="-8.4831090">
        <ele>370.0</ele>
        <time>2021-07-26T10:07:15Z</time>
      </trkpt>
      <trkpt lat="42.8907300" lon="-8.4833020">
        <ele>370.0</ele>
        <time>2021-07-26T10:07:18Z</time>
      </trkpt>
      <trkpt lat="42.8907310" lon="-8.4833640">
        <ele>370.0</ele>
        <time>2021-07-26T10:07:19Z</time>
      </trkpt>
      <trkpt lat="42.8907340" lon="-8.4834240">
        <ele>370.0</ele>
        <time>2021-07-26T10:07:20Z</time>
      </trkpt>
      <trkpt lat="42.8907380" lon="-8.4836870">
        <ele>370.0</ele>
        <time>2021-07-26T10:07:25Z</time>
      </trkpt>
      <trkpt lat="42.8907500" lon="-8.4840460">
        <ele>370.0</ele>
        <time>2021-07-26T10:07:31Z</time>
      </trkpt>
      <trkpt lat="42.8907540" lon="-8.4842120">
        <ele>370.0</ele>
        <time>2021-07-26T10:07:33Z</time>
      </trkpt>
      <trkpt lat="42.8907570" lon="-8.4844160">
        <ele>370.0</ele>
        <time>2021-07-26T10:07:35Z</time>
      </trkpt>
      <trkpt lat="42.8907620" lon="-8.4846350">
        <ele>370.0</ele>
        <time>2021-07-26T10:07:37Z</time>
      </trkpt>
      <trkpt lat="42.8907680" lon="-8.4848560">
        <ele>369.6</ele>
        <time>2021-07-26T10:07:39Z</time>
      </trkpt>
      <trkpt lat="42.8907710" lon="-8.4849650">
        <ele>369.2</ele>
        <time>2021-07-26T10:07:40Z</time>
      </trkpt>
      <trkpt lat="42.8907740" lon="-8.4850720">
        <ele>368.6</ele>
        <time>2021-07-26T10:07:41Z</time>
      </trkpt>
      <trkpt lat="42.8907780" lon="-8.4851800">
        <ele>368.0</ele>
        <time>2021-07-26T10:07:42Z</time>
      </trkpt>
      <trkpt lat="42.8907810" lon="-8.4852930">
        <ele>367.4</ele>
        <time>2021-07-26T10:07:43Z</time>
      </trkpt>
      <trkpt lat="42.8907830" lon="-8.4854010">
        <ele>366.8</ele>
        <time>2021-07-26T10:07:44Z</time>
      </trkpt>
      <trkpt lat="42.8907850" lon="-8.4855080">
        <ele>366.2</ele>
        <time>2021-07-26T10:07:45Z</time>
      </trkpt>
      <trkpt lat="42.8907880" lon="-8.4856150">
        <ele>365.6</ele>
        <time>2021-07-26T10:07:46Z</time>
      </trkpt>
      <trkpt lat="42.8907890" lon="-8.4857060">
        <ele>365.0</ele>
        <time>2021-07-26T10:07:47Z</time>
      </trkpt>
      <trkpt lat="42.8907910" lon="-8.4857850">
        <ele>364.6</ele>
        <time>2021-07-26T10:07:48Z</time>
      </trkpt>
      <trkpt lat="42.8907880" lon="-8.4858560">
        <ele>364.2</ele>
        <time>2021-07-26T10:07:49Z</time>
      </trkpt>
      <trkpt lat="42.8907760" lon="-8.4859250">
        <ele>363.6</ele>
        <time>2021-07-26T10:07:50Z</time>
      </trkpt>
      <trkpt lat="42.8907410" lon="-8.4859830">
        <ele>363.2</ele>
        <time>2021-07-26T10:07:51Z</time>
      </trkpt>
      <trkpt lat="42.8906970" lon="-8.4860310">
        <ele>362.6</ele>
        <time>2021-07-26T10:07:52Z</time>
      </trkpt>
      <trkpt lat="42.8906570" lon="-8.4860720">
        <ele>362.0</ele>
        <time>2021-07-26T10:07:53Z</time>
      </trkpt>
      <trkpt lat="42.8906240" lon="-8.4861190">
        <ele>361.4</ele>
        <time>2021-07-26T10:07:54Z</time>
      </trkpt>
      <trkpt lat="42.8905990" lon="-8.4861770">
        <ele>361.0</ele>
        <time>2021-07-26T10:07:55Z</time>
      </trkpt>
      <trkpt lat="42.8905930" lon="-8.4862490">
        <ele>360.6</ele>
        <time>2021-07-26T10:07:56Z</time>
      </trkpt>
      <trkpt lat="42.8905960" lon="-8.4863170">
        <ele>359.6</ele>
        <time>2021-07-26T10:07:57Z</time>
      </trkpt>
      <trkpt lat="42.8906050" lon="-8.4863930">
        <ele>359.2</ele>
        <time>2021-07-26T10:07:58Z</time>
      </trkpt>
      <trkpt lat="42.8906150" lon="-8.4864660">
        <ele>359.2</ele>
        <time>2021-07-26T10:07:59Z</time>
      </trkpt>
      <trkpt lat="42.8906240" lon="-8.4865420">
        <ele>358.8</ele>
        <time>2021-07-26T10:08:00Z</time>
      </trkpt>
      <trkpt lat="42.8906430" lon="-8.4866290">
        <ele>358.4</ele>
        <time>2021-07-26T10:08:01Z</time>
      </trkpt>
      <trkpt lat="42.8906620" lon="-8.4867150">
        <ele>357.8</ele>
        <time>2021-07-26T10:08:02Z</time>
      </trkpt>
      <trkpt lat="42.8906830" lon="-8.4868080">
        <ele>357.4</ele>
        <time>2021-07-26T10:08:03Z</time>
      </trkpt>
      <trkpt lat="42.8907000" lon="-8.4868980">
        <ele>357.0</ele>
        <time>2021-07-26T10:08:04Z</time>
      </trkpt>
      <trkpt lat="42.8907180" lon="-8.4869870">
        <ele>356.4</ele>
        <time>2021-07-26T10:08:05Z</time>
      </trkpt>
      <trkpt lat="42.8907330" lon="-8.4870680">
        <ele>355.8</ele>
        <time>2021-07-26T10:08:06Z</time>
      </trkpt>
      <trkpt lat="42.8907460" lon="-8.4871390">
        <ele>355.2</ele>
        <time>2021-07-26T10:08:07Z</time>
      </trkpt>
      <trkpt lat="42.8907580" lon="-8.4872060">
        <ele>354.4</ele>
        <time>2021-07-26T10:08:08Z</time>
      </trkpt>
      <trkpt lat="42.8907740" lon="-8.4872710">
        <ele>353.8</ele>
        <time>2021-07-26T10:08:09Z</time>
      </trkpt>
      <trkpt lat="42.8907960" lon="-8.4873240">
        <ele>353.0</ele>
        <time>2021-07-26T10:08:10Z</time>
      </trkpt>
      <trkpt lat="42.8908270" lon="-8.4873580">
        <ele>352.4</ele>
        <time>2021-07-26T10:08:11Z</time>
      </trkpt>
      <trkpt lat="42.8908640" lon="-8.4873790">
        <ele>352.0</ele>
        <time>2021-07-26T10:08:12Z</time>
      </trkpt>
      <trkpt lat="42.8909040" lon="-8.4873920">
        <ele>351.4</ele>
        <time>2021-07-26T10:08:13Z</time>
      </trkpt>
      <trkpt lat="42.8909420" lon="-8.4874010">
        <ele>350.8</ele>
        <time>2021-07-26T10:08:14Z</time>
      </trkpt>
      <trkpt lat="42.8909800" lon="-8.4874020">
        <ele>350.2</ele>
        <time>2021-07-26T10:08:15Z</time>
      </trkpt>
      <trkpt lat="42.8911460" lon="-8.4874360">
        <ele>350.2</ele>
        <time>2021-07-26T10:08:19Z</time>
      </trkpt>
      <trkpt lat="42.8911910" lon="-8.4874540">
        <ele>350.2</ele>
        <time>2021-07-26T10:08:20Z</time>
      </trkpt>
      <trkpt lat="42.8913160" lon="-8.4875300">
        <ele>350.2</ele>
        <time>2021-07-26T10:08:23Z</time>
      </trkpt>
      <trkpt lat="42.8913510" lon="-8.4875630">
        <ele>350.2</ele>
        <time>2021-07-26T10:08:24Z</time>
      </trkpt>
      <trkpt lat="42.8913840" lon="-8.4875960">
        <ele>350.2</ele>
        <time>2021-07-26T10:08:25Z</time>
      </trkpt>
      <trkpt lat="42.8914520" lon="-8.4876700">
        <ele>350.2</ele>
        <time>2021-07-26T10:08:27Z</time>
      </trkpt>
      <trkpt lat="42.8914850" lon="-8.4877120">
        <ele>350.2</ele>
        <time>2021-07-26T10:08:28Z</time>
      </trkpt>
      <trkpt lat="42.8915220" lon="-8.4878240">
        <ele>349.8</ele>
        <time>2021-07-26T10:08:30Z</time>
      </trkpt>
      <trkpt lat="42.8915290" lon="-8.4878770">
        <ele>349.4</ele>
        <time>2021-07-26T10:08:31Z</time>
      </trkpt>
      <trkpt lat="42.8915260" lon="-8.4879320">
        <ele>349.0</ele>
        <time>2021-07-26T10:08:32Z</time>
      </trkpt>
      <trkpt lat="42.8915200" lon="-8.4879830">
        <ele>348.6</ele>
        <time>2021-07-26T10:08:33Z</time>
      </trkpt>
      <trkpt lat="42.8915160" lon="-8.4880280">
        <ele>348.2</ele>
        <time>2021-07-26T10:08:34Z</time>
      </trkpt>
      <trkpt lat="42.8915020" lon="-8.4881180">
        <ele>348.2</ele>
        <time>2021-07-26T10:08:36Z</time>
      </trkpt>
      <trkpt lat="42.8914800" lon="-8.4882560">
        <ele>348.2</ele>
        <time>2021-07-26T10:08:39Z</time>
      </trkpt>
      <trkpt lat="42.8914730" lon="-8.4882990">
        <ele>348.2</ele>
        <time>2021-07-26T10:08:40Z</time>
      </trkpt>
      <trkpt lat="42.8914450" lon="-8.4883410">
        <ele>348.2</ele>
        <time>2021-07-26T10:08:43Z</time>
      </trkpt>
      <trkpt lat="42.8914340" lon="-8.4883360">
        <ele>348.2</ele>
        <time>2021-07-26T10:08:45Z</time>
      </trkpt>
      <trkpt lat="42.8913700" lon="-8.4882640">
        <ele>348.2</ele>
        <time>2021-07-26T10:08:54Z</time>
      </trkpt>
      <trkpt lat="42.8913520" lon="-8.4882770">
        <ele>348.2</ele>
        <time>2021-07-26T10:08:55Z</time>
      </trkpt>
      <trkpt lat="42.8913540" lon="-8.4883170">
        <ele>348.2</ele>
        <time>2021-07-26T10:08:58Z</time>
      </trkpt>
      <trkpt lat="42.8913520" lon="-8.4883160">
        <ele>348.2</ele>
        <time>2021-07-26T10:08:59Z</time>
      </trkpt>
      <trkpt lat="42.8913520" lon="-8.4882670">
        <ele>347.6</ele>
        <time>2021-07-26T10:09:46Z</time>
      </trkpt>
      <trkpt lat="42.8913790" lon="-8.4882550">
        <ele>347.6</ele>
        <time>2021-07-26T10:09:48Z</time>
      </trkpt>
      <trkpt lat="42.8914570" lon="-8.4883140">
        <ele>347.6</ele>
        <time>2021-07-26T10:09:52Z</time>
      </trkpt>
      <trkpt lat="42.8914400" lon="-8.4884640">
        <ele>347.6</ele>
        <time>2021-07-26T10:09:56Z</time>
      </trkpt>
      <trkpt lat="42.8914220" lon="-8.4885550">
        <ele>347.6</ele>
        <time>2021-07-26T10:09:59Z</time>
      </trkpt>
      <trkpt lat="42.8914110" lon="-8.4886240">
        <ele>347.6</ele>
        <time>2021-07-26T10:10:01Z</time>
      </trkpt>
      <trkpt lat="42.8913930" lon="-8.4887140">
        <ele>347.6</ele>
        <time>2021-07-26T10:10:03Z</time>
      </trkpt>
      <trkpt lat="42.8913780" lon="-8.4888230">
        <ele>347.6</ele>
        <time>2021-07-26T10:10:05Z</time>
      </trkpt>
      <trkpt lat="42.8913710" lon="-8.4889450">
        <ele>347.6</ele>
        <time>2021-07-26T10:10:07Z</time>
      </trkpt>
      <trkpt lat="42.8913660" lon="-8.4890020">
        <ele>347.6</ele>
        <time>2021-07-26T10:10:08Z</time>
      </trkpt>
      <trkpt lat="42.8913560" lon="-8.4890550">
        <ele>347.6</ele>
        <time>2021-07-26T10:10:09Z</time>
      </trkpt>
      <trkpt lat="42.8913060" lon="-8.4891930">
        <ele>347.6</ele>
        <time>2021-07-26T10:10:12Z</time>
      </trkpt>
      <trkpt lat="42.8912200" lon="-8.4894550">
        <ele>347.6</ele>
        <time>2021-07-26T10:10:17Z</time>
      </trkpt>
      <trkpt lat="42.8911990" lon="-8.4895090">
        <ele>347.6</ele>
        <time>2021-07-26T10:10:18Z</time>
      </trkpt>
      <trkpt lat="42.8911710" lon="-8.4895610">
        <ele>347.6</ele>
        <time>2021-07-26T10:10:19Z</time>
      </trkpt>
      <trkpt lat="42.8911150" lon="-8.4897190">
        <ele>347.6</ele>
        <time>2021-07-26T10:10:22Z</time>
      </trkpt>
      <trkpt lat="42.8911030" lon="-8.4897800">
        <ele>347.6</ele>
        <time>2021-07-26T10:10:23Z</time>
      </trkpt>
      <trkpt lat="42.8910700" lon="-8.4899480">
        <ele>347.6</ele>
        <time>2021-07-26T10:10:26Z</time>
      </trkpt>
      <trkpt lat="42.8910290" lon="-8.4901560">
        <ele>348.0</ele>
        <time>2021-07-26T10:10:30Z</time>
      </trkpt>
      <trkpt lat="42.8910210" lon="-8.4902050">
        <ele>348.4</ele>
        <time>2021-07-26T10:10:31Z</time>
      </trkpt>
      <trkpt lat="42.8910120" lon="-8.4902470">
        <ele>348.8</ele>
        <time>2021-07-26T10:10:32Z</time>
      </trkpt>
      <trkpt lat="42.8910030" lon="-8.4902870">
        <ele>349.4</ele>
        <time>2021-07-26T10:10:33Z</time>
      </trkpt>
      <trkpt lat="42.8909960" lon="-8.4903260">
        <ele>349.8</ele>
        <time>2021-07-26T10:10:34Z</time>
      </trkpt>
      <trkpt lat="42.8909660" lon="-8.4904740">
        <ele>349.8</ele>
        <time>2021-07-26T10:10:38Z</time>
      </trkpt>
      <trkpt lat="42.8909230" lon="-8.4906490">
        <ele>349.8</ele>
        <time>2021-07-26T10:10:43Z</time>
      </trkpt>
      <trkpt lat="42.8909100" lon="-8.4907470">
        <ele>349.8</ele>
        <time>2021-07-26T10:10:46Z</time>
      </trkpt>
      <trkpt lat="42.8908980" lon="-8.4908200">
        <ele>350.2</ele>
        <time>2021-07-26T10:10:48Z</time>
      </trkpt>
      <trkpt lat="42.8908900" lon="-8.4908590">
        <ele>350.6</ele>
        <time>2021-07-26T10:10:49Z</time>
      </trkpt>
      <trkpt lat="42.8908820" lon="-8.4909030">
        <ele>351.4</ele>
        <time>2021-07-26T10:10:50Z</time>
      </trkpt>
      <trkpt lat="42.8908750" lon="-8.4909390">
        <ele>351.8</ele>
        <time>2021-07-26T10:10:51Z</time>
      </trkpt>
      <trkpt lat="42.8908670" lon="-8.4909750">
        <ele>351.8</ele>
        <time>2021-07-26T10:10:52Z</time>
      </trkpt>
      <trkpt lat="42.8908330" lon="-8.4911840">
        <ele>351.8</ele>
        <time>2021-07-26T10:10:57Z</time>
      </trkpt>
      <trkpt lat="42.8908110" lon="-8.4912710">
        <ele>351.8</ele>
        <time>2021-07-26T10:10:59Z</time>
      </trkpt>
      <trkpt lat="42.8906920" lon="-8.4915800">
        <ele>351.8</ele>
        <time>2021-07-26T10:11:06Z</time>
      </trkpt>
      <trkpt lat="42.8905500" lon="-8.4919340">
        <ele>351.8</ele>
        <time>2021-07-26T10:11:15Z</time>
      </trkpt>
      <trkpt lat="42.8905050" lon="-8.4920490">
        <ele>351.8</ele>
        <time>2021-07-26T10:11:18Z</time>
      </trkpt>
      <trkpt lat="42.8904590" lon="-8.4921540">
        <ele>352.2</ele>
        <time>2021-07-26T10:11:21Z</time>
      </trkpt>
      <trkpt lat="42.8904460" lon="-8.4921890">
        <ele>352.8</ele>
        <time>2021-07-26T10:11:22Z</time>
      </trkpt>
      <trkpt lat="42.8904330" lon="-8.4922190">
        <ele>353.2</ele>
        <time>2021-07-26T10:11:23Z</time>
      </trkpt>
      <trkpt lat="42.8904160" lon="-8.4922500">
        <ele>353.6</ele>
        <time>2021-07-26T10:11:24Z</time>
      </trkpt>
      <trkpt lat="42.8904000" lon="-8.4922810">
        <ele>354.0</ele>
        <time>2021-07-26T10:11:25Z</time>
      </trkpt>
      <trkpt lat="42.8903730" lon="-8.4923600">
        <ele>354.0</ele>
        <time>2021-07-26T10:11:28Z</time>
      </trkpt>
      <trkpt lat="42.8903610" lon="-8.4924070">
        <ele>354.0</ele>
        <time>2021-07-26T10:11:30Z</time>
      </trkpt>
      <trkpt lat="42.8903460" lon="-8.4924480">
        <ele>354.0</ele>
        <time>2021-07-26T10:11:32Z</time>
      </trkpt>
      <trkpt lat="42.8903300" lon="-8.4924740">
        <ele>354.0</ele>
        <time>2021-07-26T10:11:34Z</time>
      </trkpt>
      <trkpt lat="42.8903120" lon="-8.4925040">
        <ele>354.0</ele>
        <time>2021-07-26T10:11:36Z</time>
      </trkpt>
      <trkpt lat="42.8903000" lon="-8.4925300">
        <ele>354.0</ele>
        <time>2021-07-26T10:11:37Z</time>
      </trkpt>
      <trkpt lat="42.8902000" lon="-8.4927210">
        <ele>354.0</ele>
        <time>2021-07-26T10:11:42Z</time>
      </trkpt>
      <trkpt lat="42.8901550" lon="-8.4928150">
        <ele>354.0</ele>
        <time>2021-07-26T10:11:44Z</time>
      </trkpt>
      <trkpt lat="42.8900980" lon="-8.4929610">
        <ele>354.0</ele>
        <time>2021-07-26T10:11:47Z</time>
      </trkpt>
      <trkpt lat="42.8900820" lon="-8.4930150">
        <ele>354.0</ele>
        <time>2021-07-26T10:11:48Z</time>
      </trkpt>
      <trkpt lat="42.8900440" lon="-8.4931970">
        <ele>354.0</ele>
        <time>2021-07-26T10:11:52Z</time>
      </trkpt>
      <trkpt lat="42.8900210" lon="-8.4932770">
        <ele>354.0</ele>
        <time>2021-07-26T10:11:54Z</time>
      </trkpt>
      <trkpt lat="42.8900090" lon="-8.4933150">
        <ele>354.4</ele>
        <time>2021-07-26T10:11:55Z</time>
      </trkpt>
      <trkpt lat="42.8899990" lon="-8.4933510">
        <ele>354.8</ele>
        <time>2021-07-26T10:11:56Z</time>
      </trkpt>
      <trkpt lat="42.8899860" lon="-8.4933840">
        <ele>355.2</ele>
        <time>2021-07-26T10:11:57Z</time>
      </trkpt>
      <trkpt lat="42.8899730" lon="-8.4934170">
        <ele>355.6</ele>
        <time>2021-07-26T10:11:58Z</time>
      </trkpt>
      <trkpt lat="42.8899620" lon="-8.4934540">
        <ele>356.0</ele>
        <time>2021-07-26T10:11:59Z</time>
      </trkpt>
      <trkpt lat="42.8899230" lon="-8.4935610">
        <ele>356.0</ele>
        <time>2021-07-26T10:12:02Z</time>
      </trkpt>
      <trkpt lat="42.8898570" lon="-8.4937300">
        <ele>356.0</ele>
        <time>2021-07-26T10:12:07Z</time>
      </trkpt>
      <trkpt lat="42.8898230" lon="-8.4938300">
        <ele>356.0</ele>
        <time>2021-07-26T10:12:10Z</time>
      </trkpt>
      <trkpt lat="42.8897140" lon="-8.4940840">
        <ele>356.0</ele>
        <time>2021-07-26T10:12:18Z</time>
      </trkpt>
      <trkpt lat="42.8896960" lon="-8.4941070">
        <ele>356.4</ele>
        <time>2021-07-26T10:12:19Z</time>
      </trkpt>
      <trkpt lat="42.8896780" lon="-8.4941260">
        <ele>356.8</ele>
        <time>2021-07-26T10:12:20Z</time>
      </trkpt>
      <trkpt lat="42.8896570" lon="-8.4941400">
        <ele>357.2</ele>
        <time>2021-07-26T10:12:21Z</time>
      </trkpt>
      <trkpt lat="42.8896440" lon="-8.4941560">
        <ele>357.6</ele>
        <time>2021-07-26T10:12:22Z</time>
      </trkpt>
      <trkpt lat="42.8896310" lon="-8.4941650">
        <ele>358.0</ele>
        <time>2021-07-26T10:12:23Z</time>
      </trkpt>
      <trkpt lat="42.8895920" lon="-8.4941620">
        <ele>358.0</ele>
        <time>2021-07-26T10:12:25Z</time>
      </trkpt>
      <trkpt lat="42.8895270" lon="-8.4941720">
        <ele>358.0</ele>
        <time>2021-07-26T10:12:28Z</time>
      </trkpt>
      <trkpt lat="42.8894140" lon="-8.4942540">
        <ele>358.0</ele>
        <time>2021-07-26T10:12:34Z</time>
      </trkpt>
      <trkpt lat="42.8892670" lon="-8.4942980">
        <ele>358.0</ele>
        <time>2021-07-26T10:12:41Z</time>
      </trkpt>
      <trkpt lat="42.8891300" lon="-8.4942010">
        <ele>358.4</ele>
        <time>2021-07-26T10:12:47Z</time>
      </trkpt>
      <trkpt lat="42.8891140" lon="-8.4941780">
        <ele>358.8</ele>
        <time>2021-07-26T10:12:48Z</time>
      </trkpt>
      <trkpt lat="42.8891020" lon="-8.4941530">
        <ele>359.2</ele>
        <time>2021-07-26T10:12:49Z</time>
      </trkpt>
      <trkpt lat="42.8890890" lon="-8.4941270">
        <ele>359.6</ele>
        <time>2021-07-26T10:12:50Z</time>
      </trkpt>
      <trkpt lat="42.8890750" lon="-8.4941070">
        <ele>360.0</ele>
        <time>2021-07-26T10:12:51Z</time>
      </trkpt>
      <trkpt lat="42.8890550" lon="-8.4940630">
        <ele>360.0</ele>
        <time>2021-07-26T10:12:53Z</time>
      </trkpt>
      <trkpt lat="42.8889660" lon="-8.4939330">
        <ele>360.0</ele>
        <time>2021-07-26T10:13:00Z</time>
      </trkpt>
      <trkpt lat="42.8889140" lon="-8.4937960">
        <ele>360.0</ele>
        <time>2021-07-26T10:13:07Z</time>
      </trkpt>
      <trkpt lat="42.8889120" lon="-8.4937000">
        <ele>360.0</ele>
        <time>2021-07-26T10:13:11Z</time>
      </trkpt>
      <trkpt lat="42.8889240" lon="-8.4936580">
        <ele>360.0</ele>
        <time>2021-07-26T10:13:13Z</time>
      </trkpt>
      <trkpt lat="42.8889480" lon="-8.4936250">
        <ele>360.4</ele>
        <time>2021-07-26T10:13:15Z</time>
      </trkpt>
      <trkpt lat="42.8889590" lon="-8.4936100">
        <ele>360.8</ele>
        <time>2021-07-26T10:13:16Z</time>
      </trkpt>
      <trkpt lat="42.8889710" lon="-8.4935940">
        <ele>361.2</ele>
        <time>2021-07-26T10:13:17Z</time>
      </trkpt>
      <trkpt lat="42.8889850" lon="-8.4935790">
        <ele>362.2</ele>
        <time>2021-07-26T10:13:18Z</time>
      </trkpt>
      <trkpt lat="42.8890180" lon="-8.4935630">
        <ele>362.2</ele>
        <time>2021-07-26T10:13:20Z</time>
      </trkpt>
      <trkpt lat="42.8891100" lon="-8.4935700">
        <ele>362.2</ele>
        <time>2021-07-26T10:13:25Z</time>
      </trkpt>
      <trkpt lat="42.8891190" lon="-8.4935860">
        <ele>362.2</ele>
        <time>2021-07-26T10:13:26Z</time>
      </trkpt>
      <trkpt lat="42.8891240" lon="-8.4936060">
        <ele>362.2</ele>
        <time>2021-07-26T10:13:27Z</time>
      </trkpt>
      <trkpt lat="42.8891280" lon="-8.4936240">
        <ele>362.6</ele>
        <time>2021-07-26T10:13:28Z</time>
      </trkpt>
      <trkpt lat="42.8891280" lon="-8.4936460">
        <ele>363.0</ele>
        <time>2021-07-26T10:13:29Z</time>
      </trkpt>
      <trkpt lat="42.8891230" lon="-8.4936650">
        <ele>363.4</ele>
        <time>2021-07-26T10:13:30Z</time>
      </trkpt>
      <trkpt lat="42.8891220" lon="-8.4936650">
        <ele>363.8</ele>
        <time>2021-07-26T10:13:31Z</time>
      </trkpt>
      <trkpt lat="42.8891220" lon="-8.4936710">
        <ele>364.2</ele>
        <time>2021-07-26T10:13:32Z</time>
      </trkpt>
      <trkpt lat="42.8890530" lon="-8.4937120">
        <ele>364.2</ele>
        <time>2021-07-26T10:19:58Z</time>
      </trkpt>
      <trkpt lat="42.8890280" lon="-8.4937100">
        <ele>364.2</ele>
        <time>2021-07-26T10:19:59Z</time>
      </trkpt>
      <trkpt lat="42.8890080" lon="-8.4937080">
        <ele>364.2</ele>
        <time>2021-07-26T10:20:00Z</time>
      </trkpt>
      <trkpt lat="42.8889530" lon="-8.4936940">
        <ele>364.2</ele>
        <time>2021-07-26T10:20:02Z</time>
      </trkpt>
      <trkpt lat="42.8888950" lon="-8.4936880">
        <ele>363.6</ele>
        <time>2021-07-26T10:20:04Z</time>
      </trkpt>
      <trkpt lat="42.8888680" lon="-8.4936800">
        <ele>363.2</ele>
        <time>2021-07-26T10:20:05Z</time>
      </trkpt>
      <trkpt lat="42.8888410" lon="-8.4936720">
        <ele>362.8</ele>
        <time>2021-07-26T10:20:06Z</time>
      </trkpt>
      <trkpt lat="42.8888160" lon="-8.4936700">
        <ele>362.2</ele>
        <time>2021-07-26T10:20:07Z</time>
      </trkpt>
      <trkpt lat="42.8887960" lon="-8.4936640">
        <ele>361.8</ele>
        <time>2021-07-26T10:20:08Z</time>
      </trkpt>
      <trkpt lat="42.8887800" lon="-8.4936540">
        <ele>361.4</ele>
        <time>2021-07-26T10:20:11Z</time>
      </trkpt>
      <trkpt lat="42.8887690" lon="-8.4937050">
        <ele>359.8</ele>
        <time>2021-07-26T10:20:20Z</time>
      </trkpt>
      <trkpt lat="42.8887700" lon="-8.4937520">
        <ele>359.8</ele>
        <time>2021-07-26T10:20:22Z</time>
      </trkpt>
      <trkpt lat="42.8887680" lon="-8.4937780">
        <ele>359.8</ele>
        <time>2021-07-26T10:20:23Z</time>
      </trkpt>
      <trkpt lat="42.8887790" lon="-8.4938100">
        <ele>359.8</ele>
        <time>2021-07-26T10:20:25Z</time>
      </trkpt>
      <trkpt lat="42.8888200" lon="-8.4938270">
        <ele>359.8</ele>
        <time>2021-07-26T10:20:28Z</time>
      </trkpt>
      <trkpt lat="42.8888820" lon="-8.4938580">
        <ele>359.8</ele>
        <time>2021-07-26T10:20:32Z</time>
      </trkpt>
      <trkpt lat="42.8889200" lon="-8.4938910">
        <ele>359.8</ele>
        <time>2021-07-26T10:20:35Z</time>
      </trkpt>
      <trkpt lat="42.8889380" lon="-8.4938980">
        <ele>359.8</ele>
        <time>2021-07-26T10:20:37Z</time>
      </trkpt>
      <trkpt lat="42.8889340" lon="-8.4938970">
        <ele>359.8</ele>
        <time>2021-07-26T10:20:38Z</time>
      </trkpt>
      <trkpt lat="42.8889700" lon="-8.4939400">
        <ele>359.8</ele>
        <time>2021-07-26T10:20:49Z</time>
      </trkpt>
      <trkpt lat="42.8889800" lon="-8.4939590">
        <ele>359.8</ele>
        <time>2021-07-26T10:20:50Z</time>
      </trkpt>
      <trkpt lat="42.8890520" lon="-8.4940470">
        <ele>359.8</ele>
        <time>2021-07-26T10:20:55Z</time>
      </trkpt>
      <trkpt lat="42.8890970" lon="-8.4941270">
        <ele>359.8</ele>
        <time>2021-07-26T10:20:58Z</time>
      </trkpt>
      <trkpt lat="42.8891390" lon="-8.4942140">
        <ele>359.8</ele>
        <time>2021-07-26T10:21:01Z</time>
      </trkpt>
      <trkpt lat="42.8891850" lon="-8.4942760">
        <ele>359.8</ele>
        <time>2021-07-26T10:21:03Z</time>
      </trkpt>
      <trkpt lat="42.8892140" lon="-8.4943030">
        <ele>359.8</ele>
        <time>2021-07-26T10:21:04Z</time>
      </trkpt>
      <trkpt lat="42.8892470" lon="-8.4943150">
        <ele>359.8</ele>
        <time>2021-07-26T10:21:05Z</time>
      </trkpt>
      <trkpt lat="42.8892790" lon="-8.4943200">
        <ele>359.8</ele>
        <time>2021-07-26T10:21:06Z</time>
      </trkpt>
      <trkpt lat="42.8893090" lon="-8.4943180">
        <ele>359.8</ele>
        <time>2021-07-26T10:21:07Z</time>
      </trkpt>
      <trkpt lat="42.8893590" lon="-8.4942980">
        <ele>359.8</ele>
        <time>2021-07-26T10:21:09Z</time>
      </trkpt>
      <trkpt lat="42.8894010" lon="-8.4942520">
        <ele>359.8</ele>
        <time>2021-07-26T10:21:11Z</time>
      </trkpt>
      <trkpt lat="42.8894310" lon="-8.4942340">
        <ele>359.8</ele>
        <time>2021-07-26T10:21:12Z</time>
      </trkpt>
      <trkpt lat="42.8894850" lon="-8.4942000">
        <ele>359.8</ele>
        <time>2021-07-26T10:21:14Z</time>
      </trkpt>
      <trkpt lat="42.8895530" lon="-8.4941740">
        <ele>359.8</ele>
        <time>2021-07-26T10:21:18Z</time>
      </trkpt>
      <trkpt lat="42.8895950" lon="-8.4941780">
        <ele>359.8</ele>
        <time>2021-07-26T10:21:22Z</time>
      </trkpt>
      <trkpt lat="42.8896630" lon="-8.4942410">
        <ele>357.6</ele>
        <time>2021-07-26T10:37:24Z</time>
      </trkpt>
      <trkpt lat="42.8896790" lon="-8.4942480">
        <ele>357.6</ele>
        <time>2021-07-26T10:37:25Z</time>
      </trkpt>
      <trkpt lat="42.8896890" lon="-8.4942670">
        <ele>357.6</ele>
        <time>2021-07-26T10:37:26Z</time>
      </trkpt>
      <trkpt lat="42.8897060" lon="-8.4943480">
        <ele>357.6</ele>
        <time>2021-07-26T10:37:30Z</time>
      </trkpt>
      <trkpt lat="42.8896590" lon="-8.4944970">
        <ele>357.6</ele>
        <time>2021-07-26T10:37:36Z</time>
      </trkpt>
      <trkpt lat="42.8896280" lon="-8.4945860">
        <ele>357.6</ele>
        <time>2021-07-26T10:37:39Z</time>
      </trkpt>
      <trkpt lat="42.8895740" lon="-8.4946790">
        <ele>357.6</ele>
        <time>2021-07-26T10:37:42Z</time>
      </trkpt>
      <trkpt lat="42.8895360" lon="-8.4947510">
        <ele>357.6</ele>
        <time>2021-07-26T10:37:44Z</time>
      </trkpt>
      <trkpt lat="42.8894280" lon="-8.4950260">
        <ele>357.6</ele>
        <time>2021-07-26T10:37:50Z</time>
      </trkpt>
      <trkpt lat="42.8894060" lon="-8.4950800">
        <ele>357.6</ele>
        <time>2021-07-26T10:37:51Z</time>
      </trkpt>
      <trkpt lat="42.8893660" lon="-8.4951970">
        <ele>357.2</ele>
        <time>2021-07-26T10:37:53Z</time>
      </trkpt>
      <trkpt lat="42.8893460" lon="-8.4952580">
        <ele>356.8</ele>
        <time>2021-07-26T10:37:54Z</time>
      </trkpt>
      <trkpt lat="42.8893240" lon="-8.4953180">
        <ele>356.4</ele>
        <time>2021-07-26T10:37:55Z</time>
      </trkpt>
      <trkpt lat="42.8893000" lon="-8.4953800">
        <ele>356.0</ele>
        <time>2021-07-26T10:37:56Z</time>
      </trkpt>
      <trkpt lat="42.8892770" lon="-8.4954440">
        <ele>355.6</ele>
        <time>2021-07-26T10:37:57Z</time>
      </trkpt>
      <trkpt lat="42.8892530" lon="-8.4955110">
        <ele>355.6</ele>
        <time>2021-07-26T10:37:58Z</time>
      </trkpt>
      <trkpt lat="42.8891500" lon="-8.4957760">
        <ele>355.2</ele>
        <time>2021-07-26T10:38:02Z</time>
      </trkpt>
      <trkpt lat="42.8891260" lon="-8.4958400">
        <ele>354.8</ele>
        <time>2021-07-26T10:38:03Z</time>
      </trkpt>
      <trkpt lat="42.8891020" lon="-8.4959050">
        <ele>354.4</ele>
        <time>2021-07-26T10:38:04Z</time>
      </trkpt>
      <trkpt lat="42.8890800" lon="-8.4959660">
        <ele>354.0</ele>
        <time>2021-07-26T10:38:05Z</time>
      </trkpt>
      <trkpt lat="42.8890570" lon="-8.4960260">
        <ele>353.6</ele>
        <time>2021-07-26T10:38:06Z</time>
      </trkpt>
      <trkpt lat="42.8889860" lon="-8.4962300">
        <ele>353.6</ele>
        <time>2021-07-26T10:38:09Z</time>
      </trkpt>
      <trkpt lat="42.8889580" lon="-8.4963020">
        <ele>353.0</ele>
        <time>2021-07-26T10:38:10Z</time>
      </trkpt>
      <trkpt lat="42.8889310" lon="-8.4963770">
        <ele>352.6</ele>
        <time>2021-07-26T10:38:11Z</time>
      </trkpt>
      <trkpt lat="42.8889030" lon="-8.4964540">
        <ele>352.2</ele>
        <time>2021-07-26T10:38:12Z</time>
      </trkpt>
      <trkpt lat="42.8888740" lon="-8.4965340">
        <ele>351.8</ele>
        <time>2021-07-26T10:38:13Z</time>
      </trkpt>
      <trkpt lat="42.8888450" lon="-8.4966140">
        <ele>351.2</ele>
        <time>2021-07-26T10:38:14Z</time>
      </trkpt>
      <trkpt lat="42.8888140" lon="-8.4966970">
        <ele>350.6</ele>
        <time>2021-07-26T10:38:15Z</time>
      </trkpt>
      <trkpt lat="42.8887850" lon="-8.4967760">
        <ele>350.2</ele>
        <time>2021-07-26T10:38:16Z</time>
      </trkpt>
      <trkpt lat="42.8887560" lon="-8.4968550">
        <ele>349.6</ele>
        <time>2021-07-26T10:38:17Z</time>
      </trkpt>
      <trkpt lat="42.8887220" lon="-8.4969350">
        <ele>349.0</ele>
        <time>2021-07-26T10:38:18Z</time>
      </trkpt>
      <trkpt lat="42.8886890" lon="-8.4970170">
        <ele>348.6</ele>
        <time>2021-07-26T10:38:19Z</time>
      </trkpt>
      <trkpt lat="42.8886580" lon="-8.4971000">
        <ele>348.0</ele>
        <time>2021-07-26T10:38:20Z</time>
      </trkpt>
      <trkpt lat="42.8886250" lon="-8.4971850">
        <ele>347.6</ele>
        <time>2021-07-26T10:38:21Z</time>
      </trkpt>
      <trkpt lat="42.8885930" lon="-8.4972710">
        <ele>347.2</ele>
        <time>2021-07-26T10:38:22Z</time>
      </trkpt>
      <trkpt lat="42.8885590" lon="-8.4973630">
        <ele>346.6</ele>
        <time>2021-07-26T10:38:23Z</time>
      </trkpt>
      <trkpt lat="42.8885250" lon="-8.4974520">
        <ele>346.0</ele>
        <time>2021-07-26T10:38:24Z</time>
      </trkpt>
      <trkpt lat="42.8884920" lon="-8.4975400">
        <ele>345.4</ele>
        <time>2021-07-26T10:38:25Z</time>
      </trkpt>
      <trkpt lat="42.8884610" lon="-8.4976260">
        <ele>344.0</ele>
        <time>2021-07-26T10:38:26Z</time>
      </trkpt>
      <trkpt lat="42.8884320" lon="-8.4977150">
        <ele>343.0</ele>
        <time>2021-07-26T10:38:27Z</time>
      </trkpt>
      <trkpt lat="42.8884050" lon="-8.4978060">
        <ele>342.2</ele>
        <time>2021-07-26T10:38:28Z</time>
      </trkpt>
      <trkpt lat="42.8883820" lon="-8.4978950">
        <ele>341.4</ele>
        <time>2021-07-26T10:38:29Z</time>
      </trkpt>
      <trkpt lat="42.8883610" lon="-8.4979840">
        <ele>340.6</ele>
        <time>2021-07-26T10:38:30Z</time>
      </trkpt>
      <trkpt lat="42.8883370" lon="-8.4980790">
        <ele>339.8</ele>
        <time>2021-07-26T10:38:31Z</time>
      </trkpt>
      <trkpt lat="42.8883150" lon="-8.4981660">
        <ele>339.0</ele>
        <time>2021-07-26T10:38:32Z</time>
      </trkpt>
      <trkpt lat="42.8882950" lon="-8.4982480">
        <ele>338.2</ele>
        <time>2021-07-26T10:38:33Z</time>
      </trkpt>
      <trkpt lat="42.8882780" lon="-8.4983230">
        <ele>337.4</ele>
        <time>2021-07-26T10:38:34Z</time>
      </trkpt>
      <trkpt lat="42.8882650" lon="-8.4983910">
        <ele>336.6</ele>
        <time>2021-07-26T10:38:35Z</time>
      </trkpt>
      <trkpt lat="42.8882520" lon="-8.4984520">
        <ele>335.8</ele>
        <time>2021-07-26T10:38:36Z</time>
      </trkpt>
      <trkpt lat="42.8882410" lon="-8.4985060">
        <ele>335.0</ele>
        <time>2021-07-26T10:38:37Z</time>
      </trkpt>
      <trkpt lat="42.8882280" lon="-8.4985570">
        <ele>334.4</ele>
        <time>2021-07-26T10:38:38Z</time>
      </trkpt>
      <trkpt lat="42.8882180" lon="-8.4985990">
        <ele>333.6</ele>
        <time>2021-07-26T10:38:39Z</time>
      </trkpt>
      <trkpt lat="42.8882070" lon="-8.4986390">
        <ele>332.8</ele>
        <time>2021-07-26T10:38:40Z</time>
      </trkpt>
      <trkpt lat="42.8881950" lon="-8.4986780">
        <ele>332.2</ele>
        <time>2021-07-26T10:38:41Z</time>
      </trkpt>
      <trkpt lat="42.8881820" lon="-8.4987220">
        <ele>331.4</ele>
        <time>2021-07-26T10:38:42Z</time>
      </trkpt>
      <trkpt lat="42.8881680" lon="-8.4987740">
        <ele>330.6</ele>
        <time>2021-07-26T10:38:43Z</time>
      </trkpt>
      <trkpt lat="42.8881320" lon="-8.4989120">
        <ele>330.6</ele>
        <time>2021-07-26T10:38:45Z</time>
      </trkpt>
      <trkpt lat="42.8881140" lon="-8.4989850">
        <ele>330.2</ele>
        <time>2021-07-26T10:38:46Z</time>
      </trkpt>
      <trkpt lat="42.8880910" lon="-8.4990550">
        <ele>329.8</ele>
        <time>2021-07-26T10:38:47Z</time>
      </trkpt>
      <trkpt lat="42.8880700" lon="-8.4991320">
        <ele>329.2</ele>
        <time>2021-07-26T10:38:48Z</time>
      </trkpt>
      <trkpt lat="42.8880460" lon="-8.4992170">
        <ele>328.8</ele>
        <time>2021-07-26T10:38:49Z</time>
      </trkpt>
      <trkpt lat="42.8880220" lon="-8.4993090">
        <ele>328.4</ele>
        <time>2021-07-26T10:38:50Z</time>
      </trkpt>
      <trkpt lat="42.8879990" lon="-8.4994100">
        <ele>327.8</ele>
        <time>2021-07-26T10:38:51Z</time>
      </trkpt>
      <trkpt lat="42.8879780" lon="-8.4995010">
        <ele>327.4</ele>
        <time>2021-07-26T10:38:52Z</time>
      </trkpt>
      <trkpt lat="42.8879580" lon="-8.4995830">
        <ele>327.0</ele>
        <time>2021-07-26T10:38:53Z</time>
      </trkpt>
      <trkpt lat="42.8879410" lon="-8.4996480">
        <ele>326.2</ele>
        <time>2021-07-26T10:38:54Z</time>
      </trkpt>
      <trkpt lat="42.8879240" lon="-8.4997000">
        <ele>325.4</ele>
        <time>2021-07-26T10:38:55Z</time>
      </trkpt>
      <trkpt lat="42.8879030" lon="-8.4997400">
        <ele>324.6</ele>
        <time>2021-07-26T10:38:56Z</time>
      </trkpt>
      <trkpt lat="42.8878830" lon="-8.4997700">
        <ele>323.8</ele>
        <time>2021-07-26T10:38:57Z</time>
      </trkpt>
      <trkpt lat="42.8878660" lon="-8.4997880">
        <ele>323.0</ele>
        <time>2021-07-26T10:38:58Z</time>
      </trkpt>
      <trkpt lat="42.8878520" lon="-8.4998030">
        <ele>322.2</ele>
        <time>2021-07-26T10:38:59Z</time>
      </trkpt>
      <trkpt lat="42.8878390" lon="-8.4998150">
        <ele>321.4</ele>
        <time>2021-07-26T10:39:00Z</time>
      </trkpt>
      <trkpt lat="42.8878290" lon="-8.4998290">
        <ele>320.6</ele>
        <time>2021-07-26T10:39:01Z</time>
      </trkpt>
      <trkpt lat="42.8878310" lon="-8.4998280">
        <ele>320.6</ele>
        <time>2021-07-26T10:39:02Z</time>
      </trkpt>
      <trkpt lat="42.8878140" lon="-8.4998410">
        <ele>318.6</ele>
        <time>2021-07-26T10:39:09Z</time>
      </trkpt>
      <trkpt lat="42.8877920" lon="-8.4998610">
        <ele>318.6</ele>
        <time>2021-07-26T10:39:10Z</time>
      </trkpt>
      <trkpt lat="42.8877270" lon="-8.5000190">
        <ele>318.6</ele>
        <time>2021-07-26T10:39:14Z</time>
      </trkpt>
      <trkpt lat="42.8877220" lon="-8.5000770">
        <ele>318.6</ele>
        <time>2021-07-26T10:39:15Z</time>
      </trkpt>
      <trkpt lat="42.8877200" lon="-8.5002100">
        <ele>318.2</ele>
        <time>2021-07-26T10:39:17Z</time>
      </trkpt>
      <trkpt lat="42.8877170" lon="-8.5002760">
        <ele>317.8</ele>
        <time>2021-07-26T10:39:18Z</time>
      </trkpt>
      <trkpt lat="42.8877210" lon="-8.5003390">
        <ele>317.4</ele>
        <time>2021-07-26T10:39:19Z</time>
      </trkpt>
      <trkpt lat="42.8877270" lon="-8.5003970">
        <ele>316.8</ele>
        <time>2021-07-26T10:39:20Z</time>
      </trkpt>
      <trkpt lat="42.8877350" lon="-8.5004530">
        <ele>316.4</ele>
        <time>2021-07-26T10:39:21Z</time>
      </trkpt>
      <trkpt lat="42.8877450" lon="-8.5005110">
        <ele>316.0</ele>
        <time>2021-07-26T10:39:22Z</time>
      </trkpt>
      <trkpt lat="42.8877520" lon="-8.5005680">
        <ele>315.4</ele>
        <time>2021-07-26T10:39:23Z</time>
      </trkpt>
      <trkpt lat="42.8877590" lon="-8.5006270">
        <ele>315.0</ele>
        <time>2021-07-26T10:39:24Z</time>
      </trkpt>
      <trkpt lat="42.8877660" lon="-8.5006780">
        <ele>314.6</ele>
        <time>2021-07-26T10:39:25Z</time>
      </trkpt>
      <trkpt lat="42.8877760" lon="-8.5007310">
        <ele>314.0</ele>
        <time>2021-07-26T10:39:26Z</time>
      </trkpt>
      <trkpt lat="42.8877860" lon="-8.5007890">
        <ele>313.6</ele>
        <time>2021-07-26T10:39:27Z</time>
      </trkpt>
      <trkpt lat="42.8877960" lon="-8.5008490">
        <ele>313.2</ele>
        <time>2021-07-26T10:39:28Z</time>
      </trkpt>
      <trkpt lat="42.8878040" lon="-8.5009050">
        <ele>312.8</ele>
        <time>2021-07-26T10:39:29Z</time>
      </trkpt>
      <trkpt lat="42.8878130" lon="-8.5009540">
        <ele>312.4</ele>
        <time>2021-07-26T10:39:30Z</time>
      </trkpt>
      <trkpt lat="42.8878230" lon="-8.5010060">
        <ele>311.8</ele>
        <time>2021-07-26T10:39:31Z</time>
      </trkpt>
      <trkpt lat="42.8878300" lon="-8.5010560">
        <ele>311.2</ele>
        <time>2021-07-26T10:39:32Z</time>
      </trkpt>
      <trkpt lat="42.8878340" lon="-8.5011020">
        <ele>310.6</ele>
        <time>2021-07-26T10:39:33Z</time>
      </trkpt>
      <trkpt lat="42.8878400" lon="-8.5011420">
        <ele>310.2</ele>
        <time>2021-07-26T10:39:34Z</time>
      </trkpt>
      <trkpt lat="42.8878440" lon="-8.5011630">
        <ele>309.4</ele>
        <time>2021-07-26T10:39:35Z</time>
      </trkpt>
      <trkpt lat="42.8878500" lon="-8.5011930">
        <ele>308.8</ele>
        <time>2021-07-26T10:39:36Z</time>
      </trkpt>
      <trkpt lat="42.8878530" lon="-8.5012240">
        <ele>308.2</ele>
        <time>2021-07-26T10:39:37Z</time>
      </trkpt>
      <trkpt lat="42.8878540" lon="-8.5012690">
        <ele>307.6</ele>
        <time>2021-07-26T10:39:38Z</time>
      </trkpt>
      <trkpt lat="42.8878570" lon="-8.5013130">
        <ele>306.6</ele>
        <time>2021-07-26T10:39:39Z</time>
      </trkpt>
      <trkpt lat="42.8878600" lon="-8.5013640">
        <ele>306.0</ele>
        <time>2021-07-26T10:39:40Z</time>
      </trkpt>
      <trkpt lat="42.8878650" lon="-8.5014170">
        <ele>305.6</ele>
        <time>2021-07-26T10:39:41Z</time>
      </trkpt>
      <trkpt lat="42.8878710" lon="-8.5014740">
        <ele>305.0</ele>
        <time>2021-07-26T10:39:42Z</time>
      </trkpt>
      <trkpt lat="42.8878750" lon="-8.5015440">
        <ele>304.4</ele>
        <time>2021-07-26T10:39:43Z</time>
      </trkpt>
      <trkpt lat="42.8878720" lon="-8.5016260">
        <ele>303.8</ele>
        <time>2021-07-26T10:39:44Z</time>
      </trkpt>
      <trkpt lat="42.8878620" lon="-8.5017160">
        <ele>303.2</ele>
        <time>2021-07-26T10:39:45Z</time>
      </trkpt>
      <trkpt lat="42.8878480" lon="-8.5018040">
        <ele>302.6</ele>
        <time>2021-07-26T10:39:46Z</time>
      </trkpt>
      <trkpt lat="42.8878270" lon="-8.5018970">
        <ele>302.0</ele>
        <time>2021-07-26T10:39:47Z</time>
      </trkpt>
      <trkpt lat="42.8878010" lon="-8.5019950">
        <ele>301.4</ele>
        <time>2021-07-26T10:39:48Z</time>
      </trkpt>
      <trkpt lat="42.8877730" lon="-8.5020930">
        <ele>300.8</ele>
        <time>2021-07-26T10:39:49Z</time>
      </trkpt>
      <trkpt lat="42.8877440" lon="-8.5021880">
        <ele>300.2</ele>
        <time>2021-07-26T10:39:50Z</time>
      </trkpt>
      <trkpt lat="42.8877180" lon="-8.5022790">
        <ele>299.8</ele>
        <time>2021-07-26T10:39:51Z</time>
      </trkpt>
      <trkpt lat="42.8876960" lon="-8.5023640">
        <ele>299.4</ele>
        <time>2021-07-26T10:39:52Z</time>
      </trkpt>
      <trkpt lat="42.8876750" lon="-8.5024570">
        <ele>299.0</ele>
        <time>2021-07-26T10:39:53Z</time>
      </trkpt>
      <trkpt lat="42.8876500" lon="-8.5025530">
        <ele>298.4</ele>
        <time>2021-07-26T10:39:54Z</time>
      </trkpt>
      <trkpt lat="42.8876230" lon="-8.5026360">
        <ele>298.0</ele>
        <time>2021-07-26T10:39:55Z</time>
      </trkpt>
      <trkpt lat="42.8875450" lon="-8.5028930">
        <ele>298.0</ele>
        <time>2021-07-26T10:39:59Z</time>
      </trkpt>
      <trkpt lat="42.8875310" lon="-8.5029410">
        <ele>297.6</ele>
        <time>2021-07-26T10:40:00Z</time>
      </trkpt>
      <trkpt lat="42.8875210" lon="-8.5029960">
        <ele>297.2</ele>
        <time>2021-07-26T10:40:01Z</time>
      </trkpt>
      <trkpt lat="42.8875160" lon="-8.5030480">
        <ele>296.8</ele>
        <time>2021-07-26T10:40:02Z</time>
      </trkpt>
      <trkpt lat="42.8875210" lon="-8.5031030">
        <ele>296.4</ele>
        <time>2021-07-26T10:40:03Z</time>
      </trkpt>
      <trkpt lat="42.8875310" lon="-8.5031550">
        <ele>295.6</ele>
        <time>2021-07-26T10:40:04Z</time>
      </trkpt>
      <trkpt lat="42.8875410" lon="-8.5032060">
        <ele>295.2</ele>
        <time>2021-07-26T10:40:05Z</time>
      </trkpt>
      <trkpt lat="42.8875480" lon="-8.5032560">
        <ele>294.8</ele>
        <time>2021-07-26T10:40:06Z</time>
      </trkpt>
      <trkpt lat="42.8875500" lon="-8.5033090">
        <ele>294.4</ele>
        <time>2021-07-26T10:40:07Z</time>
      </trkpt>
      <trkpt lat="42.8875480" lon="-8.5033640">
        <ele>294.0</ele>
        <time>2021-07-26T10:40:08Z</time>
      </trkpt>
      <trkpt lat="42.8875270" lon="-8.5034630">
        <ele>294.0</ele>
        <time>2021-07-26T10:40:10Z</time>
      </trkpt>
      <trkpt lat="42.8875160" lon="-8.5035120">
        <ele>293.6</ele>
        <time>2021-07-26T10:40:11Z</time>
      </trkpt>
      <trkpt lat="42.8875050" lon="-8.5035570">
        <ele>293.2</ele>
        <time>2021-07-26T10:40:12Z</time>
      </trkpt>
      <trkpt lat="42.8874980" lon="-8.5036010">
        <ele>292.8</ele>
        <time>2021-07-26T10:40:13Z</time>
      </trkpt>
      <trkpt lat="42.8874910" lon="-8.5036450">
        <ele>292.2</ele>
        <time>2021-07-26T10:40:14Z</time>
      </trkpt>
      <trkpt lat="42.8874770" lon="-8.5036930">
        <ele>291.8</ele>
        <time>2021-07-26T10:40:15Z</time>
      </trkpt>
      <trkpt lat="42.8874590" lon="-8.5037450">
        <ele>291.8</ele>
        <time>2021-07-26T10:40:16Z</time>
      </trkpt>
      <trkpt lat="42.8874240" lon="-8.5038560">
        <ele>291.4</ele>
        <time>2021-07-26T10:40:18Z</time>
      </trkpt>
      <trkpt lat="42.8874080" lon="-8.5039060">
        <ele>291.0</ele>
        <time>2021-07-26T10:40:19Z</time>
      </trkpt>
      <trkpt lat="42.8873970" lon="-8.5039520">
        <ele>290.4</ele>
        <time>2021-07-26T10:40:20Z</time>
      </trkpt>
      <trkpt lat="42.8873890" lon="-8.5039990">
        <ele>290.0</ele>
        <time>2021-07-26T10:40:21Z</time>
      </trkpt>
      <trkpt lat="42.8873790" lon="-8.5040470">
        <ele>289.6</ele>
        <time>2021-07-26T10:40:22Z</time>
      </trkpt>
      <trkpt lat="42.8873690" lon="-8.5040940">
        <ele>289.2</ele>
        <time>2021-07-26T10:40:23Z</time>
      </trkpt>
      <trkpt lat="42.8873590" lon="-8.5041430">
        <ele>288.8</ele>
        <time>2021-07-26T10:40:24Z</time>
      </trkpt>
      <trkpt lat="42.8873530" lon="-8.5041880">
        <ele>288.4</ele>
        <time>2021-07-26T10:40:25Z</time>
      </trkpt>
      <trkpt lat="42.8873490" lon="-8.5042300">
        <ele>287.8</ele>
        <time>2021-07-26T10:40:26Z</time>
      </trkpt>
      <trkpt lat="42.8873450" lon="-8.5042760">
        <ele>287.4</ele>
        <time>2021-07-26T10:40:27Z</time>
      </trkpt>
      <trkpt lat="42.8873360" lon="-8.5043610">
        <ele>287.0</ele>
        <time>2021-07-26T10:40:29Z</time>
      </trkpt>
      <trkpt lat="42.8873210" lon="-8.5043920">
        <ele>286.6</ele>
        <time>2021-07-26T10:40:30Z</time>
      </trkpt>
      <trkpt lat="42.8872980" lon="-8.5044160">
        <ele>286.2</ele>
        <time>2021-07-26T10:40:31Z</time>
      </trkpt>
      <trkpt lat="42.8872700" lon="-8.5044420">
        <ele>285.8</ele>
        <time>2021-07-26T10:40:32Z</time>
      </trkpt>
      <trkpt lat="42.8872340" lon="-8.5044710">
        <ele>285.4</ele>
        <time>2021-07-26T10:40:33Z</time>
      </trkpt>
      <trkpt lat="42.8870910" lon="-8.5045940">
        <ele>284.8</ele>
        <time>2021-07-26T10:40:37Z</time>
      </trkpt>
      <trkpt lat="42.8870570" lon="-8.5045930">
        <ele>284.4</ele>
        <time>2021-07-26T10:40:38Z</time>
      </trkpt>
      <trkpt lat="42.8870240" lon="-8.5045870">
        <ele>284.0</ele>
        <time>2021-07-26T10:40:39Z</time>
      </trkpt>
      <trkpt lat="42.8869870" lon="-8.5045720">
        <ele>283.6</ele>
        <time>2021-07-26T10:40:40Z</time>
      </trkpt>
      <trkpt lat="42.8869490" lon="-8.5045620">
        <ele>283.0</ele>
        <time>2021-07-26T10:40:41Z</time>
      </trkpt>
      <trkpt lat="42.8869120" lon="-8.5045510">
        <ele>283.0</ele>
        <time>2021-07-26T10:40:42Z</time>
      </trkpt>
      <trkpt lat="42.8868800" lon="-8.5045440">
        <ele>283.0</ele>
        <time>2021-07-26T10:40:43Z</time>
      </trkpt>
      <trkpt lat="42.8868230" lon="-8.5045620">
        <ele>282.6</ele>
        <time>2021-07-26T10:40:45Z</time>
      </trkpt>
      <trkpt lat="42.8868090" lon="-8.5045830">
        <ele>282.2</ele>
        <time>2021-07-26T10:40:46Z</time>
      </trkpt>
      <trkpt lat="42.8867990" lon="-8.5046050">
        <ele>281.8</ele>
        <time>2021-07-26T10:40:47Z</time>
      </trkpt>
      <trkpt lat="42.8867950" lon="-8.5046250">
        <ele>281.4</ele>
        <time>2021-07-26T10:40:48Z</time>
      </trkpt>
      <trkpt lat="42.8868000" lon="-8.5046450">
        <ele>281.0</ele>
        <time>2021-07-26T10:40:49Z</time>
      </trkpt>
      <trkpt lat="42.8868440" lon="-8.5047050">
        <ele>281.0</ele>
        <time>2021-07-26T10:40:51Z</time>
      </trkpt>
      <trkpt lat="42.8868840" lon="-8.5047730">
        <ele>280.6</ele>
        <time>2021-07-26T10:40:53Z</time>
      </trkpt>
      <trkpt lat="42.8868890" lon="-8.5048120">
        <ele>280.0</ele>
        <time>2021-07-26T10:40:54Z</time>
      </trkpt>
      <trkpt lat="42.8868910" lon="-8.5048440">
        <ele>279.6</ele>
        <time>2021-07-26T10:40:55Z</time>
      </trkpt>
      <trkpt lat="42.8868890" lon="-8.5048660">
        <ele>279.2</ele>
        <time>2021-07-26T10:40:56Z</time>
      </trkpt>
      <trkpt lat="42.8868890" lon="-8.5048900">
        <ele>278.8</ele>
        <time>2021-07-26T10:40:57Z</time>
      </trkpt>
      <trkpt lat="42.8868760" lon="-8.5049990">
        <ele>278.8</ele>
        <time>2021-07-26T10:41:00Z</time>
      </trkpt>
      <trkpt lat="42.8868650" lon="-8.5050410">
        <ele>278.8</ele>
        <time>2021-07-26T10:41:01Z</time>
      </trkpt>
      <trkpt lat="42.8868540" lon="-8.5050850">
        <ele>278.8</ele>
        <time>2021-07-26T10:41:02Z</time>
      </trkpt>
      <trkpt lat="42.8868360" lon="-8.5051280">
        <ele>278.4</ele>
        <time>2021-07-26T10:41:03Z</time>
      </trkpt>
      <trkpt lat="42.8868140" lon="-8.5051730">
        <ele>278.0</ele>
        <time>2021-07-26T10:41:04Z</time>
      </trkpt>
      <trkpt lat="42.8867940" lon="-8.5052260">
        <ele>277.6</ele>
        <time>2021-07-26T10:41:05Z</time>
      </trkpt>
      <trkpt lat="42.8867760" lon="-8.5052890">
        <ele>277.2</ele>
        <time>2021-07-26T10:41:06Z</time>
      </trkpt>
      <trkpt lat="42.8867640" lon="-8.5053590">
        <ele>276.8</ele>
        <time>2021-07-26T10:41:07Z</time>
      </trkpt>
      <trkpt lat="42.8867230" lon="-8.5056750">
        <ele>276.8</ele>
        <time>2021-07-26T10:41:11Z</time>
      </trkpt>
      <trkpt lat="42.8866920" lon="-8.5060210">
        <ele>276.8</ele>
        <time>2021-07-26T10:41:15Z</time>
      </trkpt>
      <trkpt lat="42.8866830" lon="-8.5061010">
        <ele>276.2</ele>
        <time>2021-07-26T10:41:16Z</time>
      </trkpt>
      <trkpt lat="42.8866730" lon="-8.5061790">
        <ele>275.8</ele>
        <time>2021-07-26T10:41:17Z</time>
      </trkpt>
      <trkpt lat="42.8866650" lon="-8.5062500">
        <ele>275.4</ele>
        <time>2021-07-26T10:41:18Z</time>
      </trkpt>
      <trkpt lat="42.8866570" lon="-8.5063090">
        <ele>274.4</ele>
        <time>2021-07-26T10:41:19Z</time>
      </trkpt>
      <trkpt lat="42.8866480" lon="-8.5063670">
        <ele>274.0</ele>
        <time>2021-07-26T10:41:20Z</time>
      </trkpt>
      <trkpt lat="42.8866400" lon="-8.5064240">
        <ele>273.6</ele>
        <time>2021-07-26T10:41:21Z</time>
      </trkpt>
      <trkpt lat="42.8866340" lon="-8.5064880">
        <ele>273.2</ele>
        <time>2021-07-26T10:41:22Z</time>
      </trkpt>
      <trkpt lat="42.8866300" lon="-8.5065550">
        <ele>272.8</ele>
        <time>2021-07-26T10:41:23Z</time>
      </trkpt>
      <trkpt lat="42.8866250" lon="-8.5066210">
        <ele>272.4</ele>
        <time>2021-07-26T10:41:24Z</time>
      </trkpt>
      <trkpt lat="42.8866090" lon="-8.5068170">
        <ele>272.4</ele>
        <time>2021-07-26T10:41:27Z</time>
      </trkpt>
      <trkpt lat="42.8865950" lon="-8.5069710">
        <ele>271.8</ele>
        <time>2021-07-26T10:41:29Z</time>
      </trkpt>
      <trkpt lat="42.8865860" lon="-8.5070580">
        <ele>271.4</ele>
        <time>2021-07-26T10:41:30Z</time>
      </trkpt>
      <trkpt lat="42.8865780" lon="-8.5071500">
        <ele>271.0</ele>
        <time>2021-07-26T10:41:31Z</time>
      </trkpt>
      <trkpt lat="42.8865730" lon="-8.5072410">
        <ele>270.6</ele>
        <time>2021-07-26T10:41:32Z</time>
      </trkpt>
      <trkpt lat="42.8865670" lon="-8.5073420">
        <ele>270.0</ele>
        <time>2021-07-26T10:41:33Z</time>
      </trkpt>
      <trkpt lat="42.8865630" lon="-8.5074360">
        <ele>269.6</ele>
        <time>2021-07-26T10:41:34Z</time>
      </trkpt>
      <trkpt lat="42.8865590" lon="-8.5075320">
        <ele>269.0</ele>
        <time>2021-07-26T10:41:35Z</time>
      </trkpt>
      <trkpt lat="42.8865550" lon="-8.5076190">
        <ele>268.6</ele>
        <time>2021-07-26T10:41:36Z</time>
      </trkpt>
      <trkpt lat="42.8865520" lon="-8.5077010">
        <ele>268.0</ele>
        <time>2021-07-26T10:41:37Z</time>
      </trkpt>
      <trkpt lat="42.8865510" lon="-8.5077780">
        <ele>267.4</ele>
        <time>2021-07-26T10:41:38Z</time>
      </trkpt>
      <trkpt lat="42.8865510" lon="-8.5078490">
        <ele>267.0</ele>
        <time>2021-07-26T10:41:39Z</time>
      </trkpt>
      <trkpt lat="42.8865490" lon="-8.5079170">
        <ele>266.4</ele>
        <time>2021-07-26T10:41:40Z</time>
      </trkpt>
      <trkpt lat="42.8865480" lon="-8.5079790">
        <ele>265.8</ele>
        <time>2021-07-26T10:41:41Z</time>
      </trkpt>
      <trkpt lat="42.8865460" lon="-8.5080380">
        <ele>265.4</ele>
        <time>2021-07-26T10:41:42Z</time>
      </trkpt>
      <trkpt lat="42.8865460" lon="-8.5080980">
        <ele>264.2</ele>
        <time>2021-07-26T10:41:43Z</time>
      </trkpt>
      <trkpt lat="42.8865470" lon="-8.5081550">
        <ele>263.6</ele>
        <time>2021-07-26T10:41:44Z</time>
      </trkpt>
      <trkpt lat="42.8865420" lon="-8.5083860">
        <ele>263.6</ele>
        <time>2021-07-26T10:41:48Z</time>
      </trkpt>
      <trkpt lat="42.8865370" lon="-8.5087150">
        <ele>263.6</ele>
        <time>2021-07-26T10:41:54Z</time>
      </trkpt>
      <trkpt lat="42.8865210" lon="-8.5089530">
        <ele>263.6</ele>
        <time>2021-07-26T10:42:00Z</time>
      </trkpt>
      <trkpt lat="42.8865310" lon="-8.5090060">
        <ele>263.6</ele>
        <time>2021-07-26T10:42:02Z</time>
      </trkpt>
      <trkpt lat="42.8865260" lon="-8.5090550">
        <ele>263.6</ele>
        <time>2021-07-26T10:42:04Z</time>
      </trkpt>
      <trkpt lat="42.8865190" lon="-8.5090750">
        <ele>263.6</ele>
        <time>2021-07-26T10:42:05Z</time>
      </trkpt>
      <trkpt lat="42.8865000" lon="-8.5092130">
        <ele>263.6</ele>
        <time>2021-07-26T10:42:11Z</time>
      </trkpt>
      <trkpt lat="42.8864960" lon="-8.5093420">
        <ele>263.6</ele>
        <time>2021-07-26T10:42:15Z</time>
      </trkpt>
      <trkpt lat="42.8865030" lon="-8.5093780">
        <ele>263.6</ele>
        <time>2021-07-26T10:42:16Z</time>
      </trkpt>
      <trkpt lat="42.8865090" lon="-8.5094150">
        <ele>263.6</ele>
        <time>2021-07-26T10:42:17Z</time>
      </trkpt>
      <trkpt lat="42.8865140" lon="-8.5095020">
        <ele>263.6</ele>
        <time>2021-07-26T10:42:19Z</time>
      </trkpt>
      <trkpt lat="42.8865140" lon="-8.5095450">
        <ele>263.6</ele>
        <time>2021-07-26T10:42:20Z</time>
      </trkpt>
      <trkpt lat="42.8865100" lon="-8.5096370">
        <ele>263.6</ele>
        <time>2021-07-26T10:42:22Z</time>
      </trkpt>
      <trkpt lat="42.8864760" lon="-8.5097580">
        <ele>263.6</ele>
        <time>2021-07-26T10:42:25Z</time>
      </trkpt>
      <trkpt lat="42.8864550" lon="-8.5098210">
        <ele>263.6</ele>
        <time>2021-07-26T10:42:27Z</time>
      </trkpt>
      <trkpt lat="42.8864450" lon="-8.5099470">
        <ele>263.6</ele>
        <time>2021-07-26T10:42:32Z</time>
      </trkpt>
      <trkpt lat="42.8864360" lon="-8.5100590">
        <ele>263.6</ele>
        <time>2021-07-26T10:42:35Z</time>
      </trkpt>
      <trkpt lat="42.8864120" lon="-8.5101460">
        <ele>263.6</ele>
        <time>2021-07-26T10:42:38Z</time>
      </trkpt>
      <trkpt lat="42.8863630" lon="-8.5102450">
        <ele>263.6</ele>
        <time>2021-07-26T10:42:42Z</time>
      </trkpt>
      <trkpt lat="42.8863390" lon="-8.5102820">
        <ele>263.6</ele>
        <time>2021-07-26T10:42:44Z</time>
      </trkpt>
      <trkpt lat="42.8862890" lon="-8.5103330">
        <ele>263.6</ele>
        <time>2021-07-26T10:42:48Z</time>
      </trkpt>
      <trkpt lat="42.8862800" lon="-8.5103510">
        <ele>263.6</ele>
        <time>2021-07-26T10:42:49Z</time>
      </trkpt>
      <trkpt lat="42.8862610" lon="-8.5103820">
        <ele>263.6</ele>
        <time>2021-07-26T10:42:51Z</time>
      </trkpt>
      <trkpt lat="42.8862420" lon="-8.5104160">
        <ele>263.6</ele>
        <time>2021-07-26T10:42:53Z</time>
      </trkpt>
      <trkpt lat="42.8861820" lon="-8.5105160">
        <ele>263.6</ele>
        <time>2021-07-26T10:42:59Z</time>
      </trkpt>
      <trkpt lat="42.8861840" lon="-8.5105410">
        <ele>263.6</ele>
        <time>2021-07-26T10:43:00Z</time>
      </trkpt>
      <trkpt lat="42.8861940" lon="-8.5106620">
        <ele>263.6</ele>
        <time>2021-07-26T10:43:04Z</time>
      </trkpt>
      <trkpt lat="42.8861980" lon="-8.5107350">
        <ele>263.6</ele>
        <time>2021-07-26T10:43:08Z</time>
      </trkpt>
      <trkpt lat="42.8861990" lon="-8.5107490">
        <ele>263.6</ele>
        <time>2021-07-26T10:43:09Z</time>
      </trkpt>
      <trkpt lat="42.8861990" lon="-8.5107760">
        <ele>263.6</ele>
        <time>2021-07-26T10:43:11Z</time>
      </trkpt>
      <trkpt lat="42.8861970" lon="-8.5109400">
        <ele>263.6</ele>
        <time>2021-07-26T10:43:18Z</time>
      </trkpt>
      <trkpt lat="42.8862090" lon="-8.5109740">
        <ele>263.6</ele>
        <time>2021-07-26T10:43:19Z</time>
      </trkpt>
      <trkpt lat="42.8862760" lon="-8.5110310">
        <ele>263.6</ele>
        <time>2021-07-26T10:43:22Z</time>
      </trkpt>
      <trkpt lat="42.8863270" lon="-8.5111190">
        <ele>263.6</ele>
        <time>2021-07-26T10:43:25Z</time>
      </trkpt>
      <trkpt lat="42.8863430" lon="-8.5111790">
        <ele>263.6</ele>
        <time>2021-07-26T10:43:27Z</time>
      </trkpt>
      <trkpt lat="42.8863490" lon="-8.5112880">
        <ele>263.6</ele>
        <time>2021-07-26T10:43:30Z</time>
      </trkpt>
      <trkpt lat="42.8863520" lon="-8.5113790">
        <ele>263.6</ele>
        <time>2021-07-26T10:43:33Z</time>
      </trkpt>
      <trkpt lat="42.8863320" lon="-8.5114680">
        <ele>263.6</ele>
        <time>2021-07-26T10:43:39Z</time>
      </trkpt>
      <trkpt lat="42.8863260" lon="-8.5114760">
        <ele>263.6</ele>
        <time>2021-07-26T10:43:41Z</time>
      </trkpt>
      <trkpt lat="42.8863380" lon="-8.5115470">
        <ele>263.6</ele>
        <time>2021-07-26T10:44:16Z</time>
      </trkpt>
      <trkpt lat="42.8863430" lon="-8.5115680">
        <ele>263.6</ele>
        <time>2021-07-26T10:44:17Z</time>
      </trkpt>
      <trkpt lat="42.8863530" lon="-8.5116370">
        <ele>263.6</ele>
        <time>2021-07-26T10:44:20Z</time>
      </trkpt>
      <trkpt lat="42.8863470" lon="-8.5117440">
        <ele>263.6</ele>
        <time>2021-07-26T10:44:25Z</time>
      </trkpt>
      <trkpt lat="42.8863490" lon="-8.5117740">
        <ele>263.6</ele>
        <time>2021-07-26T10:44:27Z</time>
      </trkpt>
      <trkpt lat="42.8863500" lon="-8.5117910">
        <ele>263.6</ele>
        <time>2021-07-26T10:44:28Z</time>
      </trkpt>
      <trkpt lat="42.8863480" lon="-8.5118530">
        <ele>263.6</ele>
        <time>2021-07-26T10:44:31Z</time>
      </trkpt>
      <trkpt lat="42.8863450" lon="-8.5118720">
        <ele>263.6</ele>
        <time>2021-07-26T10:44:32Z</time>
      </trkpt>
      <trkpt lat="42.8863440" lon="-8.5119200">
        <ele>263.6</ele>
        <time>2021-07-26T10:44:35Z</time>
      </trkpt>
      <trkpt lat="42.8863440" lon="-8.5120090">
        <ele>263.6</ele>
        <time>2021-07-26T10:44:38Z</time>
      </trkpt>
      <trkpt lat="42.8863480" lon="-8.5120810">
        <ele>263.6</ele>
        <time>2021-07-26T10:44:40Z</time>
      </trkpt>
      <trkpt lat="42.8863540" lon="-8.5121710">
        <ele>263.6</ele>
        <time>2021-07-26T10:44:44Z</time>
      </trkpt>
      <trkpt lat="42.8863510" lon="-8.5123310">
        <ele>263.6</ele>
        <time>2021-07-26T10:44:52Z</time>
      </trkpt>
      <trkpt lat="42.8863510" lon="-8.5124700">
        <ele>263.6</ele>
        <time>2021-07-26T10:44:55Z</time>
      </trkpt>
      <trkpt lat="42.8863680" lon="-8.5125600">
        <ele>263.6</ele>
        <time>2021-07-26T10:44:57Z</time>
      </trkpt>
      <trkpt lat="42.8863750" lon="-8.5126360">
        <ele>263.6</ele>
        <time>2021-07-26T10:44:59Z</time>
      </trkpt>
      <trkpt lat="42.8863690" lon="-8.5127030">
        <ele>263.6</ele>
        <time>2021-07-26T10:45:01Z</time>
      </trkpt>
      <trkpt lat="42.8863700" lon="-8.5127670">
        <ele>263.6</ele>
        <time>2021-07-26T10:45:03Z</time>
      </trkpt>
      <trkpt lat="42.8863630" lon="-8.5128810">
        <ele>264.0</ele>
        <time>2021-07-26T10:45:07Z</time>
      </trkpt>
      <trkpt lat="42.8863560" lon="-8.5129100">
        <ele>264.4</ele>
        <time>2021-07-26T10:45:08Z</time>
      </trkpt>
      <trkpt lat="42.8863440" lon="-8.5129340">
        <ele>264.8</ele>
        <time>2021-07-26T10:45:09Z</time>
      </trkpt>
      <trkpt lat="42.8863280" lon="-8.5129530">
        <ele>265.2</ele>
        <time>2021-07-26T10:45:10Z</time>
      </trkpt>
      <trkpt lat="42.8863170" lon="-8.5129750">
        <ele>265.6</ele>
        <time>2021-07-26T10:45:11Z</time>
      </trkpt>
      <trkpt lat="42.8863210" lon="-8.5130630">
        <ele>265.6</ele>
        <time>2021-07-26T10:45:14Z</time>
      </trkpt>
      <trkpt lat="42.8863640" lon="-8.5132110">
        <ele>265.6</ele>
        <time>2021-07-26T10:45:19Z</time>
      </trkpt>
      <trkpt lat="42.8863470" lon="-8.5134380">
        <ele>265.6</ele>
        <time>2021-07-26T10:45:25Z</time>
      </trkpt>
      <trkpt lat="42.8863340" lon="-8.5135910">
        <ele>265.6</ele>
        <time>2021-07-26T10:45:29Z</time>
      </trkpt>
      <trkpt lat="42.8863230" lon="-8.5137130">
        <ele>265.6</ele>
        <time>2021-07-26T10:45:32Z</time>
      </trkpt>
      <trkpt lat="42.8862820" lon="-8.5138950">
        <ele>266.2</ele>
        <time>2021-07-26T10:45:37Z</time>
      </trkpt>
      <trkpt lat="42.8862630" lon="-8.5139230">
        <ele>266.6</ele>
        <time>2021-07-26T10:45:38Z</time>
      </trkpt>
      <trkpt lat="42.8862570" lon="-8.5139560">
        <ele>267.0</ele>
        <time>2021-07-26T10:45:39Z</time>
      </trkpt>
      <trkpt lat="42.8862640" lon="-8.5139960">
        <ele>267.4</ele>
        <time>2021-07-26T10:45:40Z</time>
      </trkpt>
      <trkpt lat="42.8862610" lon="-8.5140280">
        <ele>267.8</ele>
        <time>2021-07-26T10:45:41Z</time>
      </trkpt>
      <trkpt lat="42.8862650" lon="-8.5140620">
        <ele>267.8</ele>
        <time>2021-07-26T10:45:42Z</time>
      </trkpt>
      <trkpt lat="42.8862690" lon="-8.5141050">
        <ele>267.8</ele>
        <time>2021-07-26T10:45:43Z</time>
      </trkpt>
      <trkpt lat="42.8862780" lon="-8.5142970">
        <ele>267.8</ele>
        <time>2021-07-26T10:45:48Z</time>
      </trkpt>
      <trkpt lat="42.8862820" lon="-8.5145160">
        <ele>267.8</ele>
        <time>2021-07-26T10:45:54Z</time>
      </trkpt>
      <trkpt lat="42.8862910" lon="-8.5146960">
        <ele>267.8</ele>
        <time>2021-07-26T10:45:59Z</time>
      </trkpt>
      <trkpt lat="42.8862730" lon="-8.5147960">
        <ele>268.2</ele>
        <time>2021-07-26T10:46:02Z</time>
      </trkpt>
      <trkpt lat="42.8862630" lon="-8.5148280">
        <ele>268.6</ele>
        <time>2021-07-26T10:46:03Z</time>
      </trkpt>
      <trkpt lat="42.8862830" lon="-8.5148760">
        <ele>269.0</ele>
        <time>2021-07-26T10:46:04Z</time>
      </trkpt>
      <trkpt lat="42.8862890" lon="-8.5149110">
        <ele>269.4</ele>
        <time>2021-07-26T10:46:05Z</time>
      </trkpt>
      <trkpt lat="42.8862890" lon="-8.5149480">
        <ele>269.8</ele>
        <time>2021-07-26T10:46:06Z</time>
      </trkpt>
      <trkpt lat="42.8862980" lon="-8.5151400">
        <ele>269.8</ele>
        <time>2021-07-26T10:46:11Z</time>
      </trkpt>
      <trkpt lat="42.8862940" lon="-8.5154120">
        <ele>269.8</ele>
        <time>2021-07-26T10:46:18Z</time>
      </trkpt>
      <trkpt lat="42.8863240" lon="-8.5156660">
        <ele>270.2</ele>
        <time>2021-07-26T10:46:24Z</time>
      </trkpt>
      <trkpt lat="42.8863290" lon="-8.5157100">
        <ele>270.8</ele>
        <time>2021-07-26T10:46:25Z</time>
      </trkpt>
      <trkpt lat="42.8863320" lon="-8.5157600">
        <ele>271.2</ele>
        <time>2021-07-26T10:46:26Z</time>
      </trkpt>
      <trkpt lat="42.8863380" lon="-8.5157980">
        <ele>271.6</ele>
        <time>2021-07-26T10:46:27Z</time>
      </trkpt>
      <trkpt lat="42.8863390" lon="-8.5158350">
        <ele>272.0</ele>
        <time>2021-07-26T10:46:28Z</time>
      </trkpt>
      <trkpt lat="42.8863340" lon="-8.5159370">
        <ele>272.0</ele>
        <time>2021-07-26T10:46:31Z</time>
      </trkpt>
      <trkpt lat="42.8863590" lon="-8.5161380">
        <ele>272.0</ele>
        <time>2021-07-26T10:46:37Z</time>
      </trkpt>
      <trkpt lat="42.8863750" lon="-8.5163480">
        <ele>272.0</ele>
        <time>2021-07-26T10:46:43Z</time>
      </trkpt>
      <trkpt lat="42.8863770" lon="-8.5163830">
        <ele>272.4</ele>
        <time>2021-07-26T10:46:44Z</time>
      </trkpt>
      <trkpt lat="42.8863780" lon="-8.5164170">
        <ele>272.8</ele>
        <time>2021-07-26T10:46:45Z</time>
      </trkpt>
      <trkpt lat="42.8863770" lon="-8.5164540">
        <ele>273.2</ele>
        <time>2021-07-26T10:46:46Z</time>
      </trkpt>
      <trkpt lat="42.8863770" lon="-8.5164880">
        <ele>273.8</ele>
        <time>2021-07-26T10:46:47Z</time>
      </trkpt>
      <trkpt lat="42.8863760" lon="-8.5165290">
        <ele>274.2</ele>
        <time>2021-07-26T10:46:48Z</time>
      </trkpt>
      <trkpt lat="42.8863620" lon="-8.5165870">
        <ele>274.2</ele>
        <time>2021-07-26T10:46:50Z</time>
      </trkpt>
      <trkpt lat="42.8863320" lon="-8.5167270">
        <ele>274.2</ele>
        <time>2021-07-26T10:46:55Z</time>
      </trkpt>
      <trkpt lat="42.8863180" lon="-8.5167710">
        <ele>274.2</ele>
        <time>2021-07-26T10:46:57Z</time>
      </trkpt>
      <trkpt lat="42.8863150" lon="-8.5168190">
        <ele>274.2</ele>
        <time>2021-07-26T10:47:00Z</time>
      </trkpt>
      <trkpt lat="42.8863030" lon="-8.5168620">
        <ele>274.2</ele>
        <time>2021-07-26T10:47:06Z</time>
      </trkpt>
      <trkpt lat="42.8862920" lon="-8.5168810">
        <ele>274.2</ele>
        <time>2021-07-26T10:47:07Z</time>
      </trkpt>
      <trkpt lat="42.8862830" lon="-8.5169380">
        <ele>274.2</ele>
        <time>2021-07-26T10:47:11Z</time>
      </trkpt>
      <trkpt lat="42.8862920" lon="-8.5169990">
        <ele>274.2</ele>
        <time>2021-07-26T10:47:14Z</time>
      </trkpt>
      <trkpt lat="42.8863270" lon="-8.5170450">
        <ele>274.2</ele>
        <time>2021-07-26T10:47:16Z</time>
      </trkpt>
      <trkpt lat="42.8863660" lon="-8.5171090">
        <ele>274.2</ele>
        <time>2021-07-26T10:47:18Z</time>
      </trkpt>
      <trkpt lat="42.8863910" lon="-8.5172070">
        <ele>274.2</ele>
        <time>2021-07-26T10:47:21Z</time>
      </trkpt>
      <trkpt lat="42.8864130" lon="-8.5173490">
        <ele>274.6</ele>
        <time>2021-07-26T10:47:26Z</time>
      </trkpt>
      <trkpt lat="42.8864140" lon="-8.5173790">
        <ele>275.0</ele>
        <time>2021-07-26T10:47:27Z</time>
      </trkpt>
      <trkpt lat="42.8864130" lon="-8.5174050">
        <ele>275.8</ele>
        <time>2021-07-26T10:47:28Z</time>
      </trkpt>
      <trkpt lat="42.8864140" lon="-8.5174430">
        <ele>276.2</ele>
        <time>2021-07-26T10:47:29Z</time>
      </trkpt>
      <trkpt lat="42.8864120" lon="-8.5175560">
        <ele>276.2</ele>
        <time>2021-07-26T10:47:33Z</time>
      </trkpt>
      <trkpt lat="42.8864180" lon="-8.5176270">
        <ele>276.2</ele>
        <time>2021-07-26T10:47:37Z</time>
      </trkpt>
      <trkpt lat="42.8864230" lon="-8.5176730">
        <ele>276.2</ele>
        <time>2021-07-26T10:47:40Z</time>
      </trkpt>
      <trkpt lat="42.8864240" lon="-8.5177010">
        <ele>276.2</ele>
        <time>2021-07-26T10:47:42Z</time>
      </trkpt>
      <trkpt lat="42.8864200" lon="-8.5177380">
        <ele>276.2</ele>
        <time>2021-07-26T10:47:45Z</time>
      </trkpt>
      <trkpt lat="42.8864200" lon="-8.5177990">
        <ele>276.2</ele>
        <time>2021-07-26T10:47:47Z</time>
      </trkpt>
      <trkpt lat="42.8864180" lon="-8.5178520">
        <ele>276.2</ele>
        <time>2021-07-26T10:47:49Z</time>
      </trkpt>
      <trkpt lat="42.8864350" lon="-8.5179030">
        <ele>276.2</ele>
        <time>2021-07-26T10:47:51Z</time>
      </trkpt>
      <trkpt lat="42.8864560" lon="-8.5179550">
        <ele>276.2</ele>
        <time>2021-07-26T10:47:53Z</time>
      </trkpt>
      <trkpt lat="42.8864890" lon="-8.5181630">
        <ele>276.6</ele>
        <time>2021-07-26T10:47:59Z</time>
      </trkpt>
      <trkpt lat="42.8864890" lon="-8.5181960">
        <ele>277.0</ele>
        <time>2021-07-26T10:48:00Z</time>
      </trkpt>
      <trkpt lat="42.8864930" lon="-8.5182350">
        <ele>277.4</ele>
        <time>2021-07-26T10:48:01Z</time>
      </trkpt>
      <trkpt lat="42.8864990" lon="-8.5182730">
        <ele>278.0</ele>
        <time>2021-07-26T10:48:02Z</time>
      </trkpt>
      <trkpt lat="42.8865040" lon="-8.5183180">
        <ele>278.4</ele>
        <time>2021-07-26T10:48:03Z</time>
      </trkpt>
      <trkpt lat="42.8865130" lon="-8.5184030">
        <ele>278.4</ele>
        <time>2021-07-26T10:48:05Z</time>
      </trkpt>
      <trkpt lat="42.8865470" lon="-8.5186680">
        <ele>278.4</ele>
        <time>2021-07-26T10:48:11Z</time>
      </trkpt>
      <trkpt lat="42.8865590" lon="-8.5187910">
        <ele>278.4</ele>
        <time>2021-07-26T10:48:14Z</time>
      </trkpt>
      <trkpt lat="42.8866090" lon="-8.5190130">
        <ele>278.4</ele>
        <time>2021-07-26T10:48:20Z</time>
      </trkpt>
      <trkpt lat="42.8866320" lon="-8.5191700">
        <ele>278.4</ele>
        <time>2021-07-26T10:48:24Z</time>
      </trkpt>
      <trkpt lat="42.8866420" lon="-8.5192710">
        <ele>278.4</ele>
        <time>2021-07-26T10:48:27Z</time>
      </trkpt>
      <trkpt lat="42.8866740" lon="-8.5195440">
        <ele>278.4</ele>
        <time>2021-07-26T10:48:33Z</time>
      </trkpt>
      <trkpt lat="42.8866720" lon="-8.5197550">
        <ele>278.4</ele>
        <time>2021-07-26T10:48:38Z</time>
      </trkpt>
      <trkpt lat="42.8866950" lon="-8.5198830">
        <ele>278.4</ele>
        <time>2021-07-26T10:48:41Z</time>
      </trkpt>
      <trkpt lat="42.8866910" lon="-8.5199640">
        <ele>278.4</ele>
        <time>2021-07-26T10:48:43Z</time>
      </trkpt>
      <trkpt lat="42.8866930" lon="-8.5200080">
        <ele>278.4</ele>
        <time>2021-07-26T10:48:44Z</time>
      </trkpt>
      <trkpt lat="42.8866930" lon="-8.5200840">
        <ele>278.4</ele>
        <time>2021-07-26T10:48:46Z</time>
      </trkpt>
      <trkpt lat="42.8867430" lon="-8.5202750">
        <ele>278.4</ele>
        <time>2021-07-26T10:48:52Z</time>
      </trkpt>
      <trkpt lat="42.8867630" lon="-8.5203590">
        <ele>278.4</ele>
        <time>2021-07-26T10:48:54Z</time>
      </trkpt>
      <trkpt lat="42.8868030" lon="-8.5205040">
        <ele>278.4</ele>
        <time>2021-07-26T10:48:57Z</time>
      </trkpt>
      <trkpt lat="42.8868350" lon="-8.5205750">
        <ele>278.4</ele>
        <time>2021-07-26T10:48:59Z</time>
      </trkpt>
      <trkpt lat="42.8868610" lon="-8.5206640">
        <ele>278.4</ele>
        <time>2021-07-26T10:49:01Z</time>
      </trkpt>
      <trkpt lat="42.8869200" lon="-8.5209100">
        <ele>278.4</ele>
        <time>2021-07-26T10:49:07Z</time>
      </trkpt>
      <trkpt lat="42.8869310" lon="-8.5209430">
        <ele>278.4</ele>
        <time>2021-07-26T10:49:08Z</time>
      </trkpt>
      <trkpt lat="42.8869220" lon="-8.5210270">
        <ele>278.4</ele>
        <time>2021-07-26T10:49:11Z</time>
      </trkpt>
      <trkpt lat="42.8869020" lon="-8.5210700">
        <ele>278.4</ele>
        <time>2021-07-26T10:49:13Z</time>
      </trkpt>
      <trkpt lat="42.8869090" lon="-8.5210900">
        <ele>278.4</ele>
        <time>2021-07-26T10:49:15Z</time>
      </trkpt>
      <trkpt lat="42.8868860" lon="-8.5211690">
        <ele>278.4</ele>
        <time>2021-07-26T10:50:06Z</time>
      </trkpt>
      <trkpt lat="42.8868950" lon="-8.5211990">
        <ele>278.4</ele>
        <time>2021-07-26T10:50:07Z</time>
      </trkpt>
      <trkpt lat="42.8869110" lon="-8.5212400">
        <ele>278.4</ele>
        <time>2021-07-26T10:50:09Z</time>
      </trkpt>
      <trkpt lat="42.8869240" lon="-8.5213030">
        <ele>278.4</ele>
        <time>2021-07-26T10:50:11Z</time>
      </trkpt>
      <trkpt lat="42.8869310" lon="-8.5213370">
        <ele>278.4</ele>
        <time>2021-07-26T10:50:12Z</time>
      </trkpt>
      <trkpt lat="42.8869580" lon="-8.5214050">
        <ele>278.4</ele>
        <time>2021-07-26T10:50:15Z</time>
      </trkpt>
      <trkpt lat="42.8869540" lon="-8.5214170">
        <ele>278.4</ele>
        <time>2021-07-26T10:50:16Z</time>
      </trkpt>
      <trkpt lat="42.8869660" lon="-8.5214450">
        <ele>278.4</ele>
        <time>2021-07-26T10:50:17Z</time>
      </trkpt>
      <trkpt lat="42.8869900" lon="-8.5215820">
        <ele>278.4</ele>
        <time>2021-07-26T10:50:21Z</time>
      </trkpt>
      <trkpt lat="42.8869970" lon="-8.5216240">
        <ele>278.4</ele>
        <time>2021-07-26T10:50:22Z</time>
      </trkpt>
      <trkpt lat="42.8870080" lon="-8.5216640">
        <ele>278.4</ele>
        <time>2021-07-26T10:50:23Z</time>
      </trkpt>
      <trkpt lat="42.8870260" lon="-8.5217520">
        <ele>278.4</ele>
        <time>2021-07-26T10:50:25Z</time>
      </trkpt>
      <trkpt lat="42.8870420" lon="-8.5218440">
        <ele>278.4</ele>
        <time>2021-07-26T10:50:27Z</time>
      </trkpt>
      <trkpt lat="42.8870540" lon="-8.5218950">
        <ele>278.4</ele>
        <time>2021-07-26T10:50:28Z</time>
      </trkpt>
      <trkpt lat="42.8870950" lon="-8.5221240">
        <ele>278.4</ele>
        <time>2021-07-26T10:50:32Z</time>
      </trkpt>
      <trkpt lat="42.8871200" lon="-8.5222320">
        <ele>278.4</ele>
        <time>2021-07-26T10:50:34Z</time>
      </trkpt>
      <trkpt lat="42.8871430" lon="-8.5223400">
        <ele>278.0</ele>
        <time>2021-07-26T10:50:36Z</time>
      </trkpt>
      <trkpt lat="42.8871490" lon="-8.5223900">
        <ele>277.6</ele>
        <time>2021-07-26T10:50:37Z</time>
      </trkpt>
      <trkpt lat="42.8871640" lon="-8.5224360">
        <ele>277.2</ele>
        <time>2021-07-26T10:50:38Z</time>
      </trkpt>
      <trkpt lat="42.8871740" lon="-8.5224870">
        <ele>276.8</ele>
        <time>2021-07-26T10:50:39Z</time>
      </trkpt>
      <trkpt lat="42.8871860" lon="-8.5225400">
        <ele>276.4</ele>
        <time>2021-07-26T10:50:40Z</time>
      </trkpt>
      <trkpt lat="42.8872600" lon="-8.5229870">
        <ele>276.4</ele>
        <time>2021-07-26T10:50:48Z</time>
      </trkpt>
      <trkpt lat="42.8872810" lon="-8.5231710">
        <ele>276.4</ele>
        <time>2021-07-26T10:50:52Z</time>
      </trkpt>
      <trkpt lat="42.8872830" lon="-8.5232430">
        <ele>276.4</ele>
        <time>2021-07-26T10:50:54Z</time>
      </trkpt>
      <trkpt lat="42.8872990" lon="-8.5234180">
        <ele>276.0</ele>
        <time>2021-07-26T10:50:59Z</time>
      </trkpt>
      <trkpt lat="42.8872900" lon="-8.5234400">
        <ele>275.6</ele>
        <time>2021-07-26T10:51:00Z</time>
      </trkpt>
      <trkpt lat="42.8872770" lon="-8.5234570">
        <ele>275.2</ele>
        <time>2021-07-26T10:51:01Z</time>
      </trkpt>
      <trkpt lat="42.8872640" lon="-8.5234850">
        <ele>274.8</ele>
        <time>2021-07-26T10:51:02Z</time>
      </trkpt>
      <trkpt lat="42.8872440" lon="-8.5235100">
        <ele>274.2</ele>
        <time>2021-07-26T10:51:03Z</time>
      </trkpt>
      <trkpt lat="42.8872260" lon="-8.5235340">
        <ele>274.2</ele>
        <time>2021-07-26T10:51:04Z</time>
      </trkpt>
      <trkpt lat="42.8871960" lon="-8.5236010">
        <ele>274.2</ele>
        <time>2021-07-26T10:51:08Z</time>
      </trkpt>
      <trkpt lat="42.8871910" lon="-8.5236300">
        <ele>274.2</ele>
        <time>2021-07-26T10:51:09Z</time>
      </trkpt>
      <trkpt lat="42.8871970" lon="-8.5236770">
        <ele>274.2</ele>
        <time>2021-07-26T10:51:13Z</time>
      </trkpt>
      <trkpt lat="42.8872190" lon="-8.5236840">
        <ele>274.2</ele>
        <time>2021-07-26T10:51:15Z</time>
      </trkpt>
      <trkpt lat="42.8872200" lon="-8.5237070">
        <ele>274.2</ele>
        <time>2021-07-26T10:51:16Z</time>
      </trkpt>
      <trkpt lat="42.8872250" lon="-8.5237540">
        <ele>274.2</ele>
        <time>2021-07-26T10:51:18Z</time>
      </trkpt>
      <trkpt lat="42.8872280" lon="-8.5238870">
        <ele>274.2</ele>
        <time>2021-07-26T10:51:26Z</time>
      </trkpt>
      <trkpt lat="42.8872380" lon="-8.5239270">
        <ele>274.2</ele>
        <time>2021-07-26T10:51:30Z</time>
      </trkpt>
      <trkpt lat="42.8872330" lon="-8.5239660">
        <ele>274.2</ele>
        <time>2021-07-26T10:51:35Z</time>
      </trkpt>
      <trkpt lat="42.8872290" lon="-8.5239920">
        <ele>274.2</ele>
        <time>2021-07-26T10:51:36Z</time>
      </trkpt>
      <trkpt lat="42.8872180" lon="-8.5240910">
        <ele>274.2</ele>
        <time>2021-07-26T10:51:39Z</time>
      </trkpt>
      <trkpt lat="42.8872100" lon="-8.5242540">
        <ele>274.2</ele>
        <time>2021-07-26T10:51:43Z</time>
      </trkpt>
      <trkpt lat="42.8872070" lon="-8.5242980">
        <ele>274.2</ele>
        <time>2021-07-26T10:51:44Z</time>
      </trkpt>
      <trkpt lat="42.8872040" lon="-8.5244100">
        <ele>274.2</ele>
        <time>2021-07-26T10:51:47Z</time>
      </trkpt>
      <trkpt lat="42.8872030" lon="-8.5244980">
        <ele>274.2</ele>
        <time>2021-07-26T10:51:49Z</time>
      </trkpt>
      <trkpt lat="42.8871980" lon="-8.5246090">
        <ele>274.2</ele>
        <time>2021-07-26T10:51:52Z</time>
      </trkpt>
      <trkpt lat="42.8871960" lon="-8.5247210">
        <ele>274.2</ele>
        <time>2021-07-26T10:51:55Z</time>
      </trkpt>
      <trkpt lat="42.8871970" lon="-8.5248490">
        <ele>274.2</ele>
        <time>2021-07-26T10:51:58Z</time>
      </trkpt>
      <trkpt lat="42.8871860" lon="-8.5249440">
        <ele>274.2</ele>
        <time>2021-07-26T10:52:00Z</time>
      </trkpt>
      <trkpt lat="42.8871760" lon="-8.5250440">
        <ele>274.2</ele>
        <time>2021-07-26T10:52:02Z</time>
      </trkpt>
      <trkpt lat="42.8871710" lon="-8.5251270">
        <ele>274.2</ele>
        <time>2021-07-26T10:52:04Z</time>
      </trkpt>
      <trkpt lat="42.8871420" lon="-8.5252720">
        <ele>273.8</ele>
        <time>2021-07-26T10:52:08Z</time>
      </trkpt>
      <trkpt lat="42.8871360" lon="-8.5253050">
        <ele>273.4</ele>
        <time>2021-07-26T10:52:09Z</time>
      </trkpt>
      <trkpt lat="42.8871290" lon="-8.5253340">
        <ele>273.0</ele>
        <time>2021-07-26T10:52:10Z</time>
      </trkpt>
      <trkpt lat="42.8871200" lon="-8.5253610">
        <ele>272.6</ele>
        <time>2021-07-26T10:52:11Z</time>
      </trkpt>
      <trkpt lat="42.8871040" lon="-8.5254040">
        <ele>272.2</ele>
        <time>2021-07-26T10:52:12Z</time>
      </trkpt>
      <trkpt lat="42.8870430" lon="-8.5256290">
        <ele>272.2</ele>
        <time>2021-07-26T10:52:17Z</time>
      </trkpt>
      <trkpt lat="42.8869750" lon="-8.5258300">
        <ele>272.2</ele>
        <time>2021-07-26T10:52:22Z</time>
      </trkpt>
      <trkpt lat="42.8869670" lon="-8.5258670">
        <ele>272.2</ele>
        <time>2021-07-26T10:52:23Z</time>
      </trkpt>
      <trkpt lat="42.8868660" lon="-8.5261780">
        <ele>272.2</ele>
        <time>2021-07-26T10:52:31Z</time>
      </trkpt>
      <trkpt lat="42.8868100" lon="-8.5262730">
        <ele>272.2</ele>
        <time>2021-07-26T10:52:35Z</time>
      </trkpt>
      <trkpt lat="42.8867730" lon="-8.5263290">
        <ele>272.2</ele>
        <time>2021-07-26T10:52:37Z</time>
      </trkpt>
      <trkpt lat="42.8867150" lon="-8.5264530">
        <ele>272.2</ele>
        <time>2021-07-26T10:52:40Z</time>
      </trkpt>
      <trkpt lat="42.8866790" lon="-8.5265290">
        <ele>272.2</ele>
        <time>2021-07-26T10:52:42Z</time>
      </trkpt>
      <trkpt lat="42.8866730" lon="-8.5265670">
        <ele>272.2</ele>
        <time>2021-07-26T10:52:43Z</time>
      </trkpt>
      <trkpt lat="42.8866070" lon="-8.5268090">
        <ele>272.2</ele>
        <time>2021-07-26T10:52:49Z</time>
      </trkpt>
      <trkpt lat="42.8865920" lon="-8.5268580">
        <ele>272.2</ele>
        <time>2021-07-26T10:52:50Z</time>
      </trkpt>
      <trkpt lat="42.8865070" lon="-8.5271000">
        <ele>272.2</ele>
        <time>2021-07-26T10:52:57Z</time>
      </trkpt>
      <trkpt lat="42.8864830" lon="-8.5271540">
        <ele>272.2</ele>
        <time>2021-07-26T10:53:01Z</time>
      </trkpt>
      <trkpt lat="42.8864450" lon="-8.5272260">
        <ele>272.2</ele>
        <time>2021-07-26T10:53:04Z</time>
      </trkpt>
      <trkpt lat="42.8863990" lon="-8.5273380">
        <ele>272.2</ele>
        <time>2021-07-26T10:53:08Z</time>
      </trkpt>
      <trkpt lat="42.8863680" lon="-8.5274050">
        <ele>272.2</ele>
        <time>2021-07-26T10:53:10Z</time>
      </trkpt>
      <trkpt lat="42.8862530" lon="-8.5274800">
        <ele>272.2</ele>
        <time>2021-07-26T10:53:14Z</time>
      </trkpt>
      <trkpt lat="42.8862220" lon="-8.5275260">
        <ele>272.2</ele>
        <time>2021-07-26T10:53:16Z</time>
      </trkpt>
      <trkpt lat="42.8862240" lon="-8.5275510">
        <ele>272.2</ele>
        <time>2021-07-26T10:53:18Z</time>
      </trkpt>
      <trkpt lat="42.8862240" lon="-8.5275500">
        <ele>272.2</ele>
        <time>2021-07-26T10:53:19Z</time>
      </trkpt>
      <trkpt lat="42.8862310" lon="-8.5276050">
        <ele>272.2</ele>
        <time>2021-07-26T10:53:25Z</time>
      </trkpt>
      <trkpt lat="42.8862290" lon="-8.5276470">
        <ele>272.2</ele>
        <time>2021-07-26T10:53:26Z</time>
      </trkpt>
      <trkpt lat="42.8862140" lon="-8.5276970">
        <ele>272.2</ele>
        <time>2021-07-26T10:53:28Z</time>
      </trkpt>
      <trkpt lat="42.8862080" lon="-8.5277200">
        <ele>272.2</ele>
        <time>2021-07-26T10:53:29Z</time>
      </trkpt>
      <trkpt lat="42.8861930" lon="-8.5277430">
        <ele>272.2</ele>
        <time>2021-07-26T10:53:30Z</time>
      </trkpt>
      <trkpt lat="42.8861730" lon="-8.5277970">
        <ele>272.2</ele>
        <time>2021-07-26T10:53:32Z</time>
      </trkpt>
      <trkpt lat="42.8861550" lon="-8.5279370">
        <ele>272.2</ele>
        <time>2021-07-26T10:53:36Z</time>
      </trkpt>
      <trkpt lat="42.8861450" lon="-8.5280220">
        <ele>272.2</ele>
        <time>2021-07-26T10:53:38Z</time>
      </trkpt>
      <trkpt lat="42.8861270" lon="-8.5281840">
        <ele>272.2</ele>
        <time>2021-07-26T10:53:42Z</time>
      </trkpt>
      <trkpt lat="42.8861120" lon="-8.5282820">
        <ele>272.2</ele>
        <time>2021-07-26T10:53:44Z</time>
      </trkpt>
      <trkpt lat="42.8860870" lon="-8.5286410">
        <ele>272.2</ele>
        <time>2021-07-26T10:53:50Z</time>
      </trkpt>
      <trkpt lat="42.8860780" lon="-8.5288070">
        <ele>271.8</ele>
        <time>2021-07-26T10:53:53Z</time>
      </trkpt>
      <trkpt lat="42.8860750" lon="-8.5288590">
        <ele>271.4</ele>
        <time>2021-07-26T10:53:54Z</time>
      </trkpt>
      <trkpt lat="42.8860700" lon="-8.5289010">
        <ele>271.0</ele>
        <time>2021-07-26T10:53:55Z</time>
      </trkpt>
      <trkpt lat="42.8860660" lon="-8.5289330">
        <ele>270.4</ele>
        <time>2021-07-26T10:53:56Z</time>
      </trkpt>
      <trkpt lat="42.8860610" lon="-8.5289590">
        <ele>270.0</ele>
        <time>2021-07-26T10:53:57Z</time>
      </trkpt>
      <trkpt lat="42.8860700" lon="-8.5290630">
        <ele>270.0</ele>
        <time>2021-07-26T10:54:00Z</time>
      </trkpt>
      <trkpt lat="42.8860830" lon="-8.5291270">
        <ele>270.0</ele>
        <time>2021-07-26T10:54:02Z</time>
      </trkpt>
      <trkpt lat="42.8860700" lon="-8.5292770">
        <ele>269.6</ele>
        <time>2021-07-26T10:54:06Z</time>
      </trkpt>
      <trkpt lat="42.8860660" lon="-8.5293110">
        <ele>269.2</ele>
        <time>2021-07-26T10:54:07Z</time>
      </trkpt>
      <trkpt lat="42.8860580" lon="-8.5293410">
        <ele>268.8</ele>
        <time>2021-07-26T10:54:08Z</time>
      </trkpt>
      <trkpt lat="42.8860510" lon="-8.5293660">
        <ele>268.4</ele>
        <time>2021-07-26T10:54:09Z</time>
      </trkpt>
      <trkpt lat="42.8860450" lon="-8.5293880">
        <ele>268.0</ele>
        <time>2021-07-26T10:54:10Z</time>
      </trkpt>
      <trkpt lat="42.8860220" lon="-8.5295030">
        <ele>268.0</ele>
        <time>2021-07-26T10:54:13Z</time>
      </trkpt>
      <trkpt lat="42.8860010" lon="-8.5296420">
        <ele>268.0</ele>
        <time>2021-07-26T10:54:16Z</time>
      </trkpt>
      <trkpt lat="42.8859920" lon="-8.5297570">
        <ele>268.0</ele>
        <time>2021-07-26T10:54:19Z</time>
      </trkpt>
      <trkpt lat="42.8859920" lon="-8.5297980">
        <ele>268.0</ele>
        <time>2021-07-26T10:54:20Z</time>
      </trkpt>
      <trkpt lat="42.8859930" lon="-8.5299230">
        <ele>268.0</ele>
        <time>2021-07-26T10:54:24Z</time>
      </trkpt>
      <trkpt lat="42.8859900" lon="-8.5299710">
        <ele>268.0</ele>
        <time>2021-07-26T10:54:26Z</time>
      </trkpt>
      <trkpt lat="42.8859730" lon="-8.5301490">
        <ele>268.0</ele>
        <time>2021-07-26T10:54:31Z</time>
      </trkpt>
      <trkpt lat="42.8859620" lon="-8.5301820">
        <ele>268.0</ele>
        <time>2021-07-26T10:54:32Z</time>
      </trkpt>
      <trkpt lat="42.8858880" lon="-8.5304340">
        <ele>268.0</ele>
        <time>2021-07-26T10:54:39Z</time>
      </trkpt>
      <trkpt lat="42.8858710" lon="-8.5304650">
        <ele>268.0</ele>
        <time>2021-07-26T10:54:40Z</time>
      </trkpt>
      <trkpt lat="42.8857860" lon="-8.5305790">
        <ele>268.0</ele>
        <time>2021-07-26T10:54:45Z</time>
      </trkpt>
      <trkpt lat="42.8857130" lon="-8.5306580">
        <ele>268.0</ele>
        <time>2021-07-26T10:54:49Z</time>
      </trkpt>
      <trkpt lat="42.8856710" lon="-8.5307090">
        <ele>268.0</ele>
        <time>2021-07-26T10:54:53Z</time>
      </trkpt>
      <trkpt lat="42.8856370" lon="-8.5307650">
        <ele>268.0</ele>
        <time>2021-07-26T10:54:58Z</time>
      </trkpt>
      <trkpt lat="42.8856220" lon="-8.5308030">
        <ele>268.0</ele>
        <time>2021-07-26T10:55:01Z</time>
      </trkpt>
      <trkpt lat="42.8856190" lon="-8.5308300">
        <ele>268.0</ele>
        <time>2021-07-26T10:55:03Z</time>
      </trkpt>
      <trkpt lat="42.8855800" lon="-8.5309170">
        <ele>268.0</ele>
        <time>2021-07-26T10:55:10Z</time>
      </trkpt>
      <trkpt lat="42.8855440" lon="-8.5309850">
        <ele>268.0</ele>
        <time>2021-07-26T10:55:15Z</time>
      </trkpt>
      <trkpt lat="42.8855280" lon="-8.5310100">
        <ele>268.0</ele>
        <time>2021-07-26T10:55:18Z</time>
      </trkpt>
      <trkpt lat="42.8855150" lon="-8.5310320">
        <ele>268.0</ele>
        <time>2021-07-26T10:55:19Z</time>
      </trkpt>
      <trkpt lat="42.8854650" lon="-8.5311420">
        <ele>268.0</ele>
        <time>2021-07-26T10:55:23Z</time>
      </trkpt>
      <trkpt lat="42.8854470" lon="-8.5311700">
        <ele>268.0</ele>
        <time>2021-07-26T10:55:24Z</time>
      </trkpt>
      <trkpt lat="42.8853810" lon="-8.5312370">
        <ele>268.0</ele>
        <time>2021-07-26T10:55:27Z</time>
      </trkpt>
      <trkpt lat="42.8853150" lon="-8.5313290">
        <ele>268.0</ele>
        <time>2021-07-26T10:55:30Z</time>
      </trkpt>
      <trkpt lat="42.8851830" lon="-8.5314680">
        <ele>268.0</ele>
        <time>2021-07-26T10:55:35Z</time>
      </trkpt>
      <trkpt lat="42.8851660" lon="-8.5315020">
        <ele>267.6</ele>
        <time>2021-07-26T10:55:36Z</time>
      </trkpt>
      <trkpt lat="42.8851460" lon="-8.5315410">
        <ele>267.2</ele>
        <time>2021-07-26T10:55:37Z</time>
      </trkpt>
      <trkpt lat="42.8851260" lon="-8.5315760">
        <ele>266.8</ele>
        <time>2021-07-26T10:55:38Z</time>
      </trkpt>
      <trkpt lat="42.8851060" lon="-8.5316100">
        <ele>266.4</ele>
        <time>2021-07-26T10:55:39Z</time>
      </trkpt>
      <trkpt lat="42.8850910" lon="-8.5316420">
        <ele>266.0</ele>
        <time>2021-07-26T10:55:40Z</time>
      </trkpt>
      <trkpt lat="42.8850570" lon="-8.5317270">
        <ele>266.0</ele>
        <time>2021-07-26T10:55:44Z</time>
      </trkpt>
      <trkpt lat="42.8850570" lon="-8.5317360">
        <ele>266.0</ele>
        <time>2021-07-26T10:55:46Z</time>
      </trkpt>
      <trkpt lat="42.8850570" lon="-8.5317370">
        <ele>266.0</ele>
        <time>2021-07-26T10:56:10Z</time>
      </trkpt>
      <trkpt lat="42.8850520" lon="-8.5317590">
        <ele>266.0</ele>
        <time>2021-07-26T10:56:11Z</time>
      </trkpt>
      <trkpt lat="42.8850530" lon="-8.5318390">
        <ele>266.0</ele>
        <time>2021-07-26T10:56:14Z</time>
      </trkpt>
      <trkpt lat="42.8850710" lon="-8.5319430">
        <ele>266.0</ele>
        <time>2021-07-26T10:56:17Z</time>
      </trkpt>
      <trkpt lat="42.8850890" lon="-8.5320800">
        <ele>266.0</ele>
        <time>2021-07-26T10:56:20Z</time>
      </trkpt>
      <trkpt lat="42.8851010" lon="-8.5321800">
        <ele>266.0</ele>
        <time>2021-07-26T10:56:23Z</time>
      </trkpt>
      <trkpt lat="42.8851070" lon="-8.5322040">
        <ele>265.6</ele>
        <time>2021-07-26T10:56:24Z</time>
      </trkpt>
      <trkpt lat="42.8851110" lon="-8.5322250">
        <ele>265.2</ele>
        <time>2021-07-26T10:56:25Z</time>
      </trkpt>
      <trkpt lat="42.8851140" lon="-8.5322390">
        <ele>264.6</ele>
        <time>2021-07-26T10:56:26Z</time>
      </trkpt>
      <trkpt lat="42.8851170" lon="-8.5322460">
        <ele>264.2</ele>
        <time>2021-07-26T10:56:27Z</time>
      </trkpt>
      <trkpt lat="42.8851230" lon="-8.5322660">
        <ele>263.8</ele>
        <time>2021-07-26T10:56:41Z</time>
      </trkpt>
      <trkpt lat="42.8851320" lon="-8.5322870">
        <ele>263.8</ele>
        <time>2021-07-26T10:56:42Z</time>
      </trkpt>
      <trkpt lat="42.8851860" lon="-8.5323880">
        <ele>263.8</ele>
        <time>2021-07-26T10:56:46Z</time>
      </trkpt>
      <trkpt lat="42.8852000" lon="-8.5324130">
        <ele>263.8</ele>
        <time>2021-07-26T10:56:47Z</time>
      </trkpt>
      <trkpt lat="42.8852090" lon="-8.5324380">
        <ele>263.8</ele>
        <time>2021-07-26T10:56:48Z</time>
      </trkpt>
      <trkpt lat="42.8852190" lon="-8.5325360">
        <ele>263.8</ele>
        <time>2021-07-26T10:56:51Z</time>
      </trkpt>
      <trkpt lat="42.8852190" lon="-8.5325680">
        <ele>263.8</ele>
        <time>2021-07-26T10:56:52Z</time>
      </trkpt>
      <trkpt lat="42.8852180" lon="-8.5325980">
        <ele>263.4</ele>
        <time>2021-07-26T10:56:53Z</time>
      </trkpt>
      <trkpt lat="42.8852170" lon="-8.5326230">
        <ele>263.0</ele>
        <time>2021-07-26T10:56:54Z</time>
      </trkpt>
      <trkpt lat="42.8852090" lon="-8.5326430">
        <ele>262.6</ele>
        <time>2021-07-26T10:56:55Z</time>
      </trkpt>
      <trkpt lat="42.8851980" lon="-8.5326510">
        <ele>261.8</ele>
        <time>2021-07-26T10:56:56Z</time>
      </trkpt>
      <trkpt lat="42.8851830" lon="-8.5326720">
        <ele>261.8</ele>
        <time>2021-07-26T10:56:59Z</time>
      </trkpt>
      <trkpt lat="42.8851980" lon="-8.5327140">
        <ele>261.8</ele>
        <time>2021-07-26T10:58:46Z</time>
      </trkpt>
      <trkpt lat="42.8851980" lon="-8.5327450">
        <ele>261.8</ele>
        <time>2021-07-26T10:58:47Z</time>
      </trkpt>
      <trkpt lat="42.8852020" lon="-8.5328110">
        <ele>261.8</ele>
        <time>2021-07-26T10:58:49Z</time>
      </trkpt>
      <trkpt lat="42.8851920" lon="-8.5328700">
        <ele>261.8</ele>
        <time>2021-07-26T10:58:51Z</time>
      </trkpt>
      <trkpt lat="42.8851790" lon="-8.5329290">
        <ele>261.8</ele>
        <time>2021-07-26T10:58:53Z</time>
      </trkpt>
      <trkpt lat="42.8850810" lon="-8.5330450">
        <ele>261.8</ele>
        <time>2021-07-26T10:58:58Z</time>
      </trkpt>
      <trkpt lat="42.8850430" lon="-8.5330880">
        <ele>261.8</ele>
        <time>2021-07-26T10:59:00Z</time>
      </trkpt>
      <trkpt lat="42.8849440" lon="-8.5332310">
        <ele>261.8</ele>
        <time>2021-07-26T10:59:08Z</time>
      </trkpt>
      <trkpt lat="42.8849330" lon="-8.5332650">
        <ele>261.8</ele>
        <time>2021-07-26T10:59:10Z</time>
      </trkpt>
      <trkpt lat="42.8849160" lon="-8.5332940">
        <ele>261.8</ele>
        <time>2021-07-26T10:59:12Z</time>
      </trkpt>
      <trkpt lat="42.8849090" lon="-8.5333490">
        <ele>261.8</ele>
        <time>2021-07-26T10:59:14Z</time>
      </trkpt>
      <trkpt lat="42.8849060" lon="-8.5334130">
        <ele>261.8</ele>
        <time>2021-07-26T10:59:18Z</time>
      </trkpt>
      <trkpt lat="42.8849010" lon="-8.5334970">
        <ele>261.8</ele>
        <time>2021-07-26T11:00:19Z</time>
      </trkpt>
      <trkpt lat="42.8848980" lon="-8.5335420">
        <ele>261.8</ele>
        <time>2021-07-26T11:00:21Z</time>
      </trkpt>
      <trkpt lat="42.8848800" lon="-8.5335830">
        <ele>261.8</ele>
        <time>2021-07-26T11:00:24Z</time>
      </trkpt>
      <trkpt lat="42.8848730" lon="-8.5335950">
        <ele>261.8</ele>
        <time>2021-07-26T11:00:25Z</time>
      </trkpt>
      <trkpt lat="42.8848670" lon="-8.5336030">
        <ele>261.8</ele>
        <time>2021-07-26T11:00:26Z</time>
      </trkpt>
      <trkpt lat="42.8848140" lon="-8.5336410">
        <ele>261.8</ele>
        <time>2021-07-26T11:00:33Z</time>
      </trkpt>
      <trkpt lat="42.8847830" lon="-8.5336780">
        <ele>261.8</ele>
        <time>2021-07-26T11:00:35Z</time>
      </trkpt>
      <trkpt lat="42.8847710" lon="-8.5337290">
        <ele>261.8</ele>
        <time>2021-07-26T11:00:37Z</time>
      </trkpt>
      <trkpt lat="42.8847660" lon="-8.5337610">
        <ele>261.8</ele>
        <time>2021-07-26T11:00:38Z</time>
      </trkpt>
      <trkpt lat="42.8847700" lon="-8.5338540">
        <ele>261.8</ele>
        <time>2021-07-26T11:00:41Z</time>
      </trkpt>
      <trkpt lat="42.8847900" lon="-8.5339090">
        <ele>261.8</ele>
        <time>2021-07-26T11:00:43Z</time>
      </trkpt>
      <trkpt lat="42.8847980" lon="-8.5339310">
        <ele>261.8</ele>
        <time>2021-07-26T11:00:44Z</time>
      </trkpt>
      <trkpt lat="42.8847980" lon="-8.5339570">
        <ele>262.2</ele>
        <time>2021-07-26T11:00:46Z</time>
      </trkpt>
      <trkpt lat="42.8847910" lon="-8.5339700">
        <ele>262.6</ele>
        <time>2021-07-26T11:00:47Z</time>
      </trkpt>
      <trkpt lat="42.8847840" lon="-8.5339820">
        <ele>263.2</ele>
        <time>2021-07-26T11:00:48Z</time>
      </trkpt>
      <trkpt lat="42.8847740" lon="-8.5339970">
        <ele>263.6</ele>
        <time>2021-07-26T11:00:49Z</time>
      </trkpt>
      <trkpt lat="42.8847620" lon="-8.5340150">
        <ele>264.0</ele>
        <time>2021-07-26T11:00:50Z</time>
      </trkpt>
      <trkpt lat="42.8847390" lon="-8.5340440">
        <ele>264.4</ele>
        <time>2021-07-26T11:00:52Z</time>
      </trkpt>
      <trkpt lat="42.8847270" lon="-8.5340590">
        <ele>264.8</ele>
        <time>2021-07-26T11:00:53Z</time>
      </trkpt>
      <trkpt lat="42.8847170" lon="-8.5340730">
        <ele>265.2</ele>
        <time>2021-07-26T11:00:54Z</time>
      </trkpt>
      <trkpt lat="42.8847070" lon="-8.5340890">
        <ele>265.6</ele>
        <time>2021-07-26T11:00:55Z</time>
      </trkpt>
      <trkpt lat="42.8846960" lon="-8.5341060">
        <ele>266.0</ele>
        <time>2021-07-26T11:00:56Z</time>
      </trkpt>
      <trkpt lat="42.8846700" lon="-8.5341590">
        <ele>266.0</ele>
        <time>2021-07-26T11:00:59Z</time>
      </trkpt>
      <trkpt lat="42.8846460" lon="-8.5341830">
        <ele>266.4</ele>
        <time>2021-07-26T11:01:01Z</time>
      </trkpt>
      <trkpt lat="42.8846340" lon="-8.5341930">
        <ele>266.8</ele>
        <time>2021-07-26T11:01:02Z</time>
      </trkpt>
      <trkpt lat="42.8846220" lon="-8.5342010">
        <ele>267.6</ele>
        <time>2021-07-26T11:01:03Z</time>
      </trkpt>
      <trkpt lat="42.8846130" lon="-8.5342100">
        <ele>268.0</ele>
        <time>2021-07-26T11:01:04Z</time>
      </trkpt>
      <trkpt lat="42.8845770" lon="-8.5342890">
        <ele>268.0</ele>
        <time>2021-07-26T11:01:08Z</time>
      </trkpt>
      <trkpt lat="42.8845680" lon="-8.5343110">
        <ele>268.0</ele>
        <time>2021-07-26T11:01:09Z</time>
      </trkpt>
      <trkpt lat="42.8845560" lon="-8.5343880">
        <ele>268.0</ele>
        <time>2021-07-26T11:01:12Z</time>
      </trkpt>
      <trkpt lat="42.8845350" lon="-8.5344630">
        <ele>268.0</ele>
        <time>2021-07-26T11:01:16Z</time>
      </trkpt>
      <trkpt lat="42.8844840" lon="-8.5345040">
        <ele>268.6</ele>
        <time>2021-07-26T11:01:21Z</time>
      </trkpt>
      <trkpt lat="42.8844710" lon="-8.5345090">
        <ele>269.0</ele>
        <time>2021-07-26T11:01:22Z</time>
      </trkpt>
      <trkpt lat="42.8844600" lon="-8.5345090">
        <ele>269.4</ele>
        <time>2021-07-26T11:01:23Z</time>
      </trkpt>
      <trkpt lat="42.8844460" lon="-8.5345240">
        <ele>269.8</ele>
        <time>2021-07-26T11:01:24Z</time>
      </trkpt>
      <trkpt lat="42.8844360" lon="-8.5345370">
        <ele>270.2</ele>
        <time>2021-07-26T11:01:25Z</time>
      </trkpt>
      <trkpt lat="42.8844170" lon="-8.5345570">
        <ele>270.2</ele>
        <time>2021-07-26T11:01:28Z</time>
      </trkpt>
      <trkpt lat="42.8843370" lon="-8.5345700">
        <ele>270.6</ele>
        <time>2021-07-26T11:01:30Z</time>
      </trkpt>
      <trkpt lat="42.8843130" lon="-8.5345630">
        <ele>271.2</ele>
        <time>2021-07-26T11:01:31Z</time>
      </trkpt>
      <trkpt lat="42.8842920" lon="-8.5345700">
        <ele>271.6</ele>
        <time>2021-07-26T11:01:32Z</time>
      </trkpt>
      <trkpt lat="42.8842680" lon="-8.5345750">
        <ele>272.0</ele>
        <time>2021-07-26T11:01:33Z</time>
      </trkpt>
      <trkpt lat="42.8842460" lon="-8.5345780">
        <ele>272.4</ele>
        <time>2021-07-26T11:01:34Z</time>
      </trkpt>
      <trkpt lat="42.8840930" lon="-8.5345830">
        <ele>272.4</ele>
        <time>2021-07-26T11:01:40Z</time>
      </trkpt>
      <trkpt lat="42.8838440" lon="-8.5346350">
        <ele>272.4</ele>
        <time>2021-07-26T11:01:49Z</time>
      </trkpt>
      <trkpt lat="42.8837570" lon="-8.5346720">
        <ele>272.4</ele>
        <time>2021-07-26T11:01:52Z</time>
      </trkpt>
      <trkpt lat="42.8836700" lon="-8.5347010">
        <ele>272.4</ele>
        <time>2021-07-26T11:01:55Z</time>
      </trkpt>
      <trkpt lat="42.8834820" lon="-8.5347520">
        <ele>272.4</ele>
        <time>2021-07-26T11:02:01Z</time>
      </trkpt>
      <trkpt lat="42.8833990" lon="-8.5347810">
        <ele>272.4</ele>
        <time>2021-07-26T11:02:03Z</time>
      </trkpt>
      <trkpt lat="42.8832780" lon="-8.5348220">
        <ele>272.4</ele>
        <time>2021-07-26T11:02:08Z</time>
      </trkpt>
      <trkpt lat="42.8831880" lon="-8.5348760">
        <ele>272.8</ele>
        <time>2021-07-26T11:02:12Z</time>
      </trkpt>
      <trkpt lat="42.8831690" lon="-8.5348850">
        <ele>273.2</ele>
        <time>2021-07-26T11:02:13Z</time>
      </trkpt>
      <trkpt lat="42.8831530" lon="-8.5348920">
        <ele>273.6</ele>
        <time>2021-07-26T11:02:14Z</time>
      </trkpt>
      <trkpt lat="42.8831320" lon="-8.5349000">
        <ele>274.0</ele>
        <time>2021-07-26T11:02:15Z</time>
      </trkpt>
      <trkpt lat="42.8831070" lon="-8.5349030">
        <ele>274.6</ele>
        <time>2021-07-26T11:02:16Z</time>
      </trkpt>
      <trkpt lat="42.8830010" lon="-8.5349590">
        <ele>274.6</ele>
        <time>2021-07-26T11:02:20Z</time>
      </trkpt>
      <trkpt lat="42.8828570" lon="-8.5350820">
        <ele>274.6</ele>
        <time>2021-07-26T11:02:27Z</time>
      </trkpt>
      <trkpt lat="42.8826320" lon="-8.5351920">
        <ele>274.6</ele>
        <time>2021-07-26T11:02:35Z</time>
      </trkpt>
      <trkpt lat="42.8826190" lon="-8.5352030">
        <ele>274.6</ele>
        <time>2021-07-26T11:02:37Z</time>
      </trkpt>
      <trkpt lat="42.8826110" lon="-8.5352280">
        <ele>276.2</ele>
        <time>2021-07-26T11:02:46Z</time>
      </trkpt>
      <trkpt lat="42.8826040" lon="-8.5352500">
        <ele>276.6</ele>
        <time>2021-07-26T11:02:47Z</time>
      </trkpt>
      <trkpt lat="42.8825940" lon="-8.5352840">
        <ele>276.6</ele>
        <time>2021-07-26T11:02:49Z</time>
      </trkpt>
      <trkpt lat="42.8825910" lon="-8.5353110">
        <ele>276.6</ele>
        <time>2021-07-26T11:02:51Z</time>
      </trkpt>
      <trkpt lat="42.8825980" lon="-8.5353480">
        <ele>276.6</ele>
        <time>2021-07-26T11:02:53Z</time>
      </trkpt>
      <trkpt lat="42.8825880" lon="-8.5353810">
        <ele>276.6</ele>
        <time>2021-07-26T11:02:55Z</time>
      </trkpt>
      <trkpt lat="42.8825680" lon="-8.5354700">
        <ele>276.6</ele>
        <time>2021-07-26T11:02:58Z</time>
      </trkpt>
      <trkpt lat="42.8825390" lon="-8.5356410">
        <ele>276.6</ele>
        <time>2021-07-26T11:03:03Z</time>
      </trkpt>
      <trkpt lat="42.8825040" lon="-8.5356980">
        <ele>276.6</ele>
        <time>2021-07-26T11:03:05Z</time>
      </trkpt>
      <trkpt lat="42.8823680" lon="-8.5359140">
        <ele>276.6</ele>
        <time>2021-07-26T11:03:12Z</time>
      </trkpt>
      <trkpt lat="42.8823120" lon="-8.5360290">
        <ele>276.6</ele>
        <time>2021-07-26T11:03:15Z</time>
      </trkpt>
      <trkpt lat="42.8822600" lon="-8.5361300">
        <ele>276.6</ele>
        <time>2021-07-26T11:03:18Z</time>
      </trkpt>
      <trkpt lat="42.8822320" lon="-8.5361850">
        <ele>276.6</ele>
        <time>2021-07-26T11:03:20Z</time>
      </trkpt>
      <trkpt lat="42.8822110" lon="-8.5362020">
        <ele>276.6</ele>
        <time>2021-07-26T11:03:21Z</time>
      </trkpt>
      <trkpt lat="42.8821580" lon="-8.5362320">
        <ele>276.6</ele>
        <time>2021-07-26T11:03:24Z</time>
      </trkpt>
      <trkpt lat="42.8820900" lon="-8.5362330">
        <ele>276.2</ele>
        <time>2021-07-26T11:03:27Z</time>
      </trkpt>
      <trkpt lat="42.8820720" lon="-8.5362350">
        <ele>275.8</ele>
        <time>2021-07-26T11:03:28Z</time>
      </trkpt>
      <trkpt lat="42.8820510" lon="-8.5362350">
        <ele>275.4</ele>
        <time>2021-07-26T11:03:29Z</time>
      </trkpt>
      <trkpt lat="42.8820300" lon="-8.5362350">
        <ele>275.0</ele>
        <time>2021-07-26T11:03:30Z</time>
      </trkpt>
      <trkpt lat="42.8820090" lon="-8.5362330">
        <ele>274.6</ele>
        <time>2021-07-26T11:03:31Z</time>
      </trkpt>
      <trkpt lat="42.8819400" lon="-8.5362210">
        <ele>274.6</ele>
        <time>2021-07-26T11:03:35Z</time>
      </trkpt>
      <trkpt lat="42.8819140" lon="-8.5362130">
        <ele>274.6</ele>
        <time>2021-07-26T11:03:40Z</time>
      </trkpt>
      <trkpt lat="42.8818930" lon="-8.5362150">
        <ele>272.8</ele>
        <time>2021-07-26T11:03:46Z</time>
      </trkpt>
      <trkpt lat="42.8818850" lon="-8.5362160">
        <ele>272.4</ele>
        <time>2021-07-26T11:03:47Z</time>
      </trkpt>
      <trkpt lat="42.8818600" lon="-8.5362290">
        <ele>272.4</ele>
        <time>2021-07-26T11:03:50Z</time>
      </trkpt>
      <trkpt lat="42.8818220" lon="-8.5362370">
        <ele>272.0</ele>
        <time>2021-07-26T11:03:55Z</time>
      </trkpt>
      <trkpt lat="42.8818100" lon="-8.5362320">
        <ele>271.2</ele>
        <time>2021-07-26T11:03:56Z</time>
      </trkpt>
      <trkpt lat="42.8817960" lon="-8.5362230">
        <ele>270.6</ele>
        <time>2021-07-26T11:03:57Z</time>
      </trkpt>
      <trkpt lat="42.8817860" lon="-8.5362210">
        <ele>270.2</ele>
        <time>2021-07-26T11:03:58Z</time>
      </trkpt>
      <trkpt lat="42.8817330" lon="-8.5362260">
        <ele>270.2</ele>
        <time>2021-07-26T11:04:04Z</time>
      </trkpt>
      <trkpt lat="42.8817170" lon="-8.5362240">
        <ele>269.8</ele>
        <time>2021-07-26T11:04:06Z</time>
      </trkpt>
      <trkpt lat="42.8817090" lon="-8.5362190">
        <ele>269.4</ele>
        <time>2021-07-26T11:04:07Z</time>
      </trkpt>
      <trkpt lat="42.8817060" lon="-8.5362170">
        <ele>269.0</ele>
        <time>2021-07-26T11:04:08Z</time>
      </trkpt>
      <trkpt lat="42.8817020" lon="-8.5362110">
        <ele>268.4</ele>
        <time>2021-07-26T11:04:09Z</time>
      </trkpt>
      <trkpt lat="42.8816510" lon="-8.5362450">
        <ele>268.0</ele>
        <time>2021-07-26T11:04:32Z</time>
      </trkpt>
      <trkpt lat="42.8816430" lon="-8.5362770">
        <ele>268.0</ele>
        <time>2021-07-26T11:04:33Z</time>
      </trkpt>
      <trkpt lat="42.8816240" lon="-8.5363740">
        <ele>268.0</ele>
        <time>2021-07-26T11:04:36Z</time>
      </trkpt>
      <trkpt lat="42.8816130" lon="-8.5364580">
        <ele>267.6</ele>
        <time>2021-07-26T11:04:38Z</time>
      </trkpt>
      <trkpt lat="42.8816050" lon="-8.5365070">
        <ele>267.2</ele>
        <time>2021-07-26T11:04:39Z</time>
      </trkpt>
      <trkpt lat="42.8815960" lon="-8.5365560">
        <ele>266.8</ele>
        <time>2021-07-26T11:04:40Z</time>
      </trkpt>
      <trkpt lat="42.8815900" lon="-8.5365970">
        <ele>266.4</ele>
        <time>2021-07-26T11:04:41Z</time>
      </trkpt>
      <trkpt lat="42.8815840" lon="-8.5366400">
        <ele>266.0</ele>
        <time>2021-07-26T11:04:42Z</time>
      </trkpt>
      <trkpt lat="42.8815640" lon="-8.5367340">
        <ele>266.0</ele>
        <time>2021-07-26T11:04:44Z</time>
      </trkpt>
      <trkpt lat="42.8815300" lon="-8.5368790">
        <ele>266.0</ele>
        <time>2021-07-26T11:04:47Z</time>
      </trkpt>
      <trkpt lat="42.8815160" lon="-8.5369740">
        <ele>266.0</ele>
        <time>2021-07-26T11:04:49Z</time>
      </trkpt>
      <trkpt lat="42.8815040" lon="-8.5370510">
        <ele>266.0</ele>
        <time>2021-07-26T11:04:51Z</time>
      </trkpt>
      <trkpt lat="42.8815070" lon="-8.5370820">
        <ele>265.6</ele>
        <time>2021-07-26T11:04:52Z</time>
      </trkpt>
      <trkpt lat="42.8815050" lon="-8.5371130">
        <ele>265.2</ele>
        <time>2021-07-26T11:04:53Z</time>
      </trkpt>
      <trkpt lat="42.8815080" lon="-8.5371420">
        <ele>264.8</ele>
        <time>2021-07-26T11:04:54Z</time>
      </trkpt>
      <trkpt lat="42.8815090" lon="-8.5371750">
        <ele>264.4</ele>
        <time>2021-07-26T11:04:55Z</time>
      </trkpt>
      <trkpt lat="42.8815080" lon="-8.5372080">
        <ele>264.0</ele>
        <time>2021-07-26T11:04:56Z</time>
      </trkpt>
      <trkpt lat="42.8814950" lon="-8.5373340">
        <ele>264.0</ele>
        <time>2021-07-26T11:05:00Z</time>
      </trkpt>
      <trkpt lat="42.8814910" lon="-8.5374020">
        <ele>264.0</ele>
        <time>2021-07-26T11:05:02Z</time>
      </trkpt>
      <trkpt lat="42.8814670" lon="-8.5375990">
        <ele>264.0</ele>
        <time>2021-07-26T11:05:07Z</time>
      </trkpt>
      <trkpt lat="42.8814580" lon="-8.5376830">
        <ele>263.2</ele>
        <time>2021-07-26T11:05:09Z</time>
      </trkpt>
      <trkpt lat="42.8814540" lon="-8.5377280">
        <ele>262.8</ele>
        <time>2021-07-26T11:05:10Z</time>
      </trkpt>
      <trkpt lat="42.8814480" lon="-8.5377740">
        <ele>262.4</ele>
        <time>2021-07-26T11:05:11Z</time>
      </trkpt>
      <trkpt lat="42.8814340" lon="-8.5378200">
        <ele>262.0</ele>
        <time>2021-07-26T11:05:12Z</time>
      </trkpt>
      <trkpt lat="42.8813710" lon="-8.5380060">
        <ele>262.0</ele>
        <time>2021-07-26T11:05:16Z</time>
      </trkpt>
      <trkpt lat="42.8813790" lon="-8.5382400">
        <ele>261.6</ele>
        <time>2021-07-26T11:05:22Z</time>
      </trkpt>
      <trkpt lat="42.8813850" lon="-8.5382840">
        <ele>261.0</ele>
        <time>2021-07-26T11:05:23Z</time>
      </trkpt>
      <trkpt lat="42.8813910" lon="-8.5383270">
        <ele>260.6</ele>
        <time>2021-07-26T11:05:24Z</time>
      </trkpt>
      <trkpt lat="42.8813910" lon="-8.5383760">
        <ele>260.2</ele>
        <time>2021-07-26T11:05:25Z</time>
      </trkpt>
      <trkpt lat="42.8813950" lon="-8.5384270">
        <ele>259.8</ele>
        <time>2021-07-26T11:05:26Z</time>
      </trkpt>
      <trkpt lat="42.8814120" lon="-8.5385110">
        <ele>259.8</ele>
        <time>2021-07-26T11:05:28Z</time>
      </trkpt>
      <trkpt lat="42.8814550" lon="-8.5387380">
        <ele>259.4</ele>
        <time>2021-07-26T11:05:33Z</time>
      </trkpt>
      <trkpt lat="42.8814740" lon="-8.5387840">
        <ele>258.6</ele>
        <time>2021-07-26T11:05:34Z</time>
      </trkpt>
      <trkpt lat="42.8814930" lon="-8.5388270">
        <ele>258.0</ele>
        <time>2021-07-26T11:05:35Z</time>
      </trkpt>
      <trkpt lat="42.8815130" lon="-8.5388700">
        <ele>257.6</ele>
        <time>2021-07-26T11:05:36Z</time>
      </trkpt>
      <trkpt lat="42.8816400" lon="-8.5391490">
        <ele>257.2</ele>
        <time>2021-07-26T11:05:42Z</time>
      </trkpt>
      <trkpt lat="42.8816620" lon="-8.5391980">
        <ele>256.8</ele>
        <time>2021-07-26T11:05:43Z</time>
      </trkpt>
      <trkpt lat="42.8816890" lon="-8.5392460">
        <ele>256.4</ele>
        <time>2021-07-26T11:05:44Z</time>
      </trkpt>
      <trkpt lat="42.8817080" lon="-8.5392920">
        <ele>256.0</ele>
        <time>2021-07-26T11:05:45Z</time>
      </trkpt>
      <trkpt lat="42.8817260" lon="-8.5393380">
        <ele>255.6</ele>
        <time>2021-07-26T11:05:46Z</time>
      </trkpt>
      <trkpt lat="42.8817990" lon="-8.5394660">
        <ele>255.6</ele>
        <time>2021-07-26T11:05:49Z</time>
      </trkpt>
      <trkpt lat="42.8818500" lon="-8.5395370">
        <ele>255.6</ele>
        <time>2021-07-26T11:05:51Z</time>
      </trkpt>
      <trkpt lat="42.8819360" lon="-8.5396960">
        <ele>255.6</ele>
        <time>2021-07-26T11:05:55Z</time>
      </trkpt>
      <trkpt lat="42.8819610" lon="-8.5397580">
        <ele>255.6</ele>
        <time>2021-07-26T11:05:57Z</time>
      </trkpt>
      <trkpt lat="42.8819840" lon="-8.5398090">
        <ele>255.6</ele>
        <time>2021-07-26T11:05:59Z</time>
      </trkpt>
      <trkpt lat="42.8820210" lon="-8.5398940">
        <ele>255.6</ele>
        <time>2021-07-26T11:06:04Z</time>
      </trkpt>
      <trkpt lat="42.8820730" lon="-8.5399330">
        <ele>255.6</ele>
        <time>2021-07-26T11:06:07Z</time>
      </trkpt>
      <trkpt lat="42.8820800" lon="-8.5399440">
        <ele>255.6</ele>
        <time>2021-07-26T11:06:09Z</time>
      </trkpt>
      <trkpt lat="42.8820830" lon="-8.5399480">
        <ele>255.6</ele>
        <time>2021-07-26T11:06:28Z</time>
      </trkpt>
      <trkpt lat="42.8821100" lon="-8.5400010">
        <ele>255.6</ele>
        <time>2021-07-26T11:06:31Z</time>
      </trkpt>
      <trkpt lat="42.8821160" lon="-8.5400260">
        <ele>255.6</ele>
        <time>2021-07-26T11:06:34Z</time>
      </trkpt>
      <trkpt lat="42.8821340" lon="-8.5400480">
        <ele>255.6</ele>
        <time>2021-07-26T11:06:47Z</time>
      </trkpt>
      <trkpt lat="42.8821470" lon="-8.5400580">
        <ele>255.6</ele>
        <time>2021-07-26T11:06:48Z</time>
      </trkpt>
      <trkpt lat="42.8821840" lon="-8.5400870">
        <ele>255.6</ele>
        <time>2021-07-26T11:06:52Z</time>
      </trkpt>
      <trkpt lat="42.8821870" lon="-8.5400840">
        <ele>255.6</ele>
        <time>2021-07-26T11:06:53Z</time>
      </trkpt>
      <trkpt lat="42.8821650" lon="-8.5400460">
        <ele>255.6</ele>
        <time>2021-07-26T11:08:48Z</time>
      </trkpt>
      <trkpt lat="42.8821510" lon="-8.5400510">
        <ele>255.6</ele>
        <time>2021-07-26T11:08:49Z</time>
      </trkpt>
      <trkpt lat="42.8821460" lon="-8.5400700">
        <ele>255.6</ele>
        <time>2021-07-26T11:08:50Z</time>
      </trkpt>
      <trkpt lat="42.8821410" lon="-8.5400830">
        <ele>255.6</ele>
        <time>2021-07-26T11:08:51Z</time>
      </trkpt>
      <trkpt lat="42.8820360" lon="-8.5401890">
        <ele>255.6</ele>
        <time>2021-07-26T11:08:55Z</time>
      </trkpt>
      <trkpt lat="42.8819420" lon="-8.5402160">
        <ele>255.2</ele>
        <time>2021-07-26T11:08:59Z</time>
      </trkpt>
      <trkpt lat="42.8819240" lon="-8.5402300">
        <ele>254.8</ele>
        <time>2021-07-26T11:09:00Z</time>
      </trkpt>
      <trkpt lat="42.8819140" lon="-8.5402420">
        <ele>254.4</ele>
        <time>2021-07-26T11:09:01Z</time>
      </trkpt>
      <trkpt lat="42.8819090" lon="-8.5402540">
        <ele>254.0</ele>
        <time>2021-07-26T11:09:02Z</time>
      </trkpt>
      <trkpt lat="42.8819090" lon="-8.5402660">
        <ele>253.6</ele>
        <time>2021-07-26T11:09:03Z</time>
      </trkpt>
      <trkpt lat="42.8819070" lon="-8.5402810">
        <ele>253.6</ele>
        <time>2021-07-26T11:09:05Z</time>
      </trkpt>
      <trkpt lat="42.8819190" lon="-8.5403820">
        <ele>253.6</ele>
        <time>2021-07-26T11:09:10Z</time>
      </trkpt>
      <trkpt lat="42.8819310" lon="-8.5404470">
        <ele>253.6</ele>
        <time>2021-07-26T11:09:13Z</time>
      </trkpt>
      <trkpt lat="42.8819380" lon="-8.5404780">
        <ele>253.6</ele>
        <time>2021-07-26T11:09:15Z</time>
      </trkpt>
      <trkpt lat="42.8819530" lon="-8.5405180">
        <ele>253.6</ele>
        <time>2021-07-26T11:09:18Z</time>
      </trkpt>
      <trkpt lat="42.8819890" lon="-8.5406560">
        <ele>253.6</ele>
        <time>2021-07-26T11:09:26Z</time>
      </trkpt>
      <trkpt lat="42.8819980" lon="-8.5406570">
        <ele>253.6</ele>
        <time>2021-07-26T11:09:28Z</time>
      </trkpt>
      <trkpt lat="42.8820160" lon="-8.5406990">
        <ele>253.6</ele>
        <time>2021-07-26T11:11:01Z</time>
      </trkpt>
      <trkpt lat="42.8820120" lon="-8.5407250">
        <ele>253.6</ele>
        <time>2021-07-26T11:11:02Z</time>
      </trkpt>
      <trkpt lat="42.8820000" lon="-8.5407530">
        <ele>253.6</ele>
        <time>2021-07-26T11:11:03Z</time>
      </trkpt>
      <trkpt lat="42.8819970" lon="-8.5408060">
        <ele>253.6</ele>
        <time>2021-07-26T11:11:05Z</time>
      </trkpt>
      <trkpt lat="42.8819970" lon="-8.5408370">
        <ele>253.6</ele>
        <time>2021-07-26T11:11:06Z</time>
      </trkpt>
      <trkpt lat="42.8819880" lon="-8.5409080">
        <ele>253.6</ele>
        <time>2021-07-26T11:11:08Z</time>
      </trkpt>
      <trkpt lat="42.8819810" lon="-8.5409700">
        <ele>253.6</ele>
        <time>2021-07-26T11:11:10Z</time>
      </trkpt>
      <trkpt lat="42.8819670" lon="-8.5409900">
        <ele>254.0</ele>
        <time>2021-07-26T11:11:11Z</time>
      </trkpt>
      <trkpt lat="42.8819450" lon="-8.5410080">
        <ele>254.4</ele>
        <time>2021-07-26T11:11:12Z</time>
      </trkpt>
      <trkpt lat="42.8819420" lon="-8.5410310">
        <ele>254.8</ele>
        <time>2021-07-26T11:11:13Z</time>
      </trkpt>
      <trkpt lat="42.8819400" lon="-8.5410560">
        <ele>255.2</ele>
        <time>2021-07-26T11:11:14Z</time>
      </trkpt>
      <trkpt lat="42.8819400" lon="-8.5410830">
        <ele>255.6</ele>
        <time>2021-07-26T11:11:15Z</time>
      </trkpt>
      <trkpt lat="42.8819340" lon="-8.5411500">
        <ele>255.6</ele>
        <time>2021-07-26T11:11:19Z</time>
      </trkpt>
      <trkpt lat="42.8818690" lon="-8.5412480">
        <ele>255.6</ele>
        <time>2021-07-26T11:11:22Z</time>
      </trkpt>
      <trkpt lat="42.8818400" lon="-8.5413250">
        <ele>255.6</ele>
        <time>2021-07-26T11:11:25Z</time>
      </trkpt>
      <trkpt lat="42.8818320" lon="-8.5413780">
        <ele>256.0</ele>
        <time>2021-07-26T11:11:27Z</time>
      </trkpt>
      <trkpt lat="42.8818290" lon="-8.5414070">
        <ele>256.4</ele>
        <time>2021-07-26T11:11:28Z</time>
      </trkpt>
      <trkpt lat="42.8818250" lon="-8.5414360">
        <ele>257.0</ele>
        <time>2021-07-26T11:11:29Z</time>
      </trkpt>
      <trkpt lat="42.8818200" lon="-8.5414610">
        <ele>257.4</ele>
        <time>2021-07-26T11:11:30Z</time>
      </trkpt>
      <trkpt lat="42.8818170" lon="-8.5414850">
        <ele>257.8</ele>
        <time>2021-07-26T11:11:31Z</time>
      </trkpt>
      <trkpt lat="42.8817950" lon="-8.5415740">
        <ele>257.8</ele>
        <time>2021-07-26T11:11:34Z</time>
      </trkpt>
      <trkpt lat="42.8818130" lon="-8.5416700">
        <ele>257.8</ele>
        <time>2021-07-26T11:11:37Z</time>
      </trkpt>
      <trkpt lat="42.8816830" lon="-8.5417390">
        <ele>257.8</ele>
        <time>2021-07-26T11:11:43Z</time>
      </trkpt>
      <trkpt lat="42.8816680" lon="-8.5417500">
        <ele>258.2</ele>
        <time>2021-07-26T11:11:44Z</time>
      </trkpt>
      <trkpt lat="42.8816560" lon="-8.5417630">
        <ele>258.6</ele>
        <time>2021-07-26T11:11:45Z</time>
      </trkpt>
      <trkpt lat="42.8816480" lon="-8.5417800">
        <ele>259.0</ele>
        <time>2021-07-26T11:11:46Z</time>
      </trkpt>
      <trkpt lat="42.8816440" lon="-8.5417940">
        <ele>259.4</ele>
        <time>2021-07-26T11:11:47Z</time>
      </trkpt>
      <trkpt lat="42.8816360" lon="-8.5418120">
        <ele>259.8</ele>
        <time>2021-07-26T11:11:48Z</time>
      </trkpt>
      <trkpt lat="42.8816260" lon="-8.5418320">
        <ele>259.8</ele>
        <time>2021-07-26T11:11:49Z</time>
      </trkpt>
      <trkpt lat="42.8815560" lon="-8.5420260">
        <ele>259.8</ele>
        <time>2021-07-26T11:11:58Z</time>
      </trkpt>
      <trkpt lat="42.8815350" lon="-8.5421750">
        <ele>260.2</ele>
        <time>2021-07-26T11:12:04Z</time>
      </trkpt>
      <trkpt lat="42.8815330" lon="-8.5421990">
        <ele>260.6</ele>
        <time>2021-07-26T11:12:05Z</time>
      </trkpt>
      <trkpt lat="42.8815320" lon="-8.5422230">
        <ele>261.0</ele>
        <time>2021-07-26T11:12:06Z</time>
      </trkpt>
      <trkpt lat="42.8815580" lon="-8.5422390">
        <ele>261.6</ele>
        <time>2021-07-26T11:12:07Z</time>
      </trkpt>
      <trkpt lat="42.8815560" lon="-8.5422590">
        <ele>262.0</ele>
        <time>2021-07-26T11:12:08Z</time>
      </trkpt>
      <trkpt lat="42.8814580" lon="-8.5423160">
        <ele>262.0</ele>
        <time>2021-07-26T11:12:12Z</time>
      </trkpt>
      <trkpt lat="42.8814130" lon="-8.5423320">
        <ele>262.0</ele>
        <time>2021-07-26T11:12:17Z</time>
      </trkpt>
      <trkpt lat="42.8813700" lon="-8.5423520">
        <ele>262.0</ele>
        <time>2021-07-26T11:12:20Z</time>
      </trkpt>
      <trkpt lat="42.8813320" lon="-8.5423550">
        <ele>262.0</ele>
        <time>2021-07-26T11:12:24Z</time>
      </trkpt>
      <trkpt lat="42.8812930" lon="-8.5423640">
        <ele>262.0</ele>
        <time>2021-07-26T11:12:27Z</time>
      </trkpt>
      <trkpt lat="42.8812510" lon="-8.5423600">
        <ele>262.0</ele>
        <time>2021-07-26T11:12:30Z</time>
      </trkpt>
      <trkpt lat="42.8812320" lon="-8.5423800">
        <ele>262.0</ele>
        <time>2021-07-26T11:12:33Z</time>
      </trkpt>
      <trkpt lat="42.8812340" lon="-8.5423860">
        <ele>262.0</ele>
        <time>2021-07-26T11:12:34Z</time>
      </trkpt>
      <trkpt lat="42.8812340" lon="-8.5424550">
        <ele>262.0</ele>
        <time>2021-07-26T11:13:11Z</time>
      </trkpt>
      <trkpt lat="42.8812350" lon="-8.5424820">
        <ele>262.0</ele>
        <time>2021-07-26T11:13:12Z</time>
      </trkpt>
      <trkpt lat="42.8812350" lon="-8.5425070">
        <ele>262.0</ele>
        <time>2021-07-26T11:13:13Z</time>
      </trkpt>
      <trkpt lat="42.8812480" lon="-8.5426560">
        <ele>262.0</ele>
        <time>2021-07-26T11:13:20Z</time>
      </trkpt>
      <trkpt lat="42.8812550" lon="-8.5426780">
        <ele>262.0</ele>
        <time>2021-07-26T11:13:21Z</time>
      </trkpt>
      <trkpt lat="42.8812680" lon="-8.5427010">
        <ele>261.6</ele>
        <time>2021-07-26T11:13:22Z</time>
      </trkpt>
      <trkpt lat="42.8812790" lon="-8.5427260">
        <ele>261.2</ele>
        <time>2021-07-26T11:13:23Z</time>
      </trkpt>
      <trkpt lat="42.8812930" lon="-8.5427570">
        <ele>260.2</ele>
        <time>2021-07-26T11:13:24Z</time>
      </trkpt>
      <trkpt lat="42.8813070" lon="-8.5427930">
        <ele>259.8</ele>
        <time>2021-07-26T11:13:25Z</time>
      </trkpt>
      <trkpt lat="42.8813600" lon="-8.5429240">
        <ele>259.8</ele>
        <time>2021-07-26T11:13:29Z</time>
      </trkpt>
      <trkpt lat="42.8813820" lon="-8.5430210">
        <ele>259.8</ele>
        <time>2021-07-26T11:13:33Z</time>
      </trkpt>
      <trkpt lat="42.8813810" lon="-8.5430900">
        <ele>259.8</ele>
        <time>2021-07-26T11:13:37Z</time>
      </trkpt>
      <trkpt lat="42.8813790" lon="-8.5431810">
        <ele>259.8</ele>
        <time>2021-07-26T11:13:45Z</time>
      </trkpt>
      <trkpt lat="42.8813150" lon="-8.5432460">
        <ele>259.8</ele>
        <time>2021-07-26T11:13:53Z</time>
      </trkpt>
      <trkpt lat="42.8813170" lon="-8.5438070">
        <ele>255.8</ele>
        <time>2021-07-26T11:14:45Z</time>
      </trkpt>
      <trkpt lat="42.8813150" lon="-8.5438220">
        <ele>255.8</ele>
        <time>2021-07-26T11:14:46Z</time>
      </trkpt>
      <trkpt lat="42.8813130" lon="-8.5438430">
        <ele>255.8</ele>
        <time>2021-07-26T11:14:47Z</time>
      </trkpt>
      <trkpt lat="42.8812850" lon="-8.5439170">
        <ele>255.8</ele>
        <time>2021-07-26T11:14:50Z</time>
      </trkpt>
      <trkpt lat="42.8812700" lon="-8.5439620">
        <ele>255.8</ele>
        <time>2021-07-26T11:14:52Z</time>
      </trkpt>
      <trkpt lat="42.8812470" lon="-8.5440520">
        <ele>255.8</ele>
        <time>2021-07-26T11:14:56Z</time>
      </trkpt>
      <trkpt lat="42.8812340" lon="-8.5441020">
        <ele>255.8</ele>
        <time>2021-07-26T11:14:58Z</time>
      </trkpt>
      <trkpt lat="42.8812290" lon="-8.5441540">
        <ele>255.8</ele>
        <time>2021-07-26T11:15:01Z</time>
      </trkpt>
      <trkpt lat="42.8812300" lon="-8.5441560">
        <ele>255.4</ele>
        <time>2021-07-26T11:15:02Z</time>
      </trkpt>
      <trkpt lat="42.8812310" lon="-8.5441610">
        <ele>254.6</ele>
        <time>2021-07-26T11:15:03Z</time>
      </trkpt>
      <trkpt lat="42.8812360" lon="-8.5441670">
        <ele>254.0</ele>
        <time>2021-07-26T11:15:04Z</time>
      </trkpt>
      <trkpt lat="42.8812400" lon="-8.5441730">
        <ele>253.6</ele>
        <time>2021-07-26T11:15:05Z</time>
      </trkpt>
      <trkpt lat="42.8812380" lon="-8.5441760">
        <ele>253.6</ele>
        <time>2021-07-26T11:15:06Z</time>
      </trkpt>
      <trkpt lat="42.8812460" lon="-8.5442340">
        <ele>253.6</ele>
        <time>2021-07-26T11:15:20Z</time>
      </trkpt>
      <trkpt lat="42.8812430" lon="-8.5442610">
        <ele>253.6</ele>
        <time>2021-07-26T11:15:22Z</time>
      </trkpt>
      <trkpt lat="42.8812360" lon="-8.5442680">
        <ele>253.6</ele>
        <time>2021-07-26T11:15:24Z</time>
      </trkpt>
      <trkpt lat="42.8812230" lon="-8.5442850">
        <ele>253.6</ele>
        <time>2021-07-26T11:15:27Z</time>
      </trkpt>
      <trkpt lat="42.8811610" lon="-8.5446250">
        <ele>251.6</ele>
        <time>2021-07-26T11:15:58Z</time>
      </trkpt>
      <trkpt lat="42.8811400" lon="-8.5447100">
        <ele>251.2</ele>
        <time>2021-07-26T11:16:02Z</time>
      </trkpt>
      <trkpt lat="42.8811290" lon="-8.5447380">
        <ele>250.6</ele>
        <time>2021-07-26T11:16:03Z</time>
      </trkpt>
      <trkpt lat="42.8811160" lon="-8.5447670">
        <ele>250.2</ele>
        <time>2021-07-26T11:16:04Z</time>
      </trkpt>
      <trkpt lat="42.8811060" lon="-8.5447930">
        <ele>249.8</ele>
        <time>2021-07-26T11:16:05Z</time>
      </trkpt>
      <trkpt lat="42.8810950" lon="-8.5448190">
        <ele>249.4</ele>
        <time>2021-07-26T11:16:06Z</time>
      </trkpt>
      <trkpt lat="42.8810140" lon="-8.5449240">
        <ele>249.0</ele>
        <time>2021-07-26T11:16:12Z</time>
      </trkpt>
      <trkpt lat="42.8810030" lon="-8.5449470">
        <ele>248.6</ele>
        <time>2021-07-26T11:16:13Z</time>
      </trkpt>
      <trkpt lat="42.8810040" lon="-8.5449560">
        <ele>248.2</ele>
        <time>2021-07-26T11:16:14Z</time>
      </trkpt>
      <trkpt lat="42.8810060" lon="-8.5449660">
        <ele>247.8</ele>
        <time>2021-07-26T11:16:15Z</time>
      </trkpt>
      <trkpt lat="42.8810070" lon="-8.5449760">
        <ele>247.4</ele>
        <time>2021-07-26T11:16:16Z</time>
      </trkpt>
      <trkpt lat="42.8810090" lon="-8.5449850">
        <ele>247.4</ele>
        <time>2021-07-26T11:16:18Z</time>
      </trkpt>
      <trkpt lat="42.8810100" lon="-8.5449950">
        <ele>247.4</ele>
        <time>2021-07-26T11:16:19Z</time>
      </trkpt>
      <trkpt lat="42.8810120" lon="-8.5450050">
        <ele>247.4</ele>
        <time>2021-07-26T11:16:20Z</time>
      </trkpt>
      <trkpt lat="42.8810130" lon="-8.5450140">
        <ele>247.4</ele>
        <time>2021-07-26T11:16:21Z</time>
      </trkpt>
      <trkpt lat="42.8810150" lon="-8.5450240">
        <ele>247.4</ele>
        <time>2021-07-26T11:16:22Z</time>
      </trkpt>
      <trkpt lat="42.8810160" lon="-8.5450340">
        <ele>247.4</ele>
        <time>2021-07-26T11:16:23Z</time>
      </trkpt>
      <trkpt lat="42.8810180" lon="-8.5450430">
        <ele>247.4</ele>
        <time>2021-07-26T11:16:25Z</time>
      </trkpt>
      <trkpt lat="42.8810190" lon="-8.5450530">
        <ele>247.4</ele>
        <time>2021-07-26T11:16:26Z</time>
      </trkpt>
      <trkpt lat="42.8810210" lon="-8.5450630">
        <ele>247.4</ele>
        <time>2021-07-26T11:16:27Z</time>
      </trkpt>
      <trkpt lat="42.8810220" lon="-8.5450720">
        <ele>247.4</ele>
        <time>2021-07-26T11:16:28Z</time>
      </trkpt>
      <trkpt lat="42.8810240" lon="-8.5450820">
        <ele>247.4</ele>
        <time>2021-07-26T11:16:30Z</time>
      </trkpt>
      <trkpt lat="42.8810250" lon="-8.5450920">
        <ele>247.0</ele>
        <time>2021-07-26T11:16:31Z</time>
      </trkpt>
      <trkpt lat="42.8810270" lon="-8.5451010">
        <ele>246.6</ele>
        <time>2021-07-26T11:16:32Z</time>
      </trkpt>
      <trkpt lat="42.8810280" lon="-8.5451110">
        <ele>246.2</ele>
        <time>2021-07-26T11:16:33Z</time>
      </trkpt>
      <trkpt lat="42.8810300" lon="-8.5451210">
        <ele>245.8</ele>
        <time>2021-07-26T11:16:34Z</time>
      </trkpt>
      <trkpt lat="42.8810310" lon="-8.5451300">
        <ele>245.4</ele>
        <time>2021-07-26T11:16:35Z</time>
      </trkpt>
      <trkpt lat="42.8810330" lon="-8.5451400">
        <ele>245.4</ele>
        <time>2021-07-26T11:16:36Z</time>
      </trkpt>
      <trkpt lat="42.8810340" lon="-8.5451500">
        <ele>245.4</ele>
        <time>2021-07-26T11:16:37Z</time>
      </trkpt>
      <trkpt lat="42.8810360" lon="-8.5451590">
        <ele>245.4</ele>
        <time>2021-07-26T11:16:38Z</time>
      </trkpt>
      <trkpt lat="42.8810370" lon="-8.5451690">
        <ele>245.4</ele>
        <time>2021-07-26T11:16:41Z</time>
      </trkpt>
      <trkpt lat="42.8810390" lon="-8.5451790">
        <ele>245.4</ele>
        <time>2021-07-26T11:16:42Z</time>
      </trkpt>
      <trkpt lat="42.8810400" lon="-8.5451880">
        <ele>245.4</ele>
        <time>2021-07-26T11:16:43Z</time>
      </trkpt>
      <trkpt lat="42.8810420" lon="-8.5451980">
        <ele>245.4</ele>
        <time>2021-07-26T11:16:44Z</time>
      </trkpt>
      <trkpt lat="42.8810430" lon="-8.5452080">
        <ele>245.4</ele>
        <time>2021-07-26T11:16:45Z</time>
      </trkpt>
      <trkpt lat="42.8810450" lon="-8.5452170">
        <ele>245.4</ele>
        <time>2021-07-26T11:16:48Z</time>
      </trkpt>
      <trkpt lat="42.8810460" lon="-8.5452270">
        <ele>245.0</ele>
        <time>2021-07-26T11:16:49Z</time>
      </trkpt>
      <trkpt lat="42.8810480" lon="-8.5452370">
        <ele>244.6</ele>
        <time>2021-07-26T11:16:50Z</time>
      </trkpt>
      <trkpt lat="42.8810490" lon="-8.5452460">
        <ele>244.2</ele>
        <time>2021-07-26T11:16:51Z</time>
      </trkpt>
      <trkpt lat="42.8810510" lon="-8.5452560">
        <ele>243.8</ele>
        <time>2021-07-26T11:16:52Z</time>
      </trkpt>
      <trkpt lat="42.8811150" lon="-8.5455620">
        <ele>243.4</ele>
        <time>2021-07-26T11:16:53Z</time>
      </trkpt>
      <trkpt lat="42.8810700" lon="-8.5455840">
        <ele>243.4</ele>
        <time>2021-07-26T11:16:58Z</time>
      </trkpt>
      <trkpt lat="42.8809320" lon="-8.5455850">
        <ele>243.4</ele>
        <time>2021-07-26T11:17:03Z</time>
      </trkpt>
      <trkpt lat="42.8809280" lon="-8.5455970">
        <ele>243.4</ele>
        <time>2021-07-26T11:17:04Z</time>
      </trkpt>
      <trkpt lat="42.8809260" lon="-8.5456630">
        <ele>243.4</ele>
        <time>2021-07-26T11:17:07Z</time>
      </trkpt>
      <trkpt lat="42.8809240" lon="-8.5457460">
        <ele>243.4</ele>
        <time>2021-07-26T11:17:10Z</time>
      </trkpt>
      <trkpt lat="42.8809250" lon="-8.5457750">
        <ele>243.4</ele>
        <time>2021-07-26T11:17:11Z</time>
      </trkpt>
      <trkpt lat="42.8809090" lon="-8.5458260">
        <ele>243.4</ele>
        <time>2021-07-26T11:17:13Z</time>
      </trkpt>
      <trkpt lat="42.8808830" lon="-8.5458580">
        <ele>243.4</ele>
        <time>2021-07-26T11:17:15Z</time>
      </trkpt>
      <trkpt lat="42.8808760" lon="-8.5458780">
        <ele>243.4</ele>
        <time>2021-07-26T11:17:16Z</time>
      </trkpt>
      <trkpt lat="42.8808450" lon="-8.5459280">
        <ele>243.4</ele>
        <time>2021-07-26T11:17:20Z</time>
      </trkpt>
      <trkpt lat="42.8808280" lon="-8.5459800">
        <ele>243.4</ele>
        <time>2021-07-26T11:17:23Z</time>
      </trkpt>
      <trkpt lat="42.8808010" lon="-8.5460310">
        <ele>243.4</ele>
        <time>2021-07-26T11:17:27Z</time>
      </trkpt>
      <trkpt lat="42.8807960" lon="-8.5460470">
        <ele>243.4</ele>
        <time>2021-07-26T11:17:28Z</time>
      </trkpt>
      <trkpt lat="42.8807380" lon="-8.5460780">
        <ele>243.4</ele>
        <time>2021-07-26T11:17:33Z</time>
      </trkpt>
      <trkpt lat="42.8807240" lon="-8.5460770">
        <ele>243.4</ele>
        <time>2021-07-26T11:17:34Z</time>
      </trkpt>
      <trkpt lat="42.8806060" lon="-8.5460940">
        <ele>243.4</ele>
        <time>2021-07-26T11:17:42Z</time>
      </trkpt>
      <trkpt lat="42.8805530" lon="-8.5460800">
        <ele>243.4</ele>
        <time>2021-07-26T11:17:46Z</time>
      </trkpt>
      <trkpt lat="42.8805120" lon="-8.5460730">
        <ele>243.4</ele>
        <time>2021-07-26T11:17:49Z</time>
      </trkpt>
      <trkpt lat="42.8804530" lon="-8.5460520">
        <ele>243.4</ele>
        <time>2021-07-26T11:17:55Z</time>
      </trkpt>
      <trkpt lat="42.8804450" lon="-8.5460080">
        <ele>243.4</ele>
        <time>2021-07-26T11:18:00Z</time>
      </trkpt>
      <trkpt lat="42.8804450" lon="-8.5460040">
        <ele>243.4</ele>
        <time>2021-07-26T11:18:01Z</time>
      </trkpt>
    </trkseg>
  </trk>
</gpx>
